<?xml version="1.0" encoding="UTF-8"?>
<gpx version="1.1" creator="https://www.www-youtrack-es.amenigma.com" xsi:schemaLocation="http://www.topografix.com/GPX/1/1 http://www.topografix.com/GPX/1/1/gpx.xsd http://www.garmin.com/xmlschemas/GpxExtensions/v3 http://www.garmin.com/xmlschemas/GpxExtensionsv3.xsd http://www.garmin.com/xmlschemas/TrackPointExtension/v1 http://www.garmin.com/xmlschemas/TrackPointExtensionv1.xsd" xmlns:gpxtpx="http://www.garmin.com/xmlschemas/TrackPointExtension/v1" xmlns:gpxx="http://www.garmin.com/xmlschemas/GpxExtensions/v3" xmlns:xsi="http://www.w3.org/2001/XMLSchema-instance">
  <metadata>
    <link href="https://www.www-youtrack-es.amenigma.com">
      <text>YouTrack.es</text>
    </link>
    <time>2026-08-31T08:21:18Z</time>
  </metadata>
  <trk>
    <src>https://www.www-youtrack-es.amenigma.com</src>
    <link href="https://www.www-youtrack-es.amenigma.com/ruta/9071-reto-2019-parte-ii">
      <text>YouTrack.es</text>
    </link>
    <trkseg>
      <trkpt lat="37.2027260" lon="-1.8925320">
        <ele>69.9</ele>
        <time>2019-10-18T08:12:32Z</time>
      </trkpt>
      <trkpt lat="37.2027260" lon="-1.8925320">
        <ele>69.9</ele>
        <time>2019-10-18T08:12:33Z</time>
      </trkpt>
      <trkpt lat="37.2027260" lon="-1.8925320">
        <ele>69.9</ele>
        <time>2019-10-18T08:12:34Z</time>
      </trkpt>
      <trkpt lat="37.2027260" lon="-1.8925320">
        <ele>69.9</ele>
        <time>2019-10-18T08:12:35Z</time>
      </trkpt>
      <trkpt lat="37.2027260" lon="-1.8925320">
        <ele>69.9</ele>
        <time>2019-10-18T08:12:36Z</time>
      </trkpt>
      <trkpt lat="37.2027260" lon="-1.8925320">
        <ele>69.9</ele>
        <time>2019-10-18T08:12:37Z</time>
      </trkpt>
      <trkpt lat="37.2027260" lon="-1.8925320">
        <ele>69.9</ele>
        <time>2019-10-18T08:12:38Z</time>
      </trkpt>
      <trkpt lat="37.2027260" lon="-1.8925320">
        <ele>69.9</ele>
        <time>2019-10-18T08:12:39Z</time>
      </trkpt>
      <trkpt lat="37.2027260" lon="-1.8925320">
        <ele>69.9</ele>
        <time>2019-10-18T08:12:40Z</time>
      </trkpt>
      <trkpt lat="37.2027260" lon="-1.8925320">
        <ele>69.9</ele>
        <time>2019-10-18T08:12:41Z</time>
      </trkpt>
      <trkpt lat="37.2027260" lon="-1.8925320">
        <ele>69.9</ele>
        <time>2019-10-18T08:12:42Z</time>
      </trkpt>
      <trkpt lat="37.2027260" lon="-1.8925320">
        <ele>69.9</ele>
        <time>2019-10-18T08:12:43Z</time>
      </trkpt>
      <trkpt lat="37.2027260" lon="-1.8925320">
        <ele>69.9</ele>
        <time>2019-10-18T08:12:44Z</time>
      </trkpt>
      <trkpt lat="37.2027260" lon="-1.8925320">
        <ele>69.9</ele>
        <time>2019-10-18T08:12:45Z</time>
      </trkpt>
      <trkpt lat="37.2027320" lon="-1.8925380">
        <ele>69.9</ele>
        <time>2019-10-18T08:12:46Z</time>
      </trkpt>
      <trkpt lat="37.2027450" lon="-1.8925480">
        <ele>70.0</ele>
        <time>2019-10-18T08:12:47Z</time>
      </trkpt>
      <trkpt lat="37.2027660" lon="-1.8925620">
        <ele>70.1</ele>
        <time>2019-10-18T08:12:48Z</time>
      </trkpt>
      <trkpt lat="37.2027900" lon="-1.8925710">
        <ele>70.3</ele>
        <time>2019-10-18T08:12:49Z</time>
      </trkpt>
      <trkpt lat="37.2028140" lon="-1.8925770">
        <ele>70.4</ele>
        <time>2019-10-18T08:12:50Z</time>
      </trkpt>
      <trkpt lat="37.2028360" lon="-1.8925830">
        <ele>70.5</ele>
        <time>2019-10-18T08:12:51Z</time>
      </trkpt>
      <trkpt lat="37.2028550" lon="-1.8925920">
        <ele>70.7</ele>
        <time>2019-10-18T08:12:52Z</time>
      </trkpt>
      <trkpt lat="37.2028730" lon="-1.8926050">
        <ele>70.8</ele>
        <time>2019-10-18T08:12:53Z</time>
      </trkpt>
      <trkpt lat="37.2028900" lon="-1.8926210">
        <ele>70.9</ele>
        <time>2019-10-18T08:12:54Z</time>
      </trkpt>
      <trkpt lat="37.2029060" lon="-1.8926380">
        <ele>71.0</ele>
        <time>2019-10-18T08:12:55Z</time>
      </trkpt>
      <trkpt lat="37.2029240" lon="-1.8926530">
        <ele>71.2</ele>
        <time>2019-10-18T08:12:56Z</time>
      </trkpt>
      <trkpt lat="37.2029420" lon="-1.8926680">
        <ele>71.3</ele>
        <time>2019-10-18T08:12:57Z</time>
      </trkpt>
      <trkpt lat="37.2029620" lon="-1.8926770">
        <ele>71.6</ele>
        <time>2019-10-18T08:12:58Z</time>
      </trkpt>
      <trkpt lat="37.2029850" lon="-1.8926810">
        <ele>71.5</ele>
        <time>2019-10-18T08:12:59Z</time>
      </trkpt>
      <trkpt lat="37.2030110" lon="-1.8926740">
        <ele>71.4</ele>
        <time>2019-10-18T08:13:00Z</time>
      </trkpt>
      <trkpt lat="37.2030380" lon="-1.8926600">
        <ele>71.3</ele>
        <time>2019-10-18T08:13:01Z</time>
      </trkpt>
      <trkpt lat="37.2030650" lon="-1.8926430">
        <ele>70.7</ele>
        <time>2019-10-18T08:13:02Z</time>
      </trkpt>
      <trkpt lat="37.2030960" lon="-1.8926320">
        <ele>70.3</ele>
        <time>2019-10-18T08:13:03Z</time>
      </trkpt>
      <trkpt lat="37.2031300" lon="-1.8926280">
        <ele>70.0</ele>
        <time>2019-10-18T08:13:04Z</time>
      </trkpt>
      <trkpt lat="37.2031660" lon="-1.8926300">
        <ele>69.7</ele>
        <time>2019-10-18T08:13:05Z</time>
      </trkpt>
      <trkpt lat="37.2032040" lon="-1.8926370">
        <ele>69.6</ele>
        <time>2019-10-18T08:13:06Z</time>
      </trkpt>
      <trkpt lat="37.2032450" lon="-1.8926440">
        <ele>69.6</ele>
        <time>2019-10-18T08:13:07Z</time>
      </trkpt>
      <trkpt lat="37.2032890" lon="-1.8926450">
        <ele>68.9</ele>
        <time>2019-10-18T08:13:08Z</time>
      </trkpt>
      <trkpt lat="37.2033360" lon="-1.8926330">
        <ele>68.6</ele>
        <time>2019-10-18T08:13:09Z</time>
      </trkpt>
      <trkpt lat="37.2033840" lon="-1.8926050">
        <ele>68.1</ele>
        <time>2019-10-18T08:13:10Z</time>
      </trkpt>
      <trkpt lat="37.2034310" lon="-1.8925650">
        <ele>67.5</ele>
        <time>2019-10-18T08:13:11Z</time>
      </trkpt>
      <trkpt lat="37.2034810" lon="-1.8925230">
        <ele>66.9</ele>
        <time>2019-10-18T08:13:12Z</time>
      </trkpt>
      <trkpt lat="37.2035330" lon="-1.8924820">
        <ele>66.3</ele>
        <time>2019-10-18T08:13:13Z</time>
      </trkpt>
      <trkpt lat="37.2035850" lon="-1.8924410">
        <ele>65.7</ele>
        <time>2019-10-18T08:13:14Z</time>
      </trkpt>
      <trkpt lat="37.2036370" lon="-1.8923990">
        <ele>65.2</ele>
        <time>2019-10-18T08:13:15Z</time>
      </trkpt>
      <trkpt lat="37.2036900" lon="-1.8923590">
        <ele>64.6</ele>
        <time>2019-10-18T08:13:16Z</time>
      </trkpt>
      <trkpt lat="37.2037440" lon="-1.8923220">
        <ele>64.1</ele>
        <time>2019-10-18T08:13:17Z</time>
      </trkpt>
      <trkpt lat="37.2038000" lon="-1.8922910">
        <ele>63.5</ele>
        <time>2019-10-18T08:13:18Z</time>
      </trkpt>
      <trkpt lat="37.2038580" lon="-1.8922660">
        <ele>63.0</ele>
        <time>2019-10-18T08:13:19Z</time>
      </trkpt>
      <trkpt lat="37.2039170" lon="-1.8922480">
        <ele>62.5</ele>
        <time>2019-10-18T08:13:20Z</time>
      </trkpt>
      <trkpt lat="37.2039770" lon="-1.8922390">
        <ele>62.0</ele>
        <time>2019-10-18T08:13:21Z</time>
      </trkpt>
      <trkpt lat="37.2040350" lon="-1.8922380">
        <ele>61.5</ele>
        <time>2019-10-18T08:13:22Z</time>
      </trkpt>
      <trkpt lat="37.2040950" lon="-1.8922460">
        <ele>61.0</ele>
        <time>2019-10-18T08:13:23Z</time>
      </trkpt>
      <trkpt lat="37.2041580" lon="-1.8922670">
        <ele>60.2</ele>
        <time>2019-10-18T08:13:24Z</time>
      </trkpt>
      <trkpt lat="37.2042230" lon="-1.8923020">
        <ele>60.1</ele>
        <time>2019-10-18T08:13:25Z</time>
      </trkpt>
      <trkpt lat="37.2042880" lon="-1.8923470">
        <ele>60.1</ele>
        <time>2019-10-18T08:13:26Z</time>
      </trkpt>
      <trkpt lat="37.2043480" lon="-1.8924030">
        <ele>60.1</ele>
        <time>2019-10-18T08:13:27Z</time>
      </trkpt>
      <trkpt lat="37.2044040" lon="-1.8924640">
        <ele>60.2</ele>
        <time>2019-10-18T08:13:28Z</time>
      </trkpt>
      <trkpt lat="37.2044560" lon="-1.8925300">
        <ele>60.3</ele>
        <time>2019-10-18T08:13:29Z</time>
      </trkpt>
      <trkpt lat="37.2045060" lon="-1.8925960">
        <ele>60.4</ele>
        <time>2019-10-18T08:13:30Z</time>
      </trkpt>
      <trkpt lat="37.2045540" lon="-1.8926600">
        <ele>60.7</ele>
        <time>2019-10-18T08:13:31Z</time>
      </trkpt>
      <trkpt lat="37.2046010" lon="-1.8927220">
        <ele>61.0</ele>
        <time>2019-10-18T08:13:32Z</time>
      </trkpt>
      <trkpt lat="37.2046470" lon="-1.8927830">
        <ele>61.3</ele>
        <time>2019-10-18T08:13:33Z</time>
      </trkpt>
      <trkpt lat="37.2046910" lon="-1.8928420">
        <ele>61.6</ele>
        <time>2019-10-18T08:13:34Z</time>
      </trkpt>
      <trkpt lat="37.2047340" lon="-1.8928980">
        <ele>61.8</ele>
        <time>2019-10-18T08:13:35Z</time>
      </trkpt>
      <trkpt lat="37.2047760" lon="-1.8929520">
        <ele>62.1</ele>
        <time>2019-10-18T08:13:36Z</time>
      </trkpt>
      <trkpt lat="37.2048180" lon="-1.8930020">
        <ele>62.3</ele>
        <time>2019-10-18T08:13:37Z</time>
      </trkpt>
      <trkpt lat="37.2048590" lon="-1.8930500">
        <ele>62.5</ele>
        <time>2019-10-18T08:13:38Z</time>
      </trkpt>
      <trkpt lat="37.2049020" lon="-1.8930930">
        <ele>62.6</ele>
        <time>2019-10-18T08:13:39Z</time>
      </trkpt>
      <trkpt lat="37.2049460" lon="-1.8931310">
        <ele>62.8</ele>
        <time>2019-10-18T08:13:40Z</time>
      </trkpt>
      <trkpt lat="37.2049900" lon="-1.8931650">
        <ele>62.9</ele>
        <time>2019-10-18T08:13:41Z</time>
      </trkpt>
      <trkpt lat="37.2050350" lon="-1.8931960">
        <ele>63.0</ele>
        <time>2019-10-18T08:13:42Z</time>
      </trkpt>
      <trkpt lat="37.2050800" lon="-1.8932240">
        <ele>63.2</ele>
        <time>2019-10-18T08:13:43Z</time>
      </trkpt>
      <trkpt lat="37.2051270" lon="-1.8932470">
        <ele>63.3</ele>
        <time>2019-10-18T08:13:44Z</time>
      </trkpt>
      <trkpt lat="37.2051750" lon="-1.8932670">
        <ele>63.4</ele>
        <time>2019-10-18T08:13:45Z</time>
      </trkpt>
      <trkpt lat="37.2052230" lon="-1.8932840">
        <ele>63.6</ele>
        <time>2019-10-18T08:13:46Z</time>
      </trkpt>
      <trkpt lat="37.2052710" lon="-1.8932980">
        <ele>63.8</ele>
        <time>2019-10-18T08:13:47Z</time>
      </trkpt>
      <trkpt lat="37.2053180" lon="-1.8933120">
        <ele>63.9</ele>
        <time>2019-10-18T08:13:48Z</time>
      </trkpt>
      <trkpt lat="37.2053640" lon="-1.8933270">
        <ele>64.0</ele>
        <time>2019-10-18T08:13:49Z</time>
      </trkpt>
      <trkpt lat="37.2054080" lon="-1.8933430">
        <ele>64.2</ele>
        <time>2019-10-18T08:13:50Z</time>
      </trkpt>
      <trkpt lat="37.2054520" lon="-1.8933610">
        <ele>64.3</ele>
        <time>2019-10-18T08:13:51Z</time>
      </trkpt>
      <trkpt lat="37.2054950" lon="-1.8933770">
        <ele>64.4</ele>
        <time>2019-10-18T08:13:52Z</time>
      </trkpt>
      <trkpt lat="37.2055380" lon="-1.8933930">
        <ele>64.5</ele>
        <time>2019-10-18T08:13:53Z</time>
      </trkpt>
      <trkpt lat="37.2055820" lon="-1.8934100">
        <ele>64.6</ele>
        <time>2019-10-18T08:13:54Z</time>
      </trkpt>
      <trkpt lat="37.2056250" lon="-1.8934300">
        <ele>64.7</ele>
        <time>2019-10-18T08:13:55Z</time>
      </trkpt>
      <trkpt lat="37.2056670" lon="-1.8934530">
        <ele>64.7</ele>
        <time>2019-10-18T08:13:56Z</time>
      </trkpt>
      <trkpt lat="37.2057070" lon="-1.8934800">
        <ele>64.7</ele>
        <time>2019-10-18T08:13:57Z</time>
      </trkpt>
      <trkpt lat="37.2057460" lon="-1.8935090">
        <ele>64.8</ele>
        <time>2019-10-18T08:13:58Z</time>
      </trkpt>
      <trkpt lat="37.2057830" lon="-1.8935410">
        <ele>64.8</ele>
        <time>2019-10-18T08:13:59Z</time>
      </trkpt>
      <trkpt lat="37.2058180" lon="-1.8935740">
        <ele>64.8</ele>
        <time>2019-10-18T08:14:00Z</time>
      </trkpt>
      <trkpt lat="37.2058530" lon="-1.8936100">
        <ele>64.8</ele>
        <time>2019-10-18T08:14:01Z</time>
      </trkpt>
      <trkpt lat="37.2058860" lon="-1.8936470">
        <ele>64.8</ele>
        <time>2019-10-18T08:14:02Z</time>
      </trkpt>
      <trkpt lat="37.2059170" lon="-1.8936880">
        <ele>64.8</ele>
        <time>2019-10-18T08:14:03Z</time>
      </trkpt>
      <trkpt lat="37.2059460" lon="-1.8937310">
        <ele>64.9</ele>
        <time>2019-10-18T08:14:04Z</time>
      </trkpt>
      <trkpt lat="37.2059740" lon="-1.8937750">
        <ele>65.0</ele>
        <time>2019-10-18T08:14:05Z</time>
      </trkpt>
      <trkpt lat="37.2059990" lon="-1.8938210">
        <ele>65.1</ele>
        <time>2019-10-18T08:14:06Z</time>
      </trkpt>
      <trkpt lat="37.2060210" lon="-1.8938680">
        <ele>65.2</ele>
        <time>2019-10-18T08:14:07Z</time>
      </trkpt>
      <trkpt lat="37.2060410" lon="-1.8939170">
        <ele>65.3</ele>
        <time>2019-10-18T08:14:08Z</time>
      </trkpt>
      <trkpt lat="37.2060580" lon="-1.8939680">
        <ele>65.4</ele>
        <time>2019-10-18T08:14:09Z</time>
      </trkpt>
      <trkpt lat="37.2060730" lon="-1.8940200">
        <ele>65.6</ele>
        <time>2019-10-18T08:14:10Z</time>
      </trkpt>
      <trkpt lat="37.2060860" lon="-1.8940740">
        <ele>65.7</ele>
        <time>2019-10-18T08:14:11Z</time>
      </trkpt>
      <trkpt lat="37.2060970" lon="-1.8941280">
        <ele>65.8</ele>
        <time>2019-10-18T08:14:12Z</time>
      </trkpt>
      <trkpt lat="37.2061050" lon="-1.8941810">
        <ele>65.9</ele>
        <time>2019-10-18T08:14:13Z</time>
      </trkpt>
      <trkpt lat="37.2061090" lon="-1.8942350">
        <ele>66.1</ele>
        <time>2019-10-18T08:14:14Z</time>
      </trkpt>
      <trkpt lat="37.2061080" lon="-1.8942900">
        <ele>66.2</ele>
        <time>2019-10-18T08:14:15Z</time>
      </trkpt>
      <trkpt lat="37.2061050" lon="-1.8943450">
        <ele>66.4</ele>
        <time>2019-10-18T08:14:16Z</time>
      </trkpt>
      <trkpt lat="37.2061010" lon="-1.8944000">
        <ele>66.6</ele>
        <time>2019-10-18T08:14:17Z</time>
      </trkpt>
      <trkpt lat="37.2060970" lon="-1.8944540">
        <ele>66.7</ele>
        <time>2019-10-18T08:14:18Z</time>
      </trkpt>
      <trkpt lat="37.2060930" lon="-1.8945080">
        <ele>66.9</ele>
        <time>2019-10-18T08:14:19Z</time>
      </trkpt>
      <trkpt lat="37.2060870" lon="-1.8945620">
        <ele>67.1</ele>
        <time>2019-10-18T08:14:20Z</time>
      </trkpt>
      <trkpt lat="37.2060810" lon="-1.8946160">
        <ele>67.3</ele>
        <time>2019-10-18T08:14:21Z</time>
      </trkpt>
      <trkpt lat="37.2060720" lon="-1.8946680">
        <ele>67.5</ele>
        <time>2019-10-18T08:14:22Z</time>
      </trkpt>
      <trkpt lat="37.2060630" lon="-1.8947210">
        <ele>67.7</ele>
        <time>2019-10-18T08:14:23Z</time>
      </trkpt>
      <trkpt lat="37.2060530" lon="-1.8947730">
        <ele>67.9</ele>
        <time>2019-10-18T08:14:24Z</time>
      </trkpt>
      <trkpt lat="37.2060440" lon="-1.8948270">
        <ele>68.2</ele>
        <time>2019-10-18T08:14:25Z</time>
      </trkpt>
      <trkpt lat="37.2060360" lon="-1.8948800">
        <ele>68.6</ele>
        <time>2019-10-18T08:14:26Z</time>
      </trkpt>
      <trkpt lat="37.2060280" lon="-1.8949330">
        <ele>68.9</ele>
        <time>2019-10-18T08:14:27Z</time>
      </trkpt>
      <trkpt lat="37.2060190" lon="-1.8949860">
        <ele>69.3</ele>
        <time>2019-10-18T08:14:28Z</time>
      </trkpt>
      <trkpt lat="37.2060090" lon="-1.8950380">
        <ele>69.8</ele>
        <time>2019-10-18T08:14:29Z</time>
      </trkpt>
      <trkpt lat="37.2060010" lon="-1.8950910">
        <ele>70.2</ele>
        <time>2019-10-18T08:14:30Z</time>
      </trkpt>
      <trkpt lat="37.2059930" lon="-1.8951430">
        <ele>70.7</ele>
        <time>2019-10-18T08:14:31Z</time>
      </trkpt>
      <trkpt lat="37.2059860" lon="-1.8951940">
        <ele>71.2</ele>
        <time>2019-10-18T08:14:32Z</time>
      </trkpt>
      <trkpt lat="37.2059780" lon="-1.8952440">
        <ele>71.6</ele>
        <time>2019-10-18T08:14:33Z</time>
      </trkpt>
      <trkpt lat="37.2059700" lon="-1.8952930">
        <ele>72.1</ele>
        <time>2019-10-18T08:14:34Z</time>
      </trkpt>
      <trkpt lat="37.2059610" lon="-1.8953400">
        <ele>72.5</ele>
        <time>2019-10-18T08:14:35Z</time>
      </trkpt>
      <trkpt lat="37.2059520" lon="-1.8953870">
        <ele>72.9</ele>
        <time>2019-10-18T08:14:36Z</time>
      </trkpt>
      <trkpt lat="37.2059440" lon="-1.8954320">
        <ele>73.2</ele>
        <time>2019-10-18T08:14:37Z</time>
      </trkpt>
      <trkpt lat="37.2059370" lon="-1.8954740">
        <ele>73.5</ele>
        <time>2019-10-18T08:14:38Z</time>
      </trkpt>
      <trkpt lat="37.2059300" lon="-1.8955140">
        <ele>73.7</ele>
        <time>2019-10-18T08:14:39Z</time>
      </trkpt>
      <trkpt lat="37.2059230" lon="-1.8955520">
        <ele>73.9</ele>
        <time>2019-10-18T08:14:40Z</time>
      </trkpt>
      <trkpt lat="37.2059170" lon="-1.8955890">
        <ele>74.1</ele>
        <time>2019-10-18T08:14:41Z</time>
      </trkpt>
      <trkpt lat="37.2059120" lon="-1.8956270">
        <ele>74.3</ele>
        <time>2019-10-18T08:14:42Z</time>
      </trkpt>
      <trkpt lat="37.2059060" lon="-1.8956640">
        <ele>74.4</ele>
        <time>2019-10-18T08:14:43Z</time>
      </trkpt>
      <trkpt lat="37.2059010" lon="-1.8957000">
        <ele>74.6</ele>
        <time>2019-10-18T08:14:44Z</time>
      </trkpt>
      <trkpt lat="37.2058960" lon="-1.8957360">
        <ele>74.8</ele>
        <time>2019-10-18T08:14:45Z</time>
      </trkpt>
      <trkpt lat="37.2058890" lon="-1.8957720">
        <ele>74.9</ele>
        <time>2019-10-18T08:14:46Z</time>
      </trkpt>
      <trkpt lat="37.2058830" lon="-1.8958090">
        <ele>75.1</ele>
        <time>2019-10-18T08:14:47Z</time>
      </trkpt>
      <trkpt lat="37.2058780" lon="-1.8958460">
        <ele>75.3</ele>
        <time>2019-10-18T08:14:48Z</time>
      </trkpt>
      <trkpt lat="37.2058750" lon="-1.8958830">
        <ele>75.5</ele>
        <time>2019-10-18T08:14:49Z</time>
      </trkpt>
      <trkpt lat="37.2058720" lon="-1.8959200">
        <ele>75.7</ele>
        <time>2019-10-18T08:14:50Z</time>
      </trkpt>
      <trkpt lat="37.2058690" lon="-1.8959560">
        <ele>75.9</ele>
        <time>2019-10-18T08:14:51Z</time>
      </trkpt>
      <trkpt lat="37.2058650" lon="-1.8959920">
        <ele>76.2</ele>
        <time>2019-10-18T08:14:52Z</time>
      </trkpt>
      <trkpt lat="37.2058600" lon="-1.8960260">
        <ele>76.4</ele>
        <time>2019-10-18T08:14:53Z</time>
      </trkpt>
      <trkpt lat="37.2058530" lon="-1.8960610">
        <ele>76.6</ele>
        <time>2019-10-18T08:14:54Z</time>
      </trkpt>
      <trkpt lat="37.2058460" lon="-1.8960970">
        <ele>76.9</ele>
        <time>2019-10-18T08:14:55Z</time>
      </trkpt>
      <trkpt lat="37.2058390" lon="-1.8961330">
        <ele>77.2</ele>
        <time>2019-10-18T08:14:56Z</time>
      </trkpt>
      <trkpt lat="37.2058340" lon="-1.8961690">
        <ele>77.4</ele>
        <time>2019-10-18T08:14:57Z</time>
      </trkpt>
      <trkpt lat="37.2058290" lon="-1.8962070">
        <ele>77.7</ele>
        <time>2019-10-18T08:14:58Z</time>
      </trkpt>
      <trkpt lat="37.2058260" lon="-1.8962450">
        <ele>78.0</ele>
        <time>2019-10-18T08:14:59Z</time>
      </trkpt>
      <trkpt lat="37.2058290" lon="-1.8962830">
        <ele>78.3</ele>
        <time>2019-10-18T08:15:00Z</time>
      </trkpt>
      <trkpt lat="37.2058420" lon="-1.8963170">
        <ele>78.6</ele>
        <time>2019-10-18T08:15:01Z</time>
      </trkpt>
      <trkpt lat="37.2058610" lon="-1.8963460">
        <ele>79.7</ele>
        <time>2019-10-18T08:15:02Z</time>
      </trkpt>
      <trkpt lat="37.2058830" lon="-1.8963740">
        <ele>79.9</ele>
        <time>2019-10-18T08:15:03Z</time>
      </trkpt>
      <trkpt lat="37.2059020" lon="-1.8964050">
        <ele>80.1</ele>
        <time>2019-10-18T08:15:04Z</time>
      </trkpt>
      <trkpt lat="37.2059180" lon="-1.8964370">
        <ele>80.3</ele>
        <time>2019-10-18T08:15:05Z</time>
      </trkpt>
      <trkpt lat="37.2059290" lon="-1.8964720">
        <ele>80.5</ele>
        <time>2019-10-18T08:15:06Z</time>
      </trkpt>
      <trkpt lat="37.2059350" lon="-1.8965080">
        <ele>80.6</ele>
        <time>2019-10-18T08:15:07Z</time>
      </trkpt>
      <trkpt lat="37.2059330" lon="-1.8965460">
        <ele>80.7</ele>
        <time>2019-10-18T08:15:08Z</time>
      </trkpt>
      <trkpt lat="37.2059220" lon="-1.8965830">
        <ele>80.9</ele>
        <time>2019-10-18T08:15:09Z</time>
      </trkpt>
      <trkpt lat="37.2059030" lon="-1.8966160">
        <ele>81.0</ele>
        <time>2019-10-18T08:15:10Z</time>
      </trkpt>
      <trkpt lat="37.2058790" lon="-1.8966440">
        <ele>81.2</ele>
        <time>2019-10-18T08:15:11Z</time>
      </trkpt>
      <trkpt lat="37.2058520" lon="-1.8966650">
        <ele>81.4</ele>
        <time>2019-10-18T08:15:12Z</time>
      </trkpt>
      <trkpt lat="37.2058240" lon="-1.8966840">
        <ele>81.5</ele>
        <time>2019-10-18T08:15:13Z</time>
      </trkpt>
      <trkpt lat="37.2057950" lon="-1.8967050">
        <ele>81.7</ele>
        <time>2019-10-18T08:15:14Z</time>
      </trkpt>
      <trkpt lat="37.2057680" lon="-1.8967300">
        <ele>82.5</ele>
        <time>2019-10-18T08:15:15Z</time>
      </trkpt>
      <trkpt lat="37.2057450" lon="-1.8967620">
        <ele>82.9</ele>
        <time>2019-10-18T08:15:16Z</time>
      </trkpt>
      <trkpt lat="37.2057260" lon="-1.8967980">
        <ele>83.2</ele>
        <time>2019-10-18T08:15:17Z</time>
      </trkpt>
      <trkpt lat="37.2057100" lon="-1.8968350">
        <ele>83.6</ele>
        <time>2019-10-18T08:15:18Z</time>
      </trkpt>
      <trkpt lat="37.2056960" lon="-1.8968710">
        <ele>83.9</ele>
        <time>2019-10-18T08:15:19Z</time>
      </trkpt>
      <trkpt lat="37.2056860" lon="-1.8969060">
        <ele>84.1</ele>
        <time>2019-10-18T08:15:20Z</time>
      </trkpt>
      <trkpt lat="37.2056770" lon="-1.8969410">
        <ele>84.4</ele>
        <time>2019-10-18T08:15:21Z</time>
      </trkpt>
      <trkpt lat="37.2056690" lon="-1.8969770">
        <ele>84.6</ele>
        <time>2019-10-18T08:15:22Z</time>
      </trkpt>
      <trkpt lat="37.2056630" lon="-1.8970110">
        <ele>84.8</ele>
        <time>2019-10-18T08:15:23Z</time>
      </trkpt>
      <trkpt lat="37.2056580" lon="-1.8970460">
        <ele>85.0</ele>
        <time>2019-10-18T08:15:24Z</time>
      </trkpt>
      <trkpt lat="37.2056530" lon="-1.8970800">
        <ele>85.1</ele>
        <time>2019-10-18T08:15:25Z</time>
      </trkpt>
      <trkpt lat="37.2056470" lon="-1.8971150">
        <ele>85.3</ele>
        <time>2019-10-18T08:15:26Z</time>
      </trkpt>
      <trkpt lat="37.2056400" lon="-1.8971480">
        <ele>85.4</ele>
        <time>2019-10-18T08:15:27Z</time>
      </trkpt>
      <trkpt lat="37.2056300" lon="-1.8971820">
        <ele>85.6</ele>
        <time>2019-10-18T08:15:28Z</time>
      </trkpt>
      <trkpt lat="37.2056220" lon="-1.8972160">
        <ele>85.8</ele>
        <time>2019-10-18T08:15:29Z</time>
      </trkpt>
      <trkpt lat="37.2056130" lon="-1.8972510">
        <ele>85.9</ele>
        <time>2019-10-18T08:15:30Z</time>
      </trkpt>
      <trkpt lat="37.2056050" lon="-1.8972870">
        <ele>86.1</ele>
        <time>2019-10-18T08:15:31Z</time>
      </trkpt>
      <trkpt lat="37.2055970" lon="-1.8973220">
        <ele>86.3</ele>
        <time>2019-10-18T08:15:32Z</time>
      </trkpt>
      <trkpt lat="37.2055880" lon="-1.8973580">
        <ele>86.5</ele>
        <time>2019-10-18T08:15:33Z</time>
      </trkpt>
      <trkpt lat="37.2055810" lon="-1.8973950">
        <ele>86.7</ele>
        <time>2019-10-18T08:15:34Z</time>
      </trkpt>
      <trkpt lat="37.2055730" lon="-1.8974310">
        <ele>86.9</ele>
        <time>2019-10-18T08:15:35Z</time>
      </trkpt>
      <trkpt lat="37.2055660" lon="-1.8974670">
        <ele>87.0</ele>
        <time>2019-10-18T08:15:36Z</time>
      </trkpt>
      <trkpt lat="37.2055580" lon="-1.8975030">
        <ele>87.2</ele>
        <time>2019-10-18T08:15:37Z</time>
      </trkpt>
      <trkpt lat="37.2055490" lon="-1.8975380">
        <ele>87.4</ele>
        <time>2019-10-18T08:15:38Z</time>
      </trkpt>
      <trkpt lat="37.2055390" lon="-1.8975730">
        <ele>87.5</ele>
        <time>2019-10-18T08:15:39Z</time>
      </trkpt>
      <trkpt lat="37.2055290" lon="-1.8976090">
        <ele>87.6</ele>
        <time>2019-10-18T08:15:40Z</time>
      </trkpt>
      <trkpt lat="37.2055190" lon="-1.8976440">
        <ele>87.8</ele>
        <time>2019-10-18T08:15:41Z</time>
      </trkpt>
      <trkpt lat="37.2055090" lon="-1.8976800">
        <ele>87.9</ele>
        <time>2019-10-18T08:15:42Z</time>
      </trkpt>
      <trkpt lat="37.2054990" lon="-1.8977150">
        <ele>88.0</ele>
        <time>2019-10-18T08:15:43Z</time>
      </trkpt>
      <trkpt lat="37.2054880" lon="-1.8977520">
        <ele>88.1</ele>
        <time>2019-10-18T08:15:44Z</time>
      </trkpt>
      <trkpt lat="37.2054790" lon="-1.8977890">
        <ele>88.2</ele>
        <time>2019-10-18T08:15:45Z</time>
      </trkpt>
      <trkpt lat="37.2054690" lon="-1.8978250">
        <ele>88.2</ele>
        <time>2019-10-18T08:15:46Z</time>
      </trkpt>
      <trkpt lat="37.2054610" lon="-1.8978580">
        <ele>88.3</ele>
        <time>2019-10-18T08:15:47Z</time>
      </trkpt>
      <trkpt lat="37.2054560" lon="-1.8978880">
        <ele>88.3</ele>
        <time>2019-10-18T08:15:48Z</time>
      </trkpt>
      <trkpt lat="37.2054540" lon="-1.8979130">
        <ele>88.3</ele>
        <time>2019-10-18T08:15:49Z</time>
      </trkpt>
      <trkpt lat="37.2054530" lon="-1.8979310">
        <ele>88.4</ele>
        <time>2019-10-18T08:15:50Z</time>
      </trkpt>
      <trkpt lat="37.2054530" lon="-1.8979430">
        <ele>88.4</ele>
        <time>2019-10-18T08:15:51Z</time>
      </trkpt>
      <trkpt lat="37.2054530" lon="-1.8979470">
        <ele>88.4</ele>
        <time>2019-10-18T08:15:52Z</time>
      </trkpt>
      <trkpt lat="37.2054540" lon="-1.8979480">
        <ele>88.4</ele>
        <time>2019-10-18T08:15:53Z</time>
      </trkpt>
      <trkpt lat="37.2054540" lon="-1.8979470">
        <ele>88.4</ele>
        <time>2019-10-18T08:15:54Z</time>
      </trkpt>
      <trkpt lat="37.2054540" lon="-1.8979460">
        <ele>88.4</ele>
        <time>2019-10-18T08:15:55Z</time>
      </trkpt>
      <trkpt lat="37.2054540" lon="-1.8979450">
        <ele>88.4</ele>
        <time>2019-10-18T08:15:56Z</time>
      </trkpt>
      <trkpt lat="37.2054540" lon="-1.8979440">
        <ele>88.4</ele>
        <time>2019-10-18T08:15:57Z</time>
      </trkpt>
      <trkpt lat="37.2054540" lon="-1.8979430">
        <ele>88.4</ele>
        <time>2019-10-18T08:15:58Z</time>
      </trkpt>
      <trkpt lat="37.2054550" lon="-1.8979430">
        <ele>88.4</ele>
        <time>2019-10-18T08:15:59Z</time>
      </trkpt>
      <trkpt lat="37.2054570" lon="-1.8979420">
        <ele>88.4</ele>
        <time>2019-10-18T08:16:00Z</time>
      </trkpt>
      <trkpt lat="37.2054580" lon="-1.8979400">
        <ele>88.4</ele>
        <time>2019-10-18T08:16:01Z</time>
      </trkpt>
      <trkpt lat="37.2054580" lon="-1.8979390">
        <ele>88.4</ele>
        <time>2019-10-18T08:16:02Z</time>
      </trkpt>
      <trkpt lat="37.2054580" lon="-1.8979390">
        <ele>88.4</ele>
        <time>2019-10-18T08:16:03Z</time>
      </trkpt>
      <trkpt lat="37.2054580" lon="-1.8979390">
        <ele>88.4</ele>
        <time>2019-10-18T08:16:04Z</time>
      </trkpt>
      <trkpt lat="37.2054580" lon="-1.8979390">
        <ele>88.4</ele>
        <time>2019-10-18T08:16:05Z</time>
      </trkpt>
      <trkpt lat="37.2054600" lon="-1.8979400">
        <ele>88.4</ele>
        <time>2019-10-18T08:16:06Z</time>
      </trkpt>
      <trkpt lat="37.2054620" lon="-1.8979410">
        <ele>88.4</ele>
        <time>2019-10-18T08:16:07Z</time>
      </trkpt>
      <trkpt lat="37.2054640" lon="-1.8979410">
        <ele>88.4</ele>
        <time>2019-10-18T08:16:08Z</time>
      </trkpt>
      <trkpt lat="37.2054650" lon="-1.8979400">
        <ele>88.4</ele>
        <time>2019-10-18T08:16:09Z</time>
      </trkpt>
      <trkpt lat="37.2054660" lon="-1.8979390">
        <ele>88.4</ele>
        <time>2019-10-18T08:16:10Z</time>
      </trkpt>
      <trkpt lat="37.2054670" lon="-1.8979390">
        <ele>88.4</ele>
        <time>2019-10-18T08:16:11Z</time>
      </trkpt>
      <trkpt lat="37.2054680" lon="-1.8979400">
        <ele>88.4</ele>
        <time>2019-10-18T08:16:12Z</time>
      </trkpt>
      <trkpt lat="37.2054680" lon="-1.8979410">
        <ele>88.4</ele>
        <time>2019-10-18T08:16:13Z</time>
      </trkpt>
      <trkpt lat="37.2054660" lon="-1.8979440">
        <ele>88.4</ele>
        <time>2019-10-18T08:16:14Z</time>
      </trkpt>
      <trkpt lat="37.2054630" lon="-1.8979470">
        <ele>88.5</ele>
        <time>2019-10-18T08:16:15Z</time>
      </trkpt>
      <trkpt lat="37.2054590" lon="-1.8979520">
        <ele>88.5</ele>
        <time>2019-10-18T08:16:16Z</time>
      </trkpt>
      <trkpt lat="37.2054550" lon="-1.8979570">
        <ele>88.5</ele>
        <time>2019-10-18T08:16:17Z</time>
      </trkpt>
      <trkpt lat="37.2054500" lon="-1.8979660">
        <ele>88.5</ele>
        <time>2019-10-18T08:16:18Z</time>
      </trkpt>
      <trkpt lat="37.2054430" lon="-1.8979790">
        <ele>88.5</ele>
        <time>2019-10-18T08:16:19Z</time>
      </trkpt>
      <trkpt lat="37.2054360" lon="-1.8979950">
        <ele>88.5</ele>
        <time>2019-10-18T08:16:20Z</time>
      </trkpt>
      <trkpt lat="37.2054290" lon="-1.8980160">
        <ele>88.6</ele>
        <time>2019-10-18T08:16:21Z</time>
      </trkpt>
      <trkpt lat="37.2054190" lon="-1.8980420">
        <ele>88.6</ele>
        <time>2019-10-18T08:16:22Z</time>
      </trkpt>
      <trkpt lat="37.2054060" lon="-1.8980710">
        <ele>88.7</ele>
        <time>2019-10-18T08:16:23Z</time>
      </trkpt>
      <trkpt lat="37.2053880" lon="-1.8981050">
        <ele>88.7</ele>
        <time>2019-10-18T08:16:24Z</time>
      </trkpt>
      <trkpt lat="37.2053690" lon="-1.8981400">
        <ele>88.7</ele>
        <time>2019-10-18T08:16:25Z</time>
      </trkpt>
      <trkpt lat="37.2053480" lon="-1.8981760">
        <ele>88.8</ele>
        <time>2019-10-18T08:16:26Z</time>
      </trkpt>
      <trkpt lat="37.2053260" lon="-1.8982130">
        <ele>88.8</ele>
        <time>2019-10-18T08:16:27Z</time>
      </trkpt>
      <trkpt lat="37.2053040" lon="-1.8982510">
        <ele>88.8</ele>
        <time>2019-10-18T08:16:28Z</time>
      </trkpt>
      <trkpt lat="37.2052800" lon="-1.8982890">
        <ele>88.8</ele>
        <time>2019-10-18T08:16:29Z</time>
      </trkpt>
      <trkpt lat="37.2052550" lon="-1.8983270">
        <ele>88.9</ele>
        <time>2019-10-18T08:16:30Z</time>
      </trkpt>
      <trkpt lat="37.2052280" lon="-1.8983650">
        <ele>88.9</ele>
        <time>2019-10-18T08:16:31Z</time>
      </trkpt>
      <trkpt lat="37.2052010" lon="-1.8984020">
        <ele>88.9</ele>
        <time>2019-10-18T08:16:32Z</time>
      </trkpt>
      <trkpt lat="37.2051720" lon="-1.8984380">
        <ele>89.0</ele>
        <time>2019-10-18T08:16:33Z</time>
      </trkpt>
      <trkpt lat="37.2051420" lon="-1.8984740">
        <ele>89.0</ele>
        <time>2019-10-18T08:16:34Z</time>
      </trkpt>
      <trkpt lat="37.2051110" lon="-1.8985090">
        <ele>89.1</ele>
        <time>2019-10-18T08:16:35Z</time>
      </trkpt>
      <trkpt lat="37.2050780" lon="-1.8985430">
        <ele>89.1</ele>
        <time>2019-10-18T08:16:36Z</time>
      </trkpt>
      <trkpt lat="37.2050430" lon="-1.8985750">
        <ele>89.2</ele>
        <time>2019-10-18T08:16:37Z</time>
      </trkpt>
      <trkpt lat="37.2050060" lon="-1.8986060">
        <ele>89.2</ele>
        <time>2019-10-18T08:16:38Z</time>
      </trkpt>
      <trkpt lat="37.2049680" lon="-1.8986350">
        <ele>89.3</ele>
        <time>2019-10-18T08:16:39Z</time>
      </trkpt>
      <trkpt lat="37.2049290" lon="-1.8986640">
        <ele>89.3</ele>
        <time>2019-10-18T08:16:40Z</time>
      </trkpt>
      <trkpt lat="37.2048900" lon="-1.8986940">
        <ele>89.4</ele>
        <time>2019-10-18T08:16:41Z</time>
      </trkpt>
      <trkpt lat="37.2048520" lon="-1.8987260">
        <ele>89.4</ele>
        <time>2019-10-18T08:16:42Z</time>
      </trkpt>
      <trkpt lat="37.2048170" lon="-1.8987620">
        <ele>89.4</ele>
        <time>2019-10-18T08:16:43Z</time>
      </trkpt>
      <trkpt lat="37.2047880" lon="-1.8988040">
        <ele>89.5</ele>
        <time>2019-10-18T08:16:44Z</time>
      </trkpt>
      <trkpt lat="37.2047700" lon="-1.8988520">
        <ele>89.6</ele>
        <time>2019-10-18T08:16:45Z</time>
      </trkpt>
      <trkpt lat="37.2047650" lon="-1.8989060">
        <ele>89.7</ele>
        <time>2019-10-18T08:16:46Z</time>
      </trkpt>
      <trkpt lat="37.2047670" lon="-1.8989600">
        <ele>89.9</ele>
        <time>2019-10-18T08:16:47Z</time>
      </trkpt>
      <trkpt lat="37.2047740" lon="-1.8990120">
        <ele>90.0</ele>
        <time>2019-10-18T08:16:48Z</time>
      </trkpt>
      <trkpt lat="37.2047860" lon="-1.8990620">
        <ele>90.1</ele>
        <time>2019-10-18T08:16:49Z</time>
      </trkpt>
      <trkpt lat="37.2048030" lon="-1.8991090">
        <ele>90.1</ele>
        <time>2019-10-18T08:16:50Z</time>
      </trkpt>
      <trkpt lat="37.2048230" lon="-1.8991540">
        <ele>90.3</ele>
        <time>2019-10-18T08:16:51Z</time>
      </trkpt>
      <trkpt lat="37.2048450" lon="-1.8991990">
        <ele>90.4</ele>
        <time>2019-10-18T08:16:52Z</time>
      </trkpt>
      <trkpt lat="37.2048680" lon="-1.8992430">
        <ele>90.5</ele>
        <time>2019-10-18T08:16:53Z</time>
      </trkpt>
      <trkpt lat="37.2048910" lon="-1.8992870">
        <ele>90.7</ele>
        <time>2019-10-18T08:16:54Z</time>
      </trkpt>
      <trkpt lat="37.2049140" lon="-1.8993300">
        <ele>90.8</ele>
        <time>2019-10-18T08:16:55Z</time>
      </trkpt>
      <trkpt lat="37.2049370" lon="-1.8993700">
        <ele>91.0</ele>
        <time>2019-10-18T08:16:56Z</time>
      </trkpt>
      <trkpt lat="37.2049600" lon="-1.8994080">
        <ele>91.2</ele>
        <time>2019-10-18T08:16:57Z</time>
      </trkpt>
      <trkpt lat="37.2049830" lon="-1.8994460">
        <ele>91.4</ele>
        <time>2019-10-18T08:16:58Z</time>
      </trkpt>
      <trkpt lat="37.2050050" lon="-1.8994840">
        <ele>91.6</ele>
        <time>2019-10-18T08:16:59Z</time>
      </trkpt>
      <trkpt lat="37.2050260" lon="-1.8995230">
        <ele>91.8</ele>
        <time>2019-10-18T08:17:00Z</time>
      </trkpt>
      <trkpt lat="37.2050460" lon="-1.8995610">
        <ele>92.1</ele>
        <time>2019-10-18T08:17:01Z</time>
      </trkpt>
      <trkpt lat="37.2050660" lon="-1.8995990">
        <ele>92.3</ele>
        <time>2019-10-18T08:17:02Z</time>
      </trkpt>
      <trkpt lat="37.2050870" lon="-1.8996370">
        <ele>92.5</ele>
        <time>2019-10-18T08:17:03Z</time>
      </trkpt>
      <trkpt lat="37.2051070" lon="-1.8996730">
        <ele>92.7</ele>
        <time>2019-10-18T08:17:04Z</time>
      </trkpt>
      <trkpt lat="37.2051260" lon="-1.8997100">
        <ele>92.9</ele>
        <time>2019-10-18T08:17:05Z</time>
      </trkpt>
      <trkpt lat="37.2051460" lon="-1.8997470">
        <ele>93.2</ele>
        <time>2019-10-18T08:17:06Z</time>
      </trkpt>
      <trkpt lat="37.2051670" lon="-1.8997860">
        <ele>93.4</ele>
        <time>2019-10-18T08:17:07Z</time>
      </trkpt>
      <trkpt lat="37.2051880" lon="-1.8998250">
        <ele>93.6</ele>
        <time>2019-10-18T08:17:08Z</time>
      </trkpt>
      <trkpt lat="37.2052090" lon="-1.8998650">
        <ele>93.9</ele>
        <time>2019-10-18T08:17:09Z</time>
      </trkpt>
      <trkpt lat="37.2052300" lon="-1.8999040">
        <ele>94.2</ele>
        <time>2019-10-18T08:17:10Z</time>
      </trkpt>
      <trkpt lat="37.2052510" lon="-1.8999430">
        <ele>94.4</ele>
        <time>2019-10-18T08:17:11Z</time>
      </trkpt>
      <trkpt lat="37.2052720" lon="-1.8999830">
        <ele>94.7</ele>
        <time>2019-10-18T08:17:12Z</time>
      </trkpt>
      <trkpt lat="37.2052940" lon="-1.9000220">
        <ele>95.0</ele>
        <time>2019-10-18T08:17:13Z</time>
      </trkpt>
      <trkpt lat="37.2053150" lon="-1.9000620">
        <ele>95.3</ele>
        <time>2019-10-18T08:17:14Z</time>
      </trkpt>
      <trkpt lat="37.2053360" lon="-1.9001020">
        <ele>95.5</ele>
        <time>2019-10-18T08:17:15Z</time>
      </trkpt>
      <trkpt lat="37.2053560" lon="-1.9001420">
        <ele>95.8</ele>
        <time>2019-10-18T08:17:16Z</time>
      </trkpt>
      <trkpt lat="37.2053750" lon="-1.9001820">
        <ele>96.1</ele>
        <time>2019-10-18T08:17:17Z</time>
      </trkpt>
      <trkpt lat="37.2053940" lon="-1.9002210">
        <ele>96.4</ele>
        <time>2019-10-18T08:17:18Z</time>
      </trkpt>
      <trkpt lat="37.2054130" lon="-1.9002580">
        <ele>96.7</ele>
        <time>2019-10-18T08:17:19Z</time>
      </trkpt>
      <trkpt lat="37.2054340" lon="-1.9002920">
        <ele>97.0</ele>
        <time>2019-10-18T08:17:20Z</time>
      </trkpt>
      <trkpt lat="37.2054590" lon="-1.9003230">
        <ele>97.3</ele>
        <time>2019-10-18T08:17:21Z</time>
      </trkpt>
      <trkpt lat="37.2054890" lon="-1.9003460">
        <ele>97.6</ele>
        <time>2019-10-18T08:17:22Z</time>
      </trkpt>
      <trkpt lat="37.2055200" lon="-1.9003650">
        <ele>98.0</ele>
        <time>2019-10-18T08:17:23Z</time>
      </trkpt>
      <trkpt lat="37.2055530" lon="-1.9003810">
        <ele>98.3</ele>
        <time>2019-10-18T08:17:24Z</time>
      </trkpt>
      <trkpt lat="37.2055850" lon="-1.9004010">
        <ele>98.5</ele>
        <time>2019-10-18T08:17:25Z</time>
      </trkpt>
      <trkpt lat="37.2056140" lon="-1.9004250">
        <ele>98.7</ele>
        <time>2019-10-18T08:17:26Z</time>
      </trkpt>
      <trkpt lat="37.2056400" lon="-1.9004550">
        <ele>98.8</ele>
        <time>2019-10-18T08:17:27Z</time>
      </trkpt>
      <trkpt lat="37.2056590" lon="-1.9004890">
        <ele>98.9</ele>
        <time>2019-10-18T08:17:28Z</time>
      </trkpt>
      <trkpt lat="37.2056720" lon="-1.9005270">
        <ele>99.0</ele>
        <time>2019-10-18T08:17:29Z</time>
      </trkpt>
      <trkpt lat="37.2056800" lon="-1.9005650">
        <ele>99.1</ele>
        <time>2019-10-18T08:17:30Z</time>
      </trkpt>
      <trkpt lat="37.2056860" lon="-1.9006030">
        <ele>99.2</ele>
        <time>2019-10-18T08:17:31Z</time>
      </trkpt>
      <trkpt lat="37.2056930" lon="-1.9006400">
        <ele>99.6</ele>
        <time>2019-10-18T08:17:32Z</time>
      </trkpt>
      <trkpt lat="37.2057040" lon="-1.9006740">
        <ele>99.8</ele>
        <time>2019-10-18T08:17:33Z</time>
      </trkpt>
      <trkpt lat="37.2057180" lon="-1.9007040">
        <ele>99.9</ele>
        <time>2019-10-18T08:17:34Z</time>
      </trkpt>
      <trkpt lat="37.2057340" lon="-1.9007280">
        <ele>100.1</ele>
        <time>2019-10-18T08:17:35Z</time>
      </trkpt>
      <trkpt lat="37.2057500" lon="-1.9007500">
        <ele>100.2</ele>
        <time>2019-10-18T08:17:36Z</time>
      </trkpt>
      <trkpt lat="37.2057620" lon="-1.9007700">
        <ele>100.3</ele>
        <time>2019-10-18T08:17:37Z</time>
      </trkpt>
      <trkpt lat="37.2057710" lon="-1.9007910">
        <ele>100.5</ele>
        <time>2019-10-18T08:17:38Z</time>
      </trkpt>
      <trkpt lat="37.2057770" lon="-1.9008110">
        <ele>100.5</ele>
        <time>2019-10-18T08:17:39Z</time>
      </trkpt>
      <trkpt lat="37.2057780" lon="-1.9008330">
        <ele>100.5</ele>
        <time>2019-10-18T08:17:40Z</time>
      </trkpt>
      <trkpt lat="37.2057750" lon="-1.9008580">
        <ele>100.4</ele>
        <time>2019-10-18T08:17:41Z</time>
      </trkpt>
      <trkpt lat="37.2057680" lon="-1.9008870">
        <ele>100.4</ele>
        <time>2019-10-18T08:17:42Z</time>
      </trkpt>
      <trkpt lat="37.2057590" lon="-1.9009200">
        <ele>100.3</ele>
        <time>2019-10-18T08:17:43Z</time>
      </trkpt>
      <trkpt lat="37.2057460" lon="-1.9009540">
        <ele>100.2</ele>
        <time>2019-10-18T08:17:44Z</time>
      </trkpt>
      <trkpt lat="37.2057280" lon="-1.9009880">
        <ele>100.4</ele>
        <time>2019-10-18T08:17:45Z</time>
      </trkpt>
      <trkpt lat="37.2057070" lon="-1.9010220">
        <ele>100.5</ele>
        <time>2019-10-18T08:17:46Z</time>
      </trkpt>
      <trkpt lat="37.2056820" lon="-1.9010550">
        <ele>100.6</ele>
        <time>2019-10-18T08:17:47Z</time>
      </trkpt>
      <trkpt lat="37.2056550" lon="-1.9010890">
        <ele>100.8</ele>
        <time>2019-10-18T08:17:48Z</time>
      </trkpt>
      <trkpt lat="37.2056270" lon="-1.9011230">
        <ele>100.9</ele>
        <time>2019-10-18T08:17:49Z</time>
      </trkpt>
      <trkpt lat="37.2056000" lon="-1.9011570">
        <ele>101.0</ele>
        <time>2019-10-18T08:17:50Z</time>
      </trkpt>
      <trkpt lat="37.2055720" lon="-1.9011910">
        <ele>101.2</ele>
        <time>2019-10-18T08:17:51Z</time>
      </trkpt>
      <trkpt lat="37.2055440" lon="-1.9012230">
        <ele>101.4</ele>
        <time>2019-10-18T08:17:52Z</time>
      </trkpt>
      <trkpt lat="37.2055160" lon="-1.9012540">
        <ele>101.5</ele>
        <time>2019-10-18T08:17:53Z</time>
      </trkpt>
      <trkpt lat="37.2054870" lon="-1.9012850">
        <ele>101.7</ele>
        <time>2019-10-18T08:17:54Z</time>
      </trkpt>
      <trkpt lat="37.2054600" lon="-1.9013180">
        <ele>101.8</ele>
        <time>2019-10-18T08:17:55Z</time>
      </trkpt>
      <trkpt lat="37.2054330" lon="-1.9013530">
        <ele>102.0</ele>
        <time>2019-10-18T08:17:56Z</time>
      </trkpt>
      <trkpt lat="37.2054050" lon="-1.9013880">
        <ele>102.2</ele>
        <time>2019-10-18T08:17:57Z</time>
      </trkpt>
      <trkpt lat="37.2053770" lon="-1.9014220">
        <ele>102.4</ele>
        <time>2019-10-18T08:17:58Z</time>
      </trkpt>
      <trkpt lat="37.2053480" lon="-1.9014560">
        <ele>102.6</ele>
        <time>2019-10-18T08:17:59Z</time>
      </trkpt>
      <trkpt lat="37.2053200" lon="-1.9014900">
        <ele>102.8</ele>
        <time>2019-10-18T08:18:00Z</time>
      </trkpt>
      <trkpt lat="37.2052910" lon="-1.9015250">
        <ele>103.0</ele>
        <time>2019-10-18T08:18:01Z</time>
      </trkpt>
      <trkpt lat="37.2052630" lon="-1.9015590">
        <ele>103.2</ele>
        <time>2019-10-18T08:18:02Z</time>
      </trkpt>
      <trkpt lat="37.2052330" lon="-1.9015930">
        <ele>103.4</ele>
        <time>2019-10-18T08:18:03Z</time>
      </trkpt>
      <trkpt lat="37.2052030" lon="-1.9016260">
        <ele>103.6</ele>
        <time>2019-10-18T08:18:04Z</time>
      </trkpt>
      <trkpt lat="37.2051730" lon="-1.9016580">
        <ele>103.8</ele>
        <time>2019-10-18T08:18:05Z</time>
      </trkpt>
      <trkpt lat="37.2051420" lon="-1.9016910">
        <ele>104.0</ele>
        <time>2019-10-18T08:18:06Z</time>
      </trkpt>
      <trkpt lat="37.2051120" lon="-1.9017230">
        <ele>104.3</ele>
        <time>2019-10-18T08:18:07Z</time>
      </trkpt>
      <trkpt lat="37.2050810" lon="-1.9017550">
        <ele>104.5</ele>
        <time>2019-10-18T08:18:08Z</time>
      </trkpt>
      <trkpt lat="37.2050510" lon="-1.9017870">
        <ele>104.7</ele>
        <time>2019-10-18T08:18:09Z</time>
      </trkpt>
      <trkpt lat="37.2050200" lon="-1.9018190">
        <ele>105.0</ele>
        <time>2019-10-18T08:18:10Z</time>
      </trkpt>
      <trkpt lat="37.2049900" lon="-1.9018510">
        <ele>105.2</ele>
        <time>2019-10-18T08:18:11Z</time>
      </trkpt>
      <trkpt lat="37.2049590" lon="-1.9018820">
        <ele>105.5</ele>
        <time>2019-10-18T08:18:12Z</time>
      </trkpt>
      <trkpt lat="37.2049290" lon="-1.9019130">
        <ele>105.8</ele>
        <time>2019-10-18T08:18:13Z</time>
      </trkpt>
      <trkpt lat="37.2048990" lon="-1.9019440">
        <ele>106.0</ele>
        <time>2019-10-18T08:18:14Z</time>
      </trkpt>
      <trkpt lat="37.2048700" lon="-1.9019740">
        <ele>106.1</ele>
        <time>2019-10-18T08:18:15Z</time>
      </trkpt>
      <trkpt lat="37.2048420" lon="-1.9020030">
        <ele>106.2</ele>
        <time>2019-10-18T08:18:16Z</time>
      </trkpt>
      <trkpt lat="37.2048160" lon="-1.9020320">
        <ele>106.3</ele>
        <time>2019-10-18T08:18:17Z</time>
      </trkpt>
      <trkpt lat="37.2047910" lon="-1.9020590">
        <ele>106.4</ele>
        <time>2019-10-18T08:18:18Z</time>
      </trkpt>
      <trkpt lat="37.2047680" lon="-1.9020850">
        <ele>106.5</ele>
        <time>2019-10-18T08:18:19Z</time>
      </trkpt>
      <trkpt lat="37.2047480" lon="-1.9021090">
        <ele>106.5</ele>
        <time>2019-10-18T08:18:20Z</time>
      </trkpt>
      <trkpt lat="37.2047290" lon="-1.9021330">
        <ele>106.5</ele>
        <time>2019-10-18T08:18:21Z</time>
      </trkpt>
      <trkpt lat="37.2047110" lon="-1.9021570">
        <ele>106.6</ele>
        <time>2019-10-18T08:18:22Z</time>
      </trkpt>
      <trkpt lat="37.2046930" lon="-1.9021820">
        <ele>106.6</ele>
        <time>2019-10-18T08:18:23Z</time>
      </trkpt>
      <trkpt lat="37.2046750" lon="-1.9022080">
        <ele>106.6</ele>
        <time>2019-10-18T08:18:24Z</time>
      </trkpt>
      <trkpt lat="37.2046580" lon="-1.9022340">
        <ele>106.6</ele>
        <time>2019-10-18T08:18:25Z</time>
      </trkpt>
      <trkpt lat="37.2046400" lon="-1.9022610">
        <ele>106.5</ele>
        <time>2019-10-18T08:18:26Z</time>
      </trkpt>
      <trkpt lat="37.2046220" lon="-1.9022880">
        <ele>106.5</ele>
        <time>2019-10-18T08:18:27Z</time>
      </trkpt>
      <trkpt lat="37.2046040" lon="-1.9023150">
        <ele>106.4</ele>
        <time>2019-10-18T08:18:28Z</time>
      </trkpt>
      <trkpt lat="37.2045850" lon="-1.9023420">
        <ele>106.4</ele>
        <time>2019-10-18T08:18:29Z</time>
      </trkpt>
      <trkpt lat="37.2045650" lon="-1.9023700">
        <ele>106.3</ele>
        <time>2019-10-18T08:18:30Z</time>
      </trkpt>
      <trkpt lat="37.2045440" lon="-1.9023980">
        <ele>106.2</ele>
        <time>2019-10-18T08:18:31Z</time>
      </trkpt>
      <trkpt lat="37.2045210" lon="-1.9024280">
        <ele>106.0</ele>
        <time>2019-10-18T08:18:32Z</time>
      </trkpt>
      <trkpt lat="37.2044970" lon="-1.9024610">
        <ele>105.9</ele>
        <time>2019-10-18T08:18:33Z</time>
      </trkpt>
      <trkpt lat="37.2044710" lon="-1.9024940">
        <ele>105.6</ele>
        <time>2019-10-18T08:18:34Z</time>
      </trkpt>
      <trkpt lat="37.2044430" lon="-1.9025290">
        <ele>105.3</ele>
        <time>2019-10-18T08:18:35Z</time>
      </trkpt>
      <trkpt lat="37.2044130" lon="-1.9025660">
        <ele>105.0</ele>
        <time>2019-10-18T08:18:36Z</time>
      </trkpt>
      <trkpt lat="37.2043830" lon="-1.9026050">
        <ele>104.6</ele>
        <time>2019-10-18T08:18:37Z</time>
      </trkpt>
      <trkpt lat="37.2043530" lon="-1.9026450">
        <ele>104.3</ele>
        <time>2019-10-18T08:18:38Z</time>
      </trkpt>
      <trkpt lat="37.2043220" lon="-1.9026860">
        <ele>103.9</ele>
        <time>2019-10-18T08:18:39Z</time>
      </trkpt>
      <trkpt lat="37.2042900" lon="-1.9027270">
        <ele>103.4</ele>
        <time>2019-10-18T08:18:40Z</time>
      </trkpt>
      <trkpt lat="37.2042580" lon="-1.9027700">
        <ele>102.9</ele>
        <time>2019-10-18T08:18:41Z</time>
      </trkpt>
      <trkpt lat="37.2042270" lon="-1.9028140">
        <ele>102.5</ele>
        <time>2019-10-18T08:18:42Z</time>
      </trkpt>
      <trkpt lat="37.2041960" lon="-1.9028580">
        <ele>102.0</ele>
        <time>2019-10-18T08:18:43Z</time>
      </trkpt>
      <trkpt lat="37.2041650" lon="-1.9029020">
        <ele>101.6</ele>
        <time>2019-10-18T08:18:44Z</time>
      </trkpt>
      <trkpt lat="37.2041340" lon="-1.9029460">
        <ele>101.2</ele>
        <time>2019-10-18T08:18:45Z</time>
      </trkpt>
      <trkpt lat="37.2041030" lon="-1.9029900">
        <ele>100.8</ele>
        <time>2019-10-18T08:18:46Z</time>
      </trkpt>
      <trkpt lat="37.2040710" lon="-1.9030350">
        <ele>100.3</ele>
        <time>2019-10-18T08:18:47Z</time>
      </trkpt>
      <trkpt lat="37.2040380" lon="-1.9030800">
        <ele>99.9</ele>
        <time>2019-10-18T08:18:48Z</time>
      </trkpt>
      <trkpt lat="37.2040040" lon="-1.9031260">
        <ele>99.6</ele>
        <time>2019-10-18T08:18:49Z</time>
      </trkpt>
      <trkpt lat="37.2039690" lon="-1.9031730">
        <ele>99.3</ele>
        <time>2019-10-18T08:18:50Z</time>
      </trkpt>
      <trkpt lat="37.2039340" lon="-1.9032210">
        <ele>99.0</ele>
        <time>2019-10-18T08:18:51Z</time>
      </trkpt>
      <trkpt lat="37.2038990" lon="-1.9032690">
        <ele>98.8</ele>
        <time>2019-10-18T08:18:52Z</time>
      </trkpt>
      <trkpt lat="37.2038630" lon="-1.9033170">
        <ele>98.6</ele>
        <time>2019-10-18T08:18:53Z</time>
      </trkpt>
      <trkpt lat="37.2038280" lon="-1.9033650">
        <ele>98.2</ele>
        <time>2019-10-18T08:18:54Z</time>
      </trkpt>
      <trkpt lat="37.2037930" lon="-1.9034100">
        <ele>97.8</ele>
        <time>2019-10-18T08:18:55Z</time>
      </trkpt>
      <trkpt lat="37.2037600" lon="-1.9034530">
        <ele>97.5</ele>
        <time>2019-10-18T08:18:56Z</time>
      </trkpt>
      <trkpt lat="37.2037290" lon="-1.9034930">
        <ele>97.2</ele>
        <time>2019-10-18T08:18:57Z</time>
      </trkpt>
      <trkpt lat="37.2037010" lon="-1.9035290">
        <ele>96.9</ele>
        <time>2019-10-18T08:18:58Z</time>
      </trkpt>
      <trkpt lat="37.2036750" lon="-1.9035650">
        <ele>96.7</ele>
        <time>2019-10-18T08:18:59Z</time>
      </trkpt>
      <trkpt lat="37.2036480" lon="-1.9036030">
        <ele>96.5</ele>
        <time>2019-10-18T08:19:00Z</time>
      </trkpt>
      <trkpt lat="37.2036200" lon="-1.9036450">
        <ele>96.3</ele>
        <time>2019-10-18T08:19:01Z</time>
      </trkpt>
      <trkpt lat="37.2035910" lon="-1.9036890">
        <ele>96.1</ele>
        <time>2019-10-18T08:19:02Z</time>
      </trkpt>
      <trkpt lat="37.2035620" lon="-1.9037320">
        <ele>95.9</ele>
        <time>2019-10-18T08:19:03Z</time>
      </trkpt>
      <trkpt lat="37.2035320" lon="-1.9037740">
        <ele>95.8</ele>
        <time>2019-10-18T08:19:04Z</time>
      </trkpt>
      <trkpt lat="37.2035020" lon="-1.9038170">
        <ele>95.7</ele>
        <time>2019-10-18T08:19:05Z</time>
      </trkpt>
      <trkpt lat="37.2034710" lon="-1.9038610">
        <ele>95.6</ele>
        <time>2019-10-18T08:19:06Z</time>
      </trkpt>
      <trkpt lat="37.2034380" lon="-1.9039060">
        <ele>95.5</ele>
        <time>2019-10-18T08:19:07Z</time>
      </trkpt>
      <trkpt lat="37.2034040" lon="-1.9039520">
        <ele>95.4</ele>
        <time>2019-10-18T08:19:08Z</time>
      </trkpt>
      <trkpt lat="37.2033700" lon="-1.9039980">
        <ele>95.3</ele>
        <time>2019-10-18T08:19:09Z</time>
      </trkpt>
      <trkpt lat="37.2033350" lon="-1.9040440">
        <ele>95.3</ele>
        <time>2019-10-18T08:19:10Z</time>
      </trkpt>
      <trkpt lat="37.2033000" lon="-1.9040920">
        <ele>95.2</ele>
        <time>2019-10-18T08:19:11Z</time>
      </trkpt>
      <trkpt lat="37.2032640" lon="-1.9041400">
        <ele>95.2</ele>
        <time>2019-10-18T08:19:12Z</time>
      </trkpt>
      <trkpt lat="37.2032280" lon="-1.9041880">
        <ele>95.1</ele>
        <time>2019-10-18T08:19:13Z</time>
      </trkpt>
      <trkpt lat="37.2031910" lon="-1.9042370">
        <ele>95.1</ele>
        <time>2019-10-18T08:19:14Z</time>
      </trkpt>
      <trkpt lat="37.2031520" lon="-1.9042880">
        <ele>95.0</ele>
        <time>2019-10-18T08:19:15Z</time>
      </trkpt>
      <trkpt lat="37.2031130" lon="-1.9043390">
        <ele>94.9</ele>
        <time>2019-10-18T08:19:16Z</time>
      </trkpt>
      <trkpt lat="37.2030740" lon="-1.9043920">
        <ele>94.8</ele>
        <time>2019-10-18T08:19:17Z</time>
      </trkpt>
      <trkpt lat="37.2030350" lon="-1.9044440">
        <ele>94.7</ele>
        <time>2019-10-18T08:19:18Z</time>
      </trkpt>
      <trkpt lat="37.2029950" lon="-1.9044960">
        <ele>94.5</ele>
        <time>2019-10-18T08:19:19Z</time>
      </trkpt>
      <trkpt lat="37.2029570" lon="-1.9045460">
        <ele>94.4</ele>
        <time>2019-10-18T08:19:20Z</time>
      </trkpt>
      <trkpt lat="37.2029180" lon="-1.9045950">
        <ele>94.4</ele>
        <time>2019-10-18T08:19:21Z</time>
      </trkpt>
      <trkpt lat="37.2028790" lon="-1.9046450">
        <ele>94.3</ele>
        <time>2019-10-18T08:19:22Z</time>
      </trkpt>
      <trkpt lat="37.2028400" lon="-1.9046950">
        <ele>94.2</ele>
        <time>2019-10-18T08:19:23Z</time>
      </trkpt>
      <trkpt lat="37.2028010" lon="-1.9047460">
        <ele>94.2</ele>
        <time>2019-10-18T08:19:24Z</time>
      </trkpt>
      <trkpt lat="37.2027610" lon="-1.9047970">
        <ele>94.1</ele>
        <time>2019-10-18T08:19:25Z</time>
      </trkpt>
      <trkpt lat="37.2027200" lon="-1.9048480">
        <ele>94.0</ele>
        <time>2019-10-18T08:19:26Z</time>
      </trkpt>
      <trkpt lat="37.2026780" lon="-1.9048990">
        <ele>93.9</ele>
        <time>2019-10-18T08:19:27Z</time>
      </trkpt>
      <trkpt lat="37.2026370" lon="-1.9049500">
        <ele>93.8</ele>
        <time>2019-10-18T08:19:28Z</time>
      </trkpt>
      <trkpt lat="37.2025960" lon="-1.9050010">
        <ele>93.7</ele>
        <time>2019-10-18T08:19:29Z</time>
      </trkpt>
      <trkpt lat="37.2025550" lon="-1.9050520">
        <ele>93.6</ele>
        <time>2019-10-18T08:19:30Z</time>
      </trkpt>
      <trkpt lat="37.2025130" lon="-1.9051030">
        <ele>93.4</ele>
        <time>2019-10-18T08:19:31Z</time>
      </trkpt>
      <trkpt lat="37.2024690" lon="-1.9051540">
        <ele>93.3</ele>
        <time>2019-10-18T08:19:32Z</time>
      </trkpt>
      <trkpt lat="37.2024250" lon="-1.9052060">
        <ele>93.1</ele>
        <time>2019-10-18T08:19:33Z</time>
      </trkpt>
      <trkpt lat="37.2023790" lon="-1.9052580">
        <ele>93.0</ele>
        <time>2019-10-18T08:19:34Z</time>
      </trkpt>
      <trkpt lat="37.2023340" lon="-1.9053110">
        <ele>92.8</ele>
        <time>2019-10-18T08:19:35Z</time>
      </trkpt>
      <trkpt lat="37.2022880" lon="-1.9053650">
        <ele>92.7</ele>
        <time>2019-10-18T08:19:36Z</time>
      </trkpt>
      <trkpt lat="37.2022410" lon="-1.9054210">
        <ele>92.5</ele>
        <time>2019-10-18T08:19:37Z</time>
      </trkpt>
      <trkpt lat="37.2021950" lon="-1.9054770">
        <ele>92.4</ele>
        <time>2019-10-18T08:19:38Z</time>
      </trkpt>
      <trkpt lat="37.2021480" lon="-1.9055350">
        <ele>92.2</ele>
        <time>2019-10-18T08:19:39Z</time>
      </trkpt>
      <trkpt lat="37.2021010" lon="-1.9055930">
        <ele>92.0</ele>
        <time>2019-10-18T08:19:40Z</time>
      </trkpt>
      <trkpt lat="37.2020510" lon="-1.9056520">
        <ele>91.7</ele>
        <time>2019-10-18T08:19:41Z</time>
      </trkpt>
      <trkpt lat="37.2020000" lon="-1.9057110">
        <ele>91.5</ele>
        <time>2019-10-18T08:19:42Z</time>
      </trkpt>
      <trkpt lat="37.2019480" lon="-1.9057710">
        <ele>91.2</ele>
        <time>2019-10-18T08:19:43Z</time>
      </trkpt>
      <trkpt lat="37.2018960" lon="-1.9058320">
        <ele>90.8</ele>
        <time>2019-10-18T08:19:44Z</time>
      </trkpt>
      <trkpt lat="37.2018440" lon="-1.9058930">
        <ele>90.5</ele>
        <time>2019-10-18T08:19:45Z</time>
      </trkpt>
      <trkpt lat="37.2017930" lon="-1.9059540">
        <ele>90.2</ele>
        <time>2019-10-18T08:19:46Z</time>
      </trkpt>
      <trkpt lat="37.2017410" lon="-1.9060140">
        <ele>89.9</ele>
        <time>2019-10-18T08:19:47Z</time>
      </trkpt>
      <trkpt lat="37.2016900" lon="-1.9060730">
        <ele>89.7</ele>
        <time>2019-10-18T08:19:48Z</time>
      </trkpt>
      <trkpt lat="37.2016400" lon="-1.9061300">
        <ele>89.6</ele>
        <time>2019-10-18T08:19:49Z</time>
      </trkpt>
      <trkpt lat="37.2015920" lon="-1.9061870">
        <ele>89.5</ele>
        <time>2019-10-18T08:19:50Z</time>
      </trkpt>
      <trkpt lat="37.2015440" lon="-1.9062430">
        <ele>89.5</ele>
        <time>2019-10-18T08:19:51Z</time>
      </trkpt>
      <trkpt lat="37.2014970" lon="-1.9062980">
        <ele>89.6</ele>
        <time>2019-10-18T08:19:52Z</time>
      </trkpt>
      <trkpt lat="37.2014530" lon="-1.9063520">
        <ele>89.6</ele>
        <time>2019-10-18T08:19:53Z</time>
      </trkpt>
      <trkpt lat="37.2014090" lon="-1.9064060">
        <ele>89.7</ele>
        <time>2019-10-18T08:19:54Z</time>
      </trkpt>
      <trkpt lat="37.2013660" lon="-1.9064590">
        <ele>89.7</ele>
        <time>2019-10-18T08:19:55Z</time>
      </trkpt>
      <trkpt lat="37.2013220" lon="-1.9065090">
        <ele>89.6</ele>
        <time>2019-10-18T08:19:56Z</time>
      </trkpt>
      <trkpt lat="37.2012780" lon="-1.9065550">
        <ele>89.6</ele>
        <time>2019-10-18T08:19:57Z</time>
      </trkpt>
      <trkpt lat="37.2012330" lon="-1.9065970">
        <ele>89.6</ele>
        <time>2019-10-18T08:19:58Z</time>
      </trkpt>
      <trkpt lat="37.2011900" lon="-1.9066350">
        <ele>89.7</ele>
        <time>2019-10-18T08:19:59Z</time>
      </trkpt>
      <trkpt lat="37.2011500" lon="-1.9066700">
        <ele>89.8</ele>
        <time>2019-10-18T08:20:00Z</time>
      </trkpt>
      <trkpt lat="37.2011110" lon="-1.9067050">
        <ele>89.9</ele>
        <time>2019-10-18T08:20:01Z</time>
      </trkpt>
      <trkpt lat="37.2010730" lon="-1.9067390">
        <ele>90.0</ele>
        <time>2019-10-18T08:20:02Z</time>
      </trkpt>
      <trkpt lat="37.2010370" lon="-1.9067730">
        <ele>90.1</ele>
        <time>2019-10-18T08:20:03Z</time>
      </trkpt>
      <trkpt lat="37.2010020" lon="-1.9068070">
        <ele>90.3</ele>
        <time>2019-10-18T08:20:04Z</time>
      </trkpt>
      <trkpt lat="37.2009670" lon="-1.9068400">
        <ele>90.4</ele>
        <time>2019-10-18T08:20:05Z</time>
      </trkpt>
      <trkpt lat="37.2009340" lon="-1.9068740">
        <ele>90.6</ele>
        <time>2019-10-18T08:20:06Z</time>
      </trkpt>
      <trkpt lat="37.2009010" lon="-1.9069080">
        <ele>90.7</ele>
        <time>2019-10-18T08:20:07Z</time>
      </trkpt>
      <trkpt lat="37.2008710" lon="-1.9069420">
        <ele>90.8</ele>
        <time>2019-10-18T08:20:08Z</time>
      </trkpt>
      <trkpt lat="37.2008410" lon="-1.9069750">
        <ele>90.9</ele>
        <time>2019-10-18T08:20:09Z</time>
      </trkpt>
      <trkpt lat="37.2008120" lon="-1.9070100">
        <ele>91.0</ele>
        <time>2019-10-18T08:20:10Z</time>
      </trkpt>
      <trkpt lat="37.2007810" lon="-1.9070450">
        <ele>91.1</ele>
        <time>2019-10-18T08:20:11Z</time>
      </trkpt>
      <trkpt lat="37.2007490" lon="-1.9070830">
        <ele>91.0</ele>
        <time>2019-10-18T08:20:12Z</time>
      </trkpt>
      <trkpt lat="37.2007160" lon="-1.9071240">
        <ele>91.0</ele>
        <time>2019-10-18T08:20:13Z</time>
      </trkpt>
      <trkpt lat="37.2006810" lon="-1.9071660">
        <ele>90.9</ele>
        <time>2019-10-18T08:20:14Z</time>
      </trkpt>
      <trkpt lat="37.2006440" lon="-1.9072110">
        <ele>90.7</ele>
        <time>2019-10-18T08:20:15Z</time>
      </trkpt>
      <trkpt lat="37.2006060" lon="-1.9072570">
        <ele>90.6</ele>
        <time>2019-10-18T08:20:16Z</time>
      </trkpt>
      <trkpt lat="37.2005660" lon="-1.9073070">
        <ele>90.3</ele>
        <time>2019-10-18T08:20:17Z</time>
      </trkpt>
      <trkpt lat="37.2005230" lon="-1.9073600">
        <ele>90.0</ele>
        <time>2019-10-18T08:20:18Z</time>
      </trkpt>
      <trkpt lat="37.2004790" lon="-1.9074140">
        <ele>89.5</ele>
        <time>2019-10-18T08:20:19Z</time>
      </trkpt>
      <trkpt lat="37.2004340" lon="-1.9074670">
        <ele>89.1</ele>
        <time>2019-10-18T08:20:20Z</time>
      </trkpt>
      <trkpt lat="37.2003910" lon="-1.9075190">
        <ele>88.7</ele>
        <time>2019-10-18T08:20:21Z</time>
      </trkpt>
      <trkpt lat="37.2003490" lon="-1.9075690">
        <ele>88.2</ele>
        <time>2019-10-18T08:20:22Z</time>
      </trkpt>
      <trkpt lat="37.2003090" lon="-1.9076150">
        <ele>87.8</ele>
        <time>2019-10-18T08:20:23Z</time>
      </trkpt>
      <trkpt lat="37.2002690" lon="-1.9076580">
        <ele>87.3</ele>
        <time>2019-10-18T08:20:24Z</time>
      </trkpt>
      <trkpt lat="37.2002290" lon="-1.9076960">
        <ele>86.9</ele>
        <time>2019-10-18T08:20:25Z</time>
      </trkpt>
      <trkpt lat="37.2001880" lon="-1.9077320">
        <ele>86.4</ele>
        <time>2019-10-18T08:20:26Z</time>
      </trkpt>
      <trkpt lat="37.2001460" lon="-1.9077660">
        <ele>85.8</ele>
        <time>2019-10-18T08:20:27Z</time>
      </trkpt>
      <trkpt lat="37.2001020" lon="-1.9078010">
        <ele>85.2</ele>
        <time>2019-10-18T08:20:28Z</time>
      </trkpt>
      <trkpt lat="37.2000580" lon="-1.9078370">
        <ele>84.5</ele>
        <time>2019-10-18T08:20:29Z</time>
      </trkpt>
      <trkpt lat="37.2000130" lon="-1.9078750">
        <ele>83.8</ele>
        <time>2019-10-18T08:20:30Z</time>
      </trkpt>
      <trkpt lat="37.1999690" lon="-1.9079140">
        <ele>83.1</ele>
        <time>2019-10-18T08:20:31Z</time>
      </trkpt>
      <trkpt lat="37.1999280" lon="-1.9079530">
        <ele>82.4</ele>
        <time>2019-10-18T08:20:32Z</time>
      </trkpt>
      <trkpt lat="37.1998900" lon="-1.9079920">
        <ele>81.8</ele>
        <time>2019-10-18T08:20:33Z</time>
      </trkpt>
      <trkpt lat="37.1998520" lon="-1.9080310">
        <ele>81.3</ele>
        <time>2019-10-18T08:20:34Z</time>
      </trkpt>
      <trkpt lat="37.1998130" lon="-1.9080690">
        <ele>80.8</ele>
        <time>2019-10-18T08:20:35Z</time>
      </trkpt>
      <trkpt lat="37.1997710" lon="-1.9081070">
        <ele>80.3</ele>
        <time>2019-10-18T08:20:36Z</time>
      </trkpt>
      <trkpt lat="37.1997290" lon="-1.9081470">
        <ele>79.8</ele>
        <time>2019-10-18T08:20:37Z</time>
      </trkpt>
      <trkpt lat="37.1996880" lon="-1.9081880">
        <ele>79.4</ele>
        <time>2019-10-18T08:20:38Z</time>
      </trkpt>
      <trkpt lat="37.1996480" lon="-1.9082320">
        <ele>79.0</ele>
        <time>2019-10-18T08:20:39Z</time>
      </trkpt>
      <trkpt lat="37.1996080" lon="-1.9082800">
        <ele>78.7</ele>
        <time>2019-10-18T08:20:40Z</time>
      </trkpt>
      <trkpt lat="37.1995670" lon="-1.9083320">
        <ele>78.3</ele>
        <time>2019-10-18T08:20:41Z</time>
      </trkpt>
      <trkpt lat="37.1995250" lon="-1.9083890">
        <ele>78.0</ele>
        <time>2019-10-18T08:20:42Z</time>
      </trkpt>
      <trkpt lat="37.1994820" lon="-1.9084490">
        <ele>77.8</ele>
        <time>2019-10-18T08:20:43Z</time>
      </trkpt>
      <trkpt lat="37.1994380" lon="-1.9085080">
        <ele>77.6</ele>
        <time>2019-10-18T08:20:44Z</time>
      </trkpt>
      <trkpt lat="37.1993940" lon="-1.9085640">
        <ele>77.4</ele>
        <time>2019-10-18T08:20:45Z</time>
      </trkpt>
      <trkpt lat="37.1993500" lon="-1.9086150">
        <ele>77.2</ele>
        <time>2019-10-18T08:20:46Z</time>
      </trkpt>
      <trkpt lat="37.1993100" lon="-1.9086590">
        <ele>77.1</ele>
        <time>2019-10-18T08:20:47Z</time>
      </trkpt>
      <trkpt lat="37.1992720" lon="-1.9086950">
        <ele>77.1</ele>
        <time>2019-10-18T08:20:48Z</time>
      </trkpt>
      <trkpt lat="37.1992380" lon="-1.9087270">
        <ele>77.1</ele>
        <time>2019-10-18T08:20:49Z</time>
      </trkpt>
      <trkpt lat="37.1992070" lon="-1.9087560">
        <ele>77.1</ele>
        <time>2019-10-18T08:20:50Z</time>
      </trkpt>
      <trkpt lat="37.1991800" lon="-1.9087850">
        <ele>77.2</ele>
        <time>2019-10-18T08:20:51Z</time>
      </trkpt>
      <trkpt lat="37.1991560" lon="-1.9088130">
        <ele>77.2</ele>
        <time>2019-10-18T08:20:52Z</time>
      </trkpt>
      <trkpt lat="37.1991330" lon="-1.9088410">
        <ele>77.3</ele>
        <time>2019-10-18T08:20:53Z</time>
      </trkpt>
      <trkpt lat="37.1991090" lon="-1.9088680">
        <ele>77.4</ele>
        <time>2019-10-18T08:20:54Z</time>
      </trkpt>
      <trkpt lat="37.1990850" lon="-1.9088960">
        <ele>77.5</ele>
        <time>2019-10-18T08:20:55Z</time>
      </trkpt>
      <trkpt lat="37.1990610" lon="-1.9089250">
        <ele>77.7</ele>
        <time>2019-10-18T08:20:56Z</time>
      </trkpt>
      <trkpt lat="37.1990360" lon="-1.9089560">
        <ele>77.8</ele>
        <time>2019-10-18T08:20:57Z</time>
      </trkpt>
      <trkpt lat="37.1990110" lon="-1.9089870">
        <ele>78.0</ele>
        <time>2019-10-18T08:20:58Z</time>
      </trkpt>
      <trkpt lat="37.1989850" lon="-1.9090180">
        <ele>78.2</ele>
        <time>2019-10-18T08:20:59Z</time>
      </trkpt>
      <trkpt lat="37.1989590" lon="-1.9090490">
        <ele>78.4</ele>
        <time>2019-10-18T08:21:00Z</time>
      </trkpt>
      <trkpt lat="37.1989330" lon="-1.9090790">
        <ele>78.6</ele>
        <time>2019-10-18T08:21:01Z</time>
      </trkpt>
      <trkpt lat="37.1989070" lon="-1.9091110">
        <ele>78.7</ele>
        <time>2019-10-18T08:21:02Z</time>
      </trkpt>
      <trkpt lat="37.1988810" lon="-1.9091430">
        <ele>78.9</ele>
        <time>2019-10-18T08:21:03Z</time>
      </trkpt>
      <trkpt lat="37.1988550" lon="-1.9091770">
        <ele>79.0</ele>
        <time>2019-10-18T08:21:04Z</time>
      </trkpt>
      <trkpt lat="37.1988300" lon="-1.9092110">
        <ele>79.2</ele>
        <time>2019-10-18T08:21:05Z</time>
      </trkpt>
      <trkpt lat="37.1988060" lon="-1.9092450">
        <ele>79.3</ele>
        <time>2019-10-18T08:21:06Z</time>
      </trkpt>
      <trkpt lat="37.1987820" lon="-1.9092790">
        <ele>79.4</ele>
        <time>2019-10-18T08:21:07Z</time>
      </trkpt>
      <trkpt lat="37.1987580" lon="-1.9093110">
        <ele>79.6</ele>
        <time>2019-10-18T08:21:08Z</time>
      </trkpt>
      <trkpt lat="37.1987360" lon="-1.9093420">
        <ele>79.7</ele>
        <time>2019-10-18T08:21:09Z</time>
      </trkpt>
      <trkpt lat="37.1987140" lon="-1.9093720">
        <ele>79.8</ele>
        <time>2019-10-18T08:21:10Z</time>
      </trkpt>
      <trkpt lat="37.1986940" lon="-1.9093990">
        <ele>80.0</ele>
        <time>2019-10-18T08:21:11Z</time>
      </trkpt>
      <trkpt lat="37.1986750" lon="-1.9094250">
        <ele>80.1</ele>
        <time>2019-10-18T08:21:12Z</time>
      </trkpt>
      <trkpt lat="37.1986570" lon="-1.9094500">
        <ele>80.3</ele>
        <time>2019-10-18T08:21:13Z</time>
      </trkpt>
      <trkpt lat="37.1986400" lon="-1.9094750">
        <ele>80.4</ele>
        <time>2019-10-18T08:21:14Z</time>
      </trkpt>
      <trkpt lat="37.1986240" lon="-1.9095010">
        <ele>80.6</ele>
        <time>2019-10-18T08:21:15Z</time>
      </trkpt>
      <trkpt lat="37.1986080" lon="-1.9095260">
        <ele>80.7</ele>
        <time>2019-10-18T08:21:16Z</time>
      </trkpt>
      <trkpt lat="37.1985910" lon="-1.9095510">
        <ele>80.9</ele>
        <time>2019-10-18T08:21:17Z</time>
      </trkpt>
      <trkpt lat="37.1985720" lon="-1.9095750">
        <ele>81.1</ele>
        <time>2019-10-18T08:21:18Z</time>
      </trkpt>
      <trkpt lat="37.1985530" lon="-1.9095990">
        <ele>81.3</ele>
        <time>2019-10-18T08:21:19Z</time>
      </trkpt>
      <trkpt lat="37.1985320" lon="-1.9096220">
        <ele>81.5</ele>
        <time>2019-10-18T08:21:20Z</time>
      </trkpt>
      <trkpt lat="37.1985100" lon="-1.9096440">
        <ele>81.7</ele>
        <time>2019-10-18T08:21:21Z</time>
      </trkpt>
      <trkpt lat="37.1984870" lon="-1.9096660">
        <ele>81.9</ele>
        <time>2019-10-18T08:21:22Z</time>
      </trkpt>
      <trkpt lat="37.1984630" lon="-1.9096890">
        <ele>82.2</ele>
        <time>2019-10-18T08:21:23Z</time>
      </trkpt>
      <trkpt lat="37.1984400" lon="-1.9097140">
        <ele>82.5</ele>
        <time>2019-10-18T08:21:24Z</time>
      </trkpt>
      <trkpt lat="37.1984160" lon="-1.9097400">
        <ele>82.8</ele>
        <time>2019-10-18T08:21:25Z</time>
      </trkpt>
      <trkpt lat="37.1983930" lon="-1.9097630">
        <ele>83.0</ele>
        <time>2019-10-18T08:21:26Z</time>
      </trkpt>
      <trkpt lat="37.1983710" lon="-1.9097850">
        <ele>83.2</ele>
        <time>2019-10-18T08:21:27Z</time>
      </trkpt>
      <trkpt lat="37.1983480" lon="-1.9098060">
        <ele>83.4</ele>
        <time>2019-10-18T08:21:28Z</time>
      </trkpt>
      <trkpt lat="37.1983230" lon="-1.9098290">
        <ele>83.7</ele>
        <time>2019-10-18T08:21:29Z</time>
      </trkpt>
      <trkpt lat="37.1982980" lon="-1.9098520">
        <ele>83.9</ele>
        <time>2019-10-18T08:21:30Z</time>
      </trkpt>
      <trkpt lat="37.1982730" lon="-1.9098760">
        <ele>84.1</ele>
        <time>2019-10-18T08:21:31Z</time>
      </trkpt>
      <trkpt lat="37.1982500" lon="-1.9098990">
        <ele>84.2</ele>
        <time>2019-10-18T08:21:32Z</time>
      </trkpt>
      <trkpt lat="37.1982260" lon="-1.9099200">
        <ele>84.4</ele>
        <time>2019-10-18T08:21:33Z</time>
      </trkpt>
      <trkpt lat="37.1982030" lon="-1.9099420">
        <ele>84.5</ele>
        <time>2019-10-18T08:21:34Z</time>
      </trkpt>
      <trkpt lat="37.1981780" lon="-1.9099660">
        <ele>84.7</ele>
        <time>2019-10-18T08:21:35Z</time>
      </trkpt>
      <trkpt lat="37.1981540" lon="-1.9099900">
        <ele>84.8</ele>
        <time>2019-10-18T08:21:36Z</time>
      </trkpt>
      <trkpt lat="37.1981270" lon="-1.9100160">
        <ele>85.0</ele>
        <time>2019-10-18T08:21:37Z</time>
      </trkpt>
      <trkpt lat="37.1980990" lon="-1.9100390">
        <ele>85.1</ele>
        <time>2019-10-18T08:21:38Z</time>
      </trkpt>
      <trkpt lat="37.1980700" lon="-1.9100610">
        <ele>85.3</ele>
        <time>2019-10-18T08:21:39Z</time>
      </trkpt>
      <trkpt lat="37.1980410" lon="-1.9100810">
        <ele>85.4</ele>
        <time>2019-10-18T08:21:40Z</time>
      </trkpt>
      <trkpt lat="37.1980120" lon="-1.9101000">
        <ele>85.5</ele>
        <time>2019-10-18T08:21:41Z</time>
      </trkpt>
      <trkpt lat="37.1979830" lon="-1.9101200">
        <ele>85.6</ele>
        <time>2019-10-18T08:21:42Z</time>
      </trkpt>
      <trkpt lat="37.1979550" lon="-1.9101400">
        <ele>85.7</ele>
        <time>2019-10-18T08:21:43Z</time>
      </trkpt>
      <trkpt lat="37.1979260" lon="-1.9101600">
        <ele>85.8</ele>
        <time>2019-10-18T08:21:44Z</time>
      </trkpt>
      <trkpt lat="37.1978980" lon="-1.9101820">
        <ele>85.9</ele>
        <time>2019-10-18T08:21:45Z</time>
      </trkpt>
      <trkpt lat="37.1978690" lon="-1.9102030">
        <ele>86.0</ele>
        <time>2019-10-18T08:21:46Z</time>
      </trkpt>
      <trkpt lat="37.1978410" lon="-1.9102220">
        <ele>86.0</ele>
        <time>2019-10-18T08:21:47Z</time>
      </trkpt>
      <trkpt lat="37.1978130" lon="-1.9102420">
        <ele>86.1</ele>
        <time>2019-10-18T08:21:48Z</time>
      </trkpt>
      <trkpt lat="37.1977870" lon="-1.9102630">
        <ele>86.2</ele>
        <time>2019-10-18T08:21:49Z</time>
      </trkpt>
      <trkpt lat="37.1977600" lon="-1.9102850">
        <ele>86.3</ele>
        <time>2019-10-18T08:21:50Z</time>
      </trkpt>
      <trkpt lat="37.1977330" lon="-1.9103090">
        <ele>86.4</ele>
        <time>2019-10-18T08:21:51Z</time>
      </trkpt>
      <trkpt lat="37.1977050" lon="-1.9103340">
        <ele>86.5</ele>
        <time>2019-10-18T08:21:52Z</time>
      </trkpt>
      <trkpt lat="37.1976790" lon="-1.9103590">
        <ele>86.5</ele>
        <time>2019-10-18T08:21:53Z</time>
      </trkpt>
      <trkpt lat="37.1976540" lon="-1.9103830">
        <ele>86.6</ele>
        <time>2019-10-18T08:21:54Z</time>
      </trkpt>
      <trkpt lat="37.1976280" lon="-1.9104060">
        <ele>86.7</ele>
        <time>2019-10-18T08:21:55Z</time>
      </trkpt>
      <trkpt lat="37.1976010" lon="-1.9104280">
        <ele>86.8</ele>
        <time>2019-10-18T08:21:56Z</time>
      </trkpt>
      <trkpt lat="37.1975770" lon="-1.9104500">
        <ele>86.9</ele>
        <time>2019-10-18T08:21:57Z</time>
      </trkpt>
      <trkpt lat="37.1975530" lon="-1.9104730">
        <ele>87.0</ele>
        <time>2019-10-18T08:21:58Z</time>
      </trkpt>
      <trkpt lat="37.1975290" lon="-1.9104980">
        <ele>87.1</ele>
        <time>2019-10-18T08:21:59Z</time>
      </trkpt>
      <trkpt lat="37.1975060" lon="-1.9105260">
        <ele>87.1</ele>
        <time>2019-10-18T08:22:00Z</time>
      </trkpt>
      <trkpt lat="37.1974840" lon="-1.9105560">
        <ele>87.2</ele>
        <time>2019-10-18T08:22:01Z</time>
      </trkpt>
      <trkpt lat="37.1974620" lon="-1.9105860">
        <ele>87.3</ele>
        <time>2019-10-18T08:22:02Z</time>
      </trkpt>
      <trkpt lat="37.1974410" lon="-1.9106160">
        <ele>87.4</ele>
        <time>2019-10-18T08:22:03Z</time>
      </trkpt>
      <trkpt lat="37.1974220" lon="-1.9106480">
        <ele>87.5</ele>
        <time>2019-10-18T08:22:04Z</time>
      </trkpt>
      <trkpt lat="37.1974050" lon="-1.9106820">
        <ele>87.7</ele>
        <time>2019-10-18T08:22:05Z</time>
      </trkpt>
      <trkpt lat="37.1973850" lon="-1.9107140">
        <ele>87.8</ele>
        <time>2019-10-18T08:22:06Z</time>
      </trkpt>
      <trkpt lat="37.1973620" lon="-1.9107450">
        <ele>87.9</ele>
        <time>2019-10-18T08:22:07Z</time>
      </trkpt>
      <trkpt lat="37.1973370" lon="-1.9107760">
        <ele>88.0</ele>
        <time>2019-10-18T08:22:08Z</time>
      </trkpt>
      <trkpt lat="37.1973130" lon="-1.9108070">
        <ele>88.1</ele>
        <time>2019-10-18T08:22:09Z</time>
      </trkpt>
      <trkpt lat="37.1972900" lon="-1.9108390">
        <ele>88.2</ele>
        <time>2019-10-18T08:22:10Z</time>
      </trkpt>
      <trkpt lat="37.1972680" lon="-1.9108710">
        <ele>88.4</ele>
        <time>2019-10-18T08:22:11Z</time>
      </trkpt>
      <trkpt lat="37.1972460" lon="-1.9109030">
        <ele>88.5</ele>
        <time>2019-10-18T08:22:12Z</time>
      </trkpt>
      <trkpt lat="37.1972240" lon="-1.9109340">
        <ele>88.6</ele>
        <time>2019-10-18T08:22:13Z</time>
      </trkpt>
      <trkpt lat="37.1972030" lon="-1.9109660">
        <ele>88.8</ele>
        <time>2019-10-18T08:22:14Z</time>
      </trkpt>
      <trkpt lat="37.1971830" lon="-1.9109980">
        <ele>88.9</ele>
        <time>2019-10-18T08:22:15Z</time>
      </trkpt>
      <trkpt lat="37.1971610" lon="-1.9110300">
        <ele>89.0</ele>
        <time>2019-10-18T08:22:16Z</time>
      </trkpt>
      <trkpt lat="37.1971390" lon="-1.9110600">
        <ele>89.2</ele>
        <time>2019-10-18T08:22:17Z</time>
      </trkpt>
      <trkpt lat="37.1971150" lon="-1.9110900">
        <ele>89.3</ele>
        <time>2019-10-18T08:22:18Z</time>
      </trkpt>
      <trkpt lat="37.1970920" lon="-1.9111210">
        <ele>89.5</ele>
        <time>2019-10-18T08:22:19Z</time>
      </trkpt>
      <trkpt lat="37.1970690" lon="-1.9111510">
        <ele>89.6</ele>
        <time>2019-10-18T08:22:20Z</time>
      </trkpt>
      <trkpt lat="37.1970480" lon="-1.9111810">
        <ele>89.7</ele>
        <time>2019-10-18T08:22:21Z</time>
      </trkpt>
      <trkpt lat="37.1970270" lon="-1.9112110">
        <ele>89.8</ele>
        <time>2019-10-18T08:22:22Z</time>
      </trkpt>
      <trkpt lat="37.1970060" lon="-1.9112410">
        <ele>89.9</ele>
        <time>2019-10-18T08:22:23Z</time>
      </trkpt>
      <trkpt lat="37.1969860" lon="-1.9112710">
        <ele>90.0</ele>
        <time>2019-10-18T08:22:24Z</time>
      </trkpt>
      <trkpt lat="37.1969670" lon="-1.9113020">
        <ele>90.1</ele>
        <time>2019-10-18T08:22:25Z</time>
      </trkpt>
      <trkpt lat="37.1969470" lon="-1.9113320">
        <ele>90.2</ele>
        <time>2019-10-18T08:22:26Z</time>
      </trkpt>
      <trkpt lat="37.1969250" lon="-1.9113620">
        <ele>90.3</ele>
        <time>2019-10-18T08:22:27Z</time>
      </trkpt>
      <trkpt lat="37.1969000" lon="-1.9113890">
        <ele>90.4</ele>
        <time>2019-10-18T08:22:28Z</time>
      </trkpt>
      <trkpt lat="37.1968740" lon="-1.9114150">
        <ele>90.5</ele>
        <time>2019-10-18T08:22:29Z</time>
      </trkpt>
      <trkpt lat="37.1968500" lon="-1.9114420">
        <ele>90.6</ele>
        <time>2019-10-18T08:22:30Z</time>
      </trkpt>
      <trkpt lat="37.1968260" lon="-1.9114680">
        <ele>90.7</ele>
        <time>2019-10-18T08:22:31Z</time>
      </trkpt>
      <trkpt lat="37.1968030" lon="-1.9114940">
        <ele>90.8</ele>
        <time>2019-10-18T08:22:32Z</time>
      </trkpt>
      <trkpt lat="37.1967790" lon="-1.9115190">
        <ele>91.0</ele>
        <time>2019-10-18T08:22:33Z</time>
      </trkpt>
      <trkpt lat="37.1967540" lon="-1.9115440">
        <ele>91.1</ele>
        <time>2019-10-18T08:22:34Z</time>
      </trkpt>
      <trkpt lat="37.1967290" lon="-1.9115680">
        <ele>91.2</ele>
        <time>2019-10-18T08:22:35Z</time>
      </trkpt>
      <trkpt lat="37.1967040" lon="-1.9115930">
        <ele>91.4</ele>
        <time>2019-10-18T08:22:36Z</time>
      </trkpt>
      <trkpt lat="37.1966780" lon="-1.9116170">
        <ele>91.5</ele>
        <time>2019-10-18T08:22:37Z</time>
      </trkpt>
      <trkpt lat="37.1966520" lon="-1.9116420">
        <ele>91.6</ele>
        <time>2019-10-18T08:22:38Z</time>
      </trkpt>
      <trkpt lat="37.1966260" lon="-1.9116670">
        <ele>91.8</ele>
        <time>2019-10-18T08:22:39Z</time>
      </trkpt>
      <trkpt lat="37.1965990" lon="-1.9116930">
        <ele>91.9</ele>
        <time>2019-10-18T08:22:40Z</time>
      </trkpt>
      <trkpt lat="37.1965740" lon="-1.9117180">
        <ele>92.1</ele>
        <time>2019-10-18T08:22:41Z</time>
      </trkpt>
      <trkpt lat="37.1965480" lon="-1.9117450">
        <ele>92.2</ele>
        <time>2019-10-18T08:22:42Z</time>
      </trkpt>
      <trkpt lat="37.1965220" lon="-1.9117710">
        <ele>92.4</ele>
        <time>2019-10-18T08:22:43Z</time>
      </trkpt>
      <trkpt lat="37.1964970" lon="-1.9117990">
        <ele>92.5</ele>
        <time>2019-10-18T08:22:44Z</time>
      </trkpt>
      <trkpt lat="37.1964720" lon="-1.9118260">
        <ele>92.7</ele>
        <time>2019-10-18T08:22:45Z</time>
      </trkpt>
      <trkpt lat="37.1964460" lon="-1.9118520">
        <ele>92.8</ele>
        <time>2019-10-18T08:22:46Z</time>
      </trkpt>
      <trkpt lat="37.1964200" lon="-1.9118780">
        <ele>92.9</ele>
        <time>2019-10-18T08:22:47Z</time>
      </trkpt>
      <trkpt lat="37.1963930" lon="-1.9119050">
        <ele>93.0</ele>
        <time>2019-10-18T08:22:48Z</time>
      </trkpt>
      <trkpt lat="37.1963670" lon="-1.9119320">
        <ele>93.1</ele>
        <time>2019-10-18T08:22:49Z</time>
      </trkpt>
      <trkpt lat="37.1963400" lon="-1.9119590">
        <ele>93.2</ele>
        <time>2019-10-18T08:22:50Z</time>
      </trkpt>
      <trkpt lat="37.1963120" lon="-1.9119850">
        <ele>93.4</ele>
        <time>2019-10-18T08:22:51Z</time>
      </trkpt>
      <trkpt lat="37.1962850" lon="-1.9120100">
        <ele>93.5</ele>
        <time>2019-10-18T08:22:52Z</time>
      </trkpt>
      <trkpt lat="37.1962590" lon="-1.9120360">
        <ele>93.6</ele>
        <time>2019-10-18T08:22:53Z</time>
      </trkpt>
      <trkpt lat="37.1962320" lon="-1.9120620">
        <ele>93.6</ele>
        <time>2019-10-18T08:22:54Z</time>
      </trkpt>
      <trkpt lat="37.1962060" lon="-1.9120870">
        <ele>93.7</ele>
        <time>2019-10-18T08:22:55Z</time>
      </trkpt>
      <trkpt lat="37.1961800" lon="-1.9121120">
        <ele>93.8</ele>
        <time>2019-10-18T08:22:56Z</time>
      </trkpt>
      <trkpt lat="37.1961550" lon="-1.9121360">
        <ele>93.9</ele>
        <time>2019-10-18T08:22:57Z</time>
      </trkpt>
      <trkpt lat="37.1961300" lon="-1.9121590">
        <ele>94.0</ele>
        <time>2019-10-18T08:22:58Z</time>
      </trkpt>
      <trkpt lat="37.1961050" lon="-1.9121810">
        <ele>94.1</ele>
        <time>2019-10-18T08:22:59Z</time>
      </trkpt>
      <trkpt lat="37.1960800" lon="-1.9122040">
        <ele>94.2</ele>
        <time>2019-10-18T08:23:00Z</time>
      </trkpt>
      <trkpt lat="37.1960540" lon="-1.9122250">
        <ele>94.2</ele>
        <time>2019-10-18T08:23:01Z</time>
      </trkpt>
      <trkpt lat="37.1960280" lon="-1.9122460">
        <ele>94.3</ele>
        <time>2019-10-18T08:23:02Z</time>
      </trkpt>
      <trkpt lat="37.1960030" lon="-1.9122680">
        <ele>94.4</ele>
        <time>2019-10-18T08:23:03Z</time>
      </trkpt>
      <trkpt lat="37.1959780" lon="-1.9122900">
        <ele>94.5</ele>
        <time>2019-10-18T08:23:04Z</time>
      </trkpt>
      <trkpt lat="37.1959550" lon="-1.9123130">
        <ele>94.6</ele>
        <time>2019-10-18T08:23:05Z</time>
      </trkpt>
      <trkpt lat="37.1959320" lon="-1.9123360">
        <ele>94.7</ele>
        <time>2019-10-18T08:23:06Z</time>
      </trkpt>
      <trkpt lat="37.1959100" lon="-1.9123590">
        <ele>94.8</ele>
        <time>2019-10-18T08:23:07Z</time>
      </trkpt>
      <trkpt lat="37.1958880" lon="-1.9123820">
        <ele>94.9</ele>
        <time>2019-10-18T08:23:08Z</time>
      </trkpt>
      <trkpt lat="37.1958660" lon="-1.9124050">
        <ele>95.0</ele>
        <time>2019-10-18T08:23:09Z</time>
      </trkpt>
      <trkpt lat="37.1958430" lon="-1.9124260">
        <ele>95.1</ele>
        <time>2019-10-18T08:23:10Z</time>
      </trkpt>
      <trkpt lat="37.1958190" lon="-1.9124470">
        <ele>95.2</ele>
        <time>2019-10-18T08:23:11Z</time>
      </trkpt>
      <trkpt lat="37.1957950" lon="-1.9124680">
        <ele>95.4</ele>
        <time>2019-10-18T08:23:12Z</time>
      </trkpt>
      <trkpt lat="37.1957720" lon="-1.9124900">
        <ele>95.5</ele>
        <time>2019-10-18T08:23:13Z</time>
      </trkpt>
      <trkpt lat="37.1957480" lon="-1.9125110">
        <ele>95.6</ele>
        <time>2019-10-18T08:23:14Z</time>
      </trkpt>
      <trkpt lat="37.1957240" lon="-1.9125310">
        <ele>95.8</ele>
        <time>2019-10-18T08:23:15Z</time>
      </trkpt>
      <trkpt lat="37.1957000" lon="-1.9125510">
        <ele>96.0</ele>
        <time>2019-10-18T08:23:16Z</time>
      </trkpt>
      <trkpt lat="37.1956760" lon="-1.9125710">
        <ele>96.1</ele>
        <time>2019-10-18T08:23:17Z</time>
      </trkpt>
      <trkpt lat="37.1956530" lon="-1.9125940">
        <ele>96.3</ele>
        <time>2019-10-18T08:23:18Z</time>
      </trkpt>
      <trkpt lat="37.1956310" lon="-1.9126180">
        <ele>96.4</ele>
        <time>2019-10-18T08:23:19Z</time>
      </trkpt>
      <trkpt lat="37.1956090" lon="-1.9126420">
        <ele>96.6</ele>
        <time>2019-10-18T08:23:20Z</time>
      </trkpt>
      <trkpt lat="37.1955860" lon="-1.9126640">
        <ele>96.7</ele>
        <time>2019-10-18T08:23:21Z</time>
      </trkpt>
      <trkpt lat="37.1955620" lon="-1.9126860">
        <ele>96.8</ele>
        <time>2019-10-18T08:23:22Z</time>
      </trkpt>
      <trkpt lat="37.1955370" lon="-1.9127080">
        <ele>97.0</ele>
        <time>2019-10-18T08:23:23Z</time>
      </trkpt>
      <trkpt lat="37.1955130" lon="-1.9127310">
        <ele>97.1</ele>
        <time>2019-10-18T08:23:24Z</time>
      </trkpt>
      <trkpt lat="37.1954890" lon="-1.9127530">
        <ele>97.3</ele>
        <time>2019-10-18T08:23:25Z</time>
      </trkpt>
      <trkpt lat="37.1954640" lon="-1.9127760">
        <ele>97.4</ele>
        <time>2019-10-18T08:23:26Z</time>
      </trkpt>
      <trkpt lat="37.1954380" lon="-1.9128000">
        <ele>97.6</ele>
        <time>2019-10-18T08:23:27Z</time>
      </trkpt>
      <trkpt lat="37.1954110" lon="-1.9128250">
        <ele>97.8</ele>
        <time>2019-10-18T08:23:28Z</time>
      </trkpt>
      <trkpt lat="37.1953840" lon="-1.9128510">
        <ele>98.0</ele>
        <time>2019-10-18T08:23:29Z</time>
      </trkpt>
      <trkpt lat="37.1953570" lon="-1.9128760">
        <ele>98.2</ele>
        <time>2019-10-18T08:23:30Z</time>
      </trkpt>
      <trkpt lat="37.1953310" lon="-1.9129020">
        <ele>98.3</ele>
        <time>2019-10-18T08:23:31Z</time>
      </trkpt>
      <trkpt lat="37.1953050" lon="-1.9129290">
        <ele>98.6</ele>
        <time>2019-10-18T08:23:32Z</time>
      </trkpt>
      <trkpt lat="37.1952790" lon="-1.9129550">
        <ele>98.9</ele>
        <time>2019-10-18T08:23:33Z</time>
      </trkpt>
      <trkpt lat="37.1952530" lon="-1.9129810">
        <ele>99.2</ele>
        <time>2019-10-18T08:23:34Z</time>
      </trkpt>
      <trkpt lat="37.1952260" lon="-1.9130060">
        <ele>99.4</ele>
        <time>2019-10-18T08:23:35Z</time>
      </trkpt>
      <trkpt lat="37.1952000" lon="-1.9130320">
        <ele>99.7</ele>
        <time>2019-10-18T08:23:36Z</time>
      </trkpt>
      <trkpt lat="37.1951730" lon="-1.9130570">
        <ele>99.9</ele>
        <time>2019-10-18T08:23:37Z</time>
      </trkpt>
      <trkpt lat="37.1951460" lon="-1.9130820">
        <ele>100.0</ele>
        <time>2019-10-18T08:23:38Z</time>
      </trkpt>
      <trkpt lat="37.1951190" lon="-1.9131080">
        <ele>100.2</ele>
        <time>2019-10-18T08:23:39Z</time>
      </trkpt>
      <trkpt lat="37.1950920" lon="-1.9131340">
        <ele>100.4</ele>
        <time>2019-10-18T08:23:40Z</time>
      </trkpt>
      <trkpt lat="37.1950650" lon="-1.9131610">
        <ele>100.6</ele>
        <time>2019-10-18T08:23:41Z</time>
      </trkpt>
      <trkpt lat="37.1950370" lon="-1.9131880">
        <ele>100.8</ele>
        <time>2019-10-18T08:23:42Z</time>
      </trkpt>
      <trkpt lat="37.1950060" lon="-1.9132170">
        <ele>101.0</ele>
        <time>2019-10-18T08:23:43Z</time>
      </trkpt>
      <trkpt lat="37.1949740" lon="-1.9132500">
        <ele>101.2</ele>
        <time>2019-10-18T08:23:44Z</time>
      </trkpt>
      <trkpt lat="37.1949390" lon="-1.9132850">
        <ele>101.5</ele>
        <time>2019-10-18T08:23:45Z</time>
      </trkpt>
      <trkpt lat="37.1949020" lon="-1.9133220">
        <ele>101.7</ele>
        <time>2019-10-18T08:23:46Z</time>
      </trkpt>
      <trkpt lat="37.1948610" lon="-1.9133600">
        <ele>101.9</ele>
        <time>2019-10-18T08:23:47Z</time>
      </trkpt>
      <trkpt lat="37.1948190" lon="-1.9133990">
        <ele>102.0</ele>
        <time>2019-10-18T08:23:48Z</time>
      </trkpt>
      <trkpt lat="37.1947740" lon="-1.9134390">
        <ele>102.1</ele>
        <time>2019-10-18T08:23:49Z</time>
      </trkpt>
      <trkpt lat="37.1947290" lon="-1.9134820">
        <ele>102.1</ele>
        <time>2019-10-18T08:23:50Z</time>
      </trkpt>
      <trkpt lat="37.1946810" lon="-1.9135270">
        <ele>102.1</ele>
        <time>2019-10-18T08:23:51Z</time>
      </trkpt>
      <trkpt lat="37.1946300" lon="-1.9135720">
        <ele>102.0</ele>
        <time>2019-10-18T08:23:52Z</time>
      </trkpt>
      <trkpt lat="37.1945780" lon="-1.9136190">
        <ele>101.8</ele>
        <time>2019-10-18T08:23:53Z</time>
      </trkpt>
      <trkpt lat="37.1945240" lon="-1.9136660">
        <ele>101.5</ele>
        <time>2019-10-18T08:23:54Z</time>
      </trkpt>
      <trkpt lat="37.1944700" lon="-1.9137110">
        <ele>101.2</ele>
        <time>2019-10-18T08:23:55Z</time>
      </trkpt>
      <trkpt lat="37.1944180" lon="-1.9137520">
        <ele>101.0</ele>
        <time>2019-10-18T08:23:56Z</time>
      </trkpt>
      <trkpt lat="37.1943700" lon="-1.9137900">
        <ele>100.7</ele>
        <time>2019-10-18T08:23:57Z</time>
      </trkpt>
      <trkpt lat="37.1943270" lon="-1.9138250">
        <ele>100.5</ele>
        <time>2019-10-18T08:23:58Z</time>
      </trkpt>
      <trkpt lat="37.1942860" lon="-1.9138580">
        <ele>100.3</ele>
        <time>2019-10-18T08:23:59Z</time>
      </trkpt>
      <trkpt lat="37.1942450" lon="-1.9138910">
        <ele>100.1</ele>
        <time>2019-10-18T08:24:00Z</time>
      </trkpt>
      <trkpt lat="37.1942000" lon="-1.9139270">
        <ele>99.8</ele>
        <time>2019-10-18T08:24:01Z</time>
      </trkpt>
      <trkpt lat="37.1941530" lon="-1.9139660">
        <ele>99.6</ele>
        <time>2019-10-18T08:24:02Z</time>
      </trkpt>
      <trkpt lat="37.1941070" lon="-1.9140030">
        <ele>99.4</ele>
        <time>2019-10-18T08:24:03Z</time>
      </trkpt>
      <trkpt lat="37.1940650" lon="-1.9140350">
        <ele>99.3</ele>
        <time>2019-10-18T08:24:04Z</time>
      </trkpt>
      <trkpt lat="37.1940270" lon="-1.9140640">
        <ele>99.1</ele>
        <time>2019-10-18T08:24:05Z</time>
      </trkpt>
      <trkpt lat="37.1939900" lon="-1.9140920">
        <ele>98.9</ele>
        <time>2019-10-18T08:24:06Z</time>
      </trkpt>
      <trkpt lat="37.1939520" lon="-1.9141210">
        <ele>98.7</ele>
        <time>2019-10-18T08:24:07Z</time>
      </trkpt>
      <trkpt lat="37.1939140" lon="-1.9141490">
        <ele>98.5</ele>
        <time>2019-10-18T08:24:08Z</time>
      </trkpt>
      <trkpt lat="37.1938770" lon="-1.9141770">
        <ele>98.2</ele>
        <time>2019-10-18T08:24:09Z</time>
      </trkpt>
      <trkpt lat="37.1938390" lon="-1.9142050">
        <ele>98.0</ele>
        <time>2019-10-18T08:24:10Z</time>
      </trkpt>
      <trkpt lat="37.1938020" lon="-1.9142320">
        <ele>97.8</ele>
        <time>2019-10-18T08:24:11Z</time>
      </trkpt>
      <trkpt lat="37.1937660" lon="-1.9142580">
        <ele>97.6</ele>
        <time>2019-10-18T08:24:12Z</time>
      </trkpt>
      <trkpt lat="37.1937290" lon="-1.9142830">
        <ele>97.4</ele>
        <time>2019-10-18T08:24:13Z</time>
      </trkpt>
      <trkpt lat="37.1936920" lon="-1.9143080">
        <ele>97.3</ele>
        <time>2019-10-18T08:24:14Z</time>
      </trkpt>
      <trkpt lat="37.1936530" lon="-1.9143330">
        <ele>97.2</ele>
        <time>2019-10-18T08:24:15Z</time>
      </trkpt>
      <trkpt lat="37.1936140" lon="-1.9143580">
        <ele>97.1</ele>
        <time>2019-10-18T08:24:16Z</time>
      </trkpt>
      <trkpt lat="37.1935760" lon="-1.9143830">
        <ele>97.2</ele>
        <time>2019-10-18T08:24:17Z</time>
      </trkpt>
      <trkpt lat="37.1935390" lon="-1.9144080">
        <ele>97.2</ele>
        <time>2019-10-18T08:24:18Z</time>
      </trkpt>
      <trkpt lat="37.1935030" lon="-1.9144320">
        <ele>97.3</ele>
        <time>2019-10-18T08:24:19Z</time>
      </trkpt>
      <trkpt lat="37.1934660" lon="-1.9144540">
        <ele>97.4</ele>
        <time>2019-10-18T08:24:20Z</time>
      </trkpt>
      <trkpt lat="37.1934300" lon="-1.9144770">
        <ele>97.5</ele>
        <time>2019-10-18T08:24:21Z</time>
      </trkpt>
      <trkpt lat="37.1933950" lon="-1.9145010">
        <ele>97.6</ele>
        <time>2019-10-18T08:24:22Z</time>
      </trkpt>
      <trkpt lat="37.1933590" lon="-1.9145240">
        <ele>97.7</ele>
        <time>2019-10-18T08:24:23Z</time>
      </trkpt>
      <trkpt lat="37.1933240" lon="-1.9145450">
        <ele>97.8</ele>
        <time>2019-10-18T08:24:24Z</time>
      </trkpt>
      <trkpt lat="37.1932890" lon="-1.9145640">
        <ele>98.0</ele>
        <time>2019-10-18T08:24:25Z</time>
      </trkpt>
      <trkpt lat="37.1932540" lon="-1.9145830">
        <ele>98.1</ele>
        <time>2019-10-18T08:24:26Z</time>
      </trkpt>
      <trkpt lat="37.1932190" lon="-1.9146030">
        <ele>98.1</ele>
        <time>2019-10-18T08:24:27Z</time>
      </trkpt>
      <trkpt lat="37.1931810" lon="-1.9146220">
        <ele>98.2</ele>
        <time>2019-10-18T08:24:28Z</time>
      </trkpt>
      <trkpt lat="37.1931400" lon="-1.9146400">
        <ele>98.3</ele>
        <time>2019-10-18T08:24:29Z</time>
      </trkpt>
      <trkpt lat="37.1930980" lon="-1.9146560">
        <ele>98.3</ele>
        <time>2019-10-18T08:24:30Z</time>
      </trkpt>
      <trkpt lat="37.1930570" lon="-1.9146730">
        <ele>98.3</ele>
        <time>2019-10-18T08:24:31Z</time>
      </trkpt>
      <trkpt lat="37.1930180" lon="-1.9146900">
        <ele>98.3</ele>
        <time>2019-10-18T08:24:32Z</time>
      </trkpt>
      <trkpt lat="37.1929800" lon="-1.9147080">
        <ele>98.3</ele>
        <time>2019-10-18T08:24:33Z</time>
      </trkpt>
      <trkpt lat="37.1929420" lon="-1.9147230">
        <ele>98.4</ele>
        <time>2019-10-18T08:24:34Z</time>
      </trkpt>
      <trkpt lat="37.1929040" lon="-1.9147370">
        <ele>98.4</ele>
        <time>2019-10-18T08:24:35Z</time>
      </trkpt>
      <trkpt lat="37.1928660" lon="-1.9147490">
        <ele>98.4</ele>
        <time>2019-10-18T08:24:36Z</time>
      </trkpt>
      <trkpt lat="37.1928280" lon="-1.9147610">
        <ele>98.4</ele>
        <time>2019-10-18T08:24:37Z</time>
      </trkpt>
      <trkpt lat="37.1927910" lon="-1.9147730">
        <ele>98.4</ele>
        <time>2019-10-18T08:24:38Z</time>
      </trkpt>
      <trkpt lat="37.1927600" lon="-1.9147850">
        <ele>98.4</ele>
        <time>2019-10-18T08:24:39Z</time>
      </trkpt>
      <trkpt lat="37.1927330" lon="-1.9147940">
        <ele>98.4</ele>
        <time>2019-10-18T08:24:40Z</time>
      </trkpt>
      <trkpt lat="37.1927090" lon="-1.9148010">
        <ele>98.4</ele>
        <time>2019-10-18T08:24:41Z</time>
      </trkpt>
      <trkpt lat="37.1926850" lon="-1.9148060">
        <ele>98.4</ele>
        <time>2019-10-18T08:24:42Z</time>
      </trkpt>
      <trkpt lat="37.1926610" lon="-1.9148130">
        <ele>98.4</ele>
        <time>2019-10-18T08:24:43Z</time>
      </trkpt>
      <trkpt lat="37.1926370" lon="-1.9148190">
        <ele>98.4</ele>
        <time>2019-10-18T08:24:44Z</time>
      </trkpt>
      <trkpt lat="37.1926130" lon="-1.9148260">
        <ele>98.4</ele>
        <time>2019-10-18T08:24:45Z</time>
      </trkpt>
      <trkpt lat="37.1925890" lon="-1.9148340">
        <ele>98.4</ele>
        <time>2019-10-18T08:24:46Z</time>
      </trkpt>
      <trkpt lat="37.1925640" lon="-1.9148420">
        <ele>98.4</ele>
        <time>2019-10-18T08:24:47Z</time>
      </trkpt>
      <trkpt lat="37.1925370" lon="-1.9148500">
        <ele>98.5</ele>
        <time>2019-10-18T08:24:48Z</time>
      </trkpt>
      <trkpt lat="37.1925100" lon="-1.9148590">
        <ele>98.5</ele>
        <time>2019-10-18T08:24:49Z</time>
      </trkpt>
      <trkpt lat="37.1924830" lon="-1.9148650">
        <ele>98.5</ele>
        <time>2019-10-18T08:24:50Z</time>
      </trkpt>
      <trkpt lat="37.1924550" lon="-1.9148700">
        <ele>98.6</ele>
        <time>2019-10-18T08:24:51Z</time>
      </trkpt>
      <trkpt lat="37.1924260" lon="-1.9148740">
        <ele>98.6</ele>
        <time>2019-10-18T08:24:52Z</time>
      </trkpt>
      <trkpt lat="37.1923970" lon="-1.9148800">
        <ele>98.7</ele>
        <time>2019-10-18T08:24:53Z</time>
      </trkpt>
      <trkpt lat="37.1923680" lon="-1.9148860">
        <ele>98.7</ele>
        <time>2019-10-18T08:24:54Z</time>
      </trkpt>
      <trkpt lat="37.1923400" lon="-1.9148930">
        <ele>98.8</ele>
        <time>2019-10-18T08:24:55Z</time>
      </trkpt>
      <trkpt lat="37.1923120" lon="-1.9149000">
        <ele>98.9</ele>
        <time>2019-10-18T08:24:56Z</time>
      </trkpt>
      <trkpt lat="37.1922840" lon="-1.9149090">
        <ele>99.0</ele>
        <time>2019-10-18T08:24:57Z</time>
      </trkpt>
      <trkpt lat="37.1922570" lon="-1.9149180">
        <ele>99.1</ele>
        <time>2019-10-18T08:24:58Z</time>
      </trkpt>
      <trkpt lat="37.1922300" lon="-1.9149270">
        <ele>99.3</ele>
        <time>2019-10-18T08:24:59Z</time>
      </trkpt>
      <trkpt lat="37.1922020" lon="-1.9149340">
        <ele>99.4</ele>
        <time>2019-10-18T08:25:00Z</time>
      </trkpt>
      <trkpt lat="37.1921760" lon="-1.9149410">
        <ele>99.6</ele>
        <time>2019-10-18T08:25:01Z</time>
      </trkpt>
      <trkpt lat="37.1921490" lon="-1.9149470">
        <ele>99.7</ele>
        <time>2019-10-18T08:25:02Z</time>
      </trkpt>
      <trkpt lat="37.1921230" lon="-1.9149540">
        <ele>99.9</ele>
        <time>2019-10-18T08:25:03Z</time>
      </trkpt>
      <trkpt lat="37.1920960" lon="-1.9149610">
        <ele>100.1</ele>
        <time>2019-10-18T08:25:04Z</time>
      </trkpt>
      <trkpt lat="37.1920690" lon="-1.9149700">
        <ele>100.3</ele>
        <time>2019-10-18T08:25:05Z</time>
      </trkpt>
      <trkpt lat="37.1920410" lon="-1.9149790">
        <ele>100.5</ele>
        <time>2019-10-18T08:25:06Z</time>
      </trkpt>
      <trkpt lat="37.1920120" lon="-1.9149870">
        <ele>100.7</ele>
        <time>2019-10-18T08:25:07Z</time>
      </trkpt>
      <trkpt lat="37.1919830" lon="-1.9149960">
        <ele>100.9</ele>
        <time>2019-10-18T08:25:08Z</time>
      </trkpt>
      <trkpt lat="37.1919550" lon="-1.9150060">
        <ele>101.0</ele>
        <time>2019-10-18T08:25:09Z</time>
      </trkpt>
      <trkpt lat="37.1919270" lon="-1.9150180">
        <ele>101.2</ele>
        <time>2019-10-18T08:25:10Z</time>
      </trkpt>
      <trkpt lat="37.1919010" lon="-1.9150300">
        <ele>101.4</ele>
        <time>2019-10-18T08:25:11Z</time>
      </trkpt>
      <trkpt lat="37.1918760" lon="-1.9150420">
        <ele>101.6</ele>
        <time>2019-10-18T08:25:12Z</time>
      </trkpt>
      <trkpt lat="37.1918510" lon="-1.9150540">
        <ele>101.8</ele>
        <time>2019-10-18T08:25:13Z</time>
      </trkpt>
      <trkpt lat="37.1918270" lon="-1.9150640">
        <ele>101.9</ele>
        <time>2019-10-18T08:25:14Z</time>
      </trkpt>
      <trkpt lat="37.1918040" lon="-1.9150740">
        <ele>102.0</ele>
        <time>2019-10-18T08:25:15Z</time>
      </trkpt>
      <trkpt lat="37.1917810" lon="-1.9150850">
        <ele>102.2</ele>
        <time>2019-10-18T08:25:16Z</time>
      </trkpt>
      <trkpt lat="37.1917600" lon="-1.9150970">
        <ele>102.3</ele>
        <time>2019-10-18T08:25:17Z</time>
      </trkpt>
      <trkpt lat="37.1917400" lon="-1.9151090">
        <ele>102.4</ele>
        <time>2019-10-18T08:25:18Z</time>
      </trkpt>
      <trkpt lat="37.1917190" lon="-1.9151210">
        <ele>102.6</ele>
        <time>2019-10-18T08:25:19Z</time>
      </trkpt>
      <trkpt lat="37.1916980" lon="-1.9151320">
        <ele>102.7</ele>
        <time>2019-10-18T08:25:20Z</time>
      </trkpt>
      <trkpt lat="37.1916770" lon="-1.9151430">
        <ele>102.8</ele>
        <time>2019-10-18T08:25:21Z</time>
      </trkpt>
      <trkpt lat="37.1916570" lon="-1.9151550">
        <ele>102.9</ele>
        <time>2019-10-18T08:25:22Z</time>
      </trkpt>
      <trkpt lat="37.1916360" lon="-1.9151680">
        <ele>103.0</ele>
        <time>2019-10-18T08:25:23Z</time>
      </trkpt>
      <trkpt lat="37.1916160" lon="-1.9151810">
        <ele>103.1</ele>
        <time>2019-10-18T08:25:24Z</time>
      </trkpt>
      <trkpt lat="37.1915950" lon="-1.9151950">
        <ele>103.2</ele>
        <time>2019-10-18T08:25:25Z</time>
      </trkpt>
      <trkpt lat="37.1915760" lon="-1.9152090">
        <ele>103.3</ele>
        <time>2019-10-18T08:25:26Z</time>
      </trkpt>
      <trkpt lat="37.1915570" lon="-1.9152230">
        <ele>103.5</ele>
        <time>2019-10-18T08:25:27Z</time>
      </trkpt>
      <trkpt lat="37.1915380" lon="-1.9152360">
        <ele>103.6</ele>
        <time>2019-10-18T08:25:28Z</time>
      </trkpt>
      <trkpt lat="37.1915180" lon="-1.9152480">
        <ele>103.7</ele>
        <time>2019-10-18T08:25:29Z</time>
      </trkpt>
      <trkpt lat="37.1914980" lon="-1.9152580">
        <ele>103.8</ele>
        <time>2019-10-18T08:25:30Z</time>
      </trkpt>
      <trkpt lat="37.1914790" lon="-1.9152700">
        <ele>103.9</ele>
        <time>2019-10-18T08:25:31Z</time>
      </trkpt>
      <trkpt lat="37.1914620" lon="-1.9152820">
        <ele>104.0</ele>
        <time>2019-10-18T08:25:32Z</time>
      </trkpt>
      <trkpt lat="37.1914460" lon="-1.9152940">
        <ele>104.1</ele>
        <time>2019-10-18T08:25:33Z</time>
      </trkpt>
      <trkpt lat="37.1914300" lon="-1.9153050">
        <ele>104.2</ele>
        <time>2019-10-18T08:25:34Z</time>
      </trkpt>
      <trkpt lat="37.1914150" lon="-1.9153160">
        <ele>104.2</ele>
        <time>2019-10-18T08:25:35Z</time>
      </trkpt>
      <trkpt lat="37.1913990" lon="-1.9153270">
        <ele>104.3</ele>
        <time>2019-10-18T08:25:36Z</time>
      </trkpt>
      <trkpt lat="37.1913840" lon="-1.9153390">
        <ele>104.4</ele>
        <time>2019-10-18T08:25:37Z</time>
      </trkpt>
      <trkpt lat="37.1913680" lon="-1.9153500">
        <ele>104.5</ele>
        <time>2019-10-18T08:25:38Z</time>
      </trkpt>
      <trkpt lat="37.1913530" lon="-1.9153610">
        <ele>104.6</ele>
        <time>2019-10-18T08:25:39Z</time>
      </trkpt>
      <trkpt lat="37.1913370" lon="-1.9153700">
        <ele>104.7</ele>
        <time>2019-10-18T08:25:40Z</time>
      </trkpt>
      <trkpt lat="37.1913210" lon="-1.9153770">
        <ele>104.9</ele>
        <time>2019-10-18T08:25:41Z</time>
      </trkpt>
      <trkpt lat="37.1913040" lon="-1.9153810">
        <ele>105.0</ele>
        <time>2019-10-18T08:25:42Z</time>
      </trkpt>
      <trkpt lat="37.1912860" lon="-1.9153810">
        <ele>105.1</ele>
        <time>2019-10-18T08:25:43Z</time>
      </trkpt>
      <trkpt lat="37.1912670" lon="-1.9153760">
        <ele>105.2</ele>
        <time>2019-10-18T08:25:44Z</time>
      </trkpt>
      <trkpt lat="37.1912490" lon="-1.9153680">
        <ele>105.4</ele>
        <time>2019-10-18T08:25:45Z</time>
      </trkpt>
      <trkpt lat="37.1912300" lon="-1.9153560">
        <ele>105.6</ele>
        <time>2019-10-18T08:25:46Z</time>
      </trkpt>
      <trkpt lat="37.1912110" lon="-1.9153430">
        <ele>105.8</ele>
        <time>2019-10-18T08:25:47Z</time>
      </trkpt>
      <trkpt lat="37.1911910" lon="-1.9153280">
        <ele>106.0</ele>
        <time>2019-10-18T08:25:48Z</time>
      </trkpt>
      <trkpt lat="37.1911690" lon="-1.9153140">
        <ele>106.3</ele>
        <time>2019-10-18T08:25:49Z</time>
      </trkpt>
      <trkpt lat="37.1911470" lon="-1.9153000">
        <ele>106.5</ele>
        <time>2019-10-18T08:25:50Z</time>
      </trkpt>
      <trkpt lat="37.1911240" lon="-1.9152870">
        <ele>106.8</ele>
        <time>2019-10-18T08:25:51Z</time>
      </trkpt>
      <trkpt lat="37.1911020" lon="-1.9152740">
        <ele>107.1</ele>
        <time>2019-10-18T08:25:52Z</time>
      </trkpt>
      <trkpt lat="37.1910800" lon="-1.9152600">
        <ele>107.4</ele>
        <time>2019-10-18T08:25:53Z</time>
      </trkpt>
      <trkpt lat="37.1910580" lon="-1.9152460">
        <ele>107.7</ele>
        <time>2019-10-18T08:25:54Z</time>
      </trkpt>
      <trkpt lat="37.1910380" lon="-1.9152310">
        <ele>108.0</ele>
        <time>2019-10-18T08:25:55Z</time>
      </trkpt>
      <trkpt lat="37.1910200" lon="-1.9152170">
        <ele>108.3</ele>
        <time>2019-10-18T08:25:56Z</time>
      </trkpt>
      <trkpt lat="37.1910030" lon="-1.9152010">
        <ele>108.6</ele>
        <time>2019-10-18T08:25:57Z</time>
      </trkpt>
      <trkpt lat="37.1909900" lon="-1.9151840">
        <ele>108.8</ele>
        <time>2019-10-18T08:25:58Z</time>
      </trkpt>
      <trkpt lat="37.1909790" lon="-1.9151670">
        <ele>109.1</ele>
        <time>2019-10-18T08:25:59Z</time>
      </trkpt>
      <trkpt lat="37.1909720" lon="-1.9151530">
        <ele>109.3</ele>
        <time>2019-10-18T08:26:00Z</time>
      </trkpt>
      <trkpt lat="37.1909690" lon="-1.9151430">
        <ele>109.3</ele>
        <time>2019-10-18T08:26:01Z</time>
      </trkpt>
      <trkpt lat="37.1909670" lon="-1.9151380">
        <ele>109.4</ele>
        <time>2019-10-18T08:26:02Z</time>
      </trkpt>
      <trkpt lat="37.1909670" lon="-1.9151360">
        <ele>109.4</ele>
        <time>2019-10-18T08:26:03Z</time>
      </trkpt>
      <trkpt lat="37.1909680" lon="-1.9151370">
        <ele>109.5</ele>
        <time>2019-10-18T08:26:04Z</time>
      </trkpt>
      <trkpt lat="37.1909690" lon="-1.9151380">
        <ele>109.5</ele>
        <time>2019-10-18T08:26:05Z</time>
      </trkpt>
      <trkpt lat="37.1909700" lon="-1.9151400">
        <ele>109.6</ele>
        <time>2019-10-18T08:26:06Z</time>
      </trkpt>
      <trkpt lat="37.1909700" lon="-1.9151400">
        <ele>109.6</ele>
        <time>2019-10-18T08:26:07Z</time>
      </trkpt>
      <trkpt lat="37.1909700" lon="-1.9151400">
        <ele>109.7</ele>
        <time>2019-10-18T08:26:08Z</time>
      </trkpt>
      <trkpt lat="37.1909700" lon="-1.9151390">
        <ele>109.7</ele>
        <time>2019-10-18T08:26:09Z</time>
      </trkpt>
      <trkpt lat="37.1909700" lon="-1.9151390">
        <ele>109.8</ele>
        <time>2019-10-18T08:26:10Z</time>
      </trkpt>
      <trkpt lat="37.1909710" lon="-1.9151380">
        <ele>109.8</ele>
        <time>2019-10-18T08:26:11Z</time>
      </trkpt>
      <trkpt lat="37.1909720" lon="-1.9151380">
        <ele>109.9</ele>
        <time>2019-10-18T08:26:12Z</time>
      </trkpt>
      <trkpt lat="37.1909720" lon="-1.9151370">
        <ele>109.9</ele>
        <time>2019-10-18T08:26:13Z</time>
      </trkpt>
      <trkpt lat="37.1909720" lon="-1.9151370">
        <ele>109.9</ele>
        <time>2019-10-18T08:26:14Z</time>
      </trkpt>
      <trkpt lat="37.1909720" lon="-1.9151360">
        <ele>110.0</ele>
        <time>2019-10-18T08:26:15Z</time>
      </trkpt>
      <trkpt lat="37.1909720" lon="-1.9151360">
        <ele>110.0</ele>
        <time>2019-10-18T08:26:16Z</time>
      </trkpt>
      <trkpt lat="37.1909710" lon="-1.9151360">
        <ele>110.1</ele>
        <time>2019-10-18T08:26:17Z</time>
      </trkpt>
      <trkpt lat="37.1909710" lon="-1.9151350">
        <ele>110.1</ele>
        <time>2019-10-18T08:26:18Z</time>
      </trkpt>
      <trkpt lat="37.1909720" lon="-1.9151350">
        <ele>110.2</ele>
        <time>2019-10-18T08:26:19Z</time>
      </trkpt>
      <trkpt lat="37.1909720" lon="-1.9151340">
        <ele>110.2</ele>
        <time>2019-10-18T08:26:20Z</time>
      </trkpt>
      <trkpt lat="37.1909720" lon="-1.9151340">
        <ele>110.3</ele>
        <time>2019-10-18T08:26:21Z</time>
      </trkpt>
      <trkpt lat="37.1909720" lon="-1.9151330">
        <ele>110.3</ele>
        <time>2019-10-18T08:26:22Z</time>
      </trkpt>
      <trkpt lat="37.1909720" lon="-1.9151330">
        <ele>110.4</ele>
        <time>2019-10-18T08:26:23Z</time>
      </trkpt>
      <trkpt lat="37.1909730" lon="-1.9151330">
        <ele>110.4</ele>
        <time>2019-10-18T08:26:24Z</time>
      </trkpt>
      <trkpt lat="37.1909730" lon="-1.9151320">
        <ele>110.5</ele>
        <time>2019-10-18T08:26:25Z</time>
      </trkpt>
      <trkpt lat="37.1909740" lon="-1.9151320">
        <ele>110.5</ele>
        <time>2019-10-18T08:26:26Z</time>
      </trkpt>
      <trkpt lat="37.1909740" lon="-1.9151320">
        <ele>110.6</ele>
        <time>2019-10-18T08:26:27Z</time>
      </trkpt>
      <trkpt lat="37.1909740" lon="-1.9151310">
        <ele>110.6</ele>
        <time>2019-10-18T08:26:28Z</time>
      </trkpt>
      <trkpt lat="37.1909740" lon="-1.9151310">
        <ele>110.7</ele>
        <time>2019-10-18T08:26:29Z</time>
      </trkpt>
      <trkpt lat="37.1909740" lon="-1.9151310">
        <ele>110.7</ele>
        <time>2019-10-18T08:26:30Z</time>
      </trkpt>
      <trkpt lat="37.1909740" lon="-1.9151310">
        <ele>110.8</ele>
        <time>2019-10-18T08:26:31Z</time>
      </trkpt>
      <trkpt lat="37.1909750" lon="-1.9151310">
        <ele>110.8</ele>
        <time>2019-10-18T08:26:32Z</time>
      </trkpt>
      <trkpt lat="37.1909750" lon="-1.9151310">
        <ele>110.9</ele>
        <time>2019-10-18T08:26:33Z</time>
      </trkpt>
      <trkpt lat="37.1909750" lon="-1.9151330">
        <ele>110.9</ele>
        <time>2019-10-18T08:26:34Z</time>
      </trkpt>
      <trkpt lat="37.1909740" lon="-1.9151340">
        <ele>111.0</ele>
        <time>2019-10-18T08:26:35Z</time>
      </trkpt>
      <trkpt lat="37.1909720" lon="-1.9151340">
        <ele>111.0</ele>
        <time>2019-10-18T08:26:36Z</time>
      </trkpt>
      <trkpt lat="37.1909710" lon="-1.9151330">
        <ele>111.1</ele>
        <time>2019-10-18T08:26:37Z</time>
      </trkpt>
      <trkpt lat="37.1909710" lon="-1.9151310">
        <ele>111.1</ele>
        <time>2019-10-18T08:26:38Z</time>
      </trkpt>
      <trkpt lat="37.1909710" lon="-1.9151300">
        <ele>111.2</ele>
        <time>2019-10-18T08:26:39Z</time>
      </trkpt>
      <trkpt lat="37.1909710" lon="-1.9151310">
        <ele>111.2</ele>
        <time>2019-10-18T08:26:40Z</time>
      </trkpt>
      <trkpt lat="37.1909720" lon="-1.9151310">
        <ele>111.2</ele>
        <time>2019-10-18T08:26:41Z</time>
      </trkpt>
      <trkpt lat="37.1909720" lon="-1.9151310">
        <ele>111.3</ele>
        <time>2019-10-18T08:26:42Z</time>
      </trkpt>
      <trkpt lat="37.1909720" lon="-1.9151320">
        <ele>111.3</ele>
        <time>2019-10-18T08:26:43Z</time>
      </trkpt>
      <trkpt lat="37.1909720" lon="-1.9151320">
        <ele>111.4</ele>
        <time>2019-10-18T08:26:44Z</time>
      </trkpt>
      <trkpt lat="37.1909720" lon="-1.9151320">
        <ele>111.4</ele>
        <time>2019-10-18T08:26:45Z</time>
      </trkpt>
      <trkpt lat="37.1909720" lon="-1.9151320">
        <ele>111.5</ele>
        <time>2019-10-18T08:26:46Z</time>
      </trkpt>
      <trkpt lat="37.1909710" lon="-1.9151320">
        <ele>111.5</ele>
        <time>2019-10-18T08:26:47Z</time>
      </trkpt>
      <trkpt lat="37.1909700" lon="-1.9151310">
        <ele>111.6</ele>
        <time>2019-10-18T08:26:48Z</time>
      </trkpt>
      <trkpt lat="37.1909680" lon="-1.9151310">
        <ele>111.6</ele>
        <time>2019-10-18T08:26:49Z</time>
      </trkpt>
      <trkpt lat="37.1909640" lon="-1.9151310">
        <ele>111.7</ele>
        <time>2019-10-18T08:26:50Z</time>
      </trkpt>
      <trkpt lat="37.1909590" lon="-1.9151330">
        <ele>111.7</ele>
        <time>2019-10-18T08:26:51Z</time>
      </trkpt>
      <trkpt lat="37.1909550" lon="-1.9151360">
        <ele>111.8</ele>
        <time>2019-10-18T08:26:52Z</time>
      </trkpt>
      <trkpt lat="37.1909540" lon="-1.9151430">
        <ele>112.0</ele>
        <time>2019-10-18T08:26:53Z</time>
      </trkpt>
      <trkpt lat="37.1909550" lon="-1.9151510">
        <ele>111.9</ele>
        <time>2019-10-18T08:26:54Z</time>
      </trkpt>
      <trkpt lat="37.1909570" lon="-1.9151630">
        <ele>111.9</ele>
        <time>2019-10-18T08:26:55Z</time>
      </trkpt>
      <trkpt lat="37.1909600" lon="-1.9151760">
        <ele>112.0</ele>
        <time>2019-10-18T08:26:56Z</time>
      </trkpt>
      <trkpt lat="37.1909640" lon="-1.9151920">
        <ele>112.0</ele>
        <time>2019-10-18T08:26:57Z</time>
      </trkpt>
      <trkpt lat="37.1909690" lon="-1.9152080">
        <ele>112.1</ele>
        <time>2019-10-18T08:26:58Z</time>
      </trkpt>
      <trkpt lat="37.1909770" lon="-1.9152250">
        <ele>112.1</ele>
        <time>2019-10-18T08:26:59Z</time>
      </trkpt>
      <trkpt lat="37.1909880" lon="-1.9152410">
        <ele>112.2</ele>
        <time>2019-10-18T08:27:00Z</time>
      </trkpt>
      <trkpt lat="37.1909980" lon="-1.9152570">
        <ele>112.1</ele>
        <time>2019-10-18T08:27:01Z</time>
      </trkpt>
      <trkpt lat="37.1910100" lon="-1.9152740">
        <ele>112.2</ele>
        <time>2019-10-18T08:27:02Z</time>
      </trkpt>
      <trkpt lat="37.1910210" lon="-1.9152920">
        <ele>112.2</ele>
        <time>2019-10-18T08:27:03Z</time>
      </trkpt>
      <trkpt lat="37.1910330" lon="-1.9153100">
        <ele>112.1</ele>
        <time>2019-10-18T08:27:04Z</time>
      </trkpt>
      <trkpt lat="37.1910440" lon="-1.9153290">
        <ele>112.2</ele>
        <time>2019-10-18T08:27:05Z</time>
      </trkpt>
      <trkpt lat="37.1910530" lon="-1.9153480">
        <ele>112.2</ele>
        <time>2019-10-18T08:27:06Z</time>
      </trkpt>
      <trkpt lat="37.1910600" lon="-1.9153640">
        <ele>112.1</ele>
        <time>2019-10-18T08:27:07Z</time>
      </trkpt>
      <trkpt lat="37.1910620" lon="-1.9153750">
        <ele>112.2</ele>
        <time>2019-10-18T08:27:08Z</time>
      </trkpt>
      <trkpt lat="37.1910630" lon="-1.9153820">
        <ele>112.2</ele>
        <time>2019-10-18T08:27:09Z</time>
      </trkpt>
      <trkpt lat="37.1910630" lon="-1.9153840">
        <ele>112.3</ele>
        <time>2019-10-18T08:27:10Z</time>
      </trkpt>
      <trkpt lat="37.1910630" lon="-1.9153850">
        <ele>112.3</ele>
        <time>2019-10-18T08:27:11Z</time>
      </trkpt>
      <trkpt lat="37.1910620" lon="-1.9153860">
        <ele>112.4</ele>
        <time>2019-10-18T08:27:12Z</time>
      </trkpt>
      <trkpt lat="37.1910610" lon="-1.9153880">
        <ele>112.4</ele>
        <time>2019-10-18T08:27:13Z</time>
      </trkpt>
      <trkpt lat="37.1910610" lon="-1.9153890">
        <ele>112.5</ele>
        <time>2019-10-18T08:27:14Z</time>
      </trkpt>
      <trkpt lat="37.1910610" lon="-1.9153900">
        <ele>112.5</ele>
        <time>2019-10-18T08:27:15Z</time>
      </trkpt>
      <trkpt lat="37.1910600" lon="-1.9153920">
        <ele>112.6</ele>
        <time>2019-10-18T08:27:16Z</time>
      </trkpt>
      <trkpt lat="37.1910590" lon="-1.9153990">
        <ele>112.6</ele>
        <time>2019-10-18T08:27:17Z</time>
      </trkpt>
      <trkpt lat="37.1910550" lon="-1.9154120">
        <ele>112.8</ele>
        <time>2019-10-18T08:27:18Z</time>
      </trkpt>
      <trkpt lat="37.1910460" lon="-1.9154300">
        <ele>112.9</ele>
        <time>2019-10-18T08:27:19Z</time>
      </trkpt>
      <trkpt lat="37.1910300" lon="-1.9154500">
        <ele>113.0</ele>
        <time>2019-10-18T08:27:20Z</time>
      </trkpt>
      <trkpt lat="37.1910090" lon="-1.9154730">
        <ele>112.9</ele>
        <time>2019-10-18T08:27:21Z</time>
      </trkpt>
      <trkpt lat="37.1909860" lon="-1.9154980">
        <ele>112.9</ele>
        <time>2019-10-18T08:27:22Z</time>
      </trkpt>
      <trkpt lat="37.1909590" lon="-1.9155270">
        <ele>112.9</ele>
        <time>2019-10-18T08:27:23Z</time>
      </trkpt>
      <trkpt lat="37.1909280" lon="-1.9155590">
        <ele>112.9</ele>
        <time>2019-10-18T08:27:24Z</time>
      </trkpt>
      <trkpt lat="37.1908940" lon="-1.9155980">
        <ele>112.9</ele>
        <time>2019-10-18T08:27:25Z</time>
      </trkpt>
      <trkpt lat="37.1908590" lon="-1.9156420">
        <ele>112.9</ele>
        <time>2019-10-18T08:27:26Z</time>
      </trkpt>
      <trkpt lat="37.1908220" lon="-1.9156930">
        <ele>112.9</ele>
        <time>2019-10-18T08:27:27Z</time>
      </trkpt>
      <trkpt lat="37.1907870" lon="-1.9157470">
        <ele>112.9</ele>
        <time>2019-10-18T08:27:28Z</time>
      </trkpt>
      <trkpt lat="37.1907530" lon="-1.9158020">
        <ele>112.9</ele>
        <time>2019-10-18T08:27:29Z</time>
      </trkpt>
      <trkpt lat="37.1907180" lon="-1.9158580">
        <ele>112.9</ele>
        <time>2019-10-18T08:27:30Z</time>
      </trkpt>
      <trkpt lat="37.1906840" lon="-1.9159150">
        <ele>112.9</ele>
        <time>2019-10-18T08:27:31Z</time>
      </trkpt>
      <trkpt lat="37.1906490" lon="-1.9159720">
        <ele>112.9</ele>
        <time>2019-10-18T08:27:32Z</time>
      </trkpt>
      <trkpt lat="37.1906150" lon="-1.9160310">
        <ele>112.9</ele>
        <time>2019-10-18T08:27:33Z</time>
      </trkpt>
      <trkpt lat="37.1905800" lon="-1.9160910">
        <ele>112.9</ele>
        <time>2019-10-18T08:27:34Z</time>
      </trkpt>
      <trkpt lat="37.1905440" lon="-1.9161510">
        <ele>112.9</ele>
        <time>2019-10-18T08:27:35Z</time>
      </trkpt>
      <trkpt lat="37.1905070" lon="-1.9162110">
        <ele>112.8</ele>
        <time>2019-10-18T08:27:36Z</time>
      </trkpt>
      <trkpt lat="37.1904710" lon="-1.9162720">
        <ele>112.8</ele>
        <time>2019-10-18T08:27:37Z</time>
      </trkpt>
      <trkpt lat="37.1904340" lon="-1.9163330">
        <ele>112.7</ele>
        <time>2019-10-18T08:27:38Z</time>
      </trkpt>
      <trkpt lat="37.1903970" lon="-1.9163960">
        <ele>112.6</ele>
        <time>2019-10-18T08:27:39Z</time>
      </trkpt>
      <trkpt lat="37.1903610" lon="-1.9164590">
        <ele>112.5</ele>
        <time>2019-10-18T08:27:40Z</time>
      </trkpt>
      <trkpt lat="37.1903230" lon="-1.9165220">
        <ele>112.3</ele>
        <time>2019-10-18T08:27:41Z</time>
      </trkpt>
      <trkpt lat="37.1902850" lon="-1.9165860">
        <ele>112.2</ele>
        <time>2019-10-18T08:27:42Z</time>
      </trkpt>
      <trkpt lat="37.1902480" lon="-1.9166500">
        <ele>112.1</ele>
        <time>2019-10-18T08:27:43Z</time>
      </trkpt>
      <trkpt lat="37.1902100" lon="-1.9167140">
        <ele>112.0</ele>
        <time>2019-10-18T08:27:44Z</time>
      </trkpt>
      <trkpt lat="37.1901730" lon="-1.9167790">
        <ele>111.9</ele>
        <time>2019-10-18T08:27:45Z</time>
      </trkpt>
      <trkpt lat="37.1901340" lon="-1.9168430">
        <ele>111.9</ele>
        <time>2019-10-18T08:27:46Z</time>
      </trkpt>
      <trkpt lat="37.1900950" lon="-1.9169070">
        <ele>111.8</ele>
        <time>2019-10-18T08:27:47Z</time>
      </trkpt>
      <trkpt lat="37.1900560" lon="-1.9169710">
        <ele>111.8</ele>
        <time>2019-10-18T08:27:48Z</time>
      </trkpt>
      <trkpt lat="37.1900150" lon="-1.9170350">
        <ele>111.8</ele>
        <time>2019-10-18T08:27:49Z</time>
      </trkpt>
      <trkpt lat="37.1899740" lon="-1.9170980">
        <ele>111.8</ele>
        <time>2019-10-18T08:27:50Z</time>
      </trkpt>
      <trkpt lat="37.1899320" lon="-1.9171600">
        <ele>111.8</ele>
        <time>2019-10-18T08:27:51Z</time>
      </trkpt>
      <trkpt lat="37.1898880" lon="-1.9172220">
        <ele>111.8</ele>
        <time>2019-10-18T08:27:52Z</time>
      </trkpt>
      <trkpt lat="37.1898430" lon="-1.9172820">
        <ele>111.8</ele>
        <time>2019-10-18T08:27:53Z</time>
      </trkpt>
      <trkpt lat="37.1897970" lon="-1.9173430">
        <ele>111.8</ele>
        <time>2019-10-18T08:27:54Z</time>
      </trkpt>
      <trkpt lat="37.1897490" lon="-1.9174040">
        <ele>111.8</ele>
        <time>2019-10-18T08:27:55Z</time>
      </trkpt>
      <trkpt lat="37.1897010" lon="-1.9174640">
        <ele>111.7</ele>
        <time>2019-10-18T08:27:56Z</time>
      </trkpt>
      <trkpt lat="37.1896500" lon="-1.9175230">
        <ele>111.7</ele>
        <time>2019-10-18T08:27:57Z</time>
      </trkpt>
      <trkpt lat="37.1895980" lon="-1.9175820">
        <ele>111.6</ele>
        <time>2019-10-18T08:27:58Z</time>
      </trkpt>
      <trkpt lat="37.1895450" lon="-1.9176400">
        <ele>111.5</ele>
        <time>2019-10-18T08:27:59Z</time>
      </trkpt>
      <trkpt lat="37.1894900" lon="-1.9176970">
        <ele>111.3</ele>
        <time>2019-10-18T08:28:00Z</time>
      </trkpt>
      <trkpt lat="37.1894340" lon="-1.9177540">
        <ele>111.0</ele>
        <time>2019-10-18T08:28:01Z</time>
      </trkpt>
      <trkpt lat="37.1893770" lon="-1.9178100">
        <ele>110.7</ele>
        <time>2019-10-18T08:28:02Z</time>
      </trkpt>
      <trkpt lat="37.1893190" lon="-1.9178650">
        <ele>110.4</ele>
        <time>2019-10-18T08:28:03Z</time>
      </trkpt>
      <trkpt lat="37.1892590" lon="-1.9179200">
        <ele>110.0</ele>
        <time>2019-10-18T08:28:04Z</time>
      </trkpt>
      <trkpt lat="37.1891970" lon="-1.9179720">
        <ele>109.7</ele>
        <time>2019-10-18T08:28:05Z</time>
      </trkpt>
      <trkpt lat="37.1891340" lon="-1.9180240">
        <ele>109.5</ele>
        <time>2019-10-18T08:28:06Z</time>
      </trkpt>
      <trkpt lat="37.1890700" lon="-1.9180750">
        <ele>109.3</ele>
        <time>2019-10-18T08:28:07Z</time>
      </trkpt>
      <trkpt lat="37.1890040" lon="-1.9181270">
        <ele>109.1</ele>
        <time>2019-10-18T08:28:08Z</time>
      </trkpt>
      <trkpt lat="37.1889380" lon="-1.9181790">
        <ele>108.9</ele>
        <time>2019-10-18T08:28:09Z</time>
      </trkpt>
      <trkpt lat="37.1888700" lon="-1.9182310">
        <ele>108.8</ele>
        <time>2019-10-18T08:28:10Z</time>
      </trkpt>
      <trkpt lat="37.1888020" lon="-1.9182830">
        <ele>108.7</ele>
        <time>2019-10-18T08:28:11Z</time>
      </trkpt>
      <trkpt lat="37.1887340" lon="-1.9183370">
        <ele>108.3</ele>
        <time>2019-10-18T08:28:12Z</time>
      </trkpt>
      <trkpt lat="37.1886650" lon="-1.9183900">
        <ele>108.1</ele>
        <time>2019-10-18T08:28:13Z</time>
      </trkpt>
      <trkpt lat="37.1885960" lon="-1.9184430">
        <ele>107.9</ele>
        <time>2019-10-18T08:28:14Z</time>
      </trkpt>
      <trkpt lat="37.1885260" lon="-1.9184960">
        <ele>107.7</ele>
        <time>2019-10-18T08:28:15Z</time>
      </trkpt>
      <trkpt lat="37.1884560" lon="-1.9185500">
        <ele>107.5</ele>
        <time>2019-10-18T08:28:16Z</time>
      </trkpt>
      <trkpt lat="37.1883850" lon="-1.9186030">
        <ele>107.3</ele>
        <time>2019-10-18T08:28:17Z</time>
      </trkpt>
      <trkpt lat="37.1883150" lon="-1.9186560">
        <ele>107.1</ele>
        <time>2019-10-18T08:28:18Z</time>
      </trkpt>
      <trkpt lat="37.1882450" lon="-1.9187100">
        <ele>106.9</ele>
        <time>2019-10-18T08:28:19Z</time>
      </trkpt>
      <trkpt lat="37.1881750" lon="-1.9187650">
        <ele>106.7</ele>
        <time>2019-10-18T08:28:20Z</time>
      </trkpt>
      <trkpt lat="37.1881050" lon="-1.9188190">
        <ele>106.6</ele>
        <time>2019-10-18T08:28:21Z</time>
      </trkpt>
      <trkpt lat="37.1880340" lon="-1.9188740">
        <ele>106.5</ele>
        <time>2019-10-18T08:28:22Z</time>
      </trkpt>
      <trkpt lat="37.1879630" lon="-1.9189300">
        <ele>106.3</ele>
        <time>2019-10-18T08:28:23Z</time>
      </trkpt>
      <trkpt lat="37.1878920" lon="-1.9189860">
        <ele>106.1</ele>
        <time>2019-10-18T08:28:24Z</time>
      </trkpt>
      <trkpt lat="37.1878190" lon="-1.9190420">
        <ele>105.9</ele>
        <time>2019-10-18T08:28:25Z</time>
      </trkpt>
      <trkpt lat="37.1877460" lon="-1.9190990">
        <ele>105.7</ele>
        <time>2019-10-18T08:28:26Z</time>
      </trkpt>
      <trkpt lat="37.1876720" lon="-1.9191550">
        <ele>105.4</ele>
        <time>2019-10-18T08:28:27Z</time>
      </trkpt>
      <trkpt lat="37.1875980" lon="-1.9192110">
        <ele>105.2</ele>
        <time>2019-10-18T08:28:28Z</time>
      </trkpt>
      <trkpt lat="37.1875230" lon="-1.9192680">
        <ele>105.0</ele>
        <time>2019-10-18T08:28:29Z</time>
      </trkpt>
      <trkpt lat="37.1874480" lon="-1.9193250">
        <ele>104.7</ele>
        <time>2019-10-18T08:28:30Z</time>
      </trkpt>
      <trkpt lat="37.1873710" lon="-1.9193810">
        <ele>104.5</ele>
        <time>2019-10-18T08:28:31Z</time>
      </trkpt>
      <trkpt lat="37.1872940" lon="-1.9194380">
        <ele>104.2</ele>
        <time>2019-10-18T08:28:32Z</time>
      </trkpt>
      <trkpt lat="37.1872150" lon="-1.9194940">
        <ele>104.0</ele>
        <time>2019-10-18T08:28:33Z</time>
      </trkpt>
      <trkpt lat="37.1871350" lon="-1.9195490">
        <ele>103.8</ele>
        <time>2019-10-18T08:28:34Z</time>
      </trkpt>
      <trkpt lat="37.1870550" lon="-1.9196040">
        <ele>103.5</ele>
        <time>2019-10-18T08:28:35Z</time>
      </trkpt>
      <trkpt lat="37.1869730" lon="-1.9196580">
        <ele>103.1</ele>
        <time>2019-10-18T08:28:36Z</time>
      </trkpt>
      <trkpt lat="37.1868900" lon="-1.9197120">
        <ele>102.9</ele>
        <time>2019-10-18T08:28:37Z</time>
      </trkpt>
      <trkpt lat="37.1868070" lon="-1.9197670">
        <ele>102.7</ele>
        <time>2019-10-18T08:28:38Z</time>
      </trkpt>
      <trkpt lat="37.1867240" lon="-1.9198250">
        <ele>102.5</ele>
        <time>2019-10-18T08:28:39Z</time>
      </trkpt>
      <trkpt lat="37.1866400" lon="-1.9198860">
        <ele>102.4</ele>
        <time>2019-10-18T08:28:40Z</time>
      </trkpt>
      <trkpt lat="37.1865560" lon="-1.9199450">
        <ele>102.2</ele>
        <time>2019-10-18T08:28:41Z</time>
      </trkpt>
      <trkpt lat="37.1864700" lon="-1.9200040">
        <ele>102.0</ele>
        <time>2019-10-18T08:28:42Z</time>
      </trkpt>
      <trkpt lat="37.1863850" lon="-1.9200610">
        <ele>101.8</ele>
        <time>2019-10-18T08:28:43Z</time>
      </trkpt>
      <trkpt lat="37.1862990" lon="-1.9201190">
        <ele>101.7</ele>
        <time>2019-10-18T08:28:44Z</time>
      </trkpt>
      <trkpt lat="37.1862160" lon="-1.9201770">
        <ele>101.5</ele>
        <time>2019-10-18T08:28:45Z</time>
      </trkpt>
      <trkpt lat="37.1861340" lon="-1.9202350">
        <ele>101.4</ele>
        <time>2019-10-18T08:28:46Z</time>
      </trkpt>
      <trkpt lat="37.1860540" lon="-1.9202930">
        <ele>101.3</ele>
        <time>2019-10-18T08:28:47Z</time>
      </trkpt>
      <trkpt lat="37.1859760" lon="-1.9203500">
        <ele>101.3</ele>
        <time>2019-10-18T08:28:48Z</time>
      </trkpt>
      <trkpt lat="37.1859010" lon="-1.9204070">
        <ele>101.4</ele>
        <time>2019-10-18T08:28:49Z</time>
      </trkpt>
      <trkpt lat="37.1858290" lon="-1.9204640">
        <ele>101.4</ele>
        <time>2019-10-18T08:28:50Z</time>
      </trkpt>
      <trkpt lat="37.1857590" lon="-1.9205210">
        <ele>101.5</ele>
        <time>2019-10-18T08:28:51Z</time>
      </trkpt>
      <trkpt lat="37.1856920" lon="-1.9205760">
        <ele>101.6</ele>
        <time>2019-10-18T08:28:52Z</time>
      </trkpt>
      <trkpt lat="37.1856280" lon="-1.9206290">
        <ele>101.6</ele>
        <time>2019-10-18T08:28:53Z</time>
      </trkpt>
      <trkpt lat="37.1855670" lon="-1.9206810">
        <ele>101.8</ele>
        <time>2019-10-18T08:28:54Z</time>
      </trkpt>
      <trkpt lat="37.1855070" lon="-1.9207300">
        <ele>102.0</ele>
        <time>2019-10-18T08:28:55Z</time>
      </trkpt>
      <trkpt lat="37.1854500" lon="-1.9207780">
        <ele>102.2</ele>
        <time>2019-10-18T08:28:56Z</time>
      </trkpt>
      <trkpt lat="37.1853950" lon="-1.9208230">
        <ele>102.5</ele>
        <time>2019-10-18T08:28:57Z</time>
      </trkpt>
      <trkpt lat="37.1853410" lon="-1.9208670">
        <ele>102.7</ele>
        <time>2019-10-18T08:28:58Z</time>
      </trkpt>
      <trkpt lat="37.1852890" lon="-1.9209100">
        <ele>102.9</ele>
        <time>2019-10-18T08:28:59Z</time>
      </trkpt>
      <trkpt lat="37.1852370" lon="-1.9209520">
        <ele>103.1</ele>
        <time>2019-10-18T08:29:00Z</time>
      </trkpt>
      <trkpt lat="37.1851870" lon="-1.9209920">
        <ele>103.3</ele>
        <time>2019-10-18T08:29:01Z</time>
      </trkpt>
      <trkpt lat="37.1851360" lon="-1.9210310">
        <ele>103.5</ele>
        <time>2019-10-18T08:29:02Z</time>
      </trkpt>
      <trkpt lat="37.1850860" lon="-1.9210700">
        <ele>103.8</ele>
        <time>2019-10-18T08:29:03Z</time>
      </trkpt>
      <trkpt lat="37.1850360" lon="-1.9211100">
        <ele>104.0</ele>
        <time>2019-10-18T08:29:04Z</time>
      </trkpt>
      <trkpt lat="37.1849860" lon="-1.9211490">
        <ele>104.2</ele>
        <time>2019-10-18T08:29:05Z</time>
      </trkpt>
      <trkpt lat="37.1849360" lon="-1.9211870">
        <ele>104.4</ele>
        <time>2019-10-18T08:29:06Z</time>
      </trkpt>
      <trkpt lat="37.1848860" lon="-1.9212260">
        <ele>104.6</ele>
        <time>2019-10-18T08:29:07Z</time>
      </trkpt>
      <trkpt lat="37.1848360" lon="-1.9212640">
        <ele>104.8</ele>
        <time>2019-10-18T08:29:08Z</time>
      </trkpt>
      <trkpt lat="37.1847870" lon="-1.9213010">
        <ele>105.0</ele>
        <time>2019-10-18T08:29:09Z</time>
      </trkpt>
      <trkpt lat="37.1847370" lon="-1.9213380">
        <ele>105.3</ele>
        <time>2019-10-18T08:29:10Z</time>
      </trkpt>
      <trkpt lat="37.1846880" lon="-1.9213750">
        <ele>105.5</ele>
        <time>2019-10-18T08:29:11Z</time>
      </trkpt>
      <trkpt lat="37.1846390" lon="-1.9214120">
        <ele>105.6</ele>
        <time>2019-10-18T08:29:12Z</time>
      </trkpt>
      <trkpt lat="37.1845890" lon="-1.9214480">
        <ele>105.8</ele>
        <time>2019-10-18T08:29:13Z</time>
      </trkpt>
      <trkpt lat="37.1845380" lon="-1.9214850">
        <ele>106.0</ele>
        <time>2019-10-18T08:29:14Z</time>
      </trkpt>
      <trkpt lat="37.1844880" lon="-1.9215230">
        <ele>106.2</ele>
        <time>2019-10-18T08:29:15Z</time>
      </trkpt>
      <trkpt lat="37.1844380" lon="-1.9215630">
        <ele>106.3</ele>
        <time>2019-10-18T08:29:16Z</time>
      </trkpt>
      <trkpt lat="37.1843870" lon="-1.9216040">
        <ele>106.4</ele>
        <time>2019-10-18T08:29:17Z</time>
      </trkpt>
      <trkpt lat="37.1843360" lon="-1.9216450">
        <ele>106.5</ele>
        <time>2019-10-18T08:29:18Z</time>
      </trkpt>
      <trkpt lat="37.1842840" lon="-1.9216860">
        <ele>106.5</ele>
        <time>2019-10-18T08:29:19Z</time>
      </trkpt>
      <trkpt lat="37.1842310" lon="-1.9217270">
        <ele>106.6</ele>
        <time>2019-10-18T08:29:20Z</time>
      </trkpt>
      <trkpt lat="37.1841780" lon="-1.9217690">
        <ele>106.6</ele>
        <time>2019-10-18T08:29:21Z</time>
      </trkpt>
      <trkpt lat="37.1841240" lon="-1.9218110">
        <ele>106.7</ele>
        <time>2019-10-18T08:29:22Z</time>
      </trkpt>
      <trkpt lat="37.1840690" lon="-1.9218510">
        <ele>106.7</ele>
        <time>2019-10-18T08:29:23Z</time>
      </trkpt>
      <trkpt lat="37.1840140" lon="-1.9218900">
        <ele>106.7</ele>
        <time>2019-10-18T08:29:24Z</time>
      </trkpt>
      <trkpt lat="37.1839580" lon="-1.9219280">
        <ele>106.7</ele>
        <time>2019-10-18T08:29:25Z</time>
      </trkpt>
      <trkpt lat="37.1839020" lon="-1.9219660">
        <ele>106.7</ele>
        <time>2019-10-18T08:29:26Z</time>
      </trkpt>
      <trkpt lat="37.1838450" lon="-1.9220020">
        <ele>106.7</ele>
        <time>2019-10-18T08:29:27Z</time>
      </trkpt>
      <trkpt lat="37.1837870" lon="-1.9220370">
        <ele>106.7</ele>
        <time>2019-10-18T08:29:28Z</time>
      </trkpt>
      <trkpt lat="37.1837270" lon="-1.9220680">
        <ele>106.7</ele>
        <time>2019-10-18T08:29:29Z</time>
      </trkpt>
      <trkpt lat="37.1836670" lon="-1.9220990">
        <ele>106.7</ele>
        <time>2019-10-18T08:29:30Z</time>
      </trkpt>
      <trkpt lat="37.1836070" lon="-1.9221290">
        <ele>106.7</ele>
        <time>2019-10-18T08:29:31Z</time>
      </trkpt>
      <trkpt lat="37.1835460" lon="-1.9221570">
        <ele>106.7</ele>
        <time>2019-10-18T08:29:32Z</time>
      </trkpt>
      <trkpt lat="37.1834850" lon="-1.9221850">
        <ele>106.7</ele>
        <time>2019-10-18T08:29:33Z</time>
      </trkpt>
      <trkpt lat="37.1834220" lon="-1.9222120">
        <ele>106.6</ele>
        <time>2019-10-18T08:29:34Z</time>
      </trkpt>
      <trkpt lat="37.1833580" lon="-1.9222410">
        <ele>106.6</ele>
        <time>2019-10-18T08:29:35Z</time>
      </trkpt>
      <trkpt lat="37.1832930" lon="-1.9222700">
        <ele>106.4</ele>
        <time>2019-10-18T08:29:36Z</time>
      </trkpt>
      <trkpt lat="37.1832280" lon="-1.9222980">
        <ele>106.3</ele>
        <time>2019-10-18T08:29:37Z</time>
      </trkpt>
      <trkpt lat="37.1831610" lon="-1.9223270">
        <ele>106.0</ele>
        <time>2019-10-18T08:29:38Z</time>
      </trkpt>
      <trkpt lat="37.1830940" lon="-1.9223560">
        <ele>105.8</ele>
        <time>2019-10-18T08:29:39Z</time>
      </trkpt>
      <trkpt lat="37.1830260" lon="-1.9223860">
        <ele>105.6</ele>
        <time>2019-10-18T08:29:40Z</time>
      </trkpt>
      <trkpt lat="37.1829570" lon="-1.9224170">
        <ele>105.3</ele>
        <time>2019-10-18T08:29:41Z</time>
      </trkpt>
      <trkpt lat="37.1828880" lon="-1.9224470">
        <ele>105.1</ele>
        <time>2019-10-18T08:29:42Z</time>
      </trkpt>
      <trkpt lat="37.1828180" lon="-1.9224790">
        <ele>104.9</ele>
        <time>2019-10-18T08:29:43Z</time>
      </trkpt>
      <trkpt lat="37.1827470" lon="-1.9225120">
        <ele>104.8</ele>
        <time>2019-10-18T08:29:44Z</time>
      </trkpt>
      <trkpt lat="37.1826760" lon="-1.9225470">
        <ele>104.8</ele>
        <time>2019-10-18T08:29:45Z</time>
      </trkpt>
      <trkpt lat="37.1826050" lon="-1.9225860">
        <ele>104.8</ele>
        <time>2019-10-18T08:29:46Z</time>
      </trkpt>
      <trkpt lat="37.1825330" lon="-1.9226290">
        <ele>104.9</ele>
        <time>2019-10-18T08:29:47Z</time>
      </trkpt>
      <trkpt lat="37.1824620" lon="-1.9226750">
        <ele>104.9</ele>
        <time>2019-10-18T08:29:48Z</time>
      </trkpt>
      <trkpt lat="37.1823920" lon="-1.9227240">
        <ele>104.9</ele>
        <time>2019-10-18T08:29:49Z</time>
      </trkpt>
      <trkpt lat="37.1823220" lon="-1.9227760">
        <ele>104.8</ele>
        <time>2019-10-18T08:29:50Z</time>
      </trkpt>
      <trkpt lat="37.1822530" lon="-1.9228290">
        <ele>104.8</ele>
        <time>2019-10-18T08:29:51Z</time>
      </trkpt>
      <trkpt lat="37.1821850" lon="-1.9228830">
        <ele>104.7</ele>
        <time>2019-10-18T08:29:52Z</time>
      </trkpt>
      <trkpt lat="37.1821170" lon="-1.9229380">
        <ele>104.5</ele>
        <time>2019-10-18T08:29:53Z</time>
      </trkpt>
      <trkpt lat="37.1820500" lon="-1.9229930">
        <ele>104.1</ele>
        <time>2019-10-18T08:29:54Z</time>
      </trkpt>
      <trkpt lat="37.1819820" lon="-1.9230490">
        <ele>103.7</ele>
        <time>2019-10-18T08:29:55Z</time>
      </trkpt>
      <trkpt lat="37.1819140" lon="-1.9231060">
        <ele>103.3</ele>
        <time>2019-10-18T08:29:56Z</time>
      </trkpt>
      <trkpt lat="37.1818450" lon="-1.9231640">
        <ele>102.8</ele>
        <time>2019-10-18T08:29:57Z</time>
      </trkpt>
      <trkpt lat="37.1817760" lon="-1.9232220">
        <ele>102.5</ele>
        <time>2019-10-18T08:29:58Z</time>
      </trkpt>
      <trkpt lat="37.1817060" lon="-1.9232800">
        <ele>102.1</ele>
        <time>2019-10-18T08:29:59Z</time>
      </trkpt>
      <trkpt lat="37.1816350" lon="-1.9233390">
        <ele>101.8</ele>
        <time>2019-10-18T08:30:00Z</time>
      </trkpt>
      <trkpt lat="37.1815640" lon="-1.9234000">
        <ele>101.5</ele>
        <time>2019-10-18T08:30:01Z</time>
      </trkpt>
      <trkpt lat="37.1814930" lon="-1.9234610">
        <ele>101.3</ele>
        <time>2019-10-18T08:30:02Z</time>
      </trkpt>
      <trkpt lat="37.1814200" lon="-1.9235220">
        <ele>101.1</ele>
        <time>2019-10-18T08:30:03Z</time>
      </trkpt>
      <trkpt lat="37.1813470" lon="-1.9235830">
        <ele>100.8</ele>
        <time>2019-10-18T08:30:04Z</time>
      </trkpt>
      <trkpt lat="37.1812730" lon="-1.9236420">
        <ele>100.5</ele>
        <time>2019-10-18T08:30:05Z</time>
      </trkpt>
      <trkpt lat="37.1811990" lon="-1.9237030">
        <ele>100.1</ele>
        <time>2019-10-18T08:30:06Z</time>
      </trkpt>
      <trkpt lat="37.1811250" lon="-1.9237630">
        <ele>99.7</ele>
        <time>2019-10-18T08:30:07Z</time>
      </trkpt>
      <trkpt lat="37.1810510" lon="-1.9238240">
        <ele>99.4</ele>
        <time>2019-10-18T08:30:08Z</time>
      </trkpt>
      <trkpt lat="37.1809770" lon="-1.9238850">
        <ele>99.1</ele>
        <time>2019-10-18T08:30:09Z</time>
      </trkpt>
      <trkpt lat="37.1809030" lon="-1.9239460">
        <ele>98.9</ele>
        <time>2019-10-18T08:30:10Z</time>
      </trkpt>
      <trkpt lat="37.1808290" lon="-1.9240070">
        <ele>98.7</ele>
        <time>2019-10-18T08:30:11Z</time>
      </trkpt>
      <trkpt lat="37.1807540" lon="-1.9240670">
        <ele>98.4</ele>
        <time>2019-10-18T08:30:12Z</time>
      </trkpt>
      <trkpt lat="37.1806790" lon="-1.9241280">
        <ele>98.1</ele>
        <time>2019-10-18T08:30:13Z</time>
      </trkpt>
      <trkpt lat="37.1806030" lon="-1.9241890">
        <ele>97.8</ele>
        <time>2019-10-18T08:30:14Z</time>
      </trkpt>
      <trkpt lat="37.1805270" lon="-1.9242510">
        <ele>97.6</ele>
        <time>2019-10-18T08:30:15Z</time>
      </trkpt>
      <trkpt lat="37.1804500" lon="-1.9243140">
        <ele>97.4</ele>
        <time>2019-10-18T08:30:16Z</time>
      </trkpt>
      <trkpt lat="37.1803740" lon="-1.9243780">
        <ele>97.3</ele>
        <time>2019-10-18T08:30:17Z</time>
      </trkpt>
      <trkpt lat="37.1802970" lon="-1.9244420">
        <ele>97.0</ele>
        <time>2019-10-18T08:30:18Z</time>
      </trkpt>
      <trkpt lat="37.1802210" lon="-1.9245060">
        <ele>96.6</ele>
        <time>2019-10-18T08:30:19Z</time>
      </trkpt>
      <trkpt lat="37.1801440" lon="-1.9245710">
        <ele>96.1</ele>
        <time>2019-10-18T08:30:20Z</time>
      </trkpt>
      <trkpt lat="37.1800670" lon="-1.9246350">
        <ele>95.5</ele>
        <time>2019-10-18T08:30:21Z</time>
      </trkpt>
      <trkpt lat="37.1799890" lon="-1.9246990">
        <ele>95.1</ele>
        <time>2019-10-18T08:30:22Z</time>
      </trkpt>
      <trkpt lat="37.1799120" lon="-1.9247630">
        <ele>94.6</ele>
        <time>2019-10-18T08:30:23Z</time>
      </trkpt>
      <trkpt lat="37.1798350" lon="-1.9248260">
        <ele>94.1</ele>
        <time>2019-10-18T08:30:24Z</time>
      </trkpt>
      <trkpt lat="37.1797580" lon="-1.9248890">
        <ele>93.5</ele>
        <time>2019-10-18T08:30:25Z</time>
      </trkpt>
      <trkpt lat="37.1796820" lon="-1.9249530">
        <ele>92.9</ele>
        <time>2019-10-18T08:30:26Z</time>
      </trkpt>
      <trkpt lat="37.1796050" lon="-1.9250170">
        <ele>92.4</ele>
        <time>2019-10-18T08:30:27Z</time>
      </trkpt>
      <trkpt lat="37.1795290" lon="-1.9250800">
        <ele>91.9</ele>
        <time>2019-10-18T08:30:28Z</time>
      </trkpt>
      <trkpt lat="37.1794530" lon="-1.9251430">
        <ele>91.4</ele>
        <time>2019-10-18T08:30:29Z</time>
      </trkpt>
      <trkpt lat="37.1793760" lon="-1.9252050">
        <ele>90.9</ele>
        <time>2019-10-18T08:30:30Z</time>
      </trkpt>
      <trkpt lat="37.1792990" lon="-1.9252670">
        <ele>90.4</ele>
        <time>2019-10-18T08:30:31Z</time>
      </trkpt>
      <trkpt lat="37.1792220" lon="-1.9253290">
        <ele>89.9</ele>
        <time>2019-10-18T08:30:32Z</time>
      </trkpt>
      <trkpt lat="37.1791450" lon="-1.9253920">
        <ele>89.5</ele>
        <time>2019-10-18T08:30:33Z</time>
      </trkpt>
      <trkpt lat="37.1790690" lon="-1.9254560">
        <ele>89.0</ele>
        <time>2019-10-18T08:30:34Z</time>
      </trkpt>
      <trkpt lat="37.1789790" lon="-1.9255290">
        <ele>88.5</ele>
        <time>2019-10-18T08:30:35Z</time>
      </trkpt>
      <trkpt lat="37.1788890" lon="-1.9256000">
        <ele>87.7</ele>
        <time>2019-10-18T08:30:36Z</time>
      </trkpt>
      <trkpt lat="37.1787980" lon="-1.9256680">
        <ele>87.2</ele>
        <time>2019-10-18T08:30:37Z</time>
      </trkpt>
      <trkpt lat="37.1787180" lon="-1.9257200">
        <ele>86.7</ele>
        <time>2019-10-18T08:30:38Z</time>
      </trkpt>
      <trkpt lat="37.1786350" lon="-1.9257650">
        <ele>86.3</ele>
        <time>2019-10-18T08:30:39Z</time>
      </trkpt>
      <trkpt lat="37.1785510" lon="-1.9257990">
        <ele>85.9</ele>
        <time>2019-10-18T08:30:40Z</time>
      </trkpt>
      <trkpt lat="37.1784650" lon="-1.9258240">
        <ele>85.6</ele>
        <time>2019-10-18T08:30:41Z</time>
      </trkpt>
      <trkpt lat="37.1783760" lon="-1.9258380">
        <ele>85.2</ele>
        <time>2019-10-18T08:30:42Z</time>
      </trkpt>
      <trkpt lat="37.1782870" lon="-1.9258450">
        <ele>85.0</ele>
        <time>2019-10-18T08:30:43Z</time>
      </trkpt>
      <trkpt lat="37.1781990" lon="-1.9258450">
        <ele>84.8</ele>
        <time>2019-10-18T08:30:44Z</time>
      </trkpt>
      <trkpt lat="37.1781110" lon="-1.9258410">
        <ele>84.5</ele>
        <time>2019-10-18T08:30:45Z</time>
      </trkpt>
      <trkpt lat="37.1780240" lon="-1.9258340">
        <ele>84.2</ele>
        <time>2019-10-18T08:30:46Z</time>
      </trkpt>
      <trkpt lat="37.1779380" lon="-1.9258250">
        <ele>84.0</ele>
        <time>2019-10-18T08:30:47Z</time>
      </trkpt>
      <trkpt lat="37.1778550" lon="-1.9258150">
        <ele>83.9</ele>
        <time>2019-10-18T08:30:48Z</time>
      </trkpt>
      <trkpt lat="37.1777730" lon="-1.9258060">
        <ele>83.9</ele>
        <time>2019-10-18T08:30:49Z</time>
      </trkpt>
      <trkpt lat="37.1776920" lon="-1.9257980">
        <ele>83.9</ele>
        <time>2019-10-18T08:30:50Z</time>
      </trkpt>
      <trkpt lat="37.1776120" lon="-1.9257920">
        <ele>83.8</ele>
        <time>2019-10-18T08:30:51Z</time>
      </trkpt>
      <trkpt lat="37.1775320" lon="-1.9257860">
        <ele>83.8</ele>
        <time>2019-10-18T08:30:52Z</time>
      </trkpt>
      <trkpt lat="37.1774530" lon="-1.9257800">
        <ele>83.8</ele>
        <time>2019-10-18T08:30:53Z</time>
      </trkpt>
      <trkpt lat="37.1773750" lon="-1.9257740">
        <ele>83.8</ele>
        <time>2019-10-18T08:30:54Z</time>
      </trkpt>
      <trkpt lat="37.1772970" lon="-1.9257680">
        <ele>83.8</ele>
        <time>2019-10-18T08:30:55Z</time>
      </trkpt>
      <trkpt lat="37.1772210" lon="-1.9257630">
        <ele>83.8</ele>
        <time>2019-10-18T08:30:56Z</time>
      </trkpt>
      <trkpt lat="37.1771460" lon="-1.9257560">
        <ele>83.8</ele>
        <time>2019-10-18T08:30:57Z</time>
      </trkpt>
      <trkpt lat="37.1770740" lon="-1.9257500">
        <ele>83.8</ele>
        <time>2019-10-18T08:30:58Z</time>
      </trkpt>
      <trkpt lat="37.1770050" lon="-1.9257440">
        <ele>83.8</ele>
        <time>2019-10-18T08:30:59Z</time>
      </trkpt>
      <trkpt lat="37.1769380" lon="-1.9257380">
        <ele>83.8</ele>
        <time>2019-10-18T08:31:00Z</time>
      </trkpt>
      <trkpt lat="37.1768740" lon="-1.9257320">
        <ele>83.8</ele>
        <time>2019-10-18T08:31:01Z</time>
      </trkpt>
      <trkpt lat="37.1768110" lon="-1.9257250">
        <ele>83.8</ele>
        <time>2019-10-18T08:31:02Z</time>
      </trkpt>
      <trkpt lat="37.1767490" lon="-1.9257180">
        <ele>83.9</ele>
        <time>2019-10-18T08:31:03Z</time>
      </trkpt>
      <trkpt lat="37.1766890" lon="-1.9257120">
        <ele>83.9</ele>
        <time>2019-10-18T08:31:04Z</time>
      </trkpt>
      <trkpt lat="37.1766320" lon="-1.9257070">
        <ele>83.9</ele>
        <time>2019-10-18T08:31:05Z</time>
      </trkpt>
      <trkpt lat="37.1765760" lon="-1.9257020">
        <ele>84.0</ele>
        <time>2019-10-18T08:31:06Z</time>
      </trkpt>
      <trkpt lat="37.1765200" lon="-1.9256960">
        <ele>84.0</ele>
        <time>2019-10-18T08:31:07Z</time>
      </trkpt>
      <trkpt lat="37.1764650" lon="-1.9256910">
        <ele>84.1</ele>
        <time>2019-10-18T08:31:08Z</time>
      </trkpt>
      <trkpt lat="37.1764100" lon="-1.9256850">
        <ele>84.2</ele>
        <time>2019-10-18T08:31:09Z</time>
      </trkpt>
      <trkpt lat="37.1763560" lon="-1.9256800">
        <ele>84.4</ele>
        <time>2019-10-18T08:31:10Z</time>
      </trkpt>
      <trkpt lat="37.1763020" lon="-1.9256760">
        <ele>84.5</ele>
        <time>2019-10-18T08:31:11Z</time>
      </trkpt>
      <trkpt lat="37.1762480" lon="-1.9256720">
        <ele>84.7</ele>
        <time>2019-10-18T08:31:12Z</time>
      </trkpt>
      <trkpt lat="37.1761950" lon="-1.9256690">
        <ele>84.9</ele>
        <time>2019-10-18T08:31:13Z</time>
      </trkpt>
      <trkpt lat="37.1761430" lon="-1.9256650">
        <ele>85.1</ele>
        <time>2019-10-18T08:31:14Z</time>
      </trkpt>
      <trkpt lat="37.1760910" lon="-1.9256620">
        <ele>85.3</ele>
        <time>2019-10-18T08:31:15Z</time>
      </trkpt>
      <trkpt lat="37.1760390" lon="-1.9256570">
        <ele>85.5</ele>
        <time>2019-10-18T08:31:16Z</time>
      </trkpt>
      <trkpt lat="37.1759880" lon="-1.9256530">
        <ele>85.6</ele>
        <time>2019-10-18T08:31:17Z</time>
      </trkpt>
      <trkpt lat="37.1759370" lon="-1.9256490">
        <ele>85.7</ele>
        <time>2019-10-18T08:31:18Z</time>
      </trkpt>
      <trkpt lat="37.1758880" lon="-1.9256460">
        <ele>85.9</ele>
        <time>2019-10-18T08:31:19Z</time>
      </trkpt>
      <trkpt lat="37.1758390" lon="-1.9256430">
        <ele>86.1</ele>
        <time>2019-10-18T08:31:20Z</time>
      </trkpt>
      <trkpt lat="37.1757900" lon="-1.9256410">
        <ele>86.3</ele>
        <time>2019-10-18T08:31:21Z</time>
      </trkpt>
      <trkpt lat="37.1757400" lon="-1.9256400">
        <ele>86.5</ele>
        <time>2019-10-18T08:31:22Z</time>
      </trkpt>
      <trkpt lat="37.1756910" lon="-1.9256390">
        <ele>86.7</ele>
        <time>2019-10-18T08:31:23Z</time>
      </trkpt>
      <trkpt lat="37.1756420" lon="-1.9256370">
        <ele>86.8</ele>
        <time>2019-10-18T08:31:24Z</time>
      </trkpt>
      <trkpt lat="37.1755930" lon="-1.9256380">
        <ele>87.0</ele>
        <time>2019-10-18T08:31:25Z</time>
      </trkpt>
      <trkpt lat="37.1755450" lon="-1.9256420">
        <ele>87.2</ele>
        <time>2019-10-18T08:31:26Z</time>
      </trkpt>
      <trkpt lat="37.1754970" lon="-1.9256470">
        <ele>87.4</ele>
        <time>2019-10-18T08:31:27Z</time>
      </trkpt>
      <trkpt lat="37.1754490" lon="-1.9256520">
        <ele>87.6</ele>
        <time>2019-10-18T08:31:28Z</time>
      </trkpt>
      <trkpt lat="37.1754020" lon="-1.9256580">
        <ele>87.8</ele>
        <time>2019-10-18T08:31:29Z</time>
      </trkpt>
      <trkpt lat="37.1753550" lon="-1.9256660">
        <ele>88.1</ele>
        <time>2019-10-18T08:31:30Z</time>
      </trkpt>
      <trkpt lat="37.1753090" lon="-1.9256760">
        <ele>88.4</ele>
        <time>2019-10-18T08:31:31Z</time>
      </trkpt>
      <trkpt lat="37.1752630" lon="-1.9256870">
        <ele>88.6</ele>
        <time>2019-10-18T08:31:32Z</time>
      </trkpt>
      <trkpt lat="37.1752180" lon="-1.9256990">
        <ele>88.8</ele>
        <time>2019-10-18T08:31:33Z</time>
      </trkpt>
      <trkpt lat="37.1751730" lon="-1.9257120">
        <ele>89.1</ele>
        <time>2019-10-18T08:31:34Z</time>
      </trkpt>
      <trkpt lat="37.1751290" lon="-1.9257270">
        <ele>89.3</ele>
        <time>2019-10-18T08:31:35Z</time>
      </trkpt>
      <trkpt lat="37.1750860" lon="-1.9257430">
        <ele>89.6</ele>
        <time>2019-10-18T08:31:36Z</time>
      </trkpt>
      <trkpt lat="37.1750430" lon="-1.9257620">
        <ele>90.0</ele>
        <time>2019-10-18T08:31:37Z</time>
      </trkpt>
      <trkpt lat="37.1750000" lon="-1.9257820">
        <ele>90.3</ele>
        <time>2019-10-18T08:31:38Z</time>
      </trkpt>
      <trkpt lat="37.1749570" lon="-1.9258020">
        <ele>90.6</ele>
        <time>2019-10-18T08:31:39Z</time>
      </trkpt>
      <trkpt lat="37.1749140" lon="-1.9258220">
        <ele>90.9</ele>
        <time>2019-10-18T08:31:40Z</time>
      </trkpt>
      <trkpt lat="37.1748710" lon="-1.9258420">
        <ele>91.2</ele>
        <time>2019-10-18T08:31:41Z</time>
      </trkpt>
      <trkpt lat="37.1748260" lon="-1.9258610">
        <ele>91.5</ele>
        <time>2019-10-18T08:31:42Z</time>
      </trkpt>
      <trkpt lat="37.1747820" lon="-1.9258800">
        <ele>91.7</ele>
        <time>2019-10-18T08:31:43Z</time>
      </trkpt>
      <trkpt lat="37.1747380" lon="-1.9259010">
        <ele>92.0</ele>
        <time>2019-10-18T08:31:44Z</time>
      </trkpt>
      <trkpt lat="37.1746940" lon="-1.9259210">
        <ele>92.3</ele>
        <time>2019-10-18T08:31:45Z</time>
      </trkpt>
      <trkpt lat="37.1746500" lon="-1.9259420">
        <ele>92.6</ele>
        <time>2019-10-18T08:31:46Z</time>
      </trkpt>
      <trkpt lat="37.1746060" lon="-1.9259640">
        <ele>92.8</ele>
        <time>2019-10-18T08:31:47Z</time>
      </trkpt>
      <trkpt lat="37.1745620" lon="-1.9259850">
        <ele>93.1</ele>
        <time>2019-10-18T08:31:48Z</time>
      </trkpt>
      <trkpt lat="37.1745160" lon="-1.9260050">
        <ele>93.3</ele>
        <time>2019-10-18T08:31:49Z</time>
      </trkpt>
      <trkpt lat="37.1744700" lon="-1.9260260">
        <ele>93.5</ele>
        <time>2019-10-18T08:31:50Z</time>
      </trkpt>
      <trkpt lat="37.1744230" lon="-1.9260470">
        <ele>93.8</ele>
        <time>2019-10-18T08:31:51Z</time>
      </trkpt>
      <trkpt lat="37.1743760" lon="-1.9260700">
        <ele>94.0</ele>
        <time>2019-10-18T08:31:52Z</time>
      </trkpt>
      <trkpt lat="37.1743290" lon="-1.9260940">
        <ele>94.2</ele>
        <time>2019-10-18T08:31:53Z</time>
      </trkpt>
      <trkpt lat="37.1742830" lon="-1.9261160">
        <ele>94.4</ele>
        <time>2019-10-18T08:31:54Z</time>
      </trkpt>
      <trkpt lat="37.1742390" lon="-1.9261370">
        <ele>94.7</ele>
        <time>2019-10-18T08:31:55Z</time>
      </trkpt>
      <trkpt lat="37.1741980" lon="-1.9261570">
        <ele>94.9</ele>
        <time>2019-10-18T08:31:56Z</time>
      </trkpt>
      <trkpt lat="37.1741620" lon="-1.9261770">
        <ele>95.1</ele>
        <time>2019-10-18T08:31:57Z</time>
      </trkpt>
      <trkpt lat="37.1741300" lon="-1.9261940">
        <ele>95.3</ele>
        <time>2019-10-18T08:31:58Z</time>
      </trkpt>
      <trkpt lat="37.1741040" lon="-1.9262080">
        <ele>95.4</ele>
        <time>2019-10-18T08:31:59Z</time>
      </trkpt>
      <trkpt lat="37.1740870" lon="-1.9262160">
        <ele>95.5</ele>
        <time>2019-10-18T08:32:00Z</time>
      </trkpt>
      <trkpt lat="37.1740780" lon="-1.9262200">
        <ele>95.5</ele>
        <time>2019-10-18T08:32:01Z</time>
      </trkpt>
      <trkpt lat="37.1740770" lon="-1.9262220">
        <ele>95.5</ele>
        <time>2019-10-18T08:32:02Z</time>
      </trkpt>
      <trkpt lat="37.1740770" lon="-1.9262220">
        <ele>95.5</ele>
        <time>2019-10-18T08:32:03Z</time>
      </trkpt>
      <trkpt lat="37.1740770" lon="-1.9262210">
        <ele>95.6</ele>
        <time>2019-10-18T08:32:04Z</time>
      </trkpt>
      <trkpt lat="37.1740770" lon="-1.9262200">
        <ele>95.6</ele>
        <time>2019-10-18T08:32:05Z</time>
      </trkpt>
      <trkpt lat="37.1740780" lon="-1.9262190">
        <ele>95.6</ele>
        <time>2019-10-18T08:32:06Z</time>
      </trkpt>
      <trkpt lat="37.1740780" lon="-1.9262190">
        <ele>95.6</ele>
        <time>2019-10-18T08:32:07Z</time>
      </trkpt>
      <trkpt lat="37.1740790" lon="-1.9262190">
        <ele>95.6</ele>
        <time>2019-10-18T08:32:08Z</time>
      </trkpt>
      <trkpt lat="37.1740790" lon="-1.9262190">
        <ele>95.6</ele>
        <time>2019-10-18T08:32:09Z</time>
      </trkpt>
      <trkpt lat="37.1740790" lon="-1.9262180">
        <ele>95.6</ele>
        <time>2019-10-18T08:32:10Z</time>
      </trkpt>
      <trkpt lat="37.1740800" lon="-1.9262180">
        <ele>95.6</ele>
        <time>2019-10-18T08:32:11Z</time>
      </trkpt>
      <trkpt lat="37.1740800" lon="-1.9262180">
        <ele>95.6</ele>
        <time>2019-10-18T08:32:12Z</time>
      </trkpt>
      <trkpt lat="37.1740800" lon="-1.9262170">
        <ele>95.6</ele>
        <time>2019-10-18T08:32:13Z</time>
      </trkpt>
      <trkpt lat="37.1740800" lon="-1.9262170">
        <ele>95.6</ele>
        <time>2019-10-18T08:32:14Z</time>
      </trkpt>
      <trkpt lat="37.1740800" lon="-1.9262160">
        <ele>95.6</ele>
        <time>2019-10-18T08:32:15Z</time>
      </trkpt>
      <trkpt lat="37.1740800" lon="-1.9262150">
        <ele>95.6</ele>
        <time>2019-10-18T08:32:16Z</time>
      </trkpt>
      <trkpt lat="37.1740800" lon="-1.9262140">
        <ele>95.6</ele>
        <time>2019-10-18T08:32:17Z</time>
      </trkpt>
      <trkpt lat="37.1740790" lon="-1.9262140">
        <ele>95.6</ele>
        <time>2019-10-18T08:32:18Z</time>
      </trkpt>
      <trkpt lat="37.1740790" lon="-1.9262140">
        <ele>95.6</ele>
        <time>2019-10-18T08:32:19Z</time>
      </trkpt>
      <trkpt lat="37.1740780" lon="-1.9262130">
        <ele>95.6</ele>
        <time>2019-10-18T08:32:20Z</time>
      </trkpt>
      <trkpt lat="37.1740780" lon="-1.9262140">
        <ele>95.6</ele>
        <time>2019-10-18T08:32:21Z</time>
      </trkpt>
      <trkpt lat="37.1740780" lon="-1.9262140">
        <ele>95.6</ele>
        <time>2019-10-18T08:32:22Z</time>
      </trkpt>
      <trkpt lat="37.1740780" lon="-1.9262140">
        <ele>95.6</ele>
        <time>2019-10-18T08:32:23Z</time>
      </trkpt>
      <trkpt lat="37.1740740" lon="-1.9262160">
        <ele>95.6</ele>
        <time>2019-10-18T08:32:24Z</time>
      </trkpt>
      <trkpt lat="37.1740640" lon="-1.9262210">
        <ele>95.7</ele>
        <time>2019-10-18T08:32:25Z</time>
      </trkpt>
      <trkpt lat="37.1740480" lon="-1.9262280">
        <ele>95.7</ele>
        <time>2019-10-18T08:32:26Z</time>
      </trkpt>
      <trkpt lat="37.1740270" lon="-1.9262380">
        <ele>95.8</ele>
        <time>2019-10-18T08:32:27Z</time>
      </trkpt>
      <trkpt lat="37.1740020" lon="-1.9262510">
        <ele>96.0</ele>
        <time>2019-10-18T08:32:28Z</time>
      </trkpt>
      <trkpt lat="37.1739720" lon="-1.9262660">
        <ele>96.1</ele>
        <time>2019-10-18T08:32:29Z</time>
      </trkpt>
      <trkpt lat="37.1739400" lon="-1.9262820">
        <ele>96.3</ele>
        <time>2019-10-18T08:32:30Z</time>
      </trkpt>
      <trkpt lat="37.1739040" lon="-1.9262980">
        <ele>96.4</ele>
        <time>2019-10-18T08:32:31Z</time>
      </trkpt>
      <trkpt lat="37.1738670" lon="-1.9263150">
        <ele>96.6</ele>
        <time>2019-10-18T08:32:32Z</time>
      </trkpt>
      <trkpt lat="37.1738280" lon="-1.9263330">
        <ele>96.8</ele>
        <time>2019-10-18T08:32:33Z</time>
      </trkpt>
      <trkpt lat="37.1737880" lon="-1.9263520">
        <ele>97.0</ele>
        <time>2019-10-18T08:32:34Z</time>
      </trkpt>
      <trkpt lat="37.1737460" lon="-1.9263710">
        <ele>97.2</ele>
        <time>2019-10-18T08:32:35Z</time>
      </trkpt>
      <trkpt lat="37.1737040" lon="-1.9263910">
        <ele>97.5</ele>
        <time>2019-10-18T08:32:36Z</time>
      </trkpt>
      <trkpt lat="37.1736610" lon="-1.9264120">
        <ele>97.7</ele>
        <time>2019-10-18T08:32:37Z</time>
      </trkpt>
      <trkpt lat="37.1736170" lon="-1.9264340">
        <ele>97.9</ele>
        <time>2019-10-18T08:32:38Z</time>
      </trkpt>
      <trkpt lat="37.1735720" lon="-1.9264550">
        <ele>98.1</ele>
        <time>2019-10-18T08:32:39Z</time>
      </trkpt>
      <trkpt lat="37.1735270" lon="-1.9264770">
        <ele>98.3</ele>
        <time>2019-10-18T08:32:40Z</time>
      </trkpt>
      <trkpt lat="37.1734810" lon="-1.9264990">
        <ele>98.5</ele>
        <time>2019-10-18T08:32:41Z</time>
      </trkpt>
      <trkpt lat="37.1734350" lon="-1.9265210">
        <ele>98.7</ele>
        <time>2019-10-18T08:32:42Z</time>
      </trkpt>
      <trkpt lat="37.1733880" lon="-1.9265430">
        <ele>99.0</ele>
        <time>2019-10-18T08:32:43Z</time>
      </trkpt>
      <trkpt lat="37.1733400" lon="-1.9265650">
        <ele>99.2</ele>
        <time>2019-10-18T08:32:44Z</time>
      </trkpt>
      <trkpt lat="37.1732920" lon="-1.9265880">
        <ele>99.4</ele>
        <time>2019-10-18T08:32:45Z</time>
      </trkpt>
      <trkpt lat="37.1732450" lon="-1.9266110">
        <ele>99.6</ele>
        <time>2019-10-18T08:32:46Z</time>
      </trkpt>
      <trkpt lat="37.1731970" lon="-1.9266350">
        <ele>99.8</ele>
        <time>2019-10-18T08:32:47Z</time>
      </trkpt>
      <trkpt lat="37.1731490" lon="-1.9266580">
        <ele>100.1</ele>
        <time>2019-10-18T08:32:48Z</time>
      </trkpt>
      <trkpt lat="37.1731000" lon="-1.9266810">
        <ele>100.2</ele>
        <time>2019-10-18T08:32:49Z</time>
      </trkpt>
      <trkpt lat="37.1730520" lon="-1.9267040">
        <ele>100.4</ele>
        <time>2019-10-18T08:32:50Z</time>
      </trkpt>
      <trkpt lat="37.1730030" lon="-1.9267270">
        <ele>100.6</ele>
        <time>2019-10-18T08:32:51Z</time>
      </trkpt>
      <trkpt lat="37.1729550" lon="-1.9267500">
        <ele>100.8</ele>
        <time>2019-10-18T08:32:52Z</time>
      </trkpt>
      <trkpt lat="37.1729070" lon="-1.9267740">
        <ele>100.9</ele>
        <time>2019-10-18T08:32:53Z</time>
      </trkpt>
      <trkpt lat="37.1728590" lon="-1.9267990">
        <ele>101.1</ele>
        <time>2019-10-18T08:32:54Z</time>
      </trkpt>
      <trkpt lat="37.1728100" lon="-1.9268260">
        <ele>101.3</ele>
        <time>2019-10-18T08:32:55Z</time>
      </trkpt>
      <trkpt lat="37.1727610" lon="-1.9268520">
        <ele>101.4</ele>
        <time>2019-10-18T08:32:56Z</time>
      </trkpt>
      <trkpt lat="37.1727110" lon="-1.9268800">
        <ele>101.6</ele>
        <time>2019-10-18T08:32:57Z</time>
      </trkpt>
      <trkpt lat="37.1726620" lon="-1.9269090">
        <ele>101.7</ele>
        <time>2019-10-18T08:32:58Z</time>
      </trkpt>
      <trkpt lat="37.1726120" lon="-1.9269390">
        <ele>101.8</ele>
        <time>2019-10-18T08:32:59Z</time>
      </trkpt>
      <trkpt lat="37.1725630" lon="-1.9269710">
        <ele>101.9</ele>
        <time>2019-10-18T08:33:00Z</time>
      </trkpt>
      <trkpt lat="37.1725150" lon="-1.9270030">
        <ele>102.0</ele>
        <time>2019-10-18T08:33:01Z</time>
      </trkpt>
      <trkpt lat="37.1724680" lon="-1.9270370">
        <ele>102.1</ele>
        <time>2019-10-18T08:33:02Z</time>
      </trkpt>
      <trkpt lat="37.1724220" lon="-1.9270720">
        <ele>102.2</ele>
        <time>2019-10-18T08:33:03Z</time>
      </trkpt>
      <trkpt lat="37.1723750" lon="-1.9271060">
        <ele>102.4</ele>
        <time>2019-10-18T08:33:04Z</time>
      </trkpt>
      <trkpt lat="37.1723280" lon="-1.9271420">
        <ele>102.5</ele>
        <time>2019-10-18T08:33:05Z</time>
      </trkpt>
      <trkpt lat="37.1722810" lon="-1.9271790">
        <ele>102.6</ele>
        <time>2019-10-18T08:33:06Z</time>
      </trkpt>
      <trkpt lat="37.1722350" lon="-1.9272180">
        <ele>102.6</ele>
        <time>2019-10-18T08:33:07Z</time>
      </trkpt>
      <trkpt lat="37.1721880" lon="-1.9272570">
        <ele>102.7</ele>
        <time>2019-10-18T08:33:08Z</time>
      </trkpt>
      <trkpt lat="37.1721420" lon="-1.9272970">
        <ele>102.7</ele>
        <time>2019-10-18T08:33:09Z</time>
      </trkpt>
      <trkpt lat="37.1720970" lon="-1.9273380">
        <ele>102.8</ele>
        <time>2019-10-18T08:33:10Z</time>
      </trkpt>
      <trkpt lat="37.1720520" lon="-1.9273820">
        <ele>102.8</ele>
        <time>2019-10-18T08:33:11Z</time>
      </trkpt>
      <trkpt lat="37.1720080" lon="-1.9274260">
        <ele>102.8</ele>
        <time>2019-10-18T08:33:12Z</time>
      </trkpt>
      <trkpt lat="37.1719640" lon="-1.9274710">
        <ele>102.9</ele>
        <time>2019-10-18T08:33:13Z</time>
      </trkpt>
      <trkpt lat="37.1719200" lon="-1.9275180">
        <ele>103.0</ele>
        <time>2019-10-18T08:33:14Z</time>
      </trkpt>
      <trkpt lat="37.1718770" lon="-1.9275650">
        <ele>103.1</ele>
        <time>2019-10-18T08:33:15Z</time>
      </trkpt>
      <trkpt lat="37.1718350" lon="-1.9276130">
        <ele>103.2</ele>
        <time>2019-10-18T08:33:16Z</time>
      </trkpt>
      <trkpt lat="37.1717940" lon="-1.9276640">
        <ele>103.4</ele>
        <time>2019-10-18T08:33:17Z</time>
      </trkpt>
      <trkpt lat="37.1717530" lon="-1.9277150">
        <ele>103.5</ele>
        <time>2019-10-18T08:33:18Z</time>
      </trkpt>
      <trkpt lat="37.1717110" lon="-1.9277670">
        <ele>103.6</ele>
        <time>2019-10-18T08:33:19Z</time>
      </trkpt>
      <trkpt lat="37.1716700" lon="-1.9278190">
        <ele>103.6</ele>
        <time>2019-10-18T08:33:20Z</time>
      </trkpt>
      <trkpt lat="37.1716270" lon="-1.9278720">
        <ele>103.7</ele>
        <time>2019-10-18T08:33:21Z</time>
      </trkpt>
      <trkpt lat="37.1715840" lon="-1.9279270">
        <ele>103.7</ele>
        <time>2019-10-18T08:33:22Z</time>
      </trkpt>
      <trkpt lat="37.1715400" lon="-1.9279820">
        <ele>103.7</ele>
        <time>2019-10-18T08:33:23Z</time>
      </trkpt>
      <trkpt lat="37.1714950" lon="-1.9280380">
        <ele>103.7</ele>
        <time>2019-10-18T08:33:24Z</time>
      </trkpt>
      <trkpt lat="37.1714500" lon="-1.9280960">
        <ele>103.7</ele>
        <time>2019-10-18T08:33:25Z</time>
      </trkpt>
      <trkpt lat="37.1714030" lon="-1.9281550">
        <ele>103.7</ele>
        <time>2019-10-18T08:33:26Z</time>
      </trkpt>
      <trkpt lat="37.1713560" lon="-1.9282150">
        <ele>103.7</ele>
        <time>2019-10-18T08:33:27Z</time>
      </trkpt>
      <trkpt lat="37.1713080" lon="-1.9282760">
        <ele>103.7</ele>
        <time>2019-10-18T08:33:28Z</time>
      </trkpt>
      <trkpt lat="37.1712590" lon="-1.9283390">
        <ele>103.7</ele>
        <time>2019-10-18T08:33:29Z</time>
      </trkpt>
      <trkpt lat="37.1712090" lon="-1.9284040">
        <ele>103.6</ele>
        <time>2019-10-18T08:33:30Z</time>
      </trkpt>
      <trkpt lat="37.1711580" lon="-1.9284690">
        <ele>103.6</ele>
        <time>2019-10-18T08:33:31Z</time>
      </trkpt>
      <trkpt lat="37.1711070" lon="-1.9285350">
        <ele>103.5</ele>
        <time>2019-10-18T08:33:32Z</time>
      </trkpt>
      <trkpt lat="37.1710550" lon="-1.9286010">
        <ele>103.4</ele>
        <time>2019-10-18T08:33:33Z</time>
      </trkpt>
      <trkpt lat="37.1710020" lon="-1.9286660">
        <ele>103.2</ele>
        <time>2019-10-18T08:33:34Z</time>
      </trkpt>
      <trkpt lat="37.1709480" lon="-1.9287330">
        <ele>103.0</ele>
        <time>2019-10-18T08:33:35Z</time>
      </trkpt>
      <trkpt lat="37.1708950" lon="-1.9288000">
        <ele>102.7</ele>
        <time>2019-10-18T08:33:36Z</time>
      </trkpt>
      <trkpt lat="37.1708410" lon="-1.9288700">
        <ele>102.4</ele>
        <time>2019-10-18T08:33:37Z</time>
      </trkpt>
      <trkpt lat="37.1707870" lon="-1.9289400">
        <ele>102.1</ele>
        <time>2019-10-18T08:33:38Z</time>
      </trkpt>
      <trkpt lat="37.1707320" lon="-1.9290120">
        <ele>101.8</ele>
        <time>2019-10-18T08:33:39Z</time>
      </trkpt>
      <trkpt lat="37.1706780" lon="-1.9290830">
        <ele>101.5</ele>
        <time>2019-10-18T08:33:40Z</time>
      </trkpt>
      <trkpt lat="37.1706220" lon="-1.9291540">
        <ele>101.1</ele>
        <time>2019-10-18T08:33:41Z</time>
      </trkpt>
      <trkpt lat="37.1705670" lon="-1.9292250">
        <ele>100.7</ele>
        <time>2019-10-18T08:33:42Z</time>
      </trkpt>
      <trkpt lat="37.1705110" lon="-1.9292950">
        <ele>100.6</ele>
        <time>2019-10-18T08:33:43Z</time>
      </trkpt>
      <trkpt lat="37.1704550" lon="-1.9293660">
        <ele>100.5</ele>
        <time>2019-10-18T08:33:44Z</time>
      </trkpt>
      <trkpt lat="37.1703990" lon="-1.9294380">
        <ele>100.4</ele>
        <time>2019-10-18T08:33:45Z</time>
      </trkpt>
      <trkpt lat="37.1703430" lon="-1.9295090">
        <ele>100.3</ele>
        <time>2019-10-18T08:33:46Z</time>
      </trkpt>
      <trkpt lat="37.1702870" lon="-1.9295820">
        <ele>100.1</ele>
        <time>2019-10-18T08:33:47Z</time>
      </trkpt>
      <trkpt lat="37.1702300" lon="-1.9296550">
        <ele>99.9</ele>
        <time>2019-10-18T08:33:48Z</time>
      </trkpt>
      <trkpt lat="37.1701740" lon="-1.9297290">
        <ele>99.7</ele>
        <time>2019-10-18T08:33:49Z</time>
      </trkpt>
      <trkpt lat="37.1701170" lon="-1.9298040">
        <ele>99.6</ele>
        <time>2019-10-18T08:33:50Z</time>
      </trkpt>
      <trkpt lat="37.1700600" lon="-1.9298770">
        <ele>99.4</ele>
        <time>2019-10-18T08:33:51Z</time>
      </trkpt>
      <trkpt lat="37.1700020" lon="-1.9299510">
        <ele>99.2</ele>
        <time>2019-10-18T08:33:52Z</time>
      </trkpt>
      <trkpt lat="37.1699430" lon="-1.9300240">
        <ele>99.1</ele>
        <time>2019-10-18T08:33:53Z</time>
      </trkpt>
      <trkpt lat="37.1698830" lon="-1.9300970">
        <ele>99.0</ele>
        <time>2019-10-18T08:33:54Z</time>
      </trkpt>
      <trkpt lat="37.1698230" lon="-1.9301710">
        <ele>99.0</ele>
        <time>2019-10-18T08:33:55Z</time>
      </trkpt>
      <trkpt lat="37.1697630" lon="-1.9302440">
        <ele>99.0</ele>
        <time>2019-10-18T08:33:56Z</time>
      </trkpt>
      <trkpt lat="37.1697030" lon="-1.9303180">
        <ele>99.0</ele>
        <time>2019-10-18T08:33:57Z</time>
      </trkpt>
      <trkpt lat="37.1696410" lon="-1.9303910">
        <ele>98.9</ele>
        <time>2019-10-18T08:33:58Z</time>
      </trkpt>
      <trkpt lat="37.1695800" lon="-1.9304630">
        <ele>98.7</ele>
        <time>2019-10-18T08:33:59Z</time>
      </trkpt>
      <trkpt lat="37.1695180" lon="-1.9305350">
        <ele>98.5</ele>
        <time>2019-10-18T08:34:00Z</time>
      </trkpt>
      <trkpt lat="37.1694550" lon="-1.9306040">
        <ele>98.3</ele>
        <time>2019-10-18T08:34:01Z</time>
      </trkpt>
      <trkpt lat="37.1693920" lon="-1.9306730">
        <ele>98.2</ele>
        <time>2019-10-18T08:34:02Z</time>
      </trkpt>
      <trkpt lat="37.1693300" lon="-1.9307420">
        <ele>98.1</ele>
        <time>2019-10-18T08:34:03Z</time>
      </trkpt>
      <trkpt lat="37.1692670" lon="-1.9308100">
        <ele>98.1</ele>
        <time>2019-10-18T08:34:04Z</time>
      </trkpt>
      <trkpt lat="37.1692050" lon="-1.9308770">
        <ele>98.0</ele>
        <time>2019-10-18T08:34:05Z</time>
      </trkpt>
      <trkpt lat="37.1691420" lon="-1.9309430">
        <ele>98.0</ele>
        <time>2019-10-18T08:34:06Z</time>
      </trkpt>
      <trkpt lat="37.1690800" lon="-1.9310070">
        <ele>98.0</ele>
        <time>2019-10-18T08:34:07Z</time>
      </trkpt>
      <trkpt lat="37.1690170" lon="-1.9310690">
        <ele>97.9</ele>
        <time>2019-10-18T08:34:08Z</time>
      </trkpt>
      <trkpt lat="37.1689560" lon="-1.9311310">
        <ele>97.8</ele>
        <time>2019-10-18T08:34:09Z</time>
      </trkpt>
      <trkpt lat="37.1688960" lon="-1.9311920">
        <ele>97.7</ele>
        <time>2019-10-18T08:34:10Z</time>
      </trkpt>
      <trkpt lat="37.1688380" lon="-1.9312520">
        <ele>97.5</ele>
        <time>2019-10-18T08:34:11Z</time>
      </trkpt>
      <trkpt lat="37.1687810" lon="-1.9313120">
        <ele>97.4</ele>
        <time>2019-10-18T08:34:12Z</time>
      </trkpt>
      <trkpt lat="37.1687260" lon="-1.9313720">
        <ele>97.3</ele>
        <time>2019-10-18T08:34:13Z</time>
      </trkpt>
      <trkpt lat="37.1686740" lon="-1.9314310">
        <ele>97.2</ele>
        <time>2019-10-18T08:34:14Z</time>
      </trkpt>
      <trkpt lat="37.1686220" lon="-1.9314910">
        <ele>97.1</ele>
        <time>2019-10-18T08:34:15Z</time>
      </trkpt>
      <trkpt lat="37.1685700" lon="-1.9315490">
        <ele>97.1</ele>
        <time>2019-10-18T08:34:16Z</time>
      </trkpt>
      <trkpt lat="37.1685150" lon="-1.9316040">
        <ele>97.1</ele>
        <time>2019-10-18T08:34:17Z</time>
      </trkpt>
      <trkpt lat="37.1684590" lon="-1.9316570">
        <ele>97.1</ele>
        <time>2019-10-18T08:34:18Z</time>
      </trkpt>
      <trkpt lat="37.1684020" lon="-1.9317100">
        <ele>97.1</ele>
        <time>2019-10-18T08:34:19Z</time>
      </trkpt>
      <trkpt lat="37.1683460" lon="-1.9317660">
        <ele>97.1</ele>
        <time>2019-10-18T08:34:20Z</time>
      </trkpt>
      <trkpt lat="37.1682890" lon="-1.9318230">
        <ele>97.1</ele>
        <time>2019-10-18T08:34:21Z</time>
      </trkpt>
      <trkpt lat="37.1682310" lon="-1.9318790">
        <ele>97.1</ele>
        <time>2019-10-18T08:34:22Z</time>
      </trkpt>
      <trkpt lat="37.1681720" lon="-1.9319340">
        <ele>97.1</ele>
        <time>2019-10-18T08:34:23Z</time>
      </trkpt>
      <trkpt lat="37.1681130" lon="-1.9319890">
        <ele>97.1</ele>
        <time>2019-10-18T08:34:24Z</time>
      </trkpt>
      <trkpt lat="37.1680540" lon="-1.9320460">
        <ele>97.1</ele>
        <time>2019-10-18T08:34:25Z</time>
      </trkpt>
      <trkpt lat="37.1679960" lon="-1.9321050">
        <ele>97.1</ele>
        <time>2019-10-18T08:34:26Z</time>
      </trkpt>
      <trkpt lat="37.1679400" lon="-1.9321670">
        <ele>97.1</ele>
        <time>2019-10-18T08:34:27Z</time>
      </trkpt>
      <trkpt lat="37.1678830" lon="-1.9322300">
        <ele>97.0</ele>
        <time>2019-10-18T08:34:28Z</time>
      </trkpt>
      <trkpt lat="37.1678250" lon="-1.9322910">
        <ele>97.0</ele>
        <time>2019-10-18T08:34:29Z</time>
      </trkpt>
      <trkpt lat="37.1677660" lon="-1.9323530">
        <ele>96.6</ele>
        <time>2019-10-18T08:34:30Z</time>
      </trkpt>
      <trkpt lat="37.1677060" lon="-1.9324140">
        <ele>96.0</ele>
        <time>2019-10-18T08:34:31Z</time>
      </trkpt>
      <trkpt lat="37.1676450" lon="-1.9324760">
        <ele>95.5</ele>
        <time>2019-10-18T08:34:32Z</time>
      </trkpt>
      <trkpt lat="37.1675850" lon="-1.9325390">
        <ele>95.0</ele>
        <time>2019-10-18T08:34:33Z</time>
      </trkpt>
      <trkpt lat="37.1675240" lon="-1.9326000">
        <ele>94.5</ele>
        <time>2019-10-18T08:34:34Z</time>
      </trkpt>
      <trkpt lat="37.1674630" lon="-1.9326610">
        <ele>94.0</ele>
        <time>2019-10-18T08:34:35Z</time>
      </trkpt>
      <trkpt lat="37.1674010" lon="-1.9327220">
        <ele>93.5</ele>
        <time>2019-10-18T08:34:36Z</time>
      </trkpt>
      <trkpt lat="37.1673390" lon="-1.9327820">
        <ele>92.8</ele>
        <time>2019-10-18T08:34:37Z</time>
      </trkpt>
      <trkpt lat="37.1672780" lon="-1.9328430">
        <ele>92.4</ele>
        <time>2019-10-18T08:34:38Z</time>
      </trkpt>
      <trkpt lat="37.1672180" lon="-1.9329030">
        <ele>92.0</ele>
        <time>2019-10-18T08:34:39Z</time>
      </trkpt>
      <trkpt lat="37.1671580" lon="-1.9329640">
        <ele>91.5</ele>
        <time>2019-10-18T08:34:40Z</time>
      </trkpt>
      <trkpt lat="37.1671000" lon="-1.9330250">
        <ele>91.1</ele>
        <time>2019-10-18T08:34:41Z</time>
      </trkpt>
      <trkpt lat="37.1670420" lon="-1.9330880">
        <ele>90.9</ele>
        <time>2019-10-18T08:34:42Z</time>
      </trkpt>
      <trkpt lat="37.1669850" lon="-1.9331520">
        <ele>91.2</ele>
        <time>2019-10-18T08:34:43Z</time>
      </trkpt>
      <trkpt lat="37.1669290" lon="-1.9332150">
        <ele>91.7</ele>
        <time>2019-10-18T08:34:44Z</time>
      </trkpt>
      <trkpt lat="37.1668720" lon="-1.9332790">
        <ele>92.2</ele>
        <time>2019-10-18T08:34:45Z</time>
      </trkpt>
      <trkpt lat="37.1668170" lon="-1.9333430">
        <ele>92.5</ele>
        <time>2019-10-18T08:34:46Z</time>
      </trkpt>
      <trkpt lat="37.1667630" lon="-1.9334100">
        <ele>92.9</ele>
        <time>2019-10-18T08:34:47Z</time>
      </trkpt>
      <trkpt lat="37.1667110" lon="-1.9334780">
        <ele>93.3</ele>
        <time>2019-10-18T08:34:48Z</time>
      </trkpt>
      <trkpt lat="37.1666610" lon="-1.9335460">
        <ele>93.8</ele>
        <time>2019-10-18T08:34:49Z</time>
      </trkpt>
      <trkpt lat="37.1666120" lon="-1.9336150">
        <ele>94.1</ele>
        <time>2019-10-18T08:34:50Z</time>
      </trkpt>
      <trkpt lat="37.1665660" lon="-1.9336840">
        <ele>94.5</ele>
        <time>2019-10-18T08:34:51Z</time>
      </trkpt>
      <trkpt lat="37.1665220" lon="-1.9337550">
        <ele>94.8</ele>
        <time>2019-10-18T08:34:52Z</time>
      </trkpt>
      <trkpt lat="37.1664810" lon="-1.9338260">
        <ele>95.1</ele>
        <time>2019-10-18T08:34:53Z</time>
      </trkpt>
      <trkpt lat="37.1664430" lon="-1.9338980">
        <ele>95.6</ele>
        <time>2019-10-18T08:34:54Z</time>
      </trkpt>
      <trkpt lat="37.1664080" lon="-1.9339710">
        <ele>96.1</ele>
        <time>2019-10-18T08:34:55Z</time>
      </trkpt>
      <trkpt lat="37.1663740" lon="-1.9340450">
        <ele>96.6</ele>
        <time>2019-10-18T08:34:56Z</time>
      </trkpt>
      <trkpt lat="37.1663430" lon="-1.9341190">
        <ele>97.2</ele>
        <time>2019-10-18T08:34:57Z</time>
      </trkpt>
      <trkpt lat="37.1663130" lon="-1.9341920">
        <ele>97.7</ele>
        <time>2019-10-18T08:34:58Z</time>
      </trkpt>
      <trkpt lat="37.1662870" lon="-1.9342650">
        <ele>97.9</ele>
        <time>2019-10-18T08:34:59Z</time>
      </trkpt>
      <trkpt lat="37.1662610" lon="-1.9343380">
        <ele>98.1</ele>
        <time>2019-10-18T08:35:00Z</time>
      </trkpt>
      <trkpt lat="37.1662380" lon="-1.9344090">
        <ele>98.4</ele>
        <time>2019-10-18T08:35:01Z</time>
      </trkpt>
      <trkpt lat="37.1662160" lon="-1.9344810">
        <ele>98.6</ele>
        <time>2019-10-18T08:35:02Z</time>
      </trkpt>
      <trkpt lat="37.1661980" lon="-1.9345520">
        <ele>98.8</ele>
        <time>2019-10-18T08:35:03Z</time>
      </trkpt>
      <trkpt lat="37.1661810" lon="-1.9346220">
        <ele>99.3</ele>
        <time>2019-10-18T08:35:04Z</time>
      </trkpt>
      <trkpt lat="37.1661670" lon="-1.9346920">
        <ele>99.8</ele>
        <time>2019-10-18T08:35:05Z</time>
      </trkpt>
      <trkpt lat="37.1661530" lon="-1.9347610">
        <ele>100.3</ele>
        <time>2019-10-18T08:35:06Z</time>
      </trkpt>
      <trkpt lat="37.1661400" lon="-1.9348300">
        <ele>100.5</ele>
        <time>2019-10-18T08:35:07Z</time>
      </trkpt>
      <trkpt lat="37.1661290" lon="-1.9348980">
        <ele>100.7</ele>
        <time>2019-10-18T08:35:08Z</time>
      </trkpt>
      <trkpt lat="37.1661210" lon="-1.9349650">
        <ele>101.0</ele>
        <time>2019-10-18T08:35:09Z</time>
      </trkpt>
      <trkpt lat="37.1661150" lon="-1.9350300">
        <ele>101.2</ele>
        <time>2019-10-18T08:35:10Z</time>
      </trkpt>
      <trkpt lat="37.1661100" lon="-1.9350950">
        <ele>101.4</ele>
        <time>2019-10-18T08:35:11Z</time>
      </trkpt>
      <trkpt lat="37.1661040" lon="-1.9351570">
        <ele>101.7</ele>
        <time>2019-10-18T08:35:12Z</time>
      </trkpt>
      <trkpt lat="37.1660980" lon="-1.9352190">
        <ele>101.8</ele>
        <time>2019-10-18T08:35:13Z</time>
      </trkpt>
      <trkpt lat="37.1660910" lon="-1.9352790">
        <ele>101.9</ele>
        <time>2019-10-18T08:35:14Z</time>
      </trkpt>
      <trkpt lat="37.1660850" lon="-1.9353390">
        <ele>102.0</ele>
        <time>2019-10-18T08:35:15Z</time>
      </trkpt>
      <trkpt lat="37.1660800" lon="-1.9353980">
        <ele>102.1</ele>
        <time>2019-10-18T08:35:16Z</time>
      </trkpt>
      <trkpt lat="37.1660770" lon="-1.9354580">
        <ele>102.3</ele>
        <time>2019-10-18T08:35:17Z</time>
      </trkpt>
      <trkpt lat="37.1660730" lon="-1.9355170">
        <ele>102.5</ele>
        <time>2019-10-18T08:35:18Z</time>
      </trkpt>
      <trkpt lat="37.1660670" lon="-1.9355750">
        <ele>102.7</ele>
        <time>2019-10-18T08:35:19Z</time>
      </trkpt>
      <trkpt lat="37.1660610" lon="-1.9356320">
        <ele>102.9</ele>
        <time>2019-10-18T08:35:20Z</time>
      </trkpt>
      <trkpt lat="37.1660540" lon="-1.9356870">
        <ele>103.0</ele>
        <time>2019-10-18T08:35:21Z</time>
      </trkpt>
      <trkpt lat="37.1660480" lon="-1.9357410">
        <ele>103.1</ele>
        <time>2019-10-18T08:35:22Z</time>
      </trkpt>
      <trkpt lat="37.1660430" lon="-1.9357950">
        <ele>103.3</ele>
        <time>2019-10-18T08:35:23Z</time>
      </trkpt>
      <trkpt lat="37.1660380" lon="-1.9358480">
        <ele>103.4</ele>
        <time>2019-10-18T08:35:24Z</time>
      </trkpt>
      <trkpt lat="37.1660330" lon="-1.9359000">
        <ele>103.6</ele>
        <time>2019-10-18T08:35:25Z</time>
      </trkpt>
      <trkpt lat="37.1660280" lon="-1.9359520">
        <ele>103.7</ele>
        <time>2019-10-18T08:35:26Z</time>
      </trkpt>
      <trkpt lat="37.1660240" lon="-1.9360040">
        <ele>103.9</ele>
        <time>2019-10-18T08:35:27Z</time>
      </trkpt>
      <trkpt lat="37.1660210" lon="-1.9360560">
        <ele>104.1</ele>
        <time>2019-10-18T08:35:28Z</time>
      </trkpt>
      <trkpt lat="37.1660170" lon="-1.9361070">
        <ele>104.3</ele>
        <time>2019-10-18T08:35:29Z</time>
      </trkpt>
      <trkpt lat="37.1660140" lon="-1.9361570">
        <ele>104.5</ele>
        <time>2019-10-18T08:35:30Z</time>
      </trkpt>
      <trkpt lat="37.1660100" lon="-1.9362070">
        <ele>104.7</ele>
        <time>2019-10-18T08:35:31Z</time>
      </trkpt>
      <trkpt lat="37.1660070" lon="-1.9362570">
        <ele>104.9</ele>
        <time>2019-10-18T08:35:32Z</time>
      </trkpt>
      <trkpt lat="37.1660030" lon="-1.9363080">
        <ele>105.1</ele>
        <time>2019-10-18T08:35:33Z</time>
      </trkpt>
      <trkpt lat="37.1659990" lon="-1.9363570">
        <ele>105.3</ele>
        <time>2019-10-18T08:35:34Z</time>
      </trkpt>
      <trkpt lat="37.1659960" lon="-1.9364070">
        <ele>105.4</ele>
        <time>2019-10-18T08:35:35Z</time>
      </trkpt>
      <trkpt lat="37.1659930" lon="-1.9364570">
        <ele>105.6</ele>
        <time>2019-10-18T08:35:36Z</time>
      </trkpt>
      <trkpt lat="37.1659890" lon="-1.9365070">
        <ele>105.7</ele>
        <time>2019-10-18T08:35:37Z</time>
      </trkpt>
      <trkpt lat="37.1659850" lon="-1.9365570">
        <ele>105.9</ele>
        <time>2019-10-18T08:35:38Z</time>
      </trkpt>
      <trkpt lat="37.1659810" lon="-1.9366060">
        <ele>106.1</ele>
        <time>2019-10-18T08:35:39Z</time>
      </trkpt>
      <trkpt lat="37.1659780" lon="-1.9366560">
        <ele>106.2</ele>
        <time>2019-10-18T08:35:40Z</time>
      </trkpt>
      <trkpt lat="37.1659750" lon="-1.9367050">
        <ele>106.3</ele>
        <time>2019-10-18T08:35:41Z</time>
      </trkpt>
      <trkpt lat="37.1659720" lon="-1.9367540">
        <ele>106.5</ele>
        <time>2019-10-18T08:35:42Z</time>
      </trkpt>
      <trkpt lat="37.1659680" lon="-1.9368020">
        <ele>106.7</ele>
        <time>2019-10-18T08:35:43Z</time>
      </trkpt>
      <trkpt lat="37.1659640" lon="-1.9368510">
        <ele>106.8</ele>
        <time>2019-10-18T08:35:44Z</time>
      </trkpt>
      <trkpt lat="37.1659620" lon="-1.9368990">
        <ele>107.1</ele>
        <time>2019-10-18T08:35:45Z</time>
      </trkpt>
      <trkpt lat="37.1659590" lon="-1.9369460">
        <ele>107.3</ele>
        <time>2019-10-18T08:35:46Z</time>
      </trkpt>
      <trkpt lat="37.1659570" lon="-1.9369930">
        <ele>107.5</ele>
        <time>2019-10-18T08:35:47Z</time>
      </trkpt>
      <trkpt lat="37.1659540" lon="-1.9370380">
        <ele>107.6</ele>
        <time>2019-10-18T08:35:48Z</time>
      </trkpt>
      <trkpt lat="37.1659500" lon="-1.9370830">
        <ele>107.8</ele>
        <time>2019-10-18T08:35:49Z</time>
      </trkpt>
      <trkpt lat="37.1659470" lon="-1.9371280">
        <ele>108.0</ele>
        <time>2019-10-18T08:35:50Z</time>
      </trkpt>
      <trkpt lat="37.1659450" lon="-1.9371730">
        <ele>108.2</ele>
        <time>2019-10-18T08:35:51Z</time>
      </trkpt>
      <trkpt lat="37.1659420" lon="-1.9372170">
        <ele>108.4</ele>
        <time>2019-10-18T08:35:52Z</time>
      </trkpt>
      <trkpt lat="37.1659400" lon="-1.9372630">
        <ele>108.6</ele>
        <time>2019-10-18T08:35:53Z</time>
      </trkpt>
      <trkpt lat="37.1659390" lon="-1.9373090">
        <ele>108.8</ele>
        <time>2019-10-18T08:35:54Z</time>
      </trkpt>
      <trkpt lat="37.1659390" lon="-1.9373550">
        <ele>108.9</ele>
        <time>2019-10-18T08:35:55Z</time>
      </trkpt>
      <trkpt lat="37.1659400" lon="-1.9374010">
        <ele>109.0</ele>
        <time>2019-10-18T08:35:56Z</time>
      </trkpt>
      <trkpt lat="37.1659420" lon="-1.9374480">
        <ele>109.2</ele>
        <time>2019-10-18T08:35:57Z</time>
      </trkpt>
      <trkpt lat="37.1659440" lon="-1.9374950">
        <ele>109.3</ele>
        <time>2019-10-18T08:35:58Z</time>
      </trkpt>
      <trkpt lat="37.1659460" lon="-1.9375410">
        <ele>109.4</ele>
        <time>2019-10-18T08:35:59Z</time>
      </trkpt>
      <trkpt lat="37.1659510" lon="-1.9375880">
        <ele>109.5</ele>
        <time>2019-10-18T08:36:00Z</time>
      </trkpt>
      <trkpt lat="37.1659580" lon="-1.9376350">
        <ele>109.6</ele>
        <time>2019-10-18T08:36:01Z</time>
      </trkpt>
      <trkpt lat="37.1659670" lon="-1.9376810">
        <ele>109.7</ele>
        <time>2019-10-18T08:36:02Z</time>
      </trkpt>
      <trkpt lat="37.1659750" lon="-1.9377280">
        <ele>109.9</ele>
        <time>2019-10-18T08:36:03Z</time>
      </trkpt>
      <trkpt lat="37.1659790" lon="-1.9377750">
        <ele>110.0</ele>
        <time>2019-10-18T08:36:04Z</time>
      </trkpt>
      <trkpt lat="37.1659800" lon="-1.9378220">
        <ele>110.1</ele>
        <time>2019-10-18T08:36:05Z</time>
      </trkpt>
      <trkpt lat="37.1659800" lon="-1.9378680">
        <ele>110.2</ele>
        <time>2019-10-18T08:36:06Z</time>
      </trkpt>
      <trkpt lat="37.1659780" lon="-1.9379130">
        <ele>110.3</ele>
        <time>2019-10-18T08:36:07Z</time>
      </trkpt>
      <trkpt lat="37.1659750" lon="-1.9379570">
        <ele>110.5</ele>
        <time>2019-10-18T08:36:08Z</time>
      </trkpt>
      <trkpt lat="37.1659730" lon="-1.9380010">
        <ele>110.6</ele>
        <time>2019-10-18T08:36:09Z</time>
      </trkpt>
      <trkpt lat="37.1659720" lon="-1.9380440">
        <ele>110.8</ele>
        <time>2019-10-18T08:36:10Z</time>
      </trkpt>
      <trkpt lat="37.1659710" lon="-1.9380860">
        <ele>111.0</ele>
        <time>2019-10-18T08:36:11Z</time>
      </trkpt>
      <trkpt lat="37.1659710" lon="-1.9381260">
        <ele>111.1</ele>
        <time>2019-10-18T08:36:12Z</time>
      </trkpt>
      <trkpt lat="37.1659720" lon="-1.9381640">
        <ele>111.3</ele>
        <time>2019-10-18T08:36:13Z</time>
      </trkpt>
      <trkpt lat="37.1659730" lon="-1.9381990">
        <ele>111.4</ele>
        <time>2019-10-18T08:36:14Z</time>
      </trkpt>
      <trkpt lat="37.1659730" lon="-1.9382290">
        <ele>111.6</ele>
        <time>2019-10-18T08:36:15Z</time>
      </trkpt>
      <trkpt lat="37.1659700" lon="-1.9382550">
        <ele>111.7</ele>
        <time>2019-10-18T08:36:16Z</time>
      </trkpt>
      <trkpt lat="37.1659670" lon="-1.9382740">
        <ele>111.9</ele>
        <time>2019-10-18T08:36:17Z</time>
      </trkpt>
      <trkpt lat="37.1659640" lon="-1.9382840">
        <ele>111.9</ele>
        <time>2019-10-18T08:36:18Z</time>
      </trkpt>
      <trkpt lat="37.1659620" lon="-1.9382880">
        <ele>111.9</ele>
        <time>2019-10-18T08:36:19Z</time>
      </trkpt>
      <trkpt lat="37.1659620" lon="-1.9382880">
        <ele>111.9</ele>
        <time>2019-10-18T08:36:20Z</time>
      </trkpt>
      <trkpt lat="37.1659610" lon="-1.9382880">
        <ele>111.9</ele>
        <time>2019-10-18T08:36:21Z</time>
      </trkpt>
      <trkpt lat="37.1659610" lon="-1.9382880">
        <ele>111.9</ele>
        <time>2019-10-18T08:36:22Z</time>
      </trkpt>
      <trkpt lat="37.1659610" lon="-1.9382880">
        <ele>111.9</ele>
        <time>2019-10-18T08:36:23Z</time>
      </trkpt>
      <trkpt lat="37.1659610" lon="-1.9382880">
        <ele>111.9</ele>
        <time>2019-10-18T08:36:24Z</time>
      </trkpt>
      <trkpt lat="37.1659610" lon="-1.9382880">
        <ele>111.9</ele>
        <time>2019-10-18T08:36:25Z</time>
      </trkpt>
      <trkpt lat="37.1659610" lon="-1.9382870">
        <ele>111.9</ele>
        <time>2019-10-18T08:36:26Z</time>
      </trkpt>
      <trkpt lat="37.1659600" lon="-1.9382870">
        <ele>111.9</ele>
        <time>2019-10-18T08:36:27Z</time>
      </trkpt>
      <trkpt lat="37.1659600" lon="-1.9382870">
        <ele>111.9</ele>
        <time>2019-10-18T08:36:28Z</time>
      </trkpt>
      <trkpt lat="37.1659590" lon="-1.9382870">
        <ele>111.9</ele>
        <time>2019-10-18T08:36:29Z</time>
      </trkpt>
      <trkpt lat="37.1659590" lon="-1.9382880">
        <ele>111.9</ele>
        <time>2019-10-18T08:36:30Z</time>
      </trkpt>
      <trkpt lat="37.1659580" lon="-1.9382880">
        <ele>111.9</ele>
        <time>2019-10-18T08:36:31Z</time>
      </trkpt>
      <trkpt lat="37.1659570" lon="-1.9382880">
        <ele>111.9</ele>
        <time>2019-10-18T08:36:32Z</time>
      </trkpt>
      <trkpt lat="37.1659570" lon="-1.9382880">
        <ele>111.9</ele>
        <time>2019-10-18T08:36:33Z</time>
      </trkpt>
      <trkpt lat="37.1659560" lon="-1.9382880">
        <ele>111.9</ele>
        <time>2019-10-18T08:36:34Z</time>
      </trkpt>
      <trkpt lat="37.1659560" lon="-1.9382880">
        <ele>111.9</ele>
        <time>2019-10-18T08:36:35Z</time>
      </trkpt>
      <trkpt lat="37.1659570" lon="-1.9382880">
        <ele>111.9</ele>
        <time>2019-10-18T08:36:36Z</time>
      </trkpt>
      <trkpt lat="37.1659570" lon="-1.9382880">
        <ele>111.9</ele>
        <time>2019-10-18T08:36:37Z</time>
      </trkpt>
      <trkpt lat="37.1659570" lon="-1.9382880">
        <ele>111.9</ele>
        <time>2019-10-18T08:36:38Z</time>
      </trkpt>
      <trkpt lat="37.1659560" lon="-1.9382880">
        <ele>111.9</ele>
        <time>2019-10-18T08:36:39Z</time>
      </trkpt>
      <trkpt lat="37.1659560" lon="-1.9382880">
        <ele>111.9</ele>
        <time>2019-10-18T08:36:40Z</time>
      </trkpt>
      <trkpt lat="37.1659550" lon="-1.9382890">
        <ele>111.9</ele>
        <time>2019-10-18T08:36:41Z</time>
      </trkpt>
      <trkpt lat="37.1659550" lon="-1.9382890">
        <ele>111.9</ele>
        <time>2019-10-18T08:36:42Z</time>
      </trkpt>
      <trkpt lat="37.1659550" lon="-1.9382890">
        <ele>111.9</ele>
        <time>2019-10-18T08:36:43Z</time>
      </trkpt>
      <trkpt lat="37.1659550" lon="-1.9382890">
        <ele>111.9</ele>
        <time>2019-10-18T08:36:44Z</time>
      </trkpt>
      <trkpt lat="37.1659540" lon="-1.9382890">
        <ele>112.0</ele>
        <time>2019-10-18T08:36:45Z</time>
      </trkpt>
      <trkpt lat="37.1659540" lon="-1.9382890">
        <ele>112.0</ele>
        <time>2019-10-18T08:36:46Z</time>
      </trkpt>
      <trkpt lat="37.1659530" lon="-1.9382890">
        <ele>112.0</ele>
        <time>2019-10-18T08:36:47Z</time>
      </trkpt>
      <trkpt lat="37.1659530" lon="-1.9382890">
        <ele>112.0</ele>
        <time>2019-10-18T08:36:48Z</time>
      </trkpt>
      <trkpt lat="37.1659530" lon="-1.9382880">
        <ele>112.0</ele>
        <time>2019-10-18T08:36:49Z</time>
      </trkpt>
      <trkpt lat="37.1659540" lon="-1.9382870">
        <ele>112.0</ele>
        <time>2019-10-18T08:36:50Z</time>
      </trkpt>
      <trkpt lat="37.1659540" lon="-1.9382870">
        <ele>112.0</ele>
        <time>2019-10-18T08:36:51Z</time>
      </trkpt>
      <trkpt lat="37.1659530" lon="-1.9382880">
        <ele>112.0</ele>
        <time>2019-10-18T08:36:52Z</time>
      </trkpt>
      <trkpt lat="37.1659500" lon="-1.9382920">
        <ele>112.0</ele>
        <time>2019-10-18T08:36:53Z</time>
      </trkpt>
      <trkpt lat="37.1659460" lon="-1.9383020">
        <ele>112.0</ele>
        <time>2019-10-18T08:36:54Z</time>
      </trkpt>
      <trkpt lat="37.1659400" lon="-1.9383170">
        <ele>112.1</ele>
        <time>2019-10-18T08:36:55Z</time>
      </trkpt>
      <trkpt lat="37.1659330" lon="-1.9383360">
        <ele>112.1</ele>
        <time>2019-10-18T08:36:56Z</time>
      </trkpt>
      <trkpt lat="37.1659270" lon="-1.9383580">
        <ele>112.2</ele>
        <time>2019-10-18T08:36:57Z</time>
      </trkpt>
      <trkpt lat="37.1659220" lon="-1.9383850">
        <ele>112.3</ele>
        <time>2019-10-18T08:36:58Z</time>
      </trkpt>
      <trkpt lat="37.1659200" lon="-1.9384160">
        <ele>112.4</ele>
        <time>2019-10-18T08:36:59Z</time>
      </trkpt>
      <trkpt lat="37.1659190" lon="-1.9384500">
        <ele>112.5</ele>
        <time>2019-10-18T08:37:00Z</time>
      </trkpt>
      <trkpt lat="37.1659190" lon="-1.9384840">
        <ele>112.7</ele>
        <time>2019-10-18T08:37:01Z</time>
      </trkpt>
      <trkpt lat="37.1659170" lon="-1.9385200">
        <ele>112.8</ele>
        <time>2019-10-18T08:37:02Z</time>
      </trkpt>
      <trkpt lat="37.1659160" lon="-1.9385550">
        <ele>113.0</ele>
        <time>2019-10-18T08:37:03Z</time>
      </trkpt>
      <trkpt lat="37.1659140" lon="-1.9385910">
        <ele>113.1</ele>
        <time>2019-10-18T08:37:04Z</time>
      </trkpt>
      <trkpt lat="37.1659130" lon="-1.9386270">
        <ele>113.3</ele>
        <time>2019-10-18T08:37:05Z</time>
      </trkpt>
      <trkpt lat="37.1659120" lon="-1.9386640">
        <ele>113.5</ele>
        <time>2019-10-18T08:37:06Z</time>
      </trkpt>
      <trkpt lat="37.1659100" lon="-1.9387020">
        <ele>113.6</ele>
        <time>2019-10-18T08:37:07Z</time>
      </trkpt>
      <trkpt lat="37.1659090" lon="-1.9387390">
        <ele>113.8</ele>
        <time>2019-10-18T08:37:08Z</time>
      </trkpt>
      <trkpt lat="37.1659070" lon="-1.9387790">
        <ele>114.0</ele>
        <time>2019-10-18T08:37:09Z</time>
      </trkpt>
      <trkpt lat="37.1659040" lon="-1.9388180">
        <ele>114.2</ele>
        <time>2019-10-18T08:37:10Z</time>
      </trkpt>
      <trkpt lat="37.1659020" lon="-1.9388580">
        <ele>114.3</ele>
        <time>2019-10-18T08:37:11Z</time>
      </trkpt>
      <trkpt lat="37.1658990" lon="-1.9388970">
        <ele>114.5</ele>
        <time>2019-10-18T08:37:12Z</time>
      </trkpt>
      <trkpt lat="37.1658950" lon="-1.9389370">
        <ele>114.6</ele>
        <time>2019-10-18T08:37:13Z</time>
      </trkpt>
      <trkpt lat="37.1658900" lon="-1.9389780">
        <ele>114.7</ele>
        <time>2019-10-18T08:37:14Z</time>
      </trkpt>
      <trkpt lat="37.1658850" lon="-1.9390190">
        <ele>114.9</ele>
        <time>2019-10-18T08:37:15Z</time>
      </trkpt>
      <trkpt lat="37.1658790" lon="-1.9390590">
        <ele>115.0</ele>
        <time>2019-10-18T08:37:16Z</time>
      </trkpt>
      <trkpt lat="37.1658730" lon="-1.9391000">
        <ele>115.1</ele>
        <time>2019-10-18T08:37:17Z</time>
      </trkpt>
      <trkpt lat="37.1658670" lon="-1.9391400">
        <ele>115.2</ele>
        <time>2019-10-18T08:37:18Z</time>
      </trkpt>
      <trkpt lat="37.1658620" lon="-1.9391810">
        <ele>115.6</ele>
        <time>2019-10-18T08:37:19Z</time>
      </trkpt>
      <trkpt lat="37.1658570" lon="-1.9392210">
        <ele>115.9</ele>
        <time>2019-10-18T08:37:20Z</time>
      </trkpt>
      <trkpt lat="37.1658530" lon="-1.9392620">
        <ele>116.1</ele>
        <time>2019-10-18T08:37:21Z</time>
      </trkpt>
      <trkpt lat="37.1658510" lon="-1.9393020">
        <ele>116.3</ele>
        <time>2019-10-18T08:37:22Z</time>
      </trkpt>
      <trkpt lat="37.1658490" lon="-1.9393440">
        <ele>116.5</ele>
        <time>2019-10-18T08:37:23Z</time>
      </trkpt>
      <trkpt lat="37.1658470" lon="-1.9393860">
        <ele>116.7</ele>
        <time>2019-10-18T08:37:24Z</time>
      </trkpt>
      <trkpt lat="37.1658450" lon="-1.9394300">
        <ele>116.8</ele>
        <time>2019-10-18T08:37:25Z</time>
      </trkpt>
      <trkpt lat="37.1658440" lon="-1.9394740">
        <ele>117.0</ele>
        <time>2019-10-18T08:37:26Z</time>
      </trkpt>
      <trkpt lat="37.1658430" lon="-1.9395190">
        <ele>117.1</ele>
        <time>2019-10-18T08:37:27Z</time>
      </trkpt>
      <trkpt lat="37.1658420" lon="-1.9395640">
        <ele>117.3</ele>
        <time>2019-10-18T08:37:28Z</time>
      </trkpt>
      <trkpt lat="37.1658380" lon="-1.9396080">
        <ele>117.4</ele>
        <time>2019-10-18T08:37:29Z</time>
      </trkpt>
      <trkpt lat="37.1658350" lon="-1.9396520">
        <ele>117.5</ele>
        <time>2019-10-18T08:37:30Z</time>
      </trkpt>
      <trkpt lat="37.1658300" lon="-1.9396980">
        <ele>117.7</ele>
        <time>2019-10-18T08:37:31Z</time>
      </trkpt>
      <trkpt lat="37.1658250" lon="-1.9397440">
        <ele>117.8</ele>
        <time>2019-10-18T08:37:32Z</time>
      </trkpt>
      <trkpt lat="37.1658190" lon="-1.9397900">
        <ele>118.0</ele>
        <time>2019-10-18T08:37:33Z</time>
      </trkpt>
      <trkpt lat="37.1658130" lon="-1.9398350">
        <ele>118.1</ele>
        <time>2019-10-18T08:37:34Z</time>
      </trkpt>
      <trkpt lat="37.1658080" lon="-1.9398800">
        <ele>118.2</ele>
        <time>2019-10-18T08:37:35Z</time>
      </trkpt>
      <trkpt lat="37.1658030" lon="-1.9399250">
        <ele>118.3</ele>
        <time>2019-10-18T08:37:36Z</time>
      </trkpt>
      <trkpt lat="37.1657990" lon="-1.9399690">
        <ele>118.4</ele>
        <time>2019-10-18T08:37:37Z</time>
      </trkpt>
      <trkpt lat="37.1657940" lon="-1.9400130">
        <ele>118.5</ele>
        <time>2019-10-18T08:37:38Z</time>
      </trkpt>
      <trkpt lat="37.1657890" lon="-1.9400560">
        <ele>118.6</ele>
        <time>2019-10-18T08:37:39Z</time>
      </trkpt>
      <trkpt lat="37.1657850" lon="-1.9400980">
        <ele>118.7</ele>
        <time>2019-10-18T08:37:40Z</time>
      </trkpt>
      <trkpt lat="37.1657810" lon="-1.9401410">
        <ele>118.8</ele>
        <time>2019-10-18T08:37:41Z</time>
      </trkpt>
      <trkpt lat="37.1657780" lon="-1.9401820">
        <ele>118.8</ele>
        <time>2019-10-18T08:37:42Z</time>
      </trkpt>
      <trkpt lat="37.1657750" lon="-1.9402230">
        <ele>118.9</ele>
        <time>2019-10-18T08:37:43Z</time>
      </trkpt>
      <trkpt lat="37.1657720" lon="-1.9402630">
        <ele>119.0</ele>
        <time>2019-10-18T08:37:44Z</time>
      </trkpt>
      <trkpt lat="37.1657670" lon="-1.9403020">
        <ele>119.0</ele>
        <time>2019-10-18T08:37:45Z</time>
      </trkpt>
      <trkpt lat="37.1657600" lon="-1.9403420">
        <ele>119.1</ele>
        <time>2019-10-18T08:37:46Z</time>
      </trkpt>
      <trkpt lat="37.1657510" lon="-1.9403800">
        <ele>119.1</ele>
        <time>2019-10-18T08:37:47Z</time>
      </trkpt>
      <trkpt lat="37.1657400" lon="-1.9404160">
        <ele>119.2</ele>
        <time>2019-10-18T08:37:48Z</time>
      </trkpt>
      <trkpt lat="37.1657290" lon="-1.9404480">
        <ele>119.2</ele>
        <time>2019-10-18T08:37:49Z</time>
      </trkpt>
      <trkpt lat="37.1657180" lon="-1.9404800">
        <ele>119.3</ele>
        <time>2019-10-18T08:37:50Z</time>
      </trkpt>
      <trkpt lat="37.1657070" lon="-1.9405110">
        <ele>119.4</ele>
        <time>2019-10-18T08:37:51Z</time>
      </trkpt>
      <trkpt lat="37.1656970" lon="-1.9405440">
        <ele>119.6</ele>
        <time>2019-10-18T08:37:52Z</time>
      </trkpt>
      <trkpt lat="37.1656890" lon="-1.9405760">
        <ele>119.7</ele>
        <time>2019-10-18T08:37:53Z</time>
      </trkpt>
      <trkpt lat="37.1656830" lon="-1.9406120">
        <ele>119.8</ele>
        <time>2019-10-18T08:37:54Z</time>
      </trkpt>
      <trkpt lat="37.1656790" lon="-1.9406510">
        <ele>119.9</ele>
        <time>2019-10-18T08:37:55Z</time>
      </trkpt>
      <trkpt lat="37.1656750" lon="-1.9406930">
        <ele>120.1</ele>
        <time>2019-10-18T08:37:56Z</time>
      </trkpt>
      <trkpt lat="37.1656710" lon="-1.9407360">
        <ele>120.3</ele>
        <time>2019-10-18T08:37:57Z</time>
      </trkpt>
      <trkpt lat="37.1656680" lon="-1.9407780">
        <ele>120.4</ele>
        <time>2019-10-18T08:37:58Z</time>
      </trkpt>
      <trkpt lat="37.1656650" lon="-1.9408200">
        <ele>120.6</ele>
        <time>2019-10-18T08:37:59Z</time>
      </trkpt>
      <trkpt lat="37.1656610" lon="-1.9408620">
        <ele>120.8</ele>
        <time>2019-10-18T08:38:00Z</time>
      </trkpt>
      <trkpt lat="37.1656570" lon="-1.9409050">
        <ele>120.9</ele>
        <time>2019-10-18T08:38:01Z</time>
      </trkpt>
      <trkpt lat="37.1656540" lon="-1.9409480">
        <ele>121.1</ele>
        <time>2019-10-18T08:38:02Z</time>
      </trkpt>
      <trkpt lat="37.1656520" lon="-1.9409920">
        <ele>121.3</ele>
        <time>2019-10-18T08:38:03Z</time>
      </trkpt>
      <trkpt lat="37.1656500" lon="-1.9410370">
        <ele>121.4</ele>
        <time>2019-10-18T08:38:04Z</time>
      </trkpt>
      <trkpt lat="37.1656470" lon="-1.9410820">
        <ele>121.6</ele>
        <time>2019-10-18T08:38:05Z</time>
      </trkpt>
      <trkpt lat="37.1656450" lon="-1.9411270">
        <ele>121.7</ele>
        <time>2019-10-18T08:38:06Z</time>
      </trkpt>
      <trkpt lat="37.1656420" lon="-1.9411720">
        <ele>121.9</ele>
        <time>2019-10-18T08:38:07Z</time>
      </trkpt>
      <trkpt lat="37.1656400" lon="-1.9412160">
        <ele>122.0</ele>
        <time>2019-10-18T08:38:08Z</time>
      </trkpt>
      <trkpt lat="37.1656370" lon="-1.9412610">
        <ele>122.1</ele>
        <time>2019-10-18T08:38:09Z</time>
      </trkpt>
      <trkpt lat="37.1656330" lon="-1.9413050">
        <ele>122.2</ele>
        <time>2019-10-18T08:38:10Z</time>
      </trkpt>
      <trkpt lat="37.1656290" lon="-1.9413490">
        <ele>122.3</ele>
        <time>2019-10-18T08:38:11Z</time>
      </trkpt>
      <trkpt lat="37.1656240" lon="-1.9413930">
        <ele>122.5</ele>
        <time>2019-10-18T08:38:12Z</time>
      </trkpt>
      <trkpt lat="37.1656210" lon="-1.9414370">
        <ele>122.6</ele>
        <time>2019-10-18T08:38:13Z</time>
      </trkpt>
      <trkpt lat="37.1656180" lon="-1.9414820">
        <ele>122.7</ele>
        <time>2019-10-18T08:38:14Z</time>
      </trkpt>
      <trkpt lat="37.1656150" lon="-1.9415280">
        <ele>122.8</ele>
        <time>2019-10-18T08:38:15Z</time>
      </trkpt>
      <trkpt lat="37.1656120" lon="-1.9415750">
        <ele>123.0</ele>
        <time>2019-10-18T08:38:16Z</time>
      </trkpt>
      <trkpt lat="37.1656080" lon="-1.9416210">
        <ele>123.1</ele>
        <time>2019-10-18T08:38:17Z</time>
      </trkpt>
      <trkpt lat="37.1656040" lon="-1.9416690">
        <ele>123.2</ele>
        <time>2019-10-18T08:38:18Z</time>
      </trkpt>
      <trkpt lat="37.1655990" lon="-1.9417160">
        <ele>123.4</ele>
        <time>2019-10-18T08:38:19Z</time>
      </trkpt>
      <trkpt lat="37.1655940" lon="-1.9417640">
        <ele>123.5</ele>
        <time>2019-10-18T08:38:20Z</time>
      </trkpt>
      <trkpt lat="37.1655900" lon="-1.9418110">
        <ele>123.6</ele>
        <time>2019-10-18T08:38:21Z</time>
      </trkpt>
      <trkpt lat="37.1655860" lon="-1.9418580">
        <ele>123.7</ele>
        <time>2019-10-18T08:38:22Z</time>
      </trkpt>
      <trkpt lat="37.1655810" lon="-1.9419040">
        <ele>123.8</ele>
        <time>2019-10-18T08:38:23Z</time>
      </trkpt>
      <trkpt lat="37.1655770" lon="-1.9419500">
        <ele>123.9</ele>
        <time>2019-10-18T08:38:24Z</time>
      </trkpt>
      <trkpt lat="37.1655710" lon="-1.9419960">
        <ele>124.0</ele>
        <time>2019-10-18T08:38:25Z</time>
      </trkpt>
      <trkpt lat="37.1655660" lon="-1.9420420">
        <ele>124.0</ele>
        <time>2019-10-18T08:38:26Z</time>
      </trkpt>
      <trkpt lat="37.1655600" lon="-1.9420880">
        <ele>124.2</ele>
        <time>2019-10-18T08:38:27Z</time>
      </trkpt>
      <trkpt lat="37.1655540" lon="-1.9421340">
        <ele>124.3</ele>
        <time>2019-10-18T08:38:28Z</time>
      </trkpt>
      <trkpt lat="37.1655480" lon="-1.9421810">
        <ele>124.4</ele>
        <time>2019-10-18T08:38:29Z</time>
      </trkpt>
      <trkpt lat="37.1655420" lon="-1.9422270">
        <ele>124.6</ele>
        <time>2019-10-18T08:38:30Z</time>
      </trkpt>
      <trkpt lat="37.1655350" lon="-1.9422740">
        <ele>124.8</ele>
        <time>2019-10-18T08:38:31Z</time>
      </trkpt>
      <trkpt lat="37.1655280" lon="-1.9423210">
        <ele>125.1</ele>
        <time>2019-10-18T08:38:32Z</time>
      </trkpt>
      <trkpt lat="37.1655190" lon="-1.9423670">
        <ele>125.5</ele>
        <time>2019-10-18T08:38:33Z</time>
      </trkpt>
      <trkpt lat="37.1655090" lon="-1.9424130">
        <ele>125.9</ele>
        <time>2019-10-18T08:38:34Z</time>
      </trkpt>
      <trkpt lat="37.1654990" lon="-1.9424600">
        <ele>126.3</ele>
        <time>2019-10-18T08:38:35Z</time>
      </trkpt>
      <trkpt lat="37.1654880" lon="-1.9425060">
        <ele>126.6</ele>
        <time>2019-10-18T08:38:36Z</time>
      </trkpt>
      <trkpt lat="37.1654750" lon="-1.9425520">
        <ele>126.9</ele>
        <time>2019-10-18T08:38:37Z</time>
      </trkpt>
      <trkpt lat="37.1654630" lon="-1.9425980">
        <ele>127.1</ele>
        <time>2019-10-18T08:38:38Z</time>
      </trkpt>
      <trkpt lat="37.1654500" lon="-1.9426420">
        <ele>127.3</ele>
        <time>2019-10-18T08:38:39Z</time>
      </trkpt>
      <trkpt lat="37.1654370" lon="-1.9426860">
        <ele>127.4</ele>
        <time>2019-10-18T08:38:40Z</time>
      </trkpt>
      <trkpt lat="37.1654240" lon="-1.9427290">
        <ele>127.6</ele>
        <time>2019-10-18T08:38:41Z</time>
      </trkpt>
      <trkpt lat="37.1654100" lon="-1.9427710">
        <ele>127.7</ele>
        <time>2019-10-18T08:38:42Z</time>
      </trkpt>
      <trkpt lat="37.1653960" lon="-1.9428130">
        <ele>127.7</ele>
        <time>2019-10-18T08:38:43Z</time>
      </trkpt>
      <trkpt lat="37.1653810" lon="-1.9428550">
        <ele>127.8</ele>
        <time>2019-10-18T08:38:44Z</time>
      </trkpt>
      <trkpt lat="37.1653660" lon="-1.9428970">
        <ele>127.8</ele>
        <time>2019-10-18T08:38:45Z</time>
      </trkpt>
      <trkpt lat="37.1653510" lon="-1.9429380">
        <ele>127.8</ele>
        <time>2019-10-18T08:38:46Z</time>
      </trkpt>
      <trkpt lat="37.1653350" lon="-1.9429800">
        <ele>127.8</ele>
        <time>2019-10-18T08:38:47Z</time>
      </trkpt>
      <trkpt lat="37.1653190" lon="-1.9430200">
        <ele>127.8</ele>
        <time>2019-10-18T08:38:48Z</time>
      </trkpt>
      <trkpt lat="37.1653030" lon="-1.9430600">
        <ele>127.8</ele>
        <time>2019-10-18T08:38:49Z</time>
      </trkpt>
      <trkpt lat="37.1652860" lon="-1.9430990">
        <ele>127.8</ele>
        <time>2019-10-18T08:38:50Z</time>
      </trkpt>
      <trkpt lat="37.1652680" lon="-1.9431370">
        <ele>128.1</ele>
        <time>2019-10-18T08:38:51Z</time>
      </trkpt>
      <trkpt lat="37.1652490" lon="-1.9431750">
        <ele>128.2</ele>
        <time>2019-10-18T08:38:52Z</time>
      </trkpt>
      <trkpt lat="37.1652280" lon="-1.9432120">
        <ele>128.3</ele>
        <time>2019-10-18T08:38:53Z</time>
      </trkpt>
      <trkpt lat="37.1652080" lon="-1.9432490">
        <ele>128.5</ele>
        <time>2019-10-18T08:38:54Z</time>
      </trkpt>
      <trkpt lat="37.1651880" lon="-1.9432870">
        <ele>128.6</ele>
        <time>2019-10-18T08:38:55Z</time>
      </trkpt>
      <trkpt lat="37.1651660" lon="-1.9433260">
        <ele>128.8</ele>
        <time>2019-10-18T08:38:56Z</time>
      </trkpt>
      <trkpt lat="37.1651430" lon="-1.9433640">
        <ele>129.3</ele>
        <time>2019-10-18T08:38:57Z</time>
      </trkpt>
      <trkpt lat="37.1651190" lon="-1.9434030">
        <ele>129.6</ele>
        <time>2019-10-18T08:38:58Z</time>
      </trkpt>
      <trkpt lat="37.1650950" lon="-1.9434410">
        <ele>129.9</ele>
        <time>2019-10-18T08:38:59Z</time>
      </trkpt>
      <trkpt lat="37.1650700" lon="-1.9434790">
        <ele>130.2</ele>
        <time>2019-10-18T08:39:00Z</time>
      </trkpt>
      <trkpt lat="37.1650440" lon="-1.9435150">
        <ele>130.4</ele>
        <time>2019-10-18T08:39:01Z</time>
      </trkpt>
      <trkpt lat="37.1650200" lon="-1.9435500">
        <ele>130.6</ele>
        <time>2019-10-18T08:39:02Z</time>
      </trkpt>
      <trkpt lat="37.1649950" lon="-1.9435850">
        <ele>130.8</ele>
        <time>2019-10-18T08:39:03Z</time>
      </trkpt>
      <trkpt lat="37.1649700" lon="-1.9436190">
        <ele>131.0</ele>
        <time>2019-10-18T08:39:04Z</time>
      </trkpt>
      <trkpt lat="37.1649450" lon="-1.9436530">
        <ele>131.3</ele>
        <time>2019-10-18T08:39:05Z</time>
      </trkpt>
      <trkpt lat="37.1649210" lon="-1.9436860">
        <ele>131.5</ele>
        <time>2019-10-18T08:39:06Z</time>
      </trkpt>
      <trkpt lat="37.1648970" lon="-1.9437190">
        <ele>131.7</ele>
        <time>2019-10-18T08:39:07Z</time>
      </trkpt>
      <trkpt lat="37.1648720" lon="-1.9437510">
        <ele>132.0</ele>
        <time>2019-10-18T08:39:08Z</time>
      </trkpt>
      <trkpt lat="37.1648470" lon="-1.9437830">
        <ele>132.3</ele>
        <time>2019-10-18T08:39:09Z</time>
      </trkpt>
      <trkpt lat="37.1648210" lon="-1.9438140">
        <ele>132.5</ele>
        <time>2019-10-18T08:39:10Z</time>
      </trkpt>
      <trkpt lat="37.1647950" lon="-1.9438450">
        <ele>132.7</ele>
        <time>2019-10-18T08:39:11Z</time>
      </trkpt>
      <trkpt lat="37.1647680" lon="-1.9438760">
        <ele>132.9</ele>
        <time>2019-10-18T08:39:12Z</time>
      </trkpt>
      <trkpt lat="37.1647410" lon="-1.9439070">
        <ele>133.1</ele>
        <time>2019-10-18T08:39:13Z</time>
      </trkpt>
      <trkpt lat="37.1647130" lon="-1.9439370">
        <ele>133.4</ele>
        <time>2019-10-18T08:39:14Z</time>
      </trkpt>
      <trkpt lat="37.1646850" lon="-1.9439660">
        <ele>133.6</ele>
        <time>2019-10-18T08:39:15Z</time>
      </trkpt>
      <trkpt lat="37.1646560" lon="-1.9439950">
        <ele>133.9</ele>
        <time>2019-10-18T08:39:16Z</time>
      </trkpt>
      <trkpt lat="37.1646260" lon="-1.9440230">
        <ele>134.1</ele>
        <time>2019-10-18T08:39:17Z</time>
      </trkpt>
      <trkpt lat="37.1645980" lon="-1.9440510">
        <ele>134.4</ele>
        <time>2019-10-18T08:39:18Z</time>
      </trkpt>
      <trkpt lat="37.1645690" lon="-1.9440790">
        <ele>134.7</ele>
        <time>2019-10-18T08:39:19Z</time>
      </trkpt>
      <trkpt lat="37.1645400" lon="-1.9441060">
        <ele>135.1</ele>
        <time>2019-10-18T08:39:20Z</time>
      </trkpt>
      <trkpt lat="37.1645110" lon="-1.9441320">
        <ele>135.4</ele>
        <time>2019-10-18T08:39:21Z</time>
      </trkpt>
      <trkpt lat="37.1644800" lon="-1.9441560">
        <ele>135.8</ele>
        <time>2019-10-18T08:39:22Z</time>
      </trkpt>
      <trkpt lat="37.1644480" lon="-1.9441790">
        <ele>136.1</ele>
        <time>2019-10-18T08:39:23Z</time>
      </trkpt>
      <trkpt lat="37.1644170" lon="-1.9442010">
        <ele>136.4</ele>
        <time>2019-10-18T08:39:24Z</time>
      </trkpt>
      <trkpt lat="37.1643860" lon="-1.9442220">
        <ele>136.6</ele>
        <time>2019-10-18T08:39:25Z</time>
      </trkpt>
      <trkpt lat="37.1643540" lon="-1.9442430">
        <ele>136.8</ele>
        <time>2019-10-18T08:39:26Z</time>
      </trkpt>
      <trkpt lat="37.1643220" lon="-1.9442640">
        <ele>137.0</ele>
        <time>2019-10-18T08:39:27Z</time>
      </trkpt>
      <trkpt lat="37.1642900" lon="-1.9442850">
        <ele>137.1</ele>
        <time>2019-10-18T08:39:28Z</time>
      </trkpt>
      <trkpt lat="37.1642580" lon="-1.9443070">
        <ele>137.3</ele>
        <time>2019-10-18T08:39:29Z</time>
      </trkpt>
      <trkpt lat="37.1642250" lon="-1.9443280">
        <ele>137.5</ele>
        <time>2019-10-18T08:39:30Z</time>
      </trkpt>
      <trkpt lat="37.1641920" lon="-1.9443490">
        <ele>137.7</ele>
        <time>2019-10-18T08:39:31Z</time>
      </trkpt>
      <trkpt lat="37.1641580" lon="-1.9443670">
        <ele>137.8</ele>
        <time>2019-10-18T08:39:32Z</time>
      </trkpt>
      <trkpt lat="37.1641240" lon="-1.9443850">
        <ele>138.0</ele>
        <time>2019-10-18T08:39:33Z</time>
      </trkpt>
      <trkpt lat="37.1640900" lon="-1.9444030">
        <ele>138.2</ele>
        <time>2019-10-18T08:39:34Z</time>
      </trkpt>
      <trkpt lat="37.1640550" lon="-1.9444220">
        <ele>138.5</ele>
        <time>2019-10-18T08:39:35Z</time>
      </trkpt>
      <trkpt lat="37.1640200" lon="-1.9444410">
        <ele>138.7</ele>
        <time>2019-10-18T08:39:36Z</time>
      </trkpt>
      <trkpt lat="37.1639840" lon="-1.9444600">
        <ele>139.0</ele>
        <time>2019-10-18T08:39:37Z</time>
      </trkpt>
      <trkpt lat="37.1639480" lon="-1.9444780">
        <ele>139.2</ele>
        <time>2019-10-18T08:39:38Z</time>
      </trkpt>
      <trkpt lat="37.1639140" lon="-1.9444960">
        <ele>139.5</ele>
        <time>2019-10-18T08:39:39Z</time>
      </trkpt>
      <trkpt lat="37.1638790" lon="-1.9445150">
        <ele>139.7</ele>
        <time>2019-10-18T08:39:40Z</time>
      </trkpt>
      <trkpt lat="37.1638450" lon="-1.9445350">
        <ele>140.0</ele>
        <time>2019-10-18T08:39:41Z</time>
      </trkpt>
      <trkpt lat="37.1638110" lon="-1.9445540">
        <ele>140.2</ele>
        <time>2019-10-18T08:39:42Z</time>
      </trkpt>
      <trkpt lat="37.1637760" lon="-1.9445730">
        <ele>140.4</ele>
        <time>2019-10-18T08:39:43Z</time>
      </trkpt>
      <trkpt lat="37.1637420" lon="-1.9445920">
        <ele>140.6</ele>
        <time>2019-10-18T08:39:44Z</time>
      </trkpt>
      <trkpt lat="37.1637070" lon="-1.9446110">
        <ele>140.8</ele>
        <time>2019-10-18T08:39:45Z</time>
      </trkpt>
      <trkpt lat="37.1636720" lon="-1.9446300">
        <ele>141.0</ele>
        <time>2019-10-18T08:39:46Z</time>
      </trkpt>
      <trkpt lat="37.1636360" lon="-1.9446500">
        <ele>141.2</ele>
        <time>2019-10-18T08:39:47Z</time>
      </trkpt>
      <trkpt lat="37.1636000" lon="-1.9446680">
        <ele>141.4</ele>
        <time>2019-10-18T08:39:48Z</time>
      </trkpt>
      <trkpt lat="37.1635650" lon="-1.9446870">
        <ele>141.5</ele>
        <time>2019-10-18T08:39:49Z</time>
      </trkpt>
      <trkpt lat="37.1635290" lon="-1.9447050">
        <ele>141.7</ele>
        <time>2019-10-18T08:39:50Z</time>
      </trkpt>
      <trkpt lat="37.1634940" lon="-1.9447240">
        <ele>141.8</ele>
        <time>2019-10-18T08:39:51Z</time>
      </trkpt>
      <trkpt lat="37.1634590" lon="-1.9447420">
        <ele>142.0</ele>
        <time>2019-10-18T08:39:52Z</time>
      </trkpt>
      <trkpt lat="37.1634230" lon="-1.9447590">
        <ele>142.1</ele>
        <time>2019-10-18T08:39:53Z</time>
      </trkpt>
      <trkpt lat="37.1633880" lon="-1.9447770">
        <ele>142.3</ele>
        <time>2019-10-18T08:39:54Z</time>
      </trkpt>
      <trkpt lat="37.1633530" lon="-1.9447950">
        <ele>142.5</ele>
        <time>2019-10-18T08:39:55Z</time>
      </trkpt>
      <trkpt lat="37.1633180" lon="-1.9448140">
        <ele>142.6</ele>
        <time>2019-10-18T08:39:56Z</time>
      </trkpt>
      <trkpt lat="37.1632840" lon="-1.9448340">
        <ele>142.8</ele>
        <time>2019-10-18T08:39:57Z</time>
      </trkpt>
      <trkpt lat="37.1632500" lon="-1.9448530">
        <ele>143.0</ele>
        <time>2019-10-18T08:39:58Z</time>
      </trkpt>
      <trkpt lat="37.1632150" lon="-1.9448720">
        <ele>143.2</ele>
        <time>2019-10-18T08:39:59Z</time>
      </trkpt>
      <trkpt lat="37.1631810" lon="-1.9448910">
        <ele>143.4</ele>
        <time>2019-10-18T08:40:00Z</time>
      </trkpt>
      <trkpt lat="37.1631470" lon="-1.9449080">
        <ele>143.6</ele>
        <time>2019-10-18T08:40:01Z</time>
      </trkpt>
      <trkpt lat="37.1631120" lon="-1.9449240">
        <ele>143.8</ele>
        <time>2019-10-18T08:40:02Z</time>
      </trkpt>
      <trkpt lat="37.1630770" lon="-1.9449400">
        <ele>144.1</ele>
        <time>2019-10-18T08:40:03Z</time>
      </trkpt>
      <trkpt lat="37.1630430" lon="-1.9449590">
        <ele>144.3</ele>
        <time>2019-10-18T08:40:04Z</time>
      </trkpt>
      <trkpt lat="37.1630080" lon="-1.9449780">
        <ele>144.5</ele>
        <time>2019-10-18T08:40:05Z</time>
      </trkpt>
      <trkpt lat="37.1629730" lon="-1.9449970">
        <ele>144.8</ele>
        <time>2019-10-18T08:40:06Z</time>
      </trkpt>
      <trkpt lat="37.1629370" lon="-1.9450130">
        <ele>144.9</ele>
        <time>2019-10-18T08:40:07Z</time>
      </trkpt>
      <trkpt lat="37.1629020" lon="-1.9450290">
        <ele>145.1</ele>
        <time>2019-10-18T08:40:08Z</time>
      </trkpt>
      <trkpt lat="37.1628670" lon="-1.9450460">
        <ele>145.3</ele>
        <time>2019-10-18T08:40:09Z</time>
      </trkpt>
      <trkpt lat="37.1628320" lon="-1.9450640">
        <ele>145.4</ele>
        <time>2019-10-18T08:40:10Z</time>
      </trkpt>
      <trkpt lat="37.1627970" lon="-1.9450840">
        <ele>145.6</ele>
        <time>2019-10-18T08:40:11Z</time>
      </trkpt>
      <trkpt lat="37.1627630" lon="-1.9451040">
        <ele>145.7</ele>
        <time>2019-10-18T08:40:12Z</time>
      </trkpt>
      <trkpt lat="37.1627280" lon="-1.9451230">
        <ele>145.8</ele>
        <time>2019-10-18T08:40:13Z</time>
      </trkpt>
      <trkpt lat="37.1626920" lon="-1.9451400">
        <ele>145.9</ele>
        <time>2019-10-18T08:40:14Z</time>
      </trkpt>
      <trkpt lat="37.1626560" lon="-1.9451570">
        <ele>146.0</ele>
        <time>2019-10-18T08:40:15Z</time>
      </trkpt>
      <trkpt lat="37.1626200" lon="-1.9451750">
        <ele>146.3</ele>
        <time>2019-10-18T08:40:16Z</time>
      </trkpt>
      <trkpt lat="37.1625850" lon="-1.9451940">
        <ele>146.5</ele>
        <time>2019-10-18T08:40:17Z</time>
      </trkpt>
      <trkpt lat="37.1625500" lon="-1.9452120">
        <ele>146.8</ele>
        <time>2019-10-18T08:40:18Z</time>
      </trkpt>
      <trkpt lat="37.1625150" lon="-1.9452310">
        <ele>147.0</ele>
        <time>2019-10-18T08:40:19Z</time>
      </trkpt>
      <trkpt lat="37.1624810" lon="-1.9452500">
        <ele>147.3</ele>
        <time>2019-10-18T08:40:20Z</time>
      </trkpt>
      <trkpt lat="37.1624470" lon="-1.9452700">
        <ele>147.5</ele>
        <time>2019-10-18T08:40:21Z</time>
      </trkpt>
      <trkpt lat="37.1624130" lon="-1.9452900">
        <ele>147.8</ele>
        <time>2019-10-18T08:40:22Z</time>
      </trkpt>
      <trkpt lat="37.1623780" lon="-1.9453110">
        <ele>148.1</ele>
        <time>2019-10-18T08:40:23Z</time>
      </trkpt>
      <trkpt lat="37.1623430" lon="-1.9453340">
        <ele>148.3</ele>
        <time>2019-10-18T08:40:24Z</time>
      </trkpt>
      <trkpt lat="37.1623080" lon="-1.9453600">
        <ele>148.4</ele>
        <time>2019-10-18T08:40:25Z</time>
      </trkpt>
      <trkpt lat="37.1622720" lon="-1.9453870">
        <ele>148.6</ele>
        <time>2019-10-18T08:40:26Z</time>
      </trkpt>
      <trkpt lat="37.1622360" lon="-1.9454130">
        <ele>148.6</ele>
        <time>2019-10-18T08:40:27Z</time>
      </trkpt>
      <trkpt lat="37.1622000" lon="-1.9454370">
        <ele>148.7</ele>
        <time>2019-10-18T08:40:28Z</time>
      </trkpt>
      <trkpt lat="37.1621670" lon="-1.9454610">
        <ele>148.8</ele>
        <time>2019-10-18T08:40:29Z</time>
      </trkpt>
      <trkpt lat="37.1621330" lon="-1.9454860">
        <ele>148.9</ele>
        <time>2019-10-18T08:40:30Z</time>
      </trkpt>
      <trkpt lat="37.1621010" lon="-1.9455100">
        <ele>149.0</ele>
        <time>2019-10-18T08:40:31Z</time>
      </trkpt>
      <trkpt lat="37.1620690" lon="-1.9455350">
        <ele>149.2</ele>
        <time>2019-10-18T08:40:32Z</time>
      </trkpt>
      <trkpt lat="37.1620370" lon="-1.9455610">
        <ele>149.4</ele>
        <time>2019-10-18T08:40:33Z</time>
      </trkpt>
      <trkpt lat="37.1620070" lon="-1.9455880">
        <ele>149.5</ele>
        <time>2019-10-18T08:40:34Z</time>
      </trkpt>
      <trkpt lat="37.1619770" lon="-1.9456160">
        <ele>149.6</ele>
        <time>2019-10-18T08:40:35Z</time>
      </trkpt>
      <trkpt lat="37.1619460" lon="-1.9456450">
        <ele>149.7</ele>
        <time>2019-10-18T08:40:36Z</time>
      </trkpt>
      <trkpt lat="37.1619170" lon="-1.9456750">
        <ele>149.8</ele>
        <time>2019-10-18T08:40:37Z</time>
      </trkpt>
      <trkpt lat="37.1618870" lon="-1.9457060">
        <ele>149.9</ele>
        <time>2019-10-18T08:40:38Z</time>
      </trkpt>
      <trkpt lat="37.1618580" lon="-1.9457370">
        <ele>150.0</ele>
        <time>2019-10-18T08:40:39Z</time>
      </trkpt>
      <trkpt lat="37.1618290" lon="-1.9457700">
        <ele>150.1</ele>
        <time>2019-10-18T08:40:40Z</time>
      </trkpt>
      <trkpt lat="37.1618010" lon="-1.9458040">
        <ele>150.1</ele>
        <time>2019-10-18T08:40:41Z</time>
      </trkpt>
      <trkpt lat="37.1617740" lon="-1.9458380">
        <ele>150.2</ele>
        <time>2019-10-18T08:40:42Z</time>
      </trkpt>
      <trkpt lat="37.1617480" lon="-1.9458740">
        <ele>150.4</ele>
        <time>2019-10-18T08:40:43Z</time>
      </trkpt>
      <trkpt lat="37.1617220" lon="-1.9459100">
        <ele>150.5</ele>
        <time>2019-10-18T08:40:44Z</time>
      </trkpt>
      <trkpt lat="37.1616960" lon="-1.9459460">
        <ele>150.7</ele>
        <time>2019-10-18T08:40:45Z</time>
      </trkpt>
      <trkpt lat="37.1616710" lon="-1.9459840">
        <ele>150.8</ele>
        <time>2019-10-18T08:40:46Z</time>
      </trkpt>
      <trkpt lat="37.1616460" lon="-1.9460220">
        <ele>151.0</ele>
        <time>2019-10-18T08:40:47Z</time>
      </trkpt>
      <trkpt lat="37.1616220" lon="-1.9460610">
        <ele>151.2</ele>
        <time>2019-10-18T08:40:48Z</time>
      </trkpt>
      <trkpt lat="37.1615990" lon="-1.9461000">
        <ele>151.4</ele>
        <time>2019-10-18T08:40:49Z</time>
      </trkpt>
      <trkpt lat="37.1615750" lon="-1.9461390">
        <ele>151.6</ele>
        <time>2019-10-18T08:40:50Z</time>
      </trkpt>
      <trkpt lat="37.1615520" lon="-1.9461780">
        <ele>151.8</ele>
        <time>2019-10-18T08:40:51Z</time>
      </trkpt>
      <trkpt lat="37.1615290" lon="-1.9462170">
        <ele>152.1</ele>
        <time>2019-10-18T08:40:52Z</time>
      </trkpt>
      <trkpt lat="37.1615050" lon="-1.9462560">
        <ele>152.2</ele>
        <time>2019-10-18T08:40:53Z</time>
      </trkpt>
      <trkpt lat="37.1614810" lon="-1.9462940">
        <ele>152.4</ele>
        <time>2019-10-18T08:40:54Z</time>
      </trkpt>
      <trkpt lat="37.1614570" lon="-1.9463330">
        <ele>152.6</ele>
        <time>2019-10-18T08:40:55Z</time>
      </trkpt>
      <trkpt lat="37.1614330" lon="-1.9463710">
        <ele>152.8</ele>
        <time>2019-10-18T08:40:56Z</time>
      </trkpt>
      <trkpt lat="37.1614090" lon="-1.9464110">
        <ele>153.1</ele>
        <time>2019-10-18T08:40:57Z</time>
      </trkpt>
      <trkpt lat="37.1613850" lon="-1.9464500">
        <ele>153.3</ele>
        <time>2019-10-18T08:40:58Z</time>
      </trkpt>
      <trkpt lat="37.1613620" lon="-1.9464900">
        <ele>153.5</ele>
        <time>2019-10-18T08:40:59Z</time>
      </trkpt>
      <trkpt lat="37.1613390" lon="-1.9465290">
        <ele>153.7</ele>
        <time>2019-10-18T08:41:00Z</time>
      </trkpt>
      <trkpt lat="37.1613150" lon="-1.9465700">
        <ele>153.8</ele>
        <time>2019-10-18T08:41:01Z</time>
      </trkpt>
      <trkpt lat="37.1612910" lon="-1.9466100">
        <ele>153.9</ele>
        <time>2019-10-18T08:41:02Z</time>
      </trkpt>
      <trkpt lat="37.1612660" lon="-1.9466510">
        <ele>154.0</ele>
        <time>2019-10-18T08:41:03Z</time>
      </trkpt>
      <trkpt lat="37.1612410" lon="-1.9466910">
        <ele>154.1</ele>
        <time>2019-10-18T08:41:04Z</time>
      </trkpt>
      <trkpt lat="37.1612150" lon="-1.9467310">
        <ele>154.2</ele>
        <time>2019-10-18T08:41:05Z</time>
      </trkpt>
      <trkpt lat="37.1611890" lon="-1.9467720">
        <ele>154.2</ele>
        <time>2019-10-18T08:41:06Z</time>
      </trkpt>
      <trkpt lat="37.1611640" lon="-1.9468120">
        <ele>154.3</ele>
        <time>2019-10-18T08:41:07Z</time>
      </trkpt>
      <trkpt lat="37.1611380" lon="-1.9468530">
        <ele>154.3</ele>
        <time>2019-10-18T08:41:08Z</time>
      </trkpt>
      <trkpt lat="37.1611110" lon="-1.9468940">
        <ele>154.4</ele>
        <time>2019-10-18T08:41:09Z</time>
      </trkpt>
      <trkpt lat="37.1610830" lon="-1.9469350">
        <ele>154.4</ele>
        <time>2019-10-18T08:41:10Z</time>
      </trkpt>
      <trkpt lat="37.1610550" lon="-1.9469770">
        <ele>154.4</ele>
        <time>2019-10-18T08:41:11Z</time>
      </trkpt>
      <trkpt lat="37.1610260" lon="-1.9470190">
        <ele>154.4</ele>
        <time>2019-10-18T08:41:12Z</time>
      </trkpt>
      <trkpt lat="37.1609970" lon="-1.9470620">
        <ele>154.4</ele>
        <time>2019-10-18T08:41:13Z</time>
      </trkpt>
      <trkpt lat="37.1609680" lon="-1.9471070">
        <ele>154.4</ele>
        <time>2019-10-18T08:41:14Z</time>
      </trkpt>
      <trkpt lat="37.1609390" lon="-1.9471540">
        <ele>154.3</ele>
        <time>2019-10-18T08:41:15Z</time>
      </trkpt>
      <trkpt lat="37.1609100" lon="-1.9472020">
        <ele>154.2</ele>
        <time>2019-10-18T08:41:16Z</time>
      </trkpt>
      <trkpt lat="37.1608810" lon="-1.9472510">
        <ele>154.2</ele>
        <time>2019-10-18T08:41:17Z</time>
      </trkpt>
      <trkpt lat="37.1608530" lon="-1.9473020">
        <ele>154.0</ele>
        <time>2019-10-18T08:41:18Z</time>
      </trkpt>
      <trkpt lat="37.1608230" lon="-1.9473530">
        <ele>153.9</ele>
        <time>2019-10-18T08:41:19Z</time>
      </trkpt>
      <trkpt lat="37.1607930" lon="-1.9474050">
        <ele>153.8</ele>
        <time>2019-10-18T08:41:20Z</time>
      </trkpt>
      <trkpt lat="37.1607630" lon="-1.9474590">
        <ele>153.6</ele>
        <time>2019-10-18T08:41:21Z</time>
      </trkpt>
      <trkpt lat="37.1607340" lon="-1.9475130">
        <ele>153.4</ele>
        <time>2019-10-18T08:41:22Z</time>
      </trkpt>
      <trkpt lat="37.1607050" lon="-1.9475680">
        <ele>153.3</ele>
        <time>2019-10-18T08:41:23Z</time>
      </trkpt>
      <trkpt lat="37.1606750" lon="-1.9476240">
        <ele>153.1</ele>
        <time>2019-10-18T08:41:24Z</time>
      </trkpt>
      <trkpt lat="37.1606440" lon="-1.9476800">
        <ele>152.8</ele>
        <time>2019-10-18T08:41:25Z</time>
      </trkpt>
      <trkpt lat="37.1606130" lon="-1.9477360">
        <ele>152.6</ele>
        <time>2019-10-18T08:41:26Z</time>
      </trkpt>
      <trkpt lat="37.1605810" lon="-1.9477920">
        <ele>152.3</ele>
        <time>2019-10-18T08:41:27Z</time>
      </trkpt>
      <trkpt lat="37.1605480" lon="-1.9478470">
        <ele>152.1</ele>
        <time>2019-10-18T08:41:28Z</time>
      </trkpt>
      <trkpt lat="37.1605130" lon="-1.9479000">
        <ele>151.8</ele>
        <time>2019-10-18T08:41:29Z</time>
      </trkpt>
      <trkpt lat="37.1604770" lon="-1.9479530">
        <ele>151.6</ele>
        <time>2019-10-18T08:41:30Z</time>
      </trkpt>
      <trkpt lat="37.1604400" lon="-1.9480050">
        <ele>151.3</ele>
        <time>2019-10-18T08:41:31Z</time>
      </trkpt>
      <trkpt lat="37.1604010" lon="-1.9480570">
        <ele>151.1</ele>
        <time>2019-10-18T08:41:32Z</time>
      </trkpt>
      <trkpt lat="37.1603610" lon="-1.9481070">
        <ele>150.9</ele>
        <time>2019-10-18T08:41:33Z</time>
      </trkpt>
      <trkpt lat="37.1603200" lon="-1.9481570">
        <ele>150.7</ele>
        <time>2019-10-18T08:41:34Z</time>
      </trkpt>
      <trkpt lat="37.1602780" lon="-1.9482070">
        <ele>150.5</ele>
        <time>2019-10-18T08:41:35Z</time>
      </trkpt>
      <trkpt lat="37.1602350" lon="-1.9482560">
        <ele>150.3</ele>
        <time>2019-10-18T08:41:36Z</time>
      </trkpt>
      <trkpt lat="37.1601900" lon="-1.9483040">
        <ele>150.1</ele>
        <time>2019-10-18T08:41:37Z</time>
      </trkpt>
      <trkpt lat="37.1601440" lon="-1.9483520">
        <ele>149.9</ele>
        <time>2019-10-18T08:41:38Z</time>
      </trkpt>
      <trkpt lat="37.1600970" lon="-1.9483980">
        <ele>149.7</ele>
        <time>2019-10-18T08:41:39Z</time>
      </trkpt>
      <trkpt lat="37.1600480" lon="-1.9484440">
        <ele>149.5</ele>
        <time>2019-10-18T08:41:40Z</time>
      </trkpt>
      <trkpt lat="37.1599990" lon="-1.9484890">
        <ele>149.3</ele>
        <time>2019-10-18T08:41:41Z</time>
      </trkpt>
      <trkpt lat="37.1599490" lon="-1.9485320">
        <ele>149.1</ele>
        <time>2019-10-18T08:41:42Z</time>
      </trkpt>
      <trkpt lat="37.1598970" lon="-1.9485720">
        <ele>148.9</ele>
        <time>2019-10-18T08:41:43Z</time>
      </trkpt>
      <trkpt lat="37.1598420" lon="-1.9486110">
        <ele>148.7</ele>
        <time>2019-10-18T08:41:44Z</time>
      </trkpt>
      <trkpt lat="37.1597860" lon="-1.9486480">
        <ele>148.5</ele>
        <time>2019-10-18T08:41:45Z</time>
      </trkpt>
      <trkpt lat="37.1597300" lon="-1.9486860">
        <ele>148.4</ele>
        <time>2019-10-18T08:41:46Z</time>
      </trkpt>
      <trkpt lat="37.1596730" lon="-1.9487220">
        <ele>148.3</ele>
        <time>2019-10-18T08:41:47Z</time>
      </trkpt>
      <trkpt lat="37.1596140" lon="-1.9487570">
        <ele>148.2</ele>
        <time>2019-10-18T08:41:48Z</time>
      </trkpt>
      <trkpt lat="37.1595540" lon="-1.9487880">
        <ele>148.0</ele>
        <time>2019-10-18T08:41:49Z</time>
      </trkpt>
      <trkpt lat="37.1594930" lon="-1.9488180">
        <ele>147.9</ele>
        <time>2019-10-18T08:41:50Z</time>
      </trkpt>
      <trkpt lat="37.1594320" lon="-1.9488460">
        <ele>147.7</ele>
        <time>2019-10-18T08:41:51Z</time>
      </trkpt>
      <trkpt lat="37.1593710" lon="-1.9488730">
        <ele>147.6</ele>
        <time>2019-10-18T08:41:52Z</time>
      </trkpt>
      <trkpt lat="37.1593100" lon="-1.9488980">
        <ele>147.4</ele>
        <time>2019-10-18T08:41:53Z</time>
      </trkpt>
      <trkpt lat="37.1592490" lon="-1.9489220">
        <ele>147.3</ele>
        <time>2019-10-18T08:41:54Z</time>
      </trkpt>
      <trkpt lat="37.1591850" lon="-1.9489440">
        <ele>147.2</ele>
        <time>2019-10-18T08:41:55Z</time>
      </trkpt>
      <trkpt lat="37.1591210" lon="-1.9489670">
        <ele>147.1</ele>
        <time>2019-10-18T08:41:56Z</time>
      </trkpt>
      <trkpt lat="37.1590560" lon="-1.9489880">
        <ele>146.9</ele>
        <time>2019-10-18T08:41:57Z</time>
      </trkpt>
      <trkpt lat="37.1589930" lon="-1.9490090">
        <ele>146.8</ele>
        <time>2019-10-18T08:41:58Z</time>
      </trkpt>
      <trkpt lat="37.1589300" lon="-1.9490270">
        <ele>146.6</ele>
        <time>2019-10-18T08:41:59Z</time>
      </trkpt>
      <trkpt lat="37.1588670" lon="-1.9490460">
        <ele>146.5</ele>
        <time>2019-10-18T08:42:00Z</time>
      </trkpt>
      <trkpt lat="37.1588050" lon="-1.9490650">
        <ele>146.4</ele>
        <time>2019-10-18T08:42:01Z</time>
      </trkpt>
      <trkpt lat="37.1587440" lon="-1.9490850">
        <ele>146.3</ele>
        <time>2019-10-18T08:42:02Z</time>
      </trkpt>
      <trkpt lat="37.1586830" lon="-1.9491050">
        <ele>146.3</ele>
        <time>2019-10-18T08:42:03Z</time>
      </trkpt>
      <trkpt lat="37.1586220" lon="-1.9491250">
        <ele>146.2</ele>
        <time>2019-10-18T08:42:04Z</time>
      </trkpt>
      <trkpt lat="37.1585610" lon="-1.9491440">
        <ele>146.0</ele>
        <time>2019-10-18T08:42:05Z</time>
      </trkpt>
      <trkpt lat="37.1585000" lon="-1.9491640">
        <ele>145.9</ele>
        <time>2019-10-18T08:42:06Z</time>
      </trkpt>
      <trkpt lat="37.1584400" lon="-1.9491830">
        <ele>145.7</ele>
        <time>2019-10-18T08:42:07Z</time>
      </trkpt>
      <trkpt lat="37.1583810" lon="-1.9492020">
        <ele>145.6</ele>
        <time>2019-10-18T08:42:08Z</time>
      </trkpt>
      <trkpt lat="37.1583230" lon="-1.9492210">
        <ele>145.4</ele>
        <time>2019-10-18T08:42:09Z</time>
      </trkpt>
      <trkpt lat="37.1582660" lon="-1.9492400">
        <ele>145.2</ele>
        <time>2019-10-18T08:42:10Z</time>
      </trkpt>
      <trkpt lat="37.1582100" lon="-1.9492590">
        <ele>145.0</ele>
        <time>2019-10-18T08:42:11Z</time>
      </trkpt>
      <trkpt lat="37.1581580" lon="-1.9492780">
        <ele>144.8</ele>
        <time>2019-10-18T08:42:12Z</time>
      </trkpt>
      <trkpt lat="37.1581100" lon="-1.9492960">
        <ele>144.5</ele>
        <time>2019-10-18T08:42:13Z</time>
      </trkpt>
      <trkpt lat="37.1580680" lon="-1.9493140">
        <ele>144.4</ele>
        <time>2019-10-18T08:42:14Z</time>
      </trkpt>
      <trkpt lat="37.1580340" lon="-1.9493310">
        <ele>144.6</ele>
        <time>2019-10-18T08:42:15Z</time>
      </trkpt>
      <trkpt lat="37.1580060" lon="-1.9493490">
        <ele>144.7</ele>
        <time>2019-10-18T08:42:16Z</time>
      </trkpt>
      <trkpt lat="37.1579850" lon="-1.9493670">
        <ele>144.7</ele>
        <time>2019-10-18T08:42:17Z</time>
      </trkpt>
      <trkpt lat="37.1579690" lon="-1.9493830">
        <ele>144.8</ele>
        <time>2019-10-18T08:42:18Z</time>
      </trkpt>
      <trkpt lat="37.1579610" lon="-1.9493930">
        <ele>144.8</ele>
        <time>2019-10-18T08:42:19Z</time>
      </trkpt>
      <trkpt lat="37.1579570" lon="-1.9493970">
        <ele>144.9</ele>
        <time>2019-10-18T08:42:20Z</time>
      </trkpt>
      <trkpt lat="37.1579570" lon="-1.9493990">
        <ele>144.9</ele>
        <time>2019-10-18T08:42:21Z</time>
      </trkpt>
      <trkpt lat="37.1579580" lon="-1.9494000">
        <ele>144.9</ele>
        <time>2019-10-18T08:42:22Z</time>
      </trkpt>
      <trkpt lat="37.1579570" lon="-1.9494000">
        <ele>144.9</ele>
        <time>2019-10-18T08:42:23Z</time>
      </trkpt>
      <trkpt lat="37.1579570" lon="-1.9494000">
        <ele>144.9</ele>
        <time>2019-10-18T08:42:24Z</time>
      </trkpt>
      <trkpt lat="37.1579560" lon="-1.9493990">
        <ele>144.9</ele>
        <time>2019-10-18T08:42:25Z</time>
      </trkpt>
      <trkpt lat="37.1579560" lon="-1.9493980">
        <ele>144.9</ele>
        <time>2019-10-18T08:42:26Z</time>
      </trkpt>
      <trkpt lat="37.1579560" lon="-1.9493980">
        <ele>144.9</ele>
        <time>2019-10-18T08:42:27Z</time>
      </trkpt>
      <trkpt lat="37.1579570" lon="-1.9493980">
        <ele>144.9</ele>
        <time>2019-10-18T08:42:28Z</time>
      </trkpt>
      <trkpt lat="37.1579580" lon="-1.9493970">
        <ele>144.9</ele>
        <time>2019-10-18T08:42:29Z</time>
      </trkpt>
      <trkpt lat="37.1579580" lon="-1.9493970">
        <ele>144.9</ele>
        <time>2019-10-18T08:42:30Z</time>
      </trkpt>
      <trkpt lat="37.1579580" lon="-1.9493970">
        <ele>144.9</ele>
        <time>2019-10-18T08:42:31Z</time>
      </trkpt>
      <trkpt lat="37.1579590" lon="-1.9493960">
        <ele>144.9</ele>
        <time>2019-10-18T08:42:32Z</time>
      </trkpt>
      <trkpt lat="37.1579600" lon="-1.9493960">
        <ele>144.9</ele>
        <time>2019-10-18T08:42:33Z</time>
      </trkpt>
      <trkpt lat="37.1579600" lon="-1.9493960">
        <ele>144.9</ele>
        <time>2019-10-18T08:42:34Z</time>
      </trkpt>
      <trkpt lat="37.1579610" lon="-1.9493960">
        <ele>144.9</ele>
        <time>2019-10-18T08:42:35Z</time>
      </trkpt>
      <trkpt lat="37.1579620" lon="-1.9493970">
        <ele>144.9</ele>
        <time>2019-10-18T08:42:36Z</time>
      </trkpt>
      <trkpt lat="37.1579620" lon="-1.9493970">
        <ele>144.9</ele>
        <time>2019-10-18T08:42:37Z</time>
      </trkpt>
      <trkpt lat="37.1579630" lon="-1.9493970">
        <ele>144.9</ele>
        <time>2019-10-18T08:42:38Z</time>
      </trkpt>
      <trkpt lat="37.1579630" lon="-1.9493960">
        <ele>144.9</ele>
        <time>2019-10-18T08:42:39Z</time>
      </trkpt>
      <trkpt lat="37.1579630" lon="-1.9493960">
        <ele>144.9</ele>
        <time>2019-10-18T08:42:40Z</time>
      </trkpt>
      <trkpt lat="37.1579620" lon="-1.9493960">
        <ele>144.9</ele>
        <time>2019-10-18T08:42:41Z</time>
      </trkpt>
      <trkpt lat="37.1579620" lon="-1.9493970">
        <ele>144.9</ele>
        <time>2019-10-18T08:42:42Z</time>
      </trkpt>
      <trkpt lat="37.1579620" lon="-1.9493970">
        <ele>144.9</ele>
        <time>2019-10-18T08:42:43Z</time>
      </trkpt>
      <trkpt lat="37.1579630" lon="-1.9493970">
        <ele>144.9</ele>
        <time>2019-10-18T08:42:44Z</time>
      </trkpt>
      <trkpt lat="37.1579640" lon="-1.9493970">
        <ele>144.9</ele>
        <time>2019-10-18T08:42:45Z</time>
      </trkpt>
      <trkpt lat="37.1579640" lon="-1.9493980">
        <ele>144.9</ele>
        <time>2019-10-18T08:42:46Z</time>
      </trkpt>
      <trkpt lat="37.1579650" lon="-1.9493990">
        <ele>144.9</ele>
        <time>2019-10-18T08:42:47Z</time>
      </trkpt>
      <trkpt lat="37.1579660" lon="-1.9493990">
        <ele>144.9</ele>
        <time>2019-10-18T08:42:48Z</time>
      </trkpt>
      <trkpt lat="37.1579670" lon="-1.9493980">
        <ele>144.9</ele>
        <time>2019-10-18T08:42:49Z</time>
      </trkpt>
      <trkpt lat="37.1579680" lon="-1.9493990">
        <ele>144.9</ele>
        <time>2019-10-18T08:42:50Z</time>
      </trkpt>
      <trkpt lat="37.1579680" lon="-1.9493990">
        <ele>144.9</ele>
        <time>2019-10-18T08:42:51Z</time>
      </trkpt>
      <trkpt lat="37.1579690" lon="-1.9494000">
        <ele>144.9</ele>
        <time>2019-10-18T08:42:52Z</time>
      </trkpt>
      <trkpt lat="37.1579690" lon="-1.9493990">
        <ele>144.9</ele>
        <time>2019-10-18T08:42:53Z</time>
      </trkpt>
      <trkpt lat="37.1579700" lon="-1.9493980">
        <ele>144.9</ele>
        <time>2019-10-18T08:42:54Z</time>
      </trkpt>
      <trkpt lat="37.1579710" lon="-1.9493980">
        <ele>145.0</ele>
        <time>2019-10-18T08:42:55Z</time>
      </trkpt>
      <trkpt lat="37.1579710" lon="-1.9493970">
        <ele>145.0</ele>
        <time>2019-10-18T08:42:56Z</time>
      </trkpt>
      <trkpt lat="37.1579720" lon="-1.9493970">
        <ele>145.0</ele>
        <time>2019-10-18T08:42:57Z</time>
      </trkpt>
      <trkpt lat="37.1579720" lon="-1.9493960">
        <ele>145.0</ele>
        <time>2019-10-18T08:42:58Z</time>
      </trkpt>
      <trkpt lat="37.1579730" lon="-1.9493960">
        <ele>145.0</ele>
        <time>2019-10-18T08:42:59Z</time>
      </trkpt>
      <trkpt lat="37.1579740" lon="-1.9493950">
        <ele>145.0</ele>
        <time>2019-10-18T08:43:00Z</time>
      </trkpt>
      <trkpt lat="37.1579740" lon="-1.9493950">
        <ele>145.0</ele>
        <time>2019-10-18T08:43:01Z</time>
      </trkpt>
      <trkpt lat="37.1579750" lon="-1.9493950">
        <ele>145.0</ele>
        <time>2019-10-18T08:43:02Z</time>
      </trkpt>
      <trkpt lat="37.1579750" lon="-1.9493950">
        <ele>145.0</ele>
        <time>2019-10-18T08:43:03Z</time>
      </trkpt>
      <trkpt lat="37.1579740" lon="-1.9493960">
        <ele>145.0</ele>
        <time>2019-10-18T08:43:04Z</time>
      </trkpt>
      <trkpt lat="37.1579730" lon="-1.9493980">
        <ele>145.0</ele>
        <time>2019-10-18T08:43:05Z</time>
      </trkpt>
      <trkpt lat="37.1579710" lon="-1.9494000">
        <ele>145.0</ele>
        <time>2019-10-18T08:43:06Z</time>
      </trkpt>
      <trkpt lat="37.1579690" lon="-1.9494020">
        <ele>145.0</ele>
        <time>2019-10-18T08:43:07Z</time>
      </trkpt>
      <trkpt lat="37.1579670" lon="-1.9494020">
        <ele>145.0</ele>
        <time>2019-10-18T08:43:08Z</time>
      </trkpt>
      <trkpt lat="37.1579660" lon="-1.9494020">
        <ele>145.0</ele>
        <time>2019-10-18T08:43:09Z</time>
      </trkpt>
      <trkpt lat="37.1579660" lon="-1.9494010">
        <ele>145.0</ele>
        <time>2019-10-18T08:43:10Z</time>
      </trkpt>
      <trkpt lat="37.1579660" lon="-1.9494010">
        <ele>145.0</ele>
        <time>2019-10-18T08:43:11Z</time>
      </trkpt>
      <trkpt lat="37.1579660" lon="-1.9494010">
        <ele>145.0</ele>
        <time>2019-10-18T08:43:12Z</time>
      </trkpt>
      <trkpt lat="37.1579640" lon="-1.9494030">
        <ele>145.0</ele>
        <time>2019-10-18T08:43:13Z</time>
      </trkpt>
      <trkpt lat="37.1579640" lon="-1.9494030">
        <ele>145.0</ele>
        <time>2019-10-18T08:43:14Z</time>
      </trkpt>
      <trkpt lat="37.1579640" lon="-1.9494030">
        <ele>145.0</ele>
        <time>2019-10-18T08:43:15Z</time>
      </trkpt>
      <trkpt lat="37.1579650" lon="-1.9494030">
        <ele>145.0</ele>
        <time>2019-10-18T08:43:16Z</time>
      </trkpt>
      <trkpt lat="37.1579650" lon="-1.9494030">
        <ele>145.0</ele>
        <time>2019-10-18T08:43:17Z</time>
      </trkpt>
      <trkpt lat="37.1579640" lon="-1.9494020">
        <ele>145.0</ele>
        <time>2019-10-18T08:43:18Z</time>
      </trkpt>
      <trkpt lat="37.1579630" lon="-1.9494020">
        <ele>145.0</ele>
        <time>2019-10-18T08:43:19Z</time>
      </trkpt>
      <trkpt lat="37.1579630" lon="-1.9494020">
        <ele>145.0</ele>
        <time>2019-10-18T08:43:20Z</time>
      </trkpt>
      <trkpt lat="37.1579630" lon="-1.9494020">
        <ele>145.0</ele>
        <time>2019-10-18T08:43:21Z</time>
      </trkpt>
      <trkpt lat="37.1579630" lon="-1.9494030">
        <ele>145.0</ele>
        <time>2019-10-18T08:43:22Z</time>
      </trkpt>
      <trkpt lat="37.1579630" lon="-1.9494030">
        <ele>145.0</ele>
        <time>2019-10-18T08:43:23Z</time>
      </trkpt>
      <trkpt lat="37.1579630" lon="-1.9494030">
        <ele>145.0</ele>
        <time>2019-10-18T08:43:24Z</time>
      </trkpt>
      <trkpt lat="37.1579630" lon="-1.9494040">
        <ele>145.0</ele>
        <time>2019-10-18T08:43:25Z</time>
      </trkpt>
      <trkpt lat="37.1579610" lon="-1.9494070">
        <ele>145.0</ele>
        <time>2019-10-18T08:43:26Z</time>
      </trkpt>
      <trkpt lat="37.1579550" lon="-1.9494130">
        <ele>145.1</ele>
        <time>2019-10-18T08:43:27Z</time>
      </trkpt>
      <trkpt lat="37.1579430" lon="-1.9494260">
        <ele>145.1</ele>
        <time>2019-10-18T08:43:28Z</time>
      </trkpt>
      <trkpt lat="37.1579260" lon="-1.9494410">
        <ele>145.2</ele>
        <time>2019-10-18T08:43:29Z</time>
      </trkpt>
      <trkpt lat="37.1579050" lon="-1.9494590">
        <ele>145.3</ele>
        <time>2019-10-18T08:43:30Z</time>
      </trkpt>
      <trkpt lat="37.1578840" lon="-1.9494810">
        <ele>145.3</ele>
        <time>2019-10-18T08:43:31Z</time>
      </trkpt>
      <trkpt lat="37.1578630" lon="-1.9495100">
        <ele>145.6</ele>
        <time>2019-10-18T08:43:32Z</time>
      </trkpt>
      <trkpt lat="37.1578410" lon="-1.9495430">
        <ele>145.8</ele>
        <time>2019-10-18T08:43:33Z</time>
      </trkpt>
      <trkpt lat="37.1578130" lon="-1.9495750">
        <ele>146.0</ele>
        <time>2019-10-18T08:43:34Z</time>
      </trkpt>
      <trkpt lat="37.1577800" lon="-1.9496020">
        <ele>146.2</ele>
        <time>2019-10-18T08:43:35Z</time>
      </trkpt>
      <trkpt lat="37.1577400" lon="-1.9496200">
        <ele>146.4</ele>
        <time>2019-10-18T08:43:36Z</time>
      </trkpt>
      <trkpt lat="37.1576950" lon="-1.9496260">
        <ele>146.7</ele>
        <time>2019-10-18T08:43:37Z</time>
      </trkpt>
      <trkpt lat="37.1576470" lon="-1.9496190">
        <ele>146.9</ele>
        <time>2019-10-18T08:43:38Z</time>
      </trkpt>
      <trkpt lat="37.1575990" lon="-1.9495990">
        <ele>147.2</ele>
        <time>2019-10-18T08:43:39Z</time>
      </trkpt>
      <trkpt lat="37.1575580" lon="-1.9495650">
        <ele>147.2</ele>
        <time>2019-10-18T08:43:40Z</time>
      </trkpt>
      <trkpt lat="37.1575240" lon="-1.9495170">
        <ele>147.2</ele>
        <time>2019-10-18T08:43:41Z</time>
      </trkpt>
      <trkpt lat="37.1574980" lon="-1.9494560">
        <ele>147.3</ele>
        <time>2019-10-18T08:43:42Z</time>
      </trkpt>
      <trkpt lat="37.1574800" lon="-1.9493880">
        <ele>147.0</ele>
        <time>2019-10-18T08:43:43Z</time>
      </trkpt>
      <trkpt lat="37.1574670" lon="-1.9493160">
        <ele>146.6</ele>
        <time>2019-10-18T08:43:44Z</time>
      </trkpt>
      <trkpt lat="37.1574550" lon="-1.9492410">
        <ele>146.2</ele>
        <time>2019-10-18T08:43:45Z</time>
      </trkpt>
      <trkpt lat="37.1574410" lon="-1.9491630">
        <ele>145.3</ele>
        <time>2019-10-18T08:43:46Z</time>
      </trkpt>
      <trkpt lat="37.1574220" lon="-1.9490840">
        <ele>144.8</ele>
        <time>2019-10-18T08:43:47Z</time>
      </trkpt>
      <trkpt lat="37.1573970" lon="-1.9490020">
        <ele>144.2</ele>
        <time>2019-10-18T08:43:48Z</time>
      </trkpt>
      <trkpt lat="37.1573640" lon="-1.9489200">
        <ele>143.6</ele>
        <time>2019-10-18T08:43:49Z</time>
      </trkpt>
      <trkpt lat="37.1573230" lon="-1.9488380">
        <ele>143.1</ele>
        <time>2019-10-18T08:43:50Z</time>
      </trkpt>
      <trkpt lat="37.1572770" lon="-1.9487620">
        <ele>142.8</ele>
        <time>2019-10-18T08:43:51Z</time>
      </trkpt>
      <trkpt lat="37.1572250" lon="-1.9486900">
        <ele>142.5</ele>
        <time>2019-10-18T08:43:52Z</time>
      </trkpt>
      <trkpt lat="37.1571710" lon="-1.9486230">
        <ele>142.1</ele>
        <time>2019-10-18T08:43:53Z</time>
      </trkpt>
      <trkpt lat="37.1571140" lon="-1.9485640">
        <ele>141.8</ele>
        <time>2019-10-18T08:43:54Z</time>
      </trkpt>
      <trkpt lat="37.1570570" lon="-1.9485140">
        <ele>141.5</ele>
        <time>2019-10-18T08:43:55Z</time>
      </trkpt>
      <trkpt lat="37.1570010" lon="-1.9484750">
        <ele>141.3</ele>
        <time>2019-10-18T08:43:56Z</time>
      </trkpt>
      <trkpt lat="37.1569490" lon="-1.9484490">
        <ele>141.0</ele>
        <time>2019-10-18T08:43:57Z</time>
      </trkpt>
      <trkpt lat="37.1569010" lon="-1.9484450">
        <ele>140.9</ele>
        <time>2019-10-18T08:43:58Z</time>
      </trkpt>
      <trkpt lat="37.1568610" lon="-1.9484640">
        <ele>141.2</ele>
        <time>2019-10-18T08:43:59Z</time>
      </trkpt>
      <trkpt lat="37.1568330" lon="-1.9485040">
        <ele>141.7</ele>
        <time>2019-10-18T08:44:00Z</time>
      </trkpt>
      <trkpt lat="37.1568240" lon="-1.9485530">
        <ele>142.1</ele>
        <time>2019-10-18T08:44:01Z</time>
      </trkpt>
      <trkpt lat="37.1568270" lon="-1.9486010">
        <ele>142.4</ele>
        <time>2019-10-18T08:44:02Z</time>
      </trkpt>
      <trkpt lat="37.1568390" lon="-1.9486470">
        <ele>142.9</ele>
        <time>2019-10-18T08:44:03Z</time>
      </trkpt>
      <trkpt lat="37.1568530" lon="-1.9486920">
        <ele>143.2</ele>
        <time>2019-10-18T08:44:04Z</time>
      </trkpt>
      <trkpt lat="37.1568690" lon="-1.9487350">
        <ele>143.6</ele>
        <time>2019-10-18T08:44:05Z</time>
      </trkpt>
      <trkpt lat="37.1568850" lon="-1.9487780">
        <ele>144.0</ele>
        <time>2019-10-18T08:44:06Z</time>
      </trkpt>
      <trkpt lat="37.1569010" lon="-1.9488220">
        <ele>144.6</ele>
        <time>2019-10-18T08:44:07Z</time>
      </trkpt>
      <trkpt lat="37.1569160" lon="-1.9488670">
        <ele>145.1</ele>
        <time>2019-10-18T08:44:08Z</time>
      </trkpt>
      <trkpt lat="37.1569300" lon="-1.9489120">
        <ele>145.5</ele>
        <time>2019-10-18T08:44:09Z</time>
      </trkpt>
      <trkpt lat="37.1569440" lon="-1.9489580">
        <ele>145.9</ele>
        <time>2019-10-18T08:44:10Z</time>
      </trkpt>
      <trkpt lat="37.1569540" lon="-1.9490040">
        <ele>146.3</ele>
        <time>2019-10-18T08:44:11Z</time>
      </trkpt>
      <trkpt lat="37.1569650" lon="-1.9490510">
        <ele>146.8</ele>
        <time>2019-10-18T08:44:12Z</time>
      </trkpt>
      <trkpt lat="37.1569740" lon="-1.9490970">
        <ele>147.2</ele>
        <time>2019-10-18T08:44:13Z</time>
      </trkpt>
      <trkpt lat="37.1569830" lon="-1.9491420">
        <ele>147.6</ele>
        <time>2019-10-18T08:44:14Z</time>
      </trkpt>
      <trkpt lat="37.1569910" lon="-1.9491870">
        <ele>148.0</ele>
        <time>2019-10-18T08:44:15Z</time>
      </trkpt>
      <trkpt lat="37.1569980" lon="-1.9492320">
        <ele>148.4</ele>
        <time>2019-10-18T08:44:16Z</time>
      </trkpt>
      <trkpt lat="37.1570040" lon="-1.9492770">
        <ele>148.7</ele>
        <time>2019-10-18T08:44:17Z</time>
      </trkpt>
      <trkpt lat="37.1570090" lon="-1.9493220">
        <ele>148.9</ele>
        <time>2019-10-18T08:44:18Z</time>
      </trkpt>
      <trkpt lat="37.1570130" lon="-1.9493670">
        <ele>149.0</ele>
        <time>2019-10-18T08:44:19Z</time>
      </trkpt>
      <trkpt lat="37.1570150" lon="-1.9494140">
        <ele>149.1</ele>
        <time>2019-10-18T08:44:20Z</time>
      </trkpt>
      <trkpt lat="37.1570180" lon="-1.9494620">
        <ele>149.1</ele>
        <time>2019-10-18T08:44:21Z</time>
      </trkpt>
      <trkpt lat="37.1570190" lon="-1.9495100">
        <ele>149.1</ele>
        <time>2019-10-18T08:44:22Z</time>
      </trkpt>
      <trkpt lat="37.1570190" lon="-1.9495600">
        <ele>149.0</ele>
        <time>2019-10-18T08:44:23Z</time>
      </trkpt>
      <trkpt lat="37.1570180" lon="-1.9496100">
        <ele>149.0</ele>
        <time>2019-10-18T08:44:24Z</time>
      </trkpt>
      <trkpt lat="37.1570160" lon="-1.9496620">
        <ele>148.9</ele>
        <time>2019-10-18T08:44:25Z</time>
      </trkpt>
      <trkpt lat="37.1570140" lon="-1.9497130">
        <ele>148.9</ele>
        <time>2019-10-18T08:44:26Z</time>
      </trkpt>
      <trkpt lat="37.1570090" lon="-1.9497650">
        <ele>148.9</ele>
        <time>2019-10-18T08:44:27Z</time>
      </trkpt>
      <trkpt lat="37.1570020" lon="-1.9498180">
        <ele>148.8</ele>
        <time>2019-10-18T08:44:28Z</time>
      </trkpt>
      <trkpt lat="37.1569940" lon="-1.9498730">
        <ele>148.7</ele>
        <time>2019-10-18T08:44:29Z</time>
      </trkpt>
      <trkpt lat="37.1569850" lon="-1.9499290">
        <ele>148.5</ele>
        <time>2019-10-18T08:44:30Z</time>
      </trkpt>
      <trkpt lat="37.1569740" lon="-1.9499880">
        <ele>148.4</ele>
        <time>2019-10-18T08:44:31Z</time>
      </trkpt>
      <trkpt lat="37.1569600" lon="-1.9500490">
        <ele>148.2</ele>
        <time>2019-10-18T08:44:32Z</time>
      </trkpt>
      <trkpt lat="37.1569440" lon="-1.9501130">
        <ele>147.9</ele>
        <time>2019-10-18T08:44:33Z</time>
      </trkpt>
      <trkpt lat="37.1569240" lon="-1.9501810">
        <ele>147.7</ele>
        <time>2019-10-18T08:44:34Z</time>
      </trkpt>
      <trkpt lat="37.1569020" lon="-1.9502520">
        <ele>147.5</ele>
        <time>2019-10-18T08:44:35Z</time>
      </trkpt>
      <trkpt lat="37.1568790" lon="-1.9503280">
        <ele>147.3</ele>
        <time>2019-10-18T08:44:36Z</time>
      </trkpt>
      <trkpt lat="37.1568540" lon="-1.9504080">
        <ele>147.2</ele>
        <time>2019-10-18T08:44:37Z</time>
      </trkpt>
      <trkpt lat="37.1568270" lon="-1.9504920">
        <ele>147.0</ele>
        <time>2019-10-18T08:44:38Z</time>
      </trkpt>
      <trkpt lat="37.1567990" lon="-1.9505790">
        <ele>146.9</ele>
        <time>2019-10-18T08:44:39Z</time>
      </trkpt>
      <trkpt lat="37.1567700" lon="-1.9506690">
        <ele>146.8</ele>
        <time>2019-10-18T08:44:40Z</time>
      </trkpt>
      <trkpt lat="37.1567390" lon="-1.9507610">
        <ele>146.8</ele>
        <time>2019-10-18T08:44:41Z</time>
      </trkpt>
      <trkpt lat="37.1567060" lon="-1.9508540">
        <ele>146.6</ele>
        <time>2019-10-18T08:44:42Z</time>
      </trkpt>
      <trkpt lat="37.1566690" lon="-1.9509470">
        <ele>146.5</ele>
        <time>2019-10-18T08:44:43Z</time>
      </trkpt>
      <trkpt lat="37.1566280" lon="-1.9510380">
        <ele>146.3</ele>
        <time>2019-10-18T08:44:44Z</time>
      </trkpt>
      <trkpt lat="37.1565840" lon="-1.9511260">
        <ele>146.1</ele>
        <time>2019-10-18T08:44:45Z</time>
      </trkpt>
      <trkpt lat="37.1565370" lon="-1.9512100">
        <ele>145.8</ele>
        <time>2019-10-18T08:44:46Z</time>
      </trkpt>
      <trkpt lat="37.1564860" lon="-1.9512900">
        <ele>145.6</ele>
        <time>2019-10-18T08:44:47Z</time>
      </trkpt>
      <trkpt lat="37.1564330" lon="-1.9513680">
        <ele>145.5</ele>
        <time>2019-10-18T08:44:48Z</time>
      </trkpt>
      <trkpt lat="37.1563790" lon="-1.9514430">
        <ele>145.3</ele>
        <time>2019-10-18T08:44:49Z</time>
      </trkpt>
      <trkpt lat="37.1563230" lon="-1.9515150">
        <ele>145.2</ele>
        <time>2019-10-18T08:44:50Z</time>
      </trkpt>
      <trkpt lat="37.1562640" lon="-1.9515850">
        <ele>145.4</ele>
        <time>2019-10-18T08:44:51Z</time>
      </trkpt>
      <trkpt lat="37.1562030" lon="-1.9516530">
        <ele>145.2</ele>
        <time>2019-10-18T08:44:52Z</time>
      </trkpt>
      <trkpt lat="37.1561410" lon="-1.9517210">
        <ele>145.0</ele>
        <time>2019-10-18T08:44:53Z</time>
      </trkpt>
      <trkpt lat="37.1560760" lon="-1.9517870">
        <ele>144.6</ele>
        <time>2019-10-18T08:44:54Z</time>
      </trkpt>
      <trkpt lat="37.1560090" lon="-1.9518520">
        <ele>144.3</ele>
        <time>2019-10-18T08:44:55Z</time>
      </trkpt>
      <trkpt lat="37.1559400" lon="-1.9519150">
        <ele>144.4</ele>
        <time>2019-10-18T08:44:56Z</time>
      </trkpt>
      <trkpt lat="37.1558700" lon="-1.9519770">
        <ele>144.3</ele>
        <time>2019-10-18T08:44:57Z</time>
      </trkpt>
      <trkpt lat="37.1558010" lon="-1.9520380">
        <ele>144.3</ele>
        <time>2019-10-18T08:44:58Z</time>
      </trkpt>
      <trkpt lat="37.1557310" lon="-1.9520970">
        <ele>144.0</ele>
        <time>2019-10-18T08:44:59Z</time>
      </trkpt>
      <trkpt lat="37.1556620" lon="-1.9521540">
        <ele>143.9</ele>
        <time>2019-10-18T08:45:00Z</time>
      </trkpt>
      <trkpt lat="37.1555930" lon="-1.9522110">
        <ele>143.5</ele>
        <time>2019-10-18T08:45:01Z</time>
      </trkpt>
      <trkpt lat="37.1555240" lon="-1.9522670">
        <ele>143.0</ele>
        <time>2019-10-18T08:45:02Z</time>
      </trkpt>
      <trkpt lat="37.1554540" lon="-1.9523220">
        <ele>142.3</ele>
        <time>2019-10-18T08:45:03Z</time>
      </trkpt>
      <trkpt lat="37.1553850" lon="-1.9523750">
        <ele>141.8</ele>
        <time>2019-10-18T08:45:04Z</time>
      </trkpt>
      <trkpt lat="37.1553140" lon="-1.9524260">
        <ele>141.3</ele>
        <time>2019-10-18T08:45:05Z</time>
      </trkpt>
      <trkpt lat="37.1552440" lon="-1.9524770">
        <ele>140.7</ele>
        <time>2019-10-18T08:45:06Z</time>
      </trkpt>
      <trkpt lat="37.1551730" lon="-1.9525270">
        <ele>140.5</ele>
        <time>2019-10-18T08:45:07Z</time>
      </trkpt>
      <trkpt lat="37.1551010" lon="-1.9525780">
        <ele>140.2</ele>
        <time>2019-10-18T08:45:08Z</time>
      </trkpt>
      <trkpt lat="37.1550300" lon="-1.9526290">
        <ele>139.8</ele>
        <time>2019-10-18T08:45:09Z</time>
      </trkpt>
      <trkpt lat="37.1549590" lon="-1.9526800">
        <ele>139.4</ele>
        <time>2019-10-18T08:45:10Z</time>
      </trkpt>
      <trkpt lat="37.1548870" lon="-1.9527300">
        <ele>139.0</ele>
        <time>2019-10-18T08:45:11Z</time>
      </trkpt>
      <trkpt lat="37.1548170" lon="-1.9527800">
        <ele>138.7</ele>
        <time>2019-10-18T08:45:12Z</time>
      </trkpt>
      <trkpt lat="37.1547470" lon="-1.9528290">
        <ele>138.4</ele>
        <time>2019-10-18T08:45:13Z</time>
      </trkpt>
      <trkpt lat="37.1546790" lon="-1.9528770">
        <ele>138.2</ele>
        <time>2019-10-18T08:45:14Z</time>
      </trkpt>
      <trkpt lat="37.1546120" lon="-1.9529240">
        <ele>138.1</ele>
        <time>2019-10-18T08:45:15Z</time>
      </trkpt>
      <trkpt lat="37.1545460" lon="-1.9529700">
        <ele>137.9</ele>
        <time>2019-10-18T08:45:16Z</time>
      </trkpt>
      <trkpt lat="37.1544790" lon="-1.9530150">
        <ele>137.9</ele>
        <time>2019-10-18T08:45:17Z</time>
      </trkpt>
      <trkpt lat="37.1544130" lon="-1.9530600">
        <ele>138.2</ele>
        <time>2019-10-18T08:45:18Z</time>
      </trkpt>
      <trkpt lat="37.1543460" lon="-1.9531050">
        <ele>138.4</ele>
        <time>2019-10-18T08:45:19Z</time>
      </trkpt>
      <trkpt lat="37.1542780" lon="-1.9531510">
        <ele>138.5</ele>
        <time>2019-10-18T08:45:20Z</time>
      </trkpt>
      <trkpt lat="37.1542110" lon="-1.9531980">
        <ele>138.6</ele>
        <time>2019-10-18T08:45:21Z</time>
      </trkpt>
      <trkpt lat="37.1541430" lon="-1.9532450">
        <ele>138.5</ele>
        <time>2019-10-18T08:45:22Z</time>
      </trkpt>
      <trkpt lat="37.1540730" lon="-1.9532920">
        <ele>138.4</ele>
        <time>2019-10-18T08:45:23Z</time>
      </trkpt>
      <trkpt lat="37.1540010" lon="-1.9533400">
        <ele>138.5</ele>
        <time>2019-10-18T08:45:24Z</time>
      </trkpt>
      <trkpt lat="37.1539260" lon="-1.9533900">
        <ele>138.4</ele>
        <time>2019-10-18T08:45:25Z</time>
      </trkpt>
      <trkpt lat="37.1538490" lon="-1.9534420">
        <ele>138.2</ele>
        <time>2019-10-18T08:45:26Z</time>
      </trkpt>
      <trkpt lat="37.1537690" lon="-1.9534940">
        <ele>137.8</ele>
        <time>2019-10-18T08:45:27Z</time>
      </trkpt>
      <trkpt lat="37.1536860" lon="-1.9535480">
        <ele>137.2</ele>
        <time>2019-10-18T08:45:28Z</time>
      </trkpt>
      <trkpt lat="37.1536020" lon="-1.9536020">
        <ele>136.5</ele>
        <time>2019-10-18T08:45:29Z</time>
      </trkpt>
      <trkpt lat="37.1535150" lon="-1.9536580">
        <ele>135.6</ele>
        <time>2019-10-18T08:45:30Z</time>
      </trkpt>
      <trkpt lat="37.1534260" lon="-1.9537160">
        <ele>135.1</ele>
        <time>2019-10-18T08:45:31Z</time>
      </trkpt>
      <trkpt lat="37.1533360" lon="-1.9537750">
        <ele>134.6</ele>
        <time>2019-10-18T08:45:32Z</time>
      </trkpt>
      <trkpt lat="37.1532450" lon="-1.9538370">
        <ele>134.0</ele>
        <time>2019-10-18T08:45:33Z</time>
      </trkpt>
      <trkpt lat="37.1531550" lon="-1.9538990">
        <ele>133.2</ele>
        <time>2019-10-18T08:45:34Z</time>
      </trkpt>
      <trkpt lat="37.1530670" lon="-1.9539630">
        <ele>132.5</ele>
        <time>2019-10-18T08:45:35Z</time>
      </trkpt>
      <trkpt lat="37.1529830" lon="-1.9540280">
        <ele>132.1</ele>
        <time>2019-10-18T08:45:36Z</time>
      </trkpt>
      <trkpt lat="37.1529020" lon="-1.9540930">
        <ele>132.0</ele>
        <time>2019-10-18T08:45:37Z</time>
      </trkpt>
      <trkpt lat="37.1528250" lon="-1.9541580">
        <ele>132.2</ele>
        <time>2019-10-18T08:45:38Z</time>
      </trkpt>
      <trkpt lat="37.1527530" lon="-1.9542200">
        <ele>132.2</ele>
        <time>2019-10-18T08:45:39Z</time>
      </trkpt>
      <trkpt lat="37.1526860" lon="-1.9542800">
        <ele>132.5</ele>
        <time>2019-10-18T08:45:40Z</time>
      </trkpt>
      <trkpt lat="37.1526240" lon="-1.9543360">
        <ele>132.5</ele>
        <time>2019-10-18T08:45:41Z</time>
      </trkpt>
      <trkpt lat="37.1525680" lon="-1.9543890">
        <ele>132.8</ele>
        <time>2019-10-18T08:45:42Z</time>
      </trkpt>
      <trkpt lat="37.1525150" lon="-1.9544390">
        <ele>132.9</ele>
        <time>2019-10-18T08:45:43Z</time>
      </trkpt>
      <trkpt lat="37.1524650" lon="-1.9544840">
        <ele>133.2</ele>
        <time>2019-10-18T08:45:44Z</time>
      </trkpt>
      <trkpt lat="37.1524180" lon="-1.9545270">
        <ele>133.5</ele>
        <time>2019-10-18T08:45:45Z</time>
      </trkpt>
      <trkpt lat="37.1523740" lon="-1.9545670">
        <ele>133.6</ele>
        <time>2019-10-18T08:45:46Z</time>
      </trkpt>
      <trkpt lat="37.1523320" lon="-1.9546070">
        <ele>133.8</ele>
        <time>2019-10-18T08:45:47Z</time>
      </trkpt>
      <trkpt lat="37.1522900" lon="-1.9546450">
        <ele>134.1</ele>
        <time>2019-10-18T08:45:48Z</time>
      </trkpt>
      <trkpt lat="37.1522490" lon="-1.9546820">
        <ele>134.3</ele>
        <time>2019-10-18T08:45:49Z</time>
      </trkpt>
      <trkpt lat="37.1522080" lon="-1.9547180">
        <ele>134.4</ele>
        <time>2019-10-18T08:45:50Z</time>
      </trkpt>
      <trkpt lat="37.1521690" lon="-1.9547530">
        <ele>134.7</ele>
        <time>2019-10-18T08:45:51Z</time>
      </trkpt>
      <trkpt lat="37.1521300" lon="-1.9547880">
        <ele>134.9</ele>
        <time>2019-10-18T08:45:52Z</time>
      </trkpt>
      <trkpt lat="37.1520920" lon="-1.9548240">
        <ele>135.0</ele>
        <time>2019-10-18T08:45:53Z</time>
      </trkpt>
      <trkpt lat="37.1520530" lon="-1.9548580">
        <ele>135.1</ele>
        <time>2019-10-18T08:45:54Z</time>
      </trkpt>
      <trkpt lat="37.1520140" lon="-1.9548930">
        <ele>135.2</ele>
        <time>2019-10-18T08:45:55Z</time>
      </trkpt>
      <trkpt lat="37.1519740" lon="-1.9549280">
        <ele>135.3</ele>
        <time>2019-10-18T08:45:56Z</time>
      </trkpt>
      <trkpt lat="37.1519330" lon="-1.9549630">
        <ele>135.6</ele>
        <time>2019-10-18T08:45:57Z</time>
      </trkpt>
      <trkpt lat="37.1518920" lon="-1.9549990">
        <ele>135.6</ele>
        <time>2019-10-18T08:45:58Z</time>
      </trkpt>
      <trkpt lat="37.1518500" lon="-1.9550350">
        <ele>135.7</ele>
        <time>2019-10-18T08:45:59Z</time>
      </trkpt>
      <trkpt lat="37.1518080" lon="-1.9550720">
        <ele>136.0</ele>
        <time>2019-10-18T08:46:00Z</time>
      </trkpt>
      <trkpt lat="37.1517650" lon="-1.9551100">
        <ele>136.1</ele>
        <time>2019-10-18T08:46:01Z</time>
      </trkpt>
      <trkpt lat="37.1517220" lon="-1.9551480">
        <ele>136.2</ele>
        <time>2019-10-18T08:46:02Z</time>
      </trkpt>
      <trkpt lat="37.1516790" lon="-1.9551870">
        <ele>136.4</ele>
        <time>2019-10-18T08:46:03Z</time>
      </trkpt>
      <trkpt lat="37.1516350" lon="-1.9552260">
        <ele>136.6</ele>
        <time>2019-10-18T08:46:04Z</time>
      </trkpt>
      <trkpt lat="37.1515910" lon="-1.9552650">
        <ele>136.7</ele>
        <time>2019-10-18T08:46:05Z</time>
      </trkpt>
      <trkpt lat="37.1515470" lon="-1.9553050">
        <ele>136.8</ele>
        <time>2019-10-18T08:46:06Z</time>
      </trkpt>
      <trkpt lat="37.1515030" lon="-1.9553450">
        <ele>136.9</ele>
        <time>2019-10-18T08:46:07Z</time>
      </trkpt>
      <trkpt lat="37.1514600" lon="-1.9553870">
        <ele>136.8</ele>
        <time>2019-10-18T08:46:08Z</time>
      </trkpt>
      <trkpt lat="37.1514180" lon="-1.9554290">
        <ele>136.8</ele>
        <time>2019-10-18T08:46:09Z</time>
      </trkpt>
      <trkpt lat="37.1513760" lon="-1.9554730">
        <ele>136.8</ele>
        <time>2019-10-18T08:46:10Z</time>
      </trkpt>
      <trkpt lat="37.1513340" lon="-1.9555170">
        <ele>136.8</ele>
        <time>2019-10-18T08:46:11Z</time>
      </trkpt>
      <trkpt lat="37.1512930" lon="-1.9555620">
        <ele>137.0</ele>
        <time>2019-10-18T08:46:12Z</time>
      </trkpt>
      <trkpt lat="37.1512520" lon="-1.9556070">
        <ele>137.3</ele>
        <time>2019-10-18T08:46:13Z</time>
      </trkpt>
      <trkpt lat="37.1512110" lon="-1.9556520">
        <ele>137.4</ele>
        <time>2019-10-18T08:46:14Z</time>
      </trkpt>
      <trkpt lat="37.1511710" lon="-1.9556980">
        <ele>137.5</ele>
        <time>2019-10-18T08:46:15Z</time>
      </trkpt>
      <trkpt lat="37.1511300" lon="-1.9557440">
        <ele>137.6</ele>
        <time>2019-10-18T08:46:16Z</time>
      </trkpt>
      <trkpt lat="37.1510890" lon="-1.9557900">
        <ele>137.8</ele>
        <time>2019-10-18T08:46:17Z</time>
      </trkpt>
      <trkpt lat="37.1510480" lon="-1.9558370">
        <ele>138.0</ele>
        <time>2019-10-18T08:46:18Z</time>
      </trkpt>
      <trkpt lat="37.1510060" lon="-1.9558830">
        <ele>138.0</ele>
        <time>2019-10-18T08:46:19Z</time>
      </trkpt>
      <trkpt lat="37.1509630" lon="-1.9559290">
        <ele>138.1</ele>
        <time>2019-10-18T08:46:20Z</time>
      </trkpt>
      <trkpt lat="37.1509200" lon="-1.9559750">
        <ele>138.3</ele>
        <time>2019-10-18T08:46:21Z</time>
      </trkpt>
      <trkpt lat="37.1508780" lon="-1.9560210">
        <ele>138.7</ele>
        <time>2019-10-18T08:46:22Z</time>
      </trkpt>
      <trkpt lat="37.1508350" lon="-1.9560660">
        <ele>138.8</ele>
        <time>2019-10-18T08:46:23Z</time>
      </trkpt>
      <trkpt lat="37.1507930" lon="-1.9561120">
        <ele>138.8</ele>
        <time>2019-10-18T08:46:24Z</time>
      </trkpt>
      <trkpt lat="37.1507500" lon="-1.9561570">
        <ele>139.0</ele>
        <time>2019-10-18T08:46:25Z</time>
      </trkpt>
      <trkpt lat="37.1507070" lon="-1.9562030">
        <ele>139.1</ele>
        <time>2019-10-18T08:46:26Z</time>
      </trkpt>
      <trkpt lat="37.1506630" lon="-1.9562490">
        <ele>139.1</ele>
        <time>2019-10-18T08:46:27Z</time>
      </trkpt>
      <trkpt lat="37.1506190" lon="-1.9562950">
        <ele>139.2</ele>
        <time>2019-10-18T08:46:28Z</time>
      </trkpt>
      <trkpt lat="37.1505760" lon="-1.9563420">
        <ele>139.4</ele>
        <time>2019-10-18T08:46:29Z</time>
      </trkpt>
      <trkpt lat="37.1505320" lon="-1.9563880">
        <ele>139.6</ele>
        <time>2019-10-18T08:46:30Z</time>
      </trkpt>
      <trkpt lat="37.1504880" lon="-1.9564340">
        <ele>139.5</ele>
        <time>2019-10-18T08:46:31Z</time>
      </trkpt>
      <trkpt lat="37.1504440" lon="-1.9564800">
        <ele>139.5</ele>
        <time>2019-10-18T08:46:32Z</time>
      </trkpt>
      <trkpt lat="37.1504010" lon="-1.9565260">
        <ele>139.7</ele>
        <time>2019-10-18T08:46:33Z</time>
      </trkpt>
      <trkpt lat="37.1503580" lon="-1.9565720">
        <ele>139.7</ele>
        <time>2019-10-18T08:46:34Z</time>
      </trkpt>
      <trkpt lat="37.1503150" lon="-1.9566170">
        <ele>139.7</ele>
        <time>2019-10-18T08:46:35Z</time>
      </trkpt>
      <trkpt lat="37.1502710" lon="-1.9566620">
        <ele>139.5</ele>
        <time>2019-10-18T08:46:36Z</time>
      </trkpt>
      <trkpt lat="37.1502280" lon="-1.9567070">
        <ele>139.6</ele>
        <time>2019-10-18T08:46:37Z</time>
      </trkpt>
      <trkpt lat="37.1501850" lon="-1.9567520">
        <ele>139.7</ele>
        <time>2019-10-18T08:46:38Z</time>
      </trkpt>
      <trkpt lat="37.1501430" lon="-1.9567960">
        <ele>139.8</ele>
        <time>2019-10-18T08:46:39Z</time>
      </trkpt>
      <trkpt lat="37.1501000" lon="-1.9568410">
        <ele>139.8</ele>
        <time>2019-10-18T08:46:40Z</time>
      </trkpt>
      <trkpt lat="37.1500570" lon="-1.9568850">
        <ele>139.7</ele>
        <time>2019-10-18T08:46:41Z</time>
      </trkpt>
      <trkpt lat="37.1500130" lon="-1.9569300">
        <ele>139.8</ele>
        <time>2019-10-18T08:46:42Z</time>
      </trkpt>
      <trkpt lat="37.1499700" lon="-1.9569740">
        <ele>139.8</ele>
        <time>2019-10-18T08:46:43Z</time>
      </trkpt>
      <trkpt lat="37.1499270" lon="-1.9570170">
        <ele>139.8</ele>
        <time>2019-10-18T08:46:44Z</time>
      </trkpt>
      <trkpt lat="37.1498830" lon="-1.9570610">
        <ele>139.7</ele>
        <time>2019-10-18T08:46:45Z</time>
      </trkpt>
      <trkpt lat="37.1498400" lon="-1.9571050">
        <ele>139.6</ele>
        <time>2019-10-18T08:46:46Z</time>
      </trkpt>
      <trkpt lat="37.1497970" lon="-1.9571490">
        <ele>139.5</ele>
        <time>2019-10-18T08:46:47Z</time>
      </trkpt>
      <trkpt lat="37.1497540" lon="-1.9571930">
        <ele>139.5</ele>
        <time>2019-10-18T08:46:48Z</time>
      </trkpt>
      <trkpt lat="37.1497120" lon="-1.9572370">
        <ele>139.5</ele>
        <time>2019-10-18T08:46:49Z</time>
      </trkpt>
      <trkpt lat="37.1496700" lon="-1.9572810">
        <ele>139.4</ele>
        <time>2019-10-18T08:46:50Z</time>
      </trkpt>
      <trkpt lat="37.1496270" lon="-1.9573250">
        <ele>139.3</ele>
        <time>2019-10-18T08:46:51Z</time>
      </trkpt>
      <trkpt lat="37.1495850" lon="-1.9573680">
        <ele>139.3</ele>
        <time>2019-10-18T08:46:52Z</time>
      </trkpt>
      <trkpt lat="37.1495430" lon="-1.9574130">
        <ele>139.4</ele>
        <time>2019-10-18T08:46:53Z</time>
      </trkpt>
      <trkpt lat="37.1495020" lon="-1.9574570">
        <ele>139.4</ele>
        <time>2019-10-18T08:46:54Z</time>
      </trkpt>
      <trkpt lat="37.1494610" lon="-1.9575010">
        <ele>139.4</ele>
        <time>2019-10-18T08:46:55Z</time>
      </trkpt>
      <trkpt lat="37.1494190" lon="-1.9575450">
        <ele>139.5</ele>
        <time>2019-10-18T08:46:56Z</time>
      </trkpt>
      <trkpt lat="37.1493780" lon="-1.9575880">
        <ele>139.7</ele>
        <time>2019-10-18T08:46:57Z</time>
      </trkpt>
      <trkpt lat="37.1493370" lon="-1.9576300">
        <ele>140.0</ele>
        <time>2019-10-18T08:46:58Z</time>
      </trkpt>
      <trkpt lat="37.1492960" lon="-1.9576730">
        <ele>140.3</ele>
        <time>2019-10-18T08:46:59Z</time>
      </trkpt>
      <trkpt lat="37.1492560" lon="-1.9577150">
        <ele>140.4</ele>
        <time>2019-10-18T08:47:00Z</time>
      </trkpt>
      <trkpt lat="37.1492160" lon="-1.9577580">
        <ele>140.5</ele>
        <time>2019-10-18T08:47:01Z</time>
      </trkpt>
      <trkpt lat="37.1491750" lon="-1.9578000">
        <ele>140.8</ele>
        <time>2019-10-18T08:47:02Z</time>
      </trkpt>
      <trkpt lat="37.1491350" lon="-1.9578430">
        <ele>141.0</ele>
        <time>2019-10-18T08:47:03Z</time>
      </trkpt>
      <trkpt lat="37.1490940" lon="-1.9578860">
        <ele>141.3</ele>
        <time>2019-10-18T08:47:04Z</time>
      </trkpt>
      <trkpt lat="37.1490530" lon="-1.9579280">
        <ele>141.5</ele>
        <time>2019-10-18T08:47:05Z</time>
      </trkpt>
      <trkpt lat="37.1490110" lon="-1.9579710">
        <ele>141.6</ele>
        <time>2019-10-18T08:47:06Z</time>
      </trkpt>
      <trkpt lat="37.1489700" lon="-1.9580130">
        <ele>141.8</ele>
        <time>2019-10-18T08:47:07Z</time>
      </trkpt>
      <trkpt lat="37.1489290" lon="-1.9580550">
        <ele>142.1</ele>
        <time>2019-10-18T08:47:08Z</time>
      </trkpt>
      <trkpt lat="37.1488870" lon="-1.9580970">
        <ele>142.4</ele>
        <time>2019-10-18T08:47:09Z</time>
      </trkpt>
      <trkpt lat="37.1488460" lon="-1.9581390">
        <ele>142.5</ele>
        <time>2019-10-18T08:47:10Z</time>
      </trkpt>
      <trkpt lat="37.1488060" lon="-1.9581830">
        <ele>142.5</ele>
        <time>2019-10-18T08:47:11Z</time>
      </trkpt>
      <trkpt lat="37.1487650" lon="-1.9582270">
        <ele>142.7</ele>
        <time>2019-10-18T08:47:12Z</time>
      </trkpt>
      <trkpt lat="37.1487230" lon="-1.9582710">
        <ele>143.0</ele>
        <time>2019-10-18T08:47:13Z</time>
      </trkpt>
      <trkpt lat="37.1486810" lon="-1.9583140">
        <ele>143.3</ele>
        <time>2019-10-18T08:47:14Z</time>
      </trkpt>
      <trkpt lat="37.1486390" lon="-1.9583570">
        <ele>143.4</ele>
        <time>2019-10-18T08:47:15Z</time>
      </trkpt>
      <trkpt lat="37.1485980" lon="-1.9584000">
        <ele>143.4</ele>
        <time>2019-10-18T08:47:16Z</time>
      </trkpt>
      <trkpt lat="37.1485570" lon="-1.9584440">
        <ele>143.6</ele>
        <time>2019-10-18T08:47:17Z</time>
      </trkpt>
      <trkpt lat="37.1485160" lon="-1.9584870">
        <ele>143.8</ele>
        <time>2019-10-18T08:47:18Z</time>
      </trkpt>
      <trkpt lat="37.1484750" lon="-1.9585300">
        <ele>143.9</ele>
        <time>2019-10-18T08:47:19Z</time>
      </trkpt>
      <trkpt lat="37.1484350" lon="-1.9585720">
        <ele>143.9</ele>
        <time>2019-10-18T08:47:20Z</time>
      </trkpt>
      <trkpt lat="37.1483950" lon="-1.9586150">
        <ele>143.8</ele>
        <time>2019-10-18T08:47:21Z</time>
      </trkpt>
      <trkpt lat="37.1483550" lon="-1.9586560">
        <ele>144.0</ele>
        <time>2019-10-18T08:47:22Z</time>
      </trkpt>
      <trkpt lat="37.1483140" lon="-1.9586980">
        <ele>144.2</ele>
        <time>2019-10-18T08:47:23Z</time>
      </trkpt>
      <trkpt lat="37.1482740" lon="-1.9587400">
        <ele>144.3</ele>
        <time>2019-10-18T08:47:24Z</time>
      </trkpt>
      <trkpt lat="37.1482320" lon="-1.9587810">
        <ele>144.6</ele>
        <time>2019-10-18T08:47:25Z</time>
      </trkpt>
      <trkpt lat="37.1481910" lon="-1.9588230">
        <ele>145.1</ele>
        <time>2019-10-18T08:47:26Z</time>
      </trkpt>
      <trkpt lat="37.1481500" lon="-1.9588650">
        <ele>145.3</ele>
        <time>2019-10-18T08:47:27Z</time>
      </trkpt>
      <trkpt lat="37.1481090" lon="-1.9589070">
        <ele>145.6</ele>
        <time>2019-10-18T08:47:28Z</time>
      </trkpt>
      <trkpt lat="37.1480680" lon="-1.9589490">
        <ele>146.0</ele>
        <time>2019-10-18T08:47:29Z</time>
      </trkpt>
      <trkpt lat="37.1480260" lon="-1.9589900">
        <ele>146.2</ele>
        <time>2019-10-18T08:47:30Z</time>
      </trkpt>
      <trkpt lat="37.1479830" lon="-1.9590310">
        <ele>146.2</ele>
        <time>2019-10-18T08:47:31Z</time>
      </trkpt>
      <trkpt lat="37.1479400" lon="-1.9590710">
        <ele>146.1</ele>
        <time>2019-10-18T08:47:32Z</time>
      </trkpt>
      <trkpt lat="37.1478960" lon="-1.9591120">
        <ele>146.1</ele>
        <time>2019-10-18T08:47:33Z</time>
      </trkpt>
      <trkpt lat="37.1478520" lon="-1.9591520">
        <ele>146.1</ele>
        <time>2019-10-18T08:47:34Z</time>
      </trkpt>
      <trkpt lat="37.1478070" lon="-1.9591930">
        <ele>146.1</ele>
        <time>2019-10-18T08:47:35Z</time>
      </trkpt>
      <trkpt lat="37.1477620" lon="-1.9592340">
        <ele>146.1</ele>
        <time>2019-10-18T08:47:36Z</time>
      </trkpt>
      <trkpt lat="37.1477170" lon="-1.9592760">
        <ele>146.1</ele>
        <time>2019-10-18T08:47:37Z</time>
      </trkpt>
      <trkpt lat="37.1476720" lon="-1.9593180">
        <ele>146.1</ele>
        <time>2019-10-18T08:47:38Z</time>
      </trkpt>
      <trkpt lat="37.1476270" lon="-1.9593600">
        <ele>146.0</ele>
        <time>2019-10-18T08:47:39Z</time>
      </trkpt>
      <trkpt lat="37.1475810" lon="-1.9594030">
        <ele>146.0</ele>
        <time>2019-10-18T08:47:40Z</time>
      </trkpt>
      <trkpt lat="37.1475360" lon="-1.9594460">
        <ele>146.0</ele>
        <time>2019-10-18T08:47:41Z</time>
      </trkpt>
      <trkpt lat="37.1474900" lon="-1.9594890">
        <ele>146.0</ele>
        <time>2019-10-18T08:47:42Z</time>
      </trkpt>
      <trkpt lat="37.1474430" lon="-1.9595320">
        <ele>146.0</ele>
        <time>2019-10-18T08:47:43Z</time>
      </trkpt>
      <trkpt lat="37.1473950" lon="-1.9595750">
        <ele>146.0</ele>
        <time>2019-10-18T08:47:44Z</time>
      </trkpt>
      <trkpt lat="37.1473470" lon="-1.9596170">
        <ele>146.0</ele>
        <time>2019-10-18T08:47:45Z</time>
      </trkpt>
      <trkpt lat="37.1472980" lon="-1.9596600">
        <ele>145.9</ele>
        <time>2019-10-18T08:47:46Z</time>
      </trkpt>
      <trkpt lat="37.1472500" lon="-1.9597040">
        <ele>145.9</ele>
        <time>2019-10-18T08:47:47Z</time>
      </trkpt>
      <trkpt lat="37.1472000" lon="-1.9597480">
        <ele>145.9</ele>
        <time>2019-10-18T08:47:48Z</time>
      </trkpt>
      <trkpt lat="37.1471500" lon="-1.9597920">
        <ele>145.9</ele>
        <time>2019-10-18T08:47:49Z</time>
      </trkpt>
      <trkpt lat="37.1470990" lon="-1.9598360">
        <ele>145.8</ele>
        <time>2019-10-18T08:47:50Z</time>
      </trkpt>
      <trkpt lat="37.1470480" lon="-1.9598800">
        <ele>145.8</ele>
        <time>2019-10-18T08:47:51Z</time>
      </trkpt>
      <trkpt lat="37.1469960" lon="-1.9599240">
        <ele>145.8</ele>
        <time>2019-10-18T08:47:52Z</time>
      </trkpt>
      <trkpt lat="37.1469430" lon="-1.9599690">
        <ele>145.7</ele>
        <time>2019-10-18T08:47:53Z</time>
      </trkpt>
      <trkpt lat="37.1468900" lon="-1.9600150">
        <ele>145.6</ele>
        <time>2019-10-18T08:47:54Z</time>
      </trkpt>
      <trkpt lat="37.1468350" lon="-1.9600600">
        <ele>145.5</ele>
        <time>2019-10-18T08:47:55Z</time>
      </trkpt>
      <trkpt lat="37.1467790" lon="-1.9601040">
        <ele>145.4</ele>
        <time>2019-10-18T08:47:56Z</time>
      </trkpt>
      <trkpt lat="37.1467220" lon="-1.9601490">
        <ele>145.3</ele>
        <time>2019-10-18T08:47:57Z</time>
      </trkpt>
      <trkpt lat="37.1466630" lon="-1.9601940">
        <ele>145.2</ele>
        <time>2019-10-18T08:47:58Z</time>
      </trkpt>
      <trkpt lat="37.1466030" lon="-1.9602390">
        <ele>145.0</ele>
        <time>2019-10-18T08:47:59Z</time>
      </trkpt>
      <trkpt lat="37.1465410" lon="-1.9602840">
        <ele>144.9</ele>
        <time>2019-10-18T08:48:00Z</time>
      </trkpt>
      <trkpt lat="37.1464780" lon="-1.9603280">
        <ele>144.8</ele>
        <time>2019-10-18T08:48:01Z</time>
      </trkpt>
      <trkpt lat="37.1464140" lon="-1.9603730">
        <ele>144.6</ele>
        <time>2019-10-18T08:48:02Z</time>
      </trkpt>
      <trkpt lat="37.1463500" lon="-1.9604180">
        <ele>144.5</ele>
        <time>2019-10-18T08:48:03Z</time>
      </trkpt>
      <trkpt lat="37.1462840" lon="-1.9604650">
        <ele>144.3</ele>
        <time>2019-10-18T08:48:04Z</time>
      </trkpt>
      <trkpt lat="37.1462180" lon="-1.9605110">
        <ele>144.2</ele>
        <time>2019-10-18T08:48:05Z</time>
      </trkpt>
      <trkpt lat="37.1461490" lon="-1.9605570">
        <ele>144.0</ele>
        <time>2019-10-18T08:48:06Z</time>
      </trkpt>
      <trkpt lat="37.1460800" lon="-1.9606050">
        <ele>143.8</ele>
        <time>2019-10-18T08:48:07Z</time>
      </trkpt>
      <trkpt lat="37.1460090" lon="-1.9606530">
        <ele>143.6</ele>
        <time>2019-10-18T08:48:08Z</time>
      </trkpt>
      <trkpt lat="37.1459360" lon="-1.9607010">
        <ele>143.4</ele>
        <time>2019-10-18T08:48:09Z</time>
      </trkpt>
      <trkpt lat="37.1458630" lon="-1.9607510">
        <ele>143.3</ele>
        <time>2019-10-18T08:48:10Z</time>
      </trkpt>
      <trkpt lat="37.1457880" lon="-1.9608010">
        <ele>143.1</ele>
        <time>2019-10-18T08:48:11Z</time>
      </trkpt>
      <trkpt lat="37.1457120" lon="-1.9608530">
        <ele>142.9</ele>
        <time>2019-10-18T08:48:12Z</time>
      </trkpt>
      <trkpt lat="37.1456340" lon="-1.9609050">
        <ele>142.6</ele>
        <time>2019-10-18T08:48:13Z</time>
      </trkpt>
      <trkpt lat="37.1455560" lon="-1.9609580">
        <ele>142.4</ele>
        <time>2019-10-18T08:48:14Z</time>
      </trkpt>
      <trkpt lat="37.1454780" lon="-1.9610120">
        <ele>142.2</ele>
        <time>2019-10-18T08:48:15Z</time>
      </trkpt>
      <trkpt lat="37.1454000" lon="-1.9610650">
        <ele>142.1</ele>
        <time>2019-10-18T08:48:16Z</time>
      </trkpt>
      <trkpt lat="37.1453210" lon="-1.9611190">
        <ele>141.9</ele>
        <time>2019-10-18T08:48:17Z</time>
      </trkpt>
      <trkpt lat="37.1452420" lon="-1.9611740">
        <ele>141.6</ele>
        <time>2019-10-18T08:48:18Z</time>
      </trkpt>
      <trkpt lat="37.1451630" lon="-1.9612300">
        <ele>141.3</ele>
        <time>2019-10-18T08:48:19Z</time>
      </trkpt>
      <trkpt lat="37.1450850" lon="-1.9612870">
        <ele>140.7</ele>
        <time>2019-10-18T08:48:20Z</time>
      </trkpt>
      <trkpt lat="37.1450100" lon="-1.9613460">
        <ele>140.0</ele>
        <time>2019-10-18T08:48:21Z</time>
      </trkpt>
      <trkpt lat="37.1449370" lon="-1.9614080">
        <ele>139.2</ele>
        <time>2019-10-18T08:48:22Z</time>
      </trkpt>
      <trkpt lat="37.1448660" lon="-1.9614720">
        <ele>138.3</ele>
        <time>2019-10-18T08:48:23Z</time>
      </trkpt>
      <trkpt lat="37.1447990" lon="-1.9615380">
        <ele>137.4</ele>
        <time>2019-10-18T08:48:24Z</time>
      </trkpt>
      <trkpt lat="37.1447350" lon="-1.9616070">
        <ele>136.5</ele>
        <time>2019-10-18T08:48:25Z</time>
      </trkpt>
      <trkpt lat="37.1446760" lon="-1.9616770">
        <ele>135.6</ele>
        <time>2019-10-18T08:48:26Z</time>
      </trkpt>
      <trkpt lat="37.1446220" lon="-1.9617480">
        <ele>134.7</ele>
        <time>2019-10-18T08:48:27Z</time>
      </trkpt>
      <trkpt lat="37.1445740" lon="-1.9618210">
        <ele>133.9</ele>
        <time>2019-10-18T08:48:28Z</time>
      </trkpt>
      <trkpt lat="37.1445280" lon="-1.9618940">
        <ele>133.1</ele>
        <time>2019-10-18T08:48:29Z</time>
      </trkpt>
      <trkpt lat="37.1444840" lon="-1.9619680">
        <ele>132.3</ele>
        <time>2019-10-18T08:48:30Z</time>
      </trkpt>
      <trkpt lat="37.1444420" lon="-1.9620410">
        <ele>131.6</ele>
        <time>2019-10-18T08:48:31Z</time>
      </trkpt>
      <trkpt lat="37.1444000" lon="-1.9621140">
        <ele>130.8</ele>
        <time>2019-10-18T08:48:32Z</time>
      </trkpt>
      <trkpt lat="37.1443590" lon="-1.9621850">
        <ele>130.1</ele>
        <time>2019-10-18T08:48:33Z</time>
      </trkpt>
      <trkpt lat="37.1443170" lon="-1.9622550">
        <ele>129.3</ele>
        <time>2019-10-18T08:48:34Z</time>
      </trkpt>
      <trkpt lat="37.1442750" lon="-1.9623240">
        <ele>128.5</ele>
        <time>2019-10-18T08:48:35Z</time>
      </trkpt>
      <trkpt lat="37.1442350" lon="-1.9623920">
        <ele>127.8</ele>
        <time>2019-10-18T08:48:36Z</time>
      </trkpt>
      <trkpt lat="37.1441960" lon="-1.9624610">
        <ele>127.0</ele>
        <time>2019-10-18T08:48:37Z</time>
      </trkpt>
      <trkpt lat="37.1441570" lon="-1.9625290">
        <ele>126.3</ele>
        <time>2019-10-18T08:48:38Z</time>
      </trkpt>
      <trkpt lat="37.1441180" lon="-1.9625960">
        <ele>125.7</ele>
        <time>2019-10-18T08:48:39Z</time>
      </trkpt>
      <trkpt lat="37.1440770" lon="-1.9626610">
        <ele>125.2</ele>
        <time>2019-10-18T08:48:40Z</time>
      </trkpt>
      <trkpt lat="37.1440360" lon="-1.9627260">
        <ele>124.7</ele>
        <time>2019-10-18T08:48:41Z</time>
      </trkpt>
      <trkpt lat="37.1439960" lon="-1.9627910">
        <ele>124.2</ele>
        <time>2019-10-18T08:48:42Z</time>
      </trkpt>
      <trkpt lat="37.1439560" lon="-1.9628570">
        <ele>123.8</ele>
        <time>2019-10-18T08:48:43Z</time>
      </trkpt>
      <trkpt lat="37.1439170" lon="-1.9629250">
        <ele>124.0</ele>
        <time>2019-10-18T08:48:44Z</time>
      </trkpt>
      <trkpt lat="37.1438790" lon="-1.9629920">
        <ele>124.1</ele>
        <time>2019-10-18T08:48:45Z</time>
      </trkpt>
      <trkpt lat="37.1438410" lon="-1.9630590">
        <ele>124.2</ele>
        <time>2019-10-18T08:48:46Z</time>
      </trkpt>
      <trkpt lat="37.1438020" lon="-1.9631250">
        <ele>124.3</ele>
        <time>2019-10-18T08:48:47Z</time>
      </trkpt>
      <trkpt lat="37.1437630" lon="-1.9631900">
        <ele>124.5</ele>
        <time>2019-10-18T08:48:48Z</time>
      </trkpt>
      <trkpt lat="37.1437250" lon="-1.9632540">
        <ele>124.7</ele>
        <time>2019-10-18T08:48:49Z</time>
      </trkpt>
      <trkpt lat="37.1436880" lon="-1.9633170">
        <ele>124.9</ele>
        <time>2019-10-18T08:48:50Z</time>
      </trkpt>
      <trkpt lat="37.1436510" lon="-1.9633790">
        <ele>125.1</ele>
        <time>2019-10-18T08:48:51Z</time>
      </trkpt>
      <trkpt lat="37.1436160" lon="-1.9634400">
        <ele>125.4</ele>
        <time>2019-10-18T08:48:52Z</time>
      </trkpt>
      <trkpt lat="37.1435820" lon="-1.9635000">
        <ele>125.8</ele>
        <time>2019-10-18T08:48:53Z</time>
      </trkpt>
      <trkpt lat="37.1435500" lon="-1.9635590">
        <ele>126.5</ele>
        <time>2019-10-18T08:48:54Z</time>
      </trkpt>
      <trkpt lat="37.1435190" lon="-1.9636150">
        <ele>127.1</ele>
        <time>2019-10-18T08:48:55Z</time>
      </trkpt>
      <trkpt lat="37.1434890" lon="-1.9636700">
        <ele>127.7</ele>
        <time>2019-10-18T08:48:56Z</time>
      </trkpt>
      <trkpt lat="37.1434590" lon="-1.9637240">
        <ele>128.5</ele>
        <time>2019-10-18T08:48:57Z</time>
      </trkpt>
      <trkpt lat="37.1434310" lon="-1.9637770">
        <ele>129.2</ele>
        <time>2019-10-18T08:48:58Z</time>
      </trkpt>
      <trkpt lat="37.1434050" lon="-1.9638310">
        <ele>129.9</ele>
        <time>2019-10-18T08:48:59Z</time>
      </trkpt>
      <trkpt lat="37.1433820" lon="-1.9638850">
        <ele>130.4</ele>
        <time>2019-10-18T08:49:00Z</time>
      </trkpt>
      <trkpt lat="37.1433610" lon="-1.9639380">
        <ele>131.0</ele>
        <time>2019-10-18T08:49:01Z</time>
      </trkpt>
      <trkpt lat="37.1433420" lon="-1.9639920">
        <ele>131.6</ele>
        <time>2019-10-18T08:49:02Z</time>
      </trkpt>
      <trkpt lat="37.1433250" lon="-1.9640460">
        <ele>132.1</ele>
        <time>2019-10-18T08:49:03Z</time>
      </trkpt>
      <trkpt lat="37.1433090" lon="-1.9640990">
        <ele>132.6</ele>
        <time>2019-10-18T08:49:04Z</time>
      </trkpt>
      <trkpt lat="37.1432950" lon="-1.9641510">
        <ele>133.1</ele>
        <time>2019-10-18T08:49:05Z</time>
      </trkpt>
      <trkpt lat="37.1432820" lon="-1.9642020">
        <ele>133.6</ele>
        <time>2019-10-18T08:49:06Z</time>
      </trkpt>
      <trkpt lat="37.1432720" lon="-1.9642510">
        <ele>134.1</ele>
        <time>2019-10-18T08:49:07Z</time>
      </trkpt>
      <trkpt lat="37.1432660" lon="-1.9643000">
        <ele>134.5</ele>
        <time>2019-10-18T08:49:08Z</time>
      </trkpt>
      <trkpt lat="37.1432610" lon="-1.9643480">
        <ele>134.9</ele>
        <time>2019-10-18T08:49:09Z</time>
      </trkpt>
      <trkpt lat="37.1432570" lon="-1.9643950">
        <ele>135.3</ele>
        <time>2019-10-18T08:49:10Z</time>
      </trkpt>
      <trkpt lat="37.1432540" lon="-1.9644430">
        <ele>135.7</ele>
        <time>2019-10-18T08:49:11Z</time>
      </trkpt>
      <trkpt lat="37.1432520" lon="-1.9644900">
        <ele>136.2</ele>
        <time>2019-10-18T08:49:12Z</time>
      </trkpt>
      <trkpt lat="37.1432500" lon="-1.9645360">
        <ele>136.9</ele>
        <time>2019-10-18T08:49:13Z</time>
      </trkpt>
      <trkpt lat="37.1432490" lon="-1.9645820">
        <ele>137.7</ele>
        <time>2019-10-18T08:49:14Z</time>
      </trkpt>
      <trkpt lat="37.1432480" lon="-1.9646260">
        <ele>138.3</ele>
        <time>2019-10-18T08:49:15Z</time>
      </trkpt>
      <trkpt lat="37.1432490" lon="-1.9646680">
        <ele>139.0</ele>
        <time>2019-10-18T08:49:16Z</time>
      </trkpt>
      <trkpt lat="37.1432520" lon="-1.9647090">
        <ele>139.6</ele>
        <time>2019-10-18T08:49:17Z</time>
      </trkpt>
      <trkpt lat="37.1432560" lon="-1.9647490">
        <ele>140.3</ele>
        <time>2019-10-18T08:49:18Z</time>
      </trkpt>
      <trkpt lat="37.1432600" lon="-1.9647870">
        <ele>141.0</ele>
        <time>2019-10-18T08:49:19Z</time>
      </trkpt>
      <trkpt lat="37.1432650" lon="-1.9648250">
        <ele>141.7</ele>
        <time>2019-10-18T08:49:20Z</time>
      </trkpt>
      <trkpt lat="37.1432710" lon="-1.9648610">
        <ele>142.5</ele>
        <time>2019-10-18T08:49:21Z</time>
      </trkpt>
      <trkpt lat="37.1432770" lon="-1.9648980">
        <ele>142.8</ele>
        <time>2019-10-18T08:49:22Z</time>
      </trkpt>
      <trkpt lat="37.1432830" lon="-1.9649340">
        <ele>143.1</ele>
        <time>2019-10-18T08:49:23Z</time>
      </trkpt>
      <trkpt lat="37.1432900" lon="-1.9649690">
        <ele>143.3</ele>
        <time>2019-10-18T08:49:24Z</time>
      </trkpt>
      <trkpt lat="37.1432970" lon="-1.9650050">
        <ele>143.6</ele>
        <time>2019-10-18T08:49:25Z</time>
      </trkpt>
      <trkpt lat="37.1433040" lon="-1.9650390">
        <ele>143.9</ele>
        <time>2019-10-18T08:49:26Z</time>
      </trkpt>
      <trkpt lat="37.1433120" lon="-1.9650740">
        <ele>144.1</ele>
        <time>2019-10-18T08:49:27Z</time>
      </trkpt>
      <trkpt lat="37.1433200" lon="-1.9651080">
        <ele>144.4</ele>
        <time>2019-10-18T08:49:28Z</time>
      </trkpt>
      <trkpt lat="37.1433290" lon="-1.9651420">
        <ele>144.6</ele>
        <time>2019-10-18T08:49:29Z</time>
      </trkpt>
      <trkpt lat="37.1433380" lon="-1.9651750">
        <ele>144.8</ele>
        <time>2019-10-18T08:49:30Z</time>
      </trkpt>
      <trkpt lat="37.1433470" lon="-1.9652090">
        <ele>145.0</ele>
        <time>2019-10-18T08:49:31Z</time>
      </trkpt>
      <trkpt lat="37.1433570" lon="-1.9652430">
        <ele>145.2</ele>
        <time>2019-10-18T08:49:32Z</time>
      </trkpt>
      <trkpt lat="37.1433670" lon="-1.9652770">
        <ele>145.4</ele>
        <time>2019-10-18T08:49:33Z</time>
      </trkpt>
      <trkpt lat="37.1433770" lon="-1.9653110">
        <ele>145.6</ele>
        <time>2019-10-18T08:49:34Z</time>
      </trkpt>
      <trkpt lat="37.1433870" lon="-1.9653450">
        <ele>145.8</ele>
        <time>2019-10-18T08:49:35Z</time>
      </trkpt>
      <trkpt lat="37.1433970" lon="-1.9653780">
        <ele>146.0</ele>
        <time>2019-10-18T08:49:36Z</time>
      </trkpt>
      <trkpt lat="37.1434070" lon="-1.9654120">
        <ele>146.2</ele>
        <time>2019-10-18T08:49:37Z</time>
      </trkpt>
      <trkpt lat="37.1434160" lon="-1.9654450">
        <ele>146.4</ele>
        <time>2019-10-18T08:49:38Z</time>
      </trkpt>
      <trkpt lat="37.1434250" lon="-1.9654770">
        <ele>146.6</ele>
        <time>2019-10-18T08:49:39Z</time>
      </trkpt>
      <trkpt lat="37.1434340" lon="-1.9655100">
        <ele>146.7</ele>
        <time>2019-10-18T08:49:40Z</time>
      </trkpt>
      <trkpt lat="37.1434420" lon="-1.9655430">
        <ele>146.9</ele>
        <time>2019-10-18T08:49:41Z</time>
      </trkpt>
      <trkpt lat="37.1434520" lon="-1.9655750">
        <ele>147.1</ele>
        <time>2019-10-18T08:49:42Z</time>
      </trkpt>
      <trkpt lat="37.1434610" lon="-1.9656080">
        <ele>147.4</ele>
        <time>2019-10-18T08:49:43Z</time>
      </trkpt>
      <trkpt lat="37.1434690" lon="-1.9656400">
        <ele>147.6</ele>
        <time>2019-10-18T08:49:44Z</time>
      </trkpt>
      <trkpt lat="37.1434770" lon="-1.9656720">
        <ele>147.8</ele>
        <time>2019-10-18T08:49:45Z</time>
      </trkpt>
      <trkpt lat="37.1434840" lon="-1.9657060">
        <ele>148.1</ele>
        <time>2019-10-18T08:49:46Z</time>
      </trkpt>
      <trkpt lat="37.1434900" lon="-1.9657400">
        <ele>148.3</ele>
        <time>2019-10-18T08:49:47Z</time>
      </trkpt>
      <trkpt lat="37.1434960" lon="-1.9657740">
        <ele>148.4</ele>
        <time>2019-10-18T08:49:48Z</time>
      </trkpt>
      <trkpt lat="37.1435010" lon="-1.9658080">
        <ele>148.6</ele>
        <time>2019-10-18T08:49:49Z</time>
      </trkpt>
      <trkpt lat="37.1435060" lon="-1.9658430">
        <ele>148.8</ele>
        <time>2019-10-18T08:49:50Z</time>
      </trkpt>
      <trkpt lat="37.1435110" lon="-1.9658780">
        <ele>149.0</ele>
        <time>2019-10-18T08:49:51Z</time>
      </trkpt>
      <trkpt lat="37.1435160" lon="-1.9659130">
        <ele>149.2</ele>
        <time>2019-10-18T08:49:52Z</time>
      </trkpt>
      <trkpt lat="37.1435210" lon="-1.9659480">
        <ele>149.3</ele>
        <time>2019-10-18T08:49:53Z</time>
      </trkpt>
      <trkpt lat="37.1435250" lon="-1.9659820">
        <ele>149.5</ele>
        <time>2019-10-18T08:49:54Z</time>
      </trkpt>
      <trkpt lat="37.1435280" lon="-1.9660160">
        <ele>149.7</ele>
        <time>2019-10-18T08:49:55Z</time>
      </trkpt>
      <trkpt lat="37.1435320" lon="-1.9660510">
        <ele>149.9</ele>
        <time>2019-10-18T08:49:56Z</time>
      </trkpt>
      <trkpt lat="37.1435350" lon="-1.9660850">
        <ele>150.2</ele>
        <time>2019-10-18T08:49:57Z</time>
      </trkpt>
      <trkpt lat="37.1435380" lon="-1.9661200">
        <ele>150.3</ele>
        <time>2019-10-18T08:49:58Z</time>
      </trkpt>
      <trkpt lat="37.1435400" lon="-1.9661550">
        <ele>150.5</ele>
        <time>2019-10-18T08:49:59Z</time>
      </trkpt>
      <trkpt lat="37.1435410" lon="-1.9661900">
        <ele>150.7</ele>
        <time>2019-10-18T08:50:00Z</time>
      </trkpt>
      <trkpt lat="37.1435420" lon="-1.9662250">
        <ele>150.8</ele>
        <time>2019-10-18T08:50:01Z</time>
      </trkpt>
      <trkpt lat="37.1435420" lon="-1.9662610">
        <ele>150.9</ele>
        <time>2019-10-18T08:50:02Z</time>
      </trkpt>
      <trkpt lat="37.1435410" lon="-1.9662970">
        <ele>151.0</ele>
        <time>2019-10-18T08:50:03Z</time>
      </trkpt>
      <trkpt lat="37.1435390" lon="-1.9663330">
        <ele>151.2</ele>
        <time>2019-10-18T08:50:04Z</time>
      </trkpt>
      <trkpt lat="37.1435370" lon="-1.9663690">
        <ele>151.3</ele>
        <time>2019-10-18T08:50:05Z</time>
      </trkpt>
      <trkpt lat="37.1435350" lon="-1.9664050">
        <ele>151.4</ele>
        <time>2019-10-18T08:50:06Z</time>
      </trkpt>
      <trkpt lat="37.1435330" lon="-1.9664420">
        <ele>151.6</ele>
        <time>2019-10-18T08:50:07Z</time>
      </trkpt>
      <trkpt lat="37.1435320" lon="-1.9664780">
        <ele>151.9</ele>
        <time>2019-10-18T08:50:08Z</time>
      </trkpt>
      <trkpt lat="37.1435290" lon="-1.9665150">
        <ele>152.1</ele>
        <time>2019-10-18T08:50:09Z</time>
      </trkpt>
      <trkpt lat="37.1435260" lon="-1.9665510">
        <ele>152.4</ele>
        <time>2019-10-18T08:50:10Z</time>
      </trkpt>
      <trkpt lat="37.1435220" lon="-1.9665860">
        <ele>152.6</ele>
        <time>2019-10-18T08:50:11Z</time>
      </trkpt>
      <trkpt lat="37.1435180" lon="-1.9666220">
        <ele>152.9</ele>
        <time>2019-10-18T08:50:12Z</time>
      </trkpt>
      <trkpt lat="37.1435130" lon="-1.9666580">
        <ele>153.2</ele>
        <time>2019-10-18T08:50:13Z</time>
      </trkpt>
      <trkpt lat="37.1435060" lon="-1.9666930">
        <ele>153.5</ele>
        <time>2019-10-18T08:50:14Z</time>
      </trkpt>
      <trkpt lat="37.1434990" lon="-1.9667290">
        <ele>153.8</ele>
        <time>2019-10-18T08:50:15Z</time>
      </trkpt>
      <trkpt lat="37.1434910" lon="-1.9667650">
        <ele>154.1</ele>
        <time>2019-10-18T08:50:16Z</time>
      </trkpt>
      <trkpt lat="37.1434840" lon="-1.9668010">
        <ele>154.3</ele>
        <time>2019-10-18T08:50:17Z</time>
      </trkpt>
      <trkpt lat="37.1434770" lon="-1.9668360">
        <ele>154.6</ele>
        <time>2019-10-18T08:50:18Z</time>
      </trkpt>
      <trkpt lat="37.1434690" lon="-1.9668710">
        <ele>154.8</ele>
        <time>2019-10-18T08:50:19Z</time>
      </trkpt>
      <trkpt lat="37.1434620" lon="-1.9669060">
        <ele>155.0</ele>
        <time>2019-10-18T08:50:20Z</time>
      </trkpt>
      <trkpt lat="37.1434540" lon="-1.9669410">
        <ele>155.3</ele>
        <time>2019-10-18T08:50:21Z</time>
      </trkpt>
      <trkpt lat="37.1434450" lon="-1.9669760">
        <ele>155.5</ele>
        <time>2019-10-18T08:50:22Z</time>
      </trkpt>
      <trkpt lat="37.1434360" lon="-1.9670110">
        <ele>155.6</ele>
        <time>2019-10-18T08:50:23Z</time>
      </trkpt>
      <trkpt lat="37.1434280" lon="-1.9670460">
        <ele>155.8</ele>
        <time>2019-10-18T08:50:24Z</time>
      </trkpt>
      <trkpt lat="37.1434190" lon="-1.9670810">
        <ele>156.0</ele>
        <time>2019-10-18T08:50:25Z</time>
      </trkpt>
      <trkpt lat="37.1434110" lon="-1.9671170">
        <ele>156.1</ele>
        <time>2019-10-18T08:50:26Z</time>
      </trkpt>
      <trkpt lat="37.1434030" lon="-1.9671530">
        <ele>156.3</ele>
        <time>2019-10-18T08:50:27Z</time>
      </trkpt>
      <trkpt lat="37.1433940" lon="-1.9671890">
        <ele>156.4</ele>
        <time>2019-10-18T08:50:28Z</time>
      </trkpt>
      <trkpt lat="37.1433860" lon="-1.9672240">
        <ele>156.6</ele>
        <time>2019-10-18T08:50:29Z</time>
      </trkpt>
      <trkpt lat="37.1433760" lon="-1.9672600">
        <ele>156.7</ele>
        <time>2019-10-18T08:50:30Z</time>
      </trkpt>
      <trkpt lat="37.1433660" lon="-1.9672950">
        <ele>156.8</ele>
        <time>2019-10-18T08:50:31Z</time>
      </trkpt>
      <trkpt lat="37.1433560" lon="-1.9673310">
        <ele>157.1</ele>
        <time>2019-10-18T08:50:32Z</time>
      </trkpt>
      <trkpt lat="37.1433470" lon="-1.9673670">
        <ele>157.0</ele>
        <time>2019-10-18T08:50:33Z</time>
      </trkpt>
      <trkpt lat="37.1433380" lon="-1.9674030">
        <ele>157.0</ele>
        <time>2019-10-18T08:50:34Z</time>
      </trkpt>
      <trkpt lat="37.1433290" lon="-1.9674390">
        <ele>156.9</ele>
        <time>2019-10-18T08:50:35Z</time>
      </trkpt>
      <trkpt lat="37.1433210" lon="-1.9674740">
        <ele>156.8</ele>
        <time>2019-10-18T08:50:36Z</time>
      </trkpt>
      <trkpt lat="37.1433110" lon="-1.9675090">
        <ele>156.8</ele>
        <time>2019-10-18T08:50:37Z</time>
      </trkpt>
      <trkpt lat="37.1433030" lon="-1.9675450">
        <ele>156.7</ele>
        <time>2019-10-18T08:50:38Z</time>
      </trkpt>
      <trkpt lat="37.1432950" lon="-1.9675810">
        <ele>156.7</ele>
        <time>2019-10-18T08:50:39Z</time>
      </trkpt>
      <trkpt lat="37.1432860" lon="-1.9676170">
        <ele>156.6</ele>
        <time>2019-10-18T08:50:40Z</time>
      </trkpt>
      <trkpt lat="37.1432760" lon="-1.9676510">
        <ele>156.6</ele>
        <time>2019-10-18T08:50:41Z</time>
      </trkpt>
      <trkpt lat="37.1432660" lon="-1.9676850">
        <ele>156.5</ele>
        <time>2019-10-18T08:50:42Z</time>
      </trkpt>
      <trkpt lat="37.1432560" lon="-1.9677190">
        <ele>156.5</ele>
        <time>2019-10-18T08:50:43Z</time>
      </trkpt>
      <trkpt lat="37.1432460" lon="-1.9677540">
        <ele>156.4</ele>
        <time>2019-10-18T08:50:44Z</time>
      </trkpt>
      <trkpt lat="37.1432370" lon="-1.9677890">
        <ele>156.3</ele>
        <time>2019-10-18T08:50:45Z</time>
      </trkpt>
      <trkpt lat="37.1432280" lon="-1.9678230">
        <ele>156.3</ele>
        <time>2019-10-18T08:50:46Z</time>
      </trkpt>
      <trkpt lat="37.1432190" lon="-1.9678580">
        <ele>156.2</ele>
        <time>2019-10-18T08:50:47Z</time>
      </trkpt>
      <trkpt lat="37.1432110" lon="-1.9678940">
        <ele>156.2</ele>
        <time>2019-10-18T08:50:48Z</time>
      </trkpt>
      <trkpt lat="37.1432020" lon="-1.9679290">
        <ele>156.1</ele>
        <time>2019-10-18T08:50:49Z</time>
      </trkpt>
      <trkpt lat="37.1431940" lon="-1.9679650">
        <ele>156.0</ele>
        <time>2019-10-18T08:50:50Z</time>
      </trkpt>
      <trkpt lat="37.1431840" lon="-1.9680000">
        <ele>156.0</ele>
        <time>2019-10-18T08:50:51Z</time>
      </trkpt>
      <trkpt lat="37.1431750" lon="-1.9680350">
        <ele>155.9</ele>
        <time>2019-10-18T08:50:52Z</time>
      </trkpt>
      <trkpt lat="37.1431660" lon="-1.9680710">
        <ele>155.8</ele>
        <time>2019-10-18T08:50:53Z</time>
      </trkpt>
      <trkpt lat="37.1431570" lon="-1.9681070">
        <ele>155.7</ele>
        <time>2019-10-18T08:50:54Z</time>
      </trkpt>
      <trkpt lat="37.1431480" lon="-1.9681430">
        <ele>155.6</ele>
        <time>2019-10-18T08:50:55Z</time>
      </trkpt>
      <trkpt lat="37.1431390" lon="-1.9681790">
        <ele>155.5</ele>
        <time>2019-10-18T08:50:56Z</time>
      </trkpt>
      <trkpt lat="37.1431290" lon="-1.9682140">
        <ele>155.5</ele>
        <time>2019-10-18T08:50:57Z</time>
      </trkpt>
      <trkpt lat="37.1431200" lon="-1.9682490">
        <ele>155.4</ele>
        <time>2019-10-18T08:50:58Z</time>
      </trkpt>
      <trkpt lat="37.1431110" lon="-1.9682840">
        <ele>155.3</ele>
        <time>2019-10-18T08:50:59Z</time>
      </trkpt>
      <trkpt lat="37.1431020" lon="-1.9683180">
        <ele>155.2</ele>
        <time>2019-10-18T08:51:00Z</time>
      </trkpt>
      <trkpt lat="37.1430940" lon="-1.9683530">
        <ele>155.1</ele>
        <time>2019-10-18T08:51:01Z</time>
      </trkpt>
      <trkpt lat="37.1430850" lon="-1.9683870">
        <ele>155.0</ele>
        <time>2019-10-18T08:51:02Z</time>
      </trkpt>
      <trkpt lat="37.1430770" lon="-1.9684220">
        <ele>154.9</ele>
        <time>2019-10-18T08:51:03Z</time>
      </trkpt>
      <trkpt lat="37.1430680" lon="-1.9684570">
        <ele>154.8</ele>
        <time>2019-10-18T08:51:04Z</time>
      </trkpt>
      <trkpt lat="37.1430600" lon="-1.9684920">
        <ele>154.7</ele>
        <time>2019-10-18T08:51:05Z</time>
      </trkpt>
      <trkpt lat="37.1430520" lon="-1.9685260">
        <ele>154.7</ele>
        <time>2019-10-18T08:51:06Z</time>
      </trkpt>
      <trkpt lat="37.1430430" lon="-1.9685600">
        <ele>154.5</ele>
        <time>2019-10-18T08:51:07Z</time>
      </trkpt>
      <trkpt lat="37.1430350" lon="-1.9685950">
        <ele>154.4</ele>
        <time>2019-10-18T08:51:08Z</time>
      </trkpt>
      <trkpt lat="37.1430260" lon="-1.9686300">
        <ele>154.3</ele>
        <time>2019-10-18T08:51:09Z</time>
      </trkpt>
      <trkpt lat="37.1430160" lon="-1.9686640">
        <ele>154.2</ele>
        <time>2019-10-18T08:51:10Z</time>
      </trkpt>
      <trkpt lat="37.1430060" lon="-1.9686990">
        <ele>154.1</ele>
        <time>2019-10-18T08:51:11Z</time>
      </trkpt>
      <trkpt lat="37.1429960" lon="-1.9687340">
        <ele>154.0</ele>
        <time>2019-10-18T08:51:12Z</time>
      </trkpt>
      <trkpt lat="37.1429880" lon="-1.9687690">
        <ele>153.9</ele>
        <time>2019-10-18T08:51:13Z</time>
      </trkpt>
      <trkpt lat="37.1429790" lon="-1.9688050">
        <ele>153.8</ele>
        <time>2019-10-18T08:51:14Z</time>
      </trkpt>
      <trkpt lat="37.1429700" lon="-1.9688400">
        <ele>153.6</ele>
        <time>2019-10-18T08:51:15Z</time>
      </trkpt>
      <trkpt lat="37.1429600" lon="-1.9688750">
        <ele>153.5</ele>
        <time>2019-10-18T08:51:16Z</time>
      </trkpt>
      <trkpt lat="37.1429510" lon="-1.9689110">
        <ele>153.4</ele>
        <time>2019-10-18T08:51:17Z</time>
      </trkpt>
      <trkpt lat="37.1429420" lon="-1.9689460">
        <ele>153.6</ele>
        <time>2019-10-18T08:51:18Z</time>
      </trkpt>
      <trkpt lat="37.1429330" lon="-1.9689810">
        <ele>153.7</ele>
        <time>2019-10-18T08:51:19Z</time>
      </trkpt>
      <trkpt lat="37.1429240" lon="-1.9690170">
        <ele>153.8</ele>
        <time>2019-10-18T08:51:20Z</time>
      </trkpt>
      <trkpt lat="37.1429160" lon="-1.9690530">
        <ele>154.0</ele>
        <time>2019-10-18T08:51:21Z</time>
      </trkpt>
      <trkpt lat="37.1429070" lon="-1.9690890">
        <ele>154.1</ele>
        <time>2019-10-18T08:51:22Z</time>
      </trkpt>
      <trkpt lat="37.1428990" lon="-1.9691250">
        <ele>154.2</ele>
        <time>2019-10-18T08:51:23Z</time>
      </trkpt>
      <trkpt lat="37.1428900" lon="-1.9691620">
        <ele>154.3</ele>
        <time>2019-10-18T08:51:24Z</time>
      </trkpt>
      <trkpt lat="37.1428810" lon="-1.9691990">
        <ele>154.5</ele>
        <time>2019-10-18T08:51:25Z</time>
      </trkpt>
      <trkpt lat="37.1428720" lon="-1.9692360">
        <ele>154.6</ele>
        <time>2019-10-18T08:51:26Z</time>
      </trkpt>
      <trkpt lat="37.1428640" lon="-1.9692740">
        <ele>154.7</ele>
        <time>2019-10-18T08:51:27Z</time>
      </trkpt>
      <trkpt lat="37.1428560" lon="-1.9693130">
        <ele>154.9</ele>
        <time>2019-10-18T08:51:28Z</time>
      </trkpt>
      <trkpt lat="37.1428480" lon="-1.9693530">
        <ele>155.0</ele>
        <time>2019-10-18T08:51:29Z</time>
      </trkpt>
      <trkpt lat="37.1428410" lon="-1.9693940">
        <ele>155.2</ele>
        <time>2019-10-18T08:51:30Z</time>
      </trkpt>
      <trkpt lat="37.1428340" lon="-1.9694350">
        <ele>155.3</ele>
        <time>2019-10-18T08:51:31Z</time>
      </trkpt>
      <trkpt lat="37.1428270" lon="-1.9694760">
        <ele>155.5</ele>
        <time>2019-10-18T08:51:32Z</time>
      </trkpt>
      <trkpt lat="37.1428200" lon="-1.9695180">
        <ele>155.7</ele>
        <time>2019-10-18T08:51:33Z</time>
      </trkpt>
      <trkpt lat="37.1428120" lon="-1.9695630">
        <ele>155.8</ele>
        <time>2019-10-18T08:51:34Z</time>
      </trkpt>
      <trkpt lat="37.1428050" lon="-1.9696080">
        <ele>155.9</ele>
        <time>2019-10-18T08:51:35Z</time>
      </trkpt>
      <trkpt lat="37.1427990" lon="-1.9696510">
        <ele>156.0</ele>
        <time>2019-10-18T08:51:36Z</time>
      </trkpt>
      <trkpt lat="37.1427930" lon="-1.9696930">
        <ele>156.1</ele>
        <time>2019-10-18T08:51:37Z</time>
      </trkpt>
      <trkpt lat="37.1427890" lon="-1.9697350">
        <ele>156.2</ele>
        <time>2019-10-18T08:51:38Z</time>
      </trkpt>
      <trkpt lat="37.1427850" lon="-1.9697780">
        <ele>156.3</ele>
        <time>2019-10-18T08:51:39Z</time>
      </trkpt>
      <trkpt lat="37.1427820" lon="-1.9698240">
        <ele>156.3</ele>
        <time>2019-10-18T08:51:40Z</time>
      </trkpt>
      <trkpt lat="37.1427790" lon="-1.9698700">
        <ele>156.4</ele>
        <time>2019-10-18T08:51:41Z</time>
      </trkpt>
      <trkpt lat="37.1427770" lon="-1.9699190">
        <ele>156.5</ele>
        <time>2019-10-18T08:51:42Z</time>
      </trkpt>
      <trkpt lat="37.1427760" lon="-1.9699700">
        <ele>156.5</ele>
        <time>2019-10-18T08:51:43Z</time>
      </trkpt>
      <trkpt lat="37.1427740" lon="-1.9700220">
        <ele>156.6</ele>
        <time>2019-10-18T08:51:44Z</time>
      </trkpt>
      <trkpt lat="37.1427730" lon="-1.9700740">
        <ele>156.6</ele>
        <time>2019-10-18T08:51:45Z</time>
      </trkpt>
      <trkpt lat="37.1427720" lon="-1.9701270">
        <ele>156.6</ele>
        <time>2019-10-18T08:51:46Z</time>
      </trkpt>
      <trkpt lat="37.1427720" lon="-1.9701810">
        <ele>156.7</ele>
        <time>2019-10-18T08:51:47Z</time>
      </trkpt>
      <trkpt lat="37.1427740" lon="-1.9702350">
        <ele>156.7</ele>
        <time>2019-10-18T08:51:48Z</time>
      </trkpt>
      <trkpt lat="37.1427770" lon="-1.9702910">
        <ele>156.8</ele>
        <time>2019-10-18T08:51:49Z</time>
      </trkpt>
      <trkpt lat="37.1427810" lon="-1.9703470">
        <ele>156.8</ele>
        <time>2019-10-18T08:51:50Z</time>
      </trkpt>
      <trkpt lat="37.1427850" lon="-1.9704040">
        <ele>156.8</ele>
        <time>2019-10-18T08:51:51Z</time>
      </trkpt>
      <trkpt lat="37.1427890" lon="-1.9704610">
        <ele>156.8</ele>
        <time>2019-10-18T08:51:52Z</time>
      </trkpt>
      <trkpt lat="37.1427940" lon="-1.9705170">
        <ele>156.8</ele>
        <time>2019-10-18T08:51:53Z</time>
      </trkpt>
      <trkpt lat="37.1428010" lon="-1.9705740">
        <ele>156.8</ele>
        <time>2019-10-18T08:51:54Z</time>
      </trkpt>
      <trkpt lat="37.1428080" lon="-1.9706310">
        <ele>156.8</ele>
        <time>2019-10-18T08:51:55Z</time>
      </trkpt>
      <trkpt lat="37.1428150" lon="-1.9706880">
        <ele>156.8</ele>
        <time>2019-10-18T08:51:56Z</time>
      </trkpt>
      <trkpt lat="37.1428250" lon="-1.9707440">
        <ele>156.9</ele>
        <time>2019-10-18T08:51:57Z</time>
      </trkpt>
      <trkpt lat="37.1428350" lon="-1.9708010">
        <ele>156.9</ele>
        <time>2019-10-18T08:51:58Z</time>
      </trkpt>
      <trkpt lat="37.1428460" lon="-1.9708580">
        <ele>156.9</ele>
        <time>2019-10-18T08:51:59Z</time>
      </trkpt>
      <trkpt lat="37.1428580" lon="-1.9709150">
        <ele>157.0</ele>
        <time>2019-10-18T08:52:00Z</time>
      </trkpt>
      <trkpt lat="37.1428710" lon="-1.9709730">
        <ele>157.0</ele>
        <time>2019-10-18T08:52:01Z</time>
      </trkpt>
      <trkpt lat="37.1428860" lon="-1.9710300">
        <ele>157.1</ele>
        <time>2019-10-18T08:52:02Z</time>
      </trkpt>
      <trkpt lat="37.1429000" lon="-1.9710860">
        <ele>157.2</ele>
        <time>2019-10-18T08:52:03Z</time>
      </trkpt>
      <trkpt lat="37.1429150" lon="-1.9711430">
        <ele>157.3</ele>
        <time>2019-10-18T08:52:04Z</time>
      </trkpt>
      <trkpt lat="37.1429310" lon="-1.9711990">
        <ele>157.3</ele>
        <time>2019-10-18T08:52:05Z</time>
      </trkpt>
      <trkpt lat="37.1429480" lon="-1.9712550">
        <ele>157.4</ele>
        <time>2019-10-18T08:52:06Z</time>
      </trkpt>
      <trkpt lat="37.1429650" lon="-1.9713090">
        <ele>157.5</ele>
        <time>2019-10-18T08:52:07Z</time>
      </trkpt>
      <trkpt lat="37.1429840" lon="-1.9713630">
        <ele>157.6</ele>
        <time>2019-10-18T08:52:08Z</time>
      </trkpt>
      <trkpt lat="37.1430030" lon="-1.9714170">
        <ele>157.7</ele>
        <time>2019-10-18T08:52:09Z</time>
      </trkpt>
      <trkpt lat="37.1430220" lon="-1.9714690">
        <ele>157.8</ele>
        <time>2019-10-18T08:52:10Z</time>
      </trkpt>
      <trkpt lat="37.1430420" lon="-1.9715220">
        <ele>157.9</ele>
        <time>2019-10-18T08:52:11Z</time>
      </trkpt>
      <trkpt lat="37.1430620" lon="-1.9715740">
        <ele>158.0</ele>
        <time>2019-10-18T08:52:12Z</time>
      </trkpt>
      <trkpt lat="37.1430830" lon="-1.9716260">
        <ele>158.1</ele>
        <time>2019-10-18T08:52:13Z</time>
      </trkpt>
      <trkpt lat="37.1431040" lon="-1.9716780">
        <ele>158.3</ele>
        <time>2019-10-18T08:52:14Z</time>
      </trkpt>
      <trkpt lat="37.1431250" lon="-1.9717290">
        <ele>158.4</ele>
        <time>2019-10-18T08:52:15Z</time>
      </trkpt>
      <trkpt lat="37.1431450" lon="-1.9717810">
        <ele>158.6</ele>
        <time>2019-10-18T08:52:16Z</time>
      </trkpt>
      <trkpt lat="37.1431650" lon="-1.9718320">
        <ele>158.7</ele>
        <time>2019-10-18T08:52:17Z</time>
      </trkpt>
      <trkpt lat="37.1431850" lon="-1.9718830">
        <ele>158.8</ele>
        <time>2019-10-18T08:52:18Z</time>
      </trkpt>
      <trkpt lat="37.1432050" lon="-1.9719330">
        <ele>159.0</ele>
        <time>2019-10-18T08:52:19Z</time>
      </trkpt>
      <trkpt lat="37.1432230" lon="-1.9719830">
        <ele>159.1</ele>
        <time>2019-10-18T08:52:20Z</time>
      </trkpt>
      <trkpt lat="37.1432420" lon="-1.9720320">
        <ele>159.3</ele>
        <time>2019-10-18T08:52:21Z</time>
      </trkpt>
      <trkpt lat="37.1432620" lon="-1.9720800">
        <ele>159.5</ele>
        <time>2019-10-18T08:52:22Z</time>
      </trkpt>
      <trkpt lat="37.1432810" lon="-1.9721280">
        <ele>159.7</ele>
        <time>2019-10-18T08:52:23Z</time>
      </trkpt>
      <trkpt lat="37.1433010" lon="-1.9721750">
        <ele>159.9</ele>
        <time>2019-10-18T08:52:24Z</time>
      </trkpt>
      <trkpt lat="37.1433190" lon="-1.9722230">
        <ele>159.9</ele>
        <time>2019-10-18T08:52:25Z</time>
      </trkpt>
      <trkpt lat="37.1433360" lon="-1.9722700">
        <ele>160.0</ele>
        <time>2019-10-18T08:52:26Z</time>
      </trkpt>
      <trkpt lat="37.1433540" lon="-1.9723150">
        <ele>160.1</ele>
        <time>2019-10-18T08:52:27Z</time>
      </trkpt>
      <trkpt lat="37.1433710" lon="-1.9723600">
        <ele>160.2</ele>
        <time>2019-10-18T08:52:28Z</time>
      </trkpt>
      <trkpt lat="37.1433880" lon="-1.9724030">
        <ele>160.4</ele>
        <time>2019-10-18T08:52:29Z</time>
      </trkpt>
      <trkpt lat="37.1434050" lon="-1.9724470">
        <ele>160.5</ele>
        <time>2019-10-18T08:52:30Z</time>
      </trkpt>
      <trkpt lat="37.1434220" lon="-1.9724900">
        <ele>160.7</ele>
        <time>2019-10-18T08:52:31Z</time>
      </trkpt>
      <trkpt lat="37.1434400" lon="-1.9725320">
        <ele>160.8</ele>
        <time>2019-10-18T08:52:32Z</time>
      </trkpt>
      <trkpt lat="37.1434580" lon="-1.9725750">
        <ele>160.9</ele>
        <time>2019-10-18T08:52:33Z</time>
      </trkpt>
      <trkpt lat="37.1434760" lon="-1.9726170">
        <ele>161.1</ele>
        <time>2019-10-18T08:52:34Z</time>
      </trkpt>
      <trkpt lat="37.1434950" lon="-1.9726580">
        <ele>161.2</ele>
        <time>2019-10-18T08:52:35Z</time>
      </trkpt>
      <trkpt lat="37.1435120" lon="-1.9727000">
        <ele>161.4</ele>
        <time>2019-10-18T08:52:36Z</time>
      </trkpt>
      <trkpt lat="37.1435300" lon="-1.9727410">
        <ele>161.5</ele>
        <time>2019-10-18T08:52:37Z</time>
      </trkpt>
      <trkpt lat="37.1435480" lon="-1.9727820">
        <ele>161.6</ele>
        <time>2019-10-18T08:52:38Z</time>
      </trkpt>
      <trkpt lat="37.1435650" lon="-1.9728240">
        <ele>161.8</ele>
        <time>2019-10-18T08:52:39Z</time>
      </trkpt>
      <trkpt lat="37.1435830" lon="-1.9728650">
        <ele>161.9</ele>
        <time>2019-10-18T08:52:40Z</time>
      </trkpt>
      <trkpt lat="37.1436010" lon="-1.9729070">
        <ele>162.1</ele>
        <time>2019-10-18T08:52:41Z</time>
      </trkpt>
      <trkpt lat="37.1436190" lon="-1.9729490">
        <ele>162.2</ele>
        <time>2019-10-18T08:52:42Z</time>
      </trkpt>
      <trkpt lat="37.1436360" lon="-1.9729920">
        <ele>162.4</ele>
        <time>2019-10-18T08:52:43Z</time>
      </trkpt>
      <trkpt lat="37.1436530" lon="-1.9730350">
        <ele>162.5</ele>
        <time>2019-10-18T08:52:44Z</time>
      </trkpt>
      <trkpt lat="37.1436700" lon="-1.9730780">
        <ele>162.7</ele>
        <time>2019-10-18T08:52:45Z</time>
      </trkpt>
      <trkpt lat="37.1436860" lon="-1.9731200">
        <ele>162.9</ele>
        <time>2019-10-18T08:52:46Z</time>
      </trkpt>
      <trkpt lat="37.1437010" lon="-1.9731630">
        <ele>163.0</ele>
        <time>2019-10-18T08:52:47Z</time>
      </trkpt>
      <trkpt lat="37.1437180" lon="-1.9732050">
        <ele>163.2</ele>
        <time>2019-10-18T08:52:48Z</time>
      </trkpt>
      <trkpt lat="37.1437350" lon="-1.9732460">
        <ele>163.3</ele>
        <time>2019-10-18T08:52:49Z</time>
      </trkpt>
      <trkpt lat="37.1437520" lon="-1.9732870">
        <ele>163.5</ele>
        <time>2019-10-18T08:52:50Z</time>
      </trkpt>
      <trkpt lat="37.1437680" lon="-1.9733270">
        <ele>163.6</ele>
        <time>2019-10-18T08:52:51Z</time>
      </trkpt>
      <trkpt lat="37.1437820" lon="-1.9733680">
        <ele>163.8</ele>
        <time>2019-10-18T08:52:52Z</time>
      </trkpt>
      <trkpt lat="37.1437970" lon="-1.9734100">
        <ele>163.9</ele>
        <time>2019-10-18T08:52:53Z</time>
      </trkpt>
      <trkpt lat="37.1438120" lon="-1.9734510">
        <ele>164.0</ele>
        <time>2019-10-18T08:52:54Z</time>
      </trkpt>
      <trkpt lat="37.1438290" lon="-1.9734920">
        <ele>164.1</ele>
        <time>2019-10-18T08:52:55Z</time>
      </trkpt>
      <trkpt lat="37.1438470" lon="-1.9735330">
        <ele>164.3</ele>
        <time>2019-10-18T08:52:56Z</time>
      </trkpt>
      <trkpt lat="37.1438630" lon="-1.9735730">
        <ele>164.4</ele>
        <time>2019-10-18T08:52:57Z</time>
      </trkpt>
      <trkpt lat="37.1438780" lon="-1.9736140">
        <ele>164.5</ele>
        <time>2019-10-18T08:52:58Z</time>
      </trkpt>
      <trkpt lat="37.1438930" lon="-1.9736550">
        <ele>164.6</ele>
        <time>2019-10-18T08:52:59Z</time>
      </trkpt>
      <trkpt lat="37.1439080" lon="-1.9736960">
        <ele>164.7</ele>
        <time>2019-10-18T08:53:00Z</time>
      </trkpt>
      <trkpt lat="37.1439230" lon="-1.9737370">
        <ele>164.7</ele>
        <time>2019-10-18T08:53:01Z</time>
      </trkpt>
      <trkpt lat="37.1439370" lon="-1.9737780">
        <ele>164.8</ele>
        <time>2019-10-18T08:53:02Z</time>
      </trkpt>
      <trkpt lat="37.1439520" lon="-1.9738190">
        <ele>164.9</ele>
        <time>2019-10-18T08:53:03Z</time>
      </trkpt>
      <trkpt lat="37.1439680" lon="-1.9738600">
        <ele>165.0</ele>
        <time>2019-10-18T08:53:04Z</time>
      </trkpt>
      <trkpt lat="37.1439840" lon="-1.9739010">
        <ele>165.1</ele>
        <time>2019-10-18T08:53:05Z</time>
      </trkpt>
      <trkpt lat="37.1439990" lon="-1.9739420">
        <ele>165.1</ele>
        <time>2019-10-18T08:53:06Z</time>
      </trkpt>
      <trkpt lat="37.1440140" lon="-1.9739830">
        <ele>165.2</ele>
        <time>2019-10-18T08:53:07Z</time>
      </trkpt>
      <trkpt lat="37.1440290" lon="-1.9740240">
        <ele>165.3</ele>
        <time>2019-10-18T08:53:08Z</time>
      </trkpt>
      <trkpt lat="37.1440450" lon="-1.9740640">
        <ele>165.4</ele>
        <time>2019-10-18T08:53:09Z</time>
      </trkpt>
      <trkpt lat="37.1440610" lon="-1.9741040">
        <ele>165.5</ele>
        <time>2019-10-18T08:53:10Z</time>
      </trkpt>
      <trkpt lat="37.1440760" lon="-1.9741450">
        <ele>165.5</ele>
        <time>2019-10-18T08:53:11Z</time>
      </trkpt>
      <trkpt lat="37.1440920" lon="-1.9741850">
        <ele>165.6</ele>
        <time>2019-10-18T08:53:12Z</time>
      </trkpt>
      <trkpt lat="37.1441070" lon="-1.9742240">
        <ele>165.7</ele>
        <time>2019-10-18T08:53:13Z</time>
      </trkpt>
      <trkpt lat="37.1441220" lon="-1.9742640">
        <ele>165.8</ele>
        <time>2019-10-18T08:53:14Z</time>
      </trkpt>
      <trkpt lat="37.1441370" lon="-1.9743040">
        <ele>165.9</ele>
        <time>2019-10-18T08:53:15Z</time>
      </trkpt>
      <trkpt lat="37.1441510" lon="-1.9743430">
        <ele>165.9</ele>
        <time>2019-10-18T08:53:16Z</time>
      </trkpt>
      <trkpt lat="37.1441650" lon="-1.9743820">
        <ele>166.0</ele>
        <time>2019-10-18T08:53:17Z</time>
      </trkpt>
      <trkpt lat="37.1441790" lon="-1.9744220">
        <ele>166.1</ele>
        <time>2019-10-18T08:53:18Z</time>
      </trkpt>
      <trkpt lat="37.1441940" lon="-1.9744620">
        <ele>166.2</ele>
        <time>2019-10-18T08:53:19Z</time>
      </trkpt>
      <trkpt lat="37.1442070" lon="-1.9745020">
        <ele>166.3</ele>
        <time>2019-10-18T08:53:20Z</time>
      </trkpt>
      <trkpt lat="37.1442210" lon="-1.9745430">
        <ele>166.4</ele>
        <time>2019-10-18T08:53:21Z</time>
      </trkpt>
      <trkpt lat="37.1442360" lon="-1.9745840">
        <ele>166.5</ele>
        <time>2019-10-18T08:53:22Z</time>
      </trkpt>
      <trkpt lat="37.1442520" lon="-1.9746240">
        <ele>166.6</ele>
        <time>2019-10-18T08:53:23Z</time>
      </trkpt>
      <trkpt lat="37.1442680" lon="-1.9746650">
        <ele>166.7</ele>
        <time>2019-10-18T08:53:24Z</time>
      </trkpt>
      <trkpt lat="37.1442850" lon="-1.9747060">
        <ele>166.8</ele>
        <time>2019-10-18T08:53:25Z</time>
      </trkpt>
      <trkpt lat="37.1443030" lon="-1.9747460">
        <ele>167.0</ele>
        <time>2019-10-18T08:53:26Z</time>
      </trkpt>
      <trkpt lat="37.1443200" lon="-1.9747860">
        <ele>167.1</ele>
        <time>2019-10-18T08:53:27Z</time>
      </trkpt>
      <trkpt lat="37.1443380" lon="-1.9748260">
        <ele>167.2</ele>
        <time>2019-10-18T08:53:28Z</time>
      </trkpt>
      <trkpt lat="37.1443540" lon="-1.9748660">
        <ele>167.4</ele>
        <time>2019-10-18T08:53:29Z</time>
      </trkpt>
      <trkpt lat="37.1443710" lon="-1.9749050">
        <ele>167.5</ele>
        <time>2019-10-18T08:53:30Z</time>
      </trkpt>
      <trkpt lat="37.1443860" lon="-1.9749450">
        <ele>167.7</ele>
        <time>2019-10-18T08:53:31Z</time>
      </trkpt>
      <trkpt lat="37.1444030" lon="-1.9749850">
        <ele>167.8</ele>
        <time>2019-10-18T08:53:32Z</time>
      </trkpt>
      <trkpt lat="37.1444190" lon="-1.9750250">
        <ele>168.0</ele>
        <time>2019-10-18T08:53:33Z</time>
      </trkpt>
      <trkpt lat="37.1444350" lon="-1.9750650">
        <ele>168.1</ele>
        <time>2019-10-18T08:53:34Z</time>
      </trkpt>
      <trkpt lat="37.1444510" lon="-1.9751060">
        <ele>168.3</ele>
        <time>2019-10-18T08:53:35Z</time>
      </trkpt>
      <trkpt lat="37.1444660" lon="-1.9751460">
        <ele>168.5</ele>
        <time>2019-10-18T08:53:36Z</time>
      </trkpt>
      <trkpt lat="37.1444830" lon="-1.9751850">
        <ele>168.6</ele>
        <time>2019-10-18T08:53:37Z</time>
      </trkpt>
      <trkpt lat="37.1444990" lon="-1.9752250">
        <ele>168.8</ele>
        <time>2019-10-18T08:53:38Z</time>
      </trkpt>
      <trkpt lat="37.1445160" lon="-1.9752640">
        <ele>168.9</ele>
        <time>2019-10-18T08:53:39Z</time>
      </trkpt>
      <trkpt lat="37.1445310" lon="-1.9753040">
        <ele>169.0</ele>
        <time>2019-10-18T08:53:40Z</time>
      </trkpt>
      <trkpt lat="37.1445480" lon="-1.9753430">
        <ele>169.2</ele>
        <time>2019-10-18T08:53:41Z</time>
      </trkpt>
      <trkpt lat="37.1445650" lon="-1.9753820">
        <ele>169.3</ele>
        <time>2019-10-18T08:53:42Z</time>
      </trkpt>
      <trkpt lat="37.1445810" lon="-1.9754210">
        <ele>169.4</ele>
        <time>2019-10-18T08:53:43Z</time>
      </trkpt>
      <trkpt lat="37.1445970" lon="-1.9754610">
        <ele>169.6</ele>
        <time>2019-10-18T08:53:44Z</time>
      </trkpt>
      <trkpt lat="37.1446130" lon="-1.9755010">
        <ele>169.7</ele>
        <time>2019-10-18T08:53:45Z</time>
      </trkpt>
      <trkpt lat="37.1446290" lon="-1.9755410">
        <ele>169.8</ele>
        <time>2019-10-18T08:53:46Z</time>
      </trkpt>
      <trkpt lat="37.1446470" lon="-1.9755800">
        <ele>169.9</ele>
        <time>2019-10-18T08:53:47Z</time>
      </trkpt>
      <trkpt lat="37.1446640" lon="-1.9756200">
        <ele>170.0</ele>
        <time>2019-10-18T08:53:48Z</time>
      </trkpt>
      <trkpt lat="37.1446810" lon="-1.9756610">
        <ele>170.1</ele>
        <time>2019-10-18T08:53:49Z</time>
      </trkpt>
      <trkpt lat="37.1446980" lon="-1.9757020">
        <ele>170.2</ele>
        <time>2019-10-18T08:53:50Z</time>
      </trkpt>
      <trkpt lat="37.1447130" lon="-1.9757420">
        <ele>170.3</ele>
        <time>2019-10-18T08:53:51Z</time>
      </trkpt>
      <trkpt lat="37.1447270" lon="-1.9757820">
        <ele>170.4</ele>
        <time>2019-10-18T08:53:52Z</time>
      </trkpt>
      <trkpt lat="37.1447410" lon="-1.9758220">
        <ele>170.6</ele>
        <time>2019-10-18T08:53:53Z</time>
      </trkpt>
      <trkpt lat="37.1447560" lon="-1.9758610">
        <ele>170.7</ele>
        <time>2019-10-18T08:53:54Z</time>
      </trkpt>
      <trkpt lat="37.1447730" lon="-1.9759010">
        <ele>170.8</ele>
        <time>2019-10-18T08:53:55Z</time>
      </trkpt>
      <trkpt lat="37.1447900" lon="-1.9759410">
        <ele>170.9</ele>
        <time>2019-10-18T08:53:56Z</time>
      </trkpt>
      <trkpt lat="37.1448060" lon="-1.9759810">
        <ele>171.0</ele>
        <time>2019-10-18T08:53:57Z</time>
      </trkpt>
      <trkpt lat="37.1448220" lon="-1.9760210">
        <ele>171.2</ele>
        <time>2019-10-18T08:53:58Z</time>
      </trkpt>
      <trkpt lat="37.1448380" lon="-1.9760620">
        <ele>171.4</ele>
        <time>2019-10-18T08:53:59Z</time>
      </trkpt>
      <trkpt lat="37.1448550" lon="-1.9761030">
        <ele>171.6</ele>
        <time>2019-10-18T08:54:00Z</time>
      </trkpt>
      <trkpt lat="37.1448710" lon="-1.9761430">
        <ele>171.8</ele>
        <time>2019-10-18T08:54:01Z</time>
      </trkpt>
      <trkpt lat="37.1448870" lon="-1.9761840">
        <ele>172.0</ele>
        <time>2019-10-18T08:54:02Z</time>
      </trkpt>
      <trkpt lat="37.1449010" lon="-1.9762250">
        <ele>172.2</ele>
        <time>2019-10-18T08:54:03Z</time>
      </trkpt>
      <trkpt lat="37.1449160" lon="-1.9762650">
        <ele>172.3</ele>
        <time>2019-10-18T08:54:04Z</time>
      </trkpt>
      <trkpt lat="37.1449310" lon="-1.9763050">
        <ele>172.5</ele>
        <time>2019-10-18T08:54:05Z</time>
      </trkpt>
      <trkpt lat="37.1449460" lon="-1.9763450">
        <ele>172.7</ele>
        <time>2019-10-18T08:54:06Z</time>
      </trkpt>
      <trkpt lat="37.1449610" lon="-1.9763840">
        <ele>172.8</ele>
        <time>2019-10-18T08:54:07Z</time>
      </trkpt>
      <trkpt lat="37.1449760" lon="-1.9764230">
        <ele>173.0</ele>
        <time>2019-10-18T08:54:08Z</time>
      </trkpt>
      <trkpt lat="37.1449900" lon="-1.9764630">
        <ele>173.2</ele>
        <time>2019-10-18T08:54:09Z</time>
      </trkpt>
      <trkpt lat="37.1450050" lon="-1.9765030">
        <ele>173.3</ele>
        <time>2019-10-18T08:54:10Z</time>
      </trkpt>
      <trkpt lat="37.1450200" lon="-1.9765430">
        <ele>173.5</ele>
        <time>2019-10-18T08:54:11Z</time>
      </trkpt>
      <trkpt lat="37.1450350" lon="-1.9765830">
        <ele>173.6</ele>
        <time>2019-10-18T08:54:12Z</time>
      </trkpt>
      <trkpt lat="37.1450510" lon="-1.9766230">
        <ele>173.8</ele>
        <time>2019-10-18T08:54:13Z</time>
      </trkpt>
      <trkpt lat="37.1450660" lon="-1.9766620">
        <ele>173.9</ele>
        <time>2019-10-18T08:54:14Z</time>
      </trkpt>
      <trkpt lat="37.1450800" lon="-1.9767020">
        <ele>174.1</ele>
        <time>2019-10-18T08:54:15Z</time>
      </trkpt>
      <trkpt lat="37.1450950" lon="-1.9767420">
        <ele>174.2</ele>
        <time>2019-10-18T08:54:16Z</time>
      </trkpt>
      <trkpt lat="37.1451090" lon="-1.9767830">
        <ele>174.4</ele>
        <time>2019-10-18T08:54:17Z</time>
      </trkpt>
      <trkpt lat="37.1451230" lon="-1.9768230">
        <ele>174.5</ele>
        <time>2019-10-18T08:54:18Z</time>
      </trkpt>
      <trkpt lat="37.1451390" lon="-1.9768640">
        <ele>174.6</ele>
        <time>2019-10-18T08:54:19Z</time>
      </trkpt>
      <trkpt lat="37.1451550" lon="-1.9769050">
        <ele>174.7</ele>
        <time>2019-10-18T08:54:20Z</time>
      </trkpt>
      <trkpt lat="37.1451730" lon="-1.9769460">
        <ele>174.9</ele>
        <time>2019-10-18T08:54:21Z</time>
      </trkpt>
      <trkpt lat="37.1451920" lon="-1.9769880">
        <ele>175.0</ele>
        <time>2019-10-18T08:54:22Z</time>
      </trkpt>
      <trkpt lat="37.1452110" lon="-1.9770290">
        <ele>175.1</ele>
        <time>2019-10-18T08:54:23Z</time>
      </trkpt>
      <trkpt lat="37.1452280" lon="-1.9770710">
        <ele>175.2</ele>
        <time>2019-10-18T08:54:24Z</time>
      </trkpt>
      <trkpt lat="37.1452450" lon="-1.9771120">
        <ele>175.3</ele>
        <time>2019-10-18T08:54:25Z</time>
      </trkpt>
      <trkpt lat="37.1452600" lon="-1.9771520">
        <ele>175.4</ele>
        <time>2019-10-18T08:54:26Z</time>
      </trkpt>
      <trkpt lat="37.1452760" lon="-1.9771920">
        <ele>175.5</ele>
        <time>2019-10-18T08:54:27Z</time>
      </trkpt>
      <trkpt lat="37.1452920" lon="-1.9772320">
        <ele>175.6</ele>
        <time>2019-10-18T08:54:28Z</time>
      </trkpt>
      <trkpt lat="37.1453070" lon="-1.9772720">
        <ele>175.7</ele>
        <time>2019-10-18T08:54:29Z</time>
      </trkpt>
      <trkpt lat="37.1453230" lon="-1.9773120">
        <ele>175.8</ele>
        <time>2019-10-18T08:54:30Z</time>
      </trkpt>
      <trkpt lat="37.1453370" lon="-1.9773520">
        <ele>175.9</ele>
        <time>2019-10-18T08:54:31Z</time>
      </trkpt>
      <trkpt lat="37.1453510" lon="-1.9773920">
        <ele>176.0</ele>
        <time>2019-10-18T08:54:32Z</time>
      </trkpt>
      <trkpt lat="37.1453660" lon="-1.9774320">
        <ele>176.1</ele>
        <time>2019-10-18T08:54:33Z</time>
      </trkpt>
      <trkpt lat="37.1453820" lon="-1.9774720">
        <ele>176.2</ele>
        <time>2019-10-18T08:54:34Z</time>
      </trkpt>
      <trkpt lat="37.1453980" lon="-1.9775110">
        <ele>176.2</ele>
        <time>2019-10-18T08:54:35Z</time>
      </trkpt>
      <trkpt lat="37.1454140" lon="-1.9775500">
        <ele>176.3</ele>
        <time>2019-10-18T08:54:36Z</time>
      </trkpt>
      <trkpt lat="37.1454300" lon="-1.9775890">
        <ele>176.4</ele>
        <time>2019-10-18T08:54:37Z</time>
      </trkpt>
      <trkpt lat="37.1454480" lon="-1.9776300">
        <ele>176.6</ele>
        <time>2019-10-18T08:54:38Z</time>
      </trkpt>
      <trkpt lat="37.1454650" lon="-1.9776710">
        <ele>176.7</ele>
        <time>2019-10-18T08:54:39Z</time>
      </trkpt>
      <trkpt lat="37.1454810" lon="-1.9777130">
        <ele>176.8</ele>
        <time>2019-10-18T08:54:40Z</time>
      </trkpt>
      <trkpt lat="37.1454980" lon="-1.9777540">
        <ele>176.9</ele>
        <time>2019-10-18T08:54:41Z</time>
      </trkpt>
      <trkpt lat="37.1455150" lon="-1.9777940">
        <ele>177.1</ele>
        <time>2019-10-18T08:54:42Z</time>
      </trkpt>
      <trkpt lat="37.1455310" lon="-1.9778340">
        <ele>177.2</ele>
        <time>2019-10-18T08:54:43Z</time>
      </trkpt>
      <trkpt lat="37.1455460" lon="-1.9778750">
        <ele>177.3</ele>
        <time>2019-10-18T08:54:44Z</time>
      </trkpt>
      <trkpt lat="37.1455610" lon="-1.9779160">
        <ele>177.5</ele>
        <time>2019-10-18T08:54:45Z</time>
      </trkpt>
      <trkpt lat="37.1455760" lon="-1.9779580">
        <ele>177.6</ele>
        <time>2019-10-18T08:54:46Z</time>
      </trkpt>
      <trkpt lat="37.1455920" lon="-1.9780000">
        <ele>177.7</ele>
        <time>2019-10-18T08:54:47Z</time>
      </trkpt>
      <trkpt lat="37.1456080" lon="-1.9780420">
        <ele>177.9</ele>
        <time>2019-10-18T08:54:48Z</time>
      </trkpt>
      <trkpt lat="37.1456230" lon="-1.9780840">
        <ele>178.0</ele>
        <time>2019-10-18T08:54:49Z</time>
      </trkpt>
      <trkpt lat="37.1456390" lon="-1.9781260">
        <ele>178.1</ele>
        <time>2019-10-18T08:54:50Z</time>
      </trkpt>
      <trkpt lat="37.1456560" lon="-1.9781690">
        <ele>178.3</ele>
        <time>2019-10-18T08:54:51Z</time>
      </trkpt>
      <trkpt lat="37.1456730" lon="-1.9782100">
        <ele>178.4</ele>
        <time>2019-10-18T08:54:52Z</time>
      </trkpt>
      <trkpt lat="37.1456900" lon="-1.9782520">
        <ele>178.6</ele>
        <time>2019-10-18T08:54:53Z</time>
      </trkpt>
      <trkpt lat="37.1457070" lon="-1.9782930">
        <ele>178.7</ele>
        <time>2019-10-18T08:54:54Z</time>
      </trkpt>
      <trkpt lat="37.1457230" lon="-1.9783350">
        <ele>178.9</ele>
        <time>2019-10-18T08:54:55Z</time>
      </trkpt>
      <trkpt lat="37.1457400" lon="-1.9783760">
        <ele>179.0</ele>
        <time>2019-10-18T08:54:56Z</time>
      </trkpt>
      <trkpt lat="37.1457570" lon="-1.9784180">
        <ele>179.2</ele>
        <time>2019-10-18T08:54:57Z</time>
      </trkpt>
      <trkpt lat="37.1457740" lon="-1.9784590">
        <ele>179.3</ele>
        <time>2019-10-18T08:54:58Z</time>
      </trkpt>
      <trkpt lat="37.1457910" lon="-1.9784990">
        <ele>179.5</ele>
        <time>2019-10-18T08:54:59Z</time>
      </trkpt>
      <trkpt lat="37.1458060" lon="-1.9785390">
        <ele>179.6</ele>
        <time>2019-10-18T08:55:00Z</time>
      </trkpt>
      <trkpt lat="37.1458220" lon="-1.9785780">
        <ele>179.8</ele>
        <time>2019-10-18T08:55:01Z</time>
      </trkpt>
      <trkpt lat="37.1458370" lon="-1.9786170">
        <ele>179.9</ele>
        <time>2019-10-18T08:55:02Z</time>
      </trkpt>
      <trkpt lat="37.1458540" lon="-1.9786570">
        <ele>180.1</ele>
        <time>2019-10-18T08:55:03Z</time>
      </trkpt>
      <trkpt lat="37.1458700" lon="-1.9786970">
        <ele>180.2</ele>
        <time>2019-10-18T08:55:04Z</time>
      </trkpt>
      <trkpt lat="37.1458850" lon="-1.9787370">
        <ele>180.4</ele>
        <time>2019-10-18T08:55:05Z</time>
      </trkpt>
      <trkpt lat="37.1459010" lon="-1.9787770">
        <ele>180.5</ele>
        <time>2019-10-18T08:55:06Z</time>
      </trkpt>
      <trkpt lat="37.1459170" lon="-1.9788170">
        <ele>180.7</ele>
        <time>2019-10-18T08:55:07Z</time>
      </trkpt>
      <trkpt lat="37.1459330" lon="-1.9788570">
        <ele>180.8</ele>
        <time>2019-10-18T08:55:08Z</time>
      </trkpt>
      <trkpt lat="37.1459490" lon="-1.9788980">
        <ele>181.0</ele>
        <time>2019-10-18T08:55:09Z</time>
      </trkpt>
      <trkpt lat="37.1459640" lon="-1.9789380">
        <ele>181.1</ele>
        <time>2019-10-18T08:55:10Z</time>
      </trkpt>
      <trkpt lat="37.1459800" lon="-1.9789790">
        <ele>181.2</ele>
        <time>2019-10-18T08:55:11Z</time>
      </trkpt>
      <trkpt lat="37.1459960" lon="-1.9790200">
        <ele>181.4</ele>
        <time>2019-10-18T08:55:12Z</time>
      </trkpt>
      <trkpt lat="37.1460130" lon="-1.9790600">
        <ele>181.5</ele>
        <time>2019-10-18T08:55:13Z</time>
      </trkpt>
      <trkpt lat="37.1460290" lon="-1.9791010">
        <ele>181.6</ele>
        <time>2019-10-18T08:55:14Z</time>
      </trkpt>
      <trkpt lat="37.1460440" lon="-1.9791410">
        <ele>181.8</ele>
        <time>2019-10-18T08:55:15Z</time>
      </trkpt>
      <trkpt lat="37.1460590" lon="-1.9791810">
        <ele>182.0</ele>
        <time>2019-10-18T08:55:16Z</time>
      </trkpt>
      <trkpt lat="37.1460750" lon="-1.9792220">
        <ele>182.1</ele>
        <time>2019-10-18T08:55:17Z</time>
      </trkpt>
      <trkpt lat="37.1460900" lon="-1.9792620">
        <ele>182.3</ele>
        <time>2019-10-18T08:55:18Z</time>
      </trkpt>
      <trkpt lat="37.1461050" lon="-1.9793030">
        <ele>182.4</ele>
        <time>2019-10-18T08:55:19Z</time>
      </trkpt>
      <trkpt lat="37.1461210" lon="-1.9793430">
        <ele>182.6</ele>
        <time>2019-10-18T08:55:20Z</time>
      </trkpt>
      <trkpt lat="37.1461370" lon="-1.9793850">
        <ele>182.7</ele>
        <time>2019-10-18T08:55:21Z</time>
      </trkpt>
      <trkpt lat="37.1461530" lon="-1.9794250">
        <ele>182.9</ele>
        <time>2019-10-18T08:55:22Z</time>
      </trkpt>
      <trkpt lat="37.1461700" lon="-1.9794660">
        <ele>183.1</ele>
        <time>2019-10-18T08:55:23Z</time>
      </trkpt>
      <trkpt lat="37.1461850" lon="-1.9795070">
        <ele>183.2</ele>
        <time>2019-10-18T08:55:24Z</time>
      </trkpt>
      <trkpt lat="37.1462010" lon="-1.9795480">
        <ele>183.4</ele>
        <time>2019-10-18T08:55:25Z</time>
      </trkpt>
      <trkpt lat="37.1462170" lon="-1.9795890">
        <ele>183.5</ele>
        <time>2019-10-18T08:55:26Z</time>
      </trkpt>
      <trkpt lat="37.1462340" lon="-1.9796290">
        <ele>183.7</ele>
        <time>2019-10-18T08:55:27Z</time>
      </trkpt>
      <trkpt lat="37.1462520" lon="-1.9796690">
        <ele>183.8</ele>
        <time>2019-10-18T08:55:28Z</time>
      </trkpt>
      <trkpt lat="37.1462680" lon="-1.9797090">
        <ele>184.0</ele>
        <time>2019-10-18T08:55:29Z</time>
      </trkpt>
      <trkpt lat="37.1462820" lon="-1.9797500">
        <ele>184.1</ele>
        <time>2019-10-18T08:55:30Z</time>
      </trkpt>
      <trkpt lat="37.1462960" lon="-1.9797920">
        <ele>184.3</ele>
        <time>2019-10-18T08:55:31Z</time>
      </trkpt>
      <trkpt lat="37.1463110" lon="-1.9798340">
        <ele>184.4</ele>
        <time>2019-10-18T08:55:32Z</time>
      </trkpt>
      <trkpt lat="37.1463260" lon="-1.9798770">
        <ele>184.6</ele>
        <time>2019-10-18T08:55:33Z</time>
      </trkpt>
      <trkpt lat="37.1463420" lon="-1.9799200">
        <ele>184.7</ele>
        <time>2019-10-18T08:55:34Z</time>
      </trkpt>
      <trkpt lat="37.1463580" lon="-1.9799630">
        <ele>184.9</ele>
        <time>2019-10-18T08:55:35Z</time>
      </trkpt>
      <trkpt lat="37.1463730" lon="-1.9800060">
        <ele>185.1</ele>
        <time>2019-10-18T08:55:36Z</time>
      </trkpt>
      <trkpt lat="37.1463880" lon="-1.9800490">
        <ele>185.3</ele>
        <time>2019-10-18T08:55:37Z</time>
      </trkpt>
      <trkpt lat="37.1464040" lon="-1.9800930">
        <ele>185.4</ele>
        <time>2019-10-18T08:55:38Z</time>
      </trkpt>
      <trkpt lat="37.1464190" lon="-1.9801370">
        <ele>185.6</ele>
        <time>2019-10-18T08:55:39Z</time>
      </trkpt>
      <trkpt lat="37.1464340" lon="-1.9801810">
        <ele>185.8</ele>
        <time>2019-10-18T08:55:40Z</time>
      </trkpt>
      <trkpt lat="37.1464490" lon="-1.9802260">
        <ele>186.0</ele>
        <time>2019-10-18T08:55:41Z</time>
      </trkpt>
      <trkpt lat="37.1464640" lon="-1.9802700">
        <ele>186.2</ele>
        <time>2019-10-18T08:55:42Z</time>
      </trkpt>
      <trkpt lat="37.1464780" lon="-1.9803150">
        <ele>186.4</ele>
        <time>2019-10-18T08:55:43Z</time>
      </trkpt>
      <trkpt lat="37.1464910" lon="-1.9803600">
        <ele>186.5</ele>
        <time>2019-10-18T08:55:44Z</time>
      </trkpt>
      <trkpt lat="37.1465040" lon="-1.9804050">
        <ele>186.7</ele>
        <time>2019-10-18T08:55:45Z</time>
      </trkpt>
      <trkpt lat="37.1465160" lon="-1.9804500">
        <ele>186.9</ele>
        <time>2019-10-18T08:55:46Z</time>
      </trkpt>
      <trkpt lat="37.1465280" lon="-1.9804940">
        <ele>187.0</ele>
        <time>2019-10-18T08:55:47Z</time>
      </trkpt>
      <trkpt lat="37.1465400" lon="-1.9805390">
        <ele>187.2</ele>
        <time>2019-10-18T08:55:48Z</time>
      </trkpt>
      <trkpt lat="37.1465510" lon="-1.9805840">
        <ele>187.3</ele>
        <time>2019-10-18T08:55:49Z</time>
      </trkpt>
      <trkpt lat="37.1465620" lon="-1.9806300">
        <ele>187.5</ele>
        <time>2019-10-18T08:55:50Z</time>
      </trkpt>
      <trkpt lat="37.1465720" lon="-1.9806770">
        <ele>187.6</ele>
        <time>2019-10-18T08:55:51Z</time>
      </trkpt>
      <trkpt lat="37.1465820" lon="-1.9807240">
        <ele>187.7</ele>
        <time>2019-10-18T08:55:52Z</time>
      </trkpt>
      <trkpt lat="37.1465930" lon="-1.9807700">
        <ele>187.8</ele>
        <time>2019-10-18T08:55:53Z</time>
      </trkpt>
      <trkpt lat="37.1466030" lon="-1.9808160">
        <ele>187.9</ele>
        <time>2019-10-18T08:55:54Z</time>
      </trkpt>
      <trkpt lat="37.1466110" lon="-1.9808620">
        <ele>188.0</ele>
        <time>2019-10-18T08:55:55Z</time>
      </trkpt>
      <trkpt lat="37.1466190" lon="-1.9809080">
        <ele>188.0</ele>
        <time>2019-10-18T08:55:56Z</time>
      </trkpt>
      <trkpt lat="37.1466250" lon="-1.9809540">
        <ele>188.1</ele>
        <time>2019-10-18T08:55:57Z</time>
      </trkpt>
      <trkpt lat="37.1466320" lon="-1.9809990">
        <ele>188.1</ele>
        <time>2019-10-18T08:55:58Z</time>
      </trkpt>
      <trkpt lat="37.1466380" lon="-1.9810450">
        <ele>188.2</ele>
        <time>2019-10-18T08:55:59Z</time>
      </trkpt>
      <trkpt lat="37.1466450" lon="-1.9810900">
        <ele>188.2</ele>
        <time>2019-10-18T08:56:00Z</time>
      </trkpt>
      <trkpt lat="37.1466510" lon="-1.9811360">
        <ele>188.3</ele>
        <time>2019-10-18T08:56:01Z</time>
      </trkpt>
      <trkpt lat="37.1466590" lon="-1.9811830">
        <ele>188.4</ele>
        <time>2019-10-18T08:56:02Z</time>
      </trkpt>
      <trkpt lat="37.1466660" lon="-1.9812290">
        <ele>188.4</ele>
        <time>2019-10-18T08:56:03Z</time>
      </trkpt>
      <trkpt lat="37.1466730" lon="-1.9812760">
        <ele>188.5</ele>
        <time>2019-10-18T08:56:04Z</time>
      </trkpt>
      <trkpt lat="37.1466790" lon="-1.9813240">
        <ele>188.7</ele>
        <time>2019-10-18T08:56:05Z</time>
      </trkpt>
      <trkpt lat="37.1466850" lon="-1.9813720">
        <ele>188.8</ele>
        <time>2019-10-18T08:56:06Z</time>
      </trkpt>
      <trkpt lat="37.1466930" lon="-1.9814200">
        <ele>188.9</ele>
        <time>2019-10-18T08:56:07Z</time>
      </trkpt>
      <trkpt lat="37.1467000" lon="-1.9814680">
        <ele>188.9</ele>
        <time>2019-10-18T08:56:08Z</time>
      </trkpt>
      <trkpt lat="37.1467050" lon="-1.9815160">
        <ele>189.0</ele>
        <time>2019-10-18T08:56:09Z</time>
      </trkpt>
      <trkpt lat="37.1467110" lon="-1.9815640">
        <ele>189.1</ele>
        <time>2019-10-18T08:56:10Z</time>
      </trkpt>
      <trkpt lat="37.1467160" lon="-1.9816120">
        <ele>189.1</ele>
        <time>2019-10-18T08:56:11Z</time>
      </trkpt>
      <trkpt lat="37.1467210" lon="-1.9816600">
        <ele>189.2</ele>
        <time>2019-10-18T08:56:12Z</time>
      </trkpt>
      <trkpt lat="37.1467240" lon="-1.9817090">
        <ele>189.2</ele>
        <time>2019-10-18T08:56:13Z</time>
      </trkpt>
      <trkpt lat="37.1467260" lon="-1.9817570">
        <ele>189.2</ele>
        <time>2019-10-18T08:56:14Z</time>
      </trkpt>
      <trkpt lat="37.1467280" lon="-1.9818050">
        <ele>189.1</ele>
        <time>2019-10-18T08:56:15Z</time>
      </trkpt>
      <trkpt lat="37.1467290" lon="-1.9818520">
        <ele>189.1</ele>
        <time>2019-10-18T08:56:16Z</time>
      </trkpt>
      <trkpt lat="37.1467280" lon="-1.9819000">
        <ele>189.1</ele>
        <time>2019-10-18T08:56:17Z</time>
      </trkpt>
      <trkpt lat="37.1467260" lon="-1.9819470">
        <ele>189.1</ele>
        <time>2019-10-18T08:56:18Z</time>
      </trkpt>
      <trkpt lat="37.1467220" lon="-1.9819950">
        <ele>189.1</ele>
        <time>2019-10-18T08:56:19Z</time>
      </trkpt>
      <trkpt lat="37.1467170" lon="-1.9820430">
        <ele>189.1</ele>
        <time>2019-10-18T08:56:20Z</time>
      </trkpt>
      <trkpt lat="37.1467100" lon="-1.9820930">
        <ele>189.1</ele>
        <time>2019-10-18T08:56:21Z</time>
      </trkpt>
      <trkpt lat="37.1467010" lon="-1.9821430">
        <ele>189.1</ele>
        <time>2019-10-18T08:56:22Z</time>
      </trkpt>
      <trkpt lat="37.1466900" lon="-1.9821940">
        <ele>189.0</ele>
        <time>2019-10-18T08:56:23Z</time>
      </trkpt>
      <trkpt lat="37.1466780" lon="-1.9822450">
        <ele>189.0</ele>
        <time>2019-10-18T08:56:24Z</time>
      </trkpt>
      <trkpt lat="37.1466640" lon="-1.9822960">
        <ele>189.0</ele>
        <time>2019-10-18T08:56:25Z</time>
      </trkpt>
      <trkpt lat="37.1466480" lon="-1.9823480">
        <ele>189.0</ele>
        <time>2019-10-18T08:56:26Z</time>
      </trkpt>
      <trkpt lat="37.1466300" lon="-1.9824010">
        <ele>188.9</ele>
        <time>2019-10-18T08:56:27Z</time>
      </trkpt>
      <trkpt lat="37.1466110" lon="-1.9824550">
        <ele>188.9</ele>
        <time>2019-10-18T08:56:28Z</time>
      </trkpt>
      <trkpt lat="37.1465920" lon="-1.9825100">
        <ele>188.8</ele>
        <time>2019-10-18T08:56:29Z</time>
      </trkpt>
      <trkpt lat="37.1465720" lon="-1.9825680">
        <ele>188.7</ele>
        <time>2019-10-18T08:56:30Z</time>
      </trkpt>
      <trkpt lat="37.1465510" lon="-1.9826280">
        <ele>188.4</ele>
        <time>2019-10-18T08:56:31Z</time>
      </trkpt>
      <trkpt lat="37.1465300" lon="-1.9826910">
        <ele>188.1</ele>
        <time>2019-10-18T08:56:32Z</time>
      </trkpt>
      <trkpt lat="37.1465090" lon="-1.9827570">
        <ele>187.8</ele>
        <time>2019-10-18T08:56:33Z</time>
      </trkpt>
      <trkpt lat="37.1464880" lon="-1.9828260">
        <ele>187.6</ele>
        <time>2019-10-18T08:56:34Z</time>
      </trkpt>
      <trkpt lat="37.1464690" lon="-1.9828990">
        <ele>187.3</ele>
        <time>2019-10-18T08:56:35Z</time>
      </trkpt>
      <trkpt lat="37.1464500" lon="-1.9829750">
        <ele>187.0</ele>
        <time>2019-10-18T08:56:36Z</time>
      </trkpt>
      <trkpt lat="37.1464340" lon="-1.9830530">
        <ele>186.5</ele>
        <time>2019-10-18T08:56:37Z</time>
      </trkpt>
      <trkpt lat="37.1464190" lon="-1.9831350">
        <ele>186.1</ele>
        <time>2019-10-18T08:56:38Z</time>
      </trkpt>
      <trkpt lat="37.1464070" lon="-1.9832200">
        <ele>185.6</ele>
        <time>2019-10-18T08:56:39Z</time>
      </trkpt>
      <trkpt lat="37.1463980" lon="-1.9833070">
        <ele>185.2</ele>
        <time>2019-10-18T08:56:40Z</time>
      </trkpt>
      <trkpt lat="37.1463910" lon="-1.9833960">
        <ele>184.7</ele>
        <time>2019-10-18T08:56:41Z</time>
      </trkpt>
      <trkpt lat="37.1463870" lon="-1.9834870">
        <ele>184.3</ele>
        <time>2019-10-18T08:56:42Z</time>
      </trkpt>
      <trkpt lat="37.1463850" lon="-1.9835780">
        <ele>183.8</ele>
        <time>2019-10-18T08:56:43Z</time>
      </trkpt>
      <trkpt lat="37.1463860" lon="-1.9836700">
        <ele>183.3</ele>
        <time>2019-10-18T08:56:44Z</time>
      </trkpt>
      <trkpt lat="37.1463920" lon="-1.9837620">
        <ele>182.9</ele>
        <time>2019-10-18T08:56:45Z</time>
      </trkpt>
      <trkpt lat="37.1464010" lon="-1.9838540">
        <ele>182.5</ele>
        <time>2019-10-18T08:56:46Z</time>
      </trkpt>
      <trkpt lat="37.1464140" lon="-1.9839450">
        <ele>182.1</ele>
        <time>2019-10-18T08:56:47Z</time>
      </trkpt>
      <trkpt lat="37.1464320" lon="-1.9840350">
        <ele>181.8</ele>
        <time>2019-10-18T08:56:48Z</time>
      </trkpt>
      <trkpt lat="37.1464530" lon="-1.9841250">
        <ele>181.6</ele>
        <time>2019-10-18T08:56:49Z</time>
      </trkpt>
      <trkpt lat="37.1464760" lon="-1.9842140">
        <ele>181.4</ele>
        <time>2019-10-18T08:56:50Z</time>
      </trkpt>
      <trkpt lat="37.1465000" lon="-1.9843030">
        <ele>181.2</ele>
        <time>2019-10-18T08:56:51Z</time>
      </trkpt>
      <trkpt lat="37.1465230" lon="-1.9843910">
        <ele>181.0</ele>
        <time>2019-10-18T08:56:52Z</time>
      </trkpt>
      <trkpt lat="37.1465440" lon="-1.9844780">
        <ele>180.9</ele>
        <time>2019-10-18T08:56:53Z</time>
      </trkpt>
      <trkpt lat="37.1465630" lon="-1.9845650">
        <ele>180.7</ele>
        <time>2019-10-18T08:56:54Z</time>
      </trkpt>
      <trkpt lat="37.1465810" lon="-1.9846520">
        <ele>180.5</ele>
        <time>2019-10-18T08:56:55Z</time>
      </trkpt>
      <trkpt lat="37.1465970" lon="-1.9847380">
        <ele>180.4</ele>
        <time>2019-10-18T08:56:56Z</time>
      </trkpt>
      <trkpt lat="37.1466100" lon="-1.9848250">
        <ele>180.3</ele>
        <time>2019-10-18T08:56:57Z</time>
      </trkpt>
      <trkpt lat="37.1466210" lon="-1.9849110">
        <ele>180.3</ele>
        <time>2019-10-18T08:56:58Z</time>
      </trkpt>
      <trkpt lat="37.1466300" lon="-1.9849960">
        <ele>180.4</ele>
        <time>2019-10-18T08:56:59Z</time>
      </trkpt>
      <trkpt lat="37.1466360" lon="-1.9850790">
        <ele>180.7</ele>
        <time>2019-10-18T08:57:00Z</time>
      </trkpt>
      <trkpt lat="37.1466400" lon="-1.9851610">
        <ele>181.0</ele>
        <time>2019-10-18T08:57:01Z</time>
      </trkpt>
      <trkpt lat="37.1466420" lon="-1.9852400">
        <ele>181.4</ele>
        <time>2019-10-18T08:57:02Z</time>
      </trkpt>
      <trkpt lat="37.1466430" lon="-1.9853170">
        <ele>181.8</ele>
        <time>2019-10-18T08:57:03Z</time>
      </trkpt>
      <trkpt lat="37.1466420" lon="-1.9853900">
        <ele>182.3</ele>
        <time>2019-10-18T08:57:04Z</time>
      </trkpt>
      <trkpt lat="37.1466400" lon="-1.9854610">
        <ele>182.8</ele>
        <time>2019-10-18T08:57:05Z</time>
      </trkpt>
      <trkpt lat="37.1466350" lon="-1.9855290">
        <ele>183.3</ele>
        <time>2019-10-18T08:57:06Z</time>
      </trkpt>
      <trkpt lat="37.1466290" lon="-1.9855930">
        <ele>183.6</ele>
        <time>2019-10-18T08:57:07Z</time>
      </trkpt>
      <trkpt lat="37.1466220" lon="-1.9856560">
        <ele>184.0</ele>
        <time>2019-10-18T08:57:08Z</time>
      </trkpt>
      <trkpt lat="37.1466160" lon="-1.9857160">
        <ele>184.3</ele>
        <time>2019-10-18T08:57:09Z</time>
      </trkpt>
      <trkpt lat="37.1466100" lon="-1.9857720">
        <ele>184.7</ele>
        <time>2019-10-18T08:57:10Z</time>
      </trkpt>
      <trkpt lat="37.1466020" lon="-1.9858240">
        <ele>185.0</ele>
        <time>2019-10-18T08:57:11Z</time>
      </trkpt>
      <trkpt lat="37.1465940" lon="-1.9858750">
        <ele>185.2</ele>
        <time>2019-10-18T08:57:12Z</time>
      </trkpt>
      <trkpt lat="37.1465850" lon="-1.9859240">
        <ele>185.5</ele>
        <time>2019-10-18T08:57:13Z</time>
      </trkpt>
      <trkpt lat="37.1465750" lon="-1.9859740">
        <ele>185.8</ele>
        <time>2019-10-18T08:57:14Z</time>
      </trkpt>
      <trkpt lat="37.1465640" lon="-1.9860230">
        <ele>186.1</ele>
        <time>2019-10-18T08:57:15Z</time>
      </trkpt>
      <trkpt lat="37.1465520" lon="-1.9860700">
        <ele>186.3</ele>
        <time>2019-10-18T08:57:16Z</time>
      </trkpt>
      <trkpt lat="37.1465410" lon="-1.9861170">
        <ele>186.6</ele>
        <time>2019-10-18T08:57:17Z</time>
      </trkpt>
      <trkpt lat="37.1465310" lon="-1.9861630">
        <ele>186.9</ele>
        <time>2019-10-18T08:57:18Z</time>
      </trkpt>
      <trkpt lat="37.1465190" lon="-1.9862080">
        <ele>187.1</ele>
        <time>2019-10-18T08:57:19Z</time>
      </trkpt>
      <trkpt lat="37.1465070" lon="-1.9862510">
        <ele>187.3</ele>
        <time>2019-10-18T08:57:20Z</time>
      </trkpt>
      <trkpt lat="37.1464930" lon="-1.9862940">
        <ele>187.6</ele>
        <time>2019-10-18T08:57:21Z</time>
      </trkpt>
      <trkpt lat="37.1464790" lon="-1.9863370">
        <ele>187.8</ele>
        <time>2019-10-18T08:57:22Z</time>
      </trkpt>
      <trkpt lat="37.1464640" lon="-1.9863790">
        <ele>188.1</ele>
        <time>2019-10-18T08:57:23Z</time>
      </trkpt>
      <trkpt lat="37.1464500" lon="-1.9864220">
        <ele>188.3</ele>
        <time>2019-10-18T08:57:24Z</time>
      </trkpt>
      <trkpt lat="37.1464340" lon="-1.9864640">
        <ele>188.5</ele>
        <time>2019-10-18T08:57:25Z</time>
      </trkpt>
      <trkpt lat="37.1464170" lon="-1.9865070">
        <ele>188.8</ele>
        <time>2019-10-18T08:57:26Z</time>
      </trkpt>
      <trkpt lat="37.1464000" lon="-1.9865480">
        <ele>189.0</ele>
        <time>2019-10-18T08:57:27Z</time>
      </trkpt>
      <trkpt lat="37.1463830" lon="-1.9865880">
        <ele>189.2</ele>
        <time>2019-10-18T08:57:28Z</time>
      </trkpt>
      <trkpt lat="37.1463660" lon="-1.9866290">
        <ele>189.5</ele>
        <time>2019-10-18T08:57:29Z</time>
      </trkpt>
      <trkpt lat="37.1463470" lon="-1.9866700">
        <ele>189.7</ele>
        <time>2019-10-18T08:57:30Z</time>
      </trkpt>
      <trkpt lat="37.1463290" lon="-1.9867110">
        <ele>190.0</ele>
        <time>2019-10-18T08:57:31Z</time>
      </trkpt>
      <trkpt lat="37.1463110" lon="-1.9867520">
        <ele>190.2</ele>
        <time>2019-10-18T08:57:32Z</time>
      </trkpt>
      <trkpt lat="37.1462940" lon="-1.9867920">
        <ele>190.4</ele>
        <time>2019-10-18T08:57:33Z</time>
      </trkpt>
      <trkpt lat="37.1462760" lon="-1.9868310">
        <ele>190.7</ele>
        <time>2019-10-18T08:57:34Z</time>
      </trkpt>
      <trkpt lat="37.1462570" lon="-1.9868710">
        <ele>190.9</ele>
        <time>2019-10-18T08:57:35Z</time>
      </trkpt>
      <trkpt lat="37.1462380" lon="-1.9869100">
        <ele>191.1</ele>
        <time>2019-10-18T08:57:36Z</time>
      </trkpt>
      <trkpt lat="37.1462200" lon="-1.9869480">
        <ele>191.3</ele>
        <time>2019-10-18T08:57:37Z</time>
      </trkpt>
      <trkpt lat="37.1462020" lon="-1.9869850">
        <ele>191.6</ele>
        <time>2019-10-18T08:57:38Z</time>
      </trkpt>
      <trkpt lat="37.1461830" lon="-1.9870220">
        <ele>191.8</ele>
        <time>2019-10-18T08:57:39Z</time>
      </trkpt>
      <trkpt lat="37.1461630" lon="-1.9870580">
        <ele>192.0</ele>
        <time>2019-10-18T08:57:40Z</time>
      </trkpt>
      <trkpt lat="37.1461420" lon="-1.9870940">
        <ele>192.1</ele>
        <time>2019-10-18T08:57:41Z</time>
      </trkpt>
      <trkpt lat="37.1461210" lon="-1.9871300">
        <ele>192.3</ele>
        <time>2019-10-18T08:57:42Z</time>
      </trkpt>
      <trkpt lat="37.1461010" lon="-1.9871680">
        <ele>192.5</ele>
        <time>2019-10-18T08:57:43Z</time>
      </trkpt>
      <trkpt lat="37.1460790" lon="-1.9872070">
        <ele>192.6</ele>
        <time>2019-10-18T08:57:44Z</time>
      </trkpt>
      <trkpt lat="37.1460540" lon="-1.9872450">
        <ele>192.8</ele>
        <time>2019-10-18T08:57:45Z</time>
      </trkpt>
      <trkpt lat="37.1460290" lon="-1.9872820">
        <ele>193.0</ele>
        <time>2019-10-18T08:57:46Z</time>
      </trkpt>
      <trkpt lat="37.1460040" lon="-1.9873200">
        <ele>193.1</ele>
        <time>2019-10-18T08:57:47Z</time>
      </trkpt>
      <trkpt lat="37.1459780" lon="-1.9873560">
        <ele>193.2</ele>
        <time>2019-10-18T08:57:48Z</time>
      </trkpt>
      <trkpt lat="37.1459530" lon="-1.9873920">
        <ele>193.3</ele>
        <time>2019-10-18T08:57:49Z</time>
      </trkpt>
      <trkpt lat="37.1459270" lon="-1.9874290">
        <ele>193.4</ele>
        <time>2019-10-18T08:57:50Z</time>
      </trkpt>
      <trkpt lat="37.1459020" lon="-1.9874670">
        <ele>193.4</ele>
        <time>2019-10-18T08:57:51Z</time>
      </trkpt>
      <trkpt lat="37.1458770" lon="-1.9875030">
        <ele>193.5</ele>
        <time>2019-10-18T08:57:52Z</time>
      </trkpt>
      <trkpt lat="37.1458500" lon="-1.9875390">
        <ele>193.6</ele>
        <time>2019-10-18T08:57:53Z</time>
      </trkpt>
      <trkpt lat="37.1458230" lon="-1.9875750">
        <ele>193.6</ele>
        <time>2019-10-18T08:57:54Z</time>
      </trkpt>
      <trkpt lat="37.1457950" lon="-1.9876100">
        <ele>193.7</ele>
        <time>2019-10-18T08:57:55Z</time>
      </trkpt>
      <trkpt lat="37.1457660" lon="-1.9876460">
        <ele>193.8</ele>
        <time>2019-10-18T08:57:56Z</time>
      </trkpt>
      <trkpt lat="37.1457350" lon="-1.9876830">
        <ele>193.9</ele>
        <time>2019-10-18T08:57:57Z</time>
      </trkpt>
      <trkpt lat="37.1457040" lon="-1.9877200">
        <ele>194.0</ele>
        <time>2019-10-18T08:57:58Z</time>
      </trkpt>
      <trkpt lat="37.1456720" lon="-1.9877580">
        <ele>194.2</ele>
        <time>2019-10-18T08:57:59Z</time>
      </trkpt>
      <trkpt lat="37.1456380" lon="-1.9877970">
        <ele>194.3</ele>
        <time>2019-10-18T08:58:00Z</time>
      </trkpt>
      <trkpt lat="37.1456030" lon="-1.9878350">
        <ele>194.4</ele>
        <time>2019-10-18T08:58:01Z</time>
      </trkpt>
      <trkpt lat="37.1455660" lon="-1.9878740">
        <ele>194.5</ele>
        <time>2019-10-18T08:58:02Z</time>
      </trkpt>
      <trkpt lat="37.1455290" lon="-1.9879130">
        <ele>194.5</ele>
        <time>2019-10-18T08:58:03Z</time>
      </trkpt>
      <trkpt lat="37.1454910" lon="-1.9879520">
        <ele>194.5</ele>
        <time>2019-10-18T08:58:04Z</time>
      </trkpt>
      <trkpt lat="37.1454520" lon="-1.9879900">
        <ele>194.5</ele>
        <time>2019-10-18T08:58:05Z</time>
      </trkpt>
      <trkpt lat="37.1454110" lon="-1.9880280">
        <ele>194.5</ele>
        <time>2019-10-18T08:58:06Z</time>
      </trkpt>
      <trkpt lat="37.1453700" lon="-1.9880670">
        <ele>194.3</ele>
        <time>2019-10-18T08:58:07Z</time>
      </trkpt>
      <trkpt lat="37.1453280" lon="-1.9881060">
        <ele>194.2</ele>
        <time>2019-10-18T08:58:08Z</time>
      </trkpt>
      <trkpt lat="37.1452850" lon="-1.9881470">
        <ele>193.9</ele>
        <time>2019-10-18T08:58:09Z</time>
      </trkpt>
      <trkpt lat="37.1452400" lon="-1.9881890">
        <ele>193.7</ele>
        <time>2019-10-18T08:58:10Z</time>
      </trkpt>
      <trkpt lat="37.1451940" lon="-1.9882340">
        <ele>193.3</ele>
        <time>2019-10-18T08:58:11Z</time>
      </trkpt>
      <trkpt lat="37.1451460" lon="-1.9882820">
        <ele>192.8</ele>
        <time>2019-10-18T08:58:12Z</time>
      </trkpt>
      <trkpt lat="37.1450970" lon="-1.9883330">
        <ele>192.2</ele>
        <time>2019-10-18T08:58:13Z</time>
      </trkpt>
      <trkpt lat="37.1450470" lon="-1.9883850">
        <ele>191.5</ele>
        <time>2019-10-18T08:58:14Z</time>
      </trkpt>
      <trkpt lat="37.1449950" lon="-1.9884400">
        <ele>190.9</ele>
        <time>2019-10-18T08:58:15Z</time>
      </trkpt>
      <trkpt lat="37.1449420" lon="-1.9884960">
        <ele>190.3</ele>
        <time>2019-10-18T08:58:16Z</time>
      </trkpt>
      <trkpt lat="37.1448860" lon="-1.9885550">
        <ele>189.7</ele>
        <time>2019-10-18T08:58:17Z</time>
      </trkpt>
      <trkpt lat="37.1448310" lon="-1.9886170">
        <ele>189.1</ele>
        <time>2019-10-18T08:58:18Z</time>
      </trkpt>
      <trkpt lat="37.1447750" lon="-1.9886840">
        <ele>188.5</ele>
        <time>2019-10-18T08:58:19Z</time>
      </trkpt>
      <trkpt lat="37.1447190" lon="-1.9887530">
        <ele>187.8</ele>
        <time>2019-10-18T08:58:20Z</time>
      </trkpt>
      <trkpt lat="37.1446610" lon="-1.9888250">
        <ele>187.1</ele>
        <time>2019-10-18T08:58:21Z</time>
      </trkpt>
      <trkpt lat="37.1446020" lon="-1.9889000">
        <ele>186.5</ele>
        <time>2019-10-18T08:58:22Z</time>
      </trkpt>
      <trkpt lat="37.1445420" lon="-1.9889760">
        <ele>185.8</ele>
        <time>2019-10-18T08:58:23Z</time>
      </trkpt>
      <trkpt lat="37.1444820" lon="-1.9890540">
        <ele>185.2</ele>
        <time>2019-10-18T08:58:24Z</time>
      </trkpt>
      <trkpt lat="37.1444220" lon="-1.9891350">
        <ele>184.6</ele>
        <time>2019-10-18T08:58:25Z</time>
      </trkpt>
      <trkpt lat="37.1443620" lon="-1.9892170">
        <ele>184.1</ele>
        <time>2019-10-18T08:58:26Z</time>
      </trkpt>
      <trkpt lat="37.1443030" lon="-1.9893020">
        <ele>183.6</ele>
        <time>2019-10-18T08:58:27Z</time>
      </trkpt>
      <trkpt lat="37.1442450" lon="-1.9893870">
        <ele>183.2</ele>
        <time>2019-10-18T08:58:28Z</time>
      </trkpt>
      <trkpt lat="37.1441880" lon="-1.9894740">
        <ele>182.8</ele>
        <time>2019-10-18T08:58:29Z</time>
      </trkpt>
      <trkpt lat="37.1441350" lon="-1.9895600">
        <ele>182.5</ele>
        <time>2019-10-18T08:58:30Z</time>
      </trkpt>
      <trkpt lat="37.1440830" lon="-1.9896450">
        <ele>182.3</ele>
        <time>2019-10-18T08:58:31Z</time>
      </trkpt>
      <trkpt lat="37.1440340" lon="-1.9897280">
        <ele>182.2</ele>
        <time>2019-10-18T08:58:32Z</time>
      </trkpt>
      <trkpt lat="37.1439870" lon="-1.9898110">
        <ele>182.2</ele>
        <time>2019-10-18T08:58:33Z</time>
      </trkpt>
      <trkpt lat="37.1439410" lon="-1.9898920">
        <ele>182.3</ele>
        <time>2019-10-18T08:58:34Z</time>
      </trkpt>
      <trkpt lat="37.1438960" lon="-1.9899720">
        <ele>182.5</ele>
        <time>2019-10-18T08:58:35Z</time>
      </trkpt>
      <trkpt lat="37.1438510" lon="-1.9900500">
        <ele>182.6</ele>
        <time>2019-10-18T08:58:36Z</time>
      </trkpt>
      <trkpt lat="37.1438080" lon="-1.9901270">
        <ele>182.8</ele>
        <time>2019-10-18T08:58:37Z</time>
      </trkpt>
      <trkpt lat="37.1437650" lon="-1.9902020">
        <ele>183.0</ele>
        <time>2019-10-18T08:58:38Z</time>
      </trkpt>
      <trkpt lat="37.1437230" lon="-1.9902760">
        <ele>183.1</ele>
        <time>2019-10-18T08:58:39Z</time>
      </trkpt>
      <trkpt lat="37.1436820" lon="-1.9903490">
        <ele>183.2</ele>
        <time>2019-10-18T08:58:40Z</time>
      </trkpt>
      <trkpt lat="37.1436410" lon="-1.9904200">
        <ele>183.4</ele>
        <time>2019-10-18T08:58:41Z</time>
      </trkpt>
      <trkpt lat="37.1436010" lon="-1.9904890">
        <ele>183.6</ele>
        <time>2019-10-18T08:58:42Z</time>
      </trkpt>
      <trkpt lat="37.1435620" lon="-1.9905570">
        <ele>183.9</ele>
        <time>2019-10-18T08:58:43Z</time>
      </trkpt>
      <trkpt lat="37.1435240" lon="-1.9906240">
        <ele>184.1</ele>
        <time>2019-10-18T08:58:44Z</time>
      </trkpt>
      <trkpt lat="37.1434870" lon="-1.9906900">
        <ele>184.3</ele>
        <time>2019-10-18T08:58:45Z</time>
      </trkpt>
      <trkpt lat="37.1434510" lon="-1.9907550">
        <ele>184.5</ele>
        <time>2019-10-18T08:58:46Z</time>
      </trkpt>
      <trkpt lat="37.1434160" lon="-1.9908190">
        <ele>184.8</ele>
        <time>2019-10-18T08:58:47Z</time>
      </trkpt>
      <trkpt lat="37.1433810" lon="-1.9908820">
        <ele>185.0</ele>
        <time>2019-10-18T08:58:48Z</time>
      </trkpt>
      <trkpt lat="37.1433470" lon="-1.9909420">
        <ele>185.2</ele>
        <time>2019-10-18T08:58:49Z</time>
      </trkpt>
      <trkpt lat="37.1433140" lon="-1.9909990">
        <ele>185.4</ele>
        <time>2019-10-18T08:58:50Z</time>
      </trkpt>
      <trkpt lat="37.1432830" lon="-1.9910530">
        <ele>185.6</ele>
        <time>2019-10-18T08:58:51Z</time>
      </trkpt>
      <trkpt lat="37.1432540" lon="-1.9911060">
        <ele>185.8</ele>
        <time>2019-10-18T08:58:52Z</time>
      </trkpt>
      <trkpt lat="37.1432310" lon="-1.9911600">
        <ele>185.9</ele>
        <time>2019-10-18T08:58:53Z</time>
      </trkpt>
      <trkpt lat="37.1432180" lon="-1.9912150">
        <ele>186.1</ele>
        <time>2019-10-18T08:58:54Z</time>
      </trkpt>
      <trkpt lat="37.1432180" lon="-1.9912700">
        <ele>186.3</ele>
        <time>2019-10-18T08:58:55Z</time>
      </trkpt>
      <trkpt lat="37.1432230" lon="-1.9913190">
        <ele>186.4</ele>
        <time>2019-10-18T08:58:56Z</time>
      </trkpt>
      <trkpt lat="37.1432260" lon="-1.9913530">
        <ele>186.5</ele>
        <time>2019-10-18T08:58:57Z</time>
      </trkpt>
      <trkpt lat="37.1432260" lon="-1.9913710">
        <ele>186.6</ele>
        <time>2019-10-18T08:58:58Z</time>
      </trkpt>
      <trkpt lat="37.1432260" lon="-1.9913750">
        <ele>186.6</ele>
        <time>2019-10-18T08:58:59Z</time>
      </trkpt>
      <trkpt lat="37.1432280" lon="-1.9913720">
        <ele>186.6</ele>
        <time>2019-10-18T08:59:00Z</time>
      </trkpt>
      <trkpt lat="37.1432290" lon="-1.9913700">
        <ele>186.6</ele>
        <time>2019-10-18T08:59:01Z</time>
      </trkpt>
      <trkpt lat="37.1432290" lon="-1.9913680">
        <ele>186.6</ele>
        <time>2019-10-18T08:59:02Z</time>
      </trkpt>
      <trkpt lat="37.1432270" lon="-1.9913690">
        <ele>186.6</ele>
        <time>2019-10-18T08:59:03Z</time>
      </trkpt>
      <trkpt lat="37.1432270" lon="-1.9913700">
        <ele>186.6</ele>
        <time>2019-10-18T08:59:04Z</time>
      </trkpt>
      <trkpt lat="37.1432260" lon="-1.9913700">
        <ele>186.6</ele>
        <time>2019-10-18T08:59:05Z</time>
      </trkpt>
      <trkpt lat="37.1432270" lon="-1.9913690">
        <ele>186.6</ele>
        <time>2019-10-18T08:59:06Z</time>
      </trkpt>
      <trkpt lat="37.1432280" lon="-1.9913680">
        <ele>186.6</ele>
        <time>2019-10-18T08:59:07Z</time>
      </trkpt>
      <trkpt lat="37.1432270" lon="-1.9913680">
        <ele>186.6</ele>
        <time>2019-10-18T08:59:08Z</time>
      </trkpt>
      <trkpt lat="37.1432250" lon="-1.9913680">
        <ele>186.7</ele>
        <time>2019-10-18T08:59:09Z</time>
      </trkpt>
      <trkpt lat="37.1432230" lon="-1.9913670">
        <ele>186.7</ele>
        <time>2019-10-18T08:59:10Z</time>
      </trkpt>
      <trkpt lat="37.1432230" lon="-1.9913650">
        <ele>186.7</ele>
        <time>2019-10-18T08:59:11Z</time>
      </trkpt>
      <trkpt lat="37.1432240" lon="-1.9913620">
        <ele>186.7</ele>
        <time>2019-10-18T08:59:12Z</time>
      </trkpt>
      <trkpt lat="37.1432250" lon="-1.9913590">
        <ele>186.7</ele>
        <time>2019-10-18T08:59:13Z</time>
      </trkpt>
      <trkpt lat="37.1432250" lon="-1.9913510">
        <ele>186.7</ele>
        <time>2019-10-18T08:59:14Z</time>
      </trkpt>
      <trkpt lat="37.1432240" lon="-1.9913380">
        <ele>186.8</ele>
        <time>2019-10-18T08:59:15Z</time>
      </trkpt>
      <trkpt lat="37.1432220" lon="-1.9913260">
        <ele>186.8</ele>
        <time>2019-10-18T08:59:16Z</time>
      </trkpt>
      <trkpt lat="37.1432220" lon="-1.9913200">
        <ele>186.8</ele>
        <time>2019-10-18T08:59:17Z</time>
      </trkpt>
      <trkpt lat="37.1432220" lon="-1.9913200">
        <ele>186.8</ele>
        <time>2019-10-18T08:59:18Z</time>
      </trkpt>
      <trkpt lat="37.1432220" lon="-1.9913210">
        <ele>186.8</ele>
        <time>2019-10-18T08:59:19Z</time>
      </trkpt>
      <trkpt lat="37.1432220" lon="-1.9913220">
        <ele>186.8</ele>
        <time>2019-10-18T08:59:20Z</time>
      </trkpt>
      <trkpt lat="37.1432220" lon="-1.9913240">
        <ele>186.8</ele>
        <time>2019-10-18T08:59:21Z</time>
      </trkpt>
      <trkpt lat="37.1432220" lon="-1.9913250">
        <ele>186.8</ele>
        <time>2019-10-18T08:59:22Z</time>
      </trkpt>
      <trkpt lat="37.1432220" lon="-1.9913250">
        <ele>186.8</ele>
        <time>2019-10-18T08:59:23Z</time>
      </trkpt>
      <trkpt lat="37.1432220" lon="-1.9913250">
        <ele>186.8</ele>
        <time>2019-10-18T08:59:24Z</time>
      </trkpt>
      <trkpt lat="37.1432230" lon="-1.9913250">
        <ele>186.8</ele>
        <time>2019-10-18T08:59:25Z</time>
      </trkpt>
      <trkpt lat="37.1432230" lon="-1.9913250">
        <ele>186.8</ele>
        <time>2019-10-18T08:59:26Z</time>
      </trkpt>
      <trkpt lat="37.1432230" lon="-1.9913260">
        <ele>186.8</ele>
        <time>2019-10-18T08:59:27Z</time>
      </trkpt>
      <trkpt lat="37.1432230" lon="-1.9913260">
        <ele>186.8</ele>
        <time>2019-10-18T08:59:28Z</time>
      </trkpt>
      <trkpt lat="37.1432230" lon="-1.9913260">
        <ele>186.8</ele>
        <time>2019-10-18T08:59:29Z</time>
      </trkpt>
      <trkpt lat="37.1432240" lon="-1.9913260">
        <ele>186.8</ele>
        <time>2019-10-18T08:59:30Z</time>
      </trkpt>
      <trkpt lat="37.1432250" lon="-1.9913260">
        <ele>186.8</ele>
        <time>2019-10-18T08:59:31Z</time>
      </trkpt>
      <trkpt lat="37.1432260" lon="-1.9913270">
        <ele>186.8</ele>
        <time>2019-10-18T08:59:32Z</time>
      </trkpt>
      <trkpt lat="37.1432270" lon="-1.9913270">
        <ele>186.8</ele>
        <time>2019-10-18T08:59:33Z</time>
      </trkpt>
      <trkpt lat="37.1432280" lon="-1.9913280">
        <ele>186.8</ele>
        <time>2019-10-18T08:59:34Z</time>
      </trkpt>
      <trkpt lat="37.1432290" lon="-1.9913270">
        <ele>186.8</ele>
        <time>2019-10-18T08:59:35Z</time>
      </trkpt>
      <trkpt lat="37.1432290" lon="-1.9913240">
        <ele>186.8</ele>
        <time>2019-10-18T08:59:36Z</time>
      </trkpt>
      <trkpt lat="37.1432290" lon="-1.9913200">
        <ele>186.9</ele>
        <time>2019-10-18T08:59:37Z</time>
      </trkpt>
      <trkpt lat="37.1432290" lon="-1.9913180">
        <ele>186.9</ele>
        <time>2019-10-18T08:59:38Z</time>
      </trkpt>
      <trkpt lat="37.1432300" lon="-1.9913160">
        <ele>186.9</ele>
        <time>2019-10-18T08:59:39Z</time>
      </trkpt>
      <trkpt lat="37.1432290" lon="-1.9913160">
        <ele>186.9</ele>
        <time>2019-10-18T08:59:40Z</time>
      </trkpt>
      <trkpt lat="37.1432290" lon="-1.9913150">
        <ele>186.9</ele>
        <time>2019-10-18T08:59:41Z</time>
      </trkpt>
      <trkpt lat="37.1432280" lon="-1.9913140">
        <ele>186.9</ele>
        <time>2019-10-18T08:59:42Z</time>
      </trkpt>
      <trkpt lat="37.1432280" lon="-1.9913140">
        <ele>186.9</ele>
        <time>2019-10-18T08:59:43Z</time>
      </trkpt>
      <trkpt lat="37.1432290" lon="-1.9913120">
        <ele>186.9</ele>
        <time>2019-10-18T08:59:44Z</time>
      </trkpt>
      <trkpt lat="37.1432290" lon="-1.9913110">
        <ele>186.9</ele>
        <time>2019-10-18T08:59:45Z</time>
      </trkpt>
      <trkpt lat="37.1432300" lon="-1.9913100">
        <ele>186.9</ele>
        <time>2019-10-18T08:59:46Z</time>
      </trkpt>
      <trkpt lat="37.1432310" lon="-1.9913090">
        <ele>186.9</ele>
        <time>2019-10-18T08:59:47Z</time>
      </trkpt>
      <trkpt lat="37.1432310" lon="-1.9913100">
        <ele>186.9</ele>
        <time>2019-10-18T08:59:48Z</time>
      </trkpt>
      <trkpt lat="37.1432300" lon="-1.9913100">
        <ele>186.9</ele>
        <time>2019-10-18T08:59:49Z</time>
      </trkpt>
      <trkpt lat="37.1432290" lon="-1.9913110">
        <ele>186.9</ele>
        <time>2019-10-18T08:59:50Z</time>
      </trkpt>
      <trkpt lat="37.1432290" lon="-1.9913120">
        <ele>186.9</ele>
        <time>2019-10-18T08:59:51Z</time>
      </trkpt>
      <trkpt lat="37.1432300" lon="-1.9913120">
        <ele>186.9</ele>
        <time>2019-10-18T08:59:52Z</time>
      </trkpt>
      <trkpt lat="37.1432320" lon="-1.9913130">
        <ele>186.9</ele>
        <time>2019-10-18T08:59:53Z</time>
      </trkpt>
      <trkpt lat="37.1432330" lon="-1.9913140">
        <ele>186.9</ele>
        <time>2019-10-18T08:59:54Z</time>
      </trkpt>
      <trkpt lat="37.1432330" lon="-1.9913150">
        <ele>186.9</ele>
        <time>2019-10-18T08:59:55Z</time>
      </trkpt>
      <trkpt lat="37.1432340" lon="-1.9913160">
        <ele>186.9</ele>
        <time>2019-10-18T08:59:56Z</time>
      </trkpt>
      <trkpt lat="37.1432340" lon="-1.9913160">
        <ele>186.9</ele>
        <time>2019-10-18T08:59:57Z</time>
      </trkpt>
      <trkpt lat="37.1432340" lon="-1.9913160">
        <ele>186.9</ele>
        <time>2019-10-18T08:59:58Z</time>
      </trkpt>
      <trkpt lat="37.1432340" lon="-1.9913170">
        <ele>186.9</ele>
        <time>2019-10-18T08:59:59Z</time>
      </trkpt>
      <trkpt lat="37.1432330" lon="-1.9913180">
        <ele>186.9</ele>
        <time>2019-10-18T09:00:00Z</time>
      </trkpt>
      <trkpt lat="37.1432340" lon="-1.9913180">
        <ele>186.9</ele>
        <time>2019-10-18T09:00:01Z</time>
      </trkpt>
      <trkpt lat="37.1432340" lon="-1.9913170">
        <ele>186.9</ele>
        <time>2019-10-18T09:00:02Z</time>
      </trkpt>
      <trkpt lat="37.1432350" lon="-1.9913170">
        <ele>186.9</ele>
        <time>2019-10-18T09:00:03Z</time>
      </trkpt>
      <trkpt lat="37.1432360" lon="-1.9913160">
        <ele>187.0</ele>
        <time>2019-10-18T09:00:04Z</time>
      </trkpt>
      <trkpt lat="37.1432370" lon="-1.9913150">
        <ele>187.0</ele>
        <time>2019-10-18T09:00:05Z</time>
      </trkpt>
      <trkpt lat="37.1432380" lon="-1.9913140">
        <ele>187.0</ele>
        <time>2019-10-18T09:00:06Z</time>
      </trkpt>
      <trkpt lat="37.1432380" lon="-1.9913130">
        <ele>187.0</ele>
        <time>2019-10-18T09:00:07Z</time>
      </trkpt>
      <trkpt lat="37.1432380" lon="-1.9913130">
        <ele>187.0</ele>
        <time>2019-10-18T09:00:08Z</time>
      </trkpt>
      <trkpt lat="37.1432390" lon="-1.9913120">
        <ele>187.0</ele>
        <time>2019-10-18T09:00:09Z</time>
      </trkpt>
      <trkpt lat="37.1432390" lon="-1.9913110">
        <ele>187.0</ele>
        <time>2019-10-18T09:00:10Z</time>
      </trkpt>
      <trkpt lat="37.1432390" lon="-1.9913100">
        <ele>187.0</ele>
        <time>2019-10-18T09:00:11Z</time>
      </trkpt>
      <trkpt lat="37.1432390" lon="-1.9913090">
        <ele>187.0</ele>
        <time>2019-10-18T09:00:12Z</time>
      </trkpt>
      <trkpt lat="37.1432390" lon="-1.9913080">
        <ele>187.0</ele>
        <time>2019-10-18T09:00:13Z</time>
      </trkpt>
      <trkpt lat="37.1432390" lon="-1.9913060">
        <ele>187.0</ele>
        <time>2019-10-18T09:00:14Z</time>
      </trkpt>
      <trkpt lat="37.1432390" lon="-1.9913050">
        <ele>187.0</ele>
        <time>2019-10-18T09:00:15Z</time>
      </trkpt>
      <trkpt lat="37.1432380" lon="-1.9913030">
        <ele>187.0</ele>
        <time>2019-10-18T09:00:16Z</time>
      </trkpt>
      <trkpt lat="37.1432380" lon="-1.9913020">
        <ele>187.0</ele>
        <time>2019-10-18T09:00:17Z</time>
      </trkpt>
      <trkpt lat="37.1432390" lon="-1.9913000">
        <ele>187.0</ele>
        <time>2019-10-18T09:00:18Z</time>
      </trkpt>
      <trkpt lat="37.1432390" lon="-1.9912990">
        <ele>187.0</ele>
        <time>2019-10-18T09:00:19Z</time>
      </trkpt>
      <trkpt lat="37.1432400" lon="-1.9912980">
        <ele>187.0</ele>
        <time>2019-10-18T09:00:20Z</time>
      </trkpt>
      <trkpt lat="37.1432400" lon="-1.9912970">
        <ele>187.0</ele>
        <time>2019-10-18T09:00:21Z</time>
      </trkpt>
      <trkpt lat="37.1432410" lon="-1.9912960">
        <ele>187.0</ele>
        <time>2019-10-18T09:00:22Z</time>
      </trkpt>
      <trkpt lat="37.1432420" lon="-1.9912960">
        <ele>187.0</ele>
        <time>2019-10-18T09:00:23Z</time>
      </trkpt>
      <trkpt lat="37.1432420" lon="-1.9912950">
        <ele>187.0</ele>
        <time>2019-10-18T09:00:24Z</time>
      </trkpt>
      <trkpt lat="37.1432420" lon="-1.9912940">
        <ele>187.0</ele>
        <time>2019-10-18T09:00:25Z</time>
      </trkpt>
      <trkpt lat="37.1432430" lon="-1.9912940">
        <ele>187.0</ele>
        <time>2019-10-18T09:00:26Z</time>
      </trkpt>
      <trkpt lat="37.1432430" lon="-1.9912930">
        <ele>187.0</ele>
        <time>2019-10-18T09:00:27Z</time>
      </trkpt>
      <trkpt lat="37.1432430" lon="-1.9912930">
        <ele>187.0</ele>
        <time>2019-10-18T09:00:28Z</time>
      </trkpt>
      <trkpt lat="37.1432430" lon="-1.9912930">
        <ele>187.0</ele>
        <time>2019-10-18T09:00:29Z</time>
      </trkpt>
      <trkpt lat="37.1432440" lon="-1.9912930">
        <ele>187.0</ele>
        <time>2019-10-18T09:00:30Z</time>
      </trkpt>
      <trkpt lat="37.1432440" lon="-1.9912930">
        <ele>187.0</ele>
        <time>2019-10-18T09:00:31Z</time>
      </trkpt>
      <trkpt lat="37.1432450" lon="-1.9912930">
        <ele>187.0</ele>
        <time>2019-10-18T09:00:32Z</time>
      </trkpt>
      <trkpt lat="37.1432460" lon="-1.9912930">
        <ele>187.0</ele>
        <time>2019-10-18T09:00:33Z</time>
      </trkpt>
      <trkpt lat="37.1432470" lon="-1.9912920">
        <ele>187.0</ele>
        <time>2019-10-18T09:00:34Z</time>
      </trkpt>
      <trkpt lat="37.1432490" lon="-1.9912920">
        <ele>187.0</ele>
        <time>2019-10-18T09:00:35Z</time>
      </trkpt>
      <trkpt lat="37.1432510" lon="-1.9912910">
        <ele>187.1</ele>
        <time>2019-10-18T09:00:36Z</time>
      </trkpt>
      <trkpt lat="37.1432530" lon="-1.9912910">
        <ele>187.1</ele>
        <time>2019-10-18T09:00:37Z</time>
      </trkpt>
      <trkpt lat="37.1432550" lon="-1.9912900">
        <ele>187.1</ele>
        <time>2019-10-18T09:00:38Z</time>
      </trkpt>
      <trkpt lat="37.1432560" lon="-1.9912900">
        <ele>187.1</ele>
        <time>2019-10-18T09:00:39Z</time>
      </trkpt>
      <trkpt lat="37.1432580" lon="-1.9912900">
        <ele>187.1</ele>
        <time>2019-10-18T09:00:40Z</time>
      </trkpt>
      <trkpt lat="37.1432590" lon="-1.9912900">
        <ele>187.1</ele>
        <time>2019-10-18T09:00:41Z</time>
      </trkpt>
      <trkpt lat="37.1432600" lon="-1.9912900">
        <ele>187.1</ele>
        <time>2019-10-18T09:00:42Z</time>
      </trkpt>
      <trkpt lat="37.1432600" lon="-1.9912900">
        <ele>187.1</ele>
        <time>2019-10-18T09:00:43Z</time>
      </trkpt>
      <trkpt lat="37.1432600" lon="-1.9912910">
        <ele>187.1</ele>
        <time>2019-10-18T09:00:44Z</time>
      </trkpt>
      <trkpt lat="37.1432590" lon="-1.9912920">
        <ele>187.1</ele>
        <time>2019-10-18T09:00:45Z</time>
      </trkpt>
      <trkpt lat="37.1432580" lon="-1.9912930">
        <ele>187.1</ele>
        <time>2019-10-18T09:00:46Z</time>
      </trkpt>
      <trkpt lat="37.1432560" lon="-1.9912950">
        <ele>187.1</ele>
        <time>2019-10-18T09:00:47Z</time>
      </trkpt>
      <trkpt lat="37.1432550" lon="-1.9912970">
        <ele>187.1</ele>
        <time>2019-10-18T09:00:48Z</time>
      </trkpt>
      <trkpt lat="37.1432540" lon="-1.9912980">
        <ele>187.1</ele>
        <time>2019-10-18T09:00:49Z</time>
      </trkpt>
      <trkpt lat="37.1432520" lon="-1.9912970">
        <ele>187.1</ele>
        <time>2019-10-18T09:00:50Z</time>
      </trkpt>
      <trkpt lat="37.1432480" lon="-1.9912910">
        <ele>187.1</ele>
        <time>2019-10-18T09:00:51Z</time>
      </trkpt>
      <trkpt lat="37.1432400" lon="-1.9912810">
        <ele>187.2</ele>
        <time>2019-10-18T09:00:52Z</time>
      </trkpt>
      <trkpt lat="37.1432260" lon="-1.9912740">
        <ele>187.2</ele>
        <time>2019-10-18T09:00:53Z</time>
      </trkpt>
      <trkpt lat="37.1432090" lon="-1.9912750">
        <ele>187.3</ele>
        <time>2019-10-18T09:00:54Z</time>
      </trkpt>
      <trkpt lat="37.1431910" lon="-1.9912860">
        <ele>187.4</ele>
        <time>2019-10-18T09:00:55Z</time>
      </trkpt>
      <trkpt lat="37.1431760" lon="-1.9913030">
        <ele>187.4</ele>
        <time>2019-10-18T09:00:56Z</time>
      </trkpt>
      <trkpt lat="37.1431640" lon="-1.9913220">
        <ele>187.5</ele>
        <time>2019-10-18T09:00:57Z</time>
      </trkpt>
      <trkpt lat="37.1431510" lon="-1.9913430">
        <ele>187.6</ele>
        <time>2019-10-18T09:00:58Z</time>
      </trkpt>
      <trkpt lat="37.1431370" lon="-1.9913660">
        <ele>187.7</ele>
        <time>2019-10-18T09:00:59Z</time>
      </trkpt>
      <trkpt lat="37.1431220" lon="-1.9913910">
        <ele>187.8</ele>
        <time>2019-10-18T09:01:00Z</time>
      </trkpt>
      <trkpt lat="37.1431040" lon="-1.9914190">
        <ele>187.9</ele>
        <time>2019-10-18T09:01:01Z</time>
      </trkpt>
      <trkpt lat="37.1430860" lon="-1.9914470">
        <ele>188.0</ele>
        <time>2019-10-18T09:01:02Z</time>
      </trkpt>
      <trkpt lat="37.1430680" lon="-1.9914740">
        <ele>188.0</ele>
        <time>2019-10-18T09:01:03Z</time>
      </trkpt>
      <trkpt lat="37.1430510" lon="-1.9915000">
        <ele>188.1</ele>
        <time>2019-10-18T09:01:04Z</time>
      </trkpt>
      <trkpt lat="37.1430350" lon="-1.9915240">
        <ele>188.2</ele>
        <time>2019-10-18T09:01:05Z</time>
      </trkpt>
      <trkpt lat="37.1430180" lon="-1.9915460">
        <ele>188.3</ele>
        <time>2019-10-18T09:01:06Z</time>
      </trkpt>
      <trkpt lat="37.1430010" lon="-1.9915700">
        <ele>188.4</ele>
        <time>2019-10-18T09:01:07Z</time>
      </trkpt>
      <trkpt lat="37.1429820" lon="-1.9915950">
        <ele>188.4</ele>
        <time>2019-10-18T09:01:08Z</time>
      </trkpt>
      <trkpt lat="37.1429640" lon="-1.9916240">
        <ele>188.5</ele>
        <time>2019-10-18T09:01:09Z</time>
      </trkpt>
      <trkpt lat="37.1429450" lon="-1.9916560">
        <ele>188.6</ele>
        <time>2019-10-18T09:01:10Z</time>
      </trkpt>
      <trkpt lat="37.1429230" lon="-1.9916920">
        <ele>188.7</ele>
        <time>2019-10-18T09:01:11Z</time>
      </trkpt>
      <trkpt lat="37.1429020" lon="-1.9917270">
        <ele>188.9</ele>
        <time>2019-10-18T09:01:12Z</time>
      </trkpt>
      <trkpt lat="37.1428810" lon="-1.9917630">
        <ele>188.9</ele>
        <time>2019-10-18T09:01:13Z</time>
      </trkpt>
      <trkpt lat="37.1428600" lon="-1.9917980">
        <ele>189.0</ele>
        <time>2019-10-18T09:01:14Z</time>
      </trkpt>
      <trkpt lat="37.1428400" lon="-1.9918340">
        <ele>189.1</ele>
        <time>2019-10-18T09:01:15Z</time>
      </trkpt>
      <trkpt lat="37.1428200" lon="-1.9918700">
        <ele>189.2</ele>
        <time>2019-10-18T09:01:16Z</time>
      </trkpt>
      <trkpt lat="37.1428000" lon="-1.9919060">
        <ele>189.3</ele>
        <time>2019-10-18T09:01:17Z</time>
      </trkpt>
      <trkpt lat="37.1427810" lon="-1.9919430">
        <ele>189.4</ele>
        <time>2019-10-18T09:01:18Z</time>
      </trkpt>
      <trkpt lat="37.1427610" lon="-1.9919800">
        <ele>189.5</ele>
        <time>2019-10-18T09:01:19Z</time>
      </trkpt>
      <trkpt lat="37.1427410" lon="-1.9920180">
        <ele>189.6</ele>
        <time>2019-10-18T09:01:20Z</time>
      </trkpt>
      <trkpt lat="37.1427230" lon="-1.9920570">
        <ele>189.7</ele>
        <time>2019-10-18T09:01:21Z</time>
      </trkpt>
      <trkpt lat="37.1427050" lon="-1.9920970">
        <ele>189.8</ele>
        <time>2019-10-18T09:01:22Z</time>
      </trkpt>
      <trkpt lat="37.1426890" lon="-1.9921390">
        <ele>189.9</ele>
        <time>2019-10-18T09:01:23Z</time>
      </trkpt>
      <trkpt lat="37.1426720" lon="-1.9921820">
        <ele>190.0</ele>
        <time>2019-10-18T09:01:24Z</time>
      </trkpt>
      <trkpt lat="37.1426550" lon="-1.9922250">
        <ele>190.1</ele>
        <time>2019-10-18T09:01:25Z</time>
      </trkpt>
      <trkpt lat="37.1426390" lon="-1.9922680">
        <ele>190.2</ele>
        <time>2019-10-18T09:01:26Z</time>
      </trkpt>
      <trkpt lat="37.1426220" lon="-1.9923130">
        <ele>190.4</ele>
        <time>2019-10-18T09:01:27Z</time>
      </trkpt>
      <trkpt lat="37.1426050" lon="-1.9923580">
        <ele>190.5</ele>
        <time>2019-10-18T09:01:28Z</time>
      </trkpt>
      <trkpt lat="37.1425890" lon="-1.9924040">
        <ele>190.7</ele>
        <time>2019-10-18T09:01:29Z</time>
      </trkpt>
      <trkpt lat="37.1425730" lon="-1.9924500">
        <ele>190.8</ele>
        <time>2019-10-18T09:01:30Z</time>
      </trkpt>
      <trkpt lat="37.1425580" lon="-1.9924970">
        <ele>191.0</ele>
        <time>2019-10-18T09:01:31Z</time>
      </trkpt>
      <trkpt lat="37.1425430" lon="-1.9925450">
        <ele>191.2</ele>
        <time>2019-10-18T09:01:32Z</time>
      </trkpt>
      <trkpt lat="37.1425290" lon="-1.9925930">
        <ele>191.4</ele>
        <time>2019-10-18T09:01:33Z</time>
      </trkpt>
      <trkpt lat="37.1425150" lon="-1.9926410">
        <ele>191.6</ele>
        <time>2019-10-18T09:01:34Z</time>
      </trkpt>
      <trkpt lat="37.1425010" lon="-1.9926890">
        <ele>191.7</ele>
        <time>2019-10-18T09:01:35Z</time>
      </trkpt>
      <trkpt lat="37.1424860" lon="-1.9927360">
        <ele>191.9</ele>
        <time>2019-10-18T09:01:36Z</time>
      </trkpt>
      <trkpt lat="37.1424720" lon="-1.9927830">
        <ele>192.0</ele>
        <time>2019-10-18T09:01:37Z</time>
      </trkpt>
      <trkpt lat="37.1424570" lon="-1.9928300">
        <ele>192.1</ele>
        <time>2019-10-18T09:01:38Z</time>
      </trkpt>
      <trkpt lat="37.1424430" lon="-1.9928770">
        <ele>192.2</ele>
        <time>2019-10-18T09:01:39Z</time>
      </trkpt>
      <trkpt lat="37.1424290" lon="-1.9929250">
        <ele>192.2</ele>
        <time>2019-10-18T09:01:40Z</time>
      </trkpt>
      <trkpt lat="37.1424150" lon="-1.9929730">
        <ele>192.3</ele>
        <time>2019-10-18T09:01:41Z</time>
      </trkpt>
      <trkpt lat="37.1424000" lon="-1.9930220">
        <ele>192.3</ele>
        <time>2019-10-18T09:01:42Z</time>
      </trkpt>
      <trkpt lat="37.1423850" lon="-1.9930720">
        <ele>192.3</ele>
        <time>2019-10-18T09:01:43Z</time>
      </trkpt>
      <trkpt lat="37.1423710" lon="-1.9931210">
        <ele>192.3</ele>
        <time>2019-10-18T09:01:44Z</time>
      </trkpt>
      <trkpt lat="37.1423560" lon="-1.9931700">
        <ele>192.4</ele>
        <time>2019-10-18T09:01:45Z</time>
      </trkpt>
      <trkpt lat="37.1423410" lon="-1.9932190">
        <ele>192.4</ele>
        <time>2019-10-18T09:01:46Z</time>
      </trkpt>
      <trkpt lat="37.1423270" lon="-1.9932680">
        <ele>192.4</ele>
        <time>2019-10-18T09:01:47Z</time>
      </trkpt>
      <trkpt lat="37.1423120" lon="-1.9933180">
        <ele>192.4</ele>
        <time>2019-10-18T09:01:48Z</time>
      </trkpt>
      <trkpt lat="37.1422970" lon="-1.9933690">
        <ele>192.4</ele>
        <time>2019-10-18T09:01:49Z</time>
      </trkpt>
      <trkpt lat="37.1422820" lon="-1.9934190">
        <ele>192.4</ele>
        <time>2019-10-18T09:01:50Z</time>
      </trkpt>
      <trkpt lat="37.1422660" lon="-1.9934700">
        <ele>192.4</ele>
        <time>2019-10-18T09:01:51Z</time>
      </trkpt>
      <trkpt lat="37.1422510" lon="-1.9935200">
        <ele>192.4</ele>
        <time>2019-10-18T09:01:52Z</time>
      </trkpt>
      <trkpt lat="37.1422360" lon="-1.9935710">
        <ele>192.5</ele>
        <time>2019-10-18T09:01:53Z</time>
      </trkpt>
      <trkpt lat="37.1422220" lon="-1.9936210">
        <ele>192.6</ele>
        <time>2019-10-18T09:01:54Z</time>
      </trkpt>
      <trkpt lat="37.1422060" lon="-1.9936710">
        <ele>192.6</ele>
        <time>2019-10-18T09:01:55Z</time>
      </trkpt>
      <trkpt lat="37.1421910" lon="-1.9937210">
        <ele>192.7</ele>
        <time>2019-10-18T09:01:56Z</time>
      </trkpt>
      <trkpt lat="37.1421760" lon="-1.9937710">
        <ele>192.8</ele>
        <time>2019-10-18T09:01:57Z</time>
      </trkpt>
      <trkpt lat="37.1421600" lon="-1.9938210">
        <ele>192.8</ele>
        <time>2019-10-18T09:01:58Z</time>
      </trkpt>
      <trkpt lat="37.1421450" lon="-1.9938710">
        <ele>192.9</ele>
        <time>2019-10-18T09:01:59Z</time>
      </trkpt>
      <trkpt lat="37.1421290" lon="-1.9939220">
        <ele>192.9</ele>
        <time>2019-10-18T09:02:00Z</time>
      </trkpt>
      <trkpt lat="37.1421140" lon="-1.9939730">
        <ele>193.0</ele>
        <time>2019-10-18T09:02:01Z</time>
      </trkpt>
      <trkpt lat="37.1420990" lon="-1.9940250">
        <ele>193.0</ele>
        <time>2019-10-18T09:02:02Z</time>
      </trkpt>
      <trkpt lat="37.1420840" lon="-1.9940770">
        <ele>193.1</ele>
        <time>2019-10-18T09:02:03Z</time>
      </trkpt>
      <trkpt lat="37.1420690" lon="-1.9941290">
        <ele>193.2</ele>
        <time>2019-10-18T09:02:04Z</time>
      </trkpt>
      <trkpt lat="37.1420530" lon="-1.9941810">
        <ele>193.4</ele>
        <time>2019-10-18T09:02:05Z</time>
      </trkpt>
      <trkpt lat="37.1420370" lon="-1.9942320">
        <ele>193.5</ele>
        <time>2019-10-18T09:02:06Z</time>
      </trkpt>
      <trkpt lat="37.1420200" lon="-1.9942830">
        <ele>193.6</ele>
        <time>2019-10-18T09:02:07Z</time>
      </trkpt>
      <trkpt lat="37.1420030" lon="-1.9943330">
        <ele>193.7</ele>
        <time>2019-10-18T09:02:08Z</time>
      </trkpt>
      <trkpt lat="37.1419870" lon="-1.9943840">
        <ele>193.8</ele>
        <time>2019-10-18T09:02:09Z</time>
      </trkpt>
      <trkpt lat="37.1419700" lon="-1.9944340">
        <ele>193.9</ele>
        <time>2019-10-18T09:02:10Z</time>
      </trkpt>
      <trkpt lat="37.1419520" lon="-1.9944830">
        <ele>193.9</ele>
        <time>2019-10-18T09:02:11Z</time>
      </trkpt>
      <trkpt lat="37.1419330" lon="-1.9945320">
        <ele>193.9</ele>
        <time>2019-10-18T09:02:12Z</time>
      </trkpt>
      <trkpt lat="37.1419140" lon="-1.9945810">
        <ele>194.0</ele>
        <time>2019-10-18T09:02:13Z</time>
      </trkpt>
      <trkpt lat="37.1418930" lon="-1.9946310">
        <ele>194.0</ele>
        <time>2019-10-18T09:02:14Z</time>
      </trkpt>
      <trkpt lat="37.1418710" lon="-1.9946790">
        <ele>194.0</ele>
        <time>2019-10-18T09:02:15Z</time>
      </trkpt>
      <trkpt lat="37.1418480" lon="-1.9947280">
        <ele>193.9</ele>
        <time>2019-10-18T09:02:16Z</time>
      </trkpt>
      <trkpt lat="37.1418230" lon="-1.9947770">
        <ele>193.9</ele>
        <time>2019-10-18T09:02:17Z</time>
      </trkpt>
      <trkpt lat="37.1417960" lon="-1.9948250">
        <ele>193.8</ele>
        <time>2019-10-18T09:02:18Z</time>
      </trkpt>
      <trkpt lat="37.1417670" lon="-1.9948720">
        <ele>193.8</ele>
        <time>2019-10-18T09:02:19Z</time>
      </trkpt>
      <trkpt lat="37.1417370" lon="-1.9949200">
        <ele>193.7</ele>
        <time>2019-10-18T09:02:20Z</time>
      </trkpt>
      <trkpt lat="37.1417070" lon="-1.9949670">
        <ele>193.7</ele>
        <time>2019-10-18T09:02:21Z</time>
      </trkpt>
      <trkpt lat="37.1416750" lon="-1.9950140">
        <ele>193.8</ele>
        <time>2019-10-18T09:02:22Z</time>
      </trkpt>
      <trkpt lat="37.1416410" lon="-1.9950600">
        <ele>193.8</ele>
        <time>2019-10-18T09:02:23Z</time>
      </trkpt>
      <trkpt lat="37.1416060" lon="-1.9951040">
        <ele>193.9</ele>
        <time>2019-10-18T09:02:24Z</time>
      </trkpt>
      <trkpt lat="37.1415690" lon="-1.9951460">
        <ele>193.9</ele>
        <time>2019-10-18T09:02:25Z</time>
      </trkpt>
      <trkpt lat="37.1415320" lon="-1.9951870">
        <ele>193.8</ele>
        <time>2019-10-18T09:02:26Z</time>
      </trkpt>
      <trkpt lat="37.1414930" lon="-1.9952280">
        <ele>193.8</ele>
        <time>2019-10-18T09:02:27Z</time>
      </trkpt>
      <trkpt lat="37.1414540" lon="-1.9952700">
        <ele>193.7</ele>
        <time>2019-10-18T09:02:28Z</time>
      </trkpt>
      <trkpt lat="37.1414140" lon="-1.9953100">
        <ele>193.7</ele>
        <time>2019-10-18T09:02:29Z</time>
      </trkpt>
      <trkpt lat="37.1413740" lon="-1.9953520">
        <ele>193.7</ele>
        <time>2019-10-18T09:02:30Z</time>
      </trkpt>
      <trkpt lat="37.1413330" lon="-1.9953930">
        <ele>193.7</ele>
        <time>2019-10-18T09:02:31Z</time>
      </trkpt>
      <trkpt lat="37.1412930" lon="-1.9954370">
        <ele>193.8</ele>
        <time>2019-10-18T09:02:32Z</time>
      </trkpt>
      <trkpt lat="37.1412530" lon="-1.9954820">
        <ele>193.9</ele>
        <time>2019-10-18T09:02:33Z</time>
      </trkpt>
      <trkpt lat="37.1412130" lon="-1.9955280">
        <ele>194.0</ele>
        <time>2019-10-18T09:02:34Z</time>
      </trkpt>
      <trkpt lat="37.1411720" lon="-1.9955730">
        <ele>194.1</ele>
        <time>2019-10-18T09:02:35Z</time>
      </trkpt>
      <trkpt lat="37.1411310" lon="-1.9956180">
        <ele>194.2</ele>
        <time>2019-10-18T09:02:36Z</time>
      </trkpt>
      <trkpt lat="37.1410900" lon="-1.9956620">
        <ele>194.2</ele>
        <time>2019-10-18T09:02:37Z</time>
      </trkpt>
      <trkpt lat="37.1410490" lon="-1.9957050">
        <ele>194.2</ele>
        <time>2019-10-18T09:02:38Z</time>
      </trkpt>
      <trkpt lat="37.1410080" lon="-1.9957480">
        <ele>194.3</ele>
        <time>2019-10-18T09:02:39Z</time>
      </trkpt>
      <trkpt lat="37.1409670" lon="-1.9957910">
        <ele>194.3</ele>
        <time>2019-10-18T09:02:40Z</time>
      </trkpt>
      <trkpt lat="37.1409260" lon="-1.9958340">
        <ele>194.3</ele>
        <time>2019-10-18T09:02:41Z</time>
      </trkpt>
      <trkpt lat="37.1408860" lon="-1.9958780">
        <ele>194.3</ele>
        <time>2019-10-18T09:02:42Z</time>
      </trkpt>
      <trkpt lat="37.1408460" lon="-1.9959200">
        <ele>194.3</ele>
        <time>2019-10-18T09:02:43Z</time>
      </trkpt>
      <trkpt lat="37.1408050" lon="-1.9959630">
        <ele>194.3</ele>
        <time>2019-10-18T09:02:44Z</time>
      </trkpt>
      <trkpt lat="37.1407650" lon="-1.9960060">
        <ele>194.3</ele>
        <time>2019-10-18T09:02:45Z</time>
      </trkpt>
      <trkpt lat="37.1407240" lon="-1.9960490">
        <ele>194.3</ele>
        <time>2019-10-18T09:02:46Z</time>
      </trkpt>
      <trkpt lat="37.1406830" lon="-1.9960910">
        <ele>194.3</ele>
        <time>2019-10-18T09:02:47Z</time>
      </trkpt>
      <trkpt lat="37.1406410" lon="-1.9961330">
        <ele>194.3</ele>
        <time>2019-10-18T09:02:48Z</time>
      </trkpt>
      <trkpt lat="37.1406000" lon="-1.9961760">
        <ele>194.3</ele>
        <time>2019-10-18T09:02:49Z</time>
      </trkpt>
      <trkpt lat="37.1405580" lon="-1.9962180">
        <ele>194.3</ele>
        <time>2019-10-18T09:02:50Z</time>
      </trkpt>
      <trkpt lat="37.1405170" lon="-1.9962600">
        <ele>194.3</ele>
        <time>2019-10-18T09:02:51Z</time>
      </trkpt>
      <trkpt lat="37.1404760" lon="-1.9963030">
        <ele>194.2</ele>
        <time>2019-10-18T09:02:52Z</time>
      </trkpt>
      <trkpt lat="37.1404360" lon="-1.9963470">
        <ele>194.1</ele>
        <time>2019-10-18T09:02:53Z</time>
      </trkpt>
      <trkpt lat="37.1403970" lon="-1.9963910">
        <ele>194.1</ele>
        <time>2019-10-18T09:02:54Z</time>
      </trkpt>
      <trkpt lat="37.1403580" lon="-1.9964350">
        <ele>194.0</ele>
        <time>2019-10-18T09:02:55Z</time>
      </trkpt>
      <trkpt lat="37.1403180" lon="-1.9964780">
        <ele>194.0</ele>
        <time>2019-10-18T09:02:56Z</time>
      </trkpt>
      <trkpt lat="37.1402770" lon="-1.9965210">
        <ele>194.0</ele>
        <time>2019-10-18T09:02:57Z</time>
      </trkpt>
      <trkpt lat="37.1402370" lon="-1.9965640">
        <ele>193.9</ele>
        <time>2019-10-18T09:02:58Z</time>
      </trkpt>
      <trkpt lat="37.1401960" lon="-1.9966080">
        <ele>193.9</ele>
        <time>2019-10-18T09:02:59Z</time>
      </trkpt>
      <trkpt lat="37.1401540" lon="-1.9966530">
        <ele>193.8</ele>
        <time>2019-10-18T09:03:00Z</time>
      </trkpt>
      <trkpt lat="37.1401130" lon="-1.9966980">
        <ele>193.7</ele>
        <time>2019-10-18T09:03:01Z</time>
      </trkpt>
      <trkpt lat="37.1400720" lon="-1.9967440">
        <ele>193.7</ele>
        <time>2019-10-18T09:03:02Z</time>
      </trkpt>
      <trkpt lat="37.1400310" lon="-1.9967900">
        <ele>193.6</ele>
        <time>2019-10-18T09:03:03Z</time>
      </trkpt>
      <trkpt lat="37.1399910" lon="-1.9968360">
        <ele>193.6</ele>
        <time>2019-10-18T09:03:04Z</time>
      </trkpt>
      <trkpt lat="37.1399500" lon="-1.9968830">
        <ele>193.5</ele>
        <time>2019-10-18T09:03:05Z</time>
      </trkpt>
      <trkpt lat="37.1399090" lon="-1.9969300">
        <ele>193.4</ele>
        <time>2019-10-18T09:03:06Z</time>
      </trkpt>
      <trkpt lat="37.1398680" lon="-1.9969770">
        <ele>193.2</ele>
        <time>2019-10-18T09:03:07Z</time>
      </trkpt>
      <trkpt lat="37.1398270" lon="-1.9970240">
        <ele>193.1</ele>
        <time>2019-10-18T09:03:08Z</time>
      </trkpt>
      <trkpt lat="37.1397850" lon="-1.9970730">
        <ele>193.0</ele>
        <time>2019-10-18T09:03:09Z</time>
      </trkpt>
      <trkpt lat="37.1397420" lon="-1.9971220">
        <ele>192.9</ele>
        <time>2019-10-18T09:03:10Z</time>
      </trkpt>
      <trkpt lat="37.1396990" lon="-1.9971710">
        <ele>192.8</ele>
        <time>2019-10-18T09:03:11Z</time>
      </trkpt>
      <trkpt lat="37.1396560" lon="-1.9972210">
        <ele>192.9</ele>
        <time>2019-10-18T09:03:12Z</time>
      </trkpt>
      <trkpt lat="37.1396120" lon="-1.9972720">
        <ele>193.1</ele>
        <time>2019-10-18T09:03:13Z</time>
      </trkpt>
      <trkpt lat="37.1395690" lon="-1.9973220">
        <ele>193.3</ele>
        <time>2019-10-18T09:03:14Z</time>
      </trkpt>
      <trkpt lat="37.1395270" lon="-1.9973710">
        <ele>193.4</ele>
        <time>2019-10-18T09:03:15Z</time>
      </trkpt>
      <trkpt lat="37.1394860" lon="-1.9974190">
        <ele>193.4</ele>
        <time>2019-10-18T09:03:16Z</time>
      </trkpt>
      <trkpt lat="37.1394440" lon="-1.9974680">
        <ele>193.4</ele>
        <time>2019-10-18T09:03:17Z</time>
      </trkpt>
      <trkpt lat="37.1394030" lon="-1.9975170">
        <ele>193.3</ele>
        <time>2019-10-18T09:03:18Z</time>
      </trkpt>
      <trkpt lat="37.1393610" lon="-1.9975650">
        <ele>193.2</ele>
        <time>2019-10-18T09:03:19Z</time>
      </trkpt>
      <trkpt lat="37.1393180" lon="-1.9976140">
        <ele>193.1</ele>
        <time>2019-10-18T09:03:20Z</time>
      </trkpt>
      <trkpt lat="37.1392770" lon="-1.9976630">
        <ele>193.0</ele>
        <time>2019-10-18T09:03:21Z</time>
      </trkpt>
      <trkpt lat="37.1392360" lon="-1.9977120">
        <ele>192.9</ele>
        <time>2019-10-18T09:03:22Z</time>
      </trkpt>
      <trkpt lat="37.1391950" lon="-1.9977610">
        <ele>192.9</ele>
        <time>2019-10-18T09:03:23Z</time>
      </trkpt>
      <trkpt lat="37.1391540" lon="-1.9978100">
        <ele>192.8</ele>
        <time>2019-10-18T09:03:24Z</time>
      </trkpt>
      <trkpt lat="37.1391120" lon="-1.9978580">
        <ele>192.8</ele>
        <time>2019-10-18T09:03:25Z</time>
      </trkpt>
      <trkpt lat="37.1390710" lon="-1.9979070">
        <ele>192.8</ele>
        <time>2019-10-18T09:03:26Z</time>
      </trkpt>
      <trkpt lat="37.1390300" lon="-1.9979550">
        <ele>192.8</ele>
        <time>2019-10-18T09:03:27Z</time>
      </trkpt>
      <trkpt lat="37.1389890" lon="-1.9980030">
        <ele>192.8</ele>
        <time>2019-10-18T09:03:28Z</time>
      </trkpt>
      <trkpt lat="37.1389480" lon="-1.9980510">
        <ele>192.8</ele>
        <time>2019-10-18T09:03:29Z</time>
      </trkpt>
      <trkpt lat="37.1389070" lon="-1.9980990">
        <ele>192.8</ele>
        <time>2019-10-18T09:03:30Z</time>
      </trkpt>
      <trkpt lat="37.1388660" lon="-1.9981460">
        <ele>192.8</ele>
        <time>2019-10-18T09:03:31Z</time>
      </trkpt>
      <trkpt lat="37.1388250" lon="-1.9981920">
        <ele>192.7</ele>
        <time>2019-10-18T09:03:32Z</time>
      </trkpt>
      <trkpt lat="37.1387830" lon="-1.9982390">
        <ele>192.7</ele>
        <time>2019-10-18T09:03:33Z</time>
      </trkpt>
      <trkpt lat="37.1387420" lon="-1.9982860">
        <ele>192.6</ele>
        <time>2019-10-18T09:03:34Z</time>
      </trkpt>
      <trkpt lat="37.1387010" lon="-1.9983340">
        <ele>192.6</ele>
        <time>2019-10-18T09:03:35Z</time>
      </trkpt>
      <trkpt lat="37.1386610" lon="-1.9983810">
        <ele>192.6</ele>
        <time>2019-10-18T09:03:36Z</time>
      </trkpt>
      <trkpt lat="37.1386200" lon="-1.9984290">
        <ele>192.7</ele>
        <time>2019-10-18T09:03:37Z</time>
      </trkpt>
      <trkpt lat="37.1385790" lon="-1.9984750">
        <ele>192.8</ele>
        <time>2019-10-18T09:03:38Z</time>
      </trkpt>
      <trkpt lat="37.1385370" lon="-1.9985230">
        <ele>192.8</ele>
        <time>2019-10-18T09:03:39Z</time>
      </trkpt>
      <trkpt lat="37.1384970" lon="-1.9985710">
        <ele>192.9</ele>
        <time>2019-10-18T09:03:40Z</time>
      </trkpt>
      <trkpt lat="37.1384560" lon="-1.9986210">
        <ele>193.0</ele>
        <time>2019-10-18T09:03:41Z</time>
      </trkpt>
      <trkpt lat="37.1384150" lon="-1.9986700">
        <ele>193.0</ele>
        <time>2019-10-18T09:03:42Z</time>
      </trkpt>
      <trkpt lat="37.1383740" lon="-1.9987190">
        <ele>193.1</ele>
        <time>2019-10-18T09:03:43Z</time>
      </trkpt>
      <trkpt lat="37.1383310" lon="-1.9987680">
        <ele>193.1</ele>
        <time>2019-10-18T09:03:44Z</time>
      </trkpt>
      <trkpt lat="37.1382890" lon="-1.9988170">
        <ele>193.2</ele>
        <time>2019-10-18T09:03:45Z</time>
      </trkpt>
      <trkpt lat="37.1382460" lon="-1.9988660">
        <ele>193.4</ele>
        <time>2019-10-18T09:03:46Z</time>
      </trkpt>
      <trkpt lat="37.1382020" lon="-1.9989160">
        <ele>193.6</ele>
        <time>2019-10-18T09:03:47Z</time>
      </trkpt>
      <trkpt lat="37.1381580" lon="-1.9989660">
        <ele>193.7</ele>
        <time>2019-10-18T09:03:48Z</time>
      </trkpt>
      <trkpt lat="37.1381140" lon="-1.9990170">
        <ele>193.8</ele>
        <time>2019-10-18T09:03:49Z</time>
      </trkpt>
      <trkpt lat="37.1380700" lon="-1.9990700">
        <ele>193.9</ele>
        <time>2019-10-18T09:03:50Z</time>
      </trkpt>
      <trkpt lat="37.1380260" lon="-1.9991240">
        <ele>193.8</ele>
        <time>2019-10-18T09:03:51Z</time>
      </trkpt>
      <trkpt lat="37.1379840" lon="-1.9991790">
        <ele>193.7</ele>
        <time>2019-10-18T09:03:52Z</time>
      </trkpt>
      <trkpt lat="37.1379420" lon="-1.9992350">
        <ele>193.6</ele>
        <time>2019-10-18T09:03:53Z</time>
      </trkpt>
      <trkpt lat="37.1379000" lon="-1.9992910">
        <ele>193.4</ele>
        <time>2019-10-18T09:03:54Z</time>
      </trkpt>
      <trkpt lat="37.1378570" lon="-1.9993470">
        <ele>193.3</ele>
        <time>2019-10-18T09:03:55Z</time>
      </trkpt>
      <trkpt lat="37.1378150" lon="-1.9994030">
        <ele>193.2</ele>
        <time>2019-10-18T09:03:56Z</time>
      </trkpt>
      <trkpt lat="37.1377730" lon="-1.9994600">
        <ele>193.1</ele>
        <time>2019-10-18T09:03:57Z</time>
      </trkpt>
      <trkpt lat="37.1377320" lon="-1.9995170">
        <ele>193.1</ele>
        <time>2019-10-18T09:03:58Z</time>
      </trkpt>
      <trkpt lat="37.1376930" lon="-1.9995760">
        <ele>193.0</ele>
        <time>2019-10-18T09:03:59Z</time>
      </trkpt>
      <trkpt lat="37.1376530" lon="-1.9996350">
        <ele>192.9</ele>
        <time>2019-10-18T09:04:00Z</time>
      </trkpt>
      <trkpt lat="37.1376150" lon="-1.9996970">
        <ele>192.8</ele>
        <time>2019-10-18T09:04:01Z</time>
      </trkpt>
      <trkpt lat="37.1375770" lon="-1.9997610">
        <ele>192.7</ele>
        <time>2019-10-18T09:04:02Z</time>
      </trkpt>
      <trkpt lat="37.1375410" lon="-1.9998260">
        <ele>192.5</ele>
        <time>2019-10-18T09:04:03Z</time>
      </trkpt>
      <trkpt lat="37.1375060" lon="-1.9998940">
        <ele>192.3</ele>
        <time>2019-10-18T09:04:04Z</time>
      </trkpt>
      <trkpt lat="37.1374720" lon="-1.9999620">
        <ele>192.3</ele>
        <time>2019-10-18T09:04:05Z</time>
      </trkpt>
      <trkpt lat="37.1374400" lon="-2.0000320">
        <ele>192.2</ele>
        <time>2019-10-18T09:04:06Z</time>
      </trkpt>
      <trkpt lat="37.1374090" lon="-2.0001020">
        <ele>192.2</ele>
        <time>2019-10-18T09:04:07Z</time>
      </trkpt>
      <trkpt lat="37.1373790" lon="-2.0001730">
        <ele>192.2</ele>
        <time>2019-10-18T09:04:08Z</time>
      </trkpt>
      <trkpt lat="37.1373510" lon="-2.0002450">
        <ele>192.2</ele>
        <time>2019-10-18T09:04:09Z</time>
      </trkpt>
      <trkpt lat="37.1373240" lon="-2.0003170">
        <ele>192.2</ele>
        <time>2019-10-18T09:04:10Z</time>
      </trkpt>
      <trkpt lat="37.1372980" lon="-2.0003900">
        <ele>192.2</ele>
        <time>2019-10-18T09:04:11Z</time>
      </trkpt>
      <trkpt lat="37.1372740" lon="-2.0004650">
        <ele>192.2</ele>
        <time>2019-10-18T09:04:12Z</time>
      </trkpt>
      <trkpt lat="37.1372520" lon="-2.0005400">
        <ele>192.1</ele>
        <time>2019-10-18T09:04:13Z</time>
      </trkpt>
      <trkpt lat="37.1372310" lon="-2.0006150">
        <ele>192.1</ele>
        <time>2019-10-18T09:04:14Z</time>
      </trkpt>
      <trkpt lat="37.1372120" lon="-2.0006900">
        <ele>192.0</ele>
        <time>2019-10-18T09:04:15Z</time>
      </trkpt>
      <trkpt lat="37.1371950" lon="-2.0007660">
        <ele>191.8</ele>
        <time>2019-10-18T09:04:16Z</time>
      </trkpt>
      <trkpt lat="37.1371790" lon="-2.0008430">
        <ele>191.7</ele>
        <time>2019-10-18T09:04:17Z</time>
      </trkpt>
      <trkpt lat="37.1371650" lon="-2.0009200">
        <ele>191.5</ele>
        <time>2019-10-18T09:04:18Z</time>
      </trkpt>
      <trkpt lat="37.1371510" lon="-2.0009980">
        <ele>191.3</ele>
        <time>2019-10-18T09:04:19Z</time>
      </trkpt>
      <trkpt lat="37.1371400" lon="-2.0010770">
        <ele>191.1</ele>
        <time>2019-10-18T09:04:20Z</time>
      </trkpt>
      <trkpt lat="37.1371290" lon="-2.0011560">
        <ele>190.9</ele>
        <time>2019-10-18T09:04:21Z</time>
      </trkpt>
      <trkpt lat="37.1371200" lon="-2.0012350">
        <ele>190.7</ele>
        <time>2019-10-18T09:04:22Z</time>
      </trkpt>
      <trkpt lat="37.1371110" lon="-2.0013140">
        <ele>190.5</ele>
        <time>2019-10-18T09:04:23Z</time>
      </trkpt>
      <trkpt lat="37.1371040" lon="-2.0013940">
        <ele>190.3</ele>
        <time>2019-10-18T09:04:24Z</time>
      </trkpt>
      <trkpt lat="37.1370960" lon="-2.0014730">
        <ele>190.1</ele>
        <time>2019-10-18T09:04:25Z</time>
      </trkpt>
      <trkpt lat="37.1370900" lon="-2.0015530">
        <ele>189.9</ele>
        <time>2019-10-18T09:04:26Z</time>
      </trkpt>
      <trkpt lat="37.1370840" lon="-2.0016320">
        <ele>189.8</ele>
        <time>2019-10-18T09:04:27Z</time>
      </trkpt>
      <trkpt lat="37.1370780" lon="-2.0017110">
        <ele>189.6</ele>
        <time>2019-10-18T09:04:28Z</time>
      </trkpt>
      <trkpt lat="37.1370720" lon="-2.0017890">
        <ele>189.5</ele>
        <time>2019-10-18T09:04:29Z</time>
      </trkpt>
      <trkpt lat="37.1370660" lon="-2.0018680">
        <ele>189.5</ele>
        <time>2019-10-18T09:04:30Z</time>
      </trkpt>
      <trkpt lat="37.1370610" lon="-2.0019470">
        <ele>189.5</ele>
        <time>2019-10-18T09:04:31Z</time>
      </trkpt>
      <trkpt lat="37.1370550" lon="-2.0020250">
        <ele>189.6</ele>
        <time>2019-10-18T09:04:32Z</time>
      </trkpt>
      <trkpt lat="37.1370490" lon="-2.0021030">
        <ele>189.6</ele>
        <time>2019-10-18T09:04:33Z</time>
      </trkpt>
      <trkpt lat="37.1370410" lon="-2.0021810">
        <ele>189.6</ele>
        <time>2019-10-18T09:04:34Z</time>
      </trkpt>
      <trkpt lat="37.1370320" lon="-2.0022580">
        <ele>189.4</ele>
        <time>2019-10-18T09:04:35Z</time>
      </trkpt>
      <trkpt lat="37.1370210" lon="-2.0023350">
        <ele>189.2</ele>
        <time>2019-10-18T09:04:36Z</time>
      </trkpt>
      <trkpt lat="37.1370090" lon="-2.0024110">
        <ele>189.0</ele>
        <time>2019-10-18T09:04:37Z</time>
      </trkpt>
      <trkpt lat="37.1369960" lon="-2.0024860">
        <ele>188.8</ele>
        <time>2019-10-18T09:04:38Z</time>
      </trkpt>
      <trkpt lat="37.1369810" lon="-2.0025620">
        <ele>188.5</ele>
        <time>2019-10-18T09:04:39Z</time>
      </trkpt>
      <trkpt lat="37.1369640" lon="-2.0026380">
        <ele>188.3</ele>
        <time>2019-10-18T09:04:40Z</time>
      </trkpt>
      <trkpt lat="37.1369450" lon="-2.0027160">
        <ele>188.1</ele>
        <time>2019-10-18T09:04:41Z</time>
      </trkpt>
      <trkpt lat="37.1369220" lon="-2.0027950">
        <ele>187.8</ele>
        <time>2019-10-18T09:04:42Z</time>
      </trkpt>
      <trkpt lat="37.1368960" lon="-2.0028770">
        <ele>187.4</ele>
        <time>2019-10-18T09:04:43Z</time>
      </trkpt>
      <trkpt lat="37.1368680" lon="-2.0029610">
        <ele>187.0</ele>
        <time>2019-10-18T09:04:44Z</time>
      </trkpt>
      <trkpt lat="37.1368390" lon="-2.0030470">
        <ele>186.6</ele>
        <time>2019-10-18T09:04:45Z</time>
      </trkpt>
      <trkpt lat="37.1368070" lon="-2.0031350">
        <ele>186.2</ele>
        <time>2019-10-18T09:04:46Z</time>
      </trkpt>
      <trkpt lat="37.1367730" lon="-2.0032230">
        <ele>185.9</ele>
        <time>2019-10-18T09:04:47Z</time>
      </trkpt>
      <trkpt lat="37.1367380" lon="-2.0033130">
        <ele>185.5</ele>
        <time>2019-10-18T09:04:48Z</time>
      </trkpt>
      <trkpt lat="37.1367020" lon="-2.0034030">
        <ele>185.2</ele>
        <time>2019-10-18T09:04:49Z</time>
      </trkpt>
      <trkpt lat="37.1366650" lon="-2.0034930">
        <ele>184.9</ele>
        <time>2019-10-18T09:04:50Z</time>
      </trkpt>
      <trkpt lat="37.1366290" lon="-2.0035830">
        <ele>184.7</ele>
        <time>2019-10-18T09:04:51Z</time>
      </trkpt>
      <trkpt lat="37.1365910" lon="-2.0036710">
        <ele>184.6</ele>
        <time>2019-10-18T09:04:52Z</time>
      </trkpt>
      <trkpt lat="37.1365540" lon="-2.0037590">
        <ele>184.5</ele>
        <time>2019-10-18T09:04:53Z</time>
      </trkpt>
      <trkpt lat="37.1365160" lon="-2.0038460">
        <ele>184.5</ele>
        <time>2019-10-18T09:04:54Z</time>
      </trkpt>
      <trkpt lat="37.1364790" lon="-2.0039320">
        <ele>184.5</ele>
        <time>2019-10-18T09:04:55Z</time>
      </trkpt>
      <trkpt lat="37.1364420" lon="-2.0040170">
        <ele>184.5</ele>
        <time>2019-10-18T09:04:56Z</time>
      </trkpt>
      <trkpt lat="37.1364050" lon="-2.0041000">
        <ele>184.5</ele>
        <time>2019-10-18T09:04:57Z</time>
      </trkpt>
      <trkpt lat="37.1363680" lon="-2.0041820">
        <ele>184.5</ele>
        <time>2019-10-18T09:04:58Z</time>
      </trkpt>
      <trkpt lat="37.1363310" lon="-2.0042630">
        <ele>184.5</ele>
        <time>2019-10-18T09:04:59Z</time>
      </trkpt>
      <trkpt lat="37.1362930" lon="-2.0043420">
        <ele>184.5</ele>
        <time>2019-10-18T09:05:00Z</time>
      </trkpt>
      <trkpt lat="37.1362550" lon="-2.0044200">
        <ele>184.5</ele>
        <time>2019-10-18T09:05:01Z</time>
      </trkpt>
      <trkpt lat="37.1362160" lon="-2.0044950">
        <ele>184.5</ele>
        <time>2019-10-18T09:05:02Z</time>
      </trkpt>
      <trkpt lat="37.1361760" lon="-2.0045690">
        <ele>184.5</ele>
        <time>2019-10-18T09:05:03Z</time>
      </trkpt>
      <trkpt lat="37.1361360" lon="-2.0046400">
        <ele>184.5</ele>
        <time>2019-10-18T09:05:04Z</time>
      </trkpt>
      <trkpt lat="37.1360950" lon="-2.0047090">
        <ele>184.5</ele>
        <time>2019-10-18T09:05:05Z</time>
      </trkpt>
      <trkpt lat="37.1360550" lon="-2.0047760">
        <ele>184.6</ele>
        <time>2019-10-18T09:05:06Z</time>
      </trkpt>
      <trkpt lat="37.1360150" lon="-2.0048420">
        <ele>184.6</ele>
        <time>2019-10-18T09:05:07Z</time>
      </trkpt>
      <trkpt lat="37.1359750" lon="-2.0049070">
        <ele>184.7</ele>
        <time>2019-10-18T09:05:08Z</time>
      </trkpt>
      <trkpt lat="37.1359350" lon="-2.0049710">
        <ele>184.7</ele>
        <time>2019-10-18T09:05:09Z</time>
      </trkpt>
      <trkpt lat="37.1358940" lon="-2.0050330">
        <ele>184.9</ele>
        <time>2019-10-18T09:05:10Z</time>
      </trkpt>
      <trkpt lat="37.1358530" lon="-2.0050950">
        <ele>185.0</ele>
        <time>2019-10-18T09:05:11Z</time>
      </trkpt>
      <trkpt lat="37.1358130" lon="-2.0051580">
        <ele>185.1</ele>
        <time>2019-10-18T09:05:12Z</time>
      </trkpt>
      <trkpt lat="37.1357740" lon="-2.0052210">
        <ele>185.3</ele>
        <time>2019-10-18T09:05:13Z</time>
      </trkpt>
      <trkpt lat="37.1357370" lon="-2.0052850">
        <ele>185.4</ele>
        <time>2019-10-18T09:05:14Z</time>
      </trkpt>
      <trkpt lat="37.1357030" lon="-2.0053500">
        <ele>185.4</ele>
        <time>2019-10-18T09:05:15Z</time>
      </trkpt>
      <trkpt lat="37.1356710" lon="-2.0054160">
        <ele>185.5</ele>
        <time>2019-10-18T09:05:16Z</time>
      </trkpt>
      <trkpt lat="37.1356440" lon="-2.0054840">
        <ele>185.5</ele>
        <time>2019-10-18T09:05:17Z</time>
      </trkpt>
      <trkpt lat="37.1356200" lon="-2.0055540">
        <ele>185.6</ele>
        <time>2019-10-18T09:05:18Z</time>
      </trkpt>
      <trkpt lat="37.1355990" lon="-2.0056250">
        <ele>185.6</ele>
        <time>2019-10-18T09:05:19Z</time>
      </trkpt>
      <trkpt lat="37.1355820" lon="-2.0056970">
        <ele>185.6</ele>
        <time>2019-10-18T09:05:20Z</time>
      </trkpt>
      <trkpt lat="37.1355690" lon="-2.0057710">
        <ele>185.4</ele>
        <time>2019-10-18T09:05:21Z</time>
      </trkpt>
      <trkpt lat="37.1355580" lon="-2.0058450">
        <ele>185.3</ele>
        <time>2019-10-18T09:05:22Z</time>
      </trkpt>
      <trkpt lat="37.1355480" lon="-2.0059190">
        <ele>185.2</ele>
        <time>2019-10-18T09:05:23Z</time>
      </trkpt>
      <trkpt lat="37.1355390" lon="-2.0059940">
        <ele>185.1</ele>
        <time>2019-10-18T09:05:24Z</time>
      </trkpt>
      <trkpt lat="37.1355310" lon="-2.0060660">
        <ele>185.0</ele>
        <time>2019-10-18T09:05:25Z</time>
      </trkpt>
      <trkpt lat="37.1355220" lon="-2.0061370">
        <ele>185.0</ele>
        <time>2019-10-18T09:05:26Z</time>
      </trkpt>
      <trkpt lat="37.1355150" lon="-2.0062110">
        <ele>185.0</ele>
        <time>2019-10-18T09:05:27Z</time>
      </trkpt>
      <trkpt lat="37.1355150" lon="-2.0062850">
        <ele>185.0</ele>
        <time>2019-10-18T09:05:28Z</time>
      </trkpt>
      <trkpt lat="37.1355290" lon="-2.0063510">
        <ele>185.0</ele>
        <time>2019-10-18T09:05:29Z</time>
      </trkpt>
      <trkpt lat="37.1355470" lon="-2.0064060">
        <ele>185.1</ele>
        <time>2019-10-18T09:05:30Z</time>
      </trkpt>
      <trkpt lat="37.1355630" lon="-2.0064550">
        <ele>185.1</ele>
        <time>2019-10-18T09:05:31Z</time>
      </trkpt>
      <trkpt lat="37.1355720" lon="-2.0065020">
        <ele>185.1</ele>
        <time>2019-10-18T09:05:32Z</time>
      </trkpt>
      <trkpt lat="37.1355810" lon="-2.0065490">
        <ele>185.2</ele>
        <time>2019-10-18T09:05:33Z</time>
      </trkpt>
      <trkpt lat="37.1355880" lon="-2.0065940">
        <ele>185.3</ele>
        <time>2019-10-18T09:05:34Z</time>
      </trkpt>
      <trkpt lat="37.1355950" lon="-2.0066390">
        <ele>185.3</ele>
        <time>2019-10-18T09:05:35Z</time>
      </trkpt>
      <trkpt lat="37.1356000" lon="-2.0066820">
        <ele>185.4</ele>
        <time>2019-10-18T09:05:36Z</time>
      </trkpt>
      <trkpt lat="37.1356050" lon="-2.0067250">
        <ele>185.5</ele>
        <time>2019-10-18T09:05:37Z</time>
      </trkpt>
      <trkpt lat="37.1356090" lon="-2.0067670">
        <ele>185.6</ele>
        <time>2019-10-18T09:05:38Z</time>
      </trkpt>
      <trkpt lat="37.1356130" lon="-2.0068100">
        <ele>185.7</ele>
        <time>2019-10-18T09:05:39Z</time>
      </trkpt>
      <trkpt lat="37.1356160" lon="-2.0068520">
        <ele>185.8</ele>
        <time>2019-10-18T09:05:40Z</time>
      </trkpt>
      <trkpt lat="37.1356180" lon="-2.0068940">
        <ele>185.9</ele>
        <time>2019-10-18T09:05:41Z</time>
      </trkpt>
      <trkpt lat="37.1356180" lon="-2.0069360">
        <ele>185.9</ele>
        <time>2019-10-18T09:05:42Z</time>
      </trkpt>
      <trkpt lat="37.1356190" lon="-2.0069780">
        <ele>186.0</ele>
        <time>2019-10-18T09:05:43Z</time>
      </trkpt>
      <trkpt lat="37.1356190" lon="-2.0070200">
        <ele>186.1</ele>
        <time>2019-10-18T09:05:44Z</time>
      </trkpt>
      <trkpt lat="37.1356170" lon="-2.0070620">
        <ele>186.2</ele>
        <time>2019-10-18T09:05:45Z</time>
      </trkpt>
      <trkpt lat="37.1356150" lon="-2.0071040">
        <ele>186.3</ele>
        <time>2019-10-18T09:05:46Z</time>
      </trkpt>
      <trkpt lat="37.1356120" lon="-2.0071470">
        <ele>186.3</ele>
        <time>2019-10-18T09:05:47Z</time>
      </trkpt>
      <trkpt lat="37.1356090" lon="-2.0071900">
        <ele>186.4</ele>
        <time>2019-10-18T09:05:48Z</time>
      </trkpt>
      <trkpt lat="37.1356060" lon="-2.0072330">
        <ele>186.5</ele>
        <time>2019-10-18T09:05:49Z</time>
      </trkpt>
      <trkpt lat="37.1356030" lon="-2.0072760">
        <ele>186.6</ele>
        <time>2019-10-18T09:05:50Z</time>
      </trkpt>
      <trkpt lat="37.1355990" lon="-2.0073180">
        <ele>186.7</ele>
        <time>2019-10-18T09:05:51Z</time>
      </trkpt>
      <trkpt lat="37.1355950" lon="-2.0073610">
        <ele>186.8</ele>
        <time>2019-10-18T09:05:52Z</time>
      </trkpt>
      <trkpt lat="37.1355910" lon="-2.0074030">
        <ele>187.0</ele>
        <time>2019-10-18T09:05:53Z</time>
      </trkpt>
      <trkpt lat="37.1355870" lon="-2.0074450">
        <ele>187.1</ele>
        <time>2019-10-18T09:05:54Z</time>
      </trkpt>
      <trkpt lat="37.1355830" lon="-2.0074880">
        <ele>187.3</ele>
        <time>2019-10-18T09:05:55Z</time>
      </trkpt>
      <trkpt lat="37.1355790" lon="-2.0075310">
        <ele>187.5</ele>
        <time>2019-10-18T09:05:56Z</time>
      </trkpt>
      <trkpt lat="37.1355740" lon="-2.0075750">
        <ele>187.8</ele>
        <time>2019-10-18T09:05:57Z</time>
      </trkpt>
      <trkpt lat="37.1355690" lon="-2.0076180">
        <ele>188.0</ele>
        <time>2019-10-18T09:05:58Z</time>
      </trkpt>
      <trkpt lat="37.1355650" lon="-2.0076600">
        <ele>188.3</ele>
        <time>2019-10-18T09:05:59Z</time>
      </trkpt>
      <trkpt lat="37.1355600" lon="-2.0077010">
        <ele>188.5</ele>
        <time>2019-10-18T09:06:00Z</time>
      </trkpt>
      <trkpt lat="37.1355570" lon="-2.0077430">
        <ele>188.8</ele>
        <time>2019-10-18T09:06:01Z</time>
      </trkpt>
      <trkpt lat="37.1355520" lon="-2.0077860">
        <ele>189.1</ele>
        <time>2019-10-18T09:06:02Z</time>
      </trkpt>
      <trkpt lat="37.1355470" lon="-2.0078300">
        <ele>189.4</ele>
        <time>2019-10-18T09:06:03Z</time>
      </trkpt>
      <trkpt lat="37.1355420" lon="-2.0078740">
        <ele>189.7</ele>
        <time>2019-10-18T09:06:04Z</time>
      </trkpt>
      <trkpt lat="37.1355370" lon="-2.0079180">
        <ele>190.0</ele>
        <time>2019-10-18T09:06:05Z</time>
      </trkpt>
      <trkpt lat="37.1355320" lon="-2.0079620">
        <ele>190.3</ele>
        <time>2019-10-18T09:06:06Z</time>
      </trkpt>
      <trkpt lat="37.1355270" lon="-2.0080070">
        <ele>190.6</ele>
        <time>2019-10-18T09:06:07Z</time>
      </trkpt>
      <trkpt lat="37.1355210" lon="-2.0080500">
        <ele>190.9</ele>
        <time>2019-10-18T09:06:08Z</time>
      </trkpt>
      <trkpt lat="37.1355150" lon="-2.0080940">
        <ele>191.2</ele>
        <time>2019-10-18T09:06:09Z</time>
      </trkpt>
      <trkpt lat="37.1355080" lon="-2.0081370">
        <ele>191.5</ele>
        <time>2019-10-18T09:06:10Z</time>
      </trkpt>
      <trkpt lat="37.1355010" lon="-2.0081790">
        <ele>191.8</ele>
        <time>2019-10-18T09:06:11Z</time>
      </trkpt>
      <trkpt lat="37.1354930" lon="-2.0082210">
        <ele>192.1</ele>
        <time>2019-10-18T09:06:12Z</time>
      </trkpt>
      <trkpt lat="37.1354850" lon="-2.0082630">
        <ele>192.4</ele>
        <time>2019-10-18T09:06:13Z</time>
      </trkpt>
      <trkpt lat="37.1354790" lon="-2.0083050">
        <ele>192.7</ele>
        <time>2019-10-18T09:06:14Z</time>
      </trkpt>
      <trkpt lat="37.1354740" lon="-2.0083470">
        <ele>193.0</ele>
        <time>2019-10-18T09:06:15Z</time>
      </trkpt>
      <trkpt lat="37.1354730" lon="-2.0083890">
        <ele>193.1</ele>
        <time>2019-10-18T09:06:16Z</time>
      </trkpt>
      <trkpt lat="37.1354740" lon="-2.0084320">
        <ele>193.1</ele>
        <time>2019-10-18T09:06:17Z</time>
      </trkpt>
      <trkpt lat="37.1354800" lon="-2.0084760">
        <ele>193.2</ele>
        <time>2019-10-18T09:06:18Z</time>
      </trkpt>
      <trkpt lat="37.1354890" lon="-2.0085220">
        <ele>193.2</ele>
        <time>2019-10-18T09:06:19Z</time>
      </trkpt>
      <trkpt lat="37.1355000" lon="-2.0085680">
        <ele>193.3</ele>
        <time>2019-10-18T09:06:20Z</time>
      </trkpt>
      <trkpt lat="37.1355100" lon="-2.0086140">
        <ele>193.3</ele>
        <time>2019-10-18T09:06:21Z</time>
      </trkpt>
      <trkpt lat="37.1355200" lon="-2.0086620">
        <ele>194.1</ele>
        <time>2019-10-18T09:06:22Z</time>
      </trkpt>
      <trkpt lat="37.1355290" lon="-2.0087130">
        <ele>194.3</ele>
        <time>2019-10-18T09:06:23Z</time>
      </trkpt>
      <trkpt lat="37.1355360" lon="-2.0087660">
        <ele>194.4</ele>
        <time>2019-10-18T09:06:24Z</time>
      </trkpt>
      <trkpt lat="37.1355370" lon="-2.0088210">
        <ele>194.1</ele>
        <time>2019-10-18T09:06:25Z</time>
      </trkpt>
      <trkpt lat="37.1355300" lon="-2.0088780">
        <ele>193.9</ele>
        <time>2019-10-18T09:06:26Z</time>
      </trkpt>
      <trkpt lat="37.1355160" lon="-2.0089340">
        <ele>193.8</ele>
        <time>2019-10-18T09:06:27Z</time>
      </trkpt>
      <trkpt lat="37.1354960" lon="-2.0089870">
        <ele>193.6</ele>
        <time>2019-10-18T09:06:28Z</time>
      </trkpt>
      <trkpt lat="37.1354750" lon="-2.0090390">
        <ele>193.4</ele>
        <time>2019-10-18T09:06:29Z</time>
      </trkpt>
      <trkpt lat="37.1354540" lon="-2.0090910">
        <ele>193.4</ele>
        <time>2019-10-18T09:06:30Z</time>
      </trkpt>
      <trkpt lat="37.1354370" lon="-2.0091430">
        <ele>193.5</ele>
        <time>2019-10-18T09:06:31Z</time>
      </trkpt>
      <trkpt lat="37.1354220" lon="-2.0091960">
        <ele>193.6</ele>
        <time>2019-10-18T09:06:32Z</time>
      </trkpt>
      <trkpt lat="37.1354110" lon="-2.0092510">
        <ele>193.7</ele>
        <time>2019-10-18T09:06:33Z</time>
      </trkpt>
      <trkpt lat="37.1354050" lon="-2.0093070">
        <ele>193.8</ele>
        <time>2019-10-18T09:06:34Z</time>
      </trkpt>
      <trkpt lat="37.1354020" lon="-2.0093650">
        <ele>193.8</ele>
        <time>2019-10-18T09:06:35Z</time>
      </trkpt>
      <trkpt lat="37.1354040" lon="-2.0094230">
        <ele>193.9</ele>
        <time>2019-10-18T09:06:36Z</time>
      </trkpt>
      <trkpt lat="37.1354080" lon="-2.0094820">
        <ele>194.0</ele>
        <time>2019-10-18T09:06:37Z</time>
      </trkpt>
      <trkpt lat="37.1354140" lon="-2.0095410">
        <ele>194.1</ele>
        <time>2019-10-18T09:06:38Z</time>
      </trkpt>
      <trkpt lat="37.1354210" lon="-2.0096000">
        <ele>194.1</ele>
        <time>2019-10-18T09:06:39Z</time>
      </trkpt>
      <trkpt lat="37.1354290" lon="-2.0096590">
        <ele>194.1</ele>
        <time>2019-10-18T09:06:40Z</time>
      </trkpt>
      <trkpt lat="37.1354380" lon="-2.0097190">
        <ele>194.1</ele>
        <time>2019-10-18T09:06:41Z</time>
      </trkpt>
      <trkpt lat="37.1354470" lon="-2.0097770">
        <ele>194.1</ele>
        <time>2019-10-18T09:06:42Z</time>
      </trkpt>
      <trkpt lat="37.1354560" lon="-2.0098350">
        <ele>194.2</ele>
        <time>2019-10-18T09:06:43Z</time>
      </trkpt>
      <trkpt lat="37.1354660" lon="-2.0098930">
        <ele>194.2</ele>
        <time>2019-10-18T09:06:44Z</time>
      </trkpt>
      <trkpt lat="37.1354760" lon="-2.0099520">
        <ele>194.2</ele>
        <time>2019-10-18T09:06:45Z</time>
      </trkpt>
      <trkpt lat="37.1354880" lon="-2.0100120">
        <ele>194.2</ele>
        <time>2019-10-18T09:06:46Z</time>
      </trkpt>
      <trkpt lat="37.1355000" lon="-2.0100720">
        <ele>194.2</ele>
        <time>2019-10-18T09:06:47Z</time>
      </trkpt>
      <trkpt lat="37.1355120" lon="-2.0101320">
        <ele>194.2</ele>
        <time>2019-10-18T09:06:48Z</time>
      </trkpt>
      <trkpt lat="37.1355230" lon="-2.0101920">
        <ele>194.3</ele>
        <time>2019-10-18T09:06:49Z</time>
      </trkpt>
      <trkpt lat="37.1355350" lon="-2.0102530">
        <ele>194.4</ele>
        <time>2019-10-18T09:06:50Z</time>
      </trkpt>
      <trkpt lat="37.1355470" lon="-2.0103140">
        <ele>194.5</ele>
        <time>2019-10-18T09:06:51Z</time>
      </trkpt>
      <trkpt lat="37.1355620" lon="-2.0103740">
        <ele>194.6</ele>
        <time>2019-10-18T09:06:52Z</time>
      </trkpt>
      <trkpt lat="37.1355780" lon="-2.0104330">
        <ele>194.7</ele>
        <time>2019-10-18T09:06:53Z</time>
      </trkpt>
      <trkpt lat="37.1355950" lon="-2.0104930">
        <ele>194.8</ele>
        <time>2019-10-18T09:06:54Z</time>
      </trkpt>
      <trkpt lat="37.1356100" lon="-2.0105530">
        <ele>194.9</ele>
        <time>2019-10-18T09:06:55Z</time>
      </trkpt>
      <trkpt lat="37.1356250" lon="-2.0106130">
        <ele>195.0</ele>
        <time>2019-10-18T09:06:56Z</time>
      </trkpt>
      <trkpt lat="37.1356390" lon="-2.0106740">
        <ele>195.2</ele>
        <time>2019-10-18T09:06:57Z</time>
      </trkpt>
      <trkpt lat="37.1356520" lon="-2.0107340">
        <ele>195.3</ele>
        <time>2019-10-18T09:06:58Z</time>
      </trkpt>
      <trkpt lat="37.1356650" lon="-2.0107940">
        <ele>195.4</ele>
        <time>2019-10-18T09:06:59Z</time>
      </trkpt>
      <trkpt lat="37.1356770" lon="-2.0108540">
        <ele>195.5</ele>
        <time>2019-10-18T09:07:00Z</time>
      </trkpt>
      <trkpt lat="37.1356880" lon="-2.0109120">
        <ele>195.6</ele>
        <time>2019-10-18T09:07:01Z</time>
      </trkpt>
      <trkpt lat="37.1356990" lon="-2.0109680">
        <ele>195.9</ele>
        <time>2019-10-18T09:07:02Z</time>
      </trkpt>
      <trkpt lat="37.1357110" lon="-2.0110220">
        <ele>196.2</ele>
        <time>2019-10-18T09:07:03Z</time>
      </trkpt>
      <trkpt lat="37.1357220" lon="-2.0110750">
        <ele>196.4</ele>
        <time>2019-10-18T09:07:04Z</time>
      </trkpt>
      <trkpt lat="37.1357320" lon="-2.0111260">
        <ele>196.6</ele>
        <time>2019-10-18T09:07:05Z</time>
      </trkpt>
      <trkpt lat="37.1357420" lon="-2.0111770">
        <ele>196.8</ele>
        <time>2019-10-18T09:07:06Z</time>
      </trkpt>
      <trkpt lat="37.1357500" lon="-2.0112280">
        <ele>197.0</ele>
        <time>2019-10-18T09:07:07Z</time>
      </trkpt>
      <trkpt lat="37.1357590" lon="-2.0112770">
        <ele>197.2</ele>
        <time>2019-10-18T09:07:08Z</time>
      </trkpt>
      <trkpt lat="37.1357690" lon="-2.0113250">
        <ele>197.4</ele>
        <time>2019-10-18T09:07:09Z</time>
      </trkpt>
      <trkpt lat="37.1357790" lon="-2.0113720">
        <ele>197.6</ele>
        <time>2019-10-18T09:07:10Z</time>
      </trkpt>
      <trkpt lat="37.1357880" lon="-2.0114170">
        <ele>197.8</ele>
        <time>2019-10-18T09:07:11Z</time>
      </trkpt>
      <trkpt lat="37.1357980" lon="-2.0114610">
        <ele>198.0</ele>
        <time>2019-10-18T09:07:12Z</time>
      </trkpt>
      <trkpt lat="37.1358060" lon="-2.0115050">
        <ele>198.1</ele>
        <time>2019-10-18T09:07:13Z</time>
      </trkpt>
      <trkpt lat="37.1358140" lon="-2.0115480">
        <ele>198.3</ele>
        <time>2019-10-18T09:07:14Z</time>
      </trkpt>
      <trkpt lat="37.1358210" lon="-2.0115910">
        <ele>198.5</ele>
        <time>2019-10-18T09:07:15Z</time>
      </trkpt>
      <trkpt lat="37.1358280" lon="-2.0116330">
        <ele>198.6</ele>
        <time>2019-10-18T09:07:16Z</time>
      </trkpt>
      <trkpt lat="37.1358360" lon="-2.0116760">
        <ele>198.8</ele>
        <time>2019-10-18T09:07:17Z</time>
      </trkpt>
      <trkpt lat="37.1358440" lon="-2.0117180">
        <ele>198.9</ele>
        <time>2019-10-18T09:07:18Z</time>
      </trkpt>
      <trkpt lat="37.1358530" lon="-2.0117620">
        <ele>199.1</ele>
        <time>2019-10-18T09:07:19Z</time>
      </trkpt>
      <trkpt lat="37.1358620" lon="-2.0118050">
        <ele>199.2</ele>
        <time>2019-10-18T09:07:20Z</time>
      </trkpt>
      <trkpt lat="37.1358710" lon="-2.0118490">
        <ele>199.4</ele>
        <time>2019-10-18T09:07:21Z</time>
      </trkpt>
      <trkpt lat="37.1358800" lon="-2.0118930">
        <ele>199.5</ele>
        <time>2019-10-18T09:07:22Z</time>
      </trkpt>
      <trkpt lat="37.1358890" lon="-2.0119360">
        <ele>199.6</ele>
        <time>2019-10-18T09:07:23Z</time>
      </trkpt>
      <trkpt lat="37.1358980" lon="-2.0119800">
        <ele>199.8</ele>
        <time>2019-10-18T09:07:24Z</time>
      </trkpt>
      <trkpt lat="37.1359070" lon="-2.0120220">
        <ele>199.9</ele>
        <time>2019-10-18T09:07:25Z</time>
      </trkpt>
      <trkpt lat="37.1359160" lon="-2.0120630">
        <ele>200.0</ele>
        <time>2019-10-18T09:07:26Z</time>
      </trkpt>
      <trkpt lat="37.1359240" lon="-2.0121040">
        <ele>200.1</ele>
        <time>2019-10-18T09:07:27Z</time>
      </trkpt>
      <trkpt lat="37.1359320" lon="-2.0121440">
        <ele>200.2</ele>
        <time>2019-10-18T09:07:28Z</time>
      </trkpt>
      <trkpt lat="37.1359400" lon="-2.0121850">
        <ele>200.4</ele>
        <time>2019-10-18T09:07:29Z</time>
      </trkpt>
      <trkpt lat="37.1359480" lon="-2.0122260">
        <ele>200.5</ele>
        <time>2019-10-18T09:07:30Z</time>
      </trkpt>
      <trkpt lat="37.1359570" lon="-2.0122680">
        <ele>200.6</ele>
        <time>2019-10-18T09:07:31Z</time>
      </trkpt>
      <trkpt lat="37.1359670" lon="-2.0123100">
        <ele>200.7</ele>
        <time>2019-10-18T09:07:32Z</time>
      </trkpt>
      <trkpt lat="37.1359760" lon="-2.0123520">
        <ele>200.8</ele>
        <time>2019-10-18T09:07:33Z</time>
      </trkpt>
      <trkpt lat="37.1359840" lon="-2.0123940">
        <ele>201.0</ele>
        <time>2019-10-18T09:07:34Z</time>
      </trkpt>
      <trkpt lat="37.1359940" lon="-2.0124340">
        <ele>201.1</ele>
        <time>2019-10-18T09:07:35Z</time>
      </trkpt>
      <trkpt lat="37.1360040" lon="-2.0124720">
        <ele>201.2</ele>
        <time>2019-10-18T09:07:36Z</time>
      </trkpt>
      <trkpt lat="37.1360140" lon="-2.0125100">
        <ele>201.4</ele>
        <time>2019-10-18T09:07:37Z</time>
      </trkpt>
      <trkpt lat="37.1360250" lon="-2.0125480">
        <ele>201.5</ele>
        <time>2019-10-18T09:07:38Z</time>
      </trkpt>
      <trkpt lat="37.1360360" lon="-2.0125850">
        <ele>201.7</ele>
        <time>2019-10-18T09:07:39Z</time>
      </trkpt>
      <trkpt lat="37.1360470" lon="-2.0126230">
        <ele>201.8</ele>
        <time>2019-10-18T09:07:40Z</time>
      </trkpt>
      <trkpt lat="37.1360600" lon="-2.0126590">
        <ele>202.0</ele>
        <time>2019-10-18T09:07:41Z</time>
      </trkpt>
      <trkpt lat="37.1360730" lon="-2.0126970">
        <ele>202.1</ele>
        <time>2019-10-18T09:07:42Z</time>
      </trkpt>
      <trkpt lat="37.1360870" lon="-2.0127350">
        <ele>202.3</ele>
        <time>2019-10-18T09:07:43Z</time>
      </trkpt>
      <trkpt lat="37.1361000" lon="-2.0127730">
        <ele>202.4</ele>
        <time>2019-10-18T09:07:44Z</time>
      </trkpt>
      <trkpt lat="37.1361140" lon="-2.0128120">
        <ele>202.6</ele>
        <time>2019-10-18T09:07:45Z</time>
      </trkpt>
      <trkpt lat="37.1361280" lon="-2.0128490">
        <ele>202.8</ele>
        <time>2019-10-18T09:07:46Z</time>
      </trkpt>
      <trkpt lat="37.1361430" lon="-2.0128850">
        <ele>203.0</ele>
        <time>2019-10-18T09:07:47Z</time>
      </trkpt>
      <trkpt lat="37.1361590" lon="-2.0129200">
        <ele>203.1</ele>
        <time>2019-10-18T09:07:48Z</time>
      </trkpt>
      <trkpt lat="37.1361760" lon="-2.0129550">
        <ele>203.3</ele>
        <time>2019-10-18T09:07:49Z</time>
      </trkpt>
      <trkpt lat="37.1361930" lon="-2.0129890">
        <ele>203.5</ele>
        <time>2019-10-18T09:07:50Z</time>
      </trkpt>
      <trkpt lat="37.1362100" lon="-2.0130240">
        <ele>203.6</ele>
        <time>2019-10-18T09:07:51Z</time>
      </trkpt>
      <trkpt lat="37.1362270" lon="-2.0130570">
        <ele>203.8</ele>
        <time>2019-10-18T09:07:52Z</time>
      </trkpt>
      <trkpt lat="37.1362450" lon="-2.0130900">
        <ele>204.0</ele>
        <time>2019-10-18T09:07:53Z</time>
      </trkpt>
      <trkpt lat="37.1362630" lon="-2.0131220">
        <ele>204.2</ele>
        <time>2019-10-18T09:07:54Z</time>
      </trkpt>
      <trkpt lat="37.1362820" lon="-2.0131540">
        <ele>204.4</ele>
        <time>2019-10-18T09:07:55Z</time>
      </trkpt>
      <trkpt lat="37.1363030" lon="-2.0131850">
        <ele>204.5</ele>
        <time>2019-10-18T09:07:56Z</time>
      </trkpt>
      <trkpt lat="37.1363230" lon="-2.0132160">
        <ele>204.7</ele>
        <time>2019-10-18T09:07:57Z</time>
      </trkpt>
      <trkpt lat="37.1363450" lon="-2.0132460">
        <ele>204.9</ele>
        <time>2019-10-18T09:07:58Z</time>
      </trkpt>
      <trkpt lat="37.1363670" lon="-2.0132750">
        <ele>205.1</ele>
        <time>2019-10-18T09:07:59Z</time>
      </trkpt>
      <trkpt lat="37.1363890" lon="-2.0133040">
        <ele>205.3</ele>
        <time>2019-10-18T09:08:00Z</time>
      </trkpt>
      <trkpt lat="37.1364120" lon="-2.0133330">
        <ele>205.5</ele>
        <time>2019-10-18T09:08:01Z</time>
      </trkpt>
      <trkpt lat="37.1364350" lon="-2.0133610">
        <ele>205.6</ele>
        <time>2019-10-18T09:08:02Z</time>
      </trkpt>
      <trkpt lat="37.1364570" lon="-2.0133880">
        <ele>205.8</ele>
        <time>2019-10-18T09:08:03Z</time>
      </trkpt>
      <trkpt lat="37.1364800" lon="-2.0134140">
        <ele>205.9</ele>
        <time>2019-10-18T09:08:04Z</time>
      </trkpt>
      <trkpt lat="37.1365030" lon="-2.0134400">
        <ele>206.1</ele>
        <time>2019-10-18T09:08:05Z</time>
      </trkpt>
      <trkpt lat="37.1365270" lon="-2.0134660">
        <ele>206.2</ele>
        <time>2019-10-18T09:08:06Z</time>
      </trkpt>
      <trkpt lat="37.1365510" lon="-2.0134920">
        <ele>206.4</ele>
        <time>2019-10-18T09:08:07Z</time>
      </trkpt>
      <trkpt lat="37.1365760" lon="-2.0135180">
        <ele>206.5</ele>
        <time>2019-10-18T09:08:08Z</time>
      </trkpt>
      <trkpt lat="37.1366010" lon="-2.0135420">
        <ele>206.6</ele>
        <time>2019-10-18T09:08:09Z</time>
      </trkpt>
      <trkpt lat="37.1366260" lon="-2.0135660">
        <ele>206.7</ele>
        <time>2019-10-18T09:08:10Z</time>
      </trkpt>
      <trkpt lat="37.1366510" lon="-2.0135900">
        <ele>206.9</ele>
        <time>2019-10-18T09:08:11Z</time>
      </trkpt>
      <trkpt lat="37.1366770" lon="-2.0136140">
        <ele>207.0</ele>
        <time>2019-10-18T09:08:12Z</time>
      </trkpt>
      <trkpt lat="37.1367040" lon="-2.0136370">
        <ele>207.1</ele>
        <time>2019-10-18T09:08:13Z</time>
      </trkpt>
      <trkpt lat="37.1367300" lon="-2.0136610">
        <ele>207.2</ele>
        <time>2019-10-18T09:08:14Z</time>
      </trkpt>
      <trkpt lat="37.1367580" lon="-2.0136850">
        <ele>207.4</ele>
        <time>2019-10-18T09:08:15Z</time>
      </trkpt>
      <trkpt lat="37.1367860" lon="-2.0137090">
        <ele>207.5</ele>
        <time>2019-10-18T09:08:16Z</time>
      </trkpt>
      <trkpt lat="37.1368130" lon="-2.0137330">
        <ele>207.6</ele>
        <time>2019-10-18T09:08:17Z</time>
      </trkpt>
      <trkpt lat="37.1368400" lon="-2.0137550">
        <ele>207.7</ele>
        <time>2019-10-18T09:08:18Z</time>
      </trkpt>
      <trkpt lat="37.1368680" lon="-2.0137770">
        <ele>207.8</ele>
        <time>2019-10-18T09:08:19Z</time>
      </trkpt>
      <trkpt lat="37.1368960" lon="-2.0137980">
        <ele>207.9</ele>
        <time>2019-10-18T09:08:20Z</time>
      </trkpt>
      <trkpt lat="37.1369250" lon="-2.0138200">
        <ele>208.1</ele>
        <time>2019-10-18T09:08:21Z</time>
      </trkpt>
      <trkpt lat="37.1369520" lon="-2.0138420">
        <ele>208.2</ele>
        <time>2019-10-18T09:08:22Z</time>
      </trkpt>
      <trkpt lat="37.1369790" lon="-2.0138650">
        <ele>208.3</ele>
        <time>2019-10-18T09:08:23Z</time>
      </trkpt>
      <trkpt lat="37.1370050" lon="-2.0138880">
        <ele>208.4</ele>
        <time>2019-10-18T09:08:24Z</time>
      </trkpt>
      <trkpt lat="37.1370320" lon="-2.0139100">
        <ele>208.5</ele>
        <time>2019-10-18T09:08:25Z</time>
      </trkpt>
      <trkpt lat="37.1370590" lon="-2.0139310">
        <ele>208.6</ele>
        <time>2019-10-18T09:08:26Z</time>
      </trkpt>
      <trkpt lat="37.1370850" lon="-2.0139530">
        <ele>208.7</ele>
        <time>2019-10-18T09:08:27Z</time>
      </trkpt>
      <trkpt lat="37.1371120" lon="-2.0139740">
        <ele>208.8</ele>
        <time>2019-10-18T09:08:28Z</time>
      </trkpt>
      <trkpt lat="37.1371400" lon="-2.0139960">
        <ele>208.9</ele>
        <time>2019-10-18T09:08:29Z</time>
      </trkpt>
      <trkpt lat="37.1371680" lon="-2.0140160">
        <ele>209.0</ele>
        <time>2019-10-18T09:08:30Z</time>
      </trkpt>
      <trkpt lat="37.1371960" lon="-2.0140370">
        <ele>209.1</ele>
        <time>2019-10-18T09:08:31Z</time>
      </trkpt>
      <trkpt lat="37.1372230" lon="-2.0140570">
        <ele>209.1</ele>
        <time>2019-10-18T09:08:32Z</time>
      </trkpt>
      <trkpt lat="37.1372500" lon="-2.0140770">
        <ele>209.2</ele>
        <time>2019-10-18T09:08:33Z</time>
      </trkpt>
      <trkpt lat="37.1372770" lon="-2.0140980">
        <ele>209.3</ele>
        <time>2019-10-18T09:08:34Z</time>
      </trkpt>
      <trkpt lat="37.1373030" lon="-2.0141200">
        <ele>209.4</ele>
        <time>2019-10-18T09:08:35Z</time>
      </trkpt>
      <trkpt lat="37.1373300" lon="-2.0141430">
        <ele>209.4</ele>
        <time>2019-10-18T09:08:36Z</time>
      </trkpt>
      <trkpt lat="37.1373570" lon="-2.0141670">
        <ele>209.5</ele>
        <time>2019-10-18T09:08:37Z</time>
      </trkpt>
      <trkpt lat="37.1373840" lon="-2.0141930">
        <ele>209.6</ele>
        <time>2019-10-18T09:08:38Z</time>
      </trkpt>
      <trkpt lat="37.1374100" lon="-2.0142210">
        <ele>209.6</ele>
        <time>2019-10-18T09:08:39Z</time>
      </trkpt>
      <trkpt lat="37.1374350" lon="-2.0142520">
        <ele>209.7</ele>
        <time>2019-10-18T09:08:40Z</time>
      </trkpt>
      <trkpt lat="37.1374590" lon="-2.0142850">
        <ele>209.7</ele>
        <time>2019-10-18T09:08:41Z</time>
      </trkpt>
      <trkpt lat="37.1374810" lon="-2.0143210">
        <ele>209.7</ele>
        <time>2019-10-18T09:08:42Z</time>
      </trkpt>
      <trkpt lat="37.1375000" lon="-2.0143590">
        <ele>209.8</ele>
        <time>2019-10-18T09:08:43Z</time>
      </trkpt>
      <trkpt lat="37.1375160" lon="-2.0144000">
        <ele>209.8</ele>
        <time>2019-10-18T09:08:44Z</time>
      </trkpt>
      <trkpt lat="37.1375290" lon="-2.0144430">
        <ele>209.8</ele>
        <time>2019-10-18T09:08:45Z</time>
      </trkpt>
      <trkpt lat="37.1375390" lon="-2.0144890">
        <ele>209.8</ele>
        <time>2019-10-18T09:08:46Z</time>
      </trkpt>
      <trkpt lat="37.1375450" lon="-2.0145350">
        <ele>209.8</ele>
        <time>2019-10-18T09:08:47Z</time>
      </trkpt>
      <trkpt lat="37.1375460" lon="-2.0145840">
        <ele>209.8</ele>
        <time>2019-10-18T09:08:48Z</time>
      </trkpt>
      <trkpt lat="37.1375430" lon="-2.0146320">
        <ele>209.8</ele>
        <time>2019-10-18T09:08:49Z</time>
      </trkpt>
      <trkpt lat="37.1375360" lon="-2.0146790">
        <ele>209.8</ele>
        <time>2019-10-18T09:08:50Z</time>
      </trkpt>
      <trkpt lat="37.1375270" lon="-2.0147250">
        <ele>209.8</ele>
        <time>2019-10-18T09:08:51Z</time>
      </trkpt>
      <trkpt lat="37.1375150" lon="-2.0147690">
        <ele>209.8</ele>
        <time>2019-10-18T09:08:52Z</time>
      </trkpt>
      <trkpt lat="37.1375010" lon="-2.0148130">
        <ele>209.8</ele>
        <time>2019-10-18T09:08:53Z</time>
      </trkpt>
      <trkpt lat="37.1374840" lon="-2.0148590">
        <ele>209.8</ele>
        <time>2019-10-18T09:08:54Z</time>
      </trkpt>
      <trkpt lat="37.1374650" lon="-2.0149070">
        <ele>209.9</ele>
        <time>2019-10-18T09:08:55Z</time>
      </trkpt>
      <trkpt lat="37.1374450" lon="-2.0149550">
        <ele>209.9</ele>
        <time>2019-10-18T09:08:56Z</time>
      </trkpt>
      <trkpt lat="37.1374250" lon="-2.0150040">
        <ele>209.9</ele>
        <time>2019-10-18T09:08:57Z</time>
      </trkpt>
      <trkpt lat="37.1374050" lon="-2.0150530">
        <ele>209.9</ele>
        <time>2019-10-18T09:08:58Z</time>
      </trkpt>
      <trkpt lat="37.1373860" lon="-2.0151040">
        <ele>209.9</ele>
        <time>2019-10-18T09:08:59Z</time>
      </trkpt>
      <trkpt lat="37.1373670" lon="-2.0151550">
        <ele>209.9</ele>
        <time>2019-10-18T09:09:00Z</time>
      </trkpt>
      <trkpt lat="37.1373490" lon="-2.0152070">
        <ele>209.9</ele>
        <time>2019-10-18T09:09:01Z</time>
      </trkpt>
      <trkpt lat="37.1373330" lon="-2.0152630">
        <ele>209.9</ele>
        <time>2019-10-18T09:09:02Z</time>
      </trkpt>
      <trkpt lat="37.1373210" lon="-2.0153210">
        <ele>209.9</ele>
        <time>2019-10-18T09:09:03Z</time>
      </trkpt>
      <trkpt lat="37.1373130" lon="-2.0153820">
        <ele>210.0</ele>
        <time>2019-10-18T09:09:04Z</time>
      </trkpt>
      <trkpt lat="37.1373090" lon="-2.0154430">
        <ele>210.0</ele>
        <time>2019-10-18T09:09:05Z</time>
      </trkpt>
      <trkpt lat="37.1373100" lon="-2.0155030">
        <ele>210.1</ele>
        <time>2019-10-18T09:09:06Z</time>
      </trkpt>
      <trkpt lat="37.1373140" lon="-2.0155630">
        <ele>210.2</ele>
        <time>2019-10-18T09:09:07Z</time>
      </trkpt>
      <trkpt lat="37.1373230" lon="-2.0156190">
        <ele>210.2</ele>
        <time>2019-10-18T09:09:08Z</time>
      </trkpt>
      <trkpt lat="37.1373350" lon="-2.0156710">
        <ele>210.3</ele>
        <time>2019-10-18T09:09:09Z</time>
      </trkpt>
      <trkpt lat="37.1373500" lon="-2.0157190">
        <ele>210.4</ele>
        <time>2019-10-18T09:09:10Z</time>
      </trkpt>
      <trkpt lat="37.1373660" lon="-2.0157650">
        <ele>210.5</ele>
        <time>2019-10-18T09:09:11Z</time>
      </trkpt>
      <trkpt lat="37.1373820" lon="-2.0158100">
        <ele>210.6</ele>
        <time>2019-10-18T09:09:12Z</time>
      </trkpt>
      <trkpt lat="37.1373990" lon="-2.0158570">
        <ele>210.6</ele>
        <time>2019-10-18T09:09:13Z</time>
      </trkpt>
      <trkpt lat="37.1374150" lon="-2.0159040">
        <ele>210.7</ele>
        <time>2019-10-18T09:09:14Z</time>
      </trkpt>
      <trkpt lat="37.1374320" lon="-2.0159500">
        <ele>210.7</ele>
        <time>2019-10-18T09:09:15Z</time>
      </trkpt>
      <trkpt lat="37.1374510" lon="-2.0159980">
        <ele>210.8</ele>
        <time>2019-10-18T09:09:16Z</time>
      </trkpt>
      <trkpt lat="37.1374700" lon="-2.0160480">
        <ele>210.8</ele>
        <time>2019-10-18T09:09:17Z</time>
      </trkpt>
      <trkpt lat="37.1374920" lon="-2.0160990">
        <ele>210.8</ele>
        <time>2019-10-18T09:09:18Z</time>
      </trkpt>
      <trkpt lat="37.1375140" lon="-2.0161510">
        <ele>210.9</ele>
        <time>2019-10-18T09:09:19Z</time>
      </trkpt>
      <trkpt lat="37.1375370" lon="-2.0162020">
        <ele>210.9</ele>
        <time>2019-10-18T09:09:20Z</time>
      </trkpt>
      <trkpt lat="37.1375610" lon="-2.0162540">
        <ele>210.9</ele>
        <time>2019-10-18T09:09:21Z</time>
      </trkpt>
      <trkpt lat="37.1375840" lon="-2.0163060">
        <ele>210.9</ele>
        <time>2019-10-18T09:09:22Z</time>
      </trkpt>
      <trkpt lat="37.1376090" lon="-2.0163580">
        <ele>211.0</ele>
        <time>2019-10-18T09:09:23Z</time>
      </trkpt>
      <trkpt lat="37.1376350" lon="-2.0164090">
        <ele>211.0</ele>
        <time>2019-10-18T09:09:24Z</time>
      </trkpt>
      <trkpt lat="37.1376620" lon="-2.0164610">
        <ele>211.1</ele>
        <time>2019-10-18T09:09:25Z</time>
      </trkpt>
      <trkpt lat="37.1376890" lon="-2.0165120">
        <ele>211.1</ele>
        <time>2019-10-18T09:09:26Z</time>
      </trkpt>
      <trkpt lat="37.1377170" lon="-2.0165630">
        <ele>211.2</ele>
        <time>2019-10-18T09:09:27Z</time>
      </trkpt>
      <trkpt lat="37.1377450" lon="-2.0166120">
        <ele>211.3</ele>
        <time>2019-10-18T09:09:28Z</time>
      </trkpt>
      <trkpt lat="37.1377730" lon="-2.0166610">
        <ele>211.4</ele>
        <time>2019-10-18T09:09:29Z</time>
      </trkpt>
      <trkpt lat="37.1378020" lon="-2.0167080">
        <ele>211.5</ele>
        <time>2019-10-18T09:09:30Z</time>
      </trkpt>
      <trkpt lat="37.1378320" lon="-2.0167550">
        <ele>211.6</ele>
        <time>2019-10-18T09:09:31Z</time>
      </trkpt>
      <trkpt lat="37.1378620" lon="-2.0168010">
        <ele>211.7</ele>
        <time>2019-10-18T09:09:32Z</time>
      </trkpt>
      <trkpt lat="37.1378920" lon="-2.0168460">
        <ele>211.8</ele>
        <time>2019-10-18T09:09:33Z</time>
      </trkpt>
      <trkpt lat="37.1379230" lon="-2.0168900">
        <ele>211.9</ele>
        <time>2019-10-18T09:09:34Z</time>
      </trkpt>
      <trkpt lat="37.1379540" lon="-2.0169330">
        <ele>212.0</ele>
        <time>2019-10-18T09:09:35Z</time>
      </trkpt>
      <trkpt lat="37.1379850" lon="-2.0169760">
        <ele>212.1</ele>
        <time>2019-10-18T09:09:36Z</time>
      </trkpt>
      <trkpt lat="37.1380160" lon="-2.0170200">
        <ele>212.2</ele>
        <time>2019-10-18T09:09:37Z</time>
      </trkpt>
      <trkpt lat="37.1380470" lon="-2.0170640">
        <ele>212.3</ele>
        <time>2019-10-18T09:09:38Z</time>
      </trkpt>
      <trkpt lat="37.1380770" lon="-2.0171090">
        <ele>212.4</ele>
        <time>2019-10-18T09:09:39Z</time>
      </trkpt>
      <trkpt lat="37.1381080" lon="-2.0171530">
        <ele>212.5</ele>
        <time>2019-10-18T09:09:40Z</time>
      </trkpt>
      <trkpt lat="37.1381390" lon="-2.0171970">
        <ele>212.6</ele>
        <time>2019-10-18T09:09:41Z</time>
      </trkpt>
      <trkpt lat="37.1381710" lon="-2.0172410">
        <ele>212.7</ele>
        <time>2019-10-18T09:09:42Z</time>
      </trkpt>
      <trkpt lat="37.1382030" lon="-2.0172850">
        <ele>212.8</ele>
        <time>2019-10-18T09:09:43Z</time>
      </trkpt>
      <trkpt lat="37.1382370" lon="-2.0173280">
        <ele>212.8</ele>
        <time>2019-10-18T09:09:44Z</time>
      </trkpt>
      <trkpt lat="37.1382710" lon="-2.0173720">
        <ele>212.8</ele>
        <time>2019-10-18T09:09:45Z</time>
      </trkpt>
      <trkpt lat="37.1383050" lon="-2.0174160">
        <ele>212.9</ele>
        <time>2019-10-18T09:09:46Z</time>
      </trkpt>
      <trkpt lat="37.1383410" lon="-2.0174580">
        <ele>212.9</ele>
        <time>2019-10-18T09:09:47Z</time>
      </trkpt>
      <trkpt lat="37.1383770" lon="-2.0175000">
        <ele>212.9</ele>
        <time>2019-10-18T09:09:48Z</time>
      </trkpt>
      <trkpt lat="37.1384150" lon="-2.0175400">
        <ele>213.0</ele>
        <time>2019-10-18T09:09:49Z</time>
      </trkpt>
      <trkpt lat="37.1384540" lon="-2.0175800">
        <ele>213.0</ele>
        <time>2019-10-18T09:09:50Z</time>
      </trkpt>
      <trkpt lat="37.1384940" lon="-2.0176180">
        <ele>213.0</ele>
        <time>2019-10-18T09:09:51Z</time>
      </trkpt>
      <trkpt lat="37.1385340" lon="-2.0176550">
        <ele>213.1</ele>
        <time>2019-10-18T09:09:52Z</time>
      </trkpt>
      <trkpt lat="37.1385750" lon="-2.0176910">
        <ele>213.1</ele>
        <time>2019-10-18T09:09:53Z</time>
      </trkpt>
      <trkpt lat="37.1386140" lon="-2.0177250">
        <ele>213.2</ele>
        <time>2019-10-18T09:09:54Z</time>
      </trkpt>
      <trkpt lat="37.1386540" lon="-2.0177580">
        <ele>213.3</ele>
        <time>2019-10-18T09:09:55Z</time>
      </trkpt>
      <trkpt lat="37.1386930" lon="-2.0177910">
        <ele>213.4</ele>
        <time>2019-10-18T09:09:56Z</time>
      </trkpt>
      <trkpt lat="37.1387320" lon="-2.0178230">
        <ele>213.5</ele>
        <time>2019-10-18T09:09:57Z</time>
      </trkpt>
      <trkpt lat="37.1387700" lon="-2.0178550">
        <ele>213.6</ele>
        <time>2019-10-18T09:09:58Z</time>
      </trkpt>
      <trkpt lat="37.1388090" lon="-2.0178880">
        <ele>213.7</ele>
        <time>2019-10-18T09:09:59Z</time>
      </trkpt>
      <trkpt lat="37.1388460" lon="-2.0179230">
        <ele>213.9</ele>
        <time>2019-10-18T09:10:00Z</time>
      </trkpt>
      <trkpt lat="37.1388810" lon="-2.0179600">
        <ele>214.0</ele>
        <time>2019-10-18T09:10:01Z</time>
      </trkpt>
      <trkpt lat="37.1389130" lon="-2.0180010">
        <ele>214.1</ele>
        <time>2019-10-18T09:10:02Z</time>
      </trkpt>
      <trkpt lat="37.1389440" lon="-2.0180450">
        <ele>214.2</ele>
        <time>2019-10-18T09:10:03Z</time>
      </trkpt>
      <trkpt lat="37.1389720" lon="-2.0180920">
        <ele>214.4</ele>
        <time>2019-10-18T09:10:04Z</time>
      </trkpt>
      <trkpt lat="37.1389970" lon="-2.0181410">
        <ele>214.5</ele>
        <time>2019-10-18T09:10:05Z</time>
      </trkpt>
      <trkpt lat="37.1390210" lon="-2.0181910">
        <ele>214.6</ele>
        <time>2019-10-18T09:10:06Z</time>
      </trkpt>
      <trkpt lat="37.1390430" lon="-2.0182440">
        <ele>214.8</ele>
        <time>2019-10-18T09:10:07Z</time>
      </trkpt>
      <trkpt lat="37.1390640" lon="-2.0182970">
        <ele>214.9</ele>
        <time>2019-10-18T09:10:08Z</time>
      </trkpt>
      <trkpt lat="37.1390840" lon="-2.0183520">
        <ele>215.0</ele>
        <time>2019-10-18T09:10:09Z</time>
      </trkpt>
      <trkpt lat="37.1391020" lon="-2.0184080">
        <ele>215.2</ele>
        <time>2019-10-18T09:10:10Z</time>
      </trkpt>
      <trkpt lat="37.1391180" lon="-2.0184640">
        <ele>215.3</ele>
        <time>2019-10-18T09:10:11Z</time>
      </trkpt>
      <trkpt lat="37.1391300" lon="-2.0185190">
        <ele>215.4</ele>
        <time>2019-10-18T09:10:12Z</time>
      </trkpt>
      <trkpt lat="37.1391410" lon="-2.0185720">
        <ele>215.5</ele>
        <time>2019-10-18T09:10:13Z</time>
      </trkpt>
      <trkpt lat="37.1391480" lon="-2.0186270">
        <ele>215.6</ele>
        <time>2019-10-18T09:10:14Z</time>
      </trkpt>
      <trkpt lat="37.1391520" lon="-2.0186850">
        <ele>215.8</ele>
        <time>2019-10-18T09:10:15Z</time>
      </trkpt>
      <trkpt lat="37.1391550" lon="-2.0187460">
        <ele>215.9</ele>
        <time>2019-10-18T09:10:16Z</time>
      </trkpt>
      <trkpt lat="37.1391590" lon="-2.0188070">
        <ele>216.0</ele>
        <time>2019-10-18T09:10:17Z</time>
      </trkpt>
      <trkpt lat="37.1391630" lon="-2.0188690">
        <ele>216.1</ele>
        <time>2019-10-18T09:10:18Z</time>
      </trkpt>
      <trkpt lat="37.1391690" lon="-2.0189290">
        <ele>216.3</ele>
        <time>2019-10-18T09:10:19Z</time>
      </trkpt>
      <trkpt lat="37.1391740" lon="-2.0189900">
        <ele>216.4</ele>
        <time>2019-10-18T09:10:20Z</time>
      </trkpt>
      <trkpt lat="37.1391800" lon="-2.0190500">
        <ele>216.5</ele>
        <time>2019-10-18T09:10:21Z</time>
      </trkpt>
      <trkpt lat="37.1391860" lon="-2.0191090">
        <ele>216.6</ele>
        <time>2019-10-18T09:10:22Z</time>
      </trkpt>
      <trkpt lat="37.1391920" lon="-2.0191670">
        <ele>216.7</ele>
        <time>2019-10-18T09:10:23Z</time>
      </trkpt>
      <trkpt lat="37.1391980" lon="-2.0192230">
        <ele>216.8</ele>
        <time>2019-10-18T09:10:24Z</time>
      </trkpt>
      <trkpt lat="37.1392040" lon="-2.0192770">
        <ele>216.9</ele>
        <time>2019-10-18T09:10:25Z</time>
      </trkpt>
      <trkpt lat="37.1392090" lon="-2.0193290">
        <ele>217.1</ele>
        <time>2019-10-18T09:10:26Z</time>
      </trkpt>
      <trkpt lat="37.1392140" lon="-2.0193770">
        <ele>217.3</ele>
        <time>2019-10-18T09:10:27Z</time>
      </trkpt>
      <trkpt lat="37.1392190" lon="-2.0194210">
        <ele>217.4</ele>
        <time>2019-10-18T09:10:28Z</time>
      </trkpt>
      <trkpt lat="37.1392230" lon="-2.0194570">
        <ele>217.5</ele>
        <time>2019-10-18T09:10:29Z</time>
      </trkpt>
      <trkpt lat="37.1392270" lon="-2.0194790">
        <ele>217.6</ele>
        <time>2019-10-18T09:10:30Z</time>
      </trkpt>
      <trkpt lat="37.1392270" lon="-2.0194910">
        <ele>217.6</ele>
        <time>2019-10-18T09:10:31Z</time>
      </trkpt>
      <trkpt lat="37.1392270" lon="-2.0194940">
        <ele>217.6</ele>
        <time>2019-10-18T09:10:32Z</time>
      </trkpt>
      <trkpt lat="37.1392260" lon="-2.0194960">
        <ele>217.6</ele>
        <time>2019-10-18T09:10:33Z</time>
      </trkpt>
      <trkpt lat="37.1392250" lon="-2.0194970">
        <ele>217.6</ele>
        <time>2019-10-18T09:10:34Z</time>
      </trkpt>
      <trkpt lat="37.1392250" lon="-2.0194970">
        <ele>217.6</ele>
        <time>2019-10-18T09:10:35Z</time>
      </trkpt>
      <trkpt lat="37.1392250" lon="-2.0194980">
        <ele>217.7</ele>
        <time>2019-10-18T09:10:36Z</time>
      </trkpt>
      <trkpt lat="37.1392250" lon="-2.0194980">
        <ele>217.7</ele>
        <time>2019-10-18T09:10:37Z</time>
      </trkpt>
      <trkpt lat="37.1392240" lon="-2.0194990">
        <ele>217.7</ele>
        <time>2019-10-18T09:10:38Z</time>
      </trkpt>
      <trkpt lat="37.1392240" lon="-2.0195000">
        <ele>217.7</ele>
        <time>2019-10-18T09:10:39Z</time>
      </trkpt>
      <trkpt lat="37.1392240" lon="-2.0195000">
        <ele>217.7</ele>
        <time>2019-10-18T09:10:40Z</time>
      </trkpt>
      <trkpt lat="37.1392230" lon="-2.0195000">
        <ele>217.7</ele>
        <time>2019-10-18T09:10:41Z</time>
      </trkpt>
      <trkpt lat="37.1392230" lon="-2.0195000">
        <ele>217.7</ele>
        <time>2019-10-18T09:10:42Z</time>
      </trkpt>
      <trkpt lat="37.1392210" lon="-2.0195000">
        <ele>217.7</ele>
        <time>2019-10-18T09:10:43Z</time>
      </trkpt>
      <trkpt lat="37.1392200" lon="-2.0195000">
        <ele>217.7</ele>
        <time>2019-10-18T09:10:44Z</time>
      </trkpt>
      <trkpt lat="37.1392190" lon="-2.0195000">
        <ele>217.7</ele>
        <time>2019-10-18T09:10:45Z</time>
      </trkpt>
      <trkpt lat="37.1392180" lon="-2.0194990">
        <ele>217.7</ele>
        <time>2019-10-18T09:10:46Z</time>
      </trkpt>
      <trkpt lat="37.1392170" lon="-2.0194980">
        <ele>217.7</ele>
        <time>2019-10-18T09:10:47Z</time>
      </trkpt>
      <trkpt lat="37.1392160" lon="-2.0194970">
        <ele>217.7</ele>
        <time>2019-10-18T09:10:48Z</time>
      </trkpt>
      <trkpt lat="37.1392150" lon="-2.0194970">
        <ele>217.7</ele>
        <time>2019-10-18T09:10:49Z</time>
      </trkpt>
      <trkpt lat="37.1392140" lon="-2.0194960">
        <ele>217.7</ele>
        <time>2019-10-18T09:10:50Z</time>
      </trkpt>
      <trkpt lat="37.1392130" lon="-2.0194950">
        <ele>217.7</ele>
        <time>2019-10-18T09:10:51Z</time>
      </trkpt>
      <trkpt lat="37.1392110" lon="-2.0194950">
        <ele>217.7</ele>
        <time>2019-10-18T09:10:52Z</time>
      </trkpt>
      <trkpt lat="37.1392100" lon="-2.0194940">
        <ele>217.7</ele>
        <time>2019-10-18T09:10:53Z</time>
      </trkpt>
      <trkpt lat="37.1392090" lon="-2.0194930">
        <ele>217.7</ele>
        <time>2019-10-18T09:10:54Z</time>
      </trkpt>
      <trkpt lat="37.1392080" lon="-2.0194920">
        <ele>217.7</ele>
        <time>2019-10-18T09:10:55Z</time>
      </trkpt>
      <trkpt lat="37.1392070" lon="-2.0194910">
        <ele>217.7</ele>
        <time>2019-10-18T09:10:56Z</time>
      </trkpt>
      <trkpt lat="37.1392060" lon="-2.0194910">
        <ele>217.7</ele>
        <time>2019-10-18T09:10:57Z</time>
      </trkpt>
      <trkpt lat="37.1392060" lon="-2.0194910">
        <ele>217.7</ele>
        <time>2019-10-18T09:10:58Z</time>
      </trkpt>
      <trkpt lat="37.1392050" lon="-2.0194910">
        <ele>217.7</ele>
        <time>2019-10-18T09:10:59Z</time>
      </trkpt>
      <trkpt lat="37.1392040" lon="-2.0194910">
        <ele>217.8</ele>
        <time>2019-10-18T09:11:00Z</time>
      </trkpt>
      <trkpt lat="37.1392030" lon="-2.0194910">
        <ele>217.8</ele>
        <time>2019-10-18T09:11:01Z</time>
      </trkpt>
      <trkpt lat="37.1392020" lon="-2.0194910">
        <ele>217.8</ele>
        <time>2019-10-18T09:11:02Z</time>
      </trkpt>
      <trkpt lat="37.1392010" lon="-2.0194900">
        <ele>217.8</ele>
        <time>2019-10-18T09:11:03Z</time>
      </trkpt>
      <trkpt lat="37.1392000" lon="-2.0194900">
        <ele>217.8</ele>
        <time>2019-10-18T09:11:04Z</time>
      </trkpt>
      <trkpt lat="37.1391990" lon="-2.0194890">
        <ele>217.8</ele>
        <time>2019-10-18T09:11:05Z</time>
      </trkpt>
      <trkpt lat="37.1392000" lon="-2.0194890">
        <ele>217.8</ele>
        <time>2019-10-18T09:11:06Z</time>
      </trkpt>
      <trkpt lat="37.1392000" lon="-2.0194890">
        <ele>217.8</ele>
        <time>2019-10-18T09:11:07Z</time>
      </trkpt>
      <trkpt lat="37.1392010" lon="-2.0194890">
        <ele>217.8</ele>
        <time>2019-10-18T09:11:08Z</time>
      </trkpt>
      <trkpt lat="37.1392010" lon="-2.0194880">
        <ele>217.8</ele>
        <time>2019-10-18T09:11:09Z</time>
      </trkpt>
      <trkpt lat="37.1392020" lon="-2.0194890">
        <ele>217.8</ele>
        <time>2019-10-18T09:11:10Z</time>
      </trkpt>
      <trkpt lat="37.1392020" lon="-2.0194890">
        <ele>217.8</ele>
        <time>2019-10-18T09:11:11Z</time>
      </trkpt>
      <trkpt lat="37.1392030" lon="-2.0194900">
        <ele>217.8</ele>
        <time>2019-10-18T09:11:12Z</time>
      </trkpt>
      <trkpt lat="37.1392040" lon="-2.0194900">
        <ele>217.8</ele>
        <time>2019-10-18T09:11:13Z</time>
      </trkpt>
      <trkpt lat="37.1392040" lon="-2.0194900">
        <ele>217.8</ele>
        <time>2019-10-18T09:11:14Z</time>
      </trkpt>
      <trkpt lat="37.1392050" lon="-2.0194910">
        <ele>217.8</ele>
        <time>2019-10-18T09:11:15Z</time>
      </trkpt>
      <trkpt lat="37.1392050" lon="-2.0194910">
        <ele>217.8</ele>
        <time>2019-10-18T09:11:16Z</time>
      </trkpt>
      <trkpt lat="37.1392050" lon="-2.0194910">
        <ele>217.8</ele>
        <time>2019-10-18T09:11:17Z</time>
      </trkpt>
      <trkpt lat="37.1392040" lon="-2.0194910">
        <ele>217.8</ele>
        <time>2019-10-18T09:11:18Z</time>
      </trkpt>
      <trkpt lat="37.1392040" lon="-2.0194900">
        <ele>217.8</ele>
        <time>2019-10-18T09:11:19Z</time>
      </trkpt>
      <trkpt lat="37.1392030" lon="-2.0194890">
        <ele>217.8</ele>
        <time>2019-10-18T09:11:20Z</time>
      </trkpt>
      <trkpt lat="37.1392020" lon="-2.0194880">
        <ele>217.8</ele>
        <time>2019-10-18T09:11:21Z</time>
      </trkpt>
      <trkpt lat="37.1392020" lon="-2.0194870">
        <ele>217.8</ele>
        <time>2019-10-18T09:11:22Z</time>
      </trkpt>
      <trkpt lat="37.1392010" lon="-2.0194870">
        <ele>217.8</ele>
        <time>2019-10-18T09:11:23Z</time>
      </trkpt>
      <trkpt lat="37.1392020" lon="-2.0194870">
        <ele>217.8</ele>
        <time>2019-10-18T09:11:24Z</time>
      </trkpt>
      <trkpt lat="37.1392020" lon="-2.0194880">
        <ele>217.8</ele>
        <time>2019-10-18T09:11:25Z</time>
      </trkpt>
      <trkpt lat="37.1392020" lon="-2.0194890">
        <ele>217.8</ele>
        <time>2019-10-18T09:11:26Z</time>
      </trkpt>
      <trkpt lat="37.1392010" lon="-2.0194940">
        <ele>217.9</ele>
        <time>2019-10-18T09:11:27Z</time>
      </trkpt>
      <trkpt lat="37.1392010" lon="-2.0195050">
        <ele>217.9</ele>
        <time>2019-10-18T09:11:28Z</time>
      </trkpt>
      <trkpt lat="37.1392030" lon="-2.0195220">
        <ele>217.9</ele>
        <time>2019-10-18T09:11:29Z</time>
      </trkpt>
      <trkpt lat="37.1392090" lon="-2.0195430">
        <ele>218.0</ele>
        <time>2019-10-18T09:11:30Z</time>
      </trkpt>
      <trkpt lat="37.1392180" lon="-2.0195680">
        <ele>218.1</ele>
        <time>2019-10-18T09:11:31Z</time>
      </trkpt>
      <trkpt lat="37.1392270" lon="-2.0195950">
        <ele>218.3</ele>
        <time>2019-10-18T09:11:32Z</time>
      </trkpt>
      <trkpt lat="37.1392360" lon="-2.0196250">
        <ele>218.5</ele>
        <time>2019-10-18T09:11:33Z</time>
      </trkpt>
      <trkpt lat="37.1392450" lon="-2.0196560">
        <ele>218.7</ele>
        <time>2019-10-18T09:11:34Z</time>
      </trkpt>
      <trkpt lat="37.1392540" lon="-2.0196910">
        <ele>218.9</ele>
        <time>2019-10-18T09:11:35Z</time>
      </trkpt>
      <trkpt lat="37.1392630" lon="-2.0197290">
        <ele>219.3</ele>
        <time>2019-10-18T09:11:36Z</time>
      </trkpt>
      <trkpt lat="37.1392710" lon="-2.0197690">
        <ele>219.3</ele>
        <time>2019-10-18T09:11:37Z</time>
      </trkpt>
      <trkpt lat="37.1392790" lon="-2.0198070">
        <ele>219.4</ele>
        <time>2019-10-18T09:11:38Z</time>
      </trkpt>
      <trkpt lat="37.1392880" lon="-2.0198440">
        <ele>219.5</ele>
        <time>2019-10-18T09:11:39Z</time>
      </trkpt>
      <trkpt lat="37.1392980" lon="-2.0198810">
        <ele>219.5</ele>
        <time>2019-10-18T09:11:40Z</time>
      </trkpt>
      <trkpt lat="37.1393070" lon="-2.0199160">
        <ele>219.6</ele>
        <time>2019-10-18T09:11:41Z</time>
      </trkpt>
      <trkpt lat="37.1393160" lon="-2.0199520">
        <ele>219.6</ele>
        <time>2019-10-18T09:11:42Z</time>
      </trkpt>
      <trkpt lat="37.1393250" lon="-2.0199870">
        <ele>219.7</ele>
        <time>2019-10-18T09:11:43Z</time>
      </trkpt>
      <trkpt lat="37.1393340" lon="-2.0200220">
        <ele>219.7</ele>
        <time>2019-10-18T09:11:44Z</time>
      </trkpt>
      <trkpt lat="37.1393430" lon="-2.0200570">
        <ele>219.8</ele>
        <time>2019-10-18T09:11:45Z</time>
      </trkpt>
      <trkpt lat="37.1393520" lon="-2.0200940">
        <ele>219.9</ele>
        <time>2019-10-18T09:11:46Z</time>
      </trkpt>
      <trkpt lat="37.1393630" lon="-2.0201320">
        <ele>220.0</ele>
        <time>2019-10-18T09:11:47Z</time>
      </trkpt>
      <trkpt lat="37.1393730" lon="-2.0201690">
        <ele>220.0</ele>
        <time>2019-10-18T09:11:48Z</time>
      </trkpt>
      <trkpt lat="37.1393830" lon="-2.0202050">
        <ele>220.1</ele>
        <time>2019-10-18T09:11:49Z</time>
      </trkpt>
      <trkpt lat="37.1393930" lon="-2.0202420">
        <ele>220.2</ele>
        <time>2019-10-18T09:11:50Z</time>
      </trkpt>
      <trkpt lat="37.1394030" lon="-2.0202800">
        <ele>220.3</ele>
        <time>2019-10-18T09:11:51Z</time>
      </trkpt>
      <trkpt lat="37.1394130" lon="-2.0203180">
        <ele>220.4</ele>
        <time>2019-10-18T09:11:52Z</time>
      </trkpt>
      <trkpt lat="37.1394230" lon="-2.0203560">
        <ele>220.5</ele>
        <time>2019-10-18T09:11:53Z</time>
      </trkpt>
      <trkpt lat="37.1394340" lon="-2.0203930">
        <ele>220.6</ele>
        <time>2019-10-18T09:11:54Z</time>
      </trkpt>
      <trkpt lat="37.1394450" lon="-2.0204310">
        <ele>220.7</ele>
        <time>2019-10-18T09:11:55Z</time>
      </trkpt>
      <trkpt lat="37.1394550" lon="-2.0204690">
        <ele>220.8</ele>
        <time>2019-10-18T09:11:56Z</time>
      </trkpt>
      <trkpt lat="37.1394640" lon="-2.0205060">
        <ele>220.9</ele>
        <time>2019-10-18T09:11:57Z</time>
      </trkpt>
      <trkpt lat="37.1394730" lon="-2.0205430">
        <ele>221.0</ele>
        <time>2019-10-18T09:11:58Z</time>
      </trkpt>
      <trkpt lat="37.1394830" lon="-2.0205810">
        <ele>221.1</ele>
        <time>2019-10-18T09:11:59Z</time>
      </trkpt>
      <trkpt lat="37.1394940" lon="-2.0206180">
        <ele>221.2</ele>
        <time>2019-10-18T09:12:00Z</time>
      </trkpt>
      <trkpt lat="37.1395050" lon="-2.0206560">
        <ele>221.4</ele>
        <time>2019-10-18T09:12:01Z</time>
      </trkpt>
      <trkpt lat="37.1395140" lon="-2.0206940">
        <ele>221.5</ele>
        <time>2019-10-18T09:12:02Z</time>
      </trkpt>
      <trkpt lat="37.1395240" lon="-2.0207330">
        <ele>221.6</ele>
        <time>2019-10-18T09:12:03Z</time>
      </trkpt>
      <trkpt lat="37.1395340" lon="-2.0207710">
        <ele>221.8</ele>
        <time>2019-10-18T09:12:04Z</time>
      </trkpt>
      <trkpt lat="37.1395430" lon="-2.0208090">
        <ele>221.9</ele>
        <time>2019-10-18T09:12:05Z</time>
      </trkpt>
      <trkpt lat="37.1395520" lon="-2.0208490">
        <ele>222.0</ele>
        <time>2019-10-18T09:12:06Z</time>
      </trkpt>
      <trkpt lat="37.1395620" lon="-2.0208900">
        <ele>222.2</ele>
        <time>2019-10-18T09:12:07Z</time>
      </trkpt>
      <trkpt lat="37.1395710" lon="-2.0209290">
        <ele>222.3</ele>
        <time>2019-10-18T09:12:08Z</time>
      </trkpt>
      <trkpt lat="37.1395810" lon="-2.0209670">
        <ele>222.4</ele>
        <time>2019-10-18T09:12:09Z</time>
      </trkpt>
      <trkpt lat="37.1395900" lon="-2.0210050">
        <ele>222.6</ele>
        <time>2019-10-18T09:12:10Z</time>
      </trkpt>
      <trkpt lat="37.1395990" lon="-2.0210430">
        <ele>222.7</ele>
        <time>2019-10-18T09:12:11Z</time>
      </trkpt>
      <trkpt lat="37.1396100" lon="-2.0210820">
        <ele>222.8</ele>
        <time>2019-10-18T09:12:12Z</time>
      </trkpt>
      <trkpt lat="37.1396190" lon="-2.0211200">
        <ele>223.0</ele>
        <time>2019-10-18T09:12:13Z</time>
      </trkpt>
      <trkpt lat="37.1396290" lon="-2.0211580">
        <ele>223.1</ele>
        <time>2019-10-18T09:12:14Z</time>
      </trkpt>
      <trkpt lat="37.1396370" lon="-2.0211960">
        <ele>223.3</ele>
        <time>2019-10-18T09:12:15Z</time>
      </trkpt>
      <trkpt lat="37.1396460" lon="-2.0212330">
        <ele>223.4</ele>
        <time>2019-10-18T09:12:16Z</time>
      </trkpt>
      <trkpt lat="37.1396520" lon="-2.0212710">
        <ele>223.6</ele>
        <time>2019-10-18T09:12:17Z</time>
      </trkpt>
      <trkpt lat="37.1396570" lon="-2.0213090">
        <ele>223.7</ele>
        <time>2019-10-18T09:12:18Z</time>
      </trkpt>
      <trkpt lat="37.1396610" lon="-2.0213460">
        <ele>223.9</ele>
        <time>2019-10-18T09:12:19Z</time>
      </trkpt>
      <trkpt lat="37.1396640" lon="-2.0213830">
        <ele>224.1</ele>
        <time>2019-10-18T09:12:20Z</time>
      </trkpt>
      <trkpt lat="37.1396650" lon="-2.0214200">
        <ele>224.2</ele>
        <time>2019-10-18T09:12:21Z</time>
      </trkpt>
      <trkpt lat="37.1396660" lon="-2.0214570">
        <ele>224.4</ele>
        <time>2019-10-18T09:12:22Z</time>
      </trkpt>
      <trkpt lat="37.1396670" lon="-2.0214940">
        <ele>224.6</ele>
        <time>2019-10-18T09:12:23Z</time>
      </trkpt>
      <trkpt lat="37.1396690" lon="-2.0215310">
        <ele>224.8</ele>
        <time>2019-10-18T09:12:24Z</time>
      </trkpt>
      <trkpt lat="37.1396710" lon="-2.0215670">
        <ele>225.0</ele>
        <time>2019-10-18T09:12:25Z</time>
      </trkpt>
      <trkpt lat="37.1396720" lon="-2.0216040">
        <ele>225.2</ele>
        <time>2019-10-18T09:12:26Z</time>
      </trkpt>
      <trkpt lat="37.1396720" lon="-2.0216410">
        <ele>225.4</ele>
        <time>2019-10-18T09:12:27Z</time>
      </trkpt>
      <trkpt lat="37.1396720" lon="-2.0216780">
        <ele>225.6</ele>
        <time>2019-10-18T09:12:28Z</time>
      </trkpt>
      <trkpt lat="37.1396730" lon="-2.0217150">
        <ele>225.8</ele>
        <time>2019-10-18T09:12:29Z</time>
      </trkpt>
      <trkpt lat="37.1396750" lon="-2.0217520">
        <ele>226.0</ele>
        <time>2019-10-18T09:12:30Z</time>
      </trkpt>
      <trkpt lat="37.1396750" lon="-2.0217520">
        <ele>226.0</ele>
        <time>2019-10-18T09:12:31Z</time>
      </trkpt>
      <trkpt lat="37.1396760" lon="-2.0218260">
        <ele>226.3</ele>
        <time>2019-10-18T09:12:32Z</time>
      </trkpt>
      <trkpt lat="37.1396760" lon="-2.0218630">
        <ele>226.5</ele>
        <time>2019-10-18T09:12:33Z</time>
      </trkpt>
      <trkpt lat="37.1396740" lon="-2.0218990">
        <ele>226.7</ele>
        <time>2019-10-18T09:12:34Z</time>
      </trkpt>
      <trkpt lat="37.1396710" lon="-2.0219360">
        <ele>226.9</ele>
        <time>2019-10-18T09:12:35Z</time>
      </trkpt>
      <trkpt lat="37.1396670" lon="-2.0219740">
        <ele>227.0</ele>
        <time>2019-10-18T09:12:36Z</time>
      </trkpt>
      <trkpt lat="37.1396630" lon="-2.0220130">
        <ele>227.2</ele>
        <time>2019-10-18T09:12:37Z</time>
      </trkpt>
      <trkpt lat="37.1396590" lon="-2.0220520">
        <ele>227.4</ele>
        <time>2019-10-18T09:12:38Z</time>
      </trkpt>
      <trkpt lat="37.1396530" lon="-2.0220920">
        <ele>227.6</ele>
        <time>2019-10-18T09:12:39Z</time>
      </trkpt>
      <trkpt lat="37.1396460" lon="-2.0221320">
        <ele>227.8</ele>
        <time>2019-10-18T09:12:40Z</time>
      </trkpt>
      <trkpt lat="37.1396390" lon="-2.0221720">
        <ele>227.9</ele>
        <time>2019-10-18T09:12:41Z</time>
      </trkpt>
      <trkpt lat="37.1396330" lon="-2.0222120">
        <ele>228.1</ele>
        <time>2019-10-18T09:12:42Z</time>
      </trkpt>
      <trkpt lat="37.1396260" lon="-2.0222510">
        <ele>228.3</ele>
        <time>2019-10-18T09:12:43Z</time>
      </trkpt>
      <trkpt lat="37.1396200" lon="-2.0222900">
        <ele>228.5</ele>
        <time>2019-10-18T09:12:44Z</time>
      </trkpt>
      <trkpt lat="37.1396150" lon="-2.0223290">
        <ele>228.7</ele>
        <time>2019-10-18T09:12:45Z</time>
      </trkpt>
      <trkpt lat="37.1396100" lon="-2.0223670">
        <ele>228.9</ele>
        <time>2019-10-18T09:12:46Z</time>
      </trkpt>
      <trkpt lat="37.1396060" lon="-2.0224050">
        <ele>229.0</ele>
        <time>2019-10-18T09:12:47Z</time>
      </trkpt>
      <trkpt lat="37.1396010" lon="-2.0224440">
        <ele>229.2</ele>
        <time>2019-10-18T09:12:48Z</time>
      </trkpt>
      <trkpt lat="37.1395940" lon="-2.0224840">
        <ele>229.4</ele>
        <time>2019-10-18T09:12:49Z</time>
      </trkpt>
      <trkpt lat="37.1395870" lon="-2.0225250">
        <ele>229.6</ele>
        <time>2019-10-18T09:12:50Z</time>
      </trkpt>
      <trkpt lat="37.1395790" lon="-2.0225630">
        <ele>229.8</ele>
        <time>2019-10-18T09:12:51Z</time>
      </trkpt>
      <trkpt lat="37.1395720" lon="-2.0226020">
        <ele>230.0</ele>
        <time>2019-10-18T09:12:52Z</time>
      </trkpt>
      <trkpt lat="37.1395640" lon="-2.0226420">
        <ele>230.3</ele>
        <time>2019-10-18T09:12:53Z</time>
      </trkpt>
      <trkpt lat="37.1395570" lon="-2.0226810">
        <ele>230.5</ele>
        <time>2019-10-18T09:12:54Z</time>
      </trkpt>
      <trkpt lat="37.1395490" lon="-2.0227210">
        <ele>230.7</ele>
        <time>2019-10-18T09:12:55Z</time>
      </trkpt>
      <trkpt lat="37.1395420" lon="-2.0227600">
        <ele>230.9</ele>
        <time>2019-10-18T09:12:56Z</time>
      </trkpt>
      <trkpt lat="37.1395350" lon="-2.0227990">
        <ele>231.1</ele>
        <time>2019-10-18T09:12:57Z</time>
      </trkpt>
      <trkpt lat="37.1395280" lon="-2.0228380">
        <ele>231.3</ele>
        <time>2019-10-18T09:12:58Z</time>
      </trkpt>
      <trkpt lat="37.1395220" lon="-2.0228760">
        <ele>231.5</ele>
        <time>2019-10-18T09:12:59Z</time>
      </trkpt>
      <trkpt lat="37.1395140" lon="-2.0229140">
        <ele>231.7</ele>
        <time>2019-10-18T09:13:00Z</time>
      </trkpt>
      <trkpt lat="37.1395060" lon="-2.0229510">
        <ele>231.9</ele>
        <time>2019-10-18T09:13:01Z</time>
      </trkpt>
      <trkpt lat="37.1394980" lon="-2.0229900">
        <ele>232.1</ele>
        <time>2019-10-18T09:13:02Z</time>
      </trkpt>
      <trkpt lat="37.1394910" lon="-2.0230280">
        <ele>232.3</ele>
        <time>2019-10-18T09:13:03Z</time>
      </trkpt>
      <trkpt lat="37.1394850" lon="-2.0230650">
        <ele>232.5</ele>
        <time>2019-10-18T09:13:04Z</time>
      </trkpt>
      <trkpt lat="37.1394790" lon="-2.0231020">
        <ele>232.7</ele>
        <time>2019-10-18T09:13:05Z</time>
      </trkpt>
      <trkpt lat="37.1394720" lon="-2.0231370">
        <ele>232.9</ele>
        <time>2019-10-18T09:13:06Z</time>
      </trkpt>
      <trkpt lat="37.1394650" lon="-2.0231730">
        <ele>233.1</ele>
        <time>2019-10-18T09:13:07Z</time>
      </trkpt>
      <trkpt lat="37.1394580" lon="-2.0232100">
        <ele>233.3</ele>
        <time>2019-10-18T09:13:08Z</time>
      </trkpt>
      <trkpt lat="37.1394510" lon="-2.0232470">
        <ele>233.5</ele>
        <time>2019-10-18T09:13:09Z</time>
      </trkpt>
      <trkpt lat="37.1394450" lon="-2.0232860">
        <ele>233.7</ele>
        <time>2019-10-18T09:13:10Z</time>
      </trkpt>
      <trkpt lat="37.1394390" lon="-2.0233250">
        <ele>233.9</ele>
        <time>2019-10-18T09:13:11Z</time>
      </trkpt>
      <trkpt lat="37.1394330" lon="-2.0233640">
        <ele>234.1</ele>
        <time>2019-10-18T09:13:12Z</time>
      </trkpt>
      <trkpt lat="37.1394280" lon="-2.0234030">
        <ele>234.3</ele>
        <time>2019-10-18T09:13:13Z</time>
      </trkpt>
      <trkpt lat="37.1394240" lon="-2.0234410">
        <ele>234.5</ele>
        <time>2019-10-18T09:13:14Z</time>
      </trkpt>
      <trkpt lat="37.1394200" lon="-2.0234790">
        <ele>234.6</ele>
        <time>2019-10-18T09:13:15Z</time>
      </trkpt>
      <trkpt lat="37.1394160" lon="-2.0235160">
        <ele>234.8</ele>
        <time>2019-10-18T09:13:16Z</time>
      </trkpt>
      <trkpt lat="37.1394110" lon="-2.0235530">
        <ele>235.0</ele>
        <time>2019-10-18T09:13:17Z</time>
      </trkpt>
      <trkpt lat="37.1394060" lon="-2.0235910">
        <ele>235.2</ele>
        <time>2019-10-18T09:13:18Z</time>
      </trkpt>
      <trkpt lat="37.1394010" lon="-2.0236290">
        <ele>235.3</ele>
        <time>2019-10-18T09:13:19Z</time>
      </trkpt>
      <trkpt lat="37.1393980" lon="-2.0236670">
        <ele>235.5</ele>
        <time>2019-10-18T09:13:20Z</time>
      </trkpt>
      <trkpt lat="37.1393960" lon="-2.0237060">
        <ele>235.6</ele>
        <time>2019-10-18T09:13:21Z</time>
      </trkpt>
      <trkpt lat="37.1393940" lon="-2.0237440">
        <ele>235.8</ele>
        <time>2019-10-18T09:13:22Z</time>
      </trkpt>
      <trkpt lat="37.1393910" lon="-2.0237830">
        <ele>235.9</ele>
        <time>2019-10-18T09:13:23Z</time>
      </trkpt>
      <trkpt lat="37.1393900" lon="-2.0238210">
        <ele>236.1</ele>
        <time>2019-10-18T09:13:24Z</time>
      </trkpt>
      <trkpt lat="37.1393890" lon="-2.0238610">
        <ele>236.2</ele>
        <time>2019-10-18T09:13:25Z</time>
      </trkpt>
      <trkpt lat="37.1393880" lon="-2.0239010">
        <ele>236.3</ele>
        <time>2019-10-18T09:13:26Z</time>
      </trkpt>
      <trkpt lat="37.1393880" lon="-2.0239410">
        <ele>236.5</ele>
        <time>2019-10-18T09:13:27Z</time>
      </trkpt>
      <trkpt lat="37.1393880" lon="-2.0239810">
        <ele>236.6</ele>
        <time>2019-10-18T09:13:28Z</time>
      </trkpt>
      <trkpt lat="37.1393890" lon="-2.0240210">
        <ele>236.7</ele>
        <time>2019-10-18T09:13:29Z</time>
      </trkpt>
      <trkpt lat="37.1393900" lon="-2.0240610">
        <ele>236.9</ele>
        <time>2019-10-18T09:13:30Z</time>
      </trkpt>
      <trkpt lat="37.1393910" lon="-2.0241000">
        <ele>237.0</ele>
        <time>2019-10-18T09:13:31Z</time>
      </trkpt>
      <trkpt lat="37.1393920" lon="-2.0241400">
        <ele>237.1</ele>
        <time>2019-10-18T09:13:32Z</time>
      </trkpt>
      <trkpt lat="37.1393940" lon="-2.0241790">
        <ele>237.3</ele>
        <time>2019-10-18T09:13:33Z</time>
      </trkpt>
      <trkpt lat="37.1393960" lon="-2.0242190">
        <ele>237.4</ele>
        <time>2019-10-18T09:13:34Z</time>
      </trkpt>
      <trkpt lat="37.1393980" lon="-2.0242580">
        <ele>237.5</ele>
        <time>2019-10-18T09:13:35Z</time>
      </trkpt>
      <trkpt lat="37.1394010" lon="-2.0242970">
        <ele>237.7</ele>
        <time>2019-10-18T09:13:36Z</time>
      </trkpt>
      <trkpt lat="37.1394050" lon="-2.0243360">
        <ele>237.8</ele>
        <time>2019-10-18T09:13:37Z</time>
      </trkpt>
      <trkpt lat="37.1394090" lon="-2.0243740">
        <ele>238.0</ele>
        <time>2019-10-18T09:13:38Z</time>
      </trkpt>
      <trkpt lat="37.1394130" lon="-2.0244120">
        <ele>238.1</ele>
        <time>2019-10-18T09:13:39Z</time>
      </trkpt>
      <trkpt lat="37.1394180" lon="-2.0244500">
        <ele>238.3</ele>
        <time>2019-10-18T09:13:40Z</time>
      </trkpt>
      <trkpt lat="37.1394240" lon="-2.0244870">
        <ele>238.5</ele>
        <time>2019-10-18T09:13:41Z</time>
      </trkpt>
      <trkpt lat="37.1394290" lon="-2.0245260">
        <ele>238.6</ele>
        <time>2019-10-18T09:13:42Z</time>
      </trkpt>
      <trkpt lat="37.1394350" lon="-2.0245640">
        <ele>238.8</ele>
        <time>2019-10-18T09:13:43Z</time>
      </trkpt>
      <trkpt lat="37.1394420" lon="-2.0246030">
        <ele>239.0</ele>
        <time>2019-10-18T09:13:44Z</time>
      </trkpt>
      <trkpt lat="37.1394480" lon="-2.0246420">
        <ele>239.2</ele>
        <time>2019-10-18T09:13:45Z</time>
      </trkpt>
      <trkpt lat="37.1394550" lon="-2.0246810">
        <ele>239.3</ele>
        <time>2019-10-18T09:13:46Z</time>
      </trkpt>
      <trkpt lat="37.1394630" lon="-2.0247190">
        <ele>239.5</ele>
        <time>2019-10-18T09:13:47Z</time>
      </trkpt>
      <trkpt lat="37.1394710" lon="-2.0247560">
        <ele>239.7</ele>
        <time>2019-10-18T09:13:48Z</time>
      </trkpt>
      <trkpt lat="37.1394800" lon="-2.0247930">
        <ele>239.9</ele>
        <time>2019-10-18T09:13:49Z</time>
      </trkpt>
      <trkpt lat="37.1394900" lon="-2.0248280">
        <ele>240.1</ele>
        <time>2019-10-18T09:13:50Z</time>
      </trkpt>
      <trkpt lat="37.1395000" lon="-2.0248630">
        <ele>240.2</ele>
        <time>2019-10-18T09:13:51Z</time>
      </trkpt>
      <trkpt lat="37.1395100" lon="-2.0248970">
        <ele>240.4</ele>
        <time>2019-10-18T09:13:52Z</time>
      </trkpt>
      <trkpt lat="37.1395210" lon="-2.0249310">
        <ele>240.6</ele>
        <time>2019-10-18T09:13:53Z</time>
      </trkpt>
      <trkpt lat="37.1395330" lon="-2.0249650">
        <ele>240.8</ele>
        <time>2019-10-18T09:13:54Z</time>
      </trkpt>
      <trkpt lat="37.1395460" lon="-2.0249990">
        <ele>240.9</ele>
        <time>2019-10-18T09:13:55Z</time>
      </trkpt>
      <trkpt lat="37.1395580" lon="-2.0250320">
        <ele>241.1</ele>
        <time>2019-10-18T09:13:56Z</time>
      </trkpt>
      <trkpt lat="37.1395710" lon="-2.0250670">
        <ele>241.3</ele>
        <time>2019-10-18T09:13:57Z</time>
      </trkpt>
      <trkpt lat="37.1395850" lon="-2.0251010">
        <ele>241.4</ele>
        <time>2019-10-18T09:13:58Z</time>
      </trkpt>
      <trkpt lat="37.1395990" lon="-2.0251350">
        <ele>241.6</ele>
        <time>2019-10-18T09:13:59Z</time>
      </trkpt>
      <trkpt lat="37.1396130" lon="-2.0251690">
        <ele>241.7</ele>
        <time>2019-10-18T09:14:00Z</time>
      </trkpt>
      <trkpt lat="37.1396270" lon="-2.0252030">
        <ele>241.9</ele>
        <time>2019-10-18T09:14:01Z</time>
      </trkpt>
      <trkpt lat="37.1396410" lon="-2.0252380">
        <ele>242.0</ele>
        <time>2019-10-18T09:14:02Z</time>
      </trkpt>
      <trkpt lat="37.1396560" lon="-2.0252740">
        <ele>242.2</ele>
        <time>2019-10-18T09:14:03Z</time>
      </trkpt>
      <trkpt lat="37.1396700" lon="-2.0253090">
        <ele>242.4</ele>
        <time>2019-10-18T09:14:04Z</time>
      </trkpt>
      <trkpt lat="37.1396850" lon="-2.0253440">
        <ele>242.5</ele>
        <time>2019-10-18T09:14:05Z</time>
      </trkpt>
      <trkpt lat="37.1396990" lon="-2.0253790">
        <ele>242.7</ele>
        <time>2019-10-18T09:14:06Z</time>
      </trkpt>
      <trkpt lat="37.1397140" lon="-2.0254140">
        <ele>242.9</ele>
        <time>2019-10-18T09:14:07Z</time>
      </trkpt>
      <trkpt lat="37.1397280" lon="-2.0254490">
        <ele>243.0</ele>
        <time>2019-10-18T09:14:08Z</time>
      </trkpt>
      <trkpt lat="37.1397420" lon="-2.0254840">
        <ele>243.2</ele>
        <time>2019-10-18T09:14:09Z</time>
      </trkpt>
      <trkpt lat="37.1397570" lon="-2.0255190">
        <ele>243.4</ele>
        <time>2019-10-18T09:14:10Z</time>
      </trkpt>
      <trkpt lat="37.1397720" lon="-2.0255530">
        <ele>243.5</ele>
        <time>2019-10-18T09:14:11Z</time>
      </trkpt>
      <trkpt lat="37.1397880" lon="-2.0255870">
        <ele>243.7</ele>
        <time>2019-10-18T09:14:12Z</time>
      </trkpt>
      <trkpt lat="37.1398040" lon="-2.0256210">
        <ele>243.9</ele>
        <time>2019-10-18T09:14:13Z</time>
      </trkpt>
      <trkpt lat="37.1398190" lon="-2.0256560">
        <ele>244.1</ele>
        <time>2019-10-18T09:14:14Z</time>
      </trkpt>
      <trkpt lat="37.1398350" lon="-2.0256910">
        <ele>244.3</ele>
        <time>2019-10-18T09:14:15Z</time>
      </trkpt>
      <trkpt lat="37.1398510" lon="-2.0257270">
        <ele>244.5</ele>
        <time>2019-10-18T09:14:16Z</time>
      </trkpt>
      <trkpt lat="37.1398660" lon="-2.0257620">
        <ele>244.7</ele>
        <time>2019-10-18T09:14:17Z</time>
      </trkpt>
      <trkpt lat="37.1398810" lon="-2.0257980">
        <ele>244.9</ele>
        <time>2019-10-18T09:14:18Z</time>
      </trkpt>
      <trkpt lat="37.1398960" lon="-2.0258340">
        <ele>245.1</ele>
        <time>2019-10-18T09:14:19Z</time>
      </trkpt>
      <trkpt lat="37.1399120" lon="-2.0258690">
        <ele>245.4</ele>
        <time>2019-10-18T09:14:20Z</time>
      </trkpt>
      <trkpt lat="37.1399280" lon="-2.0259040">
        <ele>245.6</ele>
        <time>2019-10-18T09:14:21Z</time>
      </trkpt>
      <trkpt lat="37.1399440" lon="-2.0259390">
        <ele>245.8</ele>
        <time>2019-10-18T09:14:22Z</time>
      </trkpt>
      <trkpt lat="37.1399580" lon="-2.0259750">
        <ele>246.0</ele>
        <time>2019-10-18T09:14:23Z</time>
      </trkpt>
      <trkpt lat="37.1399720" lon="-2.0260110">
        <ele>246.3</ele>
        <time>2019-10-18T09:14:24Z</time>
      </trkpt>
      <trkpt lat="37.1399870" lon="-2.0260470">
        <ele>246.5</ele>
        <time>2019-10-18T09:14:25Z</time>
      </trkpt>
      <trkpt lat="37.1400020" lon="-2.0260820">
        <ele>246.8</ele>
        <time>2019-10-18T09:14:26Z</time>
      </trkpt>
      <trkpt lat="37.1400170" lon="-2.0261170">
        <ele>247.0</ele>
        <time>2019-10-18T09:14:27Z</time>
      </trkpt>
      <trkpt lat="37.1400320" lon="-2.0261520">
        <ele>247.3</ele>
        <time>2019-10-18T09:14:28Z</time>
      </trkpt>
      <trkpt lat="37.1400460" lon="-2.0261880">
        <ele>247.5</ele>
        <time>2019-10-18T09:14:29Z</time>
      </trkpt>
      <trkpt lat="37.1400600" lon="-2.0262240">
        <ele>247.8</ele>
        <time>2019-10-18T09:14:30Z</time>
      </trkpt>
      <trkpt lat="37.1400730" lon="-2.0262610">
        <ele>248.1</ele>
        <time>2019-10-18T09:14:31Z</time>
      </trkpt>
      <trkpt lat="37.1400870" lon="-2.0262980">
        <ele>248.3</ele>
        <time>2019-10-18T09:14:32Z</time>
      </trkpt>
      <trkpt lat="37.1401010" lon="-2.0263340">
        <ele>248.6</ele>
        <time>2019-10-18T09:14:33Z</time>
      </trkpt>
      <trkpt lat="37.1401150" lon="-2.0263710">
        <ele>248.8</ele>
        <time>2019-10-18T09:14:34Z</time>
      </trkpt>
      <trkpt lat="37.1401280" lon="-2.0264070">
        <ele>249.1</ele>
        <time>2019-10-18T09:14:35Z</time>
      </trkpt>
      <trkpt lat="37.1401400" lon="-2.0264440">
        <ele>249.3</ele>
        <time>2019-10-18T09:14:36Z</time>
      </trkpt>
      <trkpt lat="37.1401530" lon="-2.0264810">
        <ele>249.5</ele>
        <time>2019-10-18T09:14:37Z</time>
      </trkpt>
      <trkpt lat="37.1401660" lon="-2.0265180">
        <ele>249.8</ele>
        <time>2019-10-18T09:14:38Z</time>
      </trkpt>
      <trkpt lat="37.1401780" lon="-2.0265550">
        <ele>250.0</ele>
        <time>2019-10-18T09:14:39Z</time>
      </trkpt>
      <trkpt lat="37.1401890" lon="-2.0265930">
        <ele>250.2</ele>
        <time>2019-10-18T09:14:40Z</time>
      </trkpt>
      <trkpt lat="37.1402000" lon="-2.0266310">
        <ele>250.4</ele>
        <time>2019-10-18T09:14:41Z</time>
      </trkpt>
      <trkpt lat="37.1402110" lon="-2.0266690">
        <ele>250.6</ele>
        <time>2019-10-18T09:14:42Z</time>
      </trkpt>
      <trkpt lat="37.1402220" lon="-2.0267080">
        <ele>250.8</ele>
        <time>2019-10-18T09:14:43Z</time>
      </trkpt>
      <trkpt lat="37.1402330" lon="-2.0267470">
        <ele>251.0</ele>
        <time>2019-10-18T09:14:44Z</time>
      </trkpt>
      <trkpt lat="37.1402420" lon="-2.0267860">
        <ele>251.1</ele>
        <time>2019-10-18T09:14:45Z</time>
      </trkpt>
      <trkpt lat="37.1402510" lon="-2.0268260">
        <ele>251.3</ele>
        <time>2019-10-18T09:14:46Z</time>
      </trkpt>
      <trkpt lat="37.1402590" lon="-2.0268660">
        <ele>251.5</ele>
        <time>2019-10-18T09:14:47Z</time>
      </trkpt>
      <trkpt lat="37.1402660" lon="-2.0269070">
        <ele>251.7</ele>
        <time>2019-10-18T09:14:48Z</time>
      </trkpt>
      <trkpt lat="37.1402730" lon="-2.0269480">
        <ele>251.8</ele>
        <time>2019-10-18T09:14:49Z</time>
      </trkpt>
      <trkpt lat="37.1402800" lon="-2.0269890">
        <ele>252.0</ele>
        <time>2019-10-18T09:14:50Z</time>
      </trkpt>
      <trkpt lat="37.1402870" lon="-2.0270300">
        <ele>252.2</ele>
        <time>2019-10-18T09:14:51Z</time>
      </trkpt>
      <trkpt lat="37.1402940" lon="-2.0270710">
        <ele>252.4</ele>
        <time>2019-10-18T09:14:52Z</time>
      </trkpt>
      <trkpt lat="37.1403000" lon="-2.0271120">
        <ele>252.5</ele>
        <time>2019-10-18T09:14:53Z</time>
      </trkpt>
      <trkpt lat="37.1403050" lon="-2.0271530">
        <ele>252.7</ele>
        <time>2019-10-18T09:14:54Z</time>
      </trkpt>
      <trkpt lat="37.1403100" lon="-2.0271940">
        <ele>252.9</ele>
        <time>2019-10-18T09:14:55Z</time>
      </trkpt>
      <trkpt lat="37.1403140" lon="-2.0272350">
        <ele>253.1</ele>
        <time>2019-10-18T09:14:56Z</time>
      </trkpt>
      <trkpt lat="37.1403180" lon="-2.0272770">
        <ele>253.2</ele>
        <time>2019-10-18T09:14:57Z</time>
      </trkpt>
      <trkpt lat="37.1403220" lon="-2.0273180">
        <ele>253.4</ele>
        <time>2019-10-18T09:14:58Z</time>
      </trkpt>
      <trkpt lat="37.1403250" lon="-2.0273590">
        <ele>253.6</ele>
        <time>2019-10-18T09:14:59Z</time>
      </trkpt>
      <trkpt lat="37.1403280" lon="-2.0273990">
        <ele>253.8</ele>
        <time>2019-10-18T09:15:00Z</time>
      </trkpt>
      <trkpt lat="37.1403300" lon="-2.0274400">
        <ele>253.9</ele>
        <time>2019-10-18T09:15:01Z</time>
      </trkpt>
      <trkpt lat="37.1403310" lon="-2.0274800">
        <ele>254.1</ele>
        <time>2019-10-18T09:15:02Z</time>
      </trkpt>
      <trkpt lat="37.1403320" lon="-2.0275210">
        <ele>254.3</ele>
        <time>2019-10-18T09:15:03Z</time>
      </trkpt>
      <trkpt lat="37.1403320" lon="-2.0275610">
        <ele>254.5</ele>
        <time>2019-10-18T09:15:04Z</time>
      </trkpt>
      <trkpt lat="37.1403330" lon="-2.0276020">
        <ele>254.7</ele>
        <time>2019-10-18T09:15:05Z</time>
      </trkpt>
      <trkpt lat="37.1403330" lon="-2.0276420">
        <ele>254.9</ele>
        <time>2019-10-18T09:15:06Z</time>
      </trkpt>
      <trkpt lat="37.1403330" lon="-2.0276830">
        <ele>255.1</ele>
        <time>2019-10-18T09:15:07Z</time>
      </trkpt>
      <trkpt lat="37.1403320" lon="-2.0277250">
        <ele>255.3</ele>
        <time>2019-10-18T09:15:08Z</time>
      </trkpt>
      <trkpt lat="37.1403310" lon="-2.0277660">
        <ele>255.5</ele>
        <time>2019-10-18T09:15:09Z</time>
      </trkpt>
      <trkpt lat="37.1403290" lon="-2.0278080">
        <ele>255.8</ele>
        <time>2019-10-18T09:15:10Z</time>
      </trkpt>
      <trkpt lat="37.1403250" lon="-2.0278480">
        <ele>256.0</ele>
        <time>2019-10-18T09:15:11Z</time>
      </trkpt>
      <trkpt lat="37.1403220" lon="-2.0278890">
        <ele>256.2</ele>
        <time>2019-10-18T09:15:12Z</time>
      </trkpt>
      <trkpt lat="37.1403190" lon="-2.0279300">
        <ele>256.5</ele>
        <time>2019-10-18T09:15:13Z</time>
      </trkpt>
      <trkpt lat="37.1403150" lon="-2.0279710">
        <ele>256.7</ele>
        <time>2019-10-18T09:15:14Z</time>
      </trkpt>
      <trkpt lat="37.1403100" lon="-2.0280120">
        <ele>256.9</ele>
        <time>2019-10-18T09:15:15Z</time>
      </trkpt>
      <trkpt lat="37.1403050" lon="-2.0280530">
        <ele>257.2</ele>
        <time>2019-10-18T09:15:16Z</time>
      </trkpt>
      <trkpt lat="37.1402990" lon="-2.0280920">
        <ele>257.4</ele>
        <time>2019-10-18T09:15:17Z</time>
      </trkpt>
      <trkpt lat="37.1402920" lon="-2.0281320">
        <ele>257.6</ele>
        <time>2019-10-18T09:15:18Z</time>
      </trkpt>
      <trkpt lat="37.1402840" lon="-2.0281730">
        <ele>257.9</ele>
        <time>2019-10-18T09:15:19Z</time>
      </trkpt>
      <trkpt lat="37.1402770" lon="-2.0282140">
        <ele>258.1</ele>
        <time>2019-10-18T09:15:20Z</time>
      </trkpt>
      <trkpt lat="37.1402690" lon="-2.0282540">
        <ele>258.3</ele>
        <time>2019-10-18T09:15:21Z</time>
      </trkpt>
      <trkpt lat="37.1402610" lon="-2.0282940">
        <ele>258.5</ele>
        <time>2019-10-18T09:15:22Z</time>
      </trkpt>
      <trkpt lat="37.1402530" lon="-2.0283330">
        <ele>258.7</ele>
        <time>2019-10-18T09:15:23Z</time>
      </trkpt>
      <trkpt lat="37.1402450" lon="-2.0283710">
        <ele>258.9</ele>
        <time>2019-10-18T09:15:24Z</time>
      </trkpt>
      <trkpt lat="37.1402360" lon="-2.0284100">
        <ele>259.1</ele>
        <time>2019-10-18T09:15:25Z</time>
      </trkpt>
      <trkpt lat="37.1402270" lon="-2.0284490">
        <ele>259.3</ele>
        <time>2019-10-18T09:15:26Z</time>
      </trkpt>
      <trkpt lat="37.1402170" lon="-2.0284890">
        <ele>259.5</ele>
        <time>2019-10-18T09:15:27Z</time>
      </trkpt>
      <trkpt lat="37.1402080" lon="-2.0285270">
        <ele>259.7</ele>
        <time>2019-10-18T09:15:28Z</time>
      </trkpt>
      <trkpt lat="37.1402000" lon="-2.0285650">
        <ele>259.8</ele>
        <time>2019-10-18T09:15:29Z</time>
      </trkpt>
      <trkpt lat="37.1401910" lon="-2.0286030">
        <ele>260.0</ele>
        <time>2019-10-18T09:15:30Z</time>
      </trkpt>
      <trkpt lat="37.1401810" lon="-2.0286410">
        <ele>260.2</ele>
        <time>2019-10-18T09:15:31Z</time>
      </trkpt>
      <trkpt lat="37.1401720" lon="-2.0286790">
        <ele>260.4</ele>
        <time>2019-10-18T09:15:32Z</time>
      </trkpt>
      <trkpt lat="37.1401630" lon="-2.0287180">
        <ele>260.6</ele>
        <time>2019-10-18T09:15:33Z</time>
      </trkpt>
      <trkpt lat="37.1401540" lon="-2.0287550">
        <ele>260.8</ele>
        <time>2019-10-18T09:15:34Z</time>
      </trkpt>
      <trkpt lat="37.1401460" lon="-2.0287920">
        <ele>261.0</ele>
        <time>2019-10-18T09:15:35Z</time>
      </trkpt>
      <trkpt lat="37.1401370" lon="-2.0288280">
        <ele>261.2</ele>
        <time>2019-10-18T09:15:36Z</time>
      </trkpt>
      <trkpt lat="37.1401270" lon="-2.0288640">
        <ele>261.4</ele>
        <time>2019-10-18T09:15:37Z</time>
      </trkpt>
      <trkpt lat="37.1401160" lon="-2.0289010">
        <ele>261.6</ele>
        <time>2019-10-18T09:15:38Z</time>
      </trkpt>
      <trkpt lat="37.1401060" lon="-2.0289370">
        <ele>261.8</ele>
        <time>2019-10-18T09:15:39Z</time>
      </trkpt>
      <trkpt lat="37.1400960" lon="-2.0289750">
        <ele>262.0</ele>
        <time>2019-10-18T09:15:40Z</time>
      </trkpt>
      <trkpt lat="37.1400860" lon="-2.0290130">
        <ele>262.3</ele>
        <time>2019-10-18T09:15:41Z</time>
      </trkpt>
      <trkpt lat="37.1400770" lon="-2.0290510">
        <ele>262.5</ele>
        <time>2019-10-18T09:15:42Z</time>
      </trkpt>
      <trkpt lat="37.1400680" lon="-2.0290900">
        <ele>262.7</ele>
        <time>2019-10-18T09:15:43Z</time>
      </trkpt>
      <trkpt lat="37.1400580" lon="-2.0291290">
        <ele>262.9</ele>
        <time>2019-10-18T09:15:44Z</time>
      </trkpt>
      <trkpt lat="37.1400480" lon="-2.0291680">
        <ele>263.2</ele>
        <time>2019-10-18T09:15:45Z</time>
      </trkpt>
      <trkpt lat="37.1400380" lon="-2.0292060">
        <ele>263.4</ele>
        <time>2019-10-18T09:15:46Z</time>
      </trkpt>
      <trkpt lat="37.1400290" lon="-2.0292440">
        <ele>263.6</ele>
        <time>2019-10-18T09:15:47Z</time>
      </trkpt>
      <trkpt lat="37.1400210" lon="-2.0292800">
        <ele>263.8</ele>
        <time>2019-10-18T09:15:48Z</time>
      </trkpt>
      <trkpt lat="37.1400110" lon="-2.0293170">
        <ele>264.0</ele>
        <time>2019-10-18T09:15:49Z</time>
      </trkpt>
      <trkpt lat="37.1400020" lon="-2.0293530">
        <ele>264.2</ele>
        <time>2019-10-18T09:15:50Z</time>
      </trkpt>
      <trkpt lat="37.1399930" lon="-2.0293890">
        <ele>264.4</ele>
        <time>2019-10-18T09:15:51Z</time>
      </trkpt>
      <trkpt lat="37.1399840" lon="-2.0294260">
        <ele>264.6</ele>
        <time>2019-10-18T09:15:52Z</time>
      </trkpt>
      <trkpt lat="37.1399750" lon="-2.0294640">
        <ele>264.8</ele>
        <time>2019-10-18T09:15:53Z</time>
      </trkpt>
      <trkpt lat="37.1399670" lon="-2.0295020">
        <ele>265.0</ele>
        <time>2019-10-18T09:15:54Z</time>
      </trkpt>
      <trkpt lat="37.1399580" lon="-2.0295400">
        <ele>265.2</ele>
        <time>2019-10-18T09:15:55Z</time>
      </trkpt>
      <trkpt lat="37.1399500" lon="-2.0295760">
        <ele>265.4</ele>
        <time>2019-10-18T09:15:56Z</time>
      </trkpt>
      <trkpt lat="37.1399410" lon="-2.0296120">
        <ele>265.5</ele>
        <time>2019-10-18T09:15:57Z</time>
      </trkpt>
      <trkpt lat="37.1399320" lon="-2.0296480">
        <ele>265.7</ele>
        <time>2019-10-18T09:15:58Z</time>
      </trkpt>
      <trkpt lat="37.1399240" lon="-2.0296840">
        <ele>265.8</ele>
        <time>2019-10-18T09:15:59Z</time>
      </trkpt>
      <trkpt lat="37.1399150" lon="-2.0297210">
        <ele>266.0</ele>
        <time>2019-10-18T09:16:00Z</time>
      </trkpt>
      <trkpt lat="37.1399070" lon="-2.0297580">
        <ele>266.1</ele>
        <time>2019-10-18T09:16:01Z</time>
      </trkpt>
      <trkpt lat="37.1399000" lon="-2.0297950">
        <ele>266.2</ele>
        <time>2019-10-18T09:16:02Z</time>
      </trkpt>
      <trkpt lat="37.1398920" lon="-2.0298320">
        <ele>266.4</ele>
        <time>2019-10-18T09:16:03Z</time>
      </trkpt>
      <trkpt lat="37.1398860" lon="-2.0298690">
        <ele>266.5</ele>
        <time>2019-10-18T09:16:04Z</time>
      </trkpt>
      <trkpt lat="37.1398800" lon="-2.0299060">
        <ele>266.7</ele>
        <time>2019-10-18T09:16:05Z</time>
      </trkpt>
      <trkpt lat="37.1398730" lon="-2.0299430">
        <ele>266.8</ele>
        <time>2019-10-18T09:16:06Z</time>
      </trkpt>
      <trkpt lat="37.1398680" lon="-2.0299800">
        <ele>267.0</ele>
        <time>2019-10-18T09:16:07Z</time>
      </trkpt>
      <trkpt lat="37.1398620" lon="-2.0300170">
        <ele>267.2</ele>
        <time>2019-10-18T09:16:08Z</time>
      </trkpt>
      <trkpt lat="37.1398570" lon="-2.0300540">
        <ele>267.3</ele>
        <time>2019-10-18T09:16:09Z</time>
      </trkpt>
      <trkpt lat="37.1398530" lon="-2.0300910">
        <ele>267.5</ele>
        <time>2019-10-18T09:16:10Z</time>
      </trkpt>
      <trkpt lat="37.1398490" lon="-2.0301280">
        <ele>267.7</ele>
        <time>2019-10-18T09:16:11Z</time>
      </trkpt>
      <trkpt lat="37.1398450" lon="-2.0301650">
        <ele>267.8</ele>
        <time>2019-10-18T09:16:12Z</time>
      </trkpt>
      <trkpt lat="37.1398420" lon="-2.0302020">
        <ele>268.0</ele>
        <time>2019-10-18T09:16:13Z</time>
      </trkpt>
      <trkpt lat="37.1398390" lon="-2.0302390">
        <ele>268.2</ele>
        <time>2019-10-18T09:16:14Z</time>
      </trkpt>
      <trkpt lat="37.1398360" lon="-2.0302760">
        <ele>268.3</ele>
        <time>2019-10-18T09:16:15Z</time>
      </trkpt>
      <trkpt lat="37.1398340" lon="-2.0303130">
        <ele>268.5</ele>
        <time>2019-10-18T09:16:16Z</time>
      </trkpt>
      <trkpt lat="37.1398310" lon="-2.0303500">
        <ele>268.7</ele>
        <time>2019-10-18T09:16:17Z</time>
      </trkpt>
      <trkpt lat="37.1398270" lon="-2.0303870">
        <ele>268.9</ele>
        <time>2019-10-18T09:16:18Z</time>
      </trkpt>
      <trkpt lat="37.1398230" lon="-2.0304240">
        <ele>269.0</ele>
        <time>2019-10-18T09:16:19Z</time>
      </trkpt>
      <trkpt lat="37.1398200" lon="-2.0304610">
        <ele>269.2</ele>
        <time>2019-10-18T09:16:20Z</time>
      </trkpt>
      <trkpt lat="37.1398190" lon="-2.0304980">
        <ele>269.4</ele>
        <time>2019-10-18T09:16:21Z</time>
      </trkpt>
      <trkpt lat="37.1398180" lon="-2.0305350">
        <ele>269.6</ele>
        <time>2019-10-18T09:16:22Z</time>
      </trkpt>
      <trkpt lat="37.1398170" lon="-2.0305710">
        <ele>269.7</ele>
        <time>2019-10-18T09:16:23Z</time>
      </trkpt>
      <trkpt lat="37.1398170" lon="-2.0306070">
        <ele>269.9</ele>
        <time>2019-10-18T09:16:24Z</time>
      </trkpt>
      <trkpt lat="37.1398160" lon="-2.0306430">
        <ele>270.1</ele>
        <time>2019-10-18T09:16:25Z</time>
      </trkpt>
      <trkpt lat="37.1398160" lon="-2.0306800">
        <ele>270.2</ele>
        <time>2019-10-18T09:16:26Z</time>
      </trkpt>
      <trkpt lat="37.1398160" lon="-2.0307170">
        <ele>270.4</ele>
        <time>2019-10-18T09:16:27Z</time>
      </trkpt>
      <trkpt lat="37.1398160" lon="-2.0307550">
        <ele>270.6</ele>
        <time>2019-10-18T09:16:28Z</time>
      </trkpt>
      <trkpt lat="37.1398160" lon="-2.0307920">
        <ele>270.7</ele>
        <time>2019-10-18T09:16:29Z</time>
      </trkpt>
      <trkpt lat="37.1398160" lon="-2.0308290">
        <ele>270.9</ele>
        <time>2019-10-18T09:16:30Z</time>
      </trkpt>
      <trkpt lat="37.1398160" lon="-2.0308660">
        <ele>271.1</ele>
        <time>2019-10-18T09:16:31Z</time>
      </trkpt>
      <trkpt lat="37.1398160" lon="-2.0309030">
        <ele>271.3</ele>
        <time>2019-10-18T09:16:32Z</time>
      </trkpt>
      <trkpt lat="37.1398170" lon="-2.0309400">
        <ele>271.5</ele>
        <time>2019-10-18T09:16:33Z</time>
      </trkpt>
      <trkpt lat="37.1398190" lon="-2.0309770">
        <ele>271.7</ele>
        <time>2019-10-18T09:16:34Z</time>
      </trkpt>
      <trkpt lat="37.1398200" lon="-2.0310140">
        <ele>271.9</ele>
        <time>2019-10-18T09:16:35Z</time>
      </trkpt>
      <trkpt lat="37.1398200" lon="-2.0310500">
        <ele>272.1</ele>
        <time>2019-10-18T09:16:36Z</time>
      </trkpt>
      <trkpt lat="37.1398200" lon="-2.0310870">
        <ele>272.4</ele>
        <time>2019-10-18T09:16:37Z</time>
      </trkpt>
      <trkpt lat="37.1398210" lon="-2.0311230">
        <ele>272.6</ele>
        <time>2019-10-18T09:16:38Z</time>
      </trkpt>
      <trkpt lat="37.1398220" lon="-2.0311600">
        <ele>272.8</ele>
        <time>2019-10-18T09:16:39Z</time>
      </trkpt>
      <trkpt lat="37.1398240" lon="-2.0311970">
        <ele>273.1</ele>
        <time>2019-10-18T09:16:40Z</time>
      </trkpt>
      <trkpt lat="37.1398250" lon="-2.0312340">
        <ele>273.4</ele>
        <time>2019-10-18T09:16:41Z</time>
      </trkpt>
      <trkpt lat="37.1398260" lon="-2.0312700">
        <ele>273.6</ele>
        <time>2019-10-18T09:16:42Z</time>
      </trkpt>
      <trkpt lat="37.1398270" lon="-2.0313070">
        <ele>273.9</ele>
        <time>2019-10-18T09:16:43Z</time>
      </trkpt>
      <trkpt lat="37.1398290" lon="-2.0313440">
        <ele>274.2</ele>
        <time>2019-10-18T09:16:44Z</time>
      </trkpt>
      <trkpt lat="37.1398310" lon="-2.0313820">
        <ele>274.5</ele>
        <time>2019-10-18T09:16:45Z</time>
      </trkpt>
      <trkpt lat="37.1398330" lon="-2.0314190">
        <ele>274.8</ele>
        <time>2019-10-18T09:16:46Z</time>
      </trkpt>
      <trkpt lat="37.1398340" lon="-2.0314560">
        <ele>275.1</ele>
        <time>2019-10-18T09:16:47Z</time>
      </trkpt>
      <trkpt lat="37.1398350" lon="-2.0314940">
        <ele>275.5</ele>
        <time>2019-10-18T09:16:48Z</time>
      </trkpt>
      <trkpt lat="37.1398360" lon="-2.0315310">
        <ele>275.8</ele>
        <time>2019-10-18T09:16:49Z</time>
      </trkpt>
      <trkpt lat="37.1398370" lon="-2.0315680">
        <ele>276.1</ele>
        <time>2019-10-18T09:16:50Z</time>
      </trkpt>
      <trkpt lat="37.1398380" lon="-2.0316040">
        <ele>276.3</ele>
        <time>2019-10-18T09:16:51Z</time>
      </trkpt>
      <trkpt lat="37.1398390" lon="-2.0316410">
        <ele>276.6</ele>
        <time>2019-10-18T09:16:52Z</time>
      </trkpt>
      <trkpt lat="37.1398400" lon="-2.0316780">
        <ele>276.9</ele>
        <time>2019-10-18T09:16:53Z</time>
      </trkpt>
      <trkpt lat="37.1398410" lon="-2.0317140">
        <ele>277.2</ele>
        <time>2019-10-18T09:16:54Z</time>
      </trkpt>
      <trkpt lat="37.1398420" lon="-2.0317520">
        <ele>277.5</ele>
        <time>2019-10-18T09:16:55Z</time>
      </trkpt>
      <trkpt lat="37.1398440" lon="-2.0317890">
        <ele>277.7</ele>
        <time>2019-10-18T09:16:56Z</time>
      </trkpt>
      <trkpt lat="37.1398460" lon="-2.0318270">
        <ele>278.0</ele>
        <time>2019-10-18T09:16:57Z</time>
      </trkpt>
      <trkpt lat="37.1398480" lon="-2.0318650">
        <ele>278.2</ele>
        <time>2019-10-18T09:16:58Z</time>
      </trkpt>
      <trkpt lat="37.1398490" lon="-2.0319020">
        <ele>278.5</ele>
        <time>2019-10-18T09:16:59Z</time>
      </trkpt>
      <trkpt lat="37.1398510" lon="-2.0319390">
        <ele>278.7</ele>
        <time>2019-10-18T09:17:00Z</time>
      </trkpt>
      <trkpt lat="37.1398540" lon="-2.0319760">
        <ele>278.9</ele>
        <time>2019-10-18T09:17:01Z</time>
      </trkpt>
      <trkpt lat="37.1398560" lon="-2.0320140">
        <ele>279.1</ele>
        <time>2019-10-18T09:17:02Z</time>
      </trkpt>
      <trkpt lat="37.1398580" lon="-2.0320510">
        <ele>279.3</ele>
        <time>2019-10-18T09:17:03Z</time>
      </trkpt>
      <trkpt lat="37.1398590" lon="-2.0320880">
        <ele>279.5</ele>
        <time>2019-10-18T09:17:04Z</time>
      </trkpt>
      <trkpt lat="37.1398600" lon="-2.0321250">
        <ele>279.7</ele>
        <time>2019-10-18T09:17:05Z</time>
      </trkpt>
      <trkpt lat="37.1398610" lon="-2.0321620">
        <ele>279.9</ele>
        <time>2019-10-18T09:17:06Z</time>
      </trkpt>
      <trkpt lat="37.1398620" lon="-2.0321990">
        <ele>280.0</ele>
        <time>2019-10-18T09:17:07Z</time>
      </trkpt>
      <trkpt lat="37.1398640" lon="-2.0322360">
        <ele>280.2</ele>
        <time>2019-10-18T09:17:08Z</time>
      </trkpt>
      <trkpt lat="37.1398650" lon="-2.0322740">
        <ele>280.3</ele>
        <time>2019-10-18T09:17:09Z</time>
      </trkpt>
      <trkpt lat="37.1398660" lon="-2.0323140">
        <ele>280.5</ele>
        <time>2019-10-18T09:17:10Z</time>
      </trkpt>
      <trkpt lat="37.1398670" lon="-2.0323530">
        <ele>280.6</ele>
        <time>2019-10-18T09:17:11Z</time>
      </trkpt>
      <trkpt lat="37.1398690" lon="-2.0323930">
        <ele>280.7</ele>
        <time>2019-10-18T09:17:12Z</time>
      </trkpt>
      <trkpt lat="37.1398700" lon="-2.0324330">
        <ele>280.9</ele>
        <time>2019-10-18T09:17:13Z</time>
      </trkpt>
      <trkpt lat="37.1398720" lon="-2.0324730">
        <ele>281.0</ele>
        <time>2019-10-18T09:17:14Z</time>
      </trkpt>
      <trkpt lat="37.1398740" lon="-2.0325130">
        <ele>281.2</ele>
        <time>2019-10-18T09:17:15Z</time>
      </trkpt>
      <trkpt lat="37.1398760" lon="-2.0325520">
        <ele>281.3</ele>
        <time>2019-10-18T09:17:16Z</time>
      </trkpt>
      <trkpt lat="37.1398780" lon="-2.0325910">
        <ele>281.5</ele>
        <time>2019-10-18T09:17:17Z</time>
      </trkpt>
      <trkpt lat="37.1398810" lon="-2.0326300">
        <ele>281.6</ele>
        <time>2019-10-18T09:17:18Z</time>
      </trkpt>
      <trkpt lat="37.1398830" lon="-2.0326690">
        <ele>281.7</ele>
        <time>2019-10-18T09:17:19Z</time>
      </trkpt>
      <trkpt lat="37.1398850" lon="-2.0327080">
        <ele>281.9</ele>
        <time>2019-10-18T09:17:20Z</time>
      </trkpt>
      <trkpt lat="37.1398870" lon="-2.0327460">
        <ele>282.0</ele>
        <time>2019-10-18T09:17:21Z</time>
      </trkpt>
      <trkpt lat="37.1398890" lon="-2.0327830">
        <ele>282.1</ele>
        <time>2019-10-18T09:17:22Z</time>
      </trkpt>
      <trkpt lat="37.1398910" lon="-2.0328200">
        <ele>282.3</ele>
        <time>2019-10-18T09:17:23Z</time>
      </trkpt>
      <trkpt lat="37.1398930" lon="-2.0328580">
        <ele>282.4</ele>
        <time>2019-10-18T09:17:24Z</time>
      </trkpt>
      <trkpt lat="37.1398950" lon="-2.0328950">
        <ele>282.5</ele>
        <time>2019-10-18T09:17:25Z</time>
      </trkpt>
      <trkpt lat="37.1398970" lon="-2.0329330">
        <ele>282.7</ele>
        <time>2019-10-18T09:17:26Z</time>
      </trkpt>
      <trkpt lat="37.1398980" lon="-2.0329720">
        <ele>282.8</ele>
        <time>2019-10-18T09:17:27Z</time>
      </trkpt>
      <trkpt lat="37.1398990" lon="-2.0330100">
        <ele>282.9</ele>
        <time>2019-10-18T09:17:28Z</time>
      </trkpt>
      <trkpt lat="37.1399010" lon="-2.0330470">
        <ele>283.0</ele>
        <time>2019-10-18T09:17:29Z</time>
      </trkpt>
      <trkpt lat="37.1399030" lon="-2.0330840">
        <ele>283.1</ele>
        <time>2019-10-18T09:17:30Z</time>
      </trkpt>
      <trkpt lat="37.1399050" lon="-2.0331220">
        <ele>283.2</ele>
        <time>2019-10-18T09:17:31Z</time>
      </trkpt>
      <trkpt lat="37.1399080" lon="-2.0331610">
        <ele>283.3</ele>
        <time>2019-10-18T09:17:32Z</time>
      </trkpt>
      <trkpt lat="37.1399110" lon="-2.0332010">
        <ele>283.4</ele>
        <time>2019-10-18T09:17:33Z</time>
      </trkpt>
      <trkpt lat="37.1399140" lon="-2.0332400">
        <ele>283.5</ele>
        <time>2019-10-18T09:17:34Z</time>
      </trkpt>
      <trkpt lat="37.1399170" lon="-2.0332790">
        <ele>283.6</ele>
        <time>2019-10-18T09:17:35Z</time>
      </trkpt>
      <trkpt lat="37.1399210" lon="-2.0333190">
        <ele>283.7</ele>
        <time>2019-10-18T09:17:36Z</time>
      </trkpt>
      <trkpt lat="37.1399260" lon="-2.0333590">
        <ele>283.8</ele>
        <time>2019-10-18T09:17:37Z</time>
      </trkpt>
      <trkpt lat="37.1399310" lon="-2.0333990">
        <ele>283.9</ele>
        <time>2019-10-18T09:17:38Z</time>
      </trkpt>
      <trkpt lat="37.1399360" lon="-2.0334380">
        <ele>284.0</ele>
        <time>2019-10-18T09:17:39Z</time>
      </trkpt>
      <trkpt lat="37.1399410" lon="-2.0334790">
        <ele>284.1</ele>
        <time>2019-10-18T09:17:40Z</time>
      </trkpt>
      <trkpt lat="37.1399470" lon="-2.0335200">
        <ele>284.2</ele>
        <time>2019-10-18T09:17:41Z</time>
      </trkpt>
      <trkpt lat="37.1399550" lon="-2.0335600">
        <ele>284.2</ele>
        <time>2019-10-18T09:17:42Z</time>
      </trkpt>
      <trkpt lat="37.1399640" lon="-2.0336000">
        <ele>284.3</ele>
        <time>2019-10-18T09:17:43Z</time>
      </trkpt>
      <trkpt lat="37.1399740" lon="-2.0336390">
        <ele>284.4</ele>
        <time>2019-10-18T09:17:44Z</time>
      </trkpt>
      <trkpt lat="37.1399850" lon="-2.0336760">
        <ele>284.5</ele>
        <time>2019-10-18T09:17:45Z</time>
      </trkpt>
      <trkpt lat="37.1399960" lon="-2.0337130">
        <ele>284.6</ele>
        <time>2019-10-18T09:17:46Z</time>
      </trkpt>
      <trkpt lat="37.1400080" lon="-2.0337490">
        <ele>284.7</ele>
        <time>2019-10-18T09:17:47Z</time>
      </trkpt>
      <trkpt lat="37.1400190" lon="-2.0337850">
        <ele>284.8</ele>
        <time>2019-10-18T09:17:48Z</time>
      </trkpt>
      <trkpt lat="37.1400320" lon="-2.0338210">
        <ele>284.8</ele>
        <time>2019-10-18T09:17:49Z</time>
      </trkpt>
      <trkpt lat="37.1400450" lon="-2.0338550">
        <ele>284.9</ele>
        <time>2019-10-18T09:17:50Z</time>
      </trkpt>
      <trkpt lat="37.1400580" lon="-2.0338900">
        <ele>285.0</ele>
        <time>2019-10-18T09:17:51Z</time>
      </trkpt>
      <trkpt lat="37.1400730" lon="-2.0339230">
        <ele>285.1</ele>
        <time>2019-10-18T09:17:52Z</time>
      </trkpt>
      <trkpt lat="37.1400890" lon="-2.0339550">
        <ele>285.1</ele>
        <time>2019-10-18T09:17:53Z</time>
      </trkpt>
      <trkpt lat="37.1401050" lon="-2.0339870">
        <ele>285.2</ele>
        <time>2019-10-18T09:17:54Z</time>
      </trkpt>
      <trkpt lat="37.1401230" lon="-2.0340180">
        <ele>285.3</ele>
        <time>2019-10-18T09:17:55Z</time>
      </trkpt>
      <trkpt lat="37.1401410" lon="-2.0340480">
        <ele>285.3</ele>
        <time>2019-10-18T09:17:56Z</time>
      </trkpt>
      <trkpt lat="37.1401600" lon="-2.0340780">
        <ele>285.4</ele>
        <time>2019-10-18T09:17:57Z</time>
      </trkpt>
      <trkpt lat="37.1401790" lon="-2.0341080">
        <ele>285.5</ele>
        <time>2019-10-18T09:17:58Z</time>
      </trkpt>
      <trkpt lat="37.1401970" lon="-2.0341360">
        <ele>285.5</ele>
        <time>2019-10-18T09:17:59Z</time>
      </trkpt>
      <trkpt lat="37.1402160" lon="-2.0341640">
        <ele>285.6</ele>
        <time>2019-10-18T09:18:00Z</time>
      </trkpt>
      <trkpt lat="37.1402360" lon="-2.0341910">
        <ele>285.7</ele>
        <time>2019-10-18T09:18:01Z</time>
      </trkpt>
      <trkpt lat="37.1402560" lon="-2.0342180">
        <ele>285.8</ele>
        <time>2019-10-18T09:18:02Z</time>
      </trkpt>
      <trkpt lat="37.1402760" lon="-2.0342450">
        <ele>285.8</ele>
        <time>2019-10-18T09:18:03Z</time>
      </trkpt>
      <trkpt lat="37.1402960" lon="-2.0342740">
        <ele>285.9</ele>
        <time>2019-10-18T09:18:04Z</time>
      </trkpt>
      <trkpt lat="37.1403180" lon="-2.0343040">
        <ele>286.0</ele>
        <time>2019-10-18T09:18:05Z</time>
      </trkpt>
      <trkpt lat="37.1403400" lon="-2.0343350">
        <ele>286.1</ele>
        <time>2019-10-18T09:18:06Z</time>
      </trkpt>
      <trkpt lat="37.1403630" lon="-2.0343650">
        <ele>286.3</ele>
        <time>2019-10-18T09:18:07Z</time>
      </trkpt>
      <trkpt lat="37.1403850" lon="-2.0343960">
        <ele>286.4</ele>
        <time>2019-10-18T09:18:08Z</time>
      </trkpt>
      <trkpt lat="37.1404070" lon="-2.0344280">
        <ele>286.5</ele>
        <time>2019-10-18T09:18:09Z</time>
      </trkpt>
      <trkpt lat="37.1404290" lon="-2.0344600">
        <ele>286.6</ele>
        <time>2019-10-18T09:18:10Z</time>
      </trkpt>
      <trkpt lat="37.1404510" lon="-2.0344920">
        <ele>286.7</ele>
        <time>2019-10-18T09:18:11Z</time>
      </trkpt>
      <trkpt lat="37.1404730" lon="-2.0345250">
        <ele>286.9</ele>
        <time>2019-10-18T09:18:12Z</time>
      </trkpt>
      <trkpt lat="37.1404950" lon="-2.0345570">
        <ele>287.0</ele>
        <time>2019-10-18T09:18:13Z</time>
      </trkpt>
      <trkpt lat="37.1405170" lon="-2.0345890">
        <ele>287.2</ele>
        <time>2019-10-18T09:18:14Z</time>
      </trkpt>
      <trkpt lat="37.1405390" lon="-2.0346220">
        <ele>287.3</ele>
        <time>2019-10-18T09:18:15Z</time>
      </trkpt>
      <trkpt lat="37.1405610" lon="-2.0346550">
        <ele>287.4</ele>
        <time>2019-10-18T09:18:16Z</time>
      </trkpt>
      <trkpt lat="37.1405820" lon="-2.0346880">
        <ele>287.6</ele>
        <time>2019-10-18T09:18:17Z</time>
      </trkpt>
      <trkpt lat="37.1406040" lon="-2.0347220">
        <ele>287.7</ele>
        <time>2019-10-18T09:18:18Z</time>
      </trkpt>
      <trkpt lat="37.1406250" lon="-2.0347560">
        <ele>287.8</ele>
        <time>2019-10-18T09:18:19Z</time>
      </trkpt>
      <trkpt lat="37.1406460" lon="-2.0347930">
        <ele>288.0</ele>
        <time>2019-10-18T09:18:20Z</time>
      </trkpt>
      <trkpt lat="37.1406660" lon="-2.0348310">
        <ele>288.1</ele>
        <time>2019-10-18T09:18:21Z</time>
      </trkpt>
      <trkpt lat="37.1406860" lon="-2.0348710">
        <ele>288.3</ele>
        <time>2019-10-18T09:18:22Z</time>
      </trkpt>
      <trkpt lat="37.1407040" lon="-2.0349130">
        <ele>288.4</ele>
        <time>2019-10-18T09:18:23Z</time>
      </trkpt>
      <trkpt lat="37.1407220" lon="-2.0349570">
        <ele>288.5</ele>
        <time>2019-10-18T09:18:24Z</time>
      </trkpt>
      <trkpt lat="37.1407370" lon="-2.0350030">
        <ele>288.7</ele>
        <time>2019-10-18T09:18:25Z</time>
      </trkpt>
      <trkpt lat="37.1407500" lon="-2.0350500">
        <ele>288.8</ele>
        <time>2019-10-18T09:18:26Z</time>
      </trkpt>
      <trkpt lat="37.1407630" lon="-2.0351000">
        <ele>288.9</ele>
        <time>2019-10-18T09:18:27Z</time>
      </trkpt>
      <trkpt lat="37.1407760" lon="-2.0351520">
        <ele>289.0</ele>
        <time>2019-10-18T09:18:28Z</time>
      </trkpt>
      <trkpt lat="37.1407880" lon="-2.0352060">
        <ele>289.1</ele>
        <time>2019-10-18T09:18:29Z</time>
      </trkpt>
      <trkpt lat="37.1408000" lon="-2.0352610">
        <ele>289.2</ele>
        <time>2019-10-18T09:18:30Z</time>
      </trkpt>
      <trkpt lat="37.1408120" lon="-2.0353170">
        <ele>289.3</ele>
        <time>2019-10-18T09:18:31Z</time>
      </trkpt>
      <trkpt lat="37.1408250" lon="-2.0353740">
        <ele>289.4</ele>
        <time>2019-10-18T09:18:32Z</time>
      </trkpt>
      <trkpt lat="37.1408380" lon="-2.0354320">
        <ele>289.5</ele>
        <time>2019-10-18T09:18:33Z</time>
      </trkpt>
      <trkpt lat="37.1408510" lon="-2.0354910">
        <ele>289.7</ele>
        <time>2019-10-18T09:18:34Z</time>
      </trkpt>
      <trkpt lat="37.1408640" lon="-2.0355500">
        <ele>289.8</ele>
        <time>2019-10-18T09:18:35Z</time>
      </trkpt>
      <trkpt lat="37.1408780" lon="-2.0356090">
        <ele>289.9</ele>
        <time>2019-10-18T09:18:36Z</time>
      </trkpt>
      <trkpt lat="37.1408930" lon="-2.0356670">
        <ele>290.1</ele>
        <time>2019-10-18T09:18:37Z</time>
      </trkpt>
      <trkpt lat="37.1409060" lon="-2.0357240">
        <ele>290.2</ele>
        <time>2019-10-18T09:18:38Z</time>
      </trkpt>
      <trkpt lat="37.1409200" lon="-2.0357800">
        <ele>290.4</ele>
        <time>2019-10-18T09:18:39Z</time>
      </trkpt>
      <trkpt lat="37.1409350" lon="-2.0358350">
        <ele>290.6</ele>
        <time>2019-10-18T09:18:40Z</time>
      </trkpt>
      <trkpt lat="37.1409520" lon="-2.0358890">
        <ele>290.8</ele>
        <time>2019-10-18T09:18:41Z</time>
      </trkpt>
      <trkpt lat="37.1409730" lon="-2.0359420">
        <ele>291.0</ele>
        <time>2019-10-18T09:18:42Z</time>
      </trkpt>
      <trkpt lat="37.1409970" lon="-2.0359930">
        <ele>291.2</ele>
        <time>2019-10-18T09:18:43Z</time>
      </trkpt>
      <trkpt lat="37.1410230" lon="-2.0360420">
        <ele>291.4</ele>
        <time>2019-10-18T09:18:44Z</time>
      </trkpt>
      <trkpt lat="37.1410490" lon="-2.0360910">
        <ele>291.7</ele>
        <time>2019-10-18T09:18:45Z</time>
      </trkpt>
      <trkpt lat="37.1410750" lon="-2.0361380">
        <ele>291.9</ele>
        <time>2019-10-18T09:18:46Z</time>
      </trkpt>
      <trkpt lat="37.1411010" lon="-2.0361850">
        <ele>292.2</ele>
        <time>2019-10-18T09:18:47Z</time>
      </trkpt>
      <trkpt lat="37.1411270" lon="-2.0362300">
        <ele>292.4</ele>
        <time>2019-10-18T09:18:48Z</time>
      </trkpt>
      <trkpt lat="37.1411520" lon="-2.0362730">
        <ele>292.6</ele>
        <time>2019-10-18T09:18:49Z</time>
      </trkpt>
      <trkpt lat="37.1411770" lon="-2.0363150">
        <ele>292.8</ele>
        <time>2019-10-18T09:18:50Z</time>
      </trkpt>
      <trkpt lat="37.1412020" lon="-2.0363560">
        <ele>293.0</ele>
        <time>2019-10-18T09:18:51Z</time>
      </trkpt>
      <trkpt lat="37.1412270" lon="-2.0363960">
        <ele>293.2</ele>
        <time>2019-10-18T09:18:52Z</time>
      </trkpt>
      <trkpt lat="37.1412510" lon="-2.0364350">
        <ele>293.4</ele>
        <time>2019-10-18T09:18:53Z</time>
      </trkpt>
      <trkpt lat="37.1412740" lon="-2.0364730">
        <ele>293.5</ele>
        <time>2019-10-18T09:18:54Z</time>
      </trkpt>
      <trkpt lat="37.1412970" lon="-2.0365100">
        <ele>293.7</ele>
        <time>2019-10-18T09:18:55Z</time>
      </trkpt>
      <trkpt lat="37.1413200" lon="-2.0365470">
        <ele>293.8</ele>
        <time>2019-10-18T09:18:56Z</time>
      </trkpt>
      <trkpt lat="37.1413410" lon="-2.0365820">
        <ele>294.0</ele>
        <time>2019-10-18T09:18:57Z</time>
      </trkpt>
      <trkpt lat="37.1413630" lon="-2.0366180">
        <ele>294.1</ele>
        <time>2019-10-18T09:18:58Z</time>
      </trkpt>
      <trkpt lat="37.1413840" lon="-2.0366530">
        <ele>294.3</ele>
        <time>2019-10-18T09:18:59Z</time>
      </trkpt>
      <trkpt lat="37.1414050" lon="-2.0366870">
        <ele>294.4</ele>
        <time>2019-10-18T09:19:00Z</time>
      </trkpt>
      <trkpt lat="37.1414260" lon="-2.0367210">
        <ele>294.5</ele>
        <time>2019-10-18T09:19:01Z</time>
      </trkpt>
      <trkpt lat="37.1414480" lon="-2.0367550">
        <ele>294.7</ele>
        <time>2019-10-18T09:19:02Z</time>
      </trkpt>
      <trkpt lat="37.1414690" lon="-2.0367890">
        <ele>294.8</ele>
        <time>2019-10-18T09:19:03Z</time>
      </trkpt>
      <trkpt lat="37.1414910" lon="-2.0368230">
        <ele>294.9</ele>
        <time>2019-10-18T09:19:04Z</time>
      </trkpt>
      <trkpt lat="37.1415130" lon="-2.0368560">
        <ele>295.1</ele>
        <time>2019-10-18T09:19:05Z</time>
      </trkpt>
      <trkpt lat="37.1415350" lon="-2.0368900">
        <ele>295.2</ele>
        <time>2019-10-18T09:19:06Z</time>
      </trkpt>
      <trkpt lat="37.1415570" lon="-2.0369250">
        <ele>295.4</ele>
        <time>2019-10-18T09:19:07Z</time>
      </trkpt>
      <trkpt lat="37.1415780" lon="-2.0369590">
        <ele>295.5</ele>
        <time>2019-10-18T09:19:08Z</time>
      </trkpt>
      <trkpt lat="37.1416000" lon="-2.0369930">
        <ele>295.6</ele>
        <time>2019-10-18T09:19:09Z</time>
      </trkpt>
      <trkpt lat="37.1416220" lon="-2.0370270">
        <ele>295.8</ele>
        <time>2019-10-18T09:19:10Z</time>
      </trkpt>
      <trkpt lat="37.1416440" lon="-2.0370600">
        <ele>295.9</ele>
        <time>2019-10-18T09:19:11Z</time>
      </trkpt>
      <trkpt lat="37.1416650" lon="-2.0370930">
        <ele>296.1</ele>
        <time>2019-10-18T09:19:12Z</time>
      </trkpt>
      <trkpt lat="37.1416870" lon="-2.0371250">
        <ele>296.3</ele>
        <time>2019-10-18T09:19:13Z</time>
      </trkpt>
      <trkpt lat="37.1417080" lon="-2.0371570">
        <ele>296.4</ele>
        <time>2019-10-18T09:19:14Z</time>
      </trkpt>
      <trkpt lat="37.1417290" lon="-2.0371900">
        <ele>296.6</ele>
        <time>2019-10-18T09:19:15Z</time>
      </trkpt>
      <trkpt lat="37.1417510" lon="-2.0372210">
        <ele>296.7</ele>
        <time>2019-10-18T09:19:16Z</time>
      </trkpt>
      <trkpt lat="37.1417720" lon="-2.0372520">
        <ele>296.9</ele>
        <time>2019-10-18T09:19:17Z</time>
      </trkpt>
      <trkpt lat="37.1417940" lon="-2.0372830">
        <ele>297.1</ele>
        <time>2019-10-18T09:19:18Z</time>
      </trkpt>
      <trkpt lat="37.1418150" lon="-2.0373130">
        <ele>297.2</ele>
        <time>2019-10-18T09:19:19Z</time>
      </trkpt>
      <trkpt lat="37.1418350" lon="-2.0373420">
        <ele>297.4</ele>
        <time>2019-10-18T09:19:20Z</time>
      </trkpt>
      <trkpt lat="37.1418570" lon="-2.0373710">
        <ele>297.5</ele>
        <time>2019-10-18T09:19:21Z</time>
      </trkpt>
      <trkpt lat="37.1418800" lon="-2.0374000">
        <ele>297.7</ele>
        <time>2019-10-18T09:19:22Z</time>
      </trkpt>
      <trkpt lat="37.1419050" lon="-2.0374290">
        <ele>297.9</ele>
        <time>2019-10-18T09:19:23Z</time>
      </trkpt>
      <trkpt lat="37.1419310" lon="-2.0374560">
        <ele>298.0</ele>
        <time>2019-10-18T09:19:24Z</time>
      </trkpt>
      <trkpt lat="37.1419580" lon="-2.0374800">
        <ele>298.2</ele>
        <time>2019-10-18T09:19:25Z</time>
      </trkpt>
      <trkpt lat="37.1419870" lon="-2.0375020">
        <ele>298.4</ele>
        <time>2019-10-18T09:19:26Z</time>
      </trkpt>
      <trkpt lat="37.1420160" lon="-2.0375200">
        <ele>298.6</ele>
        <time>2019-10-18T09:19:27Z</time>
      </trkpt>
      <trkpt lat="37.1420460" lon="-2.0375350">
        <ele>298.7</ele>
        <time>2019-10-18T09:19:28Z</time>
      </trkpt>
      <trkpt lat="37.1420750" lon="-2.0375480">
        <ele>298.9</ele>
        <time>2019-10-18T09:19:29Z</time>
      </trkpt>
      <trkpt lat="37.1421060" lon="-2.0375590">
        <ele>299.1</ele>
        <time>2019-10-18T09:19:30Z</time>
      </trkpt>
      <trkpt lat="37.1421370" lon="-2.0375690">
        <ele>299.2</ele>
        <time>2019-10-18T09:19:31Z</time>
      </trkpt>
      <trkpt lat="37.1421690" lon="-2.0375760">
        <ele>299.4</ele>
        <time>2019-10-18T09:19:32Z</time>
      </trkpt>
      <trkpt lat="37.1422020" lon="-2.0375800">
        <ele>299.5</ele>
        <time>2019-10-18T09:19:33Z</time>
      </trkpt>
      <trkpt lat="37.1422360" lon="-2.0375800">
        <ele>299.7</ele>
        <time>2019-10-18T09:19:34Z</time>
      </trkpt>
      <trkpt lat="37.1422710" lon="-2.0375790">
        <ele>299.9</ele>
        <time>2019-10-18T09:19:35Z</time>
      </trkpt>
      <trkpt lat="37.1423050" lon="-2.0375780">
        <ele>300.0</ele>
        <time>2019-10-18T09:19:36Z</time>
      </trkpt>
      <trkpt lat="37.1423390" lon="-2.0375750">
        <ele>300.1</ele>
        <time>2019-10-18T09:19:37Z</time>
      </trkpt>
      <trkpt lat="37.1423720" lon="-2.0375710">
        <ele>300.3</ele>
        <time>2019-10-18T09:19:38Z</time>
      </trkpt>
      <trkpt lat="37.1424050" lon="-2.0375650">
        <ele>300.4</ele>
        <time>2019-10-18T09:19:39Z</time>
      </trkpt>
      <trkpt lat="37.1424380" lon="-2.0375570">
        <ele>300.5</ele>
        <time>2019-10-18T09:19:40Z</time>
      </trkpt>
      <trkpt lat="37.1424700" lon="-2.0375480">
        <ele>300.6</ele>
        <time>2019-10-18T09:19:41Z</time>
      </trkpt>
      <trkpt lat="37.1425010" lon="-2.0375390">
        <ele>300.7</ele>
        <time>2019-10-18T09:19:42Z</time>
      </trkpt>
      <trkpt lat="37.1425310" lon="-2.0375280">
        <ele>300.8</ele>
        <time>2019-10-18T09:19:43Z</time>
      </trkpt>
      <trkpt lat="37.1425620" lon="-2.0375170">
        <ele>301.0</ele>
        <time>2019-10-18T09:19:44Z</time>
      </trkpt>
      <trkpt lat="37.1425920" lon="-2.0375050">
        <ele>301.1</ele>
        <time>2019-10-18T09:19:45Z</time>
      </trkpt>
      <trkpt lat="37.1426230" lon="-2.0374930">
        <ele>301.2</ele>
        <time>2019-10-18T09:19:46Z</time>
      </trkpt>
      <trkpt lat="37.1426540" lon="-2.0374820">
        <ele>301.3</ele>
        <time>2019-10-18T09:19:47Z</time>
      </trkpt>
      <trkpt lat="37.1426850" lon="-2.0374710">
        <ele>301.4</ele>
        <time>2019-10-18T09:19:48Z</time>
      </trkpt>
      <trkpt lat="37.1427180" lon="-2.0374590">
        <ele>301.6</ele>
        <time>2019-10-18T09:19:49Z</time>
      </trkpt>
      <trkpt lat="37.1427510" lon="-2.0374460">
        <ele>301.8</ele>
        <time>2019-10-18T09:19:50Z</time>
      </trkpt>
      <trkpt lat="37.1427840" lon="-2.0374330">
        <ele>301.9</ele>
        <time>2019-10-18T09:19:51Z</time>
      </trkpt>
      <trkpt lat="37.1428160" lon="-2.0374200">
        <ele>302.1</ele>
        <time>2019-10-18T09:19:52Z</time>
      </trkpt>
      <trkpt lat="37.1428480" lon="-2.0374070">
        <ele>302.3</ele>
        <time>2019-10-18T09:19:53Z</time>
      </trkpt>
      <trkpt lat="37.1428800" lon="-2.0373940">
        <ele>302.4</ele>
        <time>2019-10-18T09:19:54Z</time>
      </trkpt>
      <trkpt lat="37.1429120" lon="-2.0373810">
        <ele>302.6</ele>
        <time>2019-10-18T09:19:55Z</time>
      </trkpt>
      <trkpt lat="37.1429440" lon="-2.0373700">
        <ele>302.8</ele>
        <time>2019-10-18T09:19:56Z</time>
      </trkpt>
      <trkpt lat="37.1429780" lon="-2.0373590">
        <ele>303.0</ele>
        <time>2019-10-18T09:19:57Z</time>
      </trkpt>
      <trkpt lat="37.1430110" lon="-2.0373470">
        <ele>303.2</ele>
        <time>2019-10-18T09:19:58Z</time>
      </trkpt>
      <trkpt lat="37.1430430" lon="-2.0373360">
        <ele>303.3</ele>
        <time>2019-10-18T09:19:59Z</time>
      </trkpt>
      <trkpt lat="37.1430740" lon="-2.0373230">
        <ele>303.5</ele>
        <time>2019-10-18T09:20:00Z</time>
      </trkpt>
      <trkpt lat="37.1431040" lon="-2.0373120">
        <ele>303.7</ele>
        <time>2019-10-18T09:20:01Z</time>
      </trkpt>
      <trkpt lat="37.1431340" lon="-2.0373000">
        <ele>303.8</ele>
        <time>2019-10-18T09:20:02Z</time>
      </trkpt>
      <trkpt lat="37.1431640" lon="-2.0372880">
        <ele>304.0</ele>
        <time>2019-10-18T09:20:03Z</time>
      </trkpt>
      <trkpt lat="37.1431950" lon="-2.0372770">
        <ele>304.2</ele>
        <time>2019-10-18T09:20:04Z</time>
      </trkpt>
      <trkpt lat="37.1432260" lon="-2.0372660">
        <ele>304.3</ele>
        <time>2019-10-18T09:20:05Z</time>
      </trkpt>
      <trkpt lat="37.1432580" lon="-2.0372540">
        <ele>304.5</ele>
        <time>2019-10-18T09:20:06Z</time>
      </trkpt>
      <trkpt lat="37.1432900" lon="-2.0372420">
        <ele>304.6</ele>
        <time>2019-10-18T09:20:07Z</time>
      </trkpt>
      <trkpt lat="37.1433230" lon="-2.0372290">
        <ele>304.8</ele>
        <time>2019-10-18T09:20:08Z</time>
      </trkpt>
      <trkpt lat="37.1433560" lon="-2.0372170">
        <ele>304.9</ele>
        <time>2019-10-18T09:20:09Z</time>
      </trkpt>
      <trkpt lat="37.1433880" lon="-2.0372050">
        <ele>305.0</ele>
        <time>2019-10-18T09:20:10Z</time>
      </trkpt>
      <trkpt lat="37.1434200" lon="-2.0371920">
        <ele>305.2</ele>
        <time>2019-10-18T09:20:11Z</time>
      </trkpt>
      <trkpt lat="37.1434520" lon="-2.0371800">
        <ele>305.3</ele>
        <time>2019-10-18T09:20:12Z</time>
      </trkpt>
      <trkpt lat="37.1434830" lon="-2.0371680">
        <ele>305.4</ele>
        <time>2019-10-18T09:20:13Z</time>
      </trkpt>
      <trkpt lat="37.1435140" lon="-2.0371560">
        <ele>305.6</ele>
        <time>2019-10-18T09:20:14Z</time>
      </trkpt>
      <trkpt lat="37.1435450" lon="-2.0371440">
        <ele>305.7</ele>
        <time>2019-10-18T09:20:15Z</time>
      </trkpt>
      <trkpt lat="37.1435750" lon="-2.0371330">
        <ele>305.8</ele>
        <time>2019-10-18T09:20:16Z</time>
      </trkpt>
      <trkpt lat="37.1436050" lon="-2.0371210">
        <ele>305.9</ele>
        <time>2019-10-18T09:20:17Z</time>
      </trkpt>
      <trkpt lat="37.1436350" lon="-2.0371100">
        <ele>306.1</ele>
        <time>2019-10-18T09:20:18Z</time>
      </trkpt>
      <trkpt lat="37.1436670" lon="-2.0370980">
        <ele>306.2</ele>
        <time>2019-10-18T09:20:19Z</time>
      </trkpt>
      <trkpt lat="37.1437000" lon="-2.0370860">
        <ele>306.3</ele>
        <time>2019-10-18T09:20:20Z</time>
      </trkpt>
      <trkpt lat="37.1437320" lon="-2.0370730">
        <ele>306.4</ele>
        <time>2019-10-18T09:20:21Z</time>
      </trkpt>
      <trkpt lat="37.1437650" lon="-2.0370600">
        <ele>306.5</ele>
        <time>2019-10-18T09:20:22Z</time>
      </trkpt>
      <trkpt lat="37.1437980" lon="-2.0370460">
        <ele>306.7</ele>
        <time>2019-10-18T09:20:23Z</time>
      </trkpt>
      <trkpt lat="37.1438310" lon="-2.0370320">
        <ele>306.8</ele>
        <time>2019-10-18T09:20:24Z</time>
      </trkpt>
      <trkpt lat="37.1438650" lon="-2.0370180">
        <ele>306.9</ele>
        <time>2019-10-18T09:20:25Z</time>
      </trkpt>
      <trkpt lat="37.1438980" lon="-2.0370050">
        <ele>307.0</ele>
        <time>2019-10-18T09:20:26Z</time>
      </trkpt>
      <trkpt lat="37.1439330" lon="-2.0369910">
        <ele>307.2</ele>
        <time>2019-10-18T09:20:27Z</time>
      </trkpt>
      <trkpt lat="37.1439690" lon="-2.0369780">
        <ele>307.3</ele>
        <time>2019-10-18T09:20:28Z</time>
      </trkpt>
      <trkpt lat="37.1440050" lon="-2.0369650">
        <ele>307.4</ele>
        <time>2019-10-18T09:20:29Z</time>
      </trkpt>
      <trkpt lat="37.1440400" lon="-2.0369520">
        <ele>307.5</ele>
        <time>2019-10-18T09:20:30Z</time>
      </trkpt>
      <trkpt lat="37.1440760" lon="-2.0369390">
        <ele>307.6</ele>
        <time>2019-10-18T09:20:31Z</time>
      </trkpt>
      <trkpt lat="37.1441130" lon="-2.0369260">
        <ele>307.8</ele>
        <time>2019-10-18T09:20:32Z</time>
      </trkpt>
      <trkpt lat="37.1441490" lon="-2.0369130">
        <ele>307.9</ele>
        <time>2019-10-18T09:20:33Z</time>
      </trkpt>
      <trkpt lat="37.1441860" lon="-2.0369000">
        <ele>308.0</ele>
        <time>2019-10-18T09:20:34Z</time>
      </trkpt>
      <trkpt lat="37.1442210" lon="-2.0368850">
        <ele>308.2</ele>
        <time>2019-10-18T09:20:35Z</time>
      </trkpt>
      <trkpt lat="37.1442560" lon="-2.0368700">
        <ele>308.3</ele>
        <time>2019-10-18T09:20:36Z</time>
      </trkpt>
      <trkpt lat="37.1442910" lon="-2.0368560">
        <ele>308.5</ele>
        <time>2019-10-18T09:20:37Z</time>
      </trkpt>
      <trkpt lat="37.1443240" lon="-2.0368430">
        <ele>308.6</ele>
        <time>2019-10-18T09:20:38Z</time>
      </trkpt>
      <trkpt lat="37.1443570" lon="-2.0368300">
        <ele>308.8</ele>
        <time>2019-10-18T09:20:39Z</time>
      </trkpt>
      <trkpt lat="37.1443900" lon="-2.0368170">
        <ele>308.9</ele>
        <time>2019-10-18T09:20:40Z</time>
      </trkpt>
      <trkpt lat="37.1444240" lon="-2.0368030">
        <ele>309.1</ele>
        <time>2019-10-18T09:20:41Z</time>
      </trkpt>
      <trkpt lat="37.1444590" lon="-2.0367900">
        <ele>309.3</ele>
        <time>2019-10-18T09:20:42Z</time>
      </trkpt>
      <trkpt lat="37.1444940" lon="-2.0367760">
        <ele>309.5</ele>
        <time>2019-10-18T09:20:43Z</time>
      </trkpt>
      <trkpt lat="37.1445290" lon="-2.0367630">
        <ele>309.6</ele>
        <time>2019-10-18T09:20:44Z</time>
      </trkpt>
      <trkpt lat="37.1445640" lon="-2.0367510">
        <ele>309.8</ele>
        <time>2019-10-18T09:20:45Z</time>
      </trkpt>
      <trkpt lat="37.1445990" lon="-2.0367390">
        <ele>310.0</ele>
        <time>2019-10-18T09:20:46Z</time>
      </trkpt>
      <trkpt lat="37.1446330" lon="-2.0367260">
        <ele>310.1</ele>
        <time>2019-10-18T09:20:47Z</time>
      </trkpt>
      <trkpt lat="37.1446680" lon="-2.0367140">
        <ele>310.3</ele>
        <time>2019-10-18T09:20:48Z</time>
      </trkpt>
      <trkpt lat="37.1447020" lon="-2.0367010">
        <ele>310.5</ele>
        <time>2019-10-18T09:20:49Z</time>
      </trkpt>
      <trkpt lat="37.1447370" lon="-2.0366880">
        <ele>310.7</ele>
        <time>2019-10-18T09:20:50Z</time>
      </trkpt>
      <trkpt lat="37.1447720" lon="-2.0366740">
        <ele>310.8</ele>
        <time>2019-10-18T09:20:51Z</time>
      </trkpt>
      <trkpt lat="37.1448060" lon="-2.0366610">
        <ele>311.0</ele>
        <time>2019-10-18T09:20:52Z</time>
      </trkpt>
      <trkpt lat="37.1448410" lon="-2.0366480">
        <ele>311.2</ele>
        <time>2019-10-18T09:20:53Z</time>
      </trkpt>
      <trkpt lat="37.1448740" lon="-2.0366350">
        <ele>311.3</ele>
        <time>2019-10-18T09:20:54Z</time>
      </trkpt>
      <trkpt lat="37.1449080" lon="-2.0366220">
        <ele>311.5</ele>
        <time>2019-10-18T09:20:55Z</time>
      </trkpt>
      <trkpt lat="37.1449410" lon="-2.0366090">
        <ele>311.7</ele>
        <time>2019-10-18T09:20:56Z</time>
      </trkpt>
      <trkpt lat="37.1449740" lon="-2.0365970">
        <ele>311.8</ele>
        <time>2019-10-18T09:20:57Z</time>
      </trkpt>
      <trkpt lat="37.1450070" lon="-2.0365850">
        <ele>312.0</ele>
        <time>2019-10-18T09:20:58Z</time>
      </trkpt>
      <trkpt lat="37.1450390" lon="-2.0365740">
        <ele>312.1</ele>
        <time>2019-10-18T09:20:59Z</time>
      </trkpt>
      <trkpt lat="37.1450720" lon="-2.0365620">
        <ele>312.3</ele>
        <time>2019-10-18T09:21:00Z</time>
      </trkpt>
      <trkpt lat="37.1451050" lon="-2.0365520">
        <ele>312.5</ele>
        <time>2019-10-18T09:21:01Z</time>
      </trkpt>
      <trkpt lat="37.1451400" lon="-2.0365430">
        <ele>312.6</ele>
        <time>2019-10-18T09:21:02Z</time>
      </trkpt>
      <trkpt lat="37.1451750" lon="-2.0365360">
        <ele>312.8</ele>
        <time>2019-10-18T09:21:03Z</time>
      </trkpt>
      <trkpt lat="37.1452100" lon="-2.0365300">
        <ele>312.9</ele>
        <time>2019-10-18T09:21:04Z</time>
      </trkpt>
      <trkpt lat="37.1452460" lon="-2.0365250">
        <ele>313.1</ele>
        <time>2019-10-18T09:21:05Z</time>
      </trkpt>
      <trkpt lat="37.1452810" lon="-2.0365200">
        <ele>313.2</ele>
        <time>2019-10-18T09:21:06Z</time>
      </trkpt>
      <trkpt lat="37.1453140" lon="-2.0365170">
        <ele>313.4</ele>
        <time>2019-10-18T09:21:07Z</time>
      </trkpt>
      <trkpt lat="37.1453480" lon="-2.0365140">
        <ele>313.5</ele>
        <time>2019-10-18T09:21:08Z</time>
      </trkpt>
      <trkpt lat="37.1453810" lon="-2.0365140">
        <ele>313.6</ele>
        <time>2019-10-18T09:21:09Z</time>
      </trkpt>
      <trkpt lat="37.1454150" lon="-2.0365140">
        <ele>313.8</ele>
        <time>2019-10-18T09:21:10Z</time>
      </trkpt>
      <trkpt lat="37.1454480" lon="-2.0365160">
        <ele>313.9</ele>
        <time>2019-10-18T09:21:11Z</time>
      </trkpt>
      <trkpt lat="37.1454800" lon="-2.0365190">
        <ele>314.0</ele>
        <time>2019-10-18T09:21:12Z</time>
      </trkpt>
      <trkpt lat="37.1455130" lon="-2.0365230">
        <ele>314.2</ele>
        <time>2019-10-18T09:21:13Z</time>
      </trkpt>
      <trkpt lat="37.1455460" lon="-2.0365290">
        <ele>314.3</ele>
        <time>2019-10-18T09:21:14Z</time>
      </trkpt>
      <trkpt lat="37.1455800" lon="-2.0365360">
        <ele>314.4</ele>
        <time>2019-10-18T09:21:15Z</time>
      </trkpt>
      <trkpt lat="37.1456140" lon="-2.0365450">
        <ele>314.6</ele>
        <time>2019-10-18T09:21:16Z</time>
      </trkpt>
      <trkpt lat="37.1456490" lon="-2.0365540">
        <ele>314.8</ele>
        <time>2019-10-18T09:21:17Z</time>
      </trkpt>
      <trkpt lat="37.1456840" lon="-2.0365630">
        <ele>314.9</ele>
        <time>2019-10-18T09:21:18Z</time>
      </trkpt>
      <trkpt lat="37.1457190" lon="-2.0365720">
        <ele>315.1</ele>
        <time>2019-10-18T09:21:19Z</time>
      </trkpt>
      <trkpt lat="37.1457530" lon="-2.0365810">
        <ele>315.3</ele>
        <time>2019-10-18T09:21:20Z</time>
      </trkpt>
      <trkpt lat="37.1457870" lon="-2.0365910">
        <ele>315.4</ele>
        <time>2019-10-18T09:21:21Z</time>
      </trkpt>
      <trkpt lat="37.1458210" lon="-2.0366010">
        <ele>315.6</ele>
        <time>2019-10-18T09:21:22Z</time>
      </trkpt>
      <trkpt lat="37.1458550" lon="-2.0366110">
        <ele>315.8</ele>
        <time>2019-10-18T09:21:23Z</time>
      </trkpt>
      <trkpt lat="37.1458880" lon="-2.0366220">
        <ele>315.9</ele>
        <time>2019-10-18T09:21:24Z</time>
      </trkpt>
      <trkpt lat="37.1459220" lon="-2.0366320">
        <ele>316.1</ele>
        <time>2019-10-18T09:21:25Z</time>
      </trkpt>
      <trkpt lat="37.1459550" lon="-2.0366420">
        <ele>316.3</ele>
        <time>2019-10-18T09:21:26Z</time>
      </trkpt>
      <trkpt lat="37.1459880" lon="-2.0366520">
        <ele>316.5</ele>
        <time>2019-10-18T09:21:27Z</time>
      </trkpt>
      <trkpt lat="37.1460200" lon="-2.0366620">
        <ele>316.6</ele>
        <time>2019-10-18T09:21:28Z</time>
      </trkpt>
      <trkpt lat="37.1460510" lon="-2.0366730">
        <ele>316.8</ele>
        <time>2019-10-18T09:21:29Z</time>
      </trkpt>
      <trkpt lat="37.1460820" lon="-2.0366830">
        <ele>317.0</ele>
        <time>2019-10-18T09:21:30Z</time>
      </trkpt>
      <trkpt lat="37.1461130" lon="-2.0366940">
        <ele>317.1</ele>
        <time>2019-10-18T09:21:31Z</time>
      </trkpt>
      <trkpt lat="37.1461430" lon="-2.0367060">
        <ele>317.3</ele>
        <time>2019-10-18T09:21:32Z</time>
      </trkpt>
      <trkpt lat="37.1461720" lon="-2.0367190">
        <ele>317.4</ele>
        <time>2019-10-18T09:21:33Z</time>
      </trkpt>
      <trkpt lat="37.1462010" lon="-2.0367310">
        <ele>317.6</ele>
        <time>2019-10-18T09:21:34Z</time>
      </trkpt>
      <trkpt lat="37.1462290" lon="-2.0367440">
        <ele>317.7</ele>
        <time>2019-10-18T09:21:35Z</time>
      </trkpt>
      <trkpt lat="37.1462570" lon="-2.0367570">
        <ele>317.9</ele>
        <time>2019-10-18T09:21:36Z</time>
      </trkpt>
      <trkpt lat="37.1462850" lon="-2.0367710">
        <ele>318.1</ele>
        <time>2019-10-18T09:21:37Z</time>
      </trkpt>
      <trkpt lat="37.1463130" lon="-2.0367860">
        <ele>318.2</ele>
        <time>2019-10-18T09:21:38Z</time>
      </trkpt>
      <trkpt lat="37.1463410" lon="-2.0368030">
        <ele>318.4</ele>
        <time>2019-10-18T09:21:39Z</time>
      </trkpt>
      <trkpt lat="37.1463680" lon="-2.0368210">
        <ele>318.6</ele>
        <time>2019-10-18T09:21:40Z</time>
      </trkpt>
      <trkpt lat="37.1463940" lon="-2.0368380">
        <ele>318.7</ele>
        <time>2019-10-18T09:21:41Z</time>
      </trkpt>
      <trkpt lat="37.1464200" lon="-2.0368570">
        <ele>318.9</ele>
        <time>2019-10-18T09:21:42Z</time>
      </trkpt>
      <trkpt lat="37.1464460" lon="-2.0368780">
        <ele>319.1</ele>
        <time>2019-10-18T09:21:43Z</time>
      </trkpt>
      <trkpt lat="37.1464710" lon="-2.0368990">
        <ele>319.3</ele>
        <time>2019-10-18T09:21:44Z</time>
      </trkpt>
      <trkpt lat="37.1464950" lon="-2.0369230">
        <ele>319.5</ele>
        <time>2019-10-18T09:21:45Z</time>
      </trkpt>
      <trkpt lat="37.1465190" lon="-2.0369470">
        <ele>319.6</ele>
        <time>2019-10-18T09:21:46Z</time>
      </trkpt>
      <trkpt lat="37.1465430" lon="-2.0369720">
        <ele>319.8</ele>
        <time>2019-10-18T09:21:47Z</time>
      </trkpt>
      <trkpt lat="37.1465670" lon="-2.0369970">
        <ele>320.0</ele>
        <time>2019-10-18T09:21:48Z</time>
      </trkpt>
      <trkpt lat="37.1465890" lon="-2.0370220">
        <ele>320.2</ele>
        <time>2019-10-18T09:21:49Z</time>
      </trkpt>
      <trkpt lat="37.1466110" lon="-2.0370490">
        <ele>320.4</ele>
        <time>2019-10-18T09:21:50Z</time>
      </trkpt>
      <trkpt lat="37.1466320" lon="-2.0370770">
        <ele>320.6</ele>
        <time>2019-10-18T09:21:51Z</time>
      </trkpt>
      <trkpt lat="37.1466530" lon="-2.0371070">
        <ele>320.9</ele>
        <time>2019-10-18T09:21:52Z</time>
      </trkpt>
      <trkpt lat="37.1466730" lon="-2.0371380">
        <ele>321.1</ele>
        <time>2019-10-18T09:21:53Z</time>
      </trkpt>
      <trkpt lat="37.1466920" lon="-2.0371710">
        <ele>321.3</ele>
        <time>2019-10-18T09:21:54Z</time>
      </trkpt>
      <trkpt lat="37.1467110" lon="-2.0372040">
        <ele>321.6</ele>
        <time>2019-10-18T09:21:55Z</time>
      </trkpt>
      <trkpt lat="37.1467290" lon="-2.0372380">
        <ele>321.8</ele>
        <time>2019-10-18T09:21:56Z</time>
      </trkpt>
      <trkpt lat="37.1467460" lon="-2.0372730">
        <ele>322.1</ele>
        <time>2019-10-18T09:21:57Z</time>
      </trkpt>
      <trkpt lat="37.1467620" lon="-2.0373080">
        <ele>322.3</ele>
        <time>2019-10-18T09:21:58Z</time>
      </trkpt>
      <trkpt lat="37.1467770" lon="-2.0373430">
        <ele>322.6</ele>
        <time>2019-10-18T09:21:59Z</time>
      </trkpt>
      <trkpt lat="37.1467910" lon="-2.0373790">
        <ele>322.8</ele>
        <time>2019-10-18T09:22:00Z</time>
      </trkpt>
      <trkpt lat="37.1468030" lon="-2.0374160">
        <ele>323.1</ele>
        <time>2019-10-18T09:22:01Z</time>
      </trkpt>
      <trkpt lat="37.1468140" lon="-2.0374540">
        <ele>323.4</ele>
        <time>2019-10-18T09:22:02Z</time>
      </trkpt>
      <trkpt lat="37.1468250" lon="-2.0374930">
        <ele>323.7</ele>
        <time>2019-10-18T09:22:03Z</time>
      </trkpt>
      <trkpt lat="37.1468340" lon="-2.0375340">
        <ele>324.0</ele>
        <time>2019-10-18T09:22:04Z</time>
      </trkpt>
      <trkpt lat="37.1468420" lon="-2.0375750">
        <ele>324.3</ele>
        <time>2019-10-18T09:22:05Z</time>
      </trkpt>
      <trkpt lat="37.1468500" lon="-2.0376160">
        <ele>324.5</ele>
        <time>2019-10-18T09:22:06Z</time>
      </trkpt>
      <trkpt lat="37.1468570" lon="-2.0376580">
        <ele>324.8</ele>
        <time>2019-10-18T09:22:07Z</time>
      </trkpt>
      <trkpt lat="37.1468620" lon="-2.0377000">
        <ele>325.1</ele>
        <time>2019-10-18T09:22:08Z</time>
      </trkpt>
      <trkpt lat="37.1468660" lon="-2.0377420">
        <ele>325.4</ele>
        <time>2019-10-18T09:22:09Z</time>
      </trkpt>
      <trkpt lat="37.1468690" lon="-2.0377840">
        <ele>325.6</ele>
        <time>2019-10-18T09:22:10Z</time>
      </trkpt>
      <trkpt lat="37.1468700" lon="-2.0378260">
        <ele>325.9</ele>
        <time>2019-10-18T09:22:11Z</time>
      </trkpt>
      <trkpt lat="37.1468700" lon="-2.0378680">
        <ele>326.1</ele>
        <time>2019-10-18T09:22:12Z</time>
      </trkpt>
      <trkpt lat="37.1468680" lon="-2.0379100">
        <ele>326.4</ele>
        <time>2019-10-18T09:22:13Z</time>
      </trkpt>
      <trkpt lat="37.1468660" lon="-2.0379510">
        <ele>326.6</ele>
        <time>2019-10-18T09:22:14Z</time>
      </trkpt>
      <trkpt lat="37.1468620" lon="-2.0379920">
        <ele>326.8</ele>
        <time>2019-10-18T09:22:15Z</time>
      </trkpt>
      <trkpt lat="37.1468590" lon="-2.0380320">
        <ele>327.0</ele>
        <time>2019-10-18T09:22:16Z</time>
      </trkpt>
      <trkpt lat="37.1468550" lon="-2.0380740">
        <ele>327.2</ele>
        <time>2019-10-18T09:22:17Z</time>
      </trkpt>
      <trkpt lat="37.1468530" lon="-2.0381150">
        <ele>327.3</ele>
        <time>2019-10-18T09:22:18Z</time>
      </trkpt>
      <trkpt lat="37.1468490" lon="-2.0381560">
        <ele>327.5</ele>
        <time>2019-10-18T09:22:19Z</time>
      </trkpt>
      <trkpt lat="37.1468430" lon="-2.0381970">
        <ele>327.7</ele>
        <time>2019-10-18T09:22:20Z</time>
      </trkpt>
      <trkpt lat="37.1468380" lon="-2.0382380">
        <ele>327.8</ele>
        <time>2019-10-18T09:22:21Z</time>
      </trkpt>
      <trkpt lat="37.1468330" lon="-2.0382780">
        <ele>328.0</ele>
        <time>2019-10-18T09:22:22Z</time>
      </trkpt>
      <trkpt lat="37.1468290" lon="-2.0383190">
        <ele>328.1</ele>
        <time>2019-10-18T09:22:23Z</time>
      </trkpt>
      <trkpt lat="37.1468250" lon="-2.0383590">
        <ele>328.2</ele>
        <time>2019-10-18T09:22:24Z</time>
      </trkpt>
      <trkpt lat="37.1468210" lon="-2.0383980">
        <ele>328.4</ele>
        <time>2019-10-18T09:22:25Z</time>
      </trkpt>
      <trkpt lat="37.1468170" lon="-2.0384380">
        <ele>328.5</ele>
        <time>2019-10-18T09:22:26Z</time>
      </trkpt>
      <trkpt lat="37.1468120" lon="-2.0384770">
        <ele>328.6</ele>
        <time>2019-10-18T09:22:27Z</time>
      </trkpt>
      <trkpt lat="37.1468080" lon="-2.0385170">
        <ele>328.7</ele>
        <time>2019-10-18T09:22:28Z</time>
      </trkpt>
      <trkpt lat="37.1468030" lon="-2.0385570">
        <ele>328.8</ele>
        <time>2019-10-18T09:22:29Z</time>
      </trkpt>
      <trkpt lat="37.1467980" lon="-2.0385960">
        <ele>328.9</ele>
        <time>2019-10-18T09:22:30Z</time>
      </trkpt>
      <trkpt lat="37.1467930" lon="-2.0386350">
        <ele>329.0</ele>
        <time>2019-10-18T09:22:31Z</time>
      </trkpt>
      <trkpt lat="37.1467870" lon="-2.0386740">
        <ele>329.1</ele>
        <time>2019-10-18T09:22:32Z</time>
      </trkpt>
      <trkpt lat="37.1467810" lon="-2.0387130">
        <ele>329.2</ele>
        <time>2019-10-18T09:22:33Z</time>
      </trkpt>
      <trkpt lat="37.1467760" lon="-2.0387520">
        <ele>329.3</ele>
        <time>2019-10-18T09:22:34Z</time>
      </trkpt>
      <trkpt lat="37.1467710" lon="-2.0387920">
        <ele>329.4</ele>
        <time>2019-10-18T09:22:35Z</time>
      </trkpt>
      <trkpt lat="37.1467660" lon="-2.0388330">
        <ele>329.5</ele>
        <time>2019-10-18T09:22:36Z</time>
      </trkpt>
      <trkpt lat="37.1467620" lon="-2.0388740">
        <ele>329.7</ele>
        <time>2019-10-18T09:22:37Z</time>
      </trkpt>
      <trkpt lat="37.1467570" lon="-2.0389150">
        <ele>329.8</ele>
        <time>2019-10-18T09:22:38Z</time>
      </trkpt>
      <trkpt lat="37.1467530" lon="-2.0389560">
        <ele>329.9</ele>
        <time>2019-10-18T09:22:39Z</time>
      </trkpt>
      <trkpt lat="37.1467490" lon="-2.0389960">
        <ele>330.0</ele>
        <time>2019-10-18T09:22:40Z</time>
      </trkpt>
      <trkpt lat="37.1467440" lon="-2.0390370">
        <ele>330.1</ele>
        <time>2019-10-18T09:22:41Z</time>
      </trkpt>
      <trkpt lat="37.1467380" lon="-2.0390780">
        <ele>330.3</ele>
        <time>2019-10-18T09:22:42Z</time>
      </trkpt>
      <trkpt lat="37.1467330" lon="-2.0391180">
        <ele>330.4</ele>
        <time>2019-10-18T09:22:43Z</time>
      </trkpt>
      <trkpt lat="37.1467270" lon="-2.0391580">
        <ele>330.6</ele>
        <time>2019-10-18T09:22:44Z</time>
      </trkpt>
      <trkpt lat="37.1467210" lon="-2.0391990">
        <ele>330.7</ele>
        <time>2019-10-18T09:22:45Z</time>
      </trkpt>
      <trkpt lat="37.1467160" lon="-2.0392400">
        <ele>330.9</ele>
        <time>2019-10-18T09:22:46Z</time>
      </trkpt>
      <trkpt lat="37.1467110" lon="-2.0392810">
        <ele>331.0</ele>
        <time>2019-10-18T09:22:47Z</time>
      </trkpt>
      <trkpt lat="37.1467050" lon="-2.0393220">
        <ele>331.2</ele>
        <time>2019-10-18T09:22:48Z</time>
      </trkpt>
      <trkpt lat="37.1467000" lon="-2.0393630">
        <ele>331.4</ele>
        <time>2019-10-18T09:22:49Z</time>
      </trkpt>
      <trkpt lat="37.1466950" lon="-2.0394060">
        <ele>331.6</ele>
        <time>2019-10-18T09:22:50Z</time>
      </trkpt>
      <trkpt lat="37.1466890" lon="-2.0394500">
        <ele>331.8</ele>
        <time>2019-10-18T09:22:51Z</time>
      </trkpt>
      <trkpt lat="37.1466830" lon="-2.0394940">
        <ele>332.0</ele>
        <time>2019-10-18T09:22:52Z</time>
      </trkpt>
      <trkpt lat="37.1466760" lon="-2.0395380">
        <ele>332.2</ele>
        <time>2019-10-18T09:22:53Z</time>
      </trkpt>
      <trkpt lat="37.1466700" lon="-2.0395800">
        <ele>332.4</ele>
        <time>2019-10-18T09:22:54Z</time>
      </trkpt>
      <trkpt lat="37.1466650" lon="-2.0396220">
        <ele>332.6</ele>
        <time>2019-10-18T09:22:55Z</time>
      </trkpt>
      <trkpt lat="37.1466590" lon="-2.0396640">
        <ele>332.8</ele>
        <time>2019-10-18T09:22:56Z</time>
      </trkpt>
      <trkpt lat="37.1466520" lon="-2.0397060">
        <ele>333.0</ele>
        <time>2019-10-18T09:22:57Z</time>
      </trkpt>
      <trkpt lat="37.1466430" lon="-2.0397490">
        <ele>333.3</ele>
        <time>2019-10-18T09:22:58Z</time>
      </trkpt>
      <trkpt lat="37.1466340" lon="-2.0397920">
        <ele>333.6</ele>
        <time>2019-10-18T09:22:59Z</time>
      </trkpt>
      <trkpt lat="37.1466230" lon="-2.0398350">
        <ele>333.6</ele>
        <time>2019-10-18T09:23:00Z</time>
      </trkpt>
      <trkpt lat="37.1466120" lon="-2.0398790">
        <ele>333.6</ele>
        <time>2019-10-18T09:23:01Z</time>
      </trkpt>
      <trkpt lat="37.1466000" lon="-2.0399220">
        <ele>333.6</ele>
        <time>2019-10-18T09:23:02Z</time>
      </trkpt>
      <trkpt lat="37.1465870" lon="-2.0399640">
        <ele>333.6</ele>
        <time>2019-10-18T09:23:03Z</time>
      </trkpt>
      <trkpt lat="37.1465730" lon="-2.0400060">
        <ele>333.5</ele>
        <time>2019-10-18T09:23:04Z</time>
      </trkpt>
      <trkpt lat="37.1465580" lon="-2.0400470">
        <ele>333.5</ele>
        <time>2019-10-18T09:23:05Z</time>
      </trkpt>
      <trkpt lat="37.1465410" lon="-2.0400890">
        <ele>333.6</ele>
        <time>2019-10-18T09:23:06Z</time>
      </trkpt>
      <trkpt lat="37.1465240" lon="-2.0401300">
        <ele>333.6</ele>
        <time>2019-10-18T09:23:07Z</time>
      </trkpt>
      <trkpt lat="37.1465050" lon="-2.0401710">
        <ele>333.7</ele>
        <time>2019-10-18T09:23:08Z</time>
      </trkpt>
      <trkpt lat="37.1464860" lon="-2.0402130">
        <ele>333.7</ele>
        <time>2019-10-18T09:23:09Z</time>
      </trkpt>
      <trkpt lat="37.1464660" lon="-2.0402540">
        <ele>333.7</ele>
        <time>2019-10-18T09:23:10Z</time>
      </trkpt>
      <trkpt lat="37.1464460" lon="-2.0402950">
        <ele>333.7</ele>
        <time>2019-10-18T09:23:11Z</time>
      </trkpt>
      <trkpt lat="37.1464260" lon="-2.0403360">
        <ele>333.8</ele>
        <time>2019-10-18T09:23:12Z</time>
      </trkpt>
      <trkpt lat="37.1464070" lon="-2.0403770">
        <ele>333.8</ele>
        <time>2019-10-18T09:23:13Z</time>
      </trkpt>
      <trkpt lat="37.1463870" lon="-2.0404170">
        <ele>333.8</ele>
        <time>2019-10-18T09:23:14Z</time>
      </trkpt>
      <trkpt lat="37.1463680" lon="-2.0404560">
        <ele>333.9</ele>
        <time>2019-10-18T09:23:15Z</time>
      </trkpt>
      <trkpt lat="37.1463490" lon="-2.0404930">
        <ele>333.9</ele>
        <time>2019-10-18T09:23:16Z</time>
      </trkpt>
      <trkpt lat="37.1463310" lon="-2.0405290">
        <ele>334.0</ele>
        <time>2019-10-18T09:23:17Z</time>
      </trkpt>
      <trkpt lat="37.1463120" lon="-2.0405660">
        <ele>334.0</ele>
        <time>2019-10-18T09:23:18Z</time>
      </trkpt>
      <trkpt lat="37.1462930" lon="-2.0406020">
        <ele>334.1</ele>
        <time>2019-10-18T09:23:19Z</time>
      </trkpt>
      <trkpt lat="37.1462740" lon="-2.0406380">
        <ele>334.2</ele>
        <time>2019-10-18T09:23:20Z</time>
      </trkpt>
      <trkpt lat="37.1462550" lon="-2.0406740">
        <ele>334.2</ele>
        <time>2019-10-18T09:23:21Z</time>
      </trkpt>
      <trkpt lat="37.1462360" lon="-2.0407090">
        <ele>334.3</ele>
        <time>2019-10-18T09:23:22Z</time>
      </trkpt>
      <trkpt lat="37.1462180" lon="-2.0407450">
        <ele>334.3</ele>
        <time>2019-10-18T09:23:23Z</time>
      </trkpt>
      <trkpt lat="37.1462000" lon="-2.0407800">
        <ele>334.4</ele>
        <time>2019-10-18T09:23:24Z</time>
      </trkpt>
      <trkpt lat="37.1461810" lon="-2.0408150">
        <ele>334.4</ele>
        <time>2019-10-18T09:23:25Z</time>
      </trkpt>
      <trkpt lat="37.1461630" lon="-2.0408510">
        <ele>334.5</ele>
        <time>2019-10-18T09:23:26Z</time>
      </trkpt>
      <trkpt lat="37.1461440" lon="-2.0408860">
        <ele>334.6</ele>
        <time>2019-10-18T09:23:27Z</time>
      </trkpt>
      <trkpt lat="37.1461260" lon="-2.0409220">
        <ele>334.6</ele>
        <time>2019-10-18T09:23:28Z</time>
      </trkpt>
      <trkpt lat="37.1461090" lon="-2.0409580">
        <ele>334.7</ele>
        <time>2019-10-18T09:23:29Z</time>
      </trkpt>
      <trkpt lat="37.1460920" lon="-2.0409950">
        <ele>334.7</ele>
        <time>2019-10-18T09:23:30Z</time>
      </trkpt>
      <trkpt lat="37.1460750" lon="-2.0410320">
        <ele>334.8</ele>
        <time>2019-10-18T09:23:31Z</time>
      </trkpt>
      <trkpt lat="37.1460580" lon="-2.0410690">
        <ele>335.0</ele>
        <time>2019-10-18T09:23:32Z</time>
      </trkpt>
      <trkpt lat="37.1460410" lon="-2.0411070">
        <ele>335.1</ele>
        <time>2019-10-18T09:23:33Z</time>
      </trkpt>
      <trkpt lat="37.1460240" lon="-2.0411430">
        <ele>335.1</ele>
        <time>2019-10-18T09:23:34Z</time>
      </trkpt>
      <trkpt lat="37.1460060" lon="-2.0411790">
        <ele>335.2</ele>
        <time>2019-10-18T09:23:35Z</time>
      </trkpt>
      <trkpt lat="37.1459890" lon="-2.0412150">
        <ele>335.3</ele>
        <time>2019-10-18T09:23:36Z</time>
      </trkpt>
      <trkpt lat="37.1459710" lon="-2.0412520">
        <ele>335.3</ele>
        <time>2019-10-18T09:23:37Z</time>
      </trkpt>
      <trkpt lat="37.1459540" lon="-2.0412900">
        <ele>335.4</ele>
        <time>2019-10-18T09:23:38Z</time>
      </trkpt>
      <trkpt lat="37.1459370" lon="-2.0413260">
        <ele>335.5</ele>
        <time>2019-10-18T09:23:39Z</time>
      </trkpt>
      <trkpt lat="37.1459200" lon="-2.0413630">
        <ele>335.5</ele>
        <time>2019-10-18T09:23:40Z</time>
      </trkpt>
      <trkpt lat="37.1459040" lon="-2.0414000">
        <ele>335.6</ele>
        <time>2019-10-18T09:23:41Z</time>
      </trkpt>
      <trkpt lat="37.1458880" lon="-2.0414360">
        <ele>335.6</ele>
        <time>2019-10-18T09:23:42Z</time>
      </trkpt>
      <trkpt lat="37.1458730" lon="-2.0414740">
        <ele>335.7</ele>
        <time>2019-10-18T09:23:43Z</time>
      </trkpt>
      <trkpt lat="37.1458580" lon="-2.0415110">
        <ele>335.8</ele>
        <time>2019-10-18T09:23:44Z</time>
      </trkpt>
      <trkpt lat="37.1458440" lon="-2.0415490">
        <ele>335.8</ele>
        <time>2019-10-18T09:23:45Z</time>
      </trkpt>
      <trkpt lat="37.1458300" lon="-2.0415860">
        <ele>335.9</ele>
        <time>2019-10-18T09:23:46Z</time>
      </trkpt>
      <trkpt lat="37.1458160" lon="-2.0416230">
        <ele>336.0</ele>
        <time>2019-10-18T09:23:47Z</time>
      </trkpt>
      <trkpt lat="37.1458020" lon="-2.0416610">
        <ele>336.1</ele>
        <time>2019-10-18T09:23:48Z</time>
      </trkpt>
      <trkpt lat="37.1457870" lon="-2.0417000">
        <ele>336.2</ele>
        <time>2019-10-18T09:23:49Z</time>
      </trkpt>
      <trkpt lat="37.1457730" lon="-2.0417390">
        <ele>336.3</ele>
        <time>2019-10-18T09:23:50Z</time>
      </trkpt>
      <trkpt lat="37.1457610" lon="-2.0417790">
        <ele>336.3</ele>
        <time>2019-10-18T09:23:51Z</time>
      </trkpt>
      <trkpt lat="37.1457500" lon="-2.0418200">
        <ele>336.4</ele>
        <time>2019-10-18T09:23:52Z</time>
      </trkpt>
      <trkpt lat="37.1457390" lon="-2.0418610">
        <ele>336.4</ele>
        <time>2019-10-18T09:23:53Z</time>
      </trkpt>
      <trkpt lat="37.1457280" lon="-2.0419010">
        <ele>336.5</ele>
        <time>2019-10-18T09:23:54Z</time>
      </trkpt>
      <trkpt lat="37.1457170" lon="-2.0419420">
        <ele>336.6</ele>
        <time>2019-10-18T09:23:55Z</time>
      </trkpt>
      <trkpt lat="37.1457060" lon="-2.0419820">
        <ele>336.6</ele>
        <time>2019-10-18T09:23:56Z</time>
      </trkpt>
      <trkpt lat="37.1456980" lon="-2.0420240">
        <ele>336.7</ele>
        <time>2019-10-18T09:23:57Z</time>
      </trkpt>
      <trkpt lat="37.1456890" lon="-2.0420650">
        <ele>336.8</ele>
        <time>2019-10-18T09:23:58Z</time>
      </trkpt>
      <trkpt lat="37.1456810" lon="-2.0421060">
        <ele>336.9</ele>
        <time>2019-10-18T09:23:59Z</time>
      </trkpt>
      <trkpt lat="37.1456720" lon="-2.0421480">
        <ele>337.1</ele>
        <time>2019-10-18T09:24:00Z</time>
      </trkpt>
      <trkpt lat="37.1456640" lon="-2.0421900">
        <ele>337.2</ele>
        <time>2019-10-18T09:24:01Z</time>
      </trkpt>
      <trkpt lat="37.1456550" lon="-2.0422330">
        <ele>337.3</ele>
        <time>2019-10-18T09:24:02Z</time>
      </trkpt>
      <trkpt lat="37.1456460" lon="-2.0422760">
        <ele>337.4</ele>
        <time>2019-10-18T09:24:03Z</time>
      </trkpt>
      <trkpt lat="37.1456380" lon="-2.0423190">
        <ele>337.5</ele>
        <time>2019-10-18T09:24:04Z</time>
      </trkpt>
      <trkpt lat="37.1456290" lon="-2.0423620">
        <ele>337.6</ele>
        <time>2019-10-18T09:24:05Z</time>
      </trkpt>
      <trkpt lat="37.1456210" lon="-2.0424050">
        <ele>337.7</ele>
        <time>2019-10-18T09:24:06Z</time>
      </trkpt>
      <trkpt lat="37.1456120" lon="-2.0424470">
        <ele>337.8</ele>
        <time>2019-10-18T09:24:07Z</time>
      </trkpt>
      <trkpt lat="37.1456040" lon="-2.0424890">
        <ele>337.9</ele>
        <time>2019-10-18T09:24:08Z</time>
      </trkpt>
      <trkpt lat="37.1455960" lon="-2.0425300">
        <ele>338.0</ele>
        <time>2019-10-18T09:24:09Z</time>
      </trkpt>
      <trkpt lat="37.1455890" lon="-2.0425710">
        <ele>338.1</ele>
        <time>2019-10-18T09:24:10Z</time>
      </trkpt>
      <trkpt lat="37.1455810" lon="-2.0426120">
        <ele>338.2</ele>
        <time>2019-10-18T09:24:11Z</time>
      </trkpt>
      <trkpt lat="37.1455720" lon="-2.0426540">
        <ele>338.3</ele>
        <time>2019-10-18T09:24:12Z</time>
      </trkpt>
      <trkpt lat="37.1455640" lon="-2.0426960">
        <ele>338.4</ele>
        <time>2019-10-18T09:24:13Z</time>
      </trkpt>
      <trkpt lat="37.1455550" lon="-2.0427380">
        <ele>338.5</ele>
        <time>2019-10-18T09:24:14Z</time>
      </trkpt>
      <trkpt lat="37.1455470" lon="-2.0427790">
        <ele>338.5</ele>
        <time>2019-10-18T09:24:15Z</time>
      </trkpt>
      <trkpt lat="37.1455390" lon="-2.0428190">
        <ele>338.6</ele>
        <time>2019-10-18T09:24:16Z</time>
      </trkpt>
      <trkpt lat="37.1455310" lon="-2.0428570">
        <ele>338.7</ele>
        <time>2019-10-18T09:24:17Z</time>
      </trkpt>
      <trkpt lat="37.1455220" lon="-2.0428940">
        <ele>338.8</ele>
        <time>2019-10-18T09:24:18Z</time>
      </trkpt>
      <trkpt lat="37.1455130" lon="-2.0429320">
        <ele>338.9</ele>
        <time>2019-10-18T09:24:19Z</time>
      </trkpt>
      <trkpt lat="37.1455050" lon="-2.0429690">
        <ele>338.9</ele>
        <time>2019-10-18T09:24:20Z</time>
      </trkpt>
      <trkpt lat="37.1454970" lon="-2.0430060">
        <ele>339.0</ele>
        <time>2019-10-18T09:24:21Z</time>
      </trkpt>
      <trkpt lat="37.1454880" lon="-2.0430410">
        <ele>339.1</ele>
        <time>2019-10-18T09:24:22Z</time>
      </trkpt>
      <trkpt lat="37.1454770" lon="-2.0430760">
        <ele>339.2</ele>
        <time>2019-10-18T09:24:23Z</time>
      </trkpt>
      <trkpt lat="37.1454620" lon="-2.0431110">
        <ele>339.3</ele>
        <time>2019-10-18T09:24:24Z</time>
      </trkpt>
      <trkpt lat="37.1454460" lon="-2.0431480">
        <ele>339.4</ele>
        <time>2019-10-18T09:24:25Z</time>
      </trkpt>
      <trkpt lat="37.1454290" lon="-2.0431860">
        <ele>339.6</ele>
        <time>2019-10-18T09:24:26Z</time>
      </trkpt>
      <trkpt lat="37.1454110" lon="-2.0432220">
        <ele>339.7</ele>
        <time>2019-10-18T09:24:27Z</time>
      </trkpt>
      <trkpt lat="37.1453920" lon="-2.0432570">
        <ele>339.9</ele>
        <time>2019-10-18T09:24:28Z</time>
      </trkpt>
      <trkpt lat="37.1453720" lon="-2.0432900">
        <ele>340.1</ele>
        <time>2019-10-18T09:24:29Z</time>
      </trkpt>
      <trkpt lat="37.1453500" lon="-2.0433210">
        <ele>340.3</ele>
        <time>2019-10-18T09:24:30Z</time>
      </trkpt>
      <trkpt lat="37.1453280" lon="-2.0433510">
        <ele>340.5</ele>
        <time>2019-10-18T09:24:31Z</time>
      </trkpt>
      <trkpt lat="37.1453050" lon="-2.0433810">
        <ele>340.6</ele>
        <time>2019-10-18T09:24:32Z</time>
      </trkpt>
      <trkpt lat="37.1452820" lon="-2.0434100">
        <ele>341.0</ele>
        <time>2019-10-18T09:24:33Z</time>
      </trkpt>
      <trkpt lat="37.1452570" lon="-2.0434380">
        <ele>341.4</ele>
        <time>2019-10-18T09:24:34Z</time>
      </trkpt>
      <trkpt lat="37.1452320" lon="-2.0434620">
        <ele>341.8</ele>
        <time>2019-10-18T09:24:35Z</time>
      </trkpt>
      <trkpt lat="37.1452050" lon="-2.0434820">
        <ele>342.1</ele>
        <time>2019-10-18T09:24:36Z</time>
      </trkpt>
      <trkpt lat="37.1451770" lon="-2.0434990">
        <ele>342.5</ele>
        <time>2019-10-18T09:24:37Z</time>
      </trkpt>
      <trkpt lat="37.1451470" lon="-2.0435140">
        <ele>342.8</ele>
        <time>2019-10-18T09:24:38Z</time>
      </trkpt>
      <trkpt lat="37.1451180" lon="-2.0435290">
        <ele>343.2</ele>
        <time>2019-10-18T09:24:39Z</time>
      </trkpt>
      <trkpt lat="37.1450890" lon="-2.0435420">
        <ele>343.5</ele>
        <time>2019-10-18T09:24:40Z</time>
      </trkpt>
      <trkpt lat="37.1450610" lon="-2.0435540">
        <ele>343.8</ele>
        <time>2019-10-18T09:24:41Z</time>
      </trkpt>
      <trkpt lat="37.1450330" lon="-2.0435630">
        <ele>344.1</ele>
        <time>2019-10-18T09:24:42Z</time>
      </trkpt>
      <trkpt lat="37.1450060" lon="-2.0435710">
        <ele>344.3</ele>
        <time>2019-10-18T09:24:43Z</time>
      </trkpt>
      <trkpt lat="37.1449790" lon="-2.0435770">
        <ele>344.4</ele>
        <time>2019-10-18T09:24:44Z</time>
      </trkpt>
      <trkpt lat="37.1449520" lon="-2.0435810">
        <ele>344.6</ele>
        <time>2019-10-18T09:24:45Z</time>
      </trkpt>
      <trkpt lat="37.1449240" lon="-2.0435850">
        <ele>344.8</ele>
        <time>2019-10-18T09:24:46Z</time>
      </trkpt>
      <trkpt lat="37.1448960" lon="-2.0435880">
        <ele>345.0</ele>
        <time>2019-10-18T09:24:47Z</time>
      </trkpt>
      <trkpt lat="37.1448670" lon="-2.0435910">
        <ele>345.1</ele>
        <time>2019-10-18T09:24:48Z</time>
      </trkpt>
      <trkpt lat="37.1448380" lon="-2.0435940">
        <ele>345.3</ele>
        <time>2019-10-18T09:24:49Z</time>
      </trkpt>
      <trkpt lat="37.1448080" lon="-2.0435970">
        <ele>345.5</ele>
        <time>2019-10-18T09:24:50Z</time>
      </trkpt>
      <trkpt lat="37.1447790" lon="-2.0436000">
        <ele>345.6</ele>
        <time>2019-10-18T09:24:51Z</time>
      </trkpt>
      <trkpt lat="37.1447490" lon="-2.0436040">
        <ele>345.8</ele>
        <time>2019-10-18T09:24:52Z</time>
      </trkpt>
      <trkpt lat="37.1447200" lon="-2.0436080">
        <ele>346.0</ele>
        <time>2019-10-18T09:24:53Z</time>
      </trkpt>
      <trkpt lat="37.1446910" lon="-2.0436110">
        <ele>346.1</ele>
        <time>2019-10-18T09:24:54Z</time>
      </trkpt>
      <trkpt lat="37.1446630" lon="-2.0436150">
        <ele>346.3</ele>
        <time>2019-10-18T09:24:55Z</time>
      </trkpt>
      <trkpt lat="37.1446340" lon="-2.0436180">
        <ele>346.5</ele>
        <time>2019-10-18T09:24:56Z</time>
      </trkpt>
      <trkpt lat="37.1446060" lon="-2.0436200">
        <ele>346.7</ele>
        <time>2019-10-18T09:24:57Z</time>
      </trkpt>
      <trkpt lat="37.1445770" lon="-2.0436230">
        <ele>346.9</ele>
        <time>2019-10-18T09:24:58Z</time>
      </trkpt>
      <trkpt lat="37.1445480" lon="-2.0436260">
        <ele>347.1</ele>
        <time>2019-10-18T09:24:59Z</time>
      </trkpt>
      <trkpt lat="37.1445190" lon="-2.0436300">
        <ele>347.4</ele>
        <time>2019-10-18T09:25:00Z</time>
      </trkpt>
      <trkpt lat="37.1444890" lon="-2.0436340">
        <ele>347.6</ele>
        <time>2019-10-18T09:25:01Z</time>
      </trkpt>
      <trkpt lat="37.1444600" lon="-2.0436390">
        <ele>347.8</ele>
        <time>2019-10-18T09:25:02Z</time>
      </trkpt>
      <trkpt lat="37.1444300" lon="-2.0436450">
        <ele>348.0</ele>
        <time>2019-10-18T09:25:03Z</time>
      </trkpt>
      <trkpt lat="37.1444010" lon="-2.0436500">
        <ele>348.2</ele>
        <time>2019-10-18T09:25:04Z</time>
      </trkpt>
      <trkpt lat="37.1443720" lon="-2.0436570">
        <ele>348.4</ele>
        <time>2019-10-18T09:25:05Z</time>
      </trkpt>
      <trkpt lat="37.1443430" lon="-2.0436650">
        <ele>348.6</ele>
        <time>2019-10-18T09:25:06Z</time>
      </trkpt>
      <trkpt lat="37.1443140" lon="-2.0436730">
        <ele>348.8</ele>
        <time>2019-10-18T09:25:07Z</time>
      </trkpt>
      <trkpt lat="37.1442860" lon="-2.0436810">
        <ele>349.0</ele>
        <time>2019-10-18T09:25:08Z</time>
      </trkpt>
      <trkpt lat="37.1442570" lon="-2.0436910">
        <ele>349.2</ele>
        <time>2019-10-18T09:25:09Z</time>
      </trkpt>
      <trkpt lat="37.1442280" lon="-2.0437030">
        <ele>349.4</ele>
        <time>2019-10-18T09:25:10Z</time>
      </trkpt>
      <trkpt lat="37.1442000" lon="-2.0437180">
        <ele>349.6</ele>
        <time>2019-10-18T09:25:11Z</time>
      </trkpt>
      <trkpt lat="37.1441720" lon="-2.0437350">
        <ele>349.8</ele>
        <time>2019-10-18T09:25:12Z</time>
      </trkpt>
      <trkpt lat="37.1441450" lon="-2.0437530">
        <ele>350.0</ele>
        <time>2019-10-18T09:25:13Z</time>
      </trkpt>
      <trkpt lat="37.1441190" lon="-2.0437710">
        <ele>350.2</ele>
        <time>2019-10-18T09:25:14Z</time>
      </trkpt>
      <trkpt lat="37.1440920" lon="-2.0437910">
        <ele>350.4</ele>
        <time>2019-10-18T09:25:15Z</time>
      </trkpt>
      <trkpt lat="37.1440640" lon="-2.0438120">
        <ele>350.6</ele>
        <time>2019-10-18T09:25:16Z</time>
      </trkpt>
      <trkpt lat="37.1440370" lon="-2.0438350">
        <ele>350.8</ele>
        <time>2019-10-18T09:25:17Z</time>
      </trkpt>
      <trkpt lat="37.1440110" lon="-2.0438580">
        <ele>350.9</ele>
        <time>2019-10-18T09:25:18Z</time>
      </trkpt>
      <trkpt lat="37.1439850" lon="-2.0438810">
        <ele>351.1</ele>
        <time>2019-10-18T09:25:19Z</time>
      </trkpt>
      <trkpt lat="37.1439600" lon="-2.0439050">
        <ele>351.3</ele>
        <time>2019-10-18T09:25:20Z</time>
      </trkpt>
      <trkpt lat="37.1439360" lon="-2.0439280">
        <ele>351.5</ele>
        <time>2019-10-18T09:25:21Z</time>
      </trkpt>
      <trkpt lat="37.1439110" lon="-2.0439500">
        <ele>351.6</ele>
        <time>2019-10-18T09:25:22Z</time>
      </trkpt>
      <trkpt lat="37.1438850" lon="-2.0439730">
        <ele>351.8</ele>
        <time>2019-10-18T09:25:23Z</time>
      </trkpt>
      <trkpt lat="37.1438590" lon="-2.0439970">
        <ele>352.0</ele>
        <time>2019-10-18T09:25:24Z</time>
      </trkpt>
      <trkpt lat="37.1438330" lon="-2.0440240">
        <ele>352.1</ele>
        <time>2019-10-18T09:25:25Z</time>
      </trkpt>
      <trkpt lat="37.1438060" lon="-2.0440510">
        <ele>352.3</ele>
        <time>2019-10-18T09:25:26Z</time>
      </trkpt>
      <trkpt lat="37.1437790" lon="-2.0440770">
        <ele>352.5</ele>
        <time>2019-10-18T09:25:27Z</time>
      </trkpt>
      <trkpt lat="37.1437510" lon="-2.0441020">
        <ele>352.6</ele>
        <time>2019-10-18T09:25:28Z</time>
      </trkpt>
      <trkpt lat="37.1437230" lon="-2.0441280">
        <ele>352.8</ele>
        <time>2019-10-18T09:25:29Z</time>
      </trkpt>
      <trkpt lat="37.1436940" lon="-2.0441550">
        <ele>352.9</ele>
        <time>2019-10-18T09:25:30Z</time>
      </trkpt>
      <trkpt lat="37.1436650" lon="-2.0441820">
        <ele>353.0</ele>
        <time>2019-10-18T09:25:31Z</time>
      </trkpt>
      <trkpt lat="37.1436360" lon="-2.0442100">
        <ele>353.1</ele>
        <time>2019-10-18T09:25:32Z</time>
      </trkpt>
      <trkpt lat="37.1436070" lon="-2.0442390">
        <ele>353.1</ele>
        <time>2019-10-18T09:25:33Z</time>
      </trkpt>
      <trkpt lat="37.1435780" lon="-2.0442670">
        <ele>353.2</ele>
        <time>2019-10-18T09:25:34Z</time>
      </trkpt>
      <trkpt lat="37.1435500" lon="-2.0442950">
        <ele>353.2</ele>
        <time>2019-10-18T09:25:35Z</time>
      </trkpt>
      <trkpt lat="37.1435210" lon="-2.0443220">
        <ele>353.3</ele>
        <time>2019-10-18T09:25:36Z</time>
      </trkpt>
      <trkpt lat="37.1434930" lon="-2.0443500">
        <ele>353.3</ele>
        <time>2019-10-18T09:25:37Z</time>
      </trkpt>
      <trkpt lat="37.1434640" lon="-2.0443780">
        <ele>353.4</ele>
        <time>2019-10-18T09:25:38Z</time>
      </trkpt>
      <trkpt lat="37.1434340" lon="-2.0444060">
        <ele>353.4</ele>
        <time>2019-10-18T09:25:39Z</time>
      </trkpt>
      <trkpt lat="37.1434030" lon="-2.0444350">
        <ele>353.5</ele>
        <time>2019-10-18T09:25:40Z</time>
      </trkpt>
      <trkpt lat="37.1433710" lon="-2.0444650">
        <ele>353.5</ele>
        <time>2019-10-18T09:25:41Z</time>
      </trkpt>
      <trkpt lat="37.1433370" lon="-2.0444960">
        <ele>353.6</ele>
        <time>2019-10-18T09:25:42Z</time>
      </trkpt>
      <trkpt lat="37.1433030" lon="-2.0445280">
        <ele>353.6</ele>
        <time>2019-10-18T09:25:43Z</time>
      </trkpt>
      <trkpt lat="37.1432680" lon="-2.0445600">
        <ele>353.6</ele>
        <time>2019-10-18T09:25:44Z</time>
      </trkpt>
      <trkpt lat="37.1432330" lon="-2.0445930">
        <ele>353.6</ele>
        <time>2019-10-18T09:25:45Z</time>
      </trkpt>
      <trkpt lat="37.1431970" lon="-2.0446250">
        <ele>353.5</ele>
        <time>2019-10-18T09:25:46Z</time>
      </trkpt>
      <trkpt lat="37.1431600" lon="-2.0446590">
        <ele>353.5</ele>
        <time>2019-10-18T09:25:47Z</time>
      </trkpt>
      <trkpt lat="37.1431220" lon="-2.0446930">
        <ele>353.5</ele>
        <time>2019-10-18T09:25:48Z</time>
      </trkpt>
      <trkpt lat="37.1430840" lon="-2.0447280">
        <ele>353.3</ele>
        <time>2019-10-18T09:25:49Z</time>
      </trkpt>
      <trkpt lat="37.1430460" lon="-2.0447650">
        <ele>353.2</ele>
        <time>2019-10-18T09:25:50Z</time>
      </trkpt>
      <trkpt lat="37.1430070" lon="-2.0448030">
        <ele>353.0</ele>
        <time>2019-10-18T09:25:51Z</time>
      </trkpt>
      <trkpt lat="37.1429680" lon="-2.0448410">
        <ele>353.0</ele>
        <time>2019-10-18T09:25:52Z</time>
      </trkpt>
      <trkpt lat="37.1429280" lon="-2.0448790">
        <ele>352.9</ele>
        <time>2019-10-18T09:25:53Z</time>
      </trkpt>
      <trkpt lat="37.1428890" lon="-2.0449170">
        <ele>352.9</ele>
        <time>2019-10-18T09:25:54Z</time>
      </trkpt>
      <trkpt lat="37.1428510" lon="-2.0449530">
        <ele>352.8</ele>
        <time>2019-10-18T09:25:55Z</time>
      </trkpt>
      <trkpt lat="37.1428140" lon="-2.0449880">
        <ele>352.8</ele>
        <time>2019-10-18T09:25:56Z</time>
      </trkpt>
      <trkpt lat="37.1427770" lon="-2.0450230">
        <ele>352.8</ele>
        <time>2019-10-18T09:25:57Z</time>
      </trkpt>
      <trkpt lat="37.1427400" lon="-2.0450580">
        <ele>352.8</ele>
        <time>2019-10-18T09:25:58Z</time>
      </trkpt>
      <trkpt lat="37.1427030" lon="-2.0450930">
        <ele>352.8</ele>
        <time>2019-10-18T09:25:59Z</time>
      </trkpt>
      <trkpt lat="37.1426640" lon="-2.0451300">
        <ele>352.8</ele>
        <time>2019-10-18T09:26:00Z</time>
      </trkpt>
      <trkpt lat="37.1426250" lon="-2.0451680">
        <ele>352.8</ele>
        <time>2019-10-18T09:26:01Z</time>
      </trkpt>
      <trkpt lat="37.1425860" lon="-2.0452090">
        <ele>352.8</ele>
        <time>2019-10-18T09:26:02Z</time>
      </trkpt>
      <trkpt lat="37.1425460" lon="-2.0452520">
        <ele>352.8</ele>
        <time>2019-10-18T09:26:03Z</time>
      </trkpt>
      <trkpt lat="37.1425060" lon="-2.0452970">
        <ele>352.8</ele>
        <time>2019-10-18T09:26:04Z</time>
      </trkpt>
      <trkpt lat="37.1424650" lon="-2.0453430">
        <ele>352.9</ele>
        <time>2019-10-18T09:26:05Z</time>
      </trkpt>
      <trkpt lat="37.1424240" lon="-2.0453920">
        <ele>352.9</ele>
        <time>2019-10-18T09:26:06Z</time>
      </trkpt>
      <trkpt lat="37.1423820" lon="-2.0454410">
        <ele>352.9</ele>
        <time>2019-10-18T09:26:07Z</time>
      </trkpt>
      <trkpt lat="37.1423390" lon="-2.0454900">
        <ele>352.9</ele>
        <time>2019-10-18T09:26:08Z</time>
      </trkpt>
      <trkpt lat="37.1422970" lon="-2.0455400">
        <ele>352.9</ele>
        <time>2019-10-18T09:26:09Z</time>
      </trkpt>
      <trkpt lat="37.1422540" lon="-2.0455900">
        <ele>353.0</ele>
        <time>2019-10-18T09:26:10Z</time>
      </trkpt>
      <trkpt lat="37.1422100" lon="-2.0456400">
        <ele>353.0</ele>
        <time>2019-10-18T09:26:11Z</time>
      </trkpt>
      <trkpt lat="37.1421660" lon="-2.0456920">
        <ele>353.0</ele>
        <time>2019-10-18T09:26:12Z</time>
      </trkpt>
      <trkpt lat="37.1421210" lon="-2.0457440">
        <ele>353.0</ele>
        <time>2019-10-18T09:26:13Z</time>
      </trkpt>
      <trkpt lat="37.1420760" lon="-2.0457970">
        <ele>353.0</ele>
        <time>2019-10-18T09:26:14Z</time>
      </trkpt>
      <trkpt lat="37.1420300" lon="-2.0458500">
        <ele>353.0</ele>
        <time>2019-10-18T09:26:15Z</time>
      </trkpt>
      <trkpt lat="37.1419830" lon="-2.0459040">
        <ele>353.0</ele>
        <time>2019-10-18T09:26:16Z</time>
      </trkpt>
      <trkpt lat="37.1419360" lon="-2.0459600">
        <ele>353.0</ele>
        <time>2019-10-18T09:26:17Z</time>
      </trkpt>
      <trkpt lat="37.1418890" lon="-2.0460170">
        <ele>352.9</ele>
        <time>2019-10-18T09:26:18Z</time>
      </trkpt>
      <trkpt lat="37.1418400" lon="-2.0460740">
        <ele>352.8</ele>
        <time>2019-10-18T09:26:19Z</time>
      </trkpt>
      <trkpt lat="37.1417920" lon="-2.0461320">
        <ele>352.7</ele>
        <time>2019-10-18T09:26:20Z</time>
      </trkpt>
      <trkpt lat="37.1417430" lon="-2.0461910">
        <ele>352.7</ele>
        <time>2019-10-18T09:26:21Z</time>
      </trkpt>
      <trkpt lat="37.1416940" lon="-2.0462490">
        <ele>352.6</ele>
        <time>2019-10-18T09:26:22Z</time>
      </trkpt>
      <trkpt lat="37.1416450" lon="-2.0463080">
        <ele>352.6</ele>
        <time>2019-10-18T09:26:23Z</time>
      </trkpt>
      <trkpt lat="37.1415960" lon="-2.0463650">
        <ele>352.6</ele>
        <time>2019-10-18T09:26:24Z</time>
      </trkpt>
      <trkpt lat="37.1415470" lon="-2.0464220">
        <ele>352.5</ele>
        <time>2019-10-18T09:26:25Z</time>
      </trkpt>
      <trkpt lat="37.1414990" lon="-2.0464780">
        <ele>352.5</ele>
        <time>2019-10-18T09:26:26Z</time>
      </trkpt>
      <trkpt lat="37.1414520" lon="-2.0465360">
        <ele>352.5</ele>
        <time>2019-10-18T09:26:27Z</time>
      </trkpt>
      <trkpt lat="37.1414050" lon="-2.0465940">
        <ele>352.6</ele>
        <time>2019-10-18T09:26:28Z</time>
      </trkpt>
      <trkpt lat="37.1413600" lon="-2.0466550">
        <ele>352.6</ele>
        <time>2019-10-18T09:26:29Z</time>
      </trkpt>
      <trkpt lat="37.1413170" lon="-2.0467180">
        <ele>352.6</ele>
        <time>2019-10-18T09:26:30Z</time>
      </trkpt>
      <trkpt lat="37.1412760" lon="-2.0467810">
        <ele>352.6</ele>
        <time>2019-10-18T09:26:31Z</time>
      </trkpt>
      <trkpt lat="37.1412370" lon="-2.0468470">
        <ele>352.6</ele>
        <time>2019-10-18T09:26:32Z</time>
      </trkpt>
      <trkpt lat="37.1412000" lon="-2.0469150">
        <ele>352.7</ele>
        <time>2019-10-18T09:26:33Z</time>
      </trkpt>
      <trkpt lat="37.1411660" lon="-2.0469870">
        <ele>352.7</ele>
        <time>2019-10-18T09:26:34Z</time>
      </trkpt>
      <trkpt lat="37.1411330" lon="-2.0470610">
        <ele>352.7</ele>
        <time>2019-10-18T09:26:35Z</time>
      </trkpt>
      <trkpt lat="37.1411020" lon="-2.0471370">
        <ele>352.7</ele>
        <time>2019-10-18T09:26:36Z</time>
      </trkpt>
      <trkpt lat="37.1410720" lon="-2.0472150">
        <ele>352.7</ele>
        <time>2019-10-18T09:26:37Z</time>
      </trkpt>
      <trkpt lat="37.1410460" lon="-2.0472950">
        <ele>352.7</ele>
        <time>2019-10-18T09:26:38Z</time>
      </trkpt>
      <trkpt lat="37.1410220" lon="-2.0473770">
        <ele>352.6</ele>
        <time>2019-10-18T09:26:39Z</time>
      </trkpt>
      <trkpt lat="37.1410010" lon="-2.0474600">
        <ele>352.6</ele>
        <time>2019-10-18T09:26:40Z</time>
      </trkpt>
      <trkpt lat="37.1409830" lon="-2.0475450">
        <ele>352.5</ele>
        <time>2019-10-18T09:26:41Z</time>
      </trkpt>
      <trkpt lat="37.1409680" lon="-2.0476310">
        <ele>352.4</ele>
        <time>2019-10-18T09:26:42Z</time>
      </trkpt>
      <trkpt lat="37.1409550" lon="-2.0477170">
        <ele>352.3</ele>
        <time>2019-10-18T09:26:43Z</time>
      </trkpt>
      <trkpt lat="37.1409460" lon="-2.0478040">
        <ele>352.3</ele>
        <time>2019-10-18T09:26:44Z</time>
      </trkpt>
      <trkpt lat="37.1409400" lon="-2.0478910">
        <ele>352.2</ele>
        <time>2019-10-18T09:26:45Z</time>
      </trkpt>
      <trkpt lat="37.1409360" lon="-2.0479800">
        <ele>352.2</ele>
        <time>2019-10-18T09:26:46Z</time>
      </trkpt>
      <trkpt lat="37.1409360" lon="-2.0480690">
        <ele>352.2</ele>
        <time>2019-10-18T09:26:47Z</time>
      </trkpt>
      <trkpt lat="37.1409370" lon="-2.0481580">
        <ele>352.2</ele>
        <time>2019-10-18T09:26:48Z</time>
      </trkpt>
      <trkpt lat="37.1409400" lon="-2.0482470">
        <ele>352.2</ele>
        <time>2019-10-18T09:26:49Z</time>
      </trkpt>
      <trkpt lat="37.1409440" lon="-2.0483380">
        <ele>352.3</ele>
        <time>2019-10-18T09:26:50Z</time>
      </trkpt>
      <trkpt lat="37.1409500" lon="-2.0484300">
        <ele>352.3</ele>
        <time>2019-10-18T09:26:51Z</time>
      </trkpt>
      <trkpt lat="37.1409570" lon="-2.0485220">
        <ele>352.4</ele>
        <time>2019-10-18T09:26:52Z</time>
      </trkpt>
      <trkpt lat="37.1409640" lon="-2.0486150">
        <ele>352.4</ele>
        <time>2019-10-18T09:26:53Z</time>
      </trkpt>
      <trkpt lat="37.1409710" lon="-2.0487080">
        <ele>352.5</ele>
        <time>2019-10-18T09:26:54Z</time>
      </trkpt>
      <trkpt lat="37.1409790" lon="-2.0488010">
        <ele>352.6</ele>
        <time>2019-10-18T09:26:55Z</time>
      </trkpt>
      <trkpt lat="37.1409870" lon="-2.0488940">
        <ele>352.7</ele>
        <time>2019-10-18T09:26:56Z</time>
      </trkpt>
      <trkpt lat="37.1409950" lon="-2.0489870">
        <ele>352.8</ele>
        <time>2019-10-18T09:26:57Z</time>
      </trkpt>
      <trkpt lat="37.1410040" lon="-2.0490790">
        <ele>352.9</ele>
        <time>2019-10-18T09:26:58Z</time>
      </trkpt>
      <trkpt lat="37.1410130" lon="-2.0491690">
        <ele>353.0</ele>
        <time>2019-10-18T09:26:59Z</time>
      </trkpt>
      <trkpt lat="37.1410220" lon="-2.0492580">
        <ele>353.2</ele>
        <time>2019-10-18T09:27:00Z</time>
      </trkpt>
      <trkpt lat="37.1410290" lon="-2.0493430">
        <ele>353.3</ele>
        <time>2019-10-18T09:27:01Z</time>
      </trkpt>
      <trkpt lat="37.1410370" lon="-2.0494260">
        <ele>353.4</ele>
        <time>2019-10-18T09:27:02Z</time>
      </trkpt>
      <trkpt lat="37.1410440" lon="-2.0495070">
        <ele>353.6</ele>
        <time>2019-10-18T09:27:03Z</time>
      </trkpt>
      <trkpt lat="37.1410510" lon="-2.0495870">
        <ele>353.8</ele>
        <time>2019-10-18T09:27:04Z</time>
      </trkpt>
      <trkpt lat="37.1410580" lon="-2.0496640">
        <ele>354.0</ele>
        <time>2019-10-18T09:27:05Z</time>
      </trkpt>
      <trkpt lat="37.1410650" lon="-2.0497400">
        <ele>354.1</ele>
        <time>2019-10-18T09:27:06Z</time>
      </trkpt>
      <trkpt lat="37.1410710" lon="-2.0498140">
        <ele>354.3</ele>
        <time>2019-10-18T09:27:07Z</time>
      </trkpt>
      <trkpt lat="37.1410780" lon="-2.0498850">
        <ele>354.4</ele>
        <time>2019-10-18T09:27:08Z</time>
      </trkpt>
      <trkpt lat="37.1410850" lon="-2.0499550">
        <ele>354.7</ele>
        <time>2019-10-18T09:27:09Z</time>
      </trkpt>
      <trkpt lat="37.1410920" lon="-2.0500240">
        <ele>355.0</ele>
        <time>2019-10-18T09:27:10Z</time>
      </trkpt>
      <trkpt lat="37.1410990" lon="-2.0500920">
        <ele>355.2</ele>
        <time>2019-10-18T09:27:11Z</time>
      </trkpt>
      <trkpt lat="37.1411050" lon="-2.0501590">
        <ele>355.4</ele>
        <time>2019-10-18T09:27:12Z</time>
      </trkpt>
      <trkpt lat="37.1411110" lon="-2.0502250">
        <ele>355.6</ele>
        <time>2019-10-18T09:27:13Z</time>
      </trkpt>
      <trkpt lat="37.1411170" lon="-2.0502900">
        <ele>355.9</ele>
        <time>2019-10-18T09:27:14Z</time>
      </trkpt>
      <trkpt lat="37.1411240" lon="-2.0503540">
        <ele>356.1</ele>
        <time>2019-10-18T09:27:15Z</time>
      </trkpt>
      <trkpt lat="37.1411300" lon="-2.0504180">
        <ele>356.3</ele>
        <time>2019-10-18T09:27:16Z</time>
      </trkpt>
      <trkpt lat="37.1411370" lon="-2.0504820">
        <ele>356.5</ele>
        <time>2019-10-18T09:27:17Z</time>
      </trkpt>
      <trkpt lat="37.1411430" lon="-2.0505470">
        <ele>356.7</ele>
        <time>2019-10-18T09:27:18Z</time>
      </trkpt>
      <trkpt lat="37.1411500" lon="-2.0506110">
        <ele>357.0</ele>
        <time>2019-10-18T09:27:19Z</time>
      </trkpt>
      <trkpt lat="37.1411560" lon="-2.0506750">
        <ele>357.2</ele>
        <time>2019-10-18T09:27:20Z</time>
      </trkpt>
      <trkpt lat="37.1411620" lon="-2.0507380">
        <ele>357.4</ele>
        <time>2019-10-18T09:27:21Z</time>
      </trkpt>
      <trkpt lat="37.1411690" lon="-2.0508000">
        <ele>357.6</ele>
        <time>2019-10-18T09:27:22Z</time>
      </trkpt>
      <trkpt lat="37.1411750" lon="-2.0508600">
        <ele>357.8</ele>
        <time>2019-10-18T09:27:23Z</time>
      </trkpt>
      <trkpt lat="37.1411810" lon="-2.0509190">
        <ele>358.0</ele>
        <time>2019-10-18T09:27:24Z</time>
      </trkpt>
      <trkpt lat="37.1411860" lon="-2.0509780">
        <ele>358.1</ele>
        <time>2019-10-18T09:27:25Z</time>
      </trkpt>
      <trkpt lat="37.1411910" lon="-2.0510350">
        <ele>358.3</ele>
        <time>2019-10-18T09:27:26Z</time>
      </trkpt>
      <trkpt lat="37.1411960" lon="-2.0510930">
        <ele>358.4</ele>
        <time>2019-10-18T09:27:27Z</time>
      </trkpt>
      <trkpt lat="37.1412010" lon="-2.0511500">
        <ele>358.6</ele>
        <time>2019-10-18T09:27:28Z</time>
      </trkpt>
      <trkpt lat="37.1412040" lon="-2.0512070">
        <ele>358.7</ele>
        <time>2019-10-18T09:27:29Z</time>
      </trkpt>
      <trkpt lat="37.1412070" lon="-2.0512650">
        <ele>358.9</ele>
        <time>2019-10-18T09:27:30Z</time>
      </trkpt>
      <trkpt lat="37.1412080" lon="-2.0513240">
        <ele>359.0</ele>
        <time>2019-10-18T09:27:31Z</time>
      </trkpt>
      <trkpt lat="37.1412100" lon="-2.0513830">
        <ele>359.1</ele>
        <time>2019-10-18T09:27:32Z</time>
      </trkpt>
      <trkpt lat="37.1412100" lon="-2.0514420">
        <ele>359.2</ele>
        <time>2019-10-18T09:27:33Z</time>
      </trkpt>
      <trkpt lat="37.1412100" lon="-2.0515000">
        <ele>359.4</ele>
        <time>2019-10-18T09:27:34Z</time>
      </trkpt>
      <trkpt lat="37.1412090" lon="-2.0515570">
        <ele>359.5</ele>
        <time>2019-10-18T09:27:35Z</time>
      </trkpt>
      <trkpt lat="37.1412060" lon="-2.0516130">
        <ele>359.7</ele>
        <time>2019-10-18T09:27:36Z</time>
      </trkpt>
      <trkpt lat="37.1412020" lon="-2.0516670">
        <ele>359.8</ele>
        <time>2019-10-18T09:27:37Z</time>
      </trkpt>
      <trkpt lat="37.1411960" lon="-2.0517210">
        <ele>359.9</ele>
        <time>2019-10-18T09:27:38Z</time>
      </trkpt>
      <trkpt lat="37.1411890" lon="-2.0517750">
        <ele>360.0</ele>
        <time>2019-10-18T09:27:39Z</time>
      </trkpt>
      <trkpt lat="37.1411810" lon="-2.0518280">
        <ele>360.1</ele>
        <time>2019-10-18T09:27:40Z</time>
      </trkpt>
      <trkpt lat="37.1411710" lon="-2.0518810">
        <ele>360.2</ele>
        <time>2019-10-18T09:27:41Z</time>
      </trkpt>
      <trkpt lat="37.1411600" lon="-2.0519330">
        <ele>360.3</ele>
        <time>2019-10-18T09:27:42Z</time>
      </trkpt>
      <trkpt lat="37.1411490" lon="-2.0519840">
        <ele>360.3</ele>
        <time>2019-10-18T09:27:43Z</time>
      </trkpt>
      <trkpt lat="37.1411370" lon="-2.0520340">
        <ele>360.4</ele>
        <time>2019-10-18T09:27:44Z</time>
      </trkpt>
      <trkpt lat="37.1411240" lon="-2.0520840">
        <ele>360.4</ele>
        <time>2019-10-18T09:27:45Z</time>
      </trkpt>
      <trkpt lat="37.1411110" lon="-2.0521340">
        <ele>360.5</ele>
        <time>2019-10-18T09:27:46Z</time>
      </trkpt>
      <trkpt lat="37.1410970" lon="-2.0521840">
        <ele>360.5</ele>
        <time>2019-10-18T09:27:47Z</time>
      </trkpt>
      <trkpt lat="37.1410810" lon="-2.0522340">
        <ele>360.6</ele>
        <time>2019-10-18T09:27:48Z</time>
      </trkpt>
      <trkpt lat="37.1410640" lon="-2.0522830">
        <ele>360.6</ele>
        <time>2019-10-18T09:27:49Z</time>
      </trkpt>
      <trkpt lat="37.1410460" lon="-2.0523300">
        <ele>360.7</ele>
        <time>2019-10-18T09:27:50Z</time>
      </trkpt>
      <trkpt lat="37.1410280" lon="-2.0523770">
        <ele>360.7</ele>
        <time>2019-10-18T09:27:51Z</time>
      </trkpt>
      <trkpt lat="37.1410100" lon="-2.0524240">
        <ele>360.7</ele>
        <time>2019-10-18T09:27:52Z</time>
      </trkpt>
      <trkpt lat="37.1409920" lon="-2.0524690">
        <ele>360.7</ele>
        <time>2019-10-18T09:27:53Z</time>
      </trkpt>
      <trkpt lat="37.1409730" lon="-2.0525140">
        <ele>360.8</ele>
        <time>2019-10-18T09:27:54Z</time>
      </trkpt>
      <trkpt lat="37.1409520" lon="-2.0525580">
        <ele>360.8</ele>
        <time>2019-10-18T09:27:55Z</time>
      </trkpt>
      <trkpt lat="37.1409310" lon="-2.0526020">
        <ele>360.8</ele>
        <time>2019-10-18T09:27:56Z</time>
      </trkpt>
      <trkpt lat="37.1409090" lon="-2.0526480">
        <ele>360.9</ele>
        <time>2019-10-18T09:27:57Z</time>
      </trkpt>
      <trkpt lat="37.1408880" lon="-2.0526960">
        <ele>360.9</ele>
        <time>2019-10-18T09:27:58Z</time>
      </trkpt>
      <trkpt lat="37.1408650" lon="-2.0527450">
        <ele>360.9</ele>
        <time>2019-10-18T09:27:59Z</time>
      </trkpt>
      <trkpt lat="37.1408400" lon="-2.0527960">
        <ele>361.0</ele>
        <time>2019-10-18T09:28:00Z</time>
      </trkpt>
      <trkpt lat="37.1408150" lon="-2.0528470">
        <ele>361.1</ele>
        <time>2019-10-18T09:28:01Z</time>
      </trkpt>
      <trkpt lat="37.1407890" lon="-2.0529000">
        <ele>361.1</ele>
        <time>2019-10-18T09:28:02Z</time>
      </trkpt>
      <trkpt lat="37.1407640" lon="-2.0529540">
        <ele>361.2</ele>
        <time>2019-10-18T09:28:03Z</time>
      </trkpt>
      <trkpt lat="37.1407370" lon="-2.0530080">
        <ele>361.3</ele>
        <time>2019-10-18T09:28:04Z</time>
      </trkpt>
      <trkpt lat="37.1407110" lon="-2.0530640">
        <ele>361.4</ele>
        <time>2019-10-18T09:28:05Z</time>
      </trkpt>
      <trkpt lat="37.1406850" lon="-2.0531200">
        <ele>361.5</ele>
        <time>2019-10-18T09:28:06Z</time>
      </trkpt>
      <trkpt lat="37.1406580" lon="-2.0531750">
        <ele>361.6</ele>
        <time>2019-10-18T09:28:07Z</time>
      </trkpt>
      <trkpt lat="37.1406310" lon="-2.0532290">
        <ele>361.8</ele>
        <time>2019-10-18T09:28:08Z</time>
      </trkpt>
      <trkpt lat="37.1406040" lon="-2.0532830">
        <ele>361.9</ele>
        <time>2019-10-18T09:28:09Z</time>
      </trkpt>
      <trkpt lat="37.1405760" lon="-2.0533380">
        <ele>362.1</ele>
        <time>2019-10-18T09:28:10Z</time>
      </trkpt>
      <trkpt lat="37.1405490" lon="-2.0533940">
        <ele>362.3</ele>
        <time>2019-10-18T09:28:11Z</time>
      </trkpt>
      <trkpt lat="37.1405210" lon="-2.0534500">
        <ele>362.5</ele>
        <time>2019-10-18T09:28:12Z</time>
      </trkpt>
      <trkpt lat="37.1404940" lon="-2.0535060">
        <ele>362.6</ele>
        <time>2019-10-18T09:28:13Z</time>
      </trkpt>
      <trkpt lat="37.1404670" lon="-2.0535630">
        <ele>362.8</ele>
        <time>2019-10-18T09:28:14Z</time>
      </trkpt>
      <trkpt lat="37.1404410" lon="-2.0536200">
        <ele>363.0</ele>
        <time>2019-10-18T09:28:15Z</time>
      </trkpt>
      <trkpt lat="37.1404140" lon="-2.0536790">
        <ele>363.2</ele>
        <time>2019-10-18T09:28:16Z</time>
      </trkpt>
      <trkpt lat="37.1403890" lon="-2.0537380">
        <ele>363.4</ele>
        <time>2019-10-18T09:28:17Z</time>
      </trkpt>
      <trkpt lat="37.1403640" lon="-2.0537970">
        <ele>363.6</ele>
        <time>2019-10-18T09:28:18Z</time>
      </trkpt>
      <trkpt lat="37.1403390" lon="-2.0538580">
        <ele>363.8</ele>
        <time>2019-10-18T09:28:19Z</time>
      </trkpt>
      <trkpt lat="37.1403150" lon="-2.0539180">
        <ele>364.0</ele>
        <time>2019-10-18T09:28:20Z</time>
      </trkpt>
      <trkpt lat="37.1402920" lon="-2.0539800">
        <ele>364.2</ele>
        <time>2019-10-18T09:28:21Z</time>
      </trkpt>
      <trkpt lat="37.1402690" lon="-2.0540410">
        <ele>364.4</ele>
        <time>2019-10-18T09:28:22Z</time>
      </trkpt>
      <trkpt lat="37.1402460" lon="-2.0541020">
        <ele>364.6</ele>
        <time>2019-10-18T09:28:23Z</time>
      </trkpt>
      <trkpt lat="37.1402240" lon="-2.0541630">
        <ele>364.9</ele>
        <time>2019-10-18T09:28:24Z</time>
      </trkpt>
      <trkpt lat="37.1402030" lon="-2.0542250">
        <ele>365.1</ele>
        <time>2019-10-18T09:28:25Z</time>
      </trkpt>
      <trkpt lat="37.1401840" lon="-2.0542870">
        <ele>365.3</ele>
        <time>2019-10-18T09:28:26Z</time>
      </trkpt>
      <trkpt lat="37.1401660" lon="-2.0543490">
        <ele>365.6</ele>
        <time>2019-10-18T09:28:27Z</time>
      </trkpt>
      <trkpt lat="37.1401480" lon="-2.0544080">
        <ele>365.8</ele>
        <time>2019-10-18T09:28:28Z</time>
      </trkpt>
      <trkpt lat="37.1401290" lon="-2.0544660">
        <ele>366.0</ele>
        <time>2019-10-18T09:28:29Z</time>
      </trkpt>
      <trkpt lat="37.1401110" lon="-2.0545220">
        <ele>366.2</ele>
        <time>2019-10-18T09:28:30Z</time>
      </trkpt>
      <trkpt lat="37.1400930" lon="-2.0545780">
        <ele>366.5</ele>
        <time>2019-10-18T09:28:31Z</time>
      </trkpt>
      <trkpt lat="37.1400750" lon="-2.0546330">
        <ele>366.7</ele>
        <time>2019-10-18T09:28:32Z</time>
      </trkpt>
      <trkpt lat="37.1400580" lon="-2.0546880">
        <ele>366.9</ele>
        <time>2019-10-18T09:28:33Z</time>
      </trkpt>
      <trkpt lat="37.1400410" lon="-2.0547420">
        <ele>367.2</ele>
        <time>2019-10-18T09:28:34Z</time>
      </trkpt>
      <trkpt lat="37.1400240" lon="-2.0547950">
        <ele>367.4</ele>
        <time>2019-10-18T09:28:35Z</time>
      </trkpt>
      <trkpt lat="37.1400080" lon="-2.0548490">
        <ele>367.6</ele>
        <time>2019-10-18T09:28:36Z</time>
      </trkpt>
      <trkpt lat="37.1399920" lon="-2.0549020">
        <ele>367.9</ele>
        <time>2019-10-18T09:28:37Z</time>
      </trkpt>
      <trkpt lat="37.1399770" lon="-2.0549530">
        <ele>368.1</ele>
        <time>2019-10-18T09:28:38Z</time>
      </trkpt>
      <trkpt lat="37.1399610" lon="-2.0550040">
        <ele>368.3</ele>
        <time>2019-10-18T09:28:39Z</time>
      </trkpt>
      <trkpt lat="37.1399460" lon="-2.0550540">
        <ele>368.5</ele>
        <time>2019-10-18T09:28:40Z</time>
      </trkpt>
      <trkpt lat="37.1399310" lon="-2.0551050">
        <ele>368.7</ele>
        <time>2019-10-18T09:28:41Z</time>
      </trkpt>
      <trkpt lat="37.1399150" lon="-2.0551550">
        <ele>368.9</ele>
        <time>2019-10-18T09:28:42Z</time>
      </trkpt>
      <trkpt lat="37.1399000" lon="-2.0552040">
        <ele>369.1</ele>
        <time>2019-10-18T09:28:43Z</time>
      </trkpt>
      <trkpt lat="37.1398850" lon="-2.0552530">
        <ele>369.3</ele>
        <time>2019-10-18T09:28:44Z</time>
      </trkpt>
      <trkpt lat="37.1398710" lon="-2.0553010">
        <ele>369.5</ele>
        <time>2019-10-18T09:28:45Z</time>
      </trkpt>
      <trkpt lat="37.1398560" lon="-2.0553480">
        <ele>369.6</ele>
        <time>2019-10-18T09:28:46Z</time>
      </trkpt>
      <trkpt lat="37.1398420" lon="-2.0553950">
        <ele>369.8</ele>
        <time>2019-10-18T09:28:47Z</time>
      </trkpt>
      <trkpt lat="37.1398280" lon="-2.0554410">
        <ele>370.0</ele>
        <time>2019-10-18T09:28:48Z</time>
      </trkpt>
      <trkpt lat="37.1398140" lon="-2.0554870">
        <ele>370.2</ele>
        <time>2019-10-18T09:28:49Z</time>
      </trkpt>
      <trkpt lat="37.1397990" lon="-2.0555320">
        <ele>370.3</ele>
        <time>2019-10-18T09:28:50Z</time>
      </trkpt>
      <trkpt lat="37.1397850" lon="-2.0555770">
        <ele>370.5</ele>
        <time>2019-10-18T09:28:51Z</time>
      </trkpt>
      <trkpt lat="37.1397710" lon="-2.0556210">
        <ele>370.6</ele>
        <time>2019-10-18T09:28:52Z</time>
      </trkpt>
      <trkpt lat="37.1397570" lon="-2.0556660">
        <ele>370.8</ele>
        <time>2019-10-18T09:28:53Z</time>
      </trkpt>
      <trkpt lat="37.1397430" lon="-2.0557100">
        <ele>371.0</ele>
        <time>2019-10-18T09:28:54Z</time>
      </trkpt>
      <trkpt lat="37.1397300" lon="-2.0557540">
        <ele>371.2</ele>
        <time>2019-10-18T09:28:55Z</time>
      </trkpt>
      <trkpt lat="37.1397150" lon="-2.0557980">
        <ele>371.5</ele>
        <time>2019-10-18T09:28:56Z</time>
      </trkpt>
      <trkpt lat="37.1397010" lon="-2.0558400">
        <ele>371.7</ele>
        <time>2019-10-18T09:28:57Z</time>
      </trkpt>
      <trkpt lat="37.1396860" lon="-2.0558830">
        <ele>371.8</ele>
        <time>2019-10-18T09:28:58Z</time>
      </trkpt>
      <trkpt lat="37.1396710" lon="-2.0559250">
        <ele>372.0</ele>
        <time>2019-10-18T09:28:59Z</time>
      </trkpt>
      <trkpt lat="37.1396560" lon="-2.0559690">
        <ele>372.2</ele>
        <time>2019-10-18T09:29:00Z</time>
      </trkpt>
      <trkpt lat="37.1396400" lon="-2.0560120">
        <ele>372.3</ele>
        <time>2019-10-18T09:29:01Z</time>
      </trkpt>
      <trkpt lat="37.1396240" lon="-2.0560550">
        <ele>372.5</ele>
        <time>2019-10-18T09:29:02Z</time>
      </trkpt>
      <trkpt lat="37.1396070" lon="-2.0560970">
        <ele>372.6</ele>
        <time>2019-10-18T09:29:03Z</time>
      </trkpt>
      <trkpt lat="37.1395900" lon="-2.0561380">
        <ele>372.8</ele>
        <time>2019-10-18T09:29:04Z</time>
      </trkpt>
      <trkpt lat="37.1395730" lon="-2.0561800">
        <ele>373.0</ele>
        <time>2019-10-18T09:29:05Z</time>
      </trkpt>
      <trkpt lat="37.1395550" lon="-2.0562220">
        <ele>373.2</ele>
        <time>2019-10-18T09:29:06Z</time>
      </trkpt>
      <trkpt lat="37.1395380" lon="-2.0562630">
        <ele>373.4</ele>
        <time>2019-10-18T09:29:07Z</time>
      </trkpt>
      <trkpt lat="37.1395200" lon="-2.0563040">
        <ele>373.6</ele>
        <time>2019-10-18T09:29:08Z</time>
      </trkpt>
      <trkpt lat="37.1395000" lon="-2.0563450">
        <ele>373.7</ele>
        <time>2019-10-18T09:29:09Z</time>
      </trkpt>
      <trkpt lat="37.1394810" lon="-2.0563860">
        <ele>373.8</ele>
        <time>2019-10-18T09:29:10Z</time>
      </trkpt>
      <trkpt lat="37.1394610" lon="-2.0564270">
        <ele>374.0</ele>
        <time>2019-10-18T09:29:11Z</time>
      </trkpt>
      <trkpt lat="37.1394410" lon="-2.0564670">
        <ele>374.1</ele>
        <time>2019-10-18T09:29:12Z</time>
      </trkpt>
      <trkpt lat="37.1394210" lon="-2.0565070">
        <ele>374.2</ele>
        <time>2019-10-18T09:29:13Z</time>
      </trkpt>
      <trkpt lat="37.1394000" lon="-2.0565460">
        <ele>374.4</ele>
        <time>2019-10-18T09:29:14Z</time>
      </trkpt>
      <trkpt lat="37.1393790" lon="-2.0565850">
        <ele>374.5</ele>
        <time>2019-10-18T09:29:15Z</time>
      </trkpt>
      <trkpt lat="37.1393570" lon="-2.0566240">
        <ele>374.6</ele>
        <time>2019-10-18T09:29:16Z</time>
      </trkpt>
      <trkpt lat="37.1393340" lon="-2.0566610">
        <ele>374.7</ele>
        <time>2019-10-18T09:29:17Z</time>
      </trkpt>
      <trkpt lat="37.1393120" lon="-2.0566990">
        <ele>374.8</ele>
        <time>2019-10-18T09:29:18Z</time>
      </trkpt>
      <trkpt lat="37.1392900" lon="-2.0567370">
        <ele>374.9</ele>
        <time>2019-10-18T09:29:19Z</time>
      </trkpt>
      <trkpt lat="37.1392670" lon="-2.0567750">
        <ele>375.0</ele>
        <time>2019-10-18T09:29:20Z</time>
      </trkpt>
      <trkpt lat="37.1392450" lon="-2.0568120">
        <ele>375.1</ele>
        <time>2019-10-18T09:29:21Z</time>
      </trkpt>
      <trkpt lat="37.1392230" lon="-2.0568500">
        <ele>375.2</ele>
        <time>2019-10-18T09:29:22Z</time>
      </trkpt>
      <trkpt lat="37.1392010" lon="-2.0568860">
        <ele>375.2</ele>
        <time>2019-10-18T09:29:23Z</time>
      </trkpt>
      <trkpt lat="37.1391770" lon="-2.0569220">
        <ele>375.3</ele>
        <time>2019-10-18T09:29:24Z</time>
      </trkpt>
      <trkpt lat="37.1391530" lon="-2.0569580">
        <ele>375.4</ele>
        <time>2019-10-18T09:29:25Z</time>
      </trkpt>
      <trkpt lat="37.1391290" lon="-2.0569950">
        <ele>375.5</ele>
        <time>2019-10-18T09:29:26Z</time>
      </trkpt>
      <trkpt lat="37.1391040" lon="-2.0570320">
        <ele>375.5</ele>
        <time>2019-10-18T09:29:27Z</time>
      </trkpt>
      <trkpt lat="37.1390790" lon="-2.0570700">
        <ele>375.6</ele>
        <time>2019-10-18T09:29:28Z</time>
      </trkpt>
      <trkpt lat="37.1390540" lon="-2.0571080">
        <ele>375.7</ele>
        <time>2019-10-18T09:29:29Z</time>
      </trkpt>
      <trkpt lat="37.1390300" lon="-2.0571450">
        <ele>375.7</ele>
        <time>2019-10-18T09:29:30Z</time>
      </trkpt>
      <trkpt lat="37.1390060" lon="-2.0571810">
        <ele>375.8</ele>
        <time>2019-10-18T09:29:31Z</time>
      </trkpt>
      <trkpt lat="37.1389810" lon="-2.0572180">
        <ele>375.9</ele>
        <time>2019-10-18T09:29:32Z</time>
      </trkpt>
      <trkpt lat="37.1389560" lon="-2.0572550">
        <ele>375.9</ele>
        <time>2019-10-18T09:29:33Z</time>
      </trkpt>
      <trkpt lat="37.1389310" lon="-2.0572940">
        <ele>376.0</ele>
        <time>2019-10-18T09:29:34Z</time>
      </trkpt>
      <trkpt lat="37.1389050" lon="-2.0573340">
        <ele>376.1</ele>
        <time>2019-10-18T09:29:35Z</time>
      </trkpt>
      <trkpt lat="37.1388780" lon="-2.0573740">
        <ele>376.1</ele>
        <time>2019-10-18T09:29:36Z</time>
      </trkpt>
      <trkpt lat="37.1388500" lon="-2.0574150">
        <ele>376.2</ele>
        <time>2019-10-18T09:29:37Z</time>
      </trkpt>
      <trkpt lat="37.1388210" lon="-2.0574570">
        <ele>376.3</ele>
        <time>2019-10-18T09:29:38Z</time>
      </trkpt>
      <trkpt lat="37.1387920" lon="-2.0574990">
        <ele>376.4</ele>
        <time>2019-10-18T09:29:39Z</time>
      </trkpt>
      <trkpt lat="37.1387620" lon="-2.0575430">
        <ele>376.5</ele>
        <time>2019-10-18T09:29:40Z</time>
      </trkpt>
      <trkpt lat="37.1387320" lon="-2.0575880">
        <ele>376.5</ele>
        <time>2019-10-18T09:29:41Z</time>
      </trkpt>
      <trkpt lat="37.1387030" lon="-2.0576340">
        <ele>376.6</ele>
        <time>2019-10-18T09:29:42Z</time>
      </trkpt>
      <trkpt lat="37.1386740" lon="-2.0576800">
        <ele>376.7</ele>
        <time>2019-10-18T09:29:43Z</time>
      </trkpt>
      <trkpt lat="37.1386440" lon="-2.0577270">
        <ele>376.8</ele>
        <time>2019-10-18T09:29:44Z</time>
      </trkpt>
      <trkpt lat="37.1386140" lon="-2.0577740">
        <ele>376.9</ele>
        <time>2019-10-18T09:29:45Z</time>
      </trkpt>
      <trkpt lat="37.1385840" lon="-2.0578220">
        <ele>377.0</ele>
        <time>2019-10-18T09:29:46Z</time>
      </trkpt>
      <trkpt lat="37.1385540" lon="-2.0578700">
        <ele>377.2</ele>
        <time>2019-10-18T09:29:47Z</time>
      </trkpt>
      <trkpt lat="37.1385240" lon="-2.0579180">
        <ele>377.2</ele>
        <time>2019-10-18T09:29:48Z</time>
      </trkpt>
      <trkpt lat="37.1384940" lon="-2.0579680">
        <ele>377.3</ele>
        <time>2019-10-18T09:29:49Z</time>
      </trkpt>
      <trkpt lat="37.1384640" lon="-2.0580200">
        <ele>377.4</ele>
        <time>2019-10-18T09:29:50Z</time>
      </trkpt>
      <trkpt lat="37.1384350" lon="-2.0580720">
        <ele>377.5</ele>
        <time>2019-10-18T09:29:51Z</time>
      </trkpt>
      <trkpt lat="37.1384070" lon="-2.0581250">
        <ele>377.6</ele>
        <time>2019-10-18T09:29:52Z</time>
      </trkpt>
      <trkpt lat="37.1383800" lon="-2.0581770">
        <ele>377.7</ele>
        <time>2019-10-18T09:29:53Z</time>
      </trkpt>
      <trkpt lat="37.1383530" lon="-2.0582290">
        <ele>377.9</ele>
        <time>2019-10-18T09:29:54Z</time>
      </trkpt>
      <trkpt lat="37.1383290" lon="-2.0582810">
        <ele>378.0</ele>
        <time>2019-10-18T09:29:55Z</time>
      </trkpt>
      <trkpt lat="37.1383050" lon="-2.0583330">
        <ele>378.1</ele>
        <time>2019-10-18T09:29:56Z</time>
      </trkpt>
      <trkpt lat="37.1382840" lon="-2.0583850">
        <ele>378.2</ele>
        <time>2019-10-18T09:29:57Z</time>
      </trkpt>
      <trkpt lat="37.1382640" lon="-2.0584360">
        <ele>378.3</ele>
        <time>2019-10-18T09:29:58Z</time>
      </trkpt>
      <trkpt lat="37.1382460" lon="-2.0584860">
        <ele>378.5</ele>
        <time>2019-10-18T09:29:59Z</time>
      </trkpt>
      <trkpt lat="37.1382280" lon="-2.0585350">
        <ele>378.6</ele>
        <time>2019-10-18T09:30:00Z</time>
      </trkpt>
      <trkpt lat="37.1382110" lon="-2.0585830">
        <ele>378.8</ele>
        <time>2019-10-18T09:30:01Z</time>
      </trkpt>
      <trkpt lat="37.1381950" lon="-2.0586310">
        <ele>378.9</ele>
        <time>2019-10-18T09:30:02Z</time>
      </trkpt>
      <trkpt lat="37.1381790" lon="-2.0586780">
        <ele>379.1</ele>
        <time>2019-10-18T09:30:03Z</time>
      </trkpt>
      <trkpt lat="37.1381640" lon="-2.0587260">
        <ele>379.3</ele>
        <time>2019-10-18T09:30:04Z</time>
      </trkpt>
      <trkpt lat="37.1381510" lon="-2.0587740">
        <ele>379.5</ele>
        <time>2019-10-18T09:30:05Z</time>
      </trkpt>
      <trkpt lat="37.1381370" lon="-2.0588220">
        <ele>379.7</ele>
        <time>2019-10-18T09:30:06Z</time>
      </trkpt>
      <trkpt lat="37.1381240" lon="-2.0588690">
        <ele>379.9</ele>
        <time>2019-10-18T09:30:07Z</time>
      </trkpt>
      <trkpt lat="37.1381240" lon="-2.0588690">
        <ele>379.9</ele>
        <time>2019-10-18T09:30:08Z</time>
      </trkpt>
      <trkpt lat="37.1381090" lon="-2.0589240">
        <ele>380.1</ele>
        <time>2019-10-18T09:30:09Z</time>
      </trkpt>
      <trkpt lat="37.1380940" lon="-2.0589780">
        <ele>380.3</ele>
        <time>2019-10-18T09:30:10Z</time>
      </trkpt>
      <trkpt lat="37.1380780" lon="-2.0590310">
        <ele>380.6</ele>
        <time>2019-10-18T09:30:11Z</time>
      </trkpt>
      <trkpt lat="37.1380650" lon="-2.0590770">
        <ele>380.9</ele>
        <time>2019-10-18T09:30:12Z</time>
      </trkpt>
      <trkpt lat="37.1380510" lon="-2.0591230">
        <ele>381.1</ele>
        <time>2019-10-18T09:30:13Z</time>
      </trkpt>
      <trkpt lat="37.1380380" lon="-2.0591700">
        <ele>381.4</ele>
        <time>2019-10-18T09:30:14Z</time>
      </trkpt>
      <trkpt lat="37.1380250" lon="-2.0592160">
        <ele>381.6</ele>
        <time>2019-10-18T09:30:15Z</time>
      </trkpt>
      <trkpt lat="37.1380130" lon="-2.0592620">
        <ele>381.9</ele>
        <time>2019-10-18T09:30:16Z</time>
      </trkpt>
      <trkpt lat="37.1380000" lon="-2.0593080">
        <ele>382.5</ele>
        <time>2019-10-18T09:30:17Z</time>
      </trkpt>
      <trkpt lat="37.1379870" lon="-2.0593540">
        <ele>382.8</ele>
        <time>2019-10-18T09:30:18Z</time>
      </trkpt>
      <trkpt lat="37.1379730" lon="-2.0594000">
        <ele>382.9</ele>
        <time>2019-10-18T09:30:19Z</time>
      </trkpt>
      <trkpt lat="37.1379590" lon="-2.0594460">
        <ele>383.0</ele>
        <time>2019-10-18T09:30:20Z</time>
      </trkpt>
      <trkpt lat="37.1379450" lon="-2.0594910">
        <ele>383.1</ele>
        <time>2019-10-18T09:30:21Z</time>
      </trkpt>
      <trkpt lat="37.1379320" lon="-2.0595360">
        <ele>383.2</ele>
        <time>2019-10-18T09:30:22Z</time>
      </trkpt>
      <trkpt lat="37.1379190" lon="-2.0595810">
        <ele>383.3</ele>
        <time>2019-10-18T09:30:23Z</time>
      </trkpt>
      <trkpt lat="37.1379060" lon="-2.0596270">
        <ele>383.4</ele>
        <time>2019-10-18T09:30:24Z</time>
      </trkpt>
      <trkpt lat="37.1378920" lon="-2.0596730">
        <ele>383.5</ele>
        <time>2019-10-18T09:30:25Z</time>
      </trkpt>
      <trkpt lat="37.1378770" lon="-2.0597180">
        <ele>383.7</ele>
        <time>2019-10-18T09:30:26Z</time>
      </trkpt>
      <trkpt lat="37.1378610" lon="-2.0597640">
        <ele>383.8</ele>
        <time>2019-10-18T09:30:27Z</time>
      </trkpt>
      <trkpt lat="37.1378450" lon="-2.0598090">
        <ele>384.0</ele>
        <time>2019-10-18T09:30:28Z</time>
      </trkpt>
      <trkpt lat="37.1378290" lon="-2.0598560">
        <ele>384.1</ele>
        <time>2019-10-18T09:30:29Z</time>
      </trkpt>
      <trkpt lat="37.1378130" lon="-2.0599030">
        <ele>384.3</ele>
        <time>2019-10-18T09:30:30Z</time>
      </trkpt>
      <trkpt lat="37.1377970" lon="-2.0599490">
        <ele>384.4</ele>
        <time>2019-10-18T09:30:31Z</time>
      </trkpt>
      <trkpt lat="37.1377820" lon="-2.0599970">
        <ele>384.6</ele>
        <time>2019-10-18T09:30:32Z</time>
      </trkpt>
      <trkpt lat="37.1377660" lon="-2.0600440">
        <ele>384.7</ele>
        <time>2019-10-18T09:30:33Z</time>
      </trkpt>
      <trkpt lat="37.1377520" lon="-2.0600920">
        <ele>384.8</ele>
        <time>2019-10-18T09:30:34Z</time>
      </trkpt>
      <trkpt lat="37.1377370" lon="-2.0601400">
        <ele>385.0</ele>
        <time>2019-10-18T09:30:35Z</time>
      </trkpt>
      <trkpt lat="37.1377220" lon="-2.0601880">
        <ele>385.2</ele>
        <time>2019-10-18T09:30:36Z</time>
      </trkpt>
      <trkpt lat="37.1377080" lon="-2.0602340">
        <ele>385.3</ele>
        <time>2019-10-18T09:30:37Z</time>
      </trkpt>
      <trkpt lat="37.1376940" lon="-2.0602790">
        <ele>385.5</ele>
        <time>2019-10-18T09:30:38Z</time>
      </trkpt>
      <trkpt lat="37.1376800" lon="-2.0603240">
        <ele>385.6</ele>
        <time>2019-10-18T09:30:39Z</time>
      </trkpt>
      <trkpt lat="37.1376650" lon="-2.0603700">
        <ele>385.7</ele>
        <time>2019-10-18T09:30:40Z</time>
      </trkpt>
      <trkpt lat="37.1376490" lon="-2.0604170">
        <ele>385.9</ele>
        <time>2019-10-18T09:30:41Z</time>
      </trkpt>
      <trkpt lat="37.1376310" lon="-2.0604640">
        <ele>386.0</ele>
        <time>2019-10-18T09:30:42Z</time>
      </trkpt>
      <trkpt lat="37.1376120" lon="-2.0605110">
        <ele>386.2</ele>
        <time>2019-10-18T09:30:43Z</time>
      </trkpt>
      <trkpt lat="37.1375940" lon="-2.0605570">
        <ele>386.3</ele>
        <time>2019-10-18T09:30:44Z</time>
      </trkpt>
      <trkpt lat="37.1375760" lon="-2.0606030">
        <ele>386.4</ele>
        <time>2019-10-18T09:30:45Z</time>
      </trkpt>
      <trkpt lat="37.1375590" lon="-2.0606470">
        <ele>386.5</ele>
        <time>2019-10-18T09:30:46Z</time>
      </trkpt>
      <trkpt lat="37.1375410" lon="-2.0606920">
        <ele>386.7</ele>
        <time>2019-10-18T09:30:47Z</time>
      </trkpt>
      <trkpt lat="37.1375220" lon="-2.0607360">
        <ele>386.8</ele>
        <time>2019-10-18T09:30:48Z</time>
      </trkpt>
      <trkpt lat="37.1375020" lon="-2.0607810">
        <ele>386.9</ele>
        <time>2019-10-18T09:30:49Z</time>
      </trkpt>
      <trkpt lat="37.1374830" lon="-2.0608240">
        <ele>387.0</ele>
        <time>2019-10-18T09:30:50Z</time>
      </trkpt>
      <trkpt lat="37.1374630" lon="-2.0608660">
        <ele>387.1</ele>
        <time>2019-10-18T09:30:51Z</time>
      </trkpt>
      <trkpt lat="37.1374440" lon="-2.0609080">
        <ele>387.3</ele>
        <time>2019-10-18T09:30:52Z</time>
      </trkpt>
      <trkpt lat="37.1374230" lon="-2.0609510">
        <ele>387.4</ele>
        <time>2019-10-18T09:30:53Z</time>
      </trkpt>
      <trkpt lat="37.1374020" lon="-2.0609950">
        <ele>387.5</ele>
        <time>2019-10-18T09:30:54Z</time>
      </trkpt>
      <trkpt lat="37.1373800" lon="-2.0610380">
        <ele>387.6</ele>
        <time>2019-10-18T09:30:55Z</time>
      </trkpt>
      <trkpt lat="37.1373570" lon="-2.0610810">
        <ele>387.7</ele>
        <time>2019-10-18T09:30:56Z</time>
      </trkpt>
      <trkpt lat="37.1373340" lon="-2.0611240">
        <ele>387.8</ele>
        <time>2019-10-18T09:30:57Z</time>
      </trkpt>
      <trkpt lat="37.1373110" lon="-2.0611650">
        <ele>387.9</ele>
        <time>2019-10-18T09:30:58Z</time>
      </trkpt>
      <trkpt lat="37.1372870" lon="-2.0612060">
        <ele>388.0</ele>
        <time>2019-10-18T09:30:59Z</time>
      </trkpt>
      <trkpt lat="37.1372640" lon="-2.0612470">
        <ele>388.1</ele>
        <time>2019-10-18T09:31:00Z</time>
      </trkpt>
      <trkpt lat="37.1372410" lon="-2.0612870">
        <ele>388.2</ele>
        <time>2019-10-18T09:31:01Z</time>
      </trkpt>
      <trkpt lat="37.1372170" lon="-2.0613260">
        <ele>388.3</ele>
        <time>2019-10-18T09:31:02Z</time>
      </trkpt>
      <trkpt lat="37.1371930" lon="-2.0613650">
        <ele>388.4</ele>
        <time>2019-10-18T09:31:03Z</time>
      </trkpt>
      <trkpt lat="37.1371670" lon="-2.0614040">
        <ele>388.5</ele>
        <time>2019-10-18T09:31:04Z</time>
      </trkpt>
      <trkpt lat="37.1371410" lon="-2.0614430">
        <ele>388.6</ele>
        <time>2019-10-18T09:31:05Z</time>
      </trkpt>
      <trkpt lat="37.1371140" lon="-2.0614820">
        <ele>388.7</ele>
        <time>2019-10-18T09:31:06Z</time>
      </trkpt>
      <trkpt lat="37.1370880" lon="-2.0615210">
        <ele>388.8</ele>
        <time>2019-10-18T09:31:07Z</time>
      </trkpt>
      <trkpt lat="37.1370620" lon="-2.0615580">
        <ele>388.9</ele>
        <time>2019-10-18T09:31:08Z</time>
      </trkpt>
      <trkpt lat="37.1370370" lon="-2.0615950">
        <ele>389.1</ele>
        <time>2019-10-18T09:31:09Z</time>
      </trkpt>
      <trkpt lat="37.1370100" lon="-2.0616300">
        <ele>389.2</ele>
        <time>2019-10-18T09:31:10Z</time>
      </trkpt>
      <trkpt lat="37.1369830" lon="-2.0616660">
        <ele>389.2</ele>
        <time>2019-10-18T09:31:11Z</time>
      </trkpt>
      <trkpt lat="37.1369550" lon="-2.0617030">
        <ele>389.3</ele>
        <time>2019-10-18T09:31:12Z</time>
      </trkpt>
      <trkpt lat="37.1369270" lon="-2.0617410">
        <ele>389.4</ele>
        <time>2019-10-18T09:31:13Z</time>
      </trkpt>
      <trkpt lat="37.1368990" lon="-2.0617790">
        <ele>389.5</ele>
        <time>2019-10-18T09:31:14Z</time>
      </trkpt>
      <trkpt lat="37.1368700" lon="-2.0618160">
        <ele>389.5</ele>
        <time>2019-10-18T09:31:15Z</time>
      </trkpt>
      <trkpt lat="37.1368410" lon="-2.0618540">
        <ele>389.6</ele>
        <time>2019-10-18T09:31:16Z</time>
      </trkpt>
      <trkpt lat="37.1368110" lon="-2.0618900">
        <ele>389.7</ele>
        <time>2019-10-18T09:31:17Z</time>
      </trkpt>
      <trkpt lat="37.1367820" lon="-2.0619270">
        <ele>389.8</ele>
        <time>2019-10-18T09:31:18Z</time>
      </trkpt>
      <trkpt lat="37.1367530" lon="-2.0619640">
        <ele>389.8</ele>
        <time>2019-10-18T09:31:19Z</time>
      </trkpt>
      <trkpt lat="37.1367240" lon="-2.0620000">
        <ele>389.9</ele>
        <time>2019-10-18T09:31:20Z</time>
      </trkpt>
      <trkpt lat="37.1366950" lon="-2.0620360">
        <ele>389.9</ele>
        <time>2019-10-18T09:31:21Z</time>
      </trkpt>
      <trkpt lat="37.1366650" lon="-2.0620730">
        <ele>390.0</ele>
        <time>2019-10-18T09:31:22Z</time>
      </trkpt>
      <trkpt lat="37.1366340" lon="-2.0621090">
        <ele>390.0</ele>
        <time>2019-10-18T09:31:23Z</time>
      </trkpt>
      <trkpt lat="37.1366030" lon="-2.0621470">
        <ele>390.0</ele>
        <time>2019-10-18T09:31:24Z</time>
      </trkpt>
      <trkpt lat="37.1365720" lon="-2.0621830">
        <ele>390.1</ele>
        <time>2019-10-18T09:31:25Z</time>
      </trkpt>
      <trkpt lat="37.1365410" lon="-2.0622210">
        <ele>390.1</ele>
        <time>2019-10-18T09:31:26Z</time>
      </trkpt>
      <trkpt lat="37.1365090" lon="-2.0622590">
        <ele>390.1</ele>
        <time>2019-10-18T09:31:27Z</time>
      </trkpt>
      <trkpt lat="37.1364760" lon="-2.0622980">
        <ele>390.1</ele>
        <time>2019-10-18T09:31:28Z</time>
      </trkpt>
      <trkpt lat="37.1364420" lon="-2.0623380">
        <ele>390.1</ele>
        <time>2019-10-18T09:31:29Z</time>
      </trkpt>
      <trkpt lat="37.1364080" lon="-2.0623780">
        <ele>390.1</ele>
        <time>2019-10-18T09:31:30Z</time>
      </trkpt>
      <trkpt lat="37.1363730" lon="-2.0624200">
        <ele>390.1</ele>
        <time>2019-10-18T09:31:31Z</time>
      </trkpt>
      <trkpt lat="37.1363380" lon="-2.0624610">
        <ele>390.1</ele>
        <time>2019-10-18T09:31:32Z</time>
      </trkpt>
      <trkpt lat="37.1363030" lon="-2.0625040">
        <ele>390.1</ele>
        <time>2019-10-18T09:31:33Z</time>
      </trkpt>
      <trkpt lat="37.1362670" lon="-2.0625470">
        <ele>390.1</ele>
        <time>2019-10-18T09:31:34Z</time>
      </trkpt>
      <trkpt lat="37.1362310" lon="-2.0625910">
        <ele>390.1</ele>
        <time>2019-10-18T09:31:35Z</time>
      </trkpt>
      <trkpt lat="37.1361940" lon="-2.0626370">
        <ele>390.1</ele>
        <time>2019-10-18T09:31:36Z</time>
      </trkpt>
      <trkpt lat="37.1361540" lon="-2.0626830">
        <ele>390.0</ele>
        <time>2019-10-18T09:31:37Z</time>
      </trkpt>
      <trkpt lat="37.1361140" lon="-2.0627300">
        <ele>390.0</ele>
        <time>2019-10-18T09:31:38Z</time>
      </trkpt>
      <trkpt lat="37.1360730" lon="-2.0627770">
        <ele>390.0</ele>
        <time>2019-10-18T09:31:39Z</time>
      </trkpt>
      <trkpt lat="37.1360310" lon="-2.0628260">
        <ele>390.0</ele>
        <time>2019-10-18T09:31:40Z</time>
      </trkpt>
      <trkpt lat="37.1359880" lon="-2.0628760">
        <ele>389.9</ele>
        <time>2019-10-18T09:31:41Z</time>
      </trkpt>
      <trkpt lat="37.1359450" lon="-2.0629270">
        <ele>389.9</ele>
        <time>2019-10-18T09:31:42Z</time>
      </trkpt>
      <trkpt lat="37.1359020" lon="-2.0629790">
        <ele>389.9</ele>
        <time>2019-10-18T09:31:43Z</time>
      </trkpt>
      <trkpt lat="37.1358590" lon="-2.0630310">
        <ele>389.9</ele>
        <time>2019-10-18T09:31:44Z</time>
      </trkpt>
      <trkpt lat="37.1358160" lon="-2.0630840">
        <ele>389.8</ele>
        <time>2019-10-18T09:31:45Z</time>
      </trkpt>
      <trkpt lat="37.1357720" lon="-2.0631370">
        <ele>389.8</ele>
        <time>2019-10-18T09:31:46Z</time>
      </trkpt>
      <trkpt lat="37.1357290" lon="-2.0631910">
        <ele>389.8</ele>
        <time>2019-10-18T09:31:47Z</time>
      </trkpt>
      <trkpt lat="37.1356850" lon="-2.0632440">
        <ele>389.7</ele>
        <time>2019-10-18T09:31:48Z</time>
      </trkpt>
      <trkpt lat="37.1356420" lon="-2.0632980">
        <ele>389.7</ele>
        <time>2019-10-18T09:31:49Z</time>
      </trkpt>
      <trkpt lat="37.1355990" lon="-2.0633520">
        <ele>389.7</ele>
        <time>2019-10-18T09:31:50Z</time>
      </trkpt>
      <trkpt lat="37.1355560" lon="-2.0634060">
        <ele>389.7</ele>
        <time>2019-10-18T09:31:51Z</time>
      </trkpt>
      <trkpt lat="37.1355150" lon="-2.0634610">
        <ele>389.6</ele>
        <time>2019-10-18T09:31:52Z</time>
      </trkpt>
      <trkpt lat="37.1354720" lon="-2.0635130">
        <ele>389.6</ele>
        <time>2019-10-18T09:31:53Z</time>
      </trkpt>
      <trkpt lat="37.1354290" lon="-2.0635640">
        <ele>389.6</ele>
        <time>2019-10-18T09:31:54Z</time>
      </trkpt>
      <trkpt lat="37.1353860" lon="-2.0636140">
        <ele>389.5</ele>
        <time>2019-10-18T09:31:55Z</time>
      </trkpt>
      <trkpt lat="37.1353440" lon="-2.0636640">
        <ele>389.5</ele>
        <time>2019-10-18T09:31:56Z</time>
      </trkpt>
      <trkpt lat="37.1353020" lon="-2.0637150">
        <ele>389.5</ele>
        <time>2019-10-18T09:31:57Z</time>
      </trkpt>
      <trkpt lat="37.1352610" lon="-2.0637650">
        <ele>389.7</ele>
        <time>2019-10-18T09:31:58Z</time>
      </trkpt>
      <trkpt lat="37.1352190" lon="-2.0638150">
        <ele>389.8</ele>
        <time>2019-10-18T09:31:59Z</time>
      </trkpt>
      <trkpt lat="37.1351770" lon="-2.0638660">
        <ele>389.9</ele>
        <time>2019-10-18T09:32:00Z</time>
      </trkpt>
      <trkpt lat="37.1351350" lon="-2.0639180">
        <ele>390.0</ele>
        <time>2019-10-18T09:32:01Z</time>
      </trkpt>
      <trkpt lat="37.1350930" lon="-2.0639700">
        <ele>390.1</ele>
        <time>2019-10-18T09:32:02Z</time>
      </trkpt>
      <trkpt lat="37.1350510" lon="-2.0640210">
        <ele>390.3</ele>
        <time>2019-10-18T09:32:03Z</time>
      </trkpt>
      <trkpt lat="37.1350100" lon="-2.0640720">
        <ele>390.4</ele>
        <time>2019-10-18T09:32:04Z</time>
      </trkpt>
      <trkpt lat="37.1349680" lon="-2.0641200">
        <ele>390.6</ele>
        <time>2019-10-18T09:32:05Z</time>
      </trkpt>
      <trkpt lat="37.1349280" lon="-2.0641680">
        <ele>390.8</ele>
        <time>2019-10-18T09:32:06Z</time>
      </trkpt>
      <trkpt lat="37.1348870" lon="-2.0642140">
        <ele>391.1</ele>
        <time>2019-10-18T09:32:07Z</time>
      </trkpt>
      <trkpt lat="37.1348460" lon="-2.0642610">
        <ele>391.2</ele>
        <time>2019-10-18T09:32:08Z</time>
      </trkpt>
      <trkpt lat="37.1348060" lon="-2.0643070">
        <ele>391.4</ele>
        <time>2019-10-18T09:32:09Z</time>
      </trkpt>
      <trkpt lat="37.1347650" lon="-2.0643530">
        <ele>391.7</ele>
        <time>2019-10-18T09:32:10Z</time>
      </trkpt>
      <trkpt lat="37.1347250" lon="-2.0643990">
        <ele>391.5</ele>
        <time>2019-10-18T09:32:11Z</time>
      </trkpt>
      <trkpt lat="37.1346840" lon="-2.0644460">
        <ele>391.3</ele>
        <time>2019-10-18T09:32:12Z</time>
      </trkpt>
      <trkpt lat="37.1346440" lon="-2.0644930">
        <ele>391.3</ele>
        <time>2019-10-18T09:32:13Z</time>
      </trkpt>
      <trkpt lat="37.1346020" lon="-2.0645410">
        <ele>391.4</ele>
        <time>2019-10-18T09:32:14Z</time>
      </trkpt>
      <trkpt lat="37.1345600" lon="-2.0645900">
        <ele>391.4</ele>
        <time>2019-10-18T09:32:15Z</time>
      </trkpt>
      <trkpt lat="37.1345170" lon="-2.0646390">
        <ele>391.4</ele>
        <time>2019-10-18T09:32:16Z</time>
      </trkpt>
      <trkpt lat="37.1344750" lon="-2.0646880">
        <ele>391.5</ele>
        <time>2019-10-18T09:32:17Z</time>
      </trkpt>
      <trkpt lat="37.1344320" lon="-2.0647370">
        <ele>391.5</ele>
        <time>2019-10-18T09:32:18Z</time>
      </trkpt>
      <trkpt lat="37.1343900" lon="-2.0647870">
        <ele>391.5</ele>
        <time>2019-10-18T09:32:19Z</time>
      </trkpt>
      <trkpt lat="37.1343510" lon="-2.0648380">
        <ele>391.4</ele>
        <time>2019-10-18T09:32:20Z</time>
      </trkpt>
      <trkpt lat="37.1343120" lon="-2.0648900">
        <ele>391.3</ele>
        <time>2019-10-18T09:32:21Z</time>
      </trkpt>
      <trkpt lat="37.1342720" lon="-2.0649410">
        <ele>391.3</ele>
        <time>2019-10-18T09:32:22Z</time>
      </trkpt>
      <trkpt lat="37.1342300" lon="-2.0649890">
        <ele>391.3</ele>
        <time>2019-10-18T09:32:23Z</time>
      </trkpt>
      <trkpt lat="37.1341880" lon="-2.0650380">
        <ele>391.3</ele>
        <time>2019-10-18T09:32:24Z</time>
      </trkpt>
      <trkpt lat="37.1341450" lon="-2.0650870">
        <ele>391.4</ele>
        <time>2019-10-18T09:32:25Z</time>
      </trkpt>
      <trkpt lat="37.1341030" lon="-2.0651360">
        <ele>391.5</ele>
        <time>2019-10-18T09:32:26Z</time>
      </trkpt>
      <trkpt lat="37.1340610" lon="-2.0651840">
        <ele>391.6</ele>
        <time>2019-10-18T09:32:27Z</time>
      </trkpt>
      <trkpt lat="37.1340190" lon="-2.0652330">
        <ele>391.7</ele>
        <time>2019-10-18T09:32:28Z</time>
      </trkpt>
      <trkpt lat="37.1339790" lon="-2.0652830">
        <ele>391.8</ele>
        <time>2019-10-18T09:32:29Z</time>
      </trkpt>
      <trkpt lat="37.1339390" lon="-2.0653330">
        <ele>391.9</ele>
        <time>2019-10-18T09:32:30Z</time>
      </trkpt>
      <trkpt lat="37.1338980" lon="-2.0653810">
        <ele>392.0</ele>
        <time>2019-10-18T09:32:31Z</time>
      </trkpt>
      <trkpt lat="37.1338570" lon="-2.0654270">
        <ele>392.1</ele>
        <time>2019-10-18T09:32:32Z</time>
      </trkpt>
      <trkpt lat="37.1338150" lon="-2.0654730">
        <ele>392.2</ele>
        <time>2019-10-18T09:32:33Z</time>
      </trkpt>
      <trkpt lat="37.1337730" lon="-2.0655190">
        <ele>392.3</ele>
        <time>2019-10-18T09:32:34Z</time>
      </trkpt>
      <trkpt lat="37.1337320" lon="-2.0655630">
        <ele>392.4</ele>
        <time>2019-10-18T09:32:35Z</time>
      </trkpt>
      <trkpt lat="37.1336910" lon="-2.0656080">
        <ele>392.5</ele>
        <time>2019-10-18T09:32:36Z</time>
      </trkpt>
      <trkpt lat="37.1336510" lon="-2.0656520">
        <ele>392.6</ele>
        <time>2019-10-18T09:32:37Z</time>
      </trkpt>
      <trkpt lat="37.1336120" lon="-2.0656960">
        <ele>392.7</ele>
        <time>2019-10-18T09:32:38Z</time>
      </trkpt>
      <trkpt lat="37.1335720" lon="-2.0657400">
        <ele>392.8</ele>
        <time>2019-10-18T09:32:39Z</time>
      </trkpt>
      <trkpt lat="37.1335320" lon="-2.0657820">
        <ele>393.0</ele>
        <time>2019-10-18T09:32:40Z</time>
      </trkpt>
      <trkpt lat="37.1334910" lon="-2.0658230">
        <ele>393.1</ele>
        <time>2019-10-18T09:32:41Z</time>
      </trkpt>
      <trkpt lat="37.1334500" lon="-2.0658640">
        <ele>393.2</ele>
        <time>2019-10-18T09:32:42Z</time>
      </trkpt>
      <trkpt lat="37.1334080" lon="-2.0659040">
        <ele>393.4</ele>
        <time>2019-10-18T09:32:43Z</time>
      </trkpt>
      <trkpt lat="37.1333650" lon="-2.0659440">
        <ele>393.5</ele>
        <time>2019-10-18T09:32:44Z</time>
      </trkpt>
      <trkpt lat="37.1333230" lon="-2.0659850">
        <ele>393.7</ele>
        <time>2019-10-18T09:32:45Z</time>
      </trkpt>
      <trkpt lat="37.1332800" lon="-2.0660250">
        <ele>393.8</ele>
        <time>2019-10-18T09:32:46Z</time>
      </trkpt>
      <trkpt lat="37.1332370" lon="-2.0660640">
        <ele>394.0</ele>
        <time>2019-10-18T09:32:47Z</time>
      </trkpt>
      <trkpt lat="37.1331940" lon="-2.0661030">
        <ele>394.1</ele>
        <time>2019-10-18T09:32:48Z</time>
      </trkpt>
      <trkpt lat="37.1331510" lon="-2.0661420">
        <ele>394.3</ele>
        <time>2019-10-18T09:32:49Z</time>
      </trkpt>
      <trkpt lat="37.1331080" lon="-2.0661800">
        <ele>394.5</ele>
        <time>2019-10-18T09:32:50Z</time>
      </trkpt>
      <trkpt lat="37.1330650" lon="-2.0662180">
        <ele>394.6</ele>
        <time>2019-10-18T09:32:51Z</time>
      </trkpt>
      <trkpt lat="37.1330230" lon="-2.0662560">
        <ele>394.8</ele>
        <time>2019-10-18T09:32:52Z</time>
      </trkpt>
      <trkpt lat="37.1329800" lon="-2.0662930">
        <ele>394.9</ele>
        <time>2019-10-18T09:32:53Z</time>
      </trkpt>
      <trkpt lat="37.1329380" lon="-2.0663310">
        <ele>395.0</ele>
        <time>2019-10-18T09:32:54Z</time>
      </trkpt>
      <trkpt lat="37.1328950" lon="-2.0663690">
        <ele>395.2</ele>
        <time>2019-10-18T09:32:55Z</time>
      </trkpt>
      <trkpt lat="37.1328510" lon="-2.0664070">
        <ele>395.3</ele>
        <time>2019-10-18T09:32:56Z</time>
      </trkpt>
      <trkpt lat="37.1328080" lon="-2.0664460">
        <ele>395.4</ele>
        <time>2019-10-18T09:32:57Z</time>
      </trkpt>
      <trkpt lat="37.1327650" lon="-2.0664840">
        <ele>395.5</ele>
        <time>2019-10-18T09:32:58Z</time>
      </trkpt>
      <trkpt lat="37.1327220" lon="-2.0665220">
        <ele>395.7</ele>
        <time>2019-10-18T09:32:59Z</time>
      </trkpt>
      <trkpt lat="37.1326800" lon="-2.0665600">
        <ele>395.8</ele>
        <time>2019-10-18T09:33:00Z</time>
      </trkpt>
      <trkpt lat="37.1326370" lon="-2.0665980">
        <ele>395.9</ele>
        <time>2019-10-18T09:33:01Z</time>
      </trkpt>
      <trkpt lat="37.1325950" lon="-2.0666370">
        <ele>396.0</ele>
        <time>2019-10-18T09:33:02Z</time>
      </trkpt>
      <trkpt lat="37.1325530" lon="-2.0666750">
        <ele>396.2</ele>
        <time>2019-10-18T09:33:03Z</time>
      </trkpt>
      <trkpt lat="37.1325110" lon="-2.0667110">
        <ele>396.3</ele>
        <time>2019-10-18T09:33:04Z</time>
      </trkpt>
      <trkpt lat="37.1324700" lon="-2.0667470">
        <ele>396.5</ele>
        <time>2019-10-18T09:33:05Z</time>
      </trkpt>
      <trkpt lat="37.1324300" lon="-2.0667830">
        <ele>396.6</ele>
        <time>2019-10-18T09:33:06Z</time>
      </trkpt>
      <trkpt lat="37.1323910" lon="-2.0668190">
        <ele>396.8</ele>
        <time>2019-10-18T09:33:07Z</time>
      </trkpt>
      <trkpt lat="37.1323520" lon="-2.0668540">
        <ele>396.9</ele>
        <time>2019-10-18T09:33:08Z</time>
      </trkpt>
      <trkpt lat="37.1323140" lon="-2.0668880">
        <ele>397.0</ele>
        <time>2019-10-18T09:33:09Z</time>
      </trkpt>
      <trkpt lat="37.1322750" lon="-2.0669220">
        <ele>397.1</ele>
        <time>2019-10-18T09:33:10Z</time>
      </trkpt>
      <trkpt lat="37.1322370" lon="-2.0669560">
        <ele>397.3</ele>
        <time>2019-10-18T09:33:11Z</time>
      </trkpt>
      <trkpt lat="37.1321990" lon="-2.0669910">
        <ele>397.4</ele>
        <time>2019-10-18T09:33:12Z</time>
      </trkpt>
      <trkpt lat="37.1321620" lon="-2.0670250">
        <ele>397.6</ele>
        <time>2019-10-18T09:33:13Z</time>
      </trkpt>
      <trkpt lat="37.1321240" lon="-2.0670580">
        <ele>397.8</ele>
        <time>2019-10-18T09:33:14Z</time>
      </trkpt>
      <trkpt lat="37.1320860" lon="-2.0670910">
        <ele>398.0</ele>
        <time>2019-10-18T09:33:15Z</time>
      </trkpt>
      <trkpt lat="37.1320480" lon="-2.0671250">
        <ele>398.2</ele>
        <time>2019-10-18T09:33:16Z</time>
      </trkpt>
      <trkpt lat="37.1320110" lon="-2.0671600">
        <ele>398.4</ele>
        <time>2019-10-18T09:33:17Z</time>
      </trkpt>
      <trkpt lat="37.1319740" lon="-2.0671940">
        <ele>398.7</ele>
        <time>2019-10-18T09:33:18Z</time>
      </trkpt>
      <trkpt lat="37.1319370" lon="-2.0672270">
        <ele>398.8</ele>
        <time>2019-10-18T09:33:19Z</time>
      </trkpt>
      <trkpt lat="37.1319010" lon="-2.0672600">
        <ele>399.0</ele>
        <time>2019-10-18T09:33:20Z</time>
      </trkpt>
      <trkpt lat="37.1318650" lon="-2.0672930">
        <ele>399.2</ele>
        <time>2019-10-18T09:33:21Z</time>
      </trkpt>
      <trkpt lat="37.1318280" lon="-2.0673250">
        <ele>399.4</ele>
        <time>2019-10-18T09:33:22Z</time>
      </trkpt>
      <trkpt lat="37.1317920" lon="-2.0673570">
        <ele>399.6</ele>
        <time>2019-10-18T09:33:23Z</time>
      </trkpt>
      <trkpt lat="37.1317570" lon="-2.0673880">
        <ele>399.8</ele>
        <time>2019-10-18T09:33:24Z</time>
      </trkpt>
      <trkpt lat="37.1317230" lon="-2.0674190">
        <ele>400.0</ele>
        <time>2019-10-18T09:33:25Z</time>
      </trkpt>
      <trkpt lat="37.1316880" lon="-2.0674500">
        <ele>400.2</ele>
        <time>2019-10-18T09:33:26Z</time>
      </trkpt>
      <trkpt lat="37.1316520" lon="-2.0674820">
        <ele>400.5</ele>
        <time>2019-10-18T09:33:27Z</time>
      </trkpt>
      <trkpt lat="37.1316150" lon="-2.0675130">
        <ele>400.7</ele>
        <time>2019-10-18T09:33:28Z</time>
      </trkpt>
      <trkpt lat="37.1315780" lon="-2.0675440">
        <ele>400.9</ele>
        <time>2019-10-18T09:33:29Z</time>
      </trkpt>
      <trkpt lat="37.1315410" lon="-2.0675740">
        <ele>401.1</ele>
        <time>2019-10-18T09:33:30Z</time>
      </trkpt>
      <trkpt lat="37.1315060" lon="-2.0676050">
        <ele>401.3</ele>
        <time>2019-10-18T09:33:31Z</time>
      </trkpt>
      <trkpt lat="37.1314720" lon="-2.0676370">
        <ele>401.4</ele>
        <time>2019-10-18T09:33:32Z</time>
      </trkpt>
      <trkpt lat="37.1314390" lon="-2.0676690">
        <ele>401.6</ele>
        <time>2019-10-18T09:33:33Z</time>
      </trkpt>
      <trkpt lat="37.1314060" lon="-2.0676990">
        <ele>401.8</ele>
        <time>2019-10-18T09:33:34Z</time>
      </trkpt>
      <trkpt lat="37.1313740" lon="-2.0677280">
        <ele>402.0</ele>
        <time>2019-10-18T09:33:35Z</time>
      </trkpt>
      <trkpt lat="37.1313410" lon="-2.0677570">
        <ele>402.1</ele>
        <time>2019-10-18T09:33:36Z</time>
      </trkpt>
      <trkpt lat="37.1313100" lon="-2.0677860">
        <ele>402.3</ele>
        <time>2019-10-18T09:33:37Z</time>
      </trkpt>
      <trkpt lat="37.1312780" lon="-2.0678140">
        <ele>402.5</ele>
        <time>2019-10-18T09:33:38Z</time>
      </trkpt>
      <trkpt lat="37.1312460" lon="-2.0678430">
        <ele>402.6</ele>
        <time>2019-10-18T09:33:39Z</time>
      </trkpt>
      <trkpt lat="37.1312140" lon="-2.0678720">
        <ele>402.8</ele>
        <time>2019-10-18T09:33:40Z</time>
      </trkpt>
      <trkpt lat="37.1311810" lon="-2.0679010">
        <ele>402.9</ele>
        <time>2019-10-18T09:33:41Z</time>
      </trkpt>
      <trkpt lat="37.1311490" lon="-2.0679300">
        <ele>403.0</ele>
        <time>2019-10-18T09:33:42Z</time>
      </trkpt>
      <trkpt lat="37.1311180" lon="-2.0679580">
        <ele>403.1</ele>
        <time>2019-10-18T09:33:43Z</time>
      </trkpt>
      <trkpt lat="37.1310860" lon="-2.0679870">
        <ele>403.3</ele>
        <time>2019-10-18T09:33:44Z</time>
      </trkpt>
      <trkpt lat="37.1310540" lon="-2.0680150">
        <ele>403.4</ele>
        <time>2019-10-18T09:33:45Z</time>
      </trkpt>
      <trkpt lat="37.1310220" lon="-2.0680430">
        <ele>403.5</ele>
        <time>2019-10-18T09:33:46Z</time>
      </trkpt>
      <trkpt lat="37.1309900" lon="-2.0680720">
        <ele>403.7</ele>
        <time>2019-10-18T09:33:47Z</time>
      </trkpt>
      <trkpt lat="37.1309580" lon="-2.0681020">
        <ele>403.8</ele>
        <time>2019-10-18T09:33:48Z</time>
      </trkpt>
      <trkpt lat="37.1309270" lon="-2.0681320">
        <ele>403.9</ele>
        <time>2019-10-18T09:33:49Z</time>
      </trkpt>
      <trkpt lat="37.1308970" lon="-2.0681630">
        <ele>404.1</ele>
        <time>2019-10-18T09:33:50Z</time>
      </trkpt>
      <trkpt lat="37.1308670" lon="-2.0681940">
        <ele>404.2</ele>
        <time>2019-10-18T09:33:51Z</time>
      </trkpt>
      <trkpt lat="37.1308360" lon="-2.0682250">
        <ele>404.4</ele>
        <time>2019-10-18T09:33:52Z</time>
      </trkpt>
      <trkpt lat="37.1308060" lon="-2.0682560">
        <ele>404.5</ele>
        <time>2019-10-18T09:33:53Z</time>
      </trkpt>
      <trkpt lat="37.1307770" lon="-2.0682890">
        <ele>404.6</ele>
        <time>2019-10-18T09:33:54Z</time>
      </trkpt>
      <trkpt lat="37.1307490" lon="-2.0683220">
        <ele>404.8</ele>
        <time>2019-10-18T09:33:55Z</time>
      </trkpt>
      <trkpt lat="37.1307210" lon="-2.0683570">
        <ele>404.9</ele>
        <time>2019-10-18T09:33:56Z</time>
      </trkpt>
      <trkpt lat="37.1306940" lon="-2.0683920">
        <ele>405.1</ele>
        <time>2019-10-18T09:33:57Z</time>
      </trkpt>
      <trkpt lat="37.1306670" lon="-2.0684280">
        <ele>405.2</ele>
        <time>2019-10-18T09:33:58Z</time>
      </trkpt>
      <trkpt lat="37.1306410" lon="-2.0684640">
        <ele>405.3</ele>
        <time>2019-10-18T09:33:59Z</time>
      </trkpt>
      <trkpt lat="37.1306150" lon="-2.0685000">
        <ele>405.5</ele>
        <time>2019-10-18T09:34:00Z</time>
      </trkpt>
      <trkpt lat="37.1305910" lon="-2.0685360">
        <ele>405.6</ele>
        <time>2019-10-18T09:34:01Z</time>
      </trkpt>
      <trkpt lat="37.1305670" lon="-2.0685710">
        <ele>405.8</ele>
        <time>2019-10-18T09:34:02Z</time>
      </trkpt>
      <trkpt lat="37.1305430" lon="-2.0686050">
        <ele>405.9</ele>
        <time>2019-10-18T09:34:03Z</time>
      </trkpt>
      <trkpt lat="37.1305210" lon="-2.0686390">
        <ele>406.0</ele>
        <time>2019-10-18T09:34:04Z</time>
      </trkpt>
      <trkpt lat="37.1304980" lon="-2.0686730">
        <ele>406.1</ele>
        <time>2019-10-18T09:34:05Z</time>
      </trkpt>
      <trkpt lat="37.1304750" lon="-2.0687060">
        <ele>406.3</ele>
        <time>2019-10-18T09:34:06Z</time>
      </trkpt>
      <trkpt lat="37.1304520" lon="-2.0687380">
        <ele>406.5</ele>
        <time>2019-10-18T09:34:07Z</time>
      </trkpt>
      <trkpt lat="37.1304300" lon="-2.0687720">
        <ele>406.6</ele>
        <time>2019-10-18T09:34:08Z</time>
      </trkpt>
      <trkpt lat="37.1304080" lon="-2.0688050">
        <ele>406.8</ele>
        <time>2019-10-18T09:34:09Z</time>
      </trkpt>
      <trkpt lat="37.1303850" lon="-2.0688390">
        <ele>407.0</ele>
        <time>2019-10-18T09:34:10Z</time>
      </trkpt>
      <trkpt lat="37.1303620" lon="-2.0688730">
        <ele>407.2</ele>
        <time>2019-10-18T09:34:11Z</time>
      </trkpt>
      <trkpt lat="37.1303390" lon="-2.0689070">
        <ele>407.3</ele>
        <time>2019-10-18T09:34:12Z</time>
      </trkpt>
      <trkpt lat="37.1303170" lon="-2.0689420">
        <ele>407.5</ele>
        <time>2019-10-18T09:34:13Z</time>
      </trkpt>
      <trkpt lat="37.1302930" lon="-2.0689750">
        <ele>407.7</ele>
        <time>2019-10-18T09:34:14Z</time>
      </trkpt>
      <trkpt lat="37.1302680" lon="-2.0690080">
        <ele>407.8</ele>
        <time>2019-10-18T09:34:15Z</time>
      </trkpt>
      <trkpt lat="37.1302430" lon="-2.0690410">
        <ele>407.9</ele>
        <time>2019-10-18T09:34:16Z</time>
      </trkpt>
      <trkpt lat="37.1302170" lon="-2.0690750">
        <ele>408.1</ele>
        <time>2019-10-18T09:34:17Z</time>
      </trkpt>
      <trkpt lat="37.1301900" lon="-2.0691080">
        <ele>408.2</ele>
        <time>2019-10-18T09:34:18Z</time>
      </trkpt>
      <trkpt lat="37.1301640" lon="-2.0691410">
        <ele>408.4</ele>
        <time>2019-10-18T09:34:19Z</time>
      </trkpt>
      <trkpt lat="37.1301370" lon="-2.0691740">
        <ele>408.5</ele>
        <time>2019-10-18T09:34:20Z</time>
      </trkpt>
      <trkpt lat="37.1301100" lon="-2.0692070">
        <ele>408.7</ele>
        <time>2019-10-18T09:34:21Z</time>
      </trkpt>
      <trkpt lat="37.1300830" lon="-2.0692390">
        <ele>408.9</ele>
        <time>2019-10-18T09:34:22Z</time>
      </trkpt>
      <trkpt lat="37.1300550" lon="-2.0692720">
        <ele>409.0</ele>
        <time>2019-10-18T09:34:23Z</time>
      </trkpt>
      <trkpt lat="37.1300270" lon="-2.0693040">
        <ele>409.2</ele>
        <time>2019-10-18T09:34:24Z</time>
      </trkpt>
      <trkpt lat="37.1299990" lon="-2.0693360">
        <ele>409.4</ele>
        <time>2019-10-18T09:34:25Z</time>
      </trkpt>
      <trkpt lat="37.1299710" lon="-2.0693670">
        <ele>409.5</ele>
        <time>2019-10-18T09:34:26Z</time>
      </trkpt>
      <trkpt lat="37.1299430" lon="-2.0693970">
        <ele>409.7</ele>
        <time>2019-10-18T09:34:27Z</time>
      </trkpt>
      <trkpt lat="37.1299160" lon="-2.0694270">
        <ele>410.0</ele>
        <time>2019-10-18T09:34:28Z</time>
      </trkpt>
      <trkpt lat="37.1298900" lon="-2.0694550">
        <ele>410.2</ele>
        <time>2019-10-18T09:34:29Z</time>
      </trkpt>
      <trkpt lat="37.1298630" lon="-2.0694830">
        <ele>410.4</ele>
        <time>2019-10-18T09:34:30Z</time>
      </trkpt>
      <trkpt lat="37.1298360" lon="-2.0695110">
        <ele>410.6</ele>
        <time>2019-10-18T09:34:31Z</time>
      </trkpt>
      <trkpt lat="37.1298070" lon="-2.0695410">
        <ele>410.7</ele>
        <time>2019-10-18T09:34:32Z</time>
      </trkpt>
      <trkpt lat="37.1297790" lon="-2.0695710">
        <ele>410.9</ele>
        <time>2019-10-18T09:34:33Z</time>
      </trkpt>
      <trkpt lat="37.1297510" lon="-2.0696010">
        <ele>411.0</ele>
        <time>2019-10-18T09:34:34Z</time>
      </trkpt>
      <trkpt lat="37.1297220" lon="-2.0696290">
        <ele>411.2</ele>
        <time>2019-10-18T09:34:35Z</time>
      </trkpt>
      <trkpt lat="37.1296940" lon="-2.0696550">
        <ele>411.4</ele>
        <time>2019-10-18T09:34:36Z</time>
      </trkpt>
      <trkpt lat="37.1296650" lon="-2.0696810">
        <ele>411.5</ele>
        <time>2019-10-18T09:34:37Z</time>
      </trkpt>
      <trkpt lat="37.1296350" lon="-2.0697060">
        <ele>411.7</ele>
        <time>2019-10-18T09:34:38Z</time>
      </trkpt>
      <trkpt lat="37.1296050" lon="-2.0697300">
        <ele>411.9</ele>
        <time>2019-10-18T09:34:39Z</time>
      </trkpt>
      <trkpt lat="37.1295760" lon="-2.0697530">
        <ele>412.2</ele>
        <time>2019-10-18T09:34:40Z</time>
      </trkpt>
      <trkpt lat="37.1295460" lon="-2.0697760">
        <ele>412.3</ele>
        <time>2019-10-18T09:34:41Z</time>
      </trkpt>
      <trkpt lat="37.1295160" lon="-2.0698000">
        <ele>412.5</ele>
        <time>2019-10-18T09:34:42Z</time>
      </trkpt>
      <trkpt lat="37.1294860" lon="-2.0698240">
        <ele>412.6</ele>
        <time>2019-10-18T09:34:43Z</time>
      </trkpt>
      <trkpt lat="37.1294560" lon="-2.0698480">
        <ele>412.8</ele>
        <time>2019-10-18T09:34:44Z</time>
      </trkpt>
      <trkpt lat="37.1294270" lon="-2.0698720">
        <ele>412.9</ele>
        <time>2019-10-18T09:34:45Z</time>
      </trkpt>
      <trkpt lat="37.1293980" lon="-2.0698960">
        <ele>413.1</ele>
        <time>2019-10-18T09:34:46Z</time>
      </trkpt>
      <trkpt lat="37.1293690" lon="-2.0699200">
        <ele>413.2</ele>
        <time>2019-10-18T09:34:47Z</time>
      </trkpt>
      <trkpt lat="37.1293400" lon="-2.0699450">
        <ele>413.3</ele>
        <time>2019-10-18T09:34:48Z</time>
      </trkpt>
      <trkpt lat="37.1293100" lon="-2.0699680">
        <ele>413.5</ele>
        <time>2019-10-18T09:34:49Z</time>
      </trkpt>
      <trkpt lat="37.1292790" lon="-2.0699910">
        <ele>413.6</ele>
        <time>2019-10-18T09:34:50Z</time>
      </trkpt>
      <trkpt lat="37.1292470" lon="-2.0700140">
        <ele>413.8</ele>
        <time>2019-10-18T09:34:51Z</time>
      </trkpt>
      <trkpt lat="37.1292160" lon="-2.0700370">
        <ele>413.9</ele>
        <time>2019-10-18T09:34:52Z</time>
      </trkpt>
      <trkpt lat="37.1291840" lon="-2.0700610">
        <ele>414.1</ele>
        <time>2019-10-18T09:34:53Z</time>
      </trkpt>
      <trkpt lat="37.1291530" lon="-2.0700860">
        <ele>414.2</ele>
        <time>2019-10-18T09:34:54Z</time>
      </trkpt>
      <trkpt lat="37.1291220" lon="-2.0701130">
        <ele>414.3</ele>
        <time>2019-10-18T09:34:55Z</time>
      </trkpt>
      <trkpt lat="37.1290910" lon="-2.0701400">
        <ele>414.5</ele>
        <time>2019-10-18T09:34:56Z</time>
      </trkpt>
      <trkpt lat="37.1290610" lon="-2.0701660">
        <ele>414.6</ele>
        <time>2019-10-18T09:34:57Z</time>
      </trkpt>
      <trkpt lat="37.1290310" lon="-2.0701940">
        <ele>414.8</ele>
        <time>2019-10-18T09:34:58Z</time>
      </trkpt>
      <trkpt lat="37.1290010" lon="-2.0702210">
        <ele>414.9</ele>
        <time>2019-10-18T09:34:59Z</time>
      </trkpt>
      <trkpt lat="37.1289700" lon="-2.0702480">
        <ele>415.1</ele>
        <time>2019-10-18T09:35:00Z</time>
      </trkpt>
      <trkpt lat="37.1289400" lon="-2.0702760">
        <ele>415.3</ele>
        <time>2019-10-18T09:35:01Z</time>
      </trkpt>
      <trkpt lat="37.1289100" lon="-2.0703030">
        <ele>415.5</ele>
        <time>2019-10-18T09:35:02Z</time>
      </trkpt>
      <trkpt lat="37.1288810" lon="-2.0703310">
        <ele>415.7</ele>
        <time>2019-10-18T09:35:03Z</time>
      </trkpt>
      <trkpt lat="37.1288520" lon="-2.0703590">
        <ele>415.8</ele>
        <time>2019-10-18T09:35:04Z</time>
      </trkpt>
      <trkpt lat="37.1288240" lon="-2.0703890">
        <ele>416.0</ele>
        <time>2019-10-18T09:35:05Z</time>
      </trkpt>
      <trkpt lat="37.1287970" lon="-2.0704200">
        <ele>416.1</ele>
        <time>2019-10-18T09:35:06Z</time>
      </trkpt>
      <trkpt lat="37.1287700" lon="-2.0704510">
        <ele>416.3</ele>
        <time>2019-10-18T09:35:07Z</time>
      </trkpt>
      <trkpt lat="37.1287430" lon="-2.0704830">
        <ele>416.5</ele>
        <time>2019-10-18T09:35:08Z</time>
      </trkpt>
      <trkpt lat="37.1287160" lon="-2.0705140">
        <ele>416.7</ele>
        <time>2019-10-18T09:35:09Z</time>
      </trkpt>
      <trkpt lat="37.1286900" lon="-2.0705460">
        <ele>416.9</ele>
        <time>2019-10-18T09:35:10Z</time>
      </trkpt>
      <trkpt lat="37.1286650" lon="-2.0705780">
        <ele>417.1</ele>
        <time>2019-10-18T09:35:11Z</time>
      </trkpt>
      <trkpt lat="37.1286390" lon="-2.0706100">
        <ele>417.3</ele>
        <time>2019-10-18T09:35:12Z</time>
      </trkpt>
      <trkpt lat="37.1286140" lon="-2.0706430">
        <ele>417.5</ele>
        <time>2019-10-18T09:35:13Z</time>
      </trkpt>
      <trkpt lat="37.1285900" lon="-2.0706770">
        <ele>417.7</ele>
        <time>2019-10-18T09:35:14Z</time>
      </trkpt>
      <trkpt lat="37.1285660" lon="-2.0707120">
        <ele>417.8</ele>
        <time>2019-10-18T09:35:15Z</time>
      </trkpt>
      <trkpt lat="37.1285420" lon="-2.0707480">
        <ele>418.0</ele>
        <time>2019-10-18T09:35:16Z</time>
      </trkpt>
      <trkpt lat="37.1285200" lon="-2.0707840">
        <ele>418.2</ele>
        <time>2019-10-18T09:35:17Z</time>
      </trkpt>
      <trkpt lat="37.1284980" lon="-2.0708200">
        <ele>418.3</ele>
        <time>2019-10-18T09:35:18Z</time>
      </trkpt>
      <trkpt lat="37.1284760" lon="-2.0708560">
        <ele>418.5</ele>
        <time>2019-10-18T09:35:19Z</time>
      </trkpt>
      <trkpt lat="37.1284540" lon="-2.0708920">
        <ele>418.7</ele>
        <time>2019-10-18T09:35:20Z</time>
      </trkpt>
      <trkpt lat="37.1284320" lon="-2.0709290">
        <ele>418.8</ele>
        <time>2019-10-18T09:35:21Z</time>
      </trkpt>
      <trkpt lat="37.1284110" lon="-2.0709660">
        <ele>419.0</ele>
        <time>2019-10-18T09:35:22Z</time>
      </trkpt>
      <trkpt lat="37.1283900" lon="-2.0710030">
        <ele>419.1</ele>
        <time>2019-10-18T09:35:23Z</time>
      </trkpt>
      <trkpt lat="37.1283690" lon="-2.0710400">
        <ele>419.3</ele>
        <time>2019-10-18T09:35:24Z</time>
      </trkpt>
      <trkpt lat="37.1283480" lon="-2.0710780">
        <ele>419.4</ele>
        <time>2019-10-18T09:35:25Z</time>
      </trkpt>
      <trkpt lat="37.1283280" lon="-2.0711150">
        <ele>419.6</ele>
        <time>2019-10-18T09:35:26Z</time>
      </trkpt>
      <trkpt lat="37.1283070" lon="-2.0711530">
        <ele>419.7</ele>
        <time>2019-10-18T09:35:27Z</time>
      </trkpt>
      <trkpt lat="37.1282870" lon="-2.0711910">
        <ele>419.8</ele>
        <time>2019-10-18T09:35:28Z</time>
      </trkpt>
      <trkpt lat="37.1282670" lon="-2.0712290">
        <ele>419.9</ele>
        <time>2019-10-18T09:35:29Z</time>
      </trkpt>
      <trkpt lat="37.1282470" lon="-2.0712670">
        <ele>420.0</ele>
        <time>2019-10-18T09:35:30Z</time>
      </trkpt>
      <trkpt lat="37.1282270" lon="-2.0713040">
        <ele>420.2</ele>
        <time>2019-10-18T09:35:31Z</time>
      </trkpt>
      <trkpt lat="37.1282080" lon="-2.0713410">
        <ele>420.3</ele>
        <time>2019-10-18T09:35:32Z</time>
      </trkpt>
      <trkpt lat="37.1281890" lon="-2.0713780">
        <ele>420.4</ele>
        <time>2019-10-18T09:35:33Z</time>
      </trkpt>
      <trkpt lat="37.1281690" lon="-2.0714150">
        <ele>420.4</ele>
        <time>2019-10-18T09:35:34Z</time>
      </trkpt>
      <trkpt lat="37.1281490" lon="-2.0714510">
        <ele>420.5</ele>
        <time>2019-10-18T09:35:35Z</time>
      </trkpt>
      <trkpt lat="37.1281280" lon="-2.0714890">
        <ele>420.6</ele>
        <time>2019-10-18T09:35:36Z</time>
      </trkpt>
      <trkpt lat="37.1281080" lon="-2.0715270">
        <ele>420.7</ele>
        <time>2019-10-18T09:35:37Z</time>
      </trkpt>
      <trkpt lat="37.1280880" lon="-2.0715650">
        <ele>420.8</ele>
        <time>2019-10-18T09:35:38Z</time>
      </trkpt>
      <trkpt lat="37.1280680" lon="-2.0716030">
        <ele>420.8</ele>
        <time>2019-10-18T09:35:39Z</time>
      </trkpt>
      <trkpt lat="37.1280470" lon="-2.0716420">
        <ele>420.9</ele>
        <time>2019-10-18T09:35:40Z</time>
      </trkpt>
      <trkpt lat="37.1280260" lon="-2.0716810">
        <ele>421.0</ele>
        <time>2019-10-18T09:35:41Z</time>
      </trkpt>
      <trkpt lat="37.1280040" lon="-2.0717200">
        <ele>421.0</ele>
        <time>2019-10-18T09:35:42Z</time>
      </trkpt>
      <trkpt lat="37.1279820" lon="-2.0717590">
        <ele>421.0</ele>
        <time>2019-10-18T09:35:43Z</time>
      </trkpt>
      <trkpt lat="37.1279590" lon="-2.0718010">
        <ele>421.1</ele>
        <time>2019-10-18T09:35:44Z</time>
      </trkpt>
      <trkpt lat="37.1279370" lon="-2.0718430">
        <ele>421.1</ele>
        <time>2019-10-18T09:35:45Z</time>
      </trkpt>
      <trkpt lat="37.1279140" lon="-2.0718860">
        <ele>421.1</ele>
        <time>2019-10-18T09:35:46Z</time>
      </trkpt>
      <trkpt lat="37.1278920" lon="-2.0719300">
        <ele>421.2</ele>
        <time>2019-10-18T09:35:47Z</time>
      </trkpt>
      <trkpt lat="37.1278690" lon="-2.0719740">
        <ele>421.2</ele>
        <time>2019-10-18T09:35:48Z</time>
      </trkpt>
      <trkpt lat="37.1278460" lon="-2.0720190">
        <ele>421.2</ele>
        <time>2019-10-18T09:35:49Z</time>
      </trkpt>
      <trkpt lat="37.1278210" lon="-2.0720630">
        <ele>421.2</ele>
        <time>2019-10-18T09:35:50Z</time>
      </trkpt>
      <trkpt lat="37.1277970" lon="-2.0721070">
        <ele>421.2</ele>
        <time>2019-10-18T09:35:51Z</time>
      </trkpt>
      <trkpt lat="37.1277730" lon="-2.0721520">
        <ele>421.2</ele>
        <time>2019-10-18T09:35:52Z</time>
      </trkpt>
      <trkpt lat="37.1277500" lon="-2.0721960">
        <ele>421.2</ele>
        <time>2019-10-18T09:35:53Z</time>
      </trkpt>
      <trkpt lat="37.1277260" lon="-2.0722410">
        <ele>421.2</ele>
        <time>2019-10-18T09:35:54Z</time>
      </trkpt>
      <trkpt lat="37.1277010" lon="-2.0722860">
        <ele>421.2</ele>
        <time>2019-10-18T09:35:55Z</time>
      </trkpt>
      <trkpt lat="37.1276760" lon="-2.0723300">
        <ele>421.2</ele>
        <time>2019-10-18T09:35:56Z</time>
      </trkpt>
      <trkpt lat="37.1276510" lon="-2.0723740">
        <ele>421.2</ele>
        <time>2019-10-18T09:35:57Z</time>
      </trkpt>
      <trkpt lat="37.1276250" lon="-2.0724190">
        <ele>421.2</ele>
        <time>2019-10-18T09:35:58Z</time>
      </trkpt>
      <trkpt lat="37.1275970" lon="-2.0724660">
        <ele>421.2</ele>
        <time>2019-10-18T09:35:59Z</time>
      </trkpt>
      <trkpt lat="37.1275670" lon="-2.0725140">
        <ele>421.2</ele>
        <time>2019-10-18T09:36:00Z</time>
      </trkpt>
      <trkpt lat="37.1275370" lon="-2.0725630">
        <ele>421.2</ele>
        <time>2019-10-18T09:36:01Z</time>
      </trkpt>
      <trkpt lat="37.1275060" lon="-2.0726100">
        <ele>421.2</ele>
        <time>2019-10-18T09:36:02Z</time>
      </trkpt>
      <trkpt lat="37.1274750" lon="-2.0726570">
        <ele>421.2</ele>
        <time>2019-10-18T09:36:03Z</time>
      </trkpt>
      <trkpt lat="37.1274440" lon="-2.0727030">
        <ele>421.2</ele>
        <time>2019-10-18T09:36:04Z</time>
      </trkpt>
      <trkpt lat="37.1274120" lon="-2.0727490">
        <ele>421.2</ele>
        <time>2019-10-18T09:36:05Z</time>
      </trkpt>
      <trkpt lat="37.1273780" lon="-2.0727950">
        <ele>421.2</ele>
        <time>2019-10-18T09:36:06Z</time>
      </trkpt>
      <trkpt lat="37.1273440" lon="-2.0728400">
        <ele>421.2</ele>
        <time>2019-10-18T09:36:07Z</time>
      </trkpt>
      <trkpt lat="37.1273100" lon="-2.0728860">
        <ele>421.2</ele>
        <time>2019-10-18T09:36:08Z</time>
      </trkpt>
      <trkpt lat="37.1272750" lon="-2.0729310">
        <ele>421.1</ele>
        <time>2019-10-18T09:36:09Z</time>
      </trkpt>
      <trkpt lat="37.1272390" lon="-2.0729760">
        <ele>421.1</ele>
        <time>2019-10-18T09:36:10Z</time>
      </trkpt>
      <trkpt lat="37.1272030" lon="-2.0730200">
        <ele>421.0</ele>
        <time>2019-10-18T09:36:11Z</time>
      </trkpt>
      <trkpt lat="37.1271650" lon="-2.0730660">
        <ele>421.0</ele>
        <time>2019-10-18T09:36:12Z</time>
      </trkpt>
      <trkpt lat="37.1271260" lon="-2.0731120">
        <ele>420.9</ele>
        <time>2019-10-18T09:36:13Z</time>
      </trkpt>
      <trkpt lat="37.1270860" lon="-2.0731600">
        <ele>420.8</ele>
        <time>2019-10-18T09:36:14Z</time>
      </trkpt>
      <trkpt lat="37.1270430" lon="-2.0732080">
        <ele>420.6</ele>
        <time>2019-10-18T09:36:15Z</time>
      </trkpt>
      <trkpt lat="37.1269990" lon="-2.0732570">
        <ele>420.5</ele>
        <time>2019-10-18T09:36:16Z</time>
      </trkpt>
      <trkpt lat="37.1269550" lon="-2.0733050">
        <ele>420.3</ele>
        <time>2019-10-18T09:36:17Z</time>
      </trkpt>
      <trkpt lat="37.1269100" lon="-2.0733550">
        <ele>420.0</ele>
        <time>2019-10-18T09:36:18Z</time>
      </trkpt>
      <trkpt lat="37.1268630" lon="-2.0734090">
        <ele>419.7</ele>
        <time>2019-10-18T09:36:19Z</time>
      </trkpt>
      <trkpt lat="37.1268130" lon="-2.0734670">
        <ele>419.5</ele>
        <time>2019-10-18T09:36:20Z</time>
      </trkpt>
      <trkpt lat="37.1267630" lon="-2.0735270">
        <ele>419.2</ele>
        <time>2019-10-18T09:36:21Z</time>
      </trkpt>
      <trkpt lat="37.1267130" lon="-2.0735850">
        <ele>418.9</ele>
        <time>2019-10-18T09:36:22Z</time>
      </trkpt>
      <trkpt lat="37.1266630" lon="-2.0736430">
        <ele>418.6</ele>
        <time>2019-10-18T09:36:23Z</time>
      </trkpt>
      <trkpt lat="37.1266110" lon="-2.0737020">
        <ele>418.3</ele>
        <time>2019-10-18T09:36:24Z</time>
      </trkpt>
      <trkpt lat="37.1265590" lon="-2.0737630">
        <ele>418.0</ele>
        <time>2019-10-18T09:36:25Z</time>
      </trkpt>
      <trkpt lat="37.1265060" lon="-2.0738240">
        <ele>417.7</ele>
        <time>2019-10-18T09:36:26Z</time>
      </trkpt>
      <trkpt lat="37.1264500" lon="-2.0738850">
        <ele>417.2</ele>
        <time>2019-10-18T09:36:27Z</time>
      </trkpt>
      <trkpt lat="37.1263920" lon="-2.0739440">
        <ele>416.9</ele>
        <time>2019-10-18T09:36:28Z</time>
      </trkpt>
      <trkpt lat="37.1263280" lon="-2.0739980">
        <ele>416.6</ele>
        <time>2019-10-18T09:36:29Z</time>
      </trkpt>
      <trkpt lat="37.1262610" lon="-2.0740470">
        <ele>416.3</ele>
        <time>2019-10-18T09:36:30Z</time>
      </trkpt>
      <trkpt lat="37.1261900" lon="-2.0740920">
        <ele>416.0</ele>
        <time>2019-10-18T09:36:31Z</time>
      </trkpt>
      <trkpt lat="37.1261180" lon="-2.0741380">
        <ele>415.7</ele>
        <time>2019-10-18T09:36:32Z</time>
      </trkpt>
      <trkpt lat="37.1260410" lon="-2.0741810">
        <ele>415.3</ele>
        <time>2019-10-18T09:36:33Z</time>
      </trkpt>
      <trkpt lat="37.1259610" lon="-2.0742200">
        <ele>414.9</ele>
        <time>2019-10-18T09:36:34Z</time>
      </trkpt>
      <trkpt lat="37.1258780" lon="-2.0742510">
        <ele>414.5</ele>
        <time>2019-10-18T09:36:35Z</time>
      </trkpt>
      <trkpt lat="37.1257920" lon="-2.0742740">
        <ele>414.1</ele>
        <time>2019-10-18T09:36:36Z</time>
      </trkpt>
      <trkpt lat="37.1257020" lon="-2.0742890">
        <ele>413.7</ele>
        <time>2019-10-18T09:36:37Z</time>
      </trkpt>
      <trkpt lat="37.1256080" lon="-2.0742970">
        <ele>413.3</ele>
        <time>2019-10-18T09:36:38Z</time>
      </trkpt>
      <trkpt lat="37.1255140" lon="-2.0742970">
        <ele>412.9</ele>
        <time>2019-10-18T09:36:39Z</time>
      </trkpt>
      <trkpt lat="37.1254210" lon="-2.0742900">
        <ele>412.5</ele>
        <time>2019-10-18T09:36:40Z</time>
      </trkpt>
      <trkpt lat="37.1253300" lon="-2.0742810">
        <ele>412.1</ele>
        <time>2019-10-18T09:36:41Z</time>
      </trkpt>
      <trkpt lat="37.1252390" lon="-2.0742710">
        <ele>411.6</ele>
        <time>2019-10-18T09:36:42Z</time>
      </trkpt>
      <trkpt lat="37.1251480" lon="-2.0742590">
        <ele>411.2</ele>
        <time>2019-10-18T09:36:43Z</time>
      </trkpt>
      <trkpt lat="37.1250570" lon="-2.0742470">
        <ele>410.8</ele>
        <time>2019-10-18T09:36:44Z</time>
      </trkpt>
      <trkpt lat="37.1249660" lon="-2.0742350">
        <ele>410.5</ele>
        <time>2019-10-18T09:36:45Z</time>
      </trkpt>
      <trkpt lat="37.1248750" lon="-2.0742230">
        <ele>410.3</ele>
        <time>2019-10-18T09:36:46Z</time>
      </trkpt>
      <trkpt lat="37.1247830" lon="-2.0742100">
        <ele>410.1</ele>
        <time>2019-10-18T09:36:47Z</time>
      </trkpt>
      <trkpt lat="37.1246920" lon="-2.0741980">
        <ele>409.8</ele>
        <time>2019-10-18T09:36:48Z</time>
      </trkpt>
      <trkpt lat="37.1246020" lon="-2.0741870">
        <ele>409.6</ele>
        <time>2019-10-18T09:36:49Z</time>
      </trkpt>
      <trkpt lat="37.1245130" lon="-2.0741760">
        <ele>409.3</ele>
        <time>2019-10-18T09:36:50Z</time>
      </trkpt>
      <trkpt lat="37.1244240" lon="-2.0741650">
        <ele>409.0</ele>
        <time>2019-10-18T09:36:51Z</time>
      </trkpt>
      <trkpt lat="37.1243350" lon="-2.0741540">
        <ele>408.6</ele>
        <time>2019-10-18T09:36:52Z</time>
      </trkpt>
      <trkpt lat="37.1242460" lon="-2.0741420">
        <ele>408.3</ele>
        <time>2019-10-18T09:36:53Z</time>
      </trkpt>
      <trkpt lat="37.1241570" lon="-2.0741300">
        <ele>408.0</ele>
        <time>2019-10-18T09:36:54Z</time>
      </trkpt>
      <trkpt lat="37.1240690" lon="-2.0741190">
        <ele>407.7</ele>
        <time>2019-10-18T09:36:55Z</time>
      </trkpt>
      <trkpt lat="37.1239810" lon="-2.0741090">
        <ele>407.5</ele>
        <time>2019-10-18T09:36:56Z</time>
      </trkpt>
      <trkpt lat="37.1238920" lon="-2.0741000">
        <ele>407.3</ele>
        <time>2019-10-18T09:36:57Z</time>
      </trkpt>
      <trkpt lat="37.1238040" lon="-2.0740910">
        <ele>407.0</ele>
        <time>2019-10-18T09:36:58Z</time>
      </trkpt>
      <trkpt lat="37.1237150" lon="-2.0740830">
        <ele>406.8</ele>
        <time>2019-10-18T09:36:59Z</time>
      </trkpt>
      <trkpt lat="37.1236270" lon="-2.0740750">
        <ele>406.5</ele>
        <time>2019-10-18T09:37:00Z</time>
      </trkpt>
      <trkpt lat="37.1235390" lon="-2.0740690">
        <ele>406.3</ele>
        <time>2019-10-18T09:37:01Z</time>
      </trkpt>
      <trkpt lat="37.1234510" lon="-2.0740680">
        <ele>406.1</ele>
        <time>2019-10-18T09:37:02Z</time>
      </trkpt>
      <trkpt lat="37.1233630" lon="-2.0740730">
        <ele>405.9</ele>
        <time>2019-10-18T09:37:03Z</time>
      </trkpt>
      <trkpt lat="37.1232750" lon="-2.0740820">
        <ele>405.6</ele>
        <time>2019-10-18T09:37:04Z</time>
      </trkpt>
      <trkpt lat="37.1231880" lon="-2.0740960">
        <ele>405.4</ele>
        <time>2019-10-18T09:37:05Z</time>
      </trkpt>
      <trkpt lat="37.1231030" lon="-2.0741160">
        <ele>405.2</ele>
        <time>2019-10-18T09:37:06Z</time>
      </trkpt>
      <trkpt lat="37.1230200" lon="-2.0741410">
        <ele>405.0</ele>
        <time>2019-10-18T09:37:07Z</time>
      </trkpt>
      <trkpt lat="37.1229380" lon="-2.0741680">
        <ele>404.8</ele>
        <time>2019-10-18T09:37:08Z</time>
      </trkpt>
      <trkpt lat="37.1228560" lon="-2.0741950">
        <ele>404.6</ele>
        <time>2019-10-18T09:37:09Z</time>
      </trkpt>
      <trkpt lat="37.1227760" lon="-2.0742240">
        <ele>404.5</ele>
        <time>2019-10-18T09:37:10Z</time>
      </trkpt>
      <trkpt lat="37.1226970" lon="-2.0742540">
        <ele>404.4</ele>
        <time>2019-10-18T09:37:11Z</time>
      </trkpt>
      <trkpt lat="37.1226180" lon="-2.0742840">
        <ele>404.3</ele>
        <time>2019-10-18T09:37:12Z</time>
      </trkpt>
      <trkpt lat="37.1225400" lon="-2.0743120">
        <ele>404.2</ele>
        <time>2019-10-18T09:37:13Z</time>
      </trkpt>
      <trkpt lat="37.1224630" lon="-2.0743410">
        <ele>404.1</ele>
        <time>2019-10-18T09:37:14Z</time>
      </trkpt>
      <trkpt lat="37.1223860" lon="-2.0743690">
        <ele>404.0</ele>
        <time>2019-10-18T09:37:15Z</time>
      </trkpt>
      <trkpt lat="37.1223100" lon="-2.0743970">
        <ele>404.0</ele>
        <time>2019-10-18T09:37:16Z</time>
      </trkpt>
      <trkpt lat="37.1222330" lon="-2.0744230">
        <ele>403.8</ele>
        <time>2019-10-18T09:37:17Z</time>
      </trkpt>
      <trkpt lat="37.1221560" lon="-2.0744470">
        <ele>403.7</ele>
        <time>2019-10-18T09:37:18Z</time>
      </trkpt>
      <trkpt lat="37.1220800" lon="-2.0744710">
        <ele>403.5</ele>
        <time>2019-10-18T09:37:19Z</time>
      </trkpt>
      <trkpt lat="37.1220030" lon="-2.0744920">
        <ele>403.4</ele>
        <time>2019-10-18T09:37:20Z</time>
      </trkpt>
      <trkpt lat="37.1219270" lon="-2.0745100">
        <ele>403.3</ele>
        <time>2019-10-18T09:37:21Z</time>
      </trkpt>
      <trkpt lat="37.1218500" lon="-2.0745240">
        <ele>403.1</ele>
        <time>2019-10-18T09:37:22Z</time>
      </trkpt>
      <trkpt lat="37.1217720" lon="-2.0745350">
        <ele>403.0</ele>
        <time>2019-10-18T09:37:23Z</time>
      </trkpt>
      <trkpt lat="37.1216950" lon="-2.0745410">
        <ele>402.8</ele>
        <time>2019-10-18T09:37:24Z</time>
      </trkpt>
      <trkpt lat="37.1216170" lon="-2.0745440">
        <ele>402.6</ele>
        <time>2019-10-18T09:37:25Z</time>
      </trkpt>
      <trkpt lat="37.1215390" lon="-2.0745430">
        <ele>402.4</ele>
        <time>2019-10-18T09:37:26Z</time>
      </trkpt>
      <trkpt lat="37.1214620" lon="-2.0745370">
        <ele>402.3</ele>
        <time>2019-10-18T09:37:27Z</time>
      </trkpt>
      <trkpt lat="37.1213840" lon="-2.0745270">
        <ele>402.1</ele>
        <time>2019-10-18T09:37:28Z</time>
      </trkpt>
      <trkpt lat="37.1213060" lon="-2.0745130">
        <ele>401.9</ele>
        <time>2019-10-18T09:37:29Z</time>
      </trkpt>
      <trkpt lat="37.1212290" lon="-2.0744960">
        <ele>401.6</ele>
        <time>2019-10-18T09:37:30Z</time>
      </trkpt>
      <trkpt lat="37.1211520" lon="-2.0744770">
        <ele>401.4</ele>
        <time>2019-10-18T09:37:31Z</time>
      </trkpt>
      <trkpt lat="37.1210750" lon="-2.0744560">
        <ele>401.2</ele>
        <time>2019-10-18T09:37:32Z</time>
      </trkpt>
      <trkpt lat="37.1209970" lon="-2.0744330">
        <ele>401.0</ele>
        <time>2019-10-18T09:37:33Z</time>
      </trkpt>
      <trkpt lat="37.1209200" lon="-2.0744070">
        <ele>400.7</ele>
        <time>2019-10-18T09:37:34Z</time>
      </trkpt>
      <trkpt lat="37.1208410" lon="-2.0743780">
        <ele>400.5</ele>
        <time>2019-10-18T09:37:35Z</time>
      </trkpt>
      <trkpt lat="37.1207610" lon="-2.0743480">
        <ele>400.2</ele>
        <time>2019-10-18T09:37:36Z</time>
      </trkpt>
      <trkpt lat="37.1206820" lon="-2.0743190">
        <ele>399.9</ele>
        <time>2019-10-18T09:37:37Z</time>
      </trkpt>
      <trkpt lat="37.1206020" lon="-2.0742910">
        <ele>399.6</ele>
        <time>2019-10-18T09:37:38Z</time>
      </trkpt>
      <trkpt lat="37.1205230" lon="-2.0742620">
        <ele>399.3</ele>
        <time>2019-10-18T09:37:39Z</time>
      </trkpt>
      <trkpt lat="37.1204440" lon="-2.0742340">
        <ele>399.0</ele>
        <time>2019-10-18T09:37:40Z</time>
      </trkpt>
      <trkpt lat="37.1203660" lon="-2.0742070">
        <ele>398.7</ele>
        <time>2019-10-18T09:37:41Z</time>
      </trkpt>
      <trkpt lat="37.1202880" lon="-2.0741790">
        <ele>398.5</ele>
        <time>2019-10-18T09:37:42Z</time>
      </trkpt>
      <trkpt lat="37.1202110" lon="-2.0741510">
        <ele>398.3</ele>
        <time>2019-10-18T09:37:43Z</time>
      </trkpt>
      <trkpt lat="37.1201330" lon="-2.0741220">
        <ele>398.0</ele>
        <time>2019-10-18T09:37:44Z</time>
      </trkpt>
      <trkpt lat="37.1200540" lon="-2.0740930">
        <ele>397.8</ele>
        <time>2019-10-18T09:37:45Z</time>
      </trkpt>
      <trkpt lat="37.1199750" lon="-2.0740630">
        <ele>397.6</ele>
        <time>2019-10-18T09:37:46Z</time>
      </trkpt>
      <trkpt lat="37.1198960" lon="-2.0740340">
        <ele>397.4</ele>
        <time>2019-10-18T09:37:47Z</time>
      </trkpt>
      <trkpt lat="37.1198170" lon="-2.0740050">
        <ele>397.2</ele>
        <time>2019-10-18T09:37:48Z</time>
      </trkpt>
      <trkpt lat="37.1197370" lon="-2.0739770">
        <ele>397.0</ele>
        <time>2019-10-18T09:37:49Z</time>
      </trkpt>
      <trkpt lat="37.1196570" lon="-2.0739480">
        <ele>396.8</ele>
        <time>2019-10-18T09:37:50Z</time>
      </trkpt>
      <trkpt lat="37.1195760" lon="-2.0739180">
        <ele>396.5</ele>
        <time>2019-10-18T09:37:51Z</time>
      </trkpt>
      <trkpt lat="37.1194930" lon="-2.0738890">
        <ele>396.2</ele>
        <time>2019-10-18T09:37:52Z</time>
      </trkpt>
      <trkpt lat="37.1194100" lon="-2.0738590">
        <ele>395.9</ele>
        <time>2019-10-18T09:37:53Z</time>
      </trkpt>
      <trkpt lat="37.1193260" lon="-2.0738290">
        <ele>395.6</ele>
        <time>2019-10-18T09:37:54Z</time>
      </trkpt>
      <trkpt lat="37.1192400" lon="-2.0737980">
        <ele>395.2</ele>
        <time>2019-10-18T09:37:55Z</time>
      </trkpt>
      <trkpt lat="37.1191540" lon="-2.0737660">
        <ele>394.9</ele>
        <time>2019-10-18T09:37:56Z</time>
      </trkpt>
      <trkpt lat="37.1190670" lon="-2.0737330">
        <ele>394.5</ele>
        <time>2019-10-18T09:37:57Z</time>
      </trkpt>
      <trkpt lat="37.1189800" lon="-2.0737000">
        <ele>394.1</ele>
        <time>2019-10-18T09:37:58Z</time>
      </trkpt>
      <trkpt lat="37.1188920" lon="-2.0736670">
        <ele>393.8</ele>
        <time>2019-10-18T09:37:59Z</time>
      </trkpt>
      <trkpt lat="37.1188040" lon="-2.0736340">
        <ele>393.5</ele>
        <time>2019-10-18T09:38:00Z</time>
      </trkpt>
      <trkpt lat="37.1187140" lon="-2.0736010">
        <ele>393.2</ele>
        <time>2019-10-18T09:38:01Z</time>
      </trkpt>
      <trkpt lat="37.1186240" lon="-2.0735680">
        <ele>392.9</ele>
        <time>2019-10-18T09:38:02Z</time>
      </trkpt>
      <trkpt lat="37.1185330" lon="-2.0735340">
        <ele>392.6</ele>
        <time>2019-10-18T09:38:03Z</time>
      </trkpt>
      <trkpt lat="37.1184430" lon="-2.0734990">
        <ele>392.4</ele>
        <time>2019-10-18T09:38:04Z</time>
      </trkpt>
      <trkpt lat="37.1183520" lon="-2.0734650">
        <ele>392.1</ele>
        <time>2019-10-18T09:38:05Z</time>
      </trkpt>
      <trkpt lat="37.1182610" lon="-2.0734310">
        <ele>391.7</ele>
        <time>2019-10-18T09:38:06Z</time>
      </trkpt>
      <trkpt lat="37.1181690" lon="-2.0733960">
        <ele>391.5</ele>
        <time>2019-10-18T09:38:07Z</time>
      </trkpt>
      <trkpt lat="37.1180770" lon="-2.0733620">
        <ele>391.2</ele>
        <time>2019-10-18T09:38:08Z</time>
      </trkpt>
      <trkpt lat="37.1179860" lon="-2.0733280">
        <ele>391.0</ele>
        <time>2019-10-18T09:38:09Z</time>
      </trkpt>
      <trkpt lat="37.1178950" lon="-2.0732940">
        <ele>390.7</ele>
        <time>2019-10-18T09:38:10Z</time>
      </trkpt>
      <trkpt lat="37.1178030" lon="-2.0732610">
        <ele>390.5</ele>
        <time>2019-10-18T09:38:11Z</time>
      </trkpt>
      <trkpt lat="37.1177110" lon="-2.0732310">
        <ele>390.3</ele>
        <time>2019-10-18T09:38:12Z</time>
      </trkpt>
      <trkpt lat="37.1176180" lon="-2.0732100">
        <ele>390.2</ele>
        <time>2019-10-18T09:38:13Z</time>
      </trkpt>
      <trkpt lat="37.1175270" lon="-2.0732000">
        <ele>390.1</ele>
        <time>2019-10-18T09:38:14Z</time>
      </trkpt>
      <trkpt lat="37.1174370" lon="-2.0732080">
        <ele>390.0</ele>
        <time>2019-10-18T09:38:15Z</time>
      </trkpt>
      <trkpt lat="37.1173490" lon="-2.0732330">
        <ele>389.7</ele>
        <time>2019-10-18T09:38:16Z</time>
      </trkpt>
      <trkpt lat="37.1172630" lon="-2.0732740">
        <ele>389.4</ele>
        <time>2019-10-18T09:38:17Z</time>
      </trkpt>
      <trkpt lat="37.1171810" lon="-2.0733230">
        <ele>389.1</ele>
        <time>2019-10-18T09:38:18Z</time>
      </trkpt>
      <trkpt lat="37.1171040" lon="-2.0733810">
        <ele>388.7</ele>
        <time>2019-10-18T09:38:19Z</time>
      </trkpt>
      <trkpt lat="37.1170340" lon="-2.0734500">
        <ele>388.4</ele>
        <time>2019-10-18T09:38:20Z</time>
      </trkpt>
      <trkpt lat="37.1169730" lon="-2.0735300">
        <ele>388.2</ele>
        <time>2019-10-18T09:38:21Z</time>
      </trkpt>
      <trkpt lat="37.1169190" lon="-2.0736200">
        <ele>387.9</ele>
        <time>2019-10-18T09:38:22Z</time>
      </trkpt>
      <trkpt lat="37.1168740" lon="-2.0737170">
        <ele>387.6</ele>
        <time>2019-10-18T09:38:23Z</time>
      </trkpt>
      <trkpt lat="37.1168360" lon="-2.0738200">
        <ele>387.3</ele>
        <time>2019-10-18T09:38:24Z</time>
      </trkpt>
      <trkpt lat="37.1168050" lon="-2.0739270">
        <ele>387.0</ele>
        <time>2019-10-18T09:38:25Z</time>
      </trkpt>
      <trkpt lat="37.1167810" lon="-2.0740360">
        <ele>386.7</ele>
        <time>2019-10-18T09:38:26Z</time>
      </trkpt>
      <trkpt lat="37.1167600" lon="-2.0741470">
        <ele>386.5</ele>
        <time>2019-10-18T09:38:27Z</time>
      </trkpt>
      <trkpt lat="37.1167410" lon="-2.0742570">
        <ele>386.2</ele>
        <time>2019-10-18T09:38:28Z</time>
      </trkpt>
      <trkpt lat="37.1167240" lon="-2.0743680">
        <ele>386.0</ele>
        <time>2019-10-18T09:38:29Z</time>
      </trkpt>
      <trkpt lat="37.1167060" lon="-2.0744770">
        <ele>385.8</ele>
        <time>2019-10-18T09:38:30Z</time>
      </trkpt>
      <trkpt lat="37.1166890" lon="-2.0745860">
        <ele>385.6</ele>
        <time>2019-10-18T09:38:31Z</time>
      </trkpt>
      <trkpt lat="37.1166730" lon="-2.0746930">
        <ele>385.5</ele>
        <time>2019-10-18T09:38:32Z</time>
      </trkpt>
      <trkpt lat="37.1166560" lon="-2.0748000">
        <ele>385.4</ele>
        <time>2019-10-18T09:38:33Z</time>
      </trkpt>
      <trkpt lat="37.1166400" lon="-2.0749070">
        <ele>385.2</ele>
        <time>2019-10-18T09:38:34Z</time>
      </trkpt>
      <trkpt lat="37.1166240" lon="-2.0750130">
        <ele>385.0</ele>
        <time>2019-10-18T09:38:35Z</time>
      </trkpt>
      <trkpt lat="37.1166080" lon="-2.0751190">
        <ele>384.7</ele>
        <time>2019-10-18T09:38:36Z</time>
      </trkpt>
      <trkpt lat="37.1165920" lon="-2.0752260">
        <ele>384.4</ele>
        <time>2019-10-18T09:38:37Z</time>
      </trkpt>
      <trkpt lat="37.1165740" lon="-2.0753320">
        <ele>384.1</ele>
        <time>2019-10-18T09:38:38Z</time>
      </trkpt>
      <trkpt lat="37.1165580" lon="-2.0754400">
        <ele>383.8</ele>
        <time>2019-10-18T09:38:39Z</time>
      </trkpt>
      <trkpt lat="37.1165400" lon="-2.0755490">
        <ele>383.3</ele>
        <time>2019-10-18T09:38:40Z</time>
      </trkpt>
      <trkpt lat="37.1165220" lon="-2.0756590">
        <ele>382.9</ele>
        <time>2019-10-18T09:38:41Z</time>
      </trkpt>
      <trkpt lat="37.1165020" lon="-2.0757700">
        <ele>382.4</ele>
        <time>2019-10-18T09:38:42Z</time>
      </trkpt>
      <trkpt lat="37.1164820" lon="-2.0758810">
        <ele>381.9</ele>
        <time>2019-10-18T09:38:43Z</time>
      </trkpt>
      <trkpt lat="37.1164590" lon="-2.0759920">
        <ele>381.3</ele>
        <time>2019-10-18T09:38:44Z</time>
      </trkpt>
      <trkpt lat="37.1164330" lon="-2.0761040">
        <ele>380.7</ele>
        <time>2019-10-18T09:38:45Z</time>
      </trkpt>
      <trkpt lat="37.1164040" lon="-2.0762160">
        <ele>380.2</ele>
        <time>2019-10-18T09:38:46Z</time>
      </trkpt>
      <trkpt lat="37.1163720" lon="-2.0763280">
        <ele>379.7</ele>
        <time>2019-10-18T09:38:47Z</time>
      </trkpt>
      <trkpt lat="37.1163390" lon="-2.0764410">
        <ele>379.3</ele>
        <time>2019-10-18T09:38:48Z</time>
      </trkpt>
      <trkpt lat="37.1163020" lon="-2.0765540">
        <ele>379.0</ele>
        <time>2019-10-18T09:38:49Z</time>
      </trkpt>
      <trkpt lat="37.1162620" lon="-2.0766670">
        <ele>378.6</ele>
        <time>2019-10-18T09:38:50Z</time>
      </trkpt>
      <trkpt lat="37.1162190" lon="-2.0767800">
        <ele>378.2</ele>
        <time>2019-10-18T09:38:51Z</time>
      </trkpt>
      <trkpt lat="37.1161740" lon="-2.0768930">
        <ele>377.6</ele>
        <time>2019-10-18T09:38:52Z</time>
      </trkpt>
      <trkpt lat="37.1161290" lon="-2.0770050">
        <ele>377.1</ele>
        <time>2019-10-18T09:38:53Z</time>
      </trkpt>
      <trkpt lat="37.1160820" lon="-2.0771160">
        <ele>376.6</ele>
        <time>2019-10-18T09:38:54Z</time>
      </trkpt>
      <trkpt lat="37.1160350" lon="-2.0772270">
        <ele>376.2</ele>
        <time>2019-10-18T09:38:55Z</time>
      </trkpt>
      <trkpt lat="37.1159860" lon="-2.0773390">
        <ele>375.8</ele>
        <time>2019-10-18T09:38:56Z</time>
      </trkpt>
      <trkpt lat="37.1159360" lon="-2.0774490">
        <ele>375.1</ele>
        <time>2019-10-18T09:38:57Z</time>
      </trkpt>
      <trkpt lat="37.1158840" lon="-2.0775600">
        <ele>374.5</ele>
        <time>2019-10-18T09:38:58Z</time>
      </trkpt>
      <trkpt lat="37.1158320" lon="-2.0776710">
        <ele>373.9</ele>
        <time>2019-10-18T09:38:59Z</time>
      </trkpt>
      <trkpt lat="37.1157800" lon="-2.0777810">
        <ele>373.5</ele>
        <time>2019-10-18T09:39:00Z</time>
      </trkpt>
      <trkpt lat="37.1157280" lon="-2.0778910">
        <ele>373.1</ele>
        <time>2019-10-18T09:39:01Z</time>
      </trkpt>
      <trkpt lat="37.1156760" lon="-2.0780020">
        <ele>372.8</ele>
        <time>2019-10-18T09:39:02Z</time>
      </trkpt>
      <trkpt lat="37.1156240" lon="-2.0781130">
        <ele>372.5</ele>
        <time>2019-10-18T09:39:03Z</time>
      </trkpt>
      <trkpt lat="37.1155730" lon="-2.0782230">
        <ele>372.3</ele>
        <time>2019-10-18T09:39:04Z</time>
      </trkpt>
      <trkpt lat="37.1155200" lon="-2.0783320">
        <ele>372.1</ele>
        <time>2019-10-18T09:39:05Z</time>
      </trkpt>
      <trkpt lat="37.1154680" lon="-2.0784400">
        <ele>371.8</ele>
        <time>2019-10-18T09:39:06Z</time>
      </trkpt>
      <trkpt lat="37.1154160" lon="-2.0785490">
        <ele>371.4</ele>
        <time>2019-10-18T09:39:07Z</time>
      </trkpt>
      <trkpt lat="37.1153640" lon="-2.0786590">
        <ele>371.1</ele>
        <time>2019-10-18T09:39:08Z</time>
      </trkpt>
      <trkpt lat="37.1153130" lon="-2.0787700">
        <ele>370.7</ele>
        <time>2019-10-18T09:39:09Z</time>
      </trkpt>
      <trkpt lat="37.1152610" lon="-2.0788810">
        <ele>370.2</ele>
        <time>2019-10-18T09:39:10Z</time>
      </trkpt>
      <trkpt lat="37.1152090" lon="-2.0789940">
        <ele>369.8</ele>
        <time>2019-10-18T09:39:11Z</time>
      </trkpt>
      <trkpt lat="37.1151580" lon="-2.0791060">
        <ele>369.5</ele>
        <time>2019-10-18T09:39:12Z</time>
      </trkpt>
      <trkpt lat="37.1151060" lon="-2.0792180">
        <ele>369.0</ele>
        <time>2019-10-18T09:39:13Z</time>
      </trkpt>
      <trkpt lat="37.1150540" lon="-2.0793280">
        <ele>368.5</ele>
        <time>2019-10-18T09:39:14Z</time>
      </trkpt>
      <trkpt lat="37.1150010" lon="-2.0794360">
        <ele>368.0</ele>
        <time>2019-10-18T09:39:15Z</time>
      </trkpt>
      <trkpt lat="37.1149480" lon="-2.0795420">
        <ele>367.7</ele>
        <time>2019-10-18T09:39:16Z</time>
      </trkpt>
      <trkpt lat="37.1148920" lon="-2.0796460">
        <ele>367.5</ele>
        <time>2019-10-18T09:39:17Z</time>
      </trkpt>
      <trkpt lat="37.1148330" lon="-2.0797460">
        <ele>367.2</ele>
        <time>2019-10-18T09:39:18Z</time>
      </trkpt>
      <trkpt lat="37.1147690" lon="-2.0798440">
        <ele>366.9</ele>
        <time>2019-10-18T09:39:19Z</time>
      </trkpt>
      <trkpt lat="37.1147020" lon="-2.0799360">
        <ele>366.5</ele>
        <time>2019-10-18T09:39:20Z</time>
      </trkpt>
      <trkpt lat="37.1146320" lon="-2.0800240">
        <ele>366.2</ele>
        <time>2019-10-18T09:39:21Z</time>
      </trkpt>
      <trkpt lat="37.1145580" lon="-2.0801060">
        <ele>365.9</ele>
        <time>2019-10-18T09:39:22Z</time>
      </trkpt>
      <trkpt lat="37.1144820" lon="-2.0801810">
        <ele>365.8</ele>
        <time>2019-10-18T09:39:23Z</time>
      </trkpt>
      <trkpt lat="37.1144020" lon="-2.0802500">
        <ele>365.8</ele>
        <time>2019-10-18T09:39:24Z</time>
      </trkpt>
      <trkpt lat="37.1143200" lon="-2.0803130">
        <ele>365.8</ele>
        <time>2019-10-18T09:39:25Z</time>
      </trkpt>
      <trkpt lat="37.1142360" lon="-2.0803720">
        <ele>365.8</ele>
        <time>2019-10-18T09:39:26Z</time>
      </trkpt>
      <trkpt lat="37.1141500" lon="-2.0804260">
        <ele>365.7</ele>
        <time>2019-10-18T09:39:27Z</time>
      </trkpt>
      <trkpt lat="37.1140650" lon="-2.0804780">
        <ele>365.6</ele>
        <time>2019-10-18T09:39:28Z</time>
      </trkpt>
      <trkpt lat="37.1139790" lon="-2.0805280">
        <ele>365.4</ele>
        <time>2019-10-18T09:39:29Z</time>
      </trkpt>
      <trkpt lat="37.1138930" lon="-2.0805750">
        <ele>365.1</ele>
        <time>2019-10-18T09:39:30Z</time>
      </trkpt>
      <trkpt lat="37.1138070" lon="-2.0806200">
        <ele>365.0</ele>
        <time>2019-10-18T09:39:31Z</time>
      </trkpt>
      <trkpt lat="37.1137210" lon="-2.0806630">
        <ele>365.0</ele>
        <time>2019-10-18T09:39:32Z</time>
      </trkpt>
      <trkpt lat="37.1136360" lon="-2.0807040">
        <ele>365.0</ele>
        <time>2019-10-18T09:39:33Z</time>
      </trkpt>
      <trkpt lat="37.1135510" lon="-2.0807460">
        <ele>365.0</ele>
        <time>2019-10-18T09:39:34Z</time>
      </trkpt>
      <trkpt lat="37.1134670" lon="-2.0807870">
        <ele>365.0</ele>
        <time>2019-10-18T09:39:35Z</time>
      </trkpt>
      <trkpt lat="37.1133830" lon="-2.0808270">
        <ele>365.0</ele>
        <time>2019-10-18T09:39:36Z</time>
      </trkpt>
      <trkpt lat="37.1133000" lon="-2.0808660">
        <ele>365.0</ele>
        <time>2019-10-18T09:39:37Z</time>
      </trkpt>
      <trkpt lat="37.1132170" lon="-2.0809050">
        <ele>365.1</ele>
        <time>2019-10-18T09:39:38Z</time>
      </trkpt>
      <trkpt lat="37.1131350" lon="-2.0809430">
        <ele>365.1</ele>
        <time>2019-10-18T09:39:39Z</time>
      </trkpt>
      <trkpt lat="37.1130540" lon="-2.0809820">
        <ele>365.1</ele>
        <time>2019-10-18T09:39:40Z</time>
      </trkpt>
      <trkpt lat="37.1129740" lon="-2.0810210">
        <ele>365.1</ele>
        <time>2019-10-18T09:39:41Z</time>
      </trkpt>
      <trkpt lat="37.1128950" lon="-2.0810630">
        <ele>365.0</ele>
        <time>2019-10-18T09:39:42Z</time>
      </trkpt>
      <trkpt lat="37.1128180" lon="-2.0811110">
        <ele>364.9</ele>
        <time>2019-10-18T09:39:43Z</time>
      </trkpt>
      <trkpt lat="37.1127430" lon="-2.0811650">
        <ele>364.6</ele>
        <time>2019-10-18T09:39:44Z</time>
      </trkpt>
      <trkpt lat="37.1126710" lon="-2.0812250">
        <ele>364.4</ele>
        <time>2019-10-18T09:39:45Z</time>
      </trkpt>
      <trkpt lat="37.1126030" lon="-2.0812900">
        <ele>364.3</ele>
        <time>2019-10-18T09:39:46Z</time>
      </trkpt>
      <trkpt lat="37.1125390" lon="-2.0813620">
        <ele>364.3</ele>
        <time>2019-10-18T09:39:47Z</time>
      </trkpt>
      <trkpt lat="37.1124800" lon="-2.0814400">
        <ele>364.3</ele>
        <time>2019-10-18T09:39:48Z</time>
      </trkpt>
      <trkpt lat="37.1124250" lon="-2.0815200">
        <ele>364.3</ele>
        <time>2019-10-18T09:39:49Z</time>
      </trkpt>
      <trkpt lat="37.1123730" lon="-2.0816030">
        <ele>364.6</ele>
        <time>2019-10-18T09:39:50Z</time>
      </trkpt>
      <trkpt lat="37.1123240" lon="-2.0816860">
        <ele>364.9</ele>
        <time>2019-10-18T09:39:51Z</time>
      </trkpt>
      <trkpt lat="37.1122760" lon="-2.0817710">
        <ele>365.0</ele>
        <time>2019-10-18T09:39:52Z</time>
      </trkpt>
      <trkpt lat="37.1122290" lon="-2.0818570">
        <ele>365.1</ele>
        <time>2019-10-18T09:39:53Z</time>
      </trkpt>
      <trkpt lat="37.1121830" lon="-2.0819450">
        <ele>365.2</ele>
        <time>2019-10-18T09:39:54Z</time>
      </trkpt>
      <trkpt lat="37.1121360" lon="-2.0820340">
        <ele>365.3</ele>
        <time>2019-10-18T09:39:55Z</time>
      </trkpt>
      <trkpt lat="37.1120890" lon="-2.0821230">
        <ele>365.3</ele>
        <time>2019-10-18T09:39:56Z</time>
      </trkpt>
      <trkpt lat="37.1120410" lon="-2.0822140">
        <ele>365.3</ele>
        <time>2019-10-18T09:39:57Z</time>
      </trkpt>
      <trkpt lat="37.1119950" lon="-2.0823050">
        <ele>365.3</ele>
        <time>2019-10-18T09:39:58Z</time>
      </trkpt>
      <trkpt lat="37.1119490" lon="-2.0823960">
        <ele>365.3</ele>
        <time>2019-10-18T09:39:59Z</time>
      </trkpt>
      <trkpt lat="37.1119030" lon="-2.0824880">
        <ele>365.3</ele>
        <time>2019-10-18T09:40:00Z</time>
      </trkpt>
      <trkpt lat="37.1118580" lon="-2.0825810">
        <ele>365.3</ele>
        <time>2019-10-18T09:40:01Z</time>
      </trkpt>
      <trkpt lat="37.1118130" lon="-2.0826750">
        <ele>365.3</ele>
        <time>2019-10-18T09:40:02Z</time>
      </trkpt>
      <trkpt lat="37.1117680" lon="-2.0827720">
        <ele>365.2</ele>
        <time>2019-10-18T09:40:03Z</time>
      </trkpt>
      <trkpt lat="37.1117250" lon="-2.0828700">
        <ele>365.1</ele>
        <time>2019-10-18T09:40:04Z</time>
      </trkpt>
      <trkpt lat="37.1116820" lon="-2.0829710">
        <ele>364.9</ele>
        <time>2019-10-18T09:40:05Z</time>
      </trkpt>
      <trkpt lat="37.1116440" lon="-2.0830770">
        <ele>364.7</ele>
        <time>2019-10-18T09:40:06Z</time>
      </trkpt>
      <trkpt lat="37.1116120" lon="-2.0831870">
        <ele>364.4</ele>
        <time>2019-10-18T09:40:07Z</time>
      </trkpt>
      <trkpt lat="37.1115880" lon="-2.0833020">
        <ele>364.0</ele>
        <time>2019-10-18T09:40:08Z</time>
      </trkpt>
      <trkpt lat="37.1115770" lon="-2.0834200">
        <ele>363.6</ele>
        <time>2019-10-18T09:40:09Z</time>
      </trkpt>
      <trkpt lat="37.1115810" lon="-2.0835370">
        <ele>363.3</ele>
        <time>2019-10-18T09:40:10Z</time>
      </trkpt>
      <trkpt lat="37.1116040" lon="-2.0836500">
        <ele>362.9</ele>
        <time>2019-10-18T09:40:11Z</time>
      </trkpt>
      <trkpt lat="37.1116420" lon="-2.0837580">
        <ele>362.5</ele>
        <time>2019-10-18T09:40:12Z</time>
      </trkpt>
      <trkpt lat="37.1116960" lon="-2.0838560">
        <ele>362.1</ele>
        <time>2019-10-18T09:40:13Z</time>
      </trkpt>
      <trkpt lat="37.1117610" lon="-2.0839440">
        <ele>361.8</ele>
        <time>2019-10-18T09:40:14Z</time>
      </trkpt>
      <trkpt lat="37.1118380" lon="-2.0840170">
        <ele>361.4</ele>
        <time>2019-10-18T09:40:15Z</time>
      </trkpt>
      <trkpt lat="37.1119240" lon="-2.0840730">
        <ele>361.1</ele>
        <time>2019-10-18T09:40:16Z</time>
      </trkpt>
      <trkpt lat="37.1120180" lon="-2.0841070">
        <ele>360.7</ele>
        <time>2019-10-18T09:40:17Z</time>
      </trkpt>
      <trkpt lat="37.1121150" lon="-2.0841210">
        <ele>360.2</ele>
        <time>2019-10-18T09:40:18Z</time>
      </trkpt>
      <trkpt lat="37.1122140" lon="-2.0841130">
        <ele>359.6</ele>
        <time>2019-10-18T09:40:19Z</time>
      </trkpt>
      <trkpt lat="37.1123120" lon="-2.0840910">
        <ele>358.9</ele>
        <time>2019-10-18T09:40:20Z</time>
      </trkpt>
      <trkpt lat="37.1124090" lon="-2.0840650">
        <ele>358.1</ele>
        <time>2019-10-18T09:40:21Z</time>
      </trkpt>
      <trkpt lat="37.1125040" lon="-2.0840460">
        <ele>357.3</ele>
        <time>2019-10-18T09:40:22Z</time>
      </trkpt>
      <trkpt lat="37.1125980" lon="-2.0840350">
        <ele>356.5</ele>
        <time>2019-10-18T09:40:23Z</time>
      </trkpt>
      <trkpt lat="37.1126930" lon="-2.0840300">
        <ele>355.7</ele>
        <time>2019-10-18T09:40:24Z</time>
      </trkpt>
      <trkpt lat="37.1127880" lon="-2.0840310">
        <ele>355.1</ele>
        <time>2019-10-18T09:40:25Z</time>
      </trkpt>
      <trkpt lat="37.1128840" lon="-2.0840410">
        <ele>354.5</ele>
        <time>2019-10-18T09:40:26Z</time>
      </trkpt>
      <trkpt lat="37.1129800" lon="-2.0840590">
        <ele>354.0</ele>
        <time>2019-10-18T09:40:27Z</time>
      </trkpt>
      <trkpt lat="37.1130760" lon="-2.0840850">
        <ele>353.5</ele>
        <time>2019-10-18T09:40:28Z</time>
      </trkpt>
      <trkpt lat="37.1131730" lon="-2.0841150">
        <ele>353.1</ele>
        <time>2019-10-18T09:40:29Z</time>
      </trkpt>
      <trkpt lat="37.1132710" lon="-2.0841480">
        <ele>352.7</ele>
        <time>2019-10-18T09:40:30Z</time>
      </trkpt>
      <trkpt lat="37.1133700" lon="-2.0841810">
        <ele>352.3</ele>
        <time>2019-10-18T09:40:31Z</time>
      </trkpt>
      <trkpt lat="37.1134700" lon="-2.0842150">
        <ele>351.8</ele>
        <time>2019-10-18T09:40:32Z</time>
      </trkpt>
      <trkpt lat="37.1135680" lon="-2.0842520">
        <ele>351.2</ele>
        <time>2019-10-18T09:40:33Z</time>
      </trkpt>
      <trkpt lat="37.1136640" lon="-2.0842950">
        <ele>350.6</ele>
        <time>2019-10-18T09:40:34Z</time>
      </trkpt>
      <trkpt lat="37.1137570" lon="-2.0843460">
        <ele>349.9</ele>
        <time>2019-10-18T09:40:35Z</time>
      </trkpt>
      <trkpt lat="37.1138450" lon="-2.0844100">
        <ele>349.2</ele>
        <time>2019-10-18T09:40:36Z</time>
      </trkpt>
      <trkpt lat="37.1139280" lon="-2.0844850">
        <ele>348.4</ele>
        <time>2019-10-18T09:40:37Z</time>
      </trkpt>
      <trkpt lat="37.1140000" lon="-2.0845750">
        <ele>347.7</ele>
        <time>2019-10-18T09:40:38Z</time>
      </trkpt>
      <trkpt lat="37.1140590" lon="-2.0846780">
        <ele>347.1</ele>
        <time>2019-10-18T09:40:39Z</time>
      </trkpt>
      <trkpt lat="37.1141050" lon="-2.0847930">
        <ele>346.5</ele>
        <time>2019-10-18T09:40:40Z</time>
      </trkpt>
      <trkpt lat="37.1141360" lon="-2.0849130">
        <ele>346.0</ele>
        <time>2019-10-18T09:40:41Z</time>
      </trkpt>
      <trkpt lat="37.1141500" lon="-2.0850350">
        <ele>345.6</ele>
        <time>2019-10-18T09:40:42Z</time>
      </trkpt>
      <trkpt lat="37.1141430" lon="-2.0851570">
        <ele>345.3</ele>
        <time>2019-10-18T09:40:43Z</time>
      </trkpt>
      <trkpt lat="37.1141150" lon="-2.0852780">
        <ele>345.0</ele>
        <time>2019-10-18T09:40:44Z</time>
      </trkpt>
      <trkpt lat="37.1140670" lon="-2.0853900">
        <ele>344.8</ele>
        <time>2019-10-18T09:40:45Z</time>
      </trkpt>
      <trkpt lat="37.1140010" lon="-2.0854940">
        <ele>344.6</ele>
        <time>2019-10-18T09:40:46Z</time>
      </trkpt>
      <trkpt lat="37.1139230" lon="-2.0855850">
        <ele>344.3</ele>
        <time>2019-10-18T09:40:47Z</time>
      </trkpt>
      <trkpt lat="37.1138380" lon="-2.0856650">
        <ele>344.1</ele>
        <time>2019-10-18T09:40:48Z</time>
      </trkpt>
      <trkpt lat="37.1137470" lon="-2.0857330">
        <ele>343.8</ele>
        <time>2019-10-18T09:40:49Z</time>
      </trkpt>
      <trkpt lat="37.1136520" lon="-2.0857940">
        <ele>343.5</ele>
        <time>2019-10-18T09:40:50Z</time>
      </trkpt>
      <trkpt lat="37.1135540" lon="-2.0858530">
        <ele>343.3</ele>
        <time>2019-10-18T09:40:51Z</time>
      </trkpt>
      <trkpt lat="37.1134550" lon="-2.0859130">
        <ele>343.0</ele>
        <time>2019-10-18T09:40:52Z</time>
      </trkpt>
      <trkpt lat="37.1133570" lon="-2.0859740">
        <ele>342.7</ele>
        <time>2019-10-18T09:40:53Z</time>
      </trkpt>
      <trkpt lat="37.1132590" lon="-2.0860390">
        <ele>342.3</ele>
        <time>2019-10-18T09:40:54Z</time>
      </trkpt>
      <trkpt lat="37.1131630" lon="-2.0861090">
        <ele>342.0</ele>
        <time>2019-10-18T09:40:55Z</time>
      </trkpt>
      <trkpt lat="37.1130710" lon="-2.0861860">
        <ele>341.6</ele>
        <time>2019-10-18T09:40:56Z</time>
      </trkpt>
      <trkpt lat="37.1129830" lon="-2.0862690">
        <ele>341.2</ele>
        <time>2019-10-18T09:40:57Z</time>
      </trkpt>
      <trkpt lat="37.1128990" lon="-2.0863590">
        <ele>340.8</ele>
        <time>2019-10-18T09:40:58Z</time>
      </trkpt>
      <trkpt lat="37.1128180" lon="-2.0864540">
        <ele>340.4</ele>
        <time>2019-10-18T09:40:59Z</time>
      </trkpt>
      <trkpt lat="37.1127410" lon="-2.0865520">
        <ele>340.1</ele>
        <time>2019-10-18T09:41:00Z</time>
      </trkpt>
      <trkpt lat="37.1126640" lon="-2.0866510">
        <ele>339.7</ele>
        <time>2019-10-18T09:41:01Z</time>
      </trkpt>
      <trkpt lat="37.1125910" lon="-2.0867490">
        <ele>339.4</ele>
        <time>2019-10-18T09:41:02Z</time>
      </trkpt>
      <trkpt lat="37.1125200" lon="-2.0868470">
        <ele>339.0</ele>
        <time>2019-10-18T09:41:03Z</time>
      </trkpt>
      <trkpt lat="37.1124520" lon="-2.0869440">
        <ele>338.7</ele>
        <time>2019-10-18T09:41:04Z</time>
      </trkpt>
      <trkpt lat="37.1123850" lon="-2.0870360">
        <ele>338.3</ele>
        <time>2019-10-18T09:41:05Z</time>
      </trkpt>
      <trkpt lat="37.1123190" lon="-2.0871260">
        <ele>338.0</ele>
        <time>2019-10-18T09:41:06Z</time>
      </trkpt>
      <trkpt lat="37.1122540" lon="-2.0872140">
        <ele>337.5</ele>
        <time>2019-10-18T09:41:07Z</time>
      </trkpt>
      <trkpt lat="37.1121910" lon="-2.0873000">
        <ele>337.1</ele>
        <time>2019-10-18T09:41:08Z</time>
      </trkpt>
      <trkpt lat="37.1121300" lon="-2.0873840">
        <ele>336.5</ele>
        <time>2019-10-18T09:41:09Z</time>
      </trkpt>
      <trkpt lat="37.1120700" lon="-2.0874650">
        <ele>335.9</ele>
        <time>2019-10-18T09:41:10Z</time>
      </trkpt>
      <trkpt lat="37.1120090" lon="-2.0875430">
        <ele>335.3</ele>
        <time>2019-10-18T09:41:11Z</time>
      </trkpt>
      <trkpt lat="37.1119470" lon="-2.0876180">
        <ele>334.7</ele>
        <time>2019-10-18T09:41:12Z</time>
      </trkpt>
      <trkpt lat="37.1118850" lon="-2.0876900">
        <ele>334.2</ele>
        <time>2019-10-18T09:41:13Z</time>
      </trkpt>
      <trkpt lat="37.1118210" lon="-2.0877610">
        <ele>333.7</ele>
        <time>2019-10-18T09:41:14Z</time>
      </trkpt>
      <trkpt lat="37.1117560" lon="-2.0878280">
        <ele>333.3</ele>
        <time>2019-10-18T09:41:15Z</time>
      </trkpt>
      <trkpt lat="37.1116910" lon="-2.0878930">
        <ele>333.0</ele>
        <time>2019-10-18T09:41:16Z</time>
      </trkpt>
      <trkpt lat="37.1116250" lon="-2.0879540">
        <ele>332.7</ele>
        <time>2019-10-18T09:41:17Z</time>
      </trkpt>
      <trkpt lat="37.1115610" lon="-2.0880130">
        <ele>332.5</ele>
        <time>2019-10-18T09:41:18Z</time>
      </trkpt>
      <trkpt lat="37.1114960" lon="-2.0880690">
        <ele>332.3</ele>
        <time>2019-10-18T09:41:19Z</time>
      </trkpt>
      <trkpt lat="37.1114320" lon="-2.0881190">
        <ele>332.1</ele>
        <time>2019-10-18T09:41:20Z</time>
      </trkpt>
      <trkpt lat="37.1113670" lon="-2.0881640">
        <ele>332.0</ele>
        <time>2019-10-18T09:41:21Z</time>
      </trkpt>
      <trkpt lat="37.1113030" lon="-2.0882060">
        <ele>331.9</ele>
        <time>2019-10-18T09:41:22Z</time>
      </trkpt>
      <trkpt lat="37.1112420" lon="-2.0882470">
        <ele>331.8</ele>
        <time>2019-10-18T09:41:23Z</time>
      </trkpt>
      <trkpt lat="37.1111820" lon="-2.0882850">
        <ele>331.7</ele>
        <time>2019-10-18T09:41:24Z</time>
      </trkpt>
      <trkpt lat="37.1111230" lon="-2.0883190">
        <ele>331.7</ele>
        <time>2019-10-18T09:41:25Z</time>
      </trkpt>
      <trkpt lat="37.1110650" lon="-2.0883510">
        <ele>331.6</ele>
        <time>2019-10-18T09:41:26Z</time>
      </trkpt>
      <trkpt lat="37.1110090" lon="-2.0883810">
        <ele>331.5</ele>
        <time>2019-10-18T09:41:27Z</time>
      </trkpt>
      <trkpt lat="37.1109540" lon="-2.0884090">
        <ele>331.4</ele>
        <time>2019-10-18T09:41:28Z</time>
      </trkpt>
      <trkpt lat="37.1109020" lon="-2.0884360">
        <ele>331.3</ele>
        <time>2019-10-18T09:41:29Z</time>
      </trkpt>
      <trkpt lat="37.1108500" lon="-2.0884620">
        <ele>331.2</ele>
        <time>2019-10-18T09:41:30Z</time>
      </trkpt>
      <trkpt lat="37.1108010" lon="-2.0884870">
        <ele>331.1</ele>
        <time>2019-10-18T09:41:31Z</time>
      </trkpt>
      <trkpt lat="37.1107520" lon="-2.0885110">
        <ele>331.1</ele>
        <time>2019-10-18T09:41:32Z</time>
      </trkpt>
      <trkpt lat="37.1107030" lon="-2.0885330">
        <ele>331.1</ele>
        <time>2019-10-18T09:41:33Z</time>
      </trkpt>
      <trkpt lat="37.1106550" lon="-2.0885550">
        <ele>331.1</ele>
        <time>2019-10-18T09:41:34Z</time>
      </trkpt>
      <trkpt lat="37.1106080" lon="-2.0885770">
        <ele>331.1</ele>
        <time>2019-10-18T09:41:35Z</time>
      </trkpt>
      <trkpt lat="37.1105620" lon="-2.0885990">
        <ele>331.2</ele>
        <time>2019-10-18T09:41:36Z</time>
      </trkpt>
      <trkpt lat="37.1105160" lon="-2.0886190">
        <ele>331.2</ele>
        <time>2019-10-18T09:41:37Z</time>
      </trkpt>
      <trkpt lat="37.1104720" lon="-2.0886400">
        <ele>331.3</ele>
        <time>2019-10-18T09:41:38Z</time>
      </trkpt>
      <trkpt lat="37.1104280" lon="-2.0886610">
        <ele>331.4</ele>
        <time>2019-10-18T09:41:39Z</time>
      </trkpt>
      <trkpt lat="37.1103850" lon="-2.0886810">
        <ele>331.5</ele>
        <time>2019-10-18T09:41:40Z</time>
      </trkpt>
      <trkpt lat="37.1103430" lon="-2.0887020">
        <ele>331.6</ele>
        <time>2019-10-18T09:41:41Z</time>
      </trkpt>
      <trkpt lat="37.1103010" lon="-2.0887210">
        <ele>331.8</ele>
        <time>2019-10-18T09:41:42Z</time>
      </trkpt>
      <trkpt lat="37.1102580" lon="-2.0887400">
        <ele>331.9</ele>
        <time>2019-10-18T09:41:43Z</time>
      </trkpt>
      <trkpt lat="37.1102170" lon="-2.0887580">
        <ele>332.0</ele>
        <time>2019-10-18T09:41:44Z</time>
      </trkpt>
      <trkpt lat="37.1101750" lon="-2.0887770">
        <ele>332.1</ele>
        <time>2019-10-18T09:41:45Z</time>
      </trkpt>
      <trkpt lat="37.1101340" lon="-2.0887960">
        <ele>332.3</ele>
        <time>2019-10-18T09:41:46Z</time>
      </trkpt>
      <trkpt lat="37.1100940" lon="-2.0888160">
        <ele>332.4</ele>
        <time>2019-10-18T09:41:47Z</time>
      </trkpt>
      <trkpt lat="37.1100540" lon="-2.0888360">
        <ele>332.6</ele>
        <time>2019-10-18T09:41:48Z</time>
      </trkpt>
      <trkpt lat="37.1100140" lon="-2.0888570">
        <ele>332.7</ele>
        <time>2019-10-18T09:41:49Z</time>
      </trkpt>
      <trkpt lat="37.1099740" lon="-2.0888770">
        <ele>332.9</ele>
        <time>2019-10-18T09:41:50Z</time>
      </trkpt>
      <trkpt lat="37.1099350" lon="-2.0888970">
        <ele>333.0</ele>
        <time>2019-10-18T09:41:51Z</time>
      </trkpt>
      <trkpt lat="37.1098950" lon="-2.0889160">
        <ele>333.2</ele>
        <time>2019-10-18T09:41:52Z</time>
      </trkpt>
      <trkpt lat="37.1098560" lon="-2.0889360">
        <ele>333.4</ele>
        <time>2019-10-18T09:41:53Z</time>
      </trkpt>
      <trkpt lat="37.1098170" lon="-2.0889570">
        <ele>333.6</ele>
        <time>2019-10-18T09:41:54Z</time>
      </trkpt>
      <trkpt lat="37.1097780" lon="-2.0889790">
        <ele>333.8</ele>
        <time>2019-10-18T09:41:55Z</time>
      </trkpt>
      <trkpt lat="37.1097390" lon="-2.0890010">
        <ele>334.1</ele>
        <time>2019-10-18T09:41:56Z</time>
      </trkpt>
      <trkpt lat="37.1097000" lon="-2.0890240">
        <ele>334.3</ele>
        <time>2019-10-18T09:41:57Z</time>
      </trkpt>
      <trkpt lat="37.1096610" lon="-2.0890480">
        <ele>334.6</ele>
        <time>2019-10-18T09:41:58Z</time>
      </trkpt>
      <trkpt lat="37.1096210" lon="-2.0890720">
        <ele>334.9</ele>
        <time>2019-10-18T09:41:59Z</time>
      </trkpt>
      <trkpt lat="37.1095820" lon="-2.0890980">
        <ele>335.2</ele>
        <time>2019-10-18T09:42:00Z</time>
      </trkpt>
      <trkpt lat="37.1095430" lon="-2.0891230">
        <ele>335.5</ele>
        <time>2019-10-18T09:42:01Z</time>
      </trkpt>
      <trkpt lat="37.1095040" lon="-2.0891490">
        <ele>335.8</ele>
        <time>2019-10-18T09:42:02Z</time>
      </trkpt>
      <trkpt lat="37.1094670" lon="-2.0891760">
        <ele>336.0</ele>
        <time>2019-10-18T09:42:03Z</time>
      </trkpt>
      <trkpt lat="37.1094290" lon="-2.0892030">
        <ele>336.3</ele>
        <time>2019-10-18T09:42:04Z</time>
      </trkpt>
      <trkpt lat="37.1093930" lon="-2.0892310">
        <ele>336.5</ele>
        <time>2019-10-18T09:42:05Z</time>
      </trkpt>
      <trkpt lat="37.1093570" lon="-2.0892610">
        <ele>336.9</ele>
        <time>2019-10-18T09:42:06Z</time>
      </trkpt>
      <trkpt lat="37.1093220" lon="-2.0892920">
        <ele>337.2</ele>
        <time>2019-10-18T09:42:07Z</time>
      </trkpt>
      <trkpt lat="37.1092870" lon="-2.0893230">
        <ele>337.5</ele>
        <time>2019-10-18T09:42:08Z</time>
      </trkpt>
      <trkpt lat="37.1092520" lon="-2.0893560">
        <ele>337.8</ele>
        <time>2019-10-18T09:42:09Z</time>
      </trkpt>
      <trkpt lat="37.1092180" lon="-2.0893900">
        <ele>338.1</ele>
        <time>2019-10-18T09:42:10Z</time>
      </trkpt>
      <trkpt lat="37.1091850" lon="-2.0894240">
        <ele>338.4</ele>
        <time>2019-10-18T09:42:11Z</time>
      </trkpt>
      <trkpt lat="37.1091510" lon="-2.0894600">
        <ele>338.6</ele>
        <time>2019-10-18T09:42:12Z</time>
      </trkpt>
      <trkpt lat="37.1091180" lon="-2.0894950">
        <ele>338.9</ele>
        <time>2019-10-18T09:42:13Z</time>
      </trkpt>
      <trkpt lat="37.1090850" lon="-2.0895320">
        <ele>339.1</ele>
        <time>2019-10-18T09:42:14Z</time>
      </trkpt>
      <trkpt lat="37.1090520" lon="-2.0895700">
        <ele>339.4</ele>
        <time>2019-10-18T09:42:15Z</time>
      </trkpt>
      <trkpt lat="37.1090200" lon="-2.0896090">
        <ele>339.6</ele>
        <time>2019-10-18T09:42:16Z</time>
      </trkpt>
      <trkpt lat="37.1089880" lon="-2.0896500">
        <ele>339.8</ele>
        <time>2019-10-18T09:42:17Z</time>
      </trkpt>
      <trkpt lat="37.1089560" lon="-2.0896900">
        <ele>340.0</ele>
        <time>2019-10-18T09:42:18Z</time>
      </trkpt>
      <trkpt lat="37.1089250" lon="-2.0897310">
        <ele>340.2</ele>
        <time>2019-10-18T09:42:19Z</time>
      </trkpt>
      <trkpt lat="37.1088940" lon="-2.0897740">
        <ele>340.4</ele>
        <time>2019-10-18T09:42:20Z</time>
      </trkpt>
      <trkpt lat="37.1088650" lon="-2.0898180">
        <ele>340.6</ele>
        <time>2019-10-18T09:42:21Z</time>
      </trkpt>
      <trkpt lat="37.1088360" lon="-2.0898620">
        <ele>340.8</ele>
        <time>2019-10-18T09:42:22Z</time>
      </trkpt>
      <trkpt lat="37.1088070" lon="-2.0899070">
        <ele>341.1</ele>
        <time>2019-10-18T09:42:23Z</time>
      </trkpt>
      <trkpt lat="37.1087780" lon="-2.0899530">
        <ele>341.3</ele>
        <time>2019-10-18T09:42:24Z</time>
      </trkpt>
      <trkpt lat="37.1087510" lon="-2.0899980">
        <ele>341.6</ele>
        <time>2019-10-18T09:42:25Z</time>
      </trkpt>
      <trkpt lat="37.1087230" lon="-2.0900450">
        <ele>341.8</ele>
        <time>2019-10-18T09:42:26Z</time>
      </trkpt>
      <trkpt lat="37.1086970" lon="-2.0900920">
        <ele>342.1</ele>
        <time>2019-10-18T09:42:27Z</time>
      </trkpt>
      <trkpt lat="37.1086700" lon="-2.0901390">
        <ele>342.3</ele>
        <time>2019-10-18T09:42:28Z</time>
      </trkpt>
      <trkpt lat="37.1086430" lon="-2.0901850">
        <ele>342.6</ele>
        <time>2019-10-18T09:42:29Z</time>
      </trkpt>
      <trkpt lat="37.1086150" lon="-2.0902320">
        <ele>342.8</ele>
        <time>2019-10-18T09:42:30Z</time>
      </trkpt>
      <trkpt lat="37.1085880" lon="-2.0902800">
        <ele>343.1</ele>
        <time>2019-10-18T09:42:31Z</time>
      </trkpt>
      <trkpt lat="37.1085610" lon="-2.0903280">
        <ele>343.3</ele>
        <time>2019-10-18T09:42:32Z</time>
      </trkpt>
      <trkpt lat="37.1085330" lon="-2.0903770">
        <ele>343.5</ele>
        <time>2019-10-18T09:42:33Z</time>
      </trkpt>
      <trkpt lat="37.1085060" lon="-2.0904270">
        <ele>343.7</ele>
        <time>2019-10-18T09:42:34Z</time>
      </trkpt>
      <trkpt lat="37.1084780" lon="-2.0904780">
        <ele>343.9</ele>
        <time>2019-10-18T09:42:35Z</time>
      </trkpt>
      <trkpt lat="37.1084480" lon="-2.0905280">
        <ele>344.1</ele>
        <time>2019-10-18T09:42:36Z</time>
      </trkpt>
      <trkpt lat="37.1084160" lon="-2.0905800">
        <ele>344.3</ele>
        <time>2019-10-18T09:42:37Z</time>
      </trkpt>
      <trkpt lat="37.1083830" lon="-2.0906320">
        <ele>344.6</ele>
        <time>2019-10-18T09:42:38Z</time>
      </trkpt>
      <trkpt lat="37.1083500" lon="-2.0906840">
        <ele>344.9</ele>
        <time>2019-10-18T09:42:39Z</time>
      </trkpt>
      <trkpt lat="37.1083170" lon="-2.0907350">
        <ele>344.9</ele>
        <time>2019-10-18T09:42:40Z</time>
      </trkpt>
      <trkpt lat="37.1082840" lon="-2.0907870">
        <ele>344.9</ele>
        <time>2019-10-18T09:42:41Z</time>
      </trkpt>
      <trkpt lat="37.1082500" lon="-2.0908370">
        <ele>344.9</ele>
        <time>2019-10-18T09:42:42Z</time>
      </trkpt>
      <trkpt lat="37.1082150" lon="-2.0908870">
        <ele>344.9</ele>
        <time>2019-10-18T09:42:43Z</time>
      </trkpt>
      <trkpt lat="37.1081800" lon="-2.0909360">
        <ele>344.8</ele>
        <time>2019-10-18T09:42:44Z</time>
      </trkpt>
      <trkpt lat="37.1081430" lon="-2.0909840">
        <ele>344.8</ele>
        <time>2019-10-18T09:42:45Z</time>
      </trkpt>
      <trkpt lat="37.1081050" lon="-2.0910300">
        <ele>344.8</ele>
        <time>2019-10-18T09:42:46Z</time>
      </trkpt>
      <trkpt lat="37.1080660" lon="-2.0910760">
        <ele>344.8</ele>
        <time>2019-10-18T09:42:47Z</time>
      </trkpt>
      <trkpt lat="37.1080250" lon="-2.0911200">
        <ele>344.8</ele>
        <time>2019-10-18T09:42:48Z</time>
      </trkpt>
      <trkpt lat="37.1079830" lon="-2.0911640">
        <ele>344.8</ele>
        <time>2019-10-18T09:42:49Z</time>
      </trkpt>
      <trkpt lat="37.1079390" lon="-2.0912070">
        <ele>344.8</ele>
        <time>2019-10-18T09:42:50Z</time>
      </trkpt>
      <trkpt lat="37.1078930" lon="-2.0912480">
        <ele>344.8</ele>
        <time>2019-10-18T09:42:51Z</time>
      </trkpt>
      <trkpt lat="37.1078460" lon="-2.0912870">
        <ele>344.8</ele>
        <time>2019-10-18T09:42:52Z</time>
      </trkpt>
      <trkpt lat="37.1077980" lon="-2.0913250">
        <ele>344.8</ele>
        <time>2019-10-18T09:42:53Z</time>
      </trkpt>
      <trkpt lat="37.1077490" lon="-2.0913630">
        <ele>344.7</ele>
        <time>2019-10-18T09:42:54Z</time>
      </trkpt>
      <trkpt lat="37.1077000" lon="-2.0913990">
        <ele>344.7</ele>
        <time>2019-10-18T09:42:55Z</time>
      </trkpt>
      <trkpt lat="37.1076500" lon="-2.0914350">
        <ele>344.6</ele>
        <time>2019-10-18T09:42:56Z</time>
      </trkpt>
      <trkpt lat="37.1076000" lon="-2.0914700">
        <ele>344.6</ele>
        <time>2019-10-18T09:42:57Z</time>
      </trkpt>
      <trkpt lat="37.1075490" lon="-2.0915040">
        <ele>344.5</ele>
        <time>2019-10-18T09:42:58Z</time>
      </trkpt>
      <trkpt lat="37.1074970" lon="-2.0915370">
        <ele>344.4</ele>
        <time>2019-10-18T09:42:59Z</time>
      </trkpt>
      <trkpt lat="37.1074430" lon="-2.0915700">
        <ele>344.2</ele>
        <time>2019-10-18T09:43:00Z</time>
      </trkpt>
      <trkpt lat="37.1073880" lon="-2.0916040">
        <ele>344.1</ele>
        <time>2019-10-18T09:43:01Z</time>
      </trkpt>
      <trkpt lat="37.1073320" lon="-2.0916390">
        <ele>344.0</ele>
        <time>2019-10-18T09:43:02Z</time>
      </trkpt>
      <trkpt lat="37.1072740" lon="-2.0916750">
        <ele>343.8</ele>
        <time>2019-10-18T09:43:03Z</time>
      </trkpt>
      <trkpt lat="37.1072160" lon="-2.0917110">
        <ele>343.7</ele>
        <time>2019-10-18T09:43:04Z</time>
      </trkpt>
      <trkpt lat="37.1071560" lon="-2.0917480">
        <ele>343.5</ele>
        <time>2019-10-18T09:43:05Z</time>
      </trkpt>
      <trkpt lat="37.1070940" lon="-2.0917850">
        <ele>343.3</ele>
        <time>2019-10-18T09:43:06Z</time>
      </trkpt>
      <trkpt lat="37.1070320" lon="-2.0918230">
        <ele>343.2</ele>
        <time>2019-10-18T09:43:07Z</time>
      </trkpt>
      <trkpt lat="37.1069680" lon="-2.0918620">
        <ele>343.0</ele>
        <time>2019-10-18T09:43:08Z</time>
      </trkpt>
      <trkpt lat="37.1069030" lon="-2.0919030">
        <ele>342.8</ele>
        <time>2019-10-18T09:43:09Z</time>
      </trkpt>
      <trkpt lat="37.1068380" lon="-2.0919440">
        <ele>342.5</ele>
        <time>2019-10-18T09:43:10Z</time>
      </trkpt>
      <trkpt lat="37.1067720" lon="-2.0919850">
        <ele>342.3</ele>
        <time>2019-10-18T09:43:11Z</time>
      </trkpt>
      <trkpt lat="37.1067060" lon="-2.0920270">
        <ele>342.0</ele>
        <time>2019-10-18T09:43:12Z</time>
      </trkpt>
      <trkpt lat="37.1066400" lon="-2.0920710">
        <ele>341.7</ele>
        <time>2019-10-18T09:43:13Z</time>
      </trkpt>
      <trkpt lat="37.1065750" lon="-2.0921140">
        <ele>341.5</ele>
        <time>2019-10-18T09:43:14Z</time>
      </trkpt>
      <trkpt lat="37.1065100" lon="-2.0921590">
        <ele>341.4</ele>
        <time>2019-10-18T09:43:15Z</time>
      </trkpt>
      <trkpt lat="37.1064450" lon="-2.0922050">
        <ele>341.2</ele>
        <time>2019-10-18T09:43:16Z</time>
      </trkpt>
      <trkpt lat="37.1063810" lon="-2.0922530">
        <ele>341.1</ele>
        <time>2019-10-18T09:43:17Z</time>
      </trkpt>
      <trkpt lat="37.1063170" lon="-2.0923030">
        <ele>340.8</ele>
        <time>2019-10-18T09:43:18Z</time>
      </trkpt>
      <trkpt lat="37.1062540" lon="-2.0923550">
        <ele>340.6</ele>
        <time>2019-10-18T09:43:19Z</time>
      </trkpt>
      <trkpt lat="37.1061910" lon="-2.0924090">
        <ele>340.3</ele>
        <time>2019-10-18T09:43:20Z</time>
      </trkpt>
      <trkpt lat="37.1061280" lon="-2.0924620">
        <ele>340.1</ele>
        <time>2019-10-18T09:43:21Z</time>
      </trkpt>
      <trkpt lat="37.1060660" lon="-2.0925170">
        <ele>339.8</ele>
        <time>2019-10-18T09:43:22Z</time>
      </trkpt>
      <trkpt lat="37.1060050" lon="-2.0925730">
        <ele>339.6</ele>
        <time>2019-10-18T09:43:23Z</time>
      </trkpt>
      <trkpt lat="37.1059440" lon="-2.0926320">
        <ele>339.4</ele>
        <time>2019-10-18T09:43:24Z</time>
      </trkpt>
      <trkpt lat="37.1058840" lon="-2.0926930">
        <ele>339.2</ele>
        <time>2019-10-18T09:43:25Z</time>
      </trkpt>
      <trkpt lat="37.1058230" lon="-2.0927560">
        <ele>339.0</ele>
        <time>2019-10-18T09:43:26Z</time>
      </trkpt>
      <trkpt lat="37.1057630" lon="-2.0928200">
        <ele>338.8</ele>
        <time>2019-10-18T09:43:27Z</time>
      </trkpt>
      <trkpt lat="37.1057040" lon="-2.0928870">
        <ele>338.6</ele>
        <time>2019-10-18T09:43:28Z</time>
      </trkpt>
      <trkpt lat="37.1056450" lon="-2.0929540">
        <ele>338.4</ele>
        <time>2019-10-18T09:43:29Z</time>
      </trkpt>
      <trkpt lat="37.1055870" lon="-2.0930220">
        <ele>338.3</ele>
        <time>2019-10-18T09:43:30Z</time>
      </trkpt>
      <trkpt lat="37.1055280" lon="-2.0930920">
        <ele>338.2</ele>
        <time>2019-10-18T09:43:31Z</time>
      </trkpt>
      <trkpt lat="37.1054700" lon="-2.0931640">
        <ele>338.1</ele>
        <time>2019-10-18T09:43:32Z</time>
      </trkpt>
      <trkpt lat="37.1054110" lon="-2.0932360">
        <ele>337.9</ele>
        <time>2019-10-18T09:43:33Z</time>
      </trkpt>
      <trkpt lat="37.1053530" lon="-2.0933090">
        <ele>337.8</ele>
        <time>2019-10-18T09:43:34Z</time>
      </trkpt>
      <trkpt lat="37.1052950" lon="-2.0933830">
        <ele>337.7</ele>
        <time>2019-10-18T09:43:35Z</time>
      </trkpt>
      <trkpt lat="37.1052360" lon="-2.0934570">
        <ele>337.5</ele>
        <time>2019-10-18T09:43:36Z</time>
      </trkpt>
      <trkpt lat="37.1051770" lon="-2.0935310">
        <ele>337.3</ele>
        <time>2019-10-18T09:43:37Z</time>
      </trkpt>
      <trkpt lat="37.1051180" lon="-2.0936050">
        <ele>337.2</ele>
        <time>2019-10-18T09:43:38Z</time>
      </trkpt>
      <trkpt lat="37.1050590" lon="-2.0936800">
        <ele>337.0</ele>
        <time>2019-10-18T09:43:39Z</time>
      </trkpt>
      <trkpt lat="37.1050000" lon="-2.0937550">
        <ele>336.9</ele>
        <time>2019-10-18T09:43:40Z</time>
      </trkpt>
      <trkpt lat="37.1049410" lon="-2.0938300">
        <ele>336.7</ele>
        <time>2019-10-18T09:43:41Z</time>
      </trkpt>
      <trkpt lat="37.1048820" lon="-2.0939060">
        <ele>336.6</ele>
        <time>2019-10-18T09:43:42Z</time>
      </trkpt>
      <trkpt lat="37.1048220" lon="-2.0939830">
        <ele>336.4</ele>
        <time>2019-10-18T09:43:43Z</time>
      </trkpt>
      <trkpt lat="37.1047610" lon="-2.0940600">
        <ele>336.2</ele>
        <time>2019-10-18T09:43:44Z</time>
      </trkpt>
      <trkpt lat="37.1047000" lon="-2.0941370">
        <ele>336.0</ele>
        <time>2019-10-18T09:43:45Z</time>
      </trkpt>
      <trkpt lat="37.1046380" lon="-2.0942140">
        <ele>335.8</ele>
        <time>2019-10-18T09:43:46Z</time>
      </trkpt>
      <trkpt lat="37.1045760" lon="-2.0942930">
        <ele>335.5</ele>
        <time>2019-10-18T09:43:47Z</time>
      </trkpt>
      <trkpt lat="37.1045140" lon="-2.0943720">
        <ele>335.2</ele>
        <time>2019-10-18T09:43:48Z</time>
      </trkpt>
      <trkpt lat="37.1044530" lon="-2.0944510">
        <ele>334.9</ele>
        <time>2019-10-18T09:43:49Z</time>
      </trkpt>
      <trkpt lat="37.1043920" lon="-2.0945300">
        <ele>334.6</ele>
        <time>2019-10-18T09:43:50Z</time>
      </trkpt>
      <trkpt lat="37.1043300" lon="-2.0946090">
        <ele>334.3</ele>
        <time>2019-10-18T09:43:51Z</time>
      </trkpt>
      <trkpt lat="37.1042680" lon="-2.0946890">
        <ele>334.0</ele>
        <time>2019-10-18T09:43:52Z</time>
      </trkpt>
      <trkpt lat="37.1042060" lon="-2.0947690">
        <ele>333.6</ele>
        <time>2019-10-18T09:43:53Z</time>
      </trkpt>
      <trkpt lat="37.1041460" lon="-2.0948510">
        <ele>333.3</ele>
        <time>2019-10-18T09:43:54Z</time>
      </trkpt>
      <trkpt lat="37.1040860" lon="-2.0949340">
        <ele>332.9</ele>
        <time>2019-10-18T09:43:55Z</time>
      </trkpt>
      <trkpt lat="37.1040270" lon="-2.0950190">
        <ele>332.6</ele>
        <time>2019-10-18T09:43:56Z</time>
      </trkpt>
      <trkpt lat="37.1039690" lon="-2.0951080">
        <ele>332.2</ele>
        <time>2019-10-18T09:43:57Z</time>
      </trkpt>
      <trkpt lat="37.1039130" lon="-2.0951980">
        <ele>331.8</ele>
        <time>2019-10-18T09:43:58Z</time>
      </trkpt>
      <trkpt lat="37.1038580" lon="-2.0952910">
        <ele>331.5</ele>
        <time>2019-10-18T09:43:59Z</time>
      </trkpt>
      <trkpt lat="37.1038060" lon="-2.0953850">
        <ele>331.1</ele>
        <time>2019-10-18T09:44:00Z</time>
      </trkpt>
      <trkpt lat="37.1037550" lon="-2.0954820">
        <ele>330.8</ele>
        <time>2019-10-18T09:44:01Z</time>
      </trkpt>
      <trkpt lat="37.1037050" lon="-2.0955790">
        <ele>330.5</ele>
        <time>2019-10-18T09:44:02Z</time>
      </trkpt>
      <trkpt lat="37.1036570" lon="-2.0956770">
        <ele>330.1</ele>
        <time>2019-10-18T09:44:03Z</time>
      </trkpt>
      <trkpt lat="37.1036100" lon="-2.0957760">
        <ele>329.8</ele>
        <time>2019-10-18T09:44:04Z</time>
      </trkpt>
      <trkpt lat="37.1035660" lon="-2.0958760">
        <ele>329.6</ele>
        <time>2019-10-18T09:44:05Z</time>
      </trkpt>
      <trkpt lat="37.1035220" lon="-2.0959750">
        <ele>329.3</ele>
        <time>2019-10-18T09:44:06Z</time>
      </trkpt>
      <trkpt lat="37.1034780" lon="-2.0960730">
        <ele>329.1</ele>
        <time>2019-10-18T09:44:07Z</time>
      </trkpt>
      <trkpt lat="37.1034340" lon="-2.0961700">
        <ele>328.9</ele>
        <time>2019-10-18T09:44:08Z</time>
      </trkpt>
      <trkpt lat="37.1033900" lon="-2.0962650">
        <ele>328.6</ele>
        <time>2019-10-18T09:44:09Z</time>
      </trkpt>
      <trkpt lat="37.1033470" lon="-2.0963590">
        <ele>328.4</ele>
        <time>2019-10-18T09:44:10Z</time>
      </trkpt>
      <trkpt lat="37.1033050" lon="-2.0964520">
        <ele>328.1</ele>
        <time>2019-10-18T09:44:11Z</time>
      </trkpt>
      <trkpt lat="37.1032640" lon="-2.0965430">
        <ele>327.8</ele>
        <time>2019-10-18T09:44:12Z</time>
      </trkpt>
      <trkpt lat="37.1032240" lon="-2.0966320">
        <ele>327.5</ele>
        <time>2019-10-18T09:44:13Z</time>
      </trkpt>
      <trkpt lat="37.1031850" lon="-2.0967180">
        <ele>327.2</ele>
        <time>2019-10-18T09:44:14Z</time>
      </trkpt>
      <trkpt lat="37.1031460" lon="-2.0968030">
        <ele>327.0</ele>
        <time>2019-10-18T09:44:15Z</time>
      </trkpt>
      <trkpt lat="37.1031080" lon="-2.0968850">
        <ele>326.8</ele>
        <time>2019-10-18T09:44:16Z</time>
      </trkpt>
      <trkpt lat="37.1030700" lon="-2.0969670">
        <ele>326.6</ele>
        <time>2019-10-18T09:44:17Z</time>
      </trkpt>
      <trkpt lat="37.1030320" lon="-2.0970470">
        <ele>326.5</ele>
        <time>2019-10-18T09:44:18Z</time>
      </trkpt>
      <trkpt lat="37.1029940" lon="-2.0971260">
        <ele>326.3</ele>
        <time>2019-10-18T09:44:19Z</time>
      </trkpt>
      <trkpt lat="37.1029560" lon="-2.0972040">
        <ele>326.1</ele>
        <time>2019-10-18T09:44:20Z</time>
      </trkpt>
      <trkpt lat="37.1029180" lon="-2.0972810">
        <ele>326.0</ele>
        <time>2019-10-18T09:44:21Z</time>
      </trkpt>
      <trkpt lat="37.1028810" lon="-2.0973570">
        <ele>325.9</ele>
        <time>2019-10-18T09:44:22Z</time>
      </trkpt>
      <trkpt lat="37.1028420" lon="-2.0974320">
        <ele>325.8</ele>
        <time>2019-10-18T09:44:23Z</time>
      </trkpt>
      <trkpt lat="37.1028020" lon="-2.0975050">
        <ele>325.7</ele>
        <time>2019-10-18T09:44:24Z</time>
      </trkpt>
      <trkpt lat="37.1027610" lon="-2.0975780">
        <ele>325.6</ele>
        <time>2019-10-18T09:44:25Z</time>
      </trkpt>
      <trkpt lat="37.1027190" lon="-2.0976510">
        <ele>325.6</ele>
        <time>2019-10-18T09:44:26Z</time>
      </trkpt>
      <trkpt lat="37.1026770" lon="-2.0977240">
        <ele>325.5</ele>
        <time>2019-10-18T09:44:27Z</time>
      </trkpt>
      <trkpt lat="37.1026340" lon="-2.0977960">
        <ele>325.4</ele>
        <time>2019-10-18T09:44:28Z</time>
      </trkpt>
      <trkpt lat="37.1025910" lon="-2.0978670">
        <ele>325.2</ele>
        <time>2019-10-18T09:44:29Z</time>
      </trkpt>
      <trkpt lat="37.1025470" lon="-2.0979360">
        <ele>325.4</ele>
        <time>2019-10-18T09:44:30Z</time>
      </trkpt>
      <trkpt lat="37.1025030" lon="-2.0980050">
        <ele>325.6</ele>
        <time>2019-10-18T09:44:31Z</time>
      </trkpt>
      <trkpt lat="37.1024580" lon="-2.0980730">
        <ele>325.9</ele>
        <time>2019-10-18T09:44:32Z</time>
      </trkpt>
      <trkpt lat="37.1024150" lon="-2.0981410">
        <ele>326.2</ele>
        <time>2019-10-18T09:44:33Z</time>
      </trkpt>
      <trkpt lat="37.1023720" lon="-2.0982070">
        <ele>326.5</ele>
        <time>2019-10-18T09:44:34Z</time>
      </trkpt>
      <trkpt lat="37.1023290" lon="-2.0982730">
        <ele>326.9</ele>
        <time>2019-10-18T09:44:35Z</time>
      </trkpt>
      <trkpt lat="37.1022860" lon="-2.0983370">
        <ele>327.4</ele>
        <time>2019-10-18T09:44:36Z</time>
      </trkpt>
      <trkpt lat="37.1022440" lon="-2.0984010">
        <ele>327.7</ele>
        <time>2019-10-18T09:44:37Z</time>
      </trkpt>
      <trkpt lat="37.1022020" lon="-2.0984640">
        <ele>328.1</ele>
        <time>2019-10-18T09:44:38Z</time>
      </trkpt>
      <trkpt lat="37.1021590" lon="-2.0985270">
        <ele>328.5</ele>
        <time>2019-10-18T09:44:39Z</time>
      </trkpt>
      <trkpt lat="37.1021180" lon="-2.0985880">
        <ele>328.8</ele>
        <time>2019-10-18T09:44:40Z</time>
      </trkpt>
      <trkpt lat="37.1020770" lon="-2.0986500">
        <ele>329.3</ele>
        <time>2019-10-18T09:44:41Z</time>
      </trkpt>
      <trkpt lat="37.1020370" lon="-2.0987110">
        <ele>329.8</ele>
        <time>2019-10-18T09:44:42Z</time>
      </trkpt>
      <trkpt lat="37.1019970" lon="-2.0987720">
        <ele>330.3</ele>
        <time>2019-10-18T09:44:43Z</time>
      </trkpt>
      <trkpt lat="37.1019560" lon="-2.0988320">
        <ele>330.8</ele>
        <time>2019-10-18T09:44:44Z</time>
      </trkpt>
      <trkpt lat="37.1019170" lon="-2.0988920">
        <ele>331.1</ele>
        <time>2019-10-18T09:44:45Z</time>
      </trkpt>
      <trkpt lat="37.1018790" lon="-2.0989510">
        <ele>331.5</ele>
        <time>2019-10-18T09:44:46Z</time>
      </trkpt>
      <trkpt lat="37.1018400" lon="-2.0990090">
        <ele>331.8</ele>
        <time>2019-10-18T09:44:47Z</time>
      </trkpt>
      <trkpt lat="37.1018010" lon="-2.0990670">
        <ele>332.3</ele>
        <time>2019-10-18T09:44:48Z</time>
      </trkpt>
      <trkpt lat="37.1017630" lon="-2.0991240">
        <ele>332.9</ele>
        <time>2019-10-18T09:44:49Z</time>
      </trkpt>
      <trkpt lat="37.1017260" lon="-2.0991800">
        <ele>332.9</ele>
        <time>2019-10-18T09:44:50Z</time>
      </trkpt>
      <trkpt lat="37.1016890" lon="-2.0992360">
        <ele>332.9</ele>
        <time>2019-10-18T09:44:51Z</time>
      </trkpt>
      <trkpt lat="37.1016520" lon="-2.0992910">
        <ele>332.9</ele>
        <time>2019-10-18T09:44:52Z</time>
      </trkpt>
      <trkpt lat="37.1016160" lon="-2.0993450">
        <ele>332.9</ele>
        <time>2019-10-18T09:44:53Z</time>
      </trkpt>
      <trkpt lat="37.1015810" lon="-2.0993970">
        <ele>332.9</ele>
        <time>2019-10-18T09:44:54Z</time>
      </trkpt>
      <trkpt lat="37.1015470" lon="-2.0994490">
        <ele>332.9</ele>
        <time>2019-10-18T09:44:55Z</time>
      </trkpt>
      <trkpt lat="37.1015130" lon="-2.0995000">
        <ele>332.9</ele>
        <time>2019-10-18T09:44:56Z</time>
      </trkpt>
      <trkpt lat="37.1014800" lon="-2.0995510">
        <ele>332.9</ele>
        <time>2019-10-18T09:44:57Z</time>
      </trkpt>
      <trkpt lat="37.1014460" lon="-2.0996020">
        <ele>332.9</ele>
        <time>2019-10-18T09:44:58Z</time>
      </trkpt>
      <trkpt lat="37.1014130" lon="-2.0996520">
        <ele>332.9</ele>
        <time>2019-10-18T09:44:59Z</time>
      </trkpt>
      <trkpt lat="37.1013790" lon="-2.0997030">
        <ele>332.8</ele>
        <time>2019-10-18T09:45:00Z</time>
      </trkpt>
      <trkpt lat="37.1013460" lon="-2.0997530">
        <ele>332.7</ele>
        <time>2019-10-18T09:45:01Z</time>
      </trkpt>
      <trkpt lat="37.1013130" lon="-2.0998020">
        <ele>332.6</ele>
        <time>2019-10-18T09:45:02Z</time>
      </trkpt>
      <trkpt lat="37.1012790" lon="-2.0998500">
        <ele>332.4</ele>
        <time>2019-10-18T09:45:03Z</time>
      </trkpt>
      <trkpt lat="37.1012470" lon="-2.0998990">
        <ele>332.2</ele>
        <time>2019-10-18T09:45:04Z</time>
      </trkpt>
      <trkpt lat="37.1012140" lon="-2.0999480">
        <ele>332.0</ele>
        <time>2019-10-18T09:45:05Z</time>
      </trkpt>
      <trkpt lat="37.1011820" lon="-2.0999970">
        <ele>331.8</ele>
        <time>2019-10-18T09:45:06Z</time>
      </trkpt>
      <trkpt lat="37.1011490" lon="-2.1000450">
        <ele>331.7</ele>
        <time>2019-10-18T09:45:07Z</time>
      </trkpt>
      <trkpt lat="37.1011180" lon="-2.1000920">
        <ele>331.5</ele>
        <time>2019-10-18T09:45:08Z</time>
      </trkpt>
      <trkpt lat="37.1010860" lon="-2.1001390">
        <ele>331.4</ele>
        <time>2019-10-18T09:45:09Z</time>
      </trkpt>
      <trkpt lat="37.1010540" lon="-2.1001860">
        <ele>331.3</ele>
        <time>2019-10-18T09:45:10Z</time>
      </trkpt>
      <trkpt lat="37.1010240" lon="-2.1002310">
        <ele>331.2</ele>
        <time>2019-10-18T09:45:11Z</time>
      </trkpt>
      <trkpt lat="37.1009930" lon="-2.1002770">
        <ele>331.2</ele>
        <time>2019-10-18T09:45:12Z</time>
      </trkpt>
      <trkpt lat="37.1009640" lon="-2.1003210">
        <ele>331.2</ele>
        <time>2019-10-18T09:45:13Z</time>
      </trkpt>
      <trkpt lat="37.1009340" lon="-2.1003660">
        <ele>331.2</ele>
        <time>2019-10-18T09:45:14Z</time>
      </trkpt>
      <trkpt lat="37.1009040" lon="-2.1004090">
        <ele>331.2</ele>
        <time>2019-10-18T09:45:15Z</time>
      </trkpt>
      <trkpt lat="37.1008740" lon="-2.1004530">
        <ele>331.2</ele>
        <time>2019-10-18T09:45:16Z</time>
      </trkpt>
      <trkpt lat="37.1008440" lon="-2.1004970">
        <ele>331.2</ele>
        <time>2019-10-18T09:45:17Z</time>
      </trkpt>
      <trkpt lat="37.1008150" lon="-2.1005410">
        <ele>331.2</ele>
        <time>2019-10-18T09:45:18Z</time>
      </trkpt>
      <trkpt lat="37.1007860" lon="-2.1005840">
        <ele>331.2</ele>
        <time>2019-10-18T09:45:19Z</time>
      </trkpt>
      <trkpt lat="37.1007570" lon="-2.1006270">
        <ele>331.2</ele>
        <time>2019-10-18T09:45:20Z</time>
      </trkpt>
      <trkpt lat="37.1007280" lon="-2.1006700">
        <ele>331.2</ele>
        <time>2019-10-18T09:45:21Z</time>
      </trkpt>
      <trkpt lat="37.1006990" lon="-2.1007120">
        <ele>331.2</ele>
        <time>2019-10-18T09:45:22Z</time>
      </trkpt>
      <trkpt lat="37.1006700" lon="-2.1007550">
        <ele>331.6</ele>
        <time>2019-10-18T09:45:23Z</time>
      </trkpt>
      <trkpt lat="37.1006400" lon="-2.1007990">
        <ele>331.8</ele>
        <time>2019-10-18T09:45:24Z</time>
      </trkpt>
      <trkpt lat="37.1006110" lon="-2.1008420">
        <ele>332.0</ele>
        <time>2019-10-18T09:45:25Z</time>
      </trkpt>
      <trkpt lat="37.1005810" lon="-2.1008860">
        <ele>332.2</ele>
        <time>2019-10-18T09:45:26Z</time>
      </trkpt>
      <trkpt lat="37.1005510" lon="-2.1009290">
        <ele>332.4</ele>
        <time>2019-10-18T09:45:27Z</time>
      </trkpt>
      <trkpt lat="37.1005220" lon="-2.1009740">
        <ele>332.5</ele>
        <time>2019-10-18T09:45:28Z</time>
      </trkpt>
      <trkpt lat="37.1004930" lon="-2.1010180">
        <ele>332.7</ele>
        <time>2019-10-18T09:45:29Z</time>
      </trkpt>
      <trkpt lat="37.1004650" lon="-2.1010630">
        <ele>332.8</ele>
        <time>2019-10-18T09:45:30Z</time>
      </trkpt>
      <trkpt lat="37.1004360" lon="-2.1011070">
        <ele>333.0</ele>
        <time>2019-10-18T09:45:31Z</time>
      </trkpt>
      <trkpt lat="37.1004060" lon="-2.1011500">
        <ele>333.2</ele>
        <time>2019-10-18T09:45:32Z</time>
      </trkpt>
      <trkpt lat="37.1003760" lon="-2.1011940">
        <ele>333.4</ele>
        <time>2019-10-18T09:45:33Z</time>
      </trkpt>
      <trkpt lat="37.1003470" lon="-2.1012380">
        <ele>333.6</ele>
        <time>2019-10-18T09:45:34Z</time>
      </trkpt>
      <trkpt lat="37.1003180" lon="-2.1012830">
        <ele>333.8</ele>
        <time>2019-10-18T09:45:35Z</time>
      </trkpt>
      <trkpt lat="37.1002890" lon="-2.1013270">
        <ele>334.0</ele>
        <time>2019-10-18T09:45:36Z</time>
      </trkpt>
      <trkpt lat="37.1002600" lon="-2.1013720">
        <ele>334.3</ele>
        <time>2019-10-18T09:45:37Z</time>
      </trkpt>
      <trkpt lat="37.1002310" lon="-2.1014160">
        <ele>334.5</ele>
        <time>2019-10-18T09:45:38Z</time>
      </trkpt>
      <trkpt lat="37.1002010" lon="-2.1014600">
        <ele>334.7</ele>
        <time>2019-10-18T09:45:39Z</time>
      </trkpt>
      <trkpt lat="37.1001730" lon="-2.1015030">
        <ele>334.9</ele>
        <time>2019-10-18T09:45:40Z</time>
      </trkpt>
      <trkpt lat="37.1001430" lon="-2.1015470">
        <ele>335.1</ele>
        <time>2019-10-18T09:45:41Z</time>
      </trkpt>
      <trkpt lat="37.1001140" lon="-2.1015900">
        <ele>335.3</ele>
        <time>2019-10-18T09:45:42Z</time>
      </trkpt>
      <trkpt lat="37.1000860" lon="-2.1016340">
        <ele>335.5</ele>
        <time>2019-10-18T09:45:43Z</time>
      </trkpt>
      <trkpt lat="37.1000570" lon="-2.1016780">
        <ele>335.6</ele>
        <time>2019-10-18T09:45:44Z</time>
      </trkpt>
      <trkpt lat="37.1000280" lon="-2.1017210">
        <ele>335.8</ele>
        <time>2019-10-18T09:45:45Z</time>
      </trkpt>
      <trkpt lat="37.0999990" lon="-2.1017650">
        <ele>335.9</ele>
        <time>2019-10-18T09:45:46Z</time>
      </trkpt>
      <trkpt lat="37.0999700" lon="-2.1018090">
        <ele>336.1</ele>
        <time>2019-10-18T09:45:47Z</time>
      </trkpt>
      <trkpt lat="37.0999410" lon="-2.1018540">
        <ele>336.3</ele>
        <time>2019-10-18T09:45:48Z</time>
      </trkpt>
      <trkpt lat="37.0999120" lon="-2.1018980">
        <ele>336.4</ele>
        <time>2019-10-18T09:45:49Z</time>
      </trkpt>
      <trkpt lat="37.0998830" lon="-2.1019420">
        <ele>336.6</ele>
        <time>2019-10-18T09:45:50Z</time>
      </trkpt>
      <trkpt lat="37.0998540" lon="-2.1019850">
        <ele>336.8</ele>
        <time>2019-10-18T09:45:51Z</time>
      </trkpt>
      <trkpt lat="37.0998240" lon="-2.1020290">
        <ele>336.9</ele>
        <time>2019-10-18T09:45:52Z</time>
      </trkpt>
      <trkpt lat="37.0997950" lon="-2.1020730">
        <ele>337.1</ele>
        <time>2019-10-18T09:45:53Z</time>
      </trkpt>
      <trkpt lat="37.0997650" lon="-2.1021170">
        <ele>337.2</ele>
        <time>2019-10-18T09:45:54Z</time>
      </trkpt>
      <trkpt lat="37.0997350" lon="-2.1021610">
        <ele>337.4</ele>
        <time>2019-10-18T09:45:55Z</time>
      </trkpt>
      <trkpt lat="37.0997050" lon="-2.1022070">
        <ele>337.6</ele>
        <time>2019-10-18T09:45:56Z</time>
      </trkpt>
      <trkpt lat="37.0996750" lon="-2.1022530">
        <ele>337.7</ele>
        <time>2019-10-18T09:45:57Z</time>
      </trkpt>
      <trkpt lat="37.0996440" lon="-2.1022990">
        <ele>337.9</ele>
        <time>2019-10-18T09:45:58Z</time>
      </trkpt>
      <trkpt lat="37.0996130" lon="-2.1023450">
        <ele>338.1</ele>
        <time>2019-10-18T09:45:59Z</time>
      </trkpt>
      <trkpt lat="37.0995820" lon="-2.1023920">
        <ele>338.3</ele>
        <time>2019-10-18T09:46:00Z</time>
      </trkpt>
      <trkpt lat="37.0995510" lon="-2.1024390">
        <ele>338.5</ele>
        <time>2019-10-18T09:46:01Z</time>
      </trkpt>
      <trkpt lat="37.0995180" lon="-2.1024850">
        <ele>338.7</ele>
        <time>2019-10-18T09:46:02Z</time>
      </trkpt>
      <trkpt lat="37.0994860" lon="-2.1025320">
        <ele>339.0</ele>
        <time>2019-10-18T09:46:03Z</time>
      </trkpt>
      <trkpt lat="37.0994540" lon="-2.1025800">
        <ele>339.2</ele>
        <time>2019-10-18T09:46:04Z</time>
      </trkpt>
      <trkpt lat="37.0994210" lon="-2.1026280">
        <ele>339.4</ele>
        <time>2019-10-18T09:46:05Z</time>
      </trkpt>
      <trkpt lat="37.0993890" lon="-2.1026760">
        <ele>339.6</ele>
        <time>2019-10-18T09:46:06Z</time>
      </trkpt>
      <trkpt lat="37.0993560" lon="-2.1027240">
        <ele>339.7</ele>
        <time>2019-10-18T09:46:07Z</time>
      </trkpt>
      <trkpt lat="37.0993240" lon="-2.1027720">
        <ele>339.9</ele>
        <time>2019-10-18T09:46:08Z</time>
      </trkpt>
      <trkpt lat="37.0992910" lon="-2.1028200">
        <ele>340.1</ele>
        <time>2019-10-18T09:46:09Z</time>
      </trkpt>
      <trkpt lat="37.0992590" lon="-2.1028670">
        <ele>340.2</ele>
        <time>2019-10-18T09:46:10Z</time>
      </trkpt>
      <trkpt lat="37.0992260" lon="-2.1029150">
        <ele>340.3</ele>
        <time>2019-10-18T09:46:11Z</time>
      </trkpt>
      <trkpt lat="37.0991940" lon="-2.1029620">
        <ele>340.4</ele>
        <time>2019-10-18T09:46:12Z</time>
      </trkpt>
      <trkpt lat="37.0991610" lon="-2.1030100">
        <ele>340.5</ele>
        <time>2019-10-18T09:46:13Z</time>
      </trkpt>
      <trkpt lat="37.0991280" lon="-2.1030590">
        <ele>340.7</ele>
        <time>2019-10-18T09:46:14Z</time>
      </trkpt>
      <trkpt lat="37.0990950" lon="-2.1031080">
        <ele>340.8</ele>
        <time>2019-10-18T09:46:15Z</time>
      </trkpt>
      <trkpt lat="37.0990620" lon="-2.1031570">
        <ele>341.0</ele>
        <time>2019-10-18T09:46:16Z</time>
      </trkpt>
      <trkpt lat="37.0990290" lon="-2.1032060">
        <ele>341.1</ele>
        <time>2019-10-18T09:46:17Z</time>
      </trkpt>
      <trkpt lat="37.0989960" lon="-2.1032560">
        <ele>341.3</ele>
        <time>2019-10-18T09:46:18Z</time>
      </trkpt>
      <trkpt lat="37.0989640" lon="-2.1033060">
        <ele>341.5</ele>
        <time>2019-10-18T09:46:19Z</time>
      </trkpt>
      <trkpt lat="37.0989320" lon="-2.1033560">
        <ele>341.7</ele>
        <time>2019-10-18T09:46:20Z</time>
      </trkpt>
      <trkpt lat="37.0988990" lon="-2.1034060">
        <ele>341.8</ele>
        <time>2019-10-18T09:46:21Z</time>
      </trkpt>
      <trkpt lat="37.0988660" lon="-2.1034560">
        <ele>342.0</ele>
        <time>2019-10-18T09:46:22Z</time>
      </trkpt>
      <trkpt lat="37.0988330" lon="-2.1035070">
        <ele>342.1</ele>
        <time>2019-10-18T09:46:23Z</time>
      </trkpt>
      <trkpt lat="37.0988000" lon="-2.1035570">
        <ele>342.2</ele>
        <time>2019-10-18T09:46:24Z</time>
      </trkpt>
      <trkpt lat="37.0987680" lon="-2.1036070">
        <ele>342.3</ele>
        <time>2019-10-18T09:46:25Z</time>
      </trkpt>
      <trkpt lat="37.0987350" lon="-2.1036560">
        <ele>342.3</ele>
        <time>2019-10-18T09:46:26Z</time>
      </trkpt>
      <trkpt lat="37.0987010" lon="-2.1037050">
        <ele>342.3</ele>
        <time>2019-10-18T09:46:27Z</time>
      </trkpt>
      <trkpt lat="37.0986680" lon="-2.1037540">
        <ele>342.3</ele>
        <time>2019-10-18T09:46:28Z</time>
      </trkpt>
      <trkpt lat="37.0986350" lon="-2.1038040">
        <ele>342.3</ele>
        <time>2019-10-18T09:46:29Z</time>
      </trkpt>
      <trkpt lat="37.0986020" lon="-2.1038540">
        <ele>342.3</ele>
        <time>2019-10-18T09:46:30Z</time>
      </trkpt>
      <trkpt lat="37.0985700" lon="-2.1039050">
        <ele>342.3</ele>
        <time>2019-10-18T09:46:31Z</time>
      </trkpt>
      <trkpt lat="37.0985380" lon="-2.1039560">
        <ele>342.3</ele>
        <time>2019-10-18T09:46:32Z</time>
      </trkpt>
      <trkpt lat="37.0985070" lon="-2.1040070">
        <ele>342.3</ele>
        <time>2019-10-18T09:46:33Z</time>
      </trkpt>
      <trkpt lat="37.0984770" lon="-2.1040560">
        <ele>342.3</ele>
        <time>2019-10-18T09:46:34Z</time>
      </trkpt>
      <trkpt lat="37.0984470" lon="-2.1041050">
        <ele>342.3</ele>
        <time>2019-10-18T09:46:35Z</time>
      </trkpt>
      <trkpt lat="37.0984180" lon="-2.1041530">
        <ele>342.3</ele>
        <time>2019-10-18T09:46:36Z</time>
      </trkpt>
      <trkpt lat="37.0983900" lon="-2.1041990">
        <ele>342.3</ele>
        <time>2019-10-18T09:46:37Z</time>
      </trkpt>
      <trkpt lat="37.0983640" lon="-2.1042440">
        <ele>342.3</ele>
        <time>2019-10-18T09:46:38Z</time>
      </trkpt>
      <trkpt lat="37.0983390" lon="-2.1042860">
        <ele>342.3</ele>
        <time>2019-10-18T09:46:39Z</time>
      </trkpt>
      <trkpt lat="37.0983150" lon="-2.1043280">
        <ele>342.3</ele>
        <time>2019-10-18T09:46:40Z</time>
      </trkpt>
      <trkpt lat="37.0982920" lon="-2.1043670">
        <ele>342.3</ele>
        <time>2019-10-18T09:46:41Z</time>
      </trkpt>
      <trkpt lat="37.0982700" lon="-2.1044060">
        <ele>342.3</ele>
        <time>2019-10-18T09:46:42Z</time>
      </trkpt>
      <trkpt lat="37.0982490" lon="-2.1044440">
        <ele>342.3</ele>
        <time>2019-10-18T09:46:43Z</time>
      </trkpt>
      <trkpt lat="37.0982280" lon="-2.1044800">
        <ele>342.3</ele>
        <time>2019-10-18T09:46:44Z</time>
      </trkpt>
      <trkpt lat="37.0982070" lon="-2.1045170">
        <ele>342.3</ele>
        <time>2019-10-18T09:46:45Z</time>
      </trkpt>
      <trkpt lat="37.0981860" lon="-2.1045530">
        <ele>342.3</ele>
        <time>2019-10-18T09:46:46Z</time>
      </trkpt>
      <trkpt lat="37.0981660" lon="-2.1045900">
        <ele>342.3</ele>
        <time>2019-10-18T09:46:47Z</time>
      </trkpt>
      <trkpt lat="37.0981460" lon="-2.1046260">
        <ele>342.3</ele>
        <time>2019-10-18T09:46:48Z</time>
      </trkpt>
      <trkpt lat="37.0981260" lon="-2.1046620">
        <ele>342.3</ele>
        <time>2019-10-18T09:46:49Z</time>
      </trkpt>
      <trkpt lat="37.0981050" lon="-2.1046970">
        <ele>342.3</ele>
        <time>2019-10-18T09:46:50Z</time>
      </trkpt>
      <trkpt lat="37.0980840" lon="-2.1047320">
        <ele>342.3</ele>
        <time>2019-10-18T09:46:51Z</time>
      </trkpt>
      <trkpt lat="37.0980630" lon="-2.1047660">
        <ele>342.3</ele>
        <time>2019-10-18T09:46:52Z</time>
      </trkpt>
      <trkpt lat="37.0980440" lon="-2.1048000">
        <ele>342.3</ele>
        <time>2019-10-18T09:46:53Z</time>
      </trkpt>
      <trkpt lat="37.0980260" lon="-2.1048340">
        <ele>342.3</ele>
        <time>2019-10-18T09:46:54Z</time>
      </trkpt>
      <trkpt lat="37.0980080" lon="-2.1048690">
        <ele>342.3</ele>
        <time>2019-10-18T09:46:55Z</time>
      </trkpt>
      <trkpt lat="37.0979900" lon="-2.1049030">
        <ele>342.3</ele>
        <time>2019-10-18T09:46:56Z</time>
      </trkpt>
      <trkpt lat="37.0979710" lon="-2.1049360">
        <ele>342.3</ele>
        <time>2019-10-18T09:46:57Z</time>
      </trkpt>
      <trkpt lat="37.0979520" lon="-2.1049690">
        <ele>342.3</ele>
        <time>2019-10-18T09:46:58Z</time>
      </trkpt>
      <trkpt lat="37.0979330" lon="-2.1050020">
        <ele>342.3</ele>
        <time>2019-10-18T09:46:59Z</time>
      </trkpt>
      <trkpt lat="37.0979150" lon="-2.1050350">
        <ele>342.3</ele>
        <time>2019-10-18T09:47:00Z</time>
      </trkpt>
      <trkpt lat="37.0978960" lon="-2.1050670">
        <ele>342.3</ele>
        <time>2019-10-18T09:47:01Z</time>
      </trkpt>
      <trkpt lat="37.0978780" lon="-2.1050990">
        <ele>342.3</ele>
        <time>2019-10-18T09:47:02Z</time>
      </trkpt>
      <trkpt lat="37.0978600" lon="-2.1051310">
        <ele>342.3</ele>
        <time>2019-10-18T09:47:03Z</time>
      </trkpt>
      <trkpt lat="37.0978420" lon="-2.1051620">
        <ele>342.3</ele>
        <time>2019-10-18T09:47:04Z</time>
      </trkpt>
      <trkpt lat="37.0978230" lon="-2.1051930">
        <ele>342.3</ele>
        <time>2019-10-18T09:47:05Z</time>
      </trkpt>
      <trkpt lat="37.0978050" lon="-2.1052240">
        <ele>342.3</ele>
        <time>2019-10-18T09:47:06Z</time>
      </trkpt>
      <trkpt lat="37.0977870" lon="-2.1052560">
        <ele>342.3</ele>
        <time>2019-10-18T09:47:07Z</time>
      </trkpt>
      <trkpt lat="37.0977700" lon="-2.1052890">
        <ele>342.3</ele>
        <time>2019-10-18T09:47:08Z</time>
      </trkpt>
      <trkpt lat="37.0977530" lon="-2.1053210">
        <ele>342.3</ele>
        <time>2019-10-18T09:47:09Z</time>
      </trkpt>
      <trkpt lat="37.0977350" lon="-2.1053520">
        <ele>342.3</ele>
        <time>2019-10-18T09:47:10Z</time>
      </trkpt>
      <trkpt lat="37.0977170" lon="-2.1053830">
        <ele>342.3</ele>
        <time>2019-10-18T09:47:11Z</time>
      </trkpt>
      <trkpt lat="37.0976980" lon="-2.1054150">
        <ele>342.3</ele>
        <time>2019-10-18T09:47:12Z</time>
      </trkpt>
      <trkpt lat="37.0976790" lon="-2.1054480">
        <ele>342.3</ele>
        <time>2019-10-18T09:47:13Z</time>
      </trkpt>
      <trkpt lat="37.0976590" lon="-2.1054810">
        <ele>342.3</ele>
        <time>2019-10-18T09:47:14Z</time>
      </trkpt>
      <trkpt lat="37.0976390" lon="-2.1055160">
        <ele>342.3</ele>
        <time>2019-10-18T09:47:15Z</time>
      </trkpt>
      <trkpt lat="37.0976190" lon="-2.1055500">
        <ele>342.3</ele>
        <time>2019-10-18T09:47:16Z</time>
      </trkpt>
      <trkpt lat="37.0976000" lon="-2.1055850">
        <ele>342.3</ele>
        <time>2019-10-18T09:47:17Z</time>
      </trkpt>
      <trkpt lat="37.0975810" lon="-2.1056190">
        <ele>342.3</ele>
        <time>2019-10-18T09:47:18Z</time>
      </trkpt>
      <trkpt lat="37.0975620" lon="-2.1056530">
        <ele>342.3</ele>
        <time>2019-10-18T09:47:19Z</time>
      </trkpt>
      <trkpt lat="37.0975420" lon="-2.1056880">
        <ele>342.4</ele>
        <time>2019-10-18T09:47:20Z</time>
      </trkpt>
      <trkpt lat="37.0975220" lon="-2.1057220">
        <ele>342.4</ele>
        <time>2019-10-18T09:47:21Z</time>
      </trkpt>
      <trkpt lat="37.0975030" lon="-2.1057560">
        <ele>342.4</ele>
        <time>2019-10-18T09:47:22Z</time>
      </trkpt>
      <trkpt lat="37.0974830" lon="-2.1057890">
        <ele>342.4</ele>
        <time>2019-10-18T09:47:23Z</time>
      </trkpt>
      <trkpt lat="37.0974630" lon="-2.1058230">
        <ele>342.4</ele>
        <time>2019-10-18T09:47:24Z</time>
      </trkpt>
      <trkpt lat="37.0974440" lon="-2.1058570">
        <ele>342.4</ele>
        <time>2019-10-18T09:47:25Z</time>
      </trkpt>
      <trkpt lat="37.0974240" lon="-2.1058920">
        <ele>342.4</ele>
        <time>2019-10-18T09:47:26Z</time>
      </trkpt>
      <trkpt lat="37.0974040" lon="-2.1059260">
        <ele>342.4</ele>
        <time>2019-10-18T09:47:27Z</time>
      </trkpt>
      <trkpt lat="37.0973850" lon="-2.1059610">
        <ele>342.4</ele>
        <time>2019-10-18T09:47:28Z</time>
      </trkpt>
      <trkpt lat="37.0973650" lon="-2.1059950">
        <ele>342.4</ele>
        <time>2019-10-18T09:47:29Z</time>
      </trkpt>
      <trkpt lat="37.0973460" lon="-2.1060290">
        <ele>342.4</ele>
        <time>2019-10-18T09:47:30Z</time>
      </trkpt>
      <trkpt lat="37.0973260" lon="-2.1060630">
        <ele>342.4</ele>
        <time>2019-10-18T09:47:31Z</time>
      </trkpt>
      <trkpt lat="37.0973070" lon="-2.1060960">
        <ele>342.4</ele>
        <time>2019-10-18T09:47:32Z</time>
      </trkpt>
      <trkpt lat="37.0972880" lon="-2.1061300">
        <ele>342.4</ele>
        <time>2019-10-18T09:47:33Z</time>
      </trkpt>
      <trkpt lat="37.0972690" lon="-2.1061640">
        <ele>342.4</ele>
        <time>2019-10-18T09:47:34Z</time>
      </trkpt>
      <trkpt lat="37.0972500" lon="-2.1061980">
        <ele>342.4</ele>
        <time>2019-10-18T09:47:35Z</time>
      </trkpt>
      <trkpt lat="37.0972310" lon="-2.1062320">
        <ele>342.4</ele>
        <time>2019-10-18T09:47:36Z</time>
      </trkpt>
      <trkpt lat="37.0972130" lon="-2.1062660">
        <ele>342.5</ele>
        <time>2019-10-18T09:47:37Z</time>
      </trkpt>
      <trkpt lat="37.0971950" lon="-2.1063010">
        <ele>342.5</ele>
        <time>2019-10-18T09:47:38Z</time>
      </trkpt>
      <trkpt lat="37.0971760" lon="-2.1063350">
        <ele>342.6</ele>
        <time>2019-10-18T09:47:39Z</time>
      </trkpt>
      <trkpt lat="37.0971570" lon="-2.1063680">
        <ele>342.7</ele>
        <time>2019-10-18T09:47:40Z</time>
      </trkpt>
      <trkpt lat="37.0971380" lon="-2.1064020">
        <ele>342.9</ele>
        <time>2019-10-18T09:47:41Z</time>
      </trkpt>
      <trkpt lat="37.0971200" lon="-2.1064380">
        <ele>343.0</ele>
        <time>2019-10-18T09:47:42Z</time>
      </trkpt>
      <trkpt lat="37.0971040" lon="-2.1064740">
        <ele>343.2</ele>
        <time>2019-10-18T09:47:43Z</time>
      </trkpt>
      <trkpt lat="37.0970880" lon="-2.1065110">
        <ele>343.4</ele>
        <time>2019-10-18T09:47:44Z</time>
      </trkpt>
      <trkpt lat="37.0970700" lon="-2.1065490">
        <ele>343.6</ele>
        <time>2019-10-18T09:47:45Z</time>
      </trkpt>
      <trkpt lat="37.0970530" lon="-2.1065870">
        <ele>343.8</ele>
        <time>2019-10-18T09:47:46Z</time>
      </trkpt>
      <trkpt lat="37.0970370" lon="-2.1066280">
        <ele>344.0</ele>
        <time>2019-10-18T09:47:47Z</time>
      </trkpt>
      <trkpt lat="37.0970210" lon="-2.1066670">
        <ele>344.1</ele>
        <time>2019-10-18T09:47:48Z</time>
      </trkpt>
      <trkpt lat="37.0970080" lon="-2.1067070">
        <ele>344.2</ele>
        <time>2019-10-18T09:47:49Z</time>
      </trkpt>
      <trkpt lat="37.0969960" lon="-2.1067460">
        <ele>344.3</ele>
        <time>2019-10-18T09:47:50Z</time>
      </trkpt>
      <trkpt lat="37.0969840" lon="-2.1067830">
        <ele>344.4</ele>
        <time>2019-10-18T09:47:51Z</time>
      </trkpt>
      <trkpt lat="37.0969730" lon="-2.1068210">
        <ele>344.5</ele>
        <time>2019-10-18T09:47:52Z</time>
      </trkpt>
      <trkpt lat="37.0969640" lon="-2.1068600">
        <ele>344.5</ele>
        <time>2019-10-18T09:47:53Z</time>
      </trkpt>
      <trkpt lat="37.0969540" lon="-2.1068990">
        <ele>344.7</ele>
        <time>2019-10-18T09:47:54Z</time>
      </trkpt>
      <trkpt lat="37.0969460" lon="-2.1069380">
        <ele>344.8</ele>
        <time>2019-10-18T09:47:55Z</time>
      </trkpt>
      <trkpt lat="37.0969370" lon="-2.1069770">
        <ele>345.0</ele>
        <time>2019-10-18T09:47:56Z</time>
      </trkpt>
      <trkpt lat="37.0969290" lon="-2.1070150">
        <ele>345.1</ele>
        <time>2019-10-18T09:47:57Z</time>
      </trkpt>
      <trkpt lat="37.0969200" lon="-2.1070550">
        <ele>345.3</ele>
        <time>2019-10-18T09:47:58Z</time>
      </trkpt>
      <trkpt lat="37.0969130" lon="-2.1070940">
        <ele>345.5</ele>
        <time>2019-10-18T09:47:59Z</time>
      </trkpt>
      <trkpt lat="37.0969050" lon="-2.1071340">
        <ele>345.7</ele>
        <time>2019-10-18T09:48:00Z</time>
      </trkpt>
      <trkpt lat="37.0968970" lon="-2.1071740">
        <ele>345.9</ele>
        <time>2019-10-18T09:48:01Z</time>
      </trkpt>
      <trkpt lat="37.0968910" lon="-2.1072130">
        <ele>346.0</ele>
        <time>2019-10-18T09:48:02Z</time>
      </trkpt>
      <trkpt lat="37.0968850" lon="-2.1072530">
        <ele>346.1</ele>
        <time>2019-10-18T09:48:03Z</time>
      </trkpt>
      <trkpt lat="37.0968780" lon="-2.1072920">
        <ele>346.2</ele>
        <time>2019-10-18T09:48:04Z</time>
      </trkpt>
      <trkpt lat="37.0968710" lon="-2.1073320">
        <ele>346.3</ele>
        <time>2019-10-18T09:48:05Z</time>
      </trkpt>
      <trkpt lat="37.0968630" lon="-2.1073720">
        <ele>346.3</ele>
        <time>2019-10-18T09:48:06Z</time>
      </trkpt>
      <trkpt lat="37.0968540" lon="-2.1074110">
        <ele>346.4</ele>
        <time>2019-10-18T09:48:07Z</time>
      </trkpt>
      <trkpt lat="37.0968470" lon="-2.1074520">
        <ele>346.4</ele>
        <time>2019-10-18T09:48:08Z</time>
      </trkpt>
      <trkpt lat="37.0968400" lon="-2.1074920">
        <ele>346.4</ele>
        <time>2019-10-18T09:48:09Z</time>
      </trkpt>
      <trkpt lat="37.0968320" lon="-2.1075330">
        <ele>346.5</ele>
        <time>2019-10-18T09:48:10Z</time>
      </trkpt>
      <trkpt lat="37.0968240" lon="-2.1075730">
        <ele>346.6</ele>
        <time>2019-10-18T09:48:11Z</time>
      </trkpt>
      <trkpt lat="37.0968170" lon="-2.1076130">
        <ele>346.7</ele>
        <time>2019-10-18T09:48:12Z</time>
      </trkpt>
      <trkpt lat="37.0968100" lon="-2.1076530">
        <ele>346.8</ele>
        <time>2019-10-18T09:48:13Z</time>
      </trkpt>
      <trkpt lat="37.0968030" lon="-2.1076920">
        <ele>347.0</ele>
        <time>2019-10-18T09:48:14Z</time>
      </trkpt>
      <trkpt lat="37.0967970" lon="-2.1077320">
        <ele>347.2</ele>
        <time>2019-10-18T09:48:15Z</time>
      </trkpt>
      <trkpt lat="37.0967900" lon="-2.1077710">
        <ele>347.3</ele>
        <time>2019-10-18T09:48:16Z</time>
      </trkpt>
      <trkpt lat="37.0967850" lon="-2.1078110">
        <ele>347.5</ele>
        <time>2019-10-18T09:48:17Z</time>
      </trkpt>
      <trkpt lat="37.0967780" lon="-2.1078510">
        <ele>347.7</ele>
        <time>2019-10-18T09:48:18Z</time>
      </trkpt>
      <trkpt lat="37.0967720" lon="-2.1078910">
        <ele>347.9</ele>
        <time>2019-10-18T09:48:19Z</time>
      </trkpt>
      <trkpt lat="37.0967650" lon="-2.1079310">
        <ele>348.1</ele>
        <time>2019-10-18T09:48:20Z</time>
      </trkpt>
      <trkpt lat="37.0967570" lon="-2.1079710">
        <ele>348.4</ele>
        <time>2019-10-18T09:48:21Z</time>
      </trkpt>
      <trkpt lat="37.0967510" lon="-2.1080110">
        <ele>348.7</ele>
        <time>2019-10-18T09:48:22Z</time>
      </trkpt>
      <trkpt lat="37.0967440" lon="-2.1080500">
        <ele>348.9</ele>
        <time>2019-10-18T09:48:23Z</time>
      </trkpt>
      <trkpt lat="37.0967370" lon="-2.1080890">
        <ele>349.2</ele>
        <time>2019-10-18T09:48:24Z</time>
      </trkpt>
      <trkpt lat="37.0967300" lon="-2.1081270">
        <ele>349.4</ele>
        <time>2019-10-18T09:48:25Z</time>
      </trkpt>
      <trkpt lat="37.0967240" lon="-2.1081660">
        <ele>349.6</ele>
        <time>2019-10-18T09:48:26Z</time>
      </trkpt>
      <trkpt lat="37.0967180" lon="-2.1082050">
        <ele>349.8</ele>
        <time>2019-10-18T09:48:27Z</time>
      </trkpt>
      <trkpt lat="37.0967110" lon="-2.1082450">
        <ele>349.9</ele>
        <time>2019-10-18T09:48:28Z</time>
      </trkpt>
      <trkpt lat="37.0967040" lon="-2.1082840">
        <ele>350.0</ele>
        <time>2019-10-18T09:48:29Z</time>
      </trkpt>
      <trkpt lat="37.0966960" lon="-2.1083240">
        <ele>350.1</ele>
        <time>2019-10-18T09:48:30Z</time>
      </trkpt>
      <trkpt lat="37.0966880" lon="-2.1083640">
        <ele>350.2</ele>
        <time>2019-10-18T09:48:31Z</time>
      </trkpt>
      <trkpt lat="37.0966800" lon="-2.1084030">
        <ele>350.3</ele>
        <time>2019-10-18T09:48:32Z</time>
      </trkpt>
      <trkpt lat="37.0966700" lon="-2.1084430">
        <ele>350.4</ele>
        <time>2019-10-18T09:48:33Z</time>
      </trkpt>
      <trkpt lat="37.0966600" lon="-2.1084820">
        <ele>350.4</ele>
        <time>2019-10-18T09:48:34Z</time>
      </trkpt>
      <trkpt lat="37.0966500" lon="-2.1085230">
        <ele>350.6</ele>
        <time>2019-10-18T09:48:35Z</time>
      </trkpt>
      <trkpt lat="37.0966390" lon="-2.1085630">
        <ele>350.7</ele>
        <time>2019-10-18T09:48:36Z</time>
      </trkpt>
      <trkpt lat="37.0966280" lon="-2.1086040">
        <ele>350.8</ele>
        <time>2019-10-18T09:48:37Z</time>
      </trkpt>
      <trkpt lat="37.0966150" lon="-2.1086430">
        <ele>351.0</ele>
        <time>2019-10-18T09:48:38Z</time>
      </trkpt>
      <trkpt lat="37.0966030" lon="-2.1086830">
        <ele>351.2</ele>
        <time>2019-10-18T09:48:39Z</time>
      </trkpt>
      <trkpt lat="37.0965900" lon="-2.1087220">
        <ele>351.5</ele>
        <time>2019-10-18T09:48:40Z</time>
      </trkpt>
      <trkpt lat="37.0965770" lon="-2.1087610">
        <ele>351.7</ele>
        <time>2019-10-18T09:48:41Z</time>
      </trkpt>
      <trkpt lat="37.0965650" lon="-2.1087990">
        <ele>351.9</ele>
        <time>2019-10-18T09:48:42Z</time>
      </trkpt>
      <trkpt lat="37.0965500" lon="-2.1088380">
        <ele>352.0</ele>
        <time>2019-10-18T09:48:43Z</time>
      </trkpt>
      <trkpt lat="37.0965340" lon="-2.1088760">
        <ele>352.2</ele>
        <time>2019-10-18T09:48:44Z</time>
      </trkpt>
      <trkpt lat="37.0965170" lon="-2.1089150">
        <ele>352.4</ele>
        <time>2019-10-18T09:48:45Z</time>
      </trkpt>
      <trkpt lat="37.0965000" lon="-2.1089540">
        <ele>352.5</ele>
        <time>2019-10-18T09:48:46Z</time>
      </trkpt>
      <trkpt lat="37.0964820" lon="-2.1089930">
        <ele>352.7</ele>
        <time>2019-10-18T09:48:47Z</time>
      </trkpt>
      <trkpt lat="37.0964630" lon="-2.1090320">
        <ele>352.9</ele>
        <time>2019-10-18T09:48:48Z</time>
      </trkpt>
      <trkpt lat="37.0964440" lon="-2.1090710">
        <ele>353.1</ele>
        <time>2019-10-18T09:48:49Z</time>
      </trkpt>
      <trkpt lat="37.0964250" lon="-2.1091130">
        <ele>353.4</ele>
        <time>2019-10-18T09:48:50Z</time>
      </trkpt>
      <trkpt lat="37.0964050" lon="-2.1091570">
        <ele>353.6</ele>
        <time>2019-10-18T09:48:51Z</time>
      </trkpt>
      <trkpt lat="37.0963860" lon="-2.1092020">
        <ele>353.8</ele>
        <time>2019-10-18T09:48:52Z</time>
      </trkpt>
      <trkpt lat="37.0963640" lon="-2.1092480">
        <ele>354.0</ele>
        <time>2019-10-18T09:48:53Z</time>
      </trkpt>
      <trkpt lat="37.0963420" lon="-2.1092970">
        <ele>354.2</ele>
        <time>2019-10-18T09:48:54Z</time>
      </trkpt>
      <trkpt lat="37.0963190" lon="-2.1093470">
        <ele>354.3</ele>
        <time>2019-10-18T09:48:55Z</time>
      </trkpt>
      <trkpt lat="37.0962930" lon="-2.1094020">
        <ele>354.3</ele>
        <time>2019-10-18T09:48:56Z</time>
      </trkpt>
      <trkpt lat="37.0962670" lon="-2.1094610">
        <ele>354.4</ele>
        <time>2019-10-18T09:48:57Z</time>
      </trkpt>
      <trkpt lat="37.0962380" lon="-2.1095230">
        <ele>354.4</ele>
        <time>2019-10-18T09:48:58Z</time>
      </trkpt>
      <trkpt lat="37.0962080" lon="-2.1095880">
        <ele>354.4</ele>
        <time>2019-10-18T09:48:59Z</time>
      </trkpt>
      <trkpt lat="37.0961770" lon="-2.1096540">
        <ele>354.4</ele>
        <time>2019-10-18T09:49:00Z</time>
      </trkpt>
      <trkpt lat="37.0961460" lon="-2.1097210">
        <ele>354.4</ele>
        <time>2019-10-18T09:49:01Z</time>
      </trkpt>
      <trkpt lat="37.0961130" lon="-2.1097890">
        <ele>354.4</ele>
        <time>2019-10-18T09:49:02Z</time>
      </trkpt>
      <trkpt lat="37.0960810" lon="-2.1098590">
        <ele>354.4</ele>
        <time>2019-10-18T09:49:03Z</time>
      </trkpt>
      <trkpt lat="37.0960490" lon="-2.1099300">
        <ele>354.5</ele>
        <time>2019-10-18T09:49:04Z</time>
      </trkpt>
      <trkpt lat="37.0960160" lon="-2.1100020">
        <ele>354.6</ele>
        <time>2019-10-18T09:49:05Z</time>
      </trkpt>
      <trkpt lat="37.0959830" lon="-2.1100740">
        <ele>354.7</ele>
        <time>2019-10-18T09:49:06Z</time>
      </trkpt>
      <trkpt lat="37.0959490" lon="-2.1101470">
        <ele>355.0</ele>
        <time>2019-10-18T09:49:07Z</time>
      </trkpt>
      <trkpt lat="37.0959160" lon="-2.1102190">
        <ele>355.3</ele>
        <time>2019-10-18T09:49:08Z</time>
      </trkpt>
      <trkpt lat="37.0958810" lon="-2.1102930">
        <ele>355.6</ele>
        <time>2019-10-18T09:49:09Z</time>
      </trkpt>
      <trkpt lat="37.0958460" lon="-2.1103680">
        <ele>355.9</ele>
        <time>2019-10-18T09:49:10Z</time>
      </trkpt>
      <trkpt lat="37.0958100" lon="-2.1104440">
        <ele>356.1</ele>
        <time>2019-10-18T09:49:11Z</time>
      </trkpt>
      <trkpt lat="37.0957750" lon="-2.1105200">
        <ele>356.3</ele>
        <time>2019-10-18T09:49:12Z</time>
      </trkpt>
      <trkpt lat="37.0957400" lon="-2.1105960">
        <ele>356.4</ele>
        <time>2019-10-18T09:49:13Z</time>
      </trkpt>
      <trkpt lat="37.0957040" lon="-2.1106740">
        <ele>356.4</ele>
        <time>2019-10-18T09:49:14Z</time>
      </trkpt>
      <trkpt lat="37.0956670" lon="-2.1107510">
        <ele>356.4</ele>
        <time>2019-10-18T09:49:15Z</time>
      </trkpt>
      <trkpt lat="37.0956310" lon="-2.1108290">
        <ele>356.5</ele>
        <time>2019-10-18T09:49:16Z</time>
      </trkpt>
      <trkpt lat="37.0955940" lon="-2.1109070">
        <ele>356.5</ele>
        <time>2019-10-18T09:49:17Z</time>
      </trkpt>
      <trkpt lat="37.0955570" lon="-2.1109830">
        <ele>356.6</ele>
        <time>2019-10-18T09:49:18Z</time>
      </trkpt>
      <trkpt lat="37.0955210" lon="-2.1110600">
        <ele>356.9</ele>
        <time>2019-10-18T09:49:19Z</time>
      </trkpt>
      <trkpt lat="37.0954850" lon="-2.1111380">
        <ele>357.2</ele>
        <time>2019-10-18T09:49:20Z</time>
      </trkpt>
      <trkpt lat="37.0954510" lon="-2.1112150">
        <ele>357.5</ele>
        <time>2019-10-18T09:49:21Z</time>
      </trkpt>
      <trkpt lat="37.0954160" lon="-2.1112920">
        <ele>357.8</ele>
        <time>2019-10-18T09:49:22Z</time>
      </trkpt>
      <trkpt lat="37.0953810" lon="-2.1113670">
        <ele>358.1</ele>
        <time>2019-10-18T09:49:23Z</time>
      </trkpt>
      <trkpt lat="37.0953460" lon="-2.1114410">
        <ele>358.2</ele>
        <time>2019-10-18T09:49:24Z</time>
      </trkpt>
      <trkpt lat="37.0953120" lon="-2.1115150">
        <ele>358.3</ele>
        <time>2019-10-18T09:49:25Z</time>
      </trkpt>
      <trkpt lat="37.0952790" lon="-2.1115870">
        <ele>358.4</ele>
        <time>2019-10-18T09:49:26Z</time>
      </trkpt>
      <trkpt lat="37.0952450" lon="-2.1116580">
        <ele>358.4</ele>
        <time>2019-10-18T09:49:27Z</time>
      </trkpt>
      <trkpt lat="37.0952120" lon="-2.1117280">
        <ele>358.5</ele>
        <time>2019-10-18T09:49:28Z</time>
      </trkpt>
      <trkpt lat="37.0951790" lon="-2.1117990">
        <ele>358.6</ele>
        <time>2019-10-18T09:49:29Z</time>
      </trkpt>
      <trkpt lat="37.0951460" lon="-2.1118690">
        <ele>358.8</ele>
        <time>2019-10-18T09:49:30Z</time>
      </trkpt>
      <trkpt lat="37.0951140" lon="-2.1119390">
        <ele>358.9</ele>
        <time>2019-10-18T09:49:31Z</time>
      </trkpt>
      <trkpt lat="37.0950820" lon="-2.1120080">
        <ele>359.0</ele>
        <time>2019-10-18T09:49:32Z</time>
      </trkpt>
      <trkpt lat="37.0950490" lon="-2.1120770">
        <ele>359.2</ele>
        <time>2019-10-18T09:49:33Z</time>
      </trkpt>
      <trkpt lat="37.0950170" lon="-2.1121470">
        <ele>359.3</ele>
        <time>2019-10-18T09:49:34Z</time>
      </trkpt>
      <trkpt lat="37.0949860" lon="-2.1122170">
        <ele>359.2</ele>
        <time>2019-10-18T09:49:35Z</time>
      </trkpt>
      <trkpt lat="37.0949570" lon="-2.1122860">
        <ele>359.1</ele>
        <time>2019-10-18T09:49:36Z</time>
      </trkpt>
      <trkpt lat="37.0949280" lon="-2.1123560">
        <ele>359.0</ele>
        <time>2019-10-18T09:49:37Z</time>
      </trkpt>
      <trkpt lat="37.0949010" lon="-2.1124240">
        <ele>358.9</ele>
        <time>2019-10-18T09:49:38Z</time>
      </trkpt>
      <trkpt lat="37.0948760" lon="-2.1124920">
        <ele>358.7</ele>
        <time>2019-10-18T09:49:39Z</time>
      </trkpt>
      <trkpt lat="37.0948520" lon="-2.1125590">
        <ele>358.6</ele>
        <time>2019-10-18T09:49:40Z</time>
      </trkpt>
      <trkpt lat="37.0948310" lon="-2.1126260">
        <ele>358.4</ele>
        <time>2019-10-18T09:49:41Z</time>
      </trkpt>
      <trkpt lat="37.0948110" lon="-2.1126910">
        <ele>358.5</ele>
        <time>2019-10-18T09:49:42Z</time>
      </trkpt>
      <trkpt lat="37.0947940" lon="-2.1127560">
        <ele>358.7</ele>
        <time>2019-10-18T09:49:43Z</time>
      </trkpt>
      <trkpt lat="37.0947800" lon="-2.1128190">
        <ele>358.5</ele>
        <time>2019-10-18T09:49:44Z</time>
      </trkpt>
      <trkpt lat="37.0947680" lon="-2.1128810">
        <ele>358.6</ele>
        <time>2019-10-18T09:49:45Z</time>
      </trkpt>
      <trkpt lat="37.0947570" lon="-2.1129420">
        <ele>358.8</ele>
        <time>2019-10-18T09:49:46Z</time>
      </trkpt>
      <trkpt lat="37.0947470" lon="-2.1130030">
        <ele>358.6</ele>
        <time>2019-10-18T09:49:47Z</time>
      </trkpt>
      <trkpt lat="37.0947380" lon="-2.1130650">
        <ele>358.3</ele>
        <time>2019-10-18T09:49:48Z</time>
      </trkpt>
      <trkpt lat="37.0947310" lon="-2.1131280">
        <ele>358.0</ele>
        <time>2019-10-18T09:49:49Z</time>
      </trkpt>
      <trkpt lat="37.0947240" lon="-2.1131900">
        <ele>358.0</ele>
        <time>2019-10-18T09:49:50Z</time>
      </trkpt>
      <trkpt lat="37.0947190" lon="-2.1132520">
        <ele>358.2</ele>
        <time>2019-10-18T09:49:51Z</time>
      </trkpt>
      <trkpt lat="37.0947160" lon="-2.1133130">
        <ele>358.2</ele>
        <time>2019-10-18T09:49:52Z</time>
      </trkpt>
      <trkpt lat="37.0947140" lon="-2.1133730">
        <ele>358.3</ele>
        <time>2019-10-18T09:49:53Z</time>
      </trkpt>
      <trkpt lat="37.0947130" lon="-2.1134340">
        <ele>358.6</ele>
        <time>2019-10-18T09:49:54Z</time>
      </trkpt>
      <trkpt lat="37.0947130" lon="-2.1134950">
        <ele>358.9</ele>
        <time>2019-10-18T09:49:55Z</time>
      </trkpt>
      <trkpt lat="37.0947160" lon="-2.1135550">
        <ele>359.1</ele>
        <time>2019-10-18T09:49:56Z</time>
      </trkpt>
      <trkpt lat="37.0947190" lon="-2.1136170">
        <ele>359.3</ele>
        <time>2019-10-18T09:49:57Z</time>
      </trkpt>
      <trkpt lat="37.0947230" lon="-2.1136790">
        <ele>359.6</ele>
        <time>2019-10-18T09:49:58Z</time>
      </trkpt>
      <trkpt lat="37.0947270" lon="-2.1137410">
        <ele>359.8</ele>
        <time>2019-10-18T09:49:59Z</time>
      </trkpt>
      <trkpt lat="37.0947320" lon="-2.1138030">
        <ele>360.0</ele>
        <time>2019-10-18T09:50:00Z</time>
      </trkpt>
      <trkpt lat="37.0947390" lon="-2.1138650">
        <ele>360.2</ele>
        <time>2019-10-18T09:50:01Z</time>
      </trkpt>
      <trkpt lat="37.0947450" lon="-2.1139260">
        <ele>360.3</ele>
        <time>2019-10-18T09:50:02Z</time>
      </trkpt>
      <trkpt lat="37.0947530" lon="-2.1139870">
        <ele>360.5</ele>
        <time>2019-10-18T09:50:03Z</time>
      </trkpt>
      <trkpt lat="37.0947620" lon="-2.1140480">
        <ele>360.7</ele>
        <time>2019-10-18T09:50:04Z</time>
      </trkpt>
      <trkpt lat="37.0947710" lon="-2.1141070">
        <ele>360.9</ele>
        <time>2019-10-18T09:50:05Z</time>
      </trkpt>
      <trkpt lat="37.0947810" lon="-2.1141660">
        <ele>361.0</ele>
        <time>2019-10-18T09:50:06Z</time>
      </trkpt>
      <trkpt lat="37.0947900" lon="-2.1142250">
        <ele>361.2</ele>
        <time>2019-10-18T09:50:07Z</time>
      </trkpt>
      <trkpt lat="37.0947990" lon="-2.1142830">
        <ele>361.3</ele>
        <time>2019-10-18T09:50:08Z</time>
      </trkpt>
      <trkpt lat="37.0948070" lon="-2.1143410">
        <ele>361.5</ele>
        <time>2019-10-18T09:50:09Z</time>
      </trkpt>
      <trkpt lat="37.0948160" lon="-2.1143970">
        <ele>361.6</ele>
        <time>2019-10-18T09:50:10Z</time>
      </trkpt>
      <trkpt lat="37.0948240" lon="-2.1144520">
        <ele>361.7</ele>
        <time>2019-10-18T09:50:11Z</time>
      </trkpt>
      <trkpt lat="37.0948320" lon="-2.1145060">
        <ele>361.9</ele>
        <time>2019-10-18T09:50:12Z</time>
      </trkpt>
      <trkpt lat="37.0948400" lon="-2.1145600">
        <ele>362.2</ele>
        <time>2019-10-18T09:50:13Z</time>
      </trkpt>
      <trkpt lat="37.0948490" lon="-2.1146140">
        <ele>362.7</ele>
        <time>2019-10-18T09:50:14Z</time>
      </trkpt>
      <trkpt lat="37.0948560" lon="-2.1146670">
        <ele>363.2</ele>
        <time>2019-10-18T09:50:15Z</time>
      </trkpt>
      <trkpt lat="37.0948640" lon="-2.1147210">
        <ele>363.8</ele>
        <time>2019-10-18T09:50:16Z</time>
      </trkpt>
      <trkpt lat="37.0948710" lon="-2.1147740">
        <ele>364.3</ele>
        <time>2019-10-18T09:50:17Z</time>
      </trkpt>
      <trkpt lat="37.0948790" lon="-2.1148270">
        <ele>364.7</ele>
        <time>2019-10-18T09:50:18Z</time>
      </trkpt>
      <trkpt lat="37.0948870" lon="-2.1148800">
        <ele>365.0</ele>
        <time>2019-10-18T09:50:19Z</time>
      </trkpt>
      <trkpt lat="37.0948960" lon="-2.1149330">
        <ele>365.2</ele>
        <time>2019-10-18T09:50:20Z</time>
      </trkpt>
      <trkpt lat="37.0949040" lon="-2.1149860">
        <ele>365.5</ele>
        <time>2019-10-18T09:50:21Z</time>
      </trkpt>
      <trkpt lat="37.0949110" lon="-2.1150390">
        <ele>365.8</ele>
        <time>2019-10-18T09:50:22Z</time>
      </trkpt>
      <trkpt lat="37.0949190" lon="-2.1150930">
        <ele>366.2</ele>
        <time>2019-10-18T09:50:23Z</time>
      </trkpt>
      <trkpt lat="37.0949270" lon="-2.1151480">
        <ele>366.5</ele>
        <time>2019-10-18T09:50:24Z</time>
      </trkpt>
      <trkpt lat="37.0949350" lon="-2.1152020">
        <ele>366.8</ele>
        <time>2019-10-18T09:50:25Z</time>
      </trkpt>
      <trkpt lat="37.0949430" lon="-2.1152570">
        <ele>367.2</ele>
        <time>2019-10-18T09:50:26Z</time>
      </trkpt>
      <trkpt lat="37.0949510" lon="-2.1153110">
        <ele>367.4</ele>
        <time>2019-10-18T09:50:27Z</time>
      </trkpt>
      <trkpt lat="37.0949590" lon="-2.1153650">
        <ele>367.7</ele>
        <time>2019-10-18T09:50:28Z</time>
      </trkpt>
      <trkpt lat="37.0949670" lon="-2.1154180">
        <ele>368.0</ele>
        <time>2019-10-18T09:50:29Z</time>
      </trkpt>
      <trkpt lat="37.0949740" lon="-2.1154710">
        <ele>368.4</ele>
        <time>2019-10-18T09:50:30Z</time>
      </trkpt>
      <trkpt lat="37.0949830" lon="-2.1155230">
        <ele>368.8</ele>
        <time>2019-10-18T09:50:31Z</time>
      </trkpt>
      <trkpt lat="37.0949910" lon="-2.1155760">
        <ele>369.2</ele>
        <time>2019-10-18T09:50:32Z</time>
      </trkpt>
      <trkpt lat="37.0950000" lon="-2.1156290">
        <ele>369.5</ele>
        <time>2019-10-18T09:50:33Z</time>
      </trkpt>
      <trkpt lat="37.0950080" lon="-2.1156810">
        <ele>369.8</ele>
        <time>2019-10-18T09:50:34Z</time>
      </trkpt>
      <trkpt lat="37.0950150" lon="-2.1157340">
        <ele>370.1</ele>
        <time>2019-10-18T09:50:35Z</time>
      </trkpt>
      <trkpt lat="37.0950230" lon="-2.1157860">
        <ele>370.5</ele>
        <time>2019-10-18T09:50:36Z</time>
      </trkpt>
      <trkpt lat="37.0950310" lon="-2.1158390">
        <ele>370.9</ele>
        <time>2019-10-18T09:50:37Z</time>
      </trkpt>
      <trkpt lat="37.0950390" lon="-2.1158920">
        <ele>371.2</ele>
        <time>2019-10-18T09:50:38Z</time>
      </trkpt>
      <trkpt lat="37.0950470" lon="-2.1159450">
        <ele>371.4</ele>
        <time>2019-10-18T09:50:39Z</time>
      </trkpt>
      <trkpt lat="37.0950550" lon="-2.1159990">
        <ele>371.7</ele>
        <time>2019-10-18T09:50:40Z</time>
      </trkpt>
      <trkpt lat="37.0950630" lon="-2.1160520">
        <ele>371.8</ele>
        <time>2019-10-18T09:50:41Z</time>
      </trkpt>
      <trkpt lat="37.0950700" lon="-2.1161060">
        <ele>372.0</ele>
        <time>2019-10-18T09:50:42Z</time>
      </trkpt>
      <trkpt lat="37.0950780" lon="-2.1161590">
        <ele>372.2</ele>
        <time>2019-10-18T09:50:43Z</time>
      </trkpt>
      <trkpt lat="37.0950860" lon="-2.1162130">
        <ele>372.4</ele>
        <time>2019-10-18T09:50:44Z</time>
      </trkpt>
      <trkpt lat="37.0950930" lon="-2.1162660">
        <ele>372.6</ele>
        <time>2019-10-18T09:50:45Z</time>
      </trkpt>
      <trkpt lat="37.0951000" lon="-2.1163200">
        <ele>372.7</ele>
        <time>2019-10-18T09:50:46Z</time>
      </trkpt>
      <trkpt lat="37.0951080" lon="-2.1163750">
        <ele>373.0</ele>
        <time>2019-10-18T09:50:47Z</time>
      </trkpt>
      <trkpt lat="37.0951150" lon="-2.1164290">
        <ele>373.2</ele>
        <time>2019-10-18T09:50:48Z</time>
      </trkpt>
      <trkpt lat="37.0951220" lon="-2.1164840">
        <ele>373.4</ele>
        <time>2019-10-18T09:50:49Z</time>
      </trkpt>
      <trkpt lat="37.0951280" lon="-2.1165400">
        <ele>373.7</ele>
        <time>2019-10-18T09:50:50Z</time>
      </trkpt>
      <trkpt lat="37.0951330" lon="-2.1165960">
        <ele>374.0</ele>
        <time>2019-10-18T09:50:51Z</time>
      </trkpt>
      <trkpt lat="37.0951390" lon="-2.1166530">
        <ele>374.3</ele>
        <time>2019-10-18T09:50:52Z</time>
      </trkpt>
      <trkpt lat="37.0951450" lon="-2.1167110">
        <ele>374.6</ele>
        <time>2019-10-18T09:50:53Z</time>
      </trkpt>
      <trkpt lat="37.0951520" lon="-2.1167690">
        <ele>375.0</ele>
        <time>2019-10-18T09:50:54Z</time>
      </trkpt>
      <trkpt lat="37.0951590" lon="-2.1168280">
        <ele>375.3</ele>
        <time>2019-10-18T09:50:55Z</time>
      </trkpt>
      <trkpt lat="37.0951650" lon="-2.1168870">
        <ele>375.8</ele>
        <time>2019-10-18T09:50:56Z</time>
      </trkpt>
      <trkpt lat="37.0951710" lon="-2.1169480">
        <ele>376.3</ele>
        <time>2019-10-18T09:50:57Z</time>
      </trkpt>
      <trkpt lat="37.0951750" lon="-2.1170080">
        <ele>376.9</ele>
        <time>2019-10-18T09:50:58Z</time>
      </trkpt>
      <trkpt lat="37.0951800" lon="-2.1170680">
        <ele>377.4</ele>
        <time>2019-10-18T09:50:59Z</time>
      </trkpt>
      <trkpt lat="37.0951840" lon="-2.1171280">
        <ele>377.9</ele>
        <time>2019-10-18T09:51:00Z</time>
      </trkpt>
      <trkpt lat="37.0951880" lon="-2.1171900">
        <ele>379.0</ele>
        <time>2019-10-18T09:51:01Z</time>
      </trkpt>
      <trkpt lat="37.0951920" lon="-2.1172530">
        <ele>378.7</ele>
        <time>2019-10-18T09:51:02Z</time>
      </trkpt>
      <trkpt lat="37.0951960" lon="-2.1173160">
        <ele>378.5</ele>
        <time>2019-10-18T09:51:03Z</time>
      </trkpt>
      <trkpt lat="37.0952000" lon="-2.1173810">
        <ele>378.1</ele>
        <time>2019-10-18T09:51:04Z</time>
      </trkpt>
      <trkpt lat="37.0952040" lon="-2.1174480">
        <ele>377.8</ele>
        <time>2019-10-18T09:51:05Z</time>
      </trkpt>
      <trkpt lat="37.0952080" lon="-2.1175150">
        <ele>377.5</ele>
        <time>2019-10-18T09:51:06Z</time>
      </trkpt>
      <trkpt lat="37.0952110" lon="-2.1175840">
        <ele>377.3</ele>
        <time>2019-10-18T09:51:07Z</time>
      </trkpt>
      <trkpt lat="37.0952130" lon="-2.1176520">
        <ele>377.2</ele>
        <time>2019-10-18T09:51:08Z</time>
      </trkpt>
      <trkpt lat="37.0952150" lon="-2.1177210">
        <ele>377.1</ele>
        <time>2019-10-18T09:51:09Z</time>
      </trkpt>
      <trkpt lat="37.0952160" lon="-2.1177920">
        <ele>377.1</ele>
        <time>2019-10-18T09:51:10Z</time>
      </trkpt>
      <trkpt lat="37.0952170" lon="-2.1178630">
        <ele>377.1</ele>
        <time>2019-10-18T09:51:11Z</time>
      </trkpt>
      <trkpt lat="37.0952180" lon="-2.1179350">
        <ele>377.1</ele>
        <time>2019-10-18T09:51:12Z</time>
      </trkpt>
      <trkpt lat="37.0952190" lon="-2.1180070">
        <ele>377.1</ele>
        <time>2019-10-18T09:51:13Z</time>
      </trkpt>
      <trkpt lat="37.0952200" lon="-2.1180790">
        <ele>377.1</ele>
        <time>2019-10-18T09:51:14Z</time>
      </trkpt>
      <trkpt lat="37.0952200" lon="-2.1181500">
        <ele>377.1</ele>
        <time>2019-10-18T09:51:15Z</time>
      </trkpt>
      <trkpt lat="37.0952190" lon="-2.1182230">
        <ele>377.1</ele>
        <time>2019-10-18T09:51:16Z</time>
      </trkpt>
      <trkpt lat="37.0952180" lon="-2.1182960">
        <ele>377.0</ele>
        <time>2019-10-18T09:51:17Z</time>
      </trkpt>
      <trkpt lat="37.0952180" lon="-2.1183710">
        <ele>376.9</ele>
        <time>2019-10-18T09:51:18Z</time>
      </trkpt>
      <trkpt lat="37.0952180" lon="-2.1184480">
        <ele>376.7</ele>
        <time>2019-10-18T09:51:19Z</time>
      </trkpt>
      <trkpt lat="37.0952170" lon="-2.1185260">
        <ele>376.5</ele>
        <time>2019-10-18T09:51:20Z</time>
      </trkpt>
      <trkpt lat="37.0952160" lon="-2.1186060">
        <ele>376.2</ele>
        <time>2019-10-18T09:51:21Z</time>
      </trkpt>
      <trkpt lat="37.0952160" lon="-2.1186880">
        <ele>376.0</ele>
        <time>2019-10-18T09:51:22Z</time>
      </trkpt>
      <trkpt lat="37.0952160" lon="-2.1187700">
        <ele>375.7</ele>
        <time>2019-10-18T09:51:23Z</time>
      </trkpt>
      <trkpt lat="37.0952150" lon="-2.1188540">
        <ele>375.5</ele>
        <time>2019-10-18T09:51:24Z</time>
      </trkpt>
      <trkpt lat="37.0952150" lon="-2.1189400">
        <ele>375.3</ele>
        <time>2019-10-18T09:51:25Z</time>
      </trkpt>
      <trkpt lat="37.0952150" lon="-2.1190260">
        <ele>375.1</ele>
        <time>2019-10-18T09:51:26Z</time>
      </trkpt>
      <trkpt lat="37.0952160" lon="-2.1191120">
        <ele>374.9</ele>
        <time>2019-10-18T09:51:27Z</time>
      </trkpt>
      <trkpt lat="37.0952190" lon="-2.1192000">
        <ele>374.6</ele>
        <time>2019-10-18T09:51:28Z</time>
      </trkpt>
      <trkpt lat="37.0952220" lon="-2.1192880">
        <ele>374.3</ele>
        <time>2019-10-18T09:51:29Z</time>
      </trkpt>
      <trkpt lat="37.0952270" lon="-2.1193770">
        <ele>373.9</ele>
        <time>2019-10-18T09:51:30Z</time>
      </trkpt>
      <trkpt lat="37.0952310" lon="-2.1194670">
        <ele>373.3</ele>
        <time>2019-10-18T09:51:31Z</time>
      </trkpt>
      <trkpt lat="37.0952370" lon="-2.1195570">
        <ele>372.6</ele>
        <time>2019-10-18T09:51:32Z</time>
      </trkpt>
      <trkpt lat="37.0952460" lon="-2.1196490">
        <ele>371.8</ele>
        <time>2019-10-18T09:51:33Z</time>
      </trkpt>
      <trkpt lat="37.0952560" lon="-2.1197410">
        <ele>371.1</ele>
        <time>2019-10-18T09:51:34Z</time>
      </trkpt>
      <trkpt lat="37.0952680" lon="-2.1198340">
        <ele>370.3</ele>
        <time>2019-10-18T09:51:35Z</time>
      </trkpt>
      <trkpt lat="37.0952810" lon="-2.1199260">
        <ele>369.5</ele>
        <time>2019-10-18T09:51:36Z</time>
      </trkpt>
      <trkpt lat="37.0952980" lon="-2.1200200">
        <ele>368.8</ele>
        <time>2019-10-18T09:51:37Z</time>
      </trkpt>
      <trkpt lat="37.0953160" lon="-2.1201120">
        <ele>368.2</ele>
        <time>2019-10-18T09:51:38Z</time>
      </trkpt>
      <trkpt lat="37.0953340" lon="-2.1202030">
        <ele>367.7</ele>
        <time>2019-10-18T09:51:39Z</time>
      </trkpt>
      <trkpt lat="37.0953500" lon="-2.1202910">
        <ele>367.0</ele>
        <time>2019-10-18T09:51:40Z</time>
      </trkpt>
      <trkpt lat="37.0953680" lon="-2.1203780">
        <ele>365.9</ele>
        <time>2019-10-18T09:51:41Z</time>
      </trkpt>
      <trkpt lat="37.0953860" lon="-2.1204630">
        <ele>364.8</ele>
        <time>2019-10-18T09:51:42Z</time>
      </trkpt>
      <trkpt lat="37.0954050" lon="-2.1205480">
        <ele>363.0</ele>
        <time>2019-10-18T09:51:43Z</time>
      </trkpt>
      <trkpt lat="37.0954240" lon="-2.1206320">
        <ele>362.5</ele>
        <time>2019-10-18T09:51:44Z</time>
      </trkpt>
      <trkpt lat="37.0954440" lon="-2.1207140">
        <ele>360.7</ele>
        <time>2019-10-18T09:51:45Z</time>
      </trkpt>
      <trkpt lat="37.0954630" lon="-2.1207930">
        <ele>360.7</ele>
        <time>2019-10-18T09:51:46Z</time>
      </trkpt>
      <trkpt lat="37.0954820" lon="-2.1208710">
        <ele>360.7</ele>
        <time>2019-10-18T09:51:47Z</time>
      </trkpt>
      <trkpt lat="37.0955020" lon="-2.1209480">
        <ele>360.8</ele>
        <time>2019-10-18T09:51:48Z</time>
      </trkpt>
      <trkpt lat="37.0955220" lon="-2.1210250">
        <ele>360.9</ele>
        <time>2019-10-18T09:51:49Z</time>
      </trkpt>
      <trkpt lat="37.0955410" lon="-2.1211000">
        <ele>361.1</ele>
        <time>2019-10-18T09:51:50Z</time>
      </trkpt>
      <trkpt lat="37.0955580" lon="-2.1211740">
        <ele>361.2</ele>
        <time>2019-10-18T09:51:51Z</time>
      </trkpt>
      <trkpt lat="37.0955750" lon="-2.1212480">
        <ele>361.3</ele>
        <time>2019-10-18T09:51:52Z</time>
      </trkpt>
      <trkpt lat="37.0955920" lon="-2.1213210">
        <ele>361.4</ele>
        <time>2019-10-18T09:51:53Z</time>
      </trkpt>
      <trkpt lat="37.0956090" lon="-2.1213950">
        <ele>361.5</ele>
        <time>2019-10-18T09:51:54Z</time>
      </trkpt>
      <trkpt lat="37.0956260" lon="-2.1214690">
        <ele>361.5</ele>
        <time>2019-10-18T09:51:55Z</time>
      </trkpt>
      <trkpt lat="37.0956430" lon="-2.1215420">
        <ele>361.6</ele>
        <time>2019-10-18T09:51:56Z</time>
      </trkpt>
      <trkpt lat="37.0956600" lon="-2.1216150">
        <ele>361.6</ele>
        <time>2019-10-18T09:51:57Z</time>
      </trkpt>
      <trkpt lat="37.0956770" lon="-2.1216880">
        <ele>361.6</ele>
        <time>2019-10-18T09:51:58Z</time>
      </trkpt>
      <trkpt lat="37.0956950" lon="-2.1217600">
        <ele>361.6</ele>
        <time>2019-10-18T09:51:59Z</time>
      </trkpt>
      <trkpt lat="37.0957140" lon="-2.1218320">
        <ele>361.6</ele>
        <time>2019-10-18T09:52:00Z</time>
      </trkpt>
      <trkpt lat="37.0957330" lon="-2.1219040">
        <ele>361.6</ele>
        <time>2019-10-18T09:52:01Z</time>
      </trkpt>
      <trkpt lat="37.0957510" lon="-2.1219760">
        <ele>361.6</ele>
        <time>2019-10-18T09:52:02Z</time>
      </trkpt>
      <trkpt lat="37.0957690" lon="-2.1220480">
        <ele>361.6</ele>
        <time>2019-10-18T09:52:03Z</time>
      </trkpt>
      <trkpt lat="37.0957870" lon="-2.1221210">
        <ele>361.6</ele>
        <time>2019-10-18T09:52:04Z</time>
      </trkpt>
      <trkpt lat="37.0958050" lon="-2.1221940">
        <ele>361.6</ele>
        <time>2019-10-18T09:52:05Z</time>
      </trkpt>
      <trkpt lat="37.0958230" lon="-2.1222670">
        <ele>361.6</ele>
        <time>2019-10-18T09:52:06Z</time>
      </trkpt>
      <trkpt lat="37.0958420" lon="-2.1223410">
        <ele>361.7</ele>
        <time>2019-10-18T09:52:07Z</time>
      </trkpt>
      <trkpt lat="37.0958600" lon="-2.1224150">
        <ele>361.8</ele>
        <time>2019-10-18T09:52:08Z</time>
      </trkpt>
      <trkpt lat="37.0958780" lon="-2.1224890">
        <ele>361.9</ele>
        <time>2019-10-18T09:52:09Z</time>
      </trkpt>
      <trkpt lat="37.0958960" lon="-2.1225620">
        <ele>362.0</ele>
        <time>2019-10-18T09:52:10Z</time>
      </trkpt>
      <trkpt lat="37.0959130" lon="-2.1226350">
        <ele>362.1</ele>
        <time>2019-10-18T09:52:11Z</time>
      </trkpt>
      <trkpt lat="37.0959300" lon="-2.1227070">
        <ele>362.3</ele>
        <time>2019-10-18T09:52:12Z</time>
      </trkpt>
      <trkpt lat="37.0959470" lon="-2.1227780">
        <ele>362.5</ele>
        <time>2019-10-18T09:52:13Z</time>
      </trkpt>
      <trkpt lat="37.0959650" lon="-2.1228480">
        <ele>362.6</ele>
        <time>2019-10-18T09:52:14Z</time>
      </trkpt>
      <trkpt lat="37.0959840" lon="-2.1229170">
        <ele>362.8</ele>
        <time>2019-10-18T09:52:15Z</time>
      </trkpt>
      <trkpt lat="37.0960020" lon="-2.1229850">
        <ele>363.0</ele>
        <time>2019-10-18T09:52:16Z</time>
      </trkpt>
      <trkpt lat="37.0960190" lon="-2.1230520">
        <ele>363.1</ele>
        <time>2019-10-18T09:52:17Z</time>
      </trkpt>
      <trkpt lat="37.0960350" lon="-2.1231190">
        <ele>363.3</ele>
        <time>2019-10-18T09:52:18Z</time>
      </trkpt>
      <trkpt lat="37.0960510" lon="-2.1231840">
        <ele>363.5</ele>
        <time>2019-10-18T09:52:19Z</time>
      </trkpt>
      <trkpt lat="37.0960660" lon="-2.1232450">
        <ele>363.8</ele>
        <time>2019-10-18T09:52:20Z</time>
      </trkpt>
      <trkpt lat="37.0960820" lon="-2.1233030">
        <ele>364.0</ele>
        <time>2019-10-18T09:52:21Z</time>
      </trkpt>
      <trkpt lat="37.0960970" lon="-2.1233600">
        <ele>364.3</ele>
        <time>2019-10-18T09:52:22Z</time>
      </trkpt>
      <trkpt lat="37.0961110" lon="-2.1234150">
        <ele>364.7</ele>
        <time>2019-10-18T09:52:23Z</time>
      </trkpt>
      <trkpt lat="37.0961240" lon="-2.1234690">
        <ele>364.9</ele>
        <time>2019-10-18T09:52:24Z</time>
      </trkpt>
      <trkpt lat="37.0961360" lon="-2.1235220">
        <ele>365.1</ele>
        <time>2019-10-18T09:52:25Z</time>
      </trkpt>
      <trkpt lat="37.0961480" lon="-2.1235740">
        <ele>365.3</ele>
        <time>2019-10-18T09:52:26Z</time>
      </trkpt>
      <trkpt lat="37.0961580" lon="-2.1236250">
        <ele>365.5</ele>
        <time>2019-10-18T09:52:27Z</time>
      </trkpt>
      <trkpt lat="37.0961690" lon="-2.1236760">
        <ele>365.7</ele>
        <time>2019-10-18T09:52:28Z</time>
      </trkpt>
      <trkpt lat="37.0961800" lon="-2.1237240">
        <ele>365.9</ele>
        <time>2019-10-18T09:52:29Z</time>
      </trkpt>
      <trkpt lat="37.0961890" lon="-2.1237730">
        <ele>366.2</ele>
        <time>2019-10-18T09:52:30Z</time>
      </trkpt>
      <trkpt lat="37.0961970" lon="-2.1238200">
        <ele>366.4</ele>
        <time>2019-10-18T09:52:31Z</time>
      </trkpt>
      <trkpt lat="37.0962030" lon="-2.1238690">
        <ele>366.6</ele>
        <time>2019-10-18T09:52:32Z</time>
      </trkpt>
      <trkpt lat="37.0962090" lon="-2.1239160">
        <ele>366.9</ele>
        <time>2019-10-18T09:52:33Z</time>
      </trkpt>
      <trkpt lat="37.0962160" lon="-2.1239640">
        <ele>367.0</ele>
        <time>2019-10-18T09:52:34Z</time>
      </trkpt>
      <trkpt lat="37.0962220" lon="-2.1240110">
        <ele>367.2</ele>
        <time>2019-10-18T09:52:35Z</time>
      </trkpt>
      <trkpt lat="37.0962260" lon="-2.1240580">
        <ele>367.3</ele>
        <time>2019-10-18T09:52:36Z</time>
      </trkpt>
      <trkpt lat="37.0962290" lon="-2.1241050">
        <ele>367.5</ele>
        <time>2019-10-18T09:52:37Z</time>
      </trkpt>
      <trkpt lat="37.0962310" lon="-2.1241530">
        <ele>367.6</ele>
        <time>2019-10-18T09:52:38Z</time>
      </trkpt>
      <trkpt lat="37.0962310" lon="-2.1242000">
        <ele>367.7</ele>
        <time>2019-10-18T09:52:39Z</time>
      </trkpt>
      <trkpt lat="37.0962300" lon="-2.1242470">
        <ele>367.9</ele>
        <time>2019-10-18T09:52:40Z</time>
      </trkpt>
      <trkpt lat="37.0962280" lon="-2.1242950">
        <ele>368.0</ele>
        <time>2019-10-18T09:52:41Z</time>
      </trkpt>
      <trkpt lat="37.0962240" lon="-2.1243420">
        <ele>368.2</ele>
        <time>2019-10-18T09:52:42Z</time>
      </trkpt>
      <trkpt lat="37.0962200" lon="-2.1243880">
        <ele>368.3</ele>
        <time>2019-10-18T09:52:43Z</time>
      </trkpt>
      <trkpt lat="37.0962150" lon="-2.1244330">
        <ele>368.4</ele>
        <time>2019-10-18T09:52:44Z</time>
      </trkpt>
      <trkpt lat="37.0962090" lon="-2.1244780">
        <ele>368.6</ele>
        <time>2019-10-18T09:52:45Z</time>
      </trkpt>
      <trkpt lat="37.0962030" lon="-2.1245230">
        <ele>368.7</ele>
        <time>2019-10-18T09:52:46Z</time>
      </trkpt>
      <trkpt lat="37.0961950" lon="-2.1245680">
        <ele>368.8</ele>
        <time>2019-10-18T09:52:47Z</time>
      </trkpt>
      <trkpt lat="37.0961870" lon="-2.1246100">
        <ele>368.9</ele>
        <time>2019-10-18T09:52:48Z</time>
      </trkpt>
      <trkpt lat="37.0961770" lon="-2.1246520">
        <ele>369.1</ele>
        <time>2019-10-18T09:52:49Z</time>
      </trkpt>
      <trkpt lat="37.0961660" lon="-2.1246930">
        <ele>369.2</ele>
        <time>2019-10-18T09:52:50Z</time>
      </trkpt>
      <trkpt lat="37.0961530" lon="-2.1247340">
        <ele>369.3</ele>
        <time>2019-10-18T09:52:51Z</time>
      </trkpt>
      <trkpt lat="37.0961390" lon="-2.1247760">
        <ele>369.4</ele>
        <time>2019-10-18T09:52:52Z</time>
      </trkpt>
      <trkpt lat="37.0961240" lon="-2.1248170">
        <ele>369.6</ele>
        <time>2019-10-18T09:52:53Z</time>
      </trkpt>
      <trkpt lat="37.0961090" lon="-2.1248580">
        <ele>369.7</ele>
        <time>2019-10-18T09:52:54Z</time>
      </trkpt>
      <trkpt lat="37.0960940" lon="-2.1248990">
        <ele>369.8</ele>
        <time>2019-10-18T09:52:55Z</time>
      </trkpt>
      <trkpt lat="37.0960780" lon="-2.1249400">
        <ele>370.0</ele>
        <time>2019-10-18T09:52:56Z</time>
      </trkpt>
      <trkpt lat="37.0960610" lon="-2.1249800">
        <ele>370.2</ele>
        <time>2019-10-18T09:52:57Z</time>
      </trkpt>
      <trkpt lat="37.0960440" lon="-2.1250190">
        <ele>370.4</ele>
        <time>2019-10-18T09:52:58Z</time>
      </trkpt>
      <trkpt lat="37.0960260" lon="-2.1250580">
        <ele>370.5</ele>
        <time>2019-10-18T09:52:59Z</time>
      </trkpt>
      <trkpt lat="37.0960090" lon="-2.1250960">
        <ele>370.7</ele>
        <time>2019-10-18T09:53:00Z</time>
      </trkpt>
      <trkpt lat="37.0959930" lon="-2.1251340">
        <ele>370.9</ele>
        <time>2019-10-18T09:53:01Z</time>
      </trkpt>
      <trkpt lat="37.0959790" lon="-2.1251720">
        <ele>371.1</ele>
        <time>2019-10-18T09:53:02Z</time>
      </trkpt>
      <trkpt lat="37.0959650" lon="-2.1252110">
        <ele>371.3</ele>
        <time>2019-10-18T09:53:03Z</time>
      </trkpt>
      <trkpt lat="37.0959510" lon="-2.1252500">
        <ele>371.5</ele>
        <time>2019-10-18T09:53:04Z</time>
      </trkpt>
      <trkpt lat="37.0959360" lon="-2.1252890">
        <ele>371.8</ele>
        <time>2019-10-18T09:53:05Z</time>
      </trkpt>
      <trkpt lat="37.0959190" lon="-2.1253270">
        <ele>372.0</ele>
        <time>2019-10-18T09:53:06Z</time>
      </trkpt>
      <trkpt lat="37.0959020" lon="-2.1253660">
        <ele>372.2</ele>
        <time>2019-10-18T09:53:07Z</time>
      </trkpt>
      <trkpt lat="37.0958850" lon="-2.1254040">
        <ele>372.4</ele>
        <time>2019-10-18T09:53:08Z</time>
      </trkpt>
      <trkpt lat="37.0958690" lon="-2.1254420">
        <ele>372.6</ele>
        <time>2019-10-18T09:53:09Z</time>
      </trkpt>
      <trkpt lat="37.0958530" lon="-2.1254810">
        <ele>372.8</ele>
        <time>2019-10-18T09:53:10Z</time>
      </trkpt>
      <trkpt lat="37.0958360" lon="-2.1255200">
        <ele>373.0</ele>
        <time>2019-10-18T09:53:11Z</time>
      </trkpt>
      <trkpt lat="37.0958190" lon="-2.1255580">
        <ele>373.2</ele>
        <time>2019-10-18T09:53:12Z</time>
      </trkpt>
      <trkpt lat="37.0958030" lon="-2.1255970">
        <ele>373.4</ele>
        <time>2019-10-18T09:53:13Z</time>
      </trkpt>
      <trkpt lat="37.0957860" lon="-2.1256350">
        <ele>373.6</ele>
        <time>2019-10-18T09:53:14Z</time>
      </trkpt>
      <trkpt lat="37.0957710" lon="-2.1256720">
        <ele>373.8</ele>
        <time>2019-10-18T09:53:15Z</time>
      </trkpt>
      <trkpt lat="37.0957550" lon="-2.1257090">
        <ele>374.0</ele>
        <time>2019-10-18T09:53:16Z</time>
      </trkpt>
      <trkpt lat="37.0957400" lon="-2.1257450">
        <ele>374.2</ele>
        <time>2019-10-18T09:53:17Z</time>
      </trkpt>
      <trkpt lat="37.0957250" lon="-2.1257810">
        <ele>374.4</ele>
        <time>2019-10-18T09:53:18Z</time>
      </trkpt>
      <trkpt lat="37.0957100" lon="-2.1258160">
        <ele>374.6</ele>
        <time>2019-10-18T09:53:19Z</time>
      </trkpt>
      <trkpt lat="37.0956960" lon="-2.1258520">
        <ele>374.7</ele>
        <time>2019-10-18T09:53:20Z</time>
      </trkpt>
      <trkpt lat="37.0956840" lon="-2.1258880">
        <ele>374.9</ele>
        <time>2019-10-18T09:53:21Z</time>
      </trkpt>
      <trkpt lat="37.0956730" lon="-2.1259250">
        <ele>375.2</ele>
        <time>2019-10-18T09:53:22Z</time>
      </trkpt>
      <trkpt lat="37.0956630" lon="-2.1259630">
        <ele>375.4</ele>
        <time>2019-10-18T09:53:23Z</time>
      </trkpt>
      <trkpt lat="37.0956530" lon="-2.1260020">
        <ele>375.6</ele>
        <time>2019-10-18T09:53:24Z</time>
      </trkpt>
      <trkpt lat="37.0956430" lon="-2.1260400">
        <ele>375.8</ele>
        <time>2019-10-18T09:53:25Z</time>
      </trkpt>
      <trkpt lat="37.0956330" lon="-2.1260780">
        <ele>376.0</ele>
        <time>2019-10-18T09:53:26Z</time>
      </trkpt>
      <trkpt lat="37.0956240" lon="-2.1261160">
        <ele>376.2</ele>
        <time>2019-10-18T09:53:27Z</time>
      </trkpt>
      <trkpt lat="37.0956140" lon="-2.1261530">
        <ele>376.3</ele>
        <time>2019-10-18T09:53:28Z</time>
      </trkpt>
      <trkpt lat="37.0956060" lon="-2.1261890">
        <ele>376.5</ele>
        <time>2019-10-18T09:53:29Z</time>
      </trkpt>
      <trkpt lat="37.0955970" lon="-2.1262250">
        <ele>376.7</ele>
        <time>2019-10-18T09:53:30Z</time>
      </trkpt>
      <trkpt lat="37.0955900" lon="-2.1262620">
        <ele>376.9</ele>
        <time>2019-10-18T09:53:31Z</time>
      </trkpt>
      <trkpt lat="37.0955820" lon="-2.1262990">
        <ele>377.1</ele>
        <time>2019-10-18T09:53:32Z</time>
      </trkpt>
      <trkpt lat="37.0955740" lon="-2.1263380">
        <ele>377.3</ele>
        <time>2019-10-18T09:53:33Z</time>
      </trkpt>
      <trkpt lat="37.0955670" lon="-2.1263770">
        <ele>377.6</ele>
        <time>2019-10-18T09:53:34Z</time>
      </trkpt>
      <trkpt lat="37.0955600" lon="-2.1264170">
        <ele>377.8</ele>
        <time>2019-10-18T09:53:35Z</time>
      </trkpt>
      <trkpt lat="37.0955540" lon="-2.1264570">
        <ele>378.0</ele>
        <time>2019-10-18T09:53:36Z</time>
      </trkpt>
      <trkpt lat="37.0955490" lon="-2.1264970">
        <ele>378.3</ele>
        <time>2019-10-18T09:53:37Z</time>
      </trkpt>
      <trkpt lat="37.0955450" lon="-2.1265370">
        <ele>378.5</ele>
        <time>2019-10-18T09:53:38Z</time>
      </trkpt>
      <trkpt lat="37.0955420" lon="-2.1265760">
        <ele>378.7</ele>
        <time>2019-10-18T09:53:39Z</time>
      </trkpt>
      <trkpt lat="37.0955390" lon="-2.1266150">
        <ele>378.9</ele>
        <time>2019-10-18T09:53:40Z</time>
      </trkpt>
      <trkpt lat="37.0955360" lon="-2.1266540">
        <ele>379.1</ele>
        <time>2019-10-18T09:53:41Z</time>
      </trkpt>
      <trkpt lat="37.0955360" lon="-2.1266930">
        <ele>379.3</ele>
        <time>2019-10-18T09:53:42Z</time>
      </trkpt>
      <trkpt lat="37.0955400" lon="-2.1267330">
        <ele>379.4</ele>
        <time>2019-10-18T09:53:43Z</time>
      </trkpt>
      <trkpt lat="37.0955450" lon="-2.1267720">
        <ele>379.6</ele>
        <time>2019-10-18T09:53:44Z</time>
      </trkpt>
      <trkpt lat="37.0955500" lon="-2.1268110">
        <ele>379.7</ele>
        <time>2019-10-18T09:53:45Z</time>
      </trkpt>
      <trkpt lat="37.0955560" lon="-2.1268500">
        <ele>379.9</ele>
        <time>2019-10-18T09:53:46Z</time>
      </trkpt>
      <trkpt lat="37.0955620" lon="-2.1268890">
        <ele>380.0</ele>
        <time>2019-10-18T09:53:47Z</time>
      </trkpt>
      <trkpt lat="37.0955710" lon="-2.1269270">
        <ele>380.2</ele>
        <time>2019-10-18T09:53:48Z</time>
      </trkpt>
      <trkpt lat="37.0955820" lon="-2.1269650">
        <ele>380.3</ele>
        <time>2019-10-18T09:53:49Z</time>
      </trkpt>
      <trkpt lat="37.0955960" lon="-2.1270020">
        <ele>380.4</ele>
        <time>2019-10-18T09:53:50Z</time>
      </trkpt>
      <trkpt lat="37.0956100" lon="-2.1270390">
        <ele>380.5</ele>
        <time>2019-10-18T09:53:51Z</time>
      </trkpt>
      <trkpt lat="37.0956260" lon="-2.1270750">
        <ele>380.7</ele>
        <time>2019-10-18T09:53:52Z</time>
      </trkpt>
      <trkpt lat="37.0956420" lon="-2.1271110">
        <ele>380.8</ele>
        <time>2019-10-18T09:53:53Z</time>
      </trkpt>
      <trkpt lat="37.0956580" lon="-2.1271460">
        <ele>380.9</ele>
        <time>2019-10-18T09:53:54Z</time>
      </trkpt>
      <trkpt lat="37.0956750" lon="-2.1271800">
        <ele>381.0</ele>
        <time>2019-10-18T09:53:55Z</time>
      </trkpt>
      <trkpt lat="37.0956940" lon="-2.1272130">
        <ele>381.1</ele>
        <time>2019-10-18T09:53:56Z</time>
      </trkpt>
      <trkpt lat="37.0957150" lon="-2.1272440">
        <ele>381.2</ele>
        <time>2019-10-18T09:53:57Z</time>
      </trkpt>
      <trkpt lat="37.0957380" lon="-2.1272730">
        <ele>381.3</ele>
        <time>2019-10-18T09:53:58Z</time>
      </trkpt>
      <trkpt lat="37.0957630" lon="-2.1273010">
        <ele>381.4</ele>
        <time>2019-10-18T09:53:59Z</time>
      </trkpt>
      <trkpt lat="37.0957880" lon="-2.1273280">
        <ele>381.6</ele>
        <time>2019-10-18T09:54:00Z</time>
      </trkpt>
      <trkpt lat="37.0958150" lon="-2.1273540">
        <ele>381.7</ele>
        <time>2019-10-18T09:54:01Z</time>
      </trkpt>
      <trkpt lat="37.0958430" lon="-2.1273790">
        <ele>381.8</ele>
        <time>2019-10-18T09:54:02Z</time>
      </trkpt>
      <trkpt lat="37.0958720" lon="-2.1274020">
        <ele>382.0</ele>
        <time>2019-10-18T09:54:03Z</time>
      </trkpt>
      <trkpt lat="37.0959020" lon="-2.1274230">
        <ele>382.2</ele>
        <time>2019-10-18T09:54:04Z</time>
      </trkpt>
      <trkpt lat="37.0959320" lon="-2.1274420">
        <ele>382.3</ele>
        <time>2019-10-18T09:54:05Z</time>
      </trkpt>
      <trkpt lat="37.0959620" lon="-2.1274600">
        <ele>382.5</ele>
        <time>2019-10-18T09:54:06Z</time>
      </trkpt>
      <trkpt lat="37.0959930" lon="-2.1274770">
        <ele>382.6</ele>
        <time>2019-10-18T09:54:07Z</time>
      </trkpt>
      <trkpt lat="37.0960240" lon="-2.1274920">
        <ele>382.8</ele>
        <time>2019-10-18T09:54:08Z</time>
      </trkpt>
      <trkpt lat="37.0960560" lon="-2.1275050">
        <ele>382.9</ele>
        <time>2019-10-18T09:54:09Z</time>
      </trkpt>
      <trkpt lat="37.0960880" lon="-2.1275170">
        <ele>383.0</ele>
        <time>2019-10-18T09:54:10Z</time>
      </trkpt>
      <trkpt lat="37.0961190" lon="-2.1275300">
        <ele>383.2</ele>
        <time>2019-10-18T09:54:11Z</time>
      </trkpt>
      <trkpt lat="37.0961500" lon="-2.1275450">
        <ele>383.3</ele>
        <time>2019-10-18T09:54:12Z</time>
      </trkpt>
      <trkpt lat="37.0961810" lon="-2.1275590">
        <ele>383.5</ele>
        <time>2019-10-18T09:54:13Z</time>
      </trkpt>
      <trkpt lat="37.0962110" lon="-2.1275720">
        <ele>383.7</ele>
        <time>2019-10-18T09:54:14Z</time>
      </trkpt>
      <trkpt lat="37.0962420" lon="-2.1275840">
        <ele>383.9</ele>
        <time>2019-10-18T09:54:15Z</time>
      </trkpt>
      <trkpt lat="37.0962740" lon="-2.1275960">
        <ele>384.1</ele>
        <time>2019-10-18T09:54:16Z</time>
      </trkpt>
      <trkpt lat="37.0963050" lon="-2.1276080">
        <ele>384.3</ele>
        <time>2019-10-18T09:54:17Z</time>
      </trkpt>
      <trkpt lat="37.0963360" lon="-2.1276200">
        <ele>384.5</ele>
        <time>2019-10-18T09:54:18Z</time>
      </trkpt>
      <trkpt lat="37.0963680" lon="-2.1276300">
        <ele>384.6</ele>
        <time>2019-10-18T09:54:19Z</time>
      </trkpt>
      <trkpt lat="37.0964000" lon="-2.1276400">
        <ele>384.8</ele>
        <time>2019-10-18T09:54:20Z</time>
      </trkpt>
      <trkpt lat="37.0964330" lon="-2.1276490">
        <ele>385.0</ele>
        <time>2019-10-18T09:54:21Z</time>
      </trkpt>
      <trkpt lat="37.0964650" lon="-2.1276560">
        <ele>385.3</ele>
        <time>2019-10-18T09:54:22Z</time>
      </trkpt>
      <trkpt lat="37.0964980" lon="-2.1276620">
        <ele>385.5</ele>
        <time>2019-10-18T09:54:23Z</time>
      </trkpt>
      <trkpt lat="37.0965310" lon="-2.1276660">
        <ele>385.8</ele>
        <time>2019-10-18T09:54:24Z</time>
      </trkpt>
      <trkpt lat="37.0965640" lon="-2.1276680">
        <ele>386.0</ele>
        <time>2019-10-18T09:54:25Z</time>
      </trkpt>
      <trkpt lat="37.0965970" lon="-2.1276700">
        <ele>386.2</ele>
        <time>2019-10-18T09:54:26Z</time>
      </trkpt>
      <trkpt lat="37.0966300" lon="-2.1276690">
        <ele>386.4</ele>
        <time>2019-10-18T09:54:27Z</time>
      </trkpt>
      <trkpt lat="37.0966620" lon="-2.1276660">
        <ele>386.6</ele>
        <time>2019-10-18T09:54:28Z</time>
      </trkpt>
      <trkpt lat="37.0966930" lon="-2.1276630">
        <ele>386.8</ele>
        <time>2019-10-18T09:54:29Z</time>
      </trkpt>
      <trkpt lat="37.0967240" lon="-2.1276590">
        <ele>387.0</ele>
        <time>2019-10-18T09:54:30Z</time>
      </trkpt>
      <trkpt lat="37.0967560" lon="-2.1276540">
        <ele>387.1</ele>
        <time>2019-10-18T09:54:31Z</time>
      </trkpt>
      <trkpt lat="37.0967880" lon="-2.1276470">
        <ele>387.3</ele>
        <time>2019-10-18T09:54:32Z</time>
      </trkpt>
      <trkpt lat="37.0968190" lon="-2.1276380">
        <ele>387.5</ele>
        <time>2019-10-18T09:54:33Z</time>
      </trkpt>
      <trkpt lat="37.0968500" lon="-2.1276290">
        <ele>387.7</ele>
        <time>2019-10-18T09:54:34Z</time>
      </trkpt>
      <trkpt lat="37.0968820" lon="-2.1276210">
        <ele>387.9</ele>
        <time>2019-10-18T09:54:35Z</time>
      </trkpt>
      <trkpt lat="37.0969130" lon="-2.1276140">
        <ele>388.1</ele>
        <time>2019-10-18T09:54:36Z</time>
      </trkpt>
      <trkpt lat="37.0969450" lon="-2.1276060">
        <ele>388.2</ele>
        <time>2019-10-18T09:54:37Z</time>
      </trkpt>
      <trkpt lat="37.0969760" lon="-2.1275990">
        <ele>388.4</ele>
        <time>2019-10-18T09:54:38Z</time>
      </trkpt>
      <trkpt lat="37.0970060" lon="-2.1275900">
        <ele>388.6</ele>
        <time>2019-10-18T09:54:39Z</time>
      </trkpt>
      <trkpt lat="37.0970360" lon="-2.1275820">
        <ele>388.7</ele>
        <time>2019-10-18T09:54:40Z</time>
      </trkpt>
      <trkpt lat="37.0970660" lon="-2.1275740">
        <ele>388.9</ele>
        <time>2019-10-18T09:54:41Z</time>
      </trkpt>
      <trkpt lat="37.0970960" lon="-2.1275660">
        <ele>389.0</ele>
        <time>2019-10-18T09:54:42Z</time>
      </trkpt>
      <trkpt lat="37.0971250" lon="-2.1275570">
        <ele>389.1</ele>
        <time>2019-10-18T09:54:43Z</time>
      </trkpt>
      <trkpt lat="37.0971540" lon="-2.1275470">
        <ele>389.3</ele>
        <time>2019-10-18T09:54:44Z</time>
      </trkpt>
      <trkpt lat="37.0971820" lon="-2.1275370">
        <ele>389.4</ele>
        <time>2019-10-18T09:54:45Z</time>
      </trkpt>
      <trkpt lat="37.0972100" lon="-2.1275270">
        <ele>389.6</ele>
        <time>2019-10-18T09:54:46Z</time>
      </trkpt>
      <trkpt lat="37.0972390" lon="-2.1275170">
        <ele>389.8</ele>
        <time>2019-10-18T09:54:47Z</time>
      </trkpt>
      <trkpt lat="37.0972690" lon="-2.1275070">
        <ele>389.9</ele>
        <time>2019-10-18T09:54:48Z</time>
      </trkpt>
      <trkpt lat="37.0972990" lon="-2.1274990">
        <ele>390.1</ele>
        <time>2019-10-18T09:54:49Z</time>
      </trkpt>
      <trkpt lat="37.0973300" lon="-2.1274930">
        <ele>390.3</ele>
        <time>2019-10-18T09:54:50Z</time>
      </trkpt>
      <trkpt lat="37.0973610" lon="-2.1274860">
        <ele>390.4</ele>
        <time>2019-10-18T09:54:51Z</time>
      </trkpt>
      <trkpt lat="37.0973920" lon="-2.1274780">
        <ele>390.6</ele>
        <time>2019-10-18T09:54:52Z</time>
      </trkpt>
      <trkpt lat="37.0974230" lon="-2.1274700">
        <ele>390.7</ele>
        <time>2019-10-18T09:54:53Z</time>
      </trkpt>
      <trkpt lat="37.0974550" lon="-2.1274630">
        <ele>390.9</ele>
        <time>2019-10-18T09:54:54Z</time>
      </trkpt>
      <trkpt lat="37.0974870" lon="-2.1274560">
        <ele>391.2</ele>
        <time>2019-10-18T09:54:55Z</time>
      </trkpt>
      <trkpt lat="37.0975190" lon="-2.1274470">
        <ele>391.4</ele>
        <time>2019-10-18T09:54:56Z</time>
      </trkpt>
      <trkpt lat="37.0975500" lon="-2.1274380">
        <ele>391.6</ele>
        <time>2019-10-18T09:54:57Z</time>
      </trkpt>
      <trkpt lat="37.0975800" lon="-2.1274280">
        <ele>391.8</ele>
        <time>2019-10-18T09:54:58Z</time>
      </trkpt>
      <trkpt lat="37.0976100" lon="-2.1274180">
        <ele>392.0</ele>
        <time>2019-10-18T09:54:59Z</time>
      </trkpt>
      <trkpt lat="37.0976400" lon="-2.1274090">
        <ele>392.2</ele>
        <time>2019-10-18T09:55:00Z</time>
      </trkpt>
      <trkpt lat="37.0976710" lon="-2.1274010">
        <ele>392.5</ele>
        <time>2019-10-18T09:55:01Z</time>
      </trkpt>
      <trkpt lat="37.0977010" lon="-2.1273940">
        <ele>392.8</ele>
        <time>2019-10-18T09:55:02Z</time>
      </trkpt>
      <trkpt lat="37.0977310" lon="-2.1273860">
        <ele>391.5</ele>
        <time>2019-10-18T09:55:03Z</time>
      </trkpt>
      <trkpt lat="37.0977610" lon="-2.1273780">
        <ele>391.4</ele>
        <time>2019-10-18T09:55:04Z</time>
      </trkpt>
      <trkpt lat="37.0977910" lon="-2.1273690">
        <ele>391.3</ele>
        <time>2019-10-18T09:55:05Z</time>
      </trkpt>
      <trkpt lat="37.0978210" lon="-2.1273590">
        <ele>391.3</ele>
        <time>2019-10-18T09:55:06Z</time>
      </trkpt>
      <trkpt lat="37.0978500" lon="-2.1273490">
        <ele>391.2</ele>
        <time>2019-10-18T09:55:07Z</time>
      </trkpt>
      <trkpt lat="37.0978780" lon="-2.1273380">
        <ele>391.1</ele>
        <time>2019-10-18T09:55:08Z</time>
      </trkpt>
      <trkpt lat="37.0979070" lon="-2.1273270">
        <ele>391.0</ele>
        <time>2019-10-18T09:55:09Z</time>
      </trkpt>
      <trkpt lat="37.0979360" lon="-2.1273170">
        <ele>390.9</ele>
        <time>2019-10-18T09:55:10Z</time>
      </trkpt>
      <trkpt lat="37.0979650" lon="-2.1273060">
        <ele>390.8</ele>
        <time>2019-10-18T09:55:11Z</time>
      </trkpt>
      <trkpt lat="37.0979960" lon="-2.1272970">
        <ele>390.7</ele>
        <time>2019-10-18T09:55:12Z</time>
      </trkpt>
      <trkpt lat="37.0980260" lon="-2.1272890">
        <ele>390.6</ele>
        <time>2019-10-18T09:55:13Z</time>
      </trkpt>
      <trkpt lat="37.0980560" lon="-2.1272810">
        <ele>390.5</ele>
        <time>2019-10-18T09:55:14Z</time>
      </trkpt>
      <trkpt lat="37.0980860" lon="-2.1272720">
        <ele>390.4</ele>
        <time>2019-10-18T09:55:15Z</time>
      </trkpt>
      <trkpt lat="37.0981150" lon="-2.1272630">
        <ele>390.3</ele>
        <time>2019-10-18T09:55:16Z</time>
      </trkpt>
      <trkpt lat="37.0981430" lon="-2.1272530">
        <ele>390.2</ele>
        <time>2019-10-18T09:55:17Z</time>
      </trkpt>
      <trkpt lat="37.0981700" lon="-2.1272440">
        <ele>390.1</ele>
        <time>2019-10-18T09:55:18Z</time>
      </trkpt>
      <trkpt lat="37.0981980" lon="-2.1272370">
        <ele>390.0</ele>
        <time>2019-10-18T09:55:19Z</time>
      </trkpt>
      <trkpt lat="37.0982260" lon="-2.1272300">
        <ele>389.9</ele>
        <time>2019-10-18T09:55:20Z</time>
      </trkpt>
      <trkpt lat="37.0982520" lon="-2.1272210">
        <ele>389.8</ele>
        <time>2019-10-18T09:55:21Z</time>
      </trkpt>
      <trkpt lat="37.0982780" lon="-2.1272110">
        <ele>389.8</ele>
        <time>2019-10-18T09:55:22Z</time>
      </trkpt>
      <trkpt lat="37.0983040" lon="-2.1272030">
        <ele>389.7</ele>
        <time>2019-10-18T09:55:23Z</time>
      </trkpt>
      <trkpt lat="37.0983320" lon="-2.1271940">
        <ele>389.6</ele>
        <time>2019-10-18T09:55:24Z</time>
      </trkpt>
      <trkpt lat="37.0983600" lon="-2.1271850">
        <ele>389.5</ele>
        <time>2019-10-18T09:55:25Z</time>
      </trkpt>
      <trkpt lat="37.0983870" lon="-2.1271750">
        <ele>389.4</ele>
        <time>2019-10-18T09:55:26Z</time>
      </trkpt>
      <trkpt lat="37.0984140" lon="-2.1271660">
        <ele>389.4</ele>
        <time>2019-10-18T09:55:27Z</time>
      </trkpt>
      <trkpt lat="37.0984400" lon="-2.1271580">
        <ele>389.3</ele>
        <time>2019-10-18T09:55:28Z</time>
      </trkpt>
      <trkpt lat="37.0984660" lon="-2.1271510">
        <ele>389.2</ele>
        <time>2019-10-18T09:55:29Z</time>
      </trkpt>
      <trkpt lat="37.0984910" lon="-2.1271440">
        <ele>389.2</ele>
        <time>2019-10-18T09:55:30Z</time>
      </trkpt>
      <trkpt lat="37.0985160" lon="-2.1271360">
        <ele>389.1</ele>
        <time>2019-10-18T09:55:31Z</time>
      </trkpt>
      <trkpt lat="37.0985400" lon="-2.1271260">
        <ele>389.1</ele>
        <time>2019-10-18T09:55:32Z</time>
      </trkpt>
      <trkpt lat="37.0985630" lon="-2.1271140">
        <ele>389.0</ele>
        <time>2019-10-18T09:55:33Z</time>
      </trkpt>
      <trkpt lat="37.0985830" lon="-2.1271000">
        <ele>389.0</ele>
        <time>2019-10-18T09:55:34Z</time>
      </trkpt>
      <trkpt lat="37.0985940" lon="-2.1270820">
        <ele>388.9</ele>
        <time>2019-10-18T09:55:35Z</time>
      </trkpt>
      <trkpt lat="37.0985950" lon="-2.1270630">
        <ele>388.9</ele>
        <time>2019-10-18T09:55:36Z</time>
      </trkpt>
      <trkpt lat="37.0985860" lon="-2.1270430">
        <ele>388.8</ele>
        <time>2019-10-18T09:55:37Z</time>
      </trkpt>
      <trkpt lat="37.0985740" lon="-2.1270300">
        <ele>388.8</ele>
        <time>2019-10-18T09:55:38Z</time>
      </trkpt>
      <trkpt lat="37.0985580" lon="-2.1270300">
        <ele>388.8</ele>
        <time>2019-10-18T09:55:39Z</time>
      </trkpt>
      <trkpt lat="37.0985410" lon="-2.1270400">
        <ele>388.7</ele>
        <time>2019-10-18T09:55:40Z</time>
      </trkpt>
      <trkpt lat="37.0985240" lon="-2.1270570">
        <ele>388.7</ele>
        <time>2019-10-18T09:55:41Z</time>
      </trkpt>
      <trkpt lat="37.0985090" lon="-2.1270750">
        <ele>388.6</ele>
        <time>2019-10-18T09:55:42Z</time>
      </trkpt>
      <trkpt lat="37.0984970" lon="-2.1270920">
        <ele>388.6</ele>
        <time>2019-10-18T09:55:43Z</time>
      </trkpt>
      <trkpt lat="37.0984900" lon="-2.1271040">
        <ele>388.6</ele>
        <time>2019-10-18T09:55:44Z</time>
      </trkpt>
      <trkpt lat="37.0984830" lon="-2.1271090">
        <ele>388.5</ele>
        <time>2019-10-18T09:55:45Z</time>
      </trkpt>
      <trkpt lat="37.0984800" lon="-2.1271100">
        <ele>388.5</ele>
        <time>2019-10-18T09:55:46Z</time>
      </trkpt>
      <trkpt lat="37.0984790" lon="-2.1271100">
        <ele>388.5</ele>
        <time>2019-10-18T09:55:47Z</time>
      </trkpt>
      <trkpt lat="37.0984780" lon="-2.1271100">
        <ele>388.5</ele>
        <time>2019-10-18T09:55:48Z</time>
      </trkpt>
      <trkpt lat="37.0984770" lon="-2.1271100">
        <ele>388.5</ele>
        <time>2019-10-18T09:55:49Z</time>
      </trkpt>
      <trkpt lat="37.0984760" lon="-2.1271100">
        <ele>388.5</ele>
        <time>2019-10-18T09:55:50Z</time>
      </trkpt>
      <trkpt lat="37.0984750" lon="-2.1271100">
        <ele>388.5</ele>
        <time>2019-10-18T09:55:51Z</time>
      </trkpt>
      <trkpt lat="37.0984750" lon="-2.1271100">
        <ele>388.5</ele>
        <time>2019-10-18T09:55:52Z</time>
      </trkpt>
      <trkpt lat="37.0984750" lon="-2.1271090">
        <ele>388.5</ele>
        <time>2019-10-18T09:55:53Z</time>
      </trkpt>
      <trkpt lat="37.0984740" lon="-2.1271080">
        <ele>388.5</ele>
        <time>2019-10-18T09:55:54Z</time>
      </trkpt>
      <trkpt lat="37.0984740" lon="-2.1271080">
        <ele>388.5</ele>
        <time>2019-10-18T09:55:55Z</time>
      </trkpt>
      <trkpt lat="37.0984740" lon="-2.1271070">
        <ele>388.5</ele>
        <time>2019-10-18T09:55:56Z</time>
      </trkpt>
      <trkpt lat="37.0984740" lon="-2.1271050">
        <ele>388.5</ele>
        <time>2019-10-18T09:55:57Z</time>
      </trkpt>
      <trkpt lat="37.0984740" lon="-2.1271040">
        <ele>388.5</ele>
        <time>2019-10-18T09:55:58Z</time>
      </trkpt>
      <trkpt lat="37.0984740" lon="-2.1271030">
        <ele>388.5</ele>
        <time>2019-10-18T09:55:59Z</time>
      </trkpt>
      <trkpt lat="37.0984740" lon="-2.1271020">
        <ele>388.5</ele>
        <time>2019-10-18T09:56:00Z</time>
      </trkpt>
      <trkpt lat="37.0984720" lon="-2.1271020">
        <ele>388.5</ele>
        <time>2019-10-18T09:56:01Z</time>
      </trkpt>
      <trkpt lat="37.0984690" lon="-2.1271000">
        <ele>388.5</ele>
        <time>2019-10-18T09:56:02Z</time>
      </trkpt>
      <trkpt lat="37.0984650" lon="-2.1270970">
        <ele>388.5</ele>
        <time>2019-10-18T09:56:03Z</time>
      </trkpt>
      <trkpt lat="37.0984620" lon="-2.1270940">
        <ele>388.5</ele>
        <time>2019-10-18T09:56:04Z</time>
      </trkpt>
      <trkpt lat="37.0984610" lon="-2.1270910">
        <ele>388.5</ele>
        <time>2019-10-18T09:56:05Z</time>
      </trkpt>
      <trkpt lat="37.0984610" lon="-2.1270900">
        <ele>388.5</ele>
        <time>2019-10-18T09:56:06Z</time>
      </trkpt>
      <trkpt lat="37.0984610" lon="-2.1270890">
        <ele>388.5</ele>
        <time>2019-10-18T09:56:07Z</time>
      </trkpt>
      <trkpt lat="37.0984620" lon="-2.1270900">
        <ele>388.5</ele>
        <time>2019-10-18T09:56:08Z</time>
      </trkpt>
      <trkpt lat="37.0984610" lon="-2.1270900">
        <ele>388.4</ele>
        <time>2019-10-18T09:56:09Z</time>
      </trkpt>
      <trkpt lat="37.0984610" lon="-2.1270910">
        <ele>388.4</ele>
        <time>2019-10-18T09:56:10Z</time>
      </trkpt>
      <trkpt lat="37.0984610" lon="-2.1270910">
        <ele>388.4</ele>
        <time>2019-10-18T09:56:11Z</time>
      </trkpt>
      <trkpt lat="37.0984600" lon="-2.1270920">
        <ele>388.4</ele>
        <time>2019-10-18T09:56:12Z</time>
      </trkpt>
      <trkpt lat="37.0984600" lon="-2.1270920">
        <ele>388.4</ele>
        <time>2019-10-18T09:56:13Z</time>
      </trkpt>
      <trkpt lat="37.0984600" lon="-2.1270910">
        <ele>388.4</ele>
        <time>2019-10-18T09:56:14Z</time>
      </trkpt>
      <trkpt lat="37.0984570" lon="-2.1270900">
        <ele>388.4</ele>
        <time>2019-10-18T09:56:15Z</time>
      </trkpt>
      <trkpt lat="37.0984530" lon="-2.1270890">
        <ele>388.4</ele>
        <time>2019-10-18T09:56:16Z</time>
      </trkpt>
      <trkpt lat="37.0984480" lon="-2.1270900">
        <ele>388.4</ele>
        <time>2019-10-18T09:56:17Z</time>
      </trkpt>
      <trkpt lat="37.0984440" lon="-2.1270940">
        <ele>388.4</ele>
        <time>2019-10-18T09:56:18Z</time>
      </trkpt>
      <trkpt lat="37.0984410" lon="-2.1271000">
        <ele>388.4</ele>
        <time>2019-10-18T09:56:19Z</time>
      </trkpt>
      <trkpt lat="37.0984400" lon="-2.1271080">
        <ele>388.4</ele>
        <time>2019-10-18T09:56:20Z</time>
      </trkpt>
      <trkpt lat="37.0984380" lon="-2.1271150">
        <ele>388.4</ele>
        <time>2019-10-18T09:56:21Z</time>
      </trkpt>
      <trkpt lat="37.0984360" lon="-2.1271190">
        <ele>388.4</ele>
        <time>2019-10-18T09:56:22Z</time>
      </trkpt>
      <trkpt lat="37.0984340" lon="-2.1271210">
        <ele>388.3</ele>
        <time>2019-10-18T09:56:23Z</time>
      </trkpt>
      <trkpt lat="37.0984300" lon="-2.1271220">
        <ele>388.3</ele>
        <time>2019-10-18T09:56:24Z</time>
      </trkpt>
      <trkpt lat="37.0984230" lon="-2.1271230">
        <ele>388.3</ele>
        <time>2019-10-18T09:56:25Z</time>
      </trkpt>
      <trkpt lat="37.0984160" lon="-2.1271250">
        <ele>388.3</ele>
        <time>2019-10-18T09:56:26Z</time>
      </trkpt>
      <trkpt lat="37.0984080" lon="-2.1271280">
        <ele>388.3</ele>
        <time>2019-10-18T09:56:27Z</time>
      </trkpt>
      <trkpt lat="37.0984020" lon="-2.1271330">
        <ele>388.3</ele>
        <time>2019-10-18T09:56:28Z</time>
      </trkpt>
      <trkpt lat="37.0983960" lon="-2.1271380">
        <ele>388.3</ele>
        <time>2019-10-18T09:56:29Z</time>
      </trkpt>
      <trkpt lat="37.0983900" lon="-2.1271410">
        <ele>388.2</ele>
        <time>2019-10-18T09:56:30Z</time>
      </trkpt>
      <trkpt lat="37.0983860" lon="-2.1271440">
        <ele>388.2</ele>
        <time>2019-10-18T09:56:31Z</time>
      </trkpt>
      <trkpt lat="37.0983830" lon="-2.1271460">
        <ele>388.2</ele>
        <time>2019-10-18T09:56:32Z</time>
      </trkpt>
      <trkpt lat="37.0983820" lon="-2.1271480">
        <ele>388.2</ele>
        <time>2019-10-18T09:56:33Z</time>
      </trkpt>
      <trkpt lat="37.0983820" lon="-2.1271500">
        <ele>388.2</ele>
        <time>2019-10-18T09:56:34Z</time>
      </trkpt>
      <trkpt lat="37.0983820" lon="-2.1271530">
        <ele>388.2</ele>
        <time>2019-10-18T09:56:35Z</time>
      </trkpt>
      <trkpt lat="37.0983830" lon="-2.1271570">
        <ele>388.2</ele>
        <time>2019-10-18T09:56:36Z</time>
      </trkpt>
      <trkpt lat="37.0983830" lon="-2.1271590">
        <ele>388.2</ele>
        <time>2019-10-18T09:56:37Z</time>
      </trkpt>
      <trkpt lat="37.0983840" lon="-2.1271620">
        <ele>388.2</ele>
        <time>2019-10-18T09:56:38Z</time>
      </trkpt>
      <trkpt lat="37.0983830" lon="-2.1271640">
        <ele>388.2</ele>
        <time>2019-10-18T09:56:39Z</time>
      </trkpt>
      <trkpt lat="37.0983820" lon="-2.1271670">
        <ele>388.2</ele>
        <time>2019-10-18T09:56:40Z</time>
      </trkpt>
      <trkpt lat="37.0983800" lon="-2.1271700">
        <ele>388.2</ele>
        <time>2019-10-18T09:56:41Z</time>
      </trkpt>
      <trkpt lat="37.0983790" lon="-2.1271720">
        <ele>388.2</ele>
        <time>2019-10-18T09:56:42Z</time>
      </trkpt>
      <trkpt lat="37.0983780" lon="-2.1271740">
        <ele>388.2</ele>
        <time>2019-10-18T09:56:43Z</time>
      </trkpt>
      <trkpt lat="37.0983770" lon="-2.1271760">
        <ele>388.2</ele>
        <time>2019-10-18T09:56:44Z</time>
      </trkpt>
      <trkpt lat="37.0983770" lon="-2.1271770">
        <ele>388.2</ele>
        <time>2019-10-18T09:56:45Z</time>
      </trkpt>
      <trkpt lat="37.0983780" lon="-2.1271780">
        <ele>388.2</ele>
        <time>2019-10-18T09:56:46Z</time>
      </trkpt>
      <trkpt lat="37.0983800" lon="-2.1271770">
        <ele>388.2</ele>
        <time>2019-10-18T09:56:47Z</time>
      </trkpt>
      <trkpt lat="37.0983830" lon="-2.1271760">
        <ele>388.2</ele>
        <time>2019-10-18T09:56:48Z</time>
      </trkpt>
      <trkpt lat="37.0983850" lon="-2.1271740">
        <ele>388.2</ele>
        <time>2019-10-18T09:56:49Z</time>
      </trkpt>
      <trkpt lat="37.0983860" lon="-2.1271730">
        <ele>388.2</ele>
        <time>2019-10-18T09:56:50Z</time>
      </trkpt>
      <trkpt lat="37.0983870" lon="-2.1271720">
        <ele>388.2</ele>
        <time>2019-10-18T09:56:51Z</time>
      </trkpt>
      <trkpt lat="37.0983870" lon="-2.1271710">
        <ele>388.2</ele>
        <time>2019-10-18T09:56:52Z</time>
      </trkpt>
      <trkpt lat="37.0983860" lon="-2.1271710">
        <ele>388.2</ele>
        <time>2019-10-18T09:56:53Z</time>
      </trkpt>
      <trkpt lat="37.0983850" lon="-2.1271700">
        <ele>388.2</ele>
        <time>2019-10-18T09:56:54Z</time>
      </trkpt>
      <trkpt lat="37.0983830" lon="-2.1271680">
        <ele>388.2</ele>
        <time>2019-10-18T09:56:55Z</time>
      </trkpt>
      <trkpt lat="37.0983820" lon="-2.1271660">
        <ele>388.2</ele>
        <time>2019-10-18T09:56:56Z</time>
      </trkpt>
      <trkpt lat="37.0983820" lon="-2.1271650">
        <ele>388.2</ele>
        <time>2019-10-18T09:56:57Z</time>
      </trkpt>
      <trkpt lat="37.0983840" lon="-2.1271640">
        <ele>388.2</ele>
        <time>2019-10-18T09:56:58Z</time>
      </trkpt>
      <trkpt lat="37.0983840" lon="-2.1271610">
        <ele>388.2</ele>
        <time>2019-10-18T09:56:59Z</time>
      </trkpt>
      <trkpt lat="37.0983840" lon="-2.1271580">
        <ele>388.2</ele>
        <time>2019-10-18T09:57:00Z</time>
      </trkpt>
      <trkpt lat="37.0983820" lon="-2.1271560">
        <ele>388.1</ele>
        <time>2019-10-18T09:57:01Z</time>
      </trkpt>
      <trkpt lat="37.0983820" lon="-2.1271560">
        <ele>388.1</ele>
        <time>2019-10-18T09:57:02Z</time>
      </trkpt>
      <trkpt lat="37.0983820" lon="-2.1271570">
        <ele>388.1</ele>
        <time>2019-10-18T09:57:03Z</time>
      </trkpt>
      <trkpt lat="37.0983840" lon="-2.1271590">
        <ele>388.1</ele>
        <time>2019-10-18T09:57:04Z</time>
      </trkpt>
      <trkpt lat="37.0983860" lon="-2.1271590">
        <ele>388.1</ele>
        <time>2019-10-18T09:57:05Z</time>
      </trkpt>
      <trkpt lat="37.0983870" lon="-2.1271600">
        <ele>388.1</ele>
        <time>2019-10-18T09:57:06Z</time>
      </trkpt>
      <trkpt lat="37.0983870" lon="-2.1271600">
        <ele>388.1</ele>
        <time>2019-10-18T09:57:07Z</time>
      </trkpt>
      <trkpt lat="37.0983860" lon="-2.1271610">
        <ele>388.1</ele>
        <time>2019-10-18T09:57:08Z</time>
      </trkpt>
      <trkpt lat="37.0983870" lon="-2.1271610">
        <ele>388.1</ele>
        <time>2019-10-18T09:57:09Z</time>
      </trkpt>
      <trkpt lat="37.0983880" lon="-2.1271620">
        <ele>388.1</ele>
        <time>2019-10-18T09:57:10Z</time>
      </trkpt>
      <trkpt lat="37.0983900" lon="-2.1271640">
        <ele>388.1</ele>
        <time>2019-10-18T09:57:11Z</time>
      </trkpt>
      <trkpt lat="37.0983910" lon="-2.1271670">
        <ele>388.1</ele>
        <time>2019-10-18T09:57:12Z</time>
      </trkpt>
      <trkpt lat="37.0983920" lon="-2.1271680">
        <ele>388.1</ele>
        <time>2019-10-18T09:57:13Z</time>
      </trkpt>
      <trkpt lat="37.0983910" lon="-2.1271690">
        <ele>388.1</ele>
        <time>2019-10-18T09:57:14Z</time>
      </trkpt>
      <trkpt lat="37.0983900" lon="-2.1271680">
        <ele>388.1</ele>
        <time>2019-10-18T09:57:15Z</time>
      </trkpt>
      <trkpt lat="37.0983900" lon="-2.1271670">
        <ele>388.1</ele>
        <time>2019-10-18T09:57:16Z</time>
      </trkpt>
      <trkpt lat="37.0983900" lon="-2.1271650">
        <ele>388.1</ele>
        <time>2019-10-18T09:57:17Z</time>
      </trkpt>
      <trkpt lat="37.0983900" lon="-2.1271630">
        <ele>388.1</ele>
        <time>2019-10-18T09:57:18Z</time>
      </trkpt>
      <trkpt lat="37.0983880" lon="-2.1271620">
        <ele>388.1</ele>
        <time>2019-10-18T09:57:19Z</time>
      </trkpt>
      <trkpt lat="37.0983860" lon="-2.1271630">
        <ele>388.1</ele>
        <time>2019-10-18T09:57:20Z</time>
      </trkpt>
      <trkpt lat="37.0983840" lon="-2.1271640">
        <ele>388.1</ele>
        <time>2019-10-18T09:57:21Z</time>
      </trkpt>
      <trkpt lat="37.0983840" lon="-2.1271650">
        <ele>388.1</ele>
        <time>2019-10-18T09:57:22Z</time>
      </trkpt>
      <trkpt lat="37.0983840" lon="-2.1271650">
        <ele>388.1</ele>
        <time>2019-10-18T09:57:23Z</time>
      </trkpt>
      <trkpt lat="37.0983840" lon="-2.1271660">
        <ele>388.1</ele>
        <time>2019-10-18T09:57:24Z</time>
      </trkpt>
      <trkpt lat="37.0983820" lon="-2.1271680">
        <ele>388.1</ele>
        <time>2019-10-18T09:57:25Z</time>
      </trkpt>
      <trkpt lat="37.0983800" lon="-2.1271710">
        <ele>388.1</ele>
        <time>2019-10-18T09:57:26Z</time>
      </trkpt>
      <trkpt lat="37.0983780" lon="-2.1271750">
        <ele>388.1</ele>
        <time>2019-10-18T09:57:27Z</time>
      </trkpt>
      <trkpt lat="37.0983760" lon="-2.1271790">
        <ele>388.1</ele>
        <time>2019-10-18T09:57:28Z</time>
      </trkpt>
      <trkpt lat="37.0983710" lon="-2.1271810">
        <ele>388.1</ele>
        <time>2019-10-18T09:57:29Z</time>
      </trkpt>
      <trkpt lat="37.0983680" lon="-2.1271830">
        <ele>388.1</ele>
        <time>2019-10-18T09:57:30Z</time>
      </trkpt>
      <trkpt lat="37.0983660" lon="-2.1271850">
        <ele>388.1</ele>
        <time>2019-10-18T09:57:31Z</time>
      </trkpt>
      <trkpt lat="37.0983680" lon="-2.1271880">
        <ele>388.1</ele>
        <time>2019-10-18T09:57:32Z</time>
      </trkpt>
      <trkpt lat="37.0983670" lon="-2.1271910">
        <ele>388.1</ele>
        <time>2019-10-18T09:57:33Z</time>
      </trkpt>
      <trkpt lat="37.0983670" lon="-2.1271940">
        <ele>388.1</ele>
        <time>2019-10-18T09:57:34Z</time>
      </trkpt>
      <trkpt lat="37.0983660" lon="-2.1271970">
        <ele>388.0</ele>
        <time>2019-10-18T09:57:35Z</time>
      </trkpt>
      <trkpt lat="37.0983660" lon="-2.1272020">
        <ele>388.0</ele>
        <time>2019-10-18T09:57:36Z</time>
      </trkpt>
      <trkpt lat="37.0983680" lon="-2.1272070">
        <ele>388.0</ele>
        <time>2019-10-18T09:57:37Z</time>
      </trkpt>
      <trkpt lat="37.0983690" lon="-2.1272090">
        <ele>388.0</ele>
        <time>2019-10-18T09:57:38Z</time>
      </trkpt>
      <trkpt lat="37.0983710" lon="-2.1272100">
        <ele>388.0</ele>
        <time>2019-10-18T09:57:39Z</time>
      </trkpt>
      <trkpt lat="37.0983730" lon="-2.1272110">
        <ele>388.0</ele>
        <time>2019-10-18T09:57:40Z</time>
      </trkpt>
      <trkpt lat="37.0983760" lon="-2.1272140">
        <ele>388.0</ele>
        <time>2019-10-18T09:57:41Z</time>
      </trkpt>
      <trkpt lat="37.0983780" lon="-2.1272180">
        <ele>388.0</ele>
        <time>2019-10-18T09:57:42Z</time>
      </trkpt>
      <trkpt lat="37.0983800" lon="-2.1272210">
        <ele>388.0</ele>
        <time>2019-10-18T09:57:43Z</time>
      </trkpt>
      <trkpt lat="37.0983810" lon="-2.1272240">
        <ele>388.0</ele>
        <time>2019-10-18T09:57:44Z</time>
      </trkpt>
      <trkpt lat="37.0983790" lon="-2.1272220">
        <ele>388.0</ele>
        <time>2019-10-18T09:57:45Z</time>
      </trkpt>
      <trkpt lat="37.0983770" lon="-2.1272200">
        <ele>388.0</ele>
        <time>2019-10-18T09:57:46Z</time>
      </trkpt>
      <trkpt lat="37.0983740" lon="-2.1272180">
        <ele>388.0</ele>
        <time>2019-10-18T09:57:47Z</time>
      </trkpt>
      <trkpt lat="37.0983750" lon="-2.1272200">
        <ele>388.0</ele>
        <time>2019-10-18T09:57:48Z</time>
      </trkpt>
      <trkpt lat="37.0983760" lon="-2.1272200">
        <ele>388.0</ele>
        <time>2019-10-18T09:57:49Z</time>
      </trkpt>
      <trkpt lat="37.0983780" lon="-2.1272210">
        <ele>388.0</ele>
        <time>2019-10-18T09:57:50Z</time>
      </trkpt>
      <trkpt lat="37.0983790" lon="-2.1272190">
        <ele>388.0</ele>
        <time>2019-10-18T09:57:51Z</time>
      </trkpt>
      <trkpt lat="37.0983770" lon="-2.1272190">
        <ele>388.0</ele>
        <time>2019-10-18T09:57:52Z</time>
      </trkpt>
      <trkpt lat="37.0983750" lon="-2.1272200">
        <ele>388.0</ele>
        <time>2019-10-18T09:57:53Z</time>
      </trkpt>
      <trkpt lat="37.0983730" lon="-2.1272200">
        <ele>388.0</ele>
        <time>2019-10-18T09:57:54Z</time>
      </trkpt>
      <trkpt lat="37.0983730" lon="-2.1272230">
        <ele>388.0</ele>
        <time>2019-10-18T09:57:55Z</time>
      </trkpt>
      <trkpt lat="37.0983730" lon="-2.1272290">
        <ele>388.0</ele>
        <time>2019-10-18T09:57:56Z</time>
      </trkpt>
      <trkpt lat="37.0983710" lon="-2.1272410">
        <ele>387.9</ele>
        <time>2019-10-18T09:57:57Z</time>
      </trkpt>
      <trkpt lat="37.0983680" lon="-2.1272500">
        <ele>387.9</ele>
        <time>2019-10-18T09:57:58Z</time>
      </trkpt>
      <trkpt lat="37.0983650" lon="-2.1272570">
        <ele>387.9</ele>
        <time>2019-10-18T09:57:59Z</time>
      </trkpt>
      <trkpt lat="37.0983670" lon="-2.1272590">
        <ele>387.9</ele>
        <time>2019-10-18T09:58:00Z</time>
      </trkpt>
      <trkpt lat="37.0983670" lon="-2.1272600">
        <ele>387.9</ele>
        <time>2019-10-18T09:58:01Z</time>
      </trkpt>
      <trkpt lat="37.0983640" lon="-2.1272590">
        <ele>387.9</ele>
        <time>2019-10-18T09:58:02Z</time>
      </trkpt>
      <trkpt lat="37.0983590" lon="-2.1272560">
        <ele>387.9</ele>
        <time>2019-10-18T09:58:03Z</time>
      </trkpt>
      <trkpt lat="37.0983560" lon="-2.1272520">
        <ele>387.9</ele>
        <time>2019-10-18T09:58:04Z</time>
      </trkpt>
      <trkpt lat="37.0983560" lon="-2.1272500">
        <ele>387.9</ele>
        <time>2019-10-18T09:58:05Z</time>
      </trkpt>
      <trkpt lat="37.0983580" lon="-2.1272470">
        <ele>387.9</ele>
        <time>2019-10-18T09:58:06Z</time>
      </trkpt>
      <trkpt lat="37.0983580" lon="-2.1272480">
        <ele>387.9</ele>
        <time>2019-10-18T09:58:07Z</time>
      </trkpt>
      <trkpt lat="37.0983550" lon="-2.1272520">
        <ele>387.9</ele>
        <time>2019-10-18T09:58:08Z</time>
      </trkpt>
      <trkpt lat="37.0983510" lon="-2.1272610">
        <ele>387.9</ele>
        <time>2019-10-18T09:58:09Z</time>
      </trkpt>
      <trkpt lat="37.0983470" lon="-2.1272700">
        <ele>387.9</ele>
        <time>2019-10-18T09:58:10Z</time>
      </trkpt>
      <trkpt lat="37.0983440" lon="-2.1272780">
        <ele>387.8</ele>
        <time>2019-10-18T09:58:11Z</time>
      </trkpt>
      <trkpt lat="37.0983430" lon="-2.1272820">
        <ele>387.8</ele>
        <time>2019-10-18T09:58:12Z</time>
      </trkpt>
      <trkpt lat="37.0983430" lon="-2.1272860">
        <ele>387.8</ele>
        <time>2019-10-18T09:58:13Z</time>
      </trkpt>
      <trkpt lat="37.0983440" lon="-2.1272910">
        <ele>387.8</ele>
        <time>2019-10-18T09:58:14Z</time>
      </trkpt>
      <trkpt lat="37.0983460" lon="-2.1272960">
        <ele>387.8</ele>
        <time>2019-10-18T09:58:15Z</time>
      </trkpt>
      <trkpt lat="37.0983490" lon="-2.1272980">
        <ele>387.8</ele>
        <time>2019-10-18T09:58:16Z</time>
      </trkpt>
      <trkpt lat="37.0983520" lon="-2.1272960">
        <ele>387.8</ele>
        <time>2019-10-18T09:58:17Z</time>
      </trkpt>
      <trkpt lat="37.0983540" lon="-2.1272920">
        <ele>387.8</ele>
        <time>2019-10-18T09:58:18Z</time>
      </trkpt>
      <trkpt lat="37.0983560" lon="-2.1272880">
        <ele>387.8</ele>
        <time>2019-10-18T09:58:19Z</time>
      </trkpt>
      <trkpt lat="37.0983560" lon="-2.1272890">
        <ele>387.8</ele>
        <time>2019-10-18T09:58:20Z</time>
      </trkpt>
      <trkpt lat="37.0983560" lon="-2.1272890">
        <ele>387.8</ele>
        <time>2019-10-18T09:58:21Z</time>
      </trkpt>
      <trkpt lat="37.0983560" lon="-2.1272890">
        <ele>387.8</ele>
        <time>2019-10-18T09:58:22Z</time>
      </trkpt>
      <trkpt lat="37.0983560" lon="-2.1272890">
        <ele>387.8</ele>
        <time>2019-10-18T09:58:23Z</time>
      </trkpt>
      <trkpt lat="37.0983550" lon="-2.1272930">
        <ele>387.8</ele>
        <time>2019-10-18T09:58:24Z</time>
      </trkpt>
      <trkpt lat="37.0983540" lon="-2.1272960">
        <ele>387.8</ele>
        <time>2019-10-18T09:58:25Z</time>
      </trkpt>
      <trkpt lat="37.0983530" lon="-2.1273000">
        <ele>387.8</ele>
        <time>2019-10-18T09:58:26Z</time>
      </trkpt>
      <trkpt lat="37.0983530" lon="-2.1273060">
        <ele>387.8</ele>
        <time>2019-10-18T09:58:27Z</time>
      </trkpt>
      <trkpt lat="37.0983530" lon="-2.1273140">
        <ele>387.8</ele>
        <time>2019-10-18T09:58:28Z</time>
      </trkpt>
      <trkpt lat="37.0983550" lon="-2.1273230">
        <ele>387.8</ele>
        <time>2019-10-18T09:58:29Z</time>
      </trkpt>
      <trkpt lat="37.0983560" lon="-2.1273300">
        <ele>387.8</ele>
        <time>2019-10-18T09:58:30Z</time>
      </trkpt>
      <trkpt lat="37.0983570" lon="-2.1273400">
        <ele>387.7</ele>
        <time>2019-10-18T09:58:31Z</time>
      </trkpt>
      <trkpt lat="37.0983580" lon="-2.1273500">
        <ele>387.7</ele>
        <time>2019-10-18T09:58:32Z</time>
      </trkpt>
      <trkpt lat="37.0983590" lon="-2.1273610">
        <ele>387.7</ele>
        <time>2019-10-18T09:58:33Z</time>
      </trkpt>
      <trkpt lat="37.0983590" lon="-2.1273690">
        <ele>387.7</ele>
        <time>2019-10-18T09:58:34Z</time>
      </trkpt>
      <trkpt lat="37.0983600" lon="-2.1273790">
        <ele>387.7</ele>
        <time>2019-10-18T09:58:35Z</time>
      </trkpt>
      <trkpt lat="37.0983590" lon="-2.1273870">
        <ele>387.7</ele>
        <time>2019-10-18T09:58:36Z</time>
      </trkpt>
      <trkpt lat="37.0983590" lon="-2.1273940">
        <ele>387.7</ele>
        <time>2019-10-18T09:58:37Z</time>
      </trkpt>
      <trkpt lat="37.0983580" lon="-2.1273990">
        <ele>387.7</ele>
        <time>2019-10-18T09:58:38Z</time>
      </trkpt>
      <trkpt lat="37.0983580" lon="-2.1274050">
        <ele>387.7</ele>
        <time>2019-10-18T09:58:39Z</time>
      </trkpt>
      <trkpt lat="37.0983580" lon="-2.1274120">
        <ele>387.7</ele>
        <time>2019-10-18T09:58:40Z</time>
      </trkpt>
      <trkpt lat="37.0983580" lon="-2.1274120">
        <ele>387.7</ele>
        <time>2019-10-18T09:58:41Z</time>
      </trkpt>
      <trkpt lat="37.0983580" lon="-2.1274120">
        <ele>387.7</ele>
        <time>2019-10-18T09:58:42Z</time>
      </trkpt>
      <trkpt lat="37.0983580" lon="-2.1274120">
        <ele>387.7</ele>
        <time>2019-10-18T09:58:43Z</time>
      </trkpt>
      <trkpt lat="37.0983580" lon="-2.1274120">
        <ele>387.7</ele>
        <time>2019-10-18T09:58:44Z</time>
      </trkpt>
      <trkpt lat="37.0983580" lon="-2.1274120">
        <ele>387.7</ele>
        <time>2019-10-18T09:58:45Z</time>
      </trkpt>
      <trkpt lat="37.0983580" lon="-2.1274120">
        <ele>387.7</ele>
        <time>2019-10-18T09:58:46Z</time>
      </trkpt>
      <trkpt lat="37.0983580" lon="-2.1274190">
        <ele>387.6</ele>
        <time>2019-10-18T09:58:47Z</time>
      </trkpt>
      <trkpt lat="37.0983570" lon="-2.1274240">
        <ele>387.6</ele>
        <time>2019-10-18T09:58:48Z</time>
      </trkpt>
      <trkpt lat="37.0983580" lon="-2.1274260">
        <ele>387.6</ele>
        <time>2019-10-18T09:58:49Z</time>
      </trkpt>
      <trkpt lat="37.0983600" lon="-2.1274270">
        <ele>387.6</ele>
        <time>2019-10-18T09:58:50Z</time>
      </trkpt>
      <trkpt lat="37.0983620" lon="-2.1274270">
        <ele>387.6</ele>
        <time>2019-10-18T09:58:51Z</time>
      </trkpt>
      <trkpt lat="37.0983630" lon="-2.1274290">
        <ele>387.6</ele>
        <time>2019-10-18T09:58:52Z</time>
      </trkpt>
      <trkpt lat="37.0983640" lon="-2.1274310">
        <ele>387.6</ele>
        <time>2019-10-18T09:58:53Z</time>
      </trkpt>
      <trkpt lat="37.0983680" lon="-2.1274340">
        <ele>387.6</ele>
        <time>2019-10-18T09:58:54Z</time>
      </trkpt>
      <trkpt lat="37.0983710" lon="-2.1274370">
        <ele>387.6</ele>
        <time>2019-10-18T09:58:55Z</time>
      </trkpt>
      <trkpt lat="37.0983770" lon="-2.1274410">
        <ele>387.6</ele>
        <time>2019-10-18T09:58:56Z</time>
      </trkpt>
      <trkpt lat="37.0983820" lon="-2.1274440">
        <ele>387.6</ele>
        <time>2019-10-18T09:58:57Z</time>
      </trkpt>
      <trkpt lat="37.0983870" lon="-2.1274460">
        <ele>387.6</ele>
        <time>2019-10-18T09:58:58Z</time>
      </trkpt>
      <trkpt lat="37.0983940" lon="-2.1274460">
        <ele>387.6</ele>
        <time>2019-10-18T09:58:59Z</time>
      </trkpt>
      <trkpt lat="37.0983940" lon="-2.1274460">
        <ele>387.6</ele>
        <time>2019-10-18T09:59:00Z</time>
      </trkpt>
      <trkpt lat="37.0983940" lon="-2.1274460">
        <ele>387.6</ele>
        <time>2019-10-18T09:59:01Z</time>
      </trkpt>
      <trkpt lat="37.0983940" lon="-2.1274460">
        <ele>387.6</ele>
        <time>2019-10-18T09:59:02Z</time>
      </trkpt>
      <trkpt lat="37.0983940" lon="-2.1274460">
        <ele>387.6</ele>
        <time>2019-10-18T09:59:03Z</time>
      </trkpt>
      <trkpt lat="37.0984120" lon="-2.1274380">
        <ele>387.5</ele>
        <time>2019-10-18T09:59:04Z</time>
      </trkpt>
      <trkpt lat="37.0984230" lon="-2.1274260">
        <ele>387.5</ele>
        <time>2019-10-18T09:59:05Z</time>
      </trkpt>
      <trkpt lat="37.0984390" lon="-2.1274120">
        <ele>387.5</ele>
        <time>2019-10-18T09:59:06Z</time>
      </trkpt>
      <trkpt lat="37.0984540" lon="-2.1274140">
        <ele>387.5</ele>
        <time>2019-10-18T09:59:07Z</time>
      </trkpt>
      <trkpt lat="37.0984760" lon="-2.1274170">
        <ele>387.5</ele>
        <time>2019-10-18T09:59:08Z</time>
      </trkpt>
      <trkpt lat="37.0984870" lon="-2.1274200">
        <ele>387.5</ele>
        <time>2019-10-18T09:59:09Z</time>
      </trkpt>
      <trkpt lat="37.0984850" lon="-2.1274150">
        <ele>387.4</ele>
        <time>2019-10-18T09:59:10Z</time>
      </trkpt>
      <trkpt lat="37.0984820" lon="-2.1274080">
        <ele>387.4</ele>
        <time>2019-10-18T09:59:11Z</time>
      </trkpt>
      <trkpt lat="37.0984810" lon="-2.1274010">
        <ele>387.4</ele>
        <time>2019-10-18T09:59:12Z</time>
      </trkpt>
      <trkpt lat="37.0984810" lon="-2.1273960">
        <ele>387.4</ele>
        <time>2019-10-18T09:59:13Z</time>
      </trkpt>
      <trkpt lat="37.0984800" lon="-2.1273920">
        <ele>387.4</ele>
        <time>2019-10-18T09:59:14Z</time>
      </trkpt>
      <trkpt lat="37.0984790" lon="-2.1273900">
        <ele>387.4</ele>
        <time>2019-10-18T09:59:15Z</time>
      </trkpt>
      <trkpt lat="37.0984770" lon="-2.1273880">
        <ele>387.4</ele>
        <time>2019-10-18T09:59:16Z</time>
      </trkpt>
      <trkpt lat="37.0984760" lon="-2.1273850">
        <ele>387.4</ele>
        <time>2019-10-18T09:59:17Z</time>
      </trkpt>
      <trkpt lat="37.0984760" lon="-2.1273840">
        <ele>387.4</ele>
        <time>2019-10-18T09:59:18Z</time>
      </trkpt>
      <trkpt lat="37.0984740" lon="-2.1273840">
        <ele>387.4</ele>
        <time>2019-10-18T09:59:19Z</time>
      </trkpt>
      <trkpt lat="37.0984690" lon="-2.1273850">
        <ele>387.4</ele>
        <time>2019-10-18T09:59:20Z</time>
      </trkpt>
      <trkpt lat="37.0984640" lon="-2.1273870">
        <ele>387.4</ele>
        <time>2019-10-18T09:59:21Z</time>
      </trkpt>
      <trkpt lat="37.0984630" lon="-2.1273840">
        <ele>387.4</ele>
        <time>2019-10-18T09:59:22Z</time>
      </trkpt>
      <trkpt lat="37.0984630" lon="-2.1273830">
        <ele>387.4</ele>
        <time>2019-10-18T09:59:23Z</time>
      </trkpt>
      <trkpt lat="37.0984580" lon="-2.1273780">
        <ele>387.4</ele>
        <time>2019-10-18T09:59:24Z</time>
      </trkpt>
      <trkpt lat="37.0984520" lon="-2.1273750">
        <ele>387.4</ele>
        <time>2019-10-18T09:59:25Z</time>
      </trkpt>
      <trkpt lat="37.0984510" lon="-2.1273660">
        <ele>387.4</ele>
        <time>2019-10-18T09:59:26Z</time>
      </trkpt>
      <trkpt lat="37.0984580" lon="-2.1273570">
        <ele>387.4</ele>
        <time>2019-10-18T09:59:27Z</time>
      </trkpt>
      <trkpt lat="37.0984650" lon="-2.1273430">
        <ele>387.4</ele>
        <time>2019-10-18T09:59:28Z</time>
      </trkpt>
      <trkpt lat="37.0984680" lon="-2.1273310">
        <ele>387.3</ele>
        <time>2019-10-18T09:59:29Z</time>
      </trkpt>
      <trkpt lat="37.0984720" lon="-2.1273100">
        <ele>387.3</ele>
        <time>2019-10-18T09:59:30Z</time>
      </trkpt>
      <trkpt lat="37.0984770" lon="-2.1272890">
        <ele>387.3</ele>
        <time>2019-10-18T09:59:31Z</time>
      </trkpt>
      <trkpt lat="37.0984820" lon="-2.1272660">
        <ele>387.3</ele>
        <time>2019-10-18T09:59:32Z</time>
      </trkpt>
      <trkpt lat="37.0984840" lon="-2.1272530">
        <ele>387.3</ele>
        <time>2019-10-18T09:59:33Z</time>
      </trkpt>
      <trkpt lat="37.0984810" lon="-2.1272460">
        <ele>387.3</ele>
        <time>2019-10-18T09:59:34Z</time>
      </trkpt>
      <trkpt lat="37.0984790" lon="-2.1272430">
        <ele>387.3</ele>
        <time>2019-10-18T09:59:35Z</time>
      </trkpt>
      <trkpt lat="37.0984770" lon="-2.1272400">
        <ele>387.3</ele>
        <time>2019-10-18T09:59:36Z</time>
      </trkpt>
      <trkpt lat="37.0984760" lon="-2.1272370">
        <ele>387.2</ele>
        <time>2019-10-18T09:59:37Z</time>
      </trkpt>
      <trkpt lat="37.0984750" lon="-2.1272360">
        <ele>387.2</ele>
        <time>2019-10-18T09:59:38Z</time>
      </trkpt>
      <trkpt lat="37.0984720" lon="-2.1272360">
        <ele>387.2</ele>
        <time>2019-10-18T09:59:39Z</time>
      </trkpt>
      <trkpt lat="37.0984690" lon="-2.1272360">
        <ele>387.2</ele>
        <time>2019-10-18T09:59:40Z</time>
      </trkpt>
      <trkpt lat="37.0984660" lon="-2.1272360">
        <ele>387.2</ele>
        <time>2019-10-18T09:59:41Z</time>
      </trkpt>
      <trkpt lat="37.0984650" lon="-2.1272360">
        <ele>387.2</ele>
        <time>2019-10-18T09:59:42Z</time>
      </trkpt>
      <trkpt lat="37.0984650" lon="-2.1272360">
        <ele>387.2</ele>
        <time>2019-10-18T09:59:43Z</time>
      </trkpt>
      <trkpt lat="37.0984640" lon="-2.1272350">
        <ele>387.2</ele>
        <time>2019-10-18T09:59:44Z</time>
      </trkpt>
      <trkpt lat="37.0984640" lon="-2.1272340">
        <ele>387.2</ele>
        <time>2019-10-18T09:59:45Z</time>
      </trkpt>
      <trkpt lat="37.0984640" lon="-2.1272330">
        <ele>387.2</ele>
        <time>2019-10-18T09:59:46Z</time>
      </trkpt>
      <trkpt lat="37.0984640" lon="-2.1272320">
        <ele>387.2</ele>
        <time>2019-10-18T09:59:47Z</time>
      </trkpt>
      <trkpt lat="37.0984640" lon="-2.1272310">
        <ele>387.2</ele>
        <time>2019-10-18T09:59:48Z</time>
      </trkpt>
      <trkpt lat="37.0984640" lon="-2.1272290">
        <ele>387.2</ele>
        <time>2019-10-18T09:59:49Z</time>
      </trkpt>
      <trkpt lat="37.0984640" lon="-2.1272290">
        <ele>387.2</ele>
        <time>2019-10-18T09:59:50Z</time>
      </trkpt>
      <trkpt lat="37.0984650" lon="-2.1272280">
        <ele>387.2</ele>
        <time>2019-10-18T09:59:51Z</time>
      </trkpt>
      <trkpt lat="37.0984660" lon="-2.1272280">
        <ele>387.2</ele>
        <time>2019-10-18T09:59:52Z</time>
      </trkpt>
      <trkpt lat="37.0984670" lon="-2.1272280">
        <ele>387.2</ele>
        <time>2019-10-18T09:59:53Z</time>
      </trkpt>
      <trkpt lat="37.0984680" lon="-2.1272280">
        <ele>387.2</ele>
        <time>2019-10-18T09:59:54Z</time>
      </trkpt>
      <trkpt lat="37.0984680" lon="-2.1272280">
        <ele>387.2</ele>
        <time>2019-10-18T09:59:55Z</time>
      </trkpt>
      <trkpt lat="37.0984690" lon="-2.1272280">
        <ele>387.2</ele>
        <time>2019-10-18T09:59:56Z</time>
      </trkpt>
      <trkpt lat="37.0984690" lon="-2.1272280">
        <ele>387.2</ele>
        <time>2019-10-18T09:59:57Z</time>
      </trkpt>
      <trkpt lat="37.0984680" lon="-2.1272280">
        <ele>387.2</ele>
        <time>2019-10-18T09:59:58Z</time>
      </trkpt>
      <trkpt lat="37.0984680" lon="-2.1272290">
        <ele>387.2</ele>
        <time>2019-10-18T09:59:59Z</time>
      </trkpt>
      <trkpt lat="37.0984660" lon="-2.1272290">
        <ele>387.2</ele>
        <time>2019-10-18T10:00:00Z</time>
      </trkpt>
      <trkpt lat="37.0984650" lon="-2.1272300">
        <ele>387.2</ele>
        <time>2019-10-18T10:00:01Z</time>
      </trkpt>
      <trkpt lat="37.0984640" lon="-2.1272310">
        <ele>387.2</ele>
        <time>2019-10-18T10:00:02Z</time>
      </trkpt>
      <trkpt lat="37.0984640" lon="-2.1272320">
        <ele>387.2</ele>
        <time>2019-10-18T10:00:03Z</time>
      </trkpt>
      <trkpt lat="37.0984630" lon="-2.1272340">
        <ele>387.2</ele>
        <time>2019-10-18T10:00:04Z</time>
      </trkpt>
      <trkpt lat="37.0984620" lon="-2.1272350">
        <ele>387.2</ele>
        <time>2019-10-18T10:00:05Z</time>
      </trkpt>
      <trkpt lat="37.0984610" lon="-2.1272360">
        <ele>387.2</ele>
        <time>2019-10-18T10:00:06Z</time>
      </trkpt>
      <trkpt lat="37.0984600" lon="-2.1272370">
        <ele>387.2</ele>
        <time>2019-10-18T10:00:07Z</time>
      </trkpt>
      <trkpt lat="37.0984580" lon="-2.1272380">
        <ele>387.2</ele>
        <time>2019-10-18T10:00:08Z</time>
      </trkpt>
      <trkpt lat="37.0984570" lon="-2.1272400">
        <ele>387.2</ele>
        <time>2019-10-18T10:00:09Z</time>
      </trkpt>
      <trkpt lat="37.0984550" lon="-2.1272410">
        <ele>387.2</ele>
        <time>2019-10-18T10:00:10Z</time>
      </trkpt>
      <trkpt lat="37.0984540" lon="-2.1272420">
        <ele>387.2</ele>
        <time>2019-10-18T10:00:11Z</time>
      </trkpt>
      <trkpt lat="37.0984530" lon="-2.1272440">
        <ele>387.2</ele>
        <time>2019-10-18T10:00:12Z</time>
      </trkpt>
      <trkpt lat="37.0984520" lon="-2.1272450">
        <ele>387.2</ele>
        <time>2019-10-18T10:00:13Z</time>
      </trkpt>
      <trkpt lat="37.0984510" lon="-2.1272450">
        <ele>387.2</ele>
        <time>2019-10-18T10:00:14Z</time>
      </trkpt>
      <trkpt lat="37.0984500" lon="-2.1272460">
        <ele>387.2</ele>
        <time>2019-10-18T10:00:15Z</time>
      </trkpt>
      <trkpt lat="37.0984490" lon="-2.1272460">
        <ele>387.2</ele>
        <time>2019-10-18T10:00:16Z</time>
      </trkpt>
      <trkpt lat="37.0984480" lon="-2.1272460">
        <ele>387.2</ele>
        <time>2019-10-18T10:00:17Z</time>
      </trkpt>
      <trkpt lat="37.0984470" lon="-2.1272460">
        <ele>387.2</ele>
        <time>2019-10-18T10:00:18Z</time>
      </trkpt>
      <trkpt lat="37.0984460" lon="-2.1272460">
        <ele>387.2</ele>
        <time>2019-10-18T10:00:19Z</time>
      </trkpt>
      <trkpt lat="37.0984460" lon="-2.1272460">
        <ele>387.2</ele>
        <time>2019-10-18T10:00:20Z</time>
      </trkpt>
      <trkpt lat="37.0984460" lon="-2.1272470">
        <ele>387.2</ele>
        <time>2019-10-18T10:00:21Z</time>
      </trkpt>
      <trkpt lat="37.0984460" lon="-2.1272470">
        <ele>387.2</ele>
        <time>2019-10-18T10:00:22Z</time>
      </trkpt>
      <trkpt lat="37.0984460" lon="-2.1272460">
        <ele>387.2</ele>
        <time>2019-10-18T10:00:23Z</time>
      </trkpt>
      <trkpt lat="37.0984460" lon="-2.1272460">
        <ele>387.2</ele>
        <time>2019-10-18T10:00:24Z</time>
      </trkpt>
      <trkpt lat="37.0984460" lon="-2.1272450">
        <ele>387.2</ele>
        <time>2019-10-18T10:00:25Z</time>
      </trkpt>
      <trkpt lat="37.0984470" lon="-2.1272430">
        <ele>387.2</ele>
        <time>2019-10-18T10:00:26Z</time>
      </trkpt>
      <trkpt lat="37.0984480" lon="-2.1272390">
        <ele>387.2</ele>
        <time>2019-10-18T10:00:27Z</time>
      </trkpt>
      <trkpt lat="37.0984480" lon="-2.1272350">
        <ele>387.2</ele>
        <time>2019-10-18T10:00:28Z</time>
      </trkpt>
      <trkpt lat="37.0984480" lon="-2.1272320">
        <ele>387.2</ele>
        <time>2019-10-18T10:00:29Z</time>
      </trkpt>
      <trkpt lat="37.0984480" lon="-2.1272290">
        <ele>387.2</ele>
        <time>2019-10-18T10:00:30Z</time>
      </trkpt>
      <trkpt lat="37.0984470" lon="-2.1272270">
        <ele>387.2</ele>
        <time>2019-10-18T10:00:31Z</time>
      </trkpt>
      <trkpt lat="37.0984450" lon="-2.1272250">
        <ele>387.2</ele>
        <time>2019-10-18T10:00:32Z</time>
      </trkpt>
      <trkpt lat="37.0984440" lon="-2.1272250">
        <ele>387.2</ele>
        <time>2019-10-18T10:00:33Z</time>
      </trkpt>
      <trkpt lat="37.0984430" lon="-2.1272240">
        <ele>387.2</ele>
        <time>2019-10-18T10:00:34Z</time>
      </trkpt>
      <trkpt lat="37.0984430" lon="-2.1272240">
        <ele>387.2</ele>
        <time>2019-10-18T10:00:35Z</time>
      </trkpt>
      <trkpt lat="37.0984440" lon="-2.1272240">
        <ele>387.2</ele>
        <time>2019-10-18T10:00:36Z</time>
      </trkpt>
      <trkpt lat="37.0984440" lon="-2.1272240">
        <ele>387.2</ele>
        <time>2019-10-18T10:00:37Z</time>
      </trkpt>
      <trkpt lat="37.0984450" lon="-2.1272250">
        <ele>387.2</ele>
        <time>2019-10-18T10:00:38Z</time>
      </trkpt>
      <trkpt lat="37.0984460" lon="-2.1272270">
        <ele>387.2</ele>
        <time>2019-10-18T10:00:39Z</time>
      </trkpt>
      <trkpt lat="37.0984470" lon="-2.1272290">
        <ele>387.2</ele>
        <time>2019-10-18T10:00:40Z</time>
      </trkpt>
      <trkpt lat="37.0984480" lon="-2.1272310">
        <ele>387.2</ele>
        <time>2019-10-18T10:00:41Z</time>
      </trkpt>
      <trkpt lat="37.0984500" lon="-2.1272330">
        <ele>387.2</ele>
        <time>2019-10-18T10:00:42Z</time>
      </trkpt>
      <trkpt lat="37.0984510" lon="-2.1272340">
        <ele>387.2</ele>
        <time>2019-10-18T10:00:43Z</time>
      </trkpt>
      <trkpt lat="37.0984520" lon="-2.1272350">
        <ele>387.2</ele>
        <time>2019-10-18T10:00:44Z</time>
      </trkpt>
      <trkpt lat="37.0984520" lon="-2.1272370">
        <ele>387.1</ele>
        <time>2019-10-18T10:00:45Z</time>
      </trkpt>
      <trkpt lat="37.0984530" lon="-2.1272380">
        <ele>387.1</ele>
        <time>2019-10-18T10:00:46Z</time>
      </trkpt>
      <trkpt lat="37.0984540" lon="-2.1272400">
        <ele>387.1</ele>
        <time>2019-10-18T10:00:47Z</time>
      </trkpt>
      <trkpt lat="37.0984540" lon="-2.1272430">
        <ele>387.1</ele>
        <time>2019-10-18T10:00:48Z</time>
      </trkpt>
      <trkpt lat="37.0984550" lon="-2.1272450">
        <ele>387.1</ele>
        <time>2019-10-18T10:00:49Z</time>
      </trkpt>
      <trkpt lat="37.0984560" lon="-2.1272470">
        <ele>387.1</ele>
        <time>2019-10-18T10:00:50Z</time>
      </trkpt>
      <trkpt lat="37.0984560" lon="-2.1272490">
        <ele>387.1</ele>
        <time>2019-10-18T10:00:51Z</time>
      </trkpt>
      <trkpt lat="37.0984540" lon="-2.1272510">
        <ele>387.1</ele>
        <time>2019-10-18T10:00:52Z</time>
      </trkpt>
      <trkpt lat="37.0984530" lon="-2.1272530">
        <ele>387.1</ele>
        <time>2019-10-18T10:00:53Z</time>
      </trkpt>
      <trkpt lat="37.0984520" lon="-2.1272550">
        <ele>387.1</ele>
        <time>2019-10-18T10:00:54Z</time>
      </trkpt>
      <trkpt lat="37.0984500" lon="-2.1272560">
        <ele>387.1</ele>
        <time>2019-10-18T10:00:55Z</time>
      </trkpt>
      <trkpt lat="37.0984460" lon="-2.1272580">
        <ele>387.1</ele>
        <time>2019-10-18T10:00:56Z</time>
      </trkpt>
      <trkpt lat="37.0984390" lon="-2.1272590">
        <ele>387.1</ele>
        <time>2019-10-18T10:00:57Z</time>
      </trkpt>
      <trkpt lat="37.0984320" lon="-2.1272590">
        <ele>387.1</ele>
        <time>2019-10-18T10:00:58Z</time>
      </trkpt>
      <trkpt lat="37.0984250" lon="-2.1272550">
        <ele>387.1</ele>
        <time>2019-10-18T10:00:59Z</time>
      </trkpt>
      <trkpt lat="37.0984180" lon="-2.1272490">
        <ele>387.1</ele>
        <time>2019-10-18T10:01:00Z</time>
      </trkpt>
      <trkpt lat="37.0984130" lon="-2.1272440">
        <ele>387.1</ele>
        <time>2019-10-18T10:01:01Z</time>
      </trkpt>
      <trkpt lat="37.0984100" lon="-2.1272410">
        <ele>387.1</ele>
        <time>2019-10-18T10:01:02Z</time>
      </trkpt>
      <trkpt lat="37.0984100" lon="-2.1272380">
        <ele>387.1</ele>
        <time>2019-10-18T10:01:03Z</time>
      </trkpt>
      <trkpt lat="37.0984100" lon="-2.1272350">
        <ele>387.1</ele>
        <time>2019-10-18T10:01:04Z</time>
      </trkpt>
      <trkpt lat="37.0984100" lon="-2.1272320">
        <ele>387.1</ele>
        <time>2019-10-18T10:01:05Z</time>
      </trkpt>
      <trkpt lat="37.0984090" lon="-2.1272300">
        <ele>387.1</ele>
        <time>2019-10-18T10:01:06Z</time>
      </trkpt>
      <trkpt lat="37.0984080" lon="-2.1272270">
        <ele>387.1</ele>
        <time>2019-10-18T10:01:07Z</time>
      </trkpt>
      <trkpt lat="37.0984070" lon="-2.1272250">
        <ele>387.1</ele>
        <time>2019-10-18T10:01:08Z</time>
      </trkpt>
      <trkpt lat="37.0984060" lon="-2.1272230">
        <ele>387.1</ele>
        <time>2019-10-18T10:01:09Z</time>
      </trkpt>
      <trkpt lat="37.0984050" lon="-2.1272210">
        <ele>387.1</ele>
        <time>2019-10-18T10:01:10Z</time>
      </trkpt>
      <trkpt lat="37.0984040" lon="-2.1272190">
        <ele>387.1</ele>
        <time>2019-10-18T10:01:11Z</time>
      </trkpt>
      <trkpt lat="37.0984040" lon="-2.1272160">
        <ele>387.0</ele>
        <time>2019-10-18T10:01:12Z</time>
      </trkpt>
      <trkpt lat="37.0984030" lon="-2.1272140">
        <ele>387.0</ele>
        <time>2019-10-18T10:01:13Z</time>
      </trkpt>
      <trkpt lat="37.0984030" lon="-2.1272120">
        <ele>387.0</ele>
        <time>2019-10-18T10:01:14Z</time>
      </trkpt>
      <trkpt lat="37.0984020" lon="-2.1272100">
        <ele>387.0</ele>
        <time>2019-10-18T10:01:15Z</time>
      </trkpt>
      <trkpt lat="37.0984000" lon="-2.1272070">
        <ele>387.0</ele>
        <time>2019-10-18T10:01:16Z</time>
      </trkpt>
      <trkpt lat="37.0983980" lon="-2.1272040">
        <ele>387.0</ele>
        <time>2019-10-18T10:01:17Z</time>
      </trkpt>
      <trkpt lat="37.0983970" lon="-2.1272030">
        <ele>387.0</ele>
        <time>2019-10-18T10:01:18Z</time>
      </trkpt>
      <trkpt lat="37.0983980" lon="-2.1272020">
        <ele>387.0</ele>
        <time>2019-10-18T10:01:19Z</time>
      </trkpt>
      <trkpt lat="37.0983990" lon="-2.1272030">
        <ele>387.0</ele>
        <time>2019-10-18T10:01:20Z</time>
      </trkpt>
      <trkpt lat="37.0984000" lon="-2.1272030">
        <ele>387.0</ele>
        <time>2019-10-18T10:01:21Z</time>
      </trkpt>
      <trkpt lat="37.0984010" lon="-2.1272000">
        <ele>387.0</ele>
        <time>2019-10-18T10:01:22Z</time>
      </trkpt>
      <trkpt lat="37.0984010" lon="-2.1271940">
        <ele>387.0</ele>
        <time>2019-10-18T10:01:23Z</time>
      </trkpt>
      <trkpt lat="37.0984030" lon="-2.1271890">
        <ele>387.0</ele>
        <time>2019-10-18T10:01:24Z</time>
      </trkpt>
      <trkpt lat="37.0984070" lon="-2.1271850">
        <ele>387.0</ele>
        <time>2019-10-18T10:01:25Z</time>
      </trkpt>
      <trkpt lat="37.0985700" lon="-2.1270950">
        <ele>386.8</ele>
        <time>2019-10-18T10:16:41Z</time>
      </trkpt>
      <trkpt lat="37.0985860" lon="-2.1270890">
        <ele>386.7</ele>
        <time>2019-10-18T10:16:42Z</time>
      </trkpt>
      <trkpt lat="37.0986020" lon="-2.1270840">
        <ele>386.7</ele>
        <time>2019-10-18T10:16:43Z</time>
      </trkpt>
      <trkpt lat="37.0986210" lon="-2.1270790">
        <ele>386.7</ele>
        <time>2019-10-18T10:16:44Z</time>
      </trkpt>
      <trkpt lat="37.0986400" lon="-2.1270750">
        <ele>386.7</ele>
        <time>2019-10-18T10:16:45Z</time>
      </trkpt>
      <trkpt lat="37.0986610" lon="-2.1270710">
        <ele>386.7</ele>
        <time>2019-10-18T10:16:46Z</time>
      </trkpt>
      <trkpt lat="37.0986820" lon="-2.1270670">
        <ele>386.7</ele>
        <time>2019-10-18T10:16:47Z</time>
      </trkpt>
      <trkpt lat="37.0987020" lon="-2.1270630">
        <ele>386.8</ele>
        <time>2019-10-18T10:16:48Z</time>
      </trkpt>
      <trkpt lat="37.0987200" lon="-2.1270640">
        <ele>386.8</ele>
        <time>2019-10-18T10:16:49Z</time>
      </trkpt>
      <trkpt lat="37.0987390" lon="-2.1270680">
        <ele>386.8</ele>
        <time>2019-10-18T10:16:50Z</time>
      </trkpt>
      <trkpt lat="37.0987570" lon="-2.1270740">
        <ele>386.8</ele>
        <time>2019-10-18T10:16:51Z</time>
      </trkpt>
      <trkpt lat="37.0987760" lon="-2.1270770">
        <ele>386.8</ele>
        <time>2019-10-18T10:16:52Z</time>
      </trkpt>
      <trkpt lat="37.0987950" lon="-2.1270780">
        <ele>386.8</ele>
        <time>2019-10-18T10:16:53Z</time>
      </trkpt>
      <trkpt lat="37.0988140" lon="-2.1270780">
        <ele>386.8</ele>
        <time>2019-10-18T10:16:54Z</time>
      </trkpt>
      <trkpt lat="37.0988340" lon="-2.1270790">
        <ele>386.8</ele>
        <time>2019-10-18T10:16:55Z</time>
      </trkpt>
      <trkpt lat="37.0988530" lon="-2.1270810">
        <ele>386.8</ele>
        <time>2019-10-18T10:16:56Z</time>
      </trkpt>
      <trkpt lat="37.0988730" lon="-2.1270810">
        <ele>386.8</ele>
        <time>2019-10-18T10:16:57Z</time>
      </trkpt>
      <trkpt lat="37.0988930" lon="-2.1270800">
        <ele>386.8</ele>
        <time>2019-10-18T10:16:58Z</time>
      </trkpt>
      <trkpt lat="37.0989130" lon="-2.1270770">
        <ele>387.0</ele>
        <time>2019-10-18T10:16:59Z</time>
      </trkpt>
      <trkpt lat="37.0989340" lon="-2.1270750">
        <ele>387.0</ele>
        <time>2019-10-18T10:17:00Z</time>
      </trkpt>
      <trkpt lat="37.0989540" lon="-2.1270740">
        <ele>387.1</ele>
        <time>2019-10-18T10:17:01Z</time>
      </trkpt>
      <trkpt lat="37.0989750" lon="-2.1270740">
        <ele>387.2</ele>
        <time>2019-10-18T10:17:02Z</time>
      </trkpt>
      <trkpt lat="37.0989960" lon="-2.1270750">
        <ele>387.3</ele>
        <time>2019-10-18T10:17:03Z</time>
      </trkpt>
      <trkpt lat="37.0990170" lon="-2.1270780">
        <ele>387.4</ele>
        <time>2019-10-18T10:17:04Z</time>
      </trkpt>
      <trkpt lat="37.0990380" lon="-2.1270820">
        <ele>387.6</ele>
        <time>2019-10-18T10:17:05Z</time>
      </trkpt>
      <trkpt lat="37.0990600" lon="-2.1270870">
        <ele>387.7</ele>
        <time>2019-10-18T10:17:06Z</time>
      </trkpt>
      <trkpt lat="37.0990820" lon="-2.1270920">
        <ele>387.8</ele>
        <time>2019-10-18T10:17:07Z</time>
      </trkpt>
      <trkpt lat="37.0991040" lon="-2.1270970">
        <ele>387.9</ele>
        <time>2019-10-18T10:17:08Z</time>
      </trkpt>
      <trkpt lat="37.0991270" lon="-2.1271030">
        <ele>388.1</ele>
        <time>2019-10-18T10:17:09Z</time>
      </trkpt>
      <trkpt lat="37.0991490" lon="-2.1271100">
        <ele>388.2</ele>
        <time>2019-10-18T10:17:10Z</time>
      </trkpt>
      <trkpt lat="37.0991710" lon="-2.1271180">
        <ele>388.4</ele>
        <time>2019-10-18T10:17:11Z</time>
      </trkpt>
      <trkpt lat="37.0991940" lon="-2.1271270">
        <ele>388.5</ele>
        <time>2019-10-18T10:17:12Z</time>
      </trkpt>
      <trkpt lat="37.0992160" lon="-2.1271380">
        <ele>388.7</ele>
        <time>2019-10-18T10:17:13Z</time>
      </trkpt>
      <trkpt lat="37.0992390" lon="-2.1271480">
        <ele>388.9</ele>
        <time>2019-10-18T10:17:14Z</time>
      </trkpt>
      <trkpt lat="37.0992600" lon="-2.1271590">
        <ele>389.0</ele>
        <time>2019-10-18T10:17:15Z</time>
      </trkpt>
      <trkpt lat="37.0992810" lon="-2.1271700">
        <ele>389.2</ele>
        <time>2019-10-18T10:17:16Z</time>
      </trkpt>
      <trkpt lat="37.0993020" lon="-2.1271820">
        <ele>389.3</ele>
        <time>2019-10-18T10:17:17Z</time>
      </trkpt>
      <trkpt lat="37.0993210" lon="-2.1271960">
        <ele>389.5</ele>
        <time>2019-10-18T10:17:18Z</time>
      </trkpt>
      <trkpt lat="37.0993400" lon="-2.1272140">
        <ele>389.7</ele>
        <time>2019-10-18T10:17:19Z</time>
      </trkpt>
      <trkpt lat="37.0993580" lon="-2.1272330">
        <ele>389.8</ele>
        <time>2019-10-18T10:17:20Z</time>
      </trkpt>
      <trkpt lat="37.0993770" lon="-2.1272530">
        <ele>390.0</ele>
        <time>2019-10-18T10:17:21Z</time>
      </trkpt>
      <trkpt lat="37.0993960" lon="-2.1272740">
        <ele>390.2</ele>
        <time>2019-10-18T10:17:22Z</time>
      </trkpt>
      <trkpt lat="37.0994150" lon="-2.1272960">
        <ele>390.4</ele>
        <time>2019-10-18T10:17:23Z</time>
      </trkpt>
      <trkpt lat="37.0994340" lon="-2.1273180">
        <ele>390.6</ele>
        <time>2019-10-18T10:17:24Z</time>
      </trkpt>
      <trkpt lat="37.0994520" lon="-2.1273410">
        <ele>390.8</ele>
        <time>2019-10-18T10:17:25Z</time>
      </trkpt>
      <trkpt lat="37.0994680" lon="-2.1273650">
        <ele>390.9</ele>
        <time>2019-10-18T10:17:26Z</time>
      </trkpt>
      <trkpt lat="37.0994840" lon="-2.1273880">
        <ele>391.1</ele>
        <time>2019-10-18T10:17:27Z</time>
      </trkpt>
      <trkpt lat="37.0995000" lon="-2.1274120">
        <ele>391.2</ele>
        <time>2019-10-18T10:17:28Z</time>
      </trkpt>
      <trkpt lat="37.0995140" lon="-2.1274350">
        <ele>391.3</ele>
        <time>2019-10-18T10:17:29Z</time>
      </trkpt>
      <trkpt lat="37.0995280" lon="-2.1274600">
        <ele>391.4</ele>
        <time>2019-10-18T10:17:30Z</time>
      </trkpt>
      <trkpt lat="37.0995420" lon="-2.1274860">
        <ele>391.5</ele>
        <time>2019-10-18T10:17:31Z</time>
      </trkpt>
      <trkpt lat="37.0995550" lon="-2.1275130">
        <ele>391.6</ele>
        <time>2019-10-18T10:17:32Z</time>
      </trkpt>
      <trkpt lat="37.0995670" lon="-2.1275410">
        <ele>391.8</ele>
        <time>2019-10-18T10:17:33Z</time>
      </trkpt>
      <trkpt lat="37.0995780" lon="-2.1275710">
        <ele>392.3</ele>
        <time>2019-10-18T10:17:34Z</time>
      </trkpt>
      <trkpt lat="37.0995890" lon="-2.1276010">
        <ele>392.7</ele>
        <time>2019-10-18T10:17:35Z</time>
      </trkpt>
      <trkpt lat="37.0996000" lon="-2.1276320">
        <ele>393.2</ele>
        <time>2019-10-18T10:17:36Z</time>
      </trkpt>
      <trkpt lat="37.0996100" lon="-2.1276640">
        <ele>393.6</ele>
        <time>2019-10-18T10:17:37Z</time>
      </trkpt>
      <trkpt lat="37.0996200" lon="-2.1276960">
        <ele>394.0</ele>
        <time>2019-10-18T10:17:38Z</time>
      </trkpt>
      <trkpt lat="37.0996290" lon="-2.1277290">
        <ele>394.4</ele>
        <time>2019-10-18T10:17:39Z</time>
      </trkpt>
      <trkpt lat="37.0996380" lon="-2.1277630">
        <ele>394.7</ele>
        <time>2019-10-18T10:17:40Z</time>
      </trkpt>
      <trkpt lat="37.0996470" lon="-2.1277970">
        <ele>395.1</ele>
        <time>2019-10-18T10:17:41Z</time>
      </trkpt>
      <trkpt lat="37.0996560" lon="-2.1278310">
        <ele>395.4</ele>
        <time>2019-10-18T10:17:42Z</time>
      </trkpt>
      <trkpt lat="37.0996630" lon="-2.1278660">
        <ele>395.8</ele>
        <time>2019-10-18T10:17:43Z</time>
      </trkpt>
      <trkpt lat="37.0996690" lon="-2.1279020">
        <ele>396.2</ele>
        <time>2019-10-18T10:17:44Z</time>
      </trkpt>
      <trkpt lat="37.0996740" lon="-2.1279380">
        <ele>396.8</ele>
        <time>2019-10-18T10:17:45Z</time>
      </trkpt>
      <trkpt lat="37.0996800" lon="-2.1279750">
        <ele>397.3</ele>
        <time>2019-10-18T10:17:46Z</time>
      </trkpt>
      <trkpt lat="37.0996850" lon="-2.1280110">
        <ele>397.9</ele>
        <time>2019-10-18T10:17:47Z</time>
      </trkpt>
      <trkpt lat="37.0996900" lon="-2.1280470">
        <ele>398.5</ele>
        <time>2019-10-18T10:17:48Z</time>
      </trkpt>
      <trkpt lat="37.0996960" lon="-2.1280840">
        <ele>399.1</ele>
        <time>2019-10-18T10:17:49Z</time>
      </trkpt>
      <trkpt lat="37.0997010" lon="-2.1281200">
        <ele>399.7</ele>
        <time>2019-10-18T10:17:50Z</time>
      </trkpt>
      <trkpt lat="37.0997060" lon="-2.1281560">
        <ele>400.3</ele>
        <time>2019-10-18T10:17:51Z</time>
      </trkpt>
      <trkpt lat="37.0997120" lon="-2.1281930">
        <ele>400.9</ele>
        <time>2019-10-18T10:17:52Z</time>
      </trkpt>
      <trkpt lat="37.0997170" lon="-2.1282310">
        <ele>401.6</ele>
        <time>2019-10-18T10:17:53Z</time>
      </trkpt>
      <trkpt lat="37.0997220" lon="-2.1282680">
        <ele>402.2</ele>
        <time>2019-10-18T10:17:54Z</time>
      </trkpt>
      <trkpt lat="37.0997270" lon="-2.1283050">
        <ele>402.9</ele>
        <time>2019-10-18T10:17:55Z</time>
      </trkpt>
      <trkpt lat="37.0997330" lon="-2.1283430">
        <ele>403.5</ele>
        <time>2019-10-18T10:17:56Z</time>
      </trkpt>
      <trkpt lat="37.0997380" lon="-2.1283800">
        <ele>404.2</ele>
        <time>2019-10-18T10:17:57Z</time>
      </trkpt>
      <trkpt lat="37.0997440" lon="-2.1284170">
        <ele>404.6</ele>
        <time>2019-10-18T10:17:58Z</time>
      </trkpt>
      <trkpt lat="37.0997490" lon="-2.1284550">
        <ele>405.0</ele>
        <time>2019-10-18T10:17:59Z</time>
      </trkpt>
      <trkpt lat="37.0997540" lon="-2.1284930">
        <ele>405.4</ele>
        <time>2019-10-18T10:18:00Z</time>
      </trkpt>
      <trkpt lat="37.0997600" lon="-2.1285300">
        <ele>405.8</ele>
        <time>2019-10-18T10:18:01Z</time>
      </trkpt>
      <trkpt lat="37.0997650" lon="-2.1285690">
        <ele>406.2</ele>
        <time>2019-10-18T10:18:02Z</time>
      </trkpt>
      <trkpt lat="37.0997690" lon="-2.1286070">
        <ele>406.6</ele>
        <time>2019-10-18T10:18:03Z</time>
      </trkpt>
      <trkpt lat="37.0997730" lon="-2.1286440">
        <ele>407.0</ele>
        <time>2019-10-18T10:18:04Z</time>
      </trkpt>
      <trkpt lat="37.0997770" lon="-2.1286810">
        <ele>407.3</ele>
        <time>2019-10-18T10:18:05Z</time>
      </trkpt>
      <trkpt lat="37.0997820" lon="-2.1287170">
        <ele>407.6</ele>
        <time>2019-10-18T10:18:06Z</time>
      </trkpt>
      <trkpt lat="37.0997880" lon="-2.1287540">
        <ele>407.9</ele>
        <time>2019-10-18T10:18:07Z</time>
      </trkpt>
      <trkpt lat="37.0997930" lon="-2.1287900">
        <ele>408.2</ele>
        <time>2019-10-18T10:18:08Z</time>
      </trkpt>
      <trkpt lat="37.0997990" lon="-2.1288260">
        <ele>408.5</ele>
        <time>2019-10-18T10:18:09Z</time>
      </trkpt>
      <trkpt lat="37.0998030" lon="-2.1288620">
        <ele>408.8</ele>
        <time>2019-10-18T10:18:10Z</time>
      </trkpt>
      <trkpt lat="37.0998080" lon="-2.1288990">
        <ele>409.2</ele>
        <time>2019-10-18T10:18:11Z</time>
      </trkpt>
      <trkpt lat="37.0998120" lon="-2.1289360">
        <ele>409.6</ele>
        <time>2019-10-18T10:18:12Z</time>
      </trkpt>
      <trkpt lat="37.0998170" lon="-2.1289730">
        <ele>409.8</ele>
        <time>2019-10-18T10:18:13Z</time>
      </trkpt>
      <trkpt lat="37.0998220" lon="-2.1290110">
        <ele>409.9</ele>
        <time>2019-10-18T10:18:14Z</time>
      </trkpt>
      <trkpt lat="37.0998270" lon="-2.1290490">
        <ele>410.1</ele>
        <time>2019-10-18T10:18:15Z</time>
      </trkpt>
      <trkpt lat="37.0998320" lon="-2.1290870">
        <ele>410.3</ele>
        <time>2019-10-18T10:18:16Z</time>
      </trkpt>
      <trkpt lat="37.0998370" lon="-2.1291250">
        <ele>410.5</ele>
        <time>2019-10-18T10:18:17Z</time>
      </trkpt>
      <trkpt lat="37.0998420" lon="-2.1291630">
        <ele>410.6</ele>
        <time>2019-10-18T10:18:18Z</time>
      </trkpt>
      <trkpt lat="37.0998470" lon="-2.1292020">
        <ele>410.8</ele>
        <time>2019-10-18T10:18:19Z</time>
      </trkpt>
      <trkpt lat="37.0998530" lon="-2.1292400">
        <ele>411.0</ele>
        <time>2019-10-18T10:18:20Z</time>
      </trkpt>
      <trkpt lat="37.0998570" lon="-2.1292790">
        <ele>411.2</ele>
        <time>2019-10-18T10:18:21Z</time>
      </trkpt>
      <trkpt lat="37.0998620" lon="-2.1293170">
        <ele>411.3</ele>
        <time>2019-10-18T10:18:22Z</time>
      </trkpt>
      <trkpt lat="37.0998670" lon="-2.1293560">
        <ele>411.4</ele>
        <time>2019-10-18T10:18:23Z</time>
      </trkpt>
      <trkpt lat="37.0998720" lon="-2.1293940">
        <ele>411.5</ele>
        <time>2019-10-18T10:18:24Z</time>
      </trkpt>
      <trkpt lat="37.0998770" lon="-2.1294340">
        <ele>411.6</ele>
        <time>2019-10-18T10:18:25Z</time>
      </trkpt>
      <trkpt lat="37.0998820" lon="-2.1294730">
        <ele>411.7</ele>
        <time>2019-10-18T10:18:26Z</time>
      </trkpt>
      <trkpt lat="37.0998870" lon="-2.1295120">
        <ele>411.8</ele>
        <time>2019-10-18T10:18:27Z</time>
      </trkpt>
      <trkpt lat="37.0998920" lon="-2.1295520">
        <ele>411.9</ele>
        <time>2019-10-18T10:18:28Z</time>
      </trkpt>
      <trkpt lat="37.0998960" lon="-2.1295920">
        <ele>412.0</ele>
        <time>2019-10-18T10:18:29Z</time>
      </trkpt>
      <trkpt lat="37.0999020" lon="-2.1296320">
        <ele>412.1</ele>
        <time>2019-10-18T10:18:30Z</time>
      </trkpt>
      <trkpt lat="37.0999080" lon="-2.1296720">
        <ele>412.1</ele>
        <time>2019-10-18T10:18:31Z</time>
      </trkpt>
      <trkpt lat="37.0999140" lon="-2.1297130">
        <ele>412.2</ele>
        <time>2019-10-18T10:18:32Z</time>
      </trkpt>
      <trkpt lat="37.0999190" lon="-2.1297540">
        <ele>412.3</ele>
        <time>2019-10-18T10:18:33Z</time>
      </trkpt>
      <trkpt lat="37.0999230" lon="-2.1297950">
        <ele>412.4</ele>
        <time>2019-10-18T10:18:34Z</time>
      </trkpt>
      <trkpt lat="37.0999280" lon="-2.1298360">
        <ele>412.6</ele>
        <time>2019-10-18T10:18:35Z</time>
      </trkpt>
      <trkpt lat="37.0999340" lon="-2.1298780">
        <ele>412.7</ele>
        <time>2019-10-18T10:18:36Z</time>
      </trkpt>
      <trkpt lat="37.0999400" lon="-2.1299210">
        <ele>412.8</ele>
        <time>2019-10-18T10:18:37Z</time>
      </trkpt>
      <trkpt lat="37.0999460" lon="-2.1299640">
        <ele>412.9</ele>
        <time>2019-10-18T10:18:38Z</time>
      </trkpt>
      <trkpt lat="37.0999530" lon="-2.1300070">
        <ele>413.0</ele>
        <time>2019-10-18T10:18:39Z</time>
      </trkpt>
      <trkpt lat="37.0999590" lon="-2.1300500">
        <ele>413.2</ele>
        <time>2019-10-18T10:18:40Z</time>
      </trkpt>
      <trkpt lat="37.0999650" lon="-2.1300940">
        <ele>413.4</ele>
        <time>2019-10-18T10:18:41Z</time>
      </trkpt>
      <trkpt lat="37.0999700" lon="-2.1301380">
        <ele>413.5</ele>
        <time>2019-10-18T10:18:42Z</time>
      </trkpt>
      <trkpt lat="37.0999750" lon="-2.1301820">
        <ele>413.6</ele>
        <time>2019-10-18T10:18:43Z</time>
      </trkpt>
      <trkpt lat="37.0999810" lon="-2.1302270">
        <ele>413.7</ele>
        <time>2019-10-18T10:18:44Z</time>
      </trkpt>
      <trkpt lat="37.0999860" lon="-2.1302710">
        <ele>413.8</ele>
        <time>2019-10-18T10:18:45Z</time>
      </trkpt>
      <trkpt lat="37.0999920" lon="-2.1303150">
        <ele>413.8</ele>
        <time>2019-10-18T10:18:46Z</time>
      </trkpt>
      <trkpt lat="37.0999980" lon="-2.1303600">
        <ele>413.8</ele>
        <time>2019-10-18T10:18:47Z</time>
      </trkpt>
      <trkpt lat="37.1000030" lon="-2.1304050">
        <ele>413.8</ele>
        <time>2019-10-18T10:18:48Z</time>
      </trkpt>
      <trkpt lat="37.1000090" lon="-2.1304500">
        <ele>413.8</ele>
        <time>2019-10-18T10:18:49Z</time>
      </trkpt>
      <trkpt lat="37.1000150" lon="-2.1304950">
        <ele>413.8</ele>
        <time>2019-10-18T10:18:50Z</time>
      </trkpt>
      <trkpt lat="37.1000200" lon="-2.1305410">
        <ele>413.8</ele>
        <time>2019-10-18T10:18:51Z</time>
      </trkpt>
      <trkpt lat="37.1000260" lon="-2.1305880">
        <ele>413.8</ele>
        <time>2019-10-18T10:18:52Z</time>
      </trkpt>
      <trkpt lat="37.1000320" lon="-2.1306330">
        <ele>413.8</ele>
        <time>2019-10-18T10:18:53Z</time>
      </trkpt>
      <trkpt lat="37.1000380" lon="-2.1306770">
        <ele>413.9</ele>
        <time>2019-10-18T10:18:54Z</time>
      </trkpt>
      <trkpt lat="37.1000440" lon="-2.1307220">
        <ele>413.8</ele>
        <time>2019-10-18T10:18:55Z</time>
      </trkpt>
      <trkpt lat="37.1000500" lon="-2.1307690">
        <ele>413.7</ele>
        <time>2019-10-18T10:18:56Z</time>
      </trkpt>
      <trkpt lat="37.1000550" lon="-2.1308150">
        <ele>413.6</ele>
        <time>2019-10-18T10:18:57Z</time>
      </trkpt>
      <trkpt lat="37.1000590" lon="-2.1308630">
        <ele>413.6</ele>
        <time>2019-10-18T10:18:58Z</time>
      </trkpt>
      <trkpt lat="37.1000640" lon="-2.1309110">
        <ele>413.5</ele>
        <time>2019-10-18T10:18:59Z</time>
      </trkpt>
      <trkpt lat="37.1000680" lon="-2.1309610">
        <ele>413.4</ele>
        <time>2019-10-18T10:19:00Z</time>
      </trkpt>
      <trkpt lat="37.1000710" lon="-2.1310100">
        <ele>413.3</ele>
        <time>2019-10-18T10:19:01Z</time>
      </trkpt>
      <trkpt lat="37.1000750" lon="-2.1310600">
        <ele>413.2</ele>
        <time>2019-10-18T10:19:02Z</time>
      </trkpt>
      <trkpt lat="37.1000800" lon="-2.1311110">
        <ele>413.1</ele>
        <time>2019-10-18T10:19:03Z</time>
      </trkpt>
      <trkpt lat="37.1000840" lon="-2.1311620">
        <ele>413.0</ele>
        <time>2019-10-18T10:19:04Z</time>
      </trkpt>
      <trkpt lat="37.1000870" lon="-2.1312130">
        <ele>413.0</ele>
        <time>2019-10-18T10:19:05Z</time>
      </trkpt>
      <trkpt lat="37.1000890" lon="-2.1312650">
        <ele>412.9</ele>
        <time>2019-10-18T10:19:06Z</time>
      </trkpt>
      <trkpt lat="37.1000920" lon="-2.1313170">
        <ele>412.8</ele>
        <time>2019-10-18T10:19:07Z</time>
      </trkpt>
      <trkpt lat="37.1000940" lon="-2.1313700">
        <ele>412.8</ele>
        <time>2019-10-18T10:19:08Z</time>
      </trkpt>
      <trkpt lat="37.1000950" lon="-2.1314240">
        <ele>412.7</ele>
        <time>2019-10-18T10:19:09Z</time>
      </trkpt>
      <trkpt lat="37.1000950" lon="-2.1314790">
        <ele>412.6</ele>
        <time>2019-10-18T10:19:10Z</time>
      </trkpt>
      <trkpt lat="37.1000950" lon="-2.1315350">
        <ele>412.5</ele>
        <time>2019-10-18T10:19:11Z</time>
      </trkpt>
      <trkpt lat="37.1000940" lon="-2.1315910">
        <ele>412.4</ele>
        <time>2019-10-18T10:19:12Z</time>
      </trkpt>
      <trkpt lat="37.1000930" lon="-2.1316470">
        <ele>412.4</ele>
        <time>2019-10-18T10:19:13Z</time>
      </trkpt>
      <trkpt lat="37.1000900" lon="-2.1317040">
        <ele>412.3</ele>
        <time>2019-10-18T10:19:14Z</time>
      </trkpt>
      <trkpt lat="37.1000880" lon="-2.1317610">
        <ele>412.2</ele>
        <time>2019-10-18T10:19:15Z</time>
      </trkpt>
      <trkpt lat="37.1000850" lon="-2.1318190">
        <ele>412.1</ele>
        <time>2019-10-18T10:19:16Z</time>
      </trkpt>
      <trkpt lat="37.1000810" lon="-2.1318790">
        <ele>412.0</ele>
        <time>2019-10-18T10:19:17Z</time>
      </trkpt>
      <trkpt lat="37.1000750" lon="-2.1319410">
        <ele>411.9</ele>
        <time>2019-10-18T10:19:18Z</time>
      </trkpt>
      <trkpt lat="37.1000690" lon="-2.1320040">
        <ele>411.8</ele>
        <time>2019-10-18T10:19:19Z</time>
      </trkpt>
      <trkpt lat="37.1000620" lon="-2.1320670">
        <ele>411.7</ele>
        <time>2019-10-18T10:19:20Z</time>
      </trkpt>
      <trkpt lat="37.1000530" lon="-2.1321310">
        <ele>411.6</ele>
        <time>2019-10-18T10:19:21Z</time>
      </trkpt>
      <trkpt lat="37.1000440" lon="-2.1321960">
        <ele>411.4</ele>
        <time>2019-10-18T10:19:22Z</time>
      </trkpt>
      <trkpt lat="37.1000340" lon="-2.1322600">
        <ele>411.2</ele>
        <time>2019-10-18T10:19:23Z</time>
      </trkpt>
      <trkpt lat="37.1000220" lon="-2.1323250">
        <ele>411.0</ele>
        <time>2019-10-18T10:19:24Z</time>
      </trkpt>
      <trkpt lat="37.1000100" lon="-2.1323910">
        <ele>410.8</ele>
        <time>2019-10-18T10:19:25Z</time>
      </trkpt>
      <trkpt lat="37.0999970" lon="-2.1324580">
        <ele>410.6</ele>
        <time>2019-10-18T10:19:26Z</time>
      </trkpt>
      <trkpt lat="37.0999830" lon="-2.1325250">
        <ele>410.5</ele>
        <time>2019-10-18T10:19:27Z</time>
      </trkpt>
      <trkpt lat="37.0999670" lon="-2.1325920">
        <ele>410.3</ele>
        <time>2019-10-18T10:19:28Z</time>
      </trkpt>
      <trkpt lat="37.0999510" lon="-2.1326600">
        <ele>410.2</ele>
        <time>2019-10-18T10:19:29Z</time>
      </trkpt>
      <trkpt lat="37.0999340" lon="-2.1327280">
        <ele>410.0</ele>
        <time>2019-10-18T10:19:30Z</time>
      </trkpt>
      <trkpt lat="37.0999170" lon="-2.1327990">
        <ele>409.8</ele>
        <time>2019-10-18T10:19:31Z</time>
      </trkpt>
      <trkpt lat="37.0998980" lon="-2.1328700">
        <ele>409.5</ele>
        <time>2019-10-18T10:19:32Z</time>
      </trkpt>
      <trkpt lat="37.0998770" lon="-2.1329420">
        <ele>409.5</ele>
        <time>2019-10-18T10:19:33Z</time>
      </trkpt>
      <trkpt lat="37.0998560" lon="-2.1330160">
        <ele>409.4</ele>
        <time>2019-10-18T10:19:34Z</time>
      </trkpt>
      <trkpt lat="37.0998340" lon="-2.1330910">
        <ele>409.3</ele>
        <time>2019-10-18T10:19:35Z</time>
      </trkpt>
      <trkpt lat="37.0998110" lon="-2.1331680">
        <ele>409.1</ele>
        <time>2019-10-18T10:19:36Z</time>
      </trkpt>
      <trkpt lat="37.0997870" lon="-2.1332460">
        <ele>409.0</ele>
        <time>2019-10-18T10:19:37Z</time>
      </trkpt>
      <trkpt lat="37.0997630" lon="-2.1333260">
        <ele>408.8</ele>
        <time>2019-10-18T10:19:38Z</time>
      </trkpt>
      <trkpt lat="37.0997380" lon="-2.1334080">
        <ele>408.7</ele>
        <time>2019-10-18T10:19:39Z</time>
      </trkpt>
      <trkpt lat="37.0997120" lon="-2.1334920">
        <ele>408.6</ele>
        <time>2019-10-18T10:19:40Z</time>
      </trkpt>
      <trkpt lat="37.0996860" lon="-2.1335760">
        <ele>408.5</ele>
        <time>2019-10-18T10:19:41Z</time>
      </trkpt>
      <trkpt lat="37.0996600" lon="-2.1336620">
        <ele>408.4</ele>
        <time>2019-10-18T10:19:42Z</time>
      </trkpt>
      <trkpt lat="37.0996340" lon="-2.1337490">
        <ele>408.3</ele>
        <time>2019-10-18T10:19:43Z</time>
      </trkpt>
      <trkpt lat="37.0996060" lon="-2.1338380">
        <ele>408.1</ele>
        <time>2019-10-18T10:19:44Z</time>
      </trkpt>
      <trkpt lat="37.0995780" lon="-2.1339280">
        <ele>408.0</ele>
        <time>2019-10-18T10:19:45Z</time>
      </trkpt>
      <trkpt lat="37.0995490" lon="-2.1340190">
        <ele>407.8</ele>
        <time>2019-10-18T10:19:46Z</time>
      </trkpt>
      <trkpt lat="37.0995210" lon="-2.1341120">
        <ele>407.7</ele>
        <time>2019-10-18T10:19:47Z</time>
      </trkpt>
      <trkpt lat="37.0994930" lon="-2.1342040">
        <ele>407.5</ele>
        <time>2019-10-18T10:19:48Z</time>
      </trkpt>
      <trkpt lat="37.0994660" lon="-2.1342950">
        <ele>407.5</ele>
        <time>2019-10-18T10:19:49Z</time>
      </trkpt>
      <trkpt lat="37.0994370" lon="-2.1343870">
        <ele>407.4</ele>
        <time>2019-10-18T10:19:50Z</time>
      </trkpt>
      <trkpt lat="37.0994090" lon="-2.1344780">
        <ele>407.4</ele>
        <time>2019-10-18T10:19:51Z</time>
      </trkpt>
      <trkpt lat="37.0993800" lon="-2.1345680">
        <ele>407.4</ele>
        <time>2019-10-18T10:19:52Z</time>
      </trkpt>
      <trkpt lat="37.0993520" lon="-2.1346580">
        <ele>407.4</ele>
        <time>2019-10-18T10:19:53Z</time>
      </trkpt>
      <trkpt lat="37.0993250" lon="-2.1347480">
        <ele>407.4</ele>
        <time>2019-10-18T10:19:54Z</time>
      </trkpt>
      <trkpt lat="37.0992980" lon="-2.1348380">
        <ele>407.4</ele>
        <time>2019-10-18T10:19:55Z</time>
      </trkpt>
      <trkpt lat="37.0992720" lon="-2.1349260">
        <ele>407.4</ele>
        <time>2019-10-18T10:19:56Z</time>
      </trkpt>
      <trkpt lat="37.0992450" lon="-2.1350140">
        <ele>407.4</ele>
        <time>2019-10-18T10:19:57Z</time>
      </trkpt>
      <trkpt lat="37.0992190" lon="-2.1350990">
        <ele>407.4</ele>
        <time>2019-10-18T10:19:58Z</time>
      </trkpt>
      <trkpt lat="37.0991930" lon="-2.1351830">
        <ele>407.4</ele>
        <time>2019-10-18T10:19:59Z</time>
      </trkpt>
      <trkpt lat="37.0991670" lon="-2.1352650">
        <ele>407.4</ele>
        <time>2019-10-18T10:20:00Z</time>
      </trkpt>
      <trkpt lat="37.0991420" lon="-2.1353450">
        <ele>407.4</ele>
        <time>2019-10-18T10:20:01Z</time>
      </trkpt>
      <trkpt lat="37.0991180" lon="-2.1354250">
        <ele>407.3</ele>
        <time>2019-10-18T10:20:02Z</time>
      </trkpt>
      <trkpt lat="37.0990940" lon="-2.1355050">
        <ele>407.1</ele>
        <time>2019-10-18T10:20:03Z</time>
      </trkpt>
      <trkpt lat="37.0990700" lon="-2.1355840">
        <ele>406.9</ele>
        <time>2019-10-18T10:20:04Z</time>
      </trkpt>
      <trkpt lat="37.0990460" lon="-2.1356630">
        <ele>406.7</ele>
        <time>2019-10-18T10:20:05Z</time>
      </trkpt>
      <trkpt lat="37.0990230" lon="-2.1357410">
        <ele>406.6</ele>
        <time>2019-10-18T10:20:06Z</time>
      </trkpt>
      <trkpt lat="37.0989990" lon="-2.1358180">
        <ele>406.5</ele>
        <time>2019-10-18T10:20:07Z</time>
      </trkpt>
      <trkpt lat="37.0989760" lon="-2.1358950">
        <ele>406.5</ele>
        <time>2019-10-18T10:20:08Z</time>
      </trkpt>
      <trkpt lat="37.0989530" lon="-2.1359720">
        <ele>406.4</ele>
        <time>2019-10-18T10:20:09Z</time>
      </trkpt>
      <trkpt lat="37.0989310" lon="-2.1360490">
        <ele>406.4</ele>
        <time>2019-10-18T10:20:10Z</time>
      </trkpt>
      <trkpt lat="37.0989090" lon="-2.1361250">
        <ele>406.4</ele>
        <time>2019-10-18T10:20:11Z</time>
      </trkpt>
      <trkpt lat="37.0988880" lon="-2.1362020">
        <ele>406.4</ele>
        <time>2019-10-18T10:20:12Z</time>
      </trkpt>
      <trkpt lat="37.0988670" lon="-2.1362780">
        <ele>406.4</ele>
        <time>2019-10-18T10:20:13Z</time>
      </trkpt>
      <trkpt lat="37.0988460" lon="-2.1363550">
        <ele>406.4</ele>
        <time>2019-10-18T10:20:14Z</time>
      </trkpt>
      <trkpt lat="37.0988260" lon="-2.1364310">
        <ele>406.4</ele>
        <time>2019-10-18T10:20:15Z</time>
      </trkpt>
      <trkpt lat="37.0988060" lon="-2.1365070">
        <ele>406.4</ele>
        <time>2019-10-18T10:20:16Z</time>
      </trkpt>
      <trkpt lat="37.0987870" lon="-2.1365820">
        <ele>406.4</ele>
        <time>2019-10-18T10:20:17Z</time>
      </trkpt>
      <trkpt lat="37.0987680" lon="-2.1366580">
        <ele>406.4</ele>
        <time>2019-10-18T10:20:18Z</time>
      </trkpt>
      <trkpt lat="37.0987500" lon="-2.1367340">
        <ele>406.4</ele>
        <time>2019-10-18T10:20:19Z</time>
      </trkpt>
      <trkpt lat="37.0987320" lon="-2.1368090">
        <ele>406.4</ele>
        <time>2019-10-18T10:20:20Z</time>
      </trkpt>
      <trkpt lat="37.0987150" lon="-2.1368850">
        <ele>406.6</ele>
        <time>2019-10-18T10:20:21Z</time>
      </trkpt>
      <trkpt lat="37.0986990" lon="-2.1369600">
        <ele>406.9</ele>
        <time>2019-10-18T10:20:22Z</time>
      </trkpt>
      <trkpt lat="37.0986830" lon="-2.1370360">
        <ele>407.3</ele>
        <time>2019-10-18T10:20:23Z</time>
      </trkpt>
      <trkpt lat="37.0986680" lon="-2.1371120">
        <ele>407.7</ele>
        <time>2019-10-18T10:20:24Z</time>
      </trkpt>
      <trkpt lat="37.0986530" lon="-2.1371880">
        <ele>408.1</ele>
        <time>2019-10-18T10:20:25Z</time>
      </trkpt>
      <trkpt lat="37.0986380" lon="-2.1372640">
        <ele>408.3</ele>
        <time>2019-10-18T10:20:26Z</time>
      </trkpt>
      <trkpt lat="37.0986240" lon="-2.1373410">
        <ele>408.5</ele>
        <time>2019-10-18T10:20:27Z</time>
      </trkpt>
      <trkpt lat="37.0986110" lon="-2.1374170">
        <ele>408.6</ele>
        <time>2019-10-18T10:20:28Z</time>
      </trkpt>
      <trkpt lat="37.0985980" lon="-2.1374940">
        <ele>408.6</ele>
        <time>2019-10-18T10:20:29Z</time>
      </trkpt>
      <trkpt lat="37.0985870" lon="-2.1375720">
        <ele>408.7</ele>
        <time>2019-10-18T10:20:30Z</time>
      </trkpt>
      <trkpt lat="37.0985760" lon="-2.1376500">
        <ele>408.7</ele>
        <time>2019-10-18T10:20:31Z</time>
      </trkpt>
      <trkpt lat="37.0985650" lon="-2.1377290">
        <ele>408.7</ele>
        <time>2019-10-18T10:20:32Z</time>
      </trkpt>
      <trkpt lat="37.0985550" lon="-2.1378080">
        <ele>408.8</ele>
        <time>2019-10-18T10:20:33Z</time>
      </trkpt>
      <trkpt lat="37.0985450" lon="-2.1378880">
        <ele>408.5</ele>
        <time>2019-10-18T10:20:34Z</time>
      </trkpt>
      <trkpt lat="37.0985370" lon="-2.1379670">
        <ele>408.3</ele>
        <time>2019-10-18T10:20:35Z</time>
      </trkpt>
      <trkpt lat="37.0985280" lon="-2.1380460">
        <ele>408.1</ele>
        <time>2019-10-18T10:20:36Z</time>
      </trkpt>
      <trkpt lat="37.0985200" lon="-2.1381260">
        <ele>408.0</ele>
        <time>2019-10-18T10:20:37Z</time>
      </trkpt>
      <trkpt lat="37.0985120" lon="-2.1382050">
        <ele>407.8</ele>
        <time>2019-10-18T10:20:38Z</time>
      </trkpt>
      <trkpt lat="37.0985050" lon="-2.1382840">
        <ele>407.7</ele>
        <time>2019-10-18T10:20:39Z</time>
      </trkpt>
      <trkpt lat="37.0984980" lon="-2.1383620">
        <ele>407.6</ele>
        <time>2019-10-18T10:20:40Z</time>
      </trkpt>
      <trkpt lat="37.0984920" lon="-2.1384400">
        <ele>407.6</ele>
        <time>2019-10-18T10:20:41Z</time>
      </trkpt>
      <trkpt lat="37.0984850" lon="-2.1385170">
        <ele>407.5</ele>
        <time>2019-10-18T10:20:42Z</time>
      </trkpt>
      <trkpt lat="37.0984780" lon="-2.1385950">
        <ele>407.5</ele>
        <time>2019-10-18T10:20:43Z</time>
      </trkpt>
      <trkpt lat="37.0984730" lon="-2.1386720">
        <ele>407.4</ele>
        <time>2019-10-18T10:20:44Z</time>
      </trkpt>
      <trkpt lat="37.0984680" lon="-2.1387490">
        <ele>407.2</ele>
        <time>2019-10-18T10:20:45Z</time>
      </trkpt>
      <trkpt lat="37.0984630" lon="-2.1388250">
        <ele>406.9</ele>
        <time>2019-10-18T10:20:46Z</time>
      </trkpt>
      <trkpt lat="37.0984600" lon="-2.1389000">
        <ele>406.6</ele>
        <time>2019-10-18T10:20:47Z</time>
      </trkpt>
      <trkpt lat="37.0984570" lon="-2.1389760">
        <ele>406.4</ele>
        <time>2019-10-18T10:20:48Z</time>
      </trkpt>
      <trkpt lat="37.0984550" lon="-2.1390520">
        <ele>406.1</ele>
        <time>2019-10-18T10:20:49Z</time>
      </trkpt>
      <trkpt lat="37.0984530" lon="-2.1391280">
        <ele>405.9</ele>
        <time>2019-10-18T10:20:50Z</time>
      </trkpt>
      <trkpt lat="37.0984520" lon="-2.1392040">
        <ele>405.7</ele>
        <time>2019-10-18T10:20:51Z</time>
      </trkpt>
      <trkpt lat="37.0984520" lon="-2.1392810">
        <ele>405.5</ele>
        <time>2019-10-18T10:20:52Z</time>
      </trkpt>
      <trkpt lat="37.0984520" lon="-2.1393570">
        <ele>405.3</ele>
        <time>2019-10-18T10:20:53Z</time>
      </trkpt>
      <trkpt lat="37.0984530" lon="-2.1394340">
        <ele>405.1</ele>
        <time>2019-10-18T10:20:54Z</time>
      </trkpt>
      <trkpt lat="37.0984540" lon="-2.1395100">
        <ele>405.0</ele>
        <time>2019-10-18T10:20:55Z</time>
      </trkpt>
      <trkpt lat="37.0984540" lon="-2.1395880">
        <ele>404.8</ele>
        <time>2019-10-18T10:20:56Z</time>
      </trkpt>
      <trkpt lat="37.0984540" lon="-2.1396650">
        <ele>404.7</ele>
        <time>2019-10-18T10:20:57Z</time>
      </trkpt>
      <trkpt lat="37.0984550" lon="-2.1397420">
        <ele>404.5</ele>
        <time>2019-10-18T10:20:58Z</time>
      </trkpt>
      <trkpt lat="37.0984550" lon="-2.1398180">
        <ele>404.3</ele>
        <time>2019-10-18T10:20:59Z</time>
      </trkpt>
      <trkpt lat="37.0984560" lon="-2.1398940">
        <ele>404.1</ele>
        <time>2019-10-18T10:21:00Z</time>
      </trkpt>
      <trkpt lat="37.0984560" lon="-2.1399710">
        <ele>403.9</ele>
        <time>2019-10-18T10:21:01Z</time>
      </trkpt>
      <trkpt lat="37.0984570" lon="-2.1400470">
        <ele>403.7</ele>
        <time>2019-10-18T10:21:02Z</time>
      </trkpt>
      <trkpt lat="37.0984590" lon="-2.1401230">
        <ele>403.5</ele>
        <time>2019-10-18T10:21:03Z</time>
      </trkpt>
      <trkpt lat="37.0984600" lon="-2.1401990">
        <ele>403.3</ele>
        <time>2019-10-18T10:21:04Z</time>
      </trkpt>
      <trkpt lat="37.0984600" lon="-2.1402740">
        <ele>403.1</ele>
        <time>2019-10-18T10:21:05Z</time>
      </trkpt>
      <trkpt lat="37.0984610" lon="-2.1403500">
        <ele>403.2</ele>
        <time>2019-10-18T10:21:06Z</time>
      </trkpt>
      <trkpt lat="37.0984630" lon="-2.1404250">
        <ele>403.5</ele>
        <time>2019-10-18T10:21:07Z</time>
      </trkpt>
      <trkpt lat="37.0984650" lon="-2.1405000">
        <ele>403.8</ele>
        <time>2019-10-18T10:21:08Z</time>
      </trkpt>
      <trkpt lat="37.0984670" lon="-2.1405760">
        <ele>404.0</ele>
        <time>2019-10-18T10:21:09Z</time>
      </trkpt>
      <trkpt lat="37.0984680" lon="-2.1406520">
        <ele>404.3</ele>
        <time>2019-10-18T10:21:10Z</time>
      </trkpt>
      <trkpt lat="37.0984690" lon="-2.1407280">
        <ele>404.6</ele>
        <time>2019-10-18T10:21:11Z</time>
      </trkpt>
      <trkpt lat="37.0984700" lon="-2.1408040">
        <ele>405.0</ele>
        <time>2019-10-18T10:21:12Z</time>
      </trkpt>
      <trkpt lat="37.0984720" lon="-2.1408790">
        <ele>405.4</ele>
        <time>2019-10-18T10:21:13Z</time>
      </trkpt>
      <trkpt lat="37.0984740" lon="-2.1409540">
        <ele>405.7</ele>
        <time>2019-10-18T10:21:14Z</time>
      </trkpt>
      <trkpt lat="37.0984760" lon="-2.1410270">
        <ele>406.0</ele>
        <time>2019-10-18T10:21:15Z</time>
      </trkpt>
      <trkpt lat="37.0984780" lon="-2.1410990">
        <ele>406.2</ele>
        <time>2019-10-18T10:21:16Z</time>
      </trkpt>
      <trkpt lat="37.0984800" lon="-2.1411710">
        <ele>406.3</ele>
        <time>2019-10-18T10:21:17Z</time>
      </trkpt>
      <trkpt lat="37.0984850" lon="-2.1412420">
        <ele>406.4</ele>
        <time>2019-10-18T10:21:18Z</time>
      </trkpt>
      <trkpt lat="37.0984910" lon="-2.1413130">
        <ele>406.6</ele>
        <time>2019-10-18T10:21:19Z</time>
      </trkpt>
      <trkpt lat="37.0984980" lon="-2.1413820">
        <ele>406.9</ele>
        <time>2019-10-18T10:21:20Z</time>
      </trkpt>
      <trkpt lat="37.0985050" lon="-2.1414500">
        <ele>407.1</ele>
        <time>2019-10-18T10:21:21Z</time>
      </trkpt>
      <trkpt lat="37.0985120" lon="-2.1415150">
        <ele>407.4</ele>
        <time>2019-10-18T10:21:22Z</time>
      </trkpt>
      <trkpt lat="37.0985190" lon="-2.1415790">
        <ele>407.7</ele>
        <time>2019-10-18T10:21:23Z</time>
      </trkpt>
      <trkpt lat="37.0985260" lon="-2.1416420">
        <ele>408.0</ele>
        <time>2019-10-18T10:21:24Z</time>
      </trkpt>
      <trkpt lat="37.0985350" lon="-2.1417030">
        <ele>408.4</ele>
        <time>2019-10-18T10:21:25Z</time>
      </trkpt>
      <trkpt lat="37.0985510" lon="-2.1417600">
        <ele>408.8</ele>
        <time>2019-10-18T10:21:26Z</time>
      </trkpt>
      <trkpt lat="37.0985710" lon="-2.1418130">
        <ele>409.1</ele>
        <time>2019-10-18T10:21:27Z</time>
      </trkpt>
      <trkpt lat="37.0985920" lon="-2.1418640">
        <ele>409.2</ele>
        <time>2019-10-18T10:21:28Z</time>
      </trkpt>
      <trkpt lat="37.0986110" lon="-2.1419170">
        <ele>409.3</ele>
        <time>2019-10-18T10:21:29Z</time>
      </trkpt>
      <trkpt lat="37.0986230" lon="-2.1419710">
        <ele>409.4</ele>
        <time>2019-10-18T10:21:30Z</time>
      </trkpt>
      <trkpt lat="37.0986280" lon="-2.1420250">
        <ele>409.6</ele>
        <time>2019-10-18T10:21:31Z</time>
      </trkpt>
      <trkpt lat="37.0986250" lon="-2.1420800">
        <ele>409.7</ele>
        <time>2019-10-18T10:21:32Z</time>
      </trkpt>
      <trkpt lat="37.0986140" lon="-2.1421350">
        <ele>409.9</ele>
        <time>2019-10-18T10:21:33Z</time>
      </trkpt>
      <trkpt lat="37.0985980" lon="-2.1421910">
        <ele>410.1</ele>
        <time>2019-10-18T10:21:34Z</time>
      </trkpt>
      <trkpt lat="37.0985800" lon="-2.1422460">
        <ele>410.2</ele>
        <time>2019-10-18T10:21:35Z</time>
      </trkpt>
      <trkpt lat="37.0985640" lon="-2.1423020">
        <ele>410.4</ele>
        <time>2019-10-18T10:21:36Z</time>
      </trkpt>
      <trkpt lat="37.0985510" lon="-2.1423590">
        <ele>410.5</ele>
        <time>2019-10-18T10:21:37Z</time>
      </trkpt>
      <trkpt lat="37.0985420" lon="-2.1424170">
        <ele>410.7</ele>
        <time>2019-10-18T10:21:38Z</time>
      </trkpt>
      <trkpt lat="37.0985370" lon="-2.1424740">
        <ele>410.8</ele>
        <time>2019-10-18T10:21:39Z</time>
      </trkpt>
      <trkpt lat="37.0985340" lon="-2.1425300">
        <ele>410.9</ele>
        <time>2019-10-18T10:21:40Z</time>
      </trkpt>
      <trkpt lat="37.0985330" lon="-2.1425850">
        <ele>411.1</ele>
        <time>2019-10-18T10:21:41Z</time>
      </trkpt>
      <trkpt lat="37.0985320" lon="-2.1426400">
        <ele>411.2</ele>
        <time>2019-10-18T10:21:42Z</time>
      </trkpt>
      <trkpt lat="37.0985310" lon="-2.1426940">
        <ele>411.3</ele>
        <time>2019-10-18T10:21:43Z</time>
      </trkpt>
      <trkpt lat="37.0985310" lon="-2.1427460">
        <ele>411.4</ele>
        <time>2019-10-18T10:21:44Z</time>
      </trkpt>
      <trkpt lat="37.0985300" lon="-2.1427990">
        <ele>411.6</ele>
        <time>2019-10-18T10:21:45Z</time>
      </trkpt>
      <trkpt lat="37.0985310" lon="-2.1428510">
        <ele>411.7</ele>
        <time>2019-10-18T10:21:46Z</time>
      </trkpt>
      <trkpt lat="37.0985320" lon="-2.1429020">
        <ele>411.9</ele>
        <time>2019-10-18T10:21:47Z</time>
      </trkpt>
      <trkpt lat="37.0985330" lon="-2.1429540">
        <ele>412.0</ele>
        <time>2019-10-18T10:21:48Z</time>
      </trkpt>
      <trkpt lat="37.0985340" lon="-2.1430050">
        <ele>412.2</ele>
        <time>2019-10-18T10:21:49Z</time>
      </trkpt>
      <trkpt lat="37.0985340" lon="-2.1430560">
        <ele>412.5</ele>
        <time>2019-10-18T10:21:50Z</time>
      </trkpt>
      <trkpt lat="37.0985340" lon="-2.1431070">
        <ele>412.8</ele>
        <time>2019-10-18T10:21:51Z</time>
      </trkpt>
      <trkpt lat="37.0985330" lon="-2.1431570">
        <ele>413.1</ele>
        <time>2019-10-18T10:21:52Z</time>
      </trkpt>
      <trkpt lat="37.0985310" lon="-2.1432080">
        <ele>413.5</ele>
        <time>2019-10-18T10:21:53Z</time>
      </trkpt>
      <trkpt lat="37.0985300" lon="-2.1432580">
        <ele>414.0</ele>
        <time>2019-10-18T10:21:54Z</time>
      </trkpt>
      <trkpt lat="37.0985300" lon="-2.1433090">
        <ele>414.2</ele>
        <time>2019-10-18T10:21:55Z</time>
      </trkpt>
      <trkpt lat="37.0985310" lon="-2.1433600">
        <ele>414.3</ele>
        <time>2019-10-18T10:21:56Z</time>
      </trkpt>
      <trkpt lat="37.0985330" lon="-2.1434120">
        <ele>414.4</ele>
        <time>2019-10-18T10:21:57Z</time>
      </trkpt>
      <trkpt lat="37.0985350" lon="-2.1434650">
        <ele>414.4</ele>
        <time>2019-10-18T10:21:58Z</time>
      </trkpt>
      <trkpt lat="37.0985370" lon="-2.1435180">
        <ele>414.5</ele>
        <time>2019-10-18T10:21:59Z</time>
      </trkpt>
      <trkpt lat="37.0985390" lon="-2.1435710">
        <ele>414.6</ele>
        <time>2019-10-18T10:22:00Z</time>
      </trkpt>
      <trkpt lat="37.0985400" lon="-2.1436240">
        <ele>414.6</ele>
        <time>2019-10-18T10:22:01Z</time>
      </trkpt>
      <trkpt lat="37.0985410" lon="-2.1436760">
        <ele>414.7</ele>
        <time>2019-10-18T10:22:02Z</time>
      </trkpt>
      <trkpt lat="37.0985410" lon="-2.1437270">
        <ele>414.8</ele>
        <time>2019-10-18T10:22:03Z</time>
      </trkpt>
      <trkpt lat="37.0985410" lon="-2.1437780">
        <ele>414.8</ele>
        <time>2019-10-18T10:22:04Z</time>
      </trkpt>
      <trkpt lat="37.0985420" lon="-2.1438280">
        <ele>414.9</ele>
        <time>2019-10-18T10:22:05Z</time>
      </trkpt>
      <trkpt lat="37.0985430" lon="-2.1438780">
        <ele>415.0</ele>
        <time>2019-10-18T10:22:06Z</time>
      </trkpt>
      <trkpt lat="37.0985440" lon="-2.1439280">
        <ele>415.1</ele>
        <time>2019-10-18T10:22:07Z</time>
      </trkpt>
      <trkpt lat="37.0985450" lon="-2.1439770">
        <ele>415.3</ele>
        <time>2019-10-18T10:22:08Z</time>
      </trkpt>
      <trkpt lat="37.0985460" lon="-2.1440250">
        <ele>415.4</ele>
        <time>2019-10-18T10:22:09Z</time>
      </trkpt>
      <trkpt lat="37.0985470" lon="-2.1440710">
        <ele>415.6</ele>
        <time>2019-10-18T10:22:10Z</time>
      </trkpt>
      <trkpt lat="37.0985480" lon="-2.1441160">
        <ele>415.7</ele>
        <time>2019-10-18T10:22:11Z</time>
      </trkpt>
      <trkpt lat="37.0985490" lon="-2.1441620">
        <ele>415.8</ele>
        <time>2019-10-18T10:22:12Z</time>
      </trkpt>
      <trkpt lat="37.0985490" lon="-2.1442080">
        <ele>416.0</ele>
        <time>2019-10-18T10:22:13Z</time>
      </trkpt>
      <trkpt lat="37.0985490" lon="-2.1442530">
        <ele>416.1</ele>
        <time>2019-10-18T10:22:14Z</time>
      </trkpt>
      <trkpt lat="37.0985500" lon="-2.1442980">
        <ele>416.2</ele>
        <time>2019-10-18T10:22:15Z</time>
      </trkpt>
      <trkpt lat="37.0985500" lon="-2.1443440">
        <ele>416.4</ele>
        <time>2019-10-18T10:22:16Z</time>
      </trkpt>
      <trkpt lat="37.0985500" lon="-2.1443890">
        <ele>416.5</ele>
        <time>2019-10-18T10:22:17Z</time>
      </trkpt>
      <trkpt lat="37.0985510" lon="-2.1444350">
        <ele>416.6</ele>
        <time>2019-10-18T10:22:18Z</time>
      </trkpt>
      <trkpt lat="37.0985520" lon="-2.1444830">
        <ele>416.7</ele>
        <time>2019-10-18T10:22:19Z</time>
      </trkpt>
      <trkpt lat="37.0985530" lon="-2.1445300">
        <ele>416.9</ele>
        <time>2019-10-18T10:22:20Z</time>
      </trkpt>
      <trkpt lat="37.0985530" lon="-2.1445780">
        <ele>417.0</ele>
        <time>2019-10-18T10:22:21Z</time>
      </trkpt>
      <trkpt lat="37.0985530" lon="-2.1446260">
        <ele>417.2</ele>
        <time>2019-10-18T10:22:22Z</time>
      </trkpt>
      <trkpt lat="37.0985530" lon="-2.1446720">
        <ele>417.3</ele>
        <time>2019-10-18T10:22:23Z</time>
      </trkpt>
      <trkpt lat="37.0985530" lon="-2.1447190">
        <ele>417.5</ele>
        <time>2019-10-18T10:22:24Z</time>
      </trkpt>
      <trkpt lat="37.0985530" lon="-2.1447650">
        <ele>417.7</ele>
        <time>2019-10-18T10:22:25Z</time>
      </trkpt>
      <trkpt lat="37.0985540" lon="-2.1448120">
        <ele>417.9</ele>
        <time>2019-10-18T10:22:26Z</time>
      </trkpt>
      <trkpt lat="37.0985550" lon="-2.1448600">
        <ele>418.1</ele>
        <time>2019-10-18T10:22:27Z</time>
      </trkpt>
      <trkpt lat="37.0985560" lon="-2.1449060">
        <ele>418.3</ele>
        <time>2019-10-18T10:22:28Z</time>
      </trkpt>
      <trkpt lat="37.0985580" lon="-2.1449520">
        <ele>418.5</ele>
        <time>2019-10-18T10:22:29Z</time>
      </trkpt>
      <trkpt lat="37.0985590" lon="-2.1449980">
        <ele>418.7</ele>
        <time>2019-10-18T10:22:30Z</time>
      </trkpt>
      <trkpt lat="37.0985600" lon="-2.1450440">
        <ele>418.9</ele>
        <time>2019-10-18T10:22:31Z</time>
      </trkpt>
      <trkpt lat="37.0985620" lon="-2.1450910">
        <ele>419.1</ele>
        <time>2019-10-18T10:22:32Z</time>
      </trkpt>
      <trkpt lat="37.0985640" lon="-2.1451370">
        <ele>419.3</ele>
        <time>2019-10-18T10:22:33Z</time>
      </trkpt>
      <trkpt lat="37.0985650" lon="-2.1451820">
        <ele>419.5</ele>
        <time>2019-10-18T10:22:34Z</time>
      </trkpt>
      <trkpt lat="37.0985660" lon="-2.1452280">
        <ele>419.7</ele>
        <time>2019-10-18T10:22:35Z</time>
      </trkpt>
      <trkpt lat="37.0985670" lon="-2.1452720">
        <ele>419.9</ele>
        <time>2019-10-18T10:22:36Z</time>
      </trkpt>
      <trkpt lat="37.0985680" lon="-2.1453180">
        <ele>420.0</ele>
        <time>2019-10-18T10:22:37Z</time>
      </trkpt>
      <trkpt lat="37.0985690" lon="-2.1453640">
        <ele>420.2</ele>
        <time>2019-10-18T10:22:38Z</time>
      </trkpt>
      <trkpt lat="37.0985700" lon="-2.1454100">
        <ele>420.3</ele>
        <time>2019-10-18T10:22:39Z</time>
      </trkpt>
      <trkpt lat="37.0985720" lon="-2.1454560">
        <ele>420.4</ele>
        <time>2019-10-18T10:22:40Z</time>
      </trkpt>
      <trkpt lat="37.0985740" lon="-2.1455020">
        <ele>420.6</ele>
        <time>2019-10-18T10:22:41Z</time>
      </trkpt>
      <trkpt lat="37.0985760" lon="-2.1455490">
        <ele>420.7</ele>
        <time>2019-10-18T10:22:42Z</time>
      </trkpt>
      <trkpt lat="37.0985770" lon="-2.1455970">
        <ele>420.9</ele>
        <time>2019-10-18T10:22:43Z</time>
      </trkpt>
      <trkpt lat="37.0985790" lon="-2.1456460">
        <ele>421.0</ele>
        <time>2019-10-18T10:22:44Z</time>
      </trkpt>
      <trkpt lat="37.0985810" lon="-2.1456940">
        <ele>421.2</ele>
        <time>2019-10-18T10:22:45Z</time>
      </trkpt>
      <trkpt lat="37.0985820" lon="-2.1457430">
        <ele>421.4</ele>
        <time>2019-10-18T10:22:46Z</time>
      </trkpt>
      <trkpt lat="37.0985820" lon="-2.1457920">
        <ele>421.6</ele>
        <time>2019-10-18T10:22:47Z</time>
      </trkpt>
      <trkpt lat="37.0985830" lon="-2.1458390">
        <ele>421.7</ele>
        <time>2019-10-18T10:22:48Z</time>
      </trkpt>
      <trkpt lat="37.0985840" lon="-2.1458870">
        <ele>421.9</ele>
        <time>2019-10-18T10:22:49Z</time>
      </trkpt>
      <trkpt lat="37.0985850" lon="-2.1459330">
        <ele>422.1</ele>
        <time>2019-10-18T10:22:50Z</time>
      </trkpt>
      <trkpt lat="37.0985860" lon="-2.1459810">
        <ele>422.3</ele>
        <time>2019-10-18T10:22:51Z</time>
      </trkpt>
      <trkpt lat="37.0985870" lon="-2.1460290">
        <ele>422.4</ele>
        <time>2019-10-18T10:22:52Z</time>
      </trkpt>
      <trkpt lat="37.0985880" lon="-2.1460780">
        <ele>422.6</ele>
        <time>2019-10-18T10:22:53Z</time>
      </trkpt>
      <trkpt lat="37.0985890" lon="-2.1461280">
        <ele>422.8</ele>
        <time>2019-10-18T10:22:54Z</time>
      </trkpt>
      <trkpt lat="37.0985900" lon="-2.1461770">
        <ele>422.9</ele>
        <time>2019-10-18T10:22:55Z</time>
      </trkpt>
      <trkpt lat="37.0985910" lon="-2.1462240">
        <ele>423.1</ele>
        <time>2019-10-18T10:22:56Z</time>
      </trkpt>
      <trkpt lat="37.0985910" lon="-2.1462710">
        <ele>423.2</ele>
        <time>2019-10-18T10:22:57Z</time>
      </trkpt>
      <trkpt lat="37.0985910" lon="-2.1463190">
        <ele>423.4</ele>
        <time>2019-10-18T10:22:58Z</time>
      </trkpt>
      <trkpt lat="37.0985910" lon="-2.1463690">
        <ele>423.5</ele>
        <time>2019-10-18T10:22:59Z</time>
      </trkpt>
      <trkpt lat="37.0985920" lon="-2.1464180">
        <ele>423.7</ele>
        <time>2019-10-18T10:23:00Z</time>
      </trkpt>
      <trkpt lat="37.0985930" lon="-2.1464680">
        <ele>423.8</ele>
        <time>2019-10-18T10:23:01Z</time>
      </trkpt>
      <trkpt lat="37.0985940" lon="-2.1465170">
        <ele>424.0</ele>
        <time>2019-10-18T10:23:02Z</time>
      </trkpt>
      <trkpt lat="37.0985950" lon="-2.1465660">
        <ele>424.2</ele>
        <time>2019-10-18T10:23:03Z</time>
      </trkpt>
      <trkpt lat="37.0985950" lon="-2.1466160">
        <ele>424.4</ele>
        <time>2019-10-18T10:23:04Z</time>
      </trkpt>
      <trkpt lat="37.0985940" lon="-2.1466660">
        <ele>424.7</ele>
        <time>2019-10-18T10:23:05Z</time>
      </trkpt>
      <trkpt lat="37.0985940" lon="-2.1467160">
        <ele>424.9</ele>
        <time>2019-10-18T10:23:06Z</time>
      </trkpt>
      <trkpt lat="37.0985930" lon="-2.1467670">
        <ele>425.1</ele>
        <time>2019-10-18T10:23:07Z</time>
      </trkpt>
      <trkpt lat="37.0985920" lon="-2.1468170">
        <ele>425.3</ele>
        <time>2019-10-18T10:23:08Z</time>
      </trkpt>
      <trkpt lat="37.0985920" lon="-2.1468660">
        <ele>425.5</ele>
        <time>2019-10-18T10:23:09Z</time>
      </trkpt>
      <trkpt lat="37.0985910" lon="-2.1469150">
        <ele>425.8</ele>
        <time>2019-10-18T10:23:10Z</time>
      </trkpt>
      <trkpt lat="37.0985890" lon="-2.1469640">
        <ele>426.0</ele>
        <time>2019-10-18T10:23:11Z</time>
      </trkpt>
      <trkpt lat="37.0985870" lon="-2.1470130">
        <ele>426.2</ele>
        <time>2019-10-18T10:23:12Z</time>
      </trkpt>
      <trkpt lat="37.0985850" lon="-2.1470620">
        <ele>426.4</ele>
        <time>2019-10-18T10:23:13Z</time>
      </trkpt>
      <trkpt lat="37.0985830" lon="-2.1471110">
        <ele>426.6</ele>
        <time>2019-10-18T10:23:14Z</time>
      </trkpt>
      <trkpt lat="37.0985800" lon="-2.1471600">
        <ele>426.8</ele>
        <time>2019-10-18T10:23:15Z</time>
      </trkpt>
      <trkpt lat="37.0985760" lon="-2.1472090">
        <ele>427.1</ele>
        <time>2019-10-18T10:23:16Z</time>
      </trkpt>
      <trkpt lat="37.0985720" lon="-2.1472580">
        <ele>427.3</ele>
        <time>2019-10-18T10:23:17Z</time>
      </trkpt>
      <trkpt lat="37.0985680" lon="-2.1473080">
        <ele>427.5</ele>
        <time>2019-10-18T10:23:18Z</time>
      </trkpt>
      <trkpt lat="37.0985640" lon="-2.1473570">
        <ele>427.7</ele>
        <time>2019-10-18T10:23:19Z</time>
      </trkpt>
      <trkpt lat="37.0985600" lon="-2.1474060">
        <ele>427.9</ele>
        <time>2019-10-18T10:23:20Z</time>
      </trkpt>
      <trkpt lat="37.0985560" lon="-2.1474550">
        <ele>428.1</ele>
        <time>2019-10-18T10:23:21Z</time>
      </trkpt>
      <trkpt lat="37.0985530" lon="-2.1475020">
        <ele>428.3</ele>
        <time>2019-10-18T10:23:22Z</time>
      </trkpt>
      <trkpt lat="37.0985480" lon="-2.1475490">
        <ele>428.5</ele>
        <time>2019-10-18T10:23:23Z</time>
      </trkpt>
      <trkpt lat="37.0985440" lon="-2.1475970">
        <ele>428.7</ele>
        <time>2019-10-18T10:23:24Z</time>
      </trkpt>
      <trkpt lat="37.0985380" lon="-2.1476450">
        <ele>428.9</ele>
        <time>2019-10-18T10:23:25Z</time>
      </trkpt>
      <trkpt lat="37.0985310" lon="-2.1476940">
        <ele>429.1</ele>
        <time>2019-10-18T10:23:26Z</time>
      </trkpt>
      <trkpt lat="37.0985240" lon="-2.1477440">
        <ele>429.3</ele>
        <time>2019-10-18T10:23:27Z</time>
      </trkpt>
      <trkpt lat="37.0985180" lon="-2.1477940">
        <ele>429.5</ele>
        <time>2019-10-18T10:23:28Z</time>
      </trkpt>
      <trkpt lat="37.0985120" lon="-2.1478440">
        <ele>429.7</ele>
        <time>2019-10-18T10:23:29Z</time>
      </trkpt>
      <trkpt lat="37.0985050" lon="-2.1478930">
        <ele>429.9</ele>
        <time>2019-10-18T10:23:30Z</time>
      </trkpt>
      <trkpt lat="37.0984980" lon="-2.1479420">
        <ele>430.1</ele>
        <time>2019-10-18T10:23:31Z</time>
      </trkpt>
      <trkpt lat="37.0984910" lon="-2.1479910">
        <ele>430.3</ele>
        <time>2019-10-18T10:23:32Z</time>
      </trkpt>
      <trkpt lat="37.0984840" lon="-2.1480400">
        <ele>430.5</ele>
        <time>2019-10-18T10:23:33Z</time>
      </trkpt>
      <trkpt lat="37.0984760" lon="-2.1480890">
        <ele>430.7</ele>
        <time>2019-10-18T10:23:34Z</time>
      </trkpt>
      <trkpt lat="37.0984690" lon="-2.1481380">
        <ele>430.9</ele>
        <time>2019-10-18T10:23:35Z</time>
      </trkpt>
      <trkpt lat="37.0984620" lon="-2.1481860">
        <ele>431.1</ele>
        <time>2019-10-18T10:23:36Z</time>
      </trkpt>
      <trkpt lat="37.0984540" lon="-2.1482340">
        <ele>431.2</ele>
        <time>2019-10-18T10:23:37Z</time>
      </trkpt>
      <trkpt lat="37.0984460" lon="-2.1482830">
        <ele>431.4</ele>
        <time>2019-10-18T10:23:38Z</time>
      </trkpt>
      <trkpt lat="37.0984380" lon="-2.1483320">
        <ele>431.6</ele>
        <time>2019-10-18T10:23:39Z</time>
      </trkpt>
      <trkpt lat="37.0984300" lon="-2.1483810">
        <ele>431.8</ele>
        <time>2019-10-18T10:23:40Z</time>
      </trkpt>
      <trkpt lat="37.0984210" lon="-2.1484300">
        <ele>432.0</ele>
        <time>2019-10-18T10:23:41Z</time>
      </trkpt>
      <trkpt lat="37.0984120" lon="-2.1484810">
        <ele>432.1</ele>
        <time>2019-10-18T10:23:42Z</time>
      </trkpt>
      <trkpt lat="37.0984030" lon="-2.1485330">
        <ele>432.3</ele>
        <time>2019-10-18T10:23:43Z</time>
      </trkpt>
      <trkpt lat="37.0983950" lon="-2.1485860">
        <ele>432.4</ele>
        <time>2019-10-18T10:23:44Z</time>
      </trkpt>
      <trkpt lat="37.0983870" lon="-2.1486390">
        <ele>432.5</ele>
        <time>2019-10-18T10:23:45Z</time>
      </trkpt>
      <trkpt lat="37.0983800" lon="-2.1486930">
        <ele>432.6</ele>
        <time>2019-10-18T10:23:46Z</time>
      </trkpt>
      <trkpt lat="37.0983720" lon="-2.1487480">
        <ele>432.8</ele>
        <time>2019-10-18T10:23:47Z</time>
      </trkpt>
      <trkpt lat="37.0983630" lon="-2.1488030">
        <ele>432.9</ele>
        <time>2019-10-18T10:23:48Z</time>
      </trkpt>
      <trkpt lat="37.0983540" lon="-2.1488610">
        <ele>433.0</ele>
        <time>2019-10-18T10:23:49Z</time>
      </trkpt>
      <trkpt lat="37.0983450" lon="-2.1489190">
        <ele>433.1</ele>
        <time>2019-10-18T10:23:50Z</time>
      </trkpt>
      <trkpt lat="37.0983350" lon="-2.1489780">
        <ele>433.2</ele>
        <time>2019-10-18T10:23:51Z</time>
      </trkpt>
      <trkpt lat="37.0983250" lon="-2.1490390">
        <ele>433.3</ele>
        <time>2019-10-18T10:23:52Z</time>
      </trkpt>
      <trkpt lat="37.0983150" lon="-2.1491030">
        <ele>433.4</ele>
        <time>2019-10-18T10:23:53Z</time>
      </trkpt>
      <trkpt lat="37.0983040" lon="-2.1491680">
        <ele>433.4</ele>
        <time>2019-10-18T10:23:54Z</time>
      </trkpt>
      <trkpt lat="37.0982930" lon="-2.1492350">
        <ele>433.5</ele>
        <time>2019-10-18T10:23:55Z</time>
      </trkpt>
      <trkpt lat="37.0982830" lon="-2.1493050">
        <ele>433.4</ele>
        <time>2019-10-18T10:23:56Z</time>
      </trkpt>
      <trkpt lat="37.0982720" lon="-2.1493770">
        <ele>433.4</ele>
        <time>2019-10-18T10:23:57Z</time>
      </trkpt>
      <trkpt lat="37.0982620" lon="-2.1494500">
        <ele>433.3</ele>
        <time>2019-10-18T10:23:58Z</time>
      </trkpt>
      <trkpt lat="37.0982500" lon="-2.1495240">
        <ele>433.1</ele>
        <time>2019-10-18T10:23:59Z</time>
      </trkpt>
      <trkpt lat="37.0982380" lon="-2.1495990">
        <ele>432.9</ele>
        <time>2019-10-18T10:24:00Z</time>
      </trkpt>
      <trkpt lat="37.0982260" lon="-2.1496740">
        <ele>432.7</ele>
        <time>2019-10-18T10:24:01Z</time>
      </trkpt>
      <trkpt lat="37.0982160" lon="-2.1497510">
        <ele>432.6</ele>
        <time>2019-10-18T10:24:02Z</time>
      </trkpt>
      <trkpt lat="37.0982040" lon="-2.1498300">
        <ele>432.6</ele>
        <time>2019-10-18T10:24:03Z</time>
      </trkpt>
      <trkpt lat="37.0981930" lon="-2.1499110">
        <ele>432.5</ele>
        <time>2019-10-18T10:24:04Z</time>
      </trkpt>
      <trkpt lat="37.0981810" lon="-2.1499930">
        <ele>432.5</ele>
        <time>2019-10-18T10:24:05Z</time>
      </trkpt>
      <trkpt lat="37.0981690" lon="-2.1500770">
        <ele>432.5</ele>
        <time>2019-10-18T10:24:06Z</time>
      </trkpt>
      <trkpt lat="37.0981570" lon="-2.1501620">
        <ele>432.5</ele>
        <time>2019-10-18T10:24:07Z</time>
      </trkpt>
      <trkpt lat="37.0981450" lon="-2.1502480">
        <ele>432.5</ele>
        <time>2019-10-18T10:24:08Z</time>
      </trkpt>
      <trkpt lat="37.0981320" lon="-2.1503350">
        <ele>432.4</ele>
        <time>2019-10-18T10:24:09Z</time>
      </trkpt>
      <trkpt lat="37.0981180" lon="-2.1504250">
        <ele>432.3</ele>
        <time>2019-10-18T10:24:10Z</time>
      </trkpt>
      <trkpt lat="37.0981040" lon="-2.1505160">
        <ele>432.2</ele>
        <time>2019-10-18T10:24:11Z</time>
      </trkpt>
      <trkpt lat="37.0980900" lon="-2.1506070">
        <ele>432.0</ele>
        <time>2019-10-18T10:24:12Z</time>
      </trkpt>
      <trkpt lat="37.0980760" lon="-2.1506990">
        <ele>431.8</ele>
        <time>2019-10-18T10:24:13Z</time>
      </trkpt>
      <trkpt lat="37.0980620" lon="-2.1507920">
        <ele>431.7</ele>
        <time>2019-10-18T10:24:14Z</time>
      </trkpt>
      <trkpt lat="37.0980470" lon="-2.1508860">
        <ele>431.6</ele>
        <time>2019-10-18T10:24:15Z</time>
      </trkpt>
      <trkpt lat="37.0980320" lon="-2.1509810">
        <ele>431.5</ele>
        <time>2019-10-18T10:24:16Z</time>
      </trkpt>
      <trkpt lat="37.0980170" lon="-2.1510760">
        <ele>431.5</ele>
        <time>2019-10-18T10:24:17Z</time>
      </trkpt>
      <trkpt lat="37.0980020" lon="-2.1511710">
        <ele>431.5</ele>
        <time>2019-10-18T10:24:18Z</time>
      </trkpt>
      <trkpt lat="37.0979870" lon="-2.1512650">
        <ele>431.5</ele>
        <time>2019-10-18T10:24:19Z</time>
      </trkpt>
      <trkpt lat="37.0979740" lon="-2.1513570">
        <ele>431.5</ele>
        <time>2019-10-18T10:24:20Z</time>
      </trkpt>
      <trkpt lat="37.0979610" lon="-2.1514500">
        <ele>431.4</ele>
        <time>2019-10-18T10:24:21Z</time>
      </trkpt>
      <trkpt lat="37.0979490" lon="-2.1515400">
        <ele>431.4</ele>
        <time>2019-10-18T10:24:22Z</time>
      </trkpt>
      <trkpt lat="37.0979360" lon="-2.1516290">
        <ele>431.2</ele>
        <time>2019-10-18T10:24:23Z</time>
      </trkpt>
      <trkpt lat="37.0979220" lon="-2.1517180">
        <ele>431.0</ele>
        <time>2019-10-18T10:24:24Z</time>
      </trkpt>
      <trkpt lat="37.0979080" lon="-2.1518090">
        <ele>430.8</ele>
        <time>2019-10-18T10:24:25Z</time>
      </trkpt>
      <trkpt lat="37.0978940" lon="-2.1518990">
        <ele>430.7</ele>
        <time>2019-10-18T10:24:26Z</time>
      </trkpt>
      <trkpt lat="37.0978800" lon="-2.1519860">
        <ele>430.6</ele>
        <time>2019-10-18T10:24:27Z</time>
      </trkpt>
      <trkpt lat="37.0978670" lon="-2.1520730">
        <ele>430.5</ele>
        <time>2019-10-18T10:24:28Z</time>
      </trkpt>
      <trkpt lat="37.0978540" lon="-2.1521590">
        <ele>430.5</ele>
        <time>2019-10-18T10:24:29Z</time>
      </trkpt>
      <trkpt lat="37.0978420" lon="-2.1522430">
        <ele>430.5</ele>
        <time>2019-10-18T10:24:30Z</time>
      </trkpt>
      <trkpt lat="37.0978290" lon="-2.1523260">
        <ele>430.5</ele>
        <time>2019-10-18T10:24:31Z</time>
      </trkpt>
      <trkpt lat="37.0978160" lon="-2.1524090">
        <ele>430.5</ele>
        <time>2019-10-18T10:24:32Z</time>
      </trkpt>
      <trkpt lat="37.0978040" lon="-2.1524910">
        <ele>430.5</ele>
        <time>2019-10-18T10:24:33Z</time>
      </trkpt>
      <trkpt lat="37.0977920" lon="-2.1525720">
        <ele>430.5</ele>
        <time>2019-10-18T10:24:34Z</time>
      </trkpt>
      <trkpt lat="37.0977810" lon="-2.1526530">
        <ele>430.5</ele>
        <time>2019-10-18T10:24:35Z</time>
      </trkpt>
      <trkpt lat="37.0977690" lon="-2.1527330">
        <ele>430.5</ele>
        <time>2019-10-18T10:24:36Z</time>
      </trkpt>
      <trkpt lat="37.0977580" lon="-2.1528120">
        <ele>430.5</ele>
        <time>2019-10-18T10:24:37Z</time>
      </trkpt>
      <trkpt lat="37.0977470" lon="-2.1528890">
        <ele>430.5</ele>
        <time>2019-10-18T10:24:38Z</time>
      </trkpt>
      <trkpt lat="37.0977360" lon="-2.1529640">
        <ele>430.5</ele>
        <time>2019-10-18T10:24:39Z</time>
      </trkpt>
      <trkpt lat="37.0977250" lon="-2.1530390">
        <ele>430.5</ele>
        <time>2019-10-18T10:24:40Z</time>
      </trkpt>
      <trkpt lat="37.0977130" lon="-2.1531130">
        <ele>430.6</ele>
        <time>2019-10-18T10:24:41Z</time>
      </trkpt>
      <trkpt lat="37.0977010" lon="-2.1531850">
        <ele>430.7</ele>
        <time>2019-10-18T10:24:42Z</time>
      </trkpt>
      <trkpt lat="37.0976890" lon="-2.1532550">
        <ele>430.9</ele>
        <time>2019-10-18T10:24:43Z</time>
      </trkpt>
      <trkpt lat="37.0976780" lon="-2.1533240">
        <ele>431.0</ele>
        <time>2019-10-18T10:24:44Z</time>
      </trkpt>
      <trkpt lat="37.0976660" lon="-2.1533930">
        <ele>431.2</ele>
        <time>2019-10-18T10:24:45Z</time>
      </trkpt>
      <trkpt lat="37.0976520" lon="-2.1534610">
        <ele>431.3</ele>
        <time>2019-10-18T10:24:46Z</time>
      </trkpt>
      <trkpt lat="37.0976380" lon="-2.1535270">
        <ele>431.4</ele>
        <time>2019-10-18T10:24:47Z</time>
      </trkpt>
      <trkpt lat="37.0976230" lon="-2.1535920">
        <ele>431.5</ele>
        <time>2019-10-18T10:24:48Z</time>
      </trkpt>
      <trkpt lat="37.0976070" lon="-2.1536540">
        <ele>431.5</ele>
        <time>2019-10-18T10:24:49Z</time>
      </trkpt>
      <trkpt lat="37.0975900" lon="-2.1537150">
        <ele>431.6</ele>
        <time>2019-10-18T10:24:50Z</time>
      </trkpt>
      <trkpt lat="37.0975730" lon="-2.1537730">
        <ele>431.8</ele>
        <time>2019-10-18T10:24:51Z</time>
      </trkpt>
      <trkpt lat="37.0975560" lon="-2.1538290">
        <ele>431.9</ele>
        <time>2019-10-18T10:24:52Z</time>
      </trkpt>
      <trkpt lat="37.0975380" lon="-2.1538840">
        <ele>432.1</ele>
        <time>2019-10-18T10:24:53Z</time>
      </trkpt>
      <trkpt lat="37.0975170" lon="-2.1539360">
        <ele>432.2</ele>
        <time>2019-10-18T10:24:54Z</time>
      </trkpt>
      <trkpt lat="37.0974930" lon="-2.1539860">
        <ele>432.3</ele>
        <time>2019-10-18T10:24:55Z</time>
      </trkpt>
      <trkpt lat="37.0974680" lon="-2.1540350">
        <ele>432.5</ele>
        <time>2019-10-18T10:24:56Z</time>
      </trkpt>
      <trkpt lat="37.0974430" lon="-2.1540850">
        <ele>432.6</ele>
        <time>2019-10-18T10:24:57Z</time>
      </trkpt>
      <trkpt lat="37.0974180" lon="-2.1541370">
        <ele>432.8</ele>
        <time>2019-10-18T10:24:58Z</time>
      </trkpt>
      <trkpt lat="37.0973920" lon="-2.1541880">
        <ele>433.0</ele>
        <time>2019-10-18T10:24:59Z</time>
      </trkpt>
      <trkpt lat="37.0973630" lon="-2.1542360">
        <ele>433.2</ele>
        <time>2019-10-18T10:25:00Z</time>
      </trkpt>
      <trkpt lat="37.0973320" lon="-2.1542820">
        <ele>433.5</ele>
        <time>2019-10-18T10:25:01Z</time>
      </trkpt>
      <trkpt lat="37.0972980" lon="-2.1543240">
        <ele>433.5</ele>
        <time>2019-10-18T10:25:02Z</time>
      </trkpt>
      <trkpt lat="37.0972600" lon="-2.1543590">
        <ele>433.6</ele>
        <time>2019-10-18T10:25:03Z</time>
      </trkpt>
      <trkpt lat="37.0972200" lon="-2.1543870">
        <ele>433.7</ele>
        <time>2019-10-18T10:25:04Z</time>
      </trkpt>
      <trkpt lat="37.0971790" lon="-2.1544130">
        <ele>433.8</ele>
        <time>2019-10-18T10:25:05Z</time>
      </trkpt>
      <trkpt lat="37.0971370" lon="-2.1544380">
        <ele>433.9</ele>
        <time>2019-10-18T10:25:06Z</time>
      </trkpt>
      <trkpt lat="37.0970950" lon="-2.1544670">
        <ele>434.0</ele>
        <time>2019-10-18T10:25:07Z</time>
      </trkpt>
      <trkpt lat="37.0970560" lon="-2.1544990">
        <ele>434.2</ele>
        <time>2019-10-18T10:25:08Z</time>
      </trkpt>
      <trkpt lat="37.0970180" lon="-2.1545340">
        <ele>434.4</ele>
        <time>2019-10-18T10:25:09Z</time>
      </trkpt>
      <trkpt lat="37.0969800" lon="-2.1545700">
        <ele>434.6</ele>
        <time>2019-10-18T10:25:10Z</time>
      </trkpt>
      <trkpt lat="37.0969430" lon="-2.1546050">
        <ele>434.9</ele>
        <time>2019-10-18T10:25:11Z</time>
      </trkpt>
      <trkpt lat="37.0969070" lon="-2.1546410">
        <ele>435.1</ele>
        <time>2019-10-18T10:25:12Z</time>
      </trkpt>
      <trkpt lat="37.0968710" lon="-2.1546760">
        <ele>435.4</ele>
        <time>2019-10-18T10:25:13Z</time>
      </trkpt>
      <trkpt lat="37.0968370" lon="-2.1547100">
        <ele>435.7</ele>
        <time>2019-10-18T10:25:14Z</time>
      </trkpt>
      <trkpt lat="37.0968030" lon="-2.1547440">
        <ele>436.0</ele>
        <time>2019-10-18T10:25:15Z</time>
      </trkpt>
      <trkpt lat="37.0967690" lon="-2.1547790">
        <ele>436.2</ele>
        <time>2019-10-18T10:25:16Z</time>
      </trkpt>
      <trkpt lat="37.0967360" lon="-2.1548140">
        <ele>436.4</ele>
        <time>2019-10-18T10:25:17Z</time>
      </trkpt>
      <trkpt lat="37.0967030" lon="-2.1548480">
        <ele>436.5</ele>
        <time>2019-10-18T10:25:18Z</time>
      </trkpt>
      <trkpt lat="37.0966700" lon="-2.1548800">
        <ele>436.7</ele>
        <time>2019-10-18T10:25:19Z</time>
      </trkpt>
      <trkpt lat="37.0966380" lon="-2.1549130">
        <ele>436.9</ele>
        <time>2019-10-18T10:25:20Z</time>
      </trkpt>
      <trkpt lat="37.0966050" lon="-2.1549450">
        <ele>436.9</ele>
        <time>2019-10-18T10:25:21Z</time>
      </trkpt>
      <trkpt lat="37.0965720" lon="-2.1549780">
        <ele>437.0</ele>
        <time>2019-10-18T10:25:22Z</time>
      </trkpt>
      <trkpt lat="37.0965400" lon="-2.1550110">
        <ele>437.0</ele>
        <time>2019-10-18T10:25:23Z</time>
      </trkpt>
      <trkpt lat="37.0965070" lon="-2.1550430">
        <ele>437.1</ele>
        <time>2019-10-18T10:25:24Z</time>
      </trkpt>
      <trkpt lat="37.0964740" lon="-2.1550750">
        <ele>437.1</ele>
        <time>2019-10-18T10:25:25Z</time>
      </trkpt>
      <trkpt lat="37.0964410" lon="-2.1551060">
        <ele>437.1</ele>
        <time>2019-10-18T10:25:26Z</time>
      </trkpt>
      <trkpt lat="37.0964070" lon="-2.1551360">
        <ele>437.1</ele>
        <time>2019-10-18T10:25:27Z</time>
      </trkpt>
      <trkpt lat="37.0963730" lon="-2.1551660">
        <ele>437.2</ele>
        <time>2019-10-18T10:25:28Z</time>
      </trkpt>
      <trkpt lat="37.0963400" lon="-2.1551970">
        <ele>437.2</ele>
        <time>2019-10-18T10:25:29Z</time>
      </trkpt>
      <trkpt lat="37.0963070" lon="-2.1552280">
        <ele>437.2</ele>
        <time>2019-10-18T10:25:30Z</time>
      </trkpt>
      <trkpt lat="37.0962760" lon="-2.1552590">
        <ele>437.1</ele>
        <time>2019-10-18T10:25:31Z</time>
      </trkpt>
      <trkpt lat="37.0962430" lon="-2.1552890">
        <ele>437.1</ele>
        <time>2019-10-18T10:25:32Z</time>
      </trkpt>
      <trkpt lat="37.0962120" lon="-2.1553210">
        <ele>437.1</ele>
        <time>2019-10-18T10:25:33Z</time>
      </trkpt>
      <trkpt lat="37.0961800" lon="-2.1553530">
        <ele>437.2</ele>
        <time>2019-10-18T10:25:34Z</time>
      </trkpt>
      <trkpt lat="37.0961490" lon="-2.1553840">
        <ele>437.3</ele>
        <time>2019-10-18T10:25:35Z</time>
      </trkpt>
      <trkpt lat="37.0961160" lon="-2.1554140">
        <ele>437.4</ele>
        <time>2019-10-18T10:25:36Z</time>
      </trkpt>
      <trkpt lat="37.0960830" lon="-2.1554420">
        <ele>437.5</ele>
        <time>2019-10-18T10:25:37Z</time>
      </trkpt>
      <trkpt lat="37.0960500" lon="-2.1554710">
        <ele>437.7</ele>
        <time>2019-10-18T10:25:38Z</time>
      </trkpt>
      <trkpt lat="37.0960170" lon="-2.1555010">
        <ele>437.9</ele>
        <time>2019-10-18T10:25:39Z</time>
      </trkpt>
      <trkpt lat="37.0959850" lon="-2.1555330">
        <ele>438.2</ele>
        <time>2019-10-18T10:25:40Z</time>
      </trkpt>
      <trkpt lat="37.0959530" lon="-2.1555640">
        <ele>438.6</ele>
        <time>2019-10-18T10:25:41Z</time>
      </trkpt>
      <trkpt lat="37.0959240" lon="-2.1555940">
        <ele>438.9</ele>
        <time>2019-10-18T10:25:42Z</time>
      </trkpt>
      <trkpt lat="37.0958950" lon="-2.1556220">
        <ele>439.1</ele>
        <time>2019-10-18T10:25:43Z</time>
      </trkpt>
      <trkpt lat="37.0958670" lon="-2.1556480">
        <ele>439.3</ele>
        <time>2019-10-18T10:25:44Z</time>
      </trkpt>
      <trkpt lat="37.0958390" lon="-2.1556740">
        <ele>439.5</ele>
        <time>2019-10-18T10:25:45Z</time>
      </trkpt>
      <trkpt lat="37.0958130" lon="-2.1557000">
        <ele>439.8</ele>
        <time>2019-10-18T10:25:46Z</time>
      </trkpt>
      <trkpt lat="37.0957870" lon="-2.1557270">
        <ele>440.0</ele>
        <time>2019-10-18T10:25:47Z</time>
      </trkpt>
      <trkpt lat="37.0957600" lon="-2.1557530">
        <ele>440.2</ele>
        <time>2019-10-18T10:25:48Z</time>
      </trkpt>
      <trkpt lat="37.0957330" lon="-2.1557790">
        <ele>440.4</ele>
        <time>2019-10-18T10:25:49Z</time>
      </trkpt>
      <trkpt lat="37.0957060" lon="-2.1558050">
        <ele>440.6</ele>
        <time>2019-10-18T10:25:50Z</time>
      </trkpt>
      <trkpt lat="37.0956800" lon="-2.1558300">
        <ele>440.9</ele>
        <time>2019-10-18T10:25:51Z</time>
      </trkpt>
      <trkpt lat="37.0956530" lon="-2.1558540">
        <ele>441.1</ele>
        <time>2019-10-18T10:25:52Z</time>
      </trkpt>
      <trkpt lat="37.0956250" lon="-2.1558760">
        <ele>441.3</ele>
        <time>2019-10-18T10:25:53Z</time>
      </trkpt>
      <trkpt lat="37.0955980" lon="-2.1558990">
        <ele>441.5</ele>
        <time>2019-10-18T10:25:54Z</time>
      </trkpt>
      <trkpt lat="37.0955710" lon="-2.1559240">
        <ele>441.7</ele>
        <time>2019-10-18T10:25:55Z</time>
      </trkpt>
      <trkpt lat="37.0955450" lon="-2.1559490">
        <ele>442.0</ele>
        <time>2019-10-18T10:25:56Z</time>
      </trkpt>
      <trkpt lat="37.0955190" lon="-2.1559730">
        <ele>442.3</ele>
        <time>2019-10-18T10:25:57Z</time>
      </trkpt>
      <trkpt lat="37.0954930" lon="-2.1559980">
        <ele>442.6</ele>
        <time>2019-10-18T10:25:58Z</time>
      </trkpt>
      <trkpt lat="37.0954670" lon="-2.1560240">
        <ele>442.9</ele>
        <time>2019-10-18T10:25:59Z</time>
      </trkpt>
      <trkpt lat="37.0954420" lon="-2.1560500">
        <ele>443.2</ele>
        <time>2019-10-18T10:26:00Z</time>
      </trkpt>
      <trkpt lat="37.0954180" lon="-2.1560760">
        <ele>443.5</ele>
        <time>2019-10-18T10:26:01Z</time>
      </trkpt>
      <trkpt lat="37.0953940" lon="-2.1561030">
        <ele>443.8</ele>
        <time>2019-10-18T10:26:02Z</time>
      </trkpt>
      <trkpt lat="37.0953690" lon="-2.1561280">
        <ele>444.1</ele>
        <time>2019-10-18T10:26:03Z</time>
      </trkpt>
      <trkpt lat="37.0953440" lon="-2.1561530">
        <ele>444.4</ele>
        <time>2019-10-18T10:26:04Z</time>
      </trkpt>
      <trkpt lat="37.0953200" lon="-2.1561770">
        <ele>444.8</ele>
        <time>2019-10-18T10:26:05Z</time>
      </trkpt>
      <trkpt lat="37.0952940" lon="-2.1562030">
        <ele>445.2</ele>
        <time>2019-10-18T10:26:06Z</time>
      </trkpt>
      <trkpt lat="37.0952670" lon="-2.1562280">
        <ele>445.6</ele>
        <time>2019-10-18T10:26:07Z</time>
      </trkpt>
      <trkpt lat="37.0952400" lon="-2.1562520">
        <ele>445.9</ele>
        <time>2019-10-18T10:26:08Z</time>
      </trkpt>
      <trkpt lat="37.0952130" lon="-2.1562750">
        <ele>446.3</ele>
        <time>2019-10-18T10:26:09Z</time>
      </trkpt>
      <trkpt lat="37.0951860" lon="-2.1563010">
        <ele>446.9</ele>
        <time>2019-10-18T10:26:10Z</time>
      </trkpt>
      <trkpt lat="37.0951600" lon="-2.1563270">
        <ele>447.4</ele>
        <time>2019-10-18T10:26:11Z</time>
      </trkpt>
      <trkpt lat="37.0951350" lon="-2.1563530">
        <ele>447.7</ele>
        <time>2019-10-18T10:26:12Z</time>
      </trkpt>
      <trkpt lat="37.0951090" lon="-2.1563780">
        <ele>448.0</ele>
        <time>2019-10-18T10:26:13Z</time>
      </trkpt>
      <trkpt lat="37.0950840" lon="-2.1564040">
        <ele>448.3</ele>
        <time>2019-10-18T10:26:14Z</time>
      </trkpt>
      <trkpt lat="37.0950570" lon="-2.1564280">
        <ele>448.6</ele>
        <time>2019-10-18T10:26:15Z</time>
      </trkpt>
      <trkpt lat="37.0950290" lon="-2.1564520">
        <ele>448.9</ele>
        <time>2019-10-18T10:26:16Z</time>
      </trkpt>
      <trkpt lat="37.0950020" lon="-2.1564750">
        <ele>449.1</ele>
        <time>2019-10-18T10:26:17Z</time>
      </trkpt>
      <trkpt lat="37.0949750" lon="-2.1565010">
        <ele>449.1</ele>
        <time>2019-10-18T10:26:18Z</time>
      </trkpt>
      <trkpt lat="37.0949490" lon="-2.1565260">
        <ele>449.1</ele>
        <time>2019-10-18T10:26:19Z</time>
      </trkpt>
      <trkpt lat="37.0949230" lon="-2.1565500">
        <ele>449.1</ele>
        <time>2019-10-18T10:26:20Z</time>
      </trkpt>
      <trkpt lat="37.0948960" lon="-2.1565750">
        <ele>449.1</ele>
        <time>2019-10-18T10:26:21Z</time>
      </trkpt>
      <trkpt lat="37.0948700" lon="-2.1566000">
        <ele>449.1</ele>
        <time>2019-10-18T10:26:22Z</time>
      </trkpt>
      <trkpt lat="37.0948450" lon="-2.1566240">
        <ele>449.0</ele>
        <time>2019-10-18T10:26:23Z</time>
      </trkpt>
      <trkpt lat="37.0948190" lon="-2.1566460">
        <ele>449.0</ele>
        <time>2019-10-18T10:26:24Z</time>
      </trkpt>
      <trkpt lat="37.0947940" lon="-2.1566690">
        <ele>449.0</ele>
        <time>2019-10-18T10:26:25Z</time>
      </trkpt>
      <trkpt lat="37.0947690" lon="-2.1566930">
        <ele>449.0</ele>
        <time>2019-10-18T10:26:26Z</time>
      </trkpt>
      <trkpt lat="37.0947440" lon="-2.1567170">
        <ele>449.0</ele>
        <time>2019-10-18T10:26:27Z</time>
      </trkpt>
      <trkpt lat="37.0947190" lon="-2.1567400">
        <ele>449.0</ele>
        <time>2019-10-18T10:26:28Z</time>
      </trkpt>
      <trkpt lat="37.0946940" lon="-2.1567630">
        <ele>449.0</ele>
        <time>2019-10-18T10:26:29Z</time>
      </trkpt>
      <trkpt lat="37.0946700" lon="-2.1567880">
        <ele>449.0</ele>
        <time>2019-10-18T10:26:30Z</time>
      </trkpt>
      <trkpt lat="37.0946480" lon="-2.1568140">
        <ele>449.0</ele>
        <time>2019-10-18T10:26:31Z</time>
      </trkpt>
      <trkpt lat="37.0946270" lon="-2.1568430">
        <ele>449.0</ele>
        <time>2019-10-18T10:26:32Z</time>
      </trkpt>
      <trkpt lat="37.0946070" lon="-2.1568720">
        <ele>449.0</ele>
        <time>2019-10-18T10:26:33Z</time>
      </trkpt>
      <trkpt lat="37.0945880" lon="-2.1569030">
        <ele>448.9</ele>
        <time>2019-10-18T10:26:34Z</time>
      </trkpt>
      <trkpt lat="37.0945690" lon="-2.1569340">
        <ele>448.9</ele>
        <time>2019-10-18T10:26:35Z</time>
      </trkpt>
      <trkpt lat="37.0945510" lon="-2.1569650">
        <ele>448.8</ele>
        <time>2019-10-18T10:26:36Z</time>
      </trkpt>
      <trkpt lat="37.0945340" lon="-2.1569960">
        <ele>448.7</ele>
        <time>2019-10-18T10:26:37Z</time>
      </trkpt>
      <trkpt lat="37.0945170" lon="-2.1570260">
        <ele>448.7</ele>
        <time>2019-10-18T10:26:38Z</time>
      </trkpt>
      <trkpt lat="37.0945020" lon="-2.1570570">
        <ele>448.6</ele>
        <time>2019-10-18T10:26:39Z</time>
      </trkpt>
      <trkpt lat="37.0944860" lon="-2.1570890">
        <ele>448.6</ele>
        <time>2019-10-18T10:26:40Z</time>
      </trkpt>
      <trkpt lat="37.0944730" lon="-2.1571210">
        <ele>448.5</ele>
        <time>2019-10-18T10:26:41Z</time>
      </trkpt>
      <trkpt lat="37.0944610" lon="-2.1571540">
        <ele>448.4</ele>
        <time>2019-10-18T10:26:42Z</time>
      </trkpt>
      <trkpt lat="37.0944510" lon="-2.1571900">
        <ele>448.4</ele>
        <time>2019-10-18T10:26:43Z</time>
      </trkpt>
      <trkpt lat="37.0944400" lon="-2.1572280">
        <ele>448.4</ele>
        <time>2019-10-18T10:26:44Z</time>
      </trkpt>
      <trkpt lat="37.0944300" lon="-2.1572670">
        <ele>448.3</ele>
        <time>2019-10-18T10:26:45Z</time>
      </trkpt>
      <trkpt lat="37.0944200" lon="-2.1573060">
        <ele>448.2</ele>
        <time>2019-10-18T10:26:46Z</time>
      </trkpt>
      <trkpt lat="37.0944130" lon="-2.1573450">
        <ele>448.0</ele>
        <time>2019-10-18T10:26:47Z</time>
      </trkpt>
      <trkpt lat="37.0944090" lon="-2.1573830">
        <ele>447.8</ele>
        <time>2019-10-18T10:26:48Z</time>
      </trkpt>
      <trkpt lat="37.0944050" lon="-2.1574220">
        <ele>447.6</ele>
        <time>2019-10-18T10:26:49Z</time>
      </trkpt>
      <trkpt lat="37.0944020" lon="-2.1574610">
        <ele>447.4</ele>
        <time>2019-10-18T10:26:50Z</time>
      </trkpt>
      <trkpt lat="37.0943990" lon="-2.1575000">
        <ele>447.2</ele>
        <time>2019-10-18T10:26:51Z</time>
      </trkpt>
      <trkpt lat="37.0943980" lon="-2.1575380">
        <ele>447.1</ele>
        <time>2019-10-18T10:26:52Z</time>
      </trkpt>
      <trkpt lat="37.0943980" lon="-2.1575760">
        <ele>447.0</ele>
        <time>2019-10-18T10:26:53Z</time>
      </trkpt>
      <trkpt lat="37.0943980" lon="-2.1576140">
        <ele>446.9</ele>
        <time>2019-10-18T10:26:54Z</time>
      </trkpt>
      <trkpt lat="37.0943980" lon="-2.1576520">
        <ele>446.9</ele>
        <time>2019-10-18T10:26:55Z</time>
      </trkpt>
      <trkpt lat="37.0943990" lon="-2.1576900">
        <ele>447.1</ele>
        <time>2019-10-18T10:26:56Z</time>
      </trkpt>
      <trkpt lat="37.0944000" lon="-2.1577290">
        <ele>447.3</ele>
        <time>2019-10-18T10:26:57Z</time>
      </trkpt>
      <trkpt lat="37.0944030" lon="-2.1577670">
        <ele>447.3</ele>
        <time>2019-10-18T10:26:58Z</time>
      </trkpt>
      <trkpt lat="37.0944060" lon="-2.1578060">
        <ele>447.4</ele>
        <time>2019-10-18T10:26:59Z</time>
      </trkpt>
      <trkpt lat="37.0944110" lon="-2.1578440">
        <ele>447.4</ele>
        <time>2019-10-18T10:27:00Z</time>
      </trkpt>
      <trkpt lat="37.0944160" lon="-2.1578830">
        <ele>447.4</ele>
        <time>2019-10-18T10:27:01Z</time>
      </trkpt>
      <trkpt lat="37.0944220" lon="-2.1579210">
        <ele>447.4</ele>
        <time>2019-10-18T10:27:02Z</time>
      </trkpt>
      <trkpt lat="37.0944270" lon="-2.1579590">
        <ele>447.5</ele>
        <time>2019-10-18T10:27:03Z</time>
      </trkpt>
      <trkpt lat="37.0944320" lon="-2.1579970">
        <ele>447.7</ele>
        <time>2019-10-18T10:27:04Z</time>
      </trkpt>
      <trkpt lat="37.0944380" lon="-2.1580360">
        <ele>447.7</ele>
        <time>2019-10-18T10:27:05Z</time>
      </trkpt>
      <trkpt lat="37.0944460" lon="-2.1580750">
        <ele>447.6</ele>
        <time>2019-10-18T10:27:06Z</time>
      </trkpt>
      <trkpt lat="37.0944550" lon="-2.1581140">
        <ele>447.5</ele>
        <time>2019-10-18T10:27:07Z</time>
      </trkpt>
      <trkpt lat="37.0944630" lon="-2.1581520">
        <ele>447.7</ele>
        <time>2019-10-18T10:27:08Z</time>
      </trkpt>
      <trkpt lat="37.0944720" lon="-2.1581910">
        <ele>448.0</ele>
        <time>2019-10-18T10:27:09Z</time>
      </trkpt>
      <trkpt lat="37.0944800" lon="-2.1582290">
        <ele>448.1</ele>
        <time>2019-10-18T10:27:10Z</time>
      </trkpt>
      <trkpt lat="37.0944900" lon="-2.1582670">
        <ele>448.2</ele>
        <time>2019-10-18T10:27:11Z</time>
      </trkpt>
      <trkpt lat="37.0945020" lon="-2.1583040">
        <ele>448.3</ele>
        <time>2019-10-18T10:27:12Z</time>
      </trkpt>
      <trkpt lat="37.0945160" lon="-2.1583400">
        <ele>448.7</ele>
        <time>2019-10-18T10:27:13Z</time>
      </trkpt>
      <trkpt lat="37.0945310" lon="-2.1583760">
        <ele>449.1</ele>
        <time>2019-10-18T10:27:14Z</time>
      </trkpt>
      <trkpt lat="37.0945450" lon="-2.1584120">
        <ele>449.5</ele>
        <time>2019-10-18T10:27:15Z</time>
      </trkpt>
      <trkpt lat="37.0945590" lon="-2.1584480">
        <ele>449.8</ele>
        <time>2019-10-18T10:27:16Z</time>
      </trkpt>
      <trkpt lat="37.0945740" lon="-2.1584830">
        <ele>450.2</ele>
        <time>2019-10-18T10:27:17Z</time>
      </trkpt>
      <trkpt lat="37.0945880" lon="-2.1585180">
        <ele>450.5</ele>
        <time>2019-10-18T10:27:18Z</time>
      </trkpt>
      <trkpt lat="37.0946020" lon="-2.1585530">
        <ele>450.8</ele>
        <time>2019-10-18T10:27:19Z</time>
      </trkpt>
      <trkpt lat="37.0946160" lon="-2.1585880">
        <ele>451.2</ele>
        <time>2019-10-18T10:27:20Z</time>
      </trkpt>
      <trkpt lat="37.0946300" lon="-2.1586240">
        <ele>451.5</ele>
        <time>2019-10-18T10:27:21Z</time>
      </trkpt>
      <trkpt lat="37.0946440" lon="-2.1586610">
        <ele>451.9</ele>
        <time>2019-10-18T10:27:22Z</time>
      </trkpt>
      <trkpt lat="37.0946570" lon="-2.1586990">
        <ele>452.2</ele>
        <time>2019-10-18T10:27:23Z</time>
      </trkpt>
      <trkpt lat="37.0946700" lon="-2.1587370">
        <ele>452.6</ele>
        <time>2019-10-18T10:27:24Z</time>
      </trkpt>
      <trkpt lat="37.0946830" lon="-2.1587760">
        <ele>453.1</ele>
        <time>2019-10-18T10:27:25Z</time>
      </trkpt>
      <trkpt lat="37.0946940" lon="-2.1588160">
        <ele>453.6</ele>
        <time>2019-10-18T10:27:26Z</time>
      </trkpt>
      <trkpt lat="37.0947040" lon="-2.1588550">
        <ele>454.1</ele>
        <time>2019-10-18T10:27:27Z</time>
      </trkpt>
      <trkpt lat="37.0947110" lon="-2.1588950">
        <ele>454.7</ele>
        <time>2019-10-18T10:27:28Z</time>
      </trkpt>
      <trkpt lat="37.0947160" lon="-2.1589360">
        <ele>455.0</ele>
        <time>2019-10-18T10:27:29Z</time>
      </trkpt>
      <trkpt lat="37.0947200" lon="-2.1589780">
        <ele>455.2</ele>
        <time>2019-10-18T10:27:30Z</time>
      </trkpt>
      <trkpt lat="37.0947230" lon="-2.1590210">
        <ele>455.6</ele>
        <time>2019-10-18T10:27:31Z</time>
      </trkpt>
      <trkpt lat="37.0947240" lon="-2.1590630">
        <ele>456.0</ele>
        <time>2019-10-18T10:27:32Z</time>
      </trkpt>
      <trkpt lat="37.0947230" lon="-2.1591060">
        <ele>456.0</ele>
        <time>2019-10-18T10:27:33Z</time>
      </trkpt>
      <trkpt lat="37.0947190" lon="-2.1591480">
        <ele>455.8</ele>
        <time>2019-10-18T10:27:34Z</time>
      </trkpt>
      <trkpt lat="37.0947150" lon="-2.1591910">
        <ele>455.8</ele>
        <time>2019-10-18T10:27:35Z</time>
      </trkpt>
      <trkpt lat="37.0947100" lon="-2.1592330">
        <ele>455.9</ele>
        <time>2019-10-18T10:27:36Z</time>
      </trkpt>
      <trkpt lat="37.0947060" lon="-2.1592760">
        <ele>455.9</ele>
        <time>2019-10-18T10:27:37Z</time>
      </trkpt>
      <trkpt lat="37.0947010" lon="-2.1593180">
        <ele>456.0</ele>
        <time>2019-10-18T10:27:38Z</time>
      </trkpt>
      <trkpt lat="37.0946940" lon="-2.1593600">
        <ele>456.1</ele>
        <time>2019-10-18T10:27:39Z</time>
      </trkpt>
      <trkpt lat="37.0946870" lon="-2.1594010">
        <ele>456.0</ele>
        <time>2019-10-18T10:27:40Z</time>
      </trkpt>
      <trkpt lat="37.0946780" lon="-2.1594420">
        <ele>455.9</ele>
        <time>2019-10-18T10:27:41Z</time>
      </trkpt>
      <trkpt lat="37.0946680" lon="-2.1594820">
        <ele>455.9</ele>
        <time>2019-10-18T10:27:42Z</time>
      </trkpt>
      <trkpt lat="37.0946570" lon="-2.1595210">
        <ele>455.8</ele>
        <time>2019-10-18T10:27:43Z</time>
      </trkpt>
      <trkpt lat="37.0946460" lon="-2.1595610">
        <ele>455.7</ele>
        <time>2019-10-18T10:27:44Z</time>
      </trkpt>
      <trkpt lat="37.0946350" lon="-2.1596020">
        <ele>455.7</ele>
        <time>2019-10-18T10:27:45Z</time>
      </trkpt>
      <trkpt lat="37.0946240" lon="-2.1596420">
        <ele>455.7</ele>
        <time>2019-10-18T10:27:46Z</time>
      </trkpt>
      <trkpt lat="37.0946120" lon="-2.1596830">
        <ele>455.7</ele>
        <time>2019-10-18T10:27:47Z</time>
      </trkpt>
      <trkpt lat="37.0945990" lon="-2.1597240">
        <ele>455.8</ele>
        <time>2019-10-18T10:27:48Z</time>
      </trkpt>
      <trkpt lat="37.0945860" lon="-2.1597630">
        <ele>455.7</ele>
        <time>2019-10-18T10:27:49Z</time>
      </trkpt>
      <trkpt lat="37.0945720" lon="-2.1598030">
        <ele>455.5</ele>
        <time>2019-10-18T10:27:50Z</time>
      </trkpt>
      <trkpt lat="37.0945590" lon="-2.1598430">
        <ele>455.4</ele>
        <time>2019-10-18T10:27:51Z</time>
      </trkpt>
      <trkpt lat="37.0945450" lon="-2.1598840">
        <ele>455.3</ele>
        <time>2019-10-18T10:27:52Z</time>
      </trkpt>
      <trkpt lat="37.0945320" lon="-2.1599240">
        <ele>455.1</ele>
        <time>2019-10-18T10:27:53Z</time>
      </trkpt>
      <trkpt lat="37.0945200" lon="-2.1599650">
        <ele>455.1</ele>
        <time>2019-10-18T10:27:54Z</time>
      </trkpt>
      <trkpt lat="37.0945080" lon="-2.1600070">
        <ele>455.0</ele>
        <time>2019-10-18T10:27:55Z</time>
      </trkpt>
      <trkpt lat="37.0944950" lon="-2.1600490">
        <ele>455.0</ele>
        <time>2019-10-18T10:27:56Z</time>
      </trkpt>
      <trkpt lat="37.0944830" lon="-2.1600930">
        <ele>454.9</ele>
        <time>2019-10-18T10:27:57Z</time>
      </trkpt>
      <trkpt lat="37.0944710" lon="-2.1601390">
        <ele>454.9</ele>
        <time>2019-10-18T10:27:58Z</time>
      </trkpt>
      <trkpt lat="37.0944590" lon="-2.1601860">
        <ele>454.9</ele>
        <time>2019-10-18T10:27:59Z</time>
      </trkpt>
      <trkpt lat="37.0944480" lon="-2.1602350">
        <ele>455.0</ele>
        <time>2019-10-18T10:28:00Z</time>
      </trkpt>
      <trkpt lat="37.0944420" lon="-2.1602860">
        <ele>455.1</ele>
        <time>2019-10-18T10:28:01Z</time>
      </trkpt>
      <trkpt lat="37.0944400" lon="-2.1603390">
        <ele>455.2</ele>
        <time>2019-10-18T10:28:02Z</time>
      </trkpt>
      <trkpt lat="37.0944410" lon="-2.1603940">
        <ele>455.3</ele>
        <time>2019-10-18T10:28:03Z</time>
      </trkpt>
      <trkpt lat="37.0944410" lon="-2.1604490">
        <ele>455.5</ele>
        <time>2019-10-18T10:28:04Z</time>
      </trkpt>
      <trkpt lat="37.0944420" lon="-2.1605050">
        <ele>455.8</ele>
        <time>2019-10-18T10:28:05Z</time>
      </trkpt>
      <trkpt lat="37.0944430" lon="-2.1605600">
        <ele>456.1</ele>
        <time>2019-10-18T10:28:06Z</time>
      </trkpt>
      <trkpt lat="37.0944450" lon="-2.1606150">
        <ele>456.3</ele>
        <time>2019-10-18T10:28:07Z</time>
      </trkpt>
      <trkpt lat="37.0944470" lon="-2.1606700">
        <ele>456.4</ele>
        <time>2019-10-18T10:28:08Z</time>
      </trkpt>
      <trkpt lat="37.0944500" lon="-2.1607250">
        <ele>456.6</ele>
        <time>2019-10-18T10:28:09Z</time>
      </trkpt>
      <trkpt lat="37.0944530" lon="-2.1607800">
        <ele>456.7</ele>
        <time>2019-10-18T10:28:10Z</time>
      </trkpt>
      <trkpt lat="37.0944570" lon="-2.1608370">
        <ele>456.5</ele>
        <time>2019-10-18T10:28:11Z</time>
      </trkpt>
      <trkpt lat="37.0944610" lon="-2.1608940">
        <ele>456.3</ele>
        <time>2019-10-18T10:28:12Z</time>
      </trkpt>
      <trkpt lat="37.0944670" lon="-2.1609520">
        <ele>456.2</ele>
        <time>2019-10-18T10:28:13Z</time>
      </trkpt>
      <trkpt lat="37.0944730" lon="-2.1610100">
        <ele>456.0</ele>
        <time>2019-10-18T10:28:14Z</time>
      </trkpt>
      <trkpt lat="37.0944790" lon="-2.1610690">
        <ele>455.8</ele>
        <time>2019-10-18T10:28:15Z</time>
      </trkpt>
      <trkpt lat="37.0944850" lon="-2.1611280">
        <ele>455.6</ele>
        <time>2019-10-18T10:28:16Z</time>
      </trkpt>
      <trkpt lat="37.0944890" lon="-2.1611880">
        <ele>455.5</ele>
        <time>2019-10-18T10:28:17Z</time>
      </trkpt>
      <trkpt lat="37.0944930" lon="-2.1612470">
        <ele>455.3</ele>
        <time>2019-10-18T10:28:18Z</time>
      </trkpt>
      <trkpt lat="37.0944960" lon="-2.1613070">
        <ele>455.3</ele>
        <time>2019-10-18T10:28:19Z</time>
      </trkpt>
      <trkpt lat="37.0945000" lon="-2.1613660">
        <ele>454.9</ele>
        <time>2019-10-18T10:28:20Z</time>
      </trkpt>
      <trkpt lat="37.0945050" lon="-2.1614260">
        <ele>454.6</ele>
        <time>2019-10-18T10:28:21Z</time>
      </trkpt>
      <trkpt lat="37.0945100" lon="-2.1614850">
        <ele>454.4</ele>
        <time>2019-10-18T10:28:22Z</time>
      </trkpt>
      <trkpt lat="37.0945160" lon="-2.1615440">
        <ele>454.3</ele>
        <time>2019-10-18T10:28:23Z</time>
      </trkpt>
      <trkpt lat="37.0945200" lon="-2.1616040">
        <ele>454.3</ele>
        <time>2019-10-18T10:28:24Z</time>
      </trkpt>
      <trkpt lat="37.0945240" lon="-2.1616660">
        <ele>454.4</ele>
        <time>2019-10-18T10:28:25Z</time>
      </trkpt>
      <trkpt lat="37.0945280" lon="-2.1617280">
        <ele>454.7</ele>
        <time>2019-10-18T10:28:26Z</time>
      </trkpt>
      <trkpt lat="37.0945310" lon="-2.1617920">
        <ele>454.9</ele>
        <time>2019-10-18T10:28:27Z</time>
      </trkpt>
      <trkpt lat="37.0945320" lon="-2.1618560">
        <ele>455.1</ele>
        <time>2019-10-18T10:28:28Z</time>
      </trkpt>
      <trkpt lat="37.0945310" lon="-2.1619220">
        <ele>455.3</ele>
        <time>2019-10-18T10:28:29Z</time>
      </trkpt>
      <trkpt lat="37.0945290" lon="-2.1619880">
        <ele>455.4</ele>
        <time>2019-10-18T10:28:30Z</time>
      </trkpt>
      <trkpt lat="37.0945260" lon="-2.1620530">
        <ele>455.5</ele>
        <time>2019-10-18T10:28:31Z</time>
      </trkpt>
      <trkpt lat="37.0945230" lon="-2.1621190">
        <ele>455.4</ele>
        <time>2019-10-18T10:28:32Z</time>
      </trkpt>
      <trkpt lat="37.0945190" lon="-2.1621850">
        <ele>455.4</ele>
        <time>2019-10-18T10:28:33Z</time>
      </trkpt>
      <trkpt lat="37.0945130" lon="-2.1622510">
        <ele>455.4</ele>
        <time>2019-10-18T10:28:34Z</time>
      </trkpt>
      <trkpt lat="37.0945060" lon="-2.1623150">
        <ele>455.4</ele>
        <time>2019-10-18T10:28:35Z</time>
      </trkpt>
      <trkpt lat="37.0944990" lon="-2.1623770">
        <ele>455.5</ele>
        <time>2019-10-18T10:28:36Z</time>
      </trkpt>
      <trkpt lat="37.0944910" lon="-2.1624380">
        <ele>455.5</ele>
        <time>2019-10-18T10:28:37Z</time>
      </trkpt>
      <trkpt lat="37.0944830" lon="-2.1624980">
        <ele>455.6</ele>
        <time>2019-10-18T10:28:38Z</time>
      </trkpt>
      <trkpt lat="37.0944740" lon="-2.1625540">
        <ele>455.7</ele>
        <time>2019-10-18T10:28:39Z</time>
      </trkpt>
      <trkpt lat="37.0944610" lon="-2.1626060">
        <ele>455.7</ele>
        <time>2019-10-18T10:28:40Z</time>
      </trkpt>
      <trkpt lat="37.0944410" lon="-2.1626510">
        <ele>455.8</ele>
        <time>2019-10-18T10:28:41Z</time>
      </trkpt>
      <trkpt lat="37.0944150" lon="-2.1626790">
        <ele>455.9</ele>
        <time>2019-10-18T10:28:42Z</time>
      </trkpt>
      <trkpt lat="37.0943860" lon="-2.1626830">
        <ele>455.9</ele>
        <time>2019-10-18T10:28:43Z</time>
      </trkpt>
      <trkpt lat="37.0943580" lon="-2.1626710">
        <ele>455.7</ele>
        <time>2019-10-18T10:28:44Z</time>
      </trkpt>
      <trkpt lat="37.0943290" lon="-2.1626460">
        <ele>455.5</ele>
        <time>2019-10-18T10:28:45Z</time>
      </trkpt>
      <trkpt lat="37.0942970" lon="-2.1626130">
        <ele>455.2</ele>
        <time>2019-10-18T10:28:46Z</time>
      </trkpt>
      <trkpt lat="37.0942640" lon="-2.1625720">
        <ele>454.9</ele>
        <time>2019-10-18T10:28:47Z</time>
      </trkpt>
      <trkpt lat="37.0942300" lon="-2.1625310">
        <ele>454.6</ele>
        <time>2019-10-18T10:28:48Z</time>
      </trkpt>
      <trkpt lat="37.0941940" lon="-2.1624920">
        <ele>454.2</ele>
        <time>2019-10-18T10:28:49Z</time>
      </trkpt>
      <trkpt lat="37.0941540" lon="-2.1624530">
        <ele>453.9</ele>
        <time>2019-10-18T10:28:50Z</time>
      </trkpt>
      <trkpt lat="37.0941100" lon="-2.1624120">
        <ele>453.5</ele>
        <time>2019-10-18T10:28:51Z</time>
      </trkpt>
      <trkpt lat="37.0940630" lon="-2.1623710">
        <ele>453.1</ele>
        <time>2019-10-18T10:28:52Z</time>
      </trkpt>
      <trkpt lat="37.0940130" lon="-2.1623300">
        <ele>452.8</ele>
        <time>2019-10-18T10:28:53Z</time>
      </trkpt>
      <trkpt lat="37.0939620" lon="-2.1622870">
        <ele>452.6</ele>
        <time>2019-10-18T10:28:54Z</time>
      </trkpt>
      <trkpt lat="37.0939100" lon="-2.1622420">
        <ele>452.4</ele>
        <time>2019-10-18T10:28:55Z</time>
      </trkpt>
      <trkpt lat="37.0938580" lon="-2.1621960">
        <ele>452.3</ele>
        <time>2019-10-18T10:28:56Z</time>
      </trkpt>
      <trkpt lat="37.0938090" lon="-2.1621490">
        <ele>452.1</ele>
        <time>2019-10-18T10:28:57Z</time>
      </trkpt>
      <trkpt lat="37.0937630" lon="-2.1621010">
        <ele>452.0</ele>
        <time>2019-10-18T10:28:58Z</time>
      </trkpt>
      <trkpt lat="37.0937210" lon="-2.1620500">
        <ele>451.8</ele>
        <time>2019-10-18T10:28:59Z</time>
      </trkpt>
      <trkpt lat="37.0936820" lon="-2.1619970">
        <ele>451.6</ele>
        <time>2019-10-18T10:29:00Z</time>
      </trkpt>
      <trkpt lat="37.0936450" lon="-2.1619460">
        <ele>451.5</ele>
        <time>2019-10-18T10:29:01Z</time>
      </trkpt>
      <trkpt lat="37.0936060" lon="-2.1619020">
        <ele>451.4</ele>
        <time>2019-10-18T10:29:02Z</time>
      </trkpt>
      <trkpt lat="37.0935590" lon="-2.1618760">
        <ele>451.3</ele>
        <time>2019-10-18T10:29:03Z</time>
      </trkpt>
      <trkpt lat="37.0935070" lon="-2.1618690">
        <ele>451.3</ele>
        <time>2019-10-18T10:29:04Z</time>
      </trkpt>
      <trkpt lat="37.0934540" lon="-2.1618860">
        <ele>451.4</ele>
        <time>2019-10-18T10:29:05Z</time>
      </trkpt>
      <trkpt lat="37.0934090" lon="-2.1619180">
        <ele>451.4</ele>
        <time>2019-10-18T10:29:06Z</time>
      </trkpt>
      <trkpt lat="37.0933720" lon="-2.1619630">
        <ele>451.3</ele>
        <time>2019-10-18T10:29:07Z</time>
      </trkpt>
      <trkpt lat="37.0933370" lon="-2.1620080">
        <ele>451.2</ele>
        <time>2019-10-18T10:29:08Z</time>
      </trkpt>
      <trkpt lat="37.0933020" lon="-2.1620560">
        <ele>451.2</ele>
        <time>2019-10-18T10:29:09Z</time>
      </trkpt>
      <trkpt lat="37.0932670" lon="-2.1621020">
        <ele>451.1</ele>
        <time>2019-10-18T10:29:10Z</time>
      </trkpt>
      <trkpt lat="37.0932330" lon="-2.1621460">
        <ele>450.9</ele>
        <time>2019-10-18T10:29:11Z</time>
      </trkpt>
      <trkpt lat="37.0931990" lon="-2.1621890">
        <ele>450.8</ele>
        <time>2019-10-18T10:29:12Z</time>
      </trkpt>
      <trkpt lat="37.0931670" lon="-2.1622290">
        <ele>450.6</ele>
        <time>2019-10-18T10:29:13Z</time>
      </trkpt>
      <trkpt lat="37.0931350" lon="-2.1622680">
        <ele>450.4</ele>
        <time>2019-10-18T10:29:14Z</time>
      </trkpt>
      <trkpt lat="37.0931040" lon="-2.1623070">
        <ele>450.3</ele>
        <time>2019-10-18T10:29:15Z</time>
      </trkpt>
      <trkpt lat="37.0930730" lon="-2.1623450">
        <ele>450.2</ele>
        <time>2019-10-18T10:29:16Z</time>
      </trkpt>
      <trkpt lat="37.0930440" lon="-2.1623830">
        <ele>450.2</ele>
        <time>2019-10-18T10:29:17Z</time>
      </trkpt>
      <trkpt lat="37.0930140" lon="-2.1624190">
        <ele>450.0</ele>
        <time>2019-10-18T10:29:18Z</time>
      </trkpt>
      <trkpt lat="37.0929850" lon="-2.1624560">
        <ele>449.9</ele>
        <time>2019-10-18T10:29:19Z</time>
      </trkpt>
      <trkpt lat="37.0929550" lon="-2.1624920">
        <ele>449.8</ele>
        <time>2019-10-18T10:29:20Z</time>
      </trkpt>
      <trkpt lat="37.0929260" lon="-2.1625290">
        <ele>449.7</ele>
        <time>2019-10-18T10:29:21Z</time>
      </trkpt>
      <trkpt lat="37.0928980" lon="-2.1625660">
        <ele>449.7</ele>
        <time>2019-10-18T10:29:22Z</time>
      </trkpt>
      <trkpt lat="37.0928690" lon="-2.1626030">
        <ele>449.7</ele>
        <time>2019-10-18T10:29:23Z</time>
      </trkpt>
      <trkpt lat="37.0928410" lon="-2.1626380">
        <ele>449.7</ele>
        <time>2019-10-18T10:29:24Z</time>
      </trkpt>
      <trkpt lat="37.0928130" lon="-2.1626730">
        <ele>449.7</ele>
        <time>2019-10-18T10:29:25Z</time>
      </trkpt>
      <trkpt lat="37.0927830" lon="-2.1627080">
        <ele>449.6</ele>
        <time>2019-10-18T10:29:26Z</time>
      </trkpt>
      <trkpt lat="37.0927510" lon="-2.1627410">
        <ele>449.6</ele>
        <time>2019-10-18T10:29:27Z</time>
      </trkpt>
      <trkpt lat="37.0927170" lon="-2.1627740">
        <ele>449.5</ele>
        <time>2019-10-18T10:29:28Z</time>
      </trkpt>
      <trkpt lat="37.0926810" lon="-2.1628060">
        <ele>449.4</ele>
        <time>2019-10-18T10:29:29Z</time>
      </trkpt>
      <trkpt lat="37.0926430" lon="-2.1628370">
        <ele>449.2</ele>
        <time>2019-10-18T10:29:30Z</time>
      </trkpt>
      <trkpt lat="37.0926020" lon="-2.1628650">
        <ele>449.1</ele>
        <time>2019-10-18T10:29:31Z</time>
      </trkpt>
      <trkpt lat="37.0925590" lon="-2.1628890">
        <ele>448.9</ele>
        <time>2019-10-18T10:29:32Z</time>
      </trkpt>
      <trkpt lat="37.0925140" lon="-2.1629110">
        <ele>448.7</ele>
        <time>2019-10-18T10:29:33Z</time>
      </trkpt>
      <trkpt lat="37.0924680" lon="-2.1629310">
        <ele>448.6</ele>
        <time>2019-10-18T10:29:34Z</time>
      </trkpt>
      <trkpt lat="37.0924230" lon="-2.1629510">
        <ele>448.4</ele>
        <time>2019-10-18T10:29:35Z</time>
      </trkpt>
      <trkpt lat="37.0923790" lon="-2.1629730">
        <ele>448.2</ele>
        <time>2019-10-18T10:29:36Z</time>
      </trkpt>
      <trkpt lat="37.0923380" lon="-2.1629990">
        <ele>448.1</ele>
        <time>2019-10-18T10:29:37Z</time>
      </trkpt>
      <trkpt lat="37.0922990" lon="-2.1630260">
        <ele>447.9</ele>
        <time>2019-10-18T10:29:38Z</time>
      </trkpt>
      <trkpt lat="37.0922630" lon="-2.1630540">
        <ele>447.7</ele>
        <time>2019-10-18T10:29:39Z</time>
      </trkpt>
      <trkpt lat="37.0922300" lon="-2.1630840">
        <ele>447.5</ele>
        <time>2019-10-18T10:29:40Z</time>
      </trkpt>
      <trkpt lat="37.0921980" lon="-2.1631140">
        <ele>447.3</ele>
        <time>2019-10-18T10:29:41Z</time>
      </trkpt>
      <trkpt lat="37.0921660" lon="-2.1631470">
        <ele>447.2</ele>
        <time>2019-10-18T10:29:42Z</time>
      </trkpt>
      <trkpt lat="37.0921340" lon="-2.1631800">
        <ele>447.1</ele>
        <time>2019-10-18T10:29:43Z</time>
      </trkpt>
      <trkpt lat="37.0921010" lon="-2.1632140">
        <ele>447.1</ele>
        <time>2019-10-18T10:29:44Z</time>
      </trkpt>
      <trkpt lat="37.0920690" lon="-2.1632490">
        <ele>447.1</ele>
        <time>2019-10-18T10:29:45Z</time>
      </trkpt>
      <trkpt lat="37.0920360" lon="-2.1632840">
        <ele>447.1</ele>
        <time>2019-10-18T10:29:46Z</time>
      </trkpt>
      <trkpt lat="37.0920030" lon="-2.1633200">
        <ele>447.2</ele>
        <time>2019-10-18T10:29:47Z</time>
      </trkpt>
      <trkpt lat="37.0919690" lon="-2.1633570">
        <ele>447.3</ele>
        <time>2019-10-18T10:29:48Z</time>
      </trkpt>
      <trkpt lat="37.0919360" lon="-2.1633950">
        <ele>447.4</ele>
        <time>2019-10-18T10:29:49Z</time>
      </trkpt>
      <trkpt lat="37.0919040" lon="-2.1634340">
        <ele>447.5</ele>
        <time>2019-10-18T10:29:50Z</time>
      </trkpt>
      <trkpt lat="37.0918710" lon="-2.1634700">
        <ele>447.6</ele>
        <time>2019-10-18T10:29:51Z</time>
      </trkpt>
      <trkpt lat="37.0918400" lon="-2.1635050">
        <ele>447.9</ele>
        <time>2019-10-18T10:29:52Z</time>
      </trkpt>
      <trkpt lat="37.0918080" lon="-2.1635380">
        <ele>448.0</ele>
        <time>2019-10-18T10:29:53Z</time>
      </trkpt>
      <trkpt lat="37.0917750" lon="-2.1635680">
        <ele>448.0</ele>
        <time>2019-10-18T10:29:54Z</time>
      </trkpt>
      <trkpt lat="37.0917410" lon="-2.1635970">
        <ele>448.1</ele>
        <time>2019-10-18T10:29:55Z</time>
      </trkpt>
      <trkpt lat="37.0917060" lon="-2.1636250">
        <ele>448.3</ele>
        <time>2019-10-18T10:29:56Z</time>
      </trkpt>
      <trkpt lat="37.0916700" lon="-2.1636530">
        <ele>448.3</ele>
        <time>2019-10-18T10:29:57Z</time>
      </trkpt>
      <trkpt lat="37.0916340" lon="-2.1636800">
        <ele>448.2</ele>
        <time>2019-10-18T10:29:58Z</time>
      </trkpt>
      <trkpt lat="37.0915970" lon="-2.1637090">
        <ele>448.1</ele>
        <time>2019-10-18T10:29:59Z</time>
      </trkpt>
      <trkpt lat="37.0915610" lon="-2.1637400">
        <ele>448.0</ele>
        <time>2019-10-18T10:30:00Z</time>
      </trkpt>
      <trkpt lat="37.0915260" lon="-2.1637730">
        <ele>448.0</ele>
        <time>2019-10-18T10:30:01Z</time>
      </trkpt>
      <trkpt lat="37.0914900" lon="-2.1638080">
        <ele>448.0</ele>
        <time>2019-10-18T10:30:02Z</time>
      </trkpt>
      <trkpt lat="37.0914560" lon="-2.1638460">
        <ele>447.9</ele>
        <time>2019-10-18T10:30:03Z</time>
      </trkpt>
      <trkpt lat="37.0914210" lon="-2.1638840">
        <ele>447.8</ele>
        <time>2019-10-18T10:30:04Z</time>
      </trkpt>
      <trkpt lat="37.0913850" lon="-2.1639220">
        <ele>447.8</ele>
        <time>2019-10-18T10:30:05Z</time>
      </trkpt>
      <trkpt lat="37.0913470" lon="-2.1639570">
        <ele>447.6</ele>
        <time>2019-10-18T10:30:06Z</time>
      </trkpt>
      <trkpt lat="37.0913060" lon="-2.1639910">
        <ele>447.5</ele>
        <time>2019-10-18T10:30:07Z</time>
      </trkpt>
      <trkpt lat="37.0912650" lon="-2.1640230">
        <ele>447.7</ele>
        <time>2019-10-18T10:30:08Z</time>
      </trkpt>
      <trkpt lat="37.0912220" lon="-2.1640570">
        <ele>447.7</ele>
        <time>2019-10-18T10:30:09Z</time>
      </trkpt>
      <trkpt lat="37.0911800" lon="-2.1640900">
        <ele>447.8</ele>
        <time>2019-10-18T10:30:10Z</time>
      </trkpt>
      <trkpt lat="37.0911380" lon="-2.1641230">
        <ele>447.8</ele>
        <time>2019-10-18T10:30:11Z</time>
      </trkpt>
      <trkpt lat="37.0910970" lon="-2.1641560">
        <ele>448.4</ele>
        <time>2019-10-18T10:30:12Z</time>
      </trkpt>
      <trkpt lat="37.0910560" lon="-2.1641900">
        <ele>448.6</ele>
        <time>2019-10-18T10:30:13Z</time>
      </trkpt>
      <trkpt lat="37.0910170" lon="-2.1642260">
        <ele>448.4</ele>
        <time>2019-10-18T10:30:14Z</time>
      </trkpt>
      <trkpt lat="37.0909760" lon="-2.1642620">
        <ele>448.1</ele>
        <time>2019-10-18T10:30:15Z</time>
      </trkpt>
      <trkpt lat="37.0909350" lon="-2.1642960">
        <ele>447.8</ele>
        <time>2019-10-18T10:30:16Z</time>
      </trkpt>
      <trkpt lat="37.0908940" lon="-2.1643290">
        <ele>447.6</ele>
        <time>2019-10-18T10:30:17Z</time>
      </trkpt>
      <trkpt lat="37.0908530" lon="-2.1643630">
        <ele>447.4</ele>
        <time>2019-10-18T10:30:18Z</time>
      </trkpt>
      <trkpt lat="37.0908100" lon="-2.1643970">
        <ele>447.2</ele>
        <time>2019-10-18T10:30:19Z</time>
      </trkpt>
      <trkpt lat="37.0907660" lon="-2.1644310">
        <ele>446.7</ele>
        <time>2019-10-18T10:30:20Z</time>
      </trkpt>
      <trkpt lat="37.0907210" lon="-2.1644650">
        <ele>446.2</ele>
        <time>2019-10-18T10:30:21Z</time>
      </trkpt>
      <trkpt lat="37.0906750" lon="-2.1644970">
        <ele>445.7</ele>
        <time>2019-10-18T10:30:22Z</time>
      </trkpt>
      <trkpt lat="37.0906300" lon="-2.1645300">
        <ele>445.2</ele>
        <time>2019-10-18T10:30:23Z</time>
      </trkpt>
      <trkpt lat="37.0905860" lon="-2.1645610">
        <ele>444.8</ele>
        <time>2019-10-18T10:30:24Z</time>
      </trkpt>
      <trkpt lat="37.0905420" lon="-2.1645880">
        <ele>444.6</ele>
        <time>2019-10-18T10:30:25Z</time>
      </trkpt>
      <trkpt lat="37.0904970" lon="-2.1646110">
        <ele>444.2</ele>
        <time>2019-10-18T10:30:26Z</time>
      </trkpt>
      <trkpt lat="37.0904520" lon="-2.1646290">
        <ele>443.8</ele>
        <time>2019-10-18T10:30:27Z</time>
      </trkpt>
      <trkpt lat="37.0904060" lon="-2.1646460">
        <ele>443.5</ele>
        <time>2019-10-18T10:30:28Z</time>
      </trkpt>
      <trkpt lat="37.0903590" lon="-2.1646600">
        <ele>443.2</ele>
        <time>2019-10-18T10:30:29Z</time>
      </trkpt>
      <trkpt lat="37.0903130" lon="-2.1646720">
        <ele>442.9</ele>
        <time>2019-10-18T10:30:30Z</time>
      </trkpt>
      <trkpt lat="37.0902680" lon="-2.1646840">
        <ele>442.6</ele>
        <time>2019-10-18T10:30:31Z</time>
      </trkpt>
      <trkpt lat="37.0902230" lon="-2.1646980">
        <ele>442.2</ele>
        <time>2019-10-18T10:30:32Z</time>
      </trkpt>
      <trkpt lat="37.0901780" lon="-2.1647110">
        <ele>441.9</ele>
        <time>2019-10-18T10:30:33Z</time>
      </trkpt>
      <trkpt lat="37.0901340" lon="-2.1647240">
        <ele>441.6</ele>
        <time>2019-10-18T10:30:34Z</time>
      </trkpt>
      <trkpt lat="37.0900900" lon="-2.1647360">
        <ele>441.6</ele>
        <time>2019-10-18T10:30:35Z</time>
      </trkpt>
      <trkpt lat="37.0900460" lon="-2.1647470">
        <ele>441.6</ele>
        <time>2019-10-18T10:30:36Z</time>
      </trkpt>
      <trkpt lat="37.0900020" lon="-2.1647550">
        <ele>441.5</ele>
        <time>2019-10-18T10:30:37Z</time>
      </trkpt>
      <trkpt lat="37.0899570" lon="-2.1647610">
        <ele>441.0</ele>
        <time>2019-10-18T10:30:38Z</time>
      </trkpt>
      <trkpt lat="37.0899120" lon="-2.1647650">
        <ele>440.4</ele>
        <time>2019-10-18T10:30:39Z</time>
      </trkpt>
      <trkpt lat="37.0898650" lon="-2.1647690">
        <ele>439.6</ele>
        <time>2019-10-18T10:30:40Z</time>
      </trkpt>
      <trkpt lat="37.0898180" lon="-2.1647720">
        <ele>439.1</ele>
        <time>2019-10-18T10:30:41Z</time>
      </trkpt>
      <trkpt lat="37.0897710" lon="-2.1647740">
        <ele>438.6</ele>
        <time>2019-10-18T10:30:42Z</time>
      </trkpt>
      <trkpt lat="37.0897250" lon="-2.1647760">
        <ele>438.2</ele>
        <time>2019-10-18T10:30:43Z</time>
      </trkpt>
      <trkpt lat="37.0896780" lon="-2.1647780">
        <ele>437.9</ele>
        <time>2019-10-18T10:30:44Z</time>
      </trkpt>
      <trkpt lat="37.0896320" lon="-2.1647760">
        <ele>437.6</ele>
        <time>2019-10-18T10:30:45Z</time>
      </trkpt>
      <trkpt lat="37.0895870" lon="-2.1647720">
        <ele>437.5</ele>
        <time>2019-10-18T10:30:46Z</time>
      </trkpt>
      <trkpt lat="37.0895430" lon="-2.1647630">
        <ele>437.4</ele>
        <time>2019-10-18T10:30:47Z</time>
      </trkpt>
      <trkpt lat="37.0895010" lon="-2.1647500">
        <ele>437.4</ele>
        <time>2019-10-18T10:30:48Z</time>
      </trkpt>
      <trkpt lat="37.0894600" lon="-2.1647340">
        <ele>437.5</ele>
        <time>2019-10-18T10:30:49Z</time>
      </trkpt>
      <trkpt lat="37.0894180" lon="-2.1647210">
        <ele>437.8</ele>
        <time>2019-10-18T10:30:50Z</time>
      </trkpt>
      <trkpt lat="37.0893740" lon="-2.1647160">
        <ele>438.2</ele>
        <time>2019-10-18T10:30:51Z</time>
      </trkpt>
      <trkpt lat="37.0893260" lon="-2.1647190">
        <ele>438.7</ele>
        <time>2019-10-18T10:30:52Z</time>
      </trkpt>
      <trkpt lat="37.0892760" lon="-2.1647260">
        <ele>439.3</ele>
        <time>2019-10-18T10:30:53Z</time>
      </trkpt>
      <trkpt lat="37.0892250" lon="-2.1647330">
        <ele>440.1</ele>
        <time>2019-10-18T10:30:54Z</time>
      </trkpt>
      <trkpt lat="37.0891760" lon="-2.1647370">
        <ele>440.9</ele>
        <time>2019-10-18T10:30:55Z</time>
      </trkpt>
      <trkpt lat="37.0891300" lon="-2.1647340">
        <ele>441.4</ele>
        <time>2019-10-18T10:30:56Z</time>
      </trkpt>
      <trkpt lat="37.0890860" lon="-2.1647220">
        <ele>442.0</ele>
        <time>2019-10-18T10:30:57Z</time>
      </trkpt>
      <trkpt lat="37.0890430" lon="-2.1647050">
        <ele>442.3</ele>
        <time>2019-10-18T10:30:58Z</time>
      </trkpt>
      <trkpt lat="37.0890020" lon="-2.1646850">
        <ele>442.5</ele>
        <time>2019-10-18T10:30:59Z</time>
      </trkpt>
      <trkpt lat="37.0889620" lon="-2.1646690">
        <ele>442.4</ele>
        <time>2019-10-18T10:31:00Z</time>
      </trkpt>
      <trkpt lat="37.0889220" lon="-2.1646550">
        <ele>442.3</ele>
        <time>2019-10-18T10:31:01Z</time>
      </trkpt>
      <trkpt lat="37.0888840" lon="-2.1646460">
        <ele>442.4</ele>
        <time>2019-10-18T10:31:02Z</time>
      </trkpt>
      <trkpt lat="37.0888490" lon="-2.1646400">
        <ele>442.6</ele>
        <time>2019-10-18T10:31:03Z</time>
      </trkpt>
      <trkpt lat="37.0888160" lon="-2.1646330">
        <ele>442.9</ele>
        <time>2019-10-18T10:31:04Z</time>
      </trkpt>
      <trkpt lat="37.0887850" lon="-2.1646220">
        <ele>443.3</ele>
        <time>2019-10-18T10:31:05Z</time>
      </trkpt>
      <trkpt lat="37.0887550" lon="-2.1646060">
        <ele>443.6</ele>
        <time>2019-10-18T10:31:06Z</time>
      </trkpt>
      <trkpt lat="37.0887260" lon="-2.1645850">
        <ele>443.8</ele>
        <time>2019-10-18T10:31:07Z</time>
      </trkpt>
      <trkpt lat="37.0886960" lon="-2.1645590">
        <ele>444.2</ele>
        <time>2019-10-18T10:31:08Z</time>
      </trkpt>
      <trkpt lat="37.0886670" lon="-2.1645280">
        <ele>444.7</ele>
        <time>2019-10-18T10:31:09Z</time>
      </trkpt>
      <trkpt lat="37.0886360" lon="-2.1644950">
        <ele>444.9</ele>
        <time>2019-10-18T10:31:10Z</time>
      </trkpt>
      <trkpt lat="37.0886030" lon="-2.1644620">
        <ele>445.1</ele>
        <time>2019-10-18T10:31:11Z</time>
      </trkpt>
      <trkpt lat="37.0885680" lon="-2.1644290">
        <ele>445.3</ele>
        <time>2019-10-18T10:31:12Z</time>
      </trkpt>
      <trkpt lat="37.0885320" lon="-2.1643970">
        <ele>445.6</ele>
        <time>2019-10-18T10:31:13Z</time>
      </trkpt>
      <trkpt lat="37.0884940" lon="-2.1643680">
        <ele>445.8</ele>
        <time>2019-10-18T10:31:14Z</time>
      </trkpt>
      <trkpt lat="37.0884530" lon="-2.1643470">
        <ele>446.0</ele>
        <time>2019-10-18T10:31:15Z</time>
      </trkpt>
      <trkpt lat="37.0884110" lon="-2.1643390">
        <ele>446.2</ele>
        <time>2019-10-18T10:31:16Z</time>
      </trkpt>
      <trkpt lat="37.0883740" lon="-2.1643460">
        <ele>446.7</ele>
        <time>2019-10-18T10:31:17Z</time>
      </trkpt>
      <trkpt lat="37.0883410" lon="-2.1643630">
        <ele>447.3</ele>
        <time>2019-10-18T10:31:18Z</time>
      </trkpt>
      <trkpt lat="37.0883130" lon="-2.1643850">
        <ele>447.8</ele>
        <time>2019-10-18T10:31:19Z</time>
      </trkpt>
      <trkpt lat="37.0882870" lon="-2.1644080">
        <ele>448.5</ele>
        <time>2019-10-18T10:31:20Z</time>
      </trkpt>
      <trkpt lat="37.0882610" lon="-2.1644290">
        <ele>449.1</ele>
        <time>2019-10-18T10:31:21Z</time>
      </trkpt>
      <trkpt lat="37.0882330" lon="-2.1644480">
        <ele>449.5</ele>
        <time>2019-10-18T10:31:22Z</time>
      </trkpt>
      <trkpt lat="37.0882050" lon="-2.1644610">
        <ele>449.7</ele>
        <time>2019-10-18T10:31:23Z</time>
      </trkpt>
      <trkpt lat="37.0881750" lon="-2.1644720">
        <ele>449.8</ele>
        <time>2019-10-18T10:31:24Z</time>
      </trkpt>
      <trkpt lat="37.0881450" lon="-2.1644790">
        <ele>449.9</ele>
        <time>2019-10-18T10:31:25Z</time>
      </trkpt>
      <trkpt lat="37.0881180" lon="-2.1644850">
        <ele>450.2</ele>
        <time>2019-10-18T10:31:26Z</time>
      </trkpt>
      <trkpt lat="37.0880940" lon="-2.1644910">
        <ele>450.4</ele>
        <time>2019-10-18T10:31:27Z</time>
      </trkpt>
      <trkpt lat="37.0880710" lon="-2.1645000">
        <ele>450.7</ele>
        <time>2019-10-18T10:31:28Z</time>
      </trkpt>
      <trkpt lat="37.0880490" lon="-2.1645150">
        <ele>451.2</ele>
        <time>2019-10-18T10:31:29Z</time>
      </trkpt>
      <trkpt lat="37.0880290" lon="-2.1645370">
        <ele>451.8</ele>
        <time>2019-10-18T10:31:30Z</time>
      </trkpt>
      <trkpt lat="37.0880110" lon="-2.1645650">
        <ele>452.4</ele>
        <time>2019-10-18T10:31:31Z</time>
      </trkpt>
      <trkpt lat="37.0879960" lon="-2.1645970">
        <ele>452.9</ele>
        <time>2019-10-18T10:31:32Z</time>
      </trkpt>
      <trkpt lat="37.0879800" lon="-2.1646280">
        <ele>453.4</ele>
        <time>2019-10-18T10:31:33Z</time>
      </trkpt>
      <trkpt lat="37.0879630" lon="-2.1646570">
        <ele>453.9</ele>
        <time>2019-10-18T10:31:34Z</time>
      </trkpt>
      <trkpt lat="37.0879450" lon="-2.1646820">
        <ele>454.4</ele>
        <time>2019-10-18T10:31:35Z</time>
      </trkpt>
      <trkpt lat="37.0879260" lon="-2.1647020">
        <ele>454.8</ele>
        <time>2019-10-18T10:31:36Z</time>
      </trkpt>
      <trkpt lat="37.0879070" lon="-2.1647170">
        <ele>455.0</ele>
        <time>2019-10-18T10:31:37Z</time>
      </trkpt>
      <trkpt lat="37.0878880" lon="-2.1647270">
        <ele>455.2</ele>
        <time>2019-10-18T10:31:38Z</time>
      </trkpt>
      <trkpt lat="37.0878680" lon="-2.1647330">
        <ele>455.3</ele>
        <time>2019-10-18T10:31:39Z</time>
      </trkpt>
      <trkpt lat="37.0878480" lon="-2.1647370">
        <ele>455.4</ele>
        <time>2019-10-18T10:31:40Z</time>
      </trkpt>
      <trkpt lat="37.0878260" lon="-2.1647450">
        <ele>455.5</ele>
        <time>2019-10-18T10:31:41Z</time>
      </trkpt>
      <trkpt lat="37.0878020" lon="-2.1647570">
        <ele>455.9</ele>
        <time>2019-10-18T10:31:42Z</time>
      </trkpt>
      <trkpt lat="37.0877760" lon="-2.1647760">
        <ele>456.3</ele>
        <time>2019-10-18T10:31:43Z</time>
      </trkpt>
      <trkpt lat="37.0877500" lon="-2.1647970">
        <ele>456.7</ele>
        <time>2019-10-18T10:31:44Z</time>
      </trkpt>
      <trkpt lat="37.0877230" lon="-2.1648180">
        <ele>457.1</ele>
        <time>2019-10-18T10:31:45Z</time>
      </trkpt>
      <trkpt lat="37.0876940" lon="-2.1648350">
        <ele>457.4</ele>
        <time>2019-10-18T10:31:46Z</time>
      </trkpt>
      <trkpt lat="37.0876630" lon="-2.1648490">
        <ele>457.6</ele>
        <time>2019-10-18T10:31:47Z</time>
      </trkpt>
      <trkpt lat="37.0876330" lon="-2.1648610">
        <ele>457.8</ele>
        <time>2019-10-18T10:31:48Z</time>
      </trkpt>
      <trkpt lat="37.0876010" lon="-2.1648710">
        <ele>458.0</ele>
        <time>2019-10-18T10:31:49Z</time>
      </trkpt>
      <trkpt lat="37.0875700" lon="-2.1648790">
        <ele>458.1</ele>
        <time>2019-10-18T10:31:50Z</time>
      </trkpt>
      <trkpt lat="37.0875380" lon="-2.1648870">
        <ele>458.1</ele>
        <time>2019-10-18T10:31:51Z</time>
      </trkpt>
      <trkpt lat="37.0875060" lon="-2.1648970">
        <ele>458.1</ele>
        <time>2019-10-18T10:31:52Z</time>
      </trkpt>
      <trkpt lat="37.0874740" lon="-2.1649100">
        <ele>458.0</ele>
        <time>2019-10-18T10:31:53Z</time>
      </trkpt>
      <trkpt lat="37.0874430" lon="-2.1649270">
        <ele>458.1</ele>
        <time>2019-10-18T10:31:54Z</time>
      </trkpt>
      <trkpt lat="37.0874160" lon="-2.1649490">
        <ele>458.2</ele>
        <time>2019-10-18T10:31:55Z</time>
      </trkpt>
      <trkpt lat="37.0873940" lon="-2.1649770">
        <ele>458.2</ele>
        <time>2019-10-18T10:31:56Z</time>
      </trkpt>
      <trkpt lat="37.0873790" lon="-2.1650090">
        <ele>458.3</ele>
        <time>2019-10-18T10:31:57Z</time>
      </trkpt>
      <trkpt lat="37.0873670" lon="-2.1650420">
        <ele>458.5</ele>
        <time>2019-10-18T10:31:58Z</time>
      </trkpt>
      <trkpt lat="37.0873580" lon="-2.1650730">
        <ele>458.9</ele>
        <time>2019-10-18T10:31:59Z</time>
      </trkpt>
      <trkpt lat="37.0873500" lon="-2.1651030">
        <ele>459.3</ele>
        <time>2019-10-18T10:32:00Z</time>
      </trkpt>
      <trkpt lat="37.0873430" lon="-2.1651320">
        <ele>459.6</ele>
        <time>2019-10-18T10:32:01Z</time>
      </trkpt>
      <trkpt lat="37.0873360" lon="-2.1651590">
        <ele>459.9</ele>
        <time>2019-10-18T10:32:02Z</time>
      </trkpt>
      <trkpt lat="37.0873280" lon="-2.1651850">
        <ele>460.1</ele>
        <time>2019-10-18T10:32:03Z</time>
      </trkpt>
      <trkpt lat="37.0873200" lon="-2.1652110">
        <ele>460.4</ele>
        <time>2019-10-18T10:32:04Z</time>
      </trkpt>
      <trkpt lat="37.0873110" lon="-2.1652350">
        <ele>460.6</ele>
        <time>2019-10-18T10:32:05Z</time>
      </trkpt>
      <trkpt lat="37.0873020" lon="-2.1652590">
        <ele>460.8</ele>
        <time>2019-10-18T10:32:06Z</time>
      </trkpt>
      <trkpt lat="37.0872910" lon="-2.1652820">
        <ele>461.0</ele>
        <time>2019-10-18T10:32:07Z</time>
      </trkpt>
      <trkpt lat="37.0872800" lon="-2.1653060">
        <ele>461.2</ele>
        <time>2019-10-18T10:32:08Z</time>
      </trkpt>
      <trkpt lat="37.0872690" lon="-2.1653290">
        <ele>461.4</ele>
        <time>2019-10-18T10:32:09Z</time>
      </trkpt>
      <trkpt lat="37.0872570" lon="-2.1653520">
        <ele>461.4</ele>
        <time>2019-10-18T10:32:10Z</time>
      </trkpt>
      <trkpt lat="37.0872450" lon="-2.1653740">
        <ele>461.5</ele>
        <time>2019-10-18T10:32:11Z</time>
      </trkpt>
      <trkpt lat="37.0872330" lon="-2.1653950">
        <ele>461.6</ele>
        <time>2019-10-18T10:32:12Z</time>
      </trkpt>
      <trkpt lat="37.0872210" lon="-2.1654170">
        <ele>461.8</ele>
        <time>2019-10-18T10:32:13Z</time>
      </trkpt>
      <trkpt lat="37.0872080" lon="-2.1654370">
        <ele>462.0</ele>
        <time>2019-10-18T10:32:14Z</time>
      </trkpt>
      <trkpt lat="37.0871960" lon="-2.1654580">
        <ele>462.2</ele>
        <time>2019-10-18T10:32:15Z</time>
      </trkpt>
      <trkpt lat="37.0871840" lon="-2.1654790">
        <ele>462.3</ele>
        <time>2019-10-18T10:32:16Z</time>
      </trkpt>
      <trkpt lat="37.0871720" lon="-2.1655010">
        <ele>462.5</ele>
        <time>2019-10-18T10:32:17Z</time>
      </trkpt>
      <trkpt lat="37.0871620" lon="-2.1655230">
        <ele>462.7</ele>
        <time>2019-10-18T10:32:18Z</time>
      </trkpt>
      <trkpt lat="37.0871530" lon="-2.1655450">
        <ele>462.8</ele>
        <time>2019-10-18T10:32:19Z</time>
      </trkpt>
      <trkpt lat="37.0871430" lon="-2.1655660">
        <ele>463.0</ele>
        <time>2019-10-18T10:32:20Z</time>
      </trkpt>
      <trkpt lat="37.0871330" lon="-2.1655860">
        <ele>463.1</ele>
        <time>2019-10-18T10:32:21Z</time>
      </trkpt>
      <trkpt lat="37.0871230" lon="-2.1656060">
        <ele>463.2</ele>
        <time>2019-10-18T10:32:22Z</time>
      </trkpt>
      <trkpt lat="37.0871120" lon="-2.1656270">
        <ele>463.3</ele>
        <time>2019-10-18T10:32:23Z</time>
      </trkpt>
      <trkpt lat="37.0871000" lon="-2.1656490">
        <ele>463.5</ele>
        <time>2019-10-18T10:32:24Z</time>
      </trkpt>
      <trkpt lat="37.0870900" lon="-2.1656720">
        <ele>463.6</ele>
        <time>2019-10-18T10:32:25Z</time>
      </trkpt>
      <trkpt lat="37.0870800" lon="-2.1656950">
        <ele>463.7</ele>
        <time>2019-10-18T10:32:26Z</time>
      </trkpt>
      <trkpt lat="37.0870700" lon="-2.1657180">
        <ele>463.9</ele>
        <time>2019-10-18T10:32:27Z</time>
      </trkpt>
      <trkpt lat="37.0870580" lon="-2.1657410">
        <ele>464.1</ele>
        <time>2019-10-18T10:32:28Z</time>
      </trkpt>
      <trkpt lat="37.0870460" lon="-2.1657640">
        <ele>464.2</ele>
        <time>2019-10-18T10:32:29Z</time>
      </trkpt>
      <trkpt lat="37.0870350" lon="-2.1657870">
        <ele>464.4</ele>
        <time>2019-10-18T10:32:30Z</time>
      </trkpt>
      <trkpt lat="37.0870240" lon="-2.1658110">
        <ele>464.5</ele>
        <time>2019-10-18T10:32:31Z</time>
      </trkpt>
      <trkpt lat="37.0870130" lon="-2.1658350">
        <ele>464.7</ele>
        <time>2019-10-18T10:32:32Z</time>
      </trkpt>
      <trkpt lat="37.0870020" lon="-2.1658600">
        <ele>464.9</ele>
        <time>2019-10-18T10:32:33Z</time>
      </trkpt>
      <trkpt lat="37.0869900" lon="-2.1658850">
        <ele>465.0</ele>
        <time>2019-10-18T10:32:34Z</time>
      </trkpt>
      <trkpt lat="37.0869800" lon="-2.1659110">
        <ele>465.2</ele>
        <time>2019-10-18T10:32:35Z</time>
      </trkpt>
      <trkpt lat="37.0869710" lon="-2.1659380">
        <ele>465.4</ele>
        <time>2019-10-18T10:32:36Z</time>
      </trkpt>
      <trkpt lat="37.0869610" lon="-2.1659640">
        <ele>465.6</ele>
        <time>2019-10-18T10:32:37Z</time>
      </trkpt>
      <trkpt lat="37.0869500" lon="-2.1659880">
        <ele>465.7</ele>
        <time>2019-10-18T10:32:38Z</time>
      </trkpt>
      <trkpt lat="37.0869390" lon="-2.1660110">
        <ele>465.9</ele>
        <time>2019-10-18T10:32:39Z</time>
      </trkpt>
      <trkpt lat="37.0869280" lon="-2.1660330">
        <ele>466.0</ele>
        <time>2019-10-18T10:32:40Z</time>
      </trkpt>
      <trkpt lat="37.0869200" lon="-2.1660550">
        <ele>466.1</ele>
        <time>2019-10-18T10:32:41Z</time>
      </trkpt>
      <trkpt lat="37.0869140" lon="-2.1660780">
        <ele>466.3</ele>
        <time>2019-10-18T10:32:42Z</time>
      </trkpt>
      <trkpt lat="37.0869090" lon="-2.1661020">
        <ele>466.4</ele>
        <time>2019-10-18T10:32:43Z</time>
      </trkpt>
      <trkpt lat="37.0869040" lon="-2.1661250">
        <ele>466.6</ele>
        <time>2019-10-18T10:32:44Z</time>
      </trkpt>
      <trkpt lat="37.0868970" lon="-2.1661490">
        <ele>466.7</ele>
        <time>2019-10-18T10:32:45Z</time>
      </trkpt>
      <trkpt lat="37.0868900" lon="-2.1661750">
        <ele>466.9</ele>
        <time>2019-10-18T10:32:46Z</time>
      </trkpt>
      <trkpt lat="37.0868840" lon="-2.1662020">
        <ele>467.0</ele>
        <time>2019-10-18T10:32:47Z</time>
      </trkpt>
      <trkpt lat="37.0868770" lon="-2.1662290">
        <ele>467.1</ele>
        <time>2019-10-18T10:32:48Z</time>
      </trkpt>
      <trkpt lat="37.0868710" lon="-2.1662560">
        <ele>467.2</ele>
        <time>2019-10-18T10:32:49Z</time>
      </trkpt>
      <trkpt lat="37.0868650" lon="-2.1662830">
        <ele>467.2</ele>
        <time>2019-10-18T10:32:50Z</time>
      </trkpt>
      <trkpt lat="37.0868590" lon="-2.1663100">
        <ele>467.4</ele>
        <time>2019-10-18T10:32:51Z</time>
      </trkpt>
      <trkpt lat="37.0868550" lon="-2.1663370">
        <ele>467.5</ele>
        <time>2019-10-18T10:32:52Z</time>
      </trkpt>
      <trkpt lat="37.0868530" lon="-2.1663630">
        <ele>467.7</ele>
        <time>2019-10-18T10:32:53Z</time>
      </trkpt>
      <trkpt lat="37.0868510" lon="-2.1663880">
        <ele>467.8</ele>
        <time>2019-10-18T10:32:54Z</time>
      </trkpt>
      <trkpt lat="37.0868510" lon="-2.1664130">
        <ele>467.8</ele>
        <time>2019-10-18T10:32:55Z</time>
      </trkpt>
      <trkpt lat="37.0868510" lon="-2.1664380">
        <ele>467.9</ele>
        <time>2019-10-18T10:32:56Z</time>
      </trkpt>
      <trkpt lat="37.0868520" lon="-2.1664660">
        <ele>467.9</ele>
        <time>2019-10-18T10:32:57Z</time>
      </trkpt>
      <trkpt lat="37.0868540" lon="-2.1664950">
        <ele>467.9</ele>
        <time>2019-10-18T10:32:58Z</time>
      </trkpt>
      <trkpt lat="37.0868570" lon="-2.1665240">
        <ele>467.9</ele>
        <time>2019-10-18T10:32:59Z</time>
      </trkpt>
      <trkpt lat="37.0868610" lon="-2.1665520">
        <ele>467.9</ele>
        <time>2019-10-18T10:33:00Z</time>
      </trkpt>
      <trkpt lat="37.0868660" lon="-2.1665790">
        <ele>467.9</ele>
        <time>2019-10-18T10:33:01Z</time>
      </trkpt>
      <trkpt lat="37.0868700" lon="-2.1666060">
        <ele>467.8</ele>
        <time>2019-10-18T10:33:02Z</time>
      </trkpt>
      <trkpt lat="37.0868750" lon="-2.1666330">
        <ele>467.8</ele>
        <time>2019-10-18T10:33:03Z</time>
      </trkpt>
      <trkpt lat="37.0868790" lon="-2.1666600">
        <ele>467.8</ele>
        <time>2019-10-18T10:33:04Z</time>
      </trkpt>
      <trkpt lat="37.0868840" lon="-2.1666850">
        <ele>467.7</ele>
        <time>2019-10-18T10:33:05Z</time>
      </trkpt>
      <trkpt lat="37.0868870" lon="-2.1667100">
        <ele>467.7</ele>
        <time>2019-10-18T10:33:06Z</time>
      </trkpt>
      <trkpt lat="37.0868900" lon="-2.1667370">
        <ele>467.6</ele>
        <time>2019-10-18T10:33:07Z</time>
      </trkpt>
      <trkpt lat="37.0868910" lon="-2.1667690">
        <ele>467.5</ele>
        <time>2019-10-18T10:33:08Z</time>
      </trkpt>
      <trkpt lat="37.0868930" lon="-2.1668070">
        <ele>467.5</ele>
        <time>2019-10-18T10:33:09Z</time>
      </trkpt>
      <trkpt lat="37.0868960" lon="-2.1668540">
        <ele>467.4</ele>
        <time>2019-10-18T10:33:10Z</time>
      </trkpt>
      <trkpt lat="37.0869010" lon="-2.1669080">
        <ele>467.3</ele>
        <time>2019-10-18T10:33:11Z</time>
      </trkpt>
      <trkpt lat="37.0869070" lon="-2.1669650">
        <ele>467.2</ele>
        <time>2019-10-18T10:33:12Z</time>
      </trkpt>
      <trkpt lat="37.0869160" lon="-2.1670210">
        <ele>467.1</ele>
        <time>2019-10-18T10:33:13Z</time>
      </trkpt>
      <trkpt lat="37.0869250" lon="-2.1670730">
        <ele>467.0</ele>
        <time>2019-10-18T10:33:14Z</time>
      </trkpt>
      <trkpt lat="37.0869320" lon="-2.1671180">
        <ele>466.8</ele>
        <time>2019-10-18T10:33:15Z</time>
      </trkpt>
      <trkpt lat="37.0869360" lon="-2.1671570">
        <ele>466.6</ele>
        <time>2019-10-18T10:33:16Z</time>
      </trkpt>
      <trkpt lat="37.0869330" lon="-2.1671920">
        <ele>466.5</ele>
        <time>2019-10-18T10:33:17Z</time>
      </trkpt>
      <trkpt lat="37.0869220" lon="-2.1672220">
        <ele>466.4</ele>
        <time>2019-10-18T10:33:18Z</time>
      </trkpt>
      <trkpt lat="37.0869060" lon="-2.1672450">
        <ele>466.3</ele>
        <time>2019-10-18T10:33:19Z</time>
      </trkpt>
      <trkpt lat="37.0868880" lon="-2.1672600">
        <ele>466.3</ele>
        <time>2019-10-18T10:33:20Z</time>
      </trkpt>
      <trkpt lat="37.0868680" lon="-2.1672660">
        <ele>466.3</ele>
        <time>2019-10-18T10:33:21Z</time>
      </trkpt>
      <trkpt lat="37.0868470" lon="-2.1672650">
        <ele>466.3</ele>
        <time>2019-10-18T10:33:22Z</time>
      </trkpt>
      <trkpt lat="37.0868250" lon="-2.1672590">
        <ele>466.2</ele>
        <time>2019-10-18T10:33:23Z</time>
      </trkpt>
      <trkpt lat="37.0868020" lon="-2.1672480">
        <ele>466.2</ele>
        <time>2019-10-18T10:33:24Z</time>
      </trkpt>
      <trkpt lat="37.0867780" lon="-2.1672360">
        <ele>466.2</ele>
        <time>2019-10-18T10:33:25Z</time>
      </trkpt>
      <trkpt lat="37.0867530" lon="-2.1672230">
        <ele>466.2</ele>
        <time>2019-10-18T10:33:26Z</time>
      </trkpt>
      <trkpt lat="37.0867290" lon="-2.1672070">
        <ele>466.2</ele>
        <time>2019-10-18T10:33:27Z</time>
      </trkpt>
      <trkpt lat="37.0867060" lon="-2.1671910">
        <ele>466.1</ele>
        <time>2019-10-18T10:33:28Z</time>
      </trkpt>
      <trkpt lat="37.0866820" lon="-2.1671770">
        <ele>466.1</ele>
        <time>2019-10-18T10:33:29Z</time>
      </trkpt>
      <trkpt lat="37.0866590" lon="-2.1671650">
        <ele>466.1</ele>
        <time>2019-10-18T10:33:30Z</time>
      </trkpt>
      <trkpt lat="37.0866360" lon="-2.1671540">
        <ele>466.1</ele>
        <time>2019-10-18T10:33:31Z</time>
      </trkpt>
      <trkpt lat="37.0866150" lon="-2.1671420">
        <ele>466.1</ele>
        <time>2019-10-18T10:33:32Z</time>
      </trkpt>
      <trkpt lat="37.0865940" lon="-2.1671290">
        <ele>466.1</ele>
        <time>2019-10-18T10:33:33Z</time>
      </trkpt>
      <trkpt lat="37.0865740" lon="-2.1671150">
        <ele>466.1</ele>
        <time>2019-10-18T10:33:34Z</time>
      </trkpt>
      <trkpt lat="37.0865540" lon="-2.1671000">
        <ele>466.2</ele>
        <time>2019-10-18T10:33:35Z</time>
      </trkpt>
      <trkpt lat="37.0865350" lon="-2.1670830">
        <ele>466.2</ele>
        <time>2019-10-18T10:33:36Z</time>
      </trkpt>
      <trkpt lat="37.0865180" lon="-2.1670640">
        <ele>466.2</ele>
        <time>2019-10-18T10:33:37Z</time>
      </trkpt>
      <trkpt lat="37.0865020" lon="-2.1670440">
        <ele>466.2</ele>
        <time>2019-10-18T10:33:38Z</time>
      </trkpt>
      <trkpt lat="37.0864860" lon="-2.1670230">
        <ele>466.4</ele>
        <time>2019-10-18T10:33:39Z</time>
      </trkpt>
      <trkpt lat="37.0864700" lon="-2.1670020">
        <ele>466.5</ele>
        <time>2019-10-18T10:33:40Z</time>
      </trkpt>
      <trkpt lat="37.0864540" lon="-2.1669820">
        <ele>466.7</ele>
        <time>2019-10-18T10:33:41Z</time>
      </trkpt>
      <trkpt lat="37.0864390" lon="-2.1669610">
        <ele>466.9</ele>
        <time>2019-10-18T10:33:42Z</time>
      </trkpt>
      <trkpt lat="37.0864250" lon="-2.1669400">
        <ele>467.1</ele>
        <time>2019-10-18T10:33:43Z</time>
      </trkpt>
      <trkpt lat="37.0864100" lon="-2.1669200">
        <ele>467.4</ele>
        <time>2019-10-18T10:33:44Z</time>
      </trkpt>
      <trkpt lat="37.0863940" lon="-2.1669020">
        <ele>467.6</ele>
        <time>2019-10-18T10:33:45Z</time>
      </trkpt>
      <trkpt lat="37.0863760" lon="-2.1668870">
        <ele>467.9</ele>
        <time>2019-10-18T10:33:46Z</time>
      </trkpt>
      <trkpt lat="37.0863590" lon="-2.1668730">
        <ele>468.0</ele>
        <time>2019-10-18T10:33:47Z</time>
      </trkpt>
      <trkpt lat="37.0863430" lon="-2.1668610">
        <ele>468.0</ele>
        <time>2019-10-18T10:33:48Z</time>
      </trkpt>
      <trkpt lat="37.0863250" lon="-2.1668490">
        <ele>468.1</ele>
        <time>2019-10-18T10:33:49Z</time>
      </trkpt>
      <trkpt lat="37.0863060" lon="-2.1668380">
        <ele>468.2</ele>
        <time>2019-10-18T10:33:50Z</time>
      </trkpt>
      <trkpt lat="37.0862850" lon="-2.1668270">
        <ele>468.3</ele>
        <time>2019-10-18T10:33:51Z</time>
      </trkpt>
      <trkpt lat="37.0862610" lon="-2.1668160">
        <ele>468.4</ele>
        <time>2019-10-18T10:33:52Z</time>
      </trkpt>
      <trkpt lat="37.0862330" lon="-2.1668020">
        <ele>468.6</ele>
        <time>2019-10-18T10:33:53Z</time>
      </trkpt>
      <trkpt lat="37.0861990" lon="-2.1667870">
        <ele>468.8</ele>
        <time>2019-10-18T10:33:54Z</time>
      </trkpt>
      <trkpt lat="37.0861590" lon="-2.1667700">
        <ele>468.9</ele>
        <time>2019-10-18T10:33:55Z</time>
      </trkpt>
      <trkpt lat="37.0861140" lon="-2.1667500">
        <ele>469.1</ele>
        <time>2019-10-18T10:33:56Z</time>
      </trkpt>
      <trkpt lat="37.0860640" lon="-2.1667280">
        <ele>469.4</ele>
        <time>2019-10-18T10:33:57Z</time>
      </trkpt>
      <trkpt lat="37.0860140" lon="-2.1667060">
        <ele>469.6</ele>
        <time>2019-10-18T10:33:58Z</time>
      </trkpt>
      <trkpt lat="37.0859640" lon="-2.1666830">
        <ele>469.8</ele>
        <time>2019-10-18T10:33:59Z</time>
      </trkpt>
      <trkpt lat="37.0859150" lon="-2.1666640">
        <ele>470.1</ele>
        <time>2019-10-18T10:34:00Z</time>
      </trkpt>
      <trkpt lat="37.0858680" lon="-2.1666510">
        <ele>470.4</ele>
        <time>2019-10-18T10:34:01Z</time>
      </trkpt>
      <trkpt lat="37.0858260" lon="-2.1666430">
        <ele>470.6</ele>
        <time>2019-10-18T10:34:02Z</time>
      </trkpt>
      <trkpt lat="37.0857910" lon="-2.1666350">
        <ele>470.8</ele>
        <time>2019-10-18T10:34:03Z</time>
      </trkpt>
      <trkpt lat="37.0857600" lon="-2.1666240">
        <ele>471.1</ele>
        <time>2019-10-18T10:34:04Z</time>
      </trkpt>
      <trkpt lat="37.0857340" lon="-2.1666090">
        <ele>471.3</ele>
        <time>2019-10-18T10:34:05Z</time>
      </trkpt>
      <trkpt lat="37.0857120" lon="-2.1665940">
        <ele>471.5</ele>
        <time>2019-10-18T10:34:06Z</time>
      </trkpt>
      <trkpt lat="37.0856920" lon="-2.1665800">
        <ele>471.6</ele>
        <time>2019-10-18T10:34:07Z</time>
      </trkpt>
      <trkpt lat="37.0856720" lon="-2.1665680">
        <ele>471.7</ele>
        <time>2019-10-18T10:34:08Z</time>
      </trkpt>
      <trkpt lat="37.0856520" lon="-2.1665560">
        <ele>471.9</ele>
        <time>2019-10-18T10:34:09Z</time>
      </trkpt>
      <trkpt lat="37.0856330" lon="-2.1665420">
        <ele>472.1</ele>
        <time>2019-10-18T10:34:10Z</time>
      </trkpt>
      <trkpt lat="37.0856150" lon="-2.1665270">
        <ele>472.3</ele>
        <time>2019-10-18T10:34:11Z</time>
      </trkpt>
      <trkpt lat="37.0855980" lon="-2.1665100">
        <ele>472.5</ele>
        <time>2019-10-18T10:34:12Z</time>
      </trkpt>
      <trkpt lat="37.0855790" lon="-2.1664950">
        <ele>472.7</ele>
        <time>2019-10-18T10:34:13Z</time>
      </trkpt>
      <trkpt lat="37.0855590" lon="-2.1664810">
        <ele>472.9</ele>
        <time>2019-10-18T10:34:14Z</time>
      </trkpt>
      <trkpt lat="37.0855380" lon="-2.1664710">
        <ele>473.0</ele>
        <time>2019-10-18T10:34:15Z</time>
      </trkpt>
      <trkpt lat="37.0855170" lon="-2.1664620">
        <ele>473.2</ele>
        <time>2019-10-18T10:34:16Z</time>
      </trkpt>
      <trkpt lat="37.0854950" lon="-2.1664530">
        <ele>473.3</ele>
        <time>2019-10-18T10:34:17Z</time>
      </trkpt>
      <trkpt lat="37.0854720" lon="-2.1664430">
        <ele>473.5</ele>
        <time>2019-10-18T10:34:18Z</time>
      </trkpt>
      <trkpt lat="37.0854500" lon="-2.1664330">
        <ele>473.6</ele>
        <time>2019-10-18T10:34:19Z</time>
      </trkpt>
      <trkpt lat="37.0854280" lon="-2.1664210">
        <ele>473.8</ele>
        <time>2019-10-18T10:34:20Z</time>
      </trkpt>
      <trkpt lat="37.0854060" lon="-2.1664090">
        <ele>473.9</ele>
        <time>2019-10-18T10:34:21Z</time>
      </trkpt>
      <trkpt lat="37.0853850" lon="-2.1663960">
        <ele>474.0</ele>
        <time>2019-10-18T10:34:22Z</time>
      </trkpt>
      <trkpt lat="37.0853650" lon="-2.1663820">
        <ele>474.1</ele>
        <time>2019-10-18T10:34:23Z</time>
      </trkpt>
      <trkpt lat="37.0853460" lon="-2.1663650">
        <ele>474.1</ele>
        <time>2019-10-18T10:34:24Z</time>
      </trkpt>
      <trkpt lat="37.0853270" lon="-2.1663480">
        <ele>474.2</ele>
        <time>2019-10-18T10:34:25Z</time>
      </trkpt>
      <trkpt lat="37.0853060" lon="-2.1663330">
        <ele>474.2</ele>
        <time>2019-10-18T10:34:26Z</time>
      </trkpt>
      <trkpt lat="37.0852860" lon="-2.1663190">
        <ele>474.2</ele>
        <time>2019-10-18T10:34:27Z</time>
      </trkpt>
      <trkpt lat="37.0852680" lon="-2.1663050">
        <ele>474.3</ele>
        <time>2019-10-18T10:34:28Z</time>
      </trkpt>
      <trkpt lat="37.0852500" lon="-2.1662900">
        <ele>474.4</ele>
        <time>2019-10-18T10:34:29Z</time>
      </trkpt>
      <trkpt lat="37.0852330" lon="-2.1662750">
        <ele>474.4</ele>
        <time>2019-10-18T10:34:30Z</time>
      </trkpt>
      <trkpt lat="37.0852170" lon="-2.1662600">
        <ele>474.5</ele>
        <time>2019-10-18T10:34:31Z</time>
      </trkpt>
      <trkpt lat="37.0852000" lon="-2.1662470">
        <ele>474.6</ele>
        <time>2019-10-18T10:34:32Z</time>
      </trkpt>
      <trkpt lat="37.0851820" lon="-2.1662330">
        <ele>474.7</ele>
        <time>2019-10-18T10:34:33Z</time>
      </trkpt>
      <trkpt lat="37.0851630" lon="-2.1662210">
        <ele>474.8</ele>
        <time>2019-10-18T10:34:34Z</time>
      </trkpt>
      <trkpt lat="37.0851430" lon="-2.1662080">
        <ele>474.9</ele>
        <time>2019-10-18T10:34:35Z</time>
      </trkpt>
      <trkpt lat="37.0851210" lon="-2.1661950">
        <ele>475.0</ele>
        <time>2019-10-18T10:34:36Z</time>
      </trkpt>
      <trkpt lat="37.0850980" lon="-2.1661810">
        <ele>475.2</ele>
        <time>2019-10-18T10:34:37Z</time>
      </trkpt>
      <trkpt lat="37.0850750" lon="-2.1661670">
        <ele>475.3</ele>
        <time>2019-10-18T10:34:38Z</time>
      </trkpt>
      <trkpt lat="37.0850520" lon="-2.1661510">
        <ele>475.5</ele>
        <time>2019-10-18T10:34:39Z</time>
      </trkpt>
      <trkpt lat="37.0850290" lon="-2.1661350">
        <ele>475.6</ele>
        <time>2019-10-18T10:34:40Z</time>
      </trkpt>
      <trkpt lat="37.0850070" lon="-2.1661190">
        <ele>475.8</ele>
        <time>2019-10-18T10:34:41Z</time>
      </trkpt>
      <trkpt lat="37.0849850" lon="-2.1661040">
        <ele>475.9</ele>
        <time>2019-10-18T10:34:42Z</time>
      </trkpt>
      <trkpt lat="37.0849630" lon="-2.1660900">
        <ele>476.0</ele>
        <time>2019-10-18T10:34:43Z</time>
      </trkpt>
      <trkpt lat="37.0849430" lon="-2.1660770">
        <ele>476.1</ele>
        <time>2019-10-18T10:34:44Z</time>
      </trkpt>
      <trkpt lat="37.0849230" lon="-2.1660650">
        <ele>476.2</ele>
        <time>2019-10-18T10:34:45Z</time>
      </trkpt>
      <trkpt lat="37.0849020" lon="-2.1660560">
        <ele>476.3</ele>
        <time>2019-10-18T10:34:46Z</time>
      </trkpt>
      <trkpt lat="37.0848810" lon="-2.1660490">
        <ele>476.4</ele>
        <time>2019-10-18T10:34:47Z</time>
      </trkpt>
      <trkpt lat="37.0848580" lon="-2.1660450">
        <ele>476.5</ele>
        <time>2019-10-18T10:34:48Z</time>
      </trkpt>
      <trkpt lat="37.0848340" lon="-2.1660420">
        <ele>476.7</ele>
        <time>2019-10-18T10:34:49Z</time>
      </trkpt>
      <trkpt lat="37.0848110" lon="-2.1660390">
        <ele>477.0</ele>
        <time>2019-10-18T10:34:50Z</time>
      </trkpt>
      <trkpt lat="37.0847890" lon="-2.1660370">
        <ele>477.2</ele>
        <time>2019-10-18T10:34:51Z</time>
      </trkpt>
      <trkpt lat="37.0847680" lon="-2.1660330">
        <ele>477.5</ele>
        <time>2019-10-18T10:34:52Z</time>
      </trkpt>
      <trkpt lat="37.0847490" lon="-2.1660300">
        <ele>477.6</ele>
        <time>2019-10-18T10:34:53Z</time>
      </trkpt>
      <trkpt lat="37.0847310" lon="-2.1660300">
        <ele>477.8</ele>
        <time>2019-10-18T10:34:54Z</time>
      </trkpt>
      <trkpt lat="37.0847150" lon="-2.1660320">
        <ele>477.9</ele>
        <time>2019-10-18T10:34:55Z</time>
      </trkpt>
      <trkpt lat="37.0847010" lon="-2.1660330">
        <ele>478.0</ele>
        <time>2019-10-18T10:34:56Z</time>
      </trkpt>
      <trkpt lat="37.0846860" lon="-2.1660330">
        <ele>478.1</ele>
        <time>2019-10-18T10:34:57Z</time>
      </trkpt>
      <trkpt lat="37.0846700" lon="-2.1660320">
        <ele>478.3</ele>
        <time>2019-10-18T10:34:58Z</time>
      </trkpt>
      <trkpt lat="37.0846520" lon="-2.1660310">
        <ele>478.5</ele>
        <time>2019-10-18T10:34:59Z</time>
      </trkpt>
      <trkpt lat="37.0846350" lon="-2.1660310">
        <ele>478.7</ele>
        <time>2019-10-18T10:35:00Z</time>
      </trkpt>
      <trkpt lat="37.0846170" lon="-2.1660300">
        <ele>478.9</ele>
        <time>2019-10-18T10:35:01Z</time>
      </trkpt>
      <trkpt lat="37.0846000" lon="-2.1660290">
        <ele>479.1</ele>
        <time>2019-10-18T10:35:02Z</time>
      </trkpt>
      <trkpt lat="37.0845840" lon="-2.1660260">
        <ele>479.3</ele>
        <time>2019-10-18T10:35:03Z</time>
      </trkpt>
      <trkpt lat="37.0845670" lon="-2.1660230">
        <ele>479.5</ele>
        <time>2019-10-18T10:35:04Z</time>
      </trkpt>
      <trkpt lat="37.0845510" lon="-2.1660190">
        <ele>479.6</ele>
        <time>2019-10-18T10:35:05Z</time>
      </trkpt>
      <trkpt lat="37.0845340" lon="-2.1660140">
        <ele>479.8</ele>
        <time>2019-10-18T10:35:06Z</time>
      </trkpt>
      <trkpt lat="37.0845160" lon="-2.1660100">
        <ele>480.0</ele>
        <time>2019-10-18T10:35:07Z</time>
      </trkpt>
      <trkpt lat="37.0844970" lon="-2.1660070">
        <ele>480.2</ele>
        <time>2019-10-18T10:35:08Z</time>
      </trkpt>
      <trkpt lat="37.0844780" lon="-2.1660060">
        <ele>480.4</ele>
        <time>2019-10-18T10:35:09Z</time>
      </trkpt>
      <trkpt lat="37.0844600" lon="-2.1660040">
        <ele>480.7</ele>
        <time>2019-10-18T10:35:10Z</time>
      </trkpt>
      <trkpt lat="37.0844430" lon="-2.1659990">
        <ele>480.9</ele>
        <time>2019-10-18T10:35:11Z</time>
      </trkpt>
      <trkpt lat="37.0844250" lon="-2.1659930">
        <ele>481.1</ele>
        <time>2019-10-18T10:35:12Z</time>
      </trkpt>
      <trkpt lat="37.0844070" lon="-2.1659890">
        <ele>481.4</ele>
        <time>2019-10-18T10:35:13Z</time>
      </trkpt>
      <trkpt lat="37.0843880" lon="-2.1659840">
        <ele>481.7</ele>
        <time>2019-10-18T10:35:14Z</time>
      </trkpt>
      <trkpt lat="37.0843680" lon="-2.1659800">
        <ele>482.0</ele>
        <time>2019-10-18T10:35:15Z</time>
      </trkpt>
      <trkpt lat="37.0843490" lon="-2.1659730">
        <ele>482.3</ele>
        <time>2019-10-18T10:35:16Z</time>
      </trkpt>
      <trkpt lat="37.0843300" lon="-2.1659650">
        <ele>482.7</ele>
        <time>2019-10-18T10:35:17Z</time>
      </trkpt>
      <trkpt lat="37.0843110" lon="-2.1659570">
        <ele>483.0</ele>
        <time>2019-10-18T10:35:18Z</time>
      </trkpt>
      <trkpt lat="37.0842930" lon="-2.1659490">
        <ele>483.4</ele>
        <time>2019-10-18T10:35:19Z</time>
      </trkpt>
      <trkpt lat="37.0842750" lon="-2.1659420">
        <ele>483.7</ele>
        <time>2019-10-18T10:35:20Z</time>
      </trkpt>
      <trkpt lat="37.0842550" lon="-2.1659350">
        <ele>484.2</ele>
        <time>2019-10-18T10:35:21Z</time>
      </trkpt>
      <trkpt lat="37.0842350" lon="-2.1659260">
        <ele>484.5</ele>
        <time>2019-10-18T10:35:22Z</time>
      </trkpt>
      <trkpt lat="37.0842140" lon="-2.1659160">
        <ele>484.7</ele>
        <time>2019-10-18T10:35:23Z</time>
      </trkpt>
      <trkpt lat="37.0841920" lon="-2.1659070">
        <ele>484.9</ele>
        <time>2019-10-18T10:35:24Z</time>
      </trkpt>
      <trkpt lat="37.0841700" lon="-2.1658980">
        <ele>485.4</ele>
        <time>2019-10-18T10:35:25Z</time>
      </trkpt>
      <trkpt lat="37.0841480" lon="-2.1658910">
        <ele>485.9</ele>
        <time>2019-10-18T10:35:26Z</time>
      </trkpt>
      <trkpt lat="37.0841260" lon="-2.1658870">
        <ele>486.3</ele>
        <time>2019-10-18T10:35:27Z</time>
      </trkpt>
      <trkpt lat="37.0841030" lon="-2.1658870">
        <ele>486.6</ele>
        <time>2019-10-18T10:35:28Z</time>
      </trkpt>
      <trkpt lat="37.0840800" lon="-2.1658900">
        <ele>487.0</ele>
        <time>2019-10-18T10:35:29Z</time>
      </trkpt>
      <trkpt lat="37.0840570" lon="-2.1658940">
        <ele>487.5</ele>
        <time>2019-10-18T10:35:30Z</time>
      </trkpt>
      <trkpt lat="37.0840350" lon="-2.1658990">
        <ele>488.0</ele>
        <time>2019-10-18T10:35:31Z</time>
      </trkpt>
      <trkpt lat="37.0840150" lon="-2.1659050">
        <ele>488.2</ele>
        <time>2019-10-18T10:35:32Z</time>
      </trkpt>
      <trkpt lat="37.0839960" lon="-2.1659120">
        <ele>488.4</ele>
        <time>2019-10-18T10:35:33Z</time>
      </trkpt>
      <trkpt lat="37.0839780" lon="-2.1659220">
        <ele>488.7</ele>
        <time>2019-10-18T10:35:34Z</time>
      </trkpt>
      <trkpt lat="37.0839620" lon="-2.1659340">
        <ele>489.1</ele>
        <time>2019-10-18T10:35:35Z</time>
      </trkpt>
      <trkpt lat="37.0839470" lon="-2.1659470">
        <ele>489.4</ele>
        <time>2019-10-18T10:35:36Z</time>
      </trkpt>
      <trkpt lat="37.0839320" lon="-2.1659620">
        <ele>489.8</ele>
        <time>2019-10-18T10:35:37Z</time>
      </trkpt>
      <trkpt lat="37.0839190" lon="-2.1659780">
        <ele>490.0</ele>
        <time>2019-10-18T10:35:38Z</time>
      </trkpt>
      <trkpt lat="37.0839050" lon="-2.1659950">
        <ele>490.2</ele>
        <time>2019-10-18T10:35:39Z</time>
      </trkpt>
      <trkpt lat="37.0838910" lon="-2.1660150">
        <ele>490.4</ele>
        <time>2019-10-18T10:35:40Z</time>
      </trkpt>
      <trkpt lat="37.0838780" lon="-2.1660340">
        <ele>490.6</ele>
        <time>2019-10-18T10:35:41Z</time>
      </trkpt>
      <trkpt lat="37.0838640" lon="-2.1660540">
        <ele>490.9</ele>
        <time>2019-10-18T10:35:42Z</time>
      </trkpt>
      <trkpt lat="37.0838510" lon="-2.1660740">
        <ele>491.1</ele>
        <time>2019-10-18T10:35:43Z</time>
      </trkpt>
      <trkpt lat="37.0838370" lon="-2.1660940">
        <ele>491.4</ele>
        <time>2019-10-18T10:35:44Z</time>
      </trkpt>
      <trkpt lat="37.0838230" lon="-2.1661150">
        <ele>491.6</ele>
        <time>2019-10-18T10:35:45Z</time>
      </trkpt>
      <trkpt lat="37.0838090" lon="-2.1661380">
        <ele>491.8</ele>
        <time>2019-10-18T10:35:46Z</time>
      </trkpt>
      <trkpt lat="37.0837950" lon="-2.1661610">
        <ele>492.1</ele>
        <time>2019-10-18T10:35:47Z</time>
      </trkpt>
      <trkpt lat="37.0837820" lon="-2.1661840">
        <ele>492.3</ele>
        <time>2019-10-18T10:35:48Z</time>
      </trkpt>
      <trkpt lat="37.0837670" lon="-2.1662050">
        <ele>492.5</ele>
        <time>2019-10-18T10:35:49Z</time>
      </trkpt>
      <trkpt lat="37.0837520" lon="-2.1662240">
        <ele>492.7</ele>
        <time>2019-10-18T10:35:50Z</time>
      </trkpt>
      <trkpt lat="37.0837370" lon="-2.1662440">
        <ele>492.9</ele>
        <time>2019-10-18T10:35:51Z</time>
      </trkpt>
      <trkpt lat="37.0837210" lon="-2.1662630">
        <ele>493.2</ele>
        <time>2019-10-18T10:35:52Z</time>
      </trkpt>
      <trkpt lat="37.0837040" lon="-2.1662830">
        <ele>493.3</ele>
        <time>2019-10-18T10:35:53Z</time>
      </trkpt>
      <trkpt lat="37.0836870" lon="-2.1663040">
        <ele>493.5</ele>
        <time>2019-10-18T10:35:54Z</time>
      </trkpt>
      <trkpt lat="37.0836700" lon="-2.1663240">
        <ele>493.6</ele>
        <time>2019-10-18T10:35:55Z</time>
      </trkpt>
      <trkpt lat="37.0836530" lon="-2.1663450">
        <ele>493.8</ele>
        <time>2019-10-18T10:35:56Z</time>
      </trkpt>
      <trkpt lat="37.0836350" lon="-2.1663650">
        <ele>494.0</ele>
        <time>2019-10-18T10:35:57Z</time>
      </trkpt>
      <trkpt lat="37.0836180" lon="-2.1663850">
        <ele>494.2</ele>
        <time>2019-10-18T10:35:58Z</time>
      </trkpt>
      <trkpt lat="37.0836020" lon="-2.1664050">
        <ele>494.4</ele>
        <time>2019-10-18T10:35:59Z</time>
      </trkpt>
      <trkpt lat="37.0835860" lon="-2.1664250">
        <ele>494.6</ele>
        <time>2019-10-18T10:36:00Z</time>
      </trkpt>
      <trkpt lat="37.0835700" lon="-2.1664440">
        <ele>494.8</ele>
        <time>2019-10-18T10:36:01Z</time>
      </trkpt>
      <trkpt lat="37.0835560" lon="-2.1664640">
        <ele>494.9</ele>
        <time>2019-10-18T10:36:02Z</time>
      </trkpt>
      <trkpt lat="37.0835420" lon="-2.1664830">
        <ele>495.1</ele>
        <time>2019-10-18T10:36:03Z</time>
      </trkpt>
      <trkpt lat="37.0835270" lon="-2.1665030">
        <ele>495.3</ele>
        <time>2019-10-18T10:36:04Z</time>
      </trkpt>
      <trkpt lat="37.0835120" lon="-2.1665220">
        <ele>495.4</ele>
        <time>2019-10-18T10:36:05Z</time>
      </trkpt>
      <trkpt lat="37.0834960" lon="-2.1665420">
        <ele>495.6</ele>
        <time>2019-10-18T10:36:06Z</time>
      </trkpt>
      <trkpt lat="37.0834800" lon="-2.1665620">
        <ele>495.7</ele>
        <time>2019-10-18T10:36:07Z</time>
      </trkpt>
      <trkpt lat="37.0834640" lon="-2.1665830">
        <ele>495.9</ele>
        <time>2019-10-18T10:36:08Z</time>
      </trkpt>
      <trkpt lat="37.0834480" lon="-2.1666030">
        <ele>496.0</ele>
        <time>2019-10-18T10:36:09Z</time>
      </trkpt>
      <trkpt lat="37.0834320" lon="-2.1666250">
        <ele>496.1</ele>
        <time>2019-10-18T10:36:10Z</time>
      </trkpt>
      <trkpt lat="37.0834150" lon="-2.1666460">
        <ele>496.2</ele>
        <time>2019-10-18T10:36:11Z</time>
      </trkpt>
      <trkpt lat="37.0833980" lon="-2.1666680">
        <ele>496.3</ele>
        <time>2019-10-18T10:36:12Z</time>
      </trkpt>
      <trkpt lat="37.0833800" lon="-2.1666900">
        <ele>496.5</ele>
        <time>2019-10-18T10:36:13Z</time>
      </trkpt>
      <trkpt lat="37.0833620" lon="-2.1667110">
        <ele>496.6</ele>
        <time>2019-10-18T10:36:14Z</time>
      </trkpt>
      <trkpt lat="37.0833430" lon="-2.1667300">
        <ele>496.8</ele>
        <time>2019-10-18T10:36:15Z</time>
      </trkpt>
      <trkpt lat="37.0833250" lon="-2.1667480">
        <ele>496.9</ele>
        <time>2019-10-18T10:36:16Z</time>
      </trkpt>
      <trkpt lat="37.0833070" lon="-2.1667650">
        <ele>497.0</ele>
        <time>2019-10-18T10:36:17Z</time>
      </trkpt>
      <trkpt lat="37.0832890" lon="-2.1667810">
        <ele>497.1</ele>
        <time>2019-10-18T10:36:18Z</time>
      </trkpt>
      <trkpt lat="37.0832710" lon="-2.1667980">
        <ele>497.1</ele>
        <time>2019-10-18T10:36:19Z</time>
      </trkpt>
      <trkpt lat="37.0832540" lon="-2.1668140">
        <ele>497.2</ele>
        <time>2019-10-18T10:36:20Z</time>
      </trkpt>
      <trkpt lat="37.0832360" lon="-2.1668320">
        <ele>497.3</ele>
        <time>2019-10-18T10:36:21Z</time>
      </trkpt>
      <trkpt lat="37.0832190" lon="-2.1668500">
        <ele>497.3</ele>
        <time>2019-10-18T10:36:22Z</time>
      </trkpt>
      <trkpt lat="37.0832010" lon="-2.1668700">
        <ele>497.3</ele>
        <time>2019-10-18T10:36:23Z</time>
      </trkpt>
      <trkpt lat="37.0831850" lon="-2.1668920">
        <ele>497.3</ele>
        <time>2019-10-18T10:36:24Z</time>
      </trkpt>
      <trkpt lat="37.0831680" lon="-2.1669140">
        <ele>497.4</ele>
        <time>2019-10-18T10:36:25Z</time>
      </trkpt>
      <trkpt lat="37.0831520" lon="-2.1669380">
        <ele>497.4</ele>
        <time>2019-10-18T10:36:26Z</time>
      </trkpt>
      <trkpt lat="37.0831350" lon="-2.1669640">
        <ele>497.4</ele>
        <time>2019-10-18T10:36:27Z</time>
      </trkpt>
      <trkpt lat="37.0831180" lon="-2.1669920">
        <ele>497.4</ele>
        <time>2019-10-18T10:36:28Z</time>
      </trkpt>
      <trkpt lat="37.0831000" lon="-2.1670220">
        <ele>497.4</ele>
        <time>2019-10-18T10:36:29Z</time>
      </trkpt>
      <trkpt lat="37.0830810" lon="-2.1670540">
        <ele>497.4</ele>
        <time>2019-10-18T10:36:30Z</time>
      </trkpt>
      <trkpt lat="37.0830620" lon="-2.1670880">
        <ele>497.4</ele>
        <time>2019-10-18T10:36:31Z</time>
      </trkpt>
      <trkpt lat="37.0830420" lon="-2.1671210">
        <ele>497.5</ele>
        <time>2019-10-18T10:36:32Z</time>
      </trkpt>
      <trkpt lat="37.0830230" lon="-2.1671550">
        <ele>497.5</ele>
        <time>2019-10-18T10:36:33Z</time>
      </trkpt>
      <trkpt lat="37.0830040" lon="-2.1671870">
        <ele>497.5</ele>
        <time>2019-10-18T10:36:34Z</time>
      </trkpt>
      <trkpt lat="37.0829850" lon="-2.1672170">
        <ele>497.5</ele>
        <time>2019-10-18T10:36:35Z</time>
      </trkpt>
      <trkpt lat="37.0829670" lon="-2.1672460">
        <ele>497.5</ele>
        <time>2019-10-18T10:36:36Z</time>
      </trkpt>
      <trkpt lat="37.0829500" lon="-2.1672710">
        <ele>497.6</ele>
        <time>2019-10-18T10:36:37Z</time>
      </trkpt>
      <trkpt lat="37.0829340" lon="-2.1672950">
        <ele>497.6</ele>
        <time>2019-10-18T10:36:38Z</time>
      </trkpt>
      <trkpt lat="37.0829180" lon="-2.1673180">
        <ele>497.6</ele>
        <time>2019-10-18T10:36:39Z</time>
      </trkpt>
      <trkpt lat="37.0829010" lon="-2.1673410">
        <ele>497.6</ele>
        <time>2019-10-18T10:36:40Z</time>
      </trkpt>
      <trkpt lat="37.0828810" lon="-2.1673650">
        <ele>497.6</ele>
        <time>2019-10-18T10:36:41Z</time>
      </trkpt>
      <trkpt lat="37.0828600" lon="-2.1673910">
        <ele>497.6</ele>
        <time>2019-10-18T10:36:42Z</time>
      </trkpt>
      <trkpt lat="37.0828370" lon="-2.1674170">
        <ele>497.6</ele>
        <time>2019-10-18T10:36:43Z</time>
      </trkpt>
      <trkpt lat="37.0828140" lon="-2.1674420">
        <ele>497.6</ele>
        <time>2019-10-18T10:36:44Z</time>
      </trkpt>
      <trkpt lat="37.0827910" lon="-2.1674680">
        <ele>497.5</ele>
        <time>2019-10-18T10:36:45Z</time>
      </trkpt>
      <trkpt lat="37.0827670" lon="-2.1674940">
        <ele>497.4</ele>
        <time>2019-10-18T10:36:46Z</time>
      </trkpt>
      <trkpt lat="37.0827430" lon="-2.1675210">
        <ele>497.3</ele>
        <time>2019-10-18T10:36:47Z</time>
      </trkpt>
      <trkpt lat="37.0827180" lon="-2.1675490">
        <ele>497.1</ele>
        <time>2019-10-18T10:36:48Z</time>
      </trkpt>
      <trkpt lat="37.0826940" lon="-2.1675780">
        <ele>496.9</ele>
        <time>2019-10-18T10:36:49Z</time>
      </trkpt>
      <trkpt lat="37.0826710" lon="-2.1676100">
        <ele>496.6</ele>
        <time>2019-10-18T10:36:50Z</time>
      </trkpt>
      <trkpt lat="37.0826510" lon="-2.1676440">
        <ele>496.3</ele>
        <time>2019-10-18T10:36:51Z</time>
      </trkpt>
      <trkpt lat="37.0826340" lon="-2.1676810">
        <ele>496.1</ele>
        <time>2019-10-18T10:36:52Z</time>
      </trkpt>
      <trkpt lat="37.0826200" lon="-2.1677200">
        <ele>496.0</ele>
        <time>2019-10-18T10:36:53Z</time>
      </trkpt>
      <trkpt lat="37.0826070" lon="-2.1677610">
        <ele>495.7</ele>
        <time>2019-10-18T10:36:54Z</time>
      </trkpt>
      <trkpt lat="37.0825930" lon="-2.1678020">
        <ele>495.4</ele>
        <time>2019-10-18T10:36:55Z</time>
      </trkpt>
      <trkpt lat="37.0825780" lon="-2.1678480">
        <ele>495.0</ele>
        <time>2019-10-18T10:36:56Z</time>
      </trkpt>
      <trkpt lat="37.0825620" lon="-2.1678980">
        <ele>494.7</ele>
        <time>2019-10-18T10:36:57Z</time>
      </trkpt>
      <trkpt lat="37.0825450" lon="-2.1679530">
        <ele>494.4</ele>
        <time>2019-10-18T10:36:58Z</time>
      </trkpt>
      <trkpt lat="37.0825270" lon="-2.1680120">
        <ele>494.1</ele>
        <time>2019-10-18T10:36:59Z</time>
      </trkpt>
      <trkpt lat="37.0825080" lon="-2.1680740">
        <ele>494.0</ele>
        <time>2019-10-18T10:37:00Z</time>
      </trkpt>
      <trkpt lat="37.0824870" lon="-2.1681360">
        <ele>493.9</ele>
        <time>2019-10-18T10:37:01Z</time>
      </trkpt>
      <trkpt lat="37.0824640" lon="-2.1681970">
        <ele>493.5</ele>
        <time>2019-10-18T10:37:02Z</time>
      </trkpt>
      <trkpt lat="37.0824390" lon="-2.1682560">
        <ele>493.1</ele>
        <time>2019-10-18T10:37:03Z</time>
      </trkpt>
      <trkpt lat="37.0824130" lon="-2.1683140">
        <ele>492.7</ele>
        <time>2019-10-18T10:37:04Z</time>
      </trkpt>
      <trkpt lat="37.0823860" lon="-2.1683720">
        <ele>492.4</ele>
        <time>2019-10-18T10:37:05Z</time>
      </trkpt>
      <trkpt lat="37.0823600" lon="-2.1684300">
        <ele>492.1</ele>
        <time>2019-10-18T10:37:06Z</time>
      </trkpt>
      <trkpt lat="37.0823340" lon="-2.1684860">
        <ele>491.8</ele>
        <time>2019-10-18T10:37:07Z</time>
      </trkpt>
      <trkpt lat="37.0823030" lon="-2.1685400">
        <ele>491.4</ele>
        <time>2019-10-18T10:37:08Z</time>
      </trkpt>
      <trkpt lat="37.0822690" lon="-2.1685900">
        <ele>491.2</ele>
        <time>2019-10-18T10:37:09Z</time>
      </trkpt>
      <trkpt lat="37.0822320" lon="-2.1686380">
        <ele>491.0</ele>
        <time>2019-10-18T10:37:10Z</time>
      </trkpt>
      <trkpt lat="37.0821950" lon="-2.1686830">
        <ele>490.8</ele>
        <time>2019-10-18T10:37:11Z</time>
      </trkpt>
      <trkpt lat="37.0821580" lon="-2.1687260">
        <ele>490.6</ele>
        <time>2019-10-18T10:37:12Z</time>
      </trkpt>
      <trkpt lat="37.0821220" lon="-2.1687670">
        <ele>490.4</ele>
        <time>2019-10-18T10:37:13Z</time>
      </trkpt>
      <trkpt lat="37.0820870" lon="-2.1688070">
        <ele>490.4</ele>
        <time>2019-10-18T10:37:14Z</time>
      </trkpt>
      <trkpt lat="37.0820510" lon="-2.1688470">
        <ele>490.3</ele>
        <time>2019-10-18T10:37:15Z</time>
      </trkpt>
      <trkpt lat="37.0820170" lon="-2.1688870">
        <ele>490.2</ele>
        <time>2019-10-18T10:37:16Z</time>
      </trkpt>
      <trkpt lat="37.0819830" lon="-2.1689270">
        <ele>490.4</ele>
        <time>2019-10-18T10:37:17Z</time>
      </trkpt>
      <trkpt lat="37.0819510" lon="-2.1689680">
        <ele>490.5</ele>
        <time>2019-10-18T10:37:18Z</time>
      </trkpt>
      <trkpt lat="37.0819200" lon="-2.1690090">
        <ele>490.6</ele>
        <time>2019-10-18T10:37:19Z</time>
      </trkpt>
      <trkpt lat="37.0818890" lon="-2.1690510">
        <ele>490.8</ele>
        <time>2019-10-18T10:37:20Z</time>
      </trkpt>
      <trkpt lat="37.0818580" lon="-2.1690920">
        <ele>491.2</ele>
        <time>2019-10-18T10:37:21Z</time>
      </trkpt>
      <trkpt lat="37.0818280" lon="-2.1691340">
        <ele>491.6</ele>
        <time>2019-10-18T10:37:22Z</time>
      </trkpt>
      <trkpt lat="37.0817980" lon="-2.1691750">
        <ele>492.1</ele>
        <time>2019-10-18T10:37:23Z</time>
      </trkpt>
      <trkpt lat="37.0817680" lon="-2.1692170">
        <ele>492.5</ele>
        <time>2019-10-18T10:37:24Z</time>
      </trkpt>
      <trkpt lat="37.0817370" lon="-2.1692580">
        <ele>492.9</ele>
        <time>2019-10-18T10:37:25Z</time>
      </trkpt>
      <trkpt lat="37.0817060" lon="-2.1692980">
        <ele>493.3</ele>
        <time>2019-10-18T10:37:26Z</time>
      </trkpt>
      <trkpt lat="37.0816740" lon="-2.1693370">
        <ele>493.7</ele>
        <time>2019-10-18T10:37:27Z</time>
      </trkpt>
      <trkpt lat="37.0816430" lon="-2.1693760">
        <ele>494.0</ele>
        <time>2019-10-18T10:37:28Z</time>
      </trkpt>
      <trkpt lat="37.0816110" lon="-2.1694140">
        <ele>494.2</ele>
        <time>2019-10-18T10:37:29Z</time>
      </trkpt>
      <trkpt lat="37.0815800" lon="-2.1694510">
        <ele>494.4</ele>
        <time>2019-10-18T10:37:30Z</time>
      </trkpt>
      <trkpt lat="37.0815490" lon="-2.1694870">
        <ele>494.6</ele>
        <time>2019-10-18T10:37:31Z</time>
      </trkpt>
      <trkpt lat="37.0815180" lon="-2.1695230">
        <ele>494.8</ele>
        <time>2019-10-18T10:37:32Z</time>
      </trkpt>
      <trkpt lat="37.0814900" lon="-2.1695570">
        <ele>494.9</ele>
        <time>2019-10-18T10:37:33Z</time>
      </trkpt>
      <trkpt lat="37.0814630" lon="-2.1695880">
        <ele>494.9</ele>
        <time>2019-10-18T10:37:34Z</time>
      </trkpt>
      <trkpt lat="37.0814380" lon="-2.1696170">
        <ele>494.9</ele>
        <time>2019-10-18T10:37:35Z</time>
      </trkpt>
      <trkpt lat="37.0814140" lon="-2.1696450">
        <ele>494.9</ele>
        <time>2019-10-18T10:37:36Z</time>
      </trkpt>
      <trkpt lat="37.0813920" lon="-2.1696730">
        <ele>494.8</ele>
        <time>2019-10-18T10:37:37Z</time>
      </trkpt>
      <trkpt lat="37.0813730" lon="-2.1697020">
        <ele>494.6</ele>
        <time>2019-10-18T10:37:38Z</time>
      </trkpt>
      <trkpt lat="37.0813580" lon="-2.1697330">
        <ele>494.6</ele>
        <time>2019-10-18T10:37:39Z</time>
      </trkpt>
      <trkpt lat="37.0813480" lon="-2.1697680">
        <ele>494.6</ele>
        <time>2019-10-18T10:37:40Z</time>
      </trkpt>
      <trkpt lat="37.0813400" lon="-2.1698050">
        <ele>494.6</ele>
        <time>2019-10-18T10:37:41Z</time>
      </trkpt>
      <trkpt lat="37.0813300" lon="-2.1698430">
        <ele>494.6</ele>
        <time>2019-10-18T10:37:42Z</time>
      </trkpt>
      <trkpt lat="37.0813160" lon="-2.1698810">
        <ele>494.6</ele>
        <time>2019-10-18T10:37:43Z</time>
      </trkpt>
      <trkpt lat="37.0812990" lon="-2.1699170">
        <ele>494.6</ele>
        <time>2019-10-18T10:37:44Z</time>
      </trkpt>
      <trkpt lat="37.0812810" lon="-2.1699520">
        <ele>494.6</ele>
        <time>2019-10-18T10:37:45Z</time>
      </trkpt>
      <trkpt lat="37.0812610" lon="-2.1699850">
        <ele>494.7</ele>
        <time>2019-10-18T10:37:46Z</time>
      </trkpt>
      <trkpt lat="37.0812390" lon="-2.1700160">
        <ele>494.7</ele>
        <time>2019-10-18T10:37:47Z</time>
      </trkpt>
      <trkpt lat="37.0812150" lon="-2.1700470">
        <ele>494.7</ele>
        <time>2019-10-18T10:37:48Z</time>
      </trkpt>
      <trkpt lat="37.0811900" lon="-2.1700760">
        <ele>494.8</ele>
        <time>2019-10-18T10:37:49Z</time>
      </trkpt>
      <trkpt lat="37.0811620" lon="-2.1701060">
        <ele>494.8</ele>
        <time>2019-10-18T10:37:50Z</time>
      </trkpt>
      <trkpt lat="37.0811320" lon="-2.1701350">
        <ele>494.8</ele>
        <time>2019-10-18T10:37:51Z</time>
      </trkpt>
      <trkpt lat="37.0811000" lon="-2.1701650">
        <ele>494.8</ele>
        <time>2019-10-18T10:37:52Z</time>
      </trkpt>
      <trkpt lat="37.0810680" lon="-2.1701970">
        <ele>494.8</ele>
        <time>2019-10-18T10:37:53Z</time>
      </trkpt>
      <trkpt lat="37.0810360" lon="-2.1702300">
        <ele>494.9</ele>
        <time>2019-10-18T10:37:54Z</time>
      </trkpt>
      <trkpt lat="37.0810070" lon="-2.1702660">
        <ele>494.9</ele>
        <time>2019-10-18T10:37:55Z</time>
      </trkpt>
      <trkpt lat="37.0809790" lon="-2.1703040">
        <ele>495.0</ele>
        <time>2019-10-18T10:37:56Z</time>
      </trkpt>
      <trkpt lat="37.0809520" lon="-2.1703430">
        <ele>495.0</ele>
        <time>2019-10-18T10:37:57Z</time>
      </trkpt>
      <trkpt lat="37.0809280" lon="-2.1703820">
        <ele>495.0</ele>
        <time>2019-10-18T10:37:58Z</time>
      </trkpt>
      <trkpt lat="37.0809060" lon="-2.1704200">
        <ele>495.0</ele>
        <time>2019-10-18T10:37:59Z</time>
      </trkpt>
      <trkpt lat="37.0808860" lon="-2.1704580">
        <ele>495.1</ele>
        <time>2019-10-18T10:38:00Z</time>
      </trkpt>
      <trkpt lat="37.0808680" lon="-2.1704960">
        <ele>495.2</ele>
        <time>2019-10-18T10:38:01Z</time>
      </trkpt>
      <trkpt lat="37.0808500" lon="-2.1705340">
        <ele>495.3</ele>
        <time>2019-10-18T10:38:02Z</time>
      </trkpt>
      <trkpt lat="37.0808320" lon="-2.1705720">
        <ele>495.4</ele>
        <time>2019-10-18T10:38:03Z</time>
      </trkpt>
      <trkpt lat="37.0808170" lon="-2.1706120">
        <ele>495.5</ele>
        <time>2019-10-18T10:38:04Z</time>
      </trkpt>
      <trkpt lat="37.0808040" lon="-2.1706530">
        <ele>495.6</ele>
        <time>2019-10-18T10:38:05Z</time>
      </trkpt>
      <trkpt lat="37.0807920" lon="-2.1706950">
        <ele>495.7</ele>
        <time>2019-10-18T10:38:06Z</time>
      </trkpt>
      <trkpt lat="37.0807830" lon="-2.1707370">
        <ele>495.9</ele>
        <time>2019-10-18T10:38:07Z</time>
      </trkpt>
      <trkpt lat="37.0807740" lon="-2.1707810">
        <ele>496.0</ele>
        <time>2019-10-18T10:38:08Z</time>
      </trkpt>
      <trkpt lat="37.0807670" lon="-2.1708250">
        <ele>496.2</ele>
        <time>2019-10-18T10:38:09Z</time>
      </trkpt>
      <trkpt lat="37.0807590" lon="-2.1708690">
        <ele>496.5</ele>
        <time>2019-10-18T10:38:10Z</time>
      </trkpt>
      <trkpt lat="37.0807480" lon="-2.1709120">
        <ele>496.7</ele>
        <time>2019-10-18T10:38:11Z</time>
      </trkpt>
      <trkpt lat="37.0807350" lon="-2.1709540">
        <ele>496.8</ele>
        <time>2019-10-18T10:38:12Z</time>
      </trkpt>
      <trkpt lat="37.0807200" lon="-2.1709930">
        <ele>496.8</ele>
        <time>2019-10-18T10:38:13Z</time>
      </trkpt>
      <trkpt lat="37.0807010" lon="-2.1710310">
        <ele>496.9</ele>
        <time>2019-10-18T10:38:14Z</time>
      </trkpt>
      <trkpt lat="37.0806770" lon="-2.1710690">
        <ele>497.0</ele>
        <time>2019-10-18T10:38:15Z</time>
      </trkpt>
      <trkpt lat="37.0806480" lon="-2.1711100">
        <ele>497.0</ele>
        <time>2019-10-18T10:38:16Z</time>
      </trkpt>
      <trkpt lat="37.0806150" lon="-2.1711540">
        <ele>497.2</ele>
        <time>2019-10-18T10:38:17Z</time>
      </trkpt>
      <trkpt lat="37.0805800" lon="-2.1712000">
        <ele>497.6</ele>
        <time>2019-10-18T10:38:18Z</time>
      </trkpt>
      <trkpt lat="37.0805460" lon="-2.1712460">
        <ele>497.8</ele>
        <time>2019-10-18T10:38:19Z</time>
      </trkpt>
      <trkpt lat="37.0805150" lon="-2.1712930">
        <ele>498.3</ele>
        <time>2019-10-18T10:38:20Z</time>
      </trkpt>
      <trkpt lat="37.0804880" lon="-2.1713400">
        <ele>498.7</ele>
        <time>2019-10-18T10:38:21Z</time>
      </trkpt>
      <trkpt lat="37.0804650" lon="-2.1713860">
        <ele>498.9</ele>
        <time>2019-10-18T10:38:22Z</time>
      </trkpt>
      <trkpt lat="37.0804480" lon="-2.1714310">
        <ele>499.1</ele>
        <time>2019-10-18T10:38:23Z</time>
      </trkpt>
      <trkpt lat="37.0804330" lon="-2.1714750">
        <ele>499.3</ele>
        <time>2019-10-18T10:38:24Z</time>
      </trkpt>
      <trkpt lat="37.0804210" lon="-2.1715170">
        <ele>499.6</ele>
        <time>2019-10-18T10:38:25Z</time>
      </trkpt>
      <trkpt lat="37.0804100" lon="-2.1715600">
        <ele>499.9</ele>
        <time>2019-10-18T10:38:26Z</time>
      </trkpt>
      <trkpt lat="37.0803990" lon="-2.1716040">
        <ele>500.0</ele>
        <time>2019-10-18T10:38:27Z</time>
      </trkpt>
      <trkpt lat="37.0803900" lon="-2.1716480">
        <ele>500.0</ele>
        <time>2019-10-18T10:38:28Z</time>
      </trkpt>
      <trkpt lat="37.0803840" lon="-2.1716920">
        <ele>500.3</ele>
        <time>2019-10-18T10:38:29Z</time>
      </trkpt>
      <trkpt lat="37.0803780" lon="-2.1717350">
        <ele>500.6</ele>
        <time>2019-10-18T10:38:30Z</time>
      </trkpt>
      <trkpt lat="37.0803730" lon="-2.1717790">
        <ele>501.0</ele>
        <time>2019-10-18T10:38:31Z</time>
      </trkpt>
      <trkpt lat="37.0803690" lon="-2.1718210">
        <ele>501.3</ele>
        <time>2019-10-18T10:38:32Z</time>
      </trkpt>
      <trkpt lat="37.0803670" lon="-2.1718640">
        <ele>501.7</ele>
        <time>2019-10-18T10:38:33Z</time>
      </trkpt>
      <trkpt lat="37.0803660" lon="-2.1719080">
        <ele>502.0</ele>
        <time>2019-10-18T10:38:34Z</time>
      </trkpt>
      <trkpt lat="37.0803670" lon="-2.1719540">
        <ele>502.4</ele>
        <time>2019-10-18T10:38:35Z</time>
      </trkpt>
      <trkpt lat="37.0803690" lon="-2.1720030">
        <ele>502.8</ele>
        <time>2019-10-18T10:38:36Z</time>
      </trkpt>
      <trkpt lat="37.0803720" lon="-2.1720520">
        <ele>503.2</ele>
        <time>2019-10-18T10:38:37Z</time>
      </trkpt>
      <trkpt lat="37.0803750" lon="-2.1721030">
        <ele>503.6</ele>
        <time>2019-10-18T10:38:38Z</time>
      </trkpt>
      <trkpt lat="37.0803770" lon="-2.1721540">
        <ele>503.9</ele>
        <time>2019-10-18T10:38:39Z</time>
      </trkpt>
      <trkpt lat="37.0803780" lon="-2.1722060">
        <ele>504.1</ele>
        <time>2019-10-18T10:38:40Z</time>
      </trkpt>
      <trkpt lat="37.0803790" lon="-2.1722570">
        <ele>504.3</ele>
        <time>2019-10-18T10:38:41Z</time>
      </trkpt>
      <trkpt lat="37.0803790" lon="-2.1723100">
        <ele>504.5</ele>
        <time>2019-10-18T10:38:42Z</time>
      </trkpt>
      <trkpt lat="37.0803780" lon="-2.1723620">
        <ele>504.8</ele>
        <time>2019-10-18T10:38:43Z</time>
      </trkpt>
      <trkpt lat="37.0803780" lon="-2.1724150">
        <ele>505.1</ele>
        <time>2019-10-18T10:38:44Z</time>
      </trkpt>
      <trkpt lat="37.0803760" lon="-2.1724660">
        <ele>505.5</ele>
        <time>2019-10-18T10:38:45Z</time>
      </trkpt>
      <trkpt lat="37.0803730" lon="-2.1725170">
        <ele>505.9</ele>
        <time>2019-10-18T10:38:46Z</time>
      </trkpt>
      <trkpt lat="37.0803710" lon="-2.1725670">
        <ele>506.3</ele>
        <time>2019-10-18T10:38:47Z</time>
      </trkpt>
      <trkpt lat="37.0803670" lon="-2.1726170">
        <ele>506.7</ele>
        <time>2019-10-18T10:38:48Z</time>
      </trkpt>
      <trkpt lat="37.0803630" lon="-2.1726650">
        <ele>506.9</ele>
        <time>2019-10-18T10:38:49Z</time>
      </trkpt>
      <trkpt lat="37.0803580" lon="-2.1727140">
        <ele>507.2</ele>
        <time>2019-10-18T10:38:50Z</time>
      </trkpt>
      <trkpt lat="37.0803520" lon="-2.1727630">
        <ele>507.4</ele>
        <time>2019-10-18T10:38:51Z</time>
      </trkpt>
      <trkpt lat="37.0803450" lon="-2.1728120">
        <ele>507.6</ele>
        <time>2019-10-18T10:38:52Z</time>
      </trkpt>
      <trkpt lat="37.0803370" lon="-2.1728590">
        <ele>507.8</ele>
        <time>2019-10-18T10:38:53Z</time>
      </trkpt>
      <trkpt lat="37.0803300" lon="-2.1729060">
        <ele>507.9</ele>
        <time>2019-10-18T10:38:54Z</time>
      </trkpt>
      <trkpt lat="37.0803230" lon="-2.1729530">
        <ele>508.0</ele>
        <time>2019-10-18T10:38:55Z</time>
      </trkpt>
      <trkpt lat="37.0803180" lon="-2.1730010">
        <ele>508.2</ele>
        <time>2019-10-18T10:38:56Z</time>
      </trkpt>
      <trkpt lat="37.0803130" lon="-2.1730490">
        <ele>508.2</ele>
        <time>2019-10-18T10:38:57Z</time>
      </trkpt>
      <trkpt lat="37.0803080" lon="-2.1730980">
        <ele>508.1</ele>
        <time>2019-10-18T10:38:58Z</time>
      </trkpt>
      <trkpt lat="37.0803030" lon="-2.1731480">
        <ele>507.9</ele>
        <time>2019-10-18T10:38:59Z</time>
      </trkpt>
      <trkpt lat="37.0802990" lon="-2.1731990">
        <ele>507.9</ele>
        <time>2019-10-18T10:39:00Z</time>
      </trkpt>
      <trkpt lat="37.0802940" lon="-2.1732490">
        <ele>507.8</ele>
        <time>2019-10-18T10:39:01Z</time>
      </trkpt>
      <trkpt lat="37.0802880" lon="-2.1733000">
        <ele>507.6</ele>
        <time>2019-10-18T10:39:02Z</time>
      </trkpt>
      <trkpt lat="37.0802820" lon="-2.1733500">
        <ele>507.3</ele>
        <time>2019-10-18T10:39:03Z</time>
      </trkpt>
      <trkpt lat="37.0802760" lon="-2.1734010">
        <ele>507.3</ele>
        <time>2019-10-18T10:39:04Z</time>
      </trkpt>
      <trkpt lat="37.0802720" lon="-2.1734510">
        <ele>507.2</ele>
        <time>2019-10-18T10:39:05Z</time>
      </trkpt>
      <trkpt lat="37.0802670" lon="-2.1735010">
        <ele>507.2</ele>
        <time>2019-10-18T10:39:06Z</time>
      </trkpt>
      <trkpt lat="37.0802630" lon="-2.1735520">
        <ele>507.1</ele>
        <time>2019-10-18T10:39:07Z</time>
      </trkpt>
      <trkpt lat="37.0802570" lon="-2.1736030">
        <ele>507.0</ele>
        <time>2019-10-18T10:39:08Z</time>
      </trkpt>
      <trkpt lat="37.0802490" lon="-2.1736550">
        <ele>506.8</ele>
        <time>2019-10-18T10:39:09Z</time>
      </trkpt>
      <trkpt lat="37.0802390" lon="-2.1737070">
        <ele>506.7</ele>
        <time>2019-10-18T10:39:10Z</time>
      </trkpt>
      <trkpt lat="37.0802280" lon="-2.1737600">
        <ele>506.7</ele>
        <time>2019-10-18T10:39:11Z</time>
      </trkpt>
      <trkpt lat="37.0802150" lon="-2.1738140">
        <ele>506.6</ele>
        <time>2019-10-18T10:39:12Z</time>
      </trkpt>
      <trkpt lat="37.0802000" lon="-2.1738670">
        <ele>506.5</ele>
        <time>2019-10-18T10:39:13Z</time>
      </trkpt>
      <trkpt lat="37.0801810" lon="-2.1739190">
        <ele>506.4</ele>
        <time>2019-10-18T10:39:14Z</time>
      </trkpt>
      <trkpt lat="37.0801590" lon="-2.1739690">
        <ele>506.2</ele>
        <time>2019-10-18T10:39:15Z</time>
      </trkpt>
      <trkpt lat="37.0801340" lon="-2.1740170">
        <ele>506.0</ele>
        <time>2019-10-18T10:39:16Z</time>
      </trkpt>
      <trkpt lat="37.0801080" lon="-2.1740630">
        <ele>505.9</ele>
        <time>2019-10-18T10:39:17Z</time>
      </trkpt>
      <trkpt lat="37.0800810" lon="-2.1741080">
        <ele>505.7</ele>
        <time>2019-10-18T10:39:18Z</time>
      </trkpt>
      <trkpt lat="37.0800540" lon="-2.1741510">
        <ele>505.5</ele>
        <time>2019-10-18T10:39:19Z</time>
      </trkpt>
      <trkpt lat="37.0800250" lon="-2.1741930">
        <ele>505.4</ele>
        <time>2019-10-18T10:39:20Z</time>
      </trkpt>
      <trkpt lat="37.0799960" lon="-2.1742320">
        <ele>505.2</ele>
        <time>2019-10-18T10:39:21Z</time>
      </trkpt>
      <trkpt lat="37.0799660" lon="-2.1742700">
        <ele>505.1</ele>
        <time>2019-10-18T10:39:22Z</time>
      </trkpt>
      <trkpt lat="37.0799360" lon="-2.1743060">
        <ele>505.0</ele>
        <time>2019-10-18T10:39:23Z</time>
      </trkpt>
      <trkpt lat="37.0799070" lon="-2.1743410">
        <ele>504.9</ele>
        <time>2019-10-18T10:39:24Z</time>
      </trkpt>
      <trkpt lat="37.0798770" lon="-2.1743760">
        <ele>504.8</ele>
        <time>2019-10-18T10:39:25Z</time>
      </trkpt>
      <trkpt lat="37.0798480" lon="-2.1744100">
        <ele>504.8</ele>
        <time>2019-10-18T10:39:26Z</time>
      </trkpt>
      <trkpt lat="37.0798190" lon="-2.1744430">
        <ele>504.8</ele>
        <time>2019-10-18T10:39:27Z</time>
      </trkpt>
      <trkpt lat="37.0797900" lon="-2.1744750">
        <ele>504.8</ele>
        <time>2019-10-18T10:39:28Z</time>
      </trkpt>
      <trkpt lat="37.0797620" lon="-2.1745060">
        <ele>504.9</ele>
        <time>2019-10-18T10:39:29Z</time>
      </trkpt>
      <trkpt lat="37.0797330" lon="-2.1745360">
        <ele>504.9</ele>
        <time>2019-10-18T10:39:30Z</time>
      </trkpt>
      <trkpt lat="37.0797060" lon="-2.1745650">
        <ele>504.9</ele>
        <time>2019-10-18T10:39:31Z</time>
      </trkpt>
      <trkpt lat="37.0796790" lon="-2.1745940">
        <ele>505.0</ele>
        <time>2019-10-18T10:39:32Z</time>
      </trkpt>
      <trkpt lat="37.0796520" lon="-2.1746210">
        <ele>505.0</ele>
        <time>2019-10-18T10:39:33Z</time>
      </trkpt>
      <trkpt lat="37.0796260" lon="-2.1746470">
        <ele>505.1</ele>
        <time>2019-10-18T10:39:34Z</time>
      </trkpt>
      <trkpt lat="37.0796000" lon="-2.1746710">
        <ele>505.1</ele>
        <time>2019-10-18T10:39:35Z</time>
      </trkpt>
      <trkpt lat="37.0795740" lon="-2.1746960">
        <ele>505.2</ele>
        <time>2019-10-18T10:39:36Z</time>
      </trkpt>
      <trkpt lat="37.0795480" lon="-2.1747230">
        <ele>505.3</ele>
        <time>2019-10-18T10:39:37Z</time>
      </trkpt>
      <trkpt lat="37.0795210" lon="-2.1747500">
        <ele>505.4</ele>
        <time>2019-10-18T10:39:38Z</time>
      </trkpt>
      <trkpt lat="37.0794940" lon="-2.1747780">
        <ele>505.5</ele>
        <time>2019-10-18T10:39:39Z</time>
      </trkpt>
      <trkpt lat="37.0794680" lon="-2.1748070">
        <ele>505.5</ele>
        <time>2019-10-18T10:39:40Z</time>
      </trkpt>
      <trkpt lat="37.0794430" lon="-2.1748390">
        <ele>505.6</ele>
        <time>2019-10-18T10:39:41Z</time>
      </trkpt>
      <trkpt lat="37.0794170" lon="-2.1748700">
        <ele>505.7</ele>
        <time>2019-10-18T10:39:42Z</time>
      </trkpt>
      <trkpt lat="37.0793910" lon="-2.1748990">
        <ele>505.8</ele>
        <time>2019-10-18T10:39:43Z</time>
      </trkpt>
      <trkpt lat="37.0793640" lon="-2.1749260">
        <ele>505.9</ele>
        <time>2019-10-18T10:39:44Z</time>
      </trkpt>
      <trkpt lat="37.0793370" lon="-2.1749500">
        <ele>506.0</ele>
        <time>2019-10-18T10:39:45Z</time>
      </trkpt>
      <trkpt lat="37.0793100" lon="-2.1749720">
        <ele>506.1</ele>
        <time>2019-10-18T10:39:46Z</time>
      </trkpt>
      <trkpt lat="37.0792840" lon="-2.1749940">
        <ele>506.2</ele>
        <time>2019-10-18T10:39:47Z</time>
      </trkpt>
      <trkpt lat="37.0792570" lon="-2.1750150">
        <ele>506.3</ele>
        <time>2019-10-18T10:39:48Z</time>
      </trkpt>
      <trkpt lat="37.0792300" lon="-2.1750360">
        <ele>506.4</ele>
        <time>2019-10-18T10:39:49Z</time>
      </trkpt>
      <trkpt lat="37.0792040" lon="-2.1750560">
        <ele>506.5</ele>
        <time>2019-10-18T10:39:50Z</time>
      </trkpt>
      <trkpt lat="37.0791790" lon="-2.1750750">
        <ele>506.6</ele>
        <time>2019-10-18T10:39:51Z</time>
      </trkpt>
      <trkpt lat="37.0791540" lon="-2.1750930">
        <ele>506.7</ele>
        <time>2019-10-18T10:39:52Z</time>
      </trkpt>
      <trkpt lat="37.0791290" lon="-2.1751120">
        <ele>506.8</ele>
        <time>2019-10-18T10:39:53Z</time>
      </trkpt>
      <trkpt lat="37.0791040" lon="-2.1751290">
        <ele>506.9</ele>
        <time>2019-10-18T10:39:54Z</time>
      </trkpt>
      <trkpt lat="37.0790790" lon="-2.1751460">
        <ele>507.0</ele>
        <time>2019-10-18T10:39:55Z</time>
      </trkpt>
      <trkpt lat="37.0790540" lon="-2.1751630">
        <ele>507.1</ele>
        <time>2019-10-18T10:39:56Z</time>
      </trkpt>
      <trkpt lat="37.0790290" lon="-2.1751800">
        <ele>507.3</ele>
        <time>2019-10-18T10:39:57Z</time>
      </trkpt>
      <trkpt lat="37.0790050" lon="-2.1751950">
        <ele>507.4</ele>
        <time>2019-10-18T10:39:58Z</time>
      </trkpt>
      <trkpt lat="37.0789810" lon="-2.1752090">
        <ele>507.5</ele>
        <time>2019-10-18T10:39:59Z</time>
      </trkpt>
      <trkpt lat="37.0789570" lon="-2.1752220">
        <ele>507.7</ele>
        <time>2019-10-18T10:40:00Z</time>
      </trkpt>
      <trkpt lat="37.0789340" lon="-2.1752350">
        <ele>507.8</ele>
        <time>2019-10-18T10:40:01Z</time>
      </trkpt>
      <trkpt lat="37.0789100" lon="-2.1752490">
        <ele>508.0</ele>
        <time>2019-10-18T10:40:02Z</time>
      </trkpt>
      <trkpt lat="37.0788860" lon="-2.1752620">
        <ele>508.2</ele>
        <time>2019-10-18T10:40:03Z</time>
      </trkpt>
      <trkpt lat="37.0788610" lon="-2.1752760">
        <ele>508.4</ele>
        <time>2019-10-18T10:40:04Z</time>
      </trkpt>
      <trkpt lat="37.0788360" lon="-2.1752910">
        <ele>508.7</ele>
        <time>2019-10-18T10:40:05Z</time>
      </trkpt>
      <trkpt lat="37.0788110" lon="-2.1753070">
        <ele>508.9</ele>
        <time>2019-10-18T10:40:06Z</time>
      </trkpt>
      <trkpt lat="37.0787840" lon="-2.1753240">
        <ele>509.2</ele>
        <time>2019-10-18T10:40:07Z</time>
      </trkpt>
      <trkpt lat="37.0787580" lon="-2.1753410">
        <ele>509.5</ele>
        <time>2019-10-18T10:40:08Z</time>
      </trkpt>
      <trkpt lat="37.0787310" lon="-2.1753570">
        <ele>509.7</ele>
        <time>2019-10-18T10:40:09Z</time>
      </trkpt>
      <trkpt lat="37.0787040" lon="-2.1753740">
        <ele>509.9</ele>
        <time>2019-10-18T10:40:10Z</time>
      </trkpt>
      <trkpt lat="37.0786780" lon="-2.1753930">
        <ele>510.1</ele>
        <time>2019-10-18T10:40:11Z</time>
      </trkpt>
      <trkpt lat="37.0786520" lon="-2.1754140">
        <ele>510.3</ele>
        <time>2019-10-18T10:40:12Z</time>
      </trkpt>
      <trkpt lat="37.0786240" lon="-2.1754340">
        <ele>510.6</ele>
        <time>2019-10-18T10:40:13Z</time>
      </trkpt>
      <trkpt lat="37.0785970" lon="-2.1754560">
        <ele>510.9</ele>
        <time>2019-10-18T10:40:14Z</time>
      </trkpt>
      <trkpt lat="37.0785700" lon="-2.1754780">
        <ele>511.1</ele>
        <time>2019-10-18T10:40:15Z</time>
      </trkpt>
      <trkpt lat="37.0785430" lon="-2.1755010">
        <ele>511.3</ele>
        <time>2019-10-18T10:40:16Z</time>
      </trkpt>
      <trkpt lat="37.0785180" lon="-2.1755230">
        <ele>511.5</ele>
        <time>2019-10-18T10:40:17Z</time>
      </trkpt>
      <trkpt lat="37.0784920" lon="-2.1755450">
        <ele>511.7</ele>
        <time>2019-10-18T10:40:18Z</time>
      </trkpt>
      <trkpt lat="37.0784660" lon="-2.1755670">
        <ele>511.8</ele>
        <time>2019-10-18T10:40:19Z</time>
      </trkpt>
      <trkpt lat="37.0784390" lon="-2.1755880">
        <ele>512.0</ele>
        <time>2019-10-18T10:40:20Z</time>
      </trkpt>
      <trkpt lat="37.0784130" lon="-2.1756090">
        <ele>512.1</ele>
        <time>2019-10-18T10:40:21Z</time>
      </trkpt>
      <trkpt lat="37.0783870" lon="-2.1756310">
        <ele>512.2</ele>
        <time>2019-10-18T10:40:22Z</time>
      </trkpt>
      <trkpt lat="37.0783610" lon="-2.1756520">
        <ele>512.3</ele>
        <time>2019-10-18T10:40:23Z</time>
      </trkpt>
      <trkpt lat="37.0783350" lon="-2.1756720">
        <ele>512.5</ele>
        <time>2019-10-18T10:40:24Z</time>
      </trkpt>
      <trkpt lat="37.0783100" lon="-2.1756930">
        <ele>512.7</ele>
        <time>2019-10-18T10:40:25Z</time>
      </trkpt>
      <trkpt lat="37.0782860" lon="-2.1757130">
        <ele>512.8</ele>
        <time>2019-10-18T10:40:26Z</time>
      </trkpt>
      <trkpt lat="37.0782620" lon="-2.1757320">
        <ele>512.9</ele>
        <time>2019-10-18T10:40:27Z</time>
      </trkpt>
      <trkpt lat="37.0782360" lon="-2.1757530">
        <ele>513.0</ele>
        <time>2019-10-18T10:40:28Z</time>
      </trkpt>
      <trkpt lat="37.0782100" lon="-2.1757740">
        <ele>513.1</ele>
        <time>2019-10-18T10:40:29Z</time>
      </trkpt>
      <trkpt lat="37.0781810" lon="-2.1757960">
        <ele>513.2</ele>
        <time>2019-10-18T10:40:30Z</time>
      </trkpt>
      <trkpt lat="37.0781530" lon="-2.1758180">
        <ele>513.3</ele>
        <time>2019-10-18T10:40:31Z</time>
      </trkpt>
      <trkpt lat="37.0781230" lon="-2.1758410">
        <ele>513.3</ele>
        <time>2019-10-18T10:40:32Z</time>
      </trkpt>
      <trkpt lat="37.0780940" lon="-2.1758640">
        <ele>513.3</ele>
        <time>2019-10-18T10:40:33Z</time>
      </trkpt>
      <trkpt lat="37.0780650" lon="-2.1758890">
        <ele>513.3</ele>
        <time>2019-10-18T10:40:34Z</time>
      </trkpt>
      <trkpt lat="37.0780370" lon="-2.1759160">
        <ele>513.4</ele>
        <time>2019-10-18T10:40:35Z</time>
      </trkpt>
      <trkpt lat="37.0780090" lon="-2.1759450">
        <ele>513.4</ele>
        <time>2019-10-18T10:40:36Z</time>
      </trkpt>
      <trkpt lat="37.0779830" lon="-2.1759750">
        <ele>513.4</ele>
        <time>2019-10-18T10:40:37Z</time>
      </trkpt>
      <trkpt lat="37.0779570" lon="-2.1760070">
        <ele>513.4</ele>
        <time>2019-10-18T10:40:38Z</time>
      </trkpt>
      <trkpt lat="37.0779330" lon="-2.1760410">
        <ele>513.4</ele>
        <time>2019-10-18T10:40:39Z</time>
      </trkpt>
      <trkpt lat="37.0779100" lon="-2.1760780">
        <ele>513.4</ele>
        <time>2019-10-18T10:40:40Z</time>
      </trkpt>
      <trkpt lat="37.0778880" lon="-2.1761180">
        <ele>513.4</ele>
        <time>2019-10-18T10:40:41Z</time>
      </trkpt>
      <trkpt lat="37.0778660" lon="-2.1761580">
        <ele>513.4</ele>
        <time>2019-10-18T10:40:42Z</time>
      </trkpt>
      <trkpt lat="37.0778440" lon="-2.1761980">
        <ele>513.4</ele>
        <time>2019-10-18T10:40:43Z</time>
      </trkpt>
      <trkpt lat="37.0778210" lon="-2.1762380">
        <ele>513.5</ele>
        <time>2019-10-18T10:40:44Z</time>
      </trkpt>
      <trkpt lat="37.0777970" lon="-2.1762780">
        <ele>513.5</ele>
        <time>2019-10-18T10:40:45Z</time>
      </trkpt>
      <trkpt lat="37.0777720" lon="-2.1763180">
        <ele>513.5</ele>
        <time>2019-10-18T10:40:46Z</time>
      </trkpt>
      <trkpt lat="37.0777450" lon="-2.1763570">
        <ele>513.6</ele>
        <time>2019-10-18T10:40:47Z</time>
      </trkpt>
      <trkpt lat="37.0777150" lon="-2.1763960">
        <ele>513.6</ele>
        <time>2019-10-18T10:40:48Z</time>
      </trkpt>
      <trkpt lat="37.0776860" lon="-2.1764340">
        <ele>513.6</ele>
        <time>2019-10-18T10:40:49Z</time>
      </trkpt>
      <trkpt lat="37.0776550" lon="-2.1764720">
        <ele>513.6</ele>
        <time>2019-10-18T10:40:50Z</time>
      </trkpt>
      <trkpt lat="37.0776240" lon="-2.1765080">
        <ele>513.5</ele>
        <time>2019-10-18T10:40:51Z</time>
      </trkpt>
      <trkpt lat="37.0775930" lon="-2.1765440">
        <ele>513.6</ele>
        <time>2019-10-18T10:40:52Z</time>
      </trkpt>
      <trkpt lat="37.0775610" lon="-2.1765790">
        <ele>513.6</ele>
        <time>2019-10-18T10:40:53Z</time>
      </trkpt>
      <trkpt lat="37.0775300" lon="-2.1766120">
        <ele>513.8</ele>
        <time>2019-10-18T10:40:54Z</time>
      </trkpt>
      <trkpt lat="37.0774980" lon="-2.1766450">
        <ele>513.9</ele>
        <time>2019-10-18T10:40:55Z</time>
      </trkpt>
      <trkpt lat="37.0774670" lon="-2.1766780">
        <ele>514.2</ele>
        <time>2019-10-18T10:40:56Z</time>
      </trkpt>
      <trkpt lat="37.0774360" lon="-2.1767120">
        <ele>514.3</ele>
        <time>2019-10-18T10:40:57Z</time>
      </trkpt>
      <trkpt lat="37.0774050" lon="-2.1767460">
        <ele>514.5</ele>
        <time>2019-10-18T10:40:58Z</time>
      </trkpt>
      <trkpt lat="37.0773740" lon="-2.1767810">
        <ele>514.7</ele>
        <time>2019-10-18T10:40:59Z</time>
      </trkpt>
      <trkpt lat="37.0773430" lon="-2.1768160">
        <ele>515.0</ele>
        <time>2019-10-18T10:41:00Z</time>
      </trkpt>
      <trkpt lat="37.0773140" lon="-2.1768520">
        <ele>515.3</ele>
        <time>2019-10-18T10:41:01Z</time>
      </trkpt>
      <trkpt lat="37.0772850" lon="-2.1768890">
        <ele>515.6</ele>
        <time>2019-10-18T10:41:02Z</time>
      </trkpt>
      <trkpt lat="37.0772560" lon="-2.1769270">
        <ele>515.9</ele>
        <time>2019-10-18T10:41:03Z</time>
      </trkpt>
      <trkpt lat="37.0772270" lon="-2.1769640">
        <ele>516.1</ele>
        <time>2019-10-18T10:41:04Z</time>
      </trkpt>
      <trkpt lat="37.0771990" lon="-2.1770010">
        <ele>516.2</ele>
        <time>2019-10-18T10:41:05Z</time>
      </trkpt>
      <trkpt lat="37.0771710" lon="-2.1770360">
        <ele>516.5</ele>
        <time>2019-10-18T10:41:06Z</time>
      </trkpt>
      <trkpt lat="37.0771440" lon="-2.1770690">
        <ele>516.8</ele>
        <time>2019-10-18T10:41:07Z</time>
      </trkpt>
      <trkpt lat="37.0771160" lon="-2.1771020">
        <ele>517.1</ele>
        <time>2019-10-18T10:41:08Z</time>
      </trkpt>
      <trkpt lat="37.0770900" lon="-2.1771350">
        <ele>517.2</ele>
        <time>2019-10-18T10:41:09Z</time>
      </trkpt>
      <trkpt lat="37.0770630" lon="-2.1771670">
        <ele>517.3</ele>
        <time>2019-10-18T10:41:10Z</time>
      </trkpt>
      <trkpt lat="37.0770370" lon="-2.1771980">
        <ele>517.5</ele>
        <time>2019-10-18T10:41:11Z</time>
      </trkpt>
      <trkpt lat="37.0770100" lon="-2.1772280">
        <ele>517.6</ele>
        <time>2019-10-18T10:41:12Z</time>
      </trkpt>
      <trkpt lat="37.0769830" lon="-2.1772580">
        <ele>517.7</ele>
        <time>2019-10-18T10:41:13Z</time>
      </trkpt>
      <trkpt lat="37.0769560" lon="-2.1772880">
        <ele>517.8</ele>
        <time>2019-10-18T10:41:14Z</time>
      </trkpt>
      <trkpt lat="37.0769290" lon="-2.1773170">
        <ele>517.9</ele>
        <time>2019-10-18T10:41:15Z</time>
      </trkpt>
      <trkpt lat="37.0769030" lon="-2.1773450">
        <ele>518.0</ele>
        <time>2019-10-18T10:41:16Z</time>
      </trkpt>
      <trkpt lat="37.0768780" lon="-2.1773730">
        <ele>518.1</ele>
        <time>2019-10-18T10:41:17Z</time>
      </trkpt>
      <trkpt lat="37.0768540" lon="-2.1774010">
        <ele>518.2</ele>
        <time>2019-10-18T10:41:18Z</time>
      </trkpt>
      <trkpt lat="37.0768320" lon="-2.1774270">
        <ele>518.2</ele>
        <time>2019-10-18T10:41:19Z</time>
      </trkpt>
      <trkpt lat="37.0768090" lon="-2.1774530">
        <ele>518.4</ele>
        <time>2019-10-18T10:41:20Z</time>
      </trkpt>
      <trkpt lat="37.0767870" lon="-2.1774770">
        <ele>518.4</ele>
        <time>2019-10-18T10:41:21Z</time>
      </trkpt>
      <trkpt lat="37.0767650" lon="-2.1775000">
        <ele>518.5</ele>
        <time>2019-10-18T10:41:22Z</time>
      </trkpt>
      <trkpt lat="37.0767430" lon="-2.1775230">
        <ele>518.6</ele>
        <time>2019-10-18T10:41:23Z</time>
      </trkpt>
      <trkpt lat="37.0767210" lon="-2.1775460">
        <ele>518.7</ele>
        <time>2019-10-18T10:41:24Z</time>
      </trkpt>
      <trkpt lat="37.0766980" lon="-2.1775690">
        <ele>518.9</ele>
        <time>2019-10-18T10:41:25Z</time>
      </trkpt>
      <trkpt lat="37.0766740" lon="-2.1775920">
        <ele>519.0</ele>
        <time>2019-10-18T10:41:26Z</time>
      </trkpt>
      <trkpt lat="37.0766520" lon="-2.1776170">
        <ele>519.1</ele>
        <time>2019-10-18T10:41:27Z</time>
      </trkpt>
      <trkpt lat="37.0766300" lon="-2.1776430">
        <ele>519.1</ele>
        <time>2019-10-18T10:41:28Z</time>
      </trkpt>
      <trkpt lat="37.0766090" lon="-2.1776700">
        <ele>519.3</ele>
        <time>2019-10-18T10:41:29Z</time>
      </trkpt>
      <trkpt lat="37.0765870" lon="-2.1776970">
        <ele>519.5</ele>
        <time>2019-10-18T10:41:30Z</time>
      </trkpt>
      <trkpt lat="37.0765660" lon="-2.1777260">
        <ele>519.6</ele>
        <time>2019-10-18T10:41:31Z</time>
      </trkpt>
      <trkpt lat="37.0765460" lon="-2.1777560">
        <ele>519.7</ele>
        <time>2019-10-18T10:41:32Z</time>
      </trkpt>
      <trkpt lat="37.0765260" lon="-2.1777870">
        <ele>520.0</ele>
        <time>2019-10-18T10:41:33Z</time>
      </trkpt>
      <trkpt lat="37.0765080" lon="-2.1778170">
        <ele>520.0</ele>
        <time>2019-10-18T10:41:34Z</time>
      </trkpt>
      <trkpt lat="37.0764900" lon="-2.1778480">
        <ele>520.2</ele>
        <time>2019-10-18T10:41:35Z</time>
      </trkpt>
      <trkpt lat="37.0764730" lon="-2.1778800">
        <ele>520.5</ele>
        <time>2019-10-18T10:41:36Z</time>
      </trkpt>
      <trkpt lat="37.0764570" lon="-2.1779140">
        <ele>520.8</ele>
        <time>2019-10-18T10:41:37Z</time>
      </trkpt>
      <trkpt lat="37.0764400" lon="-2.1779470">
        <ele>520.8</ele>
        <time>2019-10-18T10:41:38Z</time>
      </trkpt>
      <trkpt lat="37.0764230" lon="-2.1779800">
        <ele>521.1</ele>
        <time>2019-10-18T10:41:39Z</time>
      </trkpt>
      <trkpt lat="37.0764050" lon="-2.1780110">
        <ele>521.4</ele>
        <time>2019-10-18T10:41:40Z</time>
      </trkpt>
      <trkpt lat="37.0763870" lon="-2.1780400">
        <ele>521.7</ele>
        <time>2019-10-18T10:41:41Z</time>
      </trkpt>
      <trkpt lat="37.0763690" lon="-2.1780690">
        <ele>521.7</ele>
        <time>2019-10-18T10:41:42Z</time>
      </trkpt>
      <trkpt lat="37.0763500" lon="-2.1780960">
        <ele>521.9</ele>
        <time>2019-10-18T10:41:43Z</time>
      </trkpt>
      <trkpt lat="37.0763310" lon="-2.1781230">
        <ele>522.0</ele>
        <time>2019-10-18T10:41:44Z</time>
      </trkpt>
      <trkpt lat="37.0763120" lon="-2.1781510">
        <ele>522.2</ele>
        <time>2019-10-18T10:41:45Z</time>
      </trkpt>
      <trkpt lat="37.0762930" lon="-2.1781780">
        <ele>522.3</ele>
        <time>2019-10-18T10:41:46Z</time>
      </trkpt>
      <trkpt lat="37.0762740" lon="-2.1782070">
        <ele>522.3</ele>
        <time>2019-10-18T10:41:47Z</time>
      </trkpt>
      <trkpt lat="37.0762550" lon="-2.1782360">
        <ele>522.4</ele>
        <time>2019-10-18T10:41:48Z</time>
      </trkpt>
      <trkpt lat="37.0762360" lon="-2.1782670">
        <ele>522.4</ele>
        <time>2019-10-18T10:41:49Z</time>
      </trkpt>
      <trkpt lat="37.0762200" lon="-2.1782980">
        <ele>522.5</ele>
        <time>2019-10-18T10:41:50Z</time>
      </trkpt>
      <trkpt lat="37.0762050" lon="-2.1783300">
        <ele>522.5</ele>
        <time>2019-10-18T10:41:51Z</time>
      </trkpt>
      <trkpt lat="37.0761900" lon="-2.1783620">
        <ele>522.5</ele>
        <time>2019-10-18T10:41:52Z</time>
      </trkpt>
      <trkpt lat="37.0761760" lon="-2.1783940">
        <ele>522.5</ele>
        <time>2019-10-18T10:41:53Z</time>
      </trkpt>
      <trkpt lat="37.0761600" lon="-2.1784250">
        <ele>522.4</ele>
        <time>2019-10-18T10:41:54Z</time>
      </trkpt>
      <trkpt lat="37.0761440" lon="-2.1784570">
        <ele>522.4</ele>
        <time>2019-10-18T10:41:55Z</time>
      </trkpt>
      <trkpt lat="37.0761280" lon="-2.1784890">
        <ele>522.3</ele>
        <time>2019-10-18T10:41:56Z</time>
      </trkpt>
      <trkpt lat="37.0761120" lon="-2.1785200">
        <ele>522.4</ele>
        <time>2019-10-18T10:41:57Z</time>
      </trkpt>
      <trkpt lat="37.0760950" lon="-2.1785490">
        <ele>522.3</ele>
        <time>2019-10-18T10:41:58Z</time>
      </trkpt>
      <trkpt lat="37.0760770" lon="-2.1785790">
        <ele>522.3</ele>
        <time>2019-10-18T10:41:59Z</time>
      </trkpt>
      <trkpt lat="37.0760600" lon="-2.1786090">
        <ele>522.3</ele>
        <time>2019-10-18T10:42:00Z</time>
      </trkpt>
      <trkpt lat="37.0760450" lon="-2.1786380">
        <ele>522.3</ele>
        <time>2019-10-18T10:42:01Z</time>
      </trkpt>
      <trkpt lat="37.0760320" lon="-2.1786660">
        <ele>522.4</ele>
        <time>2019-10-18T10:42:02Z</time>
      </trkpt>
      <trkpt lat="37.0760200" lon="-2.1786920">
        <ele>522.3</ele>
        <time>2019-10-18T10:42:03Z</time>
      </trkpt>
      <trkpt lat="37.0760060" lon="-2.1787190">
        <ele>522.3</ele>
        <time>2019-10-18T10:42:04Z</time>
      </trkpt>
      <trkpt lat="37.0759920" lon="-2.1787450">
        <ele>522.3</ele>
        <time>2019-10-18T10:42:05Z</time>
      </trkpt>
      <trkpt lat="37.0759780" lon="-2.1787710">
        <ele>522.4</ele>
        <time>2019-10-18T10:42:06Z</time>
      </trkpt>
      <trkpt lat="37.0759630" lon="-2.1787970">
        <ele>522.3</ele>
        <time>2019-10-18T10:42:07Z</time>
      </trkpt>
      <trkpt lat="37.0759470" lon="-2.1788220">
        <ele>522.4</ele>
        <time>2019-10-18T10:42:08Z</time>
      </trkpt>
      <trkpt lat="37.0759300" lon="-2.1788490">
        <ele>522.4</ele>
        <time>2019-10-18T10:42:09Z</time>
      </trkpt>
      <trkpt lat="37.0759140" lon="-2.1788760">
        <ele>522.4</ele>
        <time>2019-10-18T10:42:10Z</time>
      </trkpt>
      <trkpt lat="37.0758980" lon="-2.1789050">
        <ele>522.4</ele>
        <time>2019-10-18T10:42:11Z</time>
      </trkpt>
      <trkpt lat="37.0758810" lon="-2.1789330">
        <ele>522.4</ele>
        <time>2019-10-18T10:42:12Z</time>
      </trkpt>
      <trkpt lat="37.0758640" lon="-2.1789620">
        <ele>522.5</ele>
        <time>2019-10-18T10:42:13Z</time>
      </trkpt>
      <trkpt lat="37.0758470" lon="-2.1789920">
        <ele>522.5</ele>
        <time>2019-10-18T10:42:14Z</time>
      </trkpt>
      <trkpt lat="37.0758300" lon="-2.1790220">
        <ele>522.5</ele>
        <time>2019-10-18T10:42:15Z</time>
      </trkpt>
      <trkpt lat="37.0758130" lon="-2.1790530">
        <ele>522.5</ele>
        <time>2019-10-18T10:42:16Z</time>
      </trkpt>
      <trkpt lat="37.0757950" lon="-2.1790830">
        <ele>522.6</ele>
        <time>2019-10-18T10:42:17Z</time>
      </trkpt>
      <trkpt lat="37.0757770" lon="-2.1791130">
        <ele>522.7</ele>
        <time>2019-10-18T10:42:18Z</time>
      </trkpt>
      <trkpt lat="37.0757580" lon="-2.1791420">
        <ele>522.7</ele>
        <time>2019-10-18T10:42:19Z</time>
      </trkpt>
      <trkpt lat="37.0757390" lon="-2.1791700">
        <ele>522.8</ele>
        <time>2019-10-18T10:42:20Z</time>
      </trkpt>
      <trkpt lat="37.0757200" lon="-2.1791990">
        <ele>523.0</ele>
        <time>2019-10-18T10:42:21Z</time>
      </trkpt>
      <trkpt lat="37.0757010" lon="-2.1792270">
        <ele>523.0</ele>
        <time>2019-10-18T10:42:22Z</time>
      </trkpt>
      <trkpt lat="37.0756810" lon="-2.1792560">
        <ele>523.2</ele>
        <time>2019-10-18T10:42:23Z</time>
      </trkpt>
      <trkpt lat="37.0756610" lon="-2.1792860">
        <ele>523.3</ele>
        <time>2019-10-18T10:42:24Z</time>
      </trkpt>
      <trkpt lat="37.0756420" lon="-2.1793150">
        <ele>523.4</ele>
        <time>2019-10-18T10:42:25Z</time>
      </trkpt>
      <trkpt lat="37.0756240" lon="-2.1793440">
        <ele>523.6</ele>
        <time>2019-10-18T10:42:26Z</time>
      </trkpt>
      <trkpt lat="37.0756060" lon="-2.1793720">
        <ele>523.8</ele>
        <time>2019-10-18T10:42:27Z</time>
      </trkpt>
      <trkpt lat="37.0755870" lon="-2.1794000">
        <ele>523.8</ele>
        <time>2019-10-18T10:42:28Z</time>
      </trkpt>
      <trkpt lat="37.0755670" lon="-2.1794290">
        <ele>524.1</ele>
        <time>2019-10-18T10:42:29Z</time>
      </trkpt>
      <trkpt lat="37.0755480" lon="-2.1794590">
        <ele>524.4</ele>
        <time>2019-10-18T10:42:30Z</time>
      </trkpt>
      <trkpt lat="37.0755290" lon="-2.1794880">
        <ele>524.4</ele>
        <time>2019-10-18T10:42:31Z</time>
      </trkpt>
      <trkpt lat="37.0755090" lon="-2.1795170">
        <ele>524.6</ele>
        <time>2019-10-18T10:42:32Z</time>
      </trkpt>
      <trkpt lat="37.0754900" lon="-2.1795450">
        <ele>524.8</ele>
        <time>2019-10-18T10:42:33Z</time>
      </trkpt>
      <trkpt lat="37.0754700" lon="-2.1795730">
        <ele>524.9</ele>
        <time>2019-10-18T10:42:34Z</time>
      </trkpt>
      <trkpt lat="37.0754500" lon="-2.1796010">
        <ele>525.0</ele>
        <time>2019-10-18T10:42:35Z</time>
      </trkpt>
      <trkpt lat="37.0754300" lon="-2.1796290">
        <ele>525.2</ele>
        <time>2019-10-18T10:42:36Z</time>
      </trkpt>
      <trkpt lat="37.0754120" lon="-2.1796580">
        <ele>525.3</ele>
        <time>2019-10-18T10:42:37Z</time>
      </trkpt>
      <trkpt lat="37.0753940" lon="-2.1796870">
        <ele>525.4</ele>
        <time>2019-10-18T10:42:38Z</time>
      </trkpt>
      <trkpt lat="37.0753760" lon="-2.1797160">
        <ele>525.6</ele>
        <time>2019-10-18T10:42:39Z</time>
      </trkpt>
      <trkpt lat="37.0753580" lon="-2.1797440">
        <ele>525.6</ele>
        <time>2019-10-18T10:42:40Z</time>
      </trkpt>
      <trkpt lat="37.0753400" lon="-2.1797730">
        <ele>525.9</ele>
        <time>2019-10-18T10:42:41Z</time>
      </trkpt>
      <trkpt lat="37.0753230" lon="-2.1798000">
        <ele>526.0</ele>
        <time>2019-10-18T10:42:42Z</time>
      </trkpt>
      <trkpt lat="37.0753070" lon="-2.1798270">
        <ele>526.2</ele>
        <time>2019-10-18T10:42:43Z</time>
      </trkpt>
      <trkpt lat="37.0752900" lon="-2.1798520">
        <ele>526.3</ele>
        <time>2019-10-18T10:42:44Z</time>
      </trkpt>
      <trkpt lat="37.0752740" lon="-2.1798750">
        <ele>526.5</ele>
        <time>2019-10-18T10:42:45Z</time>
      </trkpt>
      <trkpt lat="37.0752600" lon="-2.1798960">
        <ele>526.6</ele>
        <time>2019-10-18T10:42:46Z</time>
      </trkpt>
      <trkpt lat="37.0752480" lon="-2.1799140">
        <ele>526.6</ele>
        <time>2019-10-18T10:42:47Z</time>
      </trkpt>
      <trkpt lat="37.0752360" lon="-2.1799320">
        <ele>526.9</ele>
        <time>2019-10-18T10:42:48Z</time>
      </trkpt>
      <trkpt lat="37.0752240" lon="-2.1799510">
        <ele>526.9</ele>
        <time>2019-10-18T10:42:49Z</time>
      </trkpt>
      <trkpt lat="37.0752120" lon="-2.1799700">
        <ele>526.9</ele>
        <time>2019-10-18T10:42:50Z</time>
      </trkpt>
      <trkpt lat="37.0751990" lon="-2.1799890">
        <ele>527.2</ele>
        <time>2019-10-18T10:42:51Z</time>
      </trkpt>
      <trkpt lat="37.0751840" lon="-2.1800070">
        <ele>527.2</ele>
        <time>2019-10-18T10:42:52Z</time>
      </trkpt>
      <trkpt lat="37.0751660" lon="-2.1800230">
        <ele>527.6</ele>
        <time>2019-10-18T10:42:53Z</time>
      </trkpt>
      <trkpt lat="37.0751470" lon="-2.1800410">
        <ele>527.6</ele>
        <time>2019-10-18T10:42:54Z</time>
      </trkpt>
      <trkpt lat="37.0751280" lon="-2.1800610">
        <ele>527.9</ele>
        <time>2019-10-18T10:42:55Z</time>
      </trkpt>
      <trkpt lat="37.0751100" lon="-2.1800820">
        <ele>527.9</ele>
        <time>2019-10-18T10:42:56Z</time>
      </trkpt>
      <trkpt lat="37.0750920" lon="-2.1801040">
        <ele>528.3</ele>
        <time>2019-10-18T10:42:57Z</time>
      </trkpt>
      <trkpt lat="37.0750740" lon="-2.1801250">
        <ele>528.3</ele>
        <time>2019-10-18T10:42:58Z</time>
      </trkpt>
      <trkpt lat="37.0750550" lon="-2.1801460">
        <ele>528.8</ele>
        <time>2019-10-18T10:42:59Z</time>
      </trkpt>
      <trkpt lat="37.0750350" lon="-2.1801660">
        <ele>529.1</ele>
        <time>2019-10-18T10:43:00Z</time>
      </trkpt>
      <trkpt lat="37.0750160" lon="-2.1801870">
        <ele>529.3</ele>
        <time>2019-10-18T10:43:01Z</time>
      </trkpt>
      <trkpt lat="37.0749970" lon="-2.1802080">
        <ele>529.6</ele>
        <time>2019-10-18T10:43:02Z</time>
      </trkpt>
      <trkpt lat="37.0749790" lon="-2.1802270">
        <ele>529.6</ele>
        <time>2019-10-18T10:43:03Z</time>
      </trkpt>
      <trkpt lat="37.0749620" lon="-2.1802450">
        <ele>530.1</ele>
        <time>2019-10-18T10:43:04Z</time>
      </trkpt>
      <trkpt lat="37.0749460" lon="-2.1802630">
        <ele>530.1</ele>
        <time>2019-10-18T10:43:05Z</time>
      </trkpt>
      <trkpt lat="37.0749300" lon="-2.1802810">
        <ele>530.6</ele>
        <time>2019-10-18T10:43:06Z</time>
      </trkpt>
      <trkpt lat="37.0749160" lon="-2.1802990">
        <ele>530.6</ele>
        <time>2019-10-18T10:43:07Z</time>
      </trkpt>
      <trkpt lat="37.0748990" lon="-2.1803160">
        <ele>531.1</ele>
        <time>2019-10-18T10:43:08Z</time>
      </trkpt>
      <trkpt lat="37.0748820" lon="-2.1803330">
        <ele>531.1</ele>
        <time>2019-10-18T10:43:09Z</time>
      </trkpt>
      <trkpt lat="37.0748650" lon="-2.1803510">
        <ele>531.4</ele>
        <time>2019-10-18T10:43:10Z</time>
      </trkpt>
      <trkpt lat="37.0748470" lon="-2.1803680">
        <ele>531.6</ele>
        <time>2019-10-18T10:43:11Z</time>
      </trkpt>
      <trkpt lat="37.0748300" lon="-2.1803860">
        <ele>531.9</ele>
        <time>2019-10-18T10:43:12Z</time>
      </trkpt>
      <trkpt lat="37.0748120" lon="-2.1804050">
        <ele>532.1</ele>
        <time>2019-10-18T10:43:13Z</time>
      </trkpt>
      <trkpt lat="37.0747950" lon="-2.1804230">
        <ele>532.4</ele>
        <time>2019-10-18T10:43:14Z</time>
      </trkpt>
      <trkpt lat="37.0747780" lon="-2.1804410">
        <ele>532.4</ele>
        <time>2019-10-18T10:43:15Z</time>
      </trkpt>
      <trkpt lat="37.0747620" lon="-2.1804570">
        <ele>532.9</ele>
        <time>2019-10-18T10:43:16Z</time>
      </trkpt>
      <trkpt lat="37.0747460" lon="-2.1804710">
        <ele>532.9</ele>
        <time>2019-10-18T10:43:17Z</time>
      </trkpt>
      <trkpt lat="37.0747320" lon="-2.1804850">
        <ele>532.9</ele>
        <time>2019-10-18T10:43:18Z</time>
      </trkpt>
      <trkpt lat="37.0747190" lon="-2.1804980">
        <ele>533.3</ele>
        <time>2019-10-18T10:43:19Z</time>
      </trkpt>
      <trkpt lat="37.0747070" lon="-2.1805110">
        <ele>533.3</ele>
        <time>2019-10-18T10:43:20Z</time>
      </trkpt>
      <trkpt lat="37.0746930" lon="-2.1805250">
        <ele>533.5</ele>
        <time>2019-10-18T10:43:21Z</time>
      </trkpt>
      <trkpt lat="37.0746780" lon="-2.1805400">
        <ele>533.7</ele>
        <time>2019-10-18T10:43:22Z</time>
      </trkpt>
      <trkpt lat="37.0746640" lon="-2.1805570">
        <ele>533.7</ele>
        <time>2019-10-18T10:43:23Z</time>
      </trkpt>
      <trkpt lat="37.0746520" lon="-2.1805720">
        <ele>534.0</ele>
        <time>2019-10-18T10:43:24Z</time>
      </trkpt>
      <trkpt lat="37.0746440" lon="-2.1805830">
        <ele>534.0</ele>
        <time>2019-10-18T10:43:25Z</time>
      </trkpt>
      <trkpt lat="37.0746380" lon="-2.1805880">
        <ele>534.0</ele>
        <time>2019-10-18T10:43:26Z</time>
      </trkpt>
      <trkpt lat="37.0746340" lon="-2.1805920">
        <ele>534.0</ele>
        <time>2019-10-18T10:43:27Z</time>
      </trkpt>
      <trkpt lat="37.0746290" lon="-2.1805960">
        <ele>534.0</ele>
        <time>2019-10-18T10:43:28Z</time>
      </trkpt>
      <trkpt lat="37.0746230" lon="-2.1806020">
        <ele>534.2</ele>
        <time>2019-10-18T10:43:29Z</time>
      </trkpt>
      <trkpt lat="37.0746170" lon="-2.1806120">
        <ele>534.2</ele>
        <time>2019-10-18T10:43:30Z</time>
      </trkpt>
      <trkpt lat="37.0746120" lon="-2.1806210">
        <ele>534.3</ele>
        <time>2019-10-18T10:43:31Z</time>
      </trkpt>
      <trkpt lat="37.0746070" lon="-2.1806320">
        <ele>534.3</ele>
        <time>2019-10-18T10:43:32Z</time>
      </trkpt>
      <trkpt lat="37.0746000" lon="-2.1806400">
        <ele>534.3</ele>
        <time>2019-10-18T10:43:33Z</time>
      </trkpt>
      <trkpt lat="37.0745930" lon="-2.1806490">
        <ele>534.5</ele>
        <time>2019-10-18T10:43:34Z</time>
      </trkpt>
      <trkpt lat="37.0745850" lon="-2.1806580">
        <ele>534.6</ele>
        <time>2019-10-18T10:43:35Z</time>
      </trkpt>
      <trkpt lat="37.0745760" lon="-2.1806690">
        <ele>534.6</ele>
        <time>2019-10-18T10:43:36Z</time>
      </trkpt>
      <trkpt lat="37.0745660" lon="-2.1806810">
        <ele>534.6</ele>
        <time>2019-10-18T10:43:37Z</time>
      </trkpt>
      <trkpt lat="37.0745560" lon="-2.1806930">
        <ele>534.8</ele>
        <time>2019-10-18T10:43:38Z</time>
      </trkpt>
      <trkpt lat="37.0745450" lon="-2.1807050">
        <ele>534.9</ele>
        <time>2019-10-18T10:43:39Z</time>
      </trkpt>
      <trkpt lat="37.0745330" lon="-2.1807170">
        <ele>534.9</ele>
        <time>2019-10-18T10:43:40Z</time>
      </trkpt>
      <trkpt lat="37.0745200" lon="-2.1807300">
        <ele>535.1</ele>
        <time>2019-10-18T10:43:41Z</time>
      </trkpt>
      <trkpt lat="37.0745080" lon="-2.1807450">
        <ele>535.2</ele>
        <time>2019-10-18T10:43:42Z</time>
      </trkpt>
      <trkpt lat="37.0744950" lon="-2.1807640">
        <ele>535.2</ele>
        <time>2019-10-18T10:43:43Z</time>
      </trkpt>
      <trkpt lat="37.0744810" lon="-2.1807820">
        <ele>535.4</ele>
        <time>2019-10-18T10:43:44Z</time>
      </trkpt>
      <trkpt lat="37.0744660" lon="-2.1808010">
        <ele>535.5</ele>
        <time>2019-10-18T10:43:45Z</time>
      </trkpt>
      <trkpt lat="37.0744520" lon="-2.1808190">
        <ele>535.7</ele>
        <time>2019-10-18T10:43:46Z</time>
      </trkpt>
      <trkpt lat="37.0744380" lon="-2.1808360">
        <ele>535.8</ele>
        <time>2019-10-18T10:43:47Z</time>
      </trkpt>
      <trkpt lat="37.0744260" lon="-2.1808530">
        <ele>535.8</ele>
        <time>2019-10-18T10:43:48Z</time>
      </trkpt>
      <trkpt lat="37.0744120" lon="-2.1808710">
        <ele>535.9</ele>
        <time>2019-10-18T10:43:49Z</time>
      </trkpt>
      <trkpt lat="37.0743990" lon="-2.1808890">
        <ele>536.0</ele>
        <time>2019-10-18T10:43:50Z</time>
      </trkpt>
      <trkpt lat="37.0743850" lon="-2.1809080">
        <ele>536.2</ele>
        <time>2019-10-18T10:43:51Z</time>
      </trkpt>
      <trkpt lat="37.0743700" lon="-2.1809260">
        <ele>536.3</ele>
        <time>2019-10-18T10:43:52Z</time>
      </trkpt>
      <trkpt lat="37.0743560" lon="-2.1809430">
        <ele>536.3</ele>
        <time>2019-10-18T10:43:53Z</time>
      </trkpt>
      <trkpt lat="37.0743420" lon="-2.1809610">
        <ele>536.6</ele>
        <time>2019-10-18T10:43:54Z</time>
      </trkpt>
      <trkpt lat="37.0743280" lon="-2.1809790">
        <ele>536.6</ele>
        <time>2019-10-18T10:43:55Z</time>
      </trkpt>
      <trkpt lat="37.0743160" lon="-2.1809980">
        <ele>536.7</ele>
        <time>2019-10-18T10:43:56Z</time>
      </trkpt>
      <trkpt lat="37.0743030" lon="-2.1810160">
        <ele>536.9</ele>
        <time>2019-10-18T10:43:57Z</time>
      </trkpt>
      <trkpt lat="37.0742900" lon="-2.1810330">
        <ele>536.9</ele>
        <time>2019-10-18T10:43:58Z</time>
      </trkpt>
      <trkpt lat="37.0742770" lon="-2.1810500">
        <ele>537.2</ele>
        <time>2019-10-18T10:43:59Z</time>
      </trkpt>
      <trkpt lat="37.0742640" lon="-2.1810680">
        <ele>537.2</ele>
        <time>2019-10-18T10:44:00Z</time>
      </trkpt>
      <trkpt lat="37.0742520" lon="-2.1810880">
        <ele>537.4</ele>
        <time>2019-10-18T10:44:01Z</time>
      </trkpt>
      <trkpt lat="37.0742410" lon="-2.1811080">
        <ele>537.5</ele>
        <time>2019-10-18T10:44:02Z</time>
      </trkpt>
      <trkpt lat="37.0742300" lon="-2.1811280">
        <ele>537.5</ele>
        <time>2019-10-18T10:44:03Z</time>
      </trkpt>
      <trkpt lat="37.0742200" lon="-2.1811470">
        <ele>537.7</ele>
        <time>2019-10-18T10:44:04Z</time>
      </trkpt>
      <trkpt lat="37.0742100" lon="-2.1811650">
        <ele>537.8</ele>
        <time>2019-10-18T10:44:05Z</time>
      </trkpt>
      <trkpt lat="37.0741990" lon="-2.1811820">
        <ele>538.0</ele>
        <time>2019-10-18T10:44:06Z</time>
      </trkpt>
      <trkpt lat="37.0741890" lon="-2.1812000">
        <ele>538.0</ele>
        <time>2019-10-18T10:44:07Z</time>
      </trkpt>
      <trkpt lat="37.0741800" lon="-2.1812190">
        <ele>538.3</ele>
        <time>2019-10-18T10:44:08Z</time>
      </trkpt>
      <trkpt lat="37.0741720" lon="-2.1812390">
        <ele>538.3</ele>
        <time>2019-10-18T10:44:09Z</time>
      </trkpt>
      <trkpt lat="37.0741640" lon="-2.1812600">
        <ele>538.4</ele>
        <time>2019-10-18T10:44:10Z</time>
      </trkpt>
      <trkpt lat="37.0741580" lon="-2.1812820">
        <ele>538.4</ele>
        <time>2019-10-18T10:44:11Z</time>
      </trkpt>
      <trkpt lat="37.0741530" lon="-2.1813060">
        <ele>538.5</ele>
        <time>2019-10-18T10:44:12Z</time>
      </trkpt>
      <trkpt lat="37.0741480" lon="-2.1813310">
        <ele>538.6</ele>
        <time>2019-10-18T10:44:13Z</time>
      </trkpt>
      <trkpt lat="37.0741440" lon="-2.1813560">
        <ele>538.7</ele>
        <time>2019-10-18T10:44:14Z</time>
      </trkpt>
      <trkpt lat="37.0741380" lon="-2.1813810">
        <ele>538.7</ele>
        <time>2019-10-18T10:44:15Z</time>
      </trkpt>
      <trkpt lat="37.0741330" lon="-2.1814070">
        <ele>538.8</ele>
        <time>2019-10-18T10:44:16Z</time>
      </trkpt>
      <trkpt lat="37.0741280" lon="-2.1814320">
        <ele>538.9</ele>
        <time>2019-10-18T10:44:17Z</time>
      </trkpt>
      <trkpt lat="37.0741220" lon="-2.1814570">
        <ele>538.9</ele>
        <time>2019-10-18T10:44:18Z</time>
      </trkpt>
      <trkpt lat="37.0741160" lon="-2.1814800">
        <ele>538.9</ele>
        <time>2019-10-18T10:44:19Z</time>
      </trkpt>
      <trkpt lat="37.0741080" lon="-2.1815030">
        <ele>539.0</ele>
        <time>2019-10-18T10:44:20Z</time>
      </trkpt>
      <trkpt lat="37.0741010" lon="-2.1815260">
        <ele>539.1</ele>
        <time>2019-10-18T10:44:21Z</time>
      </trkpt>
      <trkpt lat="37.0740950" lon="-2.1815480">
        <ele>539.1</ele>
        <time>2019-10-18T10:44:22Z</time>
      </trkpt>
      <trkpt lat="37.0740880" lon="-2.1815690">
        <ele>539.1</ele>
        <time>2019-10-18T10:44:23Z</time>
      </trkpt>
      <trkpt lat="37.0740800" lon="-2.1815880">
        <ele>539.2</ele>
        <time>2019-10-18T10:44:24Z</time>
      </trkpt>
      <trkpt lat="37.0740730" lon="-2.1816080">
        <ele>539.3</ele>
        <time>2019-10-18T10:44:25Z</time>
      </trkpt>
      <trkpt lat="37.0740660" lon="-2.1816280">
        <ele>539.3</ele>
        <time>2019-10-18T10:44:26Z</time>
      </trkpt>
      <trkpt lat="37.0740590" lon="-2.1816490">
        <ele>539.3</ele>
        <time>2019-10-18T10:44:27Z</time>
      </trkpt>
      <trkpt lat="37.0740500" lon="-2.1816700">
        <ele>539.3</ele>
        <time>2019-10-18T10:44:28Z</time>
      </trkpt>
      <trkpt lat="37.0740400" lon="-2.1816920">
        <ele>539.4</ele>
        <time>2019-10-18T10:44:29Z</time>
      </trkpt>
      <trkpt lat="37.0740300" lon="-2.1817140">
        <ele>539.4</ele>
        <time>2019-10-18T10:44:30Z</time>
      </trkpt>
      <trkpt lat="37.0740200" lon="-2.1817360">
        <ele>539.5</ele>
        <time>2019-10-18T10:44:31Z</time>
      </trkpt>
      <trkpt lat="37.0740100" lon="-2.1817580">
        <ele>539.5</ele>
        <time>2019-10-18T10:44:32Z</time>
      </trkpt>
      <trkpt lat="37.0739980" lon="-2.1817800">
        <ele>539.5</ele>
        <time>2019-10-18T10:44:33Z</time>
      </trkpt>
      <trkpt lat="37.0739860" lon="-2.1818030">
        <ele>539.5</ele>
        <time>2019-10-18T10:44:34Z</time>
      </trkpt>
      <trkpt lat="37.0739740" lon="-2.1818250">
        <ele>539.5</ele>
        <time>2019-10-18T10:44:35Z</time>
      </trkpt>
      <trkpt lat="37.0739610" lon="-2.1818470">
        <ele>539.5</ele>
        <time>2019-10-18T10:44:36Z</time>
      </trkpt>
      <trkpt lat="37.0739460" lon="-2.1818680">
        <ele>539.5</ele>
        <time>2019-10-18T10:44:37Z</time>
      </trkpt>
      <trkpt lat="37.0739300" lon="-2.1818890">
        <ele>539.5</ele>
        <time>2019-10-18T10:44:38Z</time>
      </trkpt>
      <trkpt lat="37.0739150" lon="-2.1819110">
        <ele>539.6</ele>
        <time>2019-10-18T10:44:39Z</time>
      </trkpt>
      <trkpt lat="37.0738990" lon="-2.1819320">
        <ele>539.5</ele>
        <time>2019-10-18T10:44:40Z</time>
      </trkpt>
      <trkpt lat="37.0738830" lon="-2.1819520">
        <ele>539.6</ele>
        <time>2019-10-18T10:44:41Z</time>
      </trkpt>
      <trkpt lat="37.0738660" lon="-2.1819740">
        <ele>539.5</ele>
        <time>2019-10-18T10:44:42Z</time>
      </trkpt>
      <trkpt lat="37.0738470" lon="-2.1819980">
        <ele>539.6</ele>
        <time>2019-10-18T10:44:43Z</time>
      </trkpt>
      <trkpt lat="37.0738290" lon="-2.1820260">
        <ele>539.5</ele>
        <time>2019-10-18T10:44:44Z</time>
      </trkpt>
      <trkpt lat="37.0738100" lon="-2.1820570">
        <ele>539.6</ele>
        <time>2019-10-18T10:44:45Z</time>
      </trkpt>
      <trkpt lat="37.0737920" lon="-2.1820900">
        <ele>539.6</ele>
        <time>2019-10-18T10:44:46Z</time>
      </trkpt>
      <trkpt lat="37.0737740" lon="-2.1821260">
        <ele>539.7</ele>
        <time>2019-10-18T10:44:47Z</time>
      </trkpt>
      <trkpt lat="37.0737590" lon="-2.1821650">
        <ele>539.7</ele>
        <time>2019-10-18T10:44:48Z</time>
      </trkpt>
      <trkpt lat="37.0737470" lon="-2.1822060">
        <ele>539.8</ele>
        <time>2019-10-18T10:44:49Z</time>
      </trkpt>
      <trkpt lat="37.0737380" lon="-2.1822490">
        <ele>539.9</ele>
        <time>2019-10-18T10:44:50Z</time>
      </trkpt>
      <trkpt lat="37.0737300" lon="-2.1822900">
        <ele>539.9</ele>
        <time>2019-10-18T10:44:51Z</time>
      </trkpt>
      <trkpt lat="37.0737230" lon="-2.1823290">
        <ele>539.9</ele>
        <time>2019-10-18T10:44:52Z</time>
      </trkpt>
      <trkpt lat="37.0737190" lon="-2.1823660">
        <ele>540.0</ele>
        <time>2019-10-18T10:44:53Z</time>
      </trkpt>
      <trkpt lat="37.0737150" lon="-2.1824010">
        <ele>540.0</ele>
        <time>2019-10-18T10:44:54Z</time>
      </trkpt>
      <trkpt lat="37.0737130" lon="-2.1824360">
        <ele>540.1</ele>
        <time>2019-10-18T10:44:55Z</time>
      </trkpt>
      <trkpt lat="37.0737100" lon="-2.1824690">
        <ele>540.2</ele>
        <time>2019-10-18T10:44:56Z</time>
      </trkpt>
      <trkpt lat="37.0737090" lon="-2.1825030">
        <ele>540.2</ele>
        <time>2019-10-18T10:44:57Z</time>
      </trkpt>
      <trkpt lat="37.0737090" lon="-2.1825370">
        <ele>540.2</ele>
        <time>2019-10-18T10:44:58Z</time>
      </trkpt>
      <trkpt lat="37.0737110" lon="-2.1825710">
        <ele>540.3</ele>
        <time>2019-10-18T10:44:59Z</time>
      </trkpt>
      <trkpt lat="37.0737130" lon="-2.1826050">
        <ele>540.4</ele>
        <time>2019-10-18T10:45:00Z</time>
      </trkpt>
      <trkpt lat="37.0737160" lon="-2.1826410">
        <ele>540.4</ele>
        <time>2019-10-18T10:45:01Z</time>
      </trkpt>
      <trkpt lat="37.0737200" lon="-2.1826800">
        <ele>540.4</ele>
        <time>2019-10-18T10:45:02Z</time>
      </trkpt>
      <trkpt lat="37.0737240" lon="-2.1827200">
        <ele>540.5</ele>
        <time>2019-10-18T10:45:03Z</time>
      </trkpt>
      <trkpt lat="37.0737240" lon="-2.1827610">
        <ele>540.5</ele>
        <time>2019-10-18T10:45:04Z</time>
      </trkpt>
      <trkpt lat="37.0737240" lon="-2.1828040">
        <ele>540.5</ele>
        <time>2019-10-18T10:45:05Z</time>
      </trkpt>
      <trkpt lat="37.0737230" lon="-2.1828460">
        <ele>540.5</ele>
        <time>2019-10-18T10:45:06Z</time>
      </trkpt>
      <trkpt lat="37.0737240" lon="-2.1828850">
        <ele>540.6</ele>
        <time>2019-10-18T10:45:07Z</time>
      </trkpt>
      <trkpt lat="37.0737220" lon="-2.1829220">
        <ele>540.6</ele>
        <time>2019-10-18T10:45:08Z</time>
      </trkpt>
      <trkpt lat="37.0737190" lon="-2.1829580">
        <ele>540.6</ele>
        <time>2019-10-18T10:45:09Z</time>
      </trkpt>
      <trkpt lat="37.0737140" lon="-2.1829970">
        <ele>540.6</ele>
        <time>2019-10-18T10:45:10Z</time>
      </trkpt>
      <trkpt lat="37.0737120" lon="-2.1830390">
        <ele>540.6</ele>
        <time>2019-10-18T10:45:11Z</time>
      </trkpt>
      <trkpt lat="37.0737110" lon="-2.1830820">
        <ele>540.5</ele>
        <time>2019-10-18T10:45:12Z</time>
      </trkpt>
      <trkpt lat="37.0737130" lon="-2.1831250">
        <ele>540.5</ele>
        <time>2019-10-18T10:45:13Z</time>
      </trkpt>
      <trkpt lat="37.0737180" lon="-2.1831670">
        <ele>540.5</ele>
        <time>2019-10-18T10:45:14Z</time>
      </trkpt>
      <trkpt lat="37.0737250" lon="-2.1832090">
        <ele>540.5</ele>
        <time>2019-10-18T10:45:15Z</time>
      </trkpt>
      <trkpt lat="37.0737340" lon="-2.1832500">
        <ele>540.5</ele>
        <time>2019-10-18T10:45:16Z</time>
      </trkpt>
      <trkpt lat="37.0737430" lon="-2.1832900">
        <ele>540.6</ele>
        <time>2019-10-18T10:45:17Z</time>
      </trkpt>
      <trkpt lat="37.0737520" lon="-2.1833260">
        <ele>540.6</ele>
        <time>2019-10-18T10:45:18Z</time>
      </trkpt>
      <trkpt lat="37.0737620" lon="-2.1833590">
        <ele>540.6</ele>
        <time>2019-10-18T10:45:19Z</time>
      </trkpt>
      <trkpt lat="37.0737710" lon="-2.1833900">
        <ele>540.6</ele>
        <time>2019-10-18T10:45:20Z</time>
      </trkpt>
      <trkpt lat="37.0737800" lon="-2.1834190">
        <ele>540.7</ele>
        <time>2019-10-18T10:45:21Z</time>
      </trkpt>
      <trkpt lat="37.0737890" lon="-2.1834470">
        <ele>540.7</ele>
        <time>2019-10-18T10:45:22Z</time>
      </trkpt>
      <trkpt lat="37.0738000" lon="-2.1834730">
        <ele>540.7</ele>
        <time>2019-10-18T10:45:23Z</time>
      </trkpt>
      <trkpt lat="37.0738090" lon="-2.1835000">
        <ele>540.8</ele>
        <time>2019-10-18T10:45:24Z</time>
      </trkpt>
      <trkpt lat="37.0738190" lon="-2.1835280">
        <ele>540.8</ele>
        <time>2019-10-18T10:45:25Z</time>
      </trkpt>
      <trkpt lat="37.0738270" lon="-2.1835570">
        <ele>540.8</ele>
        <time>2019-10-18T10:45:26Z</time>
      </trkpt>
      <trkpt lat="37.0738350" lon="-2.1835890">
        <ele>540.7</ele>
        <time>2019-10-18T10:45:27Z</time>
      </trkpt>
      <trkpt lat="37.0738420" lon="-2.1836200">
        <ele>540.8</ele>
        <time>2019-10-18T10:45:28Z</time>
      </trkpt>
      <trkpt lat="37.0738490" lon="-2.1836510">
        <ele>540.8</ele>
        <time>2019-10-18T10:45:29Z</time>
      </trkpt>
      <trkpt lat="37.0738560" lon="-2.1836810">
        <ele>540.8</ele>
        <time>2019-10-18T10:45:30Z</time>
      </trkpt>
      <trkpt lat="37.0738610" lon="-2.1837100">
        <ele>540.8</ele>
        <time>2019-10-18T10:45:31Z</time>
      </trkpt>
      <trkpt lat="37.0738630" lon="-2.1837390">
        <ele>540.8</ele>
        <time>2019-10-18T10:45:32Z</time>
      </trkpt>
      <trkpt lat="37.0738650" lon="-2.1837710">
        <ele>540.7</ele>
        <time>2019-10-18T10:45:33Z</time>
      </trkpt>
      <trkpt lat="37.0738660" lon="-2.1838040">
        <ele>540.7</ele>
        <time>2019-10-18T10:45:34Z</time>
      </trkpt>
      <trkpt lat="37.0738650" lon="-2.1838390">
        <ele>540.6</ele>
        <time>2019-10-18T10:45:35Z</time>
      </trkpt>
      <trkpt lat="37.0738630" lon="-2.1838740">
        <ele>540.6</ele>
        <time>2019-10-18T10:45:36Z</time>
      </trkpt>
      <trkpt lat="37.0738580" lon="-2.1839130">
        <ele>540.5</ele>
        <time>2019-10-18T10:45:37Z</time>
      </trkpt>
      <trkpt lat="37.0738530" lon="-2.1839560">
        <ele>540.5</ele>
        <time>2019-10-18T10:45:38Z</time>
      </trkpt>
      <trkpt lat="37.0738450" lon="-2.1840040">
        <ele>540.4</ele>
        <time>2019-10-18T10:45:39Z</time>
      </trkpt>
      <trkpt lat="37.0738360" lon="-2.1840570">
        <ele>540.3</ele>
        <time>2019-10-18T10:45:40Z</time>
      </trkpt>
      <trkpt lat="37.0738270" lon="-2.1841130">
        <ele>540.2</ele>
        <time>2019-10-18T10:45:41Z</time>
      </trkpt>
      <trkpt lat="37.0738170" lon="-2.1841680">
        <ele>540.2</ele>
        <time>2019-10-18T10:45:42Z</time>
      </trkpt>
      <trkpt lat="37.0738070" lon="-2.1842210">
        <ele>540.2</ele>
        <time>2019-10-18T10:45:43Z</time>
      </trkpt>
      <trkpt lat="37.0737990" lon="-2.1842690">
        <ele>540.1</ele>
        <time>2019-10-18T10:45:44Z</time>
      </trkpt>
      <trkpt lat="37.0737910" lon="-2.1843060">
        <ele>540.1</ele>
        <time>2019-10-18T10:45:45Z</time>
      </trkpt>
      <trkpt lat="37.0737860" lon="-2.1843300">
        <ele>540.1</ele>
        <time>2019-10-18T10:45:46Z</time>
      </trkpt>
      <trkpt lat="37.0737820" lon="-2.1843410">
        <ele>540.1</ele>
        <time>2019-10-18T10:45:47Z</time>
      </trkpt>
      <trkpt lat="37.0737810" lon="-2.1843450">
        <ele>540.1</ele>
        <time>2019-10-18T10:45:48Z</time>
      </trkpt>
      <trkpt lat="37.0737810" lon="-2.1843460">
        <ele>540.1</ele>
        <time>2019-10-18T10:45:49Z</time>
      </trkpt>
      <trkpt lat="37.0737810" lon="-2.1843470">
        <ele>540.1</ele>
        <time>2019-10-18T10:45:50Z</time>
      </trkpt>
      <trkpt lat="37.0737820" lon="-2.1843480">
        <ele>540.1</ele>
        <time>2019-10-18T10:45:51Z</time>
      </trkpt>
      <trkpt lat="37.0737810" lon="-2.1843480">
        <ele>540.1</ele>
        <time>2019-10-18T10:45:52Z</time>
      </trkpt>
      <trkpt lat="37.0737800" lon="-2.1843480">
        <ele>540.1</ele>
        <time>2019-10-18T10:45:53Z</time>
      </trkpt>
      <trkpt lat="37.0737790" lon="-2.1843480">
        <ele>540.1</ele>
        <time>2019-10-18T10:45:54Z</time>
      </trkpt>
      <trkpt lat="37.0737780" lon="-2.1843480">
        <ele>540.1</ele>
        <time>2019-10-18T10:45:55Z</time>
      </trkpt>
      <trkpt lat="37.0737770" lon="-2.1843470">
        <ele>540.1</ele>
        <time>2019-10-18T10:45:56Z</time>
      </trkpt>
      <trkpt lat="37.0737770" lon="-2.1843470">
        <ele>540.1</ele>
        <time>2019-10-18T10:45:57Z</time>
      </trkpt>
      <trkpt lat="37.0737770" lon="-2.1843460">
        <ele>540.1</ele>
        <time>2019-10-18T10:45:58Z</time>
      </trkpt>
      <trkpt lat="37.0737770" lon="-2.1843460">
        <ele>540.1</ele>
        <time>2019-10-18T10:45:59Z</time>
      </trkpt>
      <trkpt lat="37.0737770" lon="-2.1843460">
        <ele>540.1</ele>
        <time>2019-10-18T10:46:00Z</time>
      </trkpt>
      <trkpt lat="37.0737770" lon="-2.1843460">
        <ele>540.1</ele>
        <time>2019-10-18T10:46:01Z</time>
      </trkpt>
      <trkpt lat="37.0737760" lon="-2.1843460">
        <ele>540.1</ele>
        <time>2019-10-18T10:46:02Z</time>
      </trkpt>
      <trkpt lat="37.0737770" lon="-2.1843460">
        <ele>540.2</ele>
        <time>2019-10-18T10:46:03Z</time>
      </trkpt>
      <trkpt lat="37.0737770" lon="-2.1843450">
        <ele>540.2</ele>
        <time>2019-10-18T10:46:04Z</time>
      </trkpt>
      <trkpt lat="37.0737780" lon="-2.1843460">
        <ele>540.2</ele>
        <time>2019-10-18T10:46:05Z</time>
      </trkpt>
      <trkpt lat="37.0737790" lon="-2.1843470">
        <ele>540.2</ele>
        <time>2019-10-18T10:46:06Z</time>
      </trkpt>
      <trkpt lat="37.0737810" lon="-2.1843490">
        <ele>540.2</ele>
        <time>2019-10-18T10:46:07Z</time>
      </trkpt>
      <trkpt lat="37.0737810" lon="-2.1843500">
        <ele>540.2</ele>
        <time>2019-10-18T10:46:08Z</time>
      </trkpt>
      <trkpt lat="37.0737820" lon="-2.1843510">
        <ele>540.2</ele>
        <time>2019-10-18T10:46:09Z</time>
      </trkpt>
      <trkpt lat="37.0737820" lon="-2.1843510">
        <ele>540.2</ele>
        <time>2019-10-18T10:46:10Z</time>
      </trkpt>
      <trkpt lat="37.0737820" lon="-2.1843510">
        <ele>540.2</ele>
        <time>2019-10-18T10:46:11Z</time>
      </trkpt>
      <trkpt lat="37.0737820" lon="-2.1843500">
        <ele>540.2</ele>
        <time>2019-10-18T10:46:12Z</time>
      </trkpt>
      <trkpt lat="37.0737810" lon="-2.1843490">
        <ele>540.2</ele>
        <time>2019-10-18T10:46:13Z</time>
      </trkpt>
      <trkpt lat="37.0737810" lon="-2.1843500">
        <ele>540.2</ele>
        <time>2019-10-18T10:46:14Z</time>
      </trkpt>
      <trkpt lat="37.0737810" lon="-2.1843500">
        <ele>540.2</ele>
        <time>2019-10-18T10:46:15Z</time>
      </trkpt>
      <trkpt lat="37.0737800" lon="-2.1843520">
        <ele>540.2</ele>
        <time>2019-10-18T10:46:16Z</time>
      </trkpt>
      <trkpt lat="37.0737790" lon="-2.1843530">
        <ele>540.2</ele>
        <time>2019-10-18T10:46:17Z</time>
      </trkpt>
      <trkpt lat="37.0737790" lon="-2.1843550">
        <ele>540.2</ele>
        <time>2019-10-18T10:46:18Z</time>
      </trkpt>
      <trkpt lat="37.0737790" lon="-2.1843560">
        <ele>540.2</ele>
        <time>2019-10-18T10:46:19Z</time>
      </trkpt>
      <trkpt lat="37.0737790" lon="-2.1843560">
        <ele>540.2</ele>
        <time>2019-10-18T10:46:20Z</time>
      </trkpt>
      <trkpt lat="37.0737780" lon="-2.1843570">
        <ele>540.2</ele>
        <time>2019-10-18T10:46:21Z</time>
      </trkpt>
      <trkpt lat="37.0737780" lon="-2.1843570">
        <ele>540.2</ele>
        <time>2019-10-18T10:46:22Z</time>
      </trkpt>
      <trkpt lat="37.0737780" lon="-2.1843580">
        <ele>540.2</ele>
        <time>2019-10-18T10:46:23Z</time>
      </trkpt>
      <trkpt lat="37.0737780" lon="-2.1843580">
        <ele>540.2</ele>
        <time>2019-10-18T10:46:24Z</time>
      </trkpt>
      <trkpt lat="37.0737780" lon="-2.1843580">
        <ele>540.2</ele>
        <time>2019-10-18T10:46:25Z</time>
      </trkpt>
      <trkpt lat="37.0737780" lon="-2.1843570">
        <ele>540.2</ele>
        <time>2019-10-18T10:46:26Z</time>
      </trkpt>
      <trkpt lat="37.0737790" lon="-2.1843570">
        <ele>540.2</ele>
        <time>2019-10-18T10:46:27Z</time>
      </trkpt>
      <trkpt lat="37.0737790" lon="-2.1843560">
        <ele>540.2</ele>
        <time>2019-10-18T10:46:28Z</time>
      </trkpt>
      <trkpt lat="37.0737790" lon="-2.1843560">
        <ele>540.2</ele>
        <time>2019-10-18T10:46:29Z</time>
      </trkpt>
      <trkpt lat="37.0737790" lon="-2.1843560">
        <ele>540.2</ele>
        <time>2019-10-18T10:46:30Z</time>
      </trkpt>
      <trkpt lat="37.0737780" lon="-2.1843560">
        <ele>540.2</ele>
        <time>2019-10-18T10:46:31Z</time>
      </trkpt>
      <trkpt lat="37.0737770" lon="-2.1843580">
        <ele>540.2</ele>
        <time>2019-10-18T10:46:32Z</time>
      </trkpt>
      <trkpt lat="37.0737750" lon="-2.1843640">
        <ele>540.2</ele>
        <time>2019-10-18T10:46:33Z</time>
      </trkpt>
      <trkpt lat="37.0737730" lon="-2.1843740">
        <ele>540.2</ele>
        <time>2019-10-18T10:46:34Z</time>
      </trkpt>
      <trkpt lat="37.0737700" lon="-2.1843880">
        <ele>540.2</ele>
        <time>2019-10-18T10:46:35Z</time>
      </trkpt>
      <trkpt lat="37.0737660" lon="-2.1844040">
        <ele>540.2</ele>
        <time>2019-10-18T10:46:36Z</time>
      </trkpt>
      <trkpt lat="37.0737610" lon="-2.1844240">
        <ele>540.2</ele>
        <time>2019-10-18T10:46:37Z</time>
      </trkpt>
      <trkpt lat="37.0737550" lon="-2.1844460">
        <ele>540.2</ele>
        <time>2019-10-18T10:46:38Z</time>
      </trkpt>
      <trkpt lat="37.0737490" lon="-2.1844720">
        <ele>540.2</ele>
        <time>2019-10-18T10:46:39Z</time>
      </trkpt>
      <trkpt lat="37.0737420" lon="-2.1845000">
        <ele>540.2</ele>
        <time>2019-10-18T10:46:40Z</time>
      </trkpt>
      <trkpt lat="37.0737350" lon="-2.1845310">
        <ele>540.2</ele>
        <time>2019-10-18T10:46:41Z</time>
      </trkpt>
      <trkpt lat="37.0737290" lon="-2.1845630">
        <ele>540.3</ele>
        <time>2019-10-18T10:46:42Z</time>
      </trkpt>
      <trkpt lat="37.0737230" lon="-2.1845980">
        <ele>540.3</ele>
        <time>2019-10-18T10:46:43Z</time>
      </trkpt>
      <trkpt lat="37.0737180" lon="-2.1846350">
        <ele>540.3</ele>
        <time>2019-10-18T10:46:44Z</time>
      </trkpt>
      <trkpt lat="37.0737140" lon="-2.1846730">
        <ele>540.4</ele>
        <time>2019-10-18T10:46:45Z</time>
      </trkpt>
      <trkpt lat="37.0737110" lon="-2.1847130">
        <ele>540.4</ele>
        <time>2019-10-18T10:46:46Z</time>
      </trkpt>
      <trkpt lat="37.0737080" lon="-2.1847530">
        <ele>540.5</ele>
        <time>2019-10-18T10:46:47Z</time>
      </trkpt>
      <trkpt lat="37.0737060" lon="-2.1847940">
        <ele>540.6</ele>
        <time>2019-10-18T10:46:48Z</time>
      </trkpt>
      <trkpt lat="37.0737060" lon="-2.1848340">
        <ele>540.7</ele>
        <time>2019-10-18T10:46:49Z</time>
      </trkpt>
      <trkpt lat="37.0737060" lon="-2.1848740">
        <ele>540.7</ele>
        <time>2019-10-18T10:46:50Z</time>
      </trkpt>
      <trkpt lat="37.0737060" lon="-2.1849140">
        <ele>540.8</ele>
        <time>2019-10-18T10:46:51Z</time>
      </trkpt>
      <trkpt lat="37.0737060" lon="-2.1849530">
        <ele>540.9</ele>
        <time>2019-10-18T10:46:52Z</time>
      </trkpt>
      <trkpt lat="37.0737060" lon="-2.1849900">
        <ele>540.9</ele>
        <time>2019-10-18T10:46:53Z</time>
      </trkpt>
      <trkpt lat="37.0737050" lon="-2.1850250">
        <ele>541.1</ele>
        <time>2019-10-18T10:46:54Z</time>
      </trkpt>
      <trkpt lat="37.0737030" lon="-2.1850580">
        <ele>541.2</ele>
        <time>2019-10-18T10:46:55Z</time>
      </trkpt>
      <trkpt lat="37.0737010" lon="-2.1850910">
        <ele>541.3</ele>
        <time>2019-10-18T10:46:56Z</time>
      </trkpt>
      <trkpt lat="37.0736980" lon="-2.1851240">
        <ele>541.4</ele>
        <time>2019-10-18T10:46:57Z</time>
      </trkpt>
      <trkpt lat="37.0736950" lon="-2.1851570">
        <ele>541.4</ele>
        <time>2019-10-18T10:46:58Z</time>
      </trkpt>
      <trkpt lat="37.0736910" lon="-2.1851910">
        <ele>541.6</ele>
        <time>2019-10-18T10:46:59Z</time>
      </trkpt>
      <trkpt lat="37.0736870" lon="-2.1852240">
        <ele>541.7</ele>
        <time>2019-10-18T10:47:00Z</time>
      </trkpt>
      <trkpt lat="37.0736830" lon="-2.1852580">
        <ele>541.8</ele>
        <time>2019-10-18T10:47:01Z</time>
      </trkpt>
      <trkpt lat="37.0736780" lon="-2.1852920">
        <ele>541.8</ele>
        <time>2019-10-18T10:47:02Z</time>
      </trkpt>
      <trkpt lat="37.0736740" lon="-2.1853260">
        <ele>541.9</ele>
        <time>2019-10-18T10:47:03Z</time>
      </trkpt>
      <trkpt lat="37.0736690" lon="-2.1853610">
        <ele>542.0</ele>
        <time>2019-10-18T10:47:04Z</time>
      </trkpt>
      <trkpt lat="37.0736630" lon="-2.1853950">
        <ele>542.1</ele>
        <time>2019-10-18T10:47:05Z</time>
      </trkpt>
      <trkpt lat="37.0736570" lon="-2.1854290">
        <ele>542.1</ele>
        <time>2019-10-18T10:47:06Z</time>
      </trkpt>
      <trkpt lat="37.0736500" lon="-2.1854610">
        <ele>542.1</ele>
        <time>2019-10-18T10:47:07Z</time>
      </trkpt>
      <trkpt lat="37.0736430" lon="-2.1854920">
        <ele>542.1</ele>
        <time>2019-10-18T10:47:08Z</time>
      </trkpt>
      <trkpt lat="37.0736360" lon="-2.1855230">
        <ele>542.1</ele>
        <time>2019-10-18T10:47:09Z</time>
      </trkpt>
      <trkpt lat="37.0736290" lon="-2.1855550">
        <ele>542.1</ele>
        <time>2019-10-18T10:47:10Z</time>
      </trkpt>
      <trkpt lat="37.0736210" lon="-2.1855870">
        <ele>542.1</ele>
        <time>2019-10-18T10:47:11Z</time>
      </trkpt>
      <trkpt lat="37.0736120" lon="-2.1856210">
        <ele>542.2</ele>
        <time>2019-10-18T10:47:12Z</time>
      </trkpt>
      <trkpt lat="37.0736000" lon="-2.1856560">
        <ele>542.2</ele>
        <time>2019-10-18T10:47:13Z</time>
      </trkpt>
      <trkpt lat="37.0735880" lon="-2.1856940">
        <ele>542.3</ele>
        <time>2019-10-18T10:47:14Z</time>
      </trkpt>
      <trkpt lat="37.0735760" lon="-2.1857340">
        <ele>542.3</ele>
        <time>2019-10-18T10:47:15Z</time>
      </trkpt>
      <trkpt lat="37.0735630" lon="-2.1857740">
        <ele>542.4</ele>
        <time>2019-10-18T10:47:16Z</time>
      </trkpt>
      <trkpt lat="37.0735530" lon="-2.1858090">
        <ele>542.4</ele>
        <time>2019-10-18T10:47:17Z</time>
      </trkpt>
      <trkpt lat="37.0735440" lon="-2.1858390">
        <ele>542.4</ele>
        <time>2019-10-18T10:47:18Z</time>
      </trkpt>
      <trkpt lat="37.0735360" lon="-2.1858640">
        <ele>542.5</ele>
        <time>2019-10-18T10:47:19Z</time>
      </trkpt>
      <trkpt lat="37.0735290" lon="-2.1858860">
        <ele>542.6</ele>
        <time>2019-10-18T10:47:20Z</time>
      </trkpt>
      <trkpt lat="37.0735240" lon="-2.1859050">
        <ele>542.6</ele>
        <time>2019-10-18T10:47:21Z</time>
      </trkpt>
      <trkpt lat="37.0735200" lon="-2.1859210">
        <ele>542.6</ele>
        <time>2019-10-18T10:47:22Z</time>
      </trkpt>
      <trkpt lat="37.0735170" lon="-2.1859320">
        <ele>542.6</ele>
        <time>2019-10-18T10:47:23Z</time>
      </trkpt>
      <trkpt lat="37.0735140" lon="-2.1859400">
        <ele>542.7</ele>
        <time>2019-10-18T10:47:24Z</time>
      </trkpt>
      <trkpt lat="37.0735100" lon="-2.1859450">
        <ele>542.7</ele>
        <time>2019-10-18T10:47:25Z</time>
      </trkpt>
      <trkpt lat="37.0735050" lon="-2.1859520">
        <ele>542.7</ele>
        <time>2019-10-18T10:47:26Z</time>
      </trkpt>
      <trkpt lat="37.0735000" lon="-2.1859650">
        <ele>542.7</ele>
        <time>2019-10-18T10:47:27Z</time>
      </trkpt>
      <trkpt lat="37.0734930" lon="-2.1859870">
        <ele>542.8</ele>
        <time>2019-10-18T10:47:28Z</time>
      </trkpt>
      <trkpt lat="37.0734840" lon="-2.1860170">
        <ele>542.8</ele>
        <time>2019-10-18T10:47:29Z</time>
      </trkpt>
      <trkpt lat="37.0734750" lon="-2.1860540">
        <ele>542.9</ele>
        <time>2019-10-18T10:47:30Z</time>
      </trkpt>
      <trkpt lat="37.0734670" lon="-2.1860950">
        <ele>543.0</ele>
        <time>2019-10-18T10:47:31Z</time>
      </trkpt>
      <trkpt lat="37.0734600" lon="-2.1861390">
        <ele>543.2</ele>
        <time>2019-10-18T10:47:32Z</time>
      </trkpt>
      <trkpt lat="37.0734550" lon="-2.1861840">
        <ele>543.3</ele>
        <time>2019-10-18T10:47:33Z</time>
      </trkpt>
      <trkpt lat="37.0734500" lon="-2.1862300">
        <ele>543.4</ele>
        <time>2019-10-18T10:47:34Z</time>
      </trkpt>
      <trkpt lat="37.0734440" lon="-2.1862770">
        <ele>543.6</ele>
        <time>2019-10-18T10:47:35Z</time>
      </trkpt>
      <trkpt lat="37.0734390" lon="-2.1863240">
        <ele>543.8</ele>
        <time>2019-10-18T10:47:36Z</time>
      </trkpt>
      <trkpt lat="37.0734360" lon="-2.1863680">
        <ele>543.9</ele>
        <time>2019-10-18T10:47:37Z</time>
      </trkpt>
      <trkpt lat="37.0734330" lon="-2.1864090">
        <ele>544.0</ele>
        <time>2019-10-18T10:47:38Z</time>
      </trkpt>
      <trkpt lat="37.0734320" lon="-2.1864480">
        <ele>544.0</ele>
        <time>2019-10-18T10:47:39Z</time>
      </trkpt>
      <trkpt lat="37.0734320" lon="-2.1864850">
        <ele>544.1</ele>
        <time>2019-10-18T10:47:40Z</time>
      </trkpt>
      <trkpt lat="37.0734340" lon="-2.1865210">
        <ele>544.2</ele>
        <time>2019-10-18T10:47:41Z</time>
      </trkpt>
      <trkpt lat="37.0734370" lon="-2.1865540">
        <ele>544.2</ele>
        <time>2019-10-18T10:47:42Z</time>
      </trkpt>
      <trkpt lat="37.0734410" lon="-2.1865860">
        <ele>544.3</ele>
        <time>2019-10-18T10:47:43Z</time>
      </trkpt>
      <trkpt lat="37.0734450" lon="-2.1866160">
        <ele>544.3</ele>
        <time>2019-10-18T10:47:44Z</time>
      </trkpt>
      <trkpt lat="37.0734490" lon="-2.1866440">
        <ele>544.4</ele>
        <time>2019-10-18T10:47:45Z</time>
      </trkpt>
      <trkpt lat="37.0734540" lon="-2.1866730">
        <ele>544.5</ele>
        <time>2019-10-18T10:47:46Z</time>
      </trkpt>
      <trkpt lat="37.0734580" lon="-2.1867020">
        <ele>544.5</ele>
        <time>2019-10-18T10:47:47Z</time>
      </trkpt>
      <trkpt lat="37.0734630" lon="-2.1867330">
        <ele>544.6</ele>
        <time>2019-10-18T10:47:48Z</time>
      </trkpt>
      <trkpt lat="37.0734670" lon="-2.1867650">
        <ele>544.7</ele>
        <time>2019-10-18T10:47:49Z</time>
      </trkpt>
      <trkpt lat="37.0734710" lon="-2.1867970">
        <ele>544.7</ele>
        <time>2019-10-18T10:47:50Z</time>
      </trkpt>
      <trkpt lat="37.0734740" lon="-2.1868300">
        <ele>544.7</ele>
        <time>2019-10-18T10:47:51Z</time>
      </trkpt>
      <trkpt lat="37.0734770" lon="-2.1868630">
        <ele>544.8</ele>
        <time>2019-10-18T10:47:52Z</time>
      </trkpt>
      <trkpt lat="37.0734800" lon="-2.1868960">
        <ele>544.9</ele>
        <time>2019-10-18T10:47:53Z</time>
      </trkpt>
      <trkpt lat="37.0734830" lon="-2.1869280">
        <ele>545.0</ele>
        <time>2019-10-18T10:47:54Z</time>
      </trkpt>
      <trkpt lat="37.0734850" lon="-2.1869590">
        <ele>545.0</ele>
        <time>2019-10-18T10:47:55Z</time>
      </trkpt>
      <trkpt lat="37.0734870" lon="-2.1869900">
        <ele>545.0</ele>
        <time>2019-10-18T10:47:56Z</time>
      </trkpt>
      <trkpt lat="37.0734880" lon="-2.1870220">
        <ele>545.1</ele>
        <time>2019-10-18T10:47:57Z</time>
      </trkpt>
      <trkpt lat="37.0734890" lon="-2.1870550">
        <ele>545.2</ele>
        <time>2019-10-18T10:47:58Z</time>
      </trkpt>
      <trkpt lat="37.0734890" lon="-2.1870870">
        <ele>545.2</ele>
        <time>2019-10-18T10:47:59Z</time>
      </trkpt>
      <trkpt lat="37.0734890" lon="-2.1871190">
        <ele>545.2</ele>
        <time>2019-10-18T10:48:00Z</time>
      </trkpt>
      <trkpt lat="37.0734880" lon="-2.1871490">
        <ele>545.2</ele>
        <time>2019-10-18T10:48:01Z</time>
      </trkpt>
      <trkpt lat="37.0734880" lon="-2.1871790">
        <ele>545.2</ele>
        <time>2019-10-18T10:48:02Z</time>
      </trkpt>
      <trkpt lat="37.0734880" lon="-2.1872070">
        <ele>545.3</ele>
        <time>2019-10-18T10:48:03Z</time>
      </trkpt>
      <trkpt lat="37.0734870" lon="-2.1872350">
        <ele>545.3</ele>
        <time>2019-10-18T10:48:04Z</time>
      </trkpt>
      <trkpt lat="37.0734840" lon="-2.1872640">
        <ele>545.3</ele>
        <time>2019-10-18T10:48:05Z</time>
      </trkpt>
      <trkpt lat="37.0734800" lon="-2.1872950">
        <ele>545.3</ele>
        <time>2019-10-18T10:48:06Z</time>
      </trkpt>
      <trkpt lat="37.0734760" lon="-2.1873280">
        <ele>545.4</ele>
        <time>2019-10-18T10:48:07Z</time>
      </trkpt>
      <trkpt lat="37.0734710" lon="-2.1873620">
        <ele>545.4</ele>
        <time>2019-10-18T10:48:08Z</time>
      </trkpt>
      <trkpt lat="37.0734670" lon="-2.1873960">
        <ele>545.4</ele>
        <time>2019-10-18T10:48:09Z</time>
      </trkpt>
      <trkpt lat="37.0734610" lon="-2.1874300">
        <ele>545.5</ele>
        <time>2019-10-18T10:48:10Z</time>
      </trkpt>
      <trkpt lat="37.0734550" lon="-2.1874640">
        <ele>545.5</ele>
        <time>2019-10-18T10:48:11Z</time>
      </trkpt>
      <trkpt lat="37.0734480" lon="-2.1874990">
        <ele>545.5</ele>
        <time>2019-10-18T10:48:12Z</time>
      </trkpt>
      <trkpt lat="37.0734400" lon="-2.1875360">
        <ele>545.5</ele>
        <time>2019-10-18T10:48:13Z</time>
      </trkpt>
      <trkpt lat="37.0734320" lon="-2.1875740">
        <ele>545.5</ele>
        <time>2019-10-18T10:48:14Z</time>
      </trkpt>
      <trkpt lat="37.0734210" lon="-2.1876130">
        <ele>545.6</ele>
        <time>2019-10-18T10:48:15Z</time>
      </trkpt>
      <trkpt lat="37.0734090" lon="-2.1876520">
        <ele>545.6</ele>
        <time>2019-10-18T10:48:16Z</time>
      </trkpt>
      <trkpt lat="37.0733950" lon="-2.1876940">
        <ele>545.8</ele>
        <time>2019-10-18T10:48:17Z</time>
      </trkpt>
      <trkpt lat="37.0733810" lon="-2.1877390">
        <ele>545.7</ele>
        <time>2019-10-18T10:48:18Z</time>
      </trkpt>
      <trkpt lat="37.0733670" lon="-2.1877850">
        <ele>545.7</ele>
        <time>2019-10-18T10:48:19Z</time>
      </trkpt>
      <trkpt lat="37.0733520" lon="-2.1878300">
        <ele>545.8</ele>
        <time>2019-10-18T10:48:20Z</time>
      </trkpt>
      <trkpt lat="37.0733360" lon="-2.1878740">
        <ele>545.8</ele>
        <time>2019-10-18T10:48:21Z</time>
      </trkpt>
      <trkpt lat="37.0733220" lon="-2.1879150">
        <ele>545.9</ele>
        <time>2019-10-18T10:48:22Z</time>
      </trkpt>
      <trkpt lat="37.0733070" lon="-2.1879550">
        <ele>545.9</ele>
        <time>2019-10-18T10:48:23Z</time>
      </trkpt>
      <trkpt lat="37.0732940" lon="-2.1879920">
        <ele>545.9</ele>
        <time>2019-10-18T10:48:24Z</time>
      </trkpt>
      <trkpt lat="37.0732810" lon="-2.1880280">
        <ele>546.0</ele>
        <time>2019-10-18T10:48:25Z</time>
      </trkpt>
      <trkpt lat="37.0732680" lon="-2.1880610">
        <ele>546.0</ele>
        <time>2019-10-18T10:48:26Z</time>
      </trkpt>
      <trkpt lat="37.0732570" lon="-2.1880930">
        <ele>546.1</ele>
        <time>2019-10-18T10:48:27Z</time>
      </trkpt>
      <trkpt lat="37.0732460" lon="-2.1881240">
        <ele>546.1</ele>
        <time>2019-10-18T10:48:28Z</time>
      </trkpt>
      <trkpt lat="37.0732360" lon="-2.1881540">
        <ele>546.0</ele>
        <time>2019-10-18T10:48:29Z</time>
      </trkpt>
      <trkpt lat="37.0732270" lon="-2.1881820">
        <ele>545.8</ele>
        <time>2019-10-18T10:48:30Z</time>
      </trkpt>
      <trkpt lat="37.0732180" lon="-2.1882080">
        <ele>546.0</ele>
        <time>2019-10-18T10:48:31Z</time>
      </trkpt>
      <trkpt lat="37.0732080" lon="-2.1882330">
        <ele>545.8</ele>
        <time>2019-10-18T10:48:32Z</time>
      </trkpt>
      <trkpt lat="37.0732000" lon="-2.1882580">
        <ele>545.7</ele>
        <time>2019-10-18T10:48:33Z</time>
      </trkpt>
      <trkpt lat="37.0731920" lon="-2.1882830">
        <ele>545.7</ele>
        <time>2019-10-18T10:48:34Z</time>
      </trkpt>
      <trkpt lat="37.0731860" lon="-2.1883090">
        <ele>545.6</ele>
        <time>2019-10-18T10:48:35Z</time>
      </trkpt>
      <trkpt lat="37.0731810" lon="-2.1883350">
        <ele>545.6</ele>
        <time>2019-10-18T10:48:36Z</time>
      </trkpt>
      <trkpt lat="37.0731770" lon="-2.1883600">
        <ele>545.4</ele>
        <time>2019-10-18T10:48:37Z</time>
      </trkpt>
      <trkpt lat="37.0731730" lon="-2.1883810">
        <ele>545.4</ele>
        <time>2019-10-18T10:48:38Z</time>
      </trkpt>
      <trkpt lat="37.0731670" lon="-2.1884000">
        <ele>545.2</ele>
        <time>2019-10-18T10:48:39Z</time>
      </trkpt>
      <trkpt lat="37.0731590" lon="-2.1884180">
        <ele>545.2</ele>
        <time>2019-10-18T10:48:40Z</time>
      </trkpt>
      <trkpt lat="37.0731480" lon="-2.1884380">
        <ele>545.2</ele>
        <time>2019-10-18T10:48:41Z</time>
      </trkpt>
      <trkpt lat="37.0731360" lon="-2.1884570">
        <ele>545.2</ele>
        <time>2019-10-18T10:48:42Z</time>
      </trkpt>
      <trkpt lat="37.0731230" lon="-2.1884760">
        <ele>545.1</ele>
        <time>2019-10-18T10:48:43Z</time>
      </trkpt>
      <trkpt lat="37.0731090" lon="-2.1884930">
        <ele>545.3</ele>
        <time>2019-10-18T10:48:44Z</time>
      </trkpt>
      <trkpt lat="37.0730950" lon="-2.1885090">
        <ele>545.3</ele>
        <time>2019-10-18T10:48:45Z</time>
      </trkpt>
      <trkpt lat="37.0730790" lon="-2.1885240">
        <ele>545.3</ele>
        <time>2019-10-18T10:48:46Z</time>
      </trkpt>
      <trkpt lat="37.0730620" lon="-2.1885420">
        <ele>545.3</ele>
        <time>2019-10-18T10:48:47Z</time>
      </trkpt>
      <trkpt lat="37.0730450" lon="-2.1885590">
        <ele>545.4</ele>
        <time>2019-10-18T10:48:48Z</time>
      </trkpt>
      <trkpt lat="37.0730300" lon="-2.1885750">
        <ele>545.4</ele>
        <time>2019-10-18T10:48:49Z</time>
      </trkpt>
      <trkpt lat="37.0730160" lon="-2.1885910">
        <ele>545.6</ele>
        <time>2019-10-18T10:48:50Z</time>
      </trkpt>
      <trkpt lat="37.0730030" lon="-2.1886070">
        <ele>545.5</ele>
        <time>2019-10-18T10:48:51Z</time>
      </trkpt>
      <trkpt lat="37.0729890" lon="-2.1886230">
        <ele>545.5</ele>
        <time>2019-10-18T10:48:52Z</time>
      </trkpt>
      <trkpt lat="37.0729730" lon="-2.1886400">
        <ele>545.5</ele>
        <time>2019-10-18T10:48:53Z</time>
      </trkpt>
      <trkpt lat="37.0729570" lon="-2.1886570">
        <ele>545.5</ele>
        <time>2019-10-18T10:48:54Z</time>
      </trkpt>
      <trkpt lat="37.0729410" lon="-2.1886740">
        <ele>545.7</ele>
        <time>2019-10-18T10:48:55Z</time>
      </trkpt>
      <trkpt lat="37.0729290" lon="-2.1886860">
        <ele>545.6</ele>
        <time>2019-10-18T10:48:56Z</time>
      </trkpt>
      <trkpt lat="37.0729220" lon="-2.1886910">
        <ele>545.6</ele>
        <time>2019-10-18T10:48:57Z</time>
      </trkpt>
      <trkpt lat="37.0729200" lon="-2.1886910">
        <ele>545.6</ele>
        <time>2019-10-18T10:48:58Z</time>
      </trkpt>
      <trkpt lat="37.0729200" lon="-2.1886910">
        <ele>545.6</ele>
        <time>2019-10-18T10:48:59Z</time>
      </trkpt>
      <trkpt lat="37.0729210" lon="-2.1886910">
        <ele>545.6</ele>
        <time>2019-10-18T10:49:00Z</time>
      </trkpt>
      <trkpt lat="37.0729210" lon="-2.1886910">
        <ele>545.6</ele>
        <time>2019-10-18T10:49:01Z</time>
      </trkpt>
      <trkpt lat="37.0729210" lon="-2.1886910">
        <ele>545.6</ele>
        <time>2019-10-18T10:49:02Z</time>
      </trkpt>
      <trkpt lat="37.0729210" lon="-2.1886920">
        <ele>545.6</ele>
        <time>2019-10-18T10:49:03Z</time>
      </trkpt>
      <trkpt lat="37.0729200" lon="-2.1886930">
        <ele>545.6</ele>
        <time>2019-10-18T10:49:04Z</time>
      </trkpt>
      <trkpt lat="37.0729210" lon="-2.1886930">
        <ele>545.6</ele>
        <time>2019-10-18T10:49:05Z</time>
      </trkpt>
      <trkpt lat="37.0729210" lon="-2.1886930">
        <ele>545.6</ele>
        <time>2019-10-18T10:49:06Z</time>
      </trkpt>
      <trkpt lat="37.0729210" lon="-2.1886920">
        <ele>545.6</ele>
        <time>2019-10-18T10:49:07Z</time>
      </trkpt>
      <trkpt lat="37.0729210" lon="-2.1886910">
        <ele>545.6</ele>
        <time>2019-10-18T10:49:08Z</time>
      </trkpt>
      <trkpt lat="37.0729210" lon="-2.1886900">
        <ele>545.6</ele>
        <time>2019-10-18T10:49:09Z</time>
      </trkpt>
      <trkpt lat="37.0729200" lon="-2.1886900">
        <ele>545.6</ele>
        <time>2019-10-18T10:49:10Z</time>
      </trkpt>
      <trkpt lat="37.0729200" lon="-2.1886920">
        <ele>545.6</ele>
        <time>2019-10-18T10:49:11Z</time>
      </trkpt>
      <trkpt lat="37.0729190" lon="-2.1886930">
        <ele>545.6</ele>
        <time>2019-10-18T10:49:12Z</time>
      </trkpt>
      <trkpt lat="37.0729190" lon="-2.1886930">
        <ele>545.6</ele>
        <time>2019-10-18T10:49:13Z</time>
      </trkpt>
      <trkpt lat="37.0729190" lon="-2.1886920">
        <ele>545.6</ele>
        <time>2019-10-18T10:49:14Z</time>
      </trkpt>
      <trkpt lat="37.0729190" lon="-2.1886910">
        <ele>545.6</ele>
        <time>2019-10-18T10:49:15Z</time>
      </trkpt>
      <trkpt lat="37.0729200" lon="-2.1886900">
        <ele>545.6</ele>
        <time>2019-10-18T10:49:16Z</time>
      </trkpt>
      <trkpt lat="37.0729200" lon="-2.1886900">
        <ele>545.6</ele>
        <time>2019-10-18T10:49:17Z</time>
      </trkpt>
      <trkpt lat="37.0729200" lon="-2.1886900">
        <ele>545.6</ele>
        <time>2019-10-18T10:49:18Z</time>
      </trkpt>
      <trkpt lat="37.0729200" lon="-2.1886890">
        <ele>545.6</ele>
        <time>2019-10-18T10:49:19Z</time>
      </trkpt>
      <trkpt lat="37.0729210" lon="-2.1886890">
        <ele>545.6</ele>
        <time>2019-10-18T10:49:20Z</time>
      </trkpt>
      <trkpt lat="37.0729210" lon="-2.1886890">
        <ele>545.6</ele>
        <time>2019-10-18T10:49:21Z</time>
      </trkpt>
      <trkpt lat="37.0729210" lon="-2.1886890">
        <ele>545.6</ele>
        <time>2019-10-18T10:49:22Z</time>
      </trkpt>
      <trkpt lat="37.0729210" lon="-2.1886890">
        <ele>545.6</ele>
        <time>2019-10-18T10:49:23Z</time>
      </trkpt>
      <trkpt lat="37.0729210" lon="-2.1886880">
        <ele>545.6</ele>
        <time>2019-10-18T10:49:24Z</time>
      </trkpt>
      <trkpt lat="37.0729210" lon="-2.1886880">
        <ele>545.6</ele>
        <time>2019-10-18T10:49:25Z</time>
      </trkpt>
      <trkpt lat="37.0729200" lon="-2.1886890">
        <ele>545.6</ele>
        <time>2019-10-18T10:49:26Z</time>
      </trkpt>
      <trkpt lat="37.0729170" lon="-2.1886920">
        <ele>545.6</ele>
        <time>2019-10-18T10:49:27Z</time>
      </trkpt>
      <trkpt lat="37.0729110" lon="-2.1887000">
        <ele>545.8</ele>
        <time>2019-10-18T10:49:28Z</time>
      </trkpt>
      <trkpt lat="37.0729020" lon="-2.1887110">
        <ele>545.8</ele>
        <time>2019-10-18T10:49:29Z</time>
      </trkpt>
      <trkpt lat="37.0728900" lon="-2.1887240">
        <ele>545.8</ele>
        <time>2019-10-18T10:49:30Z</time>
      </trkpt>
      <trkpt lat="37.0728760" lon="-2.1887390">
        <ele>545.9</ele>
        <time>2019-10-18T10:49:31Z</time>
      </trkpt>
      <trkpt lat="37.0728590" lon="-2.1887570">
        <ele>545.9</ele>
        <time>2019-10-18T10:49:32Z</time>
      </trkpt>
      <trkpt lat="37.0728400" lon="-2.1887760">
        <ele>545.9</ele>
        <time>2019-10-18T10:49:33Z</time>
      </trkpt>
      <trkpt lat="37.0728190" lon="-2.1887970">
        <ele>545.9</ele>
        <time>2019-10-18T10:49:34Z</time>
      </trkpt>
      <trkpt lat="37.0728010" lon="-2.1888200">
        <ele>545.9</ele>
        <time>2019-10-18T10:49:35Z</time>
      </trkpt>
      <trkpt lat="37.0727840" lon="-2.1888450">
        <ele>545.9</ele>
        <time>2019-10-18T10:49:36Z</time>
      </trkpt>
      <trkpt lat="37.0727670" lon="-2.1888740">
        <ele>546.0</ele>
        <time>2019-10-18T10:49:37Z</time>
      </trkpt>
      <trkpt lat="37.0727470" lon="-2.1889070">
        <ele>545.8</ele>
        <time>2019-10-18T10:49:38Z</time>
      </trkpt>
      <trkpt lat="37.0727250" lon="-2.1889430">
        <ele>545.8</ele>
        <time>2019-10-18T10:49:39Z</time>
      </trkpt>
      <trkpt lat="37.0727030" lon="-2.1889810">
        <ele>546.2</ele>
        <time>2019-10-18T10:49:40Z</time>
      </trkpt>
      <trkpt lat="37.0726800" lon="-2.1890190">
        <ele>546.1</ele>
        <time>2019-10-18T10:49:41Z</time>
      </trkpt>
      <trkpt lat="37.0726580" lon="-2.1890580">
        <ele>546.2</ele>
        <time>2019-10-18T10:49:42Z</time>
      </trkpt>
      <trkpt lat="37.0726360" lon="-2.1890960">
        <ele>546.4</ele>
        <time>2019-10-18T10:49:43Z</time>
      </trkpt>
      <trkpt lat="37.0726150" lon="-2.1891320">
        <ele>546.3</ele>
        <time>2019-10-18T10:49:44Z</time>
      </trkpt>
      <trkpt lat="37.0725950" lon="-2.1891680">
        <ele>546.5</ele>
        <time>2019-10-18T10:49:45Z</time>
      </trkpt>
      <trkpt lat="37.0725750" lon="-2.1892020">
        <ele>546.4</ele>
        <time>2019-10-18T10:49:46Z</time>
      </trkpt>
      <trkpt lat="37.0725550" lon="-2.1892380">
        <ele>546.8</ele>
        <time>2019-10-18T10:49:47Z</time>
      </trkpt>
      <trkpt lat="37.0725350" lon="-2.1892770">
        <ele>547.1</ele>
        <time>2019-10-18T10:49:48Z</time>
      </trkpt>
      <trkpt lat="37.0725120" lon="-2.1893170">
        <ele>547.0</ele>
        <time>2019-10-18T10:49:49Z</time>
      </trkpt>
      <trkpt lat="37.0724890" lon="-2.1893600">
        <ele>547.4</ele>
        <time>2019-10-18T10:49:50Z</time>
      </trkpt>
      <trkpt lat="37.0724660" lon="-2.1894040">
        <ele>547.7</ele>
        <time>2019-10-18T10:49:51Z</time>
      </trkpt>
      <trkpt lat="37.0724460" lon="-2.1894480">
        <ele>547.7</ele>
        <time>2019-10-18T10:49:52Z</time>
      </trkpt>
      <trkpt lat="37.0724250" lon="-2.1894940">
        <ele>548.0</ele>
        <time>2019-10-18T10:49:53Z</time>
      </trkpt>
      <trkpt lat="37.0724050" lon="-2.1895420">
        <ele>547.9</ele>
        <time>2019-10-18T10:49:54Z</time>
      </trkpt>
      <trkpt lat="37.0723860" lon="-2.1895940">
        <ele>548.2</ele>
        <time>2019-10-18T10:49:55Z</time>
      </trkpt>
      <trkpt lat="37.0723710" lon="-2.1896460">
        <ele>548.1</ele>
        <time>2019-10-18T10:49:56Z</time>
      </trkpt>
      <trkpt lat="37.0723600" lon="-2.1896960">
        <ele>548.4</ele>
        <time>2019-10-18T10:49:57Z</time>
      </trkpt>
      <trkpt lat="37.0723510" lon="-2.1897390">
        <ele>548.4</ele>
        <time>2019-10-18T10:49:58Z</time>
      </trkpt>
      <trkpt lat="37.0723430" lon="-2.1897760">
        <ele>548.4</ele>
        <time>2019-10-18T10:49:59Z</time>
      </trkpt>
      <trkpt lat="37.0723350" lon="-2.1898030">
        <ele>548.3</ele>
        <time>2019-10-18T10:50:00Z</time>
      </trkpt>
      <trkpt lat="37.0723290" lon="-2.1898270">
        <ele>548.6</ele>
        <time>2019-10-18T10:50:01Z</time>
      </trkpt>
      <trkpt lat="37.0723250" lon="-2.1898480">
        <ele>548.5</ele>
        <time>2019-10-18T10:50:02Z</time>
      </trkpt>
      <trkpt lat="37.0723230" lon="-2.1898720">
        <ele>548.5</ele>
        <time>2019-10-18T10:50:03Z</time>
      </trkpt>
      <trkpt lat="37.0723210" lon="-2.1898950">
        <ele>548.5</ele>
        <time>2019-10-18T10:50:04Z</time>
      </trkpt>
      <trkpt lat="37.0723190" lon="-2.1899180">
        <ele>548.5</ele>
        <time>2019-10-18T10:50:05Z</time>
      </trkpt>
      <trkpt lat="37.0723170" lon="-2.1899390">
        <ele>548.5</ele>
        <time>2019-10-18T10:50:06Z</time>
      </trkpt>
      <trkpt lat="37.0723160" lon="-2.1899590">
        <ele>548.5</ele>
        <time>2019-10-18T10:50:07Z</time>
      </trkpt>
      <trkpt lat="37.0723150" lon="-2.1899790">
        <ele>548.5</ele>
        <time>2019-10-18T10:50:08Z</time>
      </trkpt>
      <trkpt lat="37.0723130" lon="-2.1900000">
        <ele>548.5</ele>
        <time>2019-10-18T10:50:09Z</time>
      </trkpt>
      <trkpt lat="37.0723100" lon="-2.1900220">
        <ele>548.5</ele>
        <time>2019-10-18T10:50:10Z</time>
      </trkpt>
      <trkpt lat="37.0723070" lon="-2.1900450">
        <ele>548.5</ele>
        <time>2019-10-18T10:50:11Z</time>
      </trkpt>
      <trkpt lat="37.0723060" lon="-2.1900670">
        <ele>548.6</ele>
        <time>2019-10-18T10:50:12Z</time>
      </trkpt>
      <trkpt lat="37.0723050" lon="-2.1900900">
        <ele>548.6</ele>
        <time>2019-10-18T10:50:13Z</time>
      </trkpt>
      <trkpt lat="37.0723040" lon="-2.1901120">
        <ele>548.7</ele>
        <time>2019-10-18T10:50:14Z</time>
      </trkpt>
      <trkpt lat="37.0723020" lon="-2.1901310">
        <ele>548.7</ele>
        <time>2019-10-18T10:50:15Z</time>
      </trkpt>
      <trkpt lat="37.0722990" lon="-2.1901520">
        <ele>549.0</ele>
        <time>2019-10-18T10:50:16Z</time>
      </trkpt>
      <trkpt lat="37.0722950" lon="-2.1901730">
        <ele>549.0</ele>
        <time>2019-10-18T10:50:17Z</time>
      </trkpt>
      <trkpt lat="37.0722920" lon="-2.1901960">
        <ele>549.2</ele>
        <time>2019-10-18T10:50:18Z</time>
      </trkpt>
      <trkpt lat="37.0722880" lon="-2.1902190">
        <ele>549.2</ele>
        <time>2019-10-18T10:50:19Z</time>
      </trkpt>
      <trkpt lat="37.0722840" lon="-2.1902430">
        <ele>549.4</ele>
        <time>2019-10-18T10:50:20Z</time>
      </trkpt>
      <trkpt lat="37.0722800" lon="-2.1902670">
        <ele>549.4</ele>
        <time>2019-10-18T10:50:21Z</time>
      </trkpt>
      <trkpt lat="37.0722770" lon="-2.1902920">
        <ele>549.6</ele>
        <time>2019-10-18T10:50:22Z</time>
      </trkpt>
      <trkpt lat="37.0722760" lon="-2.1903190">
        <ele>549.9</ele>
        <time>2019-10-18T10:50:23Z</time>
      </trkpt>
      <trkpt lat="37.0722750" lon="-2.1903450">
        <ele>549.9</ele>
        <time>2019-10-18T10:50:24Z</time>
      </trkpt>
      <trkpt lat="37.0722750" lon="-2.1903710">
        <ele>550.2</ele>
        <time>2019-10-18T10:50:25Z</time>
      </trkpt>
      <trkpt lat="37.0722760" lon="-2.1903980">
        <ele>550.2</ele>
        <time>2019-10-18T10:50:26Z</time>
      </trkpt>
      <trkpt lat="37.0722760" lon="-2.1904260">
        <ele>550.5</ele>
        <time>2019-10-18T10:50:27Z</time>
      </trkpt>
      <trkpt lat="37.0722780" lon="-2.1904550">
        <ele>550.8</ele>
        <time>2019-10-18T10:50:28Z</time>
      </trkpt>
      <trkpt lat="37.0722800" lon="-2.1904830">
        <ele>550.8</ele>
        <time>2019-10-18T10:50:29Z</time>
      </trkpt>
      <trkpt lat="37.0722800" lon="-2.1905100">
        <ele>551.2</ele>
        <time>2019-10-18T10:50:30Z</time>
      </trkpt>
      <trkpt lat="37.0722810" lon="-2.1905360">
        <ele>551.6</ele>
        <time>2019-10-18T10:50:31Z</time>
      </trkpt>
      <trkpt lat="37.0722810" lon="-2.1905610">
        <ele>551.6</ele>
        <time>2019-10-18T10:50:32Z</time>
      </trkpt>
      <trkpt lat="37.0722830" lon="-2.1905860">
        <ele>552.0</ele>
        <time>2019-10-18T10:50:33Z</time>
      </trkpt>
      <trkpt lat="37.0722830" lon="-2.1906100">
        <ele>552.0</ele>
        <time>2019-10-18T10:50:34Z</time>
      </trkpt>
      <trkpt lat="37.0722820" lon="-2.1906350">
        <ele>552.3</ele>
        <time>2019-10-18T10:50:35Z</time>
      </trkpt>
      <trkpt lat="37.0722820" lon="-2.1906610">
        <ele>552.7</ele>
        <time>2019-10-18T10:50:36Z</time>
      </trkpt>
      <trkpt lat="37.0722830" lon="-2.1906880">
        <ele>552.7</ele>
        <time>2019-10-18T10:50:37Z</time>
      </trkpt>
      <trkpt lat="37.0722830" lon="-2.1907140">
        <ele>553.0</ele>
        <time>2019-10-18T10:50:38Z</time>
      </trkpt>
      <trkpt lat="37.0722840" lon="-2.1907400">
        <ele>553.0</ele>
        <time>2019-10-18T10:50:39Z</time>
      </trkpt>
      <trkpt lat="37.0722850" lon="-2.1907660">
        <ele>553.3</ele>
        <time>2019-10-18T10:50:40Z</time>
      </trkpt>
      <trkpt lat="37.0722860" lon="-2.1907920">
        <ele>553.5</ele>
        <time>2019-10-18T10:50:41Z</time>
      </trkpt>
      <trkpt lat="37.0722880" lon="-2.1908180">
        <ele>553.5</ele>
        <time>2019-10-18T10:50:42Z</time>
      </trkpt>
      <trkpt lat="37.0722900" lon="-2.1908410">
        <ele>553.7</ele>
        <time>2019-10-18T10:50:43Z</time>
      </trkpt>
      <trkpt lat="37.0722910" lon="-2.1908640">
        <ele>553.7</ele>
        <time>2019-10-18T10:50:44Z</time>
      </trkpt>
      <trkpt lat="37.0722930" lon="-2.1908860">
        <ele>553.9</ele>
        <time>2019-10-18T10:50:45Z</time>
      </trkpt>
      <trkpt lat="37.0722950" lon="-2.1909080">
        <ele>553.9</ele>
        <time>2019-10-18T10:50:46Z</time>
      </trkpt>
      <trkpt lat="37.0722970" lon="-2.1909290">
        <ele>554.1</ele>
        <time>2019-10-18T10:50:47Z</time>
      </trkpt>
      <trkpt lat="37.0723000" lon="-2.1909490">
        <ele>554.0</ele>
        <time>2019-10-18T10:50:48Z</time>
      </trkpt>
      <trkpt lat="37.0723040" lon="-2.1909690">
        <ele>554.1</ele>
        <time>2019-10-18T10:50:49Z</time>
      </trkpt>
      <trkpt lat="37.0723100" lon="-2.1909890">
        <ele>554.1</ele>
        <time>2019-10-18T10:50:50Z</time>
      </trkpt>
      <trkpt lat="37.0723160" lon="-2.1910060">
        <ele>554.2</ele>
        <time>2019-10-18T10:50:51Z</time>
      </trkpt>
      <trkpt lat="37.0723240" lon="-2.1910240">
        <ele>554.2</ele>
        <time>2019-10-18T10:50:52Z</time>
      </trkpt>
      <trkpt lat="37.0723310" lon="-2.1910420">
        <ele>554.2</ele>
        <time>2019-10-18T10:50:53Z</time>
      </trkpt>
      <trkpt lat="37.0723380" lon="-2.1910620">
        <ele>554.1</ele>
        <time>2019-10-18T10:50:54Z</time>
      </trkpt>
      <trkpt lat="37.0723450" lon="-2.1910830">
        <ele>554.1</ele>
        <time>2019-10-18T10:50:55Z</time>
      </trkpt>
      <trkpt lat="37.0723540" lon="-2.1911040">
        <ele>554.1</ele>
        <time>2019-10-18T10:50:56Z</time>
      </trkpt>
      <trkpt lat="37.0723630" lon="-2.1911260">
        <ele>554.1</ele>
        <time>2019-10-18T10:50:57Z</time>
      </trkpt>
      <trkpt lat="37.0723740" lon="-2.1911480">
        <ele>553.9</ele>
        <time>2019-10-18T10:50:58Z</time>
      </trkpt>
      <trkpt lat="37.0723850" lon="-2.1911700">
        <ele>553.9</ele>
        <time>2019-10-18T10:50:59Z</time>
      </trkpt>
      <trkpt lat="37.0723960" lon="-2.1911920">
        <ele>554.0</ele>
        <time>2019-10-18T10:51:00Z</time>
      </trkpt>
      <trkpt lat="37.0724080" lon="-2.1912140">
        <ele>553.7</ele>
        <time>2019-10-18T10:51:01Z</time>
      </trkpt>
      <trkpt lat="37.0724180" lon="-2.1912360">
        <ele>553.7</ele>
        <time>2019-10-18T10:51:02Z</time>
      </trkpt>
      <trkpt lat="37.0724310" lon="-2.1912590">
        <ele>553.7</ele>
        <time>2019-10-18T10:51:03Z</time>
      </trkpt>
      <trkpt lat="37.0724430" lon="-2.1912830">
        <ele>553.4</ele>
        <time>2019-10-18T10:51:04Z</time>
      </trkpt>
      <trkpt lat="37.0724550" lon="-2.1913070">
        <ele>553.4</ele>
        <time>2019-10-18T10:51:05Z</time>
      </trkpt>
      <trkpt lat="37.0724670" lon="-2.1913310">
        <ele>553.4</ele>
        <time>2019-10-18T10:51:06Z</time>
      </trkpt>
      <trkpt lat="37.0724780" lon="-2.1913560">
        <ele>553.0</ele>
        <time>2019-10-18T10:51:07Z</time>
      </trkpt>
      <trkpt lat="37.0724900" lon="-2.1913840">
        <ele>553.0</ele>
        <time>2019-10-18T10:51:08Z</time>
      </trkpt>
      <trkpt lat="37.0725030" lon="-2.1914130">
        <ele>553.0</ele>
        <time>2019-10-18T10:51:09Z</time>
      </trkpt>
      <trkpt lat="37.0725160" lon="-2.1914420">
        <ele>552.7</ele>
        <time>2019-10-18T10:51:10Z</time>
      </trkpt>
      <trkpt lat="37.0725290" lon="-2.1914730">
        <ele>552.7</ele>
        <time>2019-10-18T10:51:11Z</time>
      </trkpt>
      <trkpt lat="37.0725410" lon="-2.1915070">
        <ele>552.2</ele>
        <time>2019-10-18T10:51:12Z</time>
      </trkpt>
      <trkpt lat="37.0725500" lon="-2.1915480">
        <ele>552.2</ele>
        <time>2019-10-18T10:51:13Z</time>
      </trkpt>
      <trkpt lat="37.0725570" lon="-2.1915900">
        <ele>552.2</ele>
        <time>2019-10-18T10:51:14Z</time>
      </trkpt>
      <trkpt lat="37.0725600" lon="-2.1916310">
        <ele>552.3</ele>
        <time>2019-10-18T10:51:15Z</time>
      </trkpt>
      <trkpt lat="37.0725600" lon="-2.1916690">
        <ele>552.3</ele>
        <time>2019-10-18T10:51:16Z</time>
      </trkpt>
      <trkpt lat="37.0725580" lon="-2.1917050">
        <ele>552.3</ele>
        <time>2019-10-18T10:51:17Z</time>
      </trkpt>
      <trkpt lat="37.0725540" lon="-2.1917390">
        <ele>552.3</ele>
        <time>2019-10-18T10:51:18Z</time>
      </trkpt>
      <trkpt lat="37.0725480" lon="-2.1917720">
        <ele>552.3</ele>
        <time>2019-10-18T10:51:19Z</time>
      </trkpt>
      <trkpt lat="37.0725380" lon="-2.1918030">
        <ele>552.7</ele>
        <time>2019-10-18T10:51:20Z</time>
      </trkpt>
      <trkpt lat="37.0725250" lon="-2.1918330">
        <ele>552.8</ele>
        <time>2019-10-18T10:51:21Z</time>
      </trkpt>
      <trkpt lat="37.0725070" lon="-2.1918630">
        <ele>552.8</ele>
        <time>2019-10-18T10:51:22Z</time>
      </trkpt>
      <trkpt lat="37.0724850" lon="-2.1918940">
        <ele>553.2</ele>
        <time>2019-10-18T10:51:23Z</time>
      </trkpt>
      <trkpt lat="37.0724600" lon="-2.1919260">
        <ele>553.7</ele>
        <time>2019-10-18T10:51:24Z</time>
      </trkpt>
      <trkpt lat="37.0724340" lon="-2.1919580">
        <ele>554.1</ele>
        <time>2019-10-18T10:51:25Z</time>
      </trkpt>
      <trkpt lat="37.0724080" lon="-2.1919890">
        <ele>554.1</ele>
        <time>2019-10-18T10:51:26Z</time>
      </trkpt>
      <trkpt lat="37.0723830" lon="-2.1920210">
        <ele>554.4</ele>
        <time>2019-10-18T10:51:27Z</time>
      </trkpt>
      <trkpt lat="37.0723570" lon="-2.1920570">
        <ele>554.7</ele>
        <time>2019-10-18T10:51:28Z</time>
      </trkpt>
      <trkpt lat="37.0723290" lon="-2.1920970">
        <ele>555.0</ele>
        <time>2019-10-18T10:51:29Z</time>
      </trkpt>
      <trkpt lat="37.0723000" lon="-2.1921400">
        <ele>555.1</ele>
        <time>2019-10-18T10:51:30Z</time>
      </trkpt>
      <trkpt lat="37.0722680" lon="-2.1921850">
        <ele>555.3</ele>
        <time>2019-10-18T10:51:31Z</time>
      </trkpt>
      <trkpt lat="37.0722330" lon="-2.1922310">
        <ele>555.4</ele>
        <time>2019-10-18T10:51:32Z</time>
      </trkpt>
      <trkpt lat="37.0721950" lon="-2.1922780">
        <ele>555.6</ele>
        <time>2019-10-18T10:51:33Z</time>
      </trkpt>
      <trkpt lat="37.0721560" lon="-2.1923240">
        <ele>555.7</ele>
        <time>2019-10-18T10:51:34Z</time>
      </trkpt>
      <trkpt lat="37.0721160" lon="-2.1923680">
        <ele>555.8</ele>
        <time>2019-10-18T10:51:35Z</time>
      </trkpt>
      <trkpt lat="37.0720770" lon="-2.1924090">
        <ele>556.0</ele>
        <time>2019-10-18T10:51:36Z</time>
      </trkpt>
      <trkpt lat="37.0720390" lon="-2.1924460">
        <ele>556.2</ele>
        <time>2019-10-18T10:51:37Z</time>
      </trkpt>
      <trkpt lat="37.0720010" lon="-2.1924790">
        <ele>556.5</ele>
        <time>2019-10-18T10:51:38Z</time>
      </trkpt>
      <trkpt lat="37.0719640" lon="-2.1925100">
        <ele>556.8</ele>
        <time>2019-10-18T10:51:39Z</time>
      </trkpt>
      <trkpt lat="37.0719270" lon="-2.1925400">
        <ele>556.9</ele>
        <time>2019-10-18T10:51:40Z</time>
      </trkpt>
      <trkpt lat="37.0718900" lon="-2.1925700">
        <ele>557.2</ele>
        <time>2019-10-18T10:51:41Z</time>
      </trkpt>
      <trkpt lat="37.0718520" lon="-2.1926010">
        <ele>557.9</ele>
        <time>2019-10-18T10:51:42Z</time>
      </trkpt>
      <trkpt lat="37.0718140" lon="-2.1926330">
        <ele>558.3</ele>
        <time>2019-10-18T10:51:43Z</time>
      </trkpt>
      <trkpt lat="37.0717770" lon="-2.1926660">
        <ele>558.6</ele>
        <time>2019-10-18T10:51:44Z</time>
      </trkpt>
      <trkpt lat="37.0717410" lon="-2.1927010">
        <ele>559.1</ele>
        <time>2019-10-18T10:51:45Z</time>
      </trkpt>
      <trkpt lat="37.0717050" lon="-2.1927330">
        <ele>559.6</ele>
        <time>2019-10-18T10:51:46Z</time>
      </trkpt>
      <trkpt lat="37.0716720" lon="-2.1927620">
        <ele>560.1</ele>
        <time>2019-10-18T10:51:47Z</time>
      </trkpt>
      <trkpt lat="37.0716400" lon="-2.1927880">
        <ele>560.3</ele>
        <time>2019-10-18T10:51:48Z</time>
      </trkpt>
      <trkpt lat="37.0716080" lon="-2.1928100">
        <ele>560.7</ele>
        <time>2019-10-18T10:51:49Z</time>
      </trkpt>
      <trkpt lat="37.0715760" lon="-2.1928310">
        <ele>560.8</ele>
        <time>2019-10-18T10:51:50Z</time>
      </trkpt>
      <trkpt lat="37.0715450" lon="-2.1928510">
        <ele>561.1</ele>
        <time>2019-10-18T10:51:51Z</time>
      </trkpt>
      <trkpt lat="37.0715140" lon="-2.1928680">
        <ele>561.1</ele>
        <time>2019-10-18T10:51:52Z</time>
      </trkpt>
      <trkpt lat="37.0714830" lon="-2.1928830">
        <ele>561.2</ele>
        <time>2019-10-18T10:51:53Z</time>
      </trkpt>
      <trkpt lat="37.0714510" lon="-2.1928970">
        <ele>561.3</ele>
        <time>2019-10-18T10:51:54Z</time>
      </trkpt>
      <trkpt lat="37.0714190" lon="-2.1929100">
        <ele>561.4</ele>
        <time>2019-10-18T10:51:55Z</time>
      </trkpt>
      <trkpt lat="37.0713870" lon="-2.1929220">
        <ele>561.3</ele>
        <time>2019-10-18T10:51:56Z</time>
      </trkpt>
      <trkpt lat="37.0713530" lon="-2.1929320">
        <ele>561.4</ele>
        <time>2019-10-18T10:51:57Z</time>
      </trkpt>
      <trkpt lat="37.0713190" lon="-2.1929420">
        <ele>561.3</ele>
        <time>2019-10-18T10:51:58Z</time>
      </trkpt>
      <trkpt lat="37.0712850" lon="-2.1929520">
        <ele>561.2</ele>
        <time>2019-10-18T10:51:59Z</time>
      </trkpt>
      <trkpt lat="37.0712490" lon="-2.1929640">
        <ele>561.0</ele>
        <time>2019-10-18T10:52:00Z</time>
      </trkpt>
      <trkpt lat="37.0712130" lon="-2.1929760">
        <ele>560.9</ele>
        <time>2019-10-18T10:52:01Z</time>
      </trkpt>
      <trkpt lat="37.0711760" lon="-2.1929910">
        <ele>560.7</ele>
        <time>2019-10-18T10:52:02Z</time>
      </trkpt>
      <trkpt lat="37.0711380" lon="-2.1930080">
        <ele>560.5</ele>
        <time>2019-10-18T10:52:03Z</time>
      </trkpt>
      <trkpt lat="37.0710990" lon="-2.1930270">
        <ele>560.0</ele>
        <time>2019-10-18T10:52:04Z</time>
      </trkpt>
      <trkpt lat="37.0710600" lon="-2.1930490">
        <ele>559.7</ele>
        <time>2019-10-18T10:52:05Z</time>
      </trkpt>
      <trkpt lat="37.0710220" lon="-2.1930710">
        <ele>559.6</ele>
        <time>2019-10-18T10:52:06Z</time>
      </trkpt>
      <trkpt lat="37.0709840" lon="-2.1930950">
        <ele>559.3</ele>
        <time>2019-10-18T10:52:07Z</time>
      </trkpt>
      <trkpt lat="37.0709450" lon="-2.1931180">
        <ele>559.2</ele>
        <time>2019-10-18T10:52:08Z</time>
      </trkpt>
      <trkpt lat="37.0709070" lon="-2.1931410">
        <ele>558.9</ele>
        <time>2019-10-18T10:52:09Z</time>
      </trkpt>
      <trkpt lat="37.0708690" lon="-2.1931630">
        <ele>558.7</ele>
        <time>2019-10-18T10:52:10Z</time>
      </trkpt>
      <trkpt lat="37.0708310" lon="-2.1931860">
        <ele>558.4</ele>
        <time>2019-10-18T10:52:11Z</time>
      </trkpt>
      <trkpt lat="37.0707930" lon="-2.1932100">
        <ele>558.2</ele>
        <time>2019-10-18T10:52:12Z</time>
      </trkpt>
      <trkpt lat="37.0707540" lon="-2.1932350">
        <ele>557.7</ele>
        <time>2019-10-18T10:52:13Z</time>
      </trkpt>
      <trkpt lat="37.0707130" lon="-2.1932610">
        <ele>557.4</ele>
        <time>2019-10-18T10:52:14Z</time>
      </trkpt>
      <trkpt lat="37.0706730" lon="-2.1932880">
        <ele>557.2</ele>
        <time>2019-10-18T10:52:15Z</time>
      </trkpt>
      <trkpt lat="37.0706330" lon="-2.1933170">
        <ele>557.0</ele>
        <time>2019-10-18T10:52:16Z</time>
      </trkpt>
      <trkpt lat="37.0705940" lon="-2.1933470">
        <ele>556.8</ele>
        <time>2019-10-18T10:52:17Z</time>
      </trkpt>
      <trkpt lat="37.0705550" lon="-2.1933780">
        <ele>556.6</ele>
        <time>2019-10-18T10:52:18Z</time>
      </trkpt>
      <trkpt lat="37.0705180" lon="-2.1934090">
        <ele>556.3</ele>
        <time>2019-10-18T10:52:19Z</time>
      </trkpt>
      <trkpt lat="37.0704810" lon="-2.1934390">
        <ele>556.1</ele>
        <time>2019-10-18T10:52:20Z</time>
      </trkpt>
      <trkpt lat="37.0704450" lon="-2.1934700">
        <ele>556.0</ele>
        <time>2019-10-18T10:52:21Z</time>
      </trkpt>
      <trkpt lat="37.0704090" lon="-2.1935030">
        <ele>555.9</ele>
        <time>2019-10-18T10:52:22Z</time>
      </trkpt>
      <trkpt lat="37.0703710" lon="-2.1935360">
        <ele>555.9</ele>
        <time>2019-10-18T10:52:23Z</time>
      </trkpt>
      <trkpt lat="37.0703340" lon="-2.1935680">
        <ele>555.7</ele>
        <time>2019-10-18T10:52:24Z</time>
      </trkpt>
      <trkpt lat="37.0702960" lon="-2.1935970">
        <ele>555.7</ele>
        <time>2019-10-18T10:52:25Z</time>
      </trkpt>
      <trkpt lat="37.0702570" lon="-2.1936240">
        <ele>555.6</ele>
        <time>2019-10-18T10:52:26Z</time>
      </trkpt>
      <trkpt lat="37.0702180" lon="-2.1936480">
        <ele>555.5</ele>
        <time>2019-10-18T10:52:27Z</time>
      </trkpt>
      <trkpt lat="37.0701790" lon="-2.1936700">
        <ele>555.5</ele>
        <time>2019-10-18T10:52:28Z</time>
      </trkpt>
      <trkpt lat="37.0701390" lon="-2.1936890">
        <ele>555.3</ele>
        <time>2019-10-18T10:52:29Z</time>
      </trkpt>
      <trkpt lat="37.0701000" lon="-2.1937060">
        <ele>555.3</ele>
        <time>2019-10-18T10:52:30Z</time>
      </trkpt>
      <trkpt lat="37.0700630" lon="-2.1937220">
        <ele>555.3</ele>
        <time>2019-10-18T10:52:31Z</time>
      </trkpt>
      <trkpt lat="37.0700290" lon="-2.1937340">
        <ele>555.3</ele>
        <time>2019-10-18T10:52:32Z</time>
      </trkpt>
      <trkpt lat="37.0699970" lon="-2.1937460">
        <ele>555.2</ele>
        <time>2019-10-18T10:52:33Z</time>
      </trkpt>
      <trkpt lat="37.0699690" lon="-2.1937600">
        <ele>555.3</ele>
        <time>2019-10-18T10:52:34Z</time>
      </trkpt>
      <trkpt lat="37.0699430" lon="-2.1937770">
        <ele>555.3</ele>
        <time>2019-10-18T10:52:35Z</time>
      </trkpt>
      <trkpt lat="37.0699200" lon="-2.1937970">
        <ele>555.4</ele>
        <time>2019-10-18T10:52:36Z</time>
      </trkpt>
      <trkpt lat="37.0698980" lon="-2.1938170">
        <ele>555.4</ele>
        <time>2019-10-18T10:52:37Z</time>
      </trkpt>
      <trkpt lat="37.0698780" lon="-2.1938360">
        <ele>555.5</ele>
        <time>2019-10-18T10:52:38Z</time>
      </trkpt>
      <trkpt lat="37.0698570" lon="-2.1938530">
        <ele>555.6</ele>
        <time>2019-10-18T10:52:39Z</time>
      </trkpt>
      <trkpt lat="37.0698330" lon="-2.1938670">
        <ele>555.6</ele>
        <time>2019-10-18T10:52:40Z</time>
      </trkpt>
      <trkpt lat="37.0698090" lon="-2.1938820">
        <ele>555.7</ele>
        <time>2019-10-18T10:52:41Z</time>
      </trkpt>
      <trkpt lat="37.0697840" lon="-2.1938970">
        <ele>555.8</ele>
        <time>2019-10-18T10:52:42Z</time>
      </trkpt>
      <trkpt lat="37.0697600" lon="-2.1939140">
        <ele>555.9</ele>
        <time>2019-10-18T10:52:43Z</time>
      </trkpt>
      <trkpt lat="37.0697370" lon="-2.1939340">
        <ele>556.0</ele>
        <time>2019-10-18T10:52:44Z</time>
      </trkpt>
      <trkpt lat="37.0697150" lon="-2.1939540">
        <ele>556.1</ele>
        <time>2019-10-18T10:52:45Z</time>
      </trkpt>
      <trkpt lat="37.0696930" lon="-2.1939740">
        <ele>556.4</ele>
        <time>2019-10-18T10:52:46Z</time>
      </trkpt>
      <trkpt lat="37.0696720" lon="-2.1939920">
        <ele>556.4</ele>
        <time>2019-10-18T10:52:47Z</time>
      </trkpt>
      <trkpt lat="37.0696520" lon="-2.1940080">
        <ele>556.6</ele>
        <time>2019-10-18T10:52:48Z</time>
      </trkpt>
      <trkpt lat="37.0696320" lon="-2.1940250">
        <ele>556.6</ele>
        <time>2019-10-18T10:52:49Z</time>
      </trkpt>
      <trkpt lat="37.0696140" lon="-2.1940410">
        <ele>556.8</ele>
        <time>2019-10-18T10:52:50Z</time>
      </trkpt>
      <trkpt lat="37.0695960" lon="-2.1940570">
        <ele>556.9</ele>
        <time>2019-10-18T10:52:51Z</time>
      </trkpt>
      <trkpt lat="37.0695770" lon="-2.1940740">
        <ele>557.0</ele>
        <time>2019-10-18T10:52:52Z</time>
      </trkpt>
      <trkpt lat="37.0695570" lon="-2.1940930">
        <ele>557.3</ele>
        <time>2019-10-18T10:52:53Z</time>
      </trkpt>
      <trkpt lat="37.0695360" lon="-2.1941150">
        <ele>557.3</ele>
        <time>2019-10-18T10:52:54Z</time>
      </trkpt>
      <trkpt lat="37.0695150" lon="-2.1941370">
        <ele>557.6</ele>
        <time>2019-10-18T10:52:55Z</time>
      </trkpt>
      <trkpt lat="37.0694920" lon="-2.1941580">
        <ele>557.6</ele>
        <time>2019-10-18T10:52:56Z</time>
      </trkpt>
      <trkpt lat="37.0694690" lon="-2.1941790">
        <ele>557.9</ele>
        <time>2019-10-18T10:52:57Z</time>
      </trkpt>
      <trkpt lat="37.0694450" lon="-2.1942010">
        <ele>558.0</ele>
        <time>2019-10-18T10:52:58Z</time>
      </trkpt>
      <trkpt lat="37.0694230" lon="-2.1942230">
        <ele>558.3</ele>
        <time>2019-10-18T10:52:59Z</time>
      </trkpt>
      <trkpt lat="37.0694000" lon="-2.1942470">
        <ele>558.3</ele>
        <time>2019-10-18T10:53:00Z</time>
      </trkpt>
      <trkpt lat="37.0693780" lon="-2.1942710">
        <ele>558.6</ele>
        <time>2019-10-18T10:53:01Z</time>
      </trkpt>
      <trkpt lat="37.0693560" lon="-2.1942950">
        <ele>558.6</ele>
        <time>2019-10-18T10:53:02Z</time>
      </trkpt>
      <trkpt lat="37.0693340" lon="-2.1943190">
        <ele>559.0</ele>
        <time>2019-10-18T10:53:03Z</time>
      </trkpt>
      <trkpt lat="37.0693120" lon="-2.1943430">
        <ele>559.1</ele>
        <time>2019-10-18T10:53:04Z</time>
      </trkpt>
      <trkpt lat="37.0692910" lon="-2.1943650">
        <ele>559.3</ele>
        <time>2019-10-18T10:53:05Z</time>
      </trkpt>
      <trkpt lat="37.0692710" lon="-2.1943870">
        <ele>559.4</ele>
        <time>2019-10-18T10:53:06Z</time>
      </trkpt>
      <trkpt lat="37.0692500" lon="-2.1944080">
        <ele>559.8</ele>
        <time>2019-10-18T10:53:07Z</time>
      </trkpt>
      <trkpt lat="37.0692290" lon="-2.1944280">
        <ele>559.8</ele>
        <time>2019-10-18T10:53:08Z</time>
      </trkpt>
      <trkpt lat="37.0692070" lon="-2.1944490">
        <ele>560.2</ele>
        <time>2019-10-18T10:53:09Z</time>
      </trkpt>
      <trkpt lat="37.0691850" lon="-2.1944700">
        <ele>560.2</ele>
        <time>2019-10-18T10:53:10Z</time>
      </trkpt>
      <trkpt lat="37.0691640" lon="-2.1944920">
        <ele>560.6</ele>
        <time>2019-10-18T10:53:11Z</time>
      </trkpt>
      <trkpt lat="37.0691440" lon="-2.1945170">
        <ele>560.8</ele>
        <time>2019-10-18T10:53:12Z</time>
      </trkpt>
      <trkpt lat="37.0691240" lon="-2.1945420">
        <ele>561.0</ele>
        <time>2019-10-18T10:53:13Z</time>
      </trkpt>
      <trkpt lat="37.0691050" lon="-2.1945660">
        <ele>561.4</ele>
        <time>2019-10-18T10:53:14Z</time>
      </trkpt>
      <trkpt lat="37.0690860" lon="-2.1945890">
        <ele>561.4</ele>
        <time>2019-10-18T10:53:15Z</time>
      </trkpt>
      <trkpt lat="37.0690660" lon="-2.1946130">
        <ele>561.8</ele>
        <time>2019-10-18T10:53:16Z</time>
      </trkpt>
      <trkpt lat="37.0690470" lon="-2.1946400">
        <ele>561.8</ele>
        <time>2019-10-18T10:53:17Z</time>
      </trkpt>
      <trkpt lat="37.0690270" lon="-2.1946680">
        <ele>562.1</ele>
        <time>2019-10-18T10:53:18Z</time>
      </trkpt>
      <trkpt lat="37.0690080" lon="-2.1946960">
        <ele>562.5</ele>
        <time>2019-10-18T10:53:19Z</time>
      </trkpt>
      <trkpt lat="37.0689870" lon="-2.1947250">
        <ele>562.5</ele>
        <time>2019-10-18T10:53:20Z</time>
      </trkpt>
      <trkpt lat="37.0689660" lon="-2.1947540">
        <ele>562.8</ele>
        <time>2019-10-18T10:53:21Z</time>
      </trkpt>
      <trkpt lat="37.0689450" lon="-2.1947820">
        <ele>563.0</ele>
        <time>2019-10-18T10:53:22Z</time>
      </trkpt>
      <trkpt lat="37.0689230" lon="-2.1948100">
        <ele>563.1</ele>
        <time>2019-10-18T10:53:23Z</time>
      </trkpt>
      <trkpt lat="37.0689020" lon="-2.1948390">
        <ele>563.4</ele>
        <time>2019-10-18T10:53:24Z</time>
      </trkpt>
      <trkpt lat="37.0688810" lon="-2.1948700">
        <ele>563.5</ele>
        <time>2019-10-18T10:53:25Z</time>
      </trkpt>
      <trkpt lat="37.0688600" lon="-2.1949000">
        <ele>563.6</ele>
        <time>2019-10-18T10:53:26Z</time>
      </trkpt>
      <trkpt lat="37.0688370" lon="-2.1949300">
        <ele>563.8</ele>
        <time>2019-10-18T10:53:27Z</time>
      </trkpt>
      <trkpt lat="37.0688120" lon="-2.1949600">
        <ele>564.0</ele>
        <time>2019-10-18T10:53:28Z</time>
      </trkpt>
      <trkpt lat="37.0687830" lon="-2.1949880">
        <ele>564.1</ele>
        <time>2019-10-18T10:53:29Z</time>
      </trkpt>
      <trkpt lat="37.0687540" lon="-2.1950160">
        <ele>564.3</ele>
        <time>2019-10-18T10:53:30Z</time>
      </trkpt>
      <trkpt lat="37.0687250" lon="-2.1950420">
        <ele>564.5</ele>
        <time>2019-10-18T10:53:31Z</time>
      </trkpt>
      <trkpt lat="37.0686950" lon="-2.1950670">
        <ele>564.5</ele>
        <time>2019-10-18T10:53:32Z</time>
      </trkpt>
      <trkpt lat="37.0686660" lon="-2.1950900">
        <ele>564.7</ele>
        <time>2019-10-18T10:53:33Z</time>
      </trkpt>
      <trkpt lat="37.0686380" lon="-2.1951120">
        <ele>564.7</ele>
        <time>2019-10-18T10:53:34Z</time>
      </trkpt>
      <trkpt lat="37.0686110" lon="-2.1951370">
        <ele>564.9</ele>
        <time>2019-10-18T10:53:35Z</time>
      </trkpt>
      <trkpt lat="37.0685850" lon="-2.1951630">
        <ele>565.1</ele>
        <time>2019-10-18T10:53:36Z</time>
      </trkpt>
      <trkpt lat="37.0685600" lon="-2.1951900">
        <ele>565.1</ele>
        <time>2019-10-18T10:53:37Z</time>
      </trkpt>
      <trkpt lat="37.0685330" lon="-2.1952170">
        <ele>565.3</ele>
        <time>2019-10-18T10:53:38Z</time>
      </trkpt>
      <trkpt lat="37.0685070" lon="-2.1952450">
        <ele>565.2</ele>
        <time>2019-10-18T10:53:39Z</time>
      </trkpt>
      <trkpt lat="37.0684830" lon="-2.1952750">
        <ele>565.4</ele>
        <time>2019-10-18T10:53:40Z</time>
      </trkpt>
      <trkpt lat="37.0684580" lon="-2.1953050">
        <ele>565.5</ele>
        <time>2019-10-18T10:53:41Z</time>
      </trkpt>
      <trkpt lat="37.0684340" lon="-2.1953340">
        <ele>565.5</ele>
        <time>2019-10-18T10:53:42Z</time>
      </trkpt>
      <trkpt lat="37.0684110" lon="-2.1953650">
        <ele>565.7</ele>
        <time>2019-10-18T10:53:43Z</time>
      </trkpt>
      <trkpt lat="37.0683900" lon="-2.1953970">
        <ele>565.8</ele>
        <time>2019-10-18T10:53:44Z</time>
      </trkpt>
      <trkpt lat="37.0683700" lon="-2.1954300">
        <ele>566.0</ele>
        <time>2019-10-18T10:53:45Z</time>
      </trkpt>
      <trkpt lat="37.0683510" lon="-2.1954630">
        <ele>566.0</ele>
        <time>2019-10-18T10:53:46Z</time>
      </trkpt>
      <trkpt lat="37.0683330" lon="-2.1954960">
        <ele>566.1</ele>
        <time>2019-10-18T10:53:47Z</time>
      </trkpt>
      <trkpt lat="37.0683170" lon="-2.1955280">
        <ele>566.3</ele>
        <time>2019-10-18T10:53:48Z</time>
      </trkpt>
      <trkpt lat="37.0683020" lon="-2.1955610">
        <ele>566.5</ele>
        <time>2019-10-18T10:53:49Z</time>
      </trkpt>
      <trkpt lat="37.0682890" lon="-2.1955940">
        <ele>566.6</ele>
        <time>2019-10-18T10:53:50Z</time>
      </trkpt>
      <trkpt lat="37.0682760" lon="-2.1956290">
        <ele>566.6</ele>
        <time>2019-10-18T10:53:51Z</time>
      </trkpt>
      <trkpt lat="37.0682650" lon="-2.1956640">
        <ele>566.8</ele>
        <time>2019-10-18T10:53:52Z</time>
      </trkpt>
      <trkpt lat="37.0682530" lon="-2.1956990">
        <ele>566.9</ele>
        <time>2019-10-18T10:53:53Z</time>
      </trkpt>
      <trkpt lat="37.0682420" lon="-2.1957350">
        <ele>567.0</ele>
        <time>2019-10-18T10:53:54Z</time>
      </trkpt>
      <trkpt lat="37.0682290" lon="-2.1957700">
        <ele>567.2</ele>
        <time>2019-10-18T10:53:55Z</time>
      </trkpt>
      <trkpt lat="37.0682160" lon="-2.1958050">
        <ele>567.2</ele>
        <time>2019-10-18T10:53:56Z</time>
      </trkpt>
      <trkpt lat="37.0682020" lon="-2.1958410">
        <ele>567.3</ele>
        <time>2019-10-18T10:53:57Z</time>
      </trkpt>
      <trkpt lat="37.0681890" lon="-2.1958770">
        <ele>567.5</ele>
        <time>2019-10-18T10:53:58Z</time>
      </trkpt>
      <trkpt lat="37.0681760" lon="-2.1959150">
        <ele>567.7</ele>
        <time>2019-10-18T10:53:59Z</time>
      </trkpt>
      <trkpt lat="37.0681630" lon="-2.1959520">
        <ele>567.9</ele>
        <time>2019-10-18T10:54:00Z</time>
      </trkpt>
      <trkpt lat="37.0681510" lon="-2.1959900">
        <ele>568.1</ele>
        <time>2019-10-18T10:54:01Z</time>
      </trkpt>
      <trkpt lat="37.0681390" lon="-2.1960280">
        <ele>568.3</ele>
        <time>2019-10-18T10:54:02Z</time>
      </trkpt>
      <trkpt lat="37.0681280" lon="-2.1960670">
        <ele>568.5</ele>
        <time>2019-10-18T10:54:03Z</time>
      </trkpt>
      <trkpt lat="37.0681170" lon="-2.1961060">
        <ele>568.5</ele>
        <time>2019-10-18T10:54:04Z</time>
      </trkpt>
      <trkpt lat="37.0681070" lon="-2.1961440">
        <ele>568.7</ele>
        <time>2019-10-18T10:54:05Z</time>
      </trkpt>
      <trkpt lat="37.0680970" lon="-2.1961820">
        <ele>568.9</ele>
        <time>2019-10-18T10:54:06Z</time>
      </trkpt>
      <trkpt lat="37.0680880" lon="-2.1962200">
        <ele>569.2</ele>
        <time>2019-10-18T10:54:07Z</time>
      </trkpt>
      <trkpt lat="37.0680770" lon="-2.1962570">
        <ele>569.4</ele>
        <time>2019-10-18T10:54:08Z</time>
      </trkpt>
      <trkpt lat="37.0680670" lon="-2.1962930">
        <ele>569.7</ele>
        <time>2019-10-18T10:54:09Z</time>
      </trkpt>
      <trkpt lat="37.0680560" lon="-2.1963300">
        <ele>570.0</ele>
        <time>2019-10-18T10:54:10Z</time>
      </trkpt>
      <trkpt lat="37.0680470" lon="-2.1963670">
        <ele>570.4</ele>
        <time>2019-10-18T10:54:11Z</time>
      </trkpt>
      <trkpt lat="37.0680360" lon="-2.1964030">
        <ele>570.4</ele>
        <time>2019-10-18T10:54:12Z</time>
      </trkpt>
      <trkpt lat="37.0680230" lon="-2.1964370">
        <ele>570.7</ele>
        <time>2019-10-18T10:54:13Z</time>
      </trkpt>
      <trkpt lat="37.0680070" lon="-2.1964690">
        <ele>571.0</ele>
        <time>2019-10-18T10:54:14Z</time>
      </trkpt>
      <trkpt lat="37.0679890" lon="-2.1965000">
        <ele>571.4</ele>
        <time>2019-10-18T10:54:15Z</time>
      </trkpt>
      <trkpt lat="37.0679700" lon="-2.1965300">
        <ele>571.4</ele>
        <time>2019-10-18T10:54:16Z</time>
      </trkpt>
      <trkpt lat="37.0679490" lon="-2.1965570">
        <ele>571.7</ele>
        <time>2019-10-18T10:54:17Z</time>
      </trkpt>
      <trkpt lat="37.0679290" lon="-2.1965800">
        <ele>572.1</ele>
        <time>2019-10-18T10:54:18Z</time>
      </trkpt>
      <trkpt lat="37.0679110" lon="-2.1965970">
        <ele>572.0</ele>
        <time>2019-10-18T10:54:19Z</time>
      </trkpt>
      <trkpt lat="37.0678970" lon="-2.1966080">
        <ele>572.0</ele>
        <time>2019-10-18T10:54:20Z</time>
      </trkpt>
      <trkpt lat="37.0678830" lon="-2.1966190">
        <ele>572.0</ele>
        <time>2019-10-18T10:54:21Z</time>
      </trkpt>
      <trkpt lat="37.0678680" lon="-2.1966340">
        <ele>572.3</ele>
        <time>2019-10-18T10:54:22Z</time>
      </trkpt>
      <trkpt lat="37.0678490" lon="-2.1966540">
        <ele>572.3</ele>
        <time>2019-10-18T10:54:23Z</time>
      </trkpt>
      <trkpt lat="37.0678290" lon="-2.1966790">
        <ele>572.6</ele>
        <time>2019-10-18T10:54:24Z</time>
      </trkpt>
      <trkpt lat="37.0678070" lon="-2.1967080">
        <ele>572.9</ele>
        <time>2019-10-18T10:54:25Z</time>
      </trkpt>
      <trkpt lat="37.0677850" lon="-2.1967410">
        <ele>573.0</ele>
        <time>2019-10-18T10:54:26Z</time>
      </trkpt>
      <trkpt lat="37.0677620" lon="-2.1967760">
        <ele>573.2</ele>
        <time>2019-10-18T10:54:27Z</time>
      </trkpt>
      <trkpt lat="37.0677400" lon="-2.1968120">
        <ele>573.5</ele>
        <time>2019-10-18T10:54:28Z</time>
      </trkpt>
      <trkpt lat="37.0677190" lon="-2.1968480">
        <ele>573.9</ele>
        <time>2019-10-18T10:54:29Z</time>
      </trkpt>
      <trkpt lat="37.0676990" lon="-2.1968830">
        <ele>574.0</ele>
        <time>2019-10-18T10:54:30Z</time>
      </trkpt>
      <trkpt lat="37.0676800" lon="-2.1969170">
        <ele>574.0</ele>
        <time>2019-10-18T10:54:31Z</time>
      </trkpt>
      <trkpt lat="37.0676610" lon="-2.1969510">
        <ele>574.2</ele>
        <time>2019-10-18T10:54:32Z</time>
      </trkpt>
      <trkpt lat="37.0676430" lon="-2.1969850">
        <ele>574.5</ele>
        <time>2019-10-18T10:54:33Z</time>
      </trkpt>
      <trkpt lat="37.0676240" lon="-2.1970180">
        <ele>574.5</ele>
        <time>2019-10-18T10:54:34Z</time>
      </trkpt>
      <trkpt lat="37.0676050" lon="-2.1970500">
        <ele>574.2</ele>
        <time>2019-10-18T10:54:35Z</time>
      </trkpt>
      <trkpt lat="37.0675850" lon="-2.1970810">
        <ele>574.5</ele>
        <time>2019-10-18T10:54:36Z</time>
      </trkpt>
      <trkpt lat="37.0675650" lon="-2.1971130">
        <ele>574.3</ele>
        <time>2019-10-18T10:54:37Z</time>
      </trkpt>
      <trkpt lat="37.0675450" lon="-2.1971440">
        <ele>574.5</ele>
        <time>2019-10-18T10:54:38Z</time>
      </trkpt>
      <trkpt lat="37.0675240" lon="-2.1971730">
        <ele>574.2</ele>
        <time>2019-10-18T10:54:39Z</time>
      </trkpt>
      <trkpt lat="37.0675040" lon="-2.1972000">
        <ele>574.0</ele>
        <time>2019-10-18T10:54:40Z</time>
      </trkpt>
      <trkpt lat="37.0674840" lon="-2.1972250">
        <ele>574.0</ele>
        <time>2019-10-18T10:54:41Z</time>
      </trkpt>
      <trkpt lat="37.0674630" lon="-2.1972480">
        <ele>573.7</ele>
        <time>2019-10-18T10:54:42Z</time>
      </trkpt>
      <trkpt lat="37.0674420" lon="-2.1972720">
        <ele>573.8</ele>
        <time>2019-10-18T10:54:43Z</time>
      </trkpt>
      <trkpt lat="37.0674200" lon="-2.1972940">
        <ele>573.5</ele>
        <time>2019-10-18T10:54:44Z</time>
      </trkpt>
      <trkpt lat="37.0673970" lon="-2.1973160">
        <ele>573.3</ele>
        <time>2019-10-18T10:54:45Z</time>
      </trkpt>
      <trkpt lat="37.0673730" lon="-2.1973380">
        <ele>573.3</ele>
        <time>2019-10-18T10:54:46Z</time>
      </trkpt>
      <trkpt lat="37.0673490" lon="-2.1973590">
        <ele>573.1</ele>
        <time>2019-10-18T10:54:47Z</time>
      </trkpt>
      <trkpt lat="37.0673260" lon="-2.1973780">
        <ele>573.0</ele>
        <time>2019-10-18T10:54:48Z</time>
      </trkpt>
      <trkpt lat="37.0673030" lon="-2.1973950">
        <ele>573.0</ele>
        <time>2019-10-18T10:54:49Z</time>
      </trkpt>
      <trkpt lat="37.0672800" lon="-2.1974100">
        <ele>572.8</ele>
        <time>2019-10-18T10:54:50Z</time>
      </trkpt>
      <trkpt lat="37.0672560" lon="-2.1974210">
        <ele>572.7</ele>
        <time>2019-10-18T10:54:51Z</time>
      </trkpt>
      <trkpt lat="37.0672290" lon="-2.1974300">
        <ele>572.7</ele>
        <time>2019-10-18T10:54:52Z</time>
      </trkpt>
      <trkpt lat="37.0672020" lon="-2.1974390">
        <ele>572.7</ele>
        <time>2019-10-18T10:54:53Z</time>
      </trkpt>
      <trkpt lat="37.0671730" lon="-2.1974500">
        <ele>572.6</ele>
        <time>2019-10-18T10:54:54Z</time>
      </trkpt>
      <trkpt lat="37.0671450" lon="-2.1974600">
        <ele>572.6</ele>
        <time>2019-10-18T10:54:55Z</time>
      </trkpt>
      <trkpt lat="37.0671180" lon="-2.1974700">
        <ele>572.7</ele>
        <time>2019-10-18T10:54:56Z</time>
      </trkpt>
      <trkpt lat="37.0670920" lon="-2.1974800">
        <ele>572.7</ele>
        <time>2019-10-18T10:54:57Z</time>
      </trkpt>
      <trkpt lat="37.0670680" lon="-2.1974890">
        <ele>572.7</ele>
        <time>2019-10-18T10:54:58Z</time>
      </trkpt>
      <trkpt lat="37.0670460" lon="-2.1974950">
        <ele>572.8</ele>
        <time>2019-10-18T10:54:59Z</time>
      </trkpt>
      <trkpt lat="37.0670260" lon="-2.1975000">
        <ele>572.9</ele>
        <time>2019-10-18T10:55:00Z</time>
      </trkpt>
      <trkpt lat="37.0670080" lon="-2.1975010">
        <ele>572.9</ele>
        <time>2019-10-18T10:55:01Z</time>
      </trkpt>
      <trkpt lat="37.0669910" lon="-2.1975000">
        <ele>572.9</ele>
        <time>2019-10-18T10:55:02Z</time>
      </trkpt>
      <trkpt lat="37.0669760" lon="-2.1974960">
        <ele>572.9</ele>
        <time>2019-10-18T10:55:03Z</time>
      </trkpt>
      <trkpt lat="37.0669620" lon="-2.1974910">
        <ele>572.9</ele>
        <time>2019-10-18T10:55:04Z</time>
      </trkpt>
      <trkpt lat="37.0669470" lon="-2.1974860">
        <ele>573.0</ele>
        <time>2019-10-18T10:55:05Z</time>
      </trkpt>
      <trkpt lat="37.0669310" lon="-2.1974880">
        <ele>573.0</ele>
        <time>2019-10-18T10:55:06Z</time>
      </trkpt>
      <trkpt lat="37.0669160" lon="-2.1974980">
        <ele>573.1</ele>
        <time>2019-10-18T10:55:07Z</time>
      </trkpt>
      <trkpt lat="37.0669050" lon="-2.1975160">
        <ele>573.1</ele>
        <time>2019-10-18T10:55:08Z</time>
      </trkpt>
      <trkpt lat="37.0668980" lon="-2.1975370">
        <ele>573.1</ele>
        <time>2019-10-18T10:55:09Z</time>
      </trkpt>
      <trkpt lat="37.0668940" lon="-2.1975600">
        <ele>573.1</ele>
        <time>2019-10-18T10:55:10Z</time>
      </trkpt>
      <trkpt lat="37.0668890" lon="-2.1975840">
        <ele>573.1</ele>
        <time>2019-10-18T10:55:11Z</time>
      </trkpt>
      <trkpt lat="37.0668840" lon="-2.1976100">
        <ele>573.0</ele>
        <time>2019-10-18T10:55:12Z</time>
      </trkpt>
      <trkpt lat="37.0668800" lon="-2.1976400">
        <ele>573.0</ele>
        <time>2019-10-18T10:55:13Z</time>
      </trkpt>
      <trkpt lat="37.0668770" lon="-2.1976700">
        <ele>573.0</ele>
        <time>2019-10-18T10:55:14Z</time>
      </trkpt>
      <trkpt lat="37.0668740" lon="-2.1976990">
        <ele>572.9</ele>
        <time>2019-10-18T10:55:15Z</time>
      </trkpt>
      <trkpt lat="37.0668700" lon="-2.1977270">
        <ele>572.9</ele>
        <time>2019-10-18T10:55:16Z</time>
      </trkpt>
      <trkpt lat="37.0668640" lon="-2.1977530">
        <ele>572.8</ele>
        <time>2019-10-18T10:55:17Z</time>
      </trkpt>
      <trkpt lat="37.0668530" lon="-2.1977750">
        <ele>572.9</ele>
        <time>2019-10-18T10:55:18Z</time>
      </trkpt>
      <trkpt lat="37.0668380" lon="-2.1977920">
        <ele>572.8</ele>
        <time>2019-10-18T10:55:19Z</time>
      </trkpt>
      <trkpt lat="37.0668180" lon="-2.1978020">
        <ele>572.9</ele>
        <time>2019-10-18T10:55:20Z</time>
      </trkpt>
      <trkpt lat="37.0667970" lon="-2.1978070">
        <ele>572.9</ele>
        <time>2019-10-18T10:55:21Z</time>
      </trkpt>
      <trkpt lat="37.0667750" lon="-2.1978080">
        <ele>573.0</ele>
        <time>2019-10-18T10:55:22Z</time>
      </trkpt>
      <trkpt lat="37.0667530" lon="-2.1978070">
        <ele>573.0</ele>
        <time>2019-10-18T10:55:23Z</time>
      </trkpt>
      <trkpt lat="37.0667310" lon="-2.1978060">
        <ele>573.1</ele>
        <time>2019-10-18T10:55:24Z</time>
      </trkpt>
      <trkpt lat="37.0667090" lon="-2.1978040">
        <ele>573.2</ele>
        <time>2019-10-18T10:55:25Z</time>
      </trkpt>
      <trkpt lat="37.0666880" lon="-2.1978000">
        <ele>573.2</ele>
        <time>2019-10-18T10:55:26Z</time>
      </trkpt>
      <trkpt lat="37.0666690" lon="-2.1977950">
        <ele>573.3</ele>
        <time>2019-10-18T10:55:27Z</time>
      </trkpt>
      <trkpt lat="37.0666500" lon="-2.1977900">
        <ele>573.3</ele>
        <time>2019-10-18T10:55:28Z</time>
      </trkpt>
      <trkpt lat="37.0666320" lon="-2.1977870">
        <ele>573.4</ele>
        <time>2019-10-18T10:55:29Z</time>
      </trkpt>
      <trkpt lat="37.0666130" lon="-2.1977820">
        <ele>573.5</ele>
        <time>2019-10-18T10:55:30Z</time>
      </trkpt>
      <trkpt lat="37.0665940" lon="-2.1977760">
        <ele>573.6</ele>
        <time>2019-10-18T10:55:31Z</time>
      </trkpt>
      <trkpt lat="37.0665730" lon="-2.1977700">
        <ele>573.7</ele>
        <time>2019-10-18T10:55:32Z</time>
      </trkpt>
      <trkpt lat="37.0665510" lon="-2.1977650">
        <ele>573.7</ele>
        <time>2019-10-18T10:55:33Z</time>
      </trkpt>
      <trkpt lat="37.0665310" lon="-2.1977590">
        <ele>573.8</ele>
        <time>2019-10-18T10:55:34Z</time>
      </trkpt>
      <trkpt lat="37.0665110" lon="-2.1977560">
        <ele>573.9</ele>
        <time>2019-10-18T10:55:35Z</time>
      </trkpt>
      <trkpt lat="37.0664910" lon="-2.1977510">
        <ele>573.9</ele>
        <time>2019-10-18T10:55:36Z</time>
      </trkpt>
      <trkpt lat="37.0664730" lon="-2.1977480">
        <ele>574.0</ele>
        <time>2019-10-18T10:55:37Z</time>
      </trkpt>
      <trkpt lat="37.0664550" lon="-2.1977450">
        <ele>574.0</ele>
        <time>2019-10-18T10:55:38Z</time>
      </trkpt>
      <trkpt lat="37.0664380" lon="-2.1977420">
        <ele>574.1</ele>
        <time>2019-10-18T10:55:39Z</time>
      </trkpt>
      <trkpt lat="37.0664190" lon="-2.1977400">
        <ele>574.1</ele>
        <time>2019-10-18T10:55:40Z</time>
      </trkpt>
      <trkpt lat="37.0664000" lon="-2.1977380">
        <ele>574.2</ele>
        <time>2019-10-18T10:55:41Z</time>
      </trkpt>
      <trkpt lat="37.0663800" lon="-2.1977360">
        <ele>574.3</ele>
        <time>2019-10-18T10:55:42Z</time>
      </trkpt>
      <trkpt lat="37.0663600" lon="-2.1977340">
        <ele>574.4</ele>
        <time>2019-10-18T10:55:43Z</time>
      </trkpt>
      <trkpt lat="37.0663390" lon="-2.1977300">
        <ele>574.5</ele>
        <time>2019-10-18T10:55:44Z</time>
      </trkpt>
      <trkpt lat="37.0663190" lon="-2.1977260">
        <ele>574.5</ele>
        <time>2019-10-18T10:55:45Z</time>
      </trkpt>
      <trkpt lat="37.0663000" lon="-2.1977210">
        <ele>574.6</ele>
        <time>2019-10-18T10:55:46Z</time>
      </trkpt>
      <trkpt lat="37.0662810" lon="-2.1977170">
        <ele>574.6</ele>
        <time>2019-10-18T10:55:47Z</time>
      </trkpt>
      <trkpt lat="37.0662640" lon="-2.1977130">
        <ele>574.8</ele>
        <time>2019-10-18T10:55:48Z</time>
      </trkpt>
      <trkpt lat="37.0662480" lon="-2.1977100">
        <ele>574.8</ele>
        <time>2019-10-18T10:55:49Z</time>
      </trkpt>
      <trkpt lat="37.0662310" lon="-2.1977050">
        <ele>574.9</ele>
        <time>2019-10-18T10:55:50Z</time>
      </trkpt>
      <trkpt lat="37.0662130" lon="-2.1977010">
        <ele>574.9</ele>
        <time>2019-10-18T10:55:51Z</time>
      </trkpt>
      <trkpt lat="37.0661950" lon="-2.1976980">
        <ele>575.0</ele>
        <time>2019-10-18T10:55:52Z</time>
      </trkpt>
      <trkpt lat="37.0661770" lon="-2.1976940">
        <ele>575.1</ele>
        <time>2019-10-18T10:55:53Z</time>
      </trkpt>
      <trkpt lat="37.0661610" lon="-2.1976890">
        <ele>575.3</ele>
        <time>2019-10-18T10:55:54Z</time>
      </trkpt>
      <trkpt lat="37.0661450" lon="-2.1976810">
        <ele>575.3</ele>
        <time>2019-10-18T10:55:55Z</time>
      </trkpt>
      <trkpt lat="37.0661280" lon="-2.1976720">
        <ele>575.4</ele>
        <time>2019-10-18T10:55:56Z</time>
      </trkpt>
      <trkpt lat="37.0661110" lon="-2.1976640">
        <ele>575.4</ele>
        <time>2019-10-18T10:55:57Z</time>
      </trkpt>
      <trkpt lat="37.0660930" lon="-2.1976570">
        <ele>575.6</ele>
        <time>2019-10-18T10:55:58Z</time>
      </trkpt>
      <trkpt lat="37.0660750" lon="-2.1976530">
        <ele>575.6</ele>
        <time>2019-10-18T10:55:59Z</time>
      </trkpt>
      <trkpt lat="37.0660590" lon="-2.1976480">
        <ele>575.9</ele>
        <time>2019-10-18T10:56:00Z</time>
      </trkpt>
      <trkpt lat="37.0660460" lon="-2.1976400">
        <ele>575.9</ele>
        <time>2019-10-18T10:56:01Z</time>
      </trkpt>
      <trkpt lat="37.0660340" lon="-2.1976280">
        <ele>575.9</ele>
        <time>2019-10-18T10:56:02Z</time>
      </trkpt>
      <trkpt lat="37.0660250" lon="-2.1976150">
        <ele>576.0</ele>
        <time>2019-10-18T10:56:03Z</time>
      </trkpt>
      <trkpt lat="37.0660210" lon="-2.1976050">
        <ele>576.2</ele>
        <time>2019-10-18T10:56:04Z</time>
      </trkpt>
      <trkpt lat="37.0660190" lon="-2.1976000">
        <ele>576.2</ele>
        <time>2019-10-18T10:56:05Z</time>
      </trkpt>
      <trkpt lat="37.0660180" lon="-2.1975990">
        <ele>576.2</ele>
        <time>2019-10-18T10:56:06Z</time>
      </trkpt>
      <trkpt lat="37.0660180" lon="-2.1975990">
        <ele>576.2</ele>
        <time>2019-10-18T10:56:07Z</time>
      </trkpt>
      <trkpt lat="37.0660180" lon="-2.1976000">
        <ele>576.2</ele>
        <time>2019-10-18T10:56:08Z</time>
      </trkpt>
      <trkpt lat="37.0660180" lon="-2.1976010">
        <ele>576.2</ele>
        <time>2019-10-18T10:56:09Z</time>
      </trkpt>
      <trkpt lat="37.0660190" lon="-2.1976010">
        <ele>576.2</ele>
        <time>2019-10-18T10:56:10Z</time>
      </trkpt>
      <trkpt lat="37.0660190" lon="-2.1976010">
        <ele>576.2</ele>
        <time>2019-10-18T10:56:11Z</time>
      </trkpt>
      <trkpt lat="37.0660190" lon="-2.1976010">
        <ele>576.2</ele>
        <time>2019-10-18T10:56:12Z</time>
      </trkpt>
      <trkpt lat="37.0660190" lon="-2.1976010">
        <ele>576.2</ele>
        <time>2019-10-18T10:56:13Z</time>
      </trkpt>
      <trkpt lat="37.0660200" lon="-2.1976000">
        <ele>576.2</ele>
        <time>2019-10-18T10:56:14Z</time>
      </trkpt>
      <trkpt lat="37.0660200" lon="-2.1976000">
        <ele>576.2</ele>
        <time>2019-10-18T10:56:15Z</time>
      </trkpt>
      <trkpt lat="37.0660210" lon="-2.1976010">
        <ele>576.2</ele>
        <time>2019-10-18T10:56:16Z</time>
      </trkpt>
      <trkpt lat="37.0660220" lon="-2.1976030">
        <ele>576.2</ele>
        <time>2019-10-18T10:56:17Z</time>
      </trkpt>
      <trkpt lat="37.0660240" lon="-2.1976060">
        <ele>576.2</ele>
        <time>2019-10-18T10:56:18Z</time>
      </trkpt>
      <trkpt lat="37.0660250" lon="-2.1976070">
        <ele>576.2</ele>
        <time>2019-10-18T10:56:19Z</time>
      </trkpt>
      <trkpt lat="37.0660260" lon="-2.1976070">
        <ele>576.2</ele>
        <time>2019-10-18T10:56:20Z</time>
      </trkpt>
      <trkpt lat="37.0660250" lon="-2.1976050">
        <ele>576.2</ele>
        <time>2019-10-18T10:56:21Z</time>
      </trkpt>
      <trkpt lat="37.0660250" lon="-2.1976040">
        <ele>576.2</ele>
        <time>2019-10-18T10:56:22Z</time>
      </trkpt>
      <trkpt lat="37.0660260" lon="-2.1976030">
        <ele>576.2</ele>
        <time>2019-10-18T10:56:23Z</time>
      </trkpt>
      <trkpt lat="37.0660260" lon="-2.1976030">
        <ele>576.2</ele>
        <time>2019-10-18T10:56:24Z</time>
      </trkpt>
      <trkpt lat="37.0660260" lon="-2.1976030">
        <ele>576.2</ele>
        <time>2019-10-18T10:56:25Z</time>
      </trkpt>
      <trkpt lat="37.0660260" lon="-2.1976040">
        <ele>576.2</ele>
        <time>2019-10-18T10:56:26Z</time>
      </trkpt>
      <trkpt lat="37.0660260" lon="-2.1976050">
        <ele>576.2</ele>
        <time>2019-10-18T10:56:27Z</time>
      </trkpt>
      <trkpt lat="37.0660270" lon="-2.1976060">
        <ele>576.2</ele>
        <time>2019-10-18T10:56:28Z</time>
      </trkpt>
      <trkpt lat="37.0660300" lon="-2.1976100">
        <ele>576.1</ele>
        <time>2019-10-18T10:56:29Z</time>
      </trkpt>
      <trkpt lat="37.0660370" lon="-2.1976190">
        <ele>575.9</ele>
        <time>2019-10-18T10:56:30Z</time>
      </trkpt>
      <trkpt lat="37.0660500" lon="-2.1976320">
        <ele>575.9</ele>
        <time>2019-10-18T10:56:31Z</time>
      </trkpt>
      <trkpt lat="37.0660660" lon="-2.1976480">
        <ele>575.9</ele>
        <time>2019-10-18T10:56:32Z</time>
      </trkpt>
      <trkpt lat="37.0660850" lon="-2.1976610">
        <ele>575.6</ele>
        <time>2019-10-18T10:56:33Z</time>
      </trkpt>
      <trkpt lat="37.0661090" lon="-2.1976700">
        <ele>575.4</ele>
        <time>2019-10-18T10:56:34Z</time>
      </trkpt>
      <trkpt lat="37.0661350" lon="-2.1976760">
        <ele>575.4</ele>
        <time>2019-10-18T10:56:35Z</time>
      </trkpt>
      <trkpt lat="37.0661630" lon="-2.1976820">
        <ele>575.3</ele>
        <time>2019-10-18T10:56:36Z</time>
      </trkpt>
      <trkpt lat="37.0661930" lon="-2.1976870">
        <ele>575.2</ele>
        <time>2019-10-18T10:56:37Z</time>
      </trkpt>
      <trkpt lat="37.0662250" lon="-2.1976940">
        <ele>575.0</ele>
        <time>2019-10-18T10:56:38Z</time>
      </trkpt>
      <trkpt lat="37.0662590" lon="-2.1977020">
        <ele>574.8</ele>
        <time>2019-10-18T10:56:39Z</time>
      </trkpt>
      <trkpt lat="37.0662940" lon="-2.1977100">
        <ele>574.7</ele>
        <time>2019-10-18T10:56:40Z</time>
      </trkpt>
      <trkpt lat="37.0663280" lon="-2.1977180">
        <ele>574.6</ele>
        <time>2019-10-18T10:56:41Z</time>
      </trkpt>
      <trkpt lat="37.0663640" lon="-2.1977260">
        <ele>574.5</ele>
        <time>2019-10-18T10:56:42Z</time>
      </trkpt>
      <trkpt lat="37.0664010" lon="-2.1977340">
        <ele>574.4</ele>
        <time>2019-10-18T10:56:43Z</time>
      </trkpt>
      <trkpt lat="37.0664390" lon="-2.1977420">
        <ele>574.1</ele>
        <time>2019-10-18T10:56:44Z</time>
      </trkpt>
      <trkpt lat="37.0664780" lon="-2.1977510">
        <ele>574.0</ele>
        <time>2019-10-18T10:56:45Z</time>
      </trkpt>
      <trkpt lat="37.0665190" lon="-2.1977590">
        <ele>573.9</ele>
        <time>2019-10-18T10:56:46Z</time>
      </trkpt>
      <trkpt lat="37.0665600" lon="-2.1977660">
        <ele>573.8</ele>
        <time>2019-10-18T10:56:47Z</time>
      </trkpt>
      <trkpt lat="37.0666020" lon="-2.1977730">
        <ele>573.7</ele>
        <time>2019-10-18T10:56:48Z</time>
      </trkpt>
      <trkpt lat="37.0666420" lon="-2.1977790">
        <ele>573.6</ele>
        <time>2019-10-18T10:56:49Z</time>
      </trkpt>
      <trkpt lat="37.0666820" lon="-2.1977850">
        <ele>573.3</ele>
        <time>2019-10-18T10:56:50Z</time>
      </trkpt>
      <trkpt lat="37.0667200" lon="-2.1977890">
        <ele>573.1</ele>
        <time>2019-10-18T10:56:51Z</time>
      </trkpt>
      <trkpt lat="37.0667550" lon="-2.1977930">
        <ele>573.0</ele>
        <time>2019-10-18T10:56:52Z</time>
      </trkpt>
      <trkpt lat="37.0667850" lon="-2.1977970">
        <ele>573.0</ele>
        <time>2019-10-18T10:56:53Z</time>
      </trkpt>
      <trkpt lat="37.0668110" lon="-2.1978020">
        <ele>573.0</ele>
        <time>2019-10-18T10:56:54Z</time>
      </trkpt>
      <trkpt lat="37.0668320" lon="-2.1978100">
        <ele>572.9</ele>
        <time>2019-10-18T10:56:55Z</time>
      </trkpt>
      <trkpt lat="37.0668480" lon="-2.1978210">
        <ele>572.9</ele>
        <time>2019-10-18T10:56:56Z</time>
      </trkpt>
      <trkpt lat="37.0668590" lon="-2.1978360">
        <ele>572.7</ele>
        <time>2019-10-18T10:56:57Z</time>
      </trkpt>
      <trkpt lat="37.0668640" lon="-2.1978530">
        <ele>572.7</ele>
        <time>2019-10-18T10:56:58Z</time>
      </trkpt>
      <trkpt lat="37.0668650" lon="-2.1978720">
        <ele>572.7</ele>
        <time>2019-10-18T10:56:59Z</time>
      </trkpt>
      <trkpt lat="37.0668610" lon="-2.1978920">
        <ele>572.7</ele>
        <time>2019-10-18T10:57:00Z</time>
      </trkpt>
      <trkpt lat="37.0668560" lon="-2.1979150">
        <ele>572.6</ele>
        <time>2019-10-18T10:57:01Z</time>
      </trkpt>
      <trkpt lat="37.0668500" lon="-2.1979390">
        <ele>572.6</ele>
        <time>2019-10-18T10:57:02Z</time>
      </trkpt>
      <trkpt lat="37.0668440" lon="-2.1979640">
        <ele>572.6</ele>
        <time>2019-10-18T10:57:03Z</time>
      </trkpt>
      <trkpt lat="37.0668370" lon="-2.1979890">
        <ele>572.6</ele>
        <time>2019-10-18T10:57:04Z</time>
      </trkpt>
      <trkpt lat="37.0668290" lon="-2.1980150">
        <ele>572.5</ele>
        <time>2019-10-18T10:57:05Z</time>
      </trkpt>
      <trkpt lat="37.0668210" lon="-2.1980400">
        <ele>572.4</ele>
        <time>2019-10-18T10:57:06Z</time>
      </trkpt>
      <trkpt lat="37.0668110" lon="-2.1980650">
        <ele>572.5</ele>
        <time>2019-10-18T10:57:07Z</time>
      </trkpt>
      <trkpt lat="37.0668000" lon="-2.1980900">
        <ele>572.4</ele>
        <time>2019-10-18T10:57:08Z</time>
      </trkpt>
      <trkpt lat="37.0667890" lon="-2.1981150">
        <ele>572.4</ele>
        <time>2019-10-18T10:57:09Z</time>
      </trkpt>
      <trkpt lat="37.0667780" lon="-2.1981400">
        <ele>572.4</ele>
        <time>2019-10-18T10:57:10Z</time>
      </trkpt>
      <trkpt lat="37.0667670" lon="-2.1981650">
        <ele>572.4</ele>
        <time>2019-10-18T10:57:11Z</time>
      </trkpt>
      <trkpt lat="37.0667540" lon="-2.1981890">
        <ele>572.3</ele>
        <time>2019-10-18T10:57:12Z</time>
      </trkpt>
      <trkpt lat="37.0667400" lon="-2.1982120">
        <ele>572.3</ele>
        <time>2019-10-18T10:57:13Z</time>
      </trkpt>
      <trkpt lat="37.0667260" lon="-2.1982350">
        <ele>572.3</ele>
        <time>2019-10-18T10:57:14Z</time>
      </trkpt>
      <trkpt lat="37.0667120" lon="-2.1982600">
        <ele>572.2</ele>
        <time>2019-10-18T10:57:15Z</time>
      </trkpt>
      <trkpt lat="37.0667000" lon="-2.1982850">
        <ele>572.2</ele>
        <time>2019-10-18T10:57:16Z</time>
      </trkpt>
      <trkpt lat="37.0666880" lon="-2.1983100">
        <ele>572.1</ele>
        <time>2019-10-18T10:57:17Z</time>
      </trkpt>
      <trkpt lat="37.0666760" lon="-2.1983330">
        <ele>572.2</ele>
        <time>2019-10-18T10:57:18Z</time>
      </trkpt>
      <trkpt lat="37.0666630" lon="-2.1983550">
        <ele>572.1</ele>
        <time>2019-10-18T10:57:19Z</time>
      </trkpt>
      <trkpt lat="37.0666490" lon="-2.1983730">
        <ele>572.1</ele>
        <time>2019-10-18T10:57:20Z</time>
      </trkpt>
      <trkpt lat="37.0666350" lon="-2.1983910">
        <ele>572.0</ele>
        <time>2019-10-18T10:57:21Z</time>
      </trkpt>
      <trkpt lat="37.0666220" lon="-2.1984090">
        <ele>572.0</ele>
        <time>2019-10-18T10:57:22Z</time>
      </trkpt>
      <trkpt lat="37.0666090" lon="-2.1984290">
        <ele>572.0</ele>
        <time>2019-10-18T10:57:23Z</time>
      </trkpt>
      <trkpt lat="37.0665950" lon="-2.1984520">
        <ele>572.0</ele>
        <time>2019-10-18T10:57:24Z</time>
      </trkpt>
      <trkpt lat="37.0665790" lon="-2.1984800">
        <ele>571.9</ele>
        <time>2019-10-18T10:57:25Z</time>
      </trkpt>
      <trkpt lat="37.0665620" lon="-2.1985110">
        <ele>571.7</ele>
        <time>2019-10-18T10:57:26Z</time>
      </trkpt>
      <trkpt lat="37.0665440" lon="-2.1985450">
        <ele>571.8</ele>
        <time>2019-10-18T10:57:27Z</time>
      </trkpt>
      <trkpt lat="37.0665270" lon="-2.1985790">
        <ele>571.7</ele>
        <time>2019-10-18T10:57:28Z</time>
      </trkpt>
      <trkpt lat="37.0665080" lon="-2.1986100">
        <ele>571.6</ele>
        <time>2019-10-18T10:57:29Z</time>
      </trkpt>
      <trkpt lat="37.0664870" lon="-2.1986360">
        <ele>571.6</ele>
        <time>2019-10-18T10:57:30Z</time>
      </trkpt>
      <trkpt lat="37.0664640" lon="-2.1986520">
        <ele>571.6</ele>
        <time>2019-10-18T10:57:31Z</time>
      </trkpt>
      <trkpt lat="37.0664390" lon="-2.1986570">
        <ele>571.7</ele>
        <time>2019-10-18T10:57:32Z</time>
      </trkpt>
      <trkpt lat="37.0664140" lon="-2.1986540">
        <ele>571.7</ele>
        <time>2019-10-18T10:57:33Z</time>
      </trkpt>
      <trkpt lat="37.0663880" lon="-2.1986450">
        <ele>571.9</ele>
        <time>2019-10-18T10:57:34Z</time>
      </trkpt>
      <trkpt lat="37.0663600" lon="-2.1986350">
        <ele>572.0</ele>
        <time>2019-10-18T10:57:35Z</time>
      </trkpt>
      <trkpt lat="37.0663290" lon="-2.1986210">
        <ele>572.2</ele>
        <time>2019-10-18T10:57:36Z</time>
      </trkpt>
      <trkpt lat="37.0662940" lon="-2.1986060">
        <ele>572.4</ele>
        <time>2019-10-18T10:57:37Z</time>
      </trkpt>
      <trkpt lat="37.0662570" lon="-2.1985890">
        <ele>572.5</ele>
        <time>2019-10-18T10:57:38Z</time>
      </trkpt>
      <trkpt lat="37.0662200" lon="-2.1985720">
        <ele>572.6</ele>
        <time>2019-10-18T10:57:39Z</time>
      </trkpt>
      <trkpt lat="37.0661830" lon="-2.1985530">
        <ele>572.7</ele>
        <time>2019-10-18T10:57:40Z</time>
      </trkpt>
      <trkpt lat="37.0661460" lon="-2.1985320">
        <ele>572.8</ele>
        <time>2019-10-18T10:57:41Z</time>
      </trkpt>
      <trkpt lat="37.0661090" lon="-2.1985110">
        <ele>572.9</ele>
        <time>2019-10-18T10:57:42Z</time>
      </trkpt>
      <trkpt lat="37.0660710" lon="-2.1984930">
        <ele>572.9</ele>
        <time>2019-10-18T10:57:43Z</time>
      </trkpt>
      <trkpt lat="37.0660310" lon="-2.1984790">
        <ele>573.0</ele>
        <time>2019-10-18T10:57:44Z</time>
      </trkpt>
      <trkpt lat="37.0659890" lon="-2.1984680">
        <ele>573.0</ele>
        <time>2019-10-18T10:57:45Z</time>
      </trkpt>
      <trkpt lat="37.0659440" lon="-2.1984590">
        <ele>573.1</ele>
        <time>2019-10-18T10:57:46Z</time>
      </trkpt>
      <trkpt lat="37.0658950" lon="-2.1984510">
        <ele>573.1</ele>
        <time>2019-10-18T10:57:47Z</time>
      </trkpt>
      <trkpt lat="37.0658430" lon="-2.1984450">
        <ele>573.2</ele>
        <time>2019-10-18T10:57:48Z</time>
      </trkpt>
      <trkpt lat="37.0657880" lon="-2.1984420">
        <ele>573.2</ele>
        <time>2019-10-18T10:57:49Z</time>
      </trkpt>
      <trkpt lat="37.0657310" lon="-2.1984400">
        <ele>573.2</ele>
        <time>2019-10-18T10:57:50Z</time>
      </trkpt>
      <trkpt lat="37.0656710" lon="-2.1984360">
        <ele>573.2</ele>
        <time>2019-10-18T10:57:51Z</time>
      </trkpt>
      <trkpt lat="37.0656100" lon="-2.1984340">
        <ele>573.1</ele>
        <time>2019-10-18T10:57:52Z</time>
      </trkpt>
      <trkpt lat="37.0655460" lon="-2.1984330">
        <ele>573.0</ele>
        <time>2019-10-18T10:57:53Z</time>
      </trkpt>
      <trkpt lat="37.0654800" lon="-2.1984340">
        <ele>572.9</ele>
        <time>2019-10-18T10:57:54Z</time>
      </trkpt>
      <trkpt lat="37.0654110" lon="-2.1984370">
        <ele>572.7</ele>
        <time>2019-10-18T10:57:55Z</time>
      </trkpt>
      <trkpt lat="37.0653410" lon="-2.1984420">
        <ele>572.6</ele>
        <time>2019-10-18T10:57:56Z</time>
      </trkpt>
      <trkpt lat="37.0652710" lon="-2.1984520">
        <ele>572.4</ele>
        <time>2019-10-18T10:57:57Z</time>
      </trkpt>
      <trkpt lat="37.0652020" lon="-2.1984700">
        <ele>572.2</ele>
        <time>2019-10-18T10:57:58Z</time>
      </trkpt>
      <trkpt lat="37.0651350" lon="-2.1984960">
        <ele>572.0</ele>
        <time>2019-10-18T10:57:59Z</time>
      </trkpt>
      <trkpt lat="37.0650690" lon="-2.1985310">
        <ele>571.8</ele>
        <time>2019-10-18T10:58:00Z</time>
      </trkpt>
      <trkpt lat="37.0650030" lon="-2.1985710">
        <ele>571.6</ele>
        <time>2019-10-18T10:58:01Z</time>
      </trkpt>
      <trkpt lat="37.0649360" lon="-2.1986130">
        <ele>571.3</ele>
        <time>2019-10-18T10:58:02Z</time>
      </trkpt>
      <trkpt lat="37.0648680" lon="-2.1986570">
        <ele>571.0</ele>
        <time>2019-10-18T10:58:03Z</time>
      </trkpt>
      <trkpt lat="37.0648010" lon="-2.1987050">
        <ele>570.6</ele>
        <time>2019-10-18T10:58:04Z</time>
      </trkpt>
      <trkpt lat="37.0647320" lon="-2.1987570">
        <ele>570.1</ele>
        <time>2019-10-18T10:58:05Z</time>
      </trkpt>
      <trkpt lat="37.0646640" lon="-2.1988150">
        <ele>569.5</ele>
        <time>2019-10-18T10:58:06Z</time>
      </trkpt>
      <trkpt lat="37.0645970" lon="-2.1988780">
        <ele>568.9</ele>
        <time>2019-10-18T10:58:07Z</time>
      </trkpt>
      <trkpt lat="37.0645320" lon="-2.1989440">
        <ele>568.2</ele>
        <time>2019-10-18T10:58:08Z</time>
      </trkpt>
      <trkpt lat="37.0644680" lon="-2.1990080">
        <ele>567.6</ele>
        <time>2019-10-18T10:58:09Z</time>
      </trkpt>
      <trkpt lat="37.0644050" lon="-2.1990700">
        <ele>567.1</ele>
        <time>2019-10-18T10:58:10Z</time>
      </trkpt>
      <trkpt lat="37.0643430" lon="-2.1991300">
        <ele>566.6</ele>
        <time>2019-10-18T10:58:11Z</time>
      </trkpt>
      <trkpt lat="37.0642820" lon="-2.1991870">
        <ele>566.1</ele>
        <time>2019-10-18T10:58:12Z</time>
      </trkpt>
      <trkpt lat="37.0642210" lon="-2.1992410">
        <ele>565.7</ele>
        <time>2019-10-18T10:58:13Z</time>
      </trkpt>
      <trkpt lat="37.0641580" lon="-2.1992900">
        <ele>565.3</ele>
        <time>2019-10-18T10:58:14Z</time>
      </trkpt>
      <trkpt lat="37.0640930" lon="-2.1993340">
        <ele>565.0</ele>
        <time>2019-10-18T10:58:15Z</time>
      </trkpt>
      <trkpt lat="37.0640250" lon="-2.1993740">
        <ele>564.5</ele>
        <time>2019-10-18T10:58:16Z</time>
      </trkpt>
      <trkpt lat="37.0639560" lon="-2.1994100">
        <ele>564.1</ele>
        <time>2019-10-18T10:58:17Z</time>
      </trkpt>
      <trkpt lat="37.0638850" lon="-2.1994440">
        <ele>563.7</ele>
        <time>2019-10-18T10:58:18Z</time>
      </trkpt>
      <trkpt lat="37.0638140" lon="-2.1994740">
        <ele>563.2</ele>
        <time>2019-10-18T10:58:19Z</time>
      </trkpt>
      <trkpt lat="37.0637430" lon="-2.1995050">
        <ele>562.7</ele>
        <time>2019-10-18T10:58:20Z</time>
      </trkpt>
      <trkpt lat="37.0636710" lon="-2.1995360">
        <ele>562.2</ele>
        <time>2019-10-18T10:58:21Z</time>
      </trkpt>
      <trkpt lat="37.0636000" lon="-2.1995680">
        <ele>561.7</ele>
        <time>2019-10-18T10:58:22Z</time>
      </trkpt>
      <trkpt lat="37.0635280" lon="-2.1996010">
        <ele>561.3</ele>
        <time>2019-10-18T10:58:23Z</time>
      </trkpt>
      <trkpt lat="37.0634570" lon="-2.1996380">
        <ele>560.9</ele>
        <time>2019-10-18T10:58:24Z</time>
      </trkpt>
      <trkpt lat="37.0633850" lon="-2.1996810">
        <ele>560.5</ele>
        <time>2019-10-18T10:58:25Z</time>
      </trkpt>
      <trkpt lat="37.0633160" lon="-2.1997330">
        <ele>560.1</ele>
        <time>2019-10-18T10:58:26Z</time>
      </trkpt>
      <trkpt lat="37.0632520" lon="-2.1997970">
        <ele>559.6</ele>
        <time>2019-10-18T10:58:27Z</time>
      </trkpt>
      <trkpt lat="37.0631960" lon="-2.1998740">
        <ele>559.2</ele>
        <time>2019-10-18T10:58:28Z</time>
      </trkpt>
      <trkpt lat="37.0631480" lon="-2.1999600">
        <ele>558.8</ele>
        <time>2019-10-18T10:58:29Z</time>
      </trkpt>
      <trkpt lat="37.0631040" lon="-2.2000470">
        <ele>558.3</ele>
        <time>2019-10-18T10:58:30Z</time>
      </trkpt>
      <trkpt lat="37.0630610" lon="-2.2001340">
        <ele>557.8</ele>
        <time>2019-10-18T10:58:31Z</time>
      </trkpt>
      <trkpt lat="37.0630180" lon="-2.2002200">
        <ele>557.2</ele>
        <time>2019-10-18T10:58:32Z</time>
      </trkpt>
      <trkpt lat="37.0629750" lon="-2.2003040">
        <ele>556.6</ele>
        <time>2019-10-18T10:58:33Z</time>
      </trkpt>
      <trkpt lat="37.0629340" lon="-2.2003880">
        <ele>555.9</ele>
        <time>2019-10-18T10:58:34Z</time>
      </trkpt>
      <trkpt lat="37.0628930" lon="-2.2004710">
        <ele>555.3</ele>
        <time>2019-10-18T10:58:35Z</time>
      </trkpt>
      <trkpt lat="37.0628530" lon="-2.2005540">
        <ele>554.7</ele>
        <time>2019-10-18T10:58:36Z</time>
      </trkpt>
      <trkpt lat="37.0628130" lon="-2.2006350">
        <ele>554.2</ele>
        <time>2019-10-18T10:58:37Z</time>
      </trkpt>
      <trkpt lat="37.0627720" lon="-2.2007160">
        <ele>553.8</ele>
        <time>2019-10-18T10:58:38Z</time>
      </trkpt>
      <trkpt lat="37.0627300" lon="-2.2007950">
        <ele>553.4</ele>
        <time>2019-10-18T10:58:39Z</time>
      </trkpt>
      <trkpt lat="37.0626860" lon="-2.2008700">
        <ele>553.0</ele>
        <time>2019-10-18T10:58:40Z</time>
      </trkpt>
      <trkpt lat="37.0626350" lon="-2.2009390">
        <ele>552.7</ele>
        <time>2019-10-18T10:58:41Z</time>
      </trkpt>
      <trkpt lat="37.0625780" lon="-2.2010010">
        <ele>552.5</ele>
        <time>2019-10-18T10:58:42Z</time>
      </trkpt>
      <trkpt lat="37.0625140" lon="-2.2010550">
        <ele>552.3</ele>
        <time>2019-10-18T10:58:43Z</time>
      </trkpt>
      <trkpt lat="37.0624470" lon="-2.2011050">
        <ele>552.1</ele>
        <time>2019-10-18T10:58:44Z</time>
      </trkpt>
      <trkpt lat="37.0623790" lon="-2.2011570">
        <ele>551.9</ele>
        <time>2019-10-18T10:58:45Z</time>
      </trkpt>
      <trkpt lat="37.0623130" lon="-2.2012150">
        <ele>551.8</ele>
        <time>2019-10-18T10:58:46Z</time>
      </trkpt>
      <trkpt lat="37.0622500" lon="-2.2012830">
        <ele>551.6</ele>
        <time>2019-10-18T10:58:47Z</time>
      </trkpt>
      <trkpt lat="37.0621870" lon="-2.2013540">
        <ele>551.5</ele>
        <time>2019-10-18T10:58:48Z</time>
      </trkpt>
      <trkpt lat="37.0621240" lon="-2.2014280">
        <ele>551.3</ele>
        <time>2019-10-18T10:58:49Z</time>
      </trkpt>
      <trkpt lat="37.0620590" lon="-2.2014990">
        <ele>551.2</ele>
        <time>2019-10-18T10:58:50Z</time>
      </trkpt>
      <trkpt lat="37.0619930" lon="-2.2015710">
        <ele>551.1</ele>
        <time>2019-10-18T10:58:51Z</time>
      </trkpt>
      <trkpt lat="37.0619270" lon="-2.2016460">
        <ele>551.0</ele>
        <time>2019-10-18T10:58:52Z</time>
      </trkpt>
      <trkpt lat="37.0618660" lon="-2.2017300">
        <ele>550.9</ele>
        <time>2019-10-18T10:58:53Z</time>
      </trkpt>
      <trkpt lat="37.0618100" lon="-2.2018220">
        <ele>550.7</ele>
        <time>2019-10-18T10:58:54Z</time>
      </trkpt>
      <trkpt lat="37.0617580" lon="-2.2019190">
        <ele>550.5</ele>
        <time>2019-10-18T10:58:55Z</time>
      </trkpt>
      <trkpt lat="37.0617080" lon="-2.2020160">
        <ele>550.2</ele>
        <time>2019-10-18T10:58:56Z</time>
      </trkpt>
      <trkpt lat="37.0616590" lon="-2.2021090">
        <ele>549.9</ele>
        <time>2019-10-18T10:58:57Z</time>
      </trkpt>
      <trkpt lat="37.0616060" lon="-2.2021940">
        <ele>549.7</ele>
        <time>2019-10-18T10:58:58Z</time>
      </trkpt>
      <trkpt lat="37.0615440" lon="-2.2022640">
        <ele>549.5</ele>
        <time>2019-10-18T10:58:59Z</time>
      </trkpt>
      <trkpt lat="37.0614750" lon="-2.2023170">
        <ele>549.3</ele>
        <time>2019-10-18T10:59:00Z</time>
      </trkpt>
      <trkpt lat="37.0614010" lon="-2.2023480">
        <ele>549.1</ele>
        <time>2019-10-18T10:59:01Z</time>
      </trkpt>
      <trkpt lat="37.0613240" lon="-2.2023600">
        <ele>548.9</ele>
        <time>2019-10-18T10:59:02Z</time>
      </trkpt>
      <trkpt lat="37.0612460" lon="-2.2023640">
        <ele>548.8</ele>
        <time>2019-10-18T10:59:03Z</time>
      </trkpt>
      <trkpt lat="37.0611660" lon="-2.2023730">
        <ele>548.5</ele>
        <time>2019-10-18T10:59:04Z</time>
      </trkpt>
      <trkpt lat="37.0610860" lon="-2.2023970">
        <ele>548.2</ele>
        <time>2019-10-18T10:59:05Z</time>
      </trkpt>
      <trkpt lat="37.0610060" lon="-2.2024340">
        <ele>547.9</ele>
        <time>2019-10-18T10:59:06Z</time>
      </trkpt>
      <trkpt lat="37.0609280" lon="-2.2024850">
        <ele>547.4</ele>
        <time>2019-10-18T10:59:07Z</time>
      </trkpt>
      <trkpt lat="37.0608520" lon="-2.2025470">
        <ele>546.8</ele>
        <time>2019-10-18T10:59:08Z</time>
      </trkpt>
      <trkpt lat="37.0607770" lon="-2.2026130">
        <ele>546.1</ele>
        <time>2019-10-18T10:59:09Z</time>
      </trkpt>
      <trkpt lat="37.0607020" lon="-2.2026810">
        <ele>545.4</ele>
        <time>2019-10-18T10:59:10Z</time>
      </trkpt>
      <trkpt lat="37.0606230" lon="-2.2027440">
        <ele>544.6</ele>
        <time>2019-10-18T10:59:11Z</time>
      </trkpt>
      <trkpt lat="37.0605380" lon="-2.2027950">
        <ele>543.9</ele>
        <time>2019-10-18T10:59:12Z</time>
      </trkpt>
      <trkpt lat="37.0604490" lon="-2.2028240">
        <ele>543.2</ele>
        <time>2019-10-18T10:59:13Z</time>
      </trkpt>
      <trkpt lat="37.0603600" lon="-2.2028270">
        <ele>542.5</ele>
        <time>2019-10-18T10:59:14Z</time>
      </trkpt>
      <trkpt lat="37.0602740" lon="-2.2028080">
        <ele>541.8</ele>
        <time>2019-10-18T10:59:15Z</time>
      </trkpt>
      <trkpt lat="37.0601880" lon="-2.2027700">
        <ele>541.2</ele>
        <time>2019-10-18T10:59:16Z</time>
      </trkpt>
      <trkpt lat="37.0601030" lon="-2.2027240">
        <ele>540.6</ele>
        <time>2019-10-18T10:59:17Z</time>
      </trkpt>
      <trkpt lat="37.0600190" lon="-2.2026740">
        <ele>540.0</ele>
        <time>2019-10-18T10:59:18Z</time>
      </trkpt>
      <trkpt lat="37.0599360" lon="-2.2026250">
        <ele>539.5</ele>
        <time>2019-10-18T10:59:19Z</time>
      </trkpt>
      <trkpt lat="37.0598540" lon="-2.2025760">
        <ele>539.1</ele>
        <time>2019-10-18T10:59:20Z</time>
      </trkpt>
      <trkpt lat="37.0597750" lon="-2.2025240">
        <ele>538.7</ele>
        <time>2019-10-18T10:59:21Z</time>
      </trkpt>
      <trkpt lat="37.0596980" lon="-2.2024700">
        <ele>538.3</ele>
        <time>2019-10-18T10:59:22Z</time>
      </trkpt>
      <trkpt lat="37.0596200" lon="-2.2024220">
        <ele>538.0</ele>
        <time>2019-10-18T10:59:23Z</time>
      </trkpt>
      <trkpt lat="37.0595390" lon="-2.2023850">
        <ele>537.6</ele>
        <time>2019-10-18T10:59:24Z</time>
      </trkpt>
      <trkpt lat="37.0594560" lon="-2.2023630">
        <ele>537.3</ele>
        <time>2019-10-18T10:59:25Z</time>
      </trkpt>
      <trkpt lat="37.0593710" lon="-2.2023560">
        <ele>536.9</ele>
        <time>2019-10-18T10:59:26Z</time>
      </trkpt>
      <trkpt lat="37.0592860" lon="-2.2023610">
        <ele>536.6</ele>
        <time>2019-10-18T10:59:27Z</time>
      </trkpt>
      <trkpt lat="37.0592040" lon="-2.2023760">
        <ele>536.3</ele>
        <time>2019-10-18T10:59:28Z</time>
      </trkpt>
      <trkpt lat="37.0591260" lon="-2.2023950">
        <ele>536.1</ele>
        <time>2019-10-18T10:59:29Z</time>
      </trkpt>
      <trkpt lat="37.0590490" lon="-2.2024150">
        <ele>535.9</ele>
        <time>2019-10-18T10:59:30Z</time>
      </trkpt>
      <trkpt lat="37.0589730" lon="-2.2024370">
        <ele>535.7</ele>
        <time>2019-10-18T10:59:31Z</time>
      </trkpt>
      <trkpt lat="37.0588950" lon="-2.2024620">
        <ele>535.5</ele>
        <time>2019-10-18T10:59:32Z</time>
      </trkpt>
      <trkpt lat="37.0588150" lon="-2.2024900">
        <ele>535.3</ele>
        <time>2019-10-18T10:59:33Z</time>
      </trkpt>
      <trkpt lat="37.0587340" lon="-2.2025220">
        <ele>535.2</ele>
        <time>2019-10-18T10:59:34Z</time>
      </trkpt>
      <trkpt lat="37.0586510" lon="-2.2025560">
        <ele>535.0</ele>
        <time>2019-10-18T10:59:35Z</time>
      </trkpt>
      <trkpt lat="37.0585660" lon="-2.2025900">
        <ele>534.8</ele>
        <time>2019-10-18T10:59:36Z</time>
      </trkpt>
      <trkpt lat="37.0584770" lon="-2.2026230">
        <ele>534.6</ele>
        <time>2019-10-18T10:59:37Z</time>
      </trkpt>
      <trkpt lat="37.0583860" lon="-2.2026560">
        <ele>534.4</ele>
        <time>2019-10-18T10:59:38Z</time>
      </trkpt>
      <trkpt lat="37.0582940" lon="-2.2026900">
        <ele>534.1</ele>
        <time>2019-10-18T10:59:39Z</time>
      </trkpt>
      <trkpt lat="37.0582000" lon="-2.2027260">
        <ele>533.9</ele>
        <time>2019-10-18T10:59:40Z</time>
      </trkpt>
      <trkpt lat="37.0581070" lon="-2.2027630">
        <ele>533.7</ele>
        <time>2019-10-18T10:59:41Z</time>
      </trkpt>
      <trkpt lat="37.0580130" lon="-2.2028010">
        <ele>533.4</ele>
        <time>2019-10-18T10:59:42Z</time>
      </trkpt>
      <trkpt lat="37.0579190" lon="-2.2028380">
        <ele>533.1</ele>
        <time>2019-10-18T10:59:43Z</time>
      </trkpt>
      <trkpt lat="37.0578260" lon="-2.2028720">
        <ele>532.7</ele>
        <time>2019-10-18T10:59:44Z</time>
      </trkpt>
      <trkpt lat="37.0577320" lon="-2.2029070">
        <ele>532.2</ele>
        <time>2019-10-18T10:59:45Z</time>
      </trkpt>
      <trkpt lat="37.0576380" lon="-2.2029420">
        <ele>531.5</ele>
        <time>2019-10-18T10:59:46Z</time>
      </trkpt>
      <trkpt lat="37.0575460" lon="-2.2029800">
        <ele>530.6</ele>
        <time>2019-10-18T10:59:47Z</time>
      </trkpt>
      <trkpt lat="37.0574540" lon="-2.2030170">
        <ele>529.7</ele>
        <time>2019-10-18T10:59:48Z</time>
      </trkpt>
      <trkpt lat="37.0573610" lon="-2.2030530">
        <ele>528.8</ele>
        <time>2019-10-18T10:59:49Z</time>
      </trkpt>
      <trkpt lat="37.0572680" lon="-2.2030870">
        <ele>527.9</ele>
        <time>2019-10-18T10:59:50Z</time>
      </trkpt>
      <trkpt lat="37.0571750" lon="-2.2031220">
        <ele>527.2</ele>
        <time>2019-10-18T10:59:51Z</time>
      </trkpt>
      <trkpt lat="37.0570820" lon="-2.2031580">
        <ele>526.6</ele>
        <time>2019-10-18T10:59:52Z</time>
      </trkpt>
      <trkpt lat="37.0569890" lon="-2.2031960">
        <ele>526.0</ele>
        <time>2019-10-18T10:59:53Z</time>
      </trkpt>
      <trkpt lat="37.0568960" lon="-2.2032340">
        <ele>525.4</ele>
        <time>2019-10-18T10:59:54Z</time>
      </trkpt>
      <trkpt lat="37.0568030" lon="-2.2032720">
        <ele>524.7</ele>
        <time>2019-10-18T10:59:55Z</time>
      </trkpt>
      <trkpt lat="37.0567100" lon="-2.2033090">
        <ele>524.1</ele>
        <time>2019-10-18T10:59:56Z</time>
      </trkpt>
      <trkpt lat="37.0566160" lon="-2.2033460">
        <ele>523.5</ele>
        <time>2019-10-18T10:59:57Z</time>
      </trkpt>
      <trkpt lat="37.0565220" lon="-2.2033840">
        <ele>522.9</ele>
        <time>2019-10-18T10:59:58Z</time>
      </trkpt>
      <trkpt lat="37.0564280" lon="-2.2034230">
        <ele>522.3</ele>
        <time>2019-10-18T10:59:59Z</time>
      </trkpt>
      <trkpt lat="37.0563350" lon="-2.2034630">
        <ele>521.8</ele>
        <time>2019-10-18T11:00:00Z</time>
      </trkpt>
      <trkpt lat="37.0562410" lon="-2.2035020">
        <ele>521.3</ele>
        <time>2019-10-18T11:00:01Z</time>
      </trkpt>
      <trkpt lat="37.0561470" lon="-2.2035390">
        <ele>520.9</ele>
        <time>2019-10-18T11:00:02Z</time>
      </trkpt>
      <trkpt lat="37.0560510" lon="-2.2035720">
        <ele>520.5</ele>
        <time>2019-10-18T11:00:03Z</time>
      </trkpt>
      <trkpt lat="37.0559540" lon="-2.2035940">
        <ele>520.0</ele>
        <time>2019-10-18T11:00:04Z</time>
      </trkpt>
      <trkpt lat="37.0558560" lon="-2.2036050">
        <ele>519.5</ele>
        <time>2019-10-18T11:00:05Z</time>
      </trkpt>
      <trkpt lat="37.0557580" lon="-2.2036050">
        <ele>518.9</ele>
        <time>2019-10-18T11:00:06Z</time>
      </trkpt>
      <trkpt lat="37.0556600" lon="-2.2036000">
        <ele>518.4</ele>
        <time>2019-10-18T11:00:07Z</time>
      </trkpt>
      <trkpt lat="37.0555630" lon="-2.2035950">
        <ele>517.8</ele>
        <time>2019-10-18T11:00:08Z</time>
      </trkpt>
      <trkpt lat="37.0554660" lon="-2.2035910">
        <ele>517.3</ele>
        <time>2019-10-18T11:00:09Z</time>
      </trkpt>
      <trkpt lat="37.0553700" lon="-2.2035850">
        <ele>516.9</ele>
        <time>2019-10-18T11:00:10Z</time>
      </trkpt>
      <trkpt lat="37.0552760" lon="-2.2035790">
        <ele>516.5</ele>
        <time>2019-10-18T11:00:11Z</time>
      </trkpt>
      <trkpt lat="37.0551810" lon="-2.2035720">
        <ele>516.1</ele>
        <time>2019-10-18T11:00:12Z</time>
      </trkpt>
      <trkpt lat="37.0550870" lon="-2.2035670">
        <ele>515.6</ele>
        <time>2019-10-18T11:00:13Z</time>
      </trkpt>
      <trkpt lat="37.0549940" lon="-2.2035620">
        <ele>515.1</ele>
        <time>2019-10-18T11:00:14Z</time>
      </trkpt>
      <trkpt lat="37.0549010" lon="-2.2035540">
        <ele>514.5</ele>
        <time>2019-10-18T11:00:15Z</time>
      </trkpt>
      <trkpt lat="37.0548110" lon="-2.2035380">
        <ele>513.9</ele>
        <time>2019-10-18T11:00:16Z</time>
      </trkpt>
      <trkpt lat="37.0547250" lon="-2.2035090">
        <ele>513.3</ele>
        <time>2019-10-18T11:00:17Z</time>
      </trkpt>
      <trkpt lat="37.0546440" lon="-2.2034660">
        <ele>512.7</ele>
        <time>2019-10-18T11:00:18Z</time>
      </trkpt>
      <trkpt lat="37.0545670" lon="-2.2034110">
        <ele>512.2</ele>
        <time>2019-10-18T11:00:19Z</time>
      </trkpt>
      <trkpt lat="37.0544910" lon="-2.2033530">
        <ele>511.8</ele>
        <time>2019-10-18T11:00:20Z</time>
      </trkpt>
      <trkpt lat="37.0544170" lon="-2.2032920">
        <ele>511.4</ele>
        <time>2019-10-18T11:00:21Z</time>
      </trkpt>
      <trkpt lat="37.0543490" lon="-2.2032250">
        <ele>511.0</ele>
        <time>2019-10-18T11:00:22Z</time>
      </trkpt>
      <trkpt lat="37.0542920" lon="-2.2031400">
        <ele>510.6</ele>
        <time>2019-10-18T11:00:23Z</time>
      </trkpt>
      <trkpt lat="37.0542490" lon="-2.2030390">
        <ele>510.2</ele>
        <time>2019-10-18T11:00:24Z</time>
      </trkpt>
      <trkpt lat="37.0542150" lon="-2.2029290">
        <ele>509.8</ele>
        <time>2019-10-18T11:00:25Z</time>
      </trkpt>
      <trkpt lat="37.0541860" lon="-2.2028190">
        <ele>509.4</ele>
        <time>2019-10-18T11:00:26Z</time>
      </trkpt>
      <trkpt lat="37.0541530" lon="-2.2027130">
        <ele>508.9</ele>
        <time>2019-10-18T11:00:27Z</time>
      </trkpt>
      <trkpt lat="37.0541130" lon="-2.2026080">
        <ele>508.4</ele>
        <time>2019-10-18T11:00:28Z</time>
      </trkpt>
      <trkpt lat="37.0540660" lon="-2.2025070">
        <ele>507.9</ele>
        <time>2019-10-18T11:00:29Z</time>
      </trkpt>
      <trkpt lat="37.0540130" lon="-2.2024090">
        <ele>507.3</ele>
        <time>2019-10-18T11:00:30Z</time>
      </trkpt>
      <trkpt lat="37.0539570" lon="-2.2023140">
        <ele>506.9</ele>
        <time>2019-10-18T11:00:31Z</time>
      </trkpt>
      <trkpt lat="37.0539000" lon="-2.2022200">
        <ele>506.4</ele>
        <time>2019-10-18T11:00:32Z</time>
      </trkpt>
      <trkpt lat="37.0538420" lon="-2.2021270">
        <ele>505.9</ele>
        <time>2019-10-18T11:00:33Z</time>
      </trkpt>
      <trkpt lat="37.0537840" lon="-2.2020340">
        <ele>505.5</ele>
        <time>2019-10-18T11:00:34Z</time>
      </trkpt>
      <trkpt lat="37.0537260" lon="-2.2019410">
        <ele>505.0</ele>
        <time>2019-10-18T11:00:35Z</time>
      </trkpt>
      <trkpt lat="37.0536670" lon="-2.2018480">
        <ele>504.5</ele>
        <time>2019-10-18T11:00:36Z</time>
      </trkpt>
      <trkpt lat="37.0536100" lon="-2.2017550">
        <ele>504.0</ele>
        <time>2019-10-18T11:00:37Z</time>
      </trkpt>
      <trkpt lat="37.0535520" lon="-2.2016620">
        <ele>503.4</ele>
        <time>2019-10-18T11:00:38Z</time>
      </trkpt>
      <trkpt lat="37.0534960" lon="-2.2015690">
        <ele>502.9</ele>
        <time>2019-10-18T11:00:39Z</time>
      </trkpt>
      <trkpt lat="37.0534400" lon="-2.2014750">
        <ele>502.4</ele>
        <time>2019-10-18T11:00:40Z</time>
      </trkpt>
      <trkpt lat="37.0533830" lon="-2.2013810">
        <ele>502.0</ele>
        <time>2019-10-18T11:00:41Z</time>
      </trkpt>
      <trkpt lat="37.0533220" lon="-2.2012950">
        <ele>501.6</ele>
        <time>2019-10-18T11:00:42Z</time>
      </trkpt>
      <trkpt lat="37.0532520" lon="-2.2012250">
        <ele>501.2</ele>
        <time>2019-10-18T11:00:43Z</time>
      </trkpt>
      <trkpt lat="37.0531710" lon="-2.2011810">
        <ele>500.8</ele>
        <time>2019-10-18T11:00:44Z</time>
      </trkpt>
      <trkpt lat="37.0530850" lon="-2.2011680">
        <ele>500.6</ele>
        <time>2019-10-18T11:00:45Z</time>
      </trkpt>
      <trkpt lat="37.0530010" lon="-2.2011840">
        <ele>500.3</ele>
        <time>2019-10-18T11:00:46Z</time>
      </trkpt>
      <trkpt lat="37.0529260" lon="-2.2012280">
        <ele>500.1</ele>
        <time>2019-10-18T11:00:47Z</time>
      </trkpt>
      <trkpt lat="37.0528620" lon="-2.2012890">
        <ele>499.8</ele>
        <time>2019-10-18T11:00:48Z</time>
      </trkpt>
      <trkpt lat="37.0528040" lon="-2.2013600">
        <ele>499.4</ele>
        <time>2019-10-18T11:00:49Z</time>
      </trkpt>
      <trkpt lat="37.0527500" lon="-2.2014310">
        <ele>499.3</ele>
        <time>2019-10-18T11:00:50Z</time>
      </trkpt>
      <trkpt lat="37.0526950" lon="-2.2015010">
        <ele>499.2</ele>
        <time>2019-10-18T11:00:51Z</time>
      </trkpt>
      <trkpt lat="37.0526410" lon="-2.2015690">
        <ele>499.1</ele>
        <time>2019-10-18T11:00:52Z</time>
      </trkpt>
      <trkpt lat="37.0525860" lon="-2.2016310">
        <ele>499.0</ele>
        <time>2019-10-18T11:00:53Z</time>
      </trkpt>
      <trkpt lat="37.0525290" lon="-2.2016790">
        <ele>498.9</ele>
        <time>2019-10-18T11:00:54Z</time>
      </trkpt>
      <trkpt lat="37.0524710" lon="-2.2017080">
        <ele>498.9</ele>
        <time>2019-10-18T11:00:55Z</time>
      </trkpt>
      <trkpt lat="37.0524140" lon="-2.2017200">
        <ele>498.8</ele>
        <time>2019-10-18T11:00:56Z</time>
      </trkpt>
      <trkpt lat="37.0523590" lon="-2.2017210">
        <ele>498.8</ele>
        <time>2019-10-18T11:00:57Z</time>
      </trkpt>
      <trkpt lat="37.0523070" lon="-2.2017160">
        <ele>498.8</ele>
        <time>2019-10-18T11:00:58Z</time>
      </trkpt>
      <trkpt lat="37.0522570" lon="-2.2017120">
        <ele>498.8</ele>
        <time>2019-10-18T11:00:59Z</time>
      </trkpt>
      <trkpt lat="37.0522090" lon="-2.2017090">
        <ele>498.9</ele>
        <time>2019-10-18T11:01:00Z</time>
      </trkpt>
      <trkpt lat="37.0521650" lon="-2.2017050">
        <ele>499.0</ele>
        <time>2019-10-18T11:01:01Z</time>
      </trkpt>
      <trkpt lat="37.0521240" lon="-2.2017000">
        <ele>499.0</ele>
        <time>2019-10-18T11:01:02Z</time>
      </trkpt>
      <trkpt lat="37.0520860" lon="-2.2016940">
        <ele>499.1</ele>
        <time>2019-10-18T11:01:03Z</time>
      </trkpt>
      <trkpt lat="37.0520490" lon="-2.2016860">
        <ele>499.3</ele>
        <time>2019-10-18T11:01:04Z</time>
      </trkpt>
      <trkpt lat="37.0520130" lon="-2.2016760">
        <ele>499.4</ele>
        <time>2019-10-18T11:01:05Z</time>
      </trkpt>
      <trkpt lat="37.0519770" lon="-2.2016580">
        <ele>499.5</ele>
        <time>2019-10-18T11:01:06Z</time>
      </trkpt>
      <trkpt lat="37.0519430" lon="-2.2016340">
        <ele>499.7</ele>
        <time>2019-10-18T11:01:07Z</time>
      </trkpt>
      <trkpt lat="37.0519090" lon="-2.2016050">
        <ele>500.0</ele>
        <time>2019-10-18T11:01:08Z</time>
      </trkpt>
      <trkpt lat="37.0518760" lon="-2.2015740">
        <ele>500.3</ele>
        <time>2019-10-18T11:01:09Z</time>
      </trkpt>
      <trkpt lat="37.0518440" lon="-2.2015470">
        <ele>500.7</ele>
        <time>2019-10-18T11:01:10Z</time>
      </trkpt>
      <trkpt lat="37.0518100" lon="-2.2015220">
        <ele>501.1</ele>
        <time>2019-10-18T11:01:11Z</time>
      </trkpt>
      <trkpt lat="37.0517760" lon="-2.2015020">
        <ele>501.4</ele>
        <time>2019-10-18T11:01:12Z</time>
      </trkpt>
      <trkpt lat="37.0517420" lon="-2.2014870">
        <ele>501.8</ele>
        <time>2019-10-18T11:01:13Z</time>
      </trkpt>
      <trkpt lat="37.0517090" lon="-2.2014770">
        <ele>502.4</ele>
        <time>2019-10-18T11:01:14Z</time>
      </trkpt>
      <trkpt lat="37.0516780" lon="-2.2014710">
        <ele>502.9</ele>
        <time>2019-10-18T11:01:15Z</time>
      </trkpt>
      <trkpt lat="37.0516480" lon="-2.2014690">
        <ele>503.5</ele>
        <time>2019-10-18T11:01:16Z</time>
      </trkpt>
      <trkpt lat="37.0516180" lon="-2.2014700">
        <ele>504.1</ele>
        <time>2019-10-18T11:01:17Z</time>
      </trkpt>
      <trkpt lat="37.0515890" lon="-2.2014750">
        <ele>504.6</ele>
        <time>2019-10-18T11:01:18Z</time>
      </trkpt>
      <trkpt lat="37.0515610" lon="-2.2014810">
        <ele>505.1</ele>
        <time>2019-10-18T11:01:19Z</time>
      </trkpt>
      <trkpt lat="37.0515350" lon="-2.2014900">
        <ele>505.6</ele>
        <time>2019-10-18T11:01:20Z</time>
      </trkpt>
      <trkpt lat="37.0515100" lon="-2.2015020">
        <ele>506.0</ele>
        <time>2019-10-18T11:01:21Z</time>
      </trkpt>
      <trkpt lat="37.0514870" lon="-2.2015160">
        <ele>506.5</ele>
        <time>2019-10-18T11:01:22Z</time>
      </trkpt>
      <trkpt lat="37.0514640" lon="-2.2015300">
        <ele>506.9</ele>
        <time>2019-10-18T11:01:23Z</time>
      </trkpt>
      <trkpt lat="37.0514410" lon="-2.2015460">
        <ele>507.3</ele>
        <time>2019-10-18T11:01:24Z</time>
      </trkpt>
      <trkpt lat="37.0514190" lon="-2.2015630">
        <ele>507.7</ele>
        <time>2019-10-18T11:01:25Z</time>
      </trkpt>
      <trkpt lat="37.0513990" lon="-2.2015820">
        <ele>508.1</ele>
        <time>2019-10-18T11:01:26Z</time>
      </trkpt>
      <trkpt lat="37.0513800" lon="-2.2016040">
        <ele>508.4</ele>
        <time>2019-10-18T11:01:27Z</time>
      </trkpt>
      <trkpt lat="37.0513620" lon="-2.2016260">
        <ele>508.7</ele>
        <time>2019-10-18T11:01:28Z</time>
      </trkpt>
      <trkpt lat="37.0513450" lon="-2.2016490">
        <ele>509.0</ele>
        <time>2019-10-18T11:01:29Z</time>
      </trkpt>
      <trkpt lat="37.0513290" lon="-2.2016750">
        <ele>509.3</ele>
        <time>2019-10-18T11:01:30Z</time>
      </trkpt>
      <trkpt lat="37.0513140" lon="-2.2017020">
        <ele>509.6</ele>
        <time>2019-10-18T11:01:31Z</time>
      </trkpt>
      <trkpt lat="37.0513000" lon="-2.2017300">
        <ele>509.9</ele>
        <time>2019-10-18T11:01:32Z</time>
      </trkpt>
      <trkpt lat="37.0512850" lon="-2.2017590">
        <ele>510.1</ele>
        <time>2019-10-18T11:01:33Z</time>
      </trkpt>
      <trkpt lat="37.0512700" lon="-2.2017870">
        <ele>510.3</ele>
        <time>2019-10-18T11:01:34Z</time>
      </trkpt>
      <trkpt lat="37.0512550" lon="-2.2018160">
        <ele>510.5</ele>
        <time>2019-10-18T11:01:35Z</time>
      </trkpt>
      <trkpt lat="37.0512410" lon="-2.2018440">
        <ele>510.7</ele>
        <time>2019-10-18T11:01:36Z</time>
      </trkpt>
      <trkpt lat="37.0512270" lon="-2.2018730">
        <ele>510.9</ele>
        <time>2019-10-18T11:01:37Z</time>
      </trkpt>
      <trkpt lat="37.0512140" lon="-2.2019010">
        <ele>511.1</ele>
        <time>2019-10-18T11:01:38Z</time>
      </trkpt>
      <trkpt lat="37.0512000" lon="-2.2019290">
        <ele>511.3</ele>
        <time>2019-10-18T11:01:39Z</time>
      </trkpt>
      <trkpt lat="37.0511870" lon="-2.2019580">
        <ele>511.4</ele>
        <time>2019-10-18T11:01:40Z</time>
      </trkpt>
      <trkpt lat="37.0511740" lon="-2.2019870">
        <ele>511.6</ele>
        <time>2019-10-18T11:01:41Z</time>
      </trkpt>
      <trkpt lat="37.0511610" lon="-2.2020160">
        <ele>511.7</ele>
        <time>2019-10-18T11:01:42Z</time>
      </trkpt>
      <trkpt lat="37.0511470" lon="-2.2020450">
        <ele>511.9</ele>
        <time>2019-10-18T11:01:43Z</time>
      </trkpt>
      <trkpt lat="37.0511350" lon="-2.2020750">
        <ele>512.0</ele>
        <time>2019-10-18T11:01:44Z</time>
      </trkpt>
      <trkpt lat="37.0511240" lon="-2.2021050">
        <ele>512.2</ele>
        <time>2019-10-18T11:01:45Z</time>
      </trkpt>
      <trkpt lat="37.0511150" lon="-2.2021370">
        <ele>512.3</ele>
        <time>2019-10-18T11:01:46Z</time>
      </trkpt>
      <trkpt lat="37.0511080" lon="-2.2021690">
        <ele>512.5</ele>
        <time>2019-10-18T11:01:47Z</time>
      </trkpt>
      <trkpt lat="37.0511010" lon="-2.2022030">
        <ele>512.7</ele>
        <time>2019-10-18T11:01:48Z</time>
      </trkpt>
      <trkpt lat="37.0510960" lon="-2.2022360">
        <ele>512.9</ele>
        <time>2019-10-18T11:01:49Z</time>
      </trkpt>
      <trkpt lat="37.0510910" lon="-2.2022690">
        <ele>513.1</ele>
        <time>2019-10-18T11:01:50Z</time>
      </trkpt>
      <trkpt lat="37.0510870" lon="-2.2023010">
        <ele>513.2</ele>
        <time>2019-10-18T11:01:51Z</time>
      </trkpt>
      <trkpt lat="37.0510830" lon="-2.2023330">
        <ele>513.4</ele>
        <time>2019-10-18T11:01:52Z</time>
      </trkpt>
      <trkpt lat="37.0510780" lon="-2.2023660">
        <ele>513.6</ele>
        <time>2019-10-18T11:01:53Z</time>
      </trkpt>
      <trkpt lat="37.0510740" lon="-2.2024000">
        <ele>513.8</ele>
        <time>2019-10-18T11:01:54Z</time>
      </trkpt>
      <trkpt lat="37.0510710" lon="-2.2024350">
        <ele>514.0</ele>
        <time>2019-10-18T11:01:55Z</time>
      </trkpt>
      <trkpt lat="37.0510670" lon="-2.2024700">
        <ele>514.1</ele>
        <time>2019-10-18T11:01:56Z</time>
      </trkpt>
      <trkpt lat="37.0510640" lon="-2.2025050">
        <ele>514.3</ele>
        <time>2019-10-18T11:01:57Z</time>
      </trkpt>
      <trkpt lat="37.0510620" lon="-2.2025390">
        <ele>514.5</ele>
        <time>2019-10-18T11:01:58Z</time>
      </trkpt>
      <trkpt lat="37.0510600" lon="-2.2025730">
        <ele>514.7</ele>
        <time>2019-10-18T11:01:59Z</time>
      </trkpt>
      <trkpt lat="37.0510560" lon="-2.2026080">
        <ele>514.9</ele>
        <time>2019-10-18T11:02:00Z</time>
      </trkpt>
      <trkpt lat="37.0510520" lon="-2.2026420">
        <ele>515.0</ele>
        <time>2019-10-18T11:02:01Z</time>
      </trkpt>
      <trkpt lat="37.0510470" lon="-2.2026770">
        <ele>515.2</ele>
        <time>2019-10-18T11:02:02Z</time>
      </trkpt>
      <trkpt lat="37.0510420" lon="-2.2027110">
        <ele>515.4</ele>
        <time>2019-10-18T11:02:03Z</time>
      </trkpt>
      <trkpt lat="37.0510380" lon="-2.2027460">
        <ele>515.6</ele>
        <time>2019-10-18T11:02:04Z</time>
      </trkpt>
      <trkpt lat="37.0510340" lon="-2.2027810">
        <ele>515.8</ele>
        <time>2019-10-18T11:02:05Z</time>
      </trkpt>
      <trkpt lat="37.0510310" lon="-2.2028160">
        <ele>516.0</ele>
        <time>2019-10-18T11:02:06Z</time>
      </trkpt>
      <trkpt lat="37.0510270" lon="-2.2028500">
        <ele>516.2</ele>
        <time>2019-10-18T11:02:07Z</time>
      </trkpt>
      <trkpt lat="37.0510220" lon="-2.2028830">
        <ele>516.4</ele>
        <time>2019-10-18T11:02:08Z</time>
      </trkpt>
      <trkpt lat="37.0510160" lon="-2.2029150">
        <ele>516.5</ele>
        <time>2019-10-18T11:02:09Z</time>
      </trkpt>
      <trkpt lat="37.0510100" lon="-2.2029460">
        <ele>516.7</ele>
        <time>2019-10-18T11:02:10Z</time>
      </trkpt>
      <trkpt lat="37.0510040" lon="-2.2029770">
        <ele>516.9</ele>
        <time>2019-10-18T11:02:11Z</time>
      </trkpt>
      <trkpt lat="37.0509960" lon="-2.2030070">
        <ele>517.1</ele>
        <time>2019-10-18T11:02:12Z</time>
      </trkpt>
      <trkpt lat="37.0509850" lon="-2.2030370">
        <ele>517.2</ele>
        <time>2019-10-18T11:02:13Z</time>
      </trkpt>
      <trkpt lat="37.0509730" lon="-2.2030680">
        <ele>517.4</ele>
        <time>2019-10-18T11:02:14Z</time>
      </trkpt>
      <trkpt lat="37.0509600" lon="-2.2030980">
        <ele>517.5</ele>
        <time>2019-10-18T11:02:15Z</time>
      </trkpt>
      <trkpt lat="37.0509460" lon="-2.2031290">
        <ele>517.7</ele>
        <time>2019-10-18T11:02:16Z</time>
      </trkpt>
      <trkpt lat="37.0509300" lon="-2.2031580">
        <ele>517.8</ele>
        <time>2019-10-18T11:02:17Z</time>
      </trkpt>
      <trkpt lat="37.0509130" lon="-2.2031870">
        <ele>518.0</ele>
        <time>2019-10-18T11:02:18Z</time>
      </trkpt>
      <trkpt lat="37.0508950" lon="-2.2032150">
        <ele>518.1</ele>
        <time>2019-10-18T11:02:19Z</time>
      </trkpt>
      <trkpt lat="37.0508770" lon="-2.2032430">
        <ele>518.3</ele>
        <time>2019-10-18T11:02:20Z</time>
      </trkpt>
      <trkpt lat="37.0508590" lon="-2.2032710">
        <ele>518.4</ele>
        <time>2019-10-18T11:02:21Z</time>
      </trkpt>
      <trkpt lat="37.0508410" lon="-2.2033000">
        <ele>518.5</ele>
        <time>2019-10-18T11:02:22Z</time>
      </trkpt>
      <trkpt lat="37.0508250" lon="-2.2033280">
        <ele>518.7</ele>
        <time>2019-10-18T11:02:23Z</time>
      </trkpt>
      <trkpt lat="37.0508090" lon="-2.2033560">
        <ele>518.8</ele>
        <time>2019-10-18T11:02:24Z</time>
      </trkpt>
      <trkpt lat="37.0507930" lon="-2.2033830">
        <ele>518.9</ele>
        <time>2019-10-18T11:02:25Z</time>
      </trkpt>
      <trkpt lat="37.0507770" lon="-2.2034100">
        <ele>519.0</ele>
        <time>2019-10-18T11:02:26Z</time>
      </trkpt>
      <trkpt lat="37.0507610" lon="-2.2034370">
        <ele>519.2</ele>
        <time>2019-10-18T11:02:27Z</time>
      </trkpt>
      <trkpt lat="37.0507440" lon="-2.2034630">
        <ele>519.3</ele>
        <time>2019-10-18T11:02:28Z</time>
      </trkpt>
      <trkpt lat="37.0507280" lon="-2.2034890">
        <ele>519.4</ele>
        <time>2019-10-18T11:02:29Z</time>
      </trkpt>
      <trkpt lat="37.0507110" lon="-2.2035130">
        <ele>519.6</ele>
        <time>2019-10-18T11:02:30Z</time>
      </trkpt>
      <trkpt lat="37.0506950" lon="-2.2035380">
        <ele>519.7</ele>
        <time>2019-10-18T11:02:31Z</time>
      </trkpt>
      <trkpt lat="37.0506790" lon="-2.2035630">
        <ele>519.8</ele>
        <time>2019-10-18T11:02:32Z</time>
      </trkpt>
      <trkpt lat="37.0506630" lon="-2.2035880">
        <ele>519.9</ele>
        <time>2019-10-18T11:02:33Z</time>
      </trkpt>
      <trkpt lat="37.0506480" lon="-2.2036120">
        <ele>520.1</ele>
        <time>2019-10-18T11:02:34Z</time>
      </trkpt>
      <trkpt lat="37.0506310" lon="-2.2036350">
        <ele>520.2</ele>
        <time>2019-10-18T11:02:35Z</time>
      </trkpt>
      <trkpt lat="37.0506150" lon="-2.2036580">
        <ele>520.3</ele>
        <time>2019-10-18T11:02:36Z</time>
      </trkpt>
      <trkpt lat="37.0505990" lon="-2.2036800">
        <ele>520.4</ele>
        <time>2019-10-18T11:02:37Z</time>
      </trkpt>
      <trkpt lat="37.0505820" lon="-2.2037010">
        <ele>520.6</ele>
        <time>2019-10-18T11:02:38Z</time>
      </trkpt>
      <trkpt lat="37.0505660" lon="-2.2037230">
        <ele>520.8</ele>
        <time>2019-10-18T11:02:39Z</time>
      </trkpt>
      <trkpt lat="37.0505490" lon="-2.2037440">
        <ele>520.9</ele>
        <time>2019-10-18T11:02:40Z</time>
      </trkpt>
      <trkpt lat="37.0505340" lon="-2.2037660">
        <ele>521.1</ele>
        <time>2019-10-18T11:02:41Z</time>
      </trkpt>
      <trkpt lat="37.0505190" lon="-2.2037870">
        <ele>521.2</ele>
        <time>2019-10-18T11:02:42Z</time>
      </trkpt>
      <trkpt lat="37.0505050" lon="-2.2038070">
        <ele>521.3</ele>
        <time>2019-10-18T11:02:43Z</time>
      </trkpt>
      <trkpt lat="37.0504910" lon="-2.2038260">
        <ele>521.5</ele>
        <time>2019-10-18T11:02:44Z</time>
      </trkpt>
      <trkpt lat="37.0504780" lon="-2.2038460">
        <ele>521.6</ele>
        <time>2019-10-18T11:02:45Z</time>
      </trkpt>
      <trkpt lat="37.0504640" lon="-2.2038680">
        <ele>521.8</ele>
        <time>2019-10-18T11:02:46Z</time>
      </trkpt>
      <trkpt lat="37.0504500" lon="-2.2038900">
        <ele>522.0</ele>
        <time>2019-10-18T11:02:47Z</time>
      </trkpt>
      <trkpt lat="37.0504340" lon="-2.2039140">
        <ele>522.1</ele>
        <time>2019-10-18T11:02:48Z</time>
      </trkpt>
      <trkpt lat="37.0504200" lon="-2.2039400">
        <ele>522.3</ele>
        <time>2019-10-18T11:02:49Z</time>
      </trkpt>
      <trkpt lat="37.0504060" lon="-2.2039660">
        <ele>522.5</ele>
        <time>2019-10-18T11:02:50Z</time>
      </trkpt>
      <trkpt lat="37.0503900" lon="-2.2039910">
        <ele>522.8</ele>
        <time>2019-10-18T11:02:51Z</time>
      </trkpt>
      <trkpt lat="37.0503730" lon="-2.2040140">
        <ele>523.1</ele>
        <time>2019-10-18T11:02:52Z</time>
      </trkpt>
      <trkpt lat="37.0503540" lon="-2.2040360">
        <ele>523.3</ele>
        <time>2019-10-18T11:02:53Z</time>
      </trkpt>
      <trkpt lat="37.0503360" lon="-2.2040590">
        <ele>523.6</ele>
        <time>2019-10-18T11:02:54Z</time>
      </trkpt>
      <trkpt lat="37.0503190" lon="-2.2040830">
        <ele>523.8</ele>
        <time>2019-10-18T11:02:55Z</time>
      </trkpt>
      <trkpt lat="37.0503030" lon="-2.2041080">
        <ele>524.0</ele>
        <time>2019-10-18T11:02:56Z</time>
      </trkpt>
      <trkpt lat="37.0502880" lon="-2.2041340">
        <ele>524.3</ele>
        <time>2019-10-18T11:02:57Z</time>
      </trkpt>
      <trkpt lat="37.0502720" lon="-2.2041590">
        <ele>524.5</ele>
        <time>2019-10-18T11:02:58Z</time>
      </trkpt>
      <trkpt lat="37.0502560" lon="-2.2041820">
        <ele>524.7</ele>
        <time>2019-10-18T11:02:59Z</time>
      </trkpt>
      <trkpt lat="37.0502380" lon="-2.2042050">
        <ele>524.9</ele>
        <time>2019-10-18T11:03:00Z</time>
      </trkpt>
      <trkpt lat="37.0502220" lon="-2.2042280">
        <ele>525.1</ele>
        <time>2019-10-18T11:03:01Z</time>
      </trkpt>
      <trkpt lat="37.0502060" lon="-2.2042530">
        <ele>525.3</ele>
        <time>2019-10-18T11:03:02Z</time>
      </trkpt>
      <trkpt lat="37.0501910" lon="-2.2042780">
        <ele>525.5</ele>
        <time>2019-10-18T11:03:03Z</time>
      </trkpt>
      <trkpt lat="37.0501790" lon="-2.2043050">
        <ele>525.7</ele>
        <time>2019-10-18T11:03:04Z</time>
      </trkpt>
      <trkpt lat="37.0501670" lon="-2.2043330">
        <ele>525.9</ele>
        <time>2019-10-18T11:03:05Z</time>
      </trkpt>
      <trkpt lat="37.0501550" lon="-2.2043590">
        <ele>526.0</ele>
        <time>2019-10-18T11:03:06Z</time>
      </trkpt>
      <trkpt lat="37.0501400" lon="-2.2043850">
        <ele>526.2</ele>
        <time>2019-10-18T11:03:07Z</time>
      </trkpt>
      <trkpt lat="37.0501240" lon="-2.2044090">
        <ele>526.4</ele>
        <time>2019-10-18T11:03:08Z</time>
      </trkpt>
      <trkpt lat="37.0501070" lon="-2.2044340">
        <ele>526.6</ele>
        <time>2019-10-18T11:03:09Z</time>
      </trkpt>
      <trkpt lat="37.0500910" lon="-2.2044590">
        <ele>526.8</ele>
        <time>2019-10-18T11:03:10Z</time>
      </trkpt>
      <trkpt lat="37.0500750" lon="-2.2044830">
        <ele>527.0</ele>
        <time>2019-10-18T11:03:11Z</time>
      </trkpt>
      <trkpt lat="37.0500600" lon="-2.2045070">
        <ele>527.1</ele>
        <time>2019-10-18T11:03:12Z</time>
      </trkpt>
      <trkpt lat="37.0500450" lon="-2.2045320">
        <ele>527.3</ele>
        <time>2019-10-18T11:03:13Z</time>
      </trkpt>
      <trkpt lat="37.0500290" lon="-2.2045570">
        <ele>527.5</ele>
        <time>2019-10-18T11:03:14Z</time>
      </trkpt>
      <trkpt lat="37.0500110" lon="-2.2045800">
        <ele>527.7</ele>
        <time>2019-10-18T11:03:15Z</time>
      </trkpt>
      <trkpt lat="37.0499920" lon="-2.2046030">
        <ele>527.9</ele>
        <time>2019-10-18T11:03:16Z</time>
      </trkpt>
      <trkpt lat="37.0499730" lon="-2.2046270">
        <ele>528.1</ele>
        <time>2019-10-18T11:03:17Z</time>
      </trkpt>
      <trkpt lat="37.0499560" lon="-2.2046530">
        <ele>528.3</ele>
        <time>2019-10-18T11:03:18Z</time>
      </trkpt>
      <trkpt lat="37.0499400" lon="-2.2046790">
        <ele>528.5</ele>
        <time>2019-10-18T11:03:19Z</time>
      </trkpt>
      <trkpt lat="37.0499240" lon="-2.2047070">
        <ele>528.8</ele>
        <time>2019-10-18T11:03:20Z</time>
      </trkpt>
      <trkpt lat="37.0499090" lon="-2.2047350">
        <ele>529.0</ele>
        <time>2019-10-18T11:03:21Z</time>
      </trkpt>
      <trkpt lat="37.0498940" lon="-2.2047640">
        <ele>529.2</ele>
        <time>2019-10-18T11:03:22Z</time>
      </trkpt>
      <trkpt lat="37.0498780" lon="-2.2047900">
        <ele>529.4</ele>
        <time>2019-10-18T11:03:23Z</time>
      </trkpt>
      <trkpt lat="37.0498580" lon="-2.2048140">
        <ele>529.6</ele>
        <time>2019-10-18T11:03:24Z</time>
      </trkpt>
      <trkpt lat="37.0498390" lon="-2.2048380">
        <ele>529.8</ele>
        <time>2019-10-18T11:03:25Z</time>
      </trkpt>
      <trkpt lat="37.0498230" lon="-2.2048640">
        <ele>530.0</ele>
        <time>2019-10-18T11:03:26Z</time>
      </trkpt>
      <trkpt lat="37.0498090" lon="-2.2048900">
        <ele>530.2</ele>
        <time>2019-10-18T11:03:27Z</time>
      </trkpt>
      <trkpt lat="37.0497940" lon="-2.2049160">
        <ele>530.3</ele>
        <time>2019-10-18T11:03:28Z</time>
      </trkpt>
      <trkpt lat="37.0497780" lon="-2.2049430">
        <ele>530.5</ele>
        <time>2019-10-18T11:03:29Z</time>
      </trkpt>
      <trkpt lat="37.0497600" lon="-2.2049720">
        <ele>530.8</ele>
        <time>2019-10-18T11:03:30Z</time>
      </trkpt>
      <trkpt lat="37.0497410" lon="-2.2050010">
        <ele>531.0</ele>
        <time>2019-10-18T11:03:31Z</time>
      </trkpt>
      <trkpt lat="37.0497220" lon="-2.2050310">
        <ele>531.2</ele>
        <time>2019-10-18T11:03:32Z</time>
      </trkpt>
      <trkpt lat="37.0497030" lon="-2.2050630">
        <ele>531.5</ele>
        <time>2019-10-18T11:03:33Z</time>
      </trkpt>
      <trkpt lat="37.0496870" lon="-2.2050960">
        <ele>531.7</ele>
        <time>2019-10-18T11:03:34Z</time>
      </trkpt>
      <trkpt lat="37.0496700" lon="-2.2051250">
        <ele>531.9</ele>
        <time>2019-10-18T11:03:35Z</time>
      </trkpt>
      <trkpt lat="37.0496520" lon="-2.2051510">
        <ele>532.1</ele>
        <time>2019-10-18T11:03:36Z</time>
      </trkpt>
      <trkpt lat="37.0496340" lon="-2.2051730">
        <ele>532.3</ele>
        <time>2019-10-18T11:03:37Z</time>
      </trkpt>
      <trkpt lat="37.0496170" lon="-2.2051960">
        <ele>532.5</ele>
        <time>2019-10-18T11:03:38Z</time>
      </trkpt>
      <trkpt lat="37.0496020" lon="-2.2052210">
        <ele>532.7</ele>
        <time>2019-10-18T11:03:39Z</time>
      </trkpt>
      <trkpt lat="37.0495890" lon="-2.2052460">
        <ele>532.9</ele>
        <time>2019-10-18T11:03:40Z</time>
      </trkpt>
      <trkpt lat="37.0495760" lon="-2.2052720">
        <ele>533.1</ele>
        <time>2019-10-18T11:03:41Z</time>
      </trkpt>
      <trkpt lat="37.0495620" lon="-2.2052960">
        <ele>533.3</ele>
        <time>2019-10-18T11:03:42Z</time>
      </trkpt>
      <trkpt lat="37.0495460" lon="-2.2053190">
        <ele>533.5</ele>
        <time>2019-10-18T11:03:43Z</time>
      </trkpt>
      <trkpt lat="37.0495310" lon="-2.2053420">
        <ele>533.7</ele>
        <time>2019-10-18T11:03:44Z</time>
      </trkpt>
      <trkpt lat="37.0495150" lon="-2.2053650">
        <ele>533.9</ele>
        <time>2019-10-18T11:03:45Z</time>
      </trkpt>
      <trkpt lat="37.0494980" lon="-2.2053870">
        <ele>534.1</ele>
        <time>2019-10-18T11:03:46Z</time>
      </trkpt>
      <trkpt lat="37.0494800" lon="-2.2054070">
        <ele>534.3</ele>
        <time>2019-10-18T11:03:47Z</time>
      </trkpt>
      <trkpt lat="37.0494610" lon="-2.2054270">
        <ele>534.5</ele>
        <time>2019-10-18T11:03:48Z</time>
      </trkpt>
      <trkpt lat="37.0494430" lon="-2.2054490">
        <ele>534.7</ele>
        <time>2019-10-18T11:03:49Z</time>
      </trkpt>
      <trkpt lat="37.0494280" lon="-2.2054750">
        <ele>534.9</ele>
        <time>2019-10-18T11:03:50Z</time>
      </trkpt>
      <trkpt lat="37.0494140" lon="-2.2055000">
        <ele>535.1</ele>
        <time>2019-10-18T11:03:51Z</time>
      </trkpt>
      <trkpt lat="37.0494010" lon="-2.2055250">
        <ele>535.3</ele>
        <time>2019-10-18T11:03:52Z</time>
      </trkpt>
      <trkpt lat="37.0493870" lon="-2.2055500">
        <ele>535.5</ele>
        <time>2019-10-18T11:03:53Z</time>
      </trkpt>
      <trkpt lat="37.0493710" lon="-2.2055740">
        <ele>535.7</ele>
        <time>2019-10-18T11:03:54Z</time>
      </trkpt>
      <trkpt lat="37.0493530" lon="-2.2055970">
        <ele>535.9</ele>
        <time>2019-10-18T11:03:55Z</time>
      </trkpt>
      <trkpt lat="37.0493340" lon="-2.2056200">
        <ele>536.1</ele>
        <time>2019-10-18T11:03:56Z</time>
      </trkpt>
      <trkpt lat="37.0493150" lon="-2.2056440">
        <ele>536.3</ele>
        <time>2019-10-18T11:03:57Z</time>
      </trkpt>
      <trkpt lat="37.0492950" lon="-2.2056670">
        <ele>536.5</ele>
        <time>2019-10-18T11:03:58Z</time>
      </trkpt>
      <trkpt lat="37.0492730" lon="-2.2056870">
        <ele>536.6</ele>
        <time>2019-10-18T11:03:59Z</time>
      </trkpt>
      <trkpt lat="37.0492500" lon="-2.2057070">
        <ele>536.8</ele>
        <time>2019-10-18T11:04:00Z</time>
      </trkpt>
      <trkpt lat="37.0492260" lon="-2.2057240">
        <ele>537.0</ele>
        <time>2019-10-18T11:04:01Z</time>
      </trkpt>
      <trkpt lat="37.0492020" lon="-2.2057380">
        <ele>537.2</ele>
        <time>2019-10-18T11:04:02Z</time>
      </trkpt>
      <trkpt lat="37.0491760" lon="-2.2057490">
        <ele>537.4</ele>
        <time>2019-10-18T11:04:03Z</time>
      </trkpt>
      <trkpt lat="37.0491510" lon="-2.2057590">
        <ele>537.5</ele>
        <time>2019-10-18T11:04:04Z</time>
      </trkpt>
      <trkpt lat="37.0491260" lon="-2.2057680">
        <ele>537.7</ele>
        <time>2019-10-18T11:04:05Z</time>
      </trkpt>
      <trkpt lat="37.0491020" lon="-2.2057760">
        <ele>537.9</ele>
        <time>2019-10-18T11:04:06Z</time>
      </trkpt>
      <trkpt lat="37.0490770" lon="-2.2057810">
        <ele>538.1</ele>
        <time>2019-10-18T11:04:07Z</time>
      </trkpt>
      <trkpt lat="37.0490530" lon="-2.2057840">
        <ele>538.2</ele>
        <time>2019-10-18T11:04:08Z</time>
      </trkpt>
      <trkpt lat="37.0490280" lon="-2.2057840">
        <ele>538.3</ele>
        <time>2019-10-18T11:04:09Z</time>
      </trkpt>
      <trkpt lat="37.0490040" lon="-2.2057840">
        <ele>538.4</ele>
        <time>2019-10-18T11:04:10Z</time>
      </trkpt>
      <trkpt lat="37.0489790" lon="-2.2057850">
        <ele>538.6</ele>
        <time>2019-10-18T11:04:11Z</time>
      </trkpt>
      <trkpt lat="37.0489540" lon="-2.2057850">
        <ele>538.7</ele>
        <time>2019-10-18T11:04:12Z</time>
      </trkpt>
      <trkpt lat="37.0489300" lon="-2.2057850">
        <ele>538.8</ele>
        <time>2019-10-18T11:04:13Z</time>
      </trkpt>
      <trkpt lat="37.0489050" lon="-2.2057820">
        <ele>539.0</ele>
        <time>2019-10-18T11:04:14Z</time>
      </trkpt>
      <trkpt lat="37.0488800" lon="-2.2057790">
        <ele>539.1</ele>
        <time>2019-10-18T11:04:15Z</time>
      </trkpt>
      <trkpt lat="37.0488560" lon="-2.2057750">
        <ele>539.2</ele>
        <time>2019-10-18T11:04:16Z</time>
      </trkpt>
      <trkpt lat="37.0488310" lon="-2.2057710">
        <ele>539.4</ele>
        <time>2019-10-18T11:04:17Z</time>
      </trkpt>
      <trkpt lat="37.0488070" lon="-2.2057660">
        <ele>539.5</ele>
        <time>2019-10-18T11:04:18Z</time>
      </trkpt>
      <trkpt lat="37.0487830" lon="-2.2057610">
        <ele>539.7</ele>
        <time>2019-10-18T11:04:19Z</time>
      </trkpt>
      <trkpt lat="37.0487580" lon="-2.2057570">
        <ele>539.8</ele>
        <time>2019-10-18T11:04:20Z</time>
      </trkpt>
      <trkpt lat="37.0487340" lon="-2.2057530">
        <ele>539.9</ele>
        <time>2019-10-18T11:04:21Z</time>
      </trkpt>
      <trkpt lat="37.0487090" lon="-2.2057510">
        <ele>540.1</ele>
        <time>2019-10-18T11:04:22Z</time>
      </trkpt>
      <trkpt lat="37.0486850" lon="-2.2057490">
        <ele>540.2</ele>
        <time>2019-10-18T11:04:23Z</time>
      </trkpt>
      <trkpt lat="37.0486600" lon="-2.2057480">
        <ele>540.4</ele>
        <time>2019-10-18T11:04:24Z</time>
      </trkpt>
      <trkpt lat="37.0486360" lon="-2.2057460">
        <ele>540.5</ele>
        <time>2019-10-18T11:04:25Z</time>
      </trkpt>
      <trkpt lat="37.0486110" lon="-2.2057420">
        <ele>540.7</ele>
        <time>2019-10-18T11:04:26Z</time>
      </trkpt>
      <trkpt lat="37.0485870" lon="-2.2057390">
        <ele>540.8</ele>
        <time>2019-10-18T11:04:27Z</time>
      </trkpt>
      <trkpt lat="37.0485630" lon="-2.2057360">
        <ele>540.9</ele>
        <time>2019-10-18T11:04:28Z</time>
      </trkpt>
      <trkpt lat="37.0485380" lon="-2.2057330">
        <ele>541.1</ele>
        <time>2019-10-18T11:04:29Z</time>
      </trkpt>
      <trkpt lat="37.0485130" lon="-2.2057280">
        <ele>541.2</ele>
        <time>2019-10-18T11:04:30Z</time>
      </trkpt>
      <trkpt lat="37.0484880" lon="-2.2057250">
        <ele>541.4</ele>
        <time>2019-10-18T11:04:31Z</time>
      </trkpt>
      <trkpt lat="37.0484640" lon="-2.2057220">
        <ele>541.6</ele>
        <time>2019-10-18T11:04:32Z</time>
      </trkpt>
      <trkpt lat="37.0484400" lon="-2.2057200">
        <ele>541.7</ele>
        <time>2019-10-18T11:04:33Z</time>
      </trkpt>
      <trkpt lat="37.0484170" lon="-2.2057180">
        <ele>541.9</ele>
        <time>2019-10-18T11:04:34Z</time>
      </trkpt>
      <trkpt lat="37.0483930" lon="-2.2057140">
        <ele>542.1</ele>
        <time>2019-10-18T11:04:35Z</time>
      </trkpt>
      <trkpt lat="37.0483690" lon="-2.2057100">
        <ele>542.3</ele>
        <time>2019-10-18T11:04:36Z</time>
      </trkpt>
      <trkpt lat="37.0483470" lon="-2.2057050">
        <ele>542.4</ele>
        <time>2019-10-18T11:04:37Z</time>
      </trkpt>
      <trkpt lat="37.0483270" lon="-2.2057030">
        <ele>542.6</ele>
        <time>2019-10-18T11:04:38Z</time>
      </trkpt>
      <trkpt lat="37.0483070" lon="-2.2056990">
        <ele>542.7</ele>
        <time>2019-10-18T11:04:39Z</time>
      </trkpt>
      <trkpt lat="37.0482890" lon="-2.2056940">
        <ele>542.9</ele>
        <time>2019-10-18T11:04:40Z</time>
      </trkpt>
      <trkpt lat="37.0482730" lon="-2.2056880">
        <ele>543.0</ele>
        <time>2019-10-18T11:04:41Z</time>
      </trkpt>
      <trkpt lat="37.0482600" lon="-2.2056840">
        <ele>543.1</ele>
        <time>2019-10-18T11:04:42Z</time>
      </trkpt>
      <trkpt lat="37.0482460" lon="-2.2056810">
        <ele>543.2</ele>
        <time>2019-10-18T11:04:43Z</time>
      </trkpt>
      <trkpt lat="37.0482300" lon="-2.2056780">
        <ele>543.2</ele>
        <time>2019-10-18T11:04:44Z</time>
      </trkpt>
      <trkpt lat="37.0482130" lon="-2.2056750">
        <ele>543.3</ele>
        <time>2019-10-18T11:04:45Z</time>
      </trkpt>
      <trkpt lat="37.0481960" lon="-2.2056720">
        <ele>543.3</ele>
        <time>2019-10-18T11:04:46Z</time>
      </trkpt>
      <trkpt lat="37.0481820" lon="-2.2056680">
        <ele>543.4</ele>
        <time>2019-10-18T11:04:47Z</time>
      </trkpt>
      <trkpt lat="37.0481720" lon="-2.2056640">
        <ele>543.4</ele>
        <time>2019-10-18T11:04:48Z</time>
      </trkpt>
      <trkpt lat="37.0481680" lon="-2.2056620">
        <ele>543.4</ele>
        <time>2019-10-18T11:04:49Z</time>
      </trkpt>
      <trkpt lat="37.0481660" lon="-2.2056630">
        <ele>543.5</ele>
        <time>2019-10-18T11:04:50Z</time>
      </trkpt>
      <trkpt lat="37.0481660" lon="-2.2056630">
        <ele>543.5</ele>
        <time>2019-10-18T11:04:51Z</time>
      </trkpt>
      <trkpt lat="37.0481660" lon="-2.2056630">
        <ele>543.5</ele>
        <time>2019-10-18T11:04:52Z</time>
      </trkpt>
      <trkpt lat="37.0481670" lon="-2.2056630">
        <ele>543.5</ele>
        <time>2019-10-18T11:04:53Z</time>
      </trkpt>
      <trkpt lat="37.0481670" lon="-2.2056620">
        <ele>543.5</ele>
        <time>2019-10-18T11:04:54Z</time>
      </trkpt>
      <trkpt lat="37.0481660" lon="-2.2056620">
        <ele>543.5</ele>
        <time>2019-10-18T11:04:55Z</time>
      </trkpt>
      <trkpt lat="37.0481660" lon="-2.2056610">
        <ele>543.5</ele>
        <time>2019-10-18T11:04:56Z</time>
      </trkpt>
      <trkpt lat="37.0481660" lon="-2.2056600">
        <ele>543.5</ele>
        <time>2019-10-18T11:04:57Z</time>
      </trkpt>
      <trkpt lat="37.0481650" lon="-2.2056600">
        <ele>543.5</ele>
        <time>2019-10-18T11:04:58Z</time>
      </trkpt>
      <trkpt lat="37.0481660" lon="-2.2056590">
        <ele>543.5</ele>
        <time>2019-10-18T11:04:59Z</time>
      </trkpt>
      <trkpt lat="37.0481650" lon="-2.2056590">
        <ele>543.5</ele>
        <time>2019-10-18T11:05:00Z</time>
      </trkpt>
      <trkpt lat="37.0481640" lon="-2.2056590">
        <ele>543.5</ele>
        <time>2019-10-18T11:05:01Z</time>
      </trkpt>
      <trkpt lat="37.0481630" lon="-2.2056600">
        <ele>543.5</ele>
        <time>2019-10-18T11:05:02Z</time>
      </trkpt>
      <trkpt lat="37.0481610" lon="-2.2056610">
        <ele>543.5</ele>
        <time>2019-10-18T11:05:03Z</time>
      </trkpt>
      <trkpt lat="37.0481600" lon="-2.2056610">
        <ele>543.5</ele>
        <time>2019-10-18T11:05:04Z</time>
      </trkpt>
      <trkpt lat="37.0481570" lon="-2.2056590">
        <ele>543.5</ele>
        <time>2019-10-18T11:05:05Z</time>
      </trkpt>
      <trkpt lat="37.0481560" lon="-2.2056560">
        <ele>543.5</ele>
        <time>2019-10-18T11:05:06Z</time>
      </trkpt>
      <trkpt lat="37.0481540" lon="-2.2056530">
        <ele>543.5</ele>
        <time>2019-10-18T11:05:07Z</time>
      </trkpt>
      <trkpt lat="37.0481540" lon="-2.2056510">
        <ele>543.6</ele>
        <time>2019-10-18T11:05:08Z</time>
      </trkpt>
      <trkpt lat="37.0481530" lon="-2.2056500">
        <ele>543.6</ele>
        <time>2019-10-18T11:05:09Z</time>
      </trkpt>
      <trkpt lat="37.0481520" lon="-2.2056490">
        <ele>543.6</ele>
        <time>2019-10-18T11:05:10Z</time>
      </trkpt>
      <trkpt lat="37.0481520" lon="-2.2056480">
        <ele>543.6</ele>
        <time>2019-10-18T11:05:11Z</time>
      </trkpt>
      <trkpt lat="37.0481500" lon="-2.2056470">
        <ele>543.6</ele>
        <time>2019-10-18T11:05:12Z</time>
      </trkpt>
      <trkpt lat="37.0481480" lon="-2.2056440">
        <ele>543.6</ele>
        <time>2019-10-18T11:05:13Z</time>
      </trkpt>
      <trkpt lat="37.0481460" lon="-2.2056430">
        <ele>543.6</ele>
        <time>2019-10-18T11:05:14Z</time>
      </trkpt>
      <trkpt lat="37.0481450" lon="-2.2056420">
        <ele>543.6</ele>
        <time>2019-10-18T11:05:15Z</time>
      </trkpt>
      <trkpt lat="37.0481460" lon="-2.2056420">
        <ele>543.6</ele>
        <time>2019-10-18T11:05:16Z</time>
      </trkpt>
      <trkpt lat="37.0481460" lon="-2.2056420">
        <ele>543.6</ele>
        <time>2019-10-18T11:05:17Z</time>
      </trkpt>
      <trkpt lat="37.0481460" lon="-2.2056420">
        <ele>543.6</ele>
        <time>2019-10-18T11:05:18Z</time>
      </trkpt>
      <trkpt lat="37.0481460" lon="-2.2056420">
        <ele>543.6</ele>
        <time>2019-10-18T11:05:19Z</time>
      </trkpt>
      <trkpt lat="37.0481460" lon="-2.2056420">
        <ele>543.6</ele>
        <time>2019-10-18T11:05:20Z</time>
      </trkpt>
      <trkpt lat="37.0481440" lon="-2.2056410">
        <ele>543.6</ele>
        <time>2019-10-18T11:05:21Z</time>
      </trkpt>
      <trkpt lat="37.0481380" lon="-2.2056390">
        <ele>543.6</ele>
        <time>2019-10-18T11:05:22Z</time>
      </trkpt>
      <trkpt lat="37.0481280" lon="-2.2056320">
        <ele>543.7</ele>
        <time>2019-10-18T11:05:23Z</time>
      </trkpt>
      <trkpt lat="37.0481150" lon="-2.2056230">
        <ele>543.8</ele>
        <time>2019-10-18T11:05:24Z</time>
      </trkpt>
      <trkpt lat="37.0481000" lon="-2.2056130">
        <ele>543.9</ele>
        <time>2019-10-18T11:05:25Z</time>
      </trkpt>
      <trkpt lat="37.0480790" lon="-2.2056020">
        <ele>544.0</ele>
        <time>2019-10-18T11:05:26Z</time>
      </trkpt>
      <trkpt lat="37.0480550" lon="-2.2055910">
        <ele>544.1</ele>
        <time>2019-10-18T11:05:27Z</time>
      </trkpt>
      <trkpt lat="37.0480280" lon="-2.2055790">
        <ele>544.3</ele>
        <time>2019-10-18T11:05:28Z</time>
      </trkpt>
      <trkpt lat="37.0480010" lon="-2.2055660">
        <ele>544.5</ele>
        <time>2019-10-18T11:05:29Z</time>
      </trkpt>
      <trkpt lat="37.0479750" lon="-2.2055520">
        <ele>544.6</ele>
        <time>2019-10-18T11:05:30Z</time>
      </trkpt>
      <trkpt lat="37.0479490" lon="-2.2055360">
        <ele>544.8</ele>
        <time>2019-10-18T11:05:31Z</time>
      </trkpt>
      <trkpt lat="37.0479220" lon="-2.2055190">
        <ele>544.9</ele>
        <time>2019-10-18T11:05:32Z</time>
      </trkpt>
      <trkpt lat="37.0478930" lon="-2.2055020">
        <ele>545.0</ele>
        <time>2019-10-18T11:05:33Z</time>
      </trkpt>
      <trkpt lat="37.0478650" lon="-2.2054850">
        <ele>545.1</ele>
        <time>2019-10-18T11:05:34Z</time>
      </trkpt>
      <trkpt lat="37.0478350" lon="-2.2054680">
        <ele>545.2</ele>
        <time>2019-10-18T11:05:35Z</time>
      </trkpt>
      <trkpt lat="37.0478050" lon="-2.2054510">
        <ele>545.3</ele>
        <time>2019-10-18T11:05:36Z</time>
      </trkpt>
      <trkpt lat="37.0477750" lon="-2.2054340">
        <ele>545.4</ele>
        <time>2019-10-18T11:05:37Z</time>
      </trkpt>
      <trkpt lat="37.0477440" lon="-2.2054150">
        <ele>545.6</ele>
        <time>2019-10-18T11:05:38Z</time>
      </trkpt>
      <trkpt lat="37.0477140" lon="-2.2053960">
        <ele>545.7</ele>
        <time>2019-10-18T11:05:39Z</time>
      </trkpt>
      <trkpt lat="37.0476840" lon="-2.2053770">
        <ele>545.9</ele>
        <time>2019-10-18T11:05:40Z</time>
      </trkpt>
      <trkpt lat="37.0476540" lon="-2.2053580">
        <ele>546.1</ele>
        <time>2019-10-18T11:05:41Z</time>
      </trkpt>
      <trkpt lat="37.0476240" lon="-2.2053410">
        <ele>546.3</ele>
        <time>2019-10-18T11:05:42Z</time>
      </trkpt>
      <trkpt lat="37.0475950" lon="-2.2053230">
        <ele>546.5</ele>
        <time>2019-10-18T11:05:43Z</time>
      </trkpt>
      <trkpt lat="37.0475640" lon="-2.2053030">
        <ele>546.6</ele>
        <time>2019-10-18T11:05:44Z</time>
      </trkpt>
      <trkpt lat="37.0475340" lon="-2.2052820">
        <ele>546.8</ele>
        <time>2019-10-18T11:05:45Z</time>
      </trkpt>
      <trkpt lat="37.0475020" lon="-2.2052580">
        <ele>546.9</ele>
        <time>2019-10-18T11:05:46Z</time>
      </trkpt>
      <trkpt lat="37.0474700" lon="-2.2052320">
        <ele>547.0</ele>
        <time>2019-10-18T11:05:47Z</time>
      </trkpt>
      <trkpt lat="37.0474360" lon="-2.2052030">
        <ele>547.1</ele>
        <time>2019-10-18T11:05:48Z</time>
      </trkpt>
      <trkpt lat="37.0474000" lon="-2.2051690">
        <ele>547.1</ele>
        <time>2019-10-18T11:05:49Z</time>
      </trkpt>
      <trkpt lat="37.0473620" lon="-2.2051320">
        <ele>547.1</ele>
        <time>2019-10-18T11:05:50Z</time>
      </trkpt>
      <trkpt lat="37.0473220" lon="-2.2050940">
        <ele>547.2</ele>
        <time>2019-10-18T11:05:51Z</time>
      </trkpt>
      <trkpt lat="37.0472790" lon="-2.2050530">
        <ele>547.1</ele>
        <time>2019-10-18T11:05:52Z</time>
      </trkpt>
      <trkpt lat="37.0472350" lon="-2.2050100">
        <ele>547.0</ele>
        <time>2019-10-18T11:05:53Z</time>
      </trkpt>
      <trkpt lat="37.0471890" lon="-2.2049650">
        <ele>546.8</ele>
        <time>2019-10-18T11:05:54Z</time>
      </trkpt>
      <trkpt lat="37.0471400" lon="-2.2049210">
        <ele>546.7</ele>
        <time>2019-10-18T11:05:55Z</time>
      </trkpt>
      <trkpt lat="37.0470900" lon="-2.2048790">
        <ele>546.5</ele>
        <time>2019-10-18T11:05:56Z</time>
      </trkpt>
      <trkpt lat="37.0470390" lon="-2.2048340">
        <ele>546.4</ele>
        <time>2019-10-18T11:05:57Z</time>
      </trkpt>
      <trkpt lat="37.0469870" lon="-2.2047870">
        <ele>546.1</ele>
        <time>2019-10-18T11:05:58Z</time>
      </trkpt>
      <trkpt lat="37.0469320" lon="-2.2047360">
        <ele>545.8</ele>
        <time>2019-10-18T11:05:59Z</time>
      </trkpt>
      <trkpt lat="37.0468770" lon="-2.2046860">
        <ele>545.4</ele>
        <time>2019-10-18T11:06:00Z</time>
      </trkpt>
      <trkpt lat="37.0468200" lon="-2.2046350">
        <ele>545.1</ele>
        <time>2019-10-18T11:06:01Z</time>
      </trkpt>
      <trkpt lat="37.0467630" lon="-2.2045840">
        <ele>544.7</ele>
        <time>2019-10-18T11:06:02Z</time>
      </trkpt>
      <trkpt lat="37.0467050" lon="-2.2045330">
        <ele>544.3</ele>
        <time>2019-10-18T11:06:03Z</time>
      </trkpt>
      <trkpt lat="37.0466470" lon="-2.2044800">
        <ele>543.9</ele>
        <time>2019-10-18T11:06:04Z</time>
      </trkpt>
      <trkpt lat="37.0465880" lon="-2.2044250">
        <ele>543.6</ele>
        <time>2019-10-18T11:06:05Z</time>
      </trkpt>
      <trkpt lat="37.0465270" lon="-2.2043700">
        <ele>543.1</ele>
        <time>2019-10-18T11:06:06Z</time>
      </trkpt>
      <trkpt lat="37.0464640" lon="-2.2043140">
        <ele>542.7</ele>
        <time>2019-10-18T11:06:07Z</time>
      </trkpt>
      <trkpt lat="37.0463970" lon="-2.2042580">
        <ele>542.1</ele>
        <time>2019-10-18T11:06:08Z</time>
      </trkpt>
      <trkpt lat="37.0463280" lon="-2.2042010">
        <ele>541.6</ele>
        <time>2019-10-18T11:06:09Z</time>
      </trkpt>
      <trkpt lat="37.0462570" lon="-2.2041430">
        <ele>541.0</ele>
        <time>2019-10-18T11:06:10Z</time>
      </trkpt>
      <trkpt lat="37.0461820" lon="-2.2040850">
        <ele>540.5</ele>
        <time>2019-10-18T11:06:11Z</time>
      </trkpt>
      <trkpt lat="37.0461060" lon="-2.2040290">
        <ele>539.9</ele>
        <time>2019-10-18T11:06:12Z</time>
      </trkpt>
      <trkpt lat="37.0460280" lon="-2.2039710">
        <ele>539.3</ele>
        <time>2019-10-18T11:06:13Z</time>
      </trkpt>
      <trkpt lat="37.0459500" lon="-2.2039110">
        <ele>538.8</ele>
        <time>2019-10-18T11:06:14Z</time>
      </trkpt>
      <trkpt lat="37.0458710" lon="-2.2038500">
        <ele>538.3</ele>
        <time>2019-10-18T11:06:15Z</time>
      </trkpt>
      <trkpt lat="37.0457900" lon="-2.2037900">
        <ele>537.7</ele>
        <time>2019-10-18T11:06:16Z</time>
      </trkpt>
      <trkpt lat="37.0457070" lon="-2.2037290">
        <ele>537.1</ele>
        <time>2019-10-18T11:06:17Z</time>
      </trkpt>
      <trkpt lat="37.0456240" lon="-2.2036660">
        <ele>536.4</ele>
        <time>2019-10-18T11:06:18Z</time>
      </trkpt>
      <trkpt lat="37.0455400" lon="-2.2036010">
        <ele>535.7</ele>
        <time>2019-10-18T11:06:19Z</time>
      </trkpt>
      <trkpt lat="37.0454530" lon="-2.2035330">
        <ele>534.9</ele>
        <time>2019-10-18T11:06:20Z</time>
      </trkpt>
      <trkpt lat="37.0453660" lon="-2.2034660">
        <ele>534.1</ele>
        <time>2019-10-18T11:06:21Z</time>
      </trkpt>
      <trkpt lat="37.0452770" lon="-2.2033980">
        <ele>533.3</ele>
        <time>2019-10-18T11:06:22Z</time>
      </trkpt>
      <trkpt lat="37.0451890" lon="-2.2033300">
        <ele>532.5</ele>
        <time>2019-10-18T11:06:23Z</time>
      </trkpt>
      <trkpt lat="37.0451000" lon="-2.2032630">
        <ele>531.7</ele>
        <time>2019-10-18T11:06:24Z</time>
      </trkpt>
      <trkpt lat="37.0450110" lon="-2.2031980">
        <ele>530.9</ele>
        <time>2019-10-18T11:06:25Z</time>
      </trkpt>
      <trkpt lat="37.0449220" lon="-2.2031330">
        <ele>530.1</ele>
        <time>2019-10-18T11:06:26Z</time>
      </trkpt>
      <trkpt lat="37.0448320" lon="-2.2030690">
        <ele>529.2</ele>
        <time>2019-10-18T11:06:27Z</time>
      </trkpt>
      <trkpt lat="37.0447430" lon="-2.2030040">
        <ele>528.5</ele>
        <time>2019-10-18T11:06:28Z</time>
      </trkpt>
      <trkpt lat="37.0446530" lon="-2.2029400">
        <ele>527.7</ele>
        <time>2019-10-18T11:06:29Z</time>
      </trkpt>
      <trkpt lat="37.0445620" lon="-2.2028780">
        <ele>527.0</ele>
        <time>2019-10-18T11:06:30Z</time>
      </trkpt>
      <trkpt lat="37.0444720" lon="-2.2028190">
        <ele>526.3</ele>
        <time>2019-10-18T11:06:31Z</time>
      </trkpt>
      <trkpt lat="37.0443830" lon="-2.2027630">
        <ele>525.7</ele>
        <time>2019-10-18T11:06:32Z</time>
      </trkpt>
      <trkpt lat="37.0442990" lon="-2.2027070">
        <ele>525.2</ele>
        <time>2019-10-18T11:06:33Z</time>
      </trkpt>
      <trkpt lat="37.0442170" lon="-2.2026530">
        <ele>524.7</ele>
        <time>2019-10-18T11:06:34Z</time>
      </trkpt>
      <trkpt lat="37.0441370" lon="-2.2025990">
        <ele>524.4</ele>
        <time>2019-10-18T11:06:35Z</time>
      </trkpt>
      <trkpt lat="37.0440610" lon="-2.2025470">
        <ele>523.6</ele>
        <time>2019-10-18T11:06:36Z</time>
      </trkpt>
      <trkpt lat="37.0439860" lon="-2.2024960">
        <ele>523.3</ele>
        <time>2019-10-18T11:06:37Z</time>
      </trkpt>
      <trkpt lat="37.0439140" lon="-2.2024480">
        <ele>523.1</ele>
        <time>2019-10-18T11:06:38Z</time>
      </trkpt>
      <trkpt lat="37.0438450" lon="-2.2024020">
        <ele>522.9</ele>
        <time>2019-10-18T11:06:39Z</time>
      </trkpt>
      <trkpt lat="37.0437760" lon="-2.2023590">
        <ele>522.9</ele>
        <time>2019-10-18T11:06:40Z</time>
      </trkpt>
      <trkpt lat="37.0437080" lon="-2.2023220">
        <ele>522.9</ele>
        <time>2019-10-18T11:06:41Z</time>
      </trkpt>
      <trkpt lat="37.0436410" lon="-2.2022890">
        <ele>523.0</ele>
        <time>2019-10-18T11:06:42Z</time>
      </trkpt>
      <trkpt lat="37.0435770" lon="-2.2022600">
        <ele>523.0</ele>
        <time>2019-10-18T11:06:43Z</time>
      </trkpt>
      <trkpt lat="37.0435150" lon="-2.2022350">
        <ele>523.0</ele>
        <time>2019-10-18T11:06:44Z</time>
      </trkpt>
      <trkpt lat="37.0434540" lon="-2.2022170">
        <ele>523.1</ele>
        <time>2019-10-18T11:06:45Z</time>
      </trkpt>
      <trkpt lat="37.0433940" lon="-2.2022060">
        <ele>523.3</ele>
        <time>2019-10-18T11:06:46Z</time>
      </trkpt>
      <trkpt lat="37.0433390" lon="-2.2021970">
        <ele>523.5</ele>
        <time>2019-10-18T11:06:47Z</time>
      </trkpt>
      <trkpt lat="37.0432890" lon="-2.2021890">
        <ele>523.9</ele>
        <time>2019-10-18T11:06:48Z</time>
      </trkpt>
      <trkpt lat="37.0432440" lon="-2.2021850">
        <ele>524.3</ele>
        <time>2019-10-18T11:06:49Z</time>
      </trkpt>
      <trkpt lat="37.0432020" lon="-2.2021800">
        <ele>524.6</ele>
        <time>2019-10-18T11:06:50Z</time>
      </trkpt>
      <trkpt lat="37.0431630" lon="-2.2021770">
        <ele>524.8</ele>
        <time>2019-10-18T11:06:51Z</time>
      </trkpt>
      <trkpt lat="37.0431260" lon="-2.2021740">
        <ele>525.1</ele>
        <time>2019-10-18T11:06:52Z</time>
      </trkpt>
      <trkpt lat="37.0430910" lon="-2.2021730">
        <ele>525.3</ele>
        <time>2019-10-18T11:06:53Z</time>
      </trkpt>
      <trkpt lat="37.0430560" lon="-2.2021720">
        <ele>525.5</ele>
        <time>2019-10-18T11:06:54Z</time>
      </trkpt>
      <trkpt lat="37.0430210" lon="-2.2021720">
        <ele>525.7</ele>
        <time>2019-10-18T11:06:55Z</time>
      </trkpt>
      <trkpt lat="37.0429860" lon="-2.2021730">
        <ele>525.9</ele>
        <time>2019-10-18T11:06:56Z</time>
      </trkpt>
      <trkpt lat="37.0429520" lon="-2.2021740">
        <ele>526.1</ele>
        <time>2019-10-18T11:06:57Z</time>
      </trkpt>
      <trkpt lat="37.0429180" lon="-2.2021740">
        <ele>526.2</ele>
        <time>2019-10-18T11:06:58Z</time>
      </trkpt>
      <trkpt lat="37.0428850" lon="-2.2021740">
        <ele>526.4</ele>
        <time>2019-10-18T11:06:59Z</time>
      </trkpt>
      <trkpt lat="37.0428520" lon="-2.2021760">
        <ele>526.6</ele>
        <time>2019-10-18T11:07:00Z</time>
      </trkpt>
      <trkpt lat="37.0428180" lon="-2.2021780">
        <ele>526.8</ele>
        <time>2019-10-18T11:07:01Z</time>
      </trkpt>
      <trkpt lat="37.0427860" lon="-2.2021800">
        <ele>527.0</ele>
        <time>2019-10-18T11:07:02Z</time>
      </trkpt>
      <trkpt lat="37.0427540" lon="-2.2021810">
        <ele>527.2</ele>
        <time>2019-10-18T11:07:03Z</time>
      </trkpt>
      <trkpt lat="37.0427230" lon="-2.2021830">
        <ele>527.4</ele>
        <time>2019-10-18T11:07:04Z</time>
      </trkpt>
      <trkpt lat="37.0426930" lon="-2.2021840">
        <ele>527.6</ele>
        <time>2019-10-18T11:07:05Z</time>
      </trkpt>
      <trkpt lat="37.0426640" lon="-2.2021800">
        <ele>527.8</ele>
        <time>2019-10-18T11:07:06Z</time>
      </trkpt>
      <trkpt lat="37.0426350" lon="-2.2021690">
        <ele>528.0</ele>
        <time>2019-10-18T11:07:07Z</time>
      </trkpt>
      <trkpt lat="37.0426070" lon="-2.2021520">
        <ele>528.1</ele>
        <time>2019-10-18T11:07:08Z</time>
      </trkpt>
      <trkpt lat="37.0425810" lon="-2.2021290">
        <ele>528.3</ele>
        <time>2019-10-18T11:07:09Z</time>
      </trkpt>
      <trkpt lat="37.0425580" lon="-2.2021010">
        <ele>528.5</ele>
        <time>2019-10-18T11:07:10Z</time>
      </trkpt>
      <trkpt lat="37.0425370" lon="-2.2020690">
        <ele>528.6</ele>
        <time>2019-10-18T11:07:11Z</time>
      </trkpt>
      <trkpt lat="37.0425170" lon="-2.2020340">
        <ele>528.8</ele>
        <time>2019-10-18T11:07:12Z</time>
      </trkpt>
      <trkpt lat="37.0424960" lon="-2.2019990">
        <ele>529.0</ele>
        <time>2019-10-18T11:07:13Z</time>
      </trkpt>
      <trkpt lat="37.0424750" lon="-2.2019640">
        <ele>529.1</ele>
        <time>2019-10-18T11:07:14Z</time>
      </trkpt>
      <trkpt lat="37.0424540" lon="-2.2019300">
        <ele>529.3</ele>
        <time>2019-10-18T11:07:15Z</time>
      </trkpt>
      <trkpt lat="37.0424350" lon="-2.2018940">
        <ele>529.6</ele>
        <time>2019-10-18T11:07:16Z</time>
      </trkpt>
      <trkpt lat="37.0424160" lon="-2.2018570">
        <ele>529.8</ele>
        <time>2019-10-18T11:07:17Z</time>
      </trkpt>
      <trkpt lat="37.0423960" lon="-2.2018210">
        <ele>530.0</ele>
        <time>2019-10-18T11:07:18Z</time>
      </trkpt>
      <trkpt lat="37.0423770" lon="-2.2017870">
        <ele>530.2</ele>
        <time>2019-10-18T11:07:19Z</time>
      </trkpt>
      <trkpt lat="37.0423580" lon="-2.2017560">
        <ele>530.4</ele>
        <time>2019-10-18T11:07:20Z</time>
      </trkpt>
      <trkpt lat="37.0423400" lon="-2.2017260">
        <ele>530.6</ele>
        <time>2019-10-18T11:07:21Z</time>
      </trkpt>
      <trkpt lat="37.0423210" lon="-2.2016980">
        <ele>530.8</ele>
        <time>2019-10-18T11:07:22Z</time>
      </trkpt>
      <trkpt lat="37.0423020" lon="-2.2016720">
        <ele>531.0</ele>
        <time>2019-10-18T11:07:23Z</time>
      </trkpt>
      <trkpt lat="37.0422840" lon="-2.2016460">
        <ele>531.2</ele>
        <time>2019-10-18T11:07:24Z</time>
      </trkpt>
      <trkpt lat="37.0422660" lon="-2.2016220">
        <ele>531.4</ele>
        <time>2019-10-18T11:07:25Z</time>
      </trkpt>
      <trkpt lat="37.0422490" lon="-2.2016010">
        <ele>531.6</ele>
        <time>2019-10-18T11:07:26Z</time>
      </trkpt>
      <trkpt lat="37.0422320" lon="-2.2015840">
        <ele>532.0</ele>
        <time>2019-10-18T11:07:27Z</time>
      </trkpt>
      <trkpt lat="37.0422190" lon="-2.2015700">
        <ele>532.3</ele>
        <time>2019-10-18T11:07:28Z</time>
      </trkpt>
      <trkpt lat="37.0422090" lon="-2.2015590">
        <ele>532.5</ele>
        <time>2019-10-18T11:07:29Z</time>
      </trkpt>
      <trkpt lat="37.0422020" lon="-2.2015510">
        <ele>532.7</ele>
        <time>2019-10-18T11:07:30Z</time>
      </trkpt>
      <trkpt lat="37.0421970" lon="-2.2015480">
        <ele>532.8</ele>
        <time>2019-10-18T11:07:31Z</time>
      </trkpt>
      <trkpt lat="37.0421960" lon="-2.2015470">
        <ele>532.8</ele>
        <time>2019-10-18T11:07:32Z</time>
      </trkpt>
      <trkpt lat="37.0421950" lon="-2.2015490">
        <ele>532.8</ele>
        <time>2019-10-18T11:07:33Z</time>
      </trkpt>
      <trkpt lat="37.0421950" lon="-2.2015500">
        <ele>532.8</ele>
        <time>2019-10-18T11:07:34Z</time>
      </trkpt>
      <trkpt lat="37.0421940" lon="-2.2015510">
        <ele>532.9</ele>
        <time>2019-10-18T11:07:35Z</time>
      </trkpt>
      <trkpt lat="37.0421940" lon="-2.2015510">
        <ele>532.9</ele>
        <time>2019-10-18T11:07:36Z</time>
      </trkpt>
      <trkpt lat="37.0421930" lon="-2.2015510">
        <ele>532.9</ele>
        <time>2019-10-18T11:07:37Z</time>
      </trkpt>
      <trkpt lat="37.0421890" lon="-2.2015510">
        <ele>532.9</ele>
        <time>2019-10-18T11:07:38Z</time>
      </trkpt>
      <trkpt lat="37.0421800" lon="-2.2015520">
        <ele>533.1</ele>
        <time>2019-10-18T11:07:39Z</time>
      </trkpt>
      <trkpt lat="37.0421690" lon="-2.2015570">
        <ele>533.3</ele>
        <time>2019-10-18T11:07:40Z</time>
      </trkpt>
      <trkpt lat="37.0421590" lon="-2.2015670">
        <ele>533.4</ele>
        <time>2019-10-18T11:07:41Z</time>
      </trkpt>
      <trkpt lat="37.0421500" lon="-2.2015790">
        <ele>533.6</ele>
        <time>2019-10-18T11:07:42Z</time>
      </trkpt>
      <trkpt lat="37.0421390" lon="-2.2015880">
        <ele>533.8</ele>
        <time>2019-10-18T11:07:43Z</time>
      </trkpt>
      <trkpt lat="37.0421260" lon="-2.2015980">
        <ele>534.0</ele>
        <time>2019-10-18T11:07:44Z</time>
      </trkpt>
      <trkpt lat="37.0421120" lon="-2.2016070">
        <ele>534.2</ele>
        <time>2019-10-18T11:07:45Z</time>
      </trkpt>
      <trkpt lat="37.0420970" lon="-2.2016160">
        <ele>534.4</ele>
        <time>2019-10-18T11:07:46Z</time>
      </trkpt>
      <trkpt lat="37.0420790" lon="-2.2016230">
        <ele>534.6</ele>
        <time>2019-10-18T11:07:47Z</time>
      </trkpt>
      <trkpt lat="37.0420600" lon="-2.2016290">
        <ele>534.9</ele>
        <time>2019-10-18T11:07:48Z</time>
      </trkpt>
      <trkpt lat="37.0420400" lon="-2.2016340">
        <ele>535.1</ele>
        <time>2019-10-18T11:07:49Z</time>
      </trkpt>
      <trkpt lat="37.0420200" lon="-2.2016370">
        <ele>535.4</ele>
        <time>2019-10-18T11:07:50Z</time>
      </trkpt>
      <trkpt lat="37.0419990" lon="-2.2016380">
        <ele>535.6</ele>
        <time>2019-10-18T11:07:51Z</time>
      </trkpt>
      <trkpt lat="37.0419780" lon="-2.2016360">
        <ele>535.8</ele>
        <time>2019-10-18T11:07:52Z</time>
      </trkpt>
      <trkpt lat="37.0419560" lon="-2.2016310">
        <ele>536.0</ele>
        <time>2019-10-18T11:07:53Z</time>
      </trkpt>
      <trkpt lat="37.0419330" lon="-2.2016220">
        <ele>536.2</ele>
        <time>2019-10-18T11:07:54Z</time>
      </trkpt>
      <trkpt lat="37.0419120" lon="-2.2016100">
        <ele>536.4</ele>
        <time>2019-10-18T11:07:55Z</time>
      </trkpt>
      <trkpt lat="37.0418900" lon="-2.2015980">
        <ele>536.6</ele>
        <time>2019-10-18T11:07:56Z</time>
      </trkpt>
      <trkpt lat="37.0418690" lon="-2.2015860">
        <ele>536.8</ele>
        <time>2019-10-18T11:07:57Z</time>
      </trkpt>
      <trkpt lat="37.0418480" lon="-2.2015740">
        <ele>536.9</ele>
        <time>2019-10-18T11:07:58Z</time>
      </trkpt>
      <trkpt lat="37.0418280" lon="-2.2015590">
        <ele>537.1</ele>
        <time>2019-10-18T11:07:59Z</time>
      </trkpt>
      <trkpt lat="37.0418070" lon="-2.2015460">
        <ele>537.3</ele>
        <time>2019-10-18T11:08:00Z</time>
      </trkpt>
      <trkpt lat="37.0417860" lon="-2.2015320">
        <ele>537.5</ele>
        <time>2019-10-18T11:08:01Z</time>
      </trkpt>
      <trkpt lat="37.0417650" lon="-2.2015180">
        <ele>537.7</ele>
        <time>2019-10-18T11:08:02Z</time>
      </trkpt>
      <trkpt lat="37.0417450" lon="-2.2015040">
        <ele>537.8</ele>
        <time>2019-10-18T11:08:03Z</time>
      </trkpt>
      <trkpt lat="37.0417270" lon="-2.2014880">
        <ele>538.0</ele>
        <time>2019-10-18T11:08:04Z</time>
      </trkpt>
      <trkpt lat="37.0417100" lon="-2.2014730">
        <ele>538.1</ele>
        <time>2019-10-18T11:08:05Z</time>
      </trkpt>
      <trkpt lat="37.0416930" lon="-2.2014560">
        <ele>538.3</ele>
        <time>2019-10-18T11:08:06Z</time>
      </trkpt>
      <trkpt lat="37.0416770" lon="-2.2014400">
        <ele>538.4</ele>
        <time>2019-10-18T11:08:07Z</time>
      </trkpt>
      <trkpt lat="37.0416590" lon="-2.2014240">
        <ele>538.6</ele>
        <time>2019-10-18T11:08:08Z</time>
      </trkpt>
      <trkpt lat="37.0416420" lon="-2.2014080">
        <ele>538.7</ele>
        <time>2019-10-18T11:08:09Z</time>
      </trkpt>
      <trkpt lat="37.0416240" lon="-2.2013930">
        <ele>538.9</ele>
        <time>2019-10-18T11:08:10Z</time>
      </trkpt>
      <trkpt lat="37.0416060" lon="-2.2013790">
        <ele>539.0</ele>
        <time>2019-10-18T11:08:11Z</time>
      </trkpt>
      <trkpt lat="37.0415890" lon="-2.2013650">
        <ele>539.3</ele>
        <time>2019-10-18T11:08:12Z</time>
      </trkpt>
      <trkpt lat="37.0415720" lon="-2.2013510">
        <ele>539.5</ele>
        <time>2019-10-18T11:08:13Z</time>
      </trkpt>
      <trkpt lat="37.0415570" lon="-2.2013360">
        <ele>539.7</ele>
        <time>2019-10-18T11:08:14Z</time>
      </trkpt>
      <trkpt lat="37.0415430" lon="-2.2013160">
        <ele>539.9</ele>
        <time>2019-10-18T11:08:15Z</time>
      </trkpt>
      <trkpt lat="37.0415280" lon="-2.2012960">
        <ele>540.2</ele>
        <time>2019-10-18T11:08:16Z</time>
      </trkpt>
      <trkpt lat="37.0415130" lon="-2.2012760">
        <ele>540.4</ele>
        <time>2019-10-18T11:08:17Z</time>
      </trkpt>
      <trkpt lat="37.0414960" lon="-2.2012610">
        <ele>540.5</ele>
        <time>2019-10-18T11:08:18Z</time>
      </trkpt>
      <trkpt lat="37.0414780" lon="-2.2012440">
        <ele>540.7</ele>
        <time>2019-10-18T11:08:19Z</time>
      </trkpt>
      <trkpt lat="37.0414620" lon="-2.2012250">
        <ele>540.8</ele>
        <time>2019-10-18T11:08:20Z</time>
      </trkpt>
      <trkpt lat="37.0414490" lon="-2.2011990">
        <ele>541.0</ele>
        <time>2019-10-18T11:08:21Z</time>
      </trkpt>
      <trkpt lat="37.0414390" lon="-2.2011720">
        <ele>541.1</ele>
        <time>2019-10-18T11:08:22Z</time>
      </trkpt>
      <trkpt lat="37.0414280" lon="-2.2011440">
        <ele>541.3</ele>
        <time>2019-10-18T11:08:23Z</time>
      </trkpt>
      <trkpt lat="37.0414170" lon="-2.2011180">
        <ele>541.5</ele>
        <time>2019-10-18T11:08:24Z</time>
      </trkpt>
      <trkpt lat="37.0414060" lon="-2.2010910">
        <ele>541.8</ele>
        <time>2019-10-18T11:08:25Z</time>
      </trkpt>
      <trkpt lat="37.0413930" lon="-2.2010660">
        <ele>541.9</ele>
        <time>2019-10-18T11:08:26Z</time>
      </trkpt>
      <trkpt lat="37.0413810" lon="-2.2010410">
        <ele>542.0</ele>
        <time>2019-10-18T11:08:27Z</time>
      </trkpt>
      <trkpt lat="37.0413690" lon="-2.2010160">
        <ele>542.2</ele>
        <time>2019-10-18T11:08:28Z</time>
      </trkpt>
      <trkpt lat="37.0413580" lon="-2.2009920">
        <ele>542.3</ele>
        <time>2019-10-18T11:08:29Z</time>
      </trkpt>
      <trkpt lat="37.0413470" lon="-2.2009680">
        <ele>542.4</ele>
        <time>2019-10-18T11:08:30Z</time>
      </trkpt>
      <trkpt lat="37.0413350" lon="-2.2009450">
        <ele>542.5</ele>
        <time>2019-10-18T11:08:31Z</time>
      </trkpt>
      <trkpt lat="37.0413250" lon="-2.2009220">
        <ele>542.6</ele>
        <time>2019-10-18T11:08:32Z</time>
      </trkpt>
      <trkpt lat="37.0413150" lon="-2.2008990">
        <ele>542.7</ele>
        <time>2019-10-18T11:08:33Z</time>
      </trkpt>
      <trkpt lat="37.0413060" lon="-2.2008750">
        <ele>542.9</ele>
        <time>2019-10-18T11:08:34Z</time>
      </trkpt>
      <trkpt lat="37.0412950" lon="-2.2008510">
        <ele>543.1</ele>
        <time>2019-10-18T11:08:35Z</time>
      </trkpt>
      <trkpt lat="37.0412830" lon="-2.2008290">
        <ele>543.2</ele>
        <time>2019-10-18T11:08:36Z</time>
      </trkpt>
      <trkpt lat="37.0412710" lon="-2.2008060">
        <ele>543.4</ele>
        <time>2019-10-18T11:08:37Z</time>
      </trkpt>
      <trkpt lat="37.0412580" lon="-2.2007840">
        <ele>543.5</ele>
        <time>2019-10-18T11:08:38Z</time>
      </trkpt>
      <trkpt lat="37.0412450" lon="-2.2007620">
        <ele>543.6</ele>
        <time>2019-10-18T11:08:39Z</time>
      </trkpt>
      <trkpt lat="37.0412310" lon="-2.2007400">
        <ele>543.6</ele>
        <time>2019-10-18T11:08:40Z</time>
      </trkpt>
      <trkpt lat="37.0412180" lon="-2.2007180">
        <ele>543.7</ele>
        <time>2019-10-18T11:08:41Z</time>
      </trkpt>
      <trkpt lat="37.0412040" lon="-2.2006960">
        <ele>543.7</ele>
        <time>2019-10-18T11:08:42Z</time>
      </trkpt>
      <trkpt lat="37.0411920" lon="-2.2006750">
        <ele>543.8</ele>
        <time>2019-10-18T11:08:43Z</time>
      </trkpt>
      <trkpt lat="37.0411770" lon="-2.2006600">
        <ele>543.9</ele>
        <time>2019-10-18T11:08:44Z</time>
      </trkpt>
      <trkpt lat="37.0411580" lon="-2.2006490">
        <ele>543.9</ele>
        <time>2019-10-18T11:08:45Z</time>
      </trkpt>
      <trkpt lat="37.0411380" lon="-2.2006410">
        <ele>544.0</ele>
        <time>2019-10-18T11:08:46Z</time>
      </trkpt>
      <trkpt lat="37.0411200" lon="-2.2006340">
        <ele>544.0</ele>
        <time>2019-10-18T11:08:47Z</time>
      </trkpt>
      <trkpt lat="37.0411020" lon="-2.2006280">
        <ele>544.3</ele>
        <time>2019-10-18T11:08:48Z</time>
      </trkpt>
      <trkpt lat="37.0410850" lon="-2.2006210">
        <ele>544.4</ele>
        <time>2019-10-18T11:08:49Z</time>
      </trkpt>
      <trkpt lat="37.0410680" lon="-2.2006140">
        <ele>544.6</ele>
        <time>2019-10-18T11:08:50Z</time>
      </trkpt>
      <trkpt lat="37.0410500" lon="-2.2006060">
        <ele>544.8</ele>
        <time>2019-10-18T11:08:51Z</time>
      </trkpt>
      <trkpt lat="37.0410320" lon="-2.2005980">
        <ele>545.0</ele>
        <time>2019-10-18T11:08:52Z</time>
      </trkpt>
      <trkpt lat="37.0410140" lon="-2.2005910">
        <ele>545.1</ele>
        <time>2019-10-18T11:08:53Z</time>
      </trkpt>
      <trkpt lat="37.0409940" lon="-2.2005880">
        <ele>545.3</ele>
        <time>2019-10-18T11:08:54Z</time>
      </trkpt>
      <trkpt lat="37.0409720" lon="-2.2005920">
        <ele>545.6</ele>
        <time>2019-10-18T11:08:55Z</time>
      </trkpt>
      <trkpt lat="37.0409500" lon="-2.2006000">
        <ele>545.8</ele>
        <time>2019-10-18T11:08:56Z</time>
      </trkpt>
      <trkpt lat="37.0409290" lon="-2.2006120">
        <ele>546.0</ele>
        <time>2019-10-18T11:08:57Z</time>
      </trkpt>
      <trkpt lat="37.0409110" lon="-2.2006250">
        <ele>546.5</ele>
        <time>2019-10-18T11:08:58Z</time>
      </trkpt>
      <trkpt lat="37.0408940" lon="-2.2006390">
        <ele>546.7</ele>
        <time>2019-10-18T11:08:59Z</time>
      </trkpt>
      <trkpt lat="37.0408780" lon="-2.2006510">
        <ele>546.9</ele>
        <time>2019-10-18T11:09:00Z</time>
      </trkpt>
      <trkpt lat="37.0408660" lon="-2.2006630">
        <ele>547.1</ele>
        <time>2019-10-18T11:09:01Z</time>
      </trkpt>
      <trkpt lat="37.0408560" lon="-2.2006750">
        <ele>547.3</ele>
        <time>2019-10-18T11:09:02Z</time>
      </trkpt>
      <trkpt lat="37.0408490" lon="-2.2006890">
        <ele>547.5</ele>
        <time>2019-10-18T11:09:03Z</time>
      </trkpt>
      <trkpt lat="37.0408420" lon="-2.2007020">
        <ele>547.6</ele>
        <time>2019-10-18T11:09:04Z</time>
      </trkpt>
      <trkpt lat="37.0408350" lon="-2.2007160">
        <ele>547.8</ele>
        <time>2019-10-18T11:09:05Z</time>
      </trkpt>
      <trkpt lat="37.0408280" lon="-2.2007290">
        <ele>548.0</ele>
        <time>2019-10-18T11:09:06Z</time>
      </trkpt>
      <trkpt lat="37.0408220" lon="-2.2007410">
        <ele>548.1</ele>
        <time>2019-10-18T11:09:07Z</time>
      </trkpt>
      <trkpt lat="37.0408170" lon="-2.2007530">
        <ele>548.3</ele>
        <time>2019-10-18T11:09:08Z</time>
      </trkpt>
      <trkpt lat="37.0408120" lon="-2.2007680">
        <ele>548.4</ele>
        <time>2019-10-18T11:09:09Z</time>
      </trkpt>
      <trkpt lat="37.0408070" lon="-2.2007840">
        <ele>548.6</ele>
        <time>2019-10-18T11:09:10Z</time>
      </trkpt>
      <trkpt lat="37.0408010" lon="-2.2008010">
        <ele>548.9</ele>
        <time>2019-10-18T11:09:11Z</time>
      </trkpt>
      <trkpt lat="37.0407950" lon="-2.2008110">
        <ele>548.9</ele>
        <time>2019-10-18T11:09:12Z</time>
      </trkpt>
      <trkpt lat="37.0407900" lon="-2.2008180">
        <ele>548.9</ele>
        <time>2019-10-18T11:09:13Z</time>
      </trkpt>
      <trkpt lat="37.0407870" lon="-2.2008220">
        <ele>548.9</ele>
        <time>2019-10-18T11:09:14Z</time>
      </trkpt>
      <trkpt lat="37.0407850" lon="-2.2008290">
        <ele>548.9</ele>
        <time>2019-10-18T11:09:15Z</time>
      </trkpt>
      <trkpt lat="37.0407840" lon="-2.2008360">
        <ele>548.9</ele>
        <time>2019-10-18T11:09:16Z</time>
      </trkpt>
      <trkpt lat="37.0407840" lon="-2.2008410">
        <ele>548.9</ele>
        <time>2019-10-18T11:09:17Z</time>
      </trkpt>
      <trkpt lat="37.0407830" lon="-2.2008430">
        <ele>548.9</ele>
        <time>2019-10-18T11:09:18Z</time>
      </trkpt>
      <trkpt lat="37.0407820" lon="-2.2008440">
        <ele>548.9</ele>
        <time>2019-10-18T11:09:19Z</time>
      </trkpt>
      <trkpt lat="37.0407800" lon="-2.2008440">
        <ele>548.9</ele>
        <time>2019-10-18T11:09:20Z</time>
      </trkpt>
      <trkpt lat="37.0407760" lon="-2.2008440">
        <ele>548.9</ele>
        <time>2019-10-18T11:09:21Z</time>
      </trkpt>
      <trkpt lat="37.0407740" lon="-2.2008440">
        <ele>548.9</ele>
        <time>2019-10-18T11:09:22Z</time>
      </trkpt>
      <trkpt lat="37.0407720" lon="-2.2008440">
        <ele>548.9</ele>
        <time>2019-10-18T11:09:23Z</time>
      </trkpt>
      <trkpt lat="37.0407730" lon="-2.2008430">
        <ele>548.9</ele>
        <time>2019-10-18T11:09:24Z</time>
      </trkpt>
      <trkpt lat="37.0407730" lon="-2.2008430">
        <ele>548.9</ele>
        <time>2019-10-18T11:09:25Z</time>
      </trkpt>
      <trkpt lat="37.0407740" lon="-2.2008430">
        <ele>548.9</ele>
        <time>2019-10-18T11:09:26Z</time>
      </trkpt>
      <trkpt lat="37.0407730" lon="-2.2008430">
        <ele>548.9</ele>
        <time>2019-10-18T11:09:27Z</time>
      </trkpt>
      <trkpt lat="37.0407740" lon="-2.2008430">
        <ele>548.9</ele>
        <time>2019-10-18T11:09:28Z</time>
      </trkpt>
      <trkpt lat="37.0407750" lon="-2.2008430">
        <ele>548.9</ele>
        <time>2019-10-18T11:09:29Z</time>
      </trkpt>
      <trkpt lat="37.0407770" lon="-2.2008430">
        <ele>548.9</ele>
        <time>2019-10-18T11:09:30Z</time>
      </trkpt>
      <trkpt lat="37.0407790" lon="-2.2008430">
        <ele>548.9</ele>
        <time>2019-10-18T11:09:31Z</time>
      </trkpt>
      <trkpt lat="37.0407800" lon="-2.2008430">
        <ele>548.9</ele>
        <time>2019-10-18T11:09:32Z</time>
      </trkpt>
      <trkpt lat="37.0407820" lon="-2.2008430">
        <ele>548.9</ele>
        <time>2019-10-18T11:09:33Z</time>
      </trkpt>
      <trkpt lat="37.0407830" lon="-2.2008430">
        <ele>548.9</ele>
        <time>2019-10-18T11:09:34Z</time>
      </trkpt>
      <trkpt lat="37.0407850" lon="-2.2008430">
        <ele>548.9</ele>
        <time>2019-10-18T11:09:35Z</time>
      </trkpt>
      <trkpt lat="37.0407870" lon="-2.2008430">
        <ele>548.9</ele>
        <time>2019-10-18T11:09:36Z</time>
      </trkpt>
      <trkpt lat="37.0407880" lon="-2.2008430">
        <ele>548.9</ele>
        <time>2019-10-18T11:09:37Z</time>
      </trkpt>
      <trkpt lat="37.0407890" lon="-2.2008420">
        <ele>548.9</ele>
        <time>2019-10-18T11:09:38Z</time>
      </trkpt>
      <trkpt lat="37.0407910" lon="-2.2008400">
        <ele>548.9</ele>
        <time>2019-10-18T11:09:39Z</time>
      </trkpt>
      <trkpt lat="37.0407930" lon="-2.2008360">
        <ele>548.9</ele>
        <time>2019-10-18T11:09:40Z</time>
      </trkpt>
      <trkpt lat="37.0407960" lon="-2.2008300">
        <ele>548.9</ele>
        <time>2019-10-18T11:09:41Z</time>
      </trkpt>
      <trkpt lat="37.0408000" lon="-2.2008220">
        <ele>548.9</ele>
        <time>2019-10-18T11:09:42Z</time>
      </trkpt>
      <trkpt lat="37.0408050" lon="-2.2008140">
        <ele>548.9</ele>
        <time>2019-10-18T11:09:43Z</time>
      </trkpt>
      <trkpt lat="37.0408090" lon="-2.2008070">
        <ele>548.9</ele>
        <time>2019-10-18T11:09:44Z</time>
      </trkpt>
      <trkpt lat="37.0408130" lon="-2.2008000">
        <ele>548.9</ele>
        <time>2019-10-18T11:09:45Z</time>
      </trkpt>
      <trkpt lat="37.0408150" lon="-2.2007930">
        <ele>548.9</ele>
        <time>2019-10-18T11:09:46Z</time>
      </trkpt>
      <trkpt lat="37.0408150" lon="-2.2007860">
        <ele>548.9</ele>
        <time>2019-10-18T11:09:47Z</time>
      </trkpt>
      <trkpt lat="37.0408150" lon="-2.2007810">
        <ele>548.9</ele>
        <time>2019-10-18T11:09:48Z</time>
      </trkpt>
      <trkpt lat="37.0408150" lon="-2.2007780">
        <ele>548.9</ele>
        <time>2019-10-18T11:09:49Z</time>
      </trkpt>
      <trkpt lat="37.0408160" lon="-2.2007770">
        <ele>548.9</ele>
        <time>2019-10-18T11:09:50Z</time>
      </trkpt>
      <trkpt lat="37.0408160" lon="-2.2007750">
        <ele>548.9</ele>
        <time>2019-10-18T11:09:51Z</time>
      </trkpt>
      <trkpt lat="37.0408170" lon="-2.2007730">
        <ele>548.9</ele>
        <time>2019-10-18T11:09:52Z</time>
      </trkpt>
      <trkpt lat="37.0408180" lon="-2.2007710">
        <ele>548.9</ele>
        <time>2019-10-18T11:09:53Z</time>
      </trkpt>
      <trkpt lat="37.0408190" lon="-2.2007700">
        <ele>548.9</ele>
        <time>2019-10-18T11:09:54Z</time>
      </trkpt>
      <trkpt lat="37.0408200" lon="-2.2007680">
        <ele>548.9</ele>
        <time>2019-10-18T11:09:55Z</time>
      </trkpt>
      <trkpt lat="37.0408200" lon="-2.2007680">
        <ele>548.9</ele>
        <time>2019-10-18T11:09:56Z</time>
      </trkpt>
      <trkpt lat="37.0408190" lon="-2.2007680">
        <ele>548.9</ele>
        <time>2019-10-18T11:09:57Z</time>
      </trkpt>
      <trkpt lat="37.0408190" lon="-2.2007690">
        <ele>548.9</ele>
        <time>2019-10-18T11:09:58Z</time>
      </trkpt>
      <trkpt lat="37.0408200" lon="-2.2007700">
        <ele>548.9</ele>
        <time>2019-10-18T11:09:59Z</time>
      </trkpt>
      <trkpt lat="37.0408210" lon="-2.2007710">
        <ele>548.9</ele>
        <time>2019-10-18T11:10:00Z</time>
      </trkpt>
      <trkpt lat="37.0408210" lon="-2.2007710">
        <ele>548.9</ele>
        <time>2019-10-18T11:10:01Z</time>
      </trkpt>
      <trkpt lat="37.0408220" lon="-2.2007710">
        <ele>548.9</ele>
        <time>2019-10-18T11:10:02Z</time>
      </trkpt>
      <trkpt lat="37.0408220" lon="-2.2007700">
        <ele>548.9</ele>
        <time>2019-10-18T11:10:03Z</time>
      </trkpt>
      <trkpt lat="37.0408220" lon="-2.2007700">
        <ele>548.9</ele>
        <time>2019-10-18T11:10:04Z</time>
      </trkpt>
      <trkpt lat="37.0408220" lon="-2.2007700">
        <ele>548.9</ele>
        <time>2019-10-18T11:10:05Z</time>
      </trkpt>
      <trkpt lat="37.0408220" lon="-2.2007690">
        <ele>548.9</ele>
        <time>2019-10-18T11:10:06Z</time>
      </trkpt>
      <trkpt lat="37.0408220" lon="-2.2007690">
        <ele>548.9</ele>
        <time>2019-10-18T11:10:07Z</time>
      </trkpt>
      <trkpt lat="37.0408220" lon="-2.2007690">
        <ele>548.9</ele>
        <time>2019-10-18T11:10:08Z</time>
      </trkpt>
      <trkpt lat="37.0408220" lon="-2.2007690">
        <ele>548.9</ele>
        <time>2019-10-18T11:10:09Z</time>
      </trkpt>
      <trkpt lat="37.0408210" lon="-2.2007690">
        <ele>548.9</ele>
        <time>2019-10-18T11:10:10Z</time>
      </trkpt>
      <trkpt lat="37.0408210" lon="-2.2007690">
        <ele>548.9</ele>
        <time>2019-10-18T11:10:11Z</time>
      </trkpt>
      <trkpt lat="37.0408210" lon="-2.2007680">
        <ele>548.9</ele>
        <time>2019-10-18T11:10:12Z</time>
      </trkpt>
      <trkpt lat="37.0408210" lon="-2.2007690">
        <ele>548.9</ele>
        <time>2019-10-18T11:10:13Z</time>
      </trkpt>
      <trkpt lat="37.0408210" lon="-2.2007700">
        <ele>548.9</ele>
        <time>2019-10-18T11:10:14Z</time>
      </trkpt>
      <trkpt lat="37.0408210" lon="-2.2007720">
        <ele>548.9</ele>
        <time>2019-10-18T11:10:15Z</time>
      </trkpt>
      <trkpt lat="37.0408210" lon="-2.2007730">
        <ele>548.9</ele>
        <time>2019-10-18T11:10:16Z</time>
      </trkpt>
      <trkpt lat="37.0408200" lon="-2.2007740">
        <ele>548.9</ele>
        <time>2019-10-18T11:10:17Z</time>
      </trkpt>
      <trkpt lat="37.0408200" lon="-2.2007750">
        <ele>548.9</ele>
        <time>2019-10-18T11:10:18Z</time>
      </trkpt>
      <trkpt lat="37.0408190" lon="-2.2007740">
        <ele>548.9</ele>
        <time>2019-10-18T11:10:19Z</time>
      </trkpt>
      <trkpt lat="37.0408190" lon="-2.2007720">
        <ele>548.9</ele>
        <time>2019-10-18T11:10:20Z</time>
      </trkpt>
      <trkpt lat="37.0408190" lon="-2.2007690">
        <ele>548.9</ele>
        <time>2019-10-18T11:10:21Z</time>
      </trkpt>
      <trkpt lat="37.0408190" lon="-2.2007650">
        <ele>548.9</ele>
        <time>2019-10-18T11:10:22Z</time>
      </trkpt>
      <trkpt lat="37.0408180" lon="-2.2007620">
        <ele>548.9</ele>
        <time>2019-10-18T11:10:23Z</time>
      </trkpt>
      <trkpt lat="37.0408180" lon="-2.2007610">
        <ele>548.9</ele>
        <time>2019-10-18T11:10:24Z</time>
      </trkpt>
      <trkpt lat="37.0408160" lon="-2.2007610">
        <ele>548.9</ele>
        <time>2019-10-18T11:10:25Z</time>
      </trkpt>
      <trkpt lat="37.0408140" lon="-2.2007610">
        <ele>548.9</ele>
        <time>2019-10-18T11:10:26Z</time>
      </trkpt>
      <trkpt lat="37.0408110" lon="-2.2007620">
        <ele>548.9</ele>
        <time>2019-10-18T11:10:27Z</time>
      </trkpt>
      <trkpt lat="37.0408080" lon="-2.2007640">
        <ele>548.9</ele>
        <time>2019-10-18T11:10:28Z</time>
      </trkpt>
      <trkpt lat="37.0408060" lon="-2.2007640">
        <ele>548.9</ele>
        <time>2019-10-18T11:10:29Z</time>
      </trkpt>
      <trkpt lat="37.0408020" lon="-2.2007650">
        <ele>548.9</ele>
        <time>2019-10-18T11:10:30Z</time>
      </trkpt>
      <trkpt lat="37.0407970" lon="-2.2007670">
        <ele>548.9</ele>
        <time>2019-10-18T11:10:31Z</time>
      </trkpt>
      <trkpt lat="37.0407920" lon="-2.2007710">
        <ele>548.9</ele>
        <time>2019-10-18T11:10:32Z</time>
      </trkpt>
      <trkpt lat="37.0407880" lon="-2.2007750">
        <ele>548.9</ele>
        <time>2019-10-18T11:10:33Z</time>
      </trkpt>
      <trkpt lat="37.0407860" lon="-2.2007790">
        <ele>548.9</ele>
        <time>2019-10-18T11:10:34Z</time>
      </trkpt>
      <trkpt lat="37.0407830" lon="-2.2007830">
        <ele>548.9</ele>
        <time>2019-10-18T11:10:35Z</time>
      </trkpt>
      <trkpt lat="37.0407810" lon="-2.2007850">
        <ele>548.9</ele>
        <time>2019-10-18T11:10:36Z</time>
      </trkpt>
      <trkpt lat="37.0407790" lon="-2.2007860">
        <ele>548.9</ele>
        <time>2019-10-18T11:10:37Z</time>
      </trkpt>
      <trkpt lat="37.0407770" lon="-2.2007860">
        <ele>548.9</ele>
        <time>2019-10-18T11:10:38Z</time>
      </trkpt>
      <trkpt lat="37.0407750" lon="-2.2007870">
        <ele>548.9</ele>
        <time>2019-10-18T11:10:39Z</time>
      </trkpt>
      <trkpt lat="37.0407740" lon="-2.2007870">
        <ele>548.9</ele>
        <time>2019-10-18T11:10:40Z</time>
      </trkpt>
      <trkpt lat="37.0407750" lon="-2.2007880">
        <ele>548.9</ele>
        <time>2019-10-18T11:10:41Z</time>
      </trkpt>
      <trkpt lat="37.0407760" lon="-2.2007890">
        <ele>548.9</ele>
        <time>2019-10-18T11:10:42Z</time>
      </trkpt>
      <trkpt lat="37.0407770" lon="-2.2007900">
        <ele>548.9</ele>
        <time>2019-10-18T11:10:43Z</time>
      </trkpt>
      <trkpt lat="37.0407770" lon="-2.2007910">
        <ele>548.9</ele>
        <time>2019-10-18T11:10:44Z</time>
      </trkpt>
      <trkpt lat="37.0407770" lon="-2.2007920">
        <ele>548.9</ele>
        <time>2019-10-18T11:10:45Z</time>
      </trkpt>
      <trkpt lat="37.0407770" lon="-2.2007930">
        <ele>548.9</ele>
        <time>2019-10-18T11:10:46Z</time>
      </trkpt>
      <trkpt lat="37.0407770" lon="-2.2007930">
        <ele>548.9</ele>
        <time>2019-10-18T11:10:47Z</time>
      </trkpt>
      <trkpt lat="37.0407770" lon="-2.2007930">
        <ele>548.9</ele>
        <time>2019-10-18T11:10:48Z</time>
      </trkpt>
      <trkpt lat="37.0407770" lon="-2.2007920">
        <ele>548.9</ele>
        <time>2019-10-18T11:10:49Z</time>
      </trkpt>
      <trkpt lat="37.0407780" lon="-2.2007920">
        <ele>548.9</ele>
        <time>2019-10-18T11:10:50Z</time>
      </trkpt>
      <trkpt lat="37.0407780" lon="-2.2007920">
        <ele>548.9</ele>
        <time>2019-10-18T11:10:51Z</time>
      </trkpt>
      <trkpt lat="37.0407780" lon="-2.2007920">
        <ele>548.9</ele>
        <time>2019-10-18T11:10:52Z</time>
      </trkpt>
      <trkpt lat="37.0407790" lon="-2.2007920">
        <ele>548.9</ele>
        <time>2019-10-18T11:10:53Z</time>
      </trkpt>
      <trkpt lat="37.0407790" lon="-2.2007920">
        <ele>548.9</ele>
        <time>2019-10-18T11:10:54Z</time>
      </trkpt>
      <trkpt lat="37.0407790" lon="-2.2007920">
        <ele>548.9</ele>
        <time>2019-10-18T11:10:55Z</time>
      </trkpt>
      <trkpt lat="37.0407800" lon="-2.2007920">
        <ele>548.9</ele>
        <time>2019-10-18T11:10:56Z</time>
      </trkpt>
      <trkpt lat="37.0407800" lon="-2.2007920">
        <ele>548.9</ele>
        <time>2019-10-18T11:10:57Z</time>
      </trkpt>
      <trkpt lat="37.0407800" lon="-2.2007920">
        <ele>548.9</ele>
        <time>2019-10-18T11:10:58Z</time>
      </trkpt>
      <trkpt lat="37.0407810" lon="-2.2007930">
        <ele>548.9</ele>
        <time>2019-10-18T11:10:59Z</time>
      </trkpt>
      <trkpt lat="37.0407810" lon="-2.2007930">
        <ele>548.9</ele>
        <time>2019-10-18T11:11:00Z</time>
      </trkpt>
      <trkpt lat="37.0407810" lon="-2.2007930">
        <ele>548.9</ele>
        <time>2019-10-18T11:11:01Z</time>
      </trkpt>
      <trkpt lat="37.0407810" lon="-2.2007940">
        <ele>548.9</ele>
        <time>2019-10-18T11:11:02Z</time>
      </trkpt>
      <trkpt lat="37.0407810" lon="-2.2007940">
        <ele>548.9</ele>
        <time>2019-10-18T11:11:03Z</time>
      </trkpt>
      <trkpt lat="37.0407810" lon="-2.2007950">
        <ele>548.9</ele>
        <time>2019-10-18T11:11:04Z</time>
      </trkpt>
      <trkpt lat="37.0407810" lon="-2.2007950">
        <ele>548.9</ele>
        <time>2019-10-18T11:11:05Z</time>
      </trkpt>
      <trkpt lat="37.0407810" lon="-2.2007950">
        <ele>548.9</ele>
        <time>2019-10-18T11:11:06Z</time>
      </trkpt>
      <trkpt lat="37.0407800" lon="-2.2007950">
        <ele>548.9</ele>
        <time>2019-10-18T11:11:07Z</time>
      </trkpt>
      <trkpt lat="37.0407810" lon="-2.2007970">
        <ele>548.9</ele>
        <time>2019-10-18T11:11:08Z</time>
      </trkpt>
      <trkpt lat="37.0407830" lon="-2.2007990">
        <ele>548.9</ele>
        <time>2019-10-18T11:11:09Z</time>
      </trkpt>
      <trkpt lat="37.0407860" lon="-2.2008000">
        <ele>548.9</ele>
        <time>2019-10-18T11:11:10Z</time>
      </trkpt>
      <trkpt lat="37.0407880" lon="-2.2008010">
        <ele>548.9</ele>
        <time>2019-10-18T11:11:11Z</time>
      </trkpt>
      <trkpt lat="37.0407890" lon="-2.2008030">
        <ele>548.9</ele>
        <time>2019-10-18T11:11:12Z</time>
      </trkpt>
      <trkpt lat="37.0407900" lon="-2.2008040">
        <ele>548.9</ele>
        <time>2019-10-18T11:11:13Z</time>
      </trkpt>
      <trkpt lat="37.0407910" lon="-2.2008050">
        <ele>548.9</ele>
        <time>2019-10-18T11:11:14Z</time>
      </trkpt>
      <trkpt lat="37.0407920" lon="-2.2008050">
        <ele>548.9</ele>
        <time>2019-10-18T11:11:15Z</time>
      </trkpt>
      <trkpt lat="37.0407920" lon="-2.2008050">
        <ele>548.9</ele>
        <time>2019-10-18T11:11:16Z</time>
      </trkpt>
      <trkpt lat="37.0407930" lon="-2.2008030">
        <ele>548.9</ele>
        <time>2019-10-18T11:11:17Z</time>
      </trkpt>
      <trkpt lat="37.0407930" lon="-2.2008000">
        <ele>548.9</ele>
        <time>2019-10-18T11:11:18Z</time>
      </trkpt>
      <trkpt lat="37.0407940" lon="-2.2007960">
        <ele>548.9</ele>
        <time>2019-10-18T11:11:19Z</time>
      </trkpt>
      <trkpt lat="37.0407940" lon="-2.2007950">
        <ele>548.9</ele>
        <time>2019-10-18T11:11:20Z</time>
      </trkpt>
      <trkpt lat="37.0407950" lon="-2.2007940">
        <ele>548.9</ele>
        <time>2019-10-18T11:11:21Z</time>
      </trkpt>
      <trkpt lat="37.0407950" lon="-2.2007930">
        <ele>548.9</ele>
        <time>2019-10-18T11:11:22Z</time>
      </trkpt>
      <trkpt lat="37.0407950" lon="-2.2007930">
        <ele>548.9</ele>
        <time>2019-10-18T11:11:23Z</time>
      </trkpt>
      <trkpt lat="37.0407960" lon="-2.2007930">
        <ele>548.9</ele>
        <time>2019-10-18T11:11:24Z</time>
      </trkpt>
      <trkpt lat="37.0407960" lon="-2.2007930">
        <ele>548.9</ele>
        <time>2019-10-18T11:11:25Z</time>
      </trkpt>
      <trkpt lat="37.0407960" lon="-2.2007920">
        <ele>548.9</ele>
        <time>2019-10-18T11:11:26Z</time>
      </trkpt>
      <trkpt lat="37.0407970" lon="-2.2007920">
        <ele>548.9</ele>
        <time>2019-10-18T11:11:27Z</time>
      </trkpt>
      <trkpt lat="37.0407970" lon="-2.2007920">
        <ele>548.9</ele>
        <time>2019-10-18T11:11:28Z</time>
      </trkpt>
      <trkpt lat="37.0407970" lon="-2.2007920">
        <ele>548.9</ele>
        <time>2019-10-18T11:11:29Z</time>
      </trkpt>
      <trkpt lat="37.0407970" lon="-2.2007930">
        <ele>548.9</ele>
        <time>2019-10-18T11:11:30Z</time>
      </trkpt>
      <trkpt lat="37.0407970" lon="-2.2007930">
        <ele>548.9</ele>
        <time>2019-10-18T11:11:31Z</time>
      </trkpt>
      <trkpt lat="37.0407980" lon="-2.2007930">
        <ele>548.9</ele>
        <time>2019-10-18T11:11:32Z</time>
      </trkpt>
      <trkpt lat="37.0407980" lon="-2.2007920">
        <ele>548.9</ele>
        <time>2019-10-18T11:11:33Z</time>
      </trkpt>
      <trkpt lat="37.0407980" lon="-2.2007920">
        <ele>548.9</ele>
        <time>2019-10-18T11:11:34Z</time>
      </trkpt>
      <trkpt lat="37.0407980" lon="-2.2007920">
        <ele>548.9</ele>
        <time>2019-10-18T11:11:35Z</time>
      </trkpt>
      <trkpt lat="37.0407980" lon="-2.2007920">
        <ele>548.9</ele>
        <time>2019-10-18T11:11:36Z</time>
      </trkpt>
      <trkpt lat="37.0407990" lon="-2.2007910">
        <ele>548.9</ele>
        <time>2019-10-18T11:11:37Z</time>
      </trkpt>
      <trkpt lat="37.0407980" lon="-2.2007910">
        <ele>548.9</ele>
        <time>2019-10-18T11:11:38Z</time>
      </trkpt>
      <trkpt lat="37.0407980" lon="-2.2007910">
        <ele>548.9</ele>
        <time>2019-10-18T11:11:39Z</time>
      </trkpt>
      <trkpt lat="37.0407980" lon="-2.2007910">
        <ele>548.9</ele>
        <time>2019-10-18T11:11:40Z</time>
      </trkpt>
      <trkpt lat="37.0407980" lon="-2.2007900">
        <ele>548.9</ele>
        <time>2019-10-18T11:11:41Z</time>
      </trkpt>
      <trkpt lat="37.0407980" lon="-2.2007900">
        <ele>548.9</ele>
        <time>2019-10-18T11:11:42Z</time>
      </trkpt>
      <trkpt lat="37.0407980" lon="-2.2007900">
        <ele>548.9</ele>
        <time>2019-10-18T11:11:43Z</time>
      </trkpt>
      <trkpt lat="37.0407980" lon="-2.2007900">
        <ele>548.9</ele>
        <time>2019-10-18T11:11:44Z</time>
      </trkpt>
      <trkpt lat="37.0407970" lon="-2.2007900">
        <ele>548.9</ele>
        <time>2019-10-18T11:11:45Z</time>
      </trkpt>
      <trkpt lat="37.0407970" lon="-2.2007900">
        <ele>548.9</ele>
        <time>2019-10-18T11:11:46Z</time>
      </trkpt>
      <trkpt lat="37.0407970" lon="-2.2007900">
        <ele>548.9</ele>
        <time>2019-10-18T11:11:47Z</time>
      </trkpt>
      <trkpt lat="37.0407970" lon="-2.2007900">
        <ele>548.9</ele>
        <time>2019-10-18T11:11:48Z</time>
      </trkpt>
      <trkpt lat="37.0407970" lon="-2.2007910">
        <ele>548.9</ele>
        <time>2019-10-18T11:11:49Z</time>
      </trkpt>
      <trkpt lat="37.0407970" lon="-2.2007910">
        <ele>548.9</ele>
        <time>2019-10-18T11:11:50Z</time>
      </trkpt>
      <trkpt lat="37.0407970" lon="-2.2007910">
        <ele>548.9</ele>
        <time>2019-10-18T11:11:51Z</time>
      </trkpt>
      <trkpt lat="37.0407970" lon="-2.2007910">
        <ele>548.9</ele>
        <time>2019-10-18T11:11:52Z</time>
      </trkpt>
      <trkpt lat="37.0407970" lon="-2.2007910">
        <ele>548.9</ele>
        <time>2019-10-18T11:11:53Z</time>
      </trkpt>
      <trkpt lat="37.0407970" lon="-2.2007910">
        <ele>548.9</ele>
        <time>2019-10-18T11:11:54Z</time>
      </trkpt>
      <trkpt lat="37.0407970" lon="-2.2007920">
        <ele>548.9</ele>
        <time>2019-10-18T11:11:55Z</time>
      </trkpt>
      <trkpt lat="37.0407970" lon="-2.2007930">
        <ele>548.9</ele>
        <time>2019-10-18T11:11:56Z</time>
      </trkpt>
      <trkpt lat="37.0407960" lon="-2.2007930">
        <ele>548.9</ele>
        <time>2019-10-18T11:11:57Z</time>
      </trkpt>
      <trkpt lat="37.0407960" lon="-2.2007950">
        <ele>548.9</ele>
        <time>2019-10-18T11:11:58Z</time>
      </trkpt>
      <trkpt lat="37.0407970" lon="-2.2007980">
        <ele>548.9</ele>
        <time>2019-10-18T11:11:59Z</time>
      </trkpt>
      <trkpt lat="37.0407970" lon="-2.2008000">
        <ele>548.9</ele>
        <time>2019-10-18T11:12:00Z</time>
      </trkpt>
      <trkpt lat="37.0407960" lon="-2.2008010">
        <ele>548.9</ele>
        <time>2019-10-18T11:12:01Z</time>
      </trkpt>
      <trkpt lat="37.0407950" lon="-2.2008010">
        <ele>548.9</ele>
        <time>2019-10-18T11:12:02Z</time>
      </trkpt>
      <trkpt lat="37.0407940" lon="-2.2008010">
        <ele>548.9</ele>
        <time>2019-10-18T11:12:03Z</time>
      </trkpt>
      <trkpt lat="37.0407930" lon="-2.2008010">
        <ele>548.9</ele>
        <time>2019-10-18T11:12:04Z</time>
      </trkpt>
      <trkpt lat="37.0407910" lon="-2.2008010">
        <ele>548.9</ele>
        <time>2019-10-18T11:12:05Z</time>
      </trkpt>
      <trkpt lat="37.0407900" lon="-2.2008000">
        <ele>548.9</ele>
        <time>2019-10-18T11:12:06Z</time>
      </trkpt>
      <trkpt lat="37.0407900" lon="-2.2008000">
        <ele>548.9</ele>
        <time>2019-10-18T11:12:07Z</time>
      </trkpt>
      <trkpt lat="37.0407890" lon="-2.2007990">
        <ele>548.9</ele>
        <time>2019-10-18T11:12:08Z</time>
      </trkpt>
      <trkpt lat="37.0407880" lon="-2.2007980">
        <ele>548.9</ele>
        <time>2019-10-18T11:12:09Z</time>
      </trkpt>
      <trkpt lat="37.0407880" lon="-2.2007970">
        <ele>548.9</ele>
        <time>2019-10-18T11:12:10Z</time>
      </trkpt>
      <trkpt lat="37.0407880" lon="-2.2007970">
        <ele>548.9</ele>
        <time>2019-10-18T11:12:11Z</time>
      </trkpt>
      <trkpt lat="37.0407880" lon="-2.2007960">
        <ele>548.9</ele>
        <time>2019-10-18T11:12:12Z</time>
      </trkpt>
      <trkpt lat="37.0407880" lon="-2.2007950">
        <ele>548.9</ele>
        <time>2019-10-18T11:12:13Z</time>
      </trkpt>
      <trkpt lat="37.0407880" lon="-2.2007950">
        <ele>548.9</ele>
        <time>2019-10-18T11:12:14Z</time>
      </trkpt>
      <trkpt lat="37.0407870" lon="-2.2007960">
        <ele>548.9</ele>
        <time>2019-10-18T11:12:15Z</time>
      </trkpt>
      <trkpt lat="37.0407870" lon="-2.2007970">
        <ele>548.9</ele>
        <time>2019-10-18T11:12:16Z</time>
      </trkpt>
      <trkpt lat="37.0407870" lon="-2.2007980">
        <ele>548.9</ele>
        <time>2019-10-18T11:12:17Z</time>
      </trkpt>
      <trkpt lat="37.0407860" lon="-2.2007980">
        <ele>548.9</ele>
        <time>2019-10-18T11:12:18Z</time>
      </trkpt>
      <trkpt lat="37.0407860" lon="-2.2007990">
        <ele>548.9</ele>
        <time>2019-10-18T11:12:19Z</time>
      </trkpt>
      <trkpt lat="37.0407860" lon="-2.2008000">
        <ele>548.9</ele>
        <time>2019-10-18T11:12:20Z</time>
      </trkpt>
      <trkpt lat="37.0407850" lon="-2.2008010">
        <ele>548.9</ele>
        <time>2019-10-18T11:12:21Z</time>
      </trkpt>
      <trkpt lat="37.0407850" lon="-2.2008010">
        <ele>548.9</ele>
        <time>2019-10-18T11:12:22Z</time>
      </trkpt>
      <trkpt lat="37.0407850" lon="-2.2008020">
        <ele>548.9</ele>
        <time>2019-10-18T11:12:23Z</time>
      </trkpt>
      <trkpt lat="37.0407840" lon="-2.2008020">
        <ele>548.9</ele>
        <time>2019-10-18T11:12:24Z</time>
      </trkpt>
      <trkpt lat="37.0407840" lon="-2.2008020">
        <ele>548.9</ele>
        <time>2019-10-18T11:12:25Z</time>
      </trkpt>
      <trkpt lat="37.0407840" lon="-2.2008030">
        <ele>548.9</ele>
        <time>2019-10-18T11:12:26Z</time>
      </trkpt>
      <trkpt lat="37.0407830" lon="-2.2008030">
        <ele>548.9</ele>
        <time>2019-10-18T11:12:27Z</time>
      </trkpt>
      <trkpt lat="37.0407830" lon="-2.2008030">
        <ele>548.9</ele>
        <time>2019-10-18T11:12:28Z</time>
      </trkpt>
      <trkpt lat="37.0407830" lon="-2.2008030">
        <ele>548.9</ele>
        <time>2019-10-18T11:12:29Z</time>
      </trkpt>
      <trkpt lat="37.0407820" lon="-2.2008030">
        <ele>548.9</ele>
        <time>2019-10-18T11:12:30Z</time>
      </trkpt>
      <trkpt lat="37.0407810" lon="-2.2008040">
        <ele>548.9</ele>
        <time>2019-10-18T11:12:31Z</time>
      </trkpt>
      <trkpt lat="37.0407810" lon="-2.2008030">
        <ele>548.9</ele>
        <time>2019-10-18T11:12:32Z</time>
      </trkpt>
      <trkpt lat="37.0407810" lon="-2.2008030">
        <ele>548.9</ele>
        <time>2019-10-18T11:12:33Z</time>
      </trkpt>
      <trkpt lat="37.0407800" lon="-2.2008020">
        <ele>548.9</ele>
        <time>2019-10-18T11:12:34Z</time>
      </trkpt>
      <trkpt lat="37.0407800" lon="-2.2008020">
        <ele>548.9</ele>
        <time>2019-10-18T11:12:35Z</time>
      </trkpt>
      <trkpt lat="37.0407800" lon="-2.2008020">
        <ele>548.9</ele>
        <time>2019-10-18T11:12:36Z</time>
      </trkpt>
      <trkpt lat="37.0407770" lon="-2.2008020">
        <ele>548.9</ele>
        <time>2019-10-18T11:12:37Z</time>
      </trkpt>
      <trkpt lat="37.0407750" lon="-2.2008020">
        <ele>548.9</ele>
        <time>2019-10-18T11:12:38Z</time>
      </trkpt>
      <trkpt lat="37.0407720" lon="-2.2008010">
        <ele>548.9</ele>
        <time>2019-10-18T11:12:39Z</time>
      </trkpt>
      <trkpt lat="37.0407710" lon="-2.2008010">
        <ele>548.9</ele>
        <time>2019-10-18T11:12:40Z</time>
      </trkpt>
      <trkpt lat="37.0407700" lon="-2.2008010">
        <ele>548.9</ele>
        <time>2019-10-18T11:12:41Z</time>
      </trkpt>
      <trkpt lat="37.0407700" lon="-2.2008010">
        <ele>548.9</ele>
        <time>2019-10-18T11:12:42Z</time>
      </trkpt>
      <trkpt lat="37.0407690" lon="-2.2008000">
        <ele>548.9</ele>
        <time>2019-10-18T11:12:43Z</time>
      </trkpt>
      <trkpt lat="37.0407690" lon="-2.2008000">
        <ele>548.9</ele>
        <time>2019-10-18T11:12:44Z</time>
      </trkpt>
      <trkpt lat="37.0407690" lon="-2.2008010">
        <ele>548.9</ele>
        <time>2019-10-18T11:12:45Z</time>
      </trkpt>
      <trkpt lat="37.0407690" lon="-2.2008010">
        <ele>548.9</ele>
        <time>2019-10-18T11:12:46Z</time>
      </trkpt>
      <trkpt lat="37.0407700" lon="-2.2008020">
        <ele>548.9</ele>
        <time>2019-10-18T11:12:47Z</time>
      </trkpt>
      <trkpt lat="37.0407710" lon="-2.2008030">
        <ele>548.9</ele>
        <time>2019-10-18T11:12:48Z</time>
      </trkpt>
      <trkpt lat="37.0407710" lon="-2.2008020">
        <ele>548.9</ele>
        <time>2019-10-18T11:12:49Z</time>
      </trkpt>
      <trkpt lat="37.0407710" lon="-2.2008010">
        <ele>548.9</ele>
        <time>2019-10-18T11:12:50Z</time>
      </trkpt>
      <trkpt lat="37.0407710" lon="-2.2008000">
        <ele>548.9</ele>
        <time>2019-10-18T11:12:51Z</time>
      </trkpt>
      <trkpt lat="37.0407700" lon="-2.2007990">
        <ele>548.9</ele>
        <time>2019-10-18T11:12:52Z</time>
      </trkpt>
      <trkpt lat="37.0407700" lon="-2.2007990">
        <ele>548.9</ele>
        <time>2019-10-18T11:12:53Z</time>
      </trkpt>
      <trkpt lat="37.0407690" lon="-2.2007980">
        <ele>548.9</ele>
        <time>2019-10-18T11:12:54Z</time>
      </trkpt>
      <trkpt lat="37.0407690" lon="-2.2007980">
        <ele>548.9</ele>
        <time>2019-10-18T11:12:55Z</time>
      </trkpt>
      <trkpt lat="37.0407680" lon="-2.2007970">
        <ele>548.9</ele>
        <time>2019-10-18T11:12:56Z</time>
      </trkpt>
      <trkpt lat="37.0407680" lon="-2.2007960">
        <ele>548.9</ele>
        <time>2019-10-18T11:12:57Z</time>
      </trkpt>
      <trkpt lat="37.0407680" lon="-2.2007950">
        <ele>548.9</ele>
        <time>2019-10-18T11:12:58Z</time>
      </trkpt>
      <trkpt lat="37.0407680" lon="-2.2007940">
        <ele>548.9</ele>
        <time>2019-10-18T11:12:59Z</time>
      </trkpt>
      <trkpt lat="37.0407680" lon="-2.2007930">
        <ele>548.9</ele>
        <time>2019-10-18T11:13:00Z</time>
      </trkpt>
      <trkpt lat="37.0407680" lon="-2.2007920">
        <ele>548.9</ele>
        <time>2019-10-18T11:13:01Z</time>
      </trkpt>
      <trkpt lat="37.0407680" lon="-2.2007910">
        <ele>548.9</ele>
        <time>2019-10-18T11:13:02Z</time>
      </trkpt>
      <trkpt lat="37.0407680" lon="-2.2007900">
        <ele>548.9</ele>
        <time>2019-10-18T11:13:03Z</time>
      </trkpt>
      <trkpt lat="37.0407680" lon="-2.2007890">
        <ele>548.9</ele>
        <time>2019-10-18T11:13:04Z</time>
      </trkpt>
      <trkpt lat="37.0407680" lon="-2.2007880">
        <ele>548.9</ele>
        <time>2019-10-18T11:13:05Z</time>
      </trkpt>
      <trkpt lat="37.0407680" lon="-2.2007870">
        <ele>548.9</ele>
        <time>2019-10-18T11:13:06Z</time>
      </trkpt>
      <trkpt lat="37.0407690" lon="-2.2007870">
        <ele>548.9</ele>
        <time>2019-10-18T11:13:07Z</time>
      </trkpt>
      <trkpt lat="37.0407690" lon="-2.2007870">
        <ele>548.9</ele>
        <time>2019-10-18T11:13:08Z</time>
      </trkpt>
      <trkpt lat="37.0407700" lon="-2.2007860">
        <ele>548.9</ele>
        <time>2019-10-18T11:13:09Z</time>
      </trkpt>
      <trkpt lat="37.0407700" lon="-2.2007860">
        <ele>548.9</ele>
        <time>2019-10-18T11:13:10Z</time>
      </trkpt>
      <trkpt lat="37.0407710" lon="-2.2007860">
        <ele>548.9</ele>
        <time>2019-10-18T11:13:11Z</time>
      </trkpt>
      <trkpt lat="37.0407710" lon="-2.2007860">
        <ele>548.9</ele>
        <time>2019-10-18T11:13:12Z</time>
      </trkpt>
      <trkpt lat="37.0407720" lon="-2.2007860">
        <ele>548.9</ele>
        <time>2019-10-18T11:13:13Z</time>
      </trkpt>
      <trkpt lat="37.0407710" lon="-2.2007860">
        <ele>548.9</ele>
        <time>2019-10-18T11:13:14Z</time>
      </trkpt>
      <trkpt lat="37.0407700" lon="-2.2007850">
        <ele>548.9</ele>
        <time>2019-10-18T11:13:15Z</time>
      </trkpt>
      <trkpt lat="37.0407700" lon="-2.2007840">
        <ele>548.9</ele>
        <time>2019-10-18T11:13:16Z</time>
      </trkpt>
      <trkpt lat="37.0407710" lon="-2.2007840">
        <ele>548.9</ele>
        <time>2019-10-18T11:13:17Z</time>
      </trkpt>
      <trkpt lat="37.0407720" lon="-2.2007850">
        <ele>548.9</ele>
        <time>2019-10-18T11:13:18Z</time>
      </trkpt>
      <trkpt lat="37.0407710" lon="-2.2007860">
        <ele>548.9</ele>
        <time>2019-10-18T11:13:19Z</time>
      </trkpt>
      <trkpt lat="37.0407720" lon="-2.2007860">
        <ele>548.9</ele>
        <time>2019-10-18T11:13:20Z</time>
      </trkpt>
      <trkpt lat="37.0407720" lon="-2.2007860">
        <ele>548.9</ele>
        <time>2019-10-18T11:13:21Z</time>
      </trkpt>
      <trkpt lat="37.0407730" lon="-2.2007850">
        <ele>548.9</ele>
        <time>2019-10-18T11:13:22Z</time>
      </trkpt>
      <trkpt lat="37.0407730" lon="-2.2007870">
        <ele>548.9</ele>
        <time>2019-10-18T11:13:23Z</time>
      </trkpt>
      <trkpt lat="37.0407740" lon="-2.2007880">
        <ele>548.9</ele>
        <time>2019-10-18T11:13:24Z</time>
      </trkpt>
      <trkpt lat="37.0407740" lon="-2.2007900">
        <ele>548.9</ele>
        <time>2019-10-18T11:13:25Z</time>
      </trkpt>
      <trkpt lat="37.0407740" lon="-2.2007910">
        <ele>548.9</ele>
        <time>2019-10-18T11:13:26Z</time>
      </trkpt>
      <trkpt lat="37.0407740" lon="-2.2007920">
        <ele>548.9</ele>
        <time>2019-10-18T11:13:27Z</time>
      </trkpt>
      <trkpt lat="37.0407740" lon="-2.2007920">
        <ele>548.9</ele>
        <time>2019-10-18T11:13:28Z</time>
      </trkpt>
      <trkpt lat="37.0407730" lon="-2.2007920">
        <ele>548.9</ele>
        <time>2019-10-18T11:13:29Z</time>
      </trkpt>
      <trkpt lat="37.0407720" lon="-2.2007930">
        <ele>548.9</ele>
        <time>2019-10-18T11:13:30Z</time>
      </trkpt>
      <trkpt lat="37.0407720" lon="-2.2007930">
        <ele>548.9</ele>
        <time>2019-10-18T11:13:31Z</time>
      </trkpt>
      <trkpt lat="37.0407710" lon="-2.2007940">
        <ele>548.9</ele>
        <time>2019-10-18T11:13:32Z</time>
      </trkpt>
      <trkpt lat="37.0407710" lon="-2.2007950">
        <ele>548.9</ele>
        <time>2019-10-18T11:13:33Z</time>
      </trkpt>
      <trkpt lat="37.0407700" lon="-2.2007960">
        <ele>548.9</ele>
        <time>2019-10-18T11:13:34Z</time>
      </trkpt>
      <trkpt lat="37.0407700" lon="-2.2007980">
        <ele>548.9</ele>
        <time>2019-10-18T11:13:35Z</time>
      </trkpt>
      <trkpt lat="37.0407690" lon="-2.2007990">
        <ele>548.9</ele>
        <time>2019-10-18T11:13:36Z</time>
      </trkpt>
      <trkpt lat="37.0407690" lon="-2.2008000">
        <ele>548.9</ele>
        <time>2019-10-18T11:13:37Z</time>
      </trkpt>
      <trkpt lat="37.0407690" lon="-2.2008010">
        <ele>548.9</ele>
        <time>2019-10-18T11:13:38Z</time>
      </trkpt>
      <trkpt lat="37.0407680" lon="-2.2008030">
        <ele>548.9</ele>
        <time>2019-10-18T11:13:39Z</time>
      </trkpt>
      <trkpt lat="37.0407670" lon="-2.2008050">
        <ele>548.9</ele>
        <time>2019-10-18T11:13:40Z</time>
      </trkpt>
      <trkpt lat="37.0407660" lon="-2.2008070">
        <ele>548.9</ele>
        <time>2019-10-18T11:13:41Z</time>
      </trkpt>
      <trkpt lat="37.0407660" lon="-2.2008090">
        <ele>548.9</ele>
        <time>2019-10-18T11:13:42Z</time>
      </trkpt>
      <trkpt lat="37.0407660" lon="-2.2008100">
        <ele>548.9</ele>
        <time>2019-10-18T11:13:43Z</time>
      </trkpt>
      <trkpt lat="37.0407650" lon="-2.2008120">
        <ele>548.9</ele>
        <time>2019-10-18T11:13:44Z</time>
      </trkpt>
      <trkpt lat="37.0407650" lon="-2.2008130">
        <ele>548.9</ele>
        <time>2019-10-18T11:13:45Z</time>
      </trkpt>
      <trkpt lat="37.0407640" lon="-2.2008140">
        <ele>548.9</ele>
        <time>2019-10-18T11:13:46Z</time>
      </trkpt>
      <trkpt lat="37.0407640" lon="-2.2008150">
        <ele>548.9</ele>
        <time>2019-10-18T11:13:47Z</time>
      </trkpt>
      <trkpt lat="37.0407630" lon="-2.2008160">
        <ele>548.9</ele>
        <time>2019-10-18T11:13:48Z</time>
      </trkpt>
      <trkpt lat="37.0407630" lon="-2.2008170">
        <ele>548.9</ele>
        <time>2019-10-18T11:13:49Z</time>
      </trkpt>
      <trkpt lat="37.0407620" lon="-2.2008170">
        <ele>548.9</ele>
        <time>2019-10-18T11:13:50Z</time>
      </trkpt>
      <trkpt lat="37.0407620" lon="-2.2008180">
        <ele>548.9</ele>
        <time>2019-10-18T11:13:51Z</time>
      </trkpt>
      <trkpt lat="37.0407620" lon="-2.2008190">
        <ele>548.9</ele>
        <time>2019-10-18T11:13:52Z</time>
      </trkpt>
      <trkpt lat="37.0407610" lon="-2.2008190">
        <ele>548.9</ele>
        <time>2019-10-18T11:13:53Z</time>
      </trkpt>
      <trkpt lat="37.0407610" lon="-2.2008200">
        <ele>548.9</ele>
        <time>2019-10-18T11:13:54Z</time>
      </trkpt>
      <trkpt lat="37.0407600" lon="-2.2008200">
        <ele>548.9</ele>
        <time>2019-10-18T11:13:55Z</time>
      </trkpt>
      <trkpt lat="37.0407600" lon="-2.2008200">
        <ele>548.9</ele>
        <time>2019-10-18T11:13:56Z</time>
      </trkpt>
      <trkpt lat="37.0407600" lon="-2.2008210">
        <ele>548.9</ele>
        <time>2019-10-18T11:13:57Z</time>
      </trkpt>
      <trkpt lat="37.0407610" lon="-2.2008210">
        <ele>548.9</ele>
        <time>2019-10-18T11:13:58Z</time>
      </trkpt>
      <trkpt lat="37.0407610" lon="-2.2008210">
        <ele>548.9</ele>
        <time>2019-10-18T11:13:59Z</time>
      </trkpt>
      <trkpt lat="37.0407610" lon="-2.2008190">
        <ele>548.9</ele>
        <time>2019-10-18T11:14:00Z</time>
      </trkpt>
      <trkpt lat="37.0407610" lon="-2.2008190">
        <ele>548.9</ele>
        <time>2019-10-18T11:14:01Z</time>
      </trkpt>
      <trkpt lat="37.0407610" lon="-2.2008190">
        <ele>548.9</ele>
        <time>2019-10-18T11:14:02Z</time>
      </trkpt>
      <trkpt lat="37.0407600" lon="-2.2008200">
        <ele>548.9</ele>
        <time>2019-10-18T11:14:03Z</time>
      </trkpt>
      <trkpt lat="37.0407610" lon="-2.2008200">
        <ele>548.9</ele>
        <time>2019-10-18T11:14:04Z</time>
      </trkpt>
      <trkpt lat="37.0407620" lon="-2.2008200">
        <ele>548.9</ele>
        <time>2019-10-18T11:14:05Z</time>
      </trkpt>
      <trkpt lat="37.0407640" lon="-2.2008190">
        <ele>549.0</ele>
        <time>2019-10-18T11:14:06Z</time>
      </trkpt>
      <trkpt lat="37.0407650" lon="-2.2008180">
        <ele>549.0</ele>
        <time>2019-10-18T11:14:07Z</time>
      </trkpt>
      <trkpt lat="37.0407670" lon="-2.2008170">
        <ele>549.0</ele>
        <time>2019-10-18T11:14:08Z</time>
      </trkpt>
      <trkpt lat="37.0407680" lon="-2.2008160">
        <ele>549.0</ele>
        <time>2019-10-18T11:14:09Z</time>
      </trkpt>
      <trkpt lat="37.0407690" lon="-2.2008150">
        <ele>549.0</ele>
        <time>2019-10-18T11:14:10Z</time>
      </trkpt>
      <trkpt lat="37.0407700" lon="-2.2008140">
        <ele>549.0</ele>
        <time>2019-10-18T11:14:11Z</time>
      </trkpt>
      <trkpt lat="37.0407710" lon="-2.2008130">
        <ele>549.0</ele>
        <time>2019-10-18T11:14:12Z</time>
      </trkpt>
      <trkpt lat="37.0407720" lon="-2.2008130">
        <ele>549.0</ele>
        <time>2019-10-18T11:14:13Z</time>
      </trkpt>
      <trkpt lat="37.0407730" lon="-2.2008130">
        <ele>549.0</ele>
        <time>2019-10-18T11:14:14Z</time>
      </trkpt>
      <trkpt lat="37.0407730" lon="-2.2008130">
        <ele>549.0</ele>
        <time>2019-10-18T11:14:15Z</time>
      </trkpt>
      <trkpt lat="37.0407730" lon="-2.2008130">
        <ele>549.0</ele>
        <time>2019-10-18T11:14:16Z</time>
      </trkpt>
      <trkpt lat="37.0407740" lon="-2.2008120">
        <ele>549.0</ele>
        <time>2019-10-18T11:14:17Z</time>
      </trkpt>
      <trkpt lat="37.0407740" lon="-2.2008120">
        <ele>549.0</ele>
        <time>2019-10-18T11:14:18Z</time>
      </trkpt>
      <trkpt lat="37.0407730" lon="-2.2008120">
        <ele>549.0</ele>
        <time>2019-10-18T11:14:19Z</time>
      </trkpt>
      <trkpt lat="37.0407730" lon="-2.2008110">
        <ele>549.0</ele>
        <time>2019-10-18T11:14:20Z</time>
      </trkpt>
      <trkpt lat="37.0407730" lon="-2.2008110">
        <ele>549.0</ele>
        <time>2019-10-18T11:14:21Z</time>
      </trkpt>
      <trkpt lat="37.0407740" lon="-2.2008100">
        <ele>549.0</ele>
        <time>2019-10-18T11:14:22Z</time>
      </trkpt>
      <trkpt lat="37.0407740" lon="-2.2008090">
        <ele>549.0</ele>
        <time>2019-10-18T11:14:23Z</time>
      </trkpt>
      <trkpt lat="37.0407740" lon="-2.2008070">
        <ele>549.0</ele>
        <time>2019-10-18T11:14:24Z</time>
      </trkpt>
      <trkpt lat="37.0407740" lon="-2.2008070">
        <ele>549.0</ele>
        <time>2019-10-18T11:14:25Z</time>
      </trkpt>
      <trkpt lat="37.0407740" lon="-2.2008060">
        <ele>549.0</ele>
        <time>2019-10-18T11:14:26Z</time>
      </trkpt>
      <trkpt lat="37.0407740" lon="-2.2008060">
        <ele>549.0</ele>
        <time>2019-10-18T11:14:27Z</time>
      </trkpt>
      <trkpt lat="37.0407740" lon="-2.2008060">
        <ele>549.0</ele>
        <time>2019-10-18T11:14:28Z</time>
      </trkpt>
      <trkpt lat="37.0407740" lon="-2.2008060">
        <ele>549.0</ele>
        <time>2019-10-18T11:14:29Z</time>
      </trkpt>
      <trkpt lat="37.0407740" lon="-2.2008050">
        <ele>549.0</ele>
        <time>2019-10-18T11:14:30Z</time>
      </trkpt>
      <trkpt lat="37.0407740" lon="-2.2008040">
        <ele>549.0</ele>
        <time>2019-10-18T11:14:31Z</time>
      </trkpt>
      <trkpt lat="37.0407750" lon="-2.2008020">
        <ele>549.0</ele>
        <time>2019-10-18T11:14:32Z</time>
      </trkpt>
      <trkpt lat="37.0407750" lon="-2.2008000">
        <ele>549.0</ele>
        <time>2019-10-18T11:14:33Z</time>
      </trkpt>
      <trkpt lat="37.0407760" lon="-2.2007990">
        <ele>549.0</ele>
        <time>2019-10-18T11:14:34Z</time>
      </trkpt>
      <trkpt lat="37.0407760" lon="-2.2007980">
        <ele>549.0</ele>
        <time>2019-10-18T11:14:35Z</time>
      </trkpt>
      <trkpt lat="37.0407760" lon="-2.2007980">
        <ele>549.0</ele>
        <time>2019-10-18T11:14:36Z</time>
      </trkpt>
      <trkpt lat="37.0407770" lon="-2.2007980">
        <ele>549.0</ele>
        <time>2019-10-18T11:14:37Z</time>
      </trkpt>
      <trkpt lat="37.0407770" lon="-2.2007970">
        <ele>549.0</ele>
        <time>2019-10-18T11:14:38Z</time>
      </trkpt>
      <trkpt lat="37.0407770" lon="-2.2007970">
        <ele>549.0</ele>
        <time>2019-10-18T11:14:39Z</time>
      </trkpt>
      <trkpt lat="37.0407780" lon="-2.2007960">
        <ele>549.0</ele>
        <time>2019-10-18T11:14:40Z</time>
      </trkpt>
      <trkpt lat="37.0407780" lon="-2.2007960">
        <ele>549.0</ele>
        <time>2019-10-18T11:14:41Z</time>
      </trkpt>
      <trkpt lat="37.0407780" lon="-2.2007960">
        <ele>549.0</ele>
        <time>2019-10-18T11:14:42Z</time>
      </trkpt>
      <trkpt lat="37.0407790" lon="-2.2007950">
        <ele>549.0</ele>
        <time>2019-10-18T11:14:43Z</time>
      </trkpt>
      <trkpt lat="37.0407790" lon="-2.2007950">
        <ele>549.0</ele>
        <time>2019-10-18T11:14:44Z</time>
      </trkpt>
      <trkpt lat="37.0407800" lon="-2.2007950">
        <ele>549.0</ele>
        <time>2019-10-18T11:14:45Z</time>
      </trkpt>
      <trkpt lat="37.0407800" lon="-2.2007950">
        <ele>549.0</ele>
        <time>2019-10-18T11:14:46Z</time>
      </trkpt>
      <trkpt lat="37.0407800" lon="-2.2007950">
        <ele>549.0</ele>
        <time>2019-10-18T11:14:47Z</time>
      </trkpt>
      <trkpt lat="37.0407800" lon="-2.2007950">
        <ele>549.0</ele>
        <time>2019-10-18T11:14:48Z</time>
      </trkpt>
      <trkpt lat="37.0407800" lon="-2.2007950">
        <ele>549.0</ele>
        <time>2019-10-18T11:14:49Z</time>
      </trkpt>
      <trkpt lat="37.0407800" lon="-2.2007950">
        <ele>549.0</ele>
        <time>2019-10-18T11:14:50Z</time>
      </trkpt>
      <trkpt lat="37.0407800" lon="-2.2007950">
        <ele>549.0</ele>
        <time>2019-10-18T11:14:51Z</time>
      </trkpt>
      <trkpt lat="37.0407800" lon="-2.2007950">
        <ele>549.0</ele>
        <time>2019-10-18T11:14:52Z</time>
      </trkpt>
      <trkpt lat="37.0407800" lon="-2.2007950">
        <ele>549.0</ele>
        <time>2019-10-18T11:14:53Z</time>
      </trkpt>
      <trkpt lat="37.0407800" lon="-2.2007950">
        <ele>549.0</ele>
        <time>2019-10-18T11:14:54Z</time>
      </trkpt>
      <trkpt lat="37.0407800" lon="-2.2007950">
        <ele>549.0</ele>
        <time>2019-10-18T11:14:55Z</time>
      </trkpt>
      <trkpt lat="37.0407790" lon="-2.2007940">
        <ele>549.0</ele>
        <time>2019-10-18T11:14:56Z</time>
      </trkpt>
      <trkpt lat="37.0407790" lon="-2.2007940">
        <ele>549.0</ele>
        <time>2019-10-18T11:14:57Z</time>
      </trkpt>
      <trkpt lat="37.0407790" lon="-2.2007940">
        <ele>549.0</ele>
        <time>2019-10-18T11:14:58Z</time>
      </trkpt>
      <trkpt lat="37.0407790" lon="-2.2007940">
        <ele>549.0</ele>
        <time>2019-10-18T11:14:59Z</time>
      </trkpt>
      <trkpt lat="37.0407790" lon="-2.2007940">
        <ele>549.0</ele>
        <time>2019-10-18T11:15:00Z</time>
      </trkpt>
      <trkpt lat="37.0407780" lon="-2.2007940">
        <ele>549.0</ele>
        <time>2019-10-18T11:15:01Z</time>
      </trkpt>
      <trkpt lat="37.0407780" lon="-2.2007940">
        <ele>549.0</ele>
        <time>2019-10-18T11:15:02Z</time>
      </trkpt>
      <trkpt lat="37.0407780" lon="-2.2007950">
        <ele>549.0</ele>
        <time>2019-10-18T11:15:03Z</time>
      </trkpt>
      <trkpt lat="37.0407770" lon="-2.2007950">
        <ele>549.0</ele>
        <time>2019-10-18T11:15:04Z</time>
      </trkpt>
      <trkpt lat="37.0407770" lon="-2.2007950">
        <ele>549.0</ele>
        <time>2019-10-18T11:15:05Z</time>
      </trkpt>
      <trkpt lat="37.0407760" lon="-2.2007950">
        <ele>549.0</ele>
        <time>2019-10-18T11:15:06Z</time>
      </trkpt>
      <trkpt lat="37.0407760" lon="-2.2007960">
        <ele>549.0</ele>
        <time>2019-10-18T11:15:07Z</time>
      </trkpt>
      <trkpt lat="37.0407760" lon="-2.2007960">
        <ele>549.0</ele>
        <time>2019-10-18T11:15:08Z</time>
      </trkpt>
      <trkpt lat="37.0407760" lon="-2.2007970">
        <ele>549.0</ele>
        <time>2019-10-18T11:15:09Z</time>
      </trkpt>
      <trkpt lat="37.0407750" lon="-2.2007970">
        <ele>549.0</ele>
        <time>2019-10-18T11:15:10Z</time>
      </trkpt>
      <trkpt lat="37.0407750" lon="-2.2007980">
        <ele>549.0</ele>
        <time>2019-10-18T11:15:11Z</time>
      </trkpt>
      <trkpt lat="37.0407740" lon="-2.2007980">
        <ele>549.0</ele>
        <time>2019-10-18T11:15:12Z</time>
      </trkpt>
      <trkpt lat="37.0407730" lon="-2.2008000">
        <ele>549.0</ele>
        <time>2019-10-18T11:15:13Z</time>
      </trkpt>
      <trkpt lat="37.0407730" lon="-2.2008010">
        <ele>549.0</ele>
        <time>2019-10-18T11:15:14Z</time>
      </trkpt>
      <trkpt lat="37.0407730" lon="-2.2008020">
        <ele>549.0</ele>
        <time>2019-10-18T11:15:15Z</time>
      </trkpt>
      <trkpt lat="37.0407720" lon="-2.2008030">
        <ele>549.0</ele>
        <time>2019-10-18T11:15:16Z</time>
      </trkpt>
      <trkpt lat="37.0407720" lon="-2.2008040">
        <ele>549.0</ele>
        <time>2019-10-18T11:15:17Z</time>
      </trkpt>
      <trkpt lat="37.0407730" lon="-2.2008040">
        <ele>549.0</ele>
        <time>2019-10-18T11:15:18Z</time>
      </trkpt>
      <trkpt lat="37.0407730" lon="-2.2008030">
        <ele>549.0</ele>
        <time>2019-10-18T11:15:19Z</time>
      </trkpt>
      <trkpt lat="37.0407730" lon="-2.2008030">
        <ele>549.0</ele>
        <time>2019-10-18T11:15:20Z</time>
      </trkpt>
      <trkpt lat="37.0407730" lon="-2.2008030">
        <ele>549.0</ele>
        <time>2019-10-18T11:15:21Z</time>
      </trkpt>
      <trkpt lat="37.0407730" lon="-2.2008030">
        <ele>549.0</ele>
        <time>2019-10-18T11:15:22Z</time>
      </trkpt>
      <trkpt lat="37.0407740" lon="-2.2008030">
        <ele>549.0</ele>
        <time>2019-10-18T11:15:23Z</time>
      </trkpt>
      <trkpt lat="37.0407740" lon="-2.2008020">
        <ele>549.0</ele>
        <time>2019-10-18T11:15:24Z</time>
      </trkpt>
      <trkpt lat="37.0407750" lon="-2.2008020">
        <ele>549.0</ele>
        <time>2019-10-18T11:15:25Z</time>
      </trkpt>
      <trkpt lat="37.0407760" lon="-2.2008010">
        <ele>549.0</ele>
        <time>2019-10-18T11:15:26Z</time>
      </trkpt>
      <trkpt lat="37.0407770" lon="-2.2008010">
        <ele>549.0</ele>
        <time>2019-10-18T11:15:27Z</time>
      </trkpt>
      <trkpt lat="37.0407780" lon="-2.2008010">
        <ele>549.0</ele>
        <time>2019-10-18T11:15:28Z</time>
      </trkpt>
      <trkpt lat="37.0407770" lon="-2.2008010">
        <ele>549.0</ele>
        <time>2019-10-18T11:15:29Z</time>
      </trkpt>
      <trkpt lat="37.0407760" lon="-2.2008010">
        <ele>549.0</ele>
        <time>2019-10-18T11:15:30Z</time>
      </trkpt>
      <trkpt lat="37.0407750" lon="-2.2008010">
        <ele>549.0</ele>
        <time>2019-10-18T11:15:31Z</time>
      </trkpt>
      <trkpt lat="37.0407750" lon="-2.2008010">
        <ele>549.0</ele>
        <time>2019-10-18T11:15:32Z</time>
      </trkpt>
      <trkpt lat="37.0407760" lon="-2.2008000">
        <ele>549.0</ele>
        <time>2019-10-18T11:15:33Z</time>
      </trkpt>
      <trkpt lat="37.0407760" lon="-2.2008000">
        <ele>549.0</ele>
        <time>2019-10-18T11:15:34Z</time>
      </trkpt>
      <trkpt lat="37.0407760" lon="-2.2008000">
        <ele>549.0</ele>
        <time>2019-10-18T11:15:35Z</time>
      </trkpt>
      <trkpt lat="37.0407760" lon="-2.2008000">
        <ele>549.0</ele>
        <time>2019-10-18T11:15:36Z</time>
      </trkpt>
      <trkpt lat="37.0407760" lon="-2.2008000">
        <ele>549.0</ele>
        <time>2019-10-18T11:15:37Z</time>
      </trkpt>
      <trkpt lat="37.0407750" lon="-2.2008000">
        <ele>549.0</ele>
        <time>2019-10-18T11:15:38Z</time>
      </trkpt>
      <trkpt lat="37.0407750" lon="-2.2008000">
        <ele>549.0</ele>
        <time>2019-10-18T11:15:39Z</time>
      </trkpt>
      <trkpt lat="37.0407750" lon="-2.2008000">
        <ele>549.0</ele>
        <time>2019-10-18T11:15:40Z</time>
      </trkpt>
      <trkpt lat="37.0407740" lon="-2.2008000">
        <ele>549.0</ele>
        <time>2019-10-18T11:15:41Z</time>
      </trkpt>
      <trkpt lat="37.0407740" lon="-2.2008010">
        <ele>549.0</ele>
        <time>2019-10-18T11:15:42Z</time>
      </trkpt>
      <trkpt lat="37.0407740" lon="-2.2008010">
        <ele>549.0</ele>
        <time>2019-10-18T11:15:43Z</time>
      </trkpt>
      <trkpt lat="37.0407740" lon="-2.2008000">
        <ele>549.0</ele>
        <time>2019-10-18T11:15:44Z</time>
      </trkpt>
      <trkpt lat="37.0407740" lon="-2.2008000">
        <ele>549.0</ele>
        <time>2019-10-18T11:15:45Z</time>
      </trkpt>
      <trkpt lat="37.0407740" lon="-2.2008000">
        <ele>549.0</ele>
        <time>2019-10-18T11:15:46Z</time>
      </trkpt>
      <trkpt lat="37.0407740" lon="-2.2008000">
        <ele>549.0</ele>
        <time>2019-10-18T11:15:47Z</time>
      </trkpt>
      <trkpt lat="37.0407740" lon="-2.2008000">
        <ele>549.0</ele>
        <time>2019-10-18T11:15:48Z</time>
      </trkpt>
      <trkpt lat="37.0407730" lon="-2.2008000">
        <ele>549.0</ele>
        <time>2019-10-18T11:15:49Z</time>
      </trkpt>
      <trkpt lat="37.0407730" lon="-2.2008000">
        <ele>549.0</ele>
        <time>2019-10-18T11:15:50Z</time>
      </trkpt>
      <trkpt lat="37.0407730" lon="-2.2008000">
        <ele>549.0</ele>
        <time>2019-10-18T11:15:51Z</time>
      </trkpt>
      <trkpt lat="37.0407730" lon="-2.2008010">
        <ele>549.0</ele>
        <time>2019-10-18T11:15:52Z</time>
      </trkpt>
      <trkpt lat="37.0407730" lon="-2.2008010">
        <ele>549.0</ele>
        <time>2019-10-18T11:15:53Z</time>
      </trkpt>
      <trkpt lat="37.0407720" lon="-2.2008020">
        <ele>549.0</ele>
        <time>2019-10-18T11:15:54Z</time>
      </trkpt>
      <trkpt lat="37.0407720" lon="-2.2008020">
        <ele>549.0</ele>
        <time>2019-10-18T11:15:55Z</time>
      </trkpt>
      <trkpt lat="37.0407720" lon="-2.2008020">
        <ele>549.0</ele>
        <time>2019-10-18T11:15:56Z</time>
      </trkpt>
      <trkpt lat="37.0407710" lon="-2.2008030">
        <ele>549.0</ele>
        <time>2019-10-18T11:15:57Z</time>
      </trkpt>
      <trkpt lat="37.0407710" lon="-2.2008030">
        <ele>549.0</ele>
        <time>2019-10-18T11:15:58Z</time>
      </trkpt>
      <trkpt lat="37.0407700" lon="-2.2008030">
        <ele>549.0</ele>
        <time>2019-10-18T11:15:59Z</time>
      </trkpt>
      <trkpt lat="37.0407700" lon="-2.2008040">
        <ele>549.0</ele>
        <time>2019-10-18T11:16:00Z</time>
      </trkpt>
      <trkpt lat="37.0407700" lon="-2.2008040">
        <ele>549.0</ele>
        <time>2019-10-18T11:16:01Z</time>
      </trkpt>
      <trkpt lat="37.0407690" lon="-2.2008040">
        <ele>549.0</ele>
        <time>2019-10-18T11:16:02Z</time>
      </trkpt>
      <trkpt lat="37.0407690" lon="-2.2008050">
        <ele>549.0</ele>
        <time>2019-10-18T11:16:03Z</time>
      </trkpt>
      <trkpt lat="37.0407680" lon="-2.2008050">
        <ele>549.0</ele>
        <time>2019-10-18T11:16:04Z</time>
      </trkpt>
      <trkpt lat="37.0407680" lon="-2.2008050">
        <ele>549.0</ele>
        <time>2019-10-18T11:16:05Z</time>
      </trkpt>
      <trkpt lat="37.0407670" lon="-2.2008050">
        <ele>549.0</ele>
        <time>2019-10-18T11:16:06Z</time>
      </trkpt>
      <trkpt lat="37.0407670" lon="-2.2008050">
        <ele>549.0</ele>
        <time>2019-10-18T11:16:07Z</time>
      </trkpt>
      <trkpt lat="37.0407660" lon="-2.2008050">
        <ele>549.0</ele>
        <time>2019-10-18T11:16:08Z</time>
      </trkpt>
      <trkpt lat="37.0407660" lon="-2.2008060">
        <ele>549.0</ele>
        <time>2019-10-18T11:16:09Z</time>
      </trkpt>
      <trkpt lat="37.0407650" lon="-2.2008060">
        <ele>549.0</ele>
        <time>2019-10-18T11:16:10Z</time>
      </trkpt>
      <trkpt lat="37.0407650" lon="-2.2008060">
        <ele>549.0</ele>
        <time>2019-10-18T11:16:11Z</time>
      </trkpt>
      <trkpt lat="37.0407650" lon="-2.2008070">
        <ele>549.0</ele>
        <time>2019-10-18T11:16:12Z</time>
      </trkpt>
      <trkpt lat="37.0407640" lon="-2.2008070">
        <ele>549.0</ele>
        <time>2019-10-18T11:16:13Z</time>
      </trkpt>
      <trkpt lat="37.0407640" lon="-2.2008070">
        <ele>549.0</ele>
        <time>2019-10-18T11:16:14Z</time>
      </trkpt>
      <trkpt lat="37.0407640" lon="-2.2008070">
        <ele>549.0</ele>
        <time>2019-10-18T11:16:15Z</time>
      </trkpt>
      <trkpt lat="37.0440100" lon="-2.2039630">
        <ele>526.9</ele>
        <time>2019-10-18T11:37:43Z</time>
      </trkpt>
      <trkpt lat="37.0440130" lon="-2.2040010">
        <ele>527.2</ele>
        <time>2019-10-18T11:37:44Z</time>
      </trkpt>
      <trkpt lat="37.0440160" lon="-2.2040390">
        <ele>527.4</ele>
        <time>2019-10-18T11:37:45Z</time>
      </trkpt>
      <trkpt lat="37.0440200" lon="-2.2040760">
        <ele>527.6</ele>
        <time>2019-10-18T11:37:46Z</time>
      </trkpt>
      <trkpt lat="37.0440260" lon="-2.2041140">
        <ele>527.9</ele>
        <time>2019-10-18T11:37:47Z</time>
      </trkpt>
      <trkpt lat="37.0440340" lon="-2.2041500">
        <ele>528.1</ele>
        <time>2019-10-18T11:37:48Z</time>
      </trkpt>
      <trkpt lat="37.0440450" lon="-2.2041850">
        <ele>528.3</ele>
        <time>2019-10-18T11:37:49Z</time>
      </trkpt>
      <trkpt lat="37.0440590" lon="-2.2042190">
        <ele>528.5</ele>
        <time>2019-10-18T11:37:50Z</time>
      </trkpt>
      <trkpt lat="37.0440740" lon="-2.2042510">
        <ele>528.7</ele>
        <time>2019-10-18T11:37:51Z</time>
      </trkpt>
      <trkpt lat="37.0440890" lon="-2.2042830">
        <ele>528.9</ele>
        <time>2019-10-18T11:37:52Z</time>
      </trkpt>
      <trkpt lat="37.0441040" lon="-2.2043140">
        <ele>529.1</ele>
        <time>2019-10-18T11:37:53Z</time>
      </trkpt>
      <trkpt lat="37.0441180" lon="-2.2043460">
        <ele>529.3</ele>
        <time>2019-10-18T11:37:54Z</time>
      </trkpt>
      <trkpt lat="37.0441320" lon="-2.2043770">
        <ele>529.6</ele>
        <time>2019-10-18T11:37:55Z</time>
      </trkpt>
      <trkpt lat="37.0441450" lon="-2.2044090">
        <ele>529.8</ele>
        <time>2019-10-18T11:37:56Z</time>
      </trkpt>
      <trkpt lat="37.0441560" lon="-2.2044420">
        <ele>530.0</ele>
        <time>2019-10-18T11:37:57Z</time>
      </trkpt>
      <trkpt lat="37.0441650" lon="-2.2044760">
        <ele>530.2</ele>
        <time>2019-10-18T11:37:58Z</time>
      </trkpt>
      <trkpt lat="37.0441720" lon="-2.2045110">
        <ele>530.4</ele>
        <time>2019-10-18T11:37:59Z</time>
      </trkpt>
      <trkpt lat="37.0441790" lon="-2.2045460">
        <ele>530.6</ele>
        <time>2019-10-18T11:38:00Z</time>
      </trkpt>
      <trkpt lat="37.0441840" lon="-2.2045820">
        <ele>530.8</ele>
        <time>2019-10-18T11:38:01Z</time>
      </trkpt>
      <trkpt lat="37.0441890" lon="-2.2046190">
        <ele>531.0</ele>
        <time>2019-10-18T11:38:02Z</time>
      </trkpt>
      <trkpt lat="37.0441920" lon="-2.2046550">
        <ele>531.1</ele>
        <time>2019-10-18T11:38:03Z</time>
      </trkpt>
      <trkpt lat="37.0441960" lon="-2.2046910">
        <ele>531.2</ele>
        <time>2019-10-18T11:38:04Z</time>
      </trkpt>
      <trkpt lat="37.0441990" lon="-2.2047280">
        <ele>531.3</ele>
        <time>2019-10-18T11:38:05Z</time>
      </trkpt>
      <trkpt lat="37.0442020" lon="-2.2047650">
        <ele>531.4</ele>
        <time>2019-10-18T11:38:06Z</time>
      </trkpt>
      <trkpt lat="37.0442050" lon="-2.2048010">
        <ele>531.5</ele>
        <time>2019-10-18T11:38:07Z</time>
      </trkpt>
      <trkpt lat="37.0442080" lon="-2.2048370">
        <ele>531.7</ele>
        <time>2019-10-18T11:38:08Z</time>
      </trkpt>
      <trkpt lat="37.0442120" lon="-2.2048740">
        <ele>531.8</ele>
        <time>2019-10-18T11:38:09Z</time>
      </trkpt>
      <trkpt lat="37.0442160" lon="-2.2049100">
        <ele>531.9</ele>
        <time>2019-10-18T11:38:10Z</time>
      </trkpt>
      <trkpt lat="37.0442190" lon="-2.2049460">
        <ele>532.0</ele>
        <time>2019-10-18T11:38:11Z</time>
      </trkpt>
      <trkpt lat="37.0442230" lon="-2.2049810">
        <ele>532.2</ele>
        <time>2019-10-18T11:38:12Z</time>
      </trkpt>
      <trkpt lat="37.0442260" lon="-2.2050170">
        <ele>532.4</ele>
        <time>2019-10-18T11:38:13Z</time>
      </trkpt>
      <trkpt lat="37.0442290" lon="-2.2050520">
        <ele>532.5</ele>
        <time>2019-10-18T11:38:14Z</time>
      </trkpt>
      <trkpt lat="37.0442330" lon="-2.2050870">
        <ele>532.7</ele>
        <time>2019-10-18T11:38:15Z</time>
      </trkpt>
      <trkpt lat="37.0442360" lon="-2.2051220">
        <ele>532.8</ele>
        <time>2019-10-18T11:38:16Z</time>
      </trkpt>
      <trkpt lat="37.0442380" lon="-2.2051570">
        <ele>532.9</ele>
        <time>2019-10-18T11:38:17Z</time>
      </trkpt>
      <trkpt lat="37.0442400" lon="-2.2051910">
        <ele>533.1</ele>
        <time>2019-10-18T11:38:18Z</time>
      </trkpt>
      <trkpt lat="37.0442440" lon="-2.2052250">
        <ele>533.2</ele>
        <time>2019-10-18T11:38:19Z</time>
      </trkpt>
      <trkpt lat="37.0442480" lon="-2.2052590">
        <ele>533.3</ele>
        <time>2019-10-18T11:38:20Z</time>
      </trkpt>
      <trkpt lat="37.0442520" lon="-2.2052940">
        <ele>533.4</ele>
        <time>2019-10-18T11:38:21Z</time>
      </trkpt>
      <trkpt lat="37.0442560" lon="-2.2053290">
        <ele>533.6</ele>
        <time>2019-10-18T11:38:22Z</time>
      </trkpt>
      <trkpt lat="37.0442590" lon="-2.2053650">
        <ele>533.7</ele>
        <time>2019-10-18T11:38:23Z</time>
      </trkpt>
      <trkpt lat="37.0442620" lon="-2.2054010">
        <ele>533.9</ele>
        <time>2019-10-18T11:38:24Z</time>
      </trkpt>
      <trkpt lat="37.0442640" lon="-2.2054380">
        <ele>534.0</ele>
        <time>2019-10-18T11:38:25Z</time>
      </trkpt>
      <trkpt lat="37.0442660" lon="-2.2054750">
        <ele>534.2</ele>
        <time>2019-10-18T11:38:26Z</time>
      </trkpt>
      <trkpt lat="37.0442690" lon="-2.2055110">
        <ele>534.4</ele>
        <time>2019-10-18T11:38:27Z</time>
      </trkpt>
      <trkpt lat="37.0442710" lon="-2.2055480">
        <ele>534.5</ele>
        <time>2019-10-18T11:38:28Z</time>
      </trkpt>
      <trkpt lat="37.0442740" lon="-2.2055850">
        <ele>534.6</ele>
        <time>2019-10-18T11:38:29Z</time>
      </trkpt>
      <trkpt lat="37.0442760" lon="-2.2056210">
        <ele>534.8</ele>
        <time>2019-10-18T11:38:30Z</time>
      </trkpt>
      <trkpt lat="37.0442780" lon="-2.2056580">
        <ele>534.9</ele>
        <time>2019-10-18T11:38:31Z</time>
      </trkpt>
      <trkpt lat="37.0442810" lon="-2.2056960">
        <ele>535.0</ele>
        <time>2019-10-18T11:38:32Z</time>
      </trkpt>
      <trkpt lat="37.0442840" lon="-2.2057340">
        <ele>535.2</ele>
        <time>2019-10-18T11:38:33Z</time>
      </trkpt>
      <trkpt lat="37.0442870" lon="-2.2057720">
        <ele>535.3</ele>
        <time>2019-10-18T11:38:34Z</time>
      </trkpt>
      <trkpt lat="37.0442900" lon="-2.2058110">
        <ele>535.5</ele>
        <time>2019-10-18T11:38:35Z</time>
      </trkpt>
      <trkpt lat="37.0442930" lon="-2.2058490">
        <ele>535.7</ele>
        <time>2019-10-18T11:38:36Z</time>
      </trkpt>
      <trkpt lat="37.0442960" lon="-2.2058880">
        <ele>535.9</ele>
        <time>2019-10-18T11:38:37Z</time>
      </trkpt>
      <trkpt lat="37.0442980" lon="-2.2059260">
        <ele>536.1</ele>
        <time>2019-10-18T11:38:38Z</time>
      </trkpt>
      <trkpt lat="37.0443010" lon="-2.2059640">
        <ele>536.2</ele>
        <time>2019-10-18T11:38:39Z</time>
      </trkpt>
      <trkpt lat="37.0443040" lon="-2.2060010">
        <ele>536.5</ele>
        <time>2019-10-18T11:38:40Z</time>
      </trkpt>
      <trkpt lat="37.0443060" lon="-2.2060390">
        <ele>536.7</ele>
        <time>2019-10-18T11:38:41Z</time>
      </trkpt>
      <trkpt lat="37.0443090" lon="-2.2060770">
        <ele>536.9</ele>
        <time>2019-10-18T11:38:42Z</time>
      </trkpt>
      <trkpt lat="37.0443120" lon="-2.2061160">
        <ele>537.1</ele>
        <time>2019-10-18T11:38:43Z</time>
      </trkpt>
      <trkpt lat="37.0443150" lon="-2.2061540">
        <ele>537.3</ele>
        <time>2019-10-18T11:38:44Z</time>
      </trkpt>
      <trkpt lat="37.0443170" lon="-2.2061930">
        <ele>537.4</ele>
        <time>2019-10-18T11:38:45Z</time>
      </trkpt>
      <trkpt lat="37.0443200" lon="-2.2062320">
        <ele>537.5</ele>
        <time>2019-10-18T11:38:46Z</time>
      </trkpt>
      <trkpt lat="37.0443240" lon="-2.2062700">
        <ele>537.6</ele>
        <time>2019-10-18T11:38:47Z</time>
      </trkpt>
      <trkpt lat="37.0443270" lon="-2.2063090">
        <ele>537.7</ele>
        <time>2019-10-18T11:38:48Z</time>
      </trkpt>
      <trkpt lat="37.0443310" lon="-2.2063480">
        <ele>537.8</ele>
        <time>2019-10-18T11:38:49Z</time>
      </trkpt>
      <trkpt lat="37.0443340" lon="-2.2063860">
        <ele>538.0</ele>
        <time>2019-10-18T11:38:50Z</time>
      </trkpt>
      <trkpt lat="37.0443370" lon="-2.2064240">
        <ele>538.0</ele>
        <time>2019-10-18T11:38:51Z</time>
      </trkpt>
      <trkpt lat="37.0443400" lon="-2.2064620">
        <ele>538.1</ele>
        <time>2019-10-18T11:38:52Z</time>
      </trkpt>
      <trkpt lat="37.0443420" lon="-2.2065000">
        <ele>538.2</ele>
        <time>2019-10-18T11:38:53Z</time>
      </trkpt>
      <trkpt lat="37.0443440" lon="-2.2065380">
        <ele>538.3</ele>
        <time>2019-10-18T11:38:54Z</time>
      </trkpt>
      <trkpt lat="37.0443460" lon="-2.2065770">
        <ele>538.4</ele>
        <time>2019-10-18T11:38:55Z</time>
      </trkpt>
      <trkpt lat="37.0443480" lon="-2.2066160">
        <ele>538.5</ele>
        <time>2019-10-18T11:38:56Z</time>
      </trkpt>
      <trkpt lat="37.0443500" lon="-2.2066550">
        <ele>538.6</ele>
        <time>2019-10-18T11:38:57Z</time>
      </trkpt>
      <trkpt lat="37.0443530" lon="-2.2066930">
        <ele>538.7</ele>
        <time>2019-10-18T11:38:58Z</time>
      </trkpt>
      <trkpt lat="37.0443560" lon="-2.2067320">
        <ele>538.8</ele>
        <time>2019-10-18T11:38:59Z</time>
      </trkpt>
      <trkpt lat="37.0443600" lon="-2.2067700">
        <ele>538.9</ele>
        <time>2019-10-18T11:39:00Z</time>
      </trkpt>
      <trkpt lat="37.0443630" lon="-2.2068070">
        <ele>538.9</ele>
        <time>2019-10-18T11:39:01Z</time>
      </trkpt>
      <trkpt lat="37.0443650" lon="-2.2068450">
        <ele>539.0</ele>
        <time>2019-10-18T11:39:02Z</time>
      </trkpt>
      <trkpt lat="37.0443680" lon="-2.2068810">
        <ele>539.1</ele>
        <time>2019-10-18T11:39:03Z</time>
      </trkpt>
      <trkpt lat="37.0443710" lon="-2.2069180">
        <ele>539.2</ele>
        <time>2019-10-18T11:39:04Z</time>
      </trkpt>
      <trkpt lat="37.0443730" lon="-2.2069540">
        <ele>539.3</ele>
        <time>2019-10-18T11:39:05Z</time>
      </trkpt>
      <trkpt lat="37.0443760" lon="-2.2069910">
        <ele>539.6</ele>
        <time>2019-10-18T11:39:06Z</time>
      </trkpt>
      <trkpt lat="37.0443790" lon="-2.2070270">
        <ele>539.9</ele>
        <time>2019-10-18T11:39:07Z</time>
      </trkpt>
      <trkpt lat="37.0443810" lon="-2.2070630">
        <ele>540.2</ele>
        <time>2019-10-18T11:39:08Z</time>
      </trkpt>
      <trkpt lat="37.0443860" lon="-2.2070990">
        <ele>540.3</ele>
        <time>2019-10-18T11:39:09Z</time>
      </trkpt>
      <trkpt lat="37.0443900" lon="-2.2071340">
        <ele>540.5</ele>
        <time>2019-10-18T11:39:10Z</time>
      </trkpt>
      <trkpt lat="37.0443950" lon="-2.2071690">
        <ele>540.7</ele>
        <time>2019-10-18T11:39:11Z</time>
      </trkpt>
      <trkpt lat="37.0443990" lon="-2.2072040">
        <ele>540.8</ele>
        <time>2019-10-18T11:39:12Z</time>
      </trkpt>
      <trkpt lat="37.0444020" lon="-2.2072380">
        <ele>541.0</ele>
        <time>2019-10-18T11:39:13Z</time>
      </trkpt>
      <trkpt lat="37.0444060" lon="-2.2072720">
        <ele>541.2</ele>
        <time>2019-10-18T11:39:14Z</time>
      </trkpt>
      <trkpt lat="37.0444080" lon="-2.2073060">
        <ele>541.3</ele>
        <time>2019-10-18T11:39:15Z</time>
      </trkpt>
      <trkpt lat="37.0444100" lon="-2.2073410">
        <ele>541.5</ele>
        <time>2019-10-18T11:39:16Z</time>
      </trkpt>
      <trkpt lat="37.0444110" lon="-2.2073750">
        <ele>541.7</ele>
        <time>2019-10-18T11:39:17Z</time>
      </trkpt>
      <trkpt lat="37.0444140" lon="-2.2074080">
        <ele>541.9</ele>
        <time>2019-10-18T11:39:18Z</time>
      </trkpt>
      <trkpt lat="37.0444180" lon="-2.2074420">
        <ele>542.0</ele>
        <time>2019-10-18T11:39:19Z</time>
      </trkpt>
      <trkpt lat="37.0444220" lon="-2.2074750">
        <ele>542.2</ele>
        <time>2019-10-18T11:39:20Z</time>
      </trkpt>
      <trkpt lat="37.0444270" lon="-2.2075080">
        <ele>542.4</ele>
        <time>2019-10-18T11:39:21Z</time>
      </trkpt>
      <trkpt lat="37.0444330" lon="-2.2075420">
        <ele>542.5</ele>
        <time>2019-10-18T11:39:22Z</time>
      </trkpt>
      <trkpt lat="37.0444380" lon="-2.2075760">
        <ele>542.7</ele>
        <time>2019-10-18T11:39:23Z</time>
      </trkpt>
      <trkpt lat="37.0444420" lon="-2.2076110">
        <ele>542.9</ele>
        <time>2019-10-18T11:39:24Z</time>
      </trkpt>
      <trkpt lat="37.0444460" lon="-2.2076450">
        <ele>543.1</ele>
        <time>2019-10-18T11:39:25Z</time>
      </trkpt>
      <trkpt lat="37.0444500" lon="-2.2076800">
        <ele>543.2</ele>
        <time>2019-10-18T11:39:26Z</time>
      </trkpt>
      <trkpt lat="37.0444530" lon="-2.2077150">
        <ele>543.4</ele>
        <time>2019-10-18T11:39:27Z</time>
      </trkpt>
      <trkpt lat="37.0444580" lon="-2.2077500">
        <ele>543.6</ele>
        <time>2019-10-18T11:39:28Z</time>
      </trkpt>
      <trkpt lat="37.0444630" lon="-2.2077850">
        <ele>543.8</ele>
        <time>2019-10-18T11:39:29Z</time>
      </trkpt>
      <trkpt lat="37.0444670" lon="-2.2078210">
        <ele>544.1</ele>
        <time>2019-10-18T11:39:30Z</time>
      </trkpt>
      <trkpt lat="37.0444720" lon="-2.2078570">
        <ele>544.3</ele>
        <time>2019-10-18T11:39:31Z</time>
      </trkpt>
      <trkpt lat="37.0444770" lon="-2.2078920">
        <ele>544.5</ele>
        <time>2019-10-18T11:39:32Z</time>
      </trkpt>
      <trkpt lat="37.0444810" lon="-2.2079280">
        <ele>544.7</ele>
        <time>2019-10-18T11:39:33Z</time>
      </trkpt>
      <trkpt lat="37.0444850" lon="-2.2079640">
        <ele>545.0</ele>
        <time>2019-10-18T11:39:34Z</time>
      </trkpt>
      <trkpt lat="37.0444890" lon="-2.2080000">
        <ele>545.2</ele>
        <time>2019-10-18T11:39:35Z</time>
      </trkpt>
      <trkpt lat="37.0444940" lon="-2.2080370">
        <ele>545.4</ele>
        <time>2019-10-18T11:39:36Z</time>
      </trkpt>
      <trkpt lat="37.0444990" lon="-2.2080740">
        <ele>545.6</ele>
        <time>2019-10-18T11:39:37Z</time>
      </trkpt>
      <trkpt lat="37.0445040" lon="-2.2081110">
        <ele>545.8</ele>
        <time>2019-10-18T11:39:38Z</time>
      </trkpt>
      <trkpt lat="37.0445080" lon="-2.2081490">
        <ele>546.0</ele>
        <time>2019-10-18T11:39:39Z</time>
      </trkpt>
      <trkpt lat="37.0445130" lon="-2.2081870">
        <ele>546.2</ele>
        <time>2019-10-18T11:39:40Z</time>
      </trkpt>
      <trkpt lat="37.0445190" lon="-2.2082240">
        <ele>546.5</ele>
        <time>2019-10-18T11:39:41Z</time>
      </trkpt>
      <trkpt lat="37.0445240" lon="-2.2082620">
        <ele>546.7</ele>
        <time>2019-10-18T11:39:42Z</time>
      </trkpt>
      <trkpt lat="37.0445290" lon="-2.2083010">
        <ele>546.9</ele>
        <time>2019-10-18T11:39:43Z</time>
      </trkpt>
      <trkpt lat="37.0445350" lon="-2.2083390">
        <ele>547.1</ele>
        <time>2019-10-18T11:39:44Z</time>
      </trkpt>
      <trkpt lat="37.0445400" lon="-2.2083780">
        <ele>547.3</ele>
        <time>2019-10-18T11:39:45Z</time>
      </trkpt>
      <trkpt lat="37.0445450" lon="-2.2084160">
        <ele>547.4</ele>
        <time>2019-10-18T11:39:46Z</time>
      </trkpt>
      <trkpt lat="37.0445500" lon="-2.2084550">
        <ele>547.6</ele>
        <time>2019-10-18T11:39:47Z</time>
      </trkpt>
      <trkpt lat="37.0445550" lon="-2.2084940">
        <ele>547.7</ele>
        <time>2019-10-18T11:39:48Z</time>
      </trkpt>
      <trkpt lat="37.0445590" lon="-2.2085320">
        <ele>547.9</ele>
        <time>2019-10-18T11:39:49Z</time>
      </trkpt>
      <trkpt lat="37.0445640" lon="-2.2085700">
        <ele>548.1</ele>
        <time>2019-10-18T11:39:50Z</time>
      </trkpt>
      <trkpt lat="37.0445690" lon="-2.2086090">
        <ele>548.2</ele>
        <time>2019-10-18T11:39:51Z</time>
      </trkpt>
      <trkpt lat="37.0445760" lon="-2.2086470">
        <ele>548.4</ele>
        <time>2019-10-18T11:39:52Z</time>
      </trkpt>
      <trkpt lat="37.0445820" lon="-2.2086850">
        <ele>548.5</ele>
        <time>2019-10-18T11:39:53Z</time>
      </trkpt>
      <trkpt lat="37.0445880" lon="-2.2087220">
        <ele>548.7</ele>
        <time>2019-10-18T11:39:54Z</time>
      </trkpt>
      <trkpt lat="37.0445940" lon="-2.2087600">
        <ele>548.8</ele>
        <time>2019-10-18T11:39:55Z</time>
      </trkpt>
      <trkpt lat="37.0446000" lon="-2.2087980">
        <ele>549.0</ele>
        <time>2019-10-18T11:39:56Z</time>
      </trkpt>
      <trkpt lat="37.0446070" lon="-2.2088360">
        <ele>549.1</ele>
        <time>2019-10-18T11:39:57Z</time>
      </trkpt>
      <trkpt lat="37.0446120" lon="-2.2088740">
        <ele>549.3</ele>
        <time>2019-10-18T11:39:58Z</time>
      </trkpt>
      <trkpt lat="37.0446150" lon="-2.2089120">
        <ele>549.4</ele>
        <time>2019-10-18T11:39:59Z</time>
      </trkpt>
      <trkpt lat="37.0446180" lon="-2.2089490">
        <ele>549.5</ele>
        <time>2019-10-18T11:40:00Z</time>
      </trkpt>
      <trkpt lat="37.0446190" lon="-2.2089870">
        <ele>549.6</ele>
        <time>2019-10-18T11:40:01Z</time>
      </trkpt>
      <trkpt lat="37.0446200" lon="-2.2090240">
        <ele>549.8</ele>
        <time>2019-10-18T11:40:02Z</time>
      </trkpt>
      <trkpt lat="37.0446200" lon="-2.2090610">
        <ele>549.9</ele>
        <time>2019-10-18T11:40:03Z</time>
      </trkpt>
      <trkpt lat="37.0446200" lon="-2.2090980">
        <ele>550.0</ele>
        <time>2019-10-18T11:40:04Z</time>
      </trkpt>
      <trkpt lat="37.0446190" lon="-2.2091340">
        <ele>550.1</ele>
        <time>2019-10-18T11:40:05Z</time>
      </trkpt>
      <trkpt lat="37.0446170" lon="-2.2091700">
        <ele>550.2</ele>
        <time>2019-10-18T11:40:06Z</time>
      </trkpt>
      <trkpt lat="37.0446140" lon="-2.2092070">
        <ele>550.3</ele>
        <time>2019-10-18T11:40:07Z</time>
      </trkpt>
      <trkpt lat="37.0446100" lon="-2.2092440">
        <ele>550.5</ele>
        <time>2019-10-18T11:40:08Z</time>
      </trkpt>
      <trkpt lat="37.0446050" lon="-2.2092810">
        <ele>550.6</ele>
        <time>2019-10-18T11:40:09Z</time>
      </trkpt>
      <trkpt lat="37.0446010" lon="-2.2093180">
        <ele>550.7</ele>
        <time>2019-10-18T11:40:10Z</time>
      </trkpt>
      <trkpt lat="37.0445960" lon="-2.2093560">
        <ele>550.8</ele>
        <time>2019-10-18T11:40:11Z</time>
      </trkpt>
      <trkpt lat="37.0445920" lon="-2.2093940">
        <ele>551.0</ele>
        <time>2019-10-18T11:40:12Z</time>
      </trkpt>
      <trkpt lat="37.0445870" lon="-2.2094320">
        <ele>551.1</ele>
        <time>2019-10-18T11:40:13Z</time>
      </trkpt>
      <trkpt lat="37.0445830" lon="-2.2094700">
        <ele>551.2</ele>
        <time>2019-10-18T11:40:14Z</time>
      </trkpt>
      <trkpt lat="37.0445780" lon="-2.2095070">
        <ele>551.4</ele>
        <time>2019-10-18T11:40:15Z</time>
      </trkpt>
      <trkpt lat="37.0445730" lon="-2.2095440">
        <ele>551.5</ele>
        <time>2019-10-18T11:40:16Z</time>
      </trkpt>
      <trkpt lat="37.0445680" lon="-2.2095800">
        <ele>551.6</ele>
        <time>2019-10-18T11:40:17Z</time>
      </trkpt>
      <trkpt lat="37.0445630" lon="-2.2096170">
        <ele>551.8</ele>
        <time>2019-10-18T11:40:18Z</time>
      </trkpt>
      <trkpt lat="37.0445580" lon="-2.2096530">
        <ele>551.9</ele>
        <time>2019-10-18T11:40:19Z</time>
      </trkpt>
      <trkpt lat="37.0445530" lon="-2.2096890">
        <ele>552.1</ele>
        <time>2019-10-18T11:40:20Z</time>
      </trkpt>
      <trkpt lat="37.0445480" lon="-2.2097250">
        <ele>552.2</ele>
        <time>2019-10-18T11:40:21Z</time>
      </trkpt>
      <trkpt lat="37.0445430" lon="-2.2097610">
        <ele>552.3</ele>
        <time>2019-10-18T11:40:22Z</time>
      </trkpt>
      <trkpt lat="37.0445380" lon="-2.2097970">
        <ele>552.5</ele>
        <time>2019-10-18T11:40:23Z</time>
      </trkpt>
      <trkpt lat="37.0445330" lon="-2.2098330">
        <ele>552.6</ele>
        <time>2019-10-18T11:40:24Z</time>
      </trkpt>
      <trkpt lat="37.0445280" lon="-2.2098690">
        <ele>552.8</ele>
        <time>2019-10-18T11:40:25Z</time>
      </trkpt>
      <trkpt lat="37.0445240" lon="-2.2099040">
        <ele>552.9</ele>
        <time>2019-10-18T11:40:26Z</time>
      </trkpt>
      <trkpt lat="37.0445190" lon="-2.2099400">
        <ele>553.0</ele>
        <time>2019-10-18T11:40:27Z</time>
      </trkpt>
      <trkpt lat="37.0445140" lon="-2.2099750">
        <ele>553.2</ele>
        <time>2019-10-18T11:40:28Z</time>
      </trkpt>
      <trkpt lat="37.0445080" lon="-2.2100110">
        <ele>553.3</ele>
        <time>2019-10-18T11:40:29Z</time>
      </trkpt>
      <trkpt lat="37.0445030" lon="-2.2100470">
        <ele>553.5</ele>
        <time>2019-10-18T11:40:30Z</time>
      </trkpt>
      <trkpt lat="37.0444980" lon="-2.2100830">
        <ele>553.6</ele>
        <time>2019-10-18T11:40:31Z</time>
      </trkpt>
      <trkpt lat="37.0444930" lon="-2.2101190">
        <ele>553.8</ele>
        <time>2019-10-18T11:40:32Z</time>
      </trkpt>
      <trkpt lat="37.0444880" lon="-2.2101560">
        <ele>553.9</ele>
        <time>2019-10-18T11:40:33Z</time>
      </trkpt>
      <trkpt lat="37.0444820" lon="-2.2101920">
        <ele>554.1</ele>
        <time>2019-10-18T11:40:34Z</time>
      </trkpt>
      <trkpt lat="37.0444760" lon="-2.2102290">
        <ele>554.2</ele>
        <time>2019-10-18T11:40:35Z</time>
      </trkpt>
      <trkpt lat="37.0444700" lon="-2.2102660">
        <ele>554.4</ele>
        <time>2019-10-18T11:40:36Z</time>
      </trkpt>
      <trkpt lat="37.0444650" lon="-2.2103030">
        <ele>554.5</ele>
        <time>2019-10-18T11:40:37Z</time>
      </trkpt>
      <trkpt lat="37.0444590" lon="-2.2103410">
        <ele>554.7</ele>
        <time>2019-10-18T11:40:38Z</time>
      </trkpt>
      <trkpt lat="37.0444540" lon="-2.2103780">
        <ele>554.9</ele>
        <time>2019-10-18T11:40:39Z</time>
      </trkpt>
      <trkpt lat="37.0444480" lon="-2.2104150">
        <ele>555.0</ele>
        <time>2019-10-18T11:40:40Z</time>
      </trkpt>
      <trkpt lat="37.0444400" lon="-2.2104530">
        <ele>555.2</ele>
        <time>2019-10-18T11:40:41Z</time>
      </trkpt>
      <trkpt lat="37.0444320" lon="-2.2104900">
        <ele>555.4</ele>
        <time>2019-10-18T11:40:42Z</time>
      </trkpt>
      <trkpt lat="37.0444230" lon="-2.2105270">
        <ele>555.6</ele>
        <time>2019-10-18T11:40:43Z</time>
      </trkpt>
      <trkpt lat="37.0444140" lon="-2.2105630">
        <ele>555.7</ele>
        <time>2019-10-18T11:40:44Z</time>
      </trkpt>
      <trkpt lat="37.0444040" lon="-2.2106000">
        <ele>555.9</ele>
        <time>2019-10-18T11:40:45Z</time>
      </trkpt>
      <trkpt lat="37.0443930" lon="-2.2106360">
        <ele>556.0</ele>
        <time>2019-10-18T11:40:46Z</time>
      </trkpt>
      <trkpt lat="37.0443810" lon="-2.2106710">
        <ele>556.2</ele>
        <time>2019-10-18T11:40:47Z</time>
      </trkpt>
      <trkpt lat="37.0443690" lon="-2.2107070">
        <ele>556.3</ele>
        <time>2019-10-18T11:40:48Z</time>
      </trkpt>
      <trkpt lat="37.0443580" lon="-2.2107430">
        <ele>556.5</ele>
        <time>2019-10-18T11:40:49Z</time>
      </trkpt>
      <trkpt lat="37.0443470" lon="-2.2107790">
        <ele>556.7</ele>
        <time>2019-10-18T11:40:50Z</time>
      </trkpt>
      <trkpt lat="37.0443340" lon="-2.2108140">
        <ele>556.8</ele>
        <time>2019-10-18T11:40:51Z</time>
      </trkpt>
      <trkpt lat="37.0443210" lon="-2.2108470">
        <ele>557.0</ele>
        <time>2019-10-18T11:40:52Z</time>
      </trkpt>
      <trkpt lat="37.0443080" lon="-2.2108800">
        <ele>557.1</ele>
        <time>2019-10-18T11:40:53Z</time>
      </trkpt>
      <trkpt lat="37.0442970" lon="-2.2109130">
        <ele>557.3</ele>
        <time>2019-10-18T11:40:54Z</time>
      </trkpt>
      <trkpt lat="37.0442860" lon="-2.2109460">
        <ele>557.4</ele>
        <time>2019-10-18T11:40:55Z</time>
      </trkpt>
      <trkpt lat="37.0442740" lon="-2.2109790">
        <ele>557.5</ele>
        <time>2019-10-18T11:40:56Z</time>
      </trkpt>
      <trkpt lat="37.0442620" lon="-2.2110120">
        <ele>557.7</ele>
        <time>2019-10-18T11:40:57Z</time>
      </trkpt>
      <trkpt lat="37.0442510" lon="-2.2110450">
        <ele>557.8</ele>
        <time>2019-10-18T11:40:58Z</time>
      </trkpt>
      <trkpt lat="37.0442400" lon="-2.2110800">
        <ele>558.0</ele>
        <time>2019-10-18T11:40:59Z</time>
      </trkpt>
      <trkpt lat="37.0442280" lon="-2.2111140">
        <ele>558.1</ele>
        <time>2019-10-18T11:41:00Z</time>
      </trkpt>
      <trkpt lat="37.0442150" lon="-2.2111480">
        <ele>558.3</ele>
        <time>2019-10-18T11:41:01Z</time>
      </trkpt>
      <trkpt lat="37.0442020" lon="-2.2111820">
        <ele>558.5</ele>
        <time>2019-10-18T11:41:02Z</time>
      </trkpt>
      <trkpt lat="37.0441900" lon="-2.2112160">
        <ele>558.6</ele>
        <time>2019-10-18T11:41:03Z</time>
      </trkpt>
      <trkpt lat="37.0441790" lon="-2.2112500">
        <ele>558.8</ele>
        <time>2019-10-18T11:41:04Z</time>
      </trkpt>
      <trkpt lat="37.0441680" lon="-2.2112850">
        <ele>558.9</ele>
        <time>2019-10-18T11:41:05Z</time>
      </trkpt>
      <trkpt lat="37.0441570" lon="-2.2113200">
        <ele>559.1</ele>
        <time>2019-10-18T11:41:06Z</time>
      </trkpt>
      <trkpt lat="37.0441440" lon="-2.2113540">
        <ele>559.2</ele>
        <time>2019-10-18T11:41:07Z</time>
      </trkpt>
      <trkpt lat="37.0441310" lon="-2.2113900">
        <ele>559.4</ele>
        <time>2019-10-18T11:41:08Z</time>
      </trkpt>
      <trkpt lat="37.0441180" lon="-2.2114260">
        <ele>559.5</ele>
        <time>2019-10-18T11:41:09Z</time>
      </trkpt>
      <trkpt lat="37.0441060" lon="-2.2114630">
        <ele>559.7</ele>
        <time>2019-10-18T11:41:10Z</time>
      </trkpt>
      <trkpt lat="37.0440940" lon="-2.2114990">
        <ele>559.9</ele>
        <time>2019-10-18T11:41:11Z</time>
      </trkpt>
      <trkpt lat="37.0440820" lon="-2.2115350">
        <ele>560.0</ele>
        <time>2019-10-18T11:41:12Z</time>
      </trkpt>
      <trkpt lat="37.0440700" lon="-2.2115710">
        <ele>560.2</ele>
        <time>2019-10-18T11:41:13Z</time>
      </trkpt>
      <trkpt lat="37.0440580" lon="-2.2116070">
        <ele>560.3</ele>
        <time>2019-10-18T11:41:14Z</time>
      </trkpt>
      <trkpt lat="37.0440460" lon="-2.2116420">
        <ele>560.5</ele>
        <time>2019-10-18T11:41:15Z</time>
      </trkpt>
      <trkpt lat="37.0440330" lon="-2.2116770">
        <ele>560.7</ele>
        <time>2019-10-18T11:41:16Z</time>
      </trkpt>
      <trkpt lat="37.0440200" lon="-2.2117110">
        <ele>560.8</ele>
        <time>2019-10-18T11:41:17Z</time>
      </trkpt>
      <trkpt lat="37.0440080" lon="-2.2117450">
        <ele>560.9</ele>
        <time>2019-10-18T11:41:18Z</time>
      </trkpt>
      <trkpt lat="37.0439950" lon="-2.2117790">
        <ele>561.1</ele>
        <time>2019-10-18T11:41:19Z</time>
      </trkpt>
      <trkpt lat="37.0439830" lon="-2.2118130">
        <ele>561.2</ele>
        <time>2019-10-18T11:41:20Z</time>
      </trkpt>
      <trkpt lat="37.0439700" lon="-2.2118460">
        <ele>561.3</ele>
        <time>2019-10-18T11:41:21Z</time>
      </trkpt>
      <trkpt lat="37.0439580" lon="-2.2118800">
        <ele>561.5</ele>
        <time>2019-10-18T11:41:22Z</time>
      </trkpt>
      <trkpt lat="37.0439460" lon="-2.2119140">
        <ele>561.6</ele>
        <time>2019-10-18T11:41:23Z</time>
      </trkpt>
      <trkpt lat="37.0439350" lon="-2.2119490">
        <ele>561.7</ele>
        <time>2019-10-18T11:41:24Z</time>
      </trkpt>
      <trkpt lat="37.0439240" lon="-2.2119830">
        <ele>561.9</ele>
        <time>2019-10-18T11:41:25Z</time>
      </trkpt>
      <trkpt lat="37.0439120" lon="-2.2120170">
        <ele>562.0</ele>
        <time>2019-10-18T11:41:26Z</time>
      </trkpt>
      <trkpt lat="37.0439010" lon="-2.2120500">
        <ele>562.2</ele>
        <time>2019-10-18T11:41:27Z</time>
      </trkpt>
      <trkpt lat="37.0438900" lon="-2.2120820">
        <ele>562.4</ele>
        <time>2019-10-18T11:41:28Z</time>
      </trkpt>
      <trkpt lat="37.0438790" lon="-2.2121140">
        <ele>562.6</ele>
        <time>2019-10-18T11:41:29Z</time>
      </trkpt>
      <trkpt lat="37.0438690" lon="-2.2121460">
        <ele>562.7</ele>
        <time>2019-10-18T11:41:30Z</time>
      </trkpt>
      <trkpt lat="37.0438600" lon="-2.2121780">
        <ele>562.9</ele>
        <time>2019-10-18T11:41:31Z</time>
      </trkpt>
      <trkpt lat="37.0438520" lon="-2.2122110">
        <ele>563.1</ele>
        <time>2019-10-18T11:41:32Z</time>
      </trkpt>
      <trkpt lat="37.0438460" lon="-2.2122440">
        <ele>563.2</ele>
        <time>2019-10-18T11:41:33Z</time>
      </trkpt>
      <trkpt lat="37.0438390" lon="-2.2122770">
        <ele>563.4</ele>
        <time>2019-10-18T11:41:34Z</time>
      </trkpt>
      <trkpt lat="37.0438340" lon="-2.2123100">
        <ele>563.6</ele>
        <time>2019-10-18T11:41:35Z</time>
      </trkpt>
      <trkpt lat="37.0438310" lon="-2.2123430">
        <ele>563.7</ele>
        <time>2019-10-18T11:41:36Z</time>
      </trkpt>
      <trkpt lat="37.0438300" lon="-2.2123770">
        <ele>563.9</ele>
        <time>2019-10-18T11:41:37Z</time>
      </trkpt>
      <trkpt lat="37.0438290" lon="-2.2124100">
        <ele>564.1</ele>
        <time>2019-10-18T11:41:38Z</time>
      </trkpt>
      <trkpt lat="37.0438270" lon="-2.2124440">
        <ele>564.2</ele>
        <time>2019-10-18T11:41:39Z</time>
      </trkpt>
      <trkpt lat="37.0438260" lon="-2.2124780">
        <ele>564.4</ele>
        <time>2019-10-18T11:41:40Z</time>
      </trkpt>
      <trkpt lat="37.0438250" lon="-2.2125130">
        <ele>564.5</ele>
        <time>2019-10-18T11:41:41Z</time>
      </trkpt>
      <trkpt lat="37.0438250" lon="-2.2125480">
        <ele>564.7</ele>
        <time>2019-10-18T11:41:42Z</time>
      </trkpt>
      <trkpt lat="37.0438230" lon="-2.2125820">
        <ele>564.9</ele>
        <time>2019-10-18T11:41:43Z</time>
      </trkpt>
      <trkpt lat="37.0438190" lon="-2.2126170">
        <ele>565.0</ele>
        <time>2019-10-18T11:41:44Z</time>
      </trkpt>
      <trkpt lat="37.0438130" lon="-2.2126520">
        <ele>565.2</ele>
        <time>2019-10-18T11:41:45Z</time>
      </trkpt>
      <trkpt lat="37.0438040" lon="-2.2126870">
        <ele>565.4</ele>
        <time>2019-10-18T11:41:46Z</time>
      </trkpt>
      <trkpt lat="37.0437910" lon="-2.2127190">
        <ele>565.6</ele>
        <time>2019-10-18T11:41:47Z</time>
      </trkpt>
      <trkpt lat="37.0437730" lon="-2.2127500">
        <ele>565.9</ele>
        <time>2019-10-18T11:41:48Z</time>
      </trkpt>
      <trkpt lat="37.0437510" lon="-2.2127780">
        <ele>566.1</ele>
        <time>2019-10-18T11:41:49Z</time>
      </trkpt>
      <trkpt lat="37.0437270" lon="-2.2128040">
        <ele>566.3</ele>
        <time>2019-10-18T11:41:50Z</time>
      </trkpt>
      <trkpt lat="37.0437010" lon="-2.2128280">
        <ele>566.5</ele>
        <time>2019-10-18T11:41:51Z</time>
      </trkpt>
      <trkpt lat="37.0436740" lon="-2.2128490">
        <ele>566.6</ele>
        <time>2019-10-18T11:41:52Z</time>
      </trkpt>
      <trkpt lat="37.0436460" lon="-2.2128680">
        <ele>566.8</ele>
        <time>2019-10-18T11:41:53Z</time>
      </trkpt>
      <trkpt lat="37.0436170" lon="-2.2128850">
        <ele>566.9</ele>
        <time>2019-10-18T11:41:54Z</time>
      </trkpt>
      <trkpt lat="37.0435880" lon="-2.2129000">
        <ele>567.0</ele>
        <time>2019-10-18T11:41:55Z</time>
      </trkpt>
      <trkpt lat="37.0435590" lon="-2.2129140">
        <ele>567.1</ele>
        <time>2019-10-18T11:41:56Z</time>
      </trkpt>
      <trkpt lat="37.0435320" lon="-2.2129280">
        <ele>567.2</ele>
        <time>2019-10-18T11:41:57Z</time>
      </trkpt>
      <trkpt lat="37.0435050" lon="-2.2129410">
        <ele>567.2</ele>
        <time>2019-10-18T11:41:58Z</time>
      </trkpt>
      <trkpt lat="37.0434790" lon="-2.2129540">
        <ele>567.3</ele>
        <time>2019-10-18T11:41:59Z</time>
      </trkpt>
      <trkpt lat="37.0434540" lon="-2.2129660">
        <ele>567.4</ele>
        <time>2019-10-18T11:42:00Z</time>
      </trkpt>
      <trkpt lat="37.0434300" lon="-2.2129780">
        <ele>567.4</ele>
        <time>2019-10-18T11:42:01Z</time>
      </trkpt>
      <trkpt lat="37.0434060" lon="-2.2129900">
        <ele>567.5</ele>
        <time>2019-10-18T11:42:02Z</time>
      </trkpt>
      <trkpt lat="37.0433820" lon="-2.2130020">
        <ele>567.6</ele>
        <time>2019-10-18T11:42:03Z</time>
      </trkpt>
      <trkpt lat="37.0433590" lon="-2.2130120">
        <ele>567.6</ele>
        <time>2019-10-18T11:42:04Z</time>
      </trkpt>
      <trkpt lat="37.0433360" lon="-2.2130220">
        <ele>567.7</ele>
        <time>2019-10-18T11:42:05Z</time>
      </trkpt>
      <trkpt lat="37.0433130" lon="-2.2130320">
        <ele>568.2</ele>
        <time>2019-10-18T11:42:06Z</time>
      </trkpt>
      <trkpt lat="37.0432910" lon="-2.2130430">
        <ele>568.4</ele>
        <time>2019-10-18T11:42:07Z</time>
      </trkpt>
      <trkpt lat="37.0432710" lon="-2.2130540">
        <ele>568.6</ele>
        <time>2019-10-18T11:42:08Z</time>
      </trkpt>
      <trkpt lat="37.0432500" lon="-2.2130640">
        <ele>568.8</ele>
        <time>2019-10-18T11:42:09Z</time>
      </trkpt>
      <trkpt lat="37.0432280" lon="-2.2130760">
        <ele>569.1</ele>
        <time>2019-10-18T11:42:10Z</time>
      </trkpt>
      <trkpt lat="37.0432050" lon="-2.2130890">
        <ele>569.4</ele>
        <time>2019-10-18T11:42:11Z</time>
      </trkpt>
      <trkpt lat="37.0431820" lon="-2.2131020">
        <ele>569.6</ele>
        <time>2019-10-18T11:42:12Z</time>
      </trkpt>
      <trkpt lat="37.0431580" lon="-2.2131150">
        <ele>569.9</ele>
        <time>2019-10-18T11:42:13Z</time>
      </trkpt>
      <trkpt lat="37.0431360" lon="-2.2131270">
        <ele>570.2</ele>
        <time>2019-10-18T11:42:14Z</time>
      </trkpt>
      <trkpt lat="37.0431130" lon="-2.2131380">
        <ele>570.4</ele>
        <time>2019-10-18T11:42:15Z</time>
      </trkpt>
      <trkpt lat="37.0430900" lon="-2.2131500">
        <ele>570.7</ele>
        <time>2019-10-18T11:42:16Z</time>
      </trkpt>
      <trkpt lat="37.0430670" lon="-2.2131630">
        <ele>570.9</ele>
        <time>2019-10-18T11:42:17Z</time>
      </trkpt>
      <trkpt lat="37.0430450" lon="-2.2131760">
        <ele>571.1</ele>
        <time>2019-10-18T11:42:18Z</time>
      </trkpt>
      <trkpt lat="37.0430220" lon="-2.2131900">
        <ele>571.4</ele>
        <time>2019-10-18T11:42:19Z</time>
      </trkpt>
      <trkpt lat="37.0429980" lon="-2.2132020">
        <ele>571.6</ele>
        <time>2019-10-18T11:42:20Z</time>
      </trkpt>
      <trkpt lat="37.0429740" lon="-2.2132150">
        <ele>571.8</ele>
        <time>2019-10-18T11:42:21Z</time>
      </trkpt>
      <trkpt lat="37.0429510" lon="-2.2132280">
        <ele>572.1</ele>
        <time>2019-10-18T11:42:22Z</time>
      </trkpt>
      <trkpt lat="37.0429290" lon="-2.2132410">
        <ele>572.3</ele>
        <time>2019-10-18T11:42:23Z</time>
      </trkpt>
      <trkpt lat="37.0429080" lon="-2.2132530">
        <ele>572.5</ele>
        <time>2019-10-18T11:42:24Z</time>
      </trkpt>
      <trkpt lat="37.0428860" lon="-2.2132650">
        <ele>572.7</ele>
        <time>2019-10-18T11:42:25Z</time>
      </trkpt>
      <trkpt lat="37.0428640" lon="-2.2132780">
        <ele>572.9</ele>
        <time>2019-10-18T11:42:26Z</time>
      </trkpt>
      <trkpt lat="37.0428430" lon="-2.2132920">
        <ele>573.1</ele>
        <time>2019-10-18T11:42:27Z</time>
      </trkpt>
      <trkpt lat="37.0428220" lon="-2.2133060">
        <ele>573.3</ele>
        <time>2019-10-18T11:42:28Z</time>
      </trkpt>
      <trkpt lat="37.0428010" lon="-2.2133200">
        <ele>573.4</ele>
        <time>2019-10-18T11:42:29Z</time>
      </trkpt>
      <trkpt lat="37.0427800" lon="-2.2133340">
        <ele>573.6</ele>
        <time>2019-10-18T11:42:30Z</time>
      </trkpt>
      <trkpt lat="37.0427580" lon="-2.2133480">
        <ele>573.8</ele>
        <time>2019-10-18T11:42:31Z</time>
      </trkpt>
      <trkpt lat="37.0427380" lon="-2.2133640">
        <ele>574.0</ele>
        <time>2019-10-18T11:42:32Z</time>
      </trkpt>
      <trkpt lat="37.0427180" lon="-2.2133820">
        <ele>574.2</ele>
        <time>2019-10-18T11:42:33Z</time>
      </trkpt>
      <trkpt lat="37.0426980" lon="-2.2134000">
        <ele>574.5</ele>
        <time>2019-10-18T11:42:34Z</time>
      </trkpt>
      <trkpt lat="37.0426780" lon="-2.2134180">
        <ele>574.7</ele>
        <time>2019-10-18T11:42:35Z</time>
      </trkpt>
      <trkpt lat="37.0426560" lon="-2.2134350">
        <ele>575.0</ele>
        <time>2019-10-18T11:42:36Z</time>
      </trkpt>
      <trkpt lat="37.0426340" lon="-2.2134510">
        <ele>575.2</ele>
        <time>2019-10-18T11:42:37Z</time>
      </trkpt>
      <trkpt lat="37.0426130" lon="-2.2134700">
        <ele>575.4</ele>
        <time>2019-10-18T11:42:38Z</time>
      </trkpt>
      <trkpt lat="37.0425930" lon="-2.2134890">
        <ele>575.7</ele>
        <time>2019-10-18T11:42:39Z</time>
      </trkpt>
      <trkpt lat="37.0425730" lon="-2.2135100">
        <ele>575.9</ele>
        <time>2019-10-18T11:42:40Z</time>
      </trkpt>
      <trkpt lat="37.0425520" lon="-2.2135290">
        <ele>576.1</ele>
        <time>2019-10-18T11:42:41Z</time>
      </trkpt>
      <trkpt lat="37.0425310" lon="-2.2135490">
        <ele>576.4</ele>
        <time>2019-10-18T11:42:42Z</time>
      </trkpt>
      <trkpt lat="37.0425110" lon="-2.2135680">
        <ele>576.6</ele>
        <time>2019-10-18T11:42:43Z</time>
      </trkpt>
      <trkpt lat="37.0424900" lon="-2.2135870">
        <ele>576.8</ele>
        <time>2019-10-18T11:42:44Z</time>
      </trkpt>
      <trkpt lat="37.0424700" lon="-2.2136060">
        <ele>577.1</ele>
        <time>2019-10-18T11:42:45Z</time>
      </trkpt>
      <trkpt lat="37.0424490" lon="-2.2136250">
        <ele>577.3</ele>
        <time>2019-10-18T11:42:46Z</time>
      </trkpt>
      <trkpt lat="37.0424280" lon="-2.2136440">
        <ele>577.5</ele>
        <time>2019-10-18T11:42:47Z</time>
      </trkpt>
      <trkpt lat="37.0424070" lon="-2.2136640">
        <ele>577.8</ele>
        <time>2019-10-18T11:42:48Z</time>
      </trkpt>
      <trkpt lat="37.0423870" lon="-2.2136830">
        <ele>578.1</ele>
        <time>2019-10-18T11:42:49Z</time>
      </trkpt>
      <trkpt lat="37.0423670" lon="-2.2137030">
        <ele>578.5</ele>
        <time>2019-10-18T11:42:50Z</time>
      </trkpt>
      <trkpt lat="37.0423480" lon="-2.2137240">
        <ele>578.8</ele>
        <time>2019-10-18T11:42:51Z</time>
      </trkpt>
      <trkpt lat="37.0423280" lon="-2.2137460">
        <ele>579.1</ele>
        <time>2019-10-18T11:42:52Z</time>
      </trkpt>
      <trkpt lat="37.0423090" lon="-2.2137680">
        <ele>579.3</ele>
        <time>2019-10-18T11:42:53Z</time>
      </trkpt>
      <trkpt lat="37.0422890" lon="-2.2137910">
        <ele>579.5</ele>
        <time>2019-10-18T11:42:54Z</time>
      </trkpt>
      <trkpt lat="37.0422710" lon="-2.2138150">
        <ele>579.7</ele>
        <time>2019-10-18T11:42:55Z</time>
      </trkpt>
      <trkpt lat="37.0422540" lon="-2.2138400">
        <ele>580.0</ele>
        <time>2019-10-18T11:42:56Z</time>
      </trkpt>
      <trkpt lat="37.0422370" lon="-2.2138660">
        <ele>580.2</ele>
        <time>2019-10-18T11:42:57Z</time>
      </trkpt>
      <trkpt lat="37.0422220" lon="-2.2138930">
        <ele>580.4</ele>
        <time>2019-10-18T11:42:58Z</time>
      </trkpt>
      <trkpt lat="37.0422070" lon="-2.2139200">
        <ele>580.6</ele>
        <time>2019-10-18T11:42:59Z</time>
      </trkpt>
      <trkpt lat="37.0421930" lon="-2.2139470">
        <ele>580.8</ele>
        <time>2019-10-18T11:43:00Z</time>
      </trkpt>
      <trkpt lat="37.0421800" lon="-2.2139760">
        <ele>581.0</ele>
        <time>2019-10-18T11:43:01Z</time>
      </trkpt>
      <trkpt lat="37.0421680" lon="-2.2140050">
        <ele>581.3</ele>
        <time>2019-10-18T11:43:02Z</time>
      </trkpt>
      <trkpt lat="37.0421560" lon="-2.2140340">
        <ele>581.6</ele>
        <time>2019-10-18T11:43:03Z</time>
      </trkpt>
      <trkpt lat="37.0421430" lon="-2.2140630">
        <ele>581.9</ele>
        <time>2019-10-18T11:43:04Z</time>
      </trkpt>
      <trkpt lat="37.0421300" lon="-2.2140920">
        <ele>582.2</ele>
        <time>2019-10-18T11:43:05Z</time>
      </trkpt>
      <trkpt lat="37.0421180" lon="-2.2141210">
        <ele>582.5</ele>
        <time>2019-10-18T11:43:06Z</time>
      </trkpt>
      <trkpt lat="37.0421060" lon="-2.2141510">
        <ele>582.7</ele>
        <time>2019-10-18T11:43:07Z</time>
      </trkpt>
      <trkpt lat="37.0420950" lon="-2.2141820">
        <ele>583.0</ele>
        <time>2019-10-18T11:43:08Z</time>
      </trkpt>
      <trkpt lat="37.0420830" lon="-2.2142130">
        <ele>583.2</ele>
        <time>2019-10-18T11:43:09Z</time>
      </trkpt>
      <trkpt lat="37.0420720" lon="-2.2142440">
        <ele>583.4</ele>
        <time>2019-10-18T11:43:10Z</time>
      </trkpt>
      <trkpt lat="37.0420590" lon="-2.2142750">
        <ele>583.7</ele>
        <time>2019-10-18T11:43:11Z</time>
      </trkpt>
      <trkpt lat="37.0420470" lon="-2.2143050">
        <ele>584.0</ele>
        <time>2019-10-18T11:43:12Z</time>
      </trkpt>
      <trkpt lat="37.0420340" lon="-2.2143350">
        <ele>584.3</ele>
        <time>2019-10-18T11:43:13Z</time>
      </trkpt>
      <trkpt lat="37.0420220" lon="-2.2143640">
        <ele>584.5</ele>
        <time>2019-10-18T11:43:14Z</time>
      </trkpt>
      <trkpt lat="37.0420110" lon="-2.2143940">
        <ele>584.7</ele>
        <time>2019-10-18T11:43:15Z</time>
      </trkpt>
      <trkpt lat="37.0419990" lon="-2.2144240">
        <ele>585.0</ele>
        <time>2019-10-18T11:43:16Z</time>
      </trkpt>
      <trkpt lat="37.0419890" lon="-2.2144540">
        <ele>585.3</ele>
        <time>2019-10-18T11:43:17Z</time>
      </trkpt>
      <trkpt lat="37.0419780" lon="-2.2144840">
        <ele>585.6</ele>
        <time>2019-10-18T11:43:18Z</time>
      </trkpt>
      <trkpt lat="37.0419680" lon="-2.2145140">
        <ele>585.9</ele>
        <time>2019-10-18T11:43:19Z</time>
      </trkpt>
      <trkpt lat="37.0419570" lon="-2.2145430">
        <ele>586.2</ele>
        <time>2019-10-18T11:43:20Z</time>
      </trkpt>
      <trkpt lat="37.0419470" lon="-2.2145730">
        <ele>586.4</ele>
        <time>2019-10-18T11:43:21Z</time>
      </trkpt>
      <trkpt lat="37.0419360" lon="-2.2146020">
        <ele>586.6</ele>
        <time>2019-10-18T11:43:22Z</time>
      </trkpt>
      <trkpt lat="37.0419250" lon="-2.2146310">
        <ele>586.7</ele>
        <time>2019-10-18T11:43:23Z</time>
      </trkpt>
      <trkpt lat="37.0419140" lon="-2.2146610">
        <ele>586.9</ele>
        <time>2019-10-18T11:43:24Z</time>
      </trkpt>
      <trkpt lat="37.0419020" lon="-2.2146900">
        <ele>587.1</ele>
        <time>2019-10-18T11:43:25Z</time>
      </trkpt>
      <trkpt lat="37.0418910" lon="-2.2147180">
        <ele>587.3</ele>
        <time>2019-10-18T11:43:26Z</time>
      </trkpt>
      <trkpt lat="37.0418800" lon="-2.2147480">
        <ele>587.5</ele>
        <time>2019-10-18T11:43:27Z</time>
      </trkpt>
      <trkpt lat="37.0418690" lon="-2.2147770">
        <ele>587.7</ele>
        <time>2019-10-18T11:43:28Z</time>
      </trkpt>
      <trkpt lat="37.0418580" lon="-2.2148060">
        <ele>588.0</ele>
        <time>2019-10-18T11:43:29Z</time>
      </trkpt>
      <trkpt lat="37.0418480" lon="-2.2148340">
        <ele>588.3</ele>
        <time>2019-10-18T11:43:30Z</time>
      </trkpt>
      <trkpt lat="37.0418370" lon="-2.2148620">
        <ele>588.6</ele>
        <time>2019-10-18T11:43:31Z</time>
      </trkpt>
      <trkpt lat="37.0418270" lon="-2.2148900">
        <ele>588.9</ele>
        <time>2019-10-18T11:43:32Z</time>
      </trkpt>
      <trkpt lat="37.0418170" lon="-2.2149190">
        <ele>589.1</ele>
        <time>2019-10-18T11:43:33Z</time>
      </trkpt>
      <trkpt lat="37.0418070" lon="-2.2149480">
        <ele>589.4</ele>
        <time>2019-10-18T11:43:34Z</time>
      </trkpt>
      <trkpt lat="37.0417980" lon="-2.2149770">
        <ele>589.6</ele>
        <time>2019-10-18T11:43:35Z</time>
      </trkpt>
      <trkpt lat="37.0417870" lon="-2.2150060">
        <ele>589.8</ele>
        <time>2019-10-18T11:43:36Z</time>
      </trkpt>
      <trkpt lat="37.0417770" lon="-2.2150340">
        <ele>589.9</ele>
        <time>2019-10-18T11:43:37Z</time>
      </trkpt>
      <trkpt lat="37.0417680" lon="-2.2150630">
        <ele>590.1</ele>
        <time>2019-10-18T11:43:38Z</time>
      </trkpt>
      <trkpt lat="37.0417590" lon="-2.2150920">
        <ele>590.3</ele>
        <time>2019-10-18T11:43:39Z</time>
      </trkpt>
      <trkpt lat="37.0417500" lon="-2.2151200">
        <ele>590.4</ele>
        <time>2019-10-18T11:43:40Z</time>
      </trkpt>
      <trkpt lat="37.0417410" lon="-2.2151490">
        <ele>590.6</ele>
        <time>2019-10-18T11:43:41Z</time>
      </trkpt>
      <trkpt lat="37.0417310" lon="-2.2151770">
        <ele>590.8</ele>
        <time>2019-10-18T11:43:42Z</time>
      </trkpt>
      <trkpt lat="37.0417210" lon="-2.2152050">
        <ele>591.0</ele>
        <time>2019-10-18T11:43:43Z</time>
      </trkpt>
      <trkpt lat="37.0417110" lon="-2.2152320">
        <ele>591.2</ele>
        <time>2019-10-18T11:43:44Z</time>
      </trkpt>
      <trkpt lat="37.0417030" lon="-2.2152600">
        <ele>591.4</ele>
        <time>2019-10-18T11:43:45Z</time>
      </trkpt>
      <trkpt lat="37.0416960" lon="-2.2152890">
        <ele>591.5</ele>
        <time>2019-10-18T11:43:46Z</time>
      </trkpt>
      <trkpt lat="37.0416890" lon="-2.2153180">
        <ele>591.7</ele>
        <time>2019-10-18T11:43:47Z</time>
      </trkpt>
      <trkpt lat="37.0416810" lon="-2.2153480">
        <ele>591.8</ele>
        <time>2019-10-18T11:43:48Z</time>
      </trkpt>
      <trkpt lat="37.0416740" lon="-2.2153770">
        <ele>592.0</ele>
        <time>2019-10-18T11:43:49Z</time>
      </trkpt>
      <trkpt lat="37.0416660" lon="-2.2154060">
        <ele>592.2</ele>
        <time>2019-10-18T11:43:50Z</time>
      </trkpt>
      <trkpt lat="37.0416580" lon="-2.2154350">
        <ele>592.4</ele>
        <time>2019-10-18T11:43:51Z</time>
      </trkpt>
      <trkpt lat="37.0416490" lon="-2.2154640">
        <ele>592.6</ele>
        <time>2019-10-18T11:43:52Z</time>
      </trkpt>
      <trkpt lat="37.0416390" lon="-2.2154930">
        <ele>592.8</ele>
        <time>2019-10-18T11:43:53Z</time>
      </trkpt>
      <trkpt lat="37.0416300" lon="-2.2155220">
        <ele>593.0</ele>
        <time>2019-10-18T11:43:54Z</time>
      </trkpt>
      <trkpt lat="37.0416220" lon="-2.2155520">
        <ele>593.2</ele>
        <time>2019-10-18T11:43:55Z</time>
      </trkpt>
      <trkpt lat="37.0416140" lon="-2.2155820">
        <ele>593.4</ele>
        <time>2019-10-18T11:43:56Z</time>
      </trkpt>
      <trkpt lat="37.0416060" lon="-2.2156130">
        <ele>593.6</ele>
        <time>2019-10-18T11:43:57Z</time>
      </trkpt>
      <trkpt lat="37.0415970" lon="-2.2156440">
        <ele>593.7</ele>
        <time>2019-10-18T11:43:58Z</time>
      </trkpt>
      <trkpt lat="37.0415880" lon="-2.2156740">
        <ele>593.9</ele>
        <time>2019-10-18T11:43:59Z</time>
      </trkpt>
      <trkpt lat="37.0415790" lon="-2.2157040">
        <ele>594.0</ele>
        <time>2019-10-18T11:44:00Z</time>
      </trkpt>
      <trkpt lat="37.0415700" lon="-2.2157340">
        <ele>594.1</ele>
        <time>2019-10-18T11:44:01Z</time>
      </trkpt>
      <trkpt lat="37.0415610" lon="-2.2157640">
        <ele>594.3</ele>
        <time>2019-10-18T11:44:02Z</time>
      </trkpt>
      <trkpt lat="37.0415520" lon="-2.2157950">
        <ele>594.5</ele>
        <time>2019-10-18T11:44:03Z</time>
      </trkpt>
      <trkpt lat="37.0415440" lon="-2.2158250">
        <ele>594.7</ele>
        <time>2019-10-18T11:44:04Z</time>
      </trkpt>
      <trkpt lat="37.0415350" lon="-2.2158550">
        <ele>594.8</ele>
        <time>2019-10-18T11:44:05Z</time>
      </trkpt>
      <trkpt lat="37.0415280" lon="-2.2158850">
        <ele>595.0</ele>
        <time>2019-10-18T11:44:06Z</time>
      </trkpt>
      <trkpt lat="37.0415220" lon="-2.2159150">
        <ele>595.1</ele>
        <time>2019-10-18T11:44:07Z</time>
      </trkpt>
      <trkpt lat="37.0415170" lon="-2.2159450">
        <ele>595.3</ele>
        <time>2019-10-18T11:44:08Z</time>
      </trkpt>
      <trkpt lat="37.0415140" lon="-2.2159760">
        <ele>595.5</ele>
        <time>2019-10-18T11:44:09Z</time>
      </trkpt>
      <trkpt lat="37.0415130" lon="-2.2160070">
        <ele>595.6</ele>
        <time>2019-10-18T11:44:10Z</time>
      </trkpt>
      <trkpt lat="37.0415140" lon="-2.2160390">
        <ele>595.8</ele>
        <time>2019-10-18T11:44:11Z</time>
      </trkpt>
      <trkpt lat="37.0415170" lon="-2.2160720">
        <ele>596.0</ele>
        <time>2019-10-18T11:44:12Z</time>
      </trkpt>
      <trkpt lat="37.0415230" lon="-2.2161060">
        <ele>596.2</ele>
        <time>2019-10-18T11:44:13Z</time>
      </trkpt>
      <trkpt lat="37.0415300" lon="-2.2161410">
        <ele>596.4</ele>
        <time>2019-10-18T11:44:14Z</time>
      </trkpt>
      <trkpt lat="37.0415370" lon="-2.2161760">
        <ele>596.5</ele>
        <time>2019-10-18T11:44:15Z</time>
      </trkpt>
      <trkpt lat="37.0415450" lon="-2.2162130">
        <ele>596.7</ele>
        <time>2019-10-18T11:44:16Z</time>
      </trkpt>
      <trkpt lat="37.0415530" lon="-2.2162500">
        <ele>596.9</ele>
        <time>2019-10-18T11:44:17Z</time>
      </trkpt>
      <trkpt lat="37.0415620" lon="-2.2162890">
        <ele>597.1</ele>
        <time>2019-10-18T11:44:18Z</time>
      </trkpt>
      <trkpt lat="37.0415710" lon="-2.2163290">
        <ele>597.3</ele>
        <time>2019-10-18T11:44:19Z</time>
      </trkpt>
      <trkpt lat="37.0415810" lon="-2.2163700">
        <ele>597.5</ele>
        <time>2019-10-18T11:44:20Z</time>
      </trkpt>
      <trkpt lat="37.0415890" lon="-2.2164110">
        <ele>597.7</ele>
        <time>2019-10-18T11:44:21Z</time>
      </trkpt>
      <trkpt lat="37.0415980" lon="-2.2164530">
        <ele>597.9</ele>
        <time>2019-10-18T11:44:22Z</time>
      </trkpt>
      <trkpt lat="37.0416070" lon="-2.2164940">
        <ele>598.0</ele>
        <time>2019-10-18T11:44:23Z</time>
      </trkpt>
      <trkpt lat="37.0416170" lon="-2.2165360">
        <ele>598.2</ele>
        <time>2019-10-18T11:44:24Z</time>
      </trkpt>
      <trkpt lat="37.0416270" lon="-2.2165770">
        <ele>598.3</ele>
        <time>2019-10-18T11:44:25Z</time>
      </trkpt>
      <trkpt lat="37.0416370" lon="-2.2166170">
        <ele>598.4</ele>
        <time>2019-10-18T11:44:26Z</time>
      </trkpt>
      <trkpt lat="37.0416450" lon="-2.2166560">
        <ele>598.5</ele>
        <time>2019-10-18T11:44:27Z</time>
      </trkpt>
      <trkpt lat="37.0416520" lon="-2.2166930">
        <ele>598.5</ele>
        <time>2019-10-18T11:44:28Z</time>
      </trkpt>
      <trkpt lat="37.0416590" lon="-2.2167300">
        <ele>598.6</ele>
        <time>2019-10-18T11:44:29Z</time>
      </trkpt>
      <trkpt lat="37.0416640" lon="-2.2167650">
        <ele>598.7</ele>
        <time>2019-10-18T11:44:30Z</time>
      </trkpt>
      <trkpt lat="37.0416680" lon="-2.2168000">
        <ele>598.7</ele>
        <time>2019-10-18T11:44:31Z</time>
      </trkpt>
      <trkpt lat="37.0416710" lon="-2.2168330">
        <ele>598.8</ele>
        <time>2019-10-18T11:44:32Z</time>
      </trkpt>
      <trkpt lat="37.0416730" lon="-2.2168660">
        <ele>598.8</ele>
        <time>2019-10-18T11:44:33Z</time>
      </trkpt>
      <trkpt lat="37.0416740" lon="-2.2169000">
        <ele>598.9</ele>
        <time>2019-10-18T11:44:34Z</time>
      </trkpt>
      <trkpt lat="37.0416750" lon="-2.2169330">
        <ele>599.0</ele>
        <time>2019-10-18T11:44:35Z</time>
      </trkpt>
      <trkpt lat="37.0416770" lon="-2.2169660">
        <ele>599.0</ele>
        <time>2019-10-18T11:44:36Z</time>
      </trkpt>
      <trkpt lat="37.0416780" lon="-2.2169980">
        <ele>599.1</ele>
        <time>2019-10-18T11:44:37Z</time>
      </trkpt>
      <trkpt lat="37.0416780" lon="-2.2170300">
        <ele>599.2</ele>
        <time>2019-10-18T11:44:38Z</time>
      </trkpt>
      <trkpt lat="37.0416780" lon="-2.2170610">
        <ele>599.3</ele>
        <time>2019-10-18T11:44:39Z</time>
      </trkpt>
      <trkpt lat="37.0416780" lon="-2.2170930">
        <ele>599.4</ele>
        <time>2019-10-18T11:44:40Z</time>
      </trkpt>
      <trkpt lat="37.0416790" lon="-2.2171250">
        <ele>599.6</ele>
        <time>2019-10-18T11:44:41Z</time>
      </trkpt>
      <trkpt lat="37.0416790" lon="-2.2171560">
        <ele>599.7</ele>
        <time>2019-10-18T11:44:42Z</time>
      </trkpt>
      <trkpt lat="37.0416800" lon="-2.2171880">
        <ele>599.9</ele>
        <time>2019-10-18T11:44:43Z</time>
      </trkpt>
      <trkpt lat="37.0416810" lon="-2.2172190">
        <ele>600.1</ele>
        <time>2019-10-18T11:44:44Z</time>
      </trkpt>
      <trkpt lat="37.0416810" lon="-2.2172500">
        <ele>600.3</ele>
        <time>2019-10-18T11:44:45Z</time>
      </trkpt>
      <trkpt lat="37.0416820" lon="-2.2172810">
        <ele>600.6</ele>
        <time>2019-10-18T11:44:46Z</time>
      </trkpt>
      <trkpt lat="37.0416820" lon="-2.2173130">
        <ele>600.8</ele>
        <time>2019-10-18T11:44:47Z</time>
      </trkpt>
      <trkpt lat="37.0416840" lon="-2.2173450">
        <ele>601.1</ele>
        <time>2019-10-18T11:44:48Z</time>
      </trkpt>
      <trkpt lat="37.0416870" lon="-2.2173780">
        <ele>601.5</ele>
        <time>2019-10-18T11:44:49Z</time>
      </trkpt>
      <trkpt lat="37.0416900" lon="-2.2174110">
        <ele>601.9</ele>
        <time>2019-10-18T11:44:50Z</time>
      </trkpt>
      <trkpt lat="37.0416940" lon="-2.2174440">
        <ele>602.2</ele>
        <time>2019-10-18T11:44:51Z</time>
      </trkpt>
      <trkpt lat="37.0416990" lon="-2.2174760">
        <ele>602.5</ele>
        <time>2019-10-18T11:44:52Z</time>
      </trkpt>
      <trkpt lat="37.0417050" lon="-2.2175080">
        <ele>602.9</ele>
        <time>2019-10-18T11:44:53Z</time>
      </trkpt>
      <trkpt lat="37.0417130" lon="-2.2175390">
        <ele>603.3</ele>
        <time>2019-10-18T11:44:54Z</time>
      </trkpt>
      <trkpt lat="37.0417210" lon="-2.2175700">
        <ele>603.7</ele>
        <time>2019-10-18T11:44:55Z</time>
      </trkpt>
      <trkpt lat="37.0417290" lon="-2.2176010">
        <ele>604.0</ele>
        <time>2019-10-18T11:44:56Z</time>
      </trkpt>
      <trkpt lat="37.0417380" lon="-2.2176320">
        <ele>604.4</ele>
        <time>2019-10-18T11:44:57Z</time>
      </trkpt>
      <trkpt lat="37.0417500" lon="-2.2176610">
        <ele>604.7</ele>
        <time>2019-10-18T11:44:58Z</time>
      </trkpt>
      <trkpt lat="37.0417650" lon="-2.2176890">
        <ele>605.0</ele>
        <time>2019-10-18T11:44:59Z</time>
      </trkpt>
      <trkpt lat="37.0417820" lon="-2.2177160">
        <ele>605.3</ele>
        <time>2019-10-18T11:45:00Z</time>
      </trkpt>
      <trkpt lat="37.0418010" lon="-2.2177430">
        <ele>605.7</ele>
        <time>2019-10-18T11:45:01Z</time>
      </trkpt>
      <trkpt lat="37.0418220" lon="-2.2177670">
        <ele>605.9</ele>
        <time>2019-10-18T11:45:02Z</time>
      </trkpt>
      <trkpt lat="37.0418460" lon="-2.2177890">
        <ele>606.2</ele>
        <time>2019-10-18T11:45:03Z</time>
      </trkpt>
      <trkpt lat="37.0418730" lon="-2.2178050">
        <ele>606.5</ele>
        <time>2019-10-18T11:45:04Z</time>
      </trkpt>
      <trkpt lat="37.0419010" lon="-2.2178160">
        <ele>606.7</ele>
        <time>2019-10-18T11:45:05Z</time>
      </trkpt>
      <trkpt lat="37.0419320" lon="-2.2178220">
        <ele>607.0</ele>
        <time>2019-10-18T11:45:06Z</time>
      </trkpt>
      <trkpt lat="37.0419620" lon="-2.2178210">
        <ele>607.2</ele>
        <time>2019-10-18T11:45:07Z</time>
      </trkpt>
      <trkpt lat="37.0419920" lon="-2.2178160">
        <ele>607.4</ele>
        <time>2019-10-18T11:45:08Z</time>
      </trkpt>
      <trkpt lat="37.0420220" lon="-2.2178090">
        <ele>607.6</ele>
        <time>2019-10-18T11:45:09Z</time>
      </trkpt>
      <trkpt lat="37.0420520" lon="-2.2178020">
        <ele>607.8</ele>
        <time>2019-10-18T11:45:10Z</time>
      </trkpt>
      <trkpt lat="37.0420820" lon="-2.2177940">
        <ele>608.0</ele>
        <time>2019-10-18T11:45:11Z</time>
      </trkpt>
      <trkpt lat="37.0421120" lon="-2.2177860">
        <ele>608.1</ele>
        <time>2019-10-18T11:45:12Z</time>
      </trkpt>
      <trkpt lat="37.0421420" lon="-2.2177810">
        <ele>608.2</ele>
        <time>2019-10-18T11:45:13Z</time>
      </trkpt>
      <trkpt lat="37.0421730" lon="-2.2177770">
        <ele>608.4</ele>
        <time>2019-10-18T11:45:14Z</time>
      </trkpt>
      <trkpt lat="37.0422040" lon="-2.2177770">
        <ele>608.5</ele>
        <time>2019-10-18T11:45:15Z</time>
      </trkpt>
      <trkpt lat="37.0422360" lon="-2.2177800">
        <ele>608.6</ele>
        <time>2019-10-18T11:45:16Z</time>
      </trkpt>
      <trkpt lat="37.0422670" lon="-2.2177870">
        <ele>608.7</ele>
        <time>2019-10-18T11:45:17Z</time>
      </trkpt>
      <trkpt lat="37.0422970" lon="-2.2177980">
        <ele>608.7</ele>
        <time>2019-10-18T11:45:18Z</time>
      </trkpt>
      <trkpt lat="37.0423260" lon="-2.2178150">
        <ele>608.8</ele>
        <time>2019-10-18T11:45:19Z</time>
      </trkpt>
      <trkpt lat="37.0423550" lon="-2.2178360">
        <ele>608.9</ele>
        <time>2019-10-18T11:45:20Z</time>
      </trkpt>
      <trkpt lat="37.0423850" lon="-2.2178550">
        <ele>609.0</ele>
        <time>2019-10-18T11:45:21Z</time>
      </trkpt>
      <trkpt lat="37.0424180" lon="-2.2178700">
        <ele>609.0</ele>
        <time>2019-10-18T11:45:22Z</time>
      </trkpt>
      <trkpt lat="37.0424520" lon="-2.2178810">
        <ele>609.1</ele>
        <time>2019-10-18T11:45:23Z</time>
      </trkpt>
      <trkpt lat="37.0424870" lon="-2.2178860">
        <ele>609.2</ele>
        <time>2019-10-18T11:45:24Z</time>
      </trkpt>
      <trkpt lat="37.0425220" lon="-2.2178870">
        <ele>609.2</ele>
        <time>2019-10-18T11:45:25Z</time>
      </trkpt>
      <trkpt lat="37.0425570" lon="-2.2178860">
        <ele>609.3</ele>
        <time>2019-10-18T11:45:26Z</time>
      </trkpt>
      <trkpt lat="37.0425920" lon="-2.2178820">
        <ele>609.4</ele>
        <time>2019-10-18T11:45:27Z</time>
      </trkpt>
      <trkpt lat="37.0426260" lon="-2.2178780">
        <ele>609.5</ele>
        <time>2019-10-18T11:45:28Z</time>
      </trkpt>
      <trkpt lat="37.0426600" lon="-2.2178740">
        <ele>609.6</ele>
        <time>2019-10-18T11:45:29Z</time>
      </trkpt>
      <trkpt lat="37.0426930" lon="-2.2178700">
        <ele>609.8</ele>
        <time>2019-10-18T11:45:30Z</time>
      </trkpt>
      <trkpt lat="37.0427260" lon="-2.2178660">
        <ele>609.9</ele>
        <time>2019-10-18T11:45:31Z</time>
      </trkpt>
      <trkpt lat="37.0427590" lon="-2.2178610">
        <ele>610.1</ele>
        <time>2019-10-18T11:45:32Z</time>
      </trkpt>
      <trkpt lat="37.0427930" lon="-2.2178560">
        <ele>610.2</ele>
        <time>2019-10-18T11:45:33Z</time>
      </trkpt>
      <trkpt lat="37.0428260" lon="-2.2178520">
        <ele>610.4</ele>
        <time>2019-10-18T11:45:34Z</time>
      </trkpt>
      <trkpt lat="37.0428590" lon="-2.2178510">
        <ele>610.5</ele>
        <time>2019-10-18T11:45:35Z</time>
      </trkpt>
      <trkpt lat="37.0428910" lon="-2.2178540">
        <ele>610.7</ele>
        <time>2019-10-18T11:45:36Z</time>
      </trkpt>
      <trkpt lat="37.0429230" lon="-2.2178620">
        <ele>610.8</ele>
        <time>2019-10-18T11:45:37Z</time>
      </trkpt>
      <trkpt lat="37.0429550" lon="-2.2178750">
        <ele>610.9</ele>
        <time>2019-10-18T11:45:38Z</time>
      </trkpt>
      <trkpt lat="37.0429860" lon="-2.2178920">
        <ele>611.0</ele>
        <time>2019-10-18T11:45:39Z</time>
      </trkpt>
      <trkpt lat="37.0430140" lon="-2.2179130">
        <ele>611.0</ele>
        <time>2019-10-18T11:45:40Z</time>
      </trkpt>
      <trkpt lat="37.0430380" lon="-2.2179390">
        <ele>611.1</ele>
        <time>2019-10-18T11:45:41Z</time>
      </trkpt>
      <trkpt lat="37.0430580" lon="-2.2179680">
        <ele>611.2</ele>
        <time>2019-10-18T11:45:42Z</time>
      </trkpt>
      <trkpt lat="37.0430710" lon="-2.2180010">
        <ele>611.3</ele>
        <time>2019-10-18T11:45:43Z</time>
      </trkpt>
      <trkpt lat="37.0430800" lon="-2.2180360">
        <ele>611.4</ele>
        <time>2019-10-18T11:45:44Z</time>
      </trkpt>
      <trkpt lat="37.0430890" lon="-2.2180710">
        <ele>611.5</ele>
        <time>2019-10-18T11:45:45Z</time>
      </trkpt>
      <trkpt lat="37.0430980" lon="-2.2181060">
        <ele>611.6</ele>
        <time>2019-10-18T11:45:46Z</time>
      </trkpt>
      <trkpt lat="37.0431060" lon="-2.2181400">
        <ele>611.7</ele>
        <time>2019-10-18T11:45:47Z</time>
      </trkpt>
      <trkpt lat="37.0431130" lon="-2.2181750">
        <ele>611.8</ele>
        <time>2019-10-18T11:45:48Z</time>
      </trkpt>
      <trkpt lat="37.0431190" lon="-2.2182100">
        <ele>611.9</ele>
        <time>2019-10-18T11:45:49Z</time>
      </trkpt>
      <trkpt lat="37.0431250" lon="-2.2182460">
        <ele>612.1</ele>
        <time>2019-10-18T11:45:50Z</time>
      </trkpt>
      <trkpt lat="37.0431320" lon="-2.2182820">
        <ele>612.3</ele>
        <time>2019-10-18T11:45:51Z</time>
      </trkpt>
      <trkpt lat="37.0431380" lon="-2.2183170">
        <ele>612.5</ele>
        <time>2019-10-18T11:45:52Z</time>
      </trkpt>
      <trkpt lat="37.0431450" lon="-2.2183510">
        <ele>612.7</ele>
        <time>2019-10-18T11:45:53Z</time>
      </trkpt>
      <trkpt lat="37.0431520" lon="-2.2183840">
        <ele>613.0</ele>
        <time>2019-10-18T11:45:54Z</time>
      </trkpt>
      <trkpt lat="37.0431570" lon="-2.2184180">
        <ele>613.2</ele>
        <time>2019-10-18T11:45:55Z</time>
      </trkpt>
      <trkpt lat="37.0431600" lon="-2.2184520">
        <ele>613.5</ele>
        <time>2019-10-18T11:45:56Z</time>
      </trkpt>
      <trkpt lat="37.0431620" lon="-2.2184870">
        <ele>613.8</ele>
        <time>2019-10-18T11:45:57Z</time>
      </trkpt>
      <trkpt lat="37.0431630" lon="-2.2185220">
        <ele>614.1</ele>
        <time>2019-10-18T11:45:58Z</time>
      </trkpt>
      <trkpt lat="37.0431630" lon="-2.2185580">
        <ele>614.5</ele>
        <time>2019-10-18T11:45:59Z</time>
      </trkpt>
      <trkpt lat="37.0431640" lon="-2.2185950">
        <ele>614.9</ele>
        <time>2019-10-18T11:46:00Z</time>
      </trkpt>
      <trkpt lat="37.0431630" lon="-2.2186330">
        <ele>615.3</ele>
        <time>2019-10-18T11:46:01Z</time>
      </trkpt>
      <trkpt lat="37.0431610" lon="-2.2186710">
        <ele>615.7</ele>
        <time>2019-10-18T11:46:02Z</time>
      </trkpt>
      <trkpt lat="37.0431570" lon="-2.2187090">
        <ele>616.1</ele>
        <time>2019-10-18T11:46:03Z</time>
      </trkpt>
      <trkpt lat="37.0431520" lon="-2.2187470">
        <ele>616.4</ele>
        <time>2019-10-18T11:46:04Z</time>
      </trkpt>
      <trkpt lat="37.0431460" lon="-2.2187860">
        <ele>616.8</ele>
        <time>2019-10-18T11:46:05Z</time>
      </trkpt>
      <trkpt lat="37.0431390" lon="-2.2188240">
        <ele>617.2</ele>
        <time>2019-10-18T11:46:06Z</time>
      </trkpt>
      <trkpt lat="37.0431320" lon="-2.2188630">
        <ele>617.5</ele>
        <time>2019-10-18T11:46:07Z</time>
      </trkpt>
      <trkpt lat="37.0431260" lon="-2.2189020">
        <ele>617.9</ele>
        <time>2019-10-18T11:46:08Z</time>
      </trkpt>
      <trkpt lat="37.0431200" lon="-2.2189420">
        <ele>618.2</ele>
        <time>2019-10-18T11:46:09Z</time>
      </trkpt>
      <trkpt lat="37.0431150" lon="-2.2189820">
        <ele>618.5</ele>
        <time>2019-10-18T11:46:10Z</time>
      </trkpt>
      <trkpt lat="37.0431090" lon="-2.2190210">
        <ele>618.8</ele>
        <time>2019-10-18T11:46:11Z</time>
      </trkpt>
      <trkpt lat="37.0431030" lon="-2.2190590">
        <ele>619.1</ele>
        <time>2019-10-18T11:46:12Z</time>
      </trkpt>
      <trkpt lat="37.0430960" lon="-2.2190970">
        <ele>619.4</ele>
        <time>2019-10-18T11:46:13Z</time>
      </trkpt>
      <trkpt lat="37.0430890" lon="-2.2191340">
        <ele>619.7</ele>
        <time>2019-10-18T11:46:14Z</time>
      </trkpt>
      <trkpt lat="37.0430830" lon="-2.2191710">
        <ele>619.9</ele>
        <time>2019-10-18T11:46:15Z</time>
      </trkpt>
      <trkpt lat="37.0430770" lon="-2.2192080">
        <ele>620.2</ele>
        <time>2019-10-18T11:46:16Z</time>
      </trkpt>
      <trkpt lat="37.0430720" lon="-2.2192470">
        <ele>620.5</ele>
        <time>2019-10-18T11:46:17Z</time>
      </trkpt>
      <trkpt lat="37.0430670" lon="-2.2192860">
        <ele>620.8</ele>
        <time>2019-10-18T11:46:18Z</time>
      </trkpt>
      <trkpt lat="37.0430620" lon="-2.2193250">
        <ele>621.0</ele>
        <time>2019-10-18T11:46:19Z</time>
      </trkpt>
      <trkpt lat="37.0430560" lon="-2.2193630">
        <ele>621.0</ele>
        <time>2019-10-18T11:46:20Z</time>
      </trkpt>
      <trkpt lat="37.0430490" lon="-2.2194010">
        <ele>621.0</ele>
        <time>2019-10-18T11:46:21Z</time>
      </trkpt>
      <trkpt lat="37.0430430" lon="-2.2194400">
        <ele>621.0</ele>
        <time>2019-10-18T11:46:22Z</time>
      </trkpt>
      <trkpt lat="37.0430380" lon="-2.2194780">
        <ele>621.0</ele>
        <time>2019-10-18T11:46:23Z</time>
      </trkpt>
      <trkpt lat="37.0430330" lon="-2.2195170">
        <ele>621.0</ele>
        <time>2019-10-18T11:46:24Z</time>
      </trkpt>
      <trkpt lat="37.0430280" lon="-2.2195570">
        <ele>621.1</ele>
        <time>2019-10-18T11:46:25Z</time>
      </trkpt>
      <trkpt lat="37.0430230" lon="-2.2195960">
        <ele>621.1</ele>
        <time>2019-10-18T11:46:26Z</time>
      </trkpt>
      <trkpt lat="37.0430170" lon="-2.2196360">
        <ele>621.2</ele>
        <time>2019-10-18T11:46:27Z</time>
      </trkpt>
      <trkpt lat="37.0430120" lon="-2.2196770">
        <ele>621.3</ele>
        <time>2019-10-18T11:46:28Z</time>
      </trkpt>
      <trkpt lat="37.0430080" lon="-2.2197180">
        <ele>621.4</ele>
        <time>2019-10-18T11:46:29Z</time>
      </trkpt>
      <trkpt lat="37.0430030" lon="-2.2197590">
        <ele>621.5</ele>
        <time>2019-10-18T11:46:30Z</time>
      </trkpt>
      <trkpt lat="37.0429980" lon="-2.2198020">
        <ele>621.6</ele>
        <time>2019-10-18T11:46:31Z</time>
      </trkpt>
      <trkpt lat="37.0429930" lon="-2.2198470">
        <ele>621.7</ele>
        <time>2019-10-18T11:46:32Z</time>
      </trkpt>
      <trkpt lat="37.0429890" lon="-2.2198940">
        <ele>621.8</ele>
        <time>2019-10-18T11:46:33Z</time>
      </trkpt>
      <trkpt lat="37.0429850" lon="-2.2199440">
        <ele>621.9</ele>
        <time>2019-10-18T11:46:34Z</time>
      </trkpt>
      <trkpt lat="37.0429820" lon="-2.2199980">
        <ele>622.0</ele>
        <time>2019-10-18T11:46:35Z</time>
      </trkpt>
      <trkpt lat="37.0429780" lon="-2.2200580">
        <ele>622.1</ele>
        <time>2019-10-18T11:46:36Z</time>
      </trkpt>
      <trkpt lat="37.0429750" lon="-2.2201230">
        <ele>622.1</ele>
        <time>2019-10-18T11:46:37Z</time>
      </trkpt>
      <trkpt lat="37.0429750" lon="-2.2201930">
        <ele>622.1</ele>
        <time>2019-10-18T11:46:38Z</time>
      </trkpt>
      <trkpt lat="37.0429770" lon="-2.2202680">
        <ele>622.0</ele>
        <time>2019-10-18T11:46:39Z</time>
      </trkpt>
      <trkpt lat="37.0429820" lon="-2.2203500">
        <ele>622.0</ele>
        <time>2019-10-18T11:46:40Z</time>
      </trkpt>
      <trkpt lat="37.0429920" lon="-2.2204360">
        <ele>621.9</ele>
        <time>2019-10-18T11:46:41Z</time>
      </trkpt>
      <trkpt lat="37.0430070" lon="-2.2205270">
        <ele>621.8</ele>
        <time>2019-10-18T11:46:42Z</time>
      </trkpt>
      <trkpt lat="37.0430270" lon="-2.2206220">
        <ele>621.7</ele>
        <time>2019-10-18T11:46:43Z</time>
      </trkpt>
      <trkpt lat="37.0430530" lon="-2.2207190">
        <ele>621.6</ele>
        <time>2019-10-18T11:46:44Z</time>
      </trkpt>
      <trkpt lat="37.0430860" lon="-2.2208200">
        <ele>621.5</ele>
        <time>2019-10-18T11:46:45Z</time>
      </trkpt>
      <trkpt lat="37.0431260" lon="-2.2209210">
        <ele>621.3</ele>
        <time>2019-10-18T11:46:46Z</time>
      </trkpt>
      <trkpt lat="37.0431760" lon="-2.2210200">
        <ele>621.0</ele>
        <time>2019-10-18T11:46:47Z</time>
      </trkpt>
      <trkpt lat="37.0432370" lon="-2.2211130">
        <ele>620.6</ele>
        <time>2019-10-18T11:46:48Z</time>
      </trkpt>
      <trkpt lat="37.0433060" lon="-2.2211990">
        <ele>620.0</ele>
        <time>2019-10-18T11:46:49Z</time>
      </trkpt>
      <trkpt lat="37.0433780" lon="-2.2212810">
        <ele>619.4</ele>
        <time>2019-10-18T11:46:50Z</time>
      </trkpt>
      <trkpt lat="37.0434490" lon="-2.2213640">
        <ele>618.6</ele>
        <time>2019-10-18T11:46:51Z</time>
      </trkpt>
      <trkpt lat="37.0435140" lon="-2.2214490">
        <ele>617.8</ele>
        <time>2019-10-18T11:46:52Z</time>
      </trkpt>
      <trkpt lat="37.0435740" lon="-2.2215370">
        <ele>617.0</ele>
        <time>2019-10-18T11:46:53Z</time>
      </trkpt>
      <trkpt lat="37.0436310" lon="-2.2216210">
        <ele>616.2</ele>
        <time>2019-10-18T11:46:54Z</time>
      </trkpt>
      <trkpt lat="37.0436940" lon="-2.2216890">
        <ele>615.4</ele>
        <time>2019-10-18T11:46:55Z</time>
      </trkpt>
      <trkpt lat="37.0437660" lon="-2.2217260">
        <ele>614.6</ele>
        <time>2019-10-18T11:46:56Z</time>
      </trkpt>
      <trkpt lat="37.0438420" lon="-2.2217210">
        <ele>613.8</ele>
        <time>2019-10-18T11:46:57Z</time>
      </trkpt>
      <trkpt lat="37.0439160" lon="-2.2216800">
        <ele>612.9</ele>
        <time>2019-10-18T11:46:58Z</time>
      </trkpt>
      <trkpt lat="37.0439850" lon="-2.2216210">
        <ele>611.9</ele>
        <time>2019-10-18T11:46:59Z</time>
      </trkpt>
      <trkpt lat="37.0440560" lon="-2.2215720">
        <ele>611.1</ele>
        <time>2019-10-18T11:47:00Z</time>
      </trkpt>
      <trkpt lat="37.0441310" lon="-2.2215500">
        <ele>610.3</ele>
        <time>2019-10-18T11:47:01Z</time>
      </trkpt>
      <trkpt lat="37.0442070" lon="-2.2215640">
        <ele>609.7</ele>
        <time>2019-10-18T11:47:02Z</time>
      </trkpt>
      <trkpt lat="37.0442780" lon="-2.2216120">
        <ele>609.0</ele>
        <time>2019-10-18T11:47:03Z</time>
      </trkpt>
      <trkpt lat="37.0443450" lon="-2.2216840">
        <ele>608.2</ele>
        <time>2019-10-18T11:47:04Z</time>
      </trkpt>
      <trkpt lat="37.0444100" lon="-2.2217640">
        <ele>607.5</ele>
        <time>2019-10-18T11:47:05Z</time>
      </trkpt>
      <trkpt lat="37.0444810" lon="-2.2218410">
        <ele>606.7</ele>
        <time>2019-10-18T11:47:06Z</time>
      </trkpt>
      <trkpt lat="37.0445550" lon="-2.2219110">
        <ele>605.9</ele>
        <time>2019-10-18T11:47:07Z</time>
      </trkpt>
      <trkpt lat="37.0446330" lon="-2.2219770">
        <ele>605.1</ele>
        <time>2019-10-18T11:47:08Z</time>
      </trkpt>
      <trkpt lat="37.0447120" lon="-2.2220420">
        <ele>604.3</ele>
        <time>2019-10-18T11:47:09Z</time>
      </trkpt>
      <trkpt lat="37.0447910" lon="-2.2221090">
        <ele>603.5</ele>
        <time>2019-10-18T11:47:10Z</time>
      </trkpt>
      <trkpt lat="37.0448710" lon="-2.2221760">
        <ele>602.6</ele>
        <time>2019-10-18T11:47:11Z</time>
      </trkpt>
      <trkpt lat="37.0449510" lon="-2.2222440">
        <ele>601.7</ele>
        <time>2019-10-18T11:47:12Z</time>
      </trkpt>
      <trkpt lat="37.0450260" lon="-2.2223140">
        <ele>600.9</ele>
        <time>2019-10-18T11:47:13Z</time>
      </trkpt>
      <trkpt lat="37.0450920" lon="-2.2223920">
        <ele>600.0</ele>
        <time>2019-10-18T11:47:14Z</time>
      </trkpt>
      <trkpt lat="37.0451400" lon="-2.2224810">
        <ele>599.2</ele>
        <time>2019-10-18T11:47:15Z</time>
      </trkpt>
      <trkpt lat="37.0451620" lon="-2.2225820">
        <ele>598.4</ele>
        <time>2019-10-18T11:47:16Z</time>
      </trkpt>
      <trkpt lat="37.0451520" lon="-2.2226920">
        <ele>597.6</ele>
        <time>2019-10-18T11:47:17Z</time>
      </trkpt>
      <trkpt lat="37.0451150" lon="-2.2228070">
        <ele>596.8</ele>
        <time>2019-10-18T11:47:18Z</time>
      </trkpt>
      <trkpt lat="37.0450620" lon="-2.2229220">
        <ele>596.0</ele>
        <time>2019-10-18T11:47:19Z</time>
      </trkpt>
      <trkpt lat="37.0450090" lon="-2.2230320">
        <ele>595.2</ele>
        <time>2019-10-18T11:47:20Z</time>
      </trkpt>
      <trkpt lat="37.0449580" lon="-2.2231380">
        <ele>594.5</ele>
        <time>2019-10-18T11:47:21Z</time>
      </trkpt>
      <trkpt lat="37.0449090" lon="-2.2232350">
        <ele>593.7</ele>
        <time>2019-10-18T11:47:22Z</time>
      </trkpt>
      <trkpt lat="37.0448610" lon="-2.2233210">
        <ele>593.1</ele>
        <time>2019-10-18T11:47:23Z</time>
      </trkpt>
      <trkpt lat="37.0448130" lon="-2.2233930">
        <ele>592.5</ele>
        <time>2019-10-18T11:47:24Z</time>
      </trkpt>
      <trkpt lat="37.0447630" lon="-2.2234470">
        <ele>592.1</ele>
        <time>2019-10-18T11:47:25Z</time>
      </trkpt>
      <trkpt lat="37.0447110" lon="-2.2234860">
        <ele>591.8</ele>
        <time>2019-10-18T11:47:26Z</time>
      </trkpt>
      <trkpt lat="37.0446610" lon="-2.2235140">
        <ele>591.6</ele>
        <time>2019-10-18T11:47:27Z</time>
      </trkpt>
      <trkpt lat="37.0446120" lon="-2.2235360">
        <ele>591.4</ele>
        <time>2019-10-18T11:47:28Z</time>
      </trkpt>
      <trkpt lat="37.0445660" lon="-2.2235540">
        <ele>591.2</ele>
        <time>2019-10-18T11:47:29Z</time>
      </trkpt>
      <trkpt lat="37.0445220" lon="-2.2235700">
        <ele>591.1</ele>
        <time>2019-10-18T11:47:30Z</time>
      </trkpt>
      <trkpt lat="37.0444800" lon="-2.2235860">
        <ele>591.0</ele>
        <time>2019-10-18T11:47:31Z</time>
      </trkpt>
      <trkpt lat="37.0444400" lon="-2.2235990">
        <ele>590.8</ele>
        <time>2019-10-18T11:47:32Z</time>
      </trkpt>
      <trkpt lat="37.0444020" lon="-2.2236100">
        <ele>590.8</ele>
        <time>2019-10-18T11:47:33Z</time>
      </trkpt>
      <trkpt lat="37.0443660" lon="-2.2236200">
        <ele>590.7</ele>
        <time>2019-10-18T11:47:34Z</time>
      </trkpt>
      <trkpt lat="37.0443310" lon="-2.2236300">
        <ele>590.7</ele>
        <time>2019-10-18T11:47:35Z</time>
      </trkpt>
      <trkpt lat="37.0442970" lon="-2.2236390">
        <ele>590.7</ele>
        <time>2019-10-18T11:47:36Z</time>
      </trkpt>
      <trkpt lat="37.0442640" lon="-2.2236480">
        <ele>590.7</ele>
        <time>2019-10-18T11:47:37Z</time>
      </trkpt>
      <trkpt lat="37.0442320" lon="-2.2236570">
        <ele>590.7</ele>
        <time>2019-10-18T11:47:38Z</time>
      </trkpt>
      <trkpt lat="37.0442010" lon="-2.2236670">
        <ele>590.8</ele>
        <time>2019-10-18T11:47:39Z</time>
      </trkpt>
      <trkpt lat="37.0441700" lon="-2.2236760">
        <ele>591.0</ele>
        <time>2019-10-18T11:47:40Z</time>
      </trkpt>
      <trkpt lat="37.0441400" lon="-2.2236850">
        <ele>591.1</ele>
        <time>2019-10-18T11:47:41Z</time>
      </trkpt>
      <trkpt lat="37.0441100" lon="-2.2236950">
        <ele>591.4</ele>
        <time>2019-10-18T11:47:42Z</time>
      </trkpt>
      <trkpt lat="37.0440800" lon="-2.2237050">
        <ele>591.6</ele>
        <time>2019-10-18T11:47:43Z</time>
      </trkpt>
      <trkpt lat="37.0440510" lon="-2.2237160">
        <ele>591.9</ele>
        <time>2019-10-18T11:47:44Z</time>
      </trkpt>
      <trkpt lat="37.0440210" lon="-2.2237260">
        <ele>592.3</ele>
        <time>2019-10-18T11:47:45Z</time>
      </trkpt>
      <trkpt lat="37.0439910" lon="-2.2237360">
        <ele>592.6</ele>
        <time>2019-10-18T11:47:46Z</time>
      </trkpt>
      <trkpt lat="37.0439620" lon="-2.2237470">
        <ele>592.9</ele>
        <time>2019-10-18T11:47:47Z</time>
      </trkpt>
      <trkpt lat="37.0439330" lon="-2.2237580">
        <ele>593.2</ele>
        <time>2019-10-18T11:47:48Z</time>
      </trkpt>
      <trkpt lat="37.0439060" lon="-2.2237720">
        <ele>593.6</ele>
        <time>2019-10-18T11:47:49Z</time>
      </trkpt>
      <trkpt lat="37.0438800" lon="-2.2237880">
        <ele>593.9</ele>
        <time>2019-10-18T11:47:50Z</time>
      </trkpt>
      <trkpt lat="37.0438540" lon="-2.2238030">
        <ele>594.3</ele>
        <time>2019-10-18T11:47:51Z</time>
      </trkpt>
      <trkpt lat="37.0438290" lon="-2.2238170">
        <ele>594.7</ele>
        <time>2019-10-18T11:47:52Z</time>
      </trkpt>
      <trkpt lat="37.0438040" lon="-2.2238310">
        <ele>595.0</ele>
        <time>2019-10-18T11:47:53Z</time>
      </trkpt>
      <trkpt lat="37.0437790" lon="-2.2238440">
        <ele>595.4</ele>
        <time>2019-10-18T11:47:54Z</time>
      </trkpt>
      <trkpt lat="37.0437530" lon="-2.2238590">
        <ele>595.8</ele>
        <time>2019-10-18T11:47:55Z</time>
      </trkpt>
      <trkpt lat="37.0437290" lon="-2.2238760">
        <ele>596.2</ele>
        <time>2019-10-18T11:47:56Z</time>
      </trkpt>
      <trkpt lat="37.0437050" lon="-2.2238940">
        <ele>596.6</ele>
        <time>2019-10-18T11:47:57Z</time>
      </trkpt>
      <trkpt lat="37.0436820" lon="-2.2239140">
        <ele>597.0</ele>
        <time>2019-10-18T11:47:58Z</time>
      </trkpt>
      <trkpt lat="37.0436600" lon="-2.2239350">
        <ele>597.3</ele>
        <time>2019-10-18T11:47:59Z</time>
      </trkpt>
      <trkpt lat="37.0436410" lon="-2.2239580">
        <ele>597.7</ele>
        <time>2019-10-18T11:48:00Z</time>
      </trkpt>
      <trkpt lat="37.0436250" lon="-2.2239840">
        <ele>598.0</ele>
        <time>2019-10-18T11:48:01Z</time>
      </trkpt>
      <trkpt lat="37.0436110" lon="-2.2240120">
        <ele>598.3</ele>
        <time>2019-10-18T11:48:02Z</time>
      </trkpt>
      <trkpt lat="37.0436000" lon="-2.2240420">
        <ele>598.6</ele>
        <time>2019-10-18T11:48:03Z</time>
      </trkpt>
      <trkpt lat="37.0435910" lon="-2.2240740">
        <ele>598.9</ele>
        <time>2019-10-18T11:48:04Z</time>
      </trkpt>
      <trkpt lat="37.0435840" lon="-2.2241060">
        <ele>599.1</ele>
        <time>2019-10-18T11:48:05Z</time>
      </trkpt>
      <trkpt lat="37.0435770" lon="-2.2241380">
        <ele>599.4</ele>
        <time>2019-10-18T11:48:06Z</time>
      </trkpt>
      <trkpt lat="37.0435700" lon="-2.2241710">
        <ele>599.6</ele>
        <time>2019-10-18T11:48:07Z</time>
      </trkpt>
      <trkpt lat="37.0435630" lon="-2.2242040">
        <ele>599.8</ele>
        <time>2019-10-18T11:48:08Z</time>
      </trkpt>
      <trkpt lat="37.0435560" lon="-2.2242370">
        <ele>600.0</ele>
        <time>2019-10-18T11:48:09Z</time>
      </trkpt>
      <trkpt lat="37.0435480" lon="-2.2242700">
        <ele>600.1</ele>
        <time>2019-10-18T11:48:10Z</time>
      </trkpt>
      <trkpt lat="37.0435390" lon="-2.2243010">
        <ele>600.3</ele>
        <time>2019-10-18T11:48:11Z</time>
      </trkpt>
      <trkpt lat="37.0435280" lon="-2.2243320">
        <ele>600.5</ele>
        <time>2019-10-18T11:48:12Z</time>
      </trkpt>
      <trkpt lat="37.0435150" lon="-2.2243600">
        <ele>600.7</ele>
        <time>2019-10-18T11:48:13Z</time>
      </trkpt>
      <trkpt lat="37.0435000" lon="-2.2243870">
        <ele>600.8</ele>
        <time>2019-10-18T11:48:14Z</time>
      </trkpt>
      <trkpt lat="37.0434830" lon="-2.2244110">
        <ele>601.0</ele>
        <time>2019-10-18T11:48:15Z</time>
      </trkpt>
      <trkpt lat="37.0434630" lon="-2.2244330">
        <ele>601.2</ele>
        <time>2019-10-18T11:48:16Z</time>
      </trkpt>
      <trkpt lat="37.0434430" lon="-2.2244530">
        <ele>601.3</ele>
        <time>2019-10-18T11:48:17Z</time>
      </trkpt>
      <trkpt lat="37.0434210" lon="-2.2244730">
        <ele>601.5</ele>
        <time>2019-10-18T11:48:18Z</time>
      </trkpt>
      <trkpt lat="37.0433980" lon="-2.2244910">
        <ele>601.7</ele>
        <time>2019-10-18T11:48:19Z</time>
      </trkpt>
      <trkpt lat="37.0433740" lon="-2.2245080">
        <ele>601.9</ele>
        <time>2019-10-18T11:48:20Z</time>
      </trkpt>
      <trkpt lat="37.0433490" lon="-2.2245230">
        <ele>602.0</ele>
        <time>2019-10-18T11:48:21Z</time>
      </trkpt>
      <trkpt lat="37.0433240" lon="-2.2245370">
        <ele>602.2</ele>
        <time>2019-10-18T11:48:22Z</time>
      </trkpt>
      <trkpt lat="37.0432990" lon="-2.2245500">
        <ele>602.4</ele>
        <time>2019-10-18T11:48:23Z</time>
      </trkpt>
      <trkpt lat="37.0432730" lon="-2.2245610">
        <ele>602.5</ele>
        <time>2019-10-18T11:48:24Z</time>
      </trkpt>
      <trkpt lat="37.0432470" lon="-2.2245710">
        <ele>602.7</ele>
        <time>2019-10-18T11:48:25Z</time>
      </trkpt>
      <trkpt lat="37.0432220" lon="-2.2245830">
        <ele>602.9</ele>
        <time>2019-10-18T11:48:26Z</time>
      </trkpt>
      <trkpt lat="37.0431970" lon="-2.2245960">
        <ele>603.0</ele>
        <time>2019-10-18T11:48:27Z</time>
      </trkpt>
      <trkpt lat="37.0431710" lon="-2.2246100">
        <ele>603.2</ele>
        <time>2019-10-18T11:48:28Z</time>
      </trkpt>
      <trkpt lat="37.0431450" lon="-2.2246230">
        <ele>603.4</ele>
        <time>2019-10-18T11:48:29Z</time>
      </trkpt>
      <trkpt lat="37.0431190" lon="-2.2246360">
        <ele>603.6</ele>
        <time>2019-10-18T11:48:30Z</time>
      </trkpt>
      <trkpt lat="37.0430930" lon="-2.2246500">
        <ele>603.8</ele>
        <time>2019-10-18T11:48:31Z</time>
      </trkpt>
      <trkpt lat="37.0430670" lon="-2.2246640">
        <ele>603.9</ele>
        <time>2019-10-18T11:48:32Z</time>
      </trkpt>
      <trkpt lat="37.0430430" lon="-2.2246790">
        <ele>604.1</ele>
        <time>2019-10-18T11:48:33Z</time>
      </trkpt>
      <trkpt lat="37.0430190" lon="-2.2246950">
        <ele>604.3</ele>
        <time>2019-10-18T11:48:34Z</time>
      </trkpt>
      <trkpt lat="37.0429950" lon="-2.2247130">
        <ele>604.5</ele>
        <time>2019-10-18T11:48:35Z</time>
      </trkpt>
      <trkpt lat="37.0429740" lon="-2.2247350">
        <ele>604.7</ele>
        <time>2019-10-18T11:48:36Z</time>
      </trkpt>
      <trkpt lat="37.0429560" lon="-2.2247600">
        <ele>604.8</ele>
        <time>2019-10-18T11:48:37Z</time>
      </trkpt>
      <trkpt lat="37.0429410" lon="-2.2247900">
        <ele>605.0</ele>
        <time>2019-10-18T11:48:38Z</time>
      </trkpt>
      <trkpt lat="37.0429290" lon="-2.2248210">
        <ele>605.1</ele>
        <time>2019-10-18T11:48:39Z</time>
      </trkpt>
      <trkpt lat="37.0429200" lon="-2.2248530">
        <ele>605.3</ele>
        <time>2019-10-18T11:48:40Z</time>
      </trkpt>
      <trkpt lat="37.0429130" lon="-2.2248860">
        <ele>605.4</ele>
        <time>2019-10-18T11:48:41Z</time>
      </trkpt>
      <trkpt lat="37.0429070" lon="-2.2249180">
        <ele>605.6</ele>
        <time>2019-10-18T11:48:42Z</time>
      </trkpt>
      <trkpt lat="37.0429000" lon="-2.2249490">
        <ele>605.7</ele>
        <time>2019-10-18T11:48:43Z</time>
      </trkpt>
      <trkpt lat="37.0428920" lon="-2.2249800">
        <ele>605.9</ele>
        <time>2019-10-18T11:48:44Z</time>
      </trkpt>
      <trkpt lat="37.0428820" lon="-2.2250100">
        <ele>606.0</ele>
        <time>2019-10-18T11:48:45Z</time>
      </trkpt>
      <trkpt lat="37.0428700" lon="-2.2250400">
        <ele>606.2</ele>
        <time>2019-10-18T11:48:46Z</time>
      </trkpt>
      <trkpt lat="37.0428560" lon="-2.2250690">
        <ele>606.4</ele>
        <time>2019-10-18T11:48:47Z</time>
      </trkpt>
      <trkpt lat="37.0428380" lon="-2.2250950">
        <ele>606.6</ele>
        <time>2019-10-18T11:48:48Z</time>
      </trkpt>
      <trkpt lat="37.0428180" lon="-2.2251180">
        <ele>606.7</ele>
        <time>2019-10-18T11:48:49Z</time>
      </trkpt>
      <trkpt lat="37.0427950" lon="-2.2251370">
        <ele>606.9</ele>
        <time>2019-10-18T11:48:50Z</time>
      </trkpt>
      <trkpt lat="37.0427710" lon="-2.2251530">
        <ele>607.1</ele>
        <time>2019-10-18T11:48:51Z</time>
      </trkpt>
      <trkpt lat="37.0427450" lon="-2.2251650">
        <ele>607.3</ele>
        <time>2019-10-18T11:48:52Z</time>
      </trkpt>
      <trkpt lat="37.0427190" lon="-2.2251740">
        <ele>607.5</ele>
        <time>2019-10-18T11:48:53Z</time>
      </trkpt>
      <trkpt lat="37.0426920" lon="-2.2251780">
        <ele>607.6</ele>
        <time>2019-10-18T11:48:54Z</time>
      </trkpt>
      <trkpt lat="37.0426650" lon="-2.2251770">
        <ele>607.8</ele>
        <time>2019-10-18T11:48:55Z</time>
      </trkpt>
      <trkpt lat="37.0426380" lon="-2.2251710">
        <ele>608.0</ele>
        <time>2019-10-18T11:48:56Z</time>
      </trkpt>
      <trkpt lat="37.0426130" lon="-2.2251580">
        <ele>608.2</ele>
        <time>2019-10-18T11:48:57Z</time>
      </trkpt>
      <trkpt lat="37.0425880" lon="-2.2251400">
        <ele>608.3</ele>
        <time>2019-10-18T11:48:58Z</time>
      </trkpt>
      <trkpt lat="37.0425640" lon="-2.2251200">
        <ele>608.5</ele>
        <time>2019-10-18T11:48:59Z</time>
      </trkpt>
      <trkpt lat="37.0425410" lon="-2.2251000">
        <ele>608.6</ele>
        <time>2019-10-18T11:49:00Z</time>
      </trkpt>
      <trkpt lat="37.0425200" lon="-2.2250790">
        <ele>608.7</ele>
        <time>2019-10-18T11:49:01Z</time>
      </trkpt>
      <trkpt lat="37.0424990" lon="-2.2250560">
        <ele>608.9</ele>
        <time>2019-10-18T11:49:02Z</time>
      </trkpt>
      <trkpt lat="37.0424780" lon="-2.2250310">
        <ele>609.0</ele>
        <time>2019-10-18T11:49:03Z</time>
      </trkpt>
      <trkpt lat="37.0424560" lon="-2.2250050">
        <ele>609.1</ele>
        <time>2019-10-18T11:49:04Z</time>
      </trkpt>
      <trkpt lat="37.0424340" lon="-2.2249810">
        <ele>609.2</ele>
        <time>2019-10-18T11:49:05Z</time>
      </trkpt>
      <trkpt lat="37.0424130" lon="-2.2249570">
        <ele>609.4</ele>
        <time>2019-10-18T11:49:06Z</time>
      </trkpt>
      <trkpt lat="37.0423920" lon="-2.2249320">
        <ele>609.5</ele>
        <time>2019-10-18T11:49:07Z</time>
      </trkpt>
      <trkpt lat="37.0423730" lon="-2.2249070">
        <ele>609.6</ele>
        <time>2019-10-18T11:49:08Z</time>
      </trkpt>
      <trkpt lat="37.0423530" lon="-2.2248820">
        <ele>609.7</ele>
        <time>2019-10-18T11:49:09Z</time>
      </trkpt>
      <trkpt lat="37.0423320" lon="-2.2248590">
        <ele>609.8</ele>
        <time>2019-10-18T11:49:10Z</time>
      </trkpt>
      <trkpt lat="37.0423110" lon="-2.2248360">
        <ele>609.9</ele>
        <time>2019-10-18T11:49:11Z</time>
      </trkpt>
      <trkpt lat="37.0422900" lon="-2.2248140">
        <ele>610.0</ele>
        <time>2019-10-18T11:49:12Z</time>
      </trkpt>
      <trkpt lat="37.0422690" lon="-2.2247920">
        <ele>610.1</ele>
        <time>2019-10-18T11:49:13Z</time>
      </trkpt>
      <trkpt lat="37.0422480" lon="-2.2247690">
        <ele>610.2</ele>
        <time>2019-10-18T11:49:14Z</time>
      </trkpt>
      <trkpt lat="37.0422260" lon="-2.2247470">
        <ele>610.3</ele>
        <time>2019-10-18T11:49:15Z</time>
      </trkpt>
      <trkpt lat="37.0422040" lon="-2.2247250">
        <ele>610.4</ele>
        <time>2019-10-18T11:49:16Z</time>
      </trkpt>
      <trkpt lat="37.0421810" lon="-2.2247040">
        <ele>610.5</ele>
        <time>2019-10-18T11:49:17Z</time>
      </trkpt>
      <trkpt lat="37.0421570" lon="-2.2246840">
        <ele>610.6</ele>
        <time>2019-10-18T11:49:18Z</time>
      </trkpt>
      <trkpt lat="37.0421330" lon="-2.2246670">
        <ele>610.7</ele>
        <time>2019-10-18T11:49:19Z</time>
      </trkpt>
      <trkpt lat="37.0421060" lon="-2.2246530">
        <ele>610.8</ele>
        <time>2019-10-18T11:49:20Z</time>
      </trkpt>
      <trkpt lat="37.0420790" lon="-2.2246430">
        <ele>610.9</ele>
        <time>2019-10-18T11:49:21Z</time>
      </trkpt>
      <trkpt lat="37.0420520" lon="-2.2246350">
        <ele>611.0</ele>
        <time>2019-10-18T11:49:22Z</time>
      </trkpt>
      <trkpt lat="37.0420250" lon="-2.2246280">
        <ele>611.2</ele>
        <time>2019-10-18T11:49:23Z</time>
      </trkpt>
      <trkpt lat="37.0420000" lon="-2.2246240">
        <ele>611.3</ele>
        <time>2019-10-18T11:49:24Z</time>
      </trkpt>
      <trkpt lat="37.0419750" lon="-2.2246190">
        <ele>611.4</ele>
        <time>2019-10-18T11:49:25Z</time>
      </trkpt>
      <trkpt lat="37.0419500" lon="-2.2246140">
        <ele>611.6</ele>
        <time>2019-10-18T11:49:26Z</time>
      </trkpt>
      <trkpt lat="37.0419240" lon="-2.2246110">
        <ele>611.8</ele>
        <time>2019-10-18T11:49:27Z</time>
      </trkpt>
      <trkpt lat="37.0418960" lon="-2.2246110">
        <ele>612.0</ele>
        <time>2019-10-18T11:49:28Z</time>
      </trkpt>
      <trkpt lat="37.0418690" lon="-2.2246100">
        <ele>612.1</ele>
        <time>2019-10-18T11:49:29Z</time>
      </trkpt>
      <trkpt lat="37.0418410" lon="-2.2246080">
        <ele>612.3</ele>
        <time>2019-10-18T11:49:30Z</time>
      </trkpt>
      <trkpt lat="37.0418140" lon="-2.2246050">
        <ele>612.5</ele>
        <time>2019-10-18T11:49:31Z</time>
      </trkpt>
      <trkpt lat="37.0417870" lon="-2.2246020">
        <ele>612.7</ele>
        <time>2019-10-18T11:49:32Z</time>
      </trkpt>
      <trkpt lat="37.0417610" lon="-2.2246000">
        <ele>612.8</ele>
        <time>2019-10-18T11:49:33Z</time>
      </trkpt>
      <trkpt lat="37.0417340" lon="-2.2245990">
        <ele>613.0</ele>
        <time>2019-10-18T11:49:34Z</time>
      </trkpt>
      <trkpt lat="37.0417080" lon="-2.2245990">
        <ele>613.2</ele>
        <time>2019-10-18T11:49:35Z</time>
      </trkpt>
      <trkpt lat="37.0416820" lon="-2.2245970">
        <ele>613.3</ele>
        <time>2019-10-18T11:49:36Z</time>
      </trkpt>
      <trkpt lat="37.0416560" lon="-2.2245950">
        <ele>613.5</ele>
        <time>2019-10-18T11:49:37Z</time>
      </trkpt>
      <trkpt lat="37.0416300" lon="-2.2245930">
        <ele>613.6</ele>
        <time>2019-10-18T11:49:38Z</time>
      </trkpt>
      <trkpt lat="37.0416050" lon="-2.2245910">
        <ele>613.8</ele>
        <time>2019-10-18T11:49:39Z</time>
      </trkpt>
      <trkpt lat="37.0415800" lon="-2.2245890">
        <ele>613.9</ele>
        <time>2019-10-18T11:49:40Z</time>
      </trkpt>
      <trkpt lat="37.0415560" lon="-2.2245870">
        <ele>614.1</ele>
        <time>2019-10-18T11:49:41Z</time>
      </trkpt>
      <trkpt lat="37.0415310" lon="-2.2245860">
        <ele>614.2</ele>
        <time>2019-10-18T11:49:42Z</time>
      </trkpt>
      <trkpt lat="37.0415060" lon="-2.2245850">
        <ele>614.4</ele>
        <time>2019-10-18T11:49:43Z</time>
      </trkpt>
      <trkpt lat="37.0414810" lon="-2.2245850">
        <ele>614.5</ele>
        <time>2019-10-18T11:49:44Z</time>
      </trkpt>
      <trkpt lat="37.0414540" lon="-2.2245840">
        <ele>614.6</ele>
        <time>2019-10-18T11:49:45Z</time>
      </trkpt>
      <trkpt lat="37.0414270" lon="-2.2245850">
        <ele>614.8</ele>
        <time>2019-10-18T11:49:46Z</time>
      </trkpt>
      <trkpt lat="37.0414000" lon="-2.2245870">
        <ele>614.9</ele>
        <time>2019-10-18T11:49:47Z</time>
      </trkpt>
      <trkpt lat="37.0413740" lon="-2.2245900">
        <ele>615.1</ele>
        <time>2019-10-18T11:49:48Z</time>
      </trkpt>
      <trkpt lat="37.0413480" lon="-2.2245940">
        <ele>615.2</ele>
        <time>2019-10-18T11:49:49Z</time>
      </trkpt>
      <trkpt lat="37.0413230" lon="-2.2246010">
        <ele>615.3</ele>
        <time>2019-10-18T11:49:50Z</time>
      </trkpt>
      <trkpt lat="37.0412990" lon="-2.2246110">
        <ele>615.5</ele>
        <time>2019-10-18T11:49:51Z</time>
      </trkpt>
      <trkpt lat="37.0412760" lon="-2.2246260">
        <ele>615.6</ele>
        <time>2019-10-18T11:49:52Z</time>
      </trkpt>
      <trkpt lat="37.0412530" lon="-2.2246420">
        <ele>615.8</ele>
        <time>2019-10-18T11:49:53Z</time>
      </trkpt>
      <trkpt lat="37.0412310" lon="-2.2246620">
        <ele>615.9</ele>
        <time>2019-10-18T11:49:54Z</time>
      </trkpt>
      <trkpt lat="37.0412100" lon="-2.2246820">
        <ele>616.0</ele>
        <time>2019-10-18T11:49:55Z</time>
      </trkpt>
      <trkpt lat="37.0411900" lon="-2.2247030">
        <ele>616.2</ele>
        <time>2019-10-18T11:49:56Z</time>
      </trkpt>
      <trkpt lat="37.0411700" lon="-2.2247240">
        <ele>616.3</ele>
        <time>2019-10-18T11:49:57Z</time>
      </trkpt>
      <trkpt lat="37.0411500" lon="-2.2247450">
        <ele>616.5</ele>
        <time>2019-10-18T11:49:58Z</time>
      </trkpt>
      <trkpt lat="37.0411310" lon="-2.2247670">
        <ele>616.6</ele>
        <time>2019-10-18T11:49:59Z</time>
      </trkpt>
      <trkpt lat="37.0411120" lon="-2.2247880">
        <ele>616.8</ele>
        <time>2019-10-18T11:50:00Z</time>
      </trkpt>
      <trkpt lat="37.0410940" lon="-2.2248090">
        <ele>616.9</ele>
        <time>2019-10-18T11:50:01Z</time>
      </trkpt>
      <trkpt lat="37.0410750" lon="-2.2248300">
        <ele>617.1</ele>
        <time>2019-10-18T11:50:02Z</time>
      </trkpt>
      <trkpt lat="37.0410560" lon="-2.2248500">
        <ele>617.2</ele>
        <time>2019-10-18T11:50:03Z</time>
      </trkpt>
      <trkpt lat="37.0410380" lon="-2.2248700">
        <ele>617.4</ele>
        <time>2019-10-18T11:50:04Z</time>
      </trkpt>
      <trkpt lat="37.0410190" lon="-2.2248890">
        <ele>617.5</ele>
        <time>2019-10-18T11:50:05Z</time>
      </trkpt>
      <trkpt lat="37.0409990" lon="-2.2249070">
        <ele>617.7</ele>
        <time>2019-10-18T11:50:06Z</time>
      </trkpt>
      <trkpt lat="37.0409790" lon="-2.2249250">
        <ele>617.9</ele>
        <time>2019-10-18T11:50:07Z</time>
      </trkpt>
      <trkpt lat="37.0409580" lon="-2.2249410">
        <ele>618.1</ele>
        <time>2019-10-18T11:50:08Z</time>
      </trkpt>
      <trkpt lat="37.0409370" lon="-2.2249560">
        <ele>618.2</ele>
        <time>2019-10-18T11:50:09Z</time>
      </trkpt>
      <trkpt lat="37.0409150" lon="-2.2249680">
        <ele>618.4</ele>
        <time>2019-10-18T11:50:10Z</time>
      </trkpt>
      <trkpt lat="37.0408920" lon="-2.2249780">
        <ele>618.6</ele>
        <time>2019-10-18T11:50:11Z</time>
      </trkpt>
      <trkpt lat="37.0408680" lon="-2.2249870">
        <ele>618.8</ele>
        <time>2019-10-18T11:50:12Z</time>
      </trkpt>
      <trkpt lat="37.0408440" lon="-2.2249950">
        <ele>619.0</ele>
        <time>2019-10-18T11:50:13Z</time>
      </trkpt>
      <trkpt lat="37.0408200" lon="-2.2250030">
        <ele>619.2</ele>
        <time>2019-10-18T11:50:14Z</time>
      </trkpt>
      <trkpt lat="37.0407950" lon="-2.2250090">
        <ele>619.4</ele>
        <time>2019-10-18T11:50:15Z</time>
      </trkpt>
      <trkpt lat="37.0407700" lon="-2.2250150">
        <ele>619.6</ele>
        <time>2019-10-18T11:50:16Z</time>
      </trkpt>
      <trkpt lat="37.0407450" lon="-2.2250200">
        <ele>619.7</ele>
        <time>2019-10-18T11:50:17Z</time>
      </trkpt>
      <trkpt lat="37.0407190" lon="-2.2250240">
        <ele>620.0</ele>
        <time>2019-10-18T11:50:18Z</time>
      </trkpt>
      <trkpt lat="37.0406940" lon="-2.2250260">
        <ele>620.2</ele>
        <time>2019-10-18T11:50:19Z</time>
      </trkpt>
      <trkpt lat="37.0406700" lon="-2.2250290">
        <ele>620.4</ele>
        <time>2019-10-18T11:50:20Z</time>
      </trkpt>
      <trkpt lat="37.0406460" lon="-2.2250320">
        <ele>620.6</ele>
        <time>2019-10-18T11:50:21Z</time>
      </trkpt>
      <trkpt lat="37.0406230" lon="-2.2250340">
        <ele>620.8</ele>
        <time>2019-10-18T11:50:22Z</time>
      </trkpt>
      <trkpt lat="37.0406000" lon="-2.2250350">
        <ele>621.0</ele>
        <time>2019-10-18T11:50:23Z</time>
      </trkpt>
      <trkpt lat="37.0405770" lon="-2.2250370">
        <ele>621.2</ele>
        <time>2019-10-18T11:50:24Z</time>
      </trkpt>
      <trkpt lat="37.0405530" lon="-2.2250420">
        <ele>621.4</ele>
        <time>2019-10-18T11:50:25Z</time>
      </trkpt>
      <trkpt lat="37.0405300" lon="-2.2250470">
        <ele>621.6</ele>
        <time>2019-10-18T11:50:26Z</time>
      </trkpt>
      <trkpt lat="37.0405070" lon="-2.2250520">
        <ele>621.8</ele>
        <time>2019-10-18T11:50:27Z</time>
      </trkpt>
      <trkpt lat="37.0404830" lon="-2.2250560">
        <ele>622.0</ele>
        <time>2019-10-18T11:50:28Z</time>
      </trkpt>
      <trkpt lat="37.0404600" lon="-2.2250580">
        <ele>622.2</ele>
        <time>2019-10-18T11:50:29Z</time>
      </trkpt>
      <trkpt lat="37.0404370" lon="-2.2250610">
        <ele>622.4</ele>
        <time>2019-10-18T11:50:30Z</time>
      </trkpt>
      <trkpt lat="37.0404140" lon="-2.2250650">
        <ele>622.6</ele>
        <time>2019-10-18T11:50:31Z</time>
      </trkpt>
      <trkpt lat="37.0403910" lon="-2.2250720">
        <ele>622.8</ele>
        <time>2019-10-18T11:50:32Z</time>
      </trkpt>
      <trkpt lat="37.0403680" lon="-2.2250800">
        <ele>623.0</ele>
        <time>2019-10-18T11:50:33Z</time>
      </trkpt>
      <trkpt lat="37.0403450" lon="-2.2250890">
        <ele>623.2</ele>
        <time>2019-10-18T11:50:34Z</time>
      </trkpt>
      <trkpt lat="37.0403220" lon="-2.2251000">
        <ele>623.5</ele>
        <time>2019-10-18T11:50:35Z</time>
      </trkpt>
      <trkpt lat="37.0403000" lon="-2.2251110">
        <ele>623.7</ele>
        <time>2019-10-18T11:50:36Z</time>
      </trkpt>
      <trkpt lat="37.0402780" lon="-2.2251250">
        <ele>623.9</ele>
        <time>2019-10-18T11:50:37Z</time>
      </trkpt>
      <trkpt lat="37.0402570" lon="-2.2251390">
        <ele>624.2</ele>
        <time>2019-10-18T11:50:38Z</time>
      </trkpt>
      <trkpt lat="37.0402360" lon="-2.2251540">
        <ele>624.4</ele>
        <time>2019-10-18T11:50:39Z</time>
      </trkpt>
      <trkpt lat="37.0402150" lon="-2.2251700">
        <ele>624.6</ele>
        <time>2019-10-18T11:50:40Z</time>
      </trkpt>
      <trkpt lat="37.0401950" lon="-2.2251880">
        <ele>624.9</ele>
        <time>2019-10-18T11:50:41Z</time>
      </trkpt>
      <trkpt lat="37.0401750" lon="-2.2252070">
        <ele>625.1</ele>
        <time>2019-10-18T11:50:42Z</time>
      </trkpt>
      <trkpt lat="37.0401550" lon="-2.2252250">
        <ele>625.4</ele>
        <time>2019-10-18T11:50:43Z</time>
      </trkpt>
      <trkpt lat="37.0401340" lon="-2.2252430">
        <ele>625.7</ele>
        <time>2019-10-18T11:50:44Z</time>
      </trkpt>
      <trkpt lat="37.0401140" lon="-2.2252610">
        <ele>625.9</ele>
        <time>2019-10-18T11:50:45Z</time>
      </trkpt>
      <trkpt lat="37.0400940" lon="-2.2252790">
        <ele>626.2</ele>
        <time>2019-10-18T11:50:46Z</time>
      </trkpt>
      <trkpt lat="37.0400730" lon="-2.2252970">
        <ele>626.5</ele>
        <time>2019-10-18T11:50:47Z</time>
      </trkpt>
      <trkpt lat="37.0400520" lon="-2.2253150">
        <ele>626.7</ele>
        <time>2019-10-18T11:50:48Z</time>
      </trkpt>
      <trkpt lat="37.0400310" lon="-2.2253320">
        <ele>627.0</ele>
        <time>2019-10-18T11:50:49Z</time>
      </trkpt>
      <trkpt lat="37.0400110" lon="-2.2253500">
        <ele>627.2</ele>
        <time>2019-10-18T11:50:50Z</time>
      </trkpt>
      <trkpt lat="37.0399910" lon="-2.2253680">
        <ele>627.4</ele>
        <time>2019-10-18T11:50:51Z</time>
      </trkpt>
      <trkpt lat="37.0399710" lon="-2.2253860">
        <ele>627.6</ele>
        <time>2019-10-18T11:50:52Z</time>
      </trkpt>
      <trkpt lat="37.0399520" lon="-2.2254050">
        <ele>627.8</ele>
        <time>2019-10-18T11:50:53Z</time>
      </trkpt>
      <trkpt lat="37.0399330" lon="-2.2254260">
        <ele>628.0</ele>
        <time>2019-10-18T11:50:54Z</time>
      </trkpt>
      <trkpt lat="37.0399140" lon="-2.2254450">
        <ele>628.2</ele>
        <time>2019-10-18T11:50:55Z</time>
      </trkpt>
      <trkpt lat="37.0398950" lon="-2.2254640">
        <ele>628.4</ele>
        <time>2019-10-18T11:50:56Z</time>
      </trkpt>
      <trkpt lat="37.0398760" lon="-2.2254830">
        <ele>628.5</ele>
        <time>2019-10-18T11:50:57Z</time>
      </trkpt>
      <trkpt lat="37.0398580" lon="-2.2255030">
        <ele>628.7</ele>
        <time>2019-10-18T11:50:58Z</time>
      </trkpt>
      <trkpt lat="37.0398410" lon="-2.2255220">
        <ele>628.9</ele>
        <time>2019-10-18T11:50:59Z</time>
      </trkpt>
      <trkpt lat="37.0398230" lon="-2.2255400">
        <ele>629.1</ele>
        <time>2019-10-18T11:51:00Z</time>
      </trkpt>
      <trkpt lat="37.0398050" lon="-2.2255570">
        <ele>629.2</ele>
        <time>2019-10-18T11:51:01Z</time>
      </trkpt>
      <trkpt lat="37.0397870" lon="-2.2255750">
        <ele>629.4</ele>
        <time>2019-10-18T11:51:02Z</time>
      </trkpt>
      <trkpt lat="37.0397690" lon="-2.2255920">
        <ele>629.5</ele>
        <time>2019-10-18T11:51:03Z</time>
      </trkpt>
      <trkpt lat="37.0397510" lon="-2.2256080">
        <ele>629.7</ele>
        <time>2019-10-18T11:51:04Z</time>
      </trkpt>
      <trkpt lat="37.0397320" lon="-2.2256220">
        <ele>629.8</ele>
        <time>2019-10-18T11:51:05Z</time>
      </trkpt>
      <trkpt lat="37.0397120" lon="-2.2256350">
        <ele>630.0</ele>
        <time>2019-10-18T11:51:06Z</time>
      </trkpt>
      <trkpt lat="37.0396900" lon="-2.2256460">
        <ele>630.2</ele>
        <time>2019-10-18T11:51:07Z</time>
      </trkpt>
      <trkpt lat="37.0396680" lon="-2.2256570">
        <ele>630.3</ele>
        <time>2019-10-18T11:51:08Z</time>
      </trkpt>
      <trkpt lat="37.0396450" lon="-2.2256670">
        <ele>630.5</ele>
        <time>2019-10-18T11:51:09Z</time>
      </trkpt>
      <trkpt lat="37.0396210" lon="-2.2256750">
        <ele>630.7</ele>
        <time>2019-10-18T11:51:10Z</time>
      </trkpt>
      <trkpt lat="37.0395970" lon="-2.2256800">
        <ele>630.8</ele>
        <time>2019-10-18T11:51:11Z</time>
      </trkpt>
      <trkpt lat="37.0395730" lon="-2.2256840">
        <ele>631.0</ele>
        <time>2019-10-18T11:51:12Z</time>
      </trkpt>
      <trkpt lat="37.0395490" lon="-2.2256870">
        <ele>631.2</ele>
        <time>2019-10-18T11:51:13Z</time>
      </trkpt>
      <trkpt lat="37.0395260" lon="-2.2256890">
        <ele>631.3</ele>
        <time>2019-10-18T11:51:14Z</time>
      </trkpt>
      <trkpt lat="37.0395040" lon="-2.2256930">
        <ele>631.5</ele>
        <time>2019-10-18T11:51:15Z</time>
      </trkpt>
      <trkpt lat="37.0394810" lon="-2.2256980">
        <ele>631.7</ele>
        <time>2019-10-18T11:51:16Z</time>
      </trkpt>
      <trkpt lat="37.0394590" lon="-2.2257060">
        <ele>631.8</ele>
        <time>2019-10-18T11:51:17Z</time>
      </trkpt>
      <trkpt lat="37.0394370" lon="-2.2257150">
        <ele>632.0</ele>
        <time>2019-10-18T11:51:18Z</time>
      </trkpt>
      <trkpt lat="37.0394150" lon="-2.2257250">
        <ele>632.1</ele>
        <time>2019-10-18T11:51:19Z</time>
      </trkpt>
      <trkpt lat="37.0393930" lon="-2.2257350">
        <ele>632.3</ele>
        <time>2019-10-18T11:51:20Z</time>
      </trkpt>
      <trkpt lat="37.0393720" lon="-2.2257440">
        <ele>632.4</ele>
        <time>2019-10-18T11:51:21Z</time>
      </trkpt>
      <trkpt lat="37.0393500" lon="-2.2257540">
        <ele>632.6</ele>
        <time>2019-10-18T11:51:22Z</time>
      </trkpt>
      <trkpt lat="37.0393290" lon="-2.2257640">
        <ele>632.7</ele>
        <time>2019-10-18T11:51:23Z</time>
      </trkpt>
      <trkpt lat="37.0393080" lon="-2.2257750">
        <ele>632.9</ele>
        <time>2019-10-18T11:51:24Z</time>
      </trkpt>
      <trkpt lat="37.0392860" lon="-2.2257860">
        <ele>633.1</ele>
        <time>2019-10-18T11:51:25Z</time>
      </trkpt>
      <trkpt lat="37.0392640" lon="-2.2257970">
        <ele>633.2</ele>
        <time>2019-10-18T11:51:26Z</time>
      </trkpt>
      <trkpt lat="37.0392420" lon="-2.2258080">
        <ele>633.4</ele>
        <time>2019-10-18T11:51:27Z</time>
      </trkpt>
      <trkpt lat="37.0392200" lon="-2.2258200">
        <ele>633.5</ele>
        <time>2019-10-18T11:51:28Z</time>
      </trkpt>
      <trkpt lat="37.0391980" lon="-2.2258330">
        <ele>633.7</ele>
        <time>2019-10-18T11:51:29Z</time>
      </trkpt>
      <trkpt lat="37.0391760" lon="-2.2258460">
        <ele>633.9</ele>
        <time>2019-10-18T11:51:30Z</time>
      </trkpt>
      <trkpt lat="37.0391540" lon="-2.2258590">
        <ele>634.0</ele>
        <time>2019-10-18T11:51:31Z</time>
      </trkpt>
      <trkpt lat="37.0391320" lon="-2.2258720">
        <ele>634.2</ele>
        <time>2019-10-18T11:51:32Z</time>
      </trkpt>
      <trkpt lat="37.0391100" lon="-2.2258850">
        <ele>634.4</ele>
        <time>2019-10-18T11:51:33Z</time>
      </trkpt>
      <trkpt lat="37.0390870" lon="-2.2258970">
        <ele>634.5</ele>
        <time>2019-10-18T11:51:34Z</time>
      </trkpt>
      <trkpt lat="37.0390620" lon="-2.2259070">
        <ele>634.7</ele>
        <time>2019-10-18T11:51:35Z</time>
      </trkpt>
      <trkpt lat="37.0390380" lon="-2.2259170">
        <ele>634.9</ele>
        <time>2019-10-18T11:51:36Z</time>
      </trkpt>
      <trkpt lat="37.0390140" lon="-2.2259270">
        <ele>635.1</ele>
        <time>2019-10-18T11:51:37Z</time>
      </trkpt>
      <trkpt lat="37.0389910" lon="-2.2259380">
        <ele>635.2</ele>
        <time>2019-10-18T11:51:38Z</time>
      </trkpt>
      <trkpt lat="37.0389690" lon="-2.2259480">
        <ele>635.4</ele>
        <time>2019-10-18T11:51:39Z</time>
      </trkpt>
      <trkpt lat="37.0389470" lon="-2.2259590">
        <ele>635.6</ele>
        <time>2019-10-18T11:51:40Z</time>
      </trkpt>
      <trkpt lat="37.0389260" lon="-2.2259700">
        <ele>635.7</ele>
        <time>2019-10-18T11:51:41Z</time>
      </trkpt>
      <trkpt lat="37.0389050" lon="-2.2259820">
        <ele>635.9</ele>
        <time>2019-10-18T11:51:42Z</time>
      </trkpt>
      <trkpt lat="37.0388840" lon="-2.2259950">
        <ele>636.0</ele>
        <time>2019-10-18T11:51:43Z</time>
      </trkpt>
      <trkpt lat="37.0388650" lon="-2.2260080">
        <ele>636.2</ele>
        <time>2019-10-18T11:51:44Z</time>
      </trkpt>
      <trkpt lat="37.0388460" lon="-2.2260230">
        <ele>636.3</ele>
        <time>2019-10-18T11:51:45Z</time>
      </trkpt>
      <trkpt lat="37.0388280" lon="-2.2260380">
        <ele>636.5</ele>
        <time>2019-10-18T11:51:46Z</time>
      </trkpt>
      <trkpt lat="37.0388100" lon="-2.2260540">
        <ele>636.7</ele>
        <time>2019-10-18T11:51:47Z</time>
      </trkpt>
      <trkpt lat="37.0387930" lon="-2.2260720">
        <ele>636.8</ele>
        <time>2019-10-18T11:51:48Z</time>
      </trkpt>
      <trkpt lat="37.0387760" lon="-2.2260900">
        <ele>637.0</ele>
        <time>2019-10-18T11:51:49Z</time>
      </trkpt>
      <trkpt lat="37.0387600" lon="-2.2261090">
        <ele>637.2</ele>
        <time>2019-10-18T11:51:50Z</time>
      </trkpt>
      <trkpt lat="37.0387440" lon="-2.2261290">
        <ele>637.3</ele>
        <time>2019-10-18T11:51:51Z</time>
      </trkpt>
      <trkpt lat="37.0387280" lon="-2.2261490">
        <ele>637.5</ele>
        <time>2019-10-18T11:51:52Z</time>
      </trkpt>
      <trkpt lat="37.0387140" lon="-2.2261690">
        <ele>637.7</ele>
        <time>2019-10-18T11:51:53Z</time>
      </trkpt>
      <trkpt lat="37.0386990" lon="-2.2261890">
        <ele>637.9</ele>
        <time>2019-10-18T11:51:54Z</time>
      </trkpt>
      <trkpt lat="37.0386870" lon="-2.2262110">
        <ele>638.0</ele>
        <time>2019-10-18T11:51:55Z</time>
      </trkpt>
      <trkpt lat="37.0386760" lon="-2.2262340">
        <ele>638.2</ele>
        <time>2019-10-18T11:51:56Z</time>
      </trkpt>
      <trkpt lat="37.0386660" lon="-2.2262570">
        <ele>638.4</ele>
        <time>2019-10-18T11:51:57Z</time>
      </trkpt>
      <trkpt lat="37.0386550" lon="-2.2262810">
        <ele>638.6</ele>
        <time>2019-10-18T11:51:58Z</time>
      </trkpt>
      <trkpt lat="37.0386440" lon="-2.2263050">
        <ele>638.7</ele>
        <time>2019-10-18T11:51:59Z</time>
      </trkpt>
      <trkpt lat="37.0386340" lon="-2.2263300">
        <ele>638.9</ele>
        <time>2019-10-18T11:52:00Z</time>
      </trkpt>
      <trkpt lat="37.0386240" lon="-2.2263540">
        <ele>639.1</ele>
        <time>2019-10-18T11:52:01Z</time>
      </trkpt>
      <trkpt lat="37.0386140" lon="-2.2263790">
        <ele>639.3</ele>
        <time>2019-10-18T11:52:02Z</time>
      </trkpt>
      <trkpt lat="37.0386050" lon="-2.2264040">
        <ele>639.5</ele>
        <time>2019-10-18T11:52:03Z</time>
      </trkpt>
      <trkpt lat="37.0385960" lon="-2.2264300">
        <ele>639.7</ele>
        <time>2019-10-18T11:52:04Z</time>
      </trkpt>
      <trkpt lat="37.0385870" lon="-2.2264560">
        <ele>639.8</ele>
        <time>2019-10-18T11:52:05Z</time>
      </trkpt>
      <trkpt lat="37.0385770" lon="-2.2264820">
        <ele>640.0</ele>
        <time>2019-10-18T11:52:06Z</time>
      </trkpt>
      <trkpt lat="37.0385680" lon="-2.2265070">
        <ele>640.2</ele>
        <time>2019-10-18T11:52:07Z</time>
      </trkpt>
      <trkpt lat="37.0385580" lon="-2.2265330">
        <ele>640.3</ele>
        <time>2019-10-18T11:52:08Z</time>
      </trkpt>
      <trkpt lat="37.0385480" lon="-2.2265590">
        <ele>640.5</ele>
        <time>2019-10-18T11:52:09Z</time>
      </trkpt>
      <trkpt lat="37.0385390" lon="-2.2265850">
        <ele>640.7</ele>
        <time>2019-10-18T11:52:10Z</time>
      </trkpt>
      <trkpt lat="37.0385290" lon="-2.2266100">
        <ele>640.9</ele>
        <time>2019-10-18T11:52:11Z</time>
      </trkpt>
      <trkpt lat="37.0385180" lon="-2.2266350">
        <ele>641.1</ele>
        <time>2019-10-18T11:52:12Z</time>
      </trkpt>
      <trkpt lat="37.0385050" lon="-2.2266610">
        <ele>641.3</ele>
        <time>2019-10-18T11:52:13Z</time>
      </trkpt>
      <trkpt lat="37.0384920" lon="-2.2266880">
        <ele>641.5</ele>
        <time>2019-10-18T11:52:14Z</time>
      </trkpt>
      <trkpt lat="37.0384790" lon="-2.2267160">
        <ele>641.7</ele>
        <time>2019-10-18T11:52:15Z</time>
      </trkpt>
      <trkpt lat="37.0384660" lon="-2.2267430">
        <ele>641.9</ele>
        <time>2019-10-18T11:52:16Z</time>
      </trkpt>
      <trkpt lat="37.0384530" lon="-2.2267680">
        <ele>642.1</ele>
        <time>2019-10-18T11:52:17Z</time>
      </trkpt>
      <trkpt lat="37.0384390" lon="-2.2267930">
        <ele>642.3</ele>
        <time>2019-10-18T11:52:18Z</time>
      </trkpt>
      <trkpt lat="37.0384240" lon="-2.2268160">
        <ele>642.5</ele>
        <time>2019-10-18T11:52:19Z</time>
      </trkpt>
      <trkpt lat="37.0384090" lon="-2.2268400">
        <ele>642.7</ele>
        <time>2019-10-18T11:52:20Z</time>
      </trkpt>
      <trkpt lat="37.0383940" lon="-2.2268630">
        <ele>642.9</ele>
        <time>2019-10-18T11:52:21Z</time>
      </trkpt>
      <trkpt lat="37.0383780" lon="-2.2268850">
        <ele>643.1</ele>
        <time>2019-10-18T11:52:22Z</time>
      </trkpt>
      <trkpt lat="37.0383620" lon="-2.2269070">
        <ele>643.2</ele>
        <time>2019-10-18T11:52:23Z</time>
      </trkpt>
      <trkpt lat="37.0383450" lon="-2.2269280">
        <ele>643.4</ele>
        <time>2019-10-18T11:52:24Z</time>
      </trkpt>
      <trkpt lat="37.0383270" lon="-2.2269480">
        <ele>643.6</ele>
        <time>2019-10-18T11:52:25Z</time>
      </trkpt>
      <trkpt lat="37.0383110" lon="-2.2269680">
        <ele>643.8</ele>
        <time>2019-10-18T11:52:26Z</time>
      </trkpt>
      <trkpt lat="37.0382940" lon="-2.2269880">
        <ele>644.0</ele>
        <time>2019-10-18T11:52:27Z</time>
      </trkpt>
      <trkpt lat="37.0382750" lon="-2.2270060">
        <ele>644.2</ele>
        <time>2019-10-18T11:52:28Z</time>
      </trkpt>
      <trkpt lat="37.0382560" lon="-2.2270240">
        <ele>644.3</ele>
        <time>2019-10-18T11:52:29Z</time>
      </trkpt>
      <trkpt lat="37.0382360" lon="-2.2270410">
        <ele>644.5</ele>
        <time>2019-10-18T11:52:30Z</time>
      </trkpt>
      <trkpt lat="37.0382170" lon="-2.2270590">
        <ele>644.7</ele>
        <time>2019-10-18T11:52:31Z</time>
      </trkpt>
      <trkpt lat="37.0381980" lon="-2.2270770">
        <ele>644.9</ele>
        <time>2019-10-18T11:52:32Z</time>
      </trkpt>
      <trkpt lat="37.0381790" lon="-2.2270950">
        <ele>645.1</ele>
        <time>2019-10-18T11:52:33Z</time>
      </trkpt>
      <trkpt lat="37.0381610" lon="-2.2271140">
        <ele>645.3</ele>
        <time>2019-10-18T11:52:34Z</time>
      </trkpt>
      <trkpt lat="37.0381420" lon="-2.2271330">
        <ele>645.5</ele>
        <time>2019-10-18T11:52:35Z</time>
      </trkpt>
      <trkpt lat="37.0381240" lon="-2.2271520">
        <ele>645.7</ele>
        <time>2019-10-18T11:52:36Z</time>
      </trkpt>
      <trkpt lat="37.0381050" lon="-2.2271700">
        <ele>645.9</ele>
        <time>2019-10-18T11:52:37Z</time>
      </trkpt>
      <trkpt lat="37.0380860" lon="-2.2271890">
        <ele>646.1</ele>
        <time>2019-10-18T11:52:38Z</time>
      </trkpt>
      <trkpt lat="37.0380670" lon="-2.2272080">
        <ele>646.3</ele>
        <time>2019-10-18T11:52:39Z</time>
      </trkpt>
      <trkpt lat="37.0380500" lon="-2.2272280">
        <ele>646.5</ele>
        <time>2019-10-18T11:52:40Z</time>
      </trkpt>
      <trkpt lat="37.0380330" lon="-2.2272490">
        <ele>646.7</ele>
        <time>2019-10-18T11:52:41Z</time>
      </trkpt>
      <trkpt lat="37.0380170" lon="-2.2272720">
        <ele>646.9</ele>
        <time>2019-10-18T11:52:42Z</time>
      </trkpt>
      <trkpt lat="37.0380020" lon="-2.2272940">
        <ele>647.0</ele>
        <time>2019-10-18T11:52:43Z</time>
      </trkpt>
      <trkpt lat="37.0379870" lon="-2.2273180">
        <ele>647.2</ele>
        <time>2019-10-18T11:52:44Z</time>
      </trkpt>
      <trkpt lat="37.0379730" lon="-2.2273410">
        <ele>647.3</ele>
        <time>2019-10-18T11:52:45Z</time>
      </trkpt>
      <trkpt lat="37.0379590" lon="-2.2273650">
        <ele>647.5</ele>
        <time>2019-10-18T11:52:46Z</time>
      </trkpt>
      <trkpt lat="37.0379470" lon="-2.2273890">
        <ele>647.6</ele>
        <time>2019-10-18T11:52:47Z</time>
      </trkpt>
      <trkpt lat="37.0379350" lon="-2.2274140">
        <ele>647.8</ele>
        <time>2019-10-18T11:52:48Z</time>
      </trkpt>
      <trkpt lat="37.0379240" lon="-2.2274400">
        <ele>647.9</ele>
        <time>2019-10-18T11:52:49Z</time>
      </trkpt>
      <trkpt lat="37.0379130" lon="-2.2274660">
        <ele>648.1</ele>
        <time>2019-10-18T11:52:50Z</time>
      </trkpt>
      <trkpt lat="37.0379030" lon="-2.2274930">
        <ele>648.2</ele>
        <time>2019-10-18T11:52:51Z</time>
      </trkpt>
      <trkpt lat="37.0378930" lon="-2.2275200">
        <ele>648.4</ele>
        <time>2019-10-18T11:52:52Z</time>
      </trkpt>
      <trkpt lat="37.0378840" lon="-2.2275470">
        <ele>648.5</ele>
        <time>2019-10-18T11:52:53Z</time>
      </trkpt>
      <trkpt lat="37.0378740" lon="-2.2275730">
        <ele>648.7</ele>
        <time>2019-10-18T11:52:54Z</time>
      </trkpt>
      <trkpt lat="37.0378650" lon="-2.2276000">
        <ele>648.8</ele>
        <time>2019-10-18T11:52:55Z</time>
      </trkpt>
      <trkpt lat="37.0378580" lon="-2.2276270">
        <ele>649.0</ele>
        <time>2019-10-18T11:52:56Z</time>
      </trkpt>
      <trkpt lat="37.0378520" lon="-2.2276550">
        <ele>649.1</ele>
        <time>2019-10-18T11:52:57Z</time>
      </trkpt>
      <trkpt lat="37.0378440" lon="-2.2276830">
        <ele>649.3</ele>
        <time>2019-10-18T11:52:58Z</time>
      </trkpt>
      <trkpt lat="37.0378360" lon="-2.2277110">
        <ele>649.5</ele>
        <time>2019-10-18T11:52:59Z</time>
      </trkpt>
      <trkpt lat="37.0378280" lon="-2.2277390">
        <ele>649.6</ele>
        <time>2019-10-18T11:53:00Z</time>
      </trkpt>
      <trkpt lat="37.0378210" lon="-2.2277680">
        <ele>649.8</ele>
        <time>2019-10-18T11:53:01Z</time>
      </trkpt>
      <trkpt lat="37.0378140" lon="-2.2277980">
        <ele>649.9</ele>
        <time>2019-10-18T11:53:02Z</time>
      </trkpt>
      <trkpt lat="37.0378070" lon="-2.2278280">
        <ele>650.1</ele>
        <time>2019-10-18T11:53:03Z</time>
      </trkpt>
      <trkpt lat="37.0377990" lon="-2.2278580">
        <ele>650.3</ele>
        <time>2019-10-18T11:53:04Z</time>
      </trkpt>
      <trkpt lat="37.0377910" lon="-2.2278890">
        <ele>650.5</ele>
        <time>2019-10-18T11:53:05Z</time>
      </trkpt>
      <trkpt lat="37.0377840" lon="-2.2279200">
        <ele>650.6</ele>
        <time>2019-10-18T11:53:06Z</time>
      </trkpt>
      <trkpt lat="37.0377780" lon="-2.2279510">
        <ele>650.8</ele>
        <time>2019-10-18T11:53:07Z</time>
      </trkpt>
      <trkpt lat="37.0377720" lon="-2.2279830">
        <ele>651.0</ele>
        <time>2019-10-18T11:53:08Z</time>
      </trkpt>
      <trkpt lat="37.0377670" lon="-2.2280160">
        <ele>651.2</ele>
        <time>2019-10-18T11:53:09Z</time>
      </trkpt>
      <trkpt lat="37.0377620" lon="-2.2280480">
        <ele>651.4</ele>
        <time>2019-10-18T11:53:10Z</time>
      </trkpt>
      <trkpt lat="37.0377590" lon="-2.2280800">
        <ele>651.5</ele>
        <time>2019-10-18T11:53:11Z</time>
      </trkpt>
      <trkpt lat="37.0377540" lon="-2.2281120">
        <ele>651.7</ele>
        <time>2019-10-18T11:53:12Z</time>
      </trkpt>
      <trkpt lat="37.0377480" lon="-2.2281430">
        <ele>651.9</ele>
        <time>2019-10-18T11:53:13Z</time>
      </trkpt>
      <trkpt lat="37.0377400" lon="-2.2281730">
        <ele>652.1</ele>
        <time>2019-10-18T11:53:14Z</time>
      </trkpt>
      <trkpt lat="37.0377330" lon="-2.2282030">
        <ele>652.3</ele>
        <time>2019-10-18T11:53:15Z</time>
      </trkpt>
      <trkpt lat="37.0377270" lon="-2.2282340">
        <ele>652.5</ele>
        <time>2019-10-18T11:53:16Z</time>
      </trkpt>
      <trkpt lat="37.0377210" lon="-2.2282640">
        <ele>652.7</ele>
        <time>2019-10-18T11:53:17Z</time>
      </trkpt>
      <trkpt lat="37.0377130" lon="-2.2282950">
        <ele>652.9</ele>
        <time>2019-10-18T11:53:18Z</time>
      </trkpt>
      <trkpt lat="37.0377040" lon="-2.2283250">
        <ele>653.1</ele>
        <time>2019-10-18T11:53:19Z</time>
      </trkpt>
      <trkpt lat="37.0376950" lon="-2.2283540">
        <ele>653.3</ele>
        <time>2019-10-18T11:53:20Z</time>
      </trkpt>
      <trkpt lat="37.0376860" lon="-2.2283840">
        <ele>653.5</ele>
        <time>2019-10-18T11:53:21Z</time>
      </trkpt>
      <trkpt lat="37.0376790" lon="-2.2284140">
        <ele>653.6</ele>
        <time>2019-10-18T11:53:22Z</time>
      </trkpt>
      <trkpt lat="37.0376720" lon="-2.2284440">
        <ele>653.8</ele>
        <time>2019-10-18T11:53:23Z</time>
      </trkpt>
      <trkpt lat="37.0376660" lon="-2.2284740">
        <ele>654.0</ele>
        <time>2019-10-18T11:53:24Z</time>
      </trkpt>
      <trkpt lat="37.0376600" lon="-2.2285040">
        <ele>654.1</ele>
        <time>2019-10-18T11:53:25Z</time>
      </trkpt>
      <trkpt lat="37.0376540" lon="-2.2285350">
        <ele>654.3</ele>
        <time>2019-10-18T11:53:26Z</time>
      </trkpt>
      <trkpt lat="37.0376480" lon="-2.2285650">
        <ele>654.5</ele>
        <time>2019-10-18T11:53:27Z</time>
      </trkpt>
      <trkpt lat="37.0376410" lon="-2.2285940">
        <ele>654.6</ele>
        <time>2019-10-18T11:53:28Z</time>
      </trkpt>
      <trkpt lat="37.0376360" lon="-2.2286240">
        <ele>654.8</ele>
        <time>2019-10-18T11:53:29Z</time>
      </trkpt>
      <trkpt lat="37.0376320" lon="-2.2286540">
        <ele>655.0</ele>
        <time>2019-10-18T11:53:30Z</time>
      </trkpt>
      <trkpt lat="37.0376280" lon="-2.2286830">
        <ele>655.1</ele>
        <time>2019-10-18T11:53:31Z</time>
      </trkpt>
      <trkpt lat="37.0376220" lon="-2.2287120">
        <ele>655.3</ele>
        <time>2019-10-18T11:53:32Z</time>
      </trkpt>
      <trkpt lat="37.0376140" lon="-2.2287410">
        <ele>655.4</ele>
        <time>2019-10-18T11:53:33Z</time>
      </trkpt>
      <trkpt lat="37.0376060" lon="-2.2287690">
        <ele>655.6</ele>
        <time>2019-10-18T11:53:34Z</time>
      </trkpt>
      <trkpt lat="37.0375990" lon="-2.2287980">
        <ele>655.8</ele>
        <time>2019-10-18T11:53:35Z</time>
      </trkpt>
      <trkpt lat="37.0375930" lon="-2.2288270">
        <ele>655.9</ele>
        <time>2019-10-18T11:53:36Z</time>
      </trkpt>
      <trkpt lat="37.0375890" lon="-2.2288560">
        <ele>656.1</ele>
        <time>2019-10-18T11:53:37Z</time>
      </trkpt>
      <trkpt lat="37.0375850" lon="-2.2288860">
        <ele>656.3</ele>
        <time>2019-10-18T11:53:38Z</time>
      </trkpt>
      <trkpt lat="37.0375820" lon="-2.2289160">
        <ele>656.5</ele>
        <time>2019-10-18T11:53:39Z</time>
      </trkpt>
      <trkpt lat="37.0375780" lon="-2.2289480">
        <ele>656.7</ele>
        <time>2019-10-18T11:53:40Z</time>
      </trkpt>
      <trkpt lat="37.0375740" lon="-2.2289800">
        <ele>656.8</ele>
        <time>2019-10-18T11:53:41Z</time>
      </trkpt>
      <trkpt lat="37.0375710" lon="-2.2290120">
        <ele>657.0</ele>
        <time>2019-10-18T11:53:42Z</time>
      </trkpt>
      <trkpt lat="37.0375670" lon="-2.2290450">
        <ele>657.2</ele>
        <time>2019-10-18T11:53:43Z</time>
      </trkpt>
      <trkpt lat="37.0375630" lon="-2.2290770">
        <ele>657.4</ele>
        <time>2019-10-18T11:53:44Z</time>
      </trkpt>
      <trkpt lat="37.0375590" lon="-2.2291100">
        <ele>657.5</ele>
        <time>2019-10-18T11:53:45Z</time>
      </trkpt>
      <trkpt lat="37.0375540" lon="-2.2291420">
        <ele>657.7</ele>
        <time>2019-10-18T11:53:46Z</time>
      </trkpt>
      <trkpt lat="37.0375500" lon="-2.2291740">
        <ele>657.9</ele>
        <time>2019-10-18T11:53:47Z</time>
      </trkpt>
      <trkpt lat="37.0375450" lon="-2.2292060">
        <ele>658.1</ele>
        <time>2019-10-18T11:53:48Z</time>
      </trkpt>
      <trkpt lat="37.0375420" lon="-2.2292380">
        <ele>658.2</ele>
        <time>2019-10-18T11:53:49Z</time>
      </trkpt>
      <trkpt lat="37.0375400" lon="-2.2292700">
        <ele>658.4</ele>
        <time>2019-10-18T11:53:50Z</time>
      </trkpt>
      <trkpt lat="37.0375400" lon="-2.2293010">
        <ele>658.6</ele>
        <time>2019-10-18T11:53:51Z</time>
      </trkpt>
      <trkpt lat="37.0375430" lon="-2.2293310">
        <ele>658.8</ele>
        <time>2019-10-18T11:53:52Z</time>
      </trkpt>
      <trkpt lat="37.0375480" lon="-2.2293610">
        <ele>659.0</ele>
        <time>2019-10-18T11:53:53Z</time>
      </trkpt>
      <trkpt lat="37.0375530" lon="-2.2293910">
        <ele>659.2</ele>
        <time>2019-10-18T11:53:54Z</time>
      </trkpt>
      <trkpt lat="37.0375580" lon="-2.2294210">
        <ele>659.4</ele>
        <time>2019-10-18T11:53:55Z</time>
      </trkpt>
      <trkpt lat="37.0375630" lon="-2.2294500">
        <ele>659.6</ele>
        <time>2019-10-18T11:53:56Z</time>
      </trkpt>
      <trkpt lat="37.0375700" lon="-2.2294780">
        <ele>659.9</ele>
        <time>2019-10-18T11:53:57Z</time>
      </trkpt>
      <trkpt lat="37.0375770" lon="-2.2295070">
        <ele>660.1</ele>
        <time>2019-10-18T11:53:58Z</time>
      </trkpt>
      <trkpt lat="37.0375830" lon="-2.2295360">
        <ele>660.4</ele>
        <time>2019-10-18T11:53:59Z</time>
      </trkpt>
      <trkpt lat="37.0375860" lon="-2.2295650">
        <ele>660.6</ele>
        <time>2019-10-18T11:54:00Z</time>
      </trkpt>
      <trkpt lat="37.0375880" lon="-2.2295960">
        <ele>660.9</ele>
        <time>2019-10-18T11:54:01Z</time>
      </trkpt>
      <trkpt lat="37.0375880" lon="-2.2296270">
        <ele>661.1</ele>
        <time>2019-10-18T11:54:02Z</time>
      </trkpt>
      <trkpt lat="37.0375860" lon="-2.2296580">
        <ele>661.4</ele>
        <time>2019-10-18T11:54:03Z</time>
      </trkpt>
      <trkpt lat="37.0375800" lon="-2.2296890">
        <ele>661.6</ele>
        <time>2019-10-18T11:54:04Z</time>
      </trkpt>
      <trkpt lat="37.0375710" lon="-2.2297220">
        <ele>661.9</ele>
        <time>2019-10-18T11:54:05Z</time>
      </trkpt>
      <trkpt lat="37.0375610" lon="-2.2297540">
        <ele>662.2</ele>
        <time>2019-10-18T11:54:06Z</time>
      </trkpt>
      <trkpt lat="37.0375510" lon="-2.2297860">
        <ele>662.4</ele>
        <time>2019-10-18T11:54:07Z</time>
      </trkpt>
      <trkpt lat="37.0375420" lon="-2.2298180">
        <ele>662.6</ele>
        <time>2019-10-18T11:54:08Z</time>
      </trkpt>
      <trkpt lat="37.0375310" lon="-2.2298490">
        <ele>662.8</ele>
        <time>2019-10-18T11:54:09Z</time>
      </trkpt>
      <trkpt lat="37.0375190" lon="-2.2298800">
        <ele>663.0</ele>
        <time>2019-10-18T11:54:10Z</time>
      </trkpt>
      <trkpt lat="37.0375070" lon="-2.2299120">
        <ele>663.3</ele>
        <time>2019-10-18T11:54:11Z</time>
      </trkpt>
      <trkpt lat="37.0374960" lon="-2.2299430">
        <ele>663.4</ele>
        <time>2019-10-18T11:54:12Z</time>
      </trkpt>
      <trkpt lat="37.0374850" lon="-2.2299750">
        <ele>663.6</ele>
        <time>2019-10-18T11:54:13Z</time>
      </trkpt>
      <trkpt lat="37.0374740" lon="-2.2300080">
        <ele>663.8</ele>
        <time>2019-10-18T11:54:14Z</time>
      </trkpt>
      <trkpt lat="37.0374630" lon="-2.2300410">
        <ele>664.0</ele>
        <time>2019-10-18T11:54:15Z</time>
      </trkpt>
      <trkpt lat="37.0374520" lon="-2.2300740">
        <ele>664.1</ele>
        <time>2019-10-18T11:54:16Z</time>
      </trkpt>
      <trkpt lat="37.0374410" lon="-2.2301070">
        <ele>664.3</ele>
        <time>2019-10-18T11:54:17Z</time>
      </trkpt>
      <trkpt lat="37.0374310" lon="-2.2301400">
        <ele>664.5</ele>
        <time>2019-10-18T11:54:18Z</time>
      </trkpt>
      <trkpt lat="37.0374210" lon="-2.2301720">
        <ele>664.6</ele>
        <time>2019-10-18T11:54:19Z</time>
      </trkpt>
      <trkpt lat="37.0374120" lon="-2.2302050">
        <ele>664.8</ele>
        <time>2019-10-18T11:54:20Z</time>
      </trkpt>
      <trkpt lat="37.0374030" lon="-2.2302370">
        <ele>664.9</ele>
        <time>2019-10-18T11:54:21Z</time>
      </trkpt>
      <trkpt lat="37.0373940" lon="-2.2302710">
        <ele>665.1</ele>
        <time>2019-10-18T11:54:22Z</time>
      </trkpt>
      <trkpt lat="37.0373860" lon="-2.2303040">
        <ele>665.2</ele>
        <time>2019-10-18T11:54:23Z</time>
      </trkpt>
      <trkpt lat="37.0373770" lon="-2.2303380">
        <ele>665.4</ele>
        <time>2019-10-18T11:54:24Z</time>
      </trkpt>
      <trkpt lat="37.0373690" lon="-2.2303710">
        <ele>665.5</ele>
        <time>2019-10-18T11:54:25Z</time>
      </trkpt>
      <trkpt lat="37.0373590" lon="-2.2304030">
        <ele>665.7</ele>
        <time>2019-10-18T11:54:26Z</time>
      </trkpt>
      <trkpt lat="37.0373500" lon="-2.2304360">
        <ele>665.8</ele>
        <time>2019-10-18T11:54:27Z</time>
      </trkpt>
      <trkpt lat="37.0373410" lon="-2.2304680">
        <ele>666.0</ele>
        <time>2019-10-18T11:54:28Z</time>
      </trkpt>
      <trkpt lat="37.0373320" lon="-2.2305010">
        <ele>666.1</ele>
        <time>2019-10-18T11:54:29Z</time>
      </trkpt>
      <trkpt lat="37.0373220" lon="-2.2305310">
        <ele>666.3</ele>
        <time>2019-10-18T11:54:30Z</time>
      </trkpt>
      <trkpt lat="37.0373100" lon="-2.2305600">
        <ele>666.5</ele>
        <time>2019-10-18T11:54:31Z</time>
      </trkpt>
      <trkpt lat="37.0372950" lon="-2.2305860">
        <ele>666.6</ele>
        <time>2019-10-18T11:54:32Z</time>
      </trkpt>
      <trkpt lat="37.0372770" lon="-2.2306100">
        <ele>666.8</ele>
        <time>2019-10-18T11:54:33Z</time>
      </trkpt>
      <trkpt lat="37.0372590" lon="-2.2306320">
        <ele>666.9</ele>
        <time>2019-10-18T11:54:34Z</time>
      </trkpt>
      <trkpt lat="37.0372380" lon="-2.2306520">
        <ele>667.1</ele>
        <time>2019-10-18T11:54:35Z</time>
      </trkpt>
      <trkpt lat="37.0372170" lon="-2.2306700">
        <ele>667.2</ele>
        <time>2019-10-18T11:54:36Z</time>
      </trkpt>
      <trkpt lat="37.0371940" lon="-2.2306840">
        <ele>667.4</ele>
        <time>2019-10-18T11:54:37Z</time>
      </trkpt>
      <trkpt lat="37.0371710" lon="-2.2306960">
        <ele>667.6</ele>
        <time>2019-10-18T11:54:38Z</time>
      </trkpt>
      <trkpt lat="37.0371460" lon="-2.2307050">
        <ele>667.7</ele>
        <time>2019-10-18T11:54:39Z</time>
      </trkpt>
      <trkpt lat="37.0371210" lon="-2.2307090">
        <ele>667.9</ele>
        <time>2019-10-18T11:54:40Z</time>
      </trkpt>
      <trkpt lat="37.0370960" lon="-2.2307100">
        <ele>668.1</ele>
        <time>2019-10-18T11:54:41Z</time>
      </trkpt>
      <trkpt lat="37.0370710" lon="-2.2307100">
        <ele>668.2</ele>
        <time>2019-10-18T11:54:42Z</time>
      </trkpt>
      <trkpt lat="37.0370460" lon="-2.2307090">
        <ele>668.4</ele>
        <time>2019-10-18T11:54:43Z</time>
      </trkpt>
      <trkpt lat="37.0370210" lon="-2.2307080">
        <ele>668.5</ele>
        <time>2019-10-18T11:54:44Z</time>
      </trkpt>
      <trkpt lat="37.0369950" lon="-2.2307080">
        <ele>668.7</ele>
        <time>2019-10-18T11:54:45Z</time>
      </trkpt>
      <trkpt lat="37.0369700" lon="-2.2307080">
        <ele>668.9</ele>
        <time>2019-10-18T11:54:46Z</time>
      </trkpt>
      <trkpt lat="37.0369440" lon="-2.2307090">
        <ele>669.0</ele>
        <time>2019-10-18T11:54:47Z</time>
      </trkpt>
      <trkpt lat="37.0369180" lon="-2.2307090">
        <ele>669.2</ele>
        <time>2019-10-18T11:54:48Z</time>
      </trkpt>
      <trkpt lat="37.0368910" lon="-2.2307070">
        <ele>669.4</ele>
        <time>2019-10-18T11:54:49Z</time>
      </trkpt>
      <trkpt lat="37.0368640" lon="-2.2307050">
        <ele>669.5</ele>
        <time>2019-10-18T11:54:50Z</time>
      </trkpt>
      <trkpt lat="37.0368370" lon="-2.2307010">
        <ele>669.7</ele>
        <time>2019-10-18T11:54:51Z</time>
      </trkpt>
      <trkpt lat="37.0368090" lon="-2.2306990">
        <ele>669.9</ele>
        <time>2019-10-18T11:54:52Z</time>
      </trkpt>
      <trkpt lat="37.0367810" lon="-2.2306980">
        <ele>670.1</ele>
        <time>2019-10-18T11:54:53Z</time>
      </trkpt>
      <trkpt lat="37.0367530" lon="-2.2306980">
        <ele>670.3</ele>
        <time>2019-10-18T11:54:54Z</time>
      </trkpt>
      <trkpt lat="37.0367240" lon="-2.2307000">
        <ele>670.5</ele>
        <time>2019-10-18T11:54:55Z</time>
      </trkpt>
      <trkpt lat="37.0366960" lon="-2.2307010">
        <ele>670.7</ele>
        <time>2019-10-18T11:54:56Z</time>
      </trkpt>
      <trkpt lat="37.0366670" lon="-2.2307010">
        <ele>670.9</ele>
        <time>2019-10-18T11:54:57Z</time>
      </trkpt>
      <trkpt lat="37.0366370" lon="-2.2307010">
        <ele>671.1</ele>
        <time>2019-10-18T11:54:58Z</time>
      </trkpt>
      <trkpt lat="37.0366080" lon="-2.2307010">
        <ele>671.3</ele>
        <time>2019-10-18T11:54:59Z</time>
      </trkpt>
      <trkpt lat="37.0365790" lon="-2.2306990">
        <ele>671.5</ele>
        <time>2019-10-18T11:55:00Z</time>
      </trkpt>
      <trkpt lat="37.0365480" lon="-2.2306960">
        <ele>671.7</ele>
        <time>2019-10-18T11:55:01Z</time>
      </trkpt>
      <trkpt lat="37.0365180" lon="-2.2306950">
        <ele>671.9</ele>
        <time>2019-10-18T11:55:02Z</time>
      </trkpt>
      <trkpt lat="37.0364860" lon="-2.2306960">
        <ele>672.1</ele>
        <time>2019-10-18T11:55:03Z</time>
      </trkpt>
      <trkpt lat="37.0364550" lon="-2.2307020">
        <ele>672.3</ele>
        <time>2019-10-18T11:55:04Z</time>
      </trkpt>
      <trkpt lat="37.0364240" lon="-2.2307120">
        <ele>672.5</ele>
        <time>2019-10-18T11:55:05Z</time>
      </trkpt>
      <trkpt lat="37.0363920" lon="-2.2307260">
        <ele>672.7</ele>
        <time>2019-10-18T11:55:06Z</time>
      </trkpt>
      <trkpt lat="37.0363620" lon="-2.2307450">
        <ele>672.8</ele>
        <time>2019-10-18T11:55:07Z</time>
      </trkpt>
      <trkpt lat="37.0363370" lon="-2.2307700">
        <ele>673.0</ele>
        <time>2019-10-18T11:55:08Z</time>
      </trkpt>
      <trkpt lat="37.0363150" lon="-2.2308030">
        <ele>673.1</ele>
        <time>2019-10-18T11:55:09Z</time>
      </trkpt>
      <trkpt lat="37.0363000" lon="-2.2308420">
        <ele>673.2</ele>
        <time>2019-10-18T11:55:10Z</time>
      </trkpt>
      <trkpt lat="37.0362940" lon="-2.2308820">
        <ele>673.3</ele>
        <time>2019-10-18T11:55:11Z</time>
      </trkpt>
      <trkpt lat="37.0362960" lon="-2.2309230">
        <ele>673.3</ele>
        <time>2019-10-18T11:55:12Z</time>
      </trkpt>
      <trkpt lat="37.0363040" lon="-2.2309630">
        <ele>673.4</ele>
        <time>2019-10-18T11:55:13Z</time>
      </trkpt>
      <trkpt lat="37.0363140" lon="-2.2310020">
        <ele>673.5</ele>
        <time>2019-10-18T11:55:14Z</time>
      </trkpt>
      <trkpt lat="37.0363250" lon="-2.2310400">
        <ele>673.5</ele>
        <time>2019-10-18T11:55:15Z</time>
      </trkpt>
      <trkpt lat="37.0363370" lon="-2.2310780">
        <ele>673.6</ele>
        <time>2019-10-18T11:55:16Z</time>
      </trkpt>
      <trkpt lat="37.0363500" lon="-2.2311170">
        <ele>673.7</ele>
        <time>2019-10-18T11:55:17Z</time>
      </trkpt>
      <trkpt lat="37.0363630" lon="-2.2311560">
        <ele>673.7</ele>
        <time>2019-10-18T11:55:18Z</time>
      </trkpt>
      <trkpt lat="37.0363740" lon="-2.2311950">
        <ele>673.8</ele>
        <time>2019-10-18T11:55:19Z</time>
      </trkpt>
      <trkpt lat="37.0363840" lon="-2.2312360">
        <ele>673.9</ele>
        <time>2019-10-18T11:55:20Z</time>
      </trkpt>
      <trkpt lat="37.0363920" lon="-2.2312770">
        <ele>674.0</ele>
        <time>2019-10-18T11:55:21Z</time>
      </trkpt>
      <trkpt lat="37.0364000" lon="-2.2313190">
        <ele>674.1</ele>
        <time>2019-10-18T11:55:22Z</time>
      </trkpt>
      <trkpt lat="37.0364080" lon="-2.2313610">
        <ele>674.2</ele>
        <time>2019-10-18T11:55:23Z</time>
      </trkpt>
      <trkpt lat="37.0364180" lon="-2.2314020">
        <ele>674.2</ele>
        <time>2019-10-18T11:55:24Z</time>
      </trkpt>
      <trkpt lat="37.0364270" lon="-2.2314440">
        <ele>674.3</ele>
        <time>2019-10-18T11:55:25Z</time>
      </trkpt>
      <trkpt lat="37.0364340" lon="-2.2314850">
        <ele>674.4</ele>
        <time>2019-10-18T11:55:26Z</time>
      </trkpt>
      <trkpt lat="37.0364360" lon="-2.2315280">
        <ele>674.5</ele>
        <time>2019-10-18T11:55:27Z</time>
      </trkpt>
      <trkpt lat="37.0364340" lon="-2.2315690">
        <ele>674.5</ele>
        <time>2019-10-18T11:55:28Z</time>
      </trkpt>
      <trkpt lat="37.0364270" lon="-2.2316110">
        <ele>674.6</ele>
        <time>2019-10-18T11:55:29Z</time>
      </trkpt>
      <trkpt lat="37.0364180" lon="-2.2316520">
        <ele>674.7</ele>
        <time>2019-10-18T11:55:30Z</time>
      </trkpt>
      <trkpt lat="37.0364080" lon="-2.2316930">
        <ele>674.8</ele>
        <time>2019-10-18T11:55:31Z</time>
      </trkpt>
      <trkpt lat="37.0363970" lon="-2.2317340">
        <ele>674.9</ele>
        <time>2019-10-18T11:55:32Z</time>
      </trkpt>
      <trkpt lat="37.0363840" lon="-2.2317730">
        <ele>675.0</ele>
        <time>2019-10-18T11:55:33Z</time>
      </trkpt>
      <trkpt lat="37.0363700" lon="-2.2318120">
        <ele>675.1</ele>
        <time>2019-10-18T11:55:34Z</time>
      </trkpt>
      <trkpt lat="37.0363560" lon="-2.2318490">
        <ele>675.2</ele>
        <time>2019-10-18T11:55:35Z</time>
      </trkpt>
      <trkpt lat="37.0363410" lon="-2.2318860">
        <ele>675.3</ele>
        <time>2019-10-18T11:55:36Z</time>
      </trkpt>
      <trkpt lat="37.0363260" lon="-2.2319230">
        <ele>675.5</ele>
        <time>2019-10-18T11:55:37Z</time>
      </trkpt>
      <trkpt lat="37.0363110" lon="-2.2319600">
        <ele>675.6</ele>
        <time>2019-10-18T11:55:38Z</time>
      </trkpt>
      <trkpt lat="37.0362950" lon="-2.2319950">
        <ele>675.7</ele>
        <time>2019-10-18T11:55:39Z</time>
      </trkpt>
      <trkpt lat="37.0362770" lon="-2.2320270">
        <ele>675.8</ele>
        <time>2019-10-18T11:55:40Z</time>
      </trkpt>
      <trkpt lat="37.0362570" lon="-2.2320570">
        <ele>675.9</ele>
        <time>2019-10-18T11:55:41Z</time>
      </trkpt>
      <trkpt lat="37.0362360" lon="-2.2320840">
        <ele>676.0</ele>
        <time>2019-10-18T11:55:42Z</time>
      </trkpt>
      <trkpt lat="37.0362120" lon="-2.2321100">
        <ele>676.1</ele>
        <time>2019-10-18T11:55:43Z</time>
      </trkpt>
      <trkpt lat="37.0361860" lon="-2.2321320">
        <ele>676.2</ele>
        <time>2019-10-18T11:55:44Z</time>
      </trkpt>
      <trkpt lat="37.0361600" lon="-2.2321530">
        <ele>676.3</ele>
        <time>2019-10-18T11:55:45Z</time>
      </trkpt>
      <trkpt lat="37.0361340" lon="-2.2321740">
        <ele>676.4</ele>
        <time>2019-10-18T11:55:46Z</time>
      </trkpt>
      <trkpt lat="37.0361090" lon="-2.2321970">
        <ele>676.5</ele>
        <time>2019-10-18T11:55:47Z</time>
      </trkpt>
      <trkpt lat="37.0360850" lon="-2.2322200">
        <ele>676.6</ele>
        <time>2019-10-18T11:55:48Z</time>
      </trkpt>
      <trkpt lat="37.0360610" lon="-2.2322430">
        <ele>676.8</ele>
        <time>2019-10-18T11:55:49Z</time>
      </trkpt>
      <trkpt lat="37.0360360" lon="-2.2322650">
        <ele>676.9</ele>
        <time>2019-10-18T11:55:50Z</time>
      </trkpt>
      <trkpt lat="37.0360090" lon="-2.2322860">
        <ele>677.0</ele>
        <time>2019-10-18T11:55:51Z</time>
      </trkpt>
      <trkpt lat="37.0359830" lon="-2.2323070">
        <ele>677.2</ele>
        <time>2019-10-18T11:55:52Z</time>
      </trkpt>
      <trkpt lat="37.0359570" lon="-2.2323290">
        <ele>677.3</ele>
        <time>2019-10-18T11:55:53Z</time>
      </trkpt>
      <trkpt lat="37.0359310" lon="-2.2323520">
        <ele>677.4</ele>
        <time>2019-10-18T11:55:54Z</time>
      </trkpt>
      <trkpt lat="37.0359060" lon="-2.2323780">
        <ele>677.6</ele>
        <time>2019-10-18T11:55:55Z</time>
      </trkpt>
      <trkpt lat="37.0358820" lon="-2.2324040">
        <ele>677.7</ele>
        <time>2019-10-18T11:55:56Z</time>
      </trkpt>
      <trkpt lat="37.0358590" lon="-2.2324320">
        <ele>677.9</ele>
        <time>2019-10-18T11:55:57Z</time>
      </trkpt>
      <trkpt lat="37.0358360" lon="-2.2324610">
        <ele>678.0</ele>
        <time>2019-10-18T11:55:58Z</time>
      </trkpt>
      <trkpt lat="37.0358130" lon="-2.2324880">
        <ele>678.1</ele>
        <time>2019-10-18T11:55:59Z</time>
      </trkpt>
      <trkpt lat="37.0357890" lon="-2.2325140">
        <ele>678.3</ele>
        <time>2019-10-18T11:56:00Z</time>
      </trkpt>
      <trkpt lat="37.0357640" lon="-2.2325410">
        <ele>678.4</ele>
        <time>2019-10-18T11:56:01Z</time>
      </trkpt>
      <trkpt lat="37.0357410" lon="-2.2325700">
        <ele>678.5</ele>
        <time>2019-10-18T11:56:02Z</time>
      </trkpt>
      <trkpt lat="37.0357170" lon="-2.2326000">
        <ele>678.7</ele>
        <time>2019-10-18T11:56:03Z</time>
      </trkpt>
      <trkpt lat="37.0356940" lon="-2.2326300">
        <ele>678.8</ele>
        <time>2019-10-18T11:56:04Z</time>
      </trkpt>
      <trkpt lat="37.0356710" lon="-2.2326620">
        <ele>679.0</ele>
        <time>2019-10-18T11:56:05Z</time>
      </trkpt>
      <trkpt lat="37.0356510" lon="-2.2326960">
        <ele>679.1</ele>
        <time>2019-10-18T11:56:06Z</time>
      </trkpt>
      <trkpt lat="37.0356380" lon="-2.2327350">
        <ele>679.2</ele>
        <time>2019-10-18T11:56:07Z</time>
      </trkpt>
      <trkpt lat="37.0356310" lon="-2.2327760">
        <ele>679.4</ele>
        <time>2019-10-18T11:56:08Z</time>
      </trkpt>
      <trkpt lat="37.0356320" lon="-2.2328140">
        <ele>679.5</ele>
        <time>2019-10-18T11:56:09Z</time>
      </trkpt>
      <trkpt lat="37.0356400" lon="-2.2328490">
        <ele>679.6</ele>
        <time>2019-10-18T11:56:10Z</time>
      </trkpt>
      <trkpt lat="37.0356520" lon="-2.2328800">
        <ele>679.7</ele>
        <time>2019-10-18T11:56:11Z</time>
      </trkpt>
      <trkpt lat="37.0356690" lon="-2.2329070">
        <ele>679.8</ele>
        <time>2019-10-18T11:56:12Z</time>
      </trkpt>
      <trkpt lat="37.0356880" lon="-2.2329300">
        <ele>679.9</ele>
        <time>2019-10-18T11:56:13Z</time>
      </trkpt>
      <trkpt lat="37.0357080" lon="-2.2329510">
        <ele>680.1</ele>
        <time>2019-10-18T11:56:14Z</time>
      </trkpt>
      <trkpt lat="37.0357310" lon="-2.2329680">
        <ele>680.2</ele>
        <time>2019-10-18T11:56:15Z</time>
      </trkpt>
      <trkpt lat="37.0357550" lon="-2.2329820">
        <ele>680.3</ele>
        <time>2019-10-18T11:56:16Z</time>
      </trkpt>
      <trkpt lat="37.0357820" lon="-2.2329920">
        <ele>680.5</ele>
        <time>2019-10-18T11:56:17Z</time>
      </trkpt>
      <trkpt lat="37.0358110" lon="-2.2330010">
        <ele>680.6</ele>
        <time>2019-10-18T11:56:18Z</time>
      </trkpt>
      <trkpt lat="37.0358400" lon="-2.2330100">
        <ele>680.8</ele>
        <time>2019-10-18T11:56:19Z</time>
      </trkpt>
      <trkpt lat="37.0358710" lon="-2.2330140">
        <ele>681.0</ele>
        <time>2019-10-18T11:56:20Z</time>
      </trkpt>
      <trkpt lat="37.0359020" lon="-2.2330090">
        <ele>681.2</ele>
        <time>2019-10-18T11:56:21Z</time>
      </trkpt>
      <trkpt lat="37.0359320" lon="-2.2329950">
        <ele>681.5</ele>
        <time>2019-10-18T11:56:22Z</time>
      </trkpt>
      <trkpt lat="37.0359580" lon="-2.2329750">
        <ele>681.7</ele>
        <time>2019-10-18T11:56:23Z</time>
      </trkpt>
      <trkpt lat="37.0359840" lon="-2.2329540">
        <ele>681.9</ele>
        <time>2019-10-18T11:56:24Z</time>
      </trkpt>
      <trkpt lat="37.0360090" lon="-2.2329340">
        <ele>682.2</ele>
        <time>2019-10-18T11:56:25Z</time>
      </trkpt>
      <trkpt lat="37.0360340" lon="-2.2329160">
        <ele>682.4</ele>
        <time>2019-10-18T11:56:26Z</time>
      </trkpt>
      <trkpt lat="37.0360590" lon="-2.2329000">
        <ele>682.7</ele>
        <time>2019-10-18T11:56:27Z</time>
      </trkpt>
      <trkpt lat="37.0360860" lon="-2.2328880">
        <ele>682.9</ele>
        <time>2019-10-18T11:56:28Z</time>
      </trkpt>
      <trkpt lat="37.0361130" lon="-2.2328800">
        <ele>683.1</ele>
        <time>2019-10-18T11:56:29Z</time>
      </trkpt>
      <trkpt lat="37.0361420" lon="-2.2328750">
        <ele>683.4</ele>
        <time>2019-10-18T11:56:30Z</time>
      </trkpt>
      <trkpt lat="37.0361700" lon="-2.2328710">
        <ele>683.6</ele>
        <time>2019-10-18T11:56:31Z</time>
      </trkpt>
      <trkpt lat="37.0361980" lon="-2.2328690">
        <ele>683.8</ele>
        <time>2019-10-18T11:56:32Z</time>
      </trkpt>
      <trkpt lat="37.0362260" lon="-2.2328700">
        <ele>684.1</ele>
        <time>2019-10-18T11:56:33Z</time>
      </trkpt>
      <trkpt lat="37.0362530" lon="-2.2328750">
        <ele>684.3</ele>
        <time>2019-10-18T11:56:34Z</time>
      </trkpt>
      <trkpt lat="37.0362780" lon="-2.2328840">
        <ele>684.5</ele>
        <time>2019-10-18T11:56:35Z</time>
      </trkpt>
      <trkpt lat="37.0363030" lon="-2.2328970">
        <ele>684.7</ele>
        <time>2019-10-18T11:56:36Z</time>
      </trkpt>
      <trkpt lat="37.0363280" lon="-2.2329130">
        <ele>685.0</ele>
        <time>2019-10-18T11:56:37Z</time>
      </trkpt>
      <trkpt lat="37.0363510" lon="-2.2329310">
        <ele>685.2</ele>
        <time>2019-10-18T11:56:38Z</time>
      </trkpt>
      <trkpt lat="37.0363740" lon="-2.2329510">
        <ele>685.4</ele>
        <time>2019-10-18T11:56:39Z</time>
      </trkpt>
      <trkpt lat="37.0363960" lon="-2.2329730">
        <ele>685.7</ele>
        <time>2019-10-18T11:56:40Z</time>
      </trkpt>
      <trkpt lat="37.0364180" lon="-2.2329980">
        <ele>685.9</ele>
        <time>2019-10-18T11:56:41Z</time>
      </trkpt>
      <trkpt lat="37.0364400" lon="-2.2330220">
        <ele>686.1</ele>
        <time>2019-10-18T11:56:42Z</time>
      </trkpt>
      <trkpt lat="37.0364610" lon="-2.2330450">
        <ele>686.3</ele>
        <time>2019-10-18T11:56:43Z</time>
      </trkpt>
      <trkpt lat="37.0364830" lon="-2.2330670">
        <ele>686.6</ele>
        <time>2019-10-18T11:56:44Z</time>
      </trkpt>
      <trkpt lat="37.0365040" lon="-2.2330880">
        <ele>686.8</ele>
        <time>2019-10-18T11:56:45Z</time>
      </trkpt>
      <trkpt lat="37.0365250" lon="-2.2331100">
        <ele>687.0</ele>
        <time>2019-10-18T11:56:46Z</time>
      </trkpt>
      <trkpt lat="37.0365450" lon="-2.2331320">
        <ele>687.2</ele>
        <time>2019-10-18T11:56:47Z</time>
      </trkpt>
      <trkpt lat="37.0365640" lon="-2.2331550">
        <ele>687.4</ele>
        <time>2019-10-18T11:56:48Z</time>
      </trkpt>
      <trkpt lat="37.0365820" lon="-2.2331790">
        <ele>687.6</ele>
        <time>2019-10-18T11:56:49Z</time>
      </trkpt>
      <trkpt lat="37.0365990" lon="-2.2332030">
        <ele>687.8</ele>
        <time>2019-10-18T11:56:50Z</time>
      </trkpt>
      <trkpt lat="37.0366170" lon="-2.2332290">
        <ele>688.1</ele>
        <time>2019-10-18T11:56:51Z</time>
      </trkpt>
      <trkpt lat="37.0366330" lon="-2.2332560">
        <ele>688.3</ele>
        <time>2019-10-18T11:56:52Z</time>
      </trkpt>
      <trkpt lat="37.0366490" lon="-2.2332840">
        <ele>688.6</ele>
        <time>2019-10-18T11:56:53Z</time>
      </trkpt>
      <trkpt lat="37.0366640" lon="-2.2333130">
        <ele>688.8</ele>
        <time>2019-10-18T11:56:54Z</time>
      </trkpt>
      <trkpt lat="37.0366780" lon="-2.2333440">
        <ele>689.0</ele>
        <time>2019-10-18T11:56:55Z</time>
      </trkpt>
      <trkpt lat="37.0366920" lon="-2.2333780">
        <ele>689.2</ele>
        <time>2019-10-18T11:56:56Z</time>
      </trkpt>
      <trkpt lat="37.0367030" lon="-2.2334130">
        <ele>689.5</ele>
        <time>2019-10-18T11:56:57Z</time>
      </trkpt>
      <trkpt lat="37.0367150" lon="-2.2334470">
        <ele>689.7</ele>
        <time>2019-10-18T11:56:58Z</time>
      </trkpt>
      <trkpt lat="37.0367270" lon="-2.2334790">
        <ele>689.8</ele>
        <time>2019-10-18T11:56:59Z</time>
      </trkpt>
      <trkpt lat="37.0367400" lon="-2.2335100">
        <ele>690.0</ele>
        <time>2019-10-18T11:57:00Z</time>
      </trkpt>
      <trkpt lat="37.0367530" lon="-2.2335400">
        <ele>690.2</ele>
        <time>2019-10-18T11:57:01Z</time>
      </trkpt>
      <trkpt lat="37.0367670" lon="-2.2335700">
        <ele>690.3</ele>
        <time>2019-10-18T11:57:02Z</time>
      </trkpt>
      <trkpt lat="37.0367800" lon="-2.2335990">
        <ele>690.5</ele>
        <time>2019-10-18T11:57:03Z</time>
      </trkpt>
      <trkpt lat="37.0367940" lon="-2.2336270">
        <ele>690.6</ele>
        <time>2019-10-18T11:57:04Z</time>
      </trkpt>
      <trkpt lat="37.0368080" lon="-2.2336540">
        <ele>690.8</ele>
        <time>2019-10-18T11:57:05Z</time>
      </trkpt>
      <trkpt lat="37.0368220" lon="-2.2336790">
        <ele>690.9</ele>
        <time>2019-10-18T11:57:06Z</time>
      </trkpt>
      <trkpt lat="37.0368350" lon="-2.2337050">
        <ele>691.0</ele>
        <time>2019-10-18T11:57:07Z</time>
      </trkpt>
      <trkpt lat="37.0368460" lon="-2.2337310">
        <ele>691.2</ele>
        <time>2019-10-18T11:57:08Z</time>
      </trkpt>
      <trkpt lat="37.0368560" lon="-2.2337590">
        <ele>691.3</ele>
        <time>2019-10-18T11:57:09Z</time>
      </trkpt>
      <trkpt lat="37.0368650" lon="-2.2337870">
        <ele>691.5</ele>
        <time>2019-10-18T11:57:10Z</time>
      </trkpt>
      <trkpt lat="37.0368730" lon="-2.2338150">
        <ele>691.6</ele>
        <time>2019-10-18T11:57:11Z</time>
      </trkpt>
      <trkpt lat="37.0368800" lon="-2.2338450">
        <ele>691.8</ele>
        <time>2019-10-18T11:57:12Z</time>
      </trkpt>
      <trkpt lat="37.0368860" lon="-2.2338750">
        <ele>692.0</ele>
        <time>2019-10-18T11:57:13Z</time>
      </trkpt>
      <trkpt lat="37.0368910" lon="-2.2339050">
        <ele>692.1</ele>
        <time>2019-10-18T11:57:14Z</time>
      </trkpt>
      <trkpt lat="37.0368940" lon="-2.2339360">
        <ele>692.3</ele>
        <time>2019-10-18T11:57:15Z</time>
      </trkpt>
      <trkpt lat="37.0368960" lon="-2.2339680">
        <ele>692.5</ele>
        <time>2019-10-18T11:57:16Z</time>
      </trkpt>
      <trkpt lat="37.0368950" lon="-2.2340000">
        <ele>692.7</ele>
        <time>2019-10-18T11:57:17Z</time>
      </trkpt>
      <trkpt lat="37.0368930" lon="-2.2340320">
        <ele>692.8</ele>
        <time>2019-10-18T11:57:18Z</time>
      </trkpt>
      <trkpt lat="37.0368890" lon="-2.2340630">
        <ele>693.0</ele>
        <time>2019-10-18T11:57:19Z</time>
      </trkpt>
      <trkpt lat="37.0368830" lon="-2.2340940">
        <ele>693.2</ele>
        <time>2019-10-18T11:57:20Z</time>
      </trkpt>
      <trkpt lat="37.0368760" lon="-2.2341240">
        <ele>693.4</ele>
        <time>2019-10-18T11:57:21Z</time>
      </trkpt>
      <trkpt lat="37.0368680" lon="-2.2341540">
        <ele>693.5</ele>
        <time>2019-10-18T11:57:22Z</time>
      </trkpt>
      <trkpt lat="37.0368580" lon="-2.2341840">
        <ele>693.7</ele>
        <time>2019-10-18T11:57:23Z</time>
      </trkpt>
      <trkpt lat="37.0368490" lon="-2.2342140">
        <ele>693.9</ele>
        <time>2019-10-18T11:57:24Z</time>
      </trkpt>
      <trkpt lat="37.0368390" lon="-2.2342440">
        <ele>694.1</ele>
        <time>2019-10-18T11:57:25Z</time>
      </trkpt>
      <trkpt lat="37.0368280" lon="-2.2342720">
        <ele>694.2</ele>
        <time>2019-10-18T11:57:26Z</time>
      </trkpt>
      <trkpt lat="37.0368150" lon="-2.2343000">
        <ele>694.4</ele>
        <time>2019-10-18T11:57:27Z</time>
      </trkpt>
      <trkpt lat="37.0368020" lon="-2.2343270">
        <ele>694.6</ele>
        <time>2019-10-18T11:57:28Z</time>
      </trkpt>
      <trkpt lat="37.0367890" lon="-2.2343550">
        <ele>694.8</ele>
        <time>2019-10-18T11:57:29Z</time>
      </trkpt>
      <trkpt lat="37.0367760" lon="-2.2343830">
        <ele>695.0</ele>
        <time>2019-10-18T11:57:30Z</time>
      </trkpt>
      <trkpt lat="37.0367620" lon="-2.2344110">
        <ele>695.2</ele>
        <time>2019-10-18T11:57:31Z</time>
      </trkpt>
      <trkpt lat="37.0367480" lon="-2.2344380">
        <ele>695.4</ele>
        <time>2019-10-18T11:57:32Z</time>
      </trkpt>
      <trkpt lat="37.0367330" lon="-2.2344660">
        <ele>695.5</ele>
        <time>2019-10-18T11:57:33Z</time>
      </trkpt>
      <trkpt lat="37.0367180" lon="-2.2344940">
        <ele>695.7</ele>
        <time>2019-10-18T11:57:34Z</time>
      </trkpt>
      <trkpt lat="37.0367020" lon="-2.2345210">
        <ele>695.9</ele>
        <time>2019-10-18T11:57:35Z</time>
      </trkpt>
      <trkpt lat="37.0366870" lon="-2.2345480">
        <ele>696.1</ele>
        <time>2019-10-18T11:57:36Z</time>
      </trkpt>
      <trkpt lat="37.0366720" lon="-2.2345770">
        <ele>696.3</ele>
        <time>2019-10-18T11:57:37Z</time>
      </trkpt>
      <trkpt lat="37.0366610" lon="-2.2346070">
        <ele>696.4</ele>
        <time>2019-10-18T11:57:38Z</time>
      </trkpt>
      <trkpt lat="37.0366510" lon="-2.2346380">
        <ele>696.6</ele>
        <time>2019-10-18T11:57:39Z</time>
      </trkpt>
      <trkpt lat="37.0366420" lon="-2.2346700">
        <ele>696.8</ele>
        <time>2019-10-18T11:57:40Z</time>
      </trkpt>
      <trkpt lat="37.0366360" lon="-2.2347030">
        <ele>696.9</ele>
        <time>2019-10-18T11:57:41Z</time>
      </trkpt>
      <trkpt lat="37.0366330" lon="-2.2347370">
        <ele>697.1</ele>
        <time>2019-10-18T11:57:42Z</time>
      </trkpt>
      <trkpt lat="37.0366320" lon="-2.2347700">
        <ele>697.3</ele>
        <time>2019-10-18T11:57:43Z</time>
      </trkpt>
      <trkpt lat="37.0366330" lon="-2.2348030">
        <ele>697.4</ele>
        <time>2019-10-18T11:57:44Z</time>
      </trkpt>
      <trkpt lat="37.0366330" lon="-2.2348360">
        <ele>697.6</ele>
        <time>2019-10-18T11:57:45Z</time>
      </trkpt>
      <trkpt lat="37.0366320" lon="-2.2348690">
        <ele>697.7</ele>
        <time>2019-10-18T11:57:46Z</time>
      </trkpt>
      <trkpt lat="37.0366290" lon="-2.2349010">
        <ele>697.9</ele>
        <time>2019-10-18T11:57:47Z</time>
      </trkpt>
      <trkpt lat="37.0366270" lon="-2.2349330">
        <ele>698.0</ele>
        <time>2019-10-18T11:57:48Z</time>
      </trkpt>
      <trkpt lat="37.0366230" lon="-2.2349630">
        <ele>698.2</ele>
        <time>2019-10-18T11:57:49Z</time>
      </trkpt>
      <trkpt lat="37.0366150" lon="-2.2349900">
        <ele>698.3</ele>
        <time>2019-10-18T11:57:50Z</time>
      </trkpt>
      <trkpt lat="37.0366050" lon="-2.2350160">
        <ele>698.5</ele>
        <time>2019-10-18T11:57:51Z</time>
      </trkpt>
      <trkpt lat="37.0365910" lon="-2.2350400">
        <ele>698.6</ele>
        <time>2019-10-18T11:57:52Z</time>
      </trkpt>
      <trkpt lat="37.0365750" lon="-2.2350600">
        <ele>698.8</ele>
        <time>2019-10-18T11:57:53Z</time>
      </trkpt>
      <trkpt lat="37.0365560" lon="-2.2350750">
        <ele>698.9</ele>
        <time>2019-10-18T11:57:54Z</time>
      </trkpt>
      <trkpt lat="37.0365350" lon="-2.2350830">
        <ele>699.1</ele>
        <time>2019-10-18T11:57:55Z</time>
      </trkpt>
      <trkpt lat="37.0365120" lon="-2.2350870">
        <ele>699.3</ele>
        <time>2019-10-18T11:57:56Z</time>
      </trkpt>
      <trkpt lat="37.0364900" lon="-2.2350850">
        <ele>699.4</ele>
        <time>2019-10-18T11:57:57Z</time>
      </trkpt>
      <trkpt lat="37.0364690" lon="-2.2350780">
        <ele>699.6</ele>
        <time>2019-10-18T11:57:58Z</time>
      </trkpt>
      <trkpt lat="37.0364480" lon="-2.2350670">
        <ele>699.8</ele>
        <time>2019-10-18T11:57:59Z</time>
      </trkpt>
      <trkpt lat="37.0364290" lon="-2.2350530">
        <ele>700.0</ele>
        <time>2019-10-18T11:58:00Z</time>
      </trkpt>
      <trkpt lat="37.0364100" lon="-2.2350370">
        <ele>700.1</ele>
        <time>2019-10-18T11:58:01Z</time>
      </trkpt>
      <trkpt lat="37.0363920" lon="-2.2350210">
        <ele>700.3</ele>
        <time>2019-10-18T11:58:02Z</time>
      </trkpt>
      <trkpt lat="37.0363730" lon="-2.2350050">
        <ele>700.5</ele>
        <time>2019-10-18T11:58:03Z</time>
      </trkpt>
      <trkpt lat="37.0363520" lon="-2.2349900">
        <ele>700.7</ele>
        <time>2019-10-18T11:58:04Z</time>
      </trkpt>
      <trkpt lat="37.0363300" lon="-2.2349730">
        <ele>700.9</ele>
        <time>2019-10-18T11:58:05Z</time>
      </trkpt>
      <trkpt lat="37.0363080" lon="-2.2349560">
        <ele>701.2</ele>
        <time>2019-10-18T11:58:06Z</time>
      </trkpt>
      <trkpt lat="37.0362850" lon="-2.2349370">
        <ele>701.4</ele>
        <time>2019-10-18T11:58:07Z</time>
      </trkpt>
      <trkpt lat="37.0362620" lon="-2.2349190">
        <ele>701.6</ele>
        <time>2019-10-18T11:58:08Z</time>
      </trkpt>
      <trkpt lat="37.0362380" lon="-2.2349050">
        <ele>701.8</ele>
        <time>2019-10-18T11:58:09Z</time>
      </trkpt>
      <trkpt lat="37.0362140" lon="-2.2348920">
        <ele>702.0</ele>
        <time>2019-10-18T11:58:10Z</time>
      </trkpt>
      <trkpt lat="37.0361900" lon="-2.2348820">
        <ele>702.1</ele>
        <time>2019-10-18T11:58:11Z</time>
      </trkpt>
      <trkpt lat="37.0361660" lon="-2.2348730">
        <ele>702.3</ele>
        <time>2019-10-18T11:58:12Z</time>
      </trkpt>
      <trkpt lat="37.0361420" lon="-2.2348630">
        <ele>702.5</ele>
        <time>2019-10-18T11:58:13Z</time>
      </trkpt>
      <trkpt lat="37.0361180" lon="-2.2348540">
        <ele>702.6</ele>
        <time>2019-10-18T11:58:14Z</time>
      </trkpt>
      <trkpt lat="37.0360940" lon="-2.2348450">
        <ele>702.8</ele>
        <time>2019-10-18T11:58:15Z</time>
      </trkpt>
      <trkpt lat="37.0360690" lon="-2.2348380">
        <ele>702.9</ele>
        <time>2019-10-18T11:58:16Z</time>
      </trkpt>
      <trkpt lat="37.0360440" lon="-2.2348300">
        <ele>703.1</ele>
        <time>2019-10-18T11:58:17Z</time>
      </trkpt>
      <trkpt lat="37.0360190" lon="-2.2348200">
        <ele>703.2</ele>
        <time>2019-10-18T11:58:18Z</time>
      </trkpt>
      <trkpt lat="37.0359930" lon="-2.2348090">
        <ele>703.4</ele>
        <time>2019-10-18T11:58:19Z</time>
      </trkpt>
      <trkpt lat="37.0359680" lon="-2.2347970">
        <ele>703.5</ele>
        <time>2019-10-18T11:58:20Z</time>
      </trkpt>
      <trkpt lat="37.0359430" lon="-2.2347850">
        <ele>703.7</ele>
        <time>2019-10-18T11:58:21Z</time>
      </trkpt>
      <trkpt lat="37.0359180" lon="-2.2347720">
        <ele>703.8</ele>
        <time>2019-10-18T11:58:22Z</time>
      </trkpt>
      <trkpt lat="37.0358940" lon="-2.2347560">
        <ele>704.0</ele>
        <time>2019-10-18T11:58:23Z</time>
      </trkpt>
      <trkpt lat="37.0358710" lon="-2.2347400">
        <ele>704.1</ele>
        <time>2019-10-18T11:58:24Z</time>
      </trkpt>
      <trkpt lat="37.0358480" lon="-2.2347220">
        <ele>704.3</ele>
        <time>2019-10-18T11:58:25Z</time>
      </trkpt>
      <trkpt lat="37.0358250" lon="-2.2347030">
        <ele>704.5</ele>
        <time>2019-10-18T11:58:26Z</time>
      </trkpt>
      <trkpt lat="37.0358010" lon="-2.2346850">
        <ele>704.6</ele>
        <time>2019-10-18T11:58:27Z</time>
      </trkpt>
      <trkpt lat="37.0357770" lon="-2.2346670">
        <ele>704.8</ele>
        <time>2019-10-18T11:58:28Z</time>
      </trkpt>
      <trkpt lat="37.0357520" lon="-2.2346500">
        <ele>705.0</ele>
        <time>2019-10-18T11:58:29Z</time>
      </trkpt>
      <trkpt lat="37.0357270" lon="-2.2346320">
        <ele>705.2</ele>
        <time>2019-10-18T11:58:30Z</time>
      </trkpt>
      <trkpt lat="37.0357020" lon="-2.2346150">
        <ele>705.3</ele>
        <time>2019-10-18T11:58:31Z</time>
      </trkpt>
      <trkpt lat="37.0356770" lon="-2.2345970">
        <ele>705.5</ele>
        <time>2019-10-18T11:58:32Z</time>
      </trkpt>
      <trkpt lat="37.0356520" lon="-2.2345810">
        <ele>705.7</ele>
        <time>2019-10-18T11:58:33Z</time>
      </trkpt>
      <trkpt lat="37.0356260" lon="-2.2345660">
        <ele>705.9</ele>
        <time>2019-10-18T11:58:34Z</time>
      </trkpt>
      <trkpt lat="37.0355990" lon="-2.2345520">
        <ele>706.0</ele>
        <time>2019-10-18T11:58:35Z</time>
      </trkpt>
      <trkpt lat="37.0355720" lon="-2.2345430">
        <ele>706.2</ele>
        <time>2019-10-18T11:58:36Z</time>
      </trkpt>
      <trkpt lat="37.0355450" lon="-2.2345380">
        <ele>706.3</ele>
        <time>2019-10-18T11:58:37Z</time>
      </trkpt>
      <trkpt lat="37.0355170" lon="-2.2345380">
        <ele>706.5</ele>
        <time>2019-10-18T11:58:38Z</time>
      </trkpt>
      <trkpt lat="37.0354890" lon="-2.2345420">
        <ele>706.6</ele>
        <time>2019-10-18T11:58:39Z</time>
      </trkpt>
      <trkpt lat="37.0354620" lon="-2.2345490">
        <ele>706.7</ele>
        <time>2019-10-18T11:58:40Z</time>
      </trkpt>
      <trkpt lat="37.0354370" lon="-2.2345600">
        <ele>706.8</ele>
        <time>2019-10-18T11:58:41Z</time>
      </trkpt>
      <trkpt lat="37.0354140" lon="-2.2345740">
        <ele>707.0</ele>
        <time>2019-10-18T11:58:42Z</time>
      </trkpt>
      <trkpt lat="37.0353930" lon="-2.2345930">
        <ele>707.1</ele>
        <time>2019-10-18T11:58:43Z</time>
      </trkpt>
      <trkpt lat="37.0353750" lon="-2.2346140">
        <ele>707.2</ele>
        <time>2019-10-18T11:58:44Z</time>
      </trkpt>
      <trkpt lat="37.0353570" lon="-2.2346360">
        <ele>707.3</ele>
        <time>2019-10-18T11:58:45Z</time>
      </trkpt>
      <trkpt lat="37.0353410" lon="-2.2346590">
        <ele>707.4</ele>
        <time>2019-10-18T11:58:46Z</time>
      </trkpt>
      <trkpt lat="37.0353240" lon="-2.2346800">
        <ele>707.5</ele>
        <time>2019-10-18T11:58:47Z</time>
      </trkpt>
      <trkpt lat="37.0353070" lon="-2.2347010">
        <ele>707.6</ele>
        <time>2019-10-18T11:58:48Z</time>
      </trkpt>
      <trkpt lat="37.0352890" lon="-2.2347210">
        <ele>707.7</ele>
        <time>2019-10-18T11:58:49Z</time>
      </trkpt>
      <trkpt lat="37.0352710" lon="-2.2347420">
        <ele>707.8</ele>
        <time>2019-10-18T11:58:50Z</time>
      </trkpt>
      <trkpt lat="37.0352540" lon="-2.2347640">
        <ele>708.0</ele>
        <time>2019-10-18T11:58:51Z</time>
      </trkpt>
      <trkpt lat="37.0352370" lon="-2.2347860">
        <ele>708.1</ele>
        <time>2019-10-18T11:58:52Z</time>
      </trkpt>
      <trkpt lat="37.0352190" lon="-2.2348080">
        <ele>708.3</ele>
        <time>2019-10-18T11:58:53Z</time>
      </trkpt>
      <trkpt lat="37.0352020" lon="-2.2348300">
        <ele>708.5</ele>
        <time>2019-10-18T11:58:54Z</time>
      </trkpt>
      <trkpt lat="37.0351850" lon="-2.2348520">
        <ele>708.6</ele>
        <time>2019-10-18T11:58:55Z</time>
      </trkpt>
      <trkpt lat="37.0351680" lon="-2.2348730">
        <ele>708.8</ele>
        <time>2019-10-18T11:58:56Z</time>
      </trkpt>
      <trkpt lat="37.0351500" lon="-2.2348940">
        <ele>709.0</ele>
        <time>2019-10-18T11:58:57Z</time>
      </trkpt>
      <trkpt lat="37.0351330" lon="-2.2349150">
        <ele>709.2</ele>
        <time>2019-10-18T11:58:58Z</time>
      </trkpt>
      <trkpt lat="37.0351150" lon="-2.2349370">
        <ele>709.4</ele>
        <time>2019-10-18T11:58:59Z</time>
      </trkpt>
      <trkpt lat="37.0350970" lon="-2.2349580">
        <ele>709.6</ele>
        <time>2019-10-18T11:59:00Z</time>
      </trkpt>
      <trkpt lat="37.0350780" lon="-2.2349780">
        <ele>709.8</ele>
        <time>2019-10-18T11:59:01Z</time>
      </trkpt>
      <trkpt lat="37.0350590" lon="-2.2349960">
        <ele>710.0</ele>
        <time>2019-10-18T11:59:02Z</time>
      </trkpt>
      <trkpt lat="37.0350390" lon="-2.2350140">
        <ele>710.3</ele>
        <time>2019-10-18T11:59:03Z</time>
      </trkpt>
      <trkpt lat="37.0350190" lon="-2.2350330">
        <ele>710.5</ele>
        <time>2019-10-18T11:59:04Z</time>
      </trkpt>
      <trkpt lat="37.0350000" lon="-2.2350530">
        <ele>710.7</ele>
        <time>2019-10-18T11:59:05Z</time>
      </trkpt>
      <trkpt lat="37.0349810" lon="-2.2350740">
        <ele>710.9</ele>
        <time>2019-10-18T11:59:06Z</time>
      </trkpt>
      <trkpt lat="37.0349620" lon="-2.2350950">
        <ele>711.2</ele>
        <time>2019-10-18T11:59:07Z</time>
      </trkpt>
      <trkpt lat="37.0349430" lon="-2.2351180">
        <ele>711.4</ele>
        <time>2019-10-18T11:59:08Z</time>
      </trkpt>
      <trkpt lat="37.0349260" lon="-2.2351410">
        <ele>711.6</ele>
        <time>2019-10-18T11:59:09Z</time>
      </trkpt>
      <trkpt lat="37.0349090" lon="-2.2351650">
        <ele>711.8</ele>
        <time>2019-10-18T11:59:10Z</time>
      </trkpt>
      <trkpt lat="37.0348930" lon="-2.2351900">
        <ele>712.1</ele>
        <time>2019-10-18T11:59:11Z</time>
      </trkpt>
      <trkpt lat="37.0348770" lon="-2.2352160">
        <ele>712.3</ele>
        <time>2019-10-18T11:59:12Z</time>
      </trkpt>
      <trkpt lat="37.0348630" lon="-2.2352430">
        <ele>712.5</ele>
        <time>2019-10-18T11:59:13Z</time>
      </trkpt>
      <trkpt lat="37.0348500" lon="-2.2352720">
        <ele>712.7</ele>
        <time>2019-10-18T11:59:14Z</time>
      </trkpt>
      <trkpt lat="37.0348380" lon="-2.2353020">
        <ele>712.9</ele>
        <time>2019-10-18T11:59:15Z</time>
      </trkpt>
      <trkpt lat="37.0348300" lon="-2.2353340">
        <ele>713.1</ele>
        <time>2019-10-18T11:59:16Z</time>
      </trkpt>
      <trkpt lat="37.0348260" lon="-2.2353680">
        <ele>713.3</ele>
        <time>2019-10-18T11:59:17Z</time>
      </trkpt>
      <trkpt lat="37.0348270" lon="-2.2354030">
        <ele>713.5</ele>
        <time>2019-10-18T11:59:18Z</time>
      </trkpt>
      <trkpt lat="37.0348310" lon="-2.2354370">
        <ele>713.7</ele>
        <time>2019-10-18T11:59:19Z</time>
      </trkpt>
      <trkpt lat="37.0348400" lon="-2.2354700">
        <ele>713.9</ele>
        <time>2019-10-18T11:59:20Z</time>
      </trkpt>
      <trkpt lat="37.0348520" lon="-2.2355020">
        <ele>714.1</ele>
        <time>2019-10-18T11:59:21Z</time>
      </trkpt>
      <trkpt lat="37.0348670" lon="-2.2355330">
        <ele>714.3</ele>
        <time>2019-10-18T11:59:22Z</time>
      </trkpt>
      <trkpt lat="37.0348840" lon="-2.2355620">
        <ele>714.4</ele>
        <time>2019-10-18T11:59:23Z</time>
      </trkpt>
      <trkpt lat="37.0349020" lon="-2.2355910">
        <ele>714.6</ele>
        <time>2019-10-18T11:59:24Z</time>
      </trkpt>
      <trkpt lat="37.0349220" lon="-2.2356190">
        <ele>714.8</ele>
        <time>2019-10-18T11:59:25Z</time>
      </trkpt>
      <trkpt lat="37.0349430" lon="-2.2356450">
        <ele>714.9</ele>
        <time>2019-10-18T11:59:26Z</time>
      </trkpt>
      <trkpt lat="37.0349640" lon="-2.2356710">
        <ele>715.1</ele>
        <time>2019-10-18T11:59:27Z</time>
      </trkpt>
      <trkpt lat="37.0349840" lon="-2.2356960">
        <ele>715.3</ele>
        <time>2019-10-18T11:59:28Z</time>
      </trkpt>
      <trkpt lat="37.0350040" lon="-2.2357210">
        <ele>715.4</ele>
        <time>2019-10-18T11:59:29Z</time>
      </trkpt>
      <trkpt lat="37.0350240" lon="-2.2357470">
        <ele>715.6</ele>
        <time>2019-10-18T11:59:30Z</time>
      </trkpt>
      <trkpt lat="37.0350410" lon="-2.2357730">
        <ele>715.8</ele>
        <time>2019-10-18T11:59:31Z</time>
      </trkpt>
      <trkpt lat="37.0350540" lon="-2.2358030">
        <ele>716.0</ele>
        <time>2019-10-18T11:59:32Z</time>
      </trkpt>
      <trkpt lat="37.0350610" lon="-2.2358360">
        <ele>716.2</ele>
        <time>2019-10-18T11:59:33Z</time>
      </trkpt>
      <trkpt lat="37.0350630" lon="-2.2358720">
        <ele>716.4</ele>
        <time>2019-10-18T11:59:34Z</time>
      </trkpt>
      <trkpt lat="37.0350580" lon="-2.2359070">
        <ele>716.6</ele>
        <time>2019-10-18T11:59:35Z</time>
      </trkpt>
      <trkpt lat="37.0350490" lon="-2.2359410">
        <ele>716.7</ele>
        <time>2019-10-18T11:59:36Z</time>
      </trkpt>
      <trkpt lat="37.0350350" lon="-2.2359710">
        <ele>716.9</ele>
        <time>2019-10-18T11:59:37Z</time>
      </trkpt>
      <trkpt lat="37.0350160" lon="-2.2359980">
        <ele>717.1</ele>
        <time>2019-10-18T11:59:38Z</time>
      </trkpt>
      <trkpt lat="37.0349940" lon="-2.2360220">
        <ele>717.3</ele>
        <time>2019-10-18T11:59:39Z</time>
      </trkpt>
      <trkpt lat="37.0349700" lon="-2.2360440">
        <ele>717.5</ele>
        <time>2019-10-18T11:59:40Z</time>
      </trkpt>
      <trkpt lat="37.0349460" lon="-2.2360640">
        <ele>717.7</ele>
        <time>2019-10-18T11:59:41Z</time>
      </trkpt>
      <trkpt lat="37.0349200" lon="-2.2360820">
        <ele>717.9</ele>
        <time>2019-10-18T11:59:42Z</time>
      </trkpt>
      <trkpt lat="37.0348930" lon="-2.2360970">
        <ele>718.1</ele>
        <time>2019-10-18T11:59:43Z</time>
      </trkpt>
      <trkpt lat="37.0348650" lon="-2.2361100">
        <ele>718.3</ele>
        <time>2019-10-18T11:59:44Z</time>
      </trkpt>
      <trkpt lat="37.0348370" lon="-2.2361240">
        <ele>718.5</ele>
        <time>2019-10-18T11:59:45Z</time>
      </trkpt>
      <trkpt lat="37.0348090" lon="-2.2361370">
        <ele>718.7</ele>
        <time>2019-10-18T11:59:46Z</time>
      </trkpt>
      <trkpt lat="37.0347820" lon="-2.2361520">
        <ele>718.9</ele>
        <time>2019-10-18T11:59:47Z</time>
      </trkpt>
      <trkpt lat="37.0347540" lon="-2.2361670">
        <ele>719.1</ele>
        <time>2019-10-18T11:59:48Z</time>
      </trkpt>
      <trkpt lat="37.0347270" lon="-2.2361830">
        <ele>719.3</ele>
        <time>2019-10-18T11:59:49Z</time>
      </trkpt>
      <trkpt lat="37.0347020" lon="-2.2362030">
        <ele>719.5</ele>
        <time>2019-10-18T11:59:50Z</time>
      </trkpt>
      <trkpt lat="37.0346800" lon="-2.2362280">
        <ele>719.7</ele>
        <time>2019-10-18T11:59:51Z</time>
      </trkpt>
      <trkpt lat="37.0346630" lon="-2.2362580">
        <ele>719.8</ele>
        <time>2019-10-18T11:59:52Z</time>
      </trkpt>
      <trkpt lat="37.0346510" lon="-2.2362920">
        <ele>720.0</ele>
        <time>2019-10-18T11:59:53Z</time>
      </trkpt>
      <trkpt lat="37.0346420" lon="-2.2363270">
        <ele>720.2</ele>
        <time>2019-10-18T11:59:54Z</time>
      </trkpt>
      <trkpt lat="37.0346380" lon="-2.2363630">
        <ele>720.3</ele>
        <time>2019-10-18T11:59:55Z</time>
      </trkpt>
      <trkpt lat="37.0346360" lon="-2.2364000">
        <ele>720.4</ele>
        <time>2019-10-18T11:59:56Z</time>
      </trkpt>
      <trkpt lat="37.0346370" lon="-2.2364390">
        <ele>720.6</ele>
        <time>2019-10-18T11:59:57Z</time>
      </trkpt>
      <trkpt lat="37.0346370" lon="-2.2364790">
        <ele>720.8</ele>
        <time>2019-10-18T11:59:58Z</time>
      </trkpt>
      <trkpt lat="37.0346370" lon="-2.2365190">
        <ele>720.9</ele>
        <time>2019-10-18T11:59:59Z</time>
      </trkpt>
      <trkpt lat="37.0346350" lon="-2.2365580">
        <ele>721.1</ele>
        <time>2019-10-18T12:00:00Z</time>
      </trkpt>
      <trkpt lat="37.0346320" lon="-2.2365980">
        <ele>721.3</ele>
        <time>2019-10-18T12:00:01Z</time>
      </trkpt>
      <trkpt lat="37.0346270" lon="-2.2366390">
        <ele>721.4</ele>
        <time>2019-10-18T12:00:02Z</time>
      </trkpt>
      <trkpt lat="37.0346200" lon="-2.2366800">
        <ele>721.6</ele>
        <time>2019-10-18T12:00:03Z</time>
      </trkpt>
      <trkpt lat="37.0346120" lon="-2.2367220">
        <ele>721.8</ele>
        <time>2019-10-18T12:00:04Z</time>
      </trkpt>
      <trkpt lat="37.0346060" lon="-2.2367640">
        <ele>722.0</ele>
        <time>2019-10-18T12:00:05Z</time>
      </trkpt>
      <trkpt lat="37.0346010" lon="-2.2368070">
        <ele>722.1</ele>
        <time>2019-10-18T12:00:06Z</time>
      </trkpt>
      <trkpt lat="37.0345960" lon="-2.2368510">
        <ele>722.2</ele>
        <time>2019-10-18T12:00:07Z</time>
      </trkpt>
      <trkpt lat="37.0345910" lon="-2.2368950">
        <ele>722.3</ele>
        <time>2019-10-18T12:00:08Z</time>
      </trkpt>
      <trkpt lat="37.0345860" lon="-2.2369380">
        <ele>722.4</ele>
        <time>2019-10-18T12:00:09Z</time>
      </trkpt>
      <trkpt lat="37.0345800" lon="-2.2369810">
        <ele>722.5</ele>
        <time>2019-10-18T12:00:10Z</time>
      </trkpt>
      <trkpt lat="37.0345740" lon="-2.2370250">
        <ele>722.7</ele>
        <time>2019-10-18T12:00:11Z</time>
      </trkpt>
      <trkpt lat="37.0345680" lon="-2.2370680">
        <ele>722.8</ele>
        <time>2019-10-18T12:00:12Z</time>
      </trkpt>
      <trkpt lat="37.0345610" lon="-2.2371100">
        <ele>722.9</ele>
        <time>2019-10-18T12:00:13Z</time>
      </trkpt>
      <trkpt lat="37.0345520" lon="-2.2371520">
        <ele>723.0</ele>
        <time>2019-10-18T12:00:14Z</time>
      </trkpt>
      <trkpt lat="37.0345420" lon="-2.2371930">
        <ele>723.1</ele>
        <time>2019-10-18T12:00:15Z</time>
      </trkpt>
      <trkpt lat="37.0345310" lon="-2.2372340">
        <ele>723.2</ele>
        <time>2019-10-18T12:00:16Z</time>
      </trkpt>
      <trkpt lat="37.0345200" lon="-2.2372750">
        <ele>723.3</ele>
        <time>2019-10-18T12:00:17Z</time>
      </trkpt>
      <trkpt lat="37.0345070" lon="-2.2373160">
        <ele>723.4</ele>
        <time>2019-10-18T12:00:18Z</time>
      </trkpt>
      <trkpt lat="37.0344920" lon="-2.2373560">
        <ele>723.5</ele>
        <time>2019-10-18T12:00:19Z</time>
      </trkpt>
      <trkpt lat="37.0344750" lon="-2.2373950">
        <ele>723.6</ele>
        <time>2019-10-18T12:00:20Z</time>
      </trkpt>
      <trkpt lat="37.0344580" lon="-2.2374340">
        <ele>723.7</ele>
        <time>2019-10-18T12:00:21Z</time>
      </trkpt>
      <trkpt lat="37.0344420" lon="-2.2374730">
        <ele>723.8</ele>
        <time>2019-10-18T12:00:22Z</time>
      </trkpt>
      <trkpt lat="37.0344270" lon="-2.2375140">
        <ele>723.9</ele>
        <time>2019-10-18T12:00:23Z</time>
      </trkpt>
      <trkpt lat="37.0344150" lon="-2.2375560">
        <ele>724.0</ele>
        <time>2019-10-18T12:00:24Z</time>
      </trkpt>
      <trkpt lat="37.0344060" lon="-2.2376000">
        <ele>724.2</ele>
        <time>2019-10-18T12:00:25Z</time>
      </trkpt>
      <trkpt lat="37.0344030" lon="-2.2376450">
        <ele>724.3</ele>
        <time>2019-10-18T12:00:26Z</time>
      </trkpt>
      <trkpt lat="37.0344080" lon="-2.2376920">
        <ele>724.4</ele>
        <time>2019-10-18T12:00:27Z</time>
      </trkpt>
      <trkpt lat="37.0344180" lon="-2.2377390">
        <ele>724.5</ele>
        <time>2019-10-18T12:00:28Z</time>
      </trkpt>
      <trkpt lat="37.0344320" lon="-2.2377850">
        <ele>724.7</ele>
        <time>2019-10-18T12:00:29Z</time>
      </trkpt>
      <trkpt lat="37.0344510" lon="-2.2378280">
        <ele>724.8</ele>
        <time>2019-10-18T12:00:30Z</time>
      </trkpt>
      <trkpt lat="37.0344710" lon="-2.2378680">
        <ele>724.9</ele>
        <time>2019-10-18T12:00:31Z</time>
      </trkpt>
      <trkpt lat="37.0344920" lon="-2.2379060">
        <ele>725.1</ele>
        <time>2019-10-18T12:00:32Z</time>
      </trkpt>
      <trkpt lat="37.0345110" lon="-2.2379440">
        <ele>725.2</ele>
        <time>2019-10-18T12:00:33Z</time>
      </trkpt>
      <trkpt lat="37.0345300" lon="-2.2379850">
        <ele>725.3</ele>
        <time>2019-10-18T12:00:34Z</time>
      </trkpt>
      <trkpt lat="37.0345480" lon="-2.2380310">
        <ele>725.4</ele>
        <time>2019-10-18T12:00:35Z</time>
      </trkpt>
      <trkpt lat="37.0345630" lon="-2.2380800">
        <ele>725.4</ele>
        <time>2019-10-18T12:00:36Z</time>
      </trkpt>
      <trkpt lat="37.0345700" lon="-2.2381350">
        <ele>725.5</ele>
        <time>2019-10-18T12:00:37Z</time>
      </trkpt>
      <trkpt lat="37.0345650" lon="-2.2381950">
        <ele>725.5</ele>
        <time>2019-10-18T12:00:38Z</time>
      </trkpt>
      <trkpt lat="37.0345470" lon="-2.2382530">
        <ele>725.5</ele>
        <time>2019-10-18T12:00:39Z</time>
      </trkpt>
      <trkpt lat="37.0345180" lon="-2.2383070">
        <ele>725.5</ele>
        <time>2019-10-18T12:00:40Z</time>
      </trkpt>
      <trkpt lat="37.0344830" lon="-2.2383570">
        <ele>725.5</ele>
        <time>2019-10-18T12:00:41Z</time>
      </trkpt>
      <trkpt lat="37.0344430" lon="-2.2384060">
        <ele>725.6</ele>
        <time>2019-10-18T12:00:42Z</time>
      </trkpt>
      <trkpt lat="37.0344050" lon="-2.2384570">
        <ele>725.7</ele>
        <time>2019-10-18T12:00:43Z</time>
      </trkpt>
      <trkpt lat="37.0343720" lon="-2.2385140">
        <ele>725.8</ele>
        <time>2019-10-18T12:00:44Z</time>
      </trkpt>
      <trkpt lat="37.0343490" lon="-2.2385770">
        <ele>725.9</ele>
        <time>2019-10-18T12:00:45Z</time>
      </trkpt>
      <trkpt lat="37.0343390" lon="-2.2386420">
        <ele>726.1</ele>
        <time>2019-10-18T12:00:46Z</time>
      </trkpt>
      <trkpt lat="37.0343400" lon="-2.2387040">
        <ele>726.2</ele>
        <time>2019-10-18T12:00:47Z</time>
      </trkpt>
      <trkpt lat="37.0343470" lon="-2.2387640">
        <ele>726.3</ele>
        <time>2019-10-18T12:00:48Z</time>
      </trkpt>
      <trkpt lat="37.0343550" lon="-2.2388220">
        <ele>726.4</ele>
        <time>2019-10-18T12:00:49Z</time>
      </trkpt>
      <trkpt lat="37.0343630" lon="-2.2388790">
        <ele>726.5</ele>
        <time>2019-10-18T12:00:50Z</time>
      </trkpt>
      <trkpt lat="37.0343720" lon="-2.2389350">
        <ele>726.5</ele>
        <time>2019-10-18T12:00:51Z</time>
      </trkpt>
      <trkpt lat="37.0343800" lon="-2.2389900">
        <ele>726.6</ele>
        <time>2019-10-18T12:00:52Z</time>
      </trkpt>
      <trkpt lat="37.0343870" lon="-2.2390450">
        <ele>726.6</ele>
        <time>2019-10-18T12:00:53Z</time>
      </trkpt>
      <trkpt lat="37.0343940" lon="-2.2391000">
        <ele>726.6</ele>
        <time>2019-10-18T12:00:54Z</time>
      </trkpt>
      <trkpt lat="37.0344010" lon="-2.2391550">
        <ele>726.8</ele>
        <time>2019-10-18T12:00:55Z</time>
      </trkpt>
      <trkpt lat="37.0344080" lon="-2.2392080">
        <ele>726.9</ele>
        <time>2019-10-18T12:00:56Z</time>
      </trkpt>
      <trkpt lat="37.0344130" lon="-2.2392610">
        <ele>727.1</ele>
        <time>2019-10-18T12:00:57Z</time>
      </trkpt>
      <trkpt lat="37.0344140" lon="-2.2393130">
        <ele>727.2</ele>
        <time>2019-10-18T12:00:58Z</time>
      </trkpt>
      <trkpt lat="37.0344090" lon="-2.2393630">
        <ele>727.4</ele>
        <time>2019-10-18T12:00:59Z</time>
      </trkpt>
      <trkpt lat="37.0343970" lon="-2.2394100">
        <ele>727.5</ele>
        <time>2019-10-18T12:01:00Z</time>
      </trkpt>
      <trkpt lat="37.0343770" lon="-2.2394530">
        <ele>727.7</ele>
        <time>2019-10-18T12:01:01Z</time>
      </trkpt>
      <trkpt lat="37.0343490" lon="-2.2394920">
        <ele>727.9</ele>
        <time>2019-10-18T12:01:02Z</time>
      </trkpt>
      <trkpt lat="37.0343160" lon="-2.2395250">
        <ele>728.0</ele>
        <time>2019-10-18T12:01:03Z</time>
      </trkpt>
      <trkpt lat="37.0342800" lon="-2.2395540">
        <ele>728.2</ele>
        <time>2019-10-18T12:01:04Z</time>
      </trkpt>
      <trkpt lat="37.0342430" lon="-2.2395810">
        <ele>728.3</ele>
        <time>2019-10-18T12:01:05Z</time>
      </trkpt>
      <trkpt lat="37.0342050" lon="-2.2396080">
        <ele>728.5</ele>
        <time>2019-10-18T12:01:06Z</time>
      </trkpt>
      <trkpt lat="37.0341680" lon="-2.2396350">
        <ele>728.7</ele>
        <time>2019-10-18T12:01:07Z</time>
      </trkpt>
      <trkpt lat="37.0341300" lon="-2.2396640">
        <ele>728.8</ele>
        <time>2019-10-18T12:01:08Z</time>
      </trkpt>
      <trkpt lat="37.0340930" lon="-2.2396940">
        <ele>729.0</ele>
        <time>2019-10-18T12:01:09Z</time>
      </trkpt>
      <trkpt lat="37.0340570" lon="-2.2397250">
        <ele>729.1</ele>
        <time>2019-10-18T12:01:10Z</time>
      </trkpt>
      <trkpt lat="37.0340200" lon="-2.2397550">
        <ele>729.3</ele>
        <time>2019-10-18T12:01:11Z</time>
      </trkpt>
      <trkpt lat="37.0339830" lon="-2.2397840">
        <ele>729.4</ele>
        <time>2019-10-18T12:01:12Z</time>
      </trkpt>
      <trkpt lat="37.0339450" lon="-2.2398100">
        <ele>729.4</ele>
        <time>2019-10-18T12:01:13Z</time>
      </trkpt>
      <trkpt lat="37.0339050" lon="-2.2398330">
        <ele>729.5</ele>
        <time>2019-10-18T12:01:14Z</time>
      </trkpt>
      <trkpt lat="37.0338650" lon="-2.2398510">
        <ele>729.5</ele>
        <time>2019-10-18T12:01:15Z</time>
      </trkpt>
      <trkpt lat="37.0338230" lon="-2.2398640">
        <ele>729.5</ele>
        <time>2019-10-18T12:01:16Z</time>
      </trkpt>
      <trkpt lat="37.0337810" lon="-2.2398740">
        <ele>729.5</ele>
        <time>2019-10-18T12:01:17Z</time>
      </trkpt>
      <trkpt lat="37.0337380" lon="-2.2398830">
        <ele>729.5</ele>
        <time>2019-10-18T12:01:18Z</time>
      </trkpt>
      <trkpt lat="37.0336960" lon="-2.2398920">
        <ele>729.5</ele>
        <time>2019-10-18T12:01:19Z</time>
      </trkpt>
      <trkpt lat="37.0336540" lon="-2.2399030">
        <ele>729.5</ele>
        <time>2019-10-18T12:01:20Z</time>
      </trkpt>
      <trkpt lat="37.0336150" lon="-2.2399210">
        <ele>729.6</ele>
        <time>2019-10-18T12:01:21Z</time>
      </trkpt>
      <trkpt lat="37.0335820" lon="-2.2399520">
        <ele>729.6</ele>
        <time>2019-10-18T12:01:22Z</time>
      </trkpt>
      <trkpt lat="37.0335580" lon="-2.2399950">
        <ele>729.7</ele>
        <time>2019-10-18T12:01:23Z</time>
      </trkpt>
      <trkpt lat="37.0335440" lon="-2.2400460">
        <ele>729.8</ele>
        <time>2019-10-18T12:01:24Z</time>
      </trkpt>
      <trkpt lat="37.0335370" lon="-2.2400990">
        <ele>729.9</ele>
        <time>2019-10-18T12:01:25Z</time>
      </trkpt>
      <trkpt lat="37.0335360" lon="-2.2401510">
        <ele>730.0</ele>
        <time>2019-10-18T12:01:26Z</time>
      </trkpt>
      <trkpt lat="37.0335370" lon="-2.2402020">
        <ele>730.2</ele>
        <time>2019-10-18T12:01:27Z</time>
      </trkpt>
      <trkpt lat="37.0335380" lon="-2.2402520">
        <ele>730.3</ele>
        <time>2019-10-18T12:01:28Z</time>
      </trkpt>
      <trkpt lat="37.0335370" lon="-2.2403020">
        <ele>730.4</ele>
        <time>2019-10-18T12:01:29Z</time>
      </trkpt>
      <trkpt lat="37.0335340" lon="-2.2403500">
        <ele>730.5</ele>
        <time>2019-10-18T12:01:30Z</time>
      </trkpt>
      <trkpt lat="37.0335290" lon="-2.2403950">
        <ele>730.6</ele>
        <time>2019-10-18T12:01:31Z</time>
      </trkpt>
      <trkpt lat="37.0335220" lon="-2.2404380">
        <ele>730.6</ele>
        <time>2019-10-18T12:01:32Z</time>
      </trkpt>
      <trkpt lat="37.0335150" lon="-2.2404790">
        <ele>730.7</ele>
        <time>2019-10-18T12:01:33Z</time>
      </trkpt>
      <trkpt lat="37.0335090" lon="-2.2405210">
        <ele>730.8</ele>
        <time>2019-10-18T12:01:34Z</time>
      </trkpt>
      <trkpt lat="37.0335030" lon="-2.2405610">
        <ele>730.9</ele>
        <time>2019-10-18T12:01:35Z</time>
      </trkpt>
      <trkpt lat="37.0334970" lon="-2.2406010">
        <ele>731.1</ele>
        <time>2019-10-18T12:01:36Z</time>
      </trkpt>
      <trkpt lat="37.0334900" lon="-2.2406400">
        <ele>731.2</ele>
        <time>2019-10-18T12:01:37Z</time>
      </trkpt>
      <trkpt lat="37.0334830" lon="-2.2406770">
        <ele>731.3</ele>
        <time>2019-10-18T12:01:38Z</time>
      </trkpt>
      <trkpt lat="37.0334760" lon="-2.2407130">
        <ele>731.5</ele>
        <time>2019-10-18T12:01:39Z</time>
      </trkpt>
      <trkpt lat="37.0334690" lon="-2.2407490">
        <ele>731.7</ele>
        <time>2019-10-18T12:01:40Z</time>
      </trkpt>
      <trkpt lat="37.0334610" lon="-2.2407840">
        <ele>731.9</ele>
        <time>2019-10-18T12:01:41Z</time>
      </trkpt>
      <trkpt lat="37.0334540" lon="-2.2408200">
        <ele>732.1</ele>
        <time>2019-10-18T12:01:42Z</time>
      </trkpt>
      <trkpt lat="37.0334470" lon="-2.2408550">
        <ele>732.3</ele>
        <time>2019-10-18T12:01:43Z</time>
      </trkpt>
      <trkpt lat="37.0334420" lon="-2.2408910">
        <ele>732.6</ele>
        <time>2019-10-18T12:01:44Z</time>
      </trkpt>
      <trkpt lat="37.0334360" lon="-2.2409250">
        <ele>732.8</ele>
        <time>2019-10-18T12:01:45Z</time>
      </trkpt>
      <trkpt lat="37.0334290" lon="-2.2409600">
        <ele>733.1</ele>
        <time>2019-10-18T12:01:46Z</time>
      </trkpt>
      <trkpt lat="37.0334210" lon="-2.2409930">
        <ele>733.4</ele>
        <time>2019-10-18T12:01:47Z</time>
      </trkpt>
      <trkpt lat="37.0334110" lon="-2.2410260">
        <ele>733.6</ele>
        <time>2019-10-18T12:01:48Z</time>
      </trkpt>
      <trkpt lat="37.0334000" lon="-2.2410580">
        <ele>733.9</ele>
        <time>2019-10-18T12:01:49Z</time>
      </trkpt>
      <trkpt lat="37.0333900" lon="-2.2410910">
        <ele>734.1</ele>
        <time>2019-10-18T12:01:50Z</time>
      </trkpt>
      <trkpt lat="37.0333800" lon="-2.2411240">
        <ele>734.4</ele>
        <time>2019-10-18T12:01:51Z</time>
      </trkpt>
      <trkpt lat="37.0333700" lon="-2.2411570">
        <ele>734.7</ele>
        <time>2019-10-18T12:01:52Z</time>
      </trkpt>
      <trkpt lat="37.0333600" lon="-2.2411900">
        <ele>734.9</ele>
        <time>2019-10-18T12:01:53Z</time>
      </trkpt>
      <trkpt lat="37.0333480" lon="-2.2412230">
        <ele>735.2</ele>
        <time>2019-10-18T12:01:54Z</time>
      </trkpt>
      <trkpt lat="37.0333350" lon="-2.2412540">
        <ele>735.5</ele>
        <time>2019-10-18T12:01:55Z</time>
      </trkpt>
      <trkpt lat="37.0333180" lon="-2.2412850">
        <ele>735.7</ele>
        <time>2019-10-18T12:01:56Z</time>
      </trkpt>
      <trkpt lat="37.0332990" lon="-2.2413130">
        <ele>736.0</ele>
        <time>2019-10-18T12:01:57Z</time>
      </trkpt>
      <trkpt lat="37.0332780" lon="-2.2413390">
        <ele>736.2</ele>
        <time>2019-10-18T12:01:58Z</time>
      </trkpt>
      <trkpt lat="37.0332560" lon="-2.2413650">
        <ele>736.5</ele>
        <time>2019-10-18T12:01:59Z</time>
      </trkpt>
      <trkpt lat="37.0332330" lon="-2.2413900">
        <ele>736.7</ele>
        <time>2019-10-18T12:02:00Z</time>
      </trkpt>
      <trkpt lat="37.0332100" lon="-2.2414140">
        <ele>737.0</ele>
        <time>2019-10-18T12:02:01Z</time>
      </trkpt>
      <trkpt lat="37.0331870" lon="-2.2414380">
        <ele>737.2</ele>
        <time>2019-10-18T12:02:02Z</time>
      </trkpt>
      <trkpt lat="37.0331630" lon="-2.2414620">
        <ele>737.4</ele>
        <time>2019-10-18T12:02:03Z</time>
      </trkpt>
      <trkpt lat="37.0331380" lon="-2.2414850">
        <ele>737.6</ele>
        <time>2019-10-18T12:02:04Z</time>
      </trkpt>
      <trkpt lat="37.0331140" lon="-2.2415090">
        <ele>737.9</ele>
        <time>2019-10-18T12:02:05Z</time>
      </trkpt>
      <trkpt lat="37.0330900" lon="-2.2415350">
        <ele>738.1</ele>
        <time>2019-10-18T12:02:06Z</time>
      </trkpt>
      <trkpt lat="37.0330670" lon="-2.2415630">
        <ele>738.3</ele>
        <time>2019-10-18T12:02:07Z</time>
      </trkpt>
      <trkpt lat="37.0330440" lon="-2.2415920">
        <ele>738.5</ele>
        <time>2019-10-18T12:02:08Z</time>
      </trkpt>
      <trkpt lat="37.0330230" lon="-2.2416230">
        <ele>738.7</ele>
        <time>2019-10-18T12:02:09Z</time>
      </trkpt>
      <trkpt lat="37.0330080" lon="-2.2416590">
        <ele>738.9</ele>
        <time>2019-10-18T12:02:10Z</time>
      </trkpt>
      <trkpt lat="37.0330010" lon="-2.2416980">
        <ele>739.1</ele>
        <time>2019-10-18T12:02:11Z</time>
      </trkpt>
      <trkpt lat="37.0330030" lon="-2.2417400">
        <ele>739.3</ele>
        <time>2019-10-18T12:02:12Z</time>
      </trkpt>
      <trkpt lat="37.0330100" lon="-2.2417820">
        <ele>739.5</ele>
        <time>2019-10-18T12:02:13Z</time>
      </trkpt>
      <trkpt lat="37.0330190" lon="-2.2418220">
        <ele>739.6</ele>
        <time>2019-10-18T12:02:14Z</time>
      </trkpt>
      <trkpt lat="37.0330310" lon="-2.2418610">
        <ele>739.8</ele>
        <time>2019-10-18T12:02:15Z</time>
      </trkpt>
      <trkpt lat="37.0330440" lon="-2.2418970">
        <ele>739.9</ele>
        <time>2019-10-18T12:02:16Z</time>
      </trkpt>
      <trkpt lat="37.0330610" lon="-2.2419310">
        <ele>740.0</ele>
        <time>2019-10-18T12:02:17Z</time>
      </trkpt>
      <trkpt lat="37.0330790" lon="-2.2419630">
        <ele>740.2</ele>
        <time>2019-10-18T12:02:18Z</time>
      </trkpt>
      <trkpt lat="37.0330970" lon="-2.2419950">
        <ele>740.2</ele>
        <time>2019-10-18T12:02:19Z</time>
      </trkpt>
      <trkpt lat="37.0331140" lon="-2.2420270">
        <ele>740.3</ele>
        <time>2019-10-18T12:02:20Z</time>
      </trkpt>
      <trkpt lat="37.0331280" lon="-2.2420600">
        <ele>740.4</ele>
        <time>2019-10-18T12:02:21Z</time>
      </trkpt>
      <trkpt lat="37.0331430" lon="-2.2420940">
        <ele>740.5</ele>
        <time>2019-10-18T12:02:22Z</time>
      </trkpt>
      <trkpt lat="37.0331590" lon="-2.2421260">
        <ele>740.5</ele>
        <time>2019-10-18T12:02:23Z</time>
      </trkpt>
      <trkpt lat="37.0331740" lon="-2.2421580">
        <ele>740.6</ele>
        <time>2019-10-18T12:02:24Z</time>
      </trkpt>
      <trkpt lat="37.0331890" lon="-2.2421910">
        <ele>740.7</ele>
        <time>2019-10-18T12:02:25Z</time>
      </trkpt>
      <trkpt lat="37.0332020" lon="-2.2422240">
        <ele>740.8</ele>
        <time>2019-10-18T12:02:26Z</time>
      </trkpt>
      <trkpt lat="37.0332150" lon="-2.2422570">
        <ele>740.9</ele>
        <time>2019-10-18T12:02:27Z</time>
      </trkpt>
      <trkpt lat="37.0332270" lon="-2.2422910">
        <ele>741.0</ele>
        <time>2019-10-18T12:02:28Z</time>
      </trkpt>
      <trkpt lat="37.0332400" lon="-2.2423240">
        <ele>741.1</ele>
        <time>2019-10-18T12:02:29Z</time>
      </trkpt>
      <trkpt lat="37.0332540" lon="-2.2423580">
        <ele>741.3</ele>
        <time>2019-10-18T12:02:30Z</time>
      </trkpt>
      <trkpt lat="37.0332670" lon="-2.2423920">
        <ele>741.4</ele>
        <time>2019-10-18T12:02:31Z</time>
      </trkpt>
      <trkpt lat="37.0332800" lon="-2.2424260">
        <ele>741.6</ele>
        <time>2019-10-18T12:02:32Z</time>
      </trkpt>
      <trkpt lat="37.0332910" lon="-2.2424590">
        <ele>741.8</ele>
        <time>2019-10-18T12:02:33Z</time>
      </trkpt>
      <trkpt lat="37.0333010" lon="-2.2424930">
        <ele>741.9</ele>
        <time>2019-10-18T12:02:34Z</time>
      </trkpt>
      <trkpt lat="37.0333090" lon="-2.2425270">
        <ele>742.1</ele>
        <time>2019-10-18T12:02:35Z</time>
      </trkpt>
      <trkpt lat="37.0333160" lon="-2.2425620">
        <ele>742.3</ele>
        <time>2019-10-18T12:02:36Z</time>
      </trkpt>
      <trkpt lat="37.0333200" lon="-2.2425980">
        <ele>742.5</ele>
        <time>2019-10-18T12:02:37Z</time>
      </trkpt>
      <trkpt lat="37.0333220" lon="-2.2426350">
        <ele>742.7</ele>
        <time>2019-10-18T12:02:38Z</time>
      </trkpt>
      <trkpt lat="37.0333210" lon="-2.2426700">
        <ele>742.9</ele>
        <time>2019-10-18T12:02:39Z</time>
      </trkpt>
      <trkpt lat="37.0333160" lon="-2.2427040">
        <ele>743.1</ele>
        <time>2019-10-18T12:02:40Z</time>
      </trkpt>
      <trkpt lat="37.0333090" lon="-2.2427360">
        <ele>743.3</ele>
        <time>2019-10-18T12:02:41Z</time>
      </trkpt>
      <trkpt lat="37.0332990" lon="-2.2427660">
        <ele>743.5</ele>
        <time>2019-10-18T12:02:42Z</time>
      </trkpt>
      <trkpt lat="37.0332870" lon="-2.2427940">
        <ele>743.7</ele>
        <time>2019-10-18T12:02:43Z</time>
      </trkpt>
      <trkpt lat="37.0332740" lon="-2.2428210">
        <ele>743.9</ele>
        <time>2019-10-18T12:02:44Z</time>
      </trkpt>
      <trkpt lat="37.0332610" lon="-2.2428470">
        <ele>744.1</ele>
        <time>2019-10-18T12:02:45Z</time>
      </trkpt>
      <trkpt lat="37.0332470" lon="-2.2428730">
        <ele>744.3</ele>
        <time>2019-10-18T12:02:46Z</time>
      </trkpt>
      <trkpt lat="37.0332340" lon="-2.2428980">
        <ele>744.6</ele>
        <time>2019-10-18T12:02:47Z</time>
      </trkpt>
      <trkpt lat="37.0332190" lon="-2.2429220">
        <ele>744.8</ele>
        <time>2019-10-18T12:02:48Z</time>
      </trkpt>
      <trkpt lat="37.0332030" lon="-2.2429450">
        <ele>745.0</ele>
        <time>2019-10-18T12:02:49Z</time>
      </trkpt>
      <trkpt lat="37.0331860" lon="-2.2429640">
        <ele>745.2</ele>
        <time>2019-10-18T12:02:50Z</time>
      </trkpt>
      <trkpt lat="37.0331670" lon="-2.2429840">
        <ele>745.4</ele>
        <time>2019-10-18T12:02:51Z</time>
      </trkpt>
      <trkpt lat="37.0331480" lon="-2.2430010">
        <ele>745.6</ele>
        <time>2019-10-18T12:02:52Z</time>
      </trkpt>
      <trkpt lat="37.0331280" lon="-2.2430180">
        <ele>745.7</ele>
        <time>2019-10-18T12:02:53Z</time>
      </trkpt>
      <trkpt lat="37.0331070" lon="-2.2430340">
        <ele>745.9</ele>
        <time>2019-10-18T12:02:54Z</time>
      </trkpt>
      <trkpt lat="37.0330870" lon="-2.2430520">
        <ele>746.1</ele>
        <time>2019-10-18T12:02:55Z</time>
      </trkpt>
      <trkpt lat="37.0330670" lon="-2.2430690">
        <ele>746.2</ele>
        <time>2019-10-18T12:02:56Z</time>
      </trkpt>
      <trkpt lat="37.0330470" lon="-2.2430860">
        <ele>746.4</ele>
        <time>2019-10-18T12:02:57Z</time>
      </trkpt>
      <trkpt lat="37.0330260" lon="-2.2431030">
        <ele>746.6</ele>
        <time>2019-10-18T12:02:58Z</time>
      </trkpt>
      <trkpt lat="37.0330060" lon="-2.2431210">
        <ele>746.8</ele>
        <time>2019-10-18T12:02:59Z</time>
      </trkpt>
      <trkpt lat="37.0329870" lon="-2.2431410">
        <ele>747.0</ele>
        <time>2019-10-18T12:03:00Z</time>
      </trkpt>
      <trkpt lat="37.0329690" lon="-2.2431620">
        <ele>747.2</ele>
        <time>2019-10-18T12:03:01Z</time>
      </trkpt>
      <trkpt lat="37.0329520" lon="-2.2431840">
        <ele>747.3</ele>
        <time>2019-10-18T12:03:02Z</time>
      </trkpt>
      <trkpt lat="37.0329340" lon="-2.2432050">
        <ele>747.5</ele>
        <time>2019-10-18T12:03:03Z</time>
      </trkpt>
      <trkpt lat="37.0329150" lon="-2.2432260">
        <ele>747.7</ele>
        <time>2019-10-18T12:03:04Z</time>
      </trkpt>
      <trkpt lat="37.0328980" lon="-2.2432480">
        <ele>747.9</ele>
        <time>2019-10-18T12:03:05Z</time>
      </trkpt>
      <trkpt lat="37.0328810" lon="-2.2432700">
        <ele>748.2</ele>
        <time>2019-10-18T12:03:06Z</time>
      </trkpt>
      <trkpt lat="37.0328650" lon="-2.2432940">
        <ele>748.4</ele>
        <time>2019-10-18T12:03:07Z</time>
      </trkpt>
      <trkpt lat="37.0328500" lon="-2.2433180">
        <ele>748.6</ele>
        <time>2019-10-18T12:03:08Z</time>
      </trkpt>
      <trkpt lat="37.0328350" lon="-2.2433420">
        <ele>748.8</ele>
        <time>2019-10-18T12:03:09Z</time>
      </trkpt>
      <trkpt lat="37.0328210" lon="-2.2433670">
        <ele>749.0</ele>
        <time>2019-10-18T12:03:10Z</time>
      </trkpt>
      <trkpt lat="37.0328080" lon="-2.2433930">
        <ele>749.2</ele>
        <time>2019-10-18T12:03:11Z</time>
      </trkpt>
      <trkpt lat="37.0327960" lon="-2.2434200">
        <ele>749.5</ele>
        <time>2019-10-18T12:03:12Z</time>
      </trkpt>
      <trkpt lat="37.0327860" lon="-2.2434470">
        <ele>749.7</ele>
        <time>2019-10-18T12:03:13Z</time>
      </trkpt>
      <trkpt lat="37.0327780" lon="-2.2434770">
        <ele>749.9</ele>
        <time>2019-10-18T12:03:14Z</time>
      </trkpt>
      <trkpt lat="37.0327740" lon="-2.2435080">
        <ele>750.2</ele>
        <time>2019-10-18T12:03:15Z</time>
      </trkpt>
      <trkpt lat="37.0327720" lon="-2.2435400">
        <ele>750.4</ele>
        <time>2019-10-18T12:03:16Z</time>
      </trkpt>
      <trkpt lat="37.0327720" lon="-2.2435720">
        <ele>750.6</ele>
        <time>2019-10-18T12:03:17Z</time>
      </trkpt>
      <trkpt lat="37.0327760" lon="-2.2436040">
        <ele>750.9</ele>
        <time>2019-10-18T12:03:18Z</time>
      </trkpt>
      <trkpt lat="37.0327830" lon="-2.2436340">
        <ele>751.1</ele>
        <time>2019-10-18T12:03:19Z</time>
      </trkpt>
      <trkpt lat="37.0327940" lon="-2.2436620">
        <ele>751.3</ele>
        <time>2019-10-18T12:03:20Z</time>
      </trkpt>
      <trkpt lat="37.0328060" lon="-2.2436900">
        <ele>751.6</ele>
        <time>2019-10-18T12:03:21Z</time>
      </trkpt>
      <trkpt lat="37.0328200" lon="-2.2437150">
        <ele>751.8</ele>
        <time>2019-10-18T12:03:22Z</time>
      </trkpt>
      <trkpt lat="37.0328360" lon="-2.2437400">
        <ele>752.0</ele>
        <time>2019-10-18T12:03:23Z</time>
      </trkpt>
      <trkpt lat="37.0328540" lon="-2.2437640">
        <ele>752.2</ele>
        <time>2019-10-18T12:03:24Z</time>
      </trkpt>
      <trkpt lat="37.0328760" lon="-2.2437860">
        <ele>752.4</ele>
        <time>2019-10-18T12:03:25Z</time>
      </trkpt>
      <trkpt lat="37.0328970" lon="-2.2438100">
        <ele>752.7</ele>
        <time>2019-10-18T12:03:26Z</time>
      </trkpt>
      <trkpt lat="37.0329200" lon="-2.2438330">
        <ele>752.9</ele>
        <time>2019-10-18T12:03:27Z</time>
      </trkpt>
      <trkpt lat="37.0329420" lon="-2.2438540">
        <ele>753.1</ele>
        <time>2019-10-18T12:03:28Z</time>
      </trkpt>
      <trkpt lat="37.0329670" lon="-2.2438730">
        <ele>753.4</ele>
        <time>2019-10-18T12:03:29Z</time>
      </trkpt>
      <trkpt lat="37.0329920" lon="-2.2438910">
        <ele>753.7</ele>
        <time>2019-10-18T12:03:30Z</time>
      </trkpt>
      <trkpt lat="37.0330160" lon="-2.2439090">
        <ele>753.9</ele>
        <time>2019-10-18T12:03:31Z</time>
      </trkpt>
      <trkpt lat="37.0330390" lon="-2.2439290">
        <ele>754.2</ele>
        <time>2019-10-18T12:03:32Z</time>
      </trkpt>
      <trkpt lat="37.0330610" lon="-2.2439500">
        <ele>754.5</ele>
        <time>2019-10-18T12:03:33Z</time>
      </trkpt>
      <trkpt lat="37.0330830" lon="-2.2439710">
        <ele>754.7</ele>
        <time>2019-10-18T12:03:34Z</time>
      </trkpt>
      <trkpt lat="37.0331050" lon="-2.2439910">
        <ele>755.0</ele>
        <time>2019-10-18T12:03:35Z</time>
      </trkpt>
      <trkpt lat="37.0331270" lon="-2.2440120">
        <ele>755.3</ele>
        <time>2019-10-18T12:03:36Z</time>
      </trkpt>
      <trkpt lat="37.0331500" lon="-2.2440320">
        <ele>755.5</ele>
        <time>2019-10-18T12:03:37Z</time>
      </trkpt>
      <trkpt lat="37.0331730" lon="-2.2440500">
        <ele>755.8</ele>
        <time>2019-10-18T12:03:38Z</time>
      </trkpt>
      <trkpt lat="37.0331950" lon="-2.2440680">
        <ele>756.0</ele>
        <time>2019-10-18T12:03:39Z</time>
      </trkpt>
      <trkpt lat="37.0332170" lon="-2.2440870">
        <ele>756.3</ele>
        <time>2019-10-18T12:03:40Z</time>
      </trkpt>
      <trkpt lat="37.0332390" lon="-2.2441050">
        <ele>756.5</ele>
        <time>2019-10-18T12:03:41Z</time>
      </trkpt>
      <trkpt lat="37.0332600" lon="-2.2441240">
        <ele>756.7</ele>
        <time>2019-10-18T12:03:42Z</time>
      </trkpt>
      <trkpt lat="37.0332810" lon="-2.2441430">
        <ele>756.9</ele>
        <time>2019-10-18T12:03:43Z</time>
      </trkpt>
      <trkpt lat="37.0333020" lon="-2.2441620">
        <ele>757.1</ele>
        <time>2019-10-18T12:03:44Z</time>
      </trkpt>
      <trkpt lat="37.0333230" lon="-2.2441810">
        <ele>757.3</ele>
        <time>2019-10-18T12:03:45Z</time>
      </trkpt>
      <trkpt lat="37.0333430" lon="-2.2442010">
        <ele>757.5</ele>
        <time>2019-10-18T12:03:46Z</time>
      </trkpt>
      <trkpt lat="37.0333630" lon="-2.2442230">
        <ele>757.8</ele>
        <time>2019-10-18T12:03:47Z</time>
      </trkpt>
      <trkpt lat="37.0333800" lon="-2.2442470">
        <ele>758.0</ele>
        <time>2019-10-18T12:03:48Z</time>
      </trkpt>
      <trkpt lat="37.0333960" lon="-2.2442730">
        <ele>758.2</ele>
        <time>2019-10-18T12:03:49Z</time>
      </trkpt>
      <trkpt lat="37.0334080" lon="-2.2443010">
        <ele>758.4</ele>
        <time>2019-10-18T12:03:50Z</time>
      </trkpt>
      <trkpt lat="37.0334170" lon="-2.2443300">
        <ele>758.6</ele>
        <time>2019-10-18T12:03:51Z</time>
      </trkpt>
      <trkpt lat="37.0334220" lon="-2.2443610">
        <ele>758.8</ele>
        <time>2019-10-18T12:03:52Z</time>
      </trkpt>
      <trkpt lat="37.0334230" lon="-2.2443920">
        <ele>759.0</ele>
        <time>2019-10-18T12:03:53Z</time>
      </trkpt>
      <trkpt lat="37.0334190" lon="-2.2444230">
        <ele>759.2</ele>
        <time>2019-10-18T12:03:54Z</time>
      </trkpt>
      <trkpt lat="37.0334100" lon="-2.2444530">
        <ele>759.4</ele>
        <time>2019-10-18T12:03:55Z</time>
      </trkpt>
      <trkpt lat="37.0334000" lon="-2.2444810">
        <ele>759.5</ele>
        <time>2019-10-18T12:03:56Z</time>
      </trkpt>
      <trkpt lat="37.0333890" lon="-2.2445060">
        <ele>759.7</ele>
        <time>2019-10-18T12:03:57Z</time>
      </trkpt>
      <trkpt lat="37.0333760" lon="-2.2445280">
        <ele>759.8</ele>
        <time>2019-10-18T12:03:58Z</time>
      </trkpt>
      <trkpt lat="37.0333600" lon="-2.2445480">
        <ele>760.0</ele>
        <time>2019-10-18T12:03:59Z</time>
      </trkpt>
      <trkpt lat="37.0333430" lon="-2.2445660">
        <ele>760.1</ele>
        <time>2019-10-18T12:04:00Z</time>
      </trkpt>
      <trkpt lat="37.0333250" lon="-2.2445840">
        <ele>760.3</ele>
        <time>2019-10-18T12:04:01Z</time>
      </trkpt>
      <trkpt lat="37.0333070" lon="-2.2446010">
        <ele>760.5</ele>
        <time>2019-10-18T12:04:02Z</time>
      </trkpt>
      <trkpt lat="37.0332900" lon="-2.2446190">
        <ele>760.6</ele>
        <time>2019-10-18T12:04:03Z</time>
      </trkpt>
      <trkpt lat="37.0332730" lon="-2.2446370">
        <ele>760.7</ele>
        <time>2019-10-18T12:04:04Z</time>
      </trkpt>
      <trkpt lat="37.0332570" lon="-2.2446560">
        <ele>760.9</ele>
        <time>2019-10-18T12:04:05Z</time>
      </trkpt>
      <trkpt lat="37.0332420" lon="-2.2446770">
        <ele>761.0</ele>
        <time>2019-10-18T12:04:06Z</time>
      </trkpt>
      <trkpt lat="37.0332260" lon="-2.2446960">
        <ele>761.1</ele>
        <time>2019-10-18T12:04:07Z</time>
      </trkpt>
      <trkpt lat="37.0332090" lon="-2.2447130">
        <ele>761.2</ele>
        <time>2019-10-18T12:04:08Z</time>
      </trkpt>
      <trkpt lat="37.0331890" lon="-2.2447280">
        <ele>761.4</ele>
        <time>2019-10-18T12:04:09Z</time>
      </trkpt>
      <trkpt lat="37.0331690" lon="-2.2447430">
        <ele>761.5</ele>
        <time>2019-10-18T12:04:10Z</time>
      </trkpt>
      <trkpt lat="37.0331500" lon="-2.2447600">
        <ele>761.7</ele>
        <time>2019-10-18T12:04:11Z</time>
      </trkpt>
      <trkpt lat="37.0331320" lon="-2.2447800">
        <ele>761.8</ele>
        <time>2019-10-18T12:04:12Z</time>
      </trkpt>
      <trkpt lat="37.0331150" lon="-2.2448010">
        <ele>761.9</ele>
        <time>2019-10-18T12:04:13Z</time>
      </trkpt>
      <trkpt lat="37.0330980" lon="-2.2448210">
        <ele>762.1</ele>
        <time>2019-10-18T12:04:14Z</time>
      </trkpt>
      <trkpt lat="37.0330800" lon="-2.2448400">
        <ele>762.2</ele>
        <time>2019-10-18T12:04:15Z</time>
      </trkpt>
      <trkpt lat="37.0330620" lon="-2.2448580">
        <ele>762.4</ele>
        <time>2019-10-18T12:04:16Z</time>
      </trkpt>
      <trkpt lat="37.0330430" lon="-2.2448760">
        <ele>762.5</ele>
        <time>2019-10-18T12:04:17Z</time>
      </trkpt>
      <trkpt lat="37.0330250" lon="-2.2448930">
        <ele>762.7</ele>
        <time>2019-10-18T12:04:18Z</time>
      </trkpt>
      <trkpt lat="37.0330060" lon="-2.2449110">
        <ele>762.9</ele>
        <time>2019-10-18T12:04:19Z</time>
      </trkpt>
      <trkpt lat="37.0329890" lon="-2.2449300">
        <ele>763.1</ele>
        <time>2019-10-18T12:04:20Z</time>
      </trkpt>
      <trkpt lat="37.0329710" lon="-2.2449490">
        <ele>763.3</ele>
        <time>2019-10-18T12:04:21Z</time>
      </trkpt>
      <trkpt lat="37.0329520" lon="-2.2449670">
        <ele>763.5</ele>
        <time>2019-10-18T12:04:22Z</time>
      </trkpt>
      <trkpt lat="37.0329330" lon="-2.2449850">
        <ele>763.7</ele>
        <time>2019-10-18T12:04:23Z</time>
      </trkpt>
      <trkpt lat="37.0329150" lon="-2.2450030">
        <ele>763.8</ele>
        <time>2019-10-18T12:04:24Z</time>
      </trkpt>
      <trkpt lat="37.0328970" lon="-2.2450200">
        <ele>764.0</ele>
        <time>2019-10-18T12:04:25Z</time>
      </trkpt>
      <trkpt lat="37.0328780" lon="-2.2450380">
        <ele>764.3</ele>
        <time>2019-10-18T12:04:26Z</time>
      </trkpt>
      <trkpt lat="37.0328590" lon="-2.2450560">
        <ele>764.5</ele>
        <time>2019-10-18T12:04:27Z</time>
      </trkpt>
      <trkpt lat="37.0328410" lon="-2.2450740">
        <ele>764.7</ele>
        <time>2019-10-18T12:04:28Z</time>
      </trkpt>
      <trkpt lat="37.0328230" lon="-2.2450920">
        <ele>764.9</ele>
        <time>2019-10-18T12:04:29Z</time>
      </trkpt>
      <trkpt lat="37.0328040" lon="-2.2451090">
        <ele>765.1</ele>
        <time>2019-10-18T12:04:30Z</time>
      </trkpt>
      <trkpt lat="37.0327850" lon="-2.2451270">
        <ele>765.4</ele>
        <time>2019-10-18T12:04:31Z</time>
      </trkpt>
      <trkpt lat="37.0327670" lon="-2.2451450">
        <ele>765.6</ele>
        <time>2019-10-18T12:04:32Z</time>
      </trkpt>
      <trkpt lat="37.0327490" lon="-2.2451640">
        <ele>765.8</ele>
        <time>2019-10-18T12:04:33Z</time>
      </trkpt>
      <trkpt lat="37.0327300" lon="-2.2451820">
        <ele>766.0</ele>
        <time>2019-10-18T12:04:34Z</time>
      </trkpt>
      <trkpt lat="37.0327110" lon="-2.2452020">
        <ele>766.3</ele>
        <time>2019-10-18T12:04:35Z</time>
      </trkpt>
      <trkpt lat="37.0326930" lon="-2.2452230">
        <ele>766.5</ele>
        <time>2019-10-18T12:04:36Z</time>
      </trkpt>
      <trkpt lat="37.0326760" lon="-2.2452470">
        <ele>766.8</ele>
        <time>2019-10-18T12:04:37Z</time>
      </trkpt>
      <trkpt lat="37.0326640" lon="-2.2452750">
        <ele>767.0</ele>
        <time>2019-10-18T12:04:38Z</time>
      </trkpt>
      <trkpt lat="37.0326570" lon="-2.2453050">
        <ele>767.3</ele>
        <time>2019-10-18T12:04:39Z</time>
      </trkpt>
      <trkpt lat="37.0326540" lon="-2.2453360">
        <ele>767.5</ele>
        <time>2019-10-18T12:04:40Z</time>
      </trkpt>
      <trkpt lat="37.0326540" lon="-2.2453670">
        <ele>767.7</ele>
        <time>2019-10-18T12:04:41Z</time>
      </trkpt>
      <trkpt lat="37.0326570" lon="-2.2453980">
        <ele>768.0</ele>
        <time>2019-10-18T12:04:42Z</time>
      </trkpt>
      <trkpt lat="37.0326630" lon="-2.2454270">
        <ele>768.2</ele>
        <time>2019-10-18T12:04:43Z</time>
      </trkpt>
      <trkpt lat="37.0326710" lon="-2.2454550">
        <ele>768.4</ele>
        <time>2019-10-18T12:04:44Z</time>
      </trkpt>
      <trkpt lat="37.0326810" lon="-2.2454830">
        <ele>768.6</ele>
        <time>2019-10-18T12:04:45Z</time>
      </trkpt>
      <trkpt lat="37.0326900" lon="-2.2455120">
        <ele>768.8</ele>
        <time>2019-10-18T12:04:46Z</time>
      </trkpt>
      <trkpt lat="37.0326980" lon="-2.2455420">
        <ele>769.0</ele>
        <time>2019-10-18T12:04:47Z</time>
      </trkpt>
      <trkpt lat="37.0327060" lon="-2.2455730">
        <ele>769.2</ele>
        <time>2019-10-18T12:04:48Z</time>
      </trkpt>
      <trkpt lat="37.0327140" lon="-2.2456050">
        <ele>769.4</ele>
        <time>2019-10-18T12:04:49Z</time>
      </trkpt>
      <trkpt lat="37.0327190" lon="-2.2456380">
        <ele>769.6</ele>
        <time>2019-10-18T12:04:50Z</time>
      </trkpt>
      <trkpt lat="37.0327220" lon="-2.2456710">
        <ele>769.8</ele>
        <time>2019-10-18T12:04:51Z</time>
      </trkpt>
      <trkpt lat="37.0327230" lon="-2.2457050">
        <ele>770.0</ele>
        <time>2019-10-18T12:04:52Z</time>
      </trkpt>
      <trkpt lat="37.0327230" lon="-2.2457380">
        <ele>770.2</ele>
        <time>2019-10-18T12:04:53Z</time>
      </trkpt>
      <trkpt lat="37.0327220" lon="-2.2457720">
        <ele>770.3</ele>
        <time>2019-10-18T12:04:54Z</time>
      </trkpt>
      <trkpt lat="37.0327220" lon="-2.2458050">
        <ele>770.5</ele>
        <time>2019-10-18T12:04:55Z</time>
      </trkpt>
      <trkpt lat="37.0327210" lon="-2.2458380">
        <ele>770.7</ele>
        <time>2019-10-18T12:04:56Z</time>
      </trkpt>
      <trkpt lat="37.0327200" lon="-2.2458700">
        <ele>770.9</ele>
        <time>2019-10-18T12:04:57Z</time>
      </trkpt>
      <trkpt lat="37.0327190" lon="-2.2459020">
        <ele>771.1</ele>
        <time>2019-10-18T12:04:58Z</time>
      </trkpt>
      <trkpt lat="37.0327180" lon="-2.2459350">
        <ele>771.3</ele>
        <time>2019-10-18T12:04:59Z</time>
      </trkpt>
      <trkpt lat="37.0327170" lon="-2.2459680">
        <ele>771.4</ele>
        <time>2019-10-18T12:05:00Z</time>
      </trkpt>
      <trkpt lat="37.0327130" lon="-2.2460040">
        <ele>771.6</ele>
        <time>2019-10-18T12:05:01Z</time>
      </trkpt>
      <trkpt lat="37.0327070" lon="-2.2460400">
        <ele>771.8</ele>
        <time>2019-10-18T12:05:02Z</time>
      </trkpt>
      <trkpt lat="37.0326970" lon="-2.2460740">
        <ele>772.0</ele>
        <time>2019-10-18T12:05:03Z</time>
      </trkpt>
      <trkpt lat="37.0326860" lon="-2.2461060">
        <ele>772.2</ele>
        <time>2019-10-18T12:05:04Z</time>
      </trkpt>
      <trkpt lat="37.0326730" lon="-2.2461350">
        <ele>772.4</ele>
        <time>2019-10-18T12:05:05Z</time>
      </trkpt>
      <trkpt lat="37.0326570" lon="-2.2461620">
        <ele>772.6</ele>
        <time>2019-10-18T12:05:06Z</time>
      </trkpt>
      <trkpt lat="37.0326390" lon="-2.2461870">
        <ele>772.8</ele>
        <time>2019-10-18T12:05:07Z</time>
      </trkpt>
      <trkpt lat="37.0326200" lon="-2.2462100">
        <ele>773.0</ele>
        <time>2019-10-18T12:05:08Z</time>
      </trkpt>
      <trkpt lat="37.0325980" lon="-2.2462310">
        <ele>773.3</ele>
        <time>2019-10-18T12:05:09Z</time>
      </trkpt>
      <trkpt lat="37.0325760" lon="-2.2462520">
        <ele>773.5</ele>
        <time>2019-10-18T12:05:10Z</time>
      </trkpt>
      <trkpt lat="37.0325550" lon="-2.2462730">
        <ele>773.7</ele>
        <time>2019-10-18T12:05:11Z</time>
      </trkpt>
      <trkpt lat="37.0325340" lon="-2.2462950">
        <ele>774.0</ele>
        <time>2019-10-18T12:05:12Z</time>
      </trkpt>
      <trkpt lat="37.0325130" lon="-2.2463180">
        <ele>774.2</ele>
        <time>2019-10-18T12:05:13Z</time>
      </trkpt>
      <trkpt lat="37.0324930" lon="-2.2463410">
        <ele>774.4</ele>
        <time>2019-10-18T12:05:14Z</time>
      </trkpt>
      <trkpt lat="37.0324720" lon="-2.2463630">
        <ele>774.7</ele>
        <time>2019-10-18T12:05:15Z</time>
      </trkpt>
      <trkpt lat="37.0324510" lon="-2.2463840">
        <ele>774.9</ele>
        <time>2019-10-18T12:05:16Z</time>
      </trkpt>
      <trkpt lat="37.0324290" lon="-2.2464040">
        <ele>775.1</ele>
        <time>2019-10-18T12:05:17Z</time>
      </trkpt>
      <trkpt lat="37.0324070" lon="-2.2464230">
        <ele>775.3</ele>
        <time>2019-10-18T12:05:18Z</time>
      </trkpt>
      <trkpt lat="37.0323850" lon="-2.2464430">
        <ele>775.5</ele>
        <time>2019-10-18T12:05:19Z</time>
      </trkpt>
      <trkpt lat="37.0323640" lon="-2.2464650">
        <ele>775.8</ele>
        <time>2019-10-18T12:05:20Z</time>
      </trkpt>
      <trkpt lat="37.0323460" lon="-2.2464900">
        <ele>776.0</ele>
        <time>2019-10-18T12:05:21Z</time>
      </trkpt>
      <trkpt lat="37.0323350" lon="-2.2465210">
        <ele>776.2</ele>
        <time>2019-10-18T12:05:22Z</time>
      </trkpt>
      <trkpt lat="37.0323330" lon="-2.2465560">
        <ele>776.4</ele>
        <time>2019-10-18T12:05:23Z</time>
      </trkpt>
      <trkpt lat="37.0323380" lon="-2.2465930">
        <ele>776.6</ele>
        <time>2019-10-18T12:05:24Z</time>
      </trkpt>
      <trkpt lat="37.0323490" lon="-2.2466260">
        <ele>776.8</ele>
        <time>2019-10-18T12:05:25Z</time>
      </trkpt>
      <trkpt lat="37.0323640" lon="-2.2466560">
        <ele>776.9</ele>
        <time>2019-10-18T12:05:26Z</time>
      </trkpt>
      <trkpt lat="37.0323830" lon="-2.2466810">
        <ele>777.1</ele>
        <time>2019-10-18T12:05:27Z</time>
      </trkpt>
      <trkpt lat="37.0324060" lon="-2.2466990">
        <ele>777.2</ele>
        <time>2019-10-18T12:05:28Z</time>
      </trkpt>
      <trkpt lat="37.0324340" lon="-2.2467090">
        <ele>777.4</ele>
        <time>2019-10-18T12:05:29Z</time>
      </trkpt>
      <trkpt lat="37.0324630" lon="-2.2467160">
        <ele>777.5</ele>
        <time>2019-10-18T12:05:30Z</time>
      </trkpt>
      <trkpt lat="37.0324920" lon="-2.2467210">
        <ele>777.6</ele>
        <time>2019-10-18T12:05:31Z</time>
      </trkpt>
      <trkpt lat="37.0325200" lon="-2.2467270">
        <ele>777.8</ele>
        <time>2019-10-18T12:05:32Z</time>
      </trkpt>
      <trkpt lat="37.0325480" lon="-2.2467330">
        <ele>777.9</ele>
        <time>2019-10-18T12:05:33Z</time>
      </trkpt>
      <trkpt lat="37.0325750" lon="-2.2467420">
        <ele>778.0</ele>
        <time>2019-10-18T12:05:34Z</time>
      </trkpt>
      <trkpt lat="37.0326030" lon="-2.2467500">
        <ele>778.1</ele>
        <time>2019-10-18T12:05:35Z</time>
      </trkpt>
      <trkpt lat="37.0326300" lon="-2.2467620">
        <ele>778.3</ele>
        <time>2019-10-18T12:05:36Z</time>
      </trkpt>
      <trkpt lat="37.0326580" lon="-2.2467750">
        <ele>778.4</ele>
        <time>2019-10-18T12:05:37Z</time>
      </trkpt>
      <trkpt lat="37.0326860" lon="-2.2467920">
        <ele>778.6</ele>
        <time>2019-10-18T12:05:38Z</time>
      </trkpt>
      <trkpt lat="37.0327140" lon="-2.2468090">
        <ele>778.7</ele>
        <time>2019-10-18T12:05:39Z</time>
      </trkpt>
      <trkpt lat="37.0327430" lon="-2.2468280">
        <ele>778.8</ele>
        <time>2019-10-18T12:05:40Z</time>
      </trkpt>
      <trkpt lat="37.0327710" lon="-2.2468490">
        <ele>778.9</ele>
        <time>2019-10-18T12:05:41Z</time>
      </trkpt>
      <trkpt lat="37.0327980" lon="-2.2468730">
        <ele>779.1</ele>
        <time>2019-10-18T12:05:42Z</time>
      </trkpt>
      <trkpt lat="37.0328230" lon="-2.2469010">
        <ele>779.2</ele>
        <time>2019-10-18T12:05:43Z</time>
      </trkpt>
      <trkpt lat="37.0328450" lon="-2.2469310">
        <ele>779.3</ele>
        <time>2019-10-18T12:05:44Z</time>
      </trkpt>
      <trkpt lat="37.0328640" lon="-2.2469640">
        <ele>779.4</ele>
        <time>2019-10-18T12:05:45Z</time>
      </trkpt>
      <trkpt lat="37.0328800" lon="-2.2470000">
        <ele>779.4</ele>
        <time>2019-10-18T12:05:46Z</time>
      </trkpt>
      <trkpt lat="37.0328880" lon="-2.2470390">
        <ele>779.4</ele>
        <time>2019-10-18T12:05:47Z</time>
      </trkpt>
      <trkpt lat="37.0328870" lon="-2.2470820">
        <ele>779.5</ele>
        <time>2019-10-18T12:05:48Z</time>
      </trkpt>
      <trkpt lat="37.0328770" lon="-2.2471270">
        <ele>779.5</ele>
        <time>2019-10-18T12:05:49Z</time>
      </trkpt>
      <trkpt lat="37.0328640" lon="-2.2471730">
        <ele>779.5</ele>
        <time>2019-10-18T12:05:50Z</time>
      </trkpt>
      <trkpt lat="37.0328480" lon="-2.2472180">
        <ele>779.5</ele>
        <time>2019-10-18T12:05:51Z</time>
      </trkpt>
      <trkpt lat="37.0328290" lon="-2.2472620">
        <ele>779.5</ele>
        <time>2019-10-18T12:05:52Z</time>
      </trkpt>
      <trkpt lat="37.0328080" lon="-2.2473050">
        <ele>779.6</ele>
        <time>2019-10-18T12:05:53Z</time>
      </trkpt>
      <trkpt lat="37.0327860" lon="-2.2473500">
        <ele>779.6</ele>
        <time>2019-10-18T12:05:54Z</time>
      </trkpt>
      <trkpt lat="37.0327640" lon="-2.2473950">
        <ele>779.6</ele>
        <time>2019-10-18T12:05:55Z</time>
      </trkpt>
      <trkpt lat="37.0327420" lon="-2.2474410">
        <ele>779.6</ele>
        <time>2019-10-18T12:05:56Z</time>
      </trkpt>
      <trkpt lat="37.0327190" lon="-2.2474860">
        <ele>779.6</ele>
        <time>2019-10-18T12:05:57Z</time>
      </trkpt>
      <trkpt lat="37.0326970" lon="-2.2475320">
        <ele>779.6</ele>
        <time>2019-10-18T12:05:58Z</time>
      </trkpt>
      <trkpt lat="37.0326780" lon="-2.2475800">
        <ele>779.6</ele>
        <time>2019-10-18T12:05:59Z</time>
      </trkpt>
      <trkpt lat="37.0326610" lon="-2.2476300">
        <ele>779.6</ele>
        <time>2019-10-18T12:06:00Z</time>
      </trkpt>
      <trkpt lat="37.0326470" lon="-2.2476820">
        <ele>779.6</ele>
        <time>2019-10-18T12:06:01Z</time>
      </trkpt>
      <trkpt lat="37.0326340" lon="-2.2477340">
        <ele>779.6</ele>
        <time>2019-10-18T12:06:02Z</time>
      </trkpt>
      <trkpt lat="37.0326200" lon="-2.2477850">
        <ele>779.6</ele>
        <time>2019-10-18T12:06:03Z</time>
      </trkpt>
      <trkpt lat="37.0326040" lon="-2.2478360">
        <ele>779.6</ele>
        <time>2019-10-18T12:06:04Z</time>
      </trkpt>
      <trkpt lat="37.0325850" lon="-2.2478850">
        <ele>779.6</ele>
        <time>2019-10-18T12:06:05Z</time>
      </trkpt>
      <trkpt lat="37.0325630" lon="-2.2479320">
        <ele>779.6</ele>
        <time>2019-10-18T12:06:06Z</time>
      </trkpt>
      <trkpt lat="37.0325390" lon="-2.2479780">
        <ele>779.6</ele>
        <time>2019-10-18T12:06:07Z</time>
      </trkpt>
      <trkpt lat="37.0325160" lon="-2.2480260">
        <ele>779.6</ele>
        <time>2019-10-18T12:06:08Z</time>
      </trkpt>
      <trkpt lat="37.0324980" lon="-2.2480770">
        <ele>779.6</ele>
        <time>2019-10-18T12:06:09Z</time>
      </trkpt>
      <trkpt lat="37.0324850" lon="-2.2481300">
        <ele>779.6</ele>
        <time>2019-10-18T12:06:10Z</time>
      </trkpt>
      <trkpt lat="37.0324830" lon="-2.2481870">
        <ele>779.6</ele>
        <time>2019-10-18T12:06:11Z</time>
      </trkpt>
      <trkpt lat="37.0324890" lon="-2.2482430">
        <ele>779.6</ele>
        <time>2019-10-18T12:06:12Z</time>
      </trkpt>
      <trkpt lat="37.0325010" lon="-2.2482970">
        <ele>779.6</ele>
        <time>2019-10-18T12:06:13Z</time>
      </trkpt>
      <trkpt lat="37.0325150" lon="-2.2483470">
        <ele>779.6</ele>
        <time>2019-10-18T12:06:14Z</time>
      </trkpt>
      <trkpt lat="37.0325310" lon="-2.2483940">
        <ele>779.7</ele>
        <time>2019-10-18T12:06:15Z</time>
      </trkpt>
      <trkpt lat="37.0325480" lon="-2.2484400">
        <ele>779.8</ele>
        <time>2019-10-18T12:06:16Z</time>
      </trkpt>
      <trkpt lat="37.0325650" lon="-2.2484860">
        <ele>779.9</ele>
        <time>2019-10-18T12:06:17Z</time>
      </trkpt>
      <trkpt lat="37.0325820" lon="-2.2485310">
        <ele>780.0</ele>
        <time>2019-10-18T12:06:18Z</time>
      </trkpt>
      <trkpt lat="37.0325990" lon="-2.2485760">
        <ele>780.1</ele>
        <time>2019-10-18T12:06:19Z</time>
      </trkpt>
      <trkpt lat="37.0326160" lon="-2.2486220">
        <ele>780.2</ele>
        <time>2019-10-18T12:06:20Z</time>
      </trkpt>
      <trkpt lat="37.0326330" lon="-2.2486680">
        <ele>780.3</ele>
        <time>2019-10-18T12:06:21Z</time>
      </trkpt>
      <trkpt lat="37.0326490" lon="-2.2487160">
        <ele>780.4</ele>
        <time>2019-10-18T12:06:22Z</time>
      </trkpt>
      <trkpt lat="37.0326630" lon="-2.2487650">
        <ele>780.5</ele>
        <time>2019-10-18T12:06:23Z</time>
      </trkpt>
      <trkpt lat="37.0326750" lon="-2.2488170">
        <ele>780.7</ele>
        <time>2019-10-18T12:06:24Z</time>
      </trkpt>
      <trkpt lat="37.0326860" lon="-2.2488700">
        <ele>780.8</ele>
        <time>2019-10-18T12:06:25Z</time>
      </trkpt>
      <trkpt lat="37.0326960" lon="-2.2489260">
        <ele>780.9</ele>
        <time>2019-10-18T12:06:26Z</time>
      </trkpt>
      <trkpt lat="37.0327060" lon="-2.2489820">
        <ele>781.1</ele>
        <time>2019-10-18T12:06:27Z</time>
      </trkpt>
      <trkpt lat="37.0327140" lon="-2.2490410">
        <ele>781.2</ele>
        <time>2019-10-18T12:06:28Z</time>
      </trkpt>
      <trkpt lat="37.0327200" lon="-2.2491000">
        <ele>781.3</ele>
        <time>2019-10-18T12:06:29Z</time>
      </trkpt>
      <trkpt lat="37.0327260" lon="-2.2491590">
        <ele>781.4</ele>
        <time>2019-10-18T12:06:30Z</time>
      </trkpt>
      <trkpt lat="37.0327310" lon="-2.2492200">
        <ele>781.5</ele>
        <time>2019-10-18T12:06:31Z</time>
      </trkpt>
      <trkpt lat="37.0327340" lon="-2.2492810">
        <ele>781.5</ele>
        <time>2019-10-18T12:06:32Z</time>
      </trkpt>
      <trkpt lat="37.0327350" lon="-2.2493420">
        <ele>781.5</ele>
        <time>2019-10-18T12:06:33Z</time>
      </trkpt>
      <trkpt lat="37.0327340" lon="-2.2494030">
        <ele>781.5</ele>
        <time>2019-10-18T12:06:34Z</time>
      </trkpt>
      <trkpt lat="37.0327310" lon="-2.2494650">
        <ele>781.6</ele>
        <time>2019-10-18T12:06:35Z</time>
      </trkpt>
      <trkpt lat="37.0327250" lon="-2.2495280">
        <ele>781.6</ele>
        <time>2019-10-18T12:06:36Z</time>
      </trkpt>
      <trkpt lat="37.0327150" lon="-2.2495900">
        <ele>781.6</ele>
        <time>2019-10-18T12:06:37Z</time>
      </trkpt>
      <trkpt lat="37.0327020" lon="-2.2496530">
        <ele>781.6</ele>
        <time>2019-10-18T12:06:38Z</time>
      </trkpt>
      <trkpt lat="37.0326850" lon="-2.2497150">
        <ele>781.6</ele>
        <time>2019-10-18T12:06:39Z</time>
      </trkpt>
      <trkpt lat="37.0326670" lon="-2.2497770">
        <ele>781.6</ele>
        <time>2019-10-18T12:06:40Z</time>
      </trkpt>
      <trkpt lat="37.0326480" lon="-2.2498380">
        <ele>781.6</ele>
        <time>2019-10-18T12:06:41Z</time>
      </trkpt>
      <trkpt lat="37.0326320" lon="-2.2498990">
        <ele>781.6</ele>
        <time>2019-10-18T12:06:42Z</time>
      </trkpt>
      <trkpt lat="37.0326190" lon="-2.2499610">
        <ele>781.6</ele>
        <time>2019-10-18T12:06:43Z</time>
      </trkpt>
      <trkpt lat="37.0326100" lon="-2.2500240">
        <ele>781.6</ele>
        <time>2019-10-18T12:06:44Z</time>
      </trkpt>
      <trkpt lat="37.0326040" lon="-2.2500870">
        <ele>781.6</ele>
        <time>2019-10-18T12:06:45Z</time>
      </trkpt>
      <trkpt lat="37.0325990" lon="-2.2501500">
        <ele>781.6</ele>
        <time>2019-10-18T12:06:46Z</time>
      </trkpt>
      <trkpt lat="37.0325950" lon="-2.2502120">
        <ele>781.6</ele>
        <time>2019-10-18T12:06:47Z</time>
      </trkpt>
      <trkpt lat="37.0325910" lon="-2.2502750">
        <ele>781.6</ele>
        <time>2019-10-18T12:06:48Z</time>
      </trkpt>
      <trkpt lat="37.0325890" lon="-2.2503380">
        <ele>781.6</ele>
        <time>2019-10-18T12:06:49Z</time>
      </trkpt>
      <trkpt lat="37.0325890" lon="-2.2504010">
        <ele>781.6</ele>
        <time>2019-10-18T12:06:50Z</time>
      </trkpt>
      <trkpt lat="37.0325900" lon="-2.2504640">
        <ele>781.6</ele>
        <time>2019-10-18T12:06:51Z</time>
      </trkpt>
      <trkpt lat="37.0325930" lon="-2.2505260">
        <ele>781.6</ele>
        <time>2019-10-18T12:06:52Z</time>
      </trkpt>
      <trkpt lat="37.0325940" lon="-2.2505870">
        <ele>781.6</ele>
        <time>2019-10-18T12:06:53Z</time>
      </trkpt>
      <trkpt lat="37.0325940" lon="-2.2506440">
        <ele>781.6</ele>
        <time>2019-10-18T12:06:54Z</time>
      </trkpt>
      <trkpt lat="37.0325910" lon="-2.2506990">
        <ele>781.6</ele>
        <time>2019-10-18T12:06:55Z</time>
      </trkpt>
      <trkpt lat="37.0325850" lon="-2.2507490">
        <ele>781.6</ele>
        <time>2019-10-18T12:06:56Z</time>
      </trkpt>
      <trkpt lat="37.0325760" lon="-2.2507960">
        <ele>781.6</ele>
        <time>2019-10-18T12:06:57Z</time>
      </trkpt>
      <trkpt lat="37.0325630" lon="-2.2508410">
        <ele>781.6</ele>
        <time>2019-10-18T12:06:58Z</time>
      </trkpt>
      <trkpt lat="37.0325490" lon="-2.2508850">
        <ele>781.6</ele>
        <time>2019-10-18T12:06:59Z</time>
      </trkpt>
      <trkpt lat="37.0325330" lon="-2.2509280">
        <ele>781.6</ele>
        <time>2019-10-18T12:07:00Z</time>
      </trkpt>
      <trkpt lat="37.0325160" lon="-2.2509700">
        <ele>781.7</ele>
        <time>2019-10-18T12:07:01Z</time>
      </trkpt>
      <trkpt lat="37.0325010" lon="-2.2510120">
        <ele>781.7</ele>
        <time>2019-10-18T12:07:02Z</time>
      </trkpt>
      <trkpt lat="37.0324860" lon="-2.2510550">
        <ele>781.8</ele>
        <time>2019-10-18T12:07:03Z</time>
      </trkpt>
      <trkpt lat="37.0324720" lon="-2.2510980">
        <ele>781.9</ele>
        <time>2019-10-18T12:07:04Z</time>
      </trkpt>
      <trkpt lat="37.0324570" lon="-2.2511420">
        <ele>782.1</ele>
        <time>2019-10-18T12:07:05Z</time>
      </trkpt>
      <trkpt lat="37.0324380" lon="-2.2511860">
        <ele>782.2</ele>
        <time>2019-10-18T12:07:06Z</time>
      </trkpt>
      <trkpt lat="37.0324180" lon="-2.2512300">
        <ele>782.4</ele>
        <time>2019-10-18T12:07:07Z</time>
      </trkpt>
      <trkpt lat="37.0323980" lon="-2.2512750">
        <ele>782.6</ele>
        <time>2019-10-18T12:07:08Z</time>
      </trkpt>
      <trkpt lat="37.0323800" lon="-2.2513210">
        <ele>782.8</ele>
        <time>2019-10-18T12:07:09Z</time>
      </trkpt>
      <trkpt lat="37.0323660" lon="-2.2513670">
        <ele>783.1</ele>
        <time>2019-10-18T12:07:10Z</time>
      </trkpt>
      <trkpt lat="37.0323590" lon="-2.2514130">
        <ele>783.3</ele>
        <time>2019-10-18T12:07:11Z</time>
      </trkpt>
      <trkpt lat="37.0323610" lon="-2.2514590">
        <ele>783.6</ele>
        <time>2019-10-18T12:07:12Z</time>
      </trkpt>
      <trkpt lat="37.0323720" lon="-2.2515020">
        <ele>783.9</ele>
        <time>2019-10-18T12:07:13Z</time>
      </trkpt>
      <trkpt lat="37.0323930" lon="-2.2515390">
        <ele>784.2</ele>
        <time>2019-10-18T12:07:14Z</time>
      </trkpt>
      <trkpt lat="37.0324190" lon="-2.2515670">
        <ele>784.5</ele>
        <time>2019-10-18T12:07:15Z</time>
      </trkpt>
      <trkpt lat="37.0324500" lon="-2.2515870">
        <ele>784.8</ele>
        <time>2019-10-18T12:07:16Z</time>
      </trkpt>
      <trkpt lat="37.0324790" lon="-2.2516050">
        <ele>785.0</ele>
        <time>2019-10-18T12:07:17Z</time>
      </trkpt>
      <trkpt lat="37.0325060" lon="-2.2516230">
        <ele>785.2</ele>
        <time>2019-10-18T12:07:18Z</time>
      </trkpt>
      <trkpt lat="37.0325290" lon="-2.2516460">
        <ele>785.4</ele>
        <time>2019-10-18T12:07:19Z</time>
      </trkpt>
      <trkpt lat="37.0325500" lon="-2.2516730">
        <ele>785.6</ele>
        <time>2019-10-18T12:07:20Z</time>
      </trkpt>
      <trkpt lat="37.0325680" lon="-2.2517020">
        <ele>785.9</ele>
        <time>2019-10-18T12:07:21Z</time>
      </trkpt>
      <trkpt lat="37.0325840" lon="-2.2517330">
        <ele>786.1</ele>
        <time>2019-10-18T12:07:22Z</time>
      </trkpt>
      <trkpt lat="37.0325990" lon="-2.2517660">
        <ele>786.3</ele>
        <time>2019-10-18T12:07:23Z</time>
      </trkpt>
      <trkpt lat="37.0326110" lon="-2.2518000">
        <ele>786.5</ele>
        <time>2019-10-18T12:07:24Z</time>
      </trkpt>
      <trkpt lat="37.0326180" lon="-2.2518360">
        <ele>786.8</ele>
        <time>2019-10-18T12:07:25Z</time>
      </trkpt>
      <trkpt lat="37.0326210" lon="-2.2518740">
        <ele>787.0</ele>
        <time>2019-10-18T12:07:26Z</time>
      </trkpt>
      <trkpt lat="37.0326210" lon="-2.2519140">
        <ele>787.3</ele>
        <time>2019-10-18T12:07:27Z</time>
      </trkpt>
      <trkpt lat="37.0326180" lon="-2.2519540">
        <ele>787.6</ele>
        <time>2019-10-18T12:07:28Z</time>
      </trkpt>
      <trkpt lat="37.0326120" lon="-2.2519930">
        <ele>787.9</ele>
        <time>2019-10-18T12:07:29Z</time>
      </trkpt>
      <trkpt lat="37.0326050" lon="-2.2520330">
        <ele>788.2</ele>
        <time>2019-10-18T12:07:30Z</time>
      </trkpt>
      <trkpt lat="37.0325990" lon="-2.2520720">
        <ele>788.5</ele>
        <time>2019-10-18T12:07:31Z</time>
      </trkpt>
      <trkpt lat="37.0325950" lon="-2.2521110">
        <ele>788.7</ele>
        <time>2019-10-18T12:07:32Z</time>
      </trkpt>
      <trkpt lat="37.0325930" lon="-2.2521500">
        <ele>789.0</ele>
        <time>2019-10-18T12:07:33Z</time>
      </trkpt>
      <trkpt lat="37.0325930" lon="-2.2521870">
        <ele>789.3</ele>
        <time>2019-10-18T12:07:34Z</time>
      </trkpt>
      <trkpt lat="37.0325970" lon="-2.2522230">
        <ele>789.5</ele>
        <time>2019-10-18T12:07:35Z</time>
      </trkpt>
      <trkpt lat="37.0326030" lon="-2.2522570">
        <ele>789.8</ele>
        <time>2019-10-18T12:07:36Z</time>
      </trkpt>
      <trkpt lat="37.0326110" lon="-2.2522890">
        <ele>790.1</ele>
        <time>2019-10-18T12:07:37Z</time>
      </trkpt>
      <trkpt lat="37.0326210" lon="-2.2523200">
        <ele>790.3</ele>
        <time>2019-10-18T12:07:38Z</time>
      </trkpt>
      <trkpt lat="37.0326330" lon="-2.2523490">
        <ele>790.5</ele>
        <time>2019-10-18T12:07:39Z</time>
      </trkpt>
      <trkpt lat="37.0326480" lon="-2.2523780">
        <ele>790.8</ele>
        <time>2019-10-18T12:07:40Z</time>
      </trkpt>
      <trkpt lat="37.0326670" lon="-2.2524060">
        <ele>791.0</ele>
        <time>2019-10-18T12:07:41Z</time>
      </trkpt>
      <trkpt lat="37.0326880" lon="-2.2524320">
        <ele>791.3</ele>
        <time>2019-10-18T12:07:42Z</time>
      </trkpt>
      <trkpt lat="37.0327100" lon="-2.2524580">
        <ele>791.5</ele>
        <time>2019-10-18T12:07:43Z</time>
      </trkpt>
      <trkpt lat="37.0327350" lon="-2.2524830">
        <ele>791.7</ele>
        <time>2019-10-18T12:07:44Z</time>
      </trkpt>
      <trkpt lat="37.0327600" lon="-2.2525070">
        <ele>792.0</ele>
        <time>2019-10-18T12:07:45Z</time>
      </trkpt>
      <trkpt lat="37.0327860" lon="-2.2525280">
        <ele>792.2</ele>
        <time>2019-10-18T12:07:46Z</time>
      </trkpt>
      <trkpt lat="37.0328110" lon="-2.2525490">
        <ele>792.5</ele>
        <time>2019-10-18T12:07:47Z</time>
      </trkpt>
      <trkpt lat="37.0328360" lon="-2.2525700">
        <ele>792.7</ele>
        <time>2019-10-18T12:07:48Z</time>
      </trkpt>
      <trkpt lat="37.0328600" lon="-2.2525910">
        <ele>792.8</ele>
        <time>2019-10-18T12:07:49Z</time>
      </trkpt>
      <trkpt lat="37.0328830" lon="-2.2526130">
        <ele>793.0</ele>
        <time>2019-10-18T12:07:50Z</time>
      </trkpt>
      <trkpt lat="37.0329050" lon="-2.2526360">
        <ele>793.3</ele>
        <time>2019-10-18T12:07:51Z</time>
      </trkpt>
      <trkpt lat="37.0329280" lon="-2.2526580">
        <ele>793.5</ele>
        <time>2019-10-18T12:07:52Z</time>
      </trkpt>
      <trkpt lat="37.0329500" lon="-2.2526780">
        <ele>793.7</ele>
        <time>2019-10-18T12:07:53Z</time>
      </trkpt>
      <trkpt lat="37.0329730" lon="-2.2526990">
        <ele>793.9</ele>
        <time>2019-10-18T12:07:54Z</time>
      </trkpt>
      <trkpt lat="37.0329950" lon="-2.2527220">
        <ele>794.0</ele>
        <time>2019-10-18T12:07:55Z</time>
      </trkpt>
      <trkpt lat="37.0330140" lon="-2.2527470">
        <ele>794.2</ele>
        <time>2019-10-18T12:07:56Z</time>
      </trkpt>
      <trkpt lat="37.0330310" lon="-2.2527750">
        <ele>794.5</ele>
        <time>2019-10-18T12:07:57Z</time>
      </trkpt>
      <trkpt lat="37.0330450" lon="-2.2528060">
        <ele>794.7</ele>
        <time>2019-10-18T12:07:58Z</time>
      </trkpt>
      <trkpt lat="37.0330550" lon="-2.2528400">
        <ele>794.9</ele>
        <time>2019-10-18T12:07:59Z</time>
      </trkpt>
      <trkpt lat="37.0330600" lon="-2.2528760">
        <ele>795.1</ele>
        <time>2019-10-18T12:08:00Z</time>
      </trkpt>
      <trkpt lat="37.0330600" lon="-2.2529130">
        <ele>795.4</ele>
        <time>2019-10-18T12:08:01Z</time>
      </trkpt>
      <trkpt lat="37.0330580" lon="-2.2529500">
        <ele>795.6</ele>
        <time>2019-10-18T12:08:02Z</time>
      </trkpt>
      <trkpt lat="37.0330530" lon="-2.2529860">
        <ele>795.8</ele>
        <time>2019-10-18T12:08:03Z</time>
      </trkpt>
      <trkpt lat="37.0330470" lon="-2.2530220">
        <ele>796.1</ele>
        <time>2019-10-18T12:08:04Z</time>
      </trkpt>
      <trkpt lat="37.0330390" lon="-2.2530550">
        <ele>796.3</ele>
        <time>2019-10-18T12:08:05Z</time>
      </trkpt>
      <trkpt lat="37.0330290" lon="-2.2530880">
        <ele>796.5</ele>
        <time>2019-10-18T12:08:06Z</time>
      </trkpt>
      <trkpt lat="37.0330160" lon="-2.2531200">
        <ele>796.7</ele>
        <time>2019-10-18T12:08:07Z</time>
      </trkpt>
      <trkpt lat="37.0330010" lon="-2.2531520">
        <ele>796.9</ele>
        <time>2019-10-18T12:08:08Z</time>
      </trkpt>
      <trkpt lat="37.0329840" lon="-2.2531820">
        <ele>797.1</ele>
        <time>2019-10-18T12:08:09Z</time>
      </trkpt>
      <trkpt lat="37.0329660" lon="-2.2532120">
        <ele>797.4</ele>
        <time>2019-10-18T12:08:10Z</time>
      </trkpt>
      <trkpt lat="37.0329480" lon="-2.2532390">
        <ele>797.6</ele>
        <time>2019-10-18T12:08:11Z</time>
      </trkpt>
      <trkpt lat="37.0329290" lon="-2.2532660">
        <ele>797.8</ele>
        <time>2019-10-18T12:08:12Z</time>
      </trkpt>
      <trkpt lat="37.0329110" lon="-2.2532920">
        <ele>798.0</ele>
        <time>2019-10-18T12:08:13Z</time>
      </trkpt>
      <trkpt lat="37.0328920" lon="-2.2533180">
        <ele>798.2</ele>
        <time>2019-10-18T12:08:14Z</time>
      </trkpt>
      <trkpt lat="37.0328730" lon="-2.2533430">
        <ele>798.4</ele>
        <time>2019-10-18T12:08:15Z</time>
      </trkpt>
      <trkpt lat="37.0328530" lon="-2.2533670">
        <ele>798.6</ele>
        <time>2019-10-18T12:08:16Z</time>
      </trkpt>
      <trkpt lat="37.0328340" lon="-2.2533920">
        <ele>798.8</ele>
        <time>2019-10-18T12:08:17Z</time>
      </trkpt>
      <trkpt lat="37.0328150" lon="-2.2534180">
        <ele>799.0</ele>
        <time>2019-10-18T12:08:18Z</time>
      </trkpt>
      <trkpt lat="37.0327960" lon="-2.2534450">
        <ele>799.1</ele>
        <time>2019-10-18T12:08:19Z</time>
      </trkpt>
      <trkpt lat="37.0327780" lon="-2.2534740">
        <ele>799.3</ele>
        <time>2019-10-18T12:08:20Z</time>
      </trkpt>
      <trkpt lat="37.0327620" lon="-2.2535040">
        <ele>799.5</ele>
        <time>2019-10-18T12:08:21Z</time>
      </trkpt>
      <trkpt lat="37.0327500" lon="-2.2535380">
        <ele>799.7</ele>
        <time>2019-10-18T12:08:22Z</time>
      </trkpt>
      <trkpt lat="37.0327420" lon="-2.2535740">
        <ele>799.8</ele>
        <time>2019-10-18T12:08:23Z</time>
      </trkpt>
      <trkpt lat="37.0327380" lon="-2.2536110">
        <ele>800.0</ele>
        <time>2019-10-18T12:08:24Z</time>
      </trkpt>
      <trkpt lat="37.0327380" lon="-2.2536470">
        <ele>800.2</ele>
        <time>2019-10-18T12:08:25Z</time>
      </trkpt>
      <trkpt lat="37.0327390" lon="-2.2536820">
        <ele>800.4</ele>
        <time>2019-10-18T12:08:26Z</time>
      </trkpt>
      <trkpt lat="37.0327410" lon="-2.2537180">
        <ele>800.5</ele>
        <time>2019-10-18T12:08:27Z</time>
      </trkpt>
      <trkpt lat="37.0327420" lon="-2.2537540">
        <ele>800.7</ele>
        <time>2019-10-18T12:08:28Z</time>
      </trkpt>
      <trkpt lat="37.0327420" lon="-2.2537910">
        <ele>800.8</ele>
        <time>2019-10-18T12:08:29Z</time>
      </trkpt>
      <trkpt lat="37.0327410" lon="-2.2538290">
        <ele>801.0</ele>
        <time>2019-10-18T12:08:30Z</time>
      </trkpt>
      <trkpt lat="37.0327390" lon="-2.2538680">
        <ele>801.2</ele>
        <time>2019-10-18T12:08:31Z</time>
      </trkpt>
      <trkpt lat="37.0327370" lon="-2.2539070">
        <ele>801.3</ele>
        <time>2019-10-18T12:08:32Z</time>
      </trkpt>
      <trkpt lat="37.0327340" lon="-2.2539450">
        <ele>801.5</ele>
        <time>2019-10-18T12:08:33Z</time>
      </trkpt>
      <trkpt lat="37.0327290" lon="-2.2539830">
        <ele>801.6</ele>
        <time>2019-10-18T12:08:34Z</time>
      </trkpt>
      <trkpt lat="37.0327210" lon="-2.2540180">
        <ele>801.8</ele>
        <time>2019-10-18T12:08:35Z</time>
      </trkpt>
      <trkpt lat="37.0327100" lon="-2.2540500">
        <ele>801.9</ele>
        <time>2019-10-18T12:08:36Z</time>
      </trkpt>
      <trkpt lat="37.0326970" lon="-2.2540820">
        <ele>802.1</ele>
        <time>2019-10-18T12:08:37Z</time>
      </trkpt>
      <trkpt lat="37.0326810" lon="-2.2541130">
        <ele>802.2</ele>
        <time>2019-10-18T12:08:38Z</time>
      </trkpt>
      <trkpt lat="37.0326660" lon="-2.2541450">
        <ele>802.3</ele>
        <time>2019-10-18T12:08:39Z</time>
      </trkpt>
      <trkpt lat="37.0326500" lon="-2.2541770">
        <ele>802.5</ele>
        <time>2019-10-18T12:08:40Z</time>
      </trkpt>
      <trkpt lat="37.0326360" lon="-2.2542110">
        <ele>802.6</ele>
        <time>2019-10-18T12:08:41Z</time>
      </trkpt>
      <trkpt lat="37.0326230" lon="-2.2542460">
        <ele>802.8</ele>
        <time>2019-10-18T12:08:42Z</time>
      </trkpt>
      <trkpt lat="37.0326140" lon="-2.2542830">
        <ele>803.0</ele>
        <time>2019-10-18T12:08:43Z</time>
      </trkpt>
      <trkpt lat="37.0326120" lon="-2.2543230">
        <ele>803.2</ele>
        <time>2019-10-18T12:08:44Z</time>
      </trkpt>
      <trkpt lat="37.0326160" lon="-2.2543630">
        <ele>803.3</ele>
        <time>2019-10-18T12:08:45Z</time>
      </trkpt>
      <trkpt lat="37.0326240" lon="-2.2544010">
        <ele>803.4</ele>
        <time>2019-10-18T12:08:46Z</time>
      </trkpt>
      <trkpt lat="37.0326360" lon="-2.2544380">
        <ele>803.6</ele>
        <time>2019-10-18T12:08:47Z</time>
      </trkpt>
      <trkpt lat="37.0326490" lon="-2.2544740">
        <ele>803.8</ele>
        <time>2019-10-18T12:08:48Z</time>
      </trkpt>
      <trkpt lat="37.0326640" lon="-2.2545100">
        <ele>803.9</ele>
        <time>2019-10-18T12:08:49Z</time>
      </trkpt>
      <trkpt lat="37.0326790" lon="-2.2545470">
        <ele>804.0</ele>
        <time>2019-10-18T12:08:50Z</time>
      </trkpt>
      <trkpt lat="37.0326940" lon="-2.2545840">
        <ele>804.1</ele>
        <time>2019-10-18T12:08:51Z</time>
      </trkpt>
      <trkpt lat="37.0327090" lon="-2.2546200">
        <ele>804.2</ele>
        <time>2019-10-18T12:08:52Z</time>
      </trkpt>
      <trkpt lat="37.0327230" lon="-2.2546560">
        <ele>804.3</ele>
        <time>2019-10-18T12:08:53Z</time>
      </trkpt>
      <trkpt lat="37.0327360" lon="-2.2546920">
        <ele>804.4</ele>
        <time>2019-10-18T12:08:54Z</time>
      </trkpt>
      <trkpt lat="37.0327490" lon="-2.2547280">
        <ele>804.6</ele>
        <time>2019-10-18T12:08:55Z</time>
      </trkpt>
      <trkpt lat="37.0327600" lon="-2.2547660">
        <ele>804.7</ele>
        <time>2019-10-18T12:08:56Z</time>
      </trkpt>
      <trkpt lat="37.0327710" lon="-2.2548050">
        <ele>804.8</ele>
        <time>2019-10-18T12:08:57Z</time>
      </trkpt>
      <trkpt lat="37.0327800" lon="-2.2548440">
        <ele>804.9</ele>
        <time>2019-10-18T12:08:58Z</time>
      </trkpt>
      <trkpt lat="37.0327870" lon="-2.2548850">
        <ele>805.0</ele>
        <time>2019-10-18T12:08:59Z</time>
      </trkpt>
      <trkpt lat="37.0327910" lon="-2.2549280">
        <ele>805.1</ele>
        <time>2019-10-18T12:09:00Z</time>
      </trkpt>
      <trkpt lat="37.0327910" lon="-2.2549730">
        <ele>805.2</ele>
        <time>2019-10-18T12:09:01Z</time>
      </trkpt>
      <trkpt lat="37.0327890" lon="-2.2550200">
        <ele>805.3</ele>
        <time>2019-10-18T12:09:02Z</time>
      </trkpt>
      <trkpt lat="37.0327850" lon="-2.2550670">
        <ele>805.5</ele>
        <time>2019-10-18T12:09:03Z</time>
      </trkpt>
      <trkpt lat="37.0327800" lon="-2.2551130">
        <ele>805.6</ele>
        <time>2019-10-18T12:09:04Z</time>
      </trkpt>
      <trkpt lat="37.0327720" lon="-2.2551600">
        <ele>805.8</ele>
        <time>2019-10-18T12:09:05Z</time>
      </trkpt>
      <trkpt lat="37.0327610" lon="-2.2552070">
        <ele>806.0</ele>
        <time>2019-10-18T12:09:06Z</time>
      </trkpt>
      <trkpt lat="37.0327480" lon="-2.2552540">
        <ele>806.1</ele>
        <time>2019-10-18T12:09:07Z</time>
      </trkpt>
      <trkpt lat="37.0327340" lon="-2.2553010">
        <ele>806.2</ele>
        <time>2019-10-18T12:09:08Z</time>
      </trkpt>
      <trkpt lat="37.0327180" lon="-2.2553480">
        <ele>806.3</ele>
        <time>2019-10-18T12:09:09Z</time>
      </trkpt>
      <trkpt lat="37.0327000" lon="-2.2553930">
        <ele>806.4</ele>
        <time>2019-10-18T12:09:10Z</time>
      </trkpt>
      <trkpt lat="37.0326800" lon="-2.2554380">
        <ele>806.5</ele>
        <time>2019-10-18T12:09:11Z</time>
      </trkpt>
      <trkpt lat="37.0326570" lon="-2.2554810">
        <ele>806.5</ele>
        <time>2019-10-18T12:09:12Z</time>
      </trkpt>
      <trkpt lat="37.0326330" lon="-2.2555240">
        <ele>806.5</ele>
        <time>2019-10-18T12:09:13Z</time>
      </trkpt>
      <trkpt lat="37.0326100" lon="-2.2555670">
        <ele>806.6</ele>
        <time>2019-10-18T12:09:14Z</time>
      </trkpt>
      <trkpt lat="37.0325880" lon="-2.2556120">
        <ele>806.6</ele>
        <time>2019-10-18T12:09:15Z</time>
      </trkpt>
      <trkpt lat="37.0325660" lon="-2.2556580">
        <ele>806.6</ele>
        <time>2019-10-18T12:09:16Z</time>
      </trkpt>
      <trkpt lat="37.0325440" lon="-2.2557050">
        <ele>806.6</ele>
        <time>2019-10-18T12:09:17Z</time>
      </trkpt>
      <trkpt lat="37.0325210" lon="-2.2557510">
        <ele>806.6</ele>
        <time>2019-10-18T12:09:18Z</time>
      </trkpt>
      <trkpt lat="37.0324980" lon="-2.2558000">
        <ele>806.6</ele>
        <time>2019-10-18T12:09:19Z</time>
      </trkpt>
      <trkpt lat="37.0324760" lon="-2.2558490">
        <ele>806.6</ele>
        <time>2019-10-18T12:09:20Z</time>
      </trkpt>
      <trkpt lat="37.0324530" lon="-2.2558990">
        <ele>806.6</ele>
        <time>2019-10-18T12:09:21Z</time>
      </trkpt>
      <trkpt lat="37.0324280" lon="-2.2559480">
        <ele>806.6</ele>
        <time>2019-10-18T12:09:22Z</time>
      </trkpt>
      <trkpt lat="37.0324010" lon="-2.2559970">
        <ele>806.6</ele>
        <time>2019-10-18T12:09:23Z</time>
      </trkpt>
      <trkpt lat="37.0323690" lon="-2.2560420">
        <ele>806.6</ele>
        <time>2019-10-18T12:09:24Z</time>
      </trkpt>
      <trkpt lat="37.0323310" lon="-2.2560790">
        <ele>806.6</ele>
        <time>2019-10-18T12:09:25Z</time>
      </trkpt>
      <trkpt lat="37.0322870" lon="-2.2561060">
        <ele>806.6</ele>
        <time>2019-10-18T12:09:26Z</time>
      </trkpt>
      <trkpt lat="37.0322360" lon="-2.2561210">
        <ele>806.6</ele>
        <time>2019-10-18T12:09:27Z</time>
      </trkpt>
      <trkpt lat="37.0321820" lon="-2.2561320">
        <ele>806.6</ele>
        <time>2019-10-18T12:09:28Z</time>
      </trkpt>
      <trkpt lat="37.0321260" lon="-2.2561450">
        <ele>806.6</ele>
        <time>2019-10-18T12:09:29Z</time>
      </trkpt>
      <trkpt lat="37.0320700" lon="-2.2561660">
        <ele>806.5</ele>
        <time>2019-10-18T12:09:30Z</time>
      </trkpt>
      <trkpt lat="37.0320150" lon="-2.2561940">
        <ele>806.4</ele>
        <time>2019-10-18T12:09:31Z</time>
      </trkpt>
      <trkpt lat="37.0319640" lon="-2.2562270">
        <ele>806.3</ele>
        <time>2019-10-18T12:09:32Z</time>
      </trkpt>
      <trkpt lat="37.0319160" lon="-2.2562610">
        <ele>806.1</ele>
        <time>2019-10-18T12:09:33Z</time>
      </trkpt>
      <trkpt lat="37.0318690" lon="-2.2562970">
        <ele>805.9</ele>
        <time>2019-10-18T12:09:34Z</time>
      </trkpt>
      <trkpt lat="37.0318300" lon="-2.2563450">
        <ele>805.5</ele>
        <time>2019-10-18T12:09:35Z</time>
      </trkpt>
      <trkpt lat="37.0318070" lon="-2.2564080">
        <ele>805.1</ele>
        <time>2019-10-18T12:09:36Z</time>
      </trkpt>
      <trkpt lat="37.0318040" lon="-2.2564870">
        <ele>804.6</ele>
        <time>2019-10-18T12:09:37Z</time>
      </trkpt>
      <trkpt lat="37.0318160" lon="-2.2565680">
        <ele>804.1</ele>
        <time>2019-10-18T12:09:38Z</time>
      </trkpt>
      <trkpt lat="37.0318390" lon="-2.2566510">
        <ele>803.6</ele>
        <time>2019-10-18T12:09:39Z</time>
      </trkpt>
      <trkpt lat="37.0318660" lon="-2.2567340">
        <ele>803.1</ele>
        <time>2019-10-18T12:09:40Z</time>
      </trkpt>
      <trkpt lat="37.0318910" lon="-2.2568150">
        <ele>802.7</ele>
        <time>2019-10-18T12:09:41Z</time>
      </trkpt>
      <trkpt lat="37.0319040" lon="-2.2568880">
        <ele>802.4</ele>
        <time>2019-10-18T12:09:42Z</time>
      </trkpt>
      <trkpt lat="37.0319030" lon="-2.2569540">
        <ele>802.2</ele>
        <time>2019-10-18T12:09:43Z</time>
      </trkpt>
      <trkpt lat="37.0318860" lon="-2.2570170">
        <ele>801.9</ele>
        <time>2019-10-18T12:09:44Z</time>
      </trkpt>
      <trkpt lat="37.0318570" lon="-2.2570820">
        <ele>801.6</ele>
        <time>2019-10-18T12:09:45Z</time>
      </trkpt>
      <trkpt lat="37.0318220" lon="-2.2571470">
        <ele>801.3</ele>
        <time>2019-10-18T12:09:46Z</time>
      </trkpt>
      <trkpt lat="37.0317970" lon="-2.2572180">
        <ele>801.0</ele>
        <time>2019-10-18T12:09:47Z</time>
      </trkpt>
      <trkpt lat="37.0317870" lon="-2.2572960">
        <ele>800.6</ele>
        <time>2019-10-18T12:09:48Z</time>
      </trkpt>
      <trkpt lat="37.0317940" lon="-2.2573790">
        <ele>800.1</ele>
        <time>2019-10-18T12:09:49Z</time>
      </trkpt>
      <trkpt lat="37.0318100" lon="-2.2574610">
        <ele>799.6</ele>
        <time>2019-10-18T12:09:50Z</time>
      </trkpt>
      <trkpt lat="37.0318320" lon="-2.2575430">
        <ele>799.0</ele>
        <time>2019-10-18T12:09:51Z</time>
      </trkpt>
      <trkpt lat="37.0318550" lon="-2.2576270">
        <ele>798.4</ele>
        <time>2019-10-18T12:09:52Z</time>
      </trkpt>
      <trkpt lat="37.0318730" lon="-2.2577130">
        <ele>797.7</ele>
        <time>2019-10-18T12:09:53Z</time>
      </trkpt>
      <trkpt lat="37.0318810" lon="-2.2577980">
        <ele>797.0</ele>
        <time>2019-10-18T12:09:54Z</time>
      </trkpt>
      <trkpt lat="37.0318710" lon="-2.2578830">
        <ele>796.3</ele>
        <time>2019-10-18T12:09:55Z</time>
      </trkpt>
      <trkpt lat="37.0318440" lon="-2.2579650">
        <ele>795.6</ele>
        <time>2019-10-18T12:09:56Z</time>
      </trkpt>
      <trkpt lat="37.0318030" lon="-2.2580410">
        <ele>795.0</ele>
        <time>2019-10-18T12:09:57Z</time>
      </trkpt>
      <trkpt lat="37.0317550" lon="-2.2581080">
        <ele>794.5</ele>
        <time>2019-10-18T12:09:58Z</time>
      </trkpt>
      <trkpt lat="37.0317070" lon="-2.2581730">
        <ele>794.0</ele>
        <time>2019-10-18T12:09:59Z</time>
      </trkpt>
      <trkpt lat="37.0316660" lon="-2.2582440">
        <ele>793.6</ele>
        <time>2019-10-18T12:10:00Z</time>
      </trkpt>
      <trkpt lat="37.0316430" lon="-2.2583240">
        <ele>793.2</ele>
        <time>2019-10-18T12:10:01Z</time>
      </trkpt>
      <trkpt lat="37.0316420" lon="-2.2584060">
        <ele>792.8</ele>
        <time>2019-10-18T12:10:02Z</time>
      </trkpt>
      <trkpt lat="37.0316610" lon="-2.2584830">
        <ele>792.5</ele>
        <time>2019-10-18T12:10:03Z</time>
      </trkpt>
      <trkpt lat="37.0316910" lon="-2.2585470">
        <ele>792.1</ele>
        <time>2019-10-18T12:10:04Z</time>
      </trkpt>
      <trkpt lat="37.0317250" lon="-2.2586020">
        <ele>791.6</ele>
        <time>2019-10-18T12:10:05Z</time>
      </trkpt>
      <trkpt lat="37.0317580" lon="-2.2586510">
        <ele>791.1</ele>
        <time>2019-10-18T12:10:06Z</time>
      </trkpt>
      <trkpt lat="37.0317890" lon="-2.2586970">
        <ele>790.5</ele>
        <time>2019-10-18T12:10:07Z</time>
      </trkpt>
      <trkpt lat="37.0318150" lon="-2.2587430">
        <ele>790.0</ele>
        <time>2019-10-18T12:10:08Z</time>
      </trkpt>
      <trkpt lat="37.0318360" lon="-2.2587890">
        <ele>789.6</ele>
        <time>2019-10-18T12:10:09Z</time>
      </trkpt>
      <trkpt lat="37.0318490" lon="-2.2588370">
        <ele>788.8</ele>
        <time>2019-10-18T12:10:10Z</time>
      </trkpt>
      <trkpt lat="37.0318510" lon="-2.2588880">
        <ele>788.7</ele>
        <time>2019-10-18T12:10:11Z</time>
      </trkpt>
      <trkpt lat="37.0318400" lon="-2.2589430">
        <ele>788.3</ele>
        <time>2019-10-18T12:10:12Z</time>
      </trkpt>
      <trkpt lat="37.0318190" lon="-2.2589940">
        <ele>788.3</ele>
        <time>2019-10-18T12:10:13Z</time>
      </trkpt>
      <trkpt lat="37.0317940" lon="-2.2590400">
        <ele>788.2</ele>
        <time>2019-10-18T12:10:14Z</time>
      </trkpt>
      <trkpt lat="37.0317720" lon="-2.2590810">
        <ele>788.1</ele>
        <time>2019-10-18T12:10:15Z</time>
      </trkpt>
      <trkpt lat="37.0317540" lon="-2.2591210">
        <ele>788.1</ele>
        <time>2019-10-18T12:10:16Z</time>
      </trkpt>
      <trkpt lat="37.0317380" lon="-2.2591620">
        <ele>788.0</ele>
        <time>2019-10-18T12:10:17Z</time>
      </trkpt>
      <trkpt lat="37.0317240" lon="-2.2592020">
        <ele>788.0</ele>
        <time>2019-10-18T12:10:18Z</time>
      </trkpt>
      <trkpt lat="37.0317120" lon="-2.2592420">
        <ele>788.0</ele>
        <time>2019-10-18T12:10:19Z</time>
      </trkpt>
      <trkpt lat="37.0317020" lon="-2.2592810">
        <ele>788.0</ele>
        <time>2019-10-18T12:10:20Z</time>
      </trkpt>
      <trkpt lat="37.0316960" lon="-2.2593220">
        <ele>788.0</ele>
        <time>2019-10-18T12:10:21Z</time>
      </trkpt>
      <trkpt lat="37.0316920" lon="-2.2593630">
        <ele>788.0</ele>
        <time>2019-10-18T12:10:22Z</time>
      </trkpt>
      <trkpt lat="37.0316910" lon="-2.2594040">
        <ele>788.0</ele>
        <time>2019-10-18T12:10:23Z</time>
      </trkpt>
      <trkpt lat="37.0316920" lon="-2.2594460">
        <ele>788.1</ele>
        <time>2019-10-18T12:10:24Z</time>
      </trkpt>
      <trkpt lat="37.0316950" lon="-2.2594880">
        <ele>788.2</ele>
        <time>2019-10-18T12:10:25Z</time>
      </trkpt>
      <trkpt lat="37.0317010" lon="-2.2595310">
        <ele>788.3</ele>
        <time>2019-10-18T12:10:26Z</time>
      </trkpt>
      <trkpt lat="37.0317080" lon="-2.2595750">
        <ele>788.4</ele>
        <time>2019-10-18T12:10:27Z</time>
      </trkpt>
      <trkpt lat="37.0317150" lon="-2.2596190">
        <ele>788.5</ele>
        <time>2019-10-18T12:10:28Z</time>
      </trkpt>
      <trkpt lat="37.0317230" lon="-2.2596630">
        <ele>788.6</ele>
        <time>2019-10-18T12:10:29Z</time>
      </trkpt>
      <trkpt lat="37.0317310" lon="-2.2597060">
        <ele>788.7</ele>
        <time>2019-10-18T12:10:30Z</time>
      </trkpt>
      <trkpt lat="37.0317380" lon="-2.2597470">
        <ele>788.8</ele>
        <time>2019-10-18T12:10:31Z</time>
      </trkpt>
      <trkpt lat="37.0317460" lon="-2.2597880">
        <ele>788.9</ele>
        <time>2019-10-18T12:10:32Z</time>
      </trkpt>
      <trkpt lat="37.0317550" lon="-2.2598280">
        <ele>789.0</ele>
        <time>2019-10-18T12:10:33Z</time>
      </trkpt>
      <trkpt lat="37.0317640" lon="-2.2598680">
        <ele>789.2</ele>
        <time>2019-10-18T12:10:34Z</time>
      </trkpt>
      <trkpt lat="37.0317720" lon="-2.2599080">
        <ele>789.3</ele>
        <time>2019-10-18T12:10:35Z</time>
      </trkpt>
      <trkpt lat="37.0317800" lon="-2.2599480">
        <ele>789.5</ele>
        <time>2019-10-18T12:10:36Z</time>
      </trkpt>
      <trkpt lat="37.0317870" lon="-2.2599880">
        <ele>789.6</ele>
        <time>2019-10-18T12:10:37Z</time>
      </trkpt>
      <trkpt lat="37.0317950" lon="-2.2600270">
        <ele>789.8</ele>
        <time>2019-10-18T12:10:38Z</time>
      </trkpt>
      <trkpt lat="37.0318020" lon="-2.2600680">
        <ele>789.9</ele>
        <time>2019-10-18T12:10:39Z</time>
      </trkpt>
      <trkpt lat="37.0318090" lon="-2.2601110">
        <ele>790.1</ele>
        <time>2019-10-18T12:10:40Z</time>
      </trkpt>
      <trkpt lat="37.0318160" lon="-2.2601530">
        <ele>790.2</ele>
        <time>2019-10-18T12:10:41Z</time>
      </trkpt>
      <trkpt lat="37.0318230" lon="-2.2601950">
        <ele>790.4</ele>
        <time>2019-10-18T12:10:42Z</time>
      </trkpt>
      <trkpt lat="37.0318300" lon="-2.2602360">
        <ele>790.5</ele>
        <time>2019-10-18T12:10:43Z</time>
      </trkpt>
      <trkpt lat="37.0318370" lon="-2.2602750">
        <ele>790.6</ele>
        <time>2019-10-18T12:10:44Z</time>
      </trkpt>
      <trkpt lat="37.0318430" lon="-2.2603140">
        <ele>790.8</ele>
        <time>2019-10-18T12:10:45Z</time>
      </trkpt>
      <trkpt lat="37.0318490" lon="-2.2603530">
        <ele>791.0</ele>
        <time>2019-10-18T12:10:46Z</time>
      </trkpt>
      <trkpt lat="37.0318550" lon="-2.2603920">
        <ele>791.1</ele>
        <time>2019-10-18T12:10:47Z</time>
      </trkpt>
      <trkpt lat="37.0318610" lon="-2.2604310">
        <ele>791.3</ele>
        <time>2019-10-18T12:10:48Z</time>
      </trkpt>
      <trkpt lat="37.0318670" lon="-2.2604700">
        <ele>791.5</ele>
        <time>2019-10-18T12:10:49Z</time>
      </trkpt>
      <trkpt lat="37.0318730" lon="-2.2605090">
        <ele>791.6</ele>
        <time>2019-10-18T12:10:50Z</time>
      </trkpt>
      <trkpt lat="37.0318780" lon="-2.2605460">
        <ele>791.8</ele>
        <time>2019-10-18T12:10:51Z</time>
      </trkpt>
      <trkpt lat="37.0318830" lon="-2.2605820">
        <ele>791.9</ele>
        <time>2019-10-18T12:10:52Z</time>
      </trkpt>
      <trkpt lat="37.0318870" lon="-2.2606180">
        <ele>792.0</ele>
        <time>2019-10-18T12:10:53Z</time>
      </trkpt>
      <trkpt lat="37.0318900" lon="-2.2606540">
        <ele>792.2</ele>
        <time>2019-10-18T12:10:54Z</time>
      </trkpt>
      <trkpt lat="37.0318910" lon="-2.2606880">
        <ele>792.3</ele>
        <time>2019-10-18T12:10:55Z</time>
      </trkpt>
      <trkpt lat="37.0318890" lon="-2.2607220">
        <ele>792.4</ele>
        <time>2019-10-18T12:10:56Z</time>
      </trkpt>
      <trkpt lat="37.0318850" lon="-2.2607550">
        <ele>792.5</ele>
        <time>2019-10-18T12:10:57Z</time>
      </trkpt>
      <trkpt lat="37.0318790" lon="-2.2607860">
        <ele>792.7</ele>
        <time>2019-10-18T12:10:58Z</time>
      </trkpt>
      <trkpt lat="37.0318700" lon="-2.2608170">
        <ele>792.8</ele>
        <time>2019-10-18T12:10:59Z</time>
      </trkpt>
      <trkpt lat="37.0318590" lon="-2.2608460">
        <ele>792.9</ele>
        <time>2019-10-18T12:11:00Z</time>
      </trkpt>
      <trkpt lat="37.0318450" lon="-2.2608750">
        <ele>793.1</ele>
        <time>2019-10-18T12:11:01Z</time>
      </trkpt>
      <trkpt lat="37.0318300" lon="-2.2609020">
        <ele>793.2</ele>
        <time>2019-10-18T12:11:02Z</time>
      </trkpt>
      <trkpt lat="37.0318130" lon="-2.2609270">
        <ele>793.4</ele>
        <time>2019-10-18T12:11:03Z</time>
      </trkpt>
      <trkpt lat="37.0317930" lon="-2.2609510">
        <ele>793.5</ele>
        <time>2019-10-18T12:11:04Z</time>
      </trkpt>
      <trkpt lat="37.0317730" lon="-2.2609730">
        <ele>793.7</ele>
        <time>2019-10-18T12:11:05Z</time>
      </trkpt>
      <trkpt lat="37.0317550" lon="-2.2609960">
        <ele>793.8</ele>
        <time>2019-10-18T12:11:06Z</time>
      </trkpt>
      <trkpt lat="37.0317380" lon="-2.2610200">
        <ele>794.0</ele>
        <time>2019-10-18T12:11:07Z</time>
      </trkpt>
      <trkpt lat="37.0317190" lon="-2.2610440">
        <ele>794.1</ele>
        <time>2019-10-18T12:11:08Z</time>
      </trkpt>
      <trkpt lat="37.0316990" lon="-2.2610660">
        <ele>794.3</ele>
        <time>2019-10-18T12:11:09Z</time>
      </trkpt>
      <trkpt lat="37.0316780" lon="-2.2610890">
        <ele>794.5</ele>
        <time>2019-10-18T12:11:10Z</time>
      </trkpt>
      <trkpt lat="37.0316580" lon="-2.2611120">
        <ele>794.6</ele>
        <time>2019-10-18T12:11:11Z</time>
      </trkpt>
      <trkpt lat="37.0316390" lon="-2.2611360">
        <ele>794.8</ele>
        <time>2019-10-18T12:11:12Z</time>
      </trkpt>
      <trkpt lat="37.0316200" lon="-2.2611590">
        <ele>795.0</ele>
        <time>2019-10-18T12:11:13Z</time>
      </trkpt>
      <trkpt lat="37.0316010" lon="-2.2611810">
        <ele>795.2</ele>
        <time>2019-10-18T12:11:14Z</time>
      </trkpt>
      <trkpt lat="37.0315810" lon="-2.2612020">
        <ele>795.4</ele>
        <time>2019-10-18T12:11:15Z</time>
      </trkpt>
      <trkpt lat="37.0315620" lon="-2.2612240">
        <ele>795.6</ele>
        <time>2019-10-18T12:11:16Z</time>
      </trkpt>
      <trkpt lat="37.0315430" lon="-2.2612460">
        <ele>795.8</ele>
        <time>2019-10-18T12:11:17Z</time>
      </trkpt>
      <trkpt lat="37.0315240" lon="-2.2612670">
        <ele>796.0</ele>
        <time>2019-10-18T12:11:18Z</time>
      </trkpt>
      <trkpt lat="37.0315040" lon="-2.2612890">
        <ele>796.2</ele>
        <time>2019-10-18T12:11:19Z</time>
      </trkpt>
      <trkpt lat="37.0314860" lon="-2.2613100">
        <ele>796.3</ele>
        <time>2019-10-18T12:11:20Z</time>
      </trkpt>
      <trkpt lat="37.0314690" lon="-2.2613330">
        <ele>796.5</ele>
        <time>2019-10-18T12:11:21Z</time>
      </trkpt>
      <trkpt lat="37.0314520" lon="-2.2613570">
        <ele>796.7</ele>
        <time>2019-10-18T12:11:22Z</time>
      </trkpt>
      <trkpt lat="37.0314350" lon="-2.2613810">
        <ele>796.9</ele>
        <time>2019-10-18T12:11:23Z</time>
      </trkpt>
      <trkpt lat="37.0314170" lon="-2.2614050">
        <ele>797.1</ele>
        <time>2019-10-18T12:11:24Z</time>
      </trkpt>
      <trkpt lat="37.0313990" lon="-2.2614280">
        <ele>797.3</ele>
        <time>2019-10-18T12:11:25Z</time>
      </trkpt>
      <trkpt lat="37.0313800" lon="-2.2614520">
        <ele>797.5</ele>
        <time>2019-10-18T12:11:26Z</time>
      </trkpt>
      <trkpt lat="37.0313620" lon="-2.2614740">
        <ele>797.7</ele>
        <time>2019-10-18T12:11:27Z</time>
      </trkpt>
      <trkpt lat="37.0313440" lon="-2.2614980">
        <ele>797.9</ele>
        <time>2019-10-18T12:11:28Z</time>
      </trkpt>
      <trkpt lat="37.0313270" lon="-2.2615220">
        <ele>798.0</ele>
        <time>2019-10-18T12:11:29Z</time>
      </trkpt>
      <trkpt lat="37.0313100" lon="-2.2615470">
        <ele>798.2</ele>
        <time>2019-10-18T12:11:30Z</time>
      </trkpt>
      <trkpt lat="37.0312930" lon="-2.2615730">
        <ele>798.4</ele>
        <time>2019-10-18T12:11:31Z</time>
      </trkpt>
      <trkpt lat="37.0312780" lon="-2.2616020">
        <ele>798.6</ele>
        <time>2019-10-18T12:11:32Z</time>
      </trkpt>
      <trkpt lat="37.0312640" lon="-2.2616320">
        <ele>798.8</ele>
        <time>2019-10-18T12:11:33Z</time>
      </trkpt>
      <trkpt lat="37.0312510" lon="-2.2616630">
        <ele>799.0</ele>
        <time>2019-10-18T12:11:34Z</time>
      </trkpt>
      <trkpt lat="37.0312390" lon="-2.2616940">
        <ele>799.2</ele>
        <time>2019-10-18T12:11:35Z</time>
      </trkpt>
      <trkpt lat="37.0312300" lon="-2.2617250">
        <ele>799.3</ele>
        <time>2019-10-18T12:11:36Z</time>
      </trkpt>
      <trkpt lat="37.0312240" lon="-2.2617580">
        <ele>799.5</ele>
        <time>2019-10-18T12:11:37Z</time>
      </trkpt>
      <trkpt lat="37.0312190" lon="-2.2617910">
        <ele>799.7</ele>
        <time>2019-10-18T12:11:38Z</time>
      </trkpt>
      <trkpt lat="37.0312150" lon="-2.2618240">
        <ele>799.9</ele>
        <time>2019-10-18T12:11:39Z</time>
      </trkpt>
      <trkpt lat="37.0312130" lon="-2.2618580">
        <ele>800.0</ele>
        <time>2019-10-18T12:11:40Z</time>
      </trkpt>
      <trkpt lat="37.0312120" lon="-2.2618910">
        <ele>800.2</ele>
        <time>2019-10-18T12:11:41Z</time>
      </trkpt>
      <trkpt lat="37.0312150" lon="-2.2619230">
        <ele>800.4</ele>
        <time>2019-10-18T12:11:42Z</time>
      </trkpt>
      <trkpt lat="37.0312200" lon="-2.2619550">
        <ele>800.5</ele>
        <time>2019-10-18T12:11:43Z</time>
      </trkpt>
      <trkpt lat="37.0312270" lon="-2.2619860">
        <ele>800.7</ele>
        <time>2019-10-18T12:11:44Z</time>
      </trkpt>
      <trkpt lat="37.0312370" lon="-2.2620170">
        <ele>800.8</ele>
        <time>2019-10-18T12:11:45Z</time>
      </trkpt>
      <trkpt lat="37.0312480" lon="-2.2620480">
        <ele>801.0</ele>
        <time>2019-10-18T12:11:46Z</time>
      </trkpt>
      <trkpt lat="37.0312600" lon="-2.2620780">
        <ele>801.2</ele>
        <time>2019-10-18T12:11:47Z</time>
      </trkpt>
      <trkpt lat="37.0312710" lon="-2.2621080">
        <ele>801.3</ele>
        <time>2019-10-18T12:11:48Z</time>
      </trkpt>
      <trkpt lat="37.0312830" lon="-2.2621380">
        <ele>801.5</ele>
        <time>2019-10-18T12:11:49Z</time>
      </trkpt>
      <trkpt lat="37.0312950" lon="-2.2621690">
        <ele>801.7</ele>
        <time>2019-10-18T12:11:50Z</time>
      </trkpt>
      <trkpt lat="37.0313070" lon="-2.2621990">
        <ele>801.9</ele>
        <time>2019-10-18T12:11:51Z</time>
      </trkpt>
      <trkpt lat="37.0313190" lon="-2.2622310">
        <ele>802.1</ele>
        <time>2019-10-18T12:11:52Z</time>
      </trkpt>
      <trkpt lat="37.0313310" lon="-2.2622610">
        <ele>802.3</ele>
        <time>2019-10-18T12:11:53Z</time>
      </trkpt>
      <trkpt lat="37.0313430" lon="-2.2622910">
        <ele>802.5</ele>
        <time>2019-10-18T12:11:54Z</time>
      </trkpt>
      <trkpt lat="37.0313560" lon="-2.2623210">
        <ele>802.7</ele>
        <time>2019-10-18T12:11:55Z</time>
      </trkpt>
      <trkpt lat="37.0313680" lon="-2.2623510">
        <ele>802.9</ele>
        <time>2019-10-18T12:11:56Z</time>
      </trkpt>
      <trkpt lat="37.0313810" lon="-2.2623810">
        <ele>803.1</ele>
        <time>2019-10-18T12:11:57Z</time>
      </trkpt>
      <trkpt lat="37.0313930" lon="-2.2624110">
        <ele>803.2</ele>
        <time>2019-10-18T12:11:58Z</time>
      </trkpt>
      <trkpt lat="37.0314060" lon="-2.2624410">
        <ele>803.4</ele>
        <time>2019-10-18T12:11:59Z</time>
      </trkpt>
      <trkpt lat="37.0314190" lon="-2.2624710">
        <ele>803.6</ele>
        <time>2019-10-18T12:12:00Z</time>
      </trkpt>
      <trkpt lat="37.0314320" lon="-2.2625020">
        <ele>803.8</ele>
        <time>2019-10-18T12:12:01Z</time>
      </trkpt>
      <trkpt lat="37.0314440" lon="-2.2625330">
        <ele>804.0</ele>
        <time>2019-10-18T12:12:02Z</time>
      </trkpt>
      <trkpt lat="37.0314560" lon="-2.2625640">
        <ele>804.2</ele>
        <time>2019-10-18T12:12:03Z</time>
      </trkpt>
      <trkpt lat="37.0314670" lon="-2.2625940">
        <ele>804.4</ele>
        <time>2019-10-18T12:12:04Z</time>
      </trkpt>
      <trkpt lat="37.0314800" lon="-2.2626230">
        <ele>804.5</ele>
        <time>2019-10-18T12:12:05Z</time>
      </trkpt>
      <trkpt lat="37.0314930" lon="-2.2626520">
        <ele>804.7</ele>
        <time>2019-10-18T12:12:06Z</time>
      </trkpt>
      <trkpt lat="37.0315060" lon="-2.2626800">
        <ele>804.9</ele>
        <time>2019-10-18T12:12:07Z</time>
      </trkpt>
      <trkpt lat="37.0315190" lon="-2.2627080">
        <ele>805.1</ele>
        <time>2019-10-18T12:12:08Z</time>
      </trkpt>
      <trkpt lat="37.0315330" lon="-2.2627370">
        <ele>805.3</ele>
        <time>2019-10-18T12:12:09Z</time>
      </trkpt>
      <trkpt lat="37.0315480" lon="-2.2627660">
        <ele>805.5</ele>
        <time>2019-10-18T12:12:10Z</time>
      </trkpt>
      <trkpt lat="37.0315640" lon="-2.2627940">
        <ele>805.7</ele>
        <time>2019-10-18T12:12:11Z</time>
      </trkpt>
      <trkpt lat="37.0315820" lon="-2.2628220">
        <ele>805.9</ele>
        <time>2019-10-18T12:12:12Z</time>
      </trkpt>
      <trkpt lat="37.0315990" lon="-2.2628500">
        <ele>806.1</ele>
        <time>2019-10-18T12:12:13Z</time>
      </trkpt>
      <trkpt lat="37.0316170" lon="-2.2628780">
        <ele>806.3</ele>
        <time>2019-10-18T12:12:14Z</time>
      </trkpt>
      <trkpt lat="37.0316350" lon="-2.2629050">
        <ele>806.5</ele>
        <time>2019-10-18T12:12:15Z</time>
      </trkpt>
      <trkpt lat="37.0316530" lon="-2.2629320">
        <ele>806.6</ele>
        <time>2019-10-18T12:12:16Z</time>
      </trkpt>
      <trkpt lat="37.0316700" lon="-2.2629580">
        <ele>806.8</ele>
        <time>2019-10-18T12:12:17Z</time>
      </trkpt>
      <trkpt lat="37.0316880" lon="-2.2629820">
        <ele>806.9</ele>
        <time>2019-10-18T12:12:18Z</time>
      </trkpt>
      <trkpt lat="37.0317060" lon="-2.2630070">
        <ele>807.1</ele>
        <time>2019-10-18T12:12:19Z</time>
      </trkpt>
      <trkpt lat="37.0317240" lon="-2.2630310">
        <ele>807.2</ele>
        <time>2019-10-18T12:12:20Z</time>
      </trkpt>
      <trkpt lat="37.0317420" lon="-2.2630550">
        <ele>807.3</ele>
        <time>2019-10-18T12:12:21Z</time>
      </trkpt>
      <trkpt lat="37.0317620" lon="-2.2630770">
        <ele>807.4</ele>
        <time>2019-10-18T12:12:22Z</time>
      </trkpt>
      <trkpt lat="37.0317810" lon="-2.2630990">
        <ele>807.5</ele>
        <time>2019-10-18T12:12:23Z</time>
      </trkpt>
      <trkpt lat="37.0317990" lon="-2.2631210">
        <ele>807.7</ele>
        <time>2019-10-18T12:12:24Z</time>
      </trkpt>
      <trkpt lat="37.0318170" lon="-2.2631430">
        <ele>807.8</ele>
        <time>2019-10-18T12:12:25Z</time>
      </trkpt>
      <trkpt lat="37.0318350" lon="-2.2631650">
        <ele>807.9</ele>
        <time>2019-10-18T12:12:26Z</time>
      </trkpt>
      <trkpt lat="37.0318530" lon="-2.2631870">
        <ele>808.0</ele>
        <time>2019-10-18T12:12:27Z</time>
      </trkpt>
      <trkpt lat="37.0318710" lon="-2.2632090">
        <ele>808.2</ele>
        <time>2019-10-18T12:12:28Z</time>
      </trkpt>
      <trkpt lat="37.0318890" lon="-2.2632300">
        <ele>808.3</ele>
        <time>2019-10-18T12:12:29Z</time>
      </trkpt>
      <trkpt lat="37.0319060" lon="-2.2632510">
        <ele>808.5</ele>
        <time>2019-10-18T12:12:30Z</time>
      </trkpt>
      <trkpt lat="37.0319240" lon="-2.2632710">
        <ele>808.6</ele>
        <time>2019-10-18T12:12:31Z</time>
      </trkpt>
      <trkpt lat="37.0319410" lon="-2.2632920">
        <ele>808.8</ele>
        <time>2019-10-18T12:12:32Z</time>
      </trkpt>
      <trkpt lat="37.0319580" lon="-2.2633140">
        <ele>808.9</ele>
        <time>2019-10-18T12:12:33Z</time>
      </trkpt>
      <trkpt lat="37.0319740" lon="-2.2633370">
        <ele>809.1</ele>
        <time>2019-10-18T12:12:34Z</time>
      </trkpt>
      <trkpt lat="37.0319900" lon="-2.2633600">
        <ele>809.3</ele>
        <time>2019-10-18T12:12:35Z</time>
      </trkpt>
      <trkpt lat="37.0320060" lon="-2.2633820">
        <ele>809.4</ele>
        <time>2019-10-18T12:12:36Z</time>
      </trkpt>
      <trkpt lat="37.0320230" lon="-2.2634040">
        <ele>809.6</ele>
        <time>2019-10-18T12:12:37Z</time>
      </trkpt>
      <trkpt lat="37.0320390" lon="-2.2634250">
        <ele>809.7</ele>
        <time>2019-10-18T12:12:38Z</time>
      </trkpt>
      <trkpt lat="37.0320550" lon="-2.2634470">
        <ele>809.9</ele>
        <time>2019-10-18T12:12:39Z</time>
      </trkpt>
      <trkpt lat="37.0320700" lon="-2.2634690">
        <ele>810.1</ele>
        <time>2019-10-18T12:12:40Z</time>
      </trkpt>
      <trkpt lat="37.0320850" lon="-2.2634920">
        <ele>810.2</ele>
        <time>2019-10-18T12:12:41Z</time>
      </trkpt>
      <trkpt lat="37.0320980" lon="-2.2635150">
        <ele>810.4</ele>
        <time>2019-10-18T12:12:42Z</time>
      </trkpt>
      <trkpt lat="37.0321110" lon="-2.2635390">
        <ele>810.5</ele>
        <time>2019-10-18T12:12:43Z</time>
      </trkpt>
      <trkpt lat="37.0321230" lon="-2.2635640">
        <ele>810.7</ele>
        <time>2019-10-18T12:12:44Z</time>
      </trkpt>
      <trkpt lat="37.0321310" lon="-2.2635910">
        <ele>810.9</ele>
        <time>2019-10-18T12:12:45Z</time>
      </trkpt>
      <trkpt lat="37.0321350" lon="-2.2636210">
        <ele>811.1</ele>
        <time>2019-10-18T12:12:46Z</time>
      </trkpt>
      <trkpt lat="37.0321370" lon="-2.2636510">
        <ele>811.4</ele>
        <time>2019-10-18T12:12:47Z</time>
      </trkpt>
      <trkpt lat="37.0321400" lon="-2.2636810">
        <ele>811.6</ele>
        <time>2019-10-18T12:12:48Z</time>
      </trkpt>
      <trkpt lat="37.0321400" lon="-2.2637110">
        <ele>811.8</ele>
        <time>2019-10-18T12:12:49Z</time>
      </trkpt>
      <trkpt lat="37.0321360" lon="-2.2637390">
        <ele>812.0</ele>
        <time>2019-10-18T12:12:50Z</time>
      </trkpt>
      <trkpt lat="37.0321270" lon="-2.2637660">
        <ele>812.2</ele>
        <time>2019-10-18T12:12:51Z</time>
      </trkpt>
      <trkpt lat="37.0321140" lon="-2.2637930">
        <ele>812.4</ele>
        <time>2019-10-18T12:12:52Z</time>
      </trkpt>
      <trkpt lat="37.0320990" lon="-2.2638170">
        <ele>812.6</ele>
        <time>2019-10-18T12:12:53Z</time>
      </trkpt>
      <trkpt lat="37.0320800" lon="-2.2638390">
        <ele>812.8</ele>
        <time>2019-10-18T12:12:54Z</time>
      </trkpt>
      <trkpt lat="37.0320600" lon="-2.2638580">
        <ele>812.9</ele>
        <time>2019-10-18T12:12:55Z</time>
      </trkpt>
      <trkpt lat="37.0320380" lon="-2.2638750">
        <ele>813.1</ele>
        <time>2019-10-18T12:12:56Z</time>
      </trkpt>
      <trkpt lat="37.0320160" lon="-2.2638900">
        <ele>813.3</ele>
        <time>2019-10-18T12:12:57Z</time>
      </trkpt>
      <trkpt lat="37.0319930" lon="-2.2639020">
        <ele>813.5</ele>
        <time>2019-10-18T12:12:58Z</time>
      </trkpt>
      <trkpt lat="37.0319700" lon="-2.2639080">
        <ele>813.7</ele>
        <time>2019-10-18T12:12:59Z</time>
      </trkpt>
      <trkpt lat="37.0319460" lon="-2.2639090">
        <ele>813.9</ele>
        <time>2019-10-18T12:13:00Z</time>
      </trkpt>
      <trkpt lat="37.0319220" lon="-2.2639060">
        <ele>814.1</ele>
        <time>2019-10-18T12:13:01Z</time>
      </trkpt>
      <trkpt lat="37.0318990" lon="-2.2638980">
        <ele>814.2</ele>
        <time>2019-10-18T12:13:02Z</time>
      </trkpt>
      <trkpt lat="37.0318770" lon="-2.2638850">
        <ele>814.4</ele>
        <time>2019-10-18T12:13:03Z</time>
      </trkpt>
      <trkpt lat="37.0318560" lon="-2.2638690">
        <ele>814.6</ele>
        <time>2019-10-18T12:13:04Z</time>
      </trkpt>
      <trkpt lat="37.0318390" lon="-2.2638480">
        <ele>814.7</ele>
        <time>2019-10-18T12:13:05Z</time>
      </trkpt>
      <trkpt lat="37.0318230" lon="-2.2638240">
        <ele>814.9</ele>
        <time>2019-10-18T12:13:06Z</time>
      </trkpt>
      <trkpt lat="37.0318100" lon="-2.2637970">
        <ele>815.0</ele>
        <time>2019-10-18T12:13:07Z</time>
      </trkpt>
      <trkpt lat="37.0317980" lon="-2.2637690">
        <ele>815.2</ele>
        <time>2019-10-18T12:13:08Z</time>
      </trkpt>
      <trkpt lat="37.0317870" lon="-2.2637410">
        <ele>815.3</ele>
        <time>2019-10-18T12:13:09Z</time>
      </trkpt>
      <trkpt lat="37.0317760" lon="-2.2637130">
        <ele>815.5</ele>
        <time>2019-10-18T12:13:10Z</time>
      </trkpt>
      <trkpt lat="37.0317660" lon="-2.2636840">
        <ele>815.6</ele>
        <time>2019-10-18T12:13:11Z</time>
      </trkpt>
      <trkpt lat="37.0317570" lon="-2.2636540">
        <ele>815.8</ele>
        <time>2019-10-18T12:13:12Z</time>
      </trkpt>
      <trkpt lat="37.0317480" lon="-2.2636240">
        <ele>815.9</ele>
        <time>2019-10-18T12:13:13Z</time>
      </trkpt>
      <trkpt lat="37.0317400" lon="-2.2635930">
        <ele>816.1</ele>
        <time>2019-10-18T12:13:14Z</time>
      </trkpt>
      <trkpt lat="37.0317320" lon="-2.2635630">
        <ele>816.2</ele>
        <time>2019-10-18T12:13:15Z</time>
      </trkpt>
      <trkpt lat="37.0317210" lon="-2.2635330">
        <ele>816.4</ele>
        <time>2019-10-18T12:13:16Z</time>
      </trkpt>
      <trkpt lat="37.0317070" lon="-2.2635060">
        <ele>816.6</ele>
        <time>2019-10-18T12:13:17Z</time>
      </trkpt>
      <trkpt lat="37.0316910" lon="-2.2634810">
        <ele>816.7</ele>
        <time>2019-10-18T12:13:18Z</time>
      </trkpt>
      <trkpt lat="37.0316730" lon="-2.2634580">
        <ele>816.9</ele>
        <time>2019-10-18T12:13:19Z</time>
      </trkpt>
      <trkpt lat="37.0316540" lon="-2.2634370">
        <ele>817.0</ele>
        <time>2019-10-18T12:13:20Z</time>
      </trkpt>
      <trkpt lat="37.0316350" lon="-2.2634180">
        <ele>817.2</ele>
        <time>2019-10-18T12:13:21Z</time>
      </trkpt>
      <trkpt lat="37.0316160" lon="-2.2633990">
        <ele>817.4</ele>
        <time>2019-10-18T12:13:22Z</time>
      </trkpt>
      <trkpt lat="37.0315970" lon="-2.2633810">
        <ele>817.5</ele>
        <time>2019-10-18T12:13:23Z</time>
      </trkpt>
      <trkpt lat="37.0315790" lon="-2.2633640">
        <ele>817.7</ele>
        <time>2019-10-18T12:13:24Z</time>
      </trkpt>
      <trkpt lat="37.0315600" lon="-2.2633470">
        <ele>817.8</ele>
        <time>2019-10-18T12:13:25Z</time>
      </trkpt>
      <trkpt lat="37.0315410" lon="-2.2633300">
        <ele>818.0</ele>
        <time>2019-10-18T12:13:26Z</time>
      </trkpt>
      <trkpt lat="37.0315210" lon="-2.2633140">
        <ele>818.1</ele>
        <time>2019-10-18T12:13:27Z</time>
      </trkpt>
      <trkpt lat="37.0315000" lon="-2.2632990">
        <ele>818.3</ele>
        <time>2019-10-18T12:13:28Z</time>
      </trkpt>
      <trkpt lat="37.0314790" lon="-2.2632840">
        <ele>818.5</ele>
        <time>2019-10-18T12:13:29Z</time>
      </trkpt>
      <trkpt lat="37.0314580" lon="-2.2632680">
        <ele>818.7</ele>
        <time>2019-10-18T12:13:30Z</time>
      </trkpt>
      <trkpt lat="37.0314380" lon="-2.2632510">
        <ele>818.9</ele>
        <time>2019-10-18T12:13:31Z</time>
      </trkpt>
      <trkpt lat="37.0314180" lon="-2.2632330">
        <ele>819.1</ele>
        <time>2019-10-18T12:13:32Z</time>
      </trkpt>
      <trkpt lat="37.0313980" lon="-2.2632150">
        <ele>819.3</ele>
        <time>2019-10-18T12:13:33Z</time>
      </trkpt>
      <trkpt lat="37.0313770" lon="-2.2632000">
        <ele>819.5</ele>
        <time>2019-10-18T12:13:34Z</time>
      </trkpt>
      <trkpt lat="37.0313560" lon="-2.2631860">
        <ele>819.6</ele>
        <time>2019-10-18T12:13:35Z</time>
      </trkpt>
      <trkpt lat="37.0313350" lon="-2.2631720">
        <ele>819.8</ele>
        <time>2019-10-18T12:13:36Z</time>
      </trkpt>
      <trkpt lat="37.0313140" lon="-2.2631560">
        <ele>820.0</ele>
        <time>2019-10-18T12:13:37Z</time>
      </trkpt>
      <trkpt lat="37.0312950" lon="-2.2631400">
        <ele>820.2</ele>
        <time>2019-10-18T12:13:38Z</time>
      </trkpt>
      <trkpt lat="37.0312760" lon="-2.2631230">
        <ele>820.4</ele>
        <time>2019-10-18T12:13:39Z</time>
      </trkpt>
      <trkpt lat="37.0312560" lon="-2.2631060">
        <ele>820.6</ele>
        <time>2019-10-18T12:13:40Z</time>
      </trkpt>
      <trkpt lat="37.0312350" lon="-2.2630890">
        <ele>820.8</ele>
        <time>2019-10-18T12:13:41Z</time>
      </trkpt>
      <trkpt lat="37.0312150" lon="-2.2630730">
        <ele>821.0</ele>
        <time>2019-10-18T12:13:42Z</time>
      </trkpt>
      <trkpt lat="37.0311940" lon="-2.2630580">
        <ele>821.2</ele>
        <time>2019-10-18T12:13:43Z</time>
      </trkpt>
      <trkpt lat="37.0311730" lon="-2.2630440">
        <ele>821.4</ele>
        <time>2019-10-18T12:13:44Z</time>
      </trkpt>
      <trkpt lat="37.0311530" lon="-2.2630290">
        <ele>821.6</ele>
        <time>2019-10-18T12:13:45Z</time>
      </trkpt>
      <trkpt lat="37.0311330" lon="-2.2630140">
        <ele>821.8</ele>
        <time>2019-10-18T12:13:46Z</time>
      </trkpt>
      <trkpt lat="37.0311130" lon="-2.2630010">
        <ele>822.0</ele>
        <time>2019-10-18T12:13:47Z</time>
      </trkpt>
      <trkpt lat="37.0310920" lon="-2.2629920">
        <ele>822.1</ele>
        <time>2019-10-18T12:13:48Z</time>
      </trkpt>
      <trkpt lat="37.0310710" lon="-2.2629840">
        <ele>822.3</ele>
        <time>2019-10-18T12:13:49Z</time>
      </trkpt>
      <trkpt lat="37.0310510" lon="-2.2629770">
        <ele>822.5</ele>
        <time>2019-10-18T12:13:50Z</time>
      </trkpt>
      <trkpt lat="37.0310310" lon="-2.2629720">
        <ele>822.6</ele>
        <time>2019-10-18T12:13:51Z</time>
      </trkpt>
      <trkpt lat="37.0310110" lon="-2.2629680">
        <ele>822.8</ele>
        <time>2019-10-18T12:13:52Z</time>
      </trkpt>
      <trkpt lat="37.0309890" lon="-2.2629650">
        <ele>822.9</ele>
        <time>2019-10-18T12:13:53Z</time>
      </trkpt>
      <trkpt lat="37.0309670" lon="-2.2629630">
        <ele>823.1</ele>
        <time>2019-10-18T12:13:54Z</time>
      </trkpt>
      <trkpt lat="37.0309440" lon="-2.2629620">
        <ele>823.3</ele>
        <time>2019-10-18T12:13:55Z</time>
      </trkpt>
      <trkpt lat="37.0309230" lon="-2.2629610">
        <ele>823.6</ele>
        <time>2019-10-18T12:13:56Z</time>
      </trkpt>
      <trkpt lat="37.0309020" lon="-2.2629600">
        <ele>824.3</ele>
        <time>2019-10-18T12:13:57Z</time>
      </trkpt>
      <trkpt lat="37.0308820" lon="-2.2629620">
        <ele>824.9</ele>
        <time>2019-10-18T12:13:58Z</time>
      </trkpt>
      <trkpt lat="37.0308620" lon="-2.2629680">
        <ele>825.5</ele>
        <time>2019-10-18T12:13:59Z</time>
      </trkpt>
      <trkpt lat="37.0308410" lon="-2.2629760">
        <ele>826.2</ele>
        <time>2019-10-18T12:14:00Z</time>
      </trkpt>
      <trkpt lat="37.0308210" lon="-2.2629850">
        <ele>826.8</ele>
        <time>2019-10-18T12:14:01Z</time>
      </trkpt>
      <trkpt lat="37.0308000" lon="-2.2629940">
        <ele>827.6</ele>
        <time>2019-10-18T12:14:02Z</time>
      </trkpt>
      <trkpt lat="37.0307800" lon="-2.2630030">
        <ele>828.3</ele>
        <time>2019-10-18T12:14:03Z</time>
      </trkpt>
      <trkpt lat="37.0307590" lon="-2.2630140">
        <ele>829.2</ele>
        <time>2019-10-18T12:14:04Z</time>
      </trkpt>
      <trkpt lat="37.0307380" lon="-2.2630240">
        <ele>829.9</ele>
        <time>2019-10-18T12:14:05Z</time>
      </trkpt>
      <trkpt lat="37.0307170" lon="-2.2630350">
        <ele>830.5</ele>
        <time>2019-10-18T12:14:06Z</time>
      </trkpt>
      <trkpt lat="37.0306970" lon="-2.2630470">
        <ele>831.0</ele>
        <time>2019-10-18T12:14:07Z</time>
      </trkpt>
      <trkpt lat="37.0306760" lon="-2.2630600">
        <ele>831.6</ele>
        <time>2019-10-18T12:14:08Z</time>
      </trkpt>
      <trkpt lat="37.0306560" lon="-2.2630720">
        <ele>832.1</ele>
        <time>2019-10-18T12:14:09Z</time>
      </trkpt>
      <trkpt lat="37.0306350" lon="-2.2630840">
        <ele>832.7</ele>
        <time>2019-10-18T12:14:10Z</time>
      </trkpt>
      <trkpt lat="37.0306130" lon="-2.2630950">
        <ele>833.3</ele>
        <time>2019-10-18T12:14:11Z</time>
      </trkpt>
      <trkpt lat="37.0305920" lon="-2.2631080">
        <ele>833.9</ele>
        <time>2019-10-18T12:14:12Z</time>
      </trkpt>
      <trkpt lat="37.0305710" lon="-2.2631220">
        <ele>834.5</ele>
        <time>2019-10-18T12:14:13Z</time>
      </trkpt>
      <trkpt lat="37.0305500" lon="-2.2631350">
        <ele>835.1</ele>
        <time>2019-10-18T12:14:14Z</time>
      </trkpt>
      <trkpt lat="37.0305290" lon="-2.2631480">
        <ele>835.7</ele>
        <time>2019-10-18T12:14:15Z</time>
      </trkpt>
      <trkpt lat="37.0305080" lon="-2.2631610">
        <ele>836.3</ele>
        <time>2019-10-18T12:14:16Z</time>
      </trkpt>
      <trkpt lat="37.0304870" lon="-2.2631750">
        <ele>836.9</ele>
        <time>2019-10-18T12:14:17Z</time>
      </trkpt>
      <trkpt lat="37.0304670" lon="-2.2631890">
        <ele>837.5</ele>
        <time>2019-10-18T12:14:18Z</time>
      </trkpt>
      <trkpt lat="37.0304450" lon="-2.2632030">
        <ele>838.2</ele>
        <time>2019-10-18T12:14:19Z</time>
      </trkpt>
      <trkpt lat="37.0304220" lon="-2.2632170">
        <ele>838.8</ele>
        <time>2019-10-18T12:14:20Z</time>
      </trkpt>
      <trkpt lat="37.0303990" lon="-2.2632310">
        <ele>840.3</ele>
        <time>2019-10-18T12:14:21Z</time>
      </trkpt>
      <trkpt lat="37.0303750" lon="-2.2632450">
        <ele>840.3</ele>
        <time>2019-10-18T12:14:22Z</time>
      </trkpt>
      <trkpt lat="37.0303550" lon="-2.2632600">
        <ele>840.3</ele>
        <time>2019-10-18T12:14:23Z</time>
      </trkpt>
      <trkpt lat="37.0303380" lon="-2.2632780">
        <ele>840.7</ele>
        <time>2019-10-18T12:14:24Z</time>
      </trkpt>
      <trkpt lat="37.0303240" lon="-2.2632990">
        <ele>841.0</ele>
        <time>2019-10-18T12:14:25Z</time>
      </trkpt>
      <trkpt lat="37.0303120" lon="-2.2633200">
        <ele>841.3</ele>
        <time>2019-10-18T12:14:26Z</time>
      </trkpt>
      <trkpt lat="37.0303010" lon="-2.2633410">
        <ele>841.5</ele>
        <time>2019-10-18T12:14:27Z</time>
      </trkpt>
      <trkpt lat="37.0302920" lon="-2.2633610">
        <ele>842.0</ele>
        <time>2019-10-18T12:14:28Z</time>
      </trkpt>
      <trkpt lat="37.0302840" lon="-2.2633760">
        <ele>842.5</ele>
        <time>2019-10-18T12:14:29Z</time>
      </trkpt>
      <trkpt lat="37.0302750" lon="-2.2633870">
        <ele>843.0</ele>
        <time>2019-10-18T12:14:30Z</time>
      </trkpt>
      <trkpt lat="37.0302660" lon="-2.2633940">
        <ele>843.4</ele>
        <time>2019-10-18T12:14:31Z</time>
      </trkpt>
      <trkpt lat="37.0302540" lon="-2.2634000">
        <ele>843.7</ele>
        <time>2019-10-18T12:14:32Z</time>
      </trkpt>
      <trkpt lat="37.0302390" lon="-2.2634080">
        <ele>843.8</ele>
        <time>2019-10-18T12:14:33Z</time>
      </trkpt>
      <trkpt lat="37.0302210" lon="-2.2634170">
        <ele>843.9</ele>
        <time>2019-10-18T12:14:34Z</time>
      </trkpt>
      <trkpt lat="37.0302020" lon="-2.2634270">
        <ele>844.0</ele>
        <time>2019-10-18T12:14:35Z</time>
      </trkpt>
      <trkpt lat="37.0301850" lon="-2.2634380">
        <ele>844.2</ele>
        <time>2019-10-18T12:14:36Z</time>
      </trkpt>
      <trkpt lat="37.0301700" lon="-2.2634520">
        <ele>844.3</ele>
        <time>2019-10-18T12:14:37Z</time>
      </trkpt>
      <trkpt lat="37.0301570" lon="-2.2634710">
        <ele>844.4</ele>
        <time>2019-10-18T12:14:38Z</time>
      </trkpt>
      <trkpt lat="37.0301450" lon="-2.2634910">
        <ele>844.5</ele>
        <time>2019-10-18T12:14:39Z</time>
      </trkpt>
      <trkpt lat="37.0301340" lon="-2.2635140">
        <ele>844.6</ele>
        <time>2019-10-18T12:14:40Z</time>
      </trkpt>
      <trkpt lat="37.0301220" lon="-2.2635370">
        <ele>844.7</ele>
        <time>2019-10-18T12:14:41Z</time>
      </trkpt>
      <trkpt lat="37.0301110" lon="-2.2635620">
        <ele>844.8</ele>
        <time>2019-10-18T12:14:42Z</time>
      </trkpt>
      <trkpt lat="37.0301000" lon="-2.2635890">
        <ele>844.9</ele>
        <time>2019-10-18T12:14:43Z</time>
      </trkpt>
      <trkpt lat="37.0300900" lon="-2.2636170">
        <ele>845.0</ele>
        <time>2019-10-18T12:14:44Z</time>
      </trkpt>
      <trkpt lat="37.0300810" lon="-2.2636450">
        <ele>845.0</ele>
        <time>2019-10-18T12:14:45Z</time>
      </trkpt>
      <trkpt lat="37.0300730" lon="-2.2636710">
        <ele>845.1</ele>
        <time>2019-10-18T12:14:46Z</time>
      </trkpt>
      <trkpt lat="37.0300650" lon="-2.2636960">
        <ele>845.1</ele>
        <time>2019-10-18T12:14:47Z</time>
      </trkpt>
      <trkpt lat="37.0300560" lon="-2.2637210">
        <ele>845.1</ele>
        <time>2019-10-18T12:14:48Z</time>
      </trkpt>
      <trkpt lat="37.0300470" lon="-2.2637460">
        <ele>845.2</ele>
        <time>2019-10-18T12:14:49Z</time>
      </trkpt>
      <trkpt lat="37.0300390" lon="-2.2637720">
        <ele>845.3</ele>
        <time>2019-10-18T12:14:50Z</time>
      </trkpt>
      <trkpt lat="37.0300320" lon="-2.2637980">
        <ele>845.3</ele>
        <time>2019-10-18T12:14:51Z</time>
      </trkpt>
      <trkpt lat="37.0300260" lon="-2.2638250">
        <ele>845.4</ele>
        <time>2019-10-18T12:14:52Z</time>
      </trkpt>
      <trkpt lat="37.0300190" lon="-2.2638500">
        <ele>845.5</ele>
        <time>2019-10-18T12:14:53Z</time>
      </trkpt>
      <trkpt lat="37.0300110" lon="-2.2638760">
        <ele>845.5</ele>
        <time>2019-10-18T12:14:54Z</time>
      </trkpt>
      <trkpt lat="37.0300020" lon="-2.2638990">
        <ele>845.6</ele>
        <time>2019-10-18T12:14:55Z</time>
      </trkpt>
      <trkpt lat="37.0299920" lon="-2.2639220">
        <ele>845.7</ele>
        <time>2019-10-18T12:14:56Z</time>
      </trkpt>
      <trkpt lat="37.0299810" lon="-2.2639440">
        <ele>845.8</ele>
        <time>2019-10-18T12:14:57Z</time>
      </trkpt>
      <trkpt lat="37.0299690" lon="-2.2639650">
        <ele>845.9</ele>
        <time>2019-10-18T12:14:58Z</time>
      </trkpt>
      <trkpt lat="37.0299580" lon="-2.2639850">
        <ele>845.9</ele>
        <time>2019-10-18T12:14:59Z</time>
      </trkpt>
      <trkpt lat="37.0299490" lon="-2.2640040">
        <ele>846.0</ele>
        <time>2019-10-18T12:15:00Z</time>
      </trkpt>
      <trkpt lat="37.0299410" lon="-2.2640240">
        <ele>846.1</ele>
        <time>2019-10-18T12:15:01Z</time>
      </trkpt>
      <trkpt lat="37.0299330" lon="-2.2640440">
        <ele>846.2</ele>
        <time>2019-10-18T12:15:02Z</time>
      </trkpt>
      <trkpt lat="37.0299260" lon="-2.2640640">
        <ele>846.2</ele>
        <time>2019-10-18T12:15:03Z</time>
      </trkpt>
      <trkpt lat="37.0299200" lon="-2.2640850">
        <ele>846.3</ele>
        <time>2019-10-18T12:15:04Z</time>
      </trkpt>
      <trkpt lat="37.0299130" lon="-2.2641060">
        <ele>846.4</ele>
        <time>2019-10-18T12:15:05Z</time>
      </trkpt>
      <trkpt lat="37.0299050" lon="-2.2641290">
        <ele>846.4</ele>
        <time>2019-10-18T12:15:06Z</time>
      </trkpt>
      <trkpt lat="37.0298970" lon="-2.2641510">
        <ele>846.5</ele>
        <time>2019-10-18T12:15:07Z</time>
      </trkpt>
      <trkpt lat="37.0298870" lon="-2.2641720">
        <ele>846.7</ele>
        <time>2019-10-18T12:15:08Z</time>
      </trkpt>
      <trkpt lat="37.0298770" lon="-2.2641920">
        <ele>846.7</ele>
        <time>2019-10-18T12:15:09Z</time>
      </trkpt>
      <trkpt lat="37.0298660" lon="-2.2642140">
        <ele>846.8</ele>
        <time>2019-10-18T12:15:10Z</time>
      </trkpt>
      <trkpt lat="37.0298540" lon="-2.2642390">
        <ele>846.8</ele>
        <time>2019-10-18T12:15:11Z</time>
      </trkpt>
      <trkpt lat="37.0298430" lon="-2.2642620">
        <ele>846.8</ele>
        <time>2019-10-18T12:15:12Z</time>
      </trkpt>
      <trkpt lat="37.0298320" lon="-2.2642850">
        <ele>846.8</ele>
        <time>2019-10-18T12:15:13Z</time>
      </trkpt>
      <trkpt lat="37.0298200" lon="-2.2643070">
        <ele>846.9</ele>
        <time>2019-10-18T12:15:14Z</time>
      </trkpt>
      <trkpt lat="37.0298080" lon="-2.2643290">
        <ele>846.9</ele>
        <time>2019-10-18T12:15:15Z</time>
      </trkpt>
      <trkpt lat="37.0297960" lon="-2.2643500">
        <ele>846.9</ele>
        <time>2019-10-18T12:15:16Z</time>
      </trkpt>
      <trkpt lat="37.0297830" lon="-2.2643700">
        <ele>846.9</ele>
        <time>2019-10-18T12:15:17Z</time>
      </trkpt>
      <trkpt lat="37.0297680" lon="-2.2643900">
        <ele>847.0</ele>
        <time>2019-10-18T12:15:18Z</time>
      </trkpt>
      <trkpt lat="37.0297530" lon="-2.2644090">
        <ele>847.1</ele>
        <time>2019-10-18T12:15:19Z</time>
      </trkpt>
      <trkpt lat="37.0297370" lon="-2.2644290">
        <ele>847.3</ele>
        <time>2019-10-18T12:15:20Z</time>
      </trkpt>
      <trkpt lat="37.0297220" lon="-2.2644490">
        <ele>847.4</ele>
        <time>2019-10-18T12:15:21Z</time>
      </trkpt>
      <trkpt lat="37.0297070" lon="-2.2644680">
        <ele>847.6</ele>
        <time>2019-10-18T12:15:22Z</time>
      </trkpt>
      <trkpt lat="37.0296920" lon="-2.2644870">
        <ele>847.7</ele>
        <time>2019-10-18T12:15:23Z</time>
      </trkpt>
      <trkpt lat="37.0296760" lon="-2.2645050">
        <ele>847.9</ele>
        <time>2019-10-18T12:15:24Z</time>
      </trkpt>
      <trkpt lat="37.0296580" lon="-2.2645240">
        <ele>848.1</ele>
        <time>2019-10-18T12:15:25Z</time>
      </trkpt>
      <trkpt lat="37.0296400" lon="-2.2645430">
        <ele>848.2</ele>
        <time>2019-10-18T12:15:26Z</time>
      </trkpt>
      <trkpt lat="37.0296210" lon="-2.2645620">
        <ele>848.4</ele>
        <time>2019-10-18T12:15:27Z</time>
      </trkpt>
      <trkpt lat="37.0296050" lon="-2.2645830">
        <ele>848.5</ele>
        <time>2019-10-18T12:15:28Z</time>
      </trkpt>
      <trkpt lat="37.0295890" lon="-2.2646040">
        <ele>848.6</ele>
        <time>2019-10-18T12:15:29Z</time>
      </trkpt>
      <trkpt lat="37.0295730" lon="-2.2646250">
        <ele>848.8</ele>
        <time>2019-10-18T12:15:30Z</time>
      </trkpt>
      <trkpt lat="37.0295570" lon="-2.2646460">
        <ele>848.9</ele>
        <time>2019-10-18T12:15:31Z</time>
      </trkpt>
      <trkpt lat="37.0295410" lon="-2.2646680">
        <ele>848.8</ele>
        <time>2019-10-18T12:15:32Z</time>
      </trkpt>
      <trkpt lat="37.0295240" lon="-2.2646910">
        <ele>848.6</ele>
        <time>2019-10-18T12:15:33Z</time>
      </trkpt>
      <trkpt lat="37.0295060" lon="-2.2647130">
        <ele>848.5</ele>
        <time>2019-10-18T12:15:34Z</time>
      </trkpt>
      <trkpt lat="37.0294860" lon="-2.2647330">
        <ele>848.3</ele>
        <time>2019-10-18T12:15:35Z</time>
      </trkpt>
      <trkpt lat="37.0294620" lon="-2.2647490">
        <ele>848.1</ele>
        <time>2019-10-18T12:15:36Z</time>
      </trkpt>
      <trkpt lat="37.0294370" lon="-2.2647580">
        <ele>848.4</ele>
        <time>2019-10-18T12:15:37Z</time>
      </trkpt>
      <trkpt lat="37.0294140" lon="-2.2647650">
        <ele>848.7</ele>
        <time>2019-10-18T12:15:38Z</time>
      </trkpt>
      <trkpt lat="37.0293950" lon="-2.2647690">
        <ele>848.9</ele>
        <time>2019-10-18T12:15:39Z</time>
      </trkpt>
      <trkpt lat="37.0293780" lon="-2.2647700">
        <ele>849.1</ele>
        <time>2019-10-18T12:15:40Z</time>
      </trkpt>
      <trkpt lat="37.0293610" lon="-2.2647700">
        <ele>849.3</ele>
        <time>2019-10-18T12:15:41Z</time>
      </trkpt>
      <trkpt lat="37.0293460" lon="-2.2647690">
        <ele>849.5</ele>
        <time>2019-10-18T12:15:42Z</time>
      </trkpt>
      <trkpt lat="37.0293320" lon="-2.2647700">
        <ele>849.7</ele>
        <time>2019-10-18T12:15:43Z</time>
      </trkpt>
      <trkpt lat="37.0293160" lon="-2.2647690">
        <ele>849.9</ele>
        <time>2019-10-18T12:15:44Z</time>
      </trkpt>
      <trkpt lat="37.0292980" lon="-2.2647650">
        <ele>850.1</ele>
        <time>2019-10-18T12:15:45Z</time>
      </trkpt>
      <trkpt lat="37.0292780" lon="-2.2647570">
        <ele>850.3</ele>
        <time>2019-10-18T12:15:46Z</time>
      </trkpt>
      <trkpt lat="37.0292590" lon="-2.2647480">
        <ele>850.6</ele>
        <time>2019-10-18T12:15:47Z</time>
      </trkpt>
      <trkpt lat="37.0292420" lon="-2.2647400">
        <ele>850.8</ele>
        <time>2019-10-18T12:15:48Z</time>
      </trkpt>
      <trkpt lat="37.0292250" lon="-2.2647310">
        <ele>851.0</ele>
        <time>2019-10-18T12:15:49Z</time>
      </trkpt>
      <trkpt lat="37.0292080" lon="-2.2647220">
        <ele>851.2</ele>
        <time>2019-10-18T12:15:50Z</time>
      </trkpt>
      <trkpt lat="37.0291910" lon="-2.2647130">
        <ele>851.6</ele>
        <time>2019-10-18T12:15:51Z</time>
      </trkpt>
      <trkpt lat="37.0291720" lon="-2.2647050">
        <ele>851.9</ele>
        <time>2019-10-18T12:15:52Z</time>
      </trkpt>
      <trkpt lat="37.0291530" lon="-2.2646970">
        <ele>852.1</ele>
        <time>2019-10-18T12:15:53Z</time>
      </trkpt>
      <trkpt lat="37.0291340" lon="-2.2646860">
        <ele>852.4</ele>
        <time>2019-10-18T12:15:54Z</time>
      </trkpt>
      <trkpt lat="37.0291150" lon="-2.2646750">
        <ele>852.7</ele>
        <time>2019-10-18T12:15:55Z</time>
      </trkpt>
      <trkpt lat="37.0290950" lon="-2.2646630">
        <ele>853.0</ele>
        <time>2019-10-18T12:15:56Z</time>
      </trkpt>
      <trkpt lat="37.0290740" lon="-2.2646530">
        <ele>853.2</ele>
        <time>2019-10-18T12:15:57Z</time>
      </trkpt>
      <trkpt lat="37.0290510" lon="-2.2646460">
        <ele>853.5</ele>
        <time>2019-10-18T12:15:58Z</time>
      </trkpt>
      <trkpt lat="37.0290290" lon="-2.2646400">
        <ele>853.8</ele>
        <time>2019-10-18T12:15:59Z</time>
      </trkpt>
      <trkpt lat="37.0290070" lon="-2.2646350">
        <ele>854.1</ele>
        <time>2019-10-18T12:16:00Z</time>
      </trkpt>
      <trkpt lat="37.0289850" lon="-2.2646310">
        <ele>854.3</ele>
        <time>2019-10-18T12:16:01Z</time>
      </trkpt>
      <trkpt lat="37.0289620" lon="-2.2646260">
        <ele>854.5</ele>
        <time>2019-10-18T12:16:02Z</time>
      </trkpt>
      <trkpt lat="37.0289400" lon="-2.2646220">
        <ele>854.7</ele>
        <time>2019-10-18T12:16:03Z</time>
      </trkpt>
      <trkpt lat="37.0289170" lon="-2.2646170">
        <ele>854.9</ele>
        <time>2019-10-18T12:16:04Z</time>
      </trkpt>
      <trkpt lat="37.0288950" lon="-2.2646140">
        <ele>855.1</ele>
        <time>2019-10-18T12:16:05Z</time>
      </trkpt>
      <trkpt lat="37.0288720" lon="-2.2646100">
        <ele>855.3</ele>
        <time>2019-10-18T12:16:06Z</time>
      </trkpt>
      <trkpt lat="37.0288500" lon="-2.2646060">
        <ele>855.5</ele>
        <time>2019-10-18T12:16:07Z</time>
      </trkpt>
      <trkpt lat="37.0288280" lon="-2.2646010">
        <ele>855.7</ele>
        <time>2019-10-18T12:16:08Z</time>
      </trkpt>
      <trkpt lat="37.0288070" lon="-2.2645960">
        <ele>855.9</ele>
        <time>2019-10-18T12:16:09Z</time>
      </trkpt>
      <trkpt lat="37.0287870" lon="-2.2645920">
        <ele>856.1</ele>
        <time>2019-10-18T12:16:10Z</time>
      </trkpt>
      <trkpt lat="37.0287680" lon="-2.2645890">
        <ele>856.2</ele>
        <time>2019-10-18T12:16:11Z</time>
      </trkpt>
      <trkpt lat="37.0287510" lon="-2.2645900">
        <ele>856.4</ele>
        <time>2019-10-18T12:16:12Z</time>
      </trkpt>
      <trkpt lat="37.0287400" lon="-2.2645920">
        <ele>856.5</ele>
        <time>2019-10-18T12:16:13Z</time>
      </trkpt>
      <trkpt lat="37.0287340" lon="-2.2645950">
        <ele>856.5</ele>
        <time>2019-10-18T12:16:14Z</time>
      </trkpt>
      <trkpt lat="37.0287320" lon="-2.2645970">
        <ele>856.6</ele>
        <time>2019-10-18T12:16:15Z</time>
      </trkpt>
      <trkpt lat="37.0287280" lon="-2.2645980">
        <ele>856.6</ele>
        <time>2019-10-18T12:16:16Z</time>
      </trkpt>
      <trkpt lat="37.0287240" lon="-2.2645990">
        <ele>856.6</ele>
        <time>2019-10-18T12:16:17Z</time>
      </trkpt>
      <trkpt lat="37.0287190" lon="-2.2646010">
        <ele>856.7</ele>
        <time>2019-10-18T12:16:18Z</time>
      </trkpt>
      <trkpt lat="37.0287160" lon="-2.2646020">
        <ele>857.1</ele>
        <time>2019-10-18T12:16:19Z</time>
      </trkpt>
      <trkpt lat="37.0287130" lon="-2.2646020">
        <ele>857.1</ele>
        <time>2019-10-18T12:16:20Z</time>
      </trkpt>
      <trkpt lat="37.0287110" lon="-2.2646010">
        <ele>857.1</ele>
        <time>2019-10-18T12:16:21Z</time>
      </trkpt>
      <trkpt lat="37.0287100" lon="-2.2646010">
        <ele>857.1</ele>
        <time>2019-10-18T12:16:22Z</time>
      </trkpt>
      <trkpt lat="37.0287080" lon="-2.2646010">
        <ele>857.1</ele>
        <time>2019-10-18T12:16:23Z</time>
      </trkpt>
      <trkpt lat="37.0287070" lon="-2.2646020">
        <ele>857.1</ele>
        <time>2019-10-18T12:16:24Z</time>
      </trkpt>
      <trkpt lat="37.0287060" lon="-2.2646030">
        <ele>857.1</ele>
        <time>2019-10-18T12:16:25Z</time>
      </trkpt>
      <trkpt lat="37.0287060" lon="-2.2646030">
        <ele>857.1</ele>
        <time>2019-10-18T12:16:26Z</time>
      </trkpt>
      <trkpt lat="37.0287060" lon="-2.2646030">
        <ele>857.1</ele>
        <time>2019-10-18T12:16:27Z</time>
      </trkpt>
      <trkpt lat="37.0287050" lon="-2.2646030">
        <ele>857.1</ele>
        <time>2019-10-18T12:16:28Z</time>
      </trkpt>
      <trkpt lat="37.0287050" lon="-2.2646020">
        <ele>857.1</ele>
        <time>2019-10-18T12:16:29Z</time>
      </trkpt>
      <trkpt lat="37.0287040" lon="-2.2646010">
        <ele>857.1</ele>
        <time>2019-10-18T12:16:30Z</time>
      </trkpt>
      <trkpt lat="37.0287030" lon="-2.2646000">
        <ele>857.2</ele>
        <time>2019-10-18T12:16:31Z</time>
      </trkpt>
      <trkpt lat="37.0287020" lon="-2.2645990">
        <ele>857.2</ele>
        <time>2019-10-18T12:16:32Z</time>
      </trkpt>
      <trkpt lat="37.0287000" lon="-2.2645980">
        <ele>857.2</ele>
        <time>2019-10-18T12:16:33Z</time>
      </trkpt>
      <trkpt lat="37.0286960" lon="-2.2645960">
        <ele>857.2</ele>
        <time>2019-10-18T12:16:34Z</time>
      </trkpt>
      <trkpt lat="37.0286890" lon="-2.2645940">
        <ele>857.2</ele>
        <time>2019-10-18T12:16:35Z</time>
      </trkpt>
      <trkpt lat="37.0286790" lon="-2.2645920">
        <ele>857.3</ele>
        <time>2019-10-18T12:16:36Z</time>
      </trkpt>
      <trkpt lat="37.0286670" lon="-2.2645930">
        <ele>857.4</ele>
        <time>2019-10-18T12:16:37Z</time>
      </trkpt>
      <trkpt lat="37.0286540" lon="-2.2645970">
        <ele>857.5</ele>
        <time>2019-10-18T12:16:38Z</time>
      </trkpt>
      <trkpt lat="37.0286370" lon="-2.2646020">
        <ele>857.6</ele>
        <time>2019-10-18T12:16:39Z</time>
      </trkpt>
      <trkpt lat="37.0286170" lon="-2.2646040">
        <ele>857.6</ele>
        <time>2019-10-18T12:16:40Z</time>
      </trkpt>
      <trkpt lat="37.0285940" lon="-2.2646070">
        <ele>857.6</ele>
        <time>2019-10-18T12:16:41Z</time>
      </trkpt>
      <trkpt lat="37.0285710" lon="-2.2646110">
        <ele>857.7</ele>
        <time>2019-10-18T12:16:42Z</time>
      </trkpt>
      <trkpt lat="37.0285490" lon="-2.2646150">
        <ele>857.7</ele>
        <time>2019-10-18T12:16:43Z</time>
      </trkpt>
      <trkpt lat="37.0285270" lon="-2.2646220">
        <ele>857.7</ele>
        <time>2019-10-18T12:16:44Z</time>
      </trkpt>
      <trkpt lat="37.0285080" lon="-2.2646320">
        <ele>857.7</ele>
        <time>2019-10-18T12:16:45Z</time>
      </trkpt>
      <trkpt lat="37.0284890" lon="-2.2646470">
        <ele>857.7</ele>
        <time>2019-10-18T12:16:46Z</time>
      </trkpt>
      <trkpt lat="37.0284710" lon="-2.2646630">
        <ele>857.7</ele>
        <time>2019-10-18T12:16:47Z</time>
      </trkpt>
      <trkpt lat="37.0284520" lon="-2.2646760">
        <ele>857.7</ele>
        <time>2019-10-18T12:16:48Z</time>
      </trkpt>
      <trkpt lat="37.0284340" lon="-2.2646890">
        <ele>857.7</ele>
        <time>2019-10-18T12:16:49Z</time>
      </trkpt>
      <trkpt lat="37.0284150" lon="-2.2647000">
        <ele>857.7</ele>
        <time>2019-10-18T12:16:50Z</time>
      </trkpt>
      <trkpt lat="37.0283970" lon="-2.2647100">
        <ele>857.8</ele>
        <time>2019-10-18T12:16:51Z</time>
      </trkpt>
      <trkpt lat="37.0283800" lon="-2.2647210">
        <ele>857.8</ele>
        <time>2019-10-18T12:16:52Z</time>
      </trkpt>
      <trkpt lat="37.0283650" lon="-2.2647350">
        <ele>857.9</ele>
        <time>2019-10-18T12:16:53Z</time>
      </trkpt>
      <trkpt lat="37.0283520" lon="-2.2647520">
        <ele>857.9</ele>
        <time>2019-10-18T12:16:54Z</time>
      </trkpt>
      <trkpt lat="37.0283410" lon="-2.2647700">
        <ele>857.9</ele>
        <time>2019-10-18T12:16:55Z</time>
      </trkpt>
      <trkpt lat="37.0283280" lon="-2.2647850">
        <ele>857.9</ele>
        <time>2019-10-18T12:16:56Z</time>
      </trkpt>
      <trkpt lat="37.0283120" lon="-2.2647960">
        <ele>857.8</ele>
        <time>2019-10-18T12:16:57Z</time>
      </trkpt>
      <trkpt lat="37.0282960" lon="-2.2648050">
        <ele>858.0</ele>
        <time>2019-10-18T12:16:58Z</time>
      </trkpt>
      <trkpt lat="37.0282820" lon="-2.2648170">
        <ele>858.1</ele>
        <time>2019-10-18T12:16:59Z</time>
      </trkpt>
      <trkpt lat="37.0282710" lon="-2.2648300">
        <ele>858.2</ele>
        <time>2019-10-18T12:17:00Z</time>
      </trkpt>
      <trkpt lat="37.0282620" lon="-2.2648470">
        <ele>858.3</ele>
        <time>2019-10-18T12:17:01Z</time>
      </trkpt>
      <trkpt lat="37.0282570" lon="-2.2648660">
        <ele>858.4</ele>
        <time>2019-10-18T12:17:02Z</time>
      </trkpt>
      <trkpt lat="37.0282510" lon="-2.2648850">
        <ele>858.4</ele>
        <time>2019-10-18T12:17:03Z</time>
      </trkpt>
      <trkpt lat="37.0282450" lon="-2.2649050">
        <ele>858.4</ele>
        <time>2019-10-18T12:17:04Z</time>
      </trkpt>
      <trkpt lat="37.0282370" lon="-2.2649240">
        <ele>858.4</ele>
        <time>2019-10-18T12:17:05Z</time>
      </trkpt>
      <trkpt lat="37.0282290" lon="-2.2649440">
        <ele>858.4</ele>
        <time>2019-10-18T12:17:06Z</time>
      </trkpt>
      <trkpt lat="37.0282210" lon="-2.2649640">
        <ele>858.4</ele>
        <time>2019-10-18T12:17:07Z</time>
      </trkpt>
      <trkpt lat="37.0282120" lon="-2.2649840">
        <ele>859.0</ele>
        <time>2019-10-18T12:17:08Z</time>
      </trkpt>
      <trkpt lat="37.0282030" lon="-2.2650050">
        <ele>858.3</ele>
        <time>2019-10-18T12:17:09Z</time>
      </trkpt>
      <trkpt lat="37.0281930" lon="-2.2650260">
        <ele>858.3</ele>
        <time>2019-10-18T12:17:10Z</time>
      </trkpt>
      <trkpt lat="37.0281830" lon="-2.2650450">
        <ele>858.3</ele>
        <time>2019-10-18T12:17:11Z</time>
      </trkpt>
      <trkpt lat="37.0281690" lon="-2.2650620">
        <ele>858.3</ele>
        <time>2019-10-18T12:17:12Z</time>
      </trkpt>
      <trkpt lat="37.0281550" lon="-2.2650770">
        <ele>857.5</ele>
        <time>2019-10-18T12:17:13Z</time>
      </trkpt>
      <trkpt lat="37.0281410" lon="-2.2650950">
        <ele>858.2</ele>
        <time>2019-10-18T12:17:14Z</time>
      </trkpt>
      <trkpt lat="37.0281290" lon="-2.2651140">
        <ele>858.2</ele>
        <time>2019-10-18T12:17:15Z</time>
      </trkpt>
      <trkpt lat="37.0281200" lon="-2.2651360">
        <ele>857.5</ele>
        <time>2019-10-18T12:17:16Z</time>
      </trkpt>
      <trkpt lat="37.0281100" lon="-2.2651560">
        <ele>858.3</ele>
        <time>2019-10-18T12:17:17Z</time>
      </trkpt>
      <trkpt lat="37.0281000" lon="-2.2651760">
        <ele>857.6</ele>
        <time>2019-10-18T12:17:18Z</time>
      </trkpt>
      <trkpt lat="37.0280900" lon="-2.2651940">
        <ele>857.6</ele>
        <time>2019-10-18T12:17:19Z</time>
      </trkpt>
      <trkpt lat="37.0280790" lon="-2.2652130">
        <ele>857.7</ele>
        <time>2019-10-18T12:17:20Z</time>
      </trkpt>
      <trkpt lat="37.0280700" lon="-2.2652340">
        <ele>857.7</ele>
        <time>2019-10-18T12:17:21Z</time>
      </trkpt>
      <trkpt lat="37.0280610" lon="-2.2652540">
        <ele>857.0</ele>
        <time>2019-10-18T12:17:22Z</time>
      </trkpt>
      <trkpt lat="37.0280530" lon="-2.2652750">
        <ele>857.0</ele>
        <time>2019-10-18T12:17:23Z</time>
      </trkpt>
      <trkpt lat="37.0280460" lon="-2.2652950">
        <ele>857.2</ele>
        <time>2019-10-18T12:17:24Z</time>
      </trkpt>
      <trkpt lat="37.0280390" lon="-2.2653150">
        <ele>857.2</ele>
        <time>2019-10-18T12:17:25Z</time>
      </trkpt>
      <trkpt lat="37.0280310" lon="-2.2653330">
        <ele>856.6</ele>
        <time>2019-10-18T12:17:26Z</time>
      </trkpt>
      <trkpt lat="37.0280240" lon="-2.2653510">
        <ele>856.6</ele>
        <time>2019-10-18T12:17:27Z</time>
      </trkpt>
      <trkpt lat="37.0280160" lon="-2.2653690">
        <ele>856.6</ele>
        <time>2019-10-18T12:17:28Z</time>
      </trkpt>
      <trkpt lat="37.0280090" lon="-2.2653880">
        <ele>856.8</ele>
        <time>2019-10-18T12:17:29Z</time>
      </trkpt>
      <trkpt lat="37.0280020" lon="-2.2654060">
        <ele>856.8</ele>
        <time>2019-10-18T12:17:30Z</time>
      </trkpt>
      <trkpt lat="37.0279970" lon="-2.2654270">
        <ele>856.1</ele>
        <time>2019-10-18T12:17:31Z</time>
      </trkpt>
      <trkpt lat="37.0279940" lon="-2.2654470">
        <ele>856.1</ele>
        <time>2019-10-18T12:17:32Z</time>
      </trkpt>
      <trkpt lat="37.0279900" lon="-2.2654680">
        <ele>855.5</ele>
        <time>2019-10-18T12:17:33Z</time>
      </trkpt>
      <trkpt lat="37.0279880" lon="-2.2654870">
        <ele>855.5</ele>
        <time>2019-10-18T12:17:34Z</time>
      </trkpt>
      <trkpt lat="37.0279850" lon="-2.2655050">
        <ele>855.0</ele>
        <time>2019-10-18T12:17:35Z</time>
      </trkpt>
      <trkpt lat="37.0279810" lon="-2.2655230">
        <ele>855.0</ele>
        <time>2019-10-18T12:17:36Z</time>
      </trkpt>
      <trkpt lat="37.0279770" lon="-2.2655410">
        <ele>855.7</ele>
        <time>2019-10-18T12:17:37Z</time>
      </trkpt>
      <trkpt lat="37.0279720" lon="-2.2655600">
        <ele>855.2</ele>
        <time>2019-10-18T12:17:38Z</time>
      </trkpt>
      <trkpt lat="37.0279670" lon="-2.2655790">
        <ele>855.2</ele>
        <time>2019-10-18T12:17:39Z</time>
      </trkpt>
      <trkpt lat="37.0279620" lon="-2.2655970">
        <ele>854.6</ele>
        <time>2019-10-18T12:17:40Z</time>
      </trkpt>
      <trkpt lat="37.0279540" lon="-2.2656140">
        <ele>854.6</ele>
        <time>2019-10-18T12:17:41Z</time>
      </trkpt>
      <trkpt lat="37.0279460" lon="-2.2656310">
        <ele>854.1</ele>
        <time>2019-10-18T12:17:42Z</time>
      </trkpt>
      <trkpt lat="37.0279370" lon="-2.2656480">
        <ele>854.9</ele>
        <time>2019-10-18T12:17:43Z</time>
      </trkpt>
      <trkpt lat="37.0279290" lon="-2.2656660">
        <ele>854.9</ele>
        <time>2019-10-18T12:17:44Z</time>
      </trkpt>
      <trkpt lat="37.0279200" lon="-2.2656810">
        <ele>854.4</ele>
        <time>2019-10-18T12:17:45Z</time>
      </trkpt>
      <trkpt lat="37.0279100" lon="-2.2656960">
        <ele>855.3</ele>
        <time>2019-10-18T12:17:46Z</time>
      </trkpt>
      <trkpt lat="37.0278990" lon="-2.2657080">
        <ele>855.3</ele>
        <time>2019-10-18T12:17:47Z</time>
      </trkpt>
      <trkpt lat="37.0278890" lon="-2.2657140">
        <ele>855.3</ele>
        <time>2019-10-18T12:17:48Z</time>
      </trkpt>
      <trkpt lat="37.0278830" lon="-2.2657160">
        <ele>854.8</ele>
        <time>2019-10-18T12:17:49Z</time>
      </trkpt>
      <trkpt lat="37.0278810" lon="-2.2657160">
        <ele>854.8</ele>
        <time>2019-10-18T12:17:50Z</time>
      </trkpt>
      <trkpt lat="37.0278810" lon="-2.2657160">
        <ele>854.8</ele>
        <time>2019-10-18T12:17:51Z</time>
      </trkpt>
      <trkpt lat="37.0278810" lon="-2.2657170">
        <ele>854.8</ele>
        <time>2019-10-18T12:17:52Z</time>
      </trkpt>
      <trkpt lat="37.0278810" lon="-2.2657170">
        <ele>854.8</ele>
        <time>2019-10-18T12:17:53Z</time>
      </trkpt>
      <trkpt lat="37.0278810" lon="-2.2657170">
        <ele>854.8</ele>
        <time>2019-10-18T12:17:54Z</time>
      </trkpt>
      <trkpt lat="37.0278820" lon="-2.2657170">
        <ele>854.8</ele>
        <time>2019-10-18T12:17:55Z</time>
      </trkpt>
      <trkpt lat="37.0278810" lon="-2.2657160">
        <ele>854.8</ele>
        <time>2019-10-18T12:17:56Z</time>
      </trkpt>
      <trkpt lat="37.0278800" lon="-2.2657160">
        <ele>854.8</ele>
        <time>2019-10-18T12:17:57Z</time>
      </trkpt>
      <trkpt lat="37.0278800" lon="-2.2657150">
        <ele>855.3</ele>
        <time>2019-10-18T12:17:58Z</time>
      </trkpt>
      <trkpt lat="37.0278790" lon="-2.2657150">
        <ele>855.3</ele>
        <time>2019-10-18T12:17:59Z</time>
      </trkpt>
      <trkpt lat="37.0278790" lon="-2.2657140">
        <ele>855.3</ele>
        <time>2019-10-18T12:18:00Z</time>
      </trkpt>
      <trkpt lat="37.0278780" lon="-2.2657140">
        <ele>855.3</ele>
        <time>2019-10-18T12:18:01Z</time>
      </trkpt>
      <trkpt lat="37.0278780" lon="-2.2657140">
        <ele>855.3</ele>
        <time>2019-10-18T12:18:02Z</time>
      </trkpt>
      <trkpt lat="37.0278780" lon="-2.2657140">
        <ele>855.3</ele>
        <time>2019-10-18T12:18:03Z</time>
      </trkpt>
      <trkpt lat="37.0278130" lon="-2.2656440">
        <ele>857.6</ele>
        <time>2019-10-18T12:18:13Z</time>
      </trkpt>
      <trkpt lat="37.0278130" lon="-2.2656440">
        <ele>857.6</ele>
        <time>2019-10-18T12:18:14Z</time>
      </trkpt>
      <trkpt lat="37.0278160" lon="-2.2656560">
        <ele>857.6</ele>
        <time>2019-10-18T12:18:15Z</time>
      </trkpt>
      <trkpt lat="37.0278160" lon="-2.2656560">
        <ele>857.6</ele>
        <time>2019-10-18T12:18:16Z</time>
      </trkpt>
      <trkpt lat="37.0278220" lon="-2.2656730">
        <ele>857.1</ele>
        <time>2019-10-18T12:18:17Z</time>
      </trkpt>
      <trkpt lat="37.0278230" lon="-2.2656790">
        <ele>857.1</ele>
        <time>2019-10-18T12:18:18Z</time>
      </trkpt>
      <trkpt lat="37.0278240" lon="-2.2656820">
        <ele>857.1</ele>
        <time>2019-10-18T12:18:19Z</time>
      </trkpt>
      <trkpt lat="37.0278240" lon="-2.2656860">
        <ele>857.1</ele>
        <time>2019-10-18T12:18:20Z</time>
      </trkpt>
      <trkpt lat="37.0278240" lon="-2.2656860">
        <ele>857.1</ele>
        <time>2019-10-18T12:18:21Z</time>
      </trkpt>
      <trkpt lat="37.0278260" lon="-2.2656910">
        <ele>857.1</ele>
        <time>2019-10-18T12:18:22Z</time>
      </trkpt>
      <trkpt lat="37.0278270" lon="-2.2656930">
        <ele>857.1</ele>
        <time>2019-10-18T12:18:23Z</time>
      </trkpt>
      <trkpt lat="37.0278290" lon="-2.2656950">
        <ele>857.1</ele>
        <time>2019-10-18T12:18:24Z</time>
      </trkpt>
      <trkpt lat="37.0278320" lon="-2.2656980">
        <ele>857.1</ele>
        <time>2019-10-18T12:18:25Z</time>
      </trkpt>
      <trkpt lat="37.0278360" lon="-2.2657000">
        <ele>857.1</ele>
        <time>2019-10-18T12:18:26Z</time>
      </trkpt>
      <trkpt lat="37.0278410" lon="-2.2657040">
        <ele>857.1</ele>
        <time>2019-10-18T12:18:27Z</time>
      </trkpt>
      <trkpt lat="37.0278460" lon="-2.2657070">
        <ele>856.2</ele>
        <time>2019-10-18T12:18:28Z</time>
      </trkpt>
      <trkpt lat="37.0278500" lon="-2.2657110">
        <ele>856.2</ele>
        <time>2019-10-18T12:18:29Z</time>
      </trkpt>
      <trkpt lat="37.0278520" lon="-2.2657160">
        <ele>855.7</ele>
        <time>2019-10-18T12:18:30Z</time>
      </trkpt>
      <trkpt lat="37.0278530" lon="-2.2657190">
        <ele>855.7</ele>
        <time>2019-10-18T12:18:31Z</time>
      </trkpt>
      <trkpt lat="37.0278540" lon="-2.2657210">
        <ele>855.7</ele>
        <time>2019-10-18T12:18:32Z</time>
      </trkpt>
      <trkpt lat="37.0278540" lon="-2.2657210">
        <ele>855.7</ele>
        <time>2019-10-18T12:18:33Z</time>
      </trkpt>
      <trkpt lat="37.0278540" lon="-2.2657200">
        <ele>855.7</ele>
        <time>2019-10-18T12:18:34Z</time>
      </trkpt>
      <trkpt lat="37.0278550" lon="-2.2657190">
        <ele>855.7</ele>
        <time>2019-10-18T12:18:35Z</time>
      </trkpt>
      <trkpt lat="37.0278570" lon="-2.2657180">
        <ele>855.7</ele>
        <time>2019-10-18T12:18:36Z</time>
      </trkpt>
      <trkpt lat="37.0278570" lon="-2.2657170">
        <ele>855.7</ele>
        <time>2019-10-18T12:18:37Z</time>
      </trkpt>
      <trkpt lat="37.0278580" lon="-2.2657160">
        <ele>855.7</ele>
        <time>2019-10-18T12:18:38Z</time>
      </trkpt>
      <trkpt lat="37.0278600" lon="-2.2657140">
        <ele>856.2</ele>
        <time>2019-10-18T12:18:39Z</time>
      </trkpt>
      <trkpt lat="37.0278610" lon="-2.2657140">
        <ele>856.2</ele>
        <time>2019-10-18T12:18:40Z</time>
      </trkpt>
      <trkpt lat="37.0278630" lon="-2.2657130">
        <ele>856.2</ele>
        <time>2019-10-18T12:18:41Z</time>
      </trkpt>
      <trkpt lat="37.0278640" lon="-2.2657130">
        <ele>856.2</ele>
        <time>2019-10-18T12:18:42Z</time>
      </trkpt>
      <trkpt lat="37.0278660" lon="-2.2657130">
        <ele>856.2</ele>
        <time>2019-10-18T12:18:43Z</time>
      </trkpt>
      <trkpt lat="37.0278670" lon="-2.2657130">
        <ele>856.2</ele>
        <time>2019-10-18T12:18:44Z</time>
      </trkpt>
      <trkpt lat="37.0278690" lon="-2.2657130">
        <ele>856.2</ele>
        <time>2019-10-18T12:18:45Z</time>
      </trkpt>
      <trkpt lat="37.0278700" lon="-2.2657130">
        <ele>856.2</ele>
        <time>2019-10-18T12:18:46Z</time>
      </trkpt>
      <trkpt lat="37.0278700" lon="-2.2657130">
        <ele>856.2</ele>
        <time>2019-10-18T12:18:47Z</time>
      </trkpt>
      <trkpt lat="37.0278700" lon="-2.2657130">
        <ele>856.2</ele>
        <time>2019-10-18T12:18:48Z</time>
      </trkpt>
      <trkpt lat="37.0278710" lon="-2.2657130">
        <ele>856.2</ele>
        <time>2019-10-18T12:18:49Z</time>
      </trkpt>
      <trkpt lat="37.0278710" lon="-2.2657130">
        <ele>856.2</ele>
        <time>2019-10-18T12:18:50Z</time>
      </trkpt>
      <trkpt lat="37.0278710" lon="-2.2657130">
        <ele>856.2</ele>
        <time>2019-10-18T12:18:51Z</time>
      </trkpt>
      <trkpt lat="37.0278710" lon="-2.2657130">
        <ele>856.2</ele>
        <time>2019-10-18T12:18:52Z</time>
      </trkpt>
      <trkpt lat="37.0278710" lon="-2.2657140">
        <ele>856.2</ele>
        <time>2019-10-18T12:18:53Z</time>
      </trkpt>
      <trkpt lat="37.0278710" lon="-2.2657140">
        <ele>856.2</ele>
        <time>2019-10-18T12:18:54Z</time>
      </trkpt>
      <trkpt lat="37.0278710" lon="-2.2657150">
        <ele>856.2</ele>
        <time>2019-10-18T12:18:55Z</time>
      </trkpt>
      <trkpt lat="37.0278710" lon="-2.2657150">
        <ele>856.2</ele>
        <time>2019-10-18T12:18:56Z</time>
      </trkpt>
      <trkpt lat="37.0278710" lon="-2.2657150">
        <ele>856.2</ele>
        <time>2019-10-18T12:18:57Z</time>
      </trkpt>
      <trkpt lat="37.0278710" lon="-2.2657150">
        <ele>856.2</ele>
        <time>2019-10-18T12:18:58Z</time>
      </trkpt>
      <trkpt lat="37.0278720" lon="-2.2657150">
        <ele>856.2</ele>
        <time>2019-10-18T12:18:59Z</time>
      </trkpt>
      <trkpt lat="37.0278730" lon="-2.2657140">
        <ele>856.2</ele>
        <time>2019-10-18T12:19:00Z</time>
      </trkpt>
      <trkpt lat="37.0278730" lon="-2.2657130">
        <ele>856.2</ele>
        <time>2019-10-18T12:19:01Z</time>
      </trkpt>
      <trkpt lat="37.0278740" lon="-2.2657120">
        <ele>856.2</ele>
        <time>2019-10-18T12:19:02Z</time>
      </trkpt>
      <trkpt lat="37.0278740" lon="-2.2657110">
        <ele>856.2</ele>
        <time>2019-10-18T12:19:03Z</time>
      </trkpt>
      <trkpt lat="37.0278740" lon="-2.2657110">
        <ele>856.2</ele>
        <time>2019-10-18T12:19:04Z</time>
      </trkpt>
      <trkpt lat="37.0278740" lon="-2.2657110">
        <ele>856.2</ele>
        <time>2019-10-18T12:19:05Z</time>
      </trkpt>
      <trkpt lat="37.0278740" lon="-2.2657110">
        <ele>856.2</ele>
        <time>2019-10-18T12:19:06Z</time>
      </trkpt>
      <trkpt lat="37.0278750" lon="-2.2657110">
        <ele>856.2</ele>
        <time>2019-10-18T12:19:07Z</time>
      </trkpt>
      <trkpt lat="37.0278750" lon="-2.2657110">
        <ele>856.2</ele>
        <time>2019-10-18T12:19:08Z</time>
      </trkpt>
      <trkpt lat="37.0278750" lon="-2.2657120">
        <ele>856.2</ele>
        <time>2019-10-18T12:19:09Z</time>
      </trkpt>
      <trkpt lat="37.0278760" lon="-2.2657120">
        <ele>855.3</ele>
        <time>2019-10-18T12:19:10Z</time>
      </trkpt>
      <trkpt lat="37.0278770" lon="-2.2657120">
        <ele>855.3</ele>
        <time>2019-10-18T12:19:11Z</time>
      </trkpt>
      <trkpt lat="37.0278780" lon="-2.2657110">
        <ele>855.3</ele>
        <time>2019-10-18T12:19:12Z</time>
      </trkpt>
      <trkpt lat="37.0278790" lon="-2.2657110">
        <ele>855.3</ele>
        <time>2019-10-18T12:19:13Z</time>
      </trkpt>
      <trkpt lat="37.0278790" lon="-2.2657100">
        <ele>855.3</ele>
        <time>2019-10-18T12:19:14Z</time>
      </trkpt>
      <trkpt lat="37.0278790" lon="-2.2657090">
        <ele>855.3</ele>
        <time>2019-10-18T12:19:15Z</time>
      </trkpt>
      <trkpt lat="37.0278790" lon="-2.2657080">
        <ele>855.3</ele>
        <time>2019-10-18T12:19:16Z</time>
      </trkpt>
      <trkpt lat="37.0278790" lon="-2.2657080">
        <ele>855.3</ele>
        <time>2019-10-18T12:19:17Z</time>
      </trkpt>
      <trkpt lat="37.0278790" lon="-2.2657080">
        <ele>855.3</ele>
        <time>2019-10-18T12:19:18Z</time>
      </trkpt>
      <trkpt lat="37.0278800" lon="-2.2657080">
        <ele>855.3</ele>
        <time>2019-10-18T12:19:19Z</time>
      </trkpt>
      <trkpt lat="37.0278810" lon="-2.2657070">
        <ele>855.3</ele>
        <time>2019-10-18T12:19:20Z</time>
      </trkpt>
      <trkpt lat="37.0278810" lon="-2.2657070">
        <ele>855.3</ele>
        <time>2019-10-18T12:19:21Z</time>
      </trkpt>
      <trkpt lat="37.0278790" lon="-2.2657070">
        <ele>855.3</ele>
        <time>2019-10-18T12:19:22Z</time>
      </trkpt>
      <trkpt lat="37.0278750" lon="-2.2657090">
        <ele>856.2</ele>
        <time>2019-10-18T12:19:23Z</time>
      </trkpt>
      <trkpt lat="37.0278680" lon="-2.2657120">
        <ele>856.2</ele>
        <time>2019-10-18T12:19:24Z</time>
      </trkpt>
      <trkpt lat="37.0278590" lon="-2.2657160">
        <ele>855.7</ele>
        <time>2019-10-18T12:19:25Z</time>
      </trkpt>
      <trkpt lat="37.0278490" lon="-2.2657210">
        <ele>855.7</ele>
        <time>2019-10-18T12:19:26Z</time>
      </trkpt>
      <trkpt lat="37.0278360" lon="-2.2657270">
        <ele>856.7</ele>
        <time>2019-10-18T12:19:27Z</time>
      </trkpt>
      <trkpt lat="37.0278210" lon="-2.2657360">
        <ele>856.7</ele>
        <time>2019-10-18T12:19:28Z</time>
      </trkpt>
      <trkpt lat="37.0278080" lon="-2.2657480">
        <ele>856.7</ele>
        <time>2019-10-18T12:19:29Z</time>
      </trkpt>
      <trkpt lat="37.0277950" lon="-2.2657620">
        <ele>857.3</ele>
        <time>2019-10-18T12:19:30Z</time>
      </trkpt>
      <trkpt lat="37.0277830" lon="-2.2657760">
        <ele>857.3</ele>
        <time>2019-10-18T12:19:31Z</time>
      </trkpt>
      <trkpt lat="37.0277710" lon="-2.2657910">
        <ele>858.3</ele>
        <time>2019-10-18T12:19:32Z</time>
      </trkpt>
      <trkpt lat="37.0277600" lon="-2.2658070">
        <ele>857.8</ele>
        <time>2019-10-18T12:19:33Z</time>
      </trkpt>
      <trkpt lat="37.0277500" lon="-2.2658250">
        <ele>857.8</ele>
        <time>2019-10-18T12:19:34Z</time>
      </trkpt>
      <trkpt lat="37.0277400" lon="-2.2658440">
        <ele>857.8</ele>
        <time>2019-10-18T12:19:35Z</time>
      </trkpt>
      <trkpt lat="37.0277300" lon="-2.2658630">
        <ele>858.4</ele>
        <time>2019-10-18T12:19:36Z</time>
      </trkpt>
      <trkpt lat="37.0277190" lon="-2.2658800">
        <ele>858.4</ele>
        <time>2019-10-18T12:19:37Z</time>
      </trkpt>
      <trkpt lat="37.0277080" lon="-2.2658970">
        <ele>858.0</ele>
        <time>2019-10-18T12:19:38Z</time>
      </trkpt>
      <trkpt lat="37.0276960" lon="-2.2659110">
        <ele>858.8</ele>
        <time>2019-10-18T12:19:39Z</time>
      </trkpt>
      <trkpt lat="37.0276840" lon="-2.2659240">
        <ele>858.8</ele>
        <time>2019-10-18T12:19:40Z</time>
      </trkpt>
      <trkpt lat="37.0276710" lon="-2.2659340">
        <ele>858.4</ele>
        <time>2019-10-18T12:19:41Z</time>
      </trkpt>
      <trkpt lat="37.0276580" lon="-2.2659430">
        <ele>859.3</ele>
        <time>2019-10-18T12:19:42Z</time>
      </trkpt>
      <trkpt lat="37.0276440" lon="-2.2659500">
        <ele>859.3</ele>
        <time>2019-10-18T12:19:43Z</time>
      </trkpt>
      <trkpt lat="37.0276300" lon="-2.2659550">
        <ele>860.1</ele>
        <time>2019-10-18T12:19:44Z</time>
      </trkpt>
      <trkpt lat="37.0276160" lon="-2.2659580">
        <ele>860.1</ele>
        <time>2019-10-18T12:19:45Z</time>
      </trkpt>
      <trkpt lat="37.0276020" lon="-2.2659590">
        <ele>860.1</ele>
        <time>2019-10-18T12:19:46Z</time>
      </trkpt>
      <trkpt lat="37.0275890" lon="-2.2659580">
        <ele>861.0</ele>
        <time>2019-10-18T12:19:47Z</time>
      </trkpt>
      <trkpt lat="37.0275760" lon="-2.2659550">
        <ele>861.0</ele>
        <time>2019-10-18T12:19:48Z</time>
      </trkpt>
      <trkpt lat="37.0275630" lon="-2.2659510">
        <ele>862.0</ele>
        <time>2019-10-18T12:19:49Z</time>
      </trkpt>
      <trkpt lat="37.0275500" lon="-2.2659460">
        <ele>862.0</ele>
        <time>2019-10-18T12:19:50Z</time>
      </trkpt>
      <trkpt lat="37.0275360" lon="-2.2659410">
        <ele>862.0</ele>
        <time>2019-10-18T12:19:51Z</time>
      </trkpt>
      <trkpt lat="37.0275220" lon="-2.2659340">
        <ele>863.0</ele>
        <time>2019-10-18T12:19:52Z</time>
      </trkpt>
      <trkpt lat="37.0275080" lon="-2.2659280">
        <ele>863.4</ele>
        <time>2019-10-18T12:19:53Z</time>
      </trkpt>
      <trkpt lat="37.0274930" lon="-2.2659230">
        <ele>864.5</ele>
        <time>2019-10-18T12:19:54Z</time>
      </trkpt>
      <trkpt lat="37.0274780" lon="-2.2659200">
        <ele>864.5</ele>
        <time>2019-10-18T12:19:55Z</time>
      </trkpt>
      <trkpt lat="37.0274630" lon="-2.2659180">
        <ele>865.4</ele>
        <time>2019-10-18T12:19:56Z</time>
      </trkpt>
      <trkpt lat="37.0274480" lon="-2.2659160">
        <ele>865.4</ele>
        <time>2019-10-18T12:19:57Z</time>
      </trkpt>
      <trkpt lat="37.0274340" lon="-2.2659150">
        <ele>865.4</ele>
        <time>2019-10-18T12:19:58Z</time>
      </trkpt>
      <trkpt lat="37.0274190" lon="-2.2659130">
        <ele>866.3</ele>
        <time>2019-10-18T12:19:59Z</time>
      </trkpt>
      <trkpt lat="37.0274040" lon="-2.2659110">
        <ele>866.3</ele>
        <time>2019-10-18T12:20:00Z</time>
      </trkpt>
      <trkpt lat="37.0273890" lon="-2.2659090">
        <ele>867.1</ele>
        <time>2019-10-18T12:20:01Z</time>
      </trkpt>
      <trkpt lat="37.0273740" lon="-2.2659080">
        <ele>867.1</ele>
        <time>2019-10-18T12:20:02Z</time>
      </trkpt>
      <trkpt lat="37.0273580" lon="-2.2659070">
        <ele>867.8</ele>
        <time>2019-10-18T12:20:03Z</time>
      </trkpt>
      <trkpt lat="37.0273420" lon="-2.2659070">
        <ele>867.8</ele>
        <time>2019-10-18T12:20:04Z</time>
      </trkpt>
      <trkpt lat="37.0273260" lon="-2.2659060">
        <ele>868.6</ele>
        <time>2019-10-18T12:20:05Z</time>
      </trkpt>
      <trkpt lat="37.0273110" lon="-2.2659060">
        <ele>868.6</ele>
        <time>2019-10-18T12:20:06Z</time>
      </trkpt>
      <trkpt lat="37.0272960" lon="-2.2659050">
        <ele>868.6</ele>
        <time>2019-10-18T12:20:07Z</time>
      </trkpt>
      <trkpt lat="37.0272810" lon="-2.2659040">
        <ele>869.3</ele>
        <time>2019-10-18T12:20:08Z</time>
      </trkpt>
      <trkpt lat="37.0272660" lon="-2.2659020">
        <ele>869.3</ele>
        <time>2019-10-18T12:20:09Z</time>
      </trkpt>
      <trkpt lat="37.0272500" lon="-2.2659000">
        <ele>870.1</ele>
        <time>2019-10-18T12:20:10Z</time>
      </trkpt>
      <trkpt lat="37.0272340" lon="-2.2658990">
        <ele>870.1</ele>
        <time>2019-10-18T12:20:11Z</time>
      </trkpt>
      <trkpt lat="37.0272210" lon="-2.2658990">
        <ele>870.9</ele>
        <time>2019-10-18T12:20:12Z</time>
      </trkpt>
      <trkpt lat="37.0272070" lon="-2.2659000">
        <ele>870.9</ele>
        <time>2019-10-18T12:20:13Z</time>
      </trkpt>
      <trkpt lat="37.0271930" lon="-2.2659000">
        <ele>870.9</ele>
        <time>2019-10-18T12:20:14Z</time>
      </trkpt>
      <trkpt lat="37.0271790" lon="-2.2659000">
        <ele>871.6</ele>
        <time>2019-10-18T12:20:15Z</time>
      </trkpt>
      <trkpt lat="37.0271650" lon="-2.2658980">
        <ele>871.6</ele>
        <time>2019-10-18T12:20:16Z</time>
      </trkpt>
      <trkpt lat="37.0271510" lon="-2.2658950">
        <ele>872.2</ele>
        <time>2019-10-18T12:20:17Z</time>
      </trkpt>
      <trkpt lat="37.0271390" lon="-2.2658910">
        <ele>872.2</ele>
        <time>2019-10-18T12:20:18Z</time>
      </trkpt>
      <trkpt lat="37.0271270" lon="-2.2658850">
        <ele>872.5</ele>
        <time>2019-10-18T12:20:19Z</time>
      </trkpt>
      <trkpt lat="37.0271160" lon="-2.2658780">
        <ele>873.1</ele>
        <time>2019-10-18T12:20:20Z</time>
      </trkpt>
      <trkpt lat="37.0271050" lon="-2.2658700">
        <ele>873.1</ele>
        <time>2019-10-18T12:20:21Z</time>
      </trkpt>
      <trkpt lat="37.0270920" lon="-2.2658620">
        <ele>873.1</ele>
        <time>2019-10-18T12:20:22Z</time>
      </trkpt>
      <trkpt lat="37.0270780" lon="-2.2658530">
        <ele>873.6</ele>
        <time>2019-10-18T12:20:23Z</time>
      </trkpt>
      <trkpt lat="37.0270640" lon="-2.2658440">
        <ele>873.9</ele>
        <time>2019-10-18T12:20:24Z</time>
      </trkpt>
      <trkpt lat="37.0270510" lon="-2.2658350">
        <ele>874.5</ele>
        <time>2019-10-18T12:20:25Z</time>
      </trkpt>
      <trkpt lat="37.0270380" lon="-2.2658260">
        <ele>874.5</ele>
        <time>2019-10-18T12:20:26Z</time>
      </trkpt>
      <trkpt lat="37.0270250" lon="-2.2658190">
        <ele>874.5</ele>
        <time>2019-10-18T12:20:27Z</time>
      </trkpt>
      <trkpt lat="37.0270110" lon="-2.2658120">
        <ele>875.1</ele>
        <time>2019-10-18T12:20:28Z</time>
      </trkpt>
      <trkpt lat="37.0269970" lon="-2.2658070">
        <ele>875.1</ele>
        <time>2019-10-18T12:20:29Z</time>
      </trkpt>
      <trkpt lat="37.0269830" lon="-2.2658030">
        <ele>875.8</ele>
        <time>2019-10-18T12:20:30Z</time>
      </trkpt>
      <trkpt lat="37.0269680" lon="-2.2658000">
        <ele>876.1</ele>
        <time>2019-10-18T12:20:31Z</time>
      </trkpt>
      <trkpt lat="37.0269530" lon="-2.2657970">
        <ele>876.1</ele>
        <time>2019-10-18T12:20:32Z</time>
      </trkpt>
      <trkpt lat="37.0269400" lon="-2.2657940">
        <ele>876.8</ele>
        <time>2019-10-18T12:20:33Z</time>
      </trkpt>
      <trkpt lat="37.0269280" lon="-2.2657890">
        <ele>876.8</ele>
        <time>2019-10-18T12:20:34Z</time>
      </trkpt>
      <trkpt lat="37.0269160" lon="-2.2657820">
        <ele>877.4</ele>
        <time>2019-10-18T12:20:35Z</time>
      </trkpt>
      <trkpt lat="37.0269010" lon="-2.2657760">
        <ele>877.4</ele>
        <time>2019-10-18T12:20:36Z</time>
      </trkpt>
      <trkpt lat="37.0268870" lon="-2.2657710">
        <ele>877.4</ele>
        <time>2019-10-18T12:20:37Z</time>
      </trkpt>
      <trkpt lat="37.0268750" lon="-2.2657660">
        <ele>878.0</ele>
        <time>2019-10-18T12:20:38Z</time>
      </trkpt>
      <trkpt lat="37.0268620" lon="-2.2657590">
        <ele>878.0</ele>
        <time>2019-10-18T12:20:39Z</time>
      </trkpt>
      <trkpt lat="37.0268520" lon="-2.2657500">
        <ele>878.3</ele>
        <time>2019-10-18T12:20:40Z</time>
      </trkpt>
      <trkpt lat="37.0268440" lon="-2.2657420">
        <ele>878.8</ele>
        <time>2019-10-18T12:20:41Z</time>
      </trkpt>
      <trkpt lat="37.0268410" lon="-2.2657360">
        <ele>878.8</ele>
        <time>2019-10-18T12:20:42Z</time>
      </trkpt>
      <trkpt lat="37.0268380" lon="-2.2657330">
        <ele>878.8</ele>
        <time>2019-10-18T12:20:43Z</time>
      </trkpt>
      <trkpt lat="37.0268350" lon="-2.2657300">
        <ele>878.8</ele>
        <time>2019-10-18T12:20:44Z</time>
      </trkpt>
      <trkpt lat="37.0268310" lon="-2.2657270">
        <ele>878.8</ele>
        <time>2019-10-18T12:20:45Z</time>
      </trkpt>
      <trkpt lat="37.0268270" lon="-2.2657220">
        <ele>878.8</ele>
        <time>2019-10-18T12:20:46Z</time>
      </trkpt>
      <trkpt lat="37.0268220" lon="-2.2657160">
        <ele>878.8</ele>
        <time>2019-10-18T12:20:47Z</time>
      </trkpt>
      <trkpt lat="37.0268180" lon="-2.2657100">
        <ele>879.2</ele>
        <time>2019-10-18T12:20:48Z</time>
      </trkpt>
      <trkpt lat="37.0268130" lon="-2.2657030">
        <ele>879.7</ele>
        <time>2019-10-18T12:20:49Z</time>
      </trkpt>
      <trkpt lat="37.0268080" lon="-2.2656950">
        <ele>879.7</ele>
        <time>2019-10-18T12:20:50Z</time>
      </trkpt>
      <trkpt lat="37.0268020" lon="-2.2656870">
        <ele>879.7</ele>
        <time>2019-10-18T12:20:51Z</time>
      </trkpt>
      <trkpt lat="37.0267970" lon="-2.2656790">
        <ele>879.7</ele>
        <time>2019-10-18T12:20:52Z</time>
      </trkpt>
      <trkpt lat="37.0267930" lon="-2.2656720">
        <ele>880.0</ele>
        <time>2019-10-18T12:20:53Z</time>
      </trkpt>
      <trkpt lat="37.0267900" lon="-2.2656650">
        <ele>880.0</ele>
        <time>2019-10-18T12:20:54Z</time>
      </trkpt>
      <trkpt lat="37.0267870" lon="-2.2656590">
        <ele>880.0</ele>
        <time>2019-10-18T12:20:55Z</time>
      </trkpt>
      <trkpt lat="37.0267820" lon="-2.2656500">
        <ele>880.0</ele>
        <time>2019-10-18T12:20:56Z</time>
      </trkpt>
      <trkpt lat="37.0267760" lon="-2.2656420">
        <ele>880.6</ele>
        <time>2019-10-18T12:20:57Z</time>
      </trkpt>
      <trkpt lat="37.0267710" lon="-2.2656330">
        <ele>880.6</ele>
        <time>2019-10-18T12:20:58Z</time>
      </trkpt>
      <trkpt lat="37.0267660" lon="-2.2656250">
        <ele>881.0</ele>
        <time>2019-10-18T12:20:59Z</time>
      </trkpt>
      <trkpt lat="37.0267610" lon="-2.2656160">
        <ele>881.0</ele>
        <time>2019-10-18T12:21:00Z</time>
      </trkpt>
      <trkpt lat="37.0267570" lon="-2.2656070">
        <ele>881.0</ele>
        <time>2019-10-18T12:21:01Z</time>
      </trkpt>
      <trkpt lat="37.0267510" lon="-2.2655990">
        <ele>881.0</ele>
        <time>2019-10-18T12:21:02Z</time>
      </trkpt>
      <trkpt lat="37.0267450" lon="-2.2655920">
        <ele>881.6</ele>
        <time>2019-10-18T12:21:03Z</time>
      </trkpt>
      <trkpt lat="37.0267390" lon="-2.2655860">
        <ele>882.1</ele>
        <time>2019-10-18T12:21:04Z</time>
      </trkpt>
      <trkpt lat="37.0267310" lon="-2.2655800">
        <ele>882.1</ele>
        <time>2019-10-18T12:21:05Z</time>
      </trkpt>
      <trkpt lat="37.0267230" lon="-2.2655770">
        <ele>882.1</ele>
        <time>2019-10-18T12:21:06Z</time>
      </trkpt>
      <trkpt lat="37.0267150" lon="-2.2655750">
        <ele>882.1</ele>
        <time>2019-10-18T12:21:07Z</time>
      </trkpt>
      <trkpt lat="37.0267080" lon="-2.2655750">
        <ele>882.8</ele>
        <time>2019-10-18T12:21:08Z</time>
      </trkpt>
      <trkpt lat="37.0267010" lon="-2.2655760">
        <ele>882.8</ele>
        <time>2019-10-18T12:21:09Z</time>
      </trkpt>
      <trkpt lat="37.0266950" lon="-2.2655790">
        <ele>882.8</ele>
        <time>2019-10-18T12:21:10Z</time>
      </trkpt>
      <trkpt lat="37.0266890" lon="-2.2655820">
        <ele>882.8</ele>
        <time>2019-10-18T12:21:11Z</time>
      </trkpt>
      <trkpt lat="37.0266820" lon="-2.2655850">
        <ele>882.8</ele>
        <time>2019-10-18T12:21:12Z</time>
      </trkpt>
      <trkpt lat="37.0266770" lon="-2.2655890">
        <ele>882.3</ele>
        <time>2019-10-18T12:21:13Z</time>
      </trkpt>
      <trkpt lat="37.0266710" lon="-2.2655920">
        <ele>883.0</ele>
        <time>2019-10-18T12:21:14Z</time>
      </trkpt>
      <trkpt lat="37.0266650" lon="-2.2655950">
        <ele>883.0</ele>
        <time>2019-10-18T12:21:15Z</time>
      </trkpt>
      <trkpt lat="37.0266570" lon="-2.2655980">
        <ele>883.0</ele>
        <time>2019-10-18T12:21:16Z</time>
      </trkpt>
      <trkpt lat="37.0266480" lon="-2.2656010">
        <ele>883.0</ele>
        <time>2019-10-18T12:21:17Z</time>
      </trkpt>
      <trkpt lat="37.0266400" lon="-2.2656050">
        <ele>883.7</ele>
        <time>2019-10-18T12:21:18Z</time>
      </trkpt>
      <trkpt lat="37.0266330" lon="-2.2656090">
        <ele>883.7</ele>
        <time>2019-10-18T12:21:19Z</time>
      </trkpt>
      <trkpt lat="37.0266250" lon="-2.2656130">
        <ele>883.7</ele>
        <time>2019-10-18T12:21:20Z</time>
      </trkpt>
      <trkpt lat="37.0266180" lon="-2.2656160">
        <ele>883.7</ele>
        <time>2019-10-18T12:21:21Z</time>
      </trkpt>
      <trkpt lat="37.0266100" lon="-2.2656160">
        <ele>883.7</ele>
        <time>2019-10-18T12:21:22Z</time>
      </trkpt>
      <trkpt lat="37.0266020" lon="-2.2656150">
        <ele>884.4</ele>
        <time>2019-10-18T12:21:23Z</time>
      </trkpt>
      <trkpt lat="37.0265940" lon="-2.2656120">
        <ele>884.4</ele>
        <time>2019-10-18T12:21:24Z</time>
      </trkpt>
      <trkpt lat="37.0265860" lon="-2.2656090">
        <ele>884.4</ele>
        <time>2019-10-18T12:21:25Z</time>
      </trkpt>
      <trkpt lat="37.0265790" lon="-2.2656050">
        <ele>884.4</ele>
        <time>2019-10-18T12:21:26Z</time>
      </trkpt>
      <trkpt lat="37.0265720" lon="-2.2656000">
        <ele>885.0</ele>
        <time>2019-10-18T12:21:27Z</time>
      </trkpt>
      <trkpt lat="37.0265640" lon="-2.2655940">
        <ele>885.0</ele>
        <time>2019-10-18T12:21:28Z</time>
      </trkpt>
      <trkpt lat="37.0265560" lon="-2.2655880">
        <ele>885.0</ele>
        <time>2019-10-18T12:21:29Z</time>
      </trkpt>
      <trkpt lat="37.0265490" lon="-2.2655810">
        <ele>885.6</ele>
        <time>2019-10-18T12:21:30Z</time>
      </trkpt>
      <trkpt lat="37.0265410" lon="-2.2655740">
        <ele>885.6</ele>
        <time>2019-10-18T12:21:31Z</time>
      </trkpt>
      <trkpt lat="37.0265350" lon="-2.2655670">
        <ele>886.1</ele>
        <time>2019-10-18T12:21:32Z</time>
      </trkpt>
      <trkpt lat="37.0265290" lon="-2.2655590">
        <ele>886.1</ele>
        <time>2019-10-18T12:21:33Z</time>
      </trkpt>
      <trkpt lat="37.0265230" lon="-2.2655520">
        <ele>886.1</ele>
        <time>2019-10-18T12:21:34Z</time>
      </trkpt>
      <trkpt lat="37.0265180" lon="-2.2655440">
        <ele>886.1</ele>
        <time>2019-10-18T12:21:35Z</time>
      </trkpt>
      <trkpt lat="37.0265130" lon="-2.2655350">
        <ele>886.7</ele>
        <time>2019-10-18T12:21:36Z</time>
      </trkpt>
      <trkpt lat="37.0265080" lon="-2.2655260">
        <ele>886.7</ele>
        <time>2019-10-18T12:21:37Z</time>
      </trkpt>
      <trkpt lat="37.0265040" lon="-2.2655160">
        <ele>887.4</ele>
        <time>2019-10-18T12:21:38Z</time>
      </trkpt>
      <trkpt lat="37.0265000" lon="-2.2655070">
        <ele>887.4</ele>
        <time>2019-10-18T12:21:39Z</time>
      </trkpt>
      <trkpt lat="37.0264970" lon="-2.2654960">
        <ele>887.9</ele>
        <time>2019-10-18T12:21:40Z</time>
      </trkpt>
      <trkpt lat="37.0264960" lon="-2.2654840">
        <ele>887.9</ele>
        <time>2019-10-18T12:21:41Z</time>
      </trkpt>
      <trkpt lat="37.0264950" lon="-2.2654710">
        <ele>887.9</ele>
        <time>2019-10-18T12:21:42Z</time>
      </trkpt>
      <trkpt lat="37.0264960" lon="-2.2654590">
        <ele>887.9</ele>
        <time>2019-10-18T12:21:43Z</time>
      </trkpt>
      <trkpt lat="37.0264960" lon="-2.2654470">
        <ele>888.5</ele>
        <time>2019-10-18T12:21:44Z</time>
      </trkpt>
      <trkpt lat="37.0264960" lon="-2.2654370">
        <ele>888.5</ele>
        <time>2019-10-18T12:21:45Z</time>
      </trkpt>
      <trkpt lat="37.0264960" lon="-2.2654270">
        <ele>888.5</ele>
        <time>2019-10-18T12:21:46Z</time>
      </trkpt>
      <trkpt lat="37.0264970" lon="-2.2654160">
        <ele>888.5</ele>
        <time>2019-10-18T12:21:47Z</time>
      </trkpt>
      <trkpt lat="37.0264980" lon="-2.2654060">
        <ele>889.0</ele>
        <time>2019-10-18T12:21:48Z</time>
      </trkpt>
      <trkpt lat="37.0264980" lon="-2.2653960">
        <ele>889.0</ele>
        <time>2019-10-18T12:21:49Z</time>
      </trkpt>
      <trkpt lat="37.0264990" lon="-2.2653860">
        <ele>889.0</ele>
        <time>2019-10-18T12:21:50Z</time>
      </trkpt>
      <trkpt lat="37.0265010" lon="-2.2653770">
        <ele>889.0</ele>
        <time>2019-10-18T12:21:51Z</time>
      </trkpt>
      <trkpt lat="37.0265030" lon="-2.2653660">
        <ele>889.5</ele>
        <time>2019-10-18T12:21:52Z</time>
      </trkpt>
      <trkpt lat="37.0265040" lon="-2.2653550">
        <ele>889.5</ele>
        <time>2019-10-18T12:21:53Z</time>
      </trkpt>
      <trkpt lat="37.0265060" lon="-2.2653450">
        <ele>888.9</ele>
        <time>2019-10-18T12:21:54Z</time>
      </trkpt>
      <trkpt lat="37.0265070" lon="-2.2653340">
        <ele>888.9</ele>
        <time>2019-10-18T12:21:55Z</time>
      </trkpt>
      <trkpt lat="37.0265080" lon="-2.2653240">
        <ele>889.5</ele>
        <time>2019-10-18T12:21:56Z</time>
      </trkpt>
      <trkpt lat="37.0265100" lon="-2.2653150">
        <ele>889.5</ele>
        <time>2019-10-18T12:21:57Z</time>
      </trkpt>
      <trkpt lat="37.0265120" lon="-2.2653110">
        <ele>889.5</ele>
        <time>2019-10-18T12:21:58Z</time>
      </trkpt>
      <trkpt lat="37.0265140" lon="-2.2653090">
        <ele>889.5</ele>
        <time>2019-10-18T12:21:59Z</time>
      </trkpt>
      <trkpt lat="37.0265150" lon="-2.2653090">
        <ele>889.5</ele>
        <time>2019-10-18T12:22:00Z</time>
      </trkpt>
      <trkpt lat="37.0265160" lon="-2.2653100">
        <ele>889.5</ele>
        <time>2019-10-18T12:22:01Z</time>
      </trkpt>
      <trkpt lat="37.0265170" lon="-2.2653090">
        <ele>889.5</ele>
        <time>2019-10-18T12:22:02Z</time>
      </trkpt>
      <trkpt lat="37.0265180" lon="-2.2653080">
        <ele>889.5</ele>
        <time>2019-10-18T12:22:03Z</time>
      </trkpt>
      <trkpt lat="37.0265190" lon="-2.2653020">
        <ele>889.5</ele>
        <time>2019-10-18T12:22:04Z</time>
      </trkpt>
      <trkpt lat="37.0265210" lon="-2.2652910">
        <ele>889.5</ele>
        <time>2019-10-18T12:22:05Z</time>
      </trkpt>
      <trkpt lat="37.0265240" lon="-2.2652790">
        <ele>890.1</ele>
        <time>2019-10-18T12:22:06Z</time>
      </trkpt>
      <trkpt lat="37.0265260" lon="-2.2652640">
        <ele>890.1</ele>
        <time>2019-10-18T12:22:07Z</time>
      </trkpt>
      <trkpt lat="37.0265270" lon="-2.2652490">
        <ele>890.1</ele>
        <time>2019-10-18T12:22:08Z</time>
      </trkpt>
      <trkpt lat="37.0265280" lon="-2.2652330">
        <ele>890.7</ele>
        <time>2019-10-18T12:22:09Z</time>
      </trkpt>
      <trkpt lat="37.0265280" lon="-2.2652160">
        <ele>890.7</ele>
        <time>2019-10-18T12:22:10Z</time>
      </trkpt>
      <trkpt lat="37.0265290" lon="-2.2651980">
        <ele>891.3</ele>
        <time>2019-10-18T12:22:11Z</time>
      </trkpt>
      <trkpt lat="37.0265300" lon="-2.2651790">
        <ele>891.3</ele>
        <time>2019-10-18T12:22:12Z</time>
      </trkpt>
      <trkpt lat="37.0265320" lon="-2.2651610">
        <ele>891.3</ele>
        <time>2019-10-18T12:22:13Z</time>
      </trkpt>
      <trkpt lat="37.0265350" lon="-2.2651420">
        <ele>891.9</ele>
        <time>2019-10-18T12:22:14Z</time>
      </trkpt>
      <trkpt lat="37.0265390" lon="-2.2651240">
        <ele>891.9</ele>
        <time>2019-10-18T12:22:15Z</time>
      </trkpt>
      <trkpt lat="37.0265430" lon="-2.2651060">
        <ele>891.9</ele>
        <time>2019-10-18T12:22:16Z</time>
      </trkpt>
      <trkpt lat="37.0265470" lon="-2.2650900">
        <ele>891.9</ele>
        <time>2019-10-18T12:22:17Z</time>
      </trkpt>
      <trkpt lat="37.0265490" lon="-2.2650720">
        <ele>891.9</ele>
        <time>2019-10-18T12:22:18Z</time>
      </trkpt>
      <trkpt lat="37.0265500" lon="-2.2650510">
        <ele>892.5</ele>
        <time>2019-10-18T12:22:19Z</time>
      </trkpt>
      <trkpt lat="37.0265470" lon="-2.2650270">
        <ele>893.1</ele>
        <time>2019-10-18T12:22:20Z</time>
      </trkpt>
      <trkpt lat="37.0265420" lon="-2.2650050">
        <ele>893.1</ele>
        <time>2019-10-18T12:22:21Z</time>
      </trkpt>
      <trkpt lat="37.0265390" lon="-2.2649900">
        <ele>893.7</ele>
        <time>2019-10-18T12:22:22Z</time>
      </trkpt>
      <trkpt lat="37.0265390" lon="-2.2649820">
        <ele>894.3</ele>
        <time>2019-10-18T12:22:23Z</time>
      </trkpt>
      <trkpt lat="37.0265380" lon="-2.2649780">
        <ele>894.3</ele>
        <time>2019-10-18T12:22:24Z</time>
      </trkpt>
      <trkpt lat="37.0265350" lon="-2.2649750">
        <ele>894.3</ele>
        <time>2019-10-18T12:22:25Z</time>
      </trkpt>
      <trkpt lat="37.0265320" lon="-2.2649710">
        <ele>894.3</ele>
        <time>2019-10-18T12:22:26Z</time>
      </trkpt>
      <trkpt lat="37.0265300" lon="-2.2649670">
        <ele>894.3</ele>
        <time>2019-10-18T12:22:27Z</time>
      </trkpt>
      <trkpt lat="37.0265280" lon="-2.2649610">
        <ele>894.3</ele>
        <time>2019-10-18T12:22:28Z</time>
      </trkpt>
      <trkpt lat="37.0265270" lon="-2.2649530">
        <ele>894.3</ele>
        <time>2019-10-18T12:22:29Z</time>
      </trkpt>
      <trkpt lat="37.0265240" lon="-2.2649420">
        <ele>894.9</ele>
        <time>2019-10-18T12:22:30Z</time>
      </trkpt>
      <trkpt lat="37.0265220" lon="-2.2649330">
        <ele>894.9</ele>
        <time>2019-10-18T12:22:31Z</time>
      </trkpt>
      <trkpt lat="37.0265180" lon="-2.2649230">
        <ele>894.9</ele>
        <time>2019-10-18T12:22:32Z</time>
      </trkpt>
      <trkpt lat="37.0265140" lon="-2.2649140">
        <ele>894.9</ele>
        <time>2019-10-18T12:22:33Z</time>
      </trkpt>
      <trkpt lat="37.0265120" lon="-2.2649040">
        <ele>894.9</ele>
        <time>2019-10-18T12:22:34Z</time>
      </trkpt>
      <trkpt lat="37.0265110" lon="-2.2648920">
        <ele>895.6</ele>
        <time>2019-10-18T12:22:35Z</time>
      </trkpt>
      <trkpt lat="37.0265120" lon="-2.2648810">
        <ele>895.6</ele>
        <time>2019-10-18T12:22:36Z</time>
      </trkpt>
      <trkpt lat="37.0265130" lon="-2.2648700">
        <ele>895.6</ele>
        <time>2019-10-18T12:22:37Z</time>
      </trkpt>
      <trkpt lat="37.0265160" lon="-2.2648600">
        <ele>895.6</ele>
        <time>2019-10-18T12:22:38Z</time>
      </trkpt>
      <trkpt lat="37.0265190" lon="-2.2648490">
        <ele>896.3</ele>
        <time>2019-10-18T12:22:39Z</time>
      </trkpt>
      <trkpt lat="37.0265240" lon="-2.2648390">
        <ele>896.3</ele>
        <time>2019-10-18T12:22:40Z</time>
      </trkpt>
      <trkpt lat="37.0265300" lon="-2.2648290">
        <ele>896.3</ele>
        <time>2019-10-18T12:22:41Z</time>
      </trkpt>
      <trkpt lat="37.0265370" lon="-2.2648180">
        <ele>896.3</ele>
        <time>2019-10-18T12:22:42Z</time>
      </trkpt>
      <trkpt lat="37.0265440" lon="-2.2648070">
        <ele>896.6</ele>
        <time>2019-10-18T12:22:43Z</time>
      </trkpt>
      <trkpt lat="37.0265510" lon="-2.2647960">
        <ele>896.6</ele>
        <time>2019-10-18T12:22:44Z</time>
      </trkpt>
      <trkpt lat="37.0265570" lon="-2.2647840">
        <ele>896.6</ele>
        <time>2019-10-18T12:22:45Z</time>
      </trkpt>
      <trkpt lat="37.0265630" lon="-2.2647720">
        <ele>896.6</ele>
        <time>2019-10-18T12:22:46Z</time>
      </trkpt>
      <trkpt lat="37.0265680" lon="-2.2647600">
        <ele>897.5</ele>
        <time>2019-10-18T12:22:47Z</time>
      </trkpt>
      <trkpt lat="37.0265730" lon="-2.2647500">
        <ele>897.5</ele>
        <time>2019-10-18T12:22:48Z</time>
      </trkpt>
      <trkpt lat="37.0265780" lon="-2.2647400">
        <ele>896.9</ele>
        <time>2019-10-18T12:22:49Z</time>
      </trkpt>
      <trkpt lat="37.0265830" lon="-2.2647310">
        <ele>896.9</ele>
        <time>2019-10-18T12:22:50Z</time>
      </trkpt>
      <trkpt lat="37.0265880" lon="-2.2647220">
        <ele>897.9</ele>
        <time>2019-10-18T12:22:51Z</time>
      </trkpt>
      <trkpt lat="37.0265930" lon="-2.2647130">
        <ele>897.9</ele>
        <time>2019-10-18T12:22:52Z</time>
      </trkpt>
      <trkpt lat="37.0265990" lon="-2.2647030">
        <ele>897.9</ele>
        <time>2019-10-18T12:22:53Z</time>
      </trkpt>
      <trkpt lat="37.0266030" lon="-2.2646940">
        <ele>897.9</ele>
        <time>2019-10-18T12:22:54Z</time>
      </trkpt>
      <trkpt lat="37.0266070" lon="-2.2646850">
        <ele>898.9</ele>
        <time>2019-10-18T12:22:55Z</time>
      </trkpt>
      <trkpt lat="37.0266100" lon="-2.2646800">
        <ele>898.2</ele>
        <time>2019-10-18T12:22:56Z</time>
      </trkpt>
      <trkpt lat="37.0266130" lon="-2.2646760">
        <ele>898.2</ele>
        <time>2019-10-18T12:22:57Z</time>
      </trkpt>
      <trkpt lat="37.0266160" lon="-2.2646740">
        <ele>898.2</ele>
        <time>2019-10-18T12:22:58Z</time>
      </trkpt>
      <trkpt lat="37.0266170" lon="-2.2646730">
        <ele>898.2</ele>
        <time>2019-10-18T12:22:59Z</time>
      </trkpt>
      <trkpt lat="37.0266180" lon="-2.2646730">
        <ele>898.2</ele>
        <time>2019-10-18T12:23:00Z</time>
      </trkpt>
      <trkpt lat="37.0266180" lon="-2.2646730">
        <ele>898.2</ele>
        <time>2019-10-18T12:23:01Z</time>
      </trkpt>
      <trkpt lat="37.0266200" lon="-2.2646720">
        <ele>898.2</ele>
        <time>2019-10-18T12:23:02Z</time>
      </trkpt>
      <trkpt lat="37.0266220" lon="-2.2646690">
        <ele>898.2</ele>
        <time>2019-10-18T12:23:03Z</time>
      </trkpt>
      <trkpt lat="37.0266250" lon="-2.2646640">
        <ele>898.2</ele>
        <time>2019-10-18T12:23:04Z</time>
      </trkpt>
      <trkpt lat="37.0266280" lon="-2.2646580">
        <ele>898.2</ele>
        <time>2019-10-18T12:23:05Z</time>
      </trkpt>
      <trkpt lat="37.0266320" lon="-2.2646520">
        <ele>898.2</ele>
        <time>2019-10-18T12:23:06Z</time>
      </trkpt>
      <trkpt lat="37.0266360" lon="-2.2646440">
        <ele>898.2</ele>
        <time>2019-10-18T12:23:07Z</time>
      </trkpt>
      <trkpt lat="37.0266390" lon="-2.2646370">
        <ele>899.1</ele>
        <time>2019-10-18T12:23:08Z</time>
      </trkpt>
      <trkpt lat="37.0266410" lon="-2.2646300">
        <ele>899.1</ele>
        <time>2019-10-18T12:23:09Z</time>
      </trkpt>
      <trkpt lat="37.0266430" lon="-2.2646230">
        <ele>898.3</ele>
        <time>2019-10-18T12:23:10Z</time>
      </trkpt>
      <trkpt lat="37.0266450" lon="-2.2646150">
        <ele>898.3</ele>
        <time>2019-10-18T12:23:11Z</time>
      </trkpt>
      <trkpt lat="37.0266470" lon="-2.2646080">
        <ele>898.3</ele>
        <time>2019-10-18T12:23:12Z</time>
      </trkpt>
      <trkpt lat="37.0266480" lon="-2.2646000">
        <ele>898.3</ele>
        <time>2019-10-18T12:23:13Z</time>
      </trkpt>
      <trkpt lat="37.0266500" lon="-2.2645920">
        <ele>899.2</ele>
        <time>2019-10-18T12:23:14Z</time>
      </trkpt>
      <trkpt lat="37.0266530" lon="-2.2645840">
        <ele>899.2</ele>
        <time>2019-10-18T12:23:15Z</time>
      </trkpt>
      <trkpt lat="37.0266560" lon="-2.2645760">
        <ele>899.2</ele>
        <time>2019-10-18T12:23:16Z</time>
      </trkpt>
      <trkpt lat="37.0266590" lon="-2.2645690">
        <ele>899.2</ele>
        <time>2019-10-18T12:23:17Z</time>
      </trkpt>
      <trkpt lat="37.0266610" lon="-2.2645620">
        <ele>899.2</ele>
        <time>2019-10-18T12:23:18Z</time>
      </trkpt>
      <trkpt lat="37.0266640" lon="-2.2645540">
        <ele>900.0</ele>
        <time>2019-10-18T12:23:19Z</time>
      </trkpt>
      <trkpt lat="37.0266670" lon="-2.2645460">
        <ele>900.0</ele>
        <time>2019-10-18T12:23:20Z</time>
      </trkpt>
      <trkpt lat="37.0266680" lon="-2.2645370">
        <ele>900.0</ele>
        <time>2019-10-18T12:23:21Z</time>
      </trkpt>
      <trkpt lat="37.0266690" lon="-2.2645290">
        <ele>900.0</ele>
        <time>2019-10-18T12:23:22Z</time>
      </trkpt>
      <trkpt lat="37.0266700" lon="-2.2645220">
        <ele>900.0</ele>
        <time>2019-10-18T12:23:23Z</time>
      </trkpt>
      <trkpt lat="37.0266710" lon="-2.2645150">
        <ele>900.0</ele>
        <time>2019-10-18T12:23:24Z</time>
      </trkpt>
      <trkpt lat="37.0266720" lon="-2.2645070">
        <ele>900.8</ele>
        <time>2019-10-18T12:23:25Z</time>
      </trkpt>
      <trkpt lat="37.0266720" lon="-2.2644980">
        <ele>900.8</ele>
        <time>2019-10-18T12:23:26Z</time>
      </trkpt>
      <trkpt lat="37.0266720" lon="-2.2644870">
        <ele>900.8</ele>
        <time>2019-10-18T12:23:27Z</time>
      </trkpt>
      <trkpt lat="37.0266710" lon="-2.2644750">
        <ele>900.8</ele>
        <time>2019-10-18T12:23:28Z</time>
      </trkpt>
      <trkpt lat="37.0266700" lon="-2.2644650">
        <ele>901.6</ele>
        <time>2019-10-18T12:23:29Z</time>
      </trkpt>
      <trkpt lat="37.0266690" lon="-2.2644550">
        <ele>901.6</ele>
        <time>2019-10-18T12:23:30Z</time>
      </trkpt>
      <trkpt lat="37.0266670" lon="-2.2644460">
        <ele>901.6</ele>
        <time>2019-10-18T12:23:31Z</time>
      </trkpt>
      <trkpt lat="37.0266660" lon="-2.2644380">
        <ele>901.6</ele>
        <time>2019-10-18T12:23:32Z</time>
      </trkpt>
      <trkpt lat="37.0266640" lon="-2.2644300">
        <ele>901.6</ele>
        <time>2019-10-18T12:23:33Z</time>
      </trkpt>
      <trkpt lat="37.0266620" lon="-2.2644220">
        <ele>902.5</ele>
        <time>2019-10-18T12:23:34Z</time>
      </trkpt>
      <trkpt lat="37.0266590" lon="-2.2644140">
        <ele>902.5</ele>
        <time>2019-10-18T12:23:35Z</time>
      </trkpt>
      <trkpt lat="37.0266560" lon="-2.2644080">
        <ele>902.5</ele>
        <time>2019-10-18T12:23:36Z</time>
      </trkpt>
      <trkpt lat="37.0266530" lon="-2.2644020">
        <ele>902.5</ele>
        <time>2019-10-18T12:23:37Z</time>
      </trkpt>
      <trkpt lat="37.0266490" lon="-2.2643980">
        <ele>902.5</ele>
        <time>2019-10-18T12:23:38Z</time>
      </trkpt>
      <trkpt lat="37.0266460" lon="-2.2643930">
        <ele>902.5</ele>
        <time>2019-10-18T12:23:39Z</time>
      </trkpt>
      <trkpt lat="37.0266410" lon="-2.2643860">
        <ele>903.4</ele>
        <time>2019-10-18T12:23:40Z</time>
      </trkpt>
      <trkpt lat="37.0266370" lon="-2.2643800">
        <ele>904.2</ele>
        <time>2019-10-18T12:23:41Z</time>
      </trkpt>
      <trkpt lat="37.0266320" lon="-2.2643740">
        <ele>904.2</ele>
        <time>2019-10-18T12:23:42Z</time>
      </trkpt>
      <trkpt lat="37.0266270" lon="-2.2643690">
        <ele>904.2</ele>
        <time>2019-10-18T12:23:43Z</time>
      </trkpt>
      <trkpt lat="37.0266220" lon="-2.2643640">
        <ele>904.2</ele>
        <time>2019-10-18T12:23:44Z</time>
      </trkpt>
      <trkpt lat="37.0266160" lon="-2.2643590">
        <ele>904.2</ele>
        <time>2019-10-18T12:23:45Z</time>
      </trkpt>
      <trkpt lat="37.0266090" lon="-2.2643540">
        <ele>904.2</ele>
        <time>2019-10-18T12:23:46Z</time>
      </trkpt>
      <trkpt lat="37.0266030" lon="-2.2643490">
        <ele>905.0</ele>
        <time>2019-10-18T12:23:47Z</time>
      </trkpt>
      <trkpt lat="37.0265990" lon="-2.2643470">
        <ele>905.0</ele>
        <time>2019-10-18T12:23:48Z</time>
      </trkpt>
      <trkpt lat="37.0265970" lon="-2.2643460">
        <ele>905.0</ele>
        <time>2019-10-18T12:23:49Z</time>
      </trkpt>
      <trkpt lat="37.0265960" lon="-2.2643460">
        <ele>905.0</ele>
        <time>2019-10-18T12:23:50Z</time>
      </trkpt>
      <trkpt lat="37.0265960" lon="-2.2643460">
        <ele>905.0</ele>
        <time>2019-10-18T12:23:51Z</time>
      </trkpt>
      <trkpt lat="37.0265960" lon="-2.2643450">
        <ele>905.0</ele>
        <time>2019-10-18T12:23:52Z</time>
      </trkpt>
      <trkpt lat="37.0265940" lon="-2.2643430">
        <ele>905.0</ele>
        <time>2019-10-18T12:23:53Z</time>
      </trkpt>
      <trkpt lat="37.0265900" lon="-2.2643410">
        <ele>906.0</ele>
        <time>2019-10-18T12:23:54Z</time>
      </trkpt>
      <trkpt lat="37.0265820" lon="-2.2643400">
        <ele>906.0</ele>
        <time>2019-10-18T12:23:55Z</time>
      </trkpt>
      <trkpt lat="37.0265740" lon="-2.2643410">
        <ele>906.0</ele>
        <time>2019-10-18T12:23:56Z</time>
      </trkpt>
      <trkpt lat="37.0265660" lon="-2.2643440">
        <ele>905.7</ele>
        <time>2019-10-18T12:23:57Z</time>
      </trkpt>
      <trkpt lat="37.0265580" lon="-2.2643490">
        <ele>905.7</ele>
        <time>2019-10-18T12:23:58Z</time>
      </trkpt>
      <trkpt lat="37.0265490" lon="-2.2643520">
        <ele>905.7</ele>
        <time>2019-10-18T12:23:59Z</time>
      </trkpt>
      <trkpt lat="37.0265410" lon="-2.2643550">
        <ele>905.7</ele>
        <time>2019-10-18T12:24:00Z</time>
      </trkpt>
      <trkpt lat="37.0265340" lon="-2.2643580">
        <ele>906.4</ele>
        <time>2019-10-18T12:24:01Z</time>
      </trkpt>
      <trkpt lat="37.0265260" lon="-2.2643600">
        <ele>906.4</ele>
        <time>2019-10-18T12:24:02Z</time>
      </trkpt>
      <trkpt lat="37.0265180" lon="-2.2643620">
        <ele>906.4</ele>
        <time>2019-10-18T12:24:03Z</time>
      </trkpt>
      <trkpt lat="37.0265100" lon="-2.2643650">
        <ele>906.4</ele>
        <time>2019-10-18T12:24:04Z</time>
      </trkpt>
      <trkpt lat="37.0265020" lon="-2.2643700">
        <ele>907.0</ele>
        <time>2019-10-18T12:24:05Z</time>
      </trkpt>
      <trkpt lat="37.0264940" lon="-2.2643750">
        <ele>907.0</ele>
        <time>2019-10-18T12:24:06Z</time>
      </trkpt>
      <trkpt lat="37.0264860" lon="-2.2643790">
        <ele>907.0</ele>
        <time>2019-10-18T12:24:07Z</time>
      </trkpt>
      <trkpt lat="37.0264800" lon="-2.2643810">
        <ele>907.0</ele>
        <time>2019-10-18T12:24:08Z</time>
      </trkpt>
      <trkpt lat="37.0264750" lon="-2.2643830">
        <ele>907.0</ele>
        <time>2019-10-18T12:24:09Z</time>
      </trkpt>
      <trkpt lat="37.0264690" lon="-2.2643860">
        <ele>906.8</ele>
        <time>2019-10-18T12:24:10Z</time>
      </trkpt>
      <trkpt lat="37.0264620" lon="-2.2643910">
        <ele>906.8</ele>
        <time>2019-10-18T12:24:11Z</time>
      </trkpt>
      <trkpt lat="37.0264530" lon="-2.2643970">
        <ele>906.8</ele>
        <time>2019-10-18T12:24:12Z</time>
      </trkpt>
      <trkpt lat="37.0264440" lon="-2.2644060">
        <ele>906.8</ele>
        <time>2019-10-18T12:24:13Z</time>
      </trkpt>
      <trkpt lat="37.0264340" lon="-2.2644180">
        <ele>907.5</ele>
        <time>2019-10-18T12:24:14Z</time>
      </trkpt>
      <trkpt lat="37.0264230" lon="-2.2644320">
        <ele>906.6</ele>
        <time>2019-10-18T12:24:15Z</time>
      </trkpt>
      <trkpt lat="37.0264100" lon="-2.2644440">
        <ele>906.6</ele>
        <time>2019-10-18T12:24:16Z</time>
      </trkpt>
      <trkpt lat="37.0263960" lon="-2.2644570">
        <ele>907.4</ele>
        <time>2019-10-18T12:24:17Z</time>
      </trkpt>
      <trkpt lat="37.0263800" lon="-2.2644690">
        <ele>907.4</ele>
        <time>2019-10-18T12:24:18Z</time>
      </trkpt>
      <trkpt lat="37.0263660" lon="-2.2644810">
        <ele>907.2</ele>
        <time>2019-10-18T12:24:19Z</time>
      </trkpt>
      <trkpt lat="37.0263520" lon="-2.2644920">
        <ele>907.2</ele>
        <time>2019-10-18T12:24:20Z</time>
      </trkpt>
      <trkpt lat="37.0263410" lon="-2.2645050">
        <ele>907.2</ele>
        <time>2019-10-18T12:24:21Z</time>
      </trkpt>
      <trkpt lat="37.0263310" lon="-2.2645190">
        <ele>907.1</ele>
        <time>2019-10-18T12:24:22Z</time>
      </trkpt>
      <trkpt lat="37.0263210" lon="-2.2645340">
        <ele>907.1</ele>
        <time>2019-10-18T12:24:23Z</time>
      </trkpt>
      <trkpt lat="37.0263100" lon="-2.2645470">
        <ele>907.1</ele>
        <time>2019-10-18T12:24:24Z</time>
      </trkpt>
      <trkpt lat="37.0262990" lon="-2.2645620">
        <ele>906.9</ele>
        <time>2019-10-18T12:24:25Z</time>
      </trkpt>
      <trkpt lat="37.0262880" lon="-2.2645760">
        <ele>906.9</ele>
        <time>2019-10-18T12:24:26Z</time>
      </trkpt>
      <trkpt lat="37.0262760" lon="-2.2645880">
        <ele>906.9</ele>
        <time>2019-10-18T12:24:27Z</time>
      </trkpt>
      <trkpt lat="37.0262640" lon="-2.2645980">
        <ele>907.7</ele>
        <time>2019-10-18T12:24:28Z</time>
      </trkpt>
      <trkpt lat="37.0262530" lon="-2.2646040">
        <ele>906.9</ele>
        <time>2019-10-18T12:24:29Z</time>
      </trkpt>
      <trkpt lat="37.0262430" lon="-2.2646050">
        <ele>906.9</ele>
        <time>2019-10-18T12:24:30Z</time>
      </trkpt>
      <trkpt lat="37.0262340" lon="-2.2646030">
        <ele>906.9</ele>
        <time>2019-10-18T12:24:31Z</time>
      </trkpt>
      <trkpt lat="37.0262250" lon="-2.2645990">
        <ele>908.4</ele>
        <time>2019-10-18T12:24:32Z</time>
      </trkpt>
      <trkpt lat="37.0262160" lon="-2.2645890">
        <ele>908.4</ele>
        <time>2019-10-18T12:24:33Z</time>
      </trkpt>
      <trkpt lat="37.0262120" lon="-2.2645750">
        <ele>908.4</ele>
        <time>2019-10-18T12:24:34Z</time>
      </trkpt>
      <trkpt lat="37.0262100" lon="-2.2645570">
        <ele>908.4</ele>
        <time>2019-10-18T12:24:35Z</time>
      </trkpt>
      <trkpt lat="37.0262130" lon="-2.2645390">
        <ele>909.2</ele>
        <time>2019-10-18T12:24:36Z</time>
      </trkpt>
      <trkpt lat="37.0262160" lon="-2.2645220">
        <ele>909.2</ele>
        <time>2019-10-18T12:24:37Z</time>
      </trkpt>
      <trkpt lat="37.0262220" lon="-2.2645080">
        <ele>910.1</ele>
        <time>2019-10-18T12:24:38Z</time>
      </trkpt>
      <trkpt lat="37.0262300" lon="-2.2644950">
        <ele>910.1</ele>
        <time>2019-10-18T12:24:39Z</time>
      </trkpt>
      <trkpt lat="37.0262410" lon="-2.2644820">
        <ele>909.3</ele>
        <time>2019-10-18T12:24:40Z</time>
      </trkpt>
      <trkpt lat="37.0262510" lon="-2.2644680">
        <ele>910.1</ele>
        <time>2019-10-18T12:24:41Z</time>
      </trkpt>
      <trkpt lat="37.0262600" lon="-2.2644540">
        <ele>910.1</ele>
        <time>2019-10-18T12:24:42Z</time>
      </trkpt>
      <trkpt lat="37.0262690" lon="-2.2644410">
        <ele>909.4</ele>
        <time>2019-10-18T12:24:43Z</time>
      </trkpt>
      <trkpt lat="37.0262790" lon="-2.2644280">
        <ele>910.4</ele>
        <time>2019-10-18T12:24:44Z</time>
      </trkpt>
      <trkpt lat="37.0262890" lon="-2.2644140">
        <ele>910.4</ele>
        <time>2019-10-18T12:24:45Z</time>
      </trkpt>
      <trkpt lat="37.0262980" lon="-2.2643990">
        <ele>910.4</ele>
        <time>2019-10-18T12:24:46Z</time>
      </trkpt>
      <trkpt lat="37.0263070" lon="-2.2643830">
        <ele>910.6</ele>
        <time>2019-10-18T12:24:47Z</time>
      </trkpt>
      <trkpt lat="37.0263150" lon="-2.2643660">
        <ele>910.6</ele>
        <time>2019-10-18T12:24:48Z</time>
      </trkpt>
      <trkpt lat="37.0263230" lon="-2.2643520">
        <ele>910.6</ele>
        <time>2019-10-18T12:24:49Z</time>
      </trkpt>
      <trkpt lat="37.0263310" lon="-2.2643410">
        <ele>911.6</ele>
        <time>2019-10-18T12:24:50Z</time>
      </trkpt>
      <trkpt lat="37.0263410" lon="-2.2643290">
        <ele>910.9</ele>
        <time>2019-10-18T12:24:51Z</time>
      </trkpt>
      <trkpt lat="37.0263500" lon="-2.2643140">
        <ele>910.9</ele>
        <time>2019-10-18T12:24:52Z</time>
      </trkpt>
      <trkpt lat="37.0263570" lon="-2.2642980">
        <ele>911.9</ele>
        <time>2019-10-18T12:24:53Z</time>
      </trkpt>
      <trkpt lat="37.0263630" lon="-2.2642820">
        <ele>911.9</ele>
        <time>2019-10-18T12:24:54Z</time>
      </trkpt>
      <trkpt lat="37.0263680" lon="-2.2642660">
        <ele>911.9</ele>
        <time>2019-10-18T12:24:55Z</time>
      </trkpt>
      <trkpt lat="37.0263740" lon="-2.2642510">
        <ele>912.1</ele>
        <time>2019-10-18T12:24:56Z</time>
      </trkpt>
      <trkpt lat="37.0263810" lon="-2.2642380">
        <ele>912.1</ele>
        <time>2019-10-18T12:24:57Z</time>
      </trkpt>
      <trkpt lat="37.0263890" lon="-2.2642270">
        <ele>912.1</ele>
        <time>2019-10-18T12:24:58Z</time>
      </trkpt>
      <trkpt lat="37.0263990" lon="-2.2642150">
        <ele>912.1</ele>
        <time>2019-10-18T12:24:59Z</time>
      </trkpt>
      <trkpt lat="37.0264080" lon="-2.2642030">
        <ele>912.2</ele>
        <time>2019-10-18T12:25:00Z</time>
      </trkpt>
      <trkpt lat="37.0264170" lon="-2.2641890">
        <ele>912.2</ele>
        <time>2019-10-18T12:25:01Z</time>
      </trkpt>
      <trkpt lat="37.0264270" lon="-2.2641760">
        <ele>912.2</ele>
        <time>2019-10-18T12:25:02Z</time>
      </trkpt>
      <trkpt lat="37.0264380" lon="-2.2641640">
        <ele>912.4</ele>
        <time>2019-10-18T12:25:03Z</time>
      </trkpt>
      <trkpt lat="37.0264490" lon="-2.2641530">
        <ele>912.4</ele>
        <time>2019-10-18T12:25:04Z</time>
      </trkpt>
      <trkpt lat="37.0264600" lon="-2.2641400">
        <ele>912.4</ele>
        <time>2019-10-18T12:25:05Z</time>
      </trkpt>
      <trkpt lat="37.0264700" lon="-2.2641270">
        <ele>913.3</ele>
        <time>2019-10-18T12:25:06Z</time>
      </trkpt>
      <trkpt lat="37.0264800" lon="-2.2641140">
        <ele>912.6</ele>
        <time>2019-10-18T12:25:07Z</time>
      </trkpt>
      <trkpt lat="37.0264910" lon="-2.2641030">
        <ele>912.6</ele>
        <time>2019-10-18T12:25:08Z</time>
      </trkpt>
      <trkpt lat="37.0265040" lon="-2.2640940">
        <ele>912.6</ele>
        <time>2019-10-18T12:25:09Z</time>
      </trkpt>
      <trkpt lat="37.0265180" lon="-2.2640850">
        <ele>912.0</ele>
        <time>2019-10-18T12:25:10Z</time>
      </trkpt>
      <trkpt lat="37.0265300" lon="-2.2640760">
        <ele>912.8</ele>
        <time>2019-10-18T12:25:11Z</time>
      </trkpt>
      <trkpt lat="37.0265400" lon="-2.2640710">
        <ele>912.3</ele>
        <time>2019-10-18T12:25:12Z</time>
      </trkpt>
      <trkpt lat="37.0265460" lon="-2.2640680">
        <ele>912.3</ele>
        <time>2019-10-18T12:25:13Z</time>
      </trkpt>
      <trkpt lat="37.0265480" lon="-2.2640680">
        <ele>912.3</ele>
        <time>2019-10-18T12:25:14Z</time>
      </trkpt>
      <trkpt lat="37.0265470" lon="-2.2640680">
        <ele>912.3</ele>
        <time>2019-10-18T12:25:15Z</time>
      </trkpt>
      <trkpt lat="37.0265450" lon="-2.2640670">
        <ele>912.3</ele>
        <time>2019-10-18T12:25:16Z</time>
      </trkpt>
      <trkpt lat="37.0265430" lon="-2.2640670">
        <ele>912.3</ele>
        <time>2019-10-18T12:25:17Z</time>
      </trkpt>
      <trkpt lat="37.0265420" lon="-2.2640660">
        <ele>912.3</ele>
        <time>2019-10-18T12:25:18Z</time>
      </trkpt>
      <trkpt lat="37.0265420" lon="-2.2640630">
        <ele>912.3</ele>
        <time>2019-10-18T12:25:19Z</time>
      </trkpt>
      <trkpt lat="37.0265440" lon="-2.2640600">
        <ele>912.3</ele>
        <time>2019-10-18T12:25:20Z</time>
      </trkpt>
      <trkpt lat="37.0265490" lon="-2.2640560">
        <ele>912.3</ele>
        <time>2019-10-18T12:25:21Z</time>
      </trkpt>
      <trkpt lat="37.0265560" lon="-2.2640510">
        <ele>912.3</ele>
        <time>2019-10-18T12:25:22Z</time>
      </trkpt>
      <trkpt lat="37.0265630" lon="-2.2640470">
        <ele>912.3</ele>
        <time>2019-10-18T12:25:23Z</time>
      </trkpt>
      <trkpt lat="37.0265710" lon="-2.2640440">
        <ele>912.3</ele>
        <time>2019-10-18T12:25:24Z</time>
      </trkpt>
      <trkpt lat="37.0265780" lon="-2.2640380">
        <ele>912.5</ele>
        <time>2019-10-18T12:25:25Z</time>
      </trkpt>
      <trkpt lat="37.0265860" lon="-2.2640310">
        <ele>912.5</ele>
        <time>2019-10-18T12:25:26Z</time>
      </trkpt>
      <trkpt lat="37.0265920" lon="-2.2640230">
        <ele>912.5</ele>
        <time>2019-10-18T12:25:27Z</time>
      </trkpt>
      <trkpt lat="37.0266000" lon="-2.2640150">
        <ele>912.5</ele>
        <time>2019-10-18T12:25:28Z</time>
      </trkpt>
      <trkpt lat="37.0266080" lon="-2.2640060">
        <ele>912.5</ele>
        <time>2019-10-18T12:25:29Z</time>
      </trkpt>
      <trkpt lat="37.0266150" lon="-2.2639980">
        <ele>912.7</ele>
        <time>2019-10-18T12:25:30Z</time>
      </trkpt>
      <trkpt lat="37.0266210" lon="-2.2639890">
        <ele>912.7</ele>
        <time>2019-10-18T12:25:31Z</time>
      </trkpt>
      <trkpt lat="37.0266260" lon="-2.2639800">
        <ele>912.7</ele>
        <time>2019-10-18T12:25:32Z</time>
      </trkpt>
      <trkpt lat="37.0266290" lon="-2.2639730">
        <ele>912.7</ele>
        <time>2019-10-18T12:25:33Z</time>
      </trkpt>
      <trkpt lat="37.0266310" lon="-2.2639670">
        <ele>912.7</ele>
        <time>2019-10-18T12:25:34Z</time>
      </trkpt>
      <trkpt lat="37.0266350" lon="-2.2639630">
        <ele>912.7</ele>
        <time>2019-10-18T12:25:35Z</time>
      </trkpt>
      <trkpt lat="37.0266370" lon="-2.2639610">
        <ele>912.7</ele>
        <time>2019-10-18T12:25:36Z</time>
      </trkpt>
      <trkpt lat="37.0266390" lon="-2.2639600">
        <ele>912.7</ele>
        <time>2019-10-18T12:25:37Z</time>
      </trkpt>
      <trkpt lat="37.0266390" lon="-2.2639590">
        <ele>912.7</ele>
        <time>2019-10-18T12:25:38Z</time>
      </trkpt>
      <trkpt lat="37.0266400" lon="-2.2639590">
        <ele>912.7</ele>
        <time>2019-10-18T12:25:39Z</time>
      </trkpt>
      <trkpt lat="37.0266410" lon="-2.2639580">
        <ele>912.7</ele>
        <time>2019-10-18T12:25:40Z</time>
      </trkpt>
      <trkpt lat="37.0266420" lon="-2.2639580">
        <ele>912.7</ele>
        <time>2019-10-18T12:25:41Z</time>
      </trkpt>
      <trkpt lat="37.0266440" lon="-2.2639560">
        <ele>912.9</ele>
        <time>2019-10-18T12:25:42Z</time>
      </trkpt>
      <trkpt lat="37.0266470" lon="-2.2639530">
        <ele>912.9</ele>
        <time>2019-10-18T12:25:43Z</time>
      </trkpt>
      <trkpt lat="37.0266540" lon="-2.2639510">
        <ele>912.9</ele>
        <time>2019-10-18T12:25:44Z</time>
      </trkpt>
      <trkpt lat="37.0266630" lon="-2.2639490">
        <ele>912.9</ele>
        <time>2019-10-18T12:25:45Z</time>
      </trkpt>
      <trkpt lat="37.0266730" lon="-2.2639460">
        <ele>912.9</ele>
        <time>2019-10-18T12:25:46Z</time>
      </trkpt>
      <trkpt lat="37.0266840" lon="-2.2639410">
        <ele>912.1</ele>
        <time>2019-10-18T12:25:47Z</time>
      </trkpt>
      <trkpt lat="37.0266930" lon="-2.2639350">
        <ele>912.1</ele>
        <time>2019-10-18T12:25:48Z</time>
      </trkpt>
      <trkpt lat="37.0267020" lon="-2.2639290">
        <ele>912.1</ele>
        <time>2019-10-18T12:25:49Z</time>
      </trkpt>
      <trkpt lat="37.0267110" lon="-2.2639240">
        <ele>911.4</ele>
        <time>2019-10-18T12:25:50Z</time>
      </trkpt>
      <trkpt lat="37.0267190" lon="-2.2639200">
        <ele>911.4</ele>
        <time>2019-10-18T12:25:51Z</time>
      </trkpt>
      <trkpt lat="37.0267270" lon="-2.2639150">
        <ele>911.4</ele>
        <time>2019-10-18T12:25:52Z</time>
      </trkpt>
      <trkpt lat="37.0267350" lon="-2.2639100">
        <ele>912.3</ele>
        <time>2019-10-18T12:25:53Z</time>
      </trkpt>
      <trkpt lat="37.0267420" lon="-2.2639040">
        <ele>912.3</ele>
        <time>2019-10-18T12:25:54Z</time>
      </trkpt>
      <trkpt lat="37.0267490" lon="-2.2638970">
        <ele>911.6</ele>
        <time>2019-10-18T12:25:55Z</time>
      </trkpt>
      <trkpt lat="37.0267550" lon="-2.2638900">
        <ele>911.6</ele>
        <time>2019-10-18T12:25:56Z</time>
      </trkpt>
      <trkpt lat="37.0267600" lon="-2.2638840">
        <ele>911.6</ele>
        <time>2019-10-18T12:25:57Z</time>
      </trkpt>
      <trkpt lat="37.0267650" lon="-2.2638770">
        <ele>911.6</ele>
        <time>2019-10-18T12:25:58Z</time>
      </trkpt>
      <trkpt lat="37.0267710" lon="-2.2638700">
        <ele>912.6</ele>
        <time>2019-10-18T12:25:59Z</time>
      </trkpt>
      <trkpt lat="37.0267790" lon="-2.2638620">
        <ele>912.6</ele>
        <time>2019-10-18T12:26:00Z</time>
      </trkpt>
      <trkpt lat="37.0267860" lon="-2.2638540">
        <ele>911.9</ele>
        <time>2019-10-18T12:26:01Z</time>
      </trkpt>
      <trkpt lat="37.0267940" lon="-2.2638460">
        <ele>911.9</ele>
        <time>2019-10-18T12:26:02Z</time>
      </trkpt>
      <trkpt lat="37.0268010" lon="-2.2638380">
        <ele>911.9</ele>
        <time>2019-10-18T12:26:03Z</time>
      </trkpt>
      <trkpt lat="37.0268080" lon="-2.2638300">
        <ele>911.9</ele>
        <time>2019-10-18T12:26:04Z</time>
      </trkpt>
      <trkpt lat="37.0268160" lon="-2.2638230">
        <ele>912.2</ele>
        <time>2019-10-18T12:26:05Z</time>
      </trkpt>
      <trkpt lat="37.0268240" lon="-2.2638160">
        <ele>912.2</ele>
        <time>2019-10-18T12:26:06Z</time>
      </trkpt>
      <trkpt lat="37.0268310" lon="-2.2638100">
        <ele>912.2</ele>
        <time>2019-10-18T12:26:07Z</time>
      </trkpt>
      <trkpt lat="37.0268390" lon="-2.2638030">
        <ele>912.2</ele>
        <time>2019-10-18T12:26:08Z</time>
      </trkpt>
      <trkpt lat="37.0268460" lon="-2.2637960">
        <ele>912.2</ele>
        <time>2019-10-18T12:26:09Z</time>
      </trkpt>
      <trkpt lat="37.0268530" lon="-2.2637890">
        <ele>911.4</ele>
        <time>2019-10-18T12:26:10Z</time>
      </trkpt>
      <trkpt lat="37.0268580" lon="-2.2637840">
        <ele>912.3</ele>
        <time>2019-10-18T12:26:11Z</time>
      </trkpt>
      <trkpt lat="37.0268610" lon="-2.2637810">
        <ele>912.3</ele>
        <time>2019-10-18T12:26:12Z</time>
      </trkpt>
      <trkpt lat="37.0268630" lon="-2.2637800">
        <ele>912.3</ele>
        <time>2019-10-18T12:26:13Z</time>
      </trkpt>
      <trkpt lat="37.0268640" lon="-2.2637780">
        <ele>912.3</ele>
        <time>2019-10-18T12:26:14Z</time>
      </trkpt>
      <trkpt lat="37.0268650" lon="-2.2637790">
        <ele>912.3</ele>
        <time>2019-10-18T12:26:15Z</time>
      </trkpt>
      <trkpt lat="37.0268650" lon="-2.2637780">
        <ele>912.3</ele>
        <time>2019-10-18T12:26:16Z</time>
      </trkpt>
      <trkpt lat="37.0268660" lon="-2.2637760">
        <ele>912.3</ele>
        <time>2019-10-18T12:26:17Z</time>
      </trkpt>
      <trkpt lat="37.0268710" lon="-2.2637700">
        <ele>912.3</ele>
        <time>2019-10-18T12:26:18Z</time>
      </trkpt>
      <trkpt lat="37.0268770" lon="-2.2637600">
        <ele>912.3</ele>
        <time>2019-10-18T12:26:19Z</time>
      </trkpt>
      <trkpt lat="37.0268860" lon="-2.2637490">
        <ele>911.4</ele>
        <time>2019-10-18T12:26:20Z</time>
      </trkpt>
      <trkpt lat="37.0268940" lon="-2.2637350">
        <ele>912.3</ele>
        <time>2019-10-18T12:26:21Z</time>
      </trkpt>
      <trkpt lat="37.0269020" lon="-2.2637210">
        <ele>912.3</ele>
        <time>2019-10-18T12:26:22Z</time>
      </trkpt>
      <trkpt lat="37.0269090" lon="-2.2637060">
        <ele>912.3</ele>
        <time>2019-10-18T12:26:23Z</time>
      </trkpt>
      <trkpt lat="37.0269160" lon="-2.2636910">
        <ele>913.1</ele>
        <time>2019-10-18T12:26:24Z</time>
      </trkpt>
      <trkpt lat="37.0269230" lon="-2.2636750">
        <ele>912.1</ele>
        <time>2019-10-18T12:26:25Z</time>
      </trkpt>
      <trkpt lat="37.0269290" lon="-2.2636580">
        <ele>912.1</ele>
        <time>2019-10-18T12:26:26Z</time>
      </trkpt>
      <trkpt lat="37.0269340" lon="-2.2636390">
        <ele>912.9</ele>
        <time>2019-10-18T12:26:27Z</time>
      </trkpt>
      <trkpt lat="37.0269380" lon="-2.2636200">
        <ele>912.9</ele>
        <time>2019-10-18T12:26:28Z</time>
      </trkpt>
      <trkpt lat="37.0269410" lon="-2.2636010">
        <ele>913.7</ele>
        <time>2019-10-18T12:26:29Z</time>
      </trkpt>
      <trkpt lat="37.0269420" lon="-2.2635830">
        <ele>913.7</ele>
        <time>2019-10-18T12:26:30Z</time>
      </trkpt>
      <trkpt lat="37.0269410" lon="-2.2635640">
        <ele>914.5</ele>
        <time>2019-10-18T12:26:31Z</time>
      </trkpt>
      <trkpt lat="37.0269380" lon="-2.2635460">
        <ele>914.5</ele>
        <time>2019-10-18T12:26:32Z</time>
      </trkpt>
      <trkpt lat="37.0269340" lon="-2.2635280">
        <ele>914.5</ele>
        <time>2019-10-18T12:26:33Z</time>
      </trkpt>
      <trkpt lat="37.0269310" lon="-2.2635100">
        <ele>915.3</ele>
        <time>2019-10-18T12:26:34Z</time>
      </trkpt>
      <trkpt lat="37.0269270" lon="-2.2634920">
        <ele>915.3</ele>
        <time>2019-10-18T12:26:35Z</time>
      </trkpt>
      <trkpt lat="37.0269250" lon="-2.2634750">
        <ele>916.1</ele>
        <time>2019-10-18T12:26:36Z</time>
      </trkpt>
      <trkpt lat="37.0269240" lon="-2.2634570">
        <ele>916.1</ele>
        <time>2019-10-18T12:26:37Z</time>
      </trkpt>
      <trkpt lat="37.0269240" lon="-2.2634390">
        <ele>916.9</ele>
        <time>2019-10-18T12:26:38Z</time>
      </trkpt>
      <trkpt lat="37.0269240" lon="-2.2634210">
        <ele>916.9</ele>
        <time>2019-10-18T12:26:39Z</time>
      </trkpt>
      <trkpt lat="37.0269220" lon="-2.2634030">
        <ele>916.9</ele>
        <time>2019-10-18T12:26:40Z</time>
      </trkpt>
      <trkpt lat="37.0269210" lon="-2.2633840">
        <ele>917.8</ele>
        <time>2019-10-18T12:26:41Z</time>
      </trkpt>
      <trkpt lat="37.0269190" lon="-2.2633660">
        <ele>917.8</ele>
        <time>2019-10-18T12:26:42Z</time>
      </trkpt>
      <trkpt lat="37.0269180" lon="-2.2633470">
        <ele>918.6</ele>
        <time>2019-10-18T12:26:43Z</time>
      </trkpt>
      <trkpt lat="37.0269130" lon="-2.2633280">
        <ele>919.8</ele>
        <time>2019-10-18T12:26:44Z</time>
      </trkpt>
      <trkpt lat="37.0269070" lon="-2.2633110">
        <ele>920.6</ele>
        <time>2019-10-18T12:26:45Z</time>
      </trkpt>
      <trkpt lat="37.0269000" lon="-2.2632950">
        <ele>920.6</ele>
        <time>2019-10-18T12:26:46Z</time>
      </trkpt>
      <trkpt lat="37.0268940" lon="-2.2632800">
        <ele>920.6</ele>
        <time>2019-10-18T12:26:47Z</time>
      </trkpt>
      <trkpt lat="37.0268920" lon="-2.2632630">
        <ele>921.4</ele>
        <time>2019-10-18T12:26:48Z</time>
      </trkpt>
      <trkpt lat="37.0268930" lon="-2.2632470">
        <ele>921.4</ele>
        <time>2019-10-18T12:26:49Z</time>
      </trkpt>
      <trkpt lat="37.0268960" lon="-2.2632310">
        <ele>921.5</ele>
        <time>2019-10-18T12:26:50Z</time>
      </trkpt>
      <trkpt lat="37.0269000" lon="-2.2632140">
        <ele>921.6</ele>
        <time>2019-10-18T12:26:51Z</time>
      </trkpt>
      <trkpt lat="37.0269030" lon="-2.2631970">
        <ele>921.9</ele>
        <time>2019-10-18T12:26:52Z</time>
      </trkpt>
      <trkpt lat="37.0269030" lon="-2.2631790">
        <ele>922.2</ele>
        <time>2019-10-18T12:26:53Z</time>
      </trkpt>
      <trkpt lat="37.0269020" lon="-2.2631610">
        <ele>922.5</ele>
        <time>2019-10-18T12:26:54Z</time>
      </trkpt>
      <trkpt lat="37.0269010" lon="-2.2631450">
        <ele>922.7</ele>
        <time>2019-10-18T12:26:55Z</time>
      </trkpt>
      <trkpt lat="37.0269040" lon="-2.2631290">
        <ele>923.0</ele>
        <time>2019-10-18T12:26:56Z</time>
      </trkpt>
      <trkpt lat="37.0269090" lon="-2.2631120">
        <ele>923.3</ele>
        <time>2019-10-18T12:26:57Z</time>
      </trkpt>
      <trkpt lat="37.0269120" lon="-2.2630950">
        <ele>923.6</ele>
        <time>2019-10-18T12:26:58Z</time>
      </trkpt>
      <trkpt lat="37.0269120" lon="-2.2630780">
        <ele>923.8</ele>
        <time>2019-10-18T12:26:59Z</time>
      </trkpt>
      <trkpt lat="37.0269110" lon="-2.2630620">
        <ele>924.0</ele>
        <time>2019-10-18T12:27:00Z</time>
      </trkpt>
      <trkpt lat="37.0269080" lon="-2.2630460">
        <ele>924.2</ele>
        <time>2019-10-18T12:27:01Z</time>
      </trkpt>
      <trkpt lat="37.0269030" lon="-2.2630320">
        <ele>924.4</ele>
        <time>2019-10-18T12:27:02Z</time>
      </trkpt>
      <trkpt lat="37.0268970" lon="-2.2630190">
        <ele>924.6</ele>
        <time>2019-10-18T12:27:03Z</time>
      </trkpt>
      <trkpt lat="37.0268910" lon="-2.2630080">
        <ele>924.8</ele>
        <time>2019-10-18T12:27:04Z</time>
      </trkpt>
      <trkpt lat="37.0268850" lon="-2.2629970">
        <ele>925.0</ele>
        <time>2019-10-18T12:27:05Z</time>
      </trkpt>
      <trkpt lat="37.0268820" lon="-2.2629850">
        <ele>925.3</ele>
        <time>2019-10-18T12:27:06Z</time>
      </trkpt>
      <trkpt lat="37.0268810" lon="-2.2629700">
        <ele>925.7</ele>
        <time>2019-10-18T12:27:07Z</time>
      </trkpt>
      <trkpt lat="37.0268820" lon="-2.2629530">
        <ele>926.2</ele>
        <time>2019-10-18T12:27:08Z</time>
      </trkpt>
      <trkpt lat="37.0268810" lon="-2.2629360">
        <ele>926.6</ele>
        <time>2019-10-18T12:27:09Z</time>
      </trkpt>
      <trkpt lat="37.0268760" lon="-2.2629220">
        <ele>927.0</ele>
        <time>2019-10-18T12:27:10Z</time>
      </trkpt>
      <trkpt lat="37.0268660" lon="-2.2629130">
        <ele>927.4</ele>
        <time>2019-10-18T12:27:11Z</time>
      </trkpt>
      <trkpt lat="37.0268540" lon="-2.2629070">
        <ele>927.8</ele>
        <time>2019-10-18T12:27:12Z</time>
      </trkpt>
      <trkpt lat="37.0268440" lon="-2.2629020">
        <ele>928.1</ele>
        <time>2019-10-18T12:27:13Z</time>
      </trkpt>
      <trkpt lat="37.0268350" lon="-2.2628940">
        <ele>928.5</ele>
        <time>2019-10-18T12:27:14Z</time>
      </trkpt>
      <trkpt lat="37.0268260" lon="-2.2628830">
        <ele>928.9</ele>
        <time>2019-10-18T12:27:15Z</time>
      </trkpt>
      <trkpt lat="37.0268180" lon="-2.2628700">
        <ele>929.3</ele>
        <time>2019-10-18T12:27:16Z</time>
      </trkpt>
      <trkpt lat="37.0268070" lon="-2.2628570">
        <ele>929.8</ele>
        <time>2019-10-18T12:27:17Z</time>
      </trkpt>
      <trkpt lat="37.0267970" lon="-2.2628460">
        <ele>930.2</ele>
        <time>2019-10-18T12:27:18Z</time>
      </trkpt>
      <trkpt lat="37.0267870" lon="-2.2628360">
        <ele>930.5</ele>
        <time>2019-10-18T12:27:19Z</time>
      </trkpt>
      <trkpt lat="37.0267810" lon="-2.2628280">
        <ele>930.8</ele>
        <time>2019-10-18T12:27:20Z</time>
      </trkpt>
      <trkpt lat="37.0267760" lon="-2.2628230">
        <ele>930.9</ele>
        <time>2019-10-18T12:27:21Z</time>
      </trkpt>
      <trkpt lat="37.0267760" lon="-2.2628240">
        <ele>930.9</ele>
        <time>2019-10-18T12:27:22Z</time>
      </trkpt>
      <trkpt lat="37.0267760" lon="-2.2628270">
        <ele>931.0</ele>
        <time>2019-10-18T12:27:23Z</time>
      </trkpt>
      <trkpt lat="37.0267780" lon="-2.2628300">
        <ele>931.1</ele>
        <time>2019-10-18T12:27:24Z</time>
      </trkpt>
      <trkpt lat="37.0267780" lon="-2.2628310">
        <ele>931.1</ele>
        <time>2019-10-18T12:27:25Z</time>
      </trkpt>
      <trkpt lat="37.0267780" lon="-2.2628310">
        <ele>931.1</ele>
        <time>2019-10-18T12:27:26Z</time>
      </trkpt>
      <trkpt lat="37.0267770" lon="-2.2628310">
        <ele>931.1</ele>
        <time>2019-10-18T12:27:27Z</time>
      </trkpt>
      <trkpt lat="37.0267770" lon="-2.2628300">
        <ele>931.1</ele>
        <time>2019-10-18T12:27:28Z</time>
      </trkpt>
      <trkpt lat="37.0267760" lon="-2.2628290">
        <ele>931.2</ele>
        <time>2019-10-18T12:27:29Z</time>
      </trkpt>
      <trkpt lat="37.0267750" lon="-2.2628280">
        <ele>931.2</ele>
        <time>2019-10-18T12:27:30Z</time>
      </trkpt>
      <trkpt lat="37.0267720" lon="-2.2628250">
        <ele>931.3</ele>
        <time>2019-10-18T12:27:31Z</time>
      </trkpt>
      <trkpt lat="37.0267640" lon="-2.2628180">
        <ele>931.5</ele>
        <time>2019-10-18T12:27:32Z</time>
      </trkpt>
      <trkpt lat="37.0267570" lon="-2.2628070">
        <ele>931.8</ele>
        <time>2019-10-18T12:27:33Z</time>
      </trkpt>
      <trkpt lat="37.0267480" lon="-2.2627940">
        <ele>932.2</ele>
        <time>2019-10-18T12:27:34Z</time>
      </trkpt>
      <trkpt lat="37.0267430" lon="-2.2627810">
        <ele>932.5</ele>
        <time>2019-10-18T12:27:35Z</time>
      </trkpt>
      <trkpt lat="37.0267400" lon="-2.2627670">
        <ele>932.7</ele>
        <time>2019-10-18T12:27:36Z</time>
      </trkpt>
      <trkpt lat="37.0267390" lon="-2.2627510">
        <ele>933.1</ele>
        <time>2019-10-18T12:27:37Z</time>
      </trkpt>
      <trkpt lat="37.0267390" lon="-2.2627330">
        <ele>933.5</ele>
        <time>2019-10-18T12:27:38Z</time>
      </trkpt>
      <trkpt lat="37.0267400" lon="-2.2627160">
        <ele>933.8</ele>
        <time>2019-10-18T12:27:39Z</time>
      </trkpt>
      <trkpt lat="37.0267410" lon="-2.2626990">
        <ele>934.1</ele>
        <time>2019-10-18T12:27:40Z</time>
      </trkpt>
      <trkpt lat="37.0267430" lon="-2.2626810">
        <ele>934.3</ele>
        <time>2019-10-18T12:27:41Z</time>
      </trkpt>
      <trkpt lat="37.0267460" lon="-2.2626640">
        <ele>934.6</ele>
        <time>2019-10-18T12:27:42Z</time>
      </trkpt>
      <trkpt lat="37.0267480" lon="-2.2626460">
        <ele>934.9</ele>
        <time>2019-10-18T12:27:43Z</time>
      </trkpt>
      <trkpt lat="37.0267500" lon="-2.2626280">
        <ele>935.2</ele>
        <time>2019-10-18T12:27:44Z</time>
      </trkpt>
      <trkpt lat="37.0267510" lon="-2.2626090">
        <ele>935.5</ele>
        <time>2019-10-18T12:27:45Z</time>
      </trkpt>
      <trkpt lat="37.0267520" lon="-2.2625910">
        <ele>935.7</ele>
        <time>2019-10-18T12:27:46Z</time>
      </trkpt>
      <trkpt lat="37.0267510" lon="-2.2625730">
        <ele>935.9</ele>
        <time>2019-10-18T12:27:47Z</time>
      </trkpt>
      <trkpt lat="37.0267510" lon="-2.2625570">
        <ele>936.1</ele>
        <time>2019-10-18T12:27:48Z</time>
      </trkpt>
      <trkpt lat="37.0267530" lon="-2.2625390">
        <ele>936.3</ele>
        <time>2019-10-18T12:27:49Z</time>
      </trkpt>
      <trkpt lat="37.0267550" lon="-2.2625220">
        <ele>936.5</ele>
        <time>2019-10-18T12:27:50Z</time>
      </trkpt>
      <trkpt lat="37.0267580" lon="-2.2625020">
        <ele>936.7</ele>
        <time>2019-10-18T12:27:51Z</time>
      </trkpt>
      <trkpt lat="37.0267610" lon="-2.2624830">
        <ele>937.0</ele>
        <time>2019-10-18T12:27:52Z</time>
      </trkpt>
      <trkpt lat="37.0267630" lon="-2.2624630">
        <ele>937.2</ele>
        <time>2019-10-18T12:27:53Z</time>
      </trkpt>
      <trkpt lat="37.0267660" lon="-2.2624430">
        <ele>937.5</ele>
        <time>2019-10-18T12:27:54Z</time>
      </trkpt>
      <trkpt lat="37.0267690" lon="-2.2624210">
        <ele>937.8</ele>
        <time>2019-10-18T12:27:55Z</time>
      </trkpt>
      <trkpt lat="37.0267720" lon="-2.2624010">
        <ele>938.0</ele>
        <time>2019-10-18T12:27:56Z</time>
      </trkpt>
      <trkpt lat="37.0267740" lon="-2.2623810">
        <ele>938.3</ele>
        <time>2019-10-18T12:27:57Z</time>
      </trkpt>
      <trkpt lat="37.0267760" lon="-2.2623630">
        <ele>938.4</ele>
        <time>2019-10-18T12:27:58Z</time>
      </trkpt>
      <trkpt lat="37.0267790" lon="-2.2623450">
        <ele>938.6</ele>
        <time>2019-10-18T12:27:59Z</time>
      </trkpt>
      <trkpt lat="37.0267820" lon="-2.2623270">
        <ele>938.7</ele>
        <time>2019-10-18T12:28:00Z</time>
      </trkpt>
      <trkpt lat="37.0267860" lon="-2.2623080">
        <ele>938.9</ele>
        <time>2019-10-18T12:28:01Z</time>
      </trkpt>
      <trkpt lat="37.0267900" lon="-2.2622900">
        <ele>939.0</ele>
        <time>2019-10-18T12:28:02Z</time>
      </trkpt>
      <trkpt lat="37.0267930" lon="-2.2622720">
        <ele>939.1</ele>
        <time>2019-10-18T12:28:03Z</time>
      </trkpt>
      <trkpt lat="37.0267960" lon="-2.2622570">
        <ele>939.2</ele>
        <time>2019-10-18T12:28:04Z</time>
      </trkpt>
      <trkpt lat="37.0267970" lon="-2.2622440">
        <ele>939.4</ele>
        <time>2019-10-18T12:28:05Z</time>
      </trkpt>
      <trkpt lat="37.0267990" lon="-2.2622340">
        <ele>939.5</ele>
        <time>2019-10-18T12:28:06Z</time>
      </trkpt>
      <trkpt lat="37.0268010" lon="-2.2622210">
        <ele>939.6</ele>
        <time>2019-10-18T12:28:07Z</time>
      </trkpt>
      <trkpt lat="37.0268050" lon="-2.2622070">
        <ele>939.7</ele>
        <time>2019-10-18T12:28:08Z</time>
      </trkpt>
      <trkpt lat="37.0268100" lon="-2.2621910">
        <ele>939.9</ele>
        <time>2019-10-18T12:28:09Z</time>
      </trkpt>
      <trkpt lat="37.0268120" lon="-2.2621760">
        <ele>940.0</ele>
        <time>2019-10-18T12:28:10Z</time>
      </trkpt>
      <trkpt lat="37.0268150" lon="-2.2621640">
        <ele>940.1</ele>
        <time>2019-10-18T12:28:11Z</time>
      </trkpt>
      <trkpt lat="37.0268170" lon="-2.2621570">
        <ele>940.2</ele>
        <time>2019-10-18T12:28:12Z</time>
      </trkpt>
      <trkpt lat="37.0268190" lon="-2.2621550">
        <ele>940.2</ele>
        <time>2019-10-18T12:28:13Z</time>
      </trkpt>
      <trkpt lat="37.0268200" lon="-2.2621550">
        <ele>940.3</ele>
        <time>2019-10-18T12:28:14Z</time>
      </trkpt>
      <trkpt lat="37.0268200" lon="-2.2621540">
        <ele>940.3</ele>
        <time>2019-10-18T12:28:15Z</time>
      </trkpt>
      <trkpt lat="37.0268190" lon="-2.2621490">
        <ele>940.3</ele>
        <time>2019-10-18T12:28:16Z</time>
      </trkpt>
      <trkpt lat="37.0268190" lon="-2.2621430">
        <ele>940.4</ele>
        <time>2019-10-18T12:28:17Z</time>
      </trkpt>
      <trkpt lat="37.0268180" lon="-2.2621390">
        <ele>940.4</ele>
        <time>2019-10-18T12:28:18Z</time>
      </trkpt>
      <trkpt lat="37.0268190" lon="-2.2621380">
        <ele>940.4</ele>
        <time>2019-10-18T12:28:19Z</time>
      </trkpt>
      <trkpt lat="37.0268190" lon="-2.2621370">
        <ele>940.4</ele>
        <time>2019-10-18T12:28:20Z</time>
      </trkpt>
      <trkpt lat="37.0268180" lon="-2.2621370">
        <ele>940.4</ele>
        <time>2019-10-18T12:28:21Z</time>
      </trkpt>
      <trkpt lat="37.0268190" lon="-2.2621360">
        <ele>940.5</ele>
        <time>2019-10-18T12:28:22Z</time>
      </trkpt>
      <trkpt lat="37.0268190" lon="-2.2621360">
        <ele>940.5</ele>
        <time>2019-10-18T12:28:23Z</time>
      </trkpt>
      <trkpt lat="37.0268200" lon="-2.2621370">
        <ele>940.5</ele>
        <time>2019-10-18T12:28:24Z</time>
      </trkpt>
      <trkpt lat="37.0268200" lon="-2.2621370">
        <ele>940.5</ele>
        <time>2019-10-18T12:28:25Z</time>
      </trkpt>
      <trkpt lat="37.0268200" lon="-2.2621360">
        <ele>940.5</ele>
        <time>2019-10-18T12:28:26Z</time>
      </trkpt>
      <trkpt lat="37.0268190" lon="-2.2621340">
        <ele>940.5</ele>
        <time>2019-10-18T12:28:27Z</time>
      </trkpt>
      <trkpt lat="37.0268170" lon="-2.2621310">
        <ele>940.5</ele>
        <time>2019-10-18T12:28:28Z</time>
      </trkpt>
      <trkpt lat="37.0268140" lon="-2.2621270">
        <ele>940.5</ele>
        <time>2019-10-18T12:28:29Z</time>
      </trkpt>
      <trkpt lat="37.0268120" lon="-2.2621250">
        <ele>940.5</ele>
        <time>2019-10-18T12:28:30Z</time>
      </trkpt>
      <trkpt lat="37.0268110" lon="-2.2621240">
        <ele>940.5</ele>
        <time>2019-10-18T12:28:31Z</time>
      </trkpt>
      <trkpt lat="37.0268110" lon="-2.2621230">
        <ele>940.5</ele>
        <time>2019-10-18T12:28:32Z</time>
      </trkpt>
      <trkpt lat="37.0268110" lon="-2.2621230">
        <ele>940.5</ele>
        <time>2019-10-18T12:28:33Z</time>
      </trkpt>
      <trkpt lat="37.0268120" lon="-2.2621230">
        <ele>940.5</ele>
        <time>2019-10-18T12:28:34Z</time>
      </trkpt>
      <trkpt lat="37.0268120" lon="-2.2621220">
        <ele>940.5</ele>
        <time>2019-10-18T12:28:35Z</time>
      </trkpt>
      <trkpt lat="37.0268120" lon="-2.2621220">
        <ele>940.5</ele>
        <time>2019-10-18T12:28:36Z</time>
      </trkpt>
      <trkpt lat="37.0268120" lon="-2.2621220">
        <ele>940.5</ele>
        <time>2019-10-18T12:28:37Z</time>
      </trkpt>
      <trkpt lat="37.0268120" lon="-2.2621210">
        <ele>940.5</ele>
        <time>2019-10-18T12:28:38Z</time>
      </trkpt>
      <trkpt lat="37.0268100" lon="-2.2621220">
        <ele>940.5</ele>
        <time>2019-10-18T12:28:39Z</time>
      </trkpt>
      <trkpt lat="37.0268070" lon="-2.2621220">
        <ele>940.5</ele>
        <time>2019-10-18T12:28:40Z</time>
      </trkpt>
      <trkpt lat="37.0268040" lon="-2.2621230">
        <ele>940.5</ele>
        <time>2019-10-18T12:28:41Z</time>
      </trkpt>
      <trkpt lat="37.0268030" lon="-2.2621240">
        <ele>940.5</ele>
        <time>2019-10-18T12:28:42Z</time>
      </trkpt>
      <trkpt lat="37.0268030" lon="-2.2621240">
        <ele>940.5</ele>
        <time>2019-10-18T12:28:43Z</time>
      </trkpt>
      <trkpt lat="37.0268030" lon="-2.2621230">
        <ele>940.5</ele>
        <time>2019-10-18T12:28:44Z</time>
      </trkpt>
      <trkpt lat="37.0268040" lon="-2.2621240">
        <ele>940.5</ele>
        <time>2019-10-18T12:28:45Z</time>
      </trkpt>
      <trkpt lat="37.0268060" lon="-2.2621240">
        <ele>940.5</ele>
        <time>2019-10-18T12:28:46Z</time>
      </trkpt>
      <trkpt lat="37.0268070" lon="-2.2621250">
        <ele>940.5</ele>
        <time>2019-10-18T12:28:47Z</time>
      </trkpt>
      <trkpt lat="37.0268090" lon="-2.2621260">
        <ele>940.5</ele>
        <time>2019-10-18T12:28:48Z</time>
      </trkpt>
      <trkpt lat="37.0268090" lon="-2.2621280">
        <ele>940.5</ele>
        <time>2019-10-18T12:28:49Z</time>
      </trkpt>
      <trkpt lat="37.0268060" lon="-2.2621290">
        <ele>940.5</ele>
        <time>2019-10-18T12:28:50Z</time>
      </trkpt>
      <trkpt lat="37.0268000" lon="-2.2621300">
        <ele>940.5</ele>
        <time>2019-10-18T12:28:51Z</time>
      </trkpt>
      <trkpt lat="37.0267930" lon="-2.2621300">
        <ele>940.5</ele>
        <time>2019-10-18T12:28:52Z</time>
      </trkpt>
      <trkpt lat="37.0267840" lon="-2.2621330">
        <ele>940.4</ele>
        <time>2019-10-18T12:28:53Z</time>
      </trkpt>
      <trkpt lat="37.0267720" lon="-2.2621380">
        <ele>940.4</ele>
        <time>2019-10-18T12:28:54Z</time>
      </trkpt>
      <trkpt lat="37.0267580" lon="-2.2621470">
        <ele>940.4</ele>
        <time>2019-10-18T12:28:55Z</time>
      </trkpt>
      <trkpt lat="37.0267460" lon="-2.2621600">
        <ele>940.5</ele>
        <time>2019-10-18T12:28:56Z</time>
      </trkpt>
      <trkpt lat="37.0267390" lon="-2.2621750">
        <ele>940.7</ele>
        <time>2019-10-18T12:28:57Z</time>
      </trkpt>
      <trkpt lat="37.0267360" lon="-2.2621940">
        <ele>942.3</ele>
        <time>2019-10-18T12:28:58Z</time>
      </trkpt>
      <trkpt lat="37.0267340" lon="-2.2622140">
        <ele>942.5</ele>
        <time>2019-10-18T12:28:59Z</time>
      </trkpt>
      <trkpt lat="37.0267300" lon="-2.2622350">
        <ele>942.6</ele>
        <time>2019-10-18T12:29:00Z</time>
      </trkpt>
      <trkpt lat="37.0267240" lon="-2.2622570">
        <ele>942.7</ele>
        <time>2019-10-18T12:29:01Z</time>
      </trkpt>
      <trkpt lat="37.0267160" lon="-2.2622800">
        <ele>942.8</ele>
        <time>2019-10-18T12:29:02Z</time>
      </trkpt>
      <trkpt lat="37.0267080" lon="-2.2623020">
        <ele>942.9</ele>
        <time>2019-10-18T12:29:03Z</time>
      </trkpt>
      <trkpt lat="37.0266980" lon="-2.2623240">
        <ele>943.0</ele>
        <time>2019-10-18T12:29:04Z</time>
      </trkpt>
      <trkpt lat="37.0266870" lon="-2.2623450">
        <ele>943.1</ele>
        <time>2019-10-18T12:29:05Z</time>
      </trkpt>
      <trkpt lat="37.0266750" lon="-2.2623670">
        <ele>943.2</ele>
        <time>2019-10-18T12:29:06Z</time>
      </trkpt>
      <trkpt lat="37.0266640" lon="-2.2623880">
        <ele>943.4</ele>
        <time>2019-10-18T12:29:07Z</time>
      </trkpt>
      <trkpt lat="37.0266510" lon="-2.2624080">
        <ele>943.6</ele>
        <time>2019-10-18T12:29:08Z</time>
      </trkpt>
      <trkpt lat="37.0266390" lon="-2.2624280">
        <ele>943.7</ele>
        <time>2019-10-18T12:29:09Z</time>
      </trkpt>
      <trkpt lat="37.0266270" lon="-2.2624490">
        <ele>943.9</ele>
        <time>2019-10-18T12:29:10Z</time>
      </trkpt>
      <trkpt lat="37.0266160" lon="-2.2624710">
        <ele>944.0</ele>
        <time>2019-10-18T12:29:11Z</time>
      </trkpt>
      <trkpt lat="37.0266050" lon="-2.2624930">
        <ele>944.1</ele>
        <time>2019-10-18T12:29:12Z</time>
      </trkpt>
      <trkpt lat="37.0265920" lon="-2.2625150">
        <ele>944.2</ele>
        <time>2019-10-18T12:29:13Z</time>
      </trkpt>
      <trkpt lat="37.0265810" lon="-2.2625380">
        <ele>944.3</ele>
        <time>2019-10-18T12:29:14Z</time>
      </trkpt>
      <trkpt lat="37.0265680" lon="-2.2625600">
        <ele>944.4</ele>
        <time>2019-10-18T12:29:15Z</time>
      </trkpt>
      <trkpt lat="37.0265570" lon="-2.2625840">
        <ele>944.5</ele>
        <time>2019-10-18T12:29:16Z</time>
      </trkpt>
      <trkpt lat="37.0265460" lon="-2.2626070">
        <ele>944.6</ele>
        <time>2019-10-18T12:29:17Z</time>
      </trkpt>
      <trkpt lat="37.0265370" lon="-2.2626320">
        <ele>944.7</ele>
        <time>2019-10-18T12:29:18Z</time>
      </trkpt>
      <trkpt lat="37.0265280" lon="-2.2626570">
        <ele>944.9</ele>
        <time>2019-10-18T12:29:19Z</time>
      </trkpt>
      <trkpt lat="37.0265190" lon="-2.2626810">
        <ele>945.0</ele>
        <time>2019-10-18T12:29:20Z</time>
      </trkpt>
      <trkpt lat="37.0265080" lon="-2.2627050">
        <ele>945.2</ele>
        <time>2019-10-18T12:29:21Z</time>
      </trkpt>
      <trkpt lat="37.0264960" lon="-2.2627280">
        <ele>945.3</ele>
        <time>2019-10-18T12:29:22Z</time>
      </trkpt>
      <trkpt lat="37.0264820" lon="-2.2627510">
        <ele>945.5</ele>
        <time>2019-10-18T12:29:23Z</time>
      </trkpt>
      <trkpt lat="37.0264690" lon="-2.2627740">
        <ele>945.7</ele>
        <time>2019-10-18T12:29:24Z</time>
      </trkpt>
      <trkpt lat="37.0264560" lon="-2.2627970">
        <ele>945.8</ele>
        <time>2019-10-18T12:29:25Z</time>
      </trkpt>
      <trkpt lat="37.0264430" lon="-2.2628190">
        <ele>946.0</ele>
        <time>2019-10-18T12:29:26Z</time>
      </trkpt>
      <trkpt lat="37.0264300" lon="-2.2628400">
        <ele>946.1</ele>
        <time>2019-10-18T12:29:27Z</time>
      </trkpt>
      <trkpt lat="37.0264160" lon="-2.2628610">
        <ele>946.3</ele>
        <time>2019-10-18T12:29:28Z</time>
      </trkpt>
      <trkpt lat="37.0264030" lon="-2.2628830">
        <ele>946.5</ele>
        <time>2019-10-18T12:29:29Z</time>
      </trkpt>
      <trkpt lat="37.0263910" lon="-2.2629070">
        <ele>946.7</ele>
        <time>2019-10-18T12:29:30Z</time>
      </trkpt>
      <trkpt lat="37.0263790" lon="-2.2629300">
        <ele>946.9</ele>
        <time>2019-10-18T12:29:31Z</time>
      </trkpt>
      <trkpt lat="37.0263660" lon="-2.2629530">
        <ele>947.0</ele>
        <time>2019-10-18T12:29:32Z</time>
      </trkpt>
      <trkpt lat="37.0263530" lon="-2.2629750">
        <ele>947.1</ele>
        <time>2019-10-18T12:29:33Z</time>
      </trkpt>
      <trkpt lat="37.0263400" lon="-2.2629960">
        <ele>947.2</ele>
        <time>2019-10-18T12:29:34Z</time>
      </trkpt>
      <trkpt lat="37.0263260" lon="-2.2630180">
        <ele>947.4</ele>
        <time>2019-10-18T12:29:35Z</time>
      </trkpt>
      <trkpt lat="37.0263130" lon="-2.2630400">
        <ele>947.5</ele>
        <time>2019-10-18T12:29:36Z</time>
      </trkpt>
      <trkpt lat="37.0262990" lon="-2.2630610">
        <ele>947.6</ele>
        <time>2019-10-18T12:29:37Z</time>
      </trkpt>
      <trkpt lat="37.0262850" lon="-2.2630830">
        <ele>947.7</ele>
        <time>2019-10-18T12:29:38Z</time>
      </trkpt>
      <trkpt lat="37.0262710" lon="-2.2631040">
        <ele>947.8</ele>
        <time>2019-10-18T12:29:39Z</time>
      </trkpt>
      <trkpt lat="37.0262570" lon="-2.2631250">
        <ele>947.9</ele>
        <time>2019-10-18T12:29:40Z</time>
      </trkpt>
      <trkpt lat="37.0262440" lon="-2.2631470">
        <ele>948.1</ele>
        <time>2019-10-18T12:29:41Z</time>
      </trkpt>
      <trkpt lat="37.0262300" lon="-2.2631670">
        <ele>948.2</ele>
        <time>2019-10-18T12:29:42Z</time>
      </trkpt>
      <trkpt lat="37.0262170" lon="-2.2631860">
        <ele>948.3</ele>
        <time>2019-10-18T12:29:43Z</time>
      </trkpt>
      <trkpt lat="37.0262040" lon="-2.2632040">
        <ele>948.5</ele>
        <time>2019-10-18T12:29:44Z</time>
      </trkpt>
      <trkpt lat="37.0261910" lon="-2.2632230">
        <ele>948.6</ele>
        <time>2019-10-18T12:29:45Z</time>
      </trkpt>
      <trkpt lat="37.0261760" lon="-2.2632420">
        <ele>948.8</ele>
        <time>2019-10-18T12:29:46Z</time>
      </trkpt>
      <trkpt lat="37.0261590" lon="-2.2632590">
        <ele>948.9</ele>
        <time>2019-10-18T12:29:47Z</time>
      </trkpt>
      <trkpt lat="37.0261410" lon="-2.2632750">
        <ele>949.1</ele>
        <time>2019-10-18T12:29:48Z</time>
      </trkpt>
      <trkpt lat="37.0261240" lon="-2.2632900">
        <ele>949.2</ele>
        <time>2019-10-18T12:29:49Z</time>
      </trkpt>
      <trkpt lat="37.0261080" lon="-2.2633090">
        <ele>949.4</ele>
        <time>2019-10-18T12:29:50Z</time>
      </trkpt>
      <trkpt lat="37.0260940" lon="-2.2633290">
        <ele>949.6</ele>
        <time>2019-10-18T12:29:51Z</time>
      </trkpt>
      <trkpt lat="37.0260790" lon="-2.2633500">
        <ele>949.8</ele>
        <time>2019-10-18T12:29:52Z</time>
      </trkpt>
      <trkpt lat="37.0260640" lon="-2.2633700">
        <ele>949.9</ele>
        <time>2019-10-18T12:29:53Z</time>
      </trkpt>
      <trkpt lat="37.0260480" lon="-2.2633890">
        <ele>950.1</ele>
        <time>2019-10-18T12:29:54Z</time>
      </trkpt>
      <trkpt lat="37.0260300" lon="-2.2634050">
        <ele>950.3</ele>
        <time>2019-10-18T12:29:55Z</time>
      </trkpt>
      <trkpt lat="37.0260100" lon="-2.2634200">
        <ele>950.5</ele>
        <time>2019-10-18T12:29:56Z</time>
      </trkpt>
      <trkpt lat="37.0259910" lon="-2.2634340">
        <ele>950.7</ele>
        <time>2019-10-18T12:29:57Z</time>
      </trkpt>
      <trkpt lat="37.0259730" lon="-2.2634500">
        <ele>951.0</ele>
        <time>2019-10-18T12:29:58Z</time>
      </trkpt>
      <trkpt lat="37.0259570" lon="-2.2634660">
        <ele>951.2</ele>
        <time>2019-10-18T12:29:59Z</time>
      </trkpt>
      <trkpt lat="37.0259400" lon="-2.2634820">
        <ele>951.4</ele>
        <time>2019-10-18T12:30:00Z</time>
      </trkpt>
      <trkpt lat="37.0259240" lon="-2.2634970">
        <ele>951.6</ele>
        <time>2019-10-18T12:30:01Z</time>
      </trkpt>
      <trkpt lat="37.0259060" lon="-2.2635120">
        <ele>951.9</ele>
        <time>2019-10-18T12:30:02Z</time>
      </trkpt>
      <trkpt lat="37.0258890" lon="-2.2635280">
        <ele>952.2</ele>
        <time>2019-10-18T12:30:03Z</time>
      </trkpt>
      <trkpt lat="37.0258710" lon="-2.2635450">
        <ele>952.4</ele>
        <time>2019-10-18T12:30:04Z</time>
      </trkpt>
      <trkpt lat="37.0258530" lon="-2.2635620">
        <ele>952.7</ele>
        <time>2019-10-18T12:30:05Z</time>
      </trkpt>
      <trkpt lat="37.0258340" lon="-2.2635770">
        <ele>953.0</ele>
        <time>2019-10-18T12:30:06Z</time>
      </trkpt>
      <trkpt lat="37.0258150" lon="-2.2635940">
        <ele>953.2</ele>
        <time>2019-10-18T12:30:07Z</time>
      </trkpt>
      <trkpt lat="37.0257960" lon="-2.2636110">
        <ele>953.5</ele>
        <time>2019-10-18T12:30:08Z</time>
      </trkpt>
      <trkpt lat="37.0257790" lon="-2.2636300">
        <ele>953.7</ele>
        <time>2019-10-18T12:30:09Z</time>
      </trkpt>
      <trkpt lat="37.0257620" lon="-2.2636490">
        <ele>954.0</ele>
        <time>2019-10-18T12:30:10Z</time>
      </trkpt>
      <trkpt lat="37.0257450" lon="-2.2636680">
        <ele>954.2</ele>
        <time>2019-10-18T12:30:11Z</time>
      </trkpt>
      <trkpt lat="37.0257270" lon="-2.2636860">
        <ele>954.5</ele>
        <time>2019-10-18T12:30:12Z</time>
      </trkpt>
      <trkpt lat="37.0257090" lon="-2.2637040">
        <ele>954.8</ele>
        <time>2019-10-18T12:30:13Z</time>
      </trkpt>
      <trkpt lat="37.0256920" lon="-2.2637220">
        <ele>955.0</ele>
        <time>2019-10-18T12:30:14Z</time>
      </trkpt>
      <trkpt lat="37.0256760" lon="-2.2637390">
        <ele>955.1</ele>
        <time>2019-10-18T12:30:15Z</time>
      </trkpt>
      <trkpt lat="37.0256580" lon="-2.2637560">
        <ele>955.2</ele>
        <time>2019-10-18T12:30:16Z</time>
      </trkpt>
      <trkpt lat="37.0256390" lon="-2.2637730">
        <ele>955.4</ele>
        <time>2019-10-18T12:30:17Z</time>
      </trkpt>
      <trkpt lat="37.0256190" lon="-2.2637900">
        <ele>955.5</ele>
        <time>2019-10-18T12:30:18Z</time>
      </trkpt>
      <trkpt lat="37.0255990" lon="-2.2638070">
        <ele>955.6</ele>
        <time>2019-10-18T12:30:19Z</time>
      </trkpt>
      <trkpt lat="37.0255780" lon="-2.2638250">
        <ele>955.8</ele>
        <time>2019-10-18T12:30:20Z</time>
      </trkpt>
      <trkpt lat="37.0255580" lon="-2.2638440">
        <ele>955.9</ele>
        <time>2019-10-18T12:30:21Z</time>
      </trkpt>
      <trkpt lat="37.0255390" lon="-2.2638650">
        <ele>956.1</ele>
        <time>2019-10-18T12:30:22Z</time>
      </trkpt>
      <trkpt lat="37.0255210" lon="-2.2638860">
        <ele>956.2</ele>
        <time>2019-10-18T12:30:23Z</time>
      </trkpt>
      <trkpt lat="37.0255020" lon="-2.2639070">
        <ele>956.4</ele>
        <time>2019-10-18T12:30:24Z</time>
      </trkpt>
      <trkpt lat="37.0254820" lon="-2.2639270">
        <ele>956.5</ele>
        <time>2019-10-18T12:30:25Z</time>
      </trkpt>
      <trkpt lat="37.0254630" lon="-2.2639480">
        <ele>956.7</ele>
        <time>2019-10-18T12:30:26Z</time>
      </trkpt>
      <trkpt lat="37.0254440" lon="-2.2639690">
        <ele>956.8</ele>
        <time>2019-10-18T12:30:27Z</time>
      </trkpt>
      <trkpt lat="37.0254240" lon="-2.2639890">
        <ele>957.0</ele>
        <time>2019-10-18T12:30:28Z</time>
      </trkpt>
      <trkpt lat="37.0254040" lon="-2.2640090">
        <ele>957.1</ele>
        <time>2019-10-18T12:30:29Z</time>
      </trkpt>
      <trkpt lat="37.0253840" lon="-2.2640290">
        <ele>957.3</ele>
        <time>2019-10-18T12:30:30Z</time>
      </trkpt>
      <trkpt lat="37.0253640" lon="-2.2640470">
        <ele>957.4</ele>
        <time>2019-10-18T12:30:31Z</time>
      </trkpt>
      <trkpt lat="37.0253420" lon="-2.2640650">
        <ele>957.6</ele>
        <time>2019-10-18T12:30:32Z</time>
      </trkpt>
      <trkpt lat="37.0253200" lon="-2.2640800">
        <ele>957.8</ele>
        <time>2019-10-18T12:30:33Z</time>
      </trkpt>
      <trkpt lat="37.0252980" lon="-2.2640950">
        <ele>957.9</ele>
        <time>2019-10-18T12:30:34Z</time>
      </trkpt>
      <trkpt lat="37.0252770" lon="-2.2641100">
        <ele>958.1</ele>
        <time>2019-10-18T12:30:35Z</time>
      </trkpt>
      <trkpt lat="37.0252570" lon="-2.2641260">
        <ele>958.2</ele>
        <time>2019-10-18T12:30:36Z</time>
      </trkpt>
      <trkpt lat="37.0252360" lon="-2.2641420">
        <ele>958.4</ele>
        <time>2019-10-18T12:30:37Z</time>
      </trkpt>
      <trkpt lat="37.0252160" lon="-2.2641570">
        <ele>958.5</ele>
        <time>2019-10-18T12:30:38Z</time>
      </trkpt>
      <trkpt lat="37.0251950" lon="-2.2641700">
        <ele>958.6</ele>
        <time>2019-10-18T12:30:39Z</time>
      </trkpt>
      <trkpt lat="37.0251740" lon="-2.2641820">
        <ele>958.8</ele>
        <time>2019-10-18T12:30:40Z</time>
      </trkpt>
      <trkpt lat="37.0251520" lon="-2.2641950">
        <ele>959.0</ele>
        <time>2019-10-18T12:30:41Z</time>
      </trkpt>
      <trkpt lat="37.0251300" lon="-2.2642080">
        <ele>959.1</ele>
        <time>2019-10-18T12:30:42Z</time>
      </trkpt>
      <trkpt lat="37.0251060" lon="-2.2642230">
        <ele>959.3</ele>
        <time>2019-10-18T12:30:43Z</time>
      </trkpt>
      <trkpt lat="37.0250830" lon="-2.2642380">
        <ele>959.5</ele>
        <time>2019-10-18T12:30:44Z</time>
      </trkpt>
      <trkpt lat="37.0250590" lon="-2.2642540">
        <ele>959.6</ele>
        <time>2019-10-18T12:30:45Z</time>
      </trkpt>
      <trkpt lat="37.0250360" lon="-2.2642710">
        <ele>959.7</ele>
        <time>2019-10-18T12:30:46Z</time>
      </trkpt>
      <trkpt lat="37.0250130" lon="-2.2642890">
        <ele>959.9</ele>
        <time>2019-10-18T12:30:47Z</time>
      </trkpt>
      <trkpt lat="37.0249890" lon="-2.2643070">
        <ele>960.0</ele>
        <time>2019-10-18T12:30:48Z</time>
      </trkpt>
      <trkpt lat="37.0249660" lon="-2.2643250">
        <ele>960.2</ele>
        <time>2019-10-18T12:30:49Z</time>
      </trkpt>
      <trkpt lat="37.0249430" lon="-2.2643420">
        <ele>960.3</ele>
        <time>2019-10-18T12:30:50Z</time>
      </trkpt>
      <trkpt lat="37.0249190" lon="-2.2643580">
        <ele>960.4</ele>
        <time>2019-10-18T12:30:51Z</time>
      </trkpt>
      <trkpt lat="37.0248960" lon="-2.2643720">
        <ele>960.6</ele>
        <time>2019-10-18T12:30:52Z</time>
      </trkpt>
      <trkpt lat="37.0248730" lon="-2.2643850">
        <ele>960.7</ele>
        <time>2019-10-18T12:30:53Z</time>
      </trkpt>
      <trkpt lat="37.0248500" lon="-2.2643980">
        <ele>960.8</ele>
        <time>2019-10-18T12:30:54Z</time>
      </trkpt>
      <trkpt lat="37.0248270" lon="-2.2644100">
        <ele>960.9</ele>
        <time>2019-10-18T12:30:55Z</time>
      </trkpt>
      <trkpt lat="37.0248030" lon="-2.2644230">
        <ele>961.0</ele>
        <time>2019-10-18T12:30:56Z</time>
      </trkpt>
      <trkpt lat="37.0247810" lon="-2.2644370">
        <ele>961.2</ele>
        <time>2019-10-18T12:30:57Z</time>
      </trkpt>
      <trkpt lat="37.0247590" lon="-2.2644510">
        <ele>961.3</ele>
        <time>2019-10-18T12:30:58Z</time>
      </trkpt>
      <trkpt lat="37.0247370" lon="-2.2644640">
        <ele>961.4</ele>
        <time>2019-10-18T12:30:59Z</time>
      </trkpt>
      <trkpt lat="37.0247160" lon="-2.2644780">
        <ele>961.5</ele>
        <time>2019-10-18T12:31:00Z</time>
      </trkpt>
      <trkpt lat="37.0246940" lon="-2.2644910">
        <ele>961.7</ele>
        <time>2019-10-18T12:31:01Z</time>
      </trkpt>
      <trkpt lat="37.0246730" lon="-2.2645050">
        <ele>961.9</ele>
        <time>2019-10-18T12:31:02Z</time>
      </trkpt>
      <trkpt lat="37.0246510" lon="-2.2645180">
        <ele>962.1</ele>
        <time>2019-10-18T12:31:03Z</time>
      </trkpt>
      <trkpt lat="37.0246300" lon="-2.2645310">
        <ele>962.2</ele>
        <time>2019-10-18T12:31:04Z</time>
      </trkpt>
      <trkpt lat="37.0246080" lon="-2.2645420">
        <ele>962.4</ele>
        <time>2019-10-18T12:31:05Z</time>
      </trkpt>
      <trkpt lat="37.0245870" lon="-2.2645520">
        <ele>962.6</ele>
        <time>2019-10-18T12:31:06Z</time>
      </trkpt>
      <trkpt lat="37.0245650" lon="-2.2645590">
        <ele>962.7</ele>
        <time>2019-10-18T12:31:07Z</time>
      </trkpt>
      <trkpt lat="37.0245430" lon="-2.2645640">
        <ele>962.9</ele>
        <time>2019-10-18T12:31:08Z</time>
      </trkpt>
      <trkpt lat="37.0245210" lon="-2.2645690">
        <ele>963.1</ele>
        <time>2019-10-18T12:31:09Z</time>
      </trkpt>
      <trkpt lat="37.0244990" lon="-2.2645760">
        <ele>963.3</ele>
        <time>2019-10-18T12:31:10Z</time>
      </trkpt>
      <trkpt lat="37.0244790" lon="-2.2645850">
        <ele>963.4</ele>
        <time>2019-10-18T12:31:11Z</time>
      </trkpt>
      <trkpt lat="37.0244590" lon="-2.2645940">
        <ele>963.6</ele>
        <time>2019-10-18T12:31:12Z</time>
      </trkpt>
      <trkpt lat="37.0244390" lon="-2.2646010">
        <ele>963.9</ele>
        <time>2019-10-18T12:31:13Z</time>
      </trkpt>
      <trkpt lat="37.0244190" lon="-2.2646050">
        <ele>964.1</ele>
        <time>2019-10-18T12:31:14Z</time>
      </trkpt>
      <trkpt lat="37.0243990" lon="-2.2646090">
        <ele>964.4</ele>
        <time>2019-10-18T12:31:15Z</time>
      </trkpt>
      <trkpt lat="37.0243800" lon="-2.2646120">
        <ele>964.6</ele>
        <time>2019-10-18T12:31:16Z</time>
      </trkpt>
      <trkpt lat="37.0243600" lon="-2.2646140">
        <ele>964.8</ele>
        <time>2019-10-18T12:31:17Z</time>
      </trkpt>
      <trkpt lat="37.0243410" lon="-2.2646140">
        <ele>965.0</ele>
        <time>2019-10-18T12:31:18Z</time>
      </trkpt>
      <trkpt lat="37.0243220" lon="-2.2646130">
        <ele>965.3</ele>
        <time>2019-10-18T12:31:19Z</time>
      </trkpt>
      <trkpt lat="37.0243030" lon="-2.2646120">
        <ele>965.5</ele>
        <time>2019-10-18T12:31:20Z</time>
      </trkpt>
      <trkpt lat="37.0242840" lon="-2.2646110">
        <ele>965.7</ele>
        <time>2019-10-18T12:31:21Z</time>
      </trkpt>
      <trkpt lat="37.0242650" lon="-2.2646100">
        <ele>965.9</ele>
        <time>2019-10-18T12:31:22Z</time>
      </trkpt>
      <trkpt lat="37.0242470" lon="-2.2646080">
        <ele>966.2</ele>
        <time>2019-10-18T12:31:23Z</time>
      </trkpt>
      <trkpt lat="37.0242290" lon="-2.2646060">
        <ele>966.4</ele>
        <time>2019-10-18T12:31:24Z</time>
      </trkpt>
      <trkpt lat="37.0242100" lon="-2.2646030">
        <ele>966.6</ele>
        <time>2019-10-18T12:31:25Z</time>
      </trkpt>
      <trkpt lat="37.0241900" lon="-2.2646000">
        <ele>966.9</ele>
        <time>2019-10-18T12:31:26Z</time>
      </trkpt>
      <trkpt lat="37.0241700" lon="-2.2645980">
        <ele>967.1</ele>
        <time>2019-10-18T12:31:27Z</time>
      </trkpt>
      <trkpt lat="37.0241520" lon="-2.2645970">
        <ele>967.3</ele>
        <time>2019-10-18T12:31:28Z</time>
      </trkpt>
      <trkpt lat="37.0241350" lon="-2.2646010">
        <ele>967.5</ele>
        <time>2019-10-18T12:31:29Z</time>
      </trkpt>
      <trkpt lat="37.0241180" lon="-2.2646060">
        <ele>967.7</ele>
        <time>2019-10-18T12:31:30Z</time>
      </trkpt>
      <trkpt lat="37.0241010" lon="-2.2646090">
        <ele>967.9</ele>
        <time>2019-10-18T12:31:31Z</time>
      </trkpt>
      <trkpt lat="37.0240840" lon="-2.2646100">
        <ele>968.1</ele>
        <time>2019-10-18T12:31:32Z</time>
      </trkpt>
      <trkpt lat="37.0240660" lon="-2.2646090">
        <ele>968.3</ele>
        <time>2019-10-18T12:31:33Z</time>
      </trkpt>
      <trkpt lat="37.0240470" lon="-2.2646070">
        <ele>968.5</ele>
        <time>2019-10-18T12:31:34Z</time>
      </trkpt>
      <trkpt lat="37.0240290" lon="-2.2646060">
        <ele>968.7</ele>
        <time>2019-10-18T12:31:35Z</time>
      </trkpt>
      <trkpt lat="37.0240100" lon="-2.2646040">
        <ele>968.9</ele>
        <time>2019-10-18T12:31:36Z</time>
      </trkpt>
      <trkpt lat="37.0239900" lon="-2.2646020">
        <ele>969.1</ele>
        <time>2019-10-18T12:31:37Z</time>
      </trkpt>
      <trkpt lat="37.0239700" lon="-2.2646000">
        <ele>969.3</ele>
        <time>2019-10-18T12:31:38Z</time>
      </trkpt>
      <trkpt lat="37.0239500" lon="-2.2646010">
        <ele>969.4</ele>
        <time>2019-10-18T12:31:39Z</time>
      </trkpt>
      <trkpt lat="37.0239290" lon="-2.2646040">
        <ele>969.5</ele>
        <time>2019-10-18T12:31:40Z</time>
      </trkpt>
      <trkpt lat="37.0239080" lon="-2.2646090">
        <ele>969.7</ele>
        <time>2019-10-18T12:31:41Z</time>
      </trkpt>
      <trkpt lat="37.0238860" lon="-2.2646140">
        <ele>969.8</ele>
        <time>2019-10-18T12:31:42Z</time>
      </trkpt>
      <trkpt lat="37.0238640" lon="-2.2646220">
        <ele>969.9</ele>
        <time>2019-10-18T12:31:43Z</time>
      </trkpt>
      <trkpt lat="37.0238420" lon="-2.2646300">
        <ele>970.1</ele>
        <time>2019-10-18T12:31:44Z</time>
      </trkpt>
      <trkpt lat="37.0238180" lon="-2.2646380">
        <ele>970.2</ele>
        <time>2019-10-18T12:31:45Z</time>
      </trkpt>
      <trkpt lat="37.0237940" lon="-2.2646460">
        <ele>970.3</ele>
        <time>2019-10-18T12:31:46Z</time>
      </trkpt>
      <trkpt lat="37.0237690" lon="-2.2646540">
        <ele>970.5</ele>
        <time>2019-10-18T12:31:47Z</time>
      </trkpt>
      <trkpt lat="37.0237430" lon="-2.2646610">
        <ele>970.6</ele>
        <time>2019-10-18T12:31:48Z</time>
      </trkpt>
      <trkpt lat="37.0237170" lon="-2.2646680">
        <ele>970.7</ele>
        <time>2019-10-18T12:31:49Z</time>
      </trkpt>
      <trkpt lat="37.0236910" lon="-2.2646770">
        <ele>970.9</ele>
        <time>2019-10-18T12:31:50Z</time>
      </trkpt>
      <trkpt lat="37.0236650" lon="-2.2646880">
        <ele>971.0</ele>
        <time>2019-10-18T12:31:51Z</time>
      </trkpt>
      <trkpt lat="37.0236390" lon="-2.2647000">
        <ele>971.1</ele>
        <time>2019-10-18T12:31:52Z</time>
      </trkpt>
      <trkpt lat="37.0236120" lon="-2.2647130">
        <ele>971.3</ele>
        <time>2019-10-18T12:31:53Z</time>
      </trkpt>
      <trkpt lat="37.0235860" lon="-2.2647280">
        <ele>971.4</ele>
        <time>2019-10-18T12:31:54Z</time>
      </trkpt>
      <trkpt lat="37.0235610" lon="-2.2647450">
        <ele>971.6</ele>
        <time>2019-10-18T12:31:55Z</time>
      </trkpt>
      <trkpt lat="37.0235370" lon="-2.2647620">
        <ele>971.7</ele>
        <time>2019-10-18T12:31:56Z</time>
      </trkpt>
      <trkpt lat="37.0235150" lon="-2.2647830">
        <ele>971.9</ele>
        <time>2019-10-18T12:31:57Z</time>
      </trkpt>
      <trkpt lat="37.0234950" lon="-2.2648060">
        <ele>972.0</ele>
        <time>2019-10-18T12:31:58Z</time>
      </trkpt>
      <trkpt lat="37.0234770" lon="-2.2648300">
        <ele>972.2</ele>
        <time>2019-10-18T12:31:59Z</time>
      </trkpt>
      <trkpt lat="37.0234590" lon="-2.2648550">
        <ele>972.3</ele>
        <time>2019-10-18T12:32:00Z</time>
      </trkpt>
      <trkpt lat="37.0234410" lon="-2.2648780">
        <ele>972.5</ele>
        <time>2019-10-18T12:32:01Z</time>
      </trkpt>
      <trkpt lat="37.0234240" lon="-2.2649010">
        <ele>972.6</ele>
        <time>2019-10-18T12:32:02Z</time>
      </trkpt>
      <trkpt lat="37.0234080" lon="-2.2649230">
        <ele>972.9</ele>
        <time>2019-10-18T12:32:03Z</time>
      </trkpt>
      <trkpt lat="37.0233940" lon="-2.2649470">
        <ele>973.2</ele>
        <time>2019-10-18T12:32:04Z</time>
      </trkpt>
      <trkpt lat="37.0233810" lon="-2.2649710">
        <ele>973.4</ele>
        <time>2019-10-18T12:32:05Z</time>
      </trkpt>
      <trkpt lat="37.0233680" lon="-2.2649940">
        <ele>973.6</ele>
        <time>2019-10-18T12:32:06Z</time>
      </trkpt>
      <trkpt lat="37.0233560" lon="-2.2650170">
        <ele>973.7</ele>
        <time>2019-10-18T12:32:07Z</time>
      </trkpt>
      <trkpt lat="37.0233450" lon="-2.2650400">
        <ele>973.9</ele>
        <time>2019-10-18T12:32:08Z</time>
      </trkpt>
      <trkpt lat="37.0233360" lon="-2.2650630">
        <ele>974.1</ele>
        <time>2019-10-18T12:32:09Z</time>
      </trkpt>
      <trkpt lat="37.0233260" lon="-2.2650850">
        <ele>974.2</ele>
        <time>2019-10-18T12:32:10Z</time>
      </trkpt>
      <trkpt lat="37.0233160" lon="-2.2651070">
        <ele>974.4</ele>
        <time>2019-10-18T12:32:11Z</time>
      </trkpt>
      <trkpt lat="37.0233070" lon="-2.2651280">
        <ele>974.6</ele>
        <time>2019-10-18T12:32:12Z</time>
      </trkpt>
      <trkpt lat="37.0232970" lon="-2.2651510">
        <ele>974.7</ele>
        <time>2019-10-18T12:32:13Z</time>
      </trkpt>
      <trkpt lat="37.0232890" lon="-2.2651740">
        <ele>974.9</ele>
        <time>2019-10-18T12:32:14Z</time>
      </trkpt>
      <trkpt lat="37.0232790" lon="-2.2651960">
        <ele>975.1</ele>
        <time>2019-10-18T12:32:15Z</time>
      </trkpt>
      <trkpt lat="37.0232700" lon="-2.2652180">
        <ele>975.2</ele>
        <time>2019-10-18T12:32:16Z</time>
      </trkpt>
      <trkpt lat="37.0232610" lon="-2.2652400">
        <ele>975.4</ele>
        <time>2019-10-18T12:32:17Z</time>
      </trkpt>
      <trkpt lat="37.0232530" lon="-2.2652630">
        <ele>975.5</ele>
        <time>2019-10-18T12:32:18Z</time>
      </trkpt>
      <trkpt lat="37.0232440" lon="-2.2652870">
        <ele>975.7</ele>
        <time>2019-10-18T12:32:19Z</time>
      </trkpt>
      <trkpt lat="37.0232340" lon="-2.2653110">
        <ele>975.9</ele>
        <time>2019-10-18T12:32:20Z</time>
      </trkpt>
      <trkpt lat="37.0232250" lon="-2.2653350">
        <ele>976.0</ele>
        <time>2019-10-18T12:32:21Z</time>
      </trkpt>
      <trkpt lat="37.0232150" lon="-2.2653590">
        <ele>976.2</ele>
        <time>2019-10-18T12:32:22Z</time>
      </trkpt>
      <trkpt lat="37.0232050" lon="-2.2653820">
        <ele>976.4</ele>
        <time>2019-10-18T12:32:23Z</time>
      </trkpt>
      <trkpt lat="37.0231950" lon="-2.2654060">
        <ele>976.5</ele>
        <time>2019-10-18T12:32:24Z</time>
      </trkpt>
      <trkpt lat="37.0231830" lon="-2.2654300">
        <ele>976.7</ele>
        <time>2019-10-18T12:32:25Z</time>
      </trkpt>
      <trkpt lat="37.0231720" lon="-2.2654530">
        <ele>976.8</ele>
        <time>2019-10-18T12:32:26Z</time>
      </trkpt>
      <trkpt lat="37.0231600" lon="-2.2654770">
        <ele>977.0</ele>
        <time>2019-10-18T12:32:27Z</time>
      </trkpt>
      <trkpt lat="37.0231470" lon="-2.2655010">
        <ele>977.2</ele>
        <time>2019-10-18T12:32:28Z</time>
      </trkpt>
      <trkpt lat="37.0231340" lon="-2.2655250">
        <ele>977.4</ele>
        <time>2019-10-18T12:32:29Z</time>
      </trkpt>
      <trkpt lat="37.0231210" lon="-2.2655480">
        <ele>977.6</ele>
        <time>2019-10-18T12:32:30Z</time>
      </trkpt>
      <trkpt lat="37.0231060" lon="-2.2655700">
        <ele>977.7</ele>
        <time>2019-10-18T12:32:31Z</time>
      </trkpt>
      <trkpt lat="37.0230890" lon="-2.2655910">
        <ele>977.9</ele>
        <time>2019-10-18T12:32:32Z</time>
      </trkpt>
      <trkpt lat="37.0230710" lon="-2.2656100">
        <ele>978.0</ele>
        <time>2019-10-18T12:32:33Z</time>
      </trkpt>
      <trkpt lat="37.0230520" lon="-2.2656260">
        <ele>978.1</ele>
        <time>2019-10-18T12:32:34Z</time>
      </trkpt>
      <trkpt lat="37.0230330" lon="-2.2656420">
        <ele>978.2</ele>
        <time>2019-10-18T12:32:35Z</time>
      </trkpt>
      <trkpt lat="37.0230130" lon="-2.2656560">
        <ele>978.3</ele>
        <time>2019-10-18T12:32:36Z</time>
      </trkpt>
      <trkpt lat="37.0229930" lon="-2.2656700">
        <ele>978.4</ele>
        <time>2019-10-18T12:32:37Z</time>
      </trkpt>
      <trkpt lat="37.0229720" lon="-2.2656840">
        <ele>978.5</ele>
        <time>2019-10-18T12:32:38Z</time>
      </trkpt>
      <trkpt lat="37.0229500" lon="-2.2656960">
        <ele>978.5</ele>
        <time>2019-10-18T12:32:39Z</time>
      </trkpt>
      <trkpt lat="37.0229280" lon="-2.2657070">
        <ele>978.6</ele>
        <time>2019-10-18T12:32:40Z</time>
      </trkpt>
      <trkpt lat="37.0229050" lon="-2.2657170">
        <ele>978.7</ele>
        <time>2019-10-18T12:32:41Z</time>
      </trkpt>
      <trkpt lat="37.0228820" lon="-2.2657260">
        <ele>978.7</ele>
        <time>2019-10-18T12:32:42Z</time>
      </trkpt>
      <trkpt lat="37.0228580" lon="-2.2657350">
        <ele>978.8</ele>
        <time>2019-10-18T12:32:43Z</time>
      </trkpt>
      <trkpt lat="37.0228350" lon="-2.2657450">
        <ele>978.9</ele>
        <time>2019-10-18T12:32:44Z</time>
      </trkpt>
      <trkpt lat="37.0228120" lon="-2.2657560">
        <ele>978.9</ele>
        <time>2019-10-18T12:32:45Z</time>
      </trkpt>
      <trkpt lat="37.0227890" lon="-2.2657660">
        <ele>979.0</ele>
        <time>2019-10-18T12:32:46Z</time>
      </trkpt>
      <trkpt lat="37.0227670" lon="-2.2657760">
        <ele>979.0</ele>
        <time>2019-10-18T12:32:47Z</time>
      </trkpt>
      <trkpt lat="37.0227440" lon="-2.2657850">
        <ele>979.0</ele>
        <time>2019-10-18T12:32:48Z</time>
      </trkpt>
      <trkpt lat="37.0227210" lon="-2.2657960">
        <ele>979.1</ele>
        <time>2019-10-18T12:32:49Z</time>
      </trkpt>
      <trkpt lat="37.0226970" lon="-2.2658070">
        <ele>979.1</ele>
        <time>2019-10-18T12:32:50Z</time>
      </trkpt>
      <trkpt lat="37.0226740" lon="-2.2658180">
        <ele>979.1</ele>
        <time>2019-10-18T12:32:51Z</time>
      </trkpt>
      <trkpt lat="37.0226490" lon="-2.2658280">
        <ele>979.2</ele>
        <time>2019-10-18T12:32:52Z</time>
      </trkpt>
      <trkpt lat="37.0226240" lon="-2.2658380">
        <ele>979.2</ele>
        <time>2019-10-18T12:32:53Z</time>
      </trkpt>
      <trkpt lat="37.0225990" lon="-2.2658480">
        <ele>979.2</ele>
        <time>2019-10-18T12:32:54Z</time>
      </trkpt>
      <trkpt lat="37.0225740" lon="-2.2658570">
        <ele>979.3</ele>
        <time>2019-10-18T12:32:55Z</time>
      </trkpt>
      <trkpt lat="37.0225480" lon="-2.2658670">
        <ele>979.3</ele>
        <time>2019-10-18T12:32:56Z</time>
      </trkpt>
      <trkpt lat="37.0225210" lon="-2.2658770">
        <ele>979.3</ele>
        <time>2019-10-18T12:32:57Z</time>
      </trkpt>
      <trkpt lat="37.0224940" lon="-2.2658880">
        <ele>979.4</ele>
        <time>2019-10-18T12:32:58Z</time>
      </trkpt>
      <trkpt lat="37.0224670" lon="-2.2659010">
        <ele>979.4</ele>
        <time>2019-10-18T12:32:59Z</time>
      </trkpt>
      <trkpt lat="37.0224400" lon="-2.2659160">
        <ele>979.5</ele>
        <time>2019-10-18T12:33:00Z</time>
      </trkpt>
      <trkpt lat="37.0224130" lon="-2.2659310">
        <ele>979.6</ele>
        <time>2019-10-18T12:33:01Z</time>
      </trkpt>
      <trkpt lat="37.0223860" lon="-2.2659450">
        <ele>979.6</ele>
        <time>2019-10-18T12:33:02Z</time>
      </trkpt>
      <trkpt lat="37.0223590" lon="-2.2659590">
        <ele>979.7</ele>
        <time>2019-10-18T12:33:03Z</time>
      </trkpt>
      <trkpt lat="37.0223330" lon="-2.2659740">
        <ele>979.8</ele>
        <time>2019-10-18T12:33:04Z</time>
      </trkpt>
      <trkpt lat="37.0223070" lon="-2.2659900">
        <ele>979.9</ele>
        <time>2019-10-18T12:33:05Z</time>
      </trkpt>
      <trkpt lat="37.0222810" lon="-2.2660070">
        <ele>980.0</ele>
        <time>2019-10-18T12:33:06Z</time>
      </trkpt>
      <trkpt lat="37.0222570" lon="-2.2660250">
        <ele>980.1</ele>
        <time>2019-10-18T12:33:07Z</time>
      </trkpt>
      <trkpt lat="37.0222340" lon="-2.2660430">
        <ele>980.2</ele>
        <time>2019-10-18T12:33:08Z</time>
      </trkpt>
      <trkpt lat="37.0222130" lon="-2.2660610">
        <ele>980.4</ele>
        <time>2019-10-18T12:33:09Z</time>
      </trkpt>
      <trkpt lat="37.0221920" lon="-2.2660800">
        <ele>980.5</ele>
        <time>2019-10-18T12:33:10Z</time>
      </trkpt>
      <trkpt lat="37.0221700" lon="-2.2660970">
        <ele>980.6</ele>
        <time>2019-10-18T12:33:11Z</time>
      </trkpt>
      <trkpt lat="37.0221500" lon="-2.2661150">
        <ele>980.9</ele>
        <time>2019-10-18T12:33:12Z</time>
      </trkpt>
      <trkpt lat="37.0221300" lon="-2.2661330">
        <ele>981.1</ele>
        <time>2019-10-18T12:33:13Z</time>
      </trkpt>
      <trkpt lat="37.0221120" lon="-2.2661520">
        <ele>981.2</ele>
        <time>2019-10-18T12:33:14Z</time>
      </trkpt>
      <trkpt lat="37.0220940" lon="-2.2661700">
        <ele>981.4</ele>
        <time>2019-10-18T12:33:15Z</time>
      </trkpt>
      <trkpt lat="37.0220750" lon="-2.2661880">
        <ele>981.6</ele>
        <time>2019-10-18T12:33:16Z</time>
      </trkpt>
      <trkpt lat="37.0220560" lon="-2.2662040">
        <ele>981.7</ele>
        <time>2019-10-18T12:33:17Z</time>
      </trkpt>
      <trkpt lat="37.0220370" lon="-2.2662220">
        <ele>981.9</ele>
        <time>2019-10-18T12:33:18Z</time>
      </trkpt>
      <trkpt lat="37.0220190" lon="-2.2662420">
        <ele>982.0</ele>
        <time>2019-10-18T12:33:19Z</time>
      </trkpt>
      <trkpt lat="37.0220000" lon="-2.2662610">
        <ele>982.3</ele>
        <time>2019-10-18T12:33:20Z</time>
      </trkpt>
      <trkpt lat="37.0219820" lon="-2.2662800">
        <ele>982.6</ele>
        <time>2019-10-18T12:33:21Z</time>
      </trkpt>
      <trkpt lat="37.0219620" lon="-2.2662980">
        <ele>982.9</ele>
        <time>2019-10-18T12:33:22Z</time>
      </trkpt>
      <trkpt lat="37.0219420" lon="-2.2663150">
        <ele>983.1</ele>
        <time>2019-10-18T12:33:23Z</time>
      </trkpt>
      <trkpt lat="37.0219220" lon="-2.2663330">
        <ele>983.3</ele>
        <time>2019-10-18T12:33:24Z</time>
      </trkpt>
      <trkpt lat="37.0219020" lon="-2.2663510">
        <ele>983.5</ele>
        <time>2019-10-18T12:33:25Z</time>
      </trkpt>
      <trkpt lat="37.0218830" lon="-2.2663700">
        <ele>983.8</ele>
        <time>2019-10-18T12:33:26Z</time>
      </trkpt>
      <trkpt lat="37.0218640" lon="-2.2663900">
        <ele>984.0</ele>
        <time>2019-10-18T12:33:27Z</time>
      </trkpt>
      <trkpt lat="37.0218450" lon="-2.2664110">
        <ele>984.2</ele>
        <time>2019-10-18T12:33:28Z</time>
      </trkpt>
      <trkpt lat="37.0218250" lon="-2.2664310">
        <ele>984.5</ele>
        <time>2019-10-18T12:33:29Z</time>
      </trkpt>
      <trkpt lat="37.0218050" lon="-2.2664490">
        <ele>984.8</ele>
        <time>2019-10-18T12:33:30Z</time>
      </trkpt>
      <trkpt lat="37.0217840" lon="-2.2664670">
        <ele>985.1</ele>
        <time>2019-10-18T12:33:31Z</time>
      </trkpt>
      <trkpt lat="37.0217640" lon="-2.2664860">
        <ele>985.3</ele>
        <time>2019-10-18T12:33:32Z</time>
      </trkpt>
      <trkpt lat="37.0217440" lon="-2.2665040">
        <ele>985.5</ele>
        <time>2019-10-18T12:33:33Z</time>
      </trkpt>
      <trkpt lat="37.0217250" lon="-2.2665230">
        <ele>985.6</ele>
        <time>2019-10-18T12:33:34Z</time>
      </trkpt>
      <trkpt lat="37.0217050" lon="-2.2665430">
        <ele>985.8</ele>
        <time>2019-10-18T12:33:35Z</time>
      </trkpt>
      <trkpt lat="37.0216860" lon="-2.2665630">
        <ele>986.0</ele>
        <time>2019-10-18T12:33:36Z</time>
      </trkpt>
      <trkpt lat="37.0216660" lon="-2.2665830">
        <ele>986.1</ele>
        <time>2019-10-18T12:33:37Z</time>
      </trkpt>
      <trkpt lat="37.0216460" lon="-2.2666020">
        <ele>986.3</ele>
        <time>2019-10-18T12:33:38Z</time>
      </trkpt>
      <trkpt lat="37.0216270" lon="-2.2666220">
        <ele>986.5</ele>
        <time>2019-10-18T12:33:39Z</time>
      </trkpt>
      <trkpt lat="37.0216070" lon="-2.2666410">
        <ele>986.7</ele>
        <time>2019-10-18T12:33:40Z</time>
      </trkpt>
      <trkpt lat="37.0215870" lon="-2.2666600">
        <ele>986.9</ele>
        <time>2019-10-18T12:33:41Z</time>
      </trkpt>
      <trkpt lat="37.0215670" lon="-2.2666770">
        <ele>987.0</ele>
        <time>2019-10-18T12:33:42Z</time>
      </trkpt>
      <trkpt lat="37.0215480" lon="-2.2666940">
        <ele>987.2</ele>
        <time>2019-10-18T12:33:43Z</time>
      </trkpt>
      <trkpt lat="37.0215290" lon="-2.2667090">
        <ele>987.4</ele>
        <time>2019-10-18T12:33:44Z</time>
      </trkpt>
      <trkpt lat="37.0215110" lon="-2.2667240">
        <ele>987.6</ele>
        <time>2019-10-18T12:33:45Z</time>
      </trkpt>
      <trkpt lat="37.0214910" lon="-2.2667400">
        <ele>987.7</ele>
        <time>2019-10-18T12:33:46Z</time>
      </trkpt>
      <trkpt lat="37.0214720" lon="-2.2667560">
        <ele>987.8</ele>
        <time>2019-10-18T12:33:47Z</time>
      </trkpt>
      <trkpt lat="37.0214530" lon="-2.2667730">
        <ele>988.0</ele>
        <time>2019-10-18T12:33:48Z</time>
      </trkpt>
      <trkpt lat="37.0214330" lon="-2.2667910">
        <ele>988.1</ele>
        <time>2019-10-18T12:33:49Z</time>
      </trkpt>
      <trkpt lat="37.0214120" lon="-2.2668120">
        <ele>988.3</ele>
        <time>2019-10-18T12:33:50Z</time>
      </trkpt>
      <trkpt lat="37.0213910" lon="-2.2668320">
        <ele>988.4</ele>
        <time>2019-10-18T12:33:51Z</time>
      </trkpt>
      <trkpt lat="37.0213690" lon="-2.2668530">
        <ele>988.5</ele>
        <time>2019-10-18T12:33:52Z</time>
      </trkpt>
      <trkpt lat="37.0213480" lon="-2.2668720">
        <ele>988.6</ele>
        <time>2019-10-18T12:33:53Z</time>
      </trkpt>
      <trkpt lat="37.0213270" lon="-2.2668920">
        <ele>988.7</ele>
        <time>2019-10-18T12:33:54Z</time>
      </trkpt>
      <trkpt lat="37.0213050" lon="-2.2669100">
        <ele>988.8</ele>
        <time>2019-10-18T12:33:55Z</time>
      </trkpt>
      <trkpt lat="37.0212820" lon="-2.2669280">
        <ele>988.9</ele>
        <time>2019-10-18T12:33:56Z</time>
      </trkpt>
      <trkpt lat="37.0212590" lon="-2.2669460">
        <ele>989.0</ele>
        <time>2019-10-18T12:33:57Z</time>
      </trkpt>
      <trkpt lat="37.0212350" lon="-2.2669640">
        <ele>989.1</ele>
        <time>2019-10-18T12:33:58Z</time>
      </trkpt>
      <trkpt lat="37.0212120" lon="-2.2669850">
        <ele>989.2</ele>
        <time>2019-10-18T12:33:59Z</time>
      </trkpt>
      <trkpt lat="37.0211900" lon="-2.2670070">
        <ele>989.3</ele>
        <time>2019-10-18T12:34:00Z</time>
      </trkpt>
      <trkpt lat="37.0211690" lon="-2.2670300">
        <ele>989.4</ele>
        <time>2019-10-18T12:34:01Z</time>
      </trkpt>
      <trkpt lat="37.0211450" lon="-2.2670510">
        <ele>989.5</ele>
        <time>2019-10-18T12:34:02Z</time>
      </trkpt>
      <trkpt lat="37.0211210" lon="-2.2670720">
        <ele>989.5</ele>
        <time>2019-10-18T12:34:03Z</time>
      </trkpt>
      <trkpt lat="37.0210950" lon="-2.2670940">
        <ele>989.6</ele>
        <time>2019-10-18T12:34:04Z</time>
      </trkpt>
      <trkpt lat="37.0210690" lon="-2.2671150">
        <ele>989.7</ele>
        <time>2019-10-18T12:34:05Z</time>
      </trkpt>
      <trkpt lat="37.0210420" lon="-2.2671340">
        <ele>989.8</ele>
        <time>2019-10-18T12:34:06Z</time>
      </trkpt>
      <trkpt lat="37.0210130" lon="-2.2671510">
        <ele>989.9</ele>
        <time>2019-10-18T12:34:07Z</time>
      </trkpt>
      <trkpt lat="37.0209820" lon="-2.2671670">
        <ele>989.9</ele>
        <time>2019-10-18T12:34:08Z</time>
      </trkpt>
      <trkpt lat="37.0209500" lon="-2.2671840">
        <ele>990.0</ele>
        <time>2019-10-18T12:34:09Z</time>
      </trkpt>
      <trkpt lat="37.0209170" lon="-2.2672010">
        <ele>990.1</ele>
        <time>2019-10-18T12:34:10Z</time>
      </trkpt>
      <trkpt lat="37.0208820" lon="-2.2672200">
        <ele>990.2</ele>
        <time>2019-10-18T12:34:11Z</time>
      </trkpt>
      <trkpt lat="37.0208470" lon="-2.2672390">
        <ele>990.2</ele>
        <time>2019-10-18T12:34:12Z</time>
      </trkpt>
      <trkpt lat="37.0208090" lon="-2.2672560">
        <ele>990.3</ele>
        <time>2019-10-18T12:34:13Z</time>
      </trkpt>
      <trkpt lat="37.0207690" lon="-2.2672700">
        <ele>990.3</ele>
        <time>2019-10-18T12:34:14Z</time>
      </trkpt>
      <trkpt lat="37.0207290" lon="-2.2672820">
        <ele>990.3</ele>
        <time>2019-10-18T12:34:15Z</time>
      </trkpt>
      <trkpt lat="37.0206870" lon="-2.2672910">
        <ele>990.3</ele>
        <time>2019-10-18T12:34:16Z</time>
      </trkpt>
      <trkpt lat="37.0206470" lon="-2.2672980">
        <ele>990.4</ele>
        <time>2019-10-18T12:34:17Z</time>
      </trkpt>
      <trkpt lat="37.0206070" lon="-2.2673010">
        <ele>990.5</ele>
        <time>2019-10-18T12:34:18Z</time>
      </trkpt>
      <trkpt lat="37.0205690" lon="-2.2673010">
        <ele>990.6</ele>
        <time>2019-10-18T12:34:19Z</time>
      </trkpt>
      <trkpt lat="37.0205340" lon="-2.2672980">
        <ele>990.7</ele>
        <time>2019-10-18T12:34:20Z</time>
      </trkpt>
      <trkpt lat="37.0205010" lon="-2.2672950">
        <ele>990.8</ele>
        <time>2019-10-18T12:34:21Z</time>
      </trkpt>
      <trkpt lat="37.0204700" lon="-2.2672920">
        <ele>990.9</ele>
        <time>2019-10-18T12:34:22Z</time>
      </trkpt>
      <trkpt lat="37.0204430" lon="-2.2672890">
        <ele>991.2</ele>
        <time>2019-10-18T12:34:23Z</time>
      </trkpt>
      <trkpt lat="37.0204190" lon="-2.2672850">
        <ele>991.3</ele>
        <time>2019-10-18T12:34:24Z</time>
      </trkpt>
      <trkpt lat="37.0203950" lon="-2.2672800">
        <ele>991.5</ele>
        <time>2019-10-18T12:34:25Z</time>
      </trkpt>
      <trkpt lat="37.0203730" lon="-2.2672750">
        <ele>991.7</ele>
        <time>2019-10-18T12:34:26Z</time>
      </trkpt>
      <trkpt lat="37.0203520" lon="-2.2672680">
        <ele>991.9</ele>
        <time>2019-10-18T12:34:27Z</time>
      </trkpt>
      <trkpt lat="37.0203310" lon="-2.2672610">
        <ele>992.1</ele>
        <time>2019-10-18T12:34:28Z</time>
      </trkpt>
      <trkpt lat="37.0203110" lon="-2.2672540">
        <ele>992.3</ele>
        <time>2019-10-18T12:34:29Z</time>
      </trkpt>
      <trkpt lat="37.0202900" lon="-2.2672460">
        <ele>992.5</ele>
        <time>2019-10-18T12:34:30Z</time>
      </trkpt>
      <trkpt lat="37.0202700" lon="-2.2672400">
        <ele>992.7</ele>
        <time>2019-10-18T12:34:31Z</time>
      </trkpt>
      <trkpt lat="37.0202500" lon="-2.2672340">
        <ele>993.0</ele>
        <time>2019-10-18T12:34:32Z</time>
      </trkpt>
      <trkpt lat="37.0202290" lon="-2.2672270">
        <ele>993.2</ele>
        <time>2019-10-18T12:34:33Z</time>
      </trkpt>
      <trkpt lat="37.0202100" lon="-2.2672200">
        <ele>993.4</ele>
        <time>2019-10-18T12:34:34Z</time>
      </trkpt>
      <trkpt lat="37.0201910" lon="-2.2672090">
        <ele>993.6</ele>
        <time>2019-10-18T12:34:35Z</time>
      </trkpt>
      <trkpt lat="37.0201720" lon="-2.2671980">
        <ele>993.9</ele>
        <time>2019-10-18T12:34:36Z</time>
      </trkpt>
      <trkpt lat="37.0201520" lon="-2.2671860">
        <ele>994.2</ele>
        <time>2019-10-18T12:34:37Z</time>
      </trkpt>
      <trkpt lat="37.0201330" lon="-2.2671740">
        <ele>994.5</ele>
        <time>2019-10-18T12:34:38Z</time>
      </trkpt>
      <trkpt lat="37.0201140" lon="-2.2671610">
        <ele>994.7</ele>
        <time>2019-10-18T12:34:39Z</time>
      </trkpt>
      <trkpt lat="37.0200970" lon="-2.2671460">
        <ele>994.9</ele>
        <time>2019-10-18T12:34:40Z</time>
      </trkpt>
      <trkpt lat="37.0200790" lon="-2.2671310">
        <ele>995.0</ele>
        <time>2019-10-18T12:34:41Z</time>
      </trkpt>
      <trkpt lat="37.0200610" lon="-2.2671160">
        <ele>995.2</ele>
        <time>2019-10-18T12:34:42Z</time>
      </trkpt>
      <trkpt lat="37.0200440" lon="-2.2671020">
        <ele>995.4</ele>
        <time>2019-10-18T12:34:43Z</time>
      </trkpt>
      <trkpt lat="37.0200270" lon="-2.2670860">
        <ele>995.6</ele>
        <time>2019-10-18T12:34:44Z</time>
      </trkpt>
      <trkpt lat="37.0200110" lon="-2.2670700">
        <ele>995.8</ele>
        <time>2019-10-18T12:34:45Z</time>
      </trkpt>
      <trkpt lat="37.0199960" lon="-2.2670520">
        <ele>996.1</ele>
        <time>2019-10-18T12:34:46Z</time>
      </trkpt>
      <trkpt lat="37.0199800" lon="-2.2670340">
        <ele>996.4</ele>
        <time>2019-10-18T12:34:47Z</time>
      </trkpt>
      <trkpt lat="37.0199660" lon="-2.2670150">
        <ele>996.7</ele>
        <time>2019-10-18T12:34:48Z</time>
      </trkpt>
      <trkpt lat="37.0199520" lon="-2.2669960">
        <ele>997.0</ele>
        <time>2019-10-18T12:34:49Z</time>
      </trkpt>
      <trkpt lat="37.0199380" lon="-2.2669760">
        <ele>997.4</ele>
        <time>2019-10-18T12:34:50Z</time>
      </trkpt>
      <trkpt lat="37.0199250" lon="-2.2669570">
        <ele>997.7</ele>
        <time>2019-10-18T12:34:51Z</time>
      </trkpt>
      <trkpt lat="37.0199120" lon="-2.2669360">
        <ele>998.0</ele>
        <time>2019-10-18T12:34:52Z</time>
      </trkpt>
      <trkpt lat="37.0198990" lon="-2.2669150">
        <ele>998.3</ele>
        <time>2019-10-18T12:34:53Z</time>
      </trkpt>
      <trkpt lat="37.0198860" lon="-2.2668940">
        <ele>998.6</ele>
        <time>2019-10-18T12:34:54Z</time>
      </trkpt>
      <trkpt lat="37.0198730" lon="-2.2668720">
        <ele>998.9</ele>
        <time>2019-10-18T12:34:55Z</time>
      </trkpt>
      <trkpt lat="37.0198610" lon="-2.2668500">
        <ele>999.1</ele>
        <time>2019-10-18T12:34:56Z</time>
      </trkpt>
      <trkpt lat="37.0198490" lon="-2.2668280">
        <ele>999.3</ele>
        <time>2019-10-18T12:34:57Z</time>
      </trkpt>
      <trkpt lat="37.0198380" lon="-2.2668050">
        <ele>999.6</ele>
        <time>2019-10-18T12:34:58Z</time>
      </trkpt>
      <trkpt lat="37.0198280" lon="-2.2667810">
        <ele>999.8</ele>
        <time>2019-10-18T12:34:59Z</time>
      </trkpt>
      <trkpt lat="37.0198160" lon="-2.2667570">
        <ele>1000.0</ele>
        <time>2019-10-18T12:35:00Z</time>
      </trkpt>
      <trkpt lat="37.0198040" lon="-2.2667340">
        <ele>1000.3</ele>
        <time>2019-10-18T12:35:01Z</time>
      </trkpt>
      <trkpt lat="37.0197910" lon="-2.2667120">
        <ele>1000.6</ele>
        <time>2019-10-18T12:35:02Z</time>
      </trkpt>
      <trkpt lat="37.0197790" lon="-2.2666890">
        <ele>1000.8</ele>
        <time>2019-10-18T12:35:03Z</time>
      </trkpt>
      <trkpt lat="37.0197660" lon="-2.2666650">
        <ele>1001.1</ele>
        <time>2019-10-18T12:35:04Z</time>
      </trkpt>
      <trkpt lat="37.0197530" lon="-2.2666430">
        <ele>1001.3</ele>
        <time>2019-10-18T12:35:05Z</time>
      </trkpt>
      <trkpt lat="37.0197380" lon="-2.2666230">
        <ele>1001.5</ele>
        <time>2019-10-18T12:35:06Z</time>
      </trkpt>
      <trkpt lat="37.0197230" lon="-2.2666040">
        <ele>1001.7</ele>
        <time>2019-10-18T12:35:07Z</time>
      </trkpt>
      <trkpt lat="37.0197080" lon="-2.2665870">
        <ele>1001.9</ele>
        <time>2019-10-18T12:35:08Z</time>
      </trkpt>
      <trkpt lat="37.0196900" lon="-2.2665740">
        <ele>1002.2</ele>
        <time>2019-10-18T12:35:09Z</time>
      </trkpt>
      <trkpt lat="37.0196730" lon="-2.2665630">
        <ele>1002.4</ele>
        <time>2019-10-18T12:35:10Z</time>
      </trkpt>
      <trkpt lat="37.0196550" lon="-2.2665530">
        <ele>1002.6</ele>
        <time>2019-10-18T12:35:11Z</time>
      </trkpt>
      <trkpt lat="37.0196380" lon="-2.2665410">
        <ele>1002.9</ele>
        <time>2019-10-18T12:35:12Z</time>
      </trkpt>
      <trkpt lat="37.0196210" lon="-2.2665290">
        <ele>1003.1</ele>
        <time>2019-10-18T12:35:13Z</time>
      </trkpt>
      <trkpt lat="37.0196030" lon="-2.2665200">
        <ele>1003.4</ele>
        <time>2019-10-18T12:35:14Z</time>
      </trkpt>
      <trkpt lat="37.0195850" lon="-2.2665130">
        <ele>1003.6</ele>
        <time>2019-10-18T12:35:15Z</time>
      </trkpt>
      <trkpt lat="37.0195680" lon="-2.2665060">
        <ele>1003.9</ele>
        <time>2019-10-18T12:35:16Z</time>
      </trkpt>
      <trkpt lat="37.0195510" lon="-2.2664980">
        <ele>1004.1</ele>
        <time>2019-10-18T12:35:17Z</time>
      </trkpt>
      <trkpt lat="37.0195340" lon="-2.2664930">
        <ele>1004.4</ele>
        <time>2019-10-18T12:35:18Z</time>
      </trkpt>
      <trkpt lat="37.0195170" lon="-2.2664920">
        <ele>1004.6</ele>
        <time>2019-10-18T12:35:19Z</time>
      </trkpt>
      <trkpt lat="37.0194990" lon="-2.2664930">
        <ele>1004.8</ele>
        <time>2019-10-18T12:35:20Z</time>
      </trkpt>
      <trkpt lat="37.0194820" lon="-2.2664930">
        <ele>1005.1</ele>
        <time>2019-10-18T12:35:21Z</time>
      </trkpt>
      <trkpt lat="37.0194630" lon="-2.2664900">
        <ele>1005.3</ele>
        <time>2019-10-18T12:35:22Z</time>
      </trkpt>
      <trkpt lat="37.0194450" lon="-2.2664880">
        <ele>1005.5</ele>
        <time>2019-10-18T12:35:23Z</time>
      </trkpt>
      <trkpt lat="37.0194270" lon="-2.2664880">
        <ele>1005.7</ele>
        <time>2019-10-18T12:35:24Z</time>
      </trkpt>
      <trkpt lat="37.0194100" lon="-2.2664920">
        <ele>1005.8</ele>
        <time>2019-10-18T12:35:25Z</time>
      </trkpt>
      <trkpt lat="37.0193920" lon="-2.2664980">
        <ele>1006.0</ele>
        <time>2019-10-18T12:35:26Z</time>
      </trkpt>
      <trkpt lat="37.0193760" lon="-2.2665040">
        <ele>1006.2</ele>
        <time>2019-10-18T12:35:27Z</time>
      </trkpt>
      <trkpt lat="37.0193600" lon="-2.2665090">
        <ele>1006.3</ele>
        <time>2019-10-18T12:35:28Z</time>
      </trkpt>
      <trkpt lat="37.0193450" lon="-2.2665110">
        <ele>1006.5</ele>
        <time>2019-10-18T12:35:29Z</time>
      </trkpt>
      <trkpt lat="37.0193300" lon="-2.2665120">
        <ele>1006.6</ele>
        <time>2019-10-18T12:35:30Z</time>
      </trkpt>
      <trkpt lat="37.0193150" lon="-2.2665120">
        <ele>1006.8</ele>
        <time>2019-10-18T12:35:31Z</time>
      </trkpt>
      <trkpt lat="37.0193000" lon="-2.2665140">
        <ele>1006.9</ele>
        <time>2019-10-18T12:35:32Z</time>
      </trkpt>
      <trkpt lat="37.0192850" lon="-2.2665170">
        <ele>1007.1</ele>
        <time>2019-10-18T12:35:33Z</time>
      </trkpt>
      <trkpt lat="37.0192690" lon="-2.2665190">
        <ele>1007.3</ele>
        <time>2019-10-18T12:35:34Z</time>
      </trkpt>
      <trkpt lat="37.0192540" lon="-2.2665210">
        <ele>1007.5</ele>
        <time>2019-10-18T12:35:35Z</time>
      </trkpt>
      <trkpt lat="37.0192380" lon="-2.2665220">
        <ele>1007.7</ele>
        <time>2019-10-18T12:35:36Z</time>
      </trkpt>
      <trkpt lat="37.0192230" lon="-2.2665240">
        <ele>1007.9</ele>
        <time>2019-10-18T12:35:37Z</time>
      </trkpt>
      <trkpt lat="37.0192070" lon="-2.2665260">
        <ele>1008.1</ele>
        <time>2019-10-18T12:35:38Z</time>
      </trkpt>
      <trkpt lat="37.0191910" lon="-2.2665290">
        <ele>1008.3</ele>
        <time>2019-10-18T12:35:39Z</time>
      </trkpt>
      <trkpt lat="37.0191760" lon="-2.2665320">
        <ele>1008.5</ele>
        <time>2019-10-18T12:35:40Z</time>
      </trkpt>
      <trkpt lat="37.0191610" lon="-2.2665350">
        <ele>1008.7</ele>
        <time>2019-10-18T12:35:41Z</time>
      </trkpt>
      <trkpt lat="37.0191450" lon="-2.2665380">
        <ele>1009.0</ele>
        <time>2019-10-18T12:35:42Z</time>
      </trkpt>
      <trkpt lat="37.0191290" lon="-2.2665400">
        <ele>1009.2</ele>
        <time>2019-10-18T12:35:43Z</time>
      </trkpt>
      <trkpt lat="37.0191130" lon="-2.2665430">
        <ele>1009.5</ele>
        <time>2019-10-18T12:35:44Z</time>
      </trkpt>
      <trkpt lat="37.0190970" lon="-2.2665450">
        <ele>1009.7</ele>
        <time>2019-10-18T12:35:45Z</time>
      </trkpt>
      <trkpt lat="37.0190810" lon="-2.2665470">
        <ele>1010.0</ele>
        <time>2019-10-18T12:35:46Z</time>
      </trkpt>
      <trkpt lat="37.0190640" lon="-2.2665480">
        <ele>1010.3</ele>
        <time>2019-10-18T12:35:47Z</time>
      </trkpt>
      <trkpt lat="37.0190480" lon="-2.2665500">
        <ele>1010.5</ele>
        <time>2019-10-18T12:35:48Z</time>
      </trkpt>
      <trkpt lat="37.0190320" lon="-2.2665500">
        <ele>1010.8</ele>
        <time>2019-10-18T12:35:49Z</time>
      </trkpt>
      <trkpt lat="37.0190160" lon="-2.2665510">
        <ele>1010.9</ele>
        <time>2019-10-18T12:35:50Z</time>
      </trkpt>
      <trkpt lat="37.0189990" lon="-2.2665530">
        <ele>1011.1</ele>
        <time>2019-10-18T12:35:51Z</time>
      </trkpt>
      <trkpt lat="37.0189830" lon="-2.2665540">
        <ele>1011.3</ele>
        <time>2019-10-18T12:35:52Z</time>
      </trkpt>
      <trkpt lat="37.0189670" lon="-2.2665520">
        <ele>1011.5</ele>
        <time>2019-10-18T12:35:53Z</time>
      </trkpt>
      <trkpt lat="37.0189500" lon="-2.2665490">
        <ele>1011.7</ele>
        <time>2019-10-18T12:35:54Z</time>
      </trkpt>
      <trkpt lat="37.0189340" lon="-2.2665440">
        <ele>1011.9</ele>
        <time>2019-10-18T12:35:55Z</time>
      </trkpt>
      <trkpt lat="37.0189170" lon="-2.2665400">
        <ele>1012.1</ele>
        <time>2019-10-18T12:35:56Z</time>
      </trkpt>
      <trkpt lat="37.0189010" lon="-2.2665370">
        <ele>1012.3</ele>
        <time>2019-10-18T12:35:57Z</time>
      </trkpt>
      <trkpt lat="37.0188840" lon="-2.2665370">
        <ele>1012.6</ele>
        <time>2019-10-18T12:35:58Z</time>
      </trkpt>
      <trkpt lat="37.0188670" lon="-2.2665370">
        <ele>1012.8</ele>
        <time>2019-10-18T12:35:59Z</time>
      </trkpt>
      <trkpt lat="37.0188510" lon="-2.2665350">
        <ele>1013.1</ele>
        <time>2019-10-18T12:36:00Z</time>
      </trkpt>
      <trkpt lat="37.0188340" lon="-2.2665320">
        <ele>1013.4</ele>
        <time>2019-10-18T12:36:01Z</time>
      </trkpt>
      <trkpt lat="37.0188180" lon="-2.2665290">
        <ele>1013.6</ele>
        <time>2019-10-18T12:36:02Z</time>
      </trkpt>
      <trkpt lat="37.0188000" lon="-2.2665300">
        <ele>1013.9</ele>
        <time>2019-10-18T12:36:03Z</time>
      </trkpt>
      <trkpt lat="37.0187830" lon="-2.2665310">
        <ele>1014.2</ele>
        <time>2019-10-18T12:36:04Z</time>
      </trkpt>
      <trkpt lat="37.0187660" lon="-2.2665320">
        <ele>1014.4</ele>
        <time>2019-10-18T12:36:05Z</time>
      </trkpt>
      <trkpt lat="37.0187490" lon="-2.2665330">
        <ele>1014.7</ele>
        <time>2019-10-18T12:36:06Z</time>
      </trkpt>
      <trkpt lat="37.0187320" lon="-2.2665340">
        <ele>1014.9</ele>
        <time>2019-10-18T12:36:07Z</time>
      </trkpt>
      <trkpt lat="37.0187150" lon="-2.2665350">
        <ele>1015.1</ele>
        <time>2019-10-18T12:36:08Z</time>
      </trkpt>
      <trkpt lat="37.0186980" lon="-2.2665370">
        <ele>1015.4</ele>
        <time>2019-10-18T12:36:09Z</time>
      </trkpt>
      <trkpt lat="37.0186820" lon="-2.2665390">
        <ele>1015.6</ele>
        <time>2019-10-18T12:36:10Z</time>
      </trkpt>
      <trkpt lat="37.0186660" lon="-2.2665440">
        <ele>1015.9</ele>
        <time>2019-10-18T12:36:11Z</time>
      </trkpt>
      <trkpt lat="37.0186490" lon="-2.2665500">
        <ele>1016.2</ele>
        <time>2019-10-18T12:36:12Z</time>
      </trkpt>
      <trkpt lat="37.0186330" lon="-2.2665580">
        <ele>1016.5</ele>
        <time>2019-10-18T12:36:13Z</time>
      </trkpt>
      <trkpt lat="37.0186160" lon="-2.2665660">
        <ele>1016.7</ele>
        <time>2019-10-18T12:36:14Z</time>
      </trkpt>
      <trkpt lat="37.0185990" lon="-2.2665740">
        <ele>1016.8</ele>
        <time>2019-10-18T12:36:15Z</time>
      </trkpt>
      <trkpt lat="37.0185820" lon="-2.2665820">
        <ele>1017.0</ele>
        <time>2019-10-18T12:36:16Z</time>
      </trkpt>
      <trkpt lat="37.0185650" lon="-2.2665900">
        <ele>1017.2</ele>
        <time>2019-10-18T12:36:17Z</time>
      </trkpt>
      <trkpt lat="37.0185470" lon="-2.2665980">
        <ele>1017.4</ele>
        <time>2019-10-18T12:36:18Z</time>
      </trkpt>
      <trkpt lat="37.0185300" lon="-2.2666080">
        <ele>1017.5</ele>
        <time>2019-10-18T12:36:19Z</time>
      </trkpt>
      <trkpt lat="37.0185130" lon="-2.2666180">
        <ele>1017.7</ele>
        <time>2019-10-18T12:36:20Z</time>
      </trkpt>
      <trkpt lat="37.0184970" lon="-2.2666290">
        <ele>1017.9</ele>
        <time>2019-10-18T12:36:21Z</time>
      </trkpt>
      <trkpt lat="37.0184810" lon="-2.2666410">
        <ele>1018.1</ele>
        <time>2019-10-18T12:36:22Z</time>
      </trkpt>
      <trkpt lat="37.0184640" lon="-2.2666530">
        <ele>1018.2</ele>
        <time>2019-10-18T12:36:23Z</time>
      </trkpt>
      <trkpt lat="37.0184470" lon="-2.2666640">
        <ele>1018.4</ele>
        <time>2019-10-18T12:36:24Z</time>
      </trkpt>
      <trkpt lat="37.0184280" lon="-2.2666750">
        <ele>1018.6</ele>
        <time>2019-10-18T12:36:25Z</time>
      </trkpt>
      <trkpt lat="37.0184100" lon="-2.2666870">
        <ele>1018.8</ele>
        <time>2019-10-18T12:36:26Z</time>
      </trkpt>
      <trkpt lat="37.0183920" lon="-2.2667000">
        <ele>1019.0</ele>
        <time>2019-10-18T12:36:27Z</time>
      </trkpt>
      <trkpt lat="37.0183750" lon="-2.2667150">
        <ele>1019.2</ele>
        <time>2019-10-18T12:36:28Z</time>
      </trkpt>
      <trkpt lat="37.0183580" lon="-2.2667300">
        <ele>1019.4</ele>
        <time>2019-10-18T12:36:29Z</time>
      </trkpt>
      <trkpt lat="37.0183400" lon="-2.2667460">
        <ele>1019.5</ele>
        <time>2019-10-18T12:36:30Z</time>
      </trkpt>
      <trkpt lat="37.0183230" lon="-2.2667610">
        <ele>1019.7</ele>
        <time>2019-10-18T12:36:31Z</time>
      </trkpt>
      <trkpt lat="37.0183050" lon="-2.2667760">
        <ele>1019.9</ele>
        <time>2019-10-18T12:36:32Z</time>
      </trkpt>
      <trkpt lat="37.0182890" lon="-2.2667920">
        <ele>1020.1</ele>
        <time>2019-10-18T12:36:33Z</time>
      </trkpt>
      <trkpt lat="37.0182730" lon="-2.2668070">
        <ele>1020.2</ele>
        <time>2019-10-18T12:36:34Z</time>
      </trkpt>
      <trkpt lat="37.0182570" lon="-2.2668250">
        <ele>1020.3</ele>
        <time>2019-10-18T12:36:35Z</time>
      </trkpt>
      <trkpt lat="37.0182420" lon="-2.2668440">
        <ele>1020.4</ele>
        <time>2019-10-18T12:36:36Z</time>
      </trkpt>
      <trkpt lat="37.0182290" lon="-2.2668650">
        <ele>1020.5</ele>
        <time>2019-10-18T12:36:37Z</time>
      </trkpt>
      <trkpt lat="37.0182150" lon="-2.2668850">
        <ele>1020.6</ele>
        <time>2019-10-18T12:36:38Z</time>
      </trkpt>
      <trkpt lat="37.0182010" lon="-2.2669030">
        <ele>1020.7</ele>
        <time>2019-10-18T12:36:39Z</time>
      </trkpt>
      <trkpt lat="37.0181870" lon="-2.2669210">
        <ele>1020.8</ele>
        <time>2019-10-18T12:36:40Z</time>
      </trkpt>
      <trkpt lat="37.0181720" lon="-2.2669390">
        <ele>1020.9</ele>
        <time>2019-10-18T12:36:41Z</time>
      </trkpt>
      <trkpt lat="37.0181570" lon="-2.2669550">
        <ele>1021.1</ele>
        <time>2019-10-18T12:36:42Z</time>
      </trkpt>
      <trkpt lat="37.0181400" lon="-2.2669700">
        <ele>1021.2</ele>
        <time>2019-10-18T12:36:43Z</time>
      </trkpt>
      <trkpt lat="37.0181240" lon="-2.2669850">
        <ele>1021.4</ele>
        <time>2019-10-18T12:36:44Z</time>
      </trkpt>
      <trkpt lat="37.0181060" lon="-2.2669990">
        <ele>1021.3</ele>
        <time>2019-10-18T12:36:45Z</time>
      </trkpt>
      <trkpt lat="37.0180880" lon="-2.2670140">
        <ele>1021.2</ele>
        <time>2019-10-18T12:36:46Z</time>
      </trkpt>
      <trkpt lat="37.0180680" lon="-2.2670290">
        <ele>1021.1</ele>
        <time>2019-10-18T12:36:47Z</time>
      </trkpt>
      <trkpt lat="37.0180470" lon="-2.2670430">
        <ele>1021.0</ele>
        <time>2019-10-18T12:36:48Z</time>
      </trkpt>
      <trkpt lat="37.0180230" lon="-2.2670570">
        <ele>1020.9</ele>
        <time>2019-10-18T12:36:49Z</time>
      </trkpt>
      <trkpt lat="37.0179980" lon="-2.2670720">
        <ele>1020.8</ele>
        <time>2019-10-18T12:36:50Z</time>
      </trkpt>
      <trkpt lat="37.0179710" lon="-2.2670870">
        <ele>1020.7</ele>
        <time>2019-10-18T12:36:51Z</time>
      </trkpt>
      <trkpt lat="37.0179420" lon="-2.2671000">
        <ele>1020.6</ele>
        <time>2019-10-18T12:36:52Z</time>
      </trkpt>
      <trkpt lat="37.0179130" lon="-2.2671110">
        <ele>1020.5</ele>
        <time>2019-10-18T12:36:53Z</time>
      </trkpt>
      <trkpt lat="37.0178830" lon="-2.2671210">
        <ele>1020.4</ele>
        <time>2019-10-18T12:36:54Z</time>
      </trkpt>
      <trkpt lat="37.0178530" lon="-2.2671300">
        <ele>1020.3</ele>
        <time>2019-10-18T12:36:55Z</time>
      </trkpt>
      <trkpt lat="37.0178260" lon="-2.2671380">
        <ele>1020.2</ele>
        <time>2019-10-18T12:36:56Z</time>
      </trkpt>
      <trkpt lat="37.0178010" lon="-2.2671460">
        <ele>1020.1</ele>
        <time>2019-10-18T12:36:57Z</time>
      </trkpt>
      <trkpt lat="37.0177830" lon="-2.2671510">
        <ele>1020.0</ele>
        <time>2019-10-18T12:36:58Z</time>
      </trkpt>
      <trkpt lat="37.0177740" lon="-2.2671550">
        <ele>1020.0</ele>
        <time>2019-10-18T12:36:59Z</time>
      </trkpt>
      <trkpt lat="37.0177710" lon="-2.2671560">
        <ele>1020.0</ele>
        <time>2019-10-18T12:37:00Z</time>
      </trkpt>
      <trkpt lat="37.0177720" lon="-2.2671560">
        <ele>1020.0</ele>
        <time>2019-10-18T12:37:01Z</time>
      </trkpt>
      <trkpt lat="37.0177730" lon="-2.2671560">
        <ele>1020.0</ele>
        <time>2019-10-18T12:37:02Z</time>
      </trkpt>
      <trkpt lat="37.0177740" lon="-2.2671550">
        <ele>1020.0</ele>
        <time>2019-10-18T12:37:03Z</time>
      </trkpt>
      <trkpt lat="37.0177750" lon="-2.2671540">
        <ele>1020.0</ele>
        <time>2019-10-18T12:37:04Z</time>
      </trkpt>
      <trkpt lat="37.0177750" lon="-2.2671540">
        <ele>1020.0</ele>
        <time>2019-10-18T12:37:05Z</time>
      </trkpt>
      <trkpt lat="37.0177740" lon="-2.2671540">
        <ele>1020.0</ele>
        <time>2019-10-18T12:37:06Z</time>
      </trkpt>
      <trkpt lat="37.0177740" lon="-2.2671550">
        <ele>1020.0</ele>
        <time>2019-10-18T12:37:07Z</time>
      </trkpt>
      <trkpt lat="37.0177750" lon="-2.2671550">
        <ele>1020.0</ele>
        <time>2019-10-18T12:37:08Z</time>
      </trkpt>
      <trkpt lat="37.0177760" lon="-2.2671540">
        <ele>1020.0</ele>
        <time>2019-10-18T12:37:09Z</time>
      </trkpt>
      <trkpt lat="37.0177760" lon="-2.2671540">
        <ele>1019.9</ele>
        <time>2019-10-18T12:37:10Z</time>
      </trkpt>
      <trkpt lat="37.0177760" lon="-2.2671540">
        <ele>1019.9</ele>
        <time>2019-10-18T12:37:11Z</time>
      </trkpt>
      <trkpt lat="37.0177760" lon="-2.2671550">
        <ele>1019.8</ele>
        <time>2019-10-18T12:37:12Z</time>
      </trkpt>
      <trkpt lat="37.0177770" lon="-2.2671550">
        <ele>1019.8</ele>
        <time>2019-10-18T12:37:13Z</time>
      </trkpt>
      <trkpt lat="37.0177770" lon="-2.2671560">
        <ele>1019.8</ele>
        <time>2019-10-18T12:37:14Z</time>
      </trkpt>
      <trkpt lat="37.0177770" lon="-2.2671560">
        <ele>1019.8</ele>
        <time>2019-10-18T12:37:15Z</time>
      </trkpt>
      <trkpt lat="37.0177770" lon="-2.2671570">
        <ele>1019.8</ele>
        <time>2019-10-18T12:37:16Z</time>
      </trkpt>
      <trkpt lat="37.0177770" lon="-2.2671570">
        <ele>1019.8</ele>
        <time>2019-10-18T12:37:17Z</time>
      </trkpt>
      <trkpt lat="37.0177770" lon="-2.2671570">
        <ele>1019.8</ele>
        <time>2019-10-18T12:37:18Z</time>
      </trkpt>
      <trkpt lat="37.0177770" lon="-2.2671560">
        <ele>1019.8</ele>
        <time>2019-10-18T12:37:19Z</time>
      </trkpt>
      <trkpt lat="37.0177770" lon="-2.2671560">
        <ele>1019.8</ele>
        <time>2019-10-18T12:37:20Z</time>
      </trkpt>
      <trkpt lat="37.0177770" lon="-2.2671560">
        <ele>1019.8</ele>
        <time>2019-10-18T12:37:21Z</time>
      </trkpt>
      <trkpt lat="37.0177760" lon="-2.2671560">
        <ele>1019.8</ele>
        <time>2019-10-18T12:37:22Z</time>
      </trkpt>
      <trkpt lat="37.0177760" lon="-2.2671560">
        <ele>1019.8</ele>
        <time>2019-10-18T12:37:23Z</time>
      </trkpt>
      <trkpt lat="37.0177770" lon="-2.2671560">
        <ele>1019.8</ele>
        <time>2019-10-18T12:37:24Z</time>
      </trkpt>
      <trkpt lat="37.0177770" lon="-2.2671560">
        <ele>1019.7</ele>
        <time>2019-10-18T12:37:25Z</time>
      </trkpt>
      <trkpt lat="37.0177770" lon="-2.2671550">
        <ele>1019.7</ele>
        <time>2019-10-18T12:37:26Z</time>
      </trkpt>
      <trkpt lat="37.0177760" lon="-2.2671550">
        <ele>1019.7</ele>
        <time>2019-10-18T12:37:27Z</time>
      </trkpt>
      <trkpt lat="37.0177760" lon="-2.2671550">
        <ele>1019.7</ele>
        <time>2019-10-18T12:37:28Z</time>
      </trkpt>
      <trkpt lat="37.0177760" lon="-2.2671550">
        <ele>1019.7</ele>
        <time>2019-10-18T12:37:29Z</time>
      </trkpt>
      <trkpt lat="37.0177760" lon="-2.2671540">
        <ele>1019.7</ele>
        <time>2019-10-18T12:37:30Z</time>
      </trkpt>
      <trkpt lat="37.0177760" lon="-2.2671550">
        <ele>1019.7</ele>
        <time>2019-10-18T12:37:31Z</time>
      </trkpt>
      <trkpt lat="37.0177760" lon="-2.2671550">
        <ele>1019.7</ele>
        <time>2019-10-18T12:37:32Z</time>
      </trkpt>
      <trkpt lat="37.0177760" lon="-2.2671550">
        <ele>1019.7</ele>
        <time>2019-10-18T12:37:33Z</time>
      </trkpt>
      <trkpt lat="37.0177750" lon="-2.2671560">
        <ele>1019.7</ele>
        <time>2019-10-18T12:37:34Z</time>
      </trkpt>
      <trkpt lat="37.0177740" lon="-2.2671570">
        <ele>1019.7</ele>
        <time>2019-10-18T12:37:35Z</time>
      </trkpt>
      <trkpt lat="37.0177730" lon="-2.2671590">
        <ele>1019.7</ele>
        <time>2019-10-18T12:37:36Z</time>
      </trkpt>
      <trkpt lat="37.0177720" lon="-2.2671600">
        <ele>1019.7</ele>
        <time>2019-10-18T12:37:37Z</time>
      </trkpt>
      <trkpt lat="37.0177720" lon="-2.2671600">
        <ele>1019.7</ele>
        <time>2019-10-18T12:37:38Z</time>
      </trkpt>
      <trkpt lat="37.0177720" lon="-2.2671610">
        <ele>1019.6</ele>
        <time>2019-10-18T12:37:39Z</time>
      </trkpt>
      <trkpt lat="37.0177720" lon="-2.2671610">
        <ele>1019.6</ele>
        <time>2019-10-18T12:37:40Z</time>
      </trkpt>
      <trkpt lat="37.0177720" lon="-2.2671610">
        <ele>1019.6</ele>
        <time>2019-10-18T12:37:41Z</time>
      </trkpt>
      <trkpt lat="37.0177720" lon="-2.2671610">
        <ele>1019.6</ele>
        <time>2019-10-18T12:37:42Z</time>
      </trkpt>
      <trkpt lat="37.0177710" lon="-2.2671610">
        <ele>1019.6</ele>
        <time>2019-10-18T12:37:43Z</time>
      </trkpt>
      <trkpt lat="37.0177700" lon="-2.2671610">
        <ele>1019.6</ele>
        <time>2019-10-18T12:37:44Z</time>
      </trkpt>
      <trkpt lat="37.0177700" lon="-2.2671610">
        <ele>1019.6</ele>
        <time>2019-10-18T12:37:45Z</time>
      </trkpt>
      <trkpt lat="37.0177700" lon="-2.2671610">
        <ele>1019.6</ele>
        <time>2019-10-18T12:37:46Z</time>
      </trkpt>
      <trkpt lat="37.0177710" lon="-2.2671610">
        <ele>1019.6</ele>
        <time>2019-10-18T12:37:47Z</time>
      </trkpt>
      <trkpt lat="37.0177710" lon="-2.2671610">
        <ele>1019.6</ele>
        <time>2019-10-18T12:37:48Z</time>
      </trkpt>
      <trkpt lat="37.0177700" lon="-2.2671610">
        <ele>1019.6</ele>
        <time>2019-10-18T12:37:49Z</time>
      </trkpt>
      <trkpt lat="37.0177710" lon="-2.2671610">
        <ele>1019.6</ele>
        <time>2019-10-18T12:37:50Z</time>
      </trkpt>
      <trkpt lat="37.0177710" lon="-2.2671610">
        <ele>1019.6</ele>
        <time>2019-10-18T12:37:51Z</time>
      </trkpt>
      <trkpt lat="37.0177710" lon="-2.2671620">
        <ele>1019.6</ele>
        <time>2019-10-18T12:37:52Z</time>
      </trkpt>
      <trkpt lat="37.0177700" lon="-2.2671620">
        <ele>1019.5</ele>
        <time>2019-10-18T12:37:53Z</time>
      </trkpt>
      <trkpt lat="37.0177680" lon="-2.2671620">
        <ele>1019.5</ele>
        <time>2019-10-18T12:37:54Z</time>
      </trkpt>
      <trkpt lat="37.0177670" lon="-2.2671610">
        <ele>1019.5</ele>
        <time>2019-10-18T12:37:55Z</time>
      </trkpt>
      <trkpt lat="37.0177670" lon="-2.2671610">
        <ele>1019.5</ele>
        <time>2019-10-18T12:37:56Z</time>
      </trkpt>
      <trkpt lat="37.0177670" lon="-2.2671610">
        <ele>1019.5</ele>
        <time>2019-10-18T12:37:57Z</time>
      </trkpt>
      <trkpt lat="37.0177680" lon="-2.2671610">
        <ele>1019.5</ele>
        <time>2019-10-18T12:37:58Z</time>
      </trkpt>
      <trkpt lat="37.0177680" lon="-2.2671620">
        <ele>1019.5</ele>
        <time>2019-10-18T12:37:59Z</time>
      </trkpt>
      <trkpt lat="37.0177680" lon="-2.2671610">
        <ele>1019.4</ele>
        <time>2019-10-18T12:38:00Z</time>
      </trkpt>
      <trkpt lat="37.0177680" lon="-2.2671600">
        <ele>1019.4</ele>
        <time>2019-10-18T12:38:01Z</time>
      </trkpt>
      <trkpt lat="37.0177680" lon="-2.2671590">
        <ele>1019.4</ele>
        <time>2019-10-18T12:38:02Z</time>
      </trkpt>
      <trkpt lat="37.0177670" lon="-2.2671590">
        <ele>1019.4</ele>
        <time>2019-10-18T12:38:03Z</time>
      </trkpt>
      <trkpt lat="37.0177670" lon="-2.2671580">
        <ele>1019.4</ele>
        <time>2019-10-18T12:38:04Z</time>
      </trkpt>
      <trkpt lat="37.0177660" lon="-2.2671570">
        <ele>1019.4</ele>
        <time>2019-10-18T12:38:05Z</time>
      </trkpt>
      <trkpt lat="37.0177670" lon="-2.2671560">
        <ele>1019.4</ele>
        <time>2019-10-18T12:38:06Z</time>
      </trkpt>
      <trkpt lat="37.0177680" lon="-2.2671550">
        <ele>1019.4</ele>
        <time>2019-10-18T12:38:07Z</time>
      </trkpt>
      <trkpt lat="37.0177690" lon="-2.2671560">
        <ele>1019.3</ele>
        <time>2019-10-18T12:38:08Z</time>
      </trkpt>
      <trkpt lat="37.0177690" lon="-2.2671560">
        <ele>1019.3</ele>
        <time>2019-10-18T12:38:09Z</time>
      </trkpt>
      <trkpt lat="37.0177700" lon="-2.2671560">
        <ele>1019.3</ele>
        <time>2019-10-18T12:38:10Z</time>
      </trkpt>
      <trkpt lat="37.0177700" lon="-2.2671570">
        <ele>1019.3</ele>
        <time>2019-10-18T12:38:11Z</time>
      </trkpt>
      <trkpt lat="37.0177710" lon="-2.2671570">
        <ele>1019.3</ele>
        <time>2019-10-18T12:38:12Z</time>
      </trkpt>
      <trkpt lat="37.0177720" lon="-2.2671570">
        <ele>1019.3</ele>
        <time>2019-10-18T12:38:13Z</time>
      </trkpt>
      <trkpt lat="37.0177730" lon="-2.2671580">
        <ele>1019.3</ele>
        <time>2019-10-18T12:38:14Z</time>
      </trkpt>
      <trkpt lat="37.0177730" lon="-2.2671590">
        <ele>1019.3</ele>
        <time>2019-10-18T12:38:15Z</time>
      </trkpt>
      <trkpt lat="37.0177740" lon="-2.2671590">
        <ele>1019.3</ele>
        <time>2019-10-18T12:38:16Z</time>
      </trkpt>
      <trkpt lat="37.0177750" lon="-2.2671600">
        <ele>1019.3</ele>
        <time>2019-10-18T12:38:17Z</time>
      </trkpt>
      <trkpt lat="37.0177760" lon="-2.2671600">
        <ele>1019.3</ele>
        <time>2019-10-18T12:38:18Z</time>
      </trkpt>
      <trkpt lat="37.0177770" lon="-2.2671610">
        <ele>1019.3</ele>
        <time>2019-10-18T12:38:19Z</time>
      </trkpt>
      <trkpt lat="37.0177770" lon="-2.2671610">
        <ele>1019.3</ele>
        <time>2019-10-18T12:38:20Z</time>
      </trkpt>
      <trkpt lat="37.0177780" lon="-2.2671610">
        <ele>1019.3</ele>
        <time>2019-10-18T12:38:21Z</time>
      </trkpt>
      <trkpt lat="37.0177780" lon="-2.2671610">
        <ele>1019.2</ele>
        <time>2019-10-18T12:38:22Z</time>
      </trkpt>
      <trkpt lat="37.0177790" lon="-2.2671610">
        <ele>1019.2</ele>
        <time>2019-10-18T12:38:23Z</time>
      </trkpt>
      <trkpt lat="37.0177790" lon="-2.2671610">
        <ele>1019.2</ele>
        <time>2019-10-18T12:38:24Z</time>
      </trkpt>
      <trkpt lat="37.0177790" lon="-2.2671610">
        <ele>1019.2</ele>
        <time>2019-10-18T12:38:25Z</time>
      </trkpt>
      <trkpt lat="37.0177790" lon="-2.2671610">
        <ele>1019.2</ele>
        <time>2019-10-18T12:38:26Z</time>
      </trkpt>
      <trkpt lat="37.0177790" lon="-2.2671620">
        <ele>1019.2</ele>
        <time>2019-10-18T12:38:27Z</time>
      </trkpt>
      <trkpt lat="37.0177790" lon="-2.2671620">
        <ele>1019.2</ele>
        <time>2019-10-18T12:38:28Z</time>
      </trkpt>
      <trkpt lat="37.0177790" lon="-2.2671630">
        <ele>1019.2</ele>
        <time>2019-10-18T12:38:29Z</time>
      </trkpt>
      <trkpt lat="37.0177790" lon="-2.2671640">
        <ele>1019.2</ele>
        <time>2019-10-18T12:38:30Z</time>
      </trkpt>
      <trkpt lat="37.0177790" lon="-2.2671650">
        <ele>1019.2</ele>
        <time>2019-10-18T12:38:31Z</time>
      </trkpt>
      <trkpt lat="37.0177790" lon="-2.2671650">
        <ele>1019.2</ele>
        <time>2019-10-18T12:38:32Z</time>
      </trkpt>
      <trkpt lat="37.0177790" lon="-2.2671640">
        <ele>1019.2</ele>
        <time>2019-10-18T12:38:33Z</time>
      </trkpt>
      <trkpt lat="37.0177780" lon="-2.2671630">
        <ele>1019.1</ele>
        <time>2019-10-18T12:38:34Z</time>
      </trkpt>
      <trkpt lat="37.0177770" lon="-2.2671630">
        <ele>1019.1</ele>
        <time>2019-10-18T12:38:35Z</time>
      </trkpt>
      <trkpt lat="37.0177760" lon="-2.2671640">
        <ele>1019.1</ele>
        <time>2019-10-18T12:38:36Z</time>
      </trkpt>
      <trkpt lat="37.0177750" lon="-2.2671650">
        <ele>1019.0</ele>
        <time>2019-10-18T12:38:37Z</time>
      </trkpt>
      <trkpt lat="37.0177750" lon="-2.2671650">
        <ele>1019.0</ele>
        <time>2019-10-18T12:38:38Z</time>
      </trkpt>
      <trkpt lat="37.0177750" lon="-2.2671640">
        <ele>1019.0</ele>
        <time>2019-10-18T12:38:39Z</time>
      </trkpt>
      <trkpt lat="37.0177750" lon="-2.2671630">
        <ele>1019.0</ele>
        <time>2019-10-18T12:38:40Z</time>
      </trkpt>
      <trkpt lat="37.0177750" lon="-2.2671620">
        <ele>1019.0</ele>
        <time>2019-10-18T12:38:41Z</time>
      </trkpt>
      <trkpt lat="37.0177760" lon="-2.2671610">
        <ele>1019.0</ele>
        <time>2019-10-18T12:38:42Z</time>
      </trkpt>
      <trkpt lat="37.0177770" lon="-2.2671590">
        <ele>1019.0</ele>
        <time>2019-10-18T12:38:43Z</time>
      </trkpt>
      <trkpt lat="37.0177760" lon="-2.2671580">
        <ele>1019.0</ele>
        <time>2019-10-18T12:38:44Z</time>
      </trkpt>
      <trkpt lat="37.0177760" lon="-2.2671570">
        <ele>1019.0</ele>
        <time>2019-10-18T12:38:45Z</time>
      </trkpt>
      <trkpt lat="37.0177740" lon="-2.2671570">
        <ele>1019.0</ele>
        <time>2019-10-18T12:38:46Z</time>
      </trkpt>
      <trkpt lat="37.0177730" lon="-2.2671570">
        <ele>1019.0</ele>
        <time>2019-10-18T12:38:47Z</time>
      </trkpt>
      <trkpt lat="37.0177720" lon="-2.2671570">
        <ele>1019.0</ele>
        <time>2019-10-18T12:38:48Z</time>
      </trkpt>
      <trkpt lat="37.0177720" lon="-2.2671570">
        <ele>1019.0</ele>
        <time>2019-10-18T12:38:49Z</time>
      </trkpt>
      <trkpt lat="37.0177710" lon="-2.2671560">
        <ele>1019.0</ele>
        <time>2019-10-18T12:38:50Z</time>
      </trkpt>
      <trkpt lat="37.0177710" lon="-2.2671560">
        <ele>1019.0</ele>
        <time>2019-10-18T12:38:51Z</time>
      </trkpt>
      <trkpt lat="37.0177710" lon="-2.2671570">
        <ele>1019.0</ele>
        <time>2019-10-18T12:38:52Z</time>
      </trkpt>
      <trkpt lat="37.0177710" lon="-2.2671570">
        <ele>1019.0</ele>
        <time>2019-10-18T12:38:53Z</time>
      </trkpt>
      <trkpt lat="37.0177710" lon="-2.2671580">
        <ele>1019.0</ele>
        <time>2019-10-18T12:38:54Z</time>
      </trkpt>
      <trkpt lat="37.0177710" lon="-2.2671590">
        <ele>1019.0</ele>
        <time>2019-10-18T12:38:55Z</time>
      </trkpt>
      <trkpt lat="37.0177720" lon="-2.2671600">
        <ele>1019.0</ele>
        <time>2019-10-18T12:38:56Z</time>
      </trkpt>
      <trkpt lat="37.0177720" lon="-2.2671600">
        <ele>1019.0</ele>
        <time>2019-10-18T12:38:57Z</time>
      </trkpt>
      <trkpt lat="37.0177720" lon="-2.2671610">
        <ele>1019.0</ele>
        <time>2019-10-18T12:38:58Z</time>
      </trkpt>
      <trkpt lat="37.0177720" lon="-2.2671620">
        <ele>1019.0</ele>
        <time>2019-10-18T12:38:59Z</time>
      </trkpt>
      <trkpt lat="37.0177720" lon="-2.2671620">
        <ele>1019.0</ele>
        <time>2019-10-18T12:39:00Z</time>
      </trkpt>
      <trkpt lat="37.0177720" lon="-2.2671630">
        <ele>1019.0</ele>
        <time>2019-10-18T12:39:01Z</time>
      </trkpt>
      <trkpt lat="37.0177730" lon="-2.2671620">
        <ele>1019.0</ele>
        <time>2019-10-18T12:39:02Z</time>
      </trkpt>
      <trkpt lat="37.0177730" lon="-2.2671620">
        <ele>1019.0</ele>
        <time>2019-10-18T12:39:03Z</time>
      </trkpt>
      <trkpt lat="37.0177730" lon="-2.2671610">
        <ele>1019.0</ele>
        <time>2019-10-18T12:39:04Z</time>
      </trkpt>
      <trkpt lat="37.0177720" lon="-2.2671610">
        <ele>1019.0</ele>
        <time>2019-10-18T12:39:05Z</time>
      </trkpt>
      <trkpt lat="37.0177710" lon="-2.2671620">
        <ele>1019.0</ele>
        <time>2019-10-18T12:39:06Z</time>
      </trkpt>
      <trkpt lat="37.0177700" lon="-2.2671640">
        <ele>1019.0</ele>
        <time>2019-10-18T12:39:07Z</time>
      </trkpt>
      <trkpt lat="37.0177700" lon="-2.2671640">
        <ele>1019.0</ele>
        <time>2019-10-18T12:39:08Z</time>
      </trkpt>
      <trkpt lat="37.0177720" lon="-2.2671640">
        <ele>1019.0</ele>
        <time>2019-10-18T12:39:09Z</time>
      </trkpt>
      <trkpt lat="37.0177750" lon="-2.2671640">
        <ele>1018.9</ele>
        <time>2019-10-18T12:39:10Z</time>
      </trkpt>
      <trkpt lat="37.0177790" lon="-2.2671650">
        <ele>1018.9</ele>
        <time>2019-10-18T12:39:11Z</time>
      </trkpt>
      <trkpt lat="37.0177830" lon="-2.2671700">
        <ele>1018.9</ele>
        <time>2019-10-18T12:39:12Z</time>
      </trkpt>
      <trkpt lat="37.0177870" lon="-2.2671780">
        <ele>1018.9</ele>
        <time>2019-10-18T12:39:13Z</time>
      </trkpt>
      <trkpt lat="37.0177900" lon="-2.2671890">
        <ele>1018.9</ele>
        <time>2019-10-18T12:39:14Z</time>
      </trkpt>
      <trkpt lat="37.0177930" lon="-2.2671980">
        <ele>1018.8</ele>
        <time>2019-10-18T12:39:15Z</time>
      </trkpt>
      <trkpt lat="37.0177950" lon="-2.2672040">
        <ele>1018.8</ele>
        <time>2019-10-18T12:39:16Z</time>
      </trkpt>
      <trkpt lat="37.0177970" lon="-2.2672080">
        <ele>1018.8</ele>
        <time>2019-10-18T12:39:17Z</time>
      </trkpt>
      <trkpt lat="37.0177990" lon="-2.2672080">
        <ele>1018.8</ele>
        <time>2019-10-18T12:39:18Z</time>
      </trkpt>
      <trkpt lat="37.0177990" lon="-2.2672090">
        <ele>1018.8</ele>
        <time>2019-10-18T12:39:19Z</time>
      </trkpt>
      <trkpt lat="37.0177990" lon="-2.2672090">
        <ele>1018.8</ele>
        <time>2019-10-18T12:39:20Z</time>
      </trkpt>
      <trkpt lat="37.0177980" lon="-2.2672090">
        <ele>1018.8</ele>
        <time>2019-10-18T12:39:21Z</time>
      </trkpt>
      <trkpt lat="37.0177980" lon="-2.2672080">
        <ele>1018.8</ele>
        <time>2019-10-18T12:39:22Z</time>
      </trkpt>
      <trkpt lat="37.0177990" lon="-2.2672060">
        <ele>1018.8</ele>
        <time>2019-10-18T12:39:23Z</time>
      </trkpt>
      <trkpt lat="37.0177990" lon="-2.2672060">
        <ele>1018.8</ele>
        <time>2019-10-18T12:39:24Z</time>
      </trkpt>
      <trkpt lat="37.0177990" lon="-2.2672050">
        <ele>1018.8</ele>
        <time>2019-10-18T12:39:25Z</time>
      </trkpt>
      <trkpt lat="37.0177980" lon="-2.2672040">
        <ele>1018.8</ele>
        <time>2019-10-18T12:39:26Z</time>
      </trkpt>
      <trkpt lat="37.0177990" lon="-2.2672030">
        <ele>1018.8</ele>
        <time>2019-10-18T12:39:27Z</time>
      </trkpt>
      <trkpt lat="37.0177990" lon="-2.2672020">
        <ele>1018.8</ele>
        <time>2019-10-18T12:39:28Z</time>
      </trkpt>
      <trkpt lat="37.0178000" lon="-2.2672030">
        <ele>1018.8</ele>
        <time>2019-10-18T12:39:29Z</time>
      </trkpt>
      <trkpt lat="37.0178020" lon="-2.2672040">
        <ele>1018.8</ele>
        <time>2019-10-18T12:39:30Z</time>
      </trkpt>
      <trkpt lat="37.0178020" lon="-2.2672080">
        <ele>1018.8</ele>
        <time>2019-10-18T12:39:31Z</time>
      </trkpt>
      <trkpt lat="37.0178030" lon="-2.2672120">
        <ele>1018.7</ele>
        <time>2019-10-18T12:39:32Z</time>
      </trkpt>
      <trkpt lat="37.0178050" lon="-2.2672160">
        <ele>1018.7</ele>
        <time>2019-10-18T12:39:33Z</time>
      </trkpt>
      <trkpt lat="37.0178090" lon="-2.2672170">
        <ele>1018.7</ele>
        <time>2019-10-18T12:39:34Z</time>
      </trkpt>
      <trkpt lat="37.0178110" lon="-2.2672180">
        <ele>1018.7</ele>
        <time>2019-10-18T12:39:35Z</time>
      </trkpt>
      <trkpt lat="37.0178120" lon="-2.2672190">
        <ele>1018.7</ele>
        <time>2019-10-18T12:39:36Z</time>
      </trkpt>
      <trkpt lat="37.0178120" lon="-2.2672190">
        <ele>1018.7</ele>
        <time>2019-10-18T12:39:37Z</time>
      </trkpt>
      <trkpt lat="37.0178120" lon="-2.2672190">
        <ele>1018.7</ele>
        <time>2019-10-18T12:39:38Z</time>
      </trkpt>
      <trkpt lat="37.0178130" lon="-2.2672180">
        <ele>1018.7</ele>
        <time>2019-10-18T12:39:39Z</time>
      </trkpt>
      <trkpt lat="37.0178130" lon="-2.2672180">
        <ele>1018.7</ele>
        <time>2019-10-18T12:39:40Z</time>
      </trkpt>
      <trkpt lat="37.0178130" lon="-2.2672180">
        <ele>1018.7</ele>
        <time>2019-10-18T12:39:41Z</time>
      </trkpt>
      <trkpt lat="37.0178130" lon="-2.2672180">
        <ele>1018.7</ele>
        <time>2019-10-18T12:39:42Z</time>
      </trkpt>
      <trkpt lat="37.0178130" lon="-2.2672180">
        <ele>1018.7</ele>
        <time>2019-10-18T12:39:43Z</time>
      </trkpt>
      <trkpt lat="37.0178130" lon="-2.2672180">
        <ele>1018.7</ele>
        <time>2019-10-18T12:39:44Z</time>
      </trkpt>
      <trkpt lat="37.0178130" lon="-2.2672180">
        <ele>1018.7</ele>
        <time>2019-10-18T12:39:45Z</time>
      </trkpt>
      <trkpt lat="37.0178130" lon="-2.2672180">
        <ele>1018.7</ele>
        <time>2019-10-18T12:39:46Z</time>
      </trkpt>
      <trkpt lat="37.0178130" lon="-2.2672180">
        <ele>1018.7</ele>
        <time>2019-10-18T12:39:47Z</time>
      </trkpt>
      <trkpt lat="37.0178130" lon="-2.2672170">
        <ele>1018.7</ele>
        <time>2019-10-18T12:39:48Z</time>
      </trkpt>
      <trkpt lat="37.0178130" lon="-2.2672170">
        <ele>1018.7</ele>
        <time>2019-10-18T12:39:49Z</time>
      </trkpt>
      <trkpt lat="37.0178130" lon="-2.2672170">
        <ele>1018.7</ele>
        <time>2019-10-18T12:39:50Z</time>
      </trkpt>
      <trkpt lat="37.0178140" lon="-2.2672160">
        <ele>1018.7</ele>
        <time>2019-10-18T12:39:51Z</time>
      </trkpt>
      <trkpt lat="37.0178140" lon="-2.2672160">
        <ele>1018.7</ele>
        <time>2019-10-18T12:39:52Z</time>
      </trkpt>
      <trkpt lat="37.0178140" lon="-2.2672150">
        <ele>1018.7</ele>
        <time>2019-10-18T12:39:53Z</time>
      </trkpt>
      <trkpt lat="37.0178140" lon="-2.2672150">
        <ele>1018.7</ele>
        <time>2019-10-18T12:39:54Z</time>
      </trkpt>
      <trkpt lat="37.0178130" lon="-2.2672140">
        <ele>1018.7</ele>
        <time>2019-10-18T12:39:55Z</time>
      </trkpt>
      <trkpt lat="37.0178130" lon="-2.2672140">
        <ele>1018.7</ele>
        <time>2019-10-18T12:39:56Z</time>
      </trkpt>
      <trkpt lat="37.0178130" lon="-2.2672140">
        <ele>1018.7</ele>
        <time>2019-10-18T12:39:57Z</time>
      </trkpt>
      <trkpt lat="37.0178120" lon="-2.2672130">
        <ele>1018.7</ele>
        <time>2019-10-18T12:39:58Z</time>
      </trkpt>
      <trkpt lat="37.0178110" lon="-2.2672130">
        <ele>1018.7</ele>
        <time>2019-10-18T12:39:59Z</time>
      </trkpt>
      <trkpt lat="37.0178110" lon="-2.2672120">
        <ele>1018.7</ele>
        <time>2019-10-18T12:40:00Z</time>
      </trkpt>
      <trkpt lat="37.0178100" lon="-2.2672110">
        <ele>1018.7</ele>
        <time>2019-10-18T12:40:01Z</time>
      </trkpt>
      <trkpt lat="37.0178100" lon="-2.2672100">
        <ele>1018.7</ele>
        <time>2019-10-18T12:40:02Z</time>
      </trkpt>
      <trkpt lat="37.0178090" lon="-2.2672100">
        <ele>1018.7</ele>
        <time>2019-10-18T12:40:03Z</time>
      </trkpt>
      <trkpt lat="37.0178090" lon="-2.2672100">
        <ele>1018.7</ele>
        <time>2019-10-18T12:40:04Z</time>
      </trkpt>
      <trkpt lat="37.0178080" lon="-2.2672120">
        <ele>1018.7</ele>
        <time>2019-10-18T12:40:05Z</time>
      </trkpt>
      <trkpt lat="37.0178070" lon="-2.2672110">
        <ele>1018.7</ele>
        <time>2019-10-18T12:40:06Z</time>
      </trkpt>
      <trkpt lat="37.0178060" lon="-2.2672080">
        <ele>1018.7</ele>
        <time>2019-10-18T12:40:07Z</time>
      </trkpt>
      <trkpt lat="37.0178030" lon="-2.2672030">
        <ele>1018.6</ele>
        <time>2019-10-18T12:40:08Z</time>
      </trkpt>
      <trkpt lat="37.0178000" lon="-2.2672000">
        <ele>1018.6</ele>
        <time>2019-10-18T12:40:09Z</time>
      </trkpt>
      <trkpt lat="37.0177970" lon="-2.2671990">
        <ele>1018.6</ele>
        <time>2019-10-18T12:40:10Z</time>
      </trkpt>
      <trkpt lat="37.0177960" lon="-2.2671990">
        <ele>1018.6</ele>
        <time>2019-10-18T12:40:11Z</time>
      </trkpt>
      <trkpt lat="37.0177950" lon="-2.2671980">
        <ele>1018.6</ele>
        <time>2019-10-18T12:40:12Z</time>
      </trkpt>
      <trkpt lat="37.0177960" lon="-2.2671980">
        <ele>1018.6</ele>
        <time>2019-10-18T12:40:13Z</time>
      </trkpt>
      <trkpt lat="37.0177970" lon="-2.2671980">
        <ele>1018.6</ele>
        <time>2019-10-18T12:40:14Z</time>
      </trkpt>
      <trkpt lat="37.0177970" lon="-2.2671990">
        <ele>1018.6</ele>
        <time>2019-10-18T12:40:15Z</time>
      </trkpt>
      <trkpt lat="37.0177980" lon="-2.2671990">
        <ele>1018.6</ele>
        <time>2019-10-18T12:40:16Z</time>
      </trkpt>
      <trkpt lat="37.0177990" lon="-2.2671980">
        <ele>1018.6</ele>
        <time>2019-10-18T12:40:17Z</time>
      </trkpt>
      <trkpt lat="37.0178010" lon="-2.2671990">
        <ele>1018.6</ele>
        <time>2019-10-18T12:40:18Z</time>
      </trkpt>
      <trkpt lat="37.0178020" lon="-2.2672000">
        <ele>1018.6</ele>
        <time>2019-10-18T12:40:19Z</time>
      </trkpt>
      <trkpt lat="37.0178030" lon="-2.2672000">
        <ele>1018.6</ele>
        <time>2019-10-18T12:40:20Z</time>
      </trkpt>
      <trkpt lat="37.0178030" lon="-2.2672000">
        <ele>1018.6</ele>
        <time>2019-10-18T12:40:21Z</time>
      </trkpt>
      <trkpt lat="37.0178030" lon="-2.2672010">
        <ele>1018.6</ele>
        <time>2019-10-18T12:40:22Z</time>
      </trkpt>
      <trkpt lat="37.0178040" lon="-2.2672010">
        <ele>1018.6</ele>
        <time>2019-10-18T12:40:23Z</time>
      </trkpt>
      <trkpt lat="37.0178050" lon="-2.2672020">
        <ele>1018.6</ele>
        <time>2019-10-18T12:40:24Z</time>
      </trkpt>
      <trkpt lat="37.0178050" lon="-2.2672030">
        <ele>1018.6</ele>
        <time>2019-10-18T12:40:25Z</time>
      </trkpt>
      <trkpt lat="37.0178050" lon="-2.2672050">
        <ele>1018.6</ele>
        <time>2019-10-18T12:40:26Z</time>
      </trkpt>
      <trkpt lat="37.0178050" lon="-2.2672060">
        <ele>1018.6</ele>
        <time>2019-10-18T12:40:27Z</time>
      </trkpt>
      <trkpt lat="37.0178060" lon="-2.2672060">
        <ele>1018.6</ele>
        <time>2019-10-18T12:40:28Z</time>
      </trkpt>
      <trkpt lat="37.0178060" lon="-2.2672060">
        <ele>1018.6</ele>
        <time>2019-10-18T12:40:29Z</time>
      </trkpt>
      <trkpt lat="37.0178050" lon="-2.2672040">
        <ele>1018.6</ele>
        <time>2019-10-18T12:40:30Z</time>
      </trkpt>
      <trkpt lat="37.0178030" lon="-2.2671990">
        <ele>1018.6</ele>
        <time>2019-10-18T12:40:31Z</time>
      </trkpt>
      <trkpt lat="37.0178020" lon="-2.2671920">
        <ele>1018.6</ele>
        <time>2019-10-18T12:40:32Z</time>
      </trkpt>
      <trkpt lat="37.0178010" lon="-2.2671840">
        <ele>1018.6</ele>
        <time>2019-10-18T12:40:33Z</time>
      </trkpt>
      <trkpt lat="37.0178020" lon="-2.2671740">
        <ele>1018.6</ele>
        <time>2019-10-18T12:40:34Z</time>
      </trkpt>
      <trkpt lat="37.0178040" lon="-2.2671660">
        <ele>1018.6</ele>
        <time>2019-10-18T12:40:35Z</time>
      </trkpt>
      <trkpt lat="37.0178060" lon="-2.2671580">
        <ele>1018.6</ele>
        <time>2019-10-18T12:40:36Z</time>
      </trkpt>
      <trkpt lat="37.0178080" lon="-2.2671510">
        <ele>1018.6</ele>
        <time>2019-10-18T12:40:37Z</time>
      </trkpt>
      <trkpt lat="37.0178080" lon="-2.2671470">
        <ele>1018.5</ele>
        <time>2019-10-18T12:40:38Z</time>
      </trkpt>
      <trkpt lat="37.0178080" lon="-2.2671460">
        <ele>1018.5</ele>
        <time>2019-10-18T12:40:39Z</time>
      </trkpt>
      <trkpt lat="37.0178070" lon="-2.2671450">
        <ele>1018.5</ele>
        <time>2019-10-18T12:40:40Z</time>
      </trkpt>
      <trkpt lat="37.0178060" lon="-2.2671450">
        <ele>1018.5</ele>
        <time>2019-10-18T12:40:41Z</time>
      </trkpt>
      <trkpt lat="37.0178050" lon="-2.2671450">
        <ele>1018.5</ele>
        <time>2019-10-18T12:40:42Z</time>
      </trkpt>
      <trkpt lat="37.0178020" lon="-2.2671470">
        <ele>1018.5</ele>
        <time>2019-10-18T12:40:43Z</time>
      </trkpt>
      <trkpt lat="37.0177960" lon="-2.2671470">
        <ele>1018.5</ele>
        <time>2019-10-18T12:40:44Z</time>
      </trkpt>
      <trkpt lat="37.0177880" lon="-2.2671470">
        <ele>1018.5</ele>
        <time>2019-10-18T12:40:45Z</time>
      </trkpt>
      <trkpt lat="37.0177780" lon="-2.2671470">
        <ele>1018.5</ele>
        <time>2019-10-18T12:40:46Z</time>
      </trkpt>
      <trkpt lat="37.0177670" lon="-2.2671470">
        <ele>1018.5</ele>
        <time>2019-10-18T12:40:47Z</time>
      </trkpt>
      <trkpt lat="37.0177570" lon="-2.2671480">
        <ele>1018.5</ele>
        <time>2019-10-18T12:40:48Z</time>
      </trkpt>
      <trkpt lat="37.0177500" lon="-2.2671490">
        <ele>1018.5</ele>
        <time>2019-10-18T12:40:49Z</time>
      </trkpt>
      <trkpt lat="37.0177460" lon="-2.2671500">
        <ele>1018.5</ele>
        <time>2019-10-18T12:40:50Z</time>
      </trkpt>
      <trkpt lat="37.0177450" lon="-2.2671500">
        <ele>1018.5</ele>
        <time>2019-10-18T12:40:51Z</time>
      </trkpt>
      <trkpt lat="37.0177450" lon="-2.2671500">
        <ele>1018.5</ele>
        <time>2019-10-18T12:40:52Z</time>
      </trkpt>
      <trkpt lat="37.0177450" lon="-2.2671500">
        <ele>1018.5</ele>
        <time>2019-10-18T12:40:53Z</time>
      </trkpt>
      <trkpt lat="37.0177450" lon="-2.2671500">
        <ele>1018.5</ele>
        <time>2019-10-18T12:40:54Z</time>
      </trkpt>
      <trkpt lat="37.0177450" lon="-2.2671500">
        <ele>1018.5</ele>
        <time>2019-10-18T12:40:55Z</time>
      </trkpt>
      <trkpt lat="37.0177450" lon="-2.2671490">
        <ele>1018.5</ele>
        <time>2019-10-18T12:40:56Z</time>
      </trkpt>
      <trkpt lat="37.0177450" lon="-2.2671490">
        <ele>1018.5</ele>
        <time>2019-10-18T12:40:57Z</time>
      </trkpt>
      <trkpt lat="37.0177440" lon="-2.2671500">
        <ele>1018.5</ele>
        <time>2019-10-18T12:40:58Z</time>
      </trkpt>
      <trkpt lat="37.0177430" lon="-2.2671500">
        <ele>1018.5</ele>
        <time>2019-10-18T12:40:59Z</time>
      </trkpt>
      <trkpt lat="37.0177420" lon="-2.2671510">
        <ele>1018.5</ele>
        <time>2019-10-18T12:41:00Z</time>
      </trkpt>
      <trkpt lat="37.0177410" lon="-2.2671510">
        <ele>1018.5</ele>
        <time>2019-10-18T12:41:01Z</time>
      </trkpt>
      <trkpt lat="37.0177410" lon="-2.2671520">
        <ele>1018.5</ele>
        <time>2019-10-18T12:41:02Z</time>
      </trkpt>
      <trkpt lat="37.0177410" lon="-2.2671520">
        <ele>1018.5</ele>
        <time>2019-10-18T12:41:03Z</time>
      </trkpt>
      <trkpt lat="37.0177420" lon="-2.2671520">
        <ele>1018.5</ele>
        <time>2019-10-18T12:41:04Z</time>
      </trkpt>
      <trkpt lat="37.0177420" lon="-2.2671530">
        <ele>1018.5</ele>
        <time>2019-10-18T12:41:05Z</time>
      </trkpt>
      <trkpt lat="37.0177420" lon="-2.2671530">
        <ele>1018.5</ele>
        <time>2019-10-18T12:41:06Z</time>
      </trkpt>
      <trkpt lat="37.0177430" lon="-2.2671530">
        <ele>1018.5</ele>
        <time>2019-10-18T12:41:07Z</time>
      </trkpt>
      <trkpt lat="37.0177430" lon="-2.2671530">
        <ele>1018.5</ele>
        <time>2019-10-18T12:41:08Z</time>
      </trkpt>
      <trkpt lat="37.0177430" lon="-2.2671530">
        <ele>1018.5</ele>
        <time>2019-10-18T12:41:09Z</time>
      </trkpt>
      <trkpt lat="37.0177430" lon="-2.2671530">
        <ele>1018.5</ele>
        <time>2019-10-18T12:41:10Z</time>
      </trkpt>
      <trkpt lat="37.0177430" lon="-2.2671530">
        <ele>1018.5</ele>
        <time>2019-10-18T12:41:11Z</time>
      </trkpt>
      <trkpt lat="37.0177430" lon="-2.2671530">
        <ele>1018.5</ele>
        <time>2019-10-18T12:41:12Z</time>
      </trkpt>
      <trkpt lat="37.0177420" lon="-2.2671520">
        <ele>1018.5</ele>
        <time>2019-10-18T12:41:13Z</time>
      </trkpt>
      <trkpt lat="37.0177410" lon="-2.2671510">
        <ele>1018.5</ele>
        <time>2019-10-18T12:41:14Z</time>
      </trkpt>
      <trkpt lat="37.0177400" lon="-2.2671500">
        <ele>1018.5</ele>
        <time>2019-10-18T12:41:15Z</time>
      </trkpt>
      <trkpt lat="37.0177400" lon="-2.2671500">
        <ele>1018.5</ele>
        <time>2019-10-18T12:41:16Z</time>
      </trkpt>
      <trkpt lat="37.0177400" lon="-2.2671510">
        <ele>1018.5</ele>
        <time>2019-10-18T12:41:17Z</time>
      </trkpt>
      <trkpt lat="37.0177400" lon="-2.2671510">
        <ele>1018.5</ele>
        <time>2019-10-18T12:41:18Z</time>
      </trkpt>
      <trkpt lat="37.0177400" lon="-2.2671510">
        <ele>1018.5</ele>
        <time>2019-10-18T12:41:19Z</time>
      </trkpt>
      <trkpt lat="37.0177390" lon="-2.2671510">
        <ele>1018.5</ele>
        <time>2019-10-18T12:41:20Z</time>
      </trkpt>
      <trkpt lat="37.0177380" lon="-2.2671500">
        <ele>1018.5</ele>
        <time>2019-10-18T12:41:21Z</time>
      </trkpt>
      <trkpt lat="37.0177380" lon="-2.2671500">
        <ele>1018.5</ele>
        <time>2019-10-18T12:41:22Z</time>
      </trkpt>
      <trkpt lat="37.0177370" lon="-2.2671490">
        <ele>1018.5</ele>
        <time>2019-10-18T12:41:23Z</time>
      </trkpt>
      <trkpt lat="37.0177360" lon="-2.2671490">
        <ele>1018.5</ele>
        <time>2019-10-18T12:41:24Z</time>
      </trkpt>
      <trkpt lat="37.0177350" lon="-2.2671490">
        <ele>1018.5</ele>
        <time>2019-10-18T12:41:25Z</time>
      </trkpt>
      <trkpt lat="37.0177360" lon="-2.2671500">
        <ele>1018.5</ele>
        <time>2019-10-18T12:41:26Z</time>
      </trkpt>
      <trkpt lat="37.0177370" lon="-2.2671500">
        <ele>1018.5</ele>
        <time>2019-10-18T12:41:27Z</time>
      </trkpt>
      <trkpt lat="37.0177380" lon="-2.2671510">
        <ele>1018.5</ele>
        <time>2019-10-18T12:41:28Z</time>
      </trkpt>
      <trkpt lat="37.0177380" lon="-2.2671510">
        <ele>1018.5</ele>
        <time>2019-10-18T12:41:29Z</time>
      </trkpt>
      <trkpt lat="37.0177380" lon="-2.2671510">
        <ele>1018.5</ele>
        <time>2019-10-18T12:41:30Z</time>
      </trkpt>
      <trkpt lat="37.0177380" lon="-2.2671510">
        <ele>1018.5</ele>
        <time>2019-10-18T12:41:31Z</time>
      </trkpt>
      <trkpt lat="37.0177390" lon="-2.2671520">
        <ele>1018.5</ele>
        <time>2019-10-18T12:41:32Z</time>
      </trkpt>
      <trkpt lat="37.0177380" lon="-2.2671530">
        <ele>1018.5</ele>
        <time>2019-10-18T12:41:33Z</time>
      </trkpt>
      <trkpt lat="37.0177380" lon="-2.2671530">
        <ele>1018.5</ele>
        <time>2019-10-18T12:41:34Z</time>
      </trkpt>
      <trkpt lat="37.0177360" lon="-2.2671520">
        <ele>1018.5</ele>
        <time>2019-10-18T12:41:35Z</time>
      </trkpt>
      <trkpt lat="37.0177350" lon="-2.2671510">
        <ele>1018.5</ele>
        <time>2019-10-18T12:41:36Z</time>
      </trkpt>
      <trkpt lat="37.0177360" lon="-2.2671510">
        <ele>1018.5</ele>
        <time>2019-10-18T12:41:37Z</time>
      </trkpt>
      <trkpt lat="37.0177370" lon="-2.2671520">
        <ele>1018.5</ele>
        <time>2019-10-18T12:41:38Z</time>
      </trkpt>
      <trkpt lat="37.0177370" lon="-2.2671520">
        <ele>1018.5</ele>
        <time>2019-10-18T12:41:39Z</time>
      </trkpt>
      <trkpt lat="37.0177370" lon="-2.2671510">
        <ele>1018.5</ele>
        <time>2019-10-18T12:41:40Z</time>
      </trkpt>
      <trkpt lat="37.0177370" lon="-2.2671500">
        <ele>1018.5</ele>
        <time>2019-10-18T12:41:41Z</time>
      </trkpt>
      <trkpt lat="37.0177380" lon="-2.2671490">
        <ele>1018.5</ele>
        <time>2019-10-18T12:41:42Z</time>
      </trkpt>
      <trkpt lat="37.0177400" lon="-2.2671490">
        <ele>1018.5</ele>
        <time>2019-10-18T12:41:43Z</time>
      </trkpt>
      <trkpt lat="37.0177410" lon="-2.2671500">
        <ele>1018.5</ele>
        <time>2019-10-18T12:41:44Z</time>
      </trkpt>
      <trkpt lat="37.0177420" lon="-2.2671510">
        <ele>1018.5</ele>
        <time>2019-10-18T12:41:45Z</time>
      </trkpt>
      <trkpt lat="37.0177410" lon="-2.2671510">
        <ele>1018.5</ele>
        <time>2019-10-18T12:41:46Z</time>
      </trkpt>
      <trkpt lat="37.0177420" lon="-2.2671520">
        <ele>1018.5</ele>
        <time>2019-10-18T12:41:47Z</time>
      </trkpt>
      <trkpt lat="37.0177420" lon="-2.2671520">
        <ele>1018.5</ele>
        <time>2019-10-18T12:41:48Z</time>
      </trkpt>
      <trkpt lat="37.0177420" lon="-2.2671520">
        <ele>1018.5</ele>
        <time>2019-10-18T12:41:49Z</time>
      </trkpt>
      <trkpt lat="37.0177420" lon="-2.2671510">
        <ele>1018.5</ele>
        <time>2019-10-18T12:41:50Z</time>
      </trkpt>
      <trkpt lat="37.0177420" lon="-2.2671510">
        <ele>1018.5</ele>
        <time>2019-10-18T12:41:51Z</time>
      </trkpt>
      <trkpt lat="37.0177430" lon="-2.2671510">
        <ele>1018.5</ele>
        <time>2019-10-18T12:41:52Z</time>
      </trkpt>
      <trkpt lat="37.0177430" lon="-2.2671510">
        <ele>1018.5</ele>
        <time>2019-10-18T12:41:53Z</time>
      </trkpt>
      <trkpt lat="37.0177430" lon="-2.2671500">
        <ele>1018.5</ele>
        <time>2019-10-18T12:41:54Z</time>
      </trkpt>
      <trkpt lat="37.0177430" lon="-2.2671500">
        <ele>1018.5</ele>
        <time>2019-10-18T12:41:55Z</time>
      </trkpt>
      <trkpt lat="37.0177430" lon="-2.2671500">
        <ele>1018.5</ele>
        <time>2019-10-18T12:41:56Z</time>
      </trkpt>
      <trkpt lat="37.0177420" lon="-2.2671500">
        <ele>1018.5</ele>
        <time>2019-10-18T12:41:57Z</time>
      </trkpt>
      <trkpt lat="37.0177420" lon="-2.2671510">
        <ele>1018.5</ele>
        <time>2019-10-18T12:41:58Z</time>
      </trkpt>
      <trkpt lat="37.0177420" lon="-2.2671510">
        <ele>1018.5</ele>
        <time>2019-10-18T12:41:59Z</time>
      </trkpt>
      <trkpt lat="37.0177420" lon="-2.2671510">
        <ele>1018.5</ele>
        <time>2019-10-18T12:42:00Z</time>
      </trkpt>
      <trkpt lat="37.0177420" lon="-2.2671510">
        <ele>1018.5</ele>
        <time>2019-10-18T12:42:01Z</time>
      </trkpt>
      <trkpt lat="37.0177420" lon="-2.2671510">
        <ele>1018.5</ele>
        <time>2019-10-18T12:42:02Z</time>
      </trkpt>
      <trkpt lat="37.0177420" lon="-2.2671510">
        <ele>1018.5</ele>
        <time>2019-10-18T12:42:03Z</time>
      </trkpt>
      <trkpt lat="37.0177420" lon="-2.2671510">
        <ele>1018.5</ele>
        <time>2019-10-18T12:42:04Z</time>
      </trkpt>
      <trkpt lat="37.0177430" lon="-2.2671500">
        <ele>1018.5</ele>
        <time>2019-10-18T12:42:05Z</time>
      </trkpt>
      <trkpt lat="37.0177430" lon="-2.2671500">
        <ele>1018.5</ele>
        <time>2019-10-18T12:42:06Z</time>
      </trkpt>
      <trkpt lat="37.0177430" lon="-2.2671500">
        <ele>1018.5</ele>
        <time>2019-10-18T12:42:07Z</time>
      </trkpt>
      <trkpt lat="37.0177430" lon="-2.2671500">
        <ele>1018.5</ele>
        <time>2019-10-18T12:42:08Z</time>
      </trkpt>
      <trkpt lat="37.0177420" lon="-2.2671490">
        <ele>1018.5</ele>
        <time>2019-10-18T12:42:09Z</time>
      </trkpt>
      <trkpt lat="37.0177420" lon="-2.2671500">
        <ele>1018.5</ele>
        <time>2019-10-18T12:42:10Z</time>
      </trkpt>
      <trkpt lat="37.0177420" lon="-2.2671500">
        <ele>1018.5</ele>
        <time>2019-10-18T12:42:11Z</time>
      </trkpt>
      <trkpt lat="37.0177430" lon="-2.2671510">
        <ele>1018.5</ele>
        <time>2019-10-18T12:42:12Z</time>
      </trkpt>
      <trkpt lat="37.0177430" lon="-2.2671510">
        <ele>1018.5</ele>
        <time>2019-10-18T12:42:13Z</time>
      </trkpt>
      <trkpt lat="37.0177420" lon="-2.2671510">
        <ele>1018.5</ele>
        <time>2019-10-18T12:42:14Z</time>
      </trkpt>
      <trkpt lat="37.0177420" lon="-2.2671510">
        <ele>1018.5</ele>
        <time>2019-10-18T12:42:15Z</time>
      </trkpt>
      <trkpt lat="37.0177400" lon="-2.2671520">
        <ele>1018.5</ele>
        <time>2019-10-18T12:42:16Z</time>
      </trkpt>
      <trkpt lat="37.0177410" lon="-2.2671540">
        <ele>1018.5</ele>
        <time>2019-10-18T12:42:17Z</time>
      </trkpt>
      <trkpt lat="37.0177420" lon="-2.2671560">
        <ele>1018.5</ele>
        <time>2019-10-18T12:42:18Z</time>
      </trkpt>
      <trkpt lat="37.0177430" lon="-2.2671570">
        <ele>1018.5</ele>
        <time>2019-10-18T12:42:19Z</time>
      </trkpt>
      <trkpt lat="37.0177420" lon="-2.2671570">
        <ele>1018.5</ele>
        <time>2019-10-18T12:42:20Z</time>
      </trkpt>
      <trkpt lat="37.0177410" lon="-2.2671570">
        <ele>1018.5</ele>
        <time>2019-10-18T12:42:21Z</time>
      </trkpt>
      <trkpt lat="37.0177390" lon="-2.2671560">
        <ele>1018.5</ele>
        <time>2019-10-18T12:42:22Z</time>
      </trkpt>
      <trkpt lat="37.0177390" lon="-2.2671560">
        <ele>1018.5</ele>
        <time>2019-10-18T12:42:23Z</time>
      </trkpt>
      <trkpt lat="37.0177400" lon="-2.2671550">
        <ele>1018.5</ele>
        <time>2019-10-18T12:42:24Z</time>
      </trkpt>
      <trkpt lat="37.0177400" lon="-2.2671540">
        <ele>1018.5</ele>
        <time>2019-10-18T12:42:25Z</time>
      </trkpt>
      <trkpt lat="37.0177410" lon="-2.2671530">
        <ele>1018.5</ele>
        <time>2019-10-18T12:42:26Z</time>
      </trkpt>
      <trkpt lat="37.0177410" lon="-2.2671530">
        <ele>1018.5</ele>
        <time>2019-10-18T12:42:27Z</time>
      </trkpt>
      <trkpt lat="37.0177420" lon="-2.2671530">
        <ele>1018.5</ele>
        <time>2019-10-18T12:42:28Z</time>
      </trkpt>
      <trkpt lat="37.0177420" lon="-2.2671530">
        <ele>1018.5</ele>
        <time>2019-10-18T12:42:29Z</time>
      </trkpt>
      <trkpt lat="37.0177420" lon="-2.2671530">
        <ele>1018.5</ele>
        <time>2019-10-18T12:42:30Z</time>
      </trkpt>
      <trkpt lat="37.0177420" lon="-2.2671530">
        <ele>1018.5</ele>
        <time>2019-10-18T12:42:31Z</time>
      </trkpt>
      <trkpt lat="37.0177430" lon="-2.2671520">
        <ele>1018.5</ele>
        <time>2019-10-18T12:42:32Z</time>
      </trkpt>
      <trkpt lat="37.0177430" lon="-2.2671510">
        <ele>1018.5</ele>
        <time>2019-10-18T12:42:33Z</time>
      </trkpt>
      <trkpt lat="37.0177430" lon="-2.2671500">
        <ele>1018.5</ele>
        <time>2019-10-18T12:42:34Z</time>
      </trkpt>
      <trkpt lat="37.0177420" lon="-2.2671500">
        <ele>1018.5</ele>
        <time>2019-10-18T12:42:35Z</time>
      </trkpt>
      <trkpt lat="37.0177420" lon="-2.2671500">
        <ele>1018.5</ele>
        <time>2019-10-18T12:42:36Z</time>
      </trkpt>
      <trkpt lat="37.0177410" lon="-2.2671500">
        <ele>1018.5</ele>
        <time>2019-10-18T12:42:37Z</time>
      </trkpt>
      <trkpt lat="37.0177420" lon="-2.2671510">
        <ele>1018.5</ele>
        <time>2019-10-18T12:42:38Z</time>
      </trkpt>
      <trkpt lat="37.0177420" lon="-2.2671510">
        <ele>1018.5</ele>
        <time>2019-10-18T12:42:39Z</time>
      </trkpt>
      <trkpt lat="37.0177430" lon="-2.2671520">
        <ele>1018.5</ele>
        <time>2019-10-18T12:42:40Z</time>
      </trkpt>
      <trkpt lat="37.0177430" lon="-2.2671530">
        <ele>1018.5</ele>
        <time>2019-10-18T12:42:41Z</time>
      </trkpt>
      <trkpt lat="37.0177440" lon="-2.2671530">
        <ele>1018.5</ele>
        <time>2019-10-18T12:42:42Z</time>
      </trkpt>
      <trkpt lat="37.0177440" lon="-2.2671530">
        <ele>1018.5</ele>
        <time>2019-10-18T12:42:43Z</time>
      </trkpt>
      <trkpt lat="37.0177440" lon="-2.2671520">
        <ele>1018.5</ele>
        <time>2019-10-18T12:42:44Z</time>
      </trkpt>
      <trkpt lat="37.0177440" lon="-2.2671500">
        <ele>1018.5</ele>
        <time>2019-10-18T12:42:45Z</time>
      </trkpt>
      <trkpt lat="37.0177430" lon="-2.2671490">
        <ele>1018.5</ele>
        <time>2019-10-18T12:42:46Z</time>
      </trkpt>
      <trkpt lat="37.0177400" lon="-2.2671480">
        <ele>1018.5</ele>
        <time>2019-10-18T12:42:47Z</time>
      </trkpt>
      <trkpt lat="37.0177330" lon="-2.2671480">
        <ele>1018.5</ele>
        <time>2019-10-18T12:42:48Z</time>
      </trkpt>
      <trkpt lat="37.0177220" lon="-2.2671490">
        <ele>1018.5</ele>
        <time>2019-10-18T12:42:49Z</time>
      </trkpt>
      <trkpt lat="37.0177080" lon="-2.2671510">
        <ele>1018.4</ele>
        <time>2019-10-18T12:42:50Z</time>
      </trkpt>
      <trkpt lat="37.0176910" lon="-2.2671530">
        <ele>1018.4</ele>
        <time>2019-10-18T12:42:51Z</time>
      </trkpt>
      <trkpt lat="37.0176710" lon="-2.2671540">
        <ele>1018.4</ele>
        <time>2019-10-18T12:42:52Z</time>
      </trkpt>
      <trkpt lat="37.0176490" lon="-2.2671540">
        <ele>1018.4</ele>
        <time>2019-10-18T12:42:53Z</time>
      </trkpt>
      <trkpt lat="37.0176260" lon="-2.2671550">
        <ele>1018.4</ele>
        <time>2019-10-18T12:42:54Z</time>
      </trkpt>
      <trkpt lat="37.0176010" lon="-2.2671560">
        <ele>1018.4</ele>
        <time>2019-10-18T12:42:55Z</time>
      </trkpt>
      <trkpt lat="37.0175750" lon="-2.2671570">
        <ele>1018.4</ele>
        <time>2019-10-18T12:42:56Z</time>
      </trkpt>
      <trkpt lat="37.0175480" lon="-2.2671580">
        <ele>1018.4</ele>
        <time>2019-10-18T12:42:57Z</time>
      </trkpt>
      <trkpt lat="37.0175210" lon="-2.2671560">
        <ele>1018.4</ele>
        <time>2019-10-18T12:42:58Z</time>
      </trkpt>
      <trkpt lat="37.0174940" lon="-2.2671530">
        <ele>1018.4</ele>
        <time>2019-10-18T12:42:59Z</time>
      </trkpt>
      <trkpt lat="37.0174650" lon="-2.2671500">
        <ele>1018.4</ele>
        <time>2019-10-18T12:43:00Z</time>
      </trkpt>
      <trkpt lat="37.0174360" lon="-2.2671480">
        <ele>1018.4</ele>
        <time>2019-10-18T12:43:01Z</time>
      </trkpt>
      <trkpt lat="37.0174060" lon="-2.2671470">
        <ele>1018.5</ele>
        <time>2019-10-18T12:43:02Z</time>
      </trkpt>
      <trkpt lat="37.0173750" lon="-2.2671470">
        <ele>1018.5</ele>
        <time>2019-10-18T12:43:03Z</time>
      </trkpt>
      <trkpt lat="37.0173450" lon="-2.2671460">
        <ele>1018.5</ele>
        <time>2019-10-18T12:43:04Z</time>
      </trkpt>
      <trkpt lat="37.0173140" lon="-2.2671450">
        <ele>1018.5</ele>
        <time>2019-10-18T12:43:05Z</time>
      </trkpt>
      <trkpt lat="37.0172830" lon="-2.2671440">
        <ele>1018.6</ele>
        <time>2019-10-18T12:43:06Z</time>
      </trkpt>
      <trkpt lat="37.0172520" lon="-2.2671420">
        <ele>1018.7</ele>
        <time>2019-10-18T12:43:07Z</time>
      </trkpt>
      <trkpt lat="37.0172220" lon="-2.2671390">
        <ele>1018.8</ele>
        <time>2019-10-18T12:43:08Z</time>
      </trkpt>
      <trkpt lat="37.0171910" lon="-2.2671360">
        <ele>1018.9</ele>
        <time>2019-10-18T12:43:09Z</time>
      </trkpt>
      <trkpt lat="37.0171590" lon="-2.2671340">
        <ele>1019.0</ele>
        <time>2019-10-18T12:43:10Z</time>
      </trkpt>
      <trkpt lat="37.0171270" lon="-2.2671320">
        <ele>1019.2</ele>
        <time>2019-10-18T12:43:11Z</time>
      </trkpt>
      <trkpt lat="37.0170940" lon="-2.2671320">
        <ele>1019.3</ele>
        <time>2019-10-18T12:43:12Z</time>
      </trkpt>
      <trkpt lat="37.0170600" lon="-2.2671310">
        <ele>1019.4</ele>
        <time>2019-10-18T12:43:13Z</time>
      </trkpt>
      <trkpt lat="37.0170260" lon="-2.2671290">
        <ele>1019.6</ele>
        <time>2019-10-18T12:43:14Z</time>
      </trkpt>
      <trkpt lat="37.0169910" lon="-2.2671260">
        <ele>1019.7</ele>
        <time>2019-10-18T12:43:15Z</time>
      </trkpt>
      <trkpt lat="37.0169550" lon="-2.2671230">
        <ele>1019.9</ele>
        <time>2019-10-18T12:43:16Z</time>
      </trkpt>
      <trkpt lat="37.0169190" lon="-2.2671180">
        <ele>1020.0</ele>
        <time>2019-10-18T12:43:17Z</time>
      </trkpt>
      <trkpt lat="37.0168820" lon="-2.2671130">
        <ele>1020.1</ele>
        <time>2019-10-18T12:43:18Z</time>
      </trkpt>
      <trkpt lat="37.0168450" lon="-2.2671050">
        <ele>1020.3</ele>
        <time>2019-10-18T12:43:19Z</time>
      </trkpt>
      <trkpt lat="37.0168090" lon="-2.2670950">
        <ele>1020.4</ele>
        <time>2019-10-18T12:43:20Z</time>
      </trkpt>
      <trkpt lat="37.0167740" lon="-2.2670830">
        <ele>1020.6</ele>
        <time>2019-10-18T12:43:21Z</time>
      </trkpt>
      <trkpt lat="37.0167410" lon="-2.2670680">
        <ele>1020.7</ele>
        <time>2019-10-18T12:43:22Z</time>
      </trkpt>
      <trkpt lat="37.0167080" lon="-2.2670520">
        <ele>1020.9</ele>
        <time>2019-10-18T12:43:23Z</time>
      </trkpt>
      <trkpt lat="37.0166770" lon="-2.2670360">
        <ele>1021.1</ele>
        <time>2019-10-18T12:43:24Z</time>
      </trkpt>
      <trkpt lat="37.0166460" lon="-2.2670190">
        <ele>1021.3</ele>
        <time>2019-10-18T12:43:25Z</time>
      </trkpt>
      <trkpt lat="37.0166170" lon="-2.2670030">
        <ele>1021.5</ele>
        <time>2019-10-18T12:43:26Z</time>
      </trkpt>
      <trkpt lat="37.0165890" lon="-2.2669860">
        <ele>1021.7</ele>
        <time>2019-10-18T12:43:27Z</time>
      </trkpt>
      <trkpt lat="37.0165620" lon="-2.2669680">
        <ele>1021.9</ele>
        <time>2019-10-18T12:43:28Z</time>
      </trkpt>
      <trkpt lat="37.0165350" lon="-2.2669510">
        <ele>1022.1</ele>
        <time>2019-10-18T12:43:29Z</time>
      </trkpt>
      <trkpt lat="37.0165080" lon="-2.2669340">
        <ele>1022.3</ele>
        <time>2019-10-18T12:43:30Z</time>
      </trkpt>
      <trkpt lat="37.0164830" lon="-2.2669160">
        <ele>1022.5</ele>
        <time>2019-10-18T12:43:31Z</time>
      </trkpt>
      <trkpt lat="37.0164570" lon="-2.2668970">
        <ele>1022.7</ele>
        <time>2019-10-18T12:43:32Z</time>
      </trkpt>
      <trkpt lat="37.0164320" lon="-2.2668800">
        <ele>1022.9</ele>
        <time>2019-10-18T12:43:33Z</time>
      </trkpt>
      <trkpt lat="37.0164070" lon="-2.2668640">
        <ele>1023.0</ele>
        <time>2019-10-18T12:43:34Z</time>
      </trkpt>
      <trkpt lat="37.0163810" lon="-2.2668480">
        <ele>1023.2</ele>
        <time>2019-10-18T12:43:35Z</time>
      </trkpt>
      <trkpt lat="37.0163550" lon="-2.2668330">
        <ele>1023.3</ele>
        <time>2019-10-18T12:43:36Z</time>
      </trkpt>
      <trkpt lat="37.0163290" lon="-2.2668180">
        <ele>1023.5</ele>
        <time>2019-10-18T12:43:37Z</time>
      </trkpt>
      <trkpt lat="37.0163020" lon="-2.2668040">
        <ele>1023.7</ele>
        <time>2019-10-18T12:43:38Z</time>
      </trkpt>
      <trkpt lat="37.0162760" lon="-2.2667900">
        <ele>1023.8</ele>
        <time>2019-10-18T12:43:39Z</time>
      </trkpt>
      <trkpt lat="37.0162510" lon="-2.2667760">
        <ele>1024.0</ele>
        <time>2019-10-18T12:43:40Z</time>
      </trkpt>
      <trkpt lat="37.0162250" lon="-2.2667630">
        <ele>1024.1</ele>
        <time>2019-10-18T12:43:41Z</time>
      </trkpt>
      <trkpt lat="37.0162000" lon="-2.2667520">
        <ele>1024.3</ele>
        <time>2019-10-18T12:43:42Z</time>
      </trkpt>
      <trkpt lat="37.0161740" lon="-2.2667420">
        <ele>1024.4</ele>
        <time>2019-10-18T12:43:43Z</time>
      </trkpt>
      <trkpt lat="37.0161490" lon="-2.2667330">
        <ele>1024.6</ele>
        <time>2019-10-18T12:43:44Z</time>
      </trkpt>
      <trkpt lat="37.0161240" lon="-2.2667240">
        <ele>1024.7</ele>
        <time>2019-10-18T12:43:45Z</time>
      </trkpt>
      <trkpt lat="37.0161000" lon="-2.2667150">
        <ele>1024.9</ele>
        <time>2019-10-18T12:43:46Z</time>
      </trkpt>
      <trkpt lat="37.0160750" lon="-2.2667050">
        <ele>1025.0</ele>
        <time>2019-10-18T12:43:47Z</time>
      </trkpt>
      <trkpt lat="37.0160500" lon="-2.2666940">
        <ele>1025.2</ele>
        <time>2019-10-18T12:43:48Z</time>
      </trkpt>
      <trkpt lat="37.0160250" lon="-2.2666830">
        <ele>1025.3</ele>
        <time>2019-10-18T12:43:49Z</time>
      </trkpt>
      <trkpt lat="37.0160000" lon="-2.2666710">
        <ele>1025.5</ele>
        <time>2019-10-18T12:43:50Z</time>
      </trkpt>
      <trkpt lat="37.0159740" lon="-2.2666600">
        <ele>1025.7</ele>
        <time>2019-10-18T12:43:51Z</time>
      </trkpt>
      <trkpt lat="37.0159480" lon="-2.2666500">
        <ele>1025.9</ele>
        <time>2019-10-18T12:43:52Z</time>
      </trkpt>
      <trkpt lat="37.0159220" lon="-2.2666410">
        <ele>1026.1</ele>
        <time>2019-10-18T12:43:53Z</time>
      </trkpt>
      <trkpt lat="37.0158960" lon="-2.2666310">
        <ele>1026.2</ele>
        <time>2019-10-18T12:43:54Z</time>
      </trkpt>
      <trkpt lat="37.0158700" lon="-2.2666220">
        <ele>1026.4</ele>
        <time>2019-10-18T12:43:55Z</time>
      </trkpt>
      <trkpt lat="37.0158430" lon="-2.2666140">
        <ele>1026.6</ele>
        <time>2019-10-18T12:43:56Z</time>
      </trkpt>
      <trkpt lat="37.0158170" lon="-2.2666080">
        <ele>1026.9</ele>
        <time>2019-10-18T12:43:57Z</time>
      </trkpt>
      <trkpt lat="37.0157900" lon="-2.2666020">
        <ele>1027.1</ele>
        <time>2019-10-18T12:43:58Z</time>
      </trkpt>
      <trkpt lat="37.0157630" lon="-2.2665980">
        <ele>1027.3</ele>
        <time>2019-10-18T12:43:59Z</time>
      </trkpt>
      <trkpt lat="37.0157360" lon="-2.2665940">
        <ele>1027.6</ele>
        <time>2019-10-18T12:44:00Z</time>
      </trkpt>
      <trkpt lat="37.0157100" lon="-2.2665910">
        <ele>1027.8</ele>
        <time>2019-10-18T12:44:01Z</time>
      </trkpt>
      <trkpt lat="37.0156840" lon="-2.2665870">
        <ele>1028.0</ele>
        <time>2019-10-18T12:44:02Z</time>
      </trkpt>
      <trkpt lat="37.0156590" lon="-2.2665840">
        <ele>1028.2</ele>
        <time>2019-10-18T12:44:03Z</time>
      </trkpt>
      <trkpt lat="37.0156330" lon="-2.2665820">
        <ele>1028.4</ele>
        <time>2019-10-18T12:44:04Z</time>
      </trkpt>
      <trkpt lat="37.0156080" lon="-2.2665810">
        <ele>1028.6</ele>
        <time>2019-10-18T12:44:05Z</time>
      </trkpt>
      <trkpt lat="37.0155820" lon="-2.2665790">
        <ele>1028.8</ele>
        <time>2019-10-18T12:44:06Z</time>
      </trkpt>
      <trkpt lat="37.0155570" lon="-2.2665780">
        <ele>1029.1</ele>
        <time>2019-10-18T12:44:07Z</time>
      </trkpt>
      <trkpt lat="37.0155320" lon="-2.2665790">
        <ele>1029.3</ele>
        <time>2019-10-18T12:44:08Z</time>
      </trkpt>
      <trkpt lat="37.0155070" lon="-2.2665820">
        <ele>1029.5</ele>
        <time>2019-10-18T12:44:09Z</time>
      </trkpt>
      <trkpt lat="37.0154830" lon="-2.2665830">
        <ele>1029.7</ele>
        <time>2019-10-18T12:44:10Z</time>
      </trkpt>
      <trkpt lat="37.0154590" lon="-2.2665830">
        <ele>1030.0</ele>
        <time>2019-10-18T12:44:11Z</time>
      </trkpt>
      <trkpt lat="37.0154360" lon="-2.2665810">
        <ele>1030.1</ele>
        <time>2019-10-18T12:44:12Z</time>
      </trkpt>
      <trkpt lat="37.0154120" lon="-2.2665780">
        <ele>1030.3</ele>
        <time>2019-10-18T12:44:13Z</time>
      </trkpt>
      <trkpt lat="37.0153890" lon="-2.2665780">
        <ele>1030.5</ele>
        <time>2019-10-18T12:44:14Z</time>
      </trkpt>
      <trkpt lat="37.0153650" lon="-2.2665800">
        <ele>1030.7</ele>
        <time>2019-10-18T12:44:15Z</time>
      </trkpt>
      <trkpt lat="37.0153430" lon="-2.2665830">
        <ele>1030.8</ele>
        <time>2019-10-18T12:44:16Z</time>
      </trkpt>
      <trkpt lat="37.0153210" lon="-2.2665840">
        <ele>1031.0</ele>
        <time>2019-10-18T12:44:17Z</time>
      </trkpt>
      <trkpt lat="37.0152980" lon="-2.2665850">
        <ele>1031.2</ele>
        <time>2019-10-18T12:44:18Z</time>
      </trkpt>
      <trkpt lat="37.0152750" lon="-2.2665860">
        <ele>1031.3</ele>
        <time>2019-10-18T12:44:19Z</time>
      </trkpt>
      <trkpt lat="37.0152520" lon="-2.2665870">
        <ele>1031.5</ele>
        <time>2019-10-18T12:44:20Z</time>
      </trkpt>
      <trkpt lat="37.0152280" lon="-2.2665900">
        <ele>1031.7</ele>
        <time>2019-10-18T12:44:21Z</time>
      </trkpt>
      <trkpt lat="37.0152040" lon="-2.2665930">
        <ele>1031.9</ele>
        <time>2019-10-18T12:44:22Z</time>
      </trkpt>
      <trkpt lat="37.0151810" lon="-2.2665960">
        <ele>1032.0</ele>
        <time>2019-10-18T12:44:23Z</time>
      </trkpt>
      <trkpt lat="37.0151560" lon="-2.2665970">
        <ele>1032.2</ele>
        <time>2019-10-18T12:44:24Z</time>
      </trkpt>
      <trkpt lat="37.0151320" lon="-2.2665970">
        <ele>1032.4</ele>
        <time>2019-10-18T12:44:25Z</time>
      </trkpt>
      <trkpt lat="37.0151070" lon="-2.2665970">
        <ele>1032.6</ele>
        <time>2019-10-18T12:44:26Z</time>
      </trkpt>
      <trkpt lat="37.0150820" lon="-2.2665960">
        <ele>1032.8</ele>
        <time>2019-10-18T12:44:27Z</time>
      </trkpt>
      <trkpt lat="37.0150570" lon="-2.2665960">
        <ele>1033.0</ele>
        <time>2019-10-18T12:44:28Z</time>
      </trkpt>
      <trkpt lat="37.0150320" lon="-2.2665960">
        <ele>1033.1</ele>
        <time>2019-10-18T12:44:29Z</time>
      </trkpt>
      <trkpt lat="37.0150060" lon="-2.2665970">
        <ele>1033.3</ele>
        <time>2019-10-18T12:44:30Z</time>
      </trkpt>
      <trkpt lat="37.0149810" lon="-2.2665980">
        <ele>1033.5</ele>
        <time>2019-10-18T12:44:31Z</time>
      </trkpt>
      <trkpt lat="37.0149550" lon="-2.2666000">
        <ele>1033.7</ele>
        <time>2019-10-18T12:44:32Z</time>
      </trkpt>
      <trkpt lat="37.0149310" lon="-2.2666020">
        <ele>1033.8</ele>
        <time>2019-10-18T12:44:33Z</time>
      </trkpt>
      <trkpt lat="37.0149060" lon="-2.2666030">
        <ele>1034.0</ele>
        <time>2019-10-18T12:44:34Z</time>
      </trkpt>
      <trkpt lat="37.0148820" lon="-2.2666040">
        <ele>1034.2</ele>
        <time>2019-10-18T12:44:35Z</time>
      </trkpt>
      <trkpt lat="37.0148580" lon="-2.2666050">
        <ele>1034.3</ele>
        <time>2019-10-18T12:44:36Z</time>
      </trkpt>
      <trkpt lat="37.0148340" lon="-2.2666060">
        <ele>1034.5</ele>
        <time>2019-10-18T12:44:37Z</time>
      </trkpt>
      <trkpt lat="37.0148100" lon="-2.2666080">
        <ele>1034.6</ele>
        <time>2019-10-18T12:44:38Z</time>
      </trkpt>
      <trkpt lat="37.0147860" lon="-2.2666090">
        <ele>1034.8</ele>
        <time>2019-10-18T12:44:39Z</time>
      </trkpt>
      <trkpt lat="37.0147610" lon="-2.2666120">
        <ele>1035.1</ele>
        <time>2019-10-18T12:44:40Z</time>
      </trkpt>
      <trkpt lat="37.0147370" lon="-2.2666140">
        <ele>1035.4</ele>
        <time>2019-10-18T12:44:41Z</time>
      </trkpt>
      <trkpt lat="37.0147130" lon="-2.2666170">
        <ele>1035.5</ele>
        <time>2019-10-18T12:44:42Z</time>
      </trkpt>
      <trkpt lat="37.0146890" lon="-2.2666210">
        <ele>1035.7</ele>
        <time>2019-10-18T12:44:43Z</time>
      </trkpt>
      <trkpt lat="37.0146640" lon="-2.2666250">
        <ele>1035.8</ele>
        <time>2019-10-18T12:44:44Z</time>
      </trkpt>
      <trkpt lat="37.0146400" lon="-2.2666300">
        <ele>1036.0</ele>
        <time>2019-10-18T12:44:45Z</time>
      </trkpt>
      <trkpt lat="37.0146160" lon="-2.2666330">
        <ele>1036.1</ele>
        <time>2019-10-18T12:44:46Z</time>
      </trkpt>
      <trkpt lat="37.0145930" lon="-2.2666350">
        <ele>1036.3</ele>
        <time>2019-10-18T12:44:47Z</time>
      </trkpt>
      <trkpt lat="37.0145700" lon="-2.2666350">
        <ele>1036.4</ele>
        <time>2019-10-18T12:44:48Z</time>
      </trkpt>
      <trkpt lat="37.0145470" lon="-2.2666330">
        <ele>1036.6</ele>
        <time>2019-10-18T12:44:49Z</time>
      </trkpt>
      <trkpt lat="37.0145240" lon="-2.2666300">
        <ele>1036.9</ele>
        <time>2019-10-18T12:44:50Z</time>
      </trkpt>
      <trkpt lat="37.0145020" lon="-2.2666300">
        <ele>1037.1</ele>
        <time>2019-10-18T12:44:51Z</time>
      </trkpt>
      <trkpt lat="37.0144790" lon="-2.2666320">
        <ele>1037.4</ele>
        <time>2019-10-18T12:44:52Z</time>
      </trkpt>
      <trkpt lat="37.0144560" lon="-2.2666350">
        <ele>1037.6</ele>
        <time>2019-10-18T12:44:53Z</time>
      </trkpt>
      <trkpt lat="37.0144340" lon="-2.2666390">
        <ele>1037.8</ele>
        <time>2019-10-18T12:44:54Z</time>
      </trkpt>
      <trkpt lat="37.0144110" lon="-2.2666420">
        <ele>1038.0</ele>
        <time>2019-10-18T12:44:55Z</time>
      </trkpt>
      <trkpt lat="37.0143900" lon="-2.2666440">
        <ele>1038.2</ele>
        <time>2019-10-18T12:44:56Z</time>
      </trkpt>
      <trkpt lat="37.0143680" lon="-2.2666460">
        <ele>1038.4</ele>
        <time>2019-10-18T12:44:57Z</time>
      </trkpt>
      <trkpt lat="37.0143480" lon="-2.2666490">
        <ele>1038.5</ele>
        <time>2019-10-18T12:44:58Z</time>
      </trkpt>
      <trkpt lat="37.0143270" lon="-2.2666520">
        <ele>1038.7</ele>
        <time>2019-10-18T12:44:59Z</time>
      </trkpt>
      <trkpt lat="37.0143060" lon="-2.2666550">
        <ele>1038.9</ele>
        <time>2019-10-18T12:45:00Z</time>
      </trkpt>
      <trkpt lat="37.0142850" lon="-2.2666580">
        <ele>1039.2</ele>
        <time>2019-10-18T12:45:01Z</time>
      </trkpt>
      <trkpt lat="37.0142650" lon="-2.2666620">
        <ele>1039.5</ele>
        <time>2019-10-18T12:45:02Z</time>
      </trkpt>
      <trkpt lat="37.0142440" lon="-2.2666660">
        <ele>1039.8</ele>
        <time>2019-10-18T12:45:03Z</time>
      </trkpt>
      <trkpt lat="37.0142240" lon="-2.2666700">
        <ele>1040.1</ele>
        <time>2019-10-18T12:45:04Z</time>
      </trkpt>
      <trkpt lat="37.0142050" lon="-2.2666740">
        <ele>1040.3</ele>
        <time>2019-10-18T12:45:05Z</time>
      </trkpt>
      <trkpt lat="37.0141860" lon="-2.2666750">
        <ele>1040.5</ele>
        <time>2019-10-18T12:45:06Z</time>
      </trkpt>
      <trkpt lat="37.0141660" lon="-2.2666760">
        <ele>1040.8</ele>
        <time>2019-10-18T12:45:07Z</time>
      </trkpt>
      <trkpt lat="37.0141460" lon="-2.2666770">
        <ele>1041.0</ele>
        <time>2019-10-18T12:45:08Z</time>
      </trkpt>
      <trkpt lat="37.0141270" lon="-2.2666800">
        <ele>1041.2</ele>
        <time>2019-10-18T12:45:09Z</time>
      </trkpt>
      <trkpt lat="37.0141080" lon="-2.2666830">
        <ele>1041.4</ele>
        <time>2019-10-18T12:45:10Z</time>
      </trkpt>
      <trkpt lat="37.0140900" lon="-2.2666870">
        <ele>1041.6</ele>
        <time>2019-10-18T12:45:11Z</time>
      </trkpt>
      <trkpt lat="37.0140710" lon="-2.2666930">
        <ele>1041.9</ele>
        <time>2019-10-18T12:45:12Z</time>
      </trkpt>
      <trkpt lat="37.0140540" lon="-2.2666990">
        <ele>1042.1</ele>
        <time>2019-10-18T12:45:13Z</time>
      </trkpt>
      <trkpt lat="37.0140360" lon="-2.2667030">
        <ele>1042.3</ele>
        <time>2019-10-18T12:45:14Z</time>
      </trkpt>
      <trkpt lat="37.0140190" lon="-2.2667060">
        <ele>1042.5</ele>
        <time>2019-10-18T12:45:15Z</time>
      </trkpt>
      <trkpt lat="37.0140000" lon="-2.2667080">
        <ele>1042.7</ele>
        <time>2019-10-18T12:45:16Z</time>
      </trkpt>
      <trkpt lat="37.0139830" lon="-2.2667110">
        <ele>1042.9</ele>
        <time>2019-10-18T12:45:17Z</time>
      </trkpt>
      <trkpt lat="37.0139650" lon="-2.2667140">
        <ele>1043.1</ele>
        <time>2019-10-18T12:45:18Z</time>
      </trkpt>
      <trkpt lat="37.0139480" lon="-2.2667170">
        <ele>1043.3</ele>
        <time>2019-10-18T12:45:19Z</time>
      </trkpt>
      <trkpt lat="37.0139310" lon="-2.2667190">
        <ele>1043.6</ele>
        <time>2019-10-18T12:45:20Z</time>
      </trkpt>
      <trkpt lat="37.0139140" lon="-2.2667230">
        <ele>1043.9</ele>
        <time>2019-10-18T12:45:21Z</time>
      </trkpt>
      <trkpt lat="37.0138970" lon="-2.2667270">
        <ele>1044.2</ele>
        <time>2019-10-18T12:45:22Z</time>
      </trkpt>
      <trkpt lat="37.0138810" lon="-2.2667310">
        <ele>1044.4</ele>
        <time>2019-10-18T12:45:23Z</time>
      </trkpt>
      <trkpt lat="37.0138630" lon="-2.2667350">
        <ele>1044.7</ele>
        <time>2019-10-18T12:45:24Z</time>
      </trkpt>
      <trkpt lat="37.0138460" lon="-2.2667390">
        <ele>1045.0</ele>
        <time>2019-10-18T12:45:25Z</time>
      </trkpt>
      <trkpt lat="37.0138300" lon="-2.2667440">
        <ele>1045.2</ele>
        <time>2019-10-18T12:45:26Z</time>
      </trkpt>
      <trkpt lat="37.0138130" lon="-2.2667480">
        <ele>1045.5</ele>
        <time>2019-10-18T12:45:27Z</time>
      </trkpt>
      <trkpt lat="37.0137960" lon="-2.2667530">
        <ele>1045.8</ele>
        <time>2019-10-18T12:45:28Z</time>
      </trkpt>
      <trkpt lat="37.0137780" lon="-2.2667570">
        <ele>1046.1</ele>
        <time>2019-10-18T12:45:29Z</time>
      </trkpt>
      <trkpt lat="37.0137590" lon="-2.2667610">
        <ele>1046.4</ele>
        <time>2019-10-18T12:45:30Z</time>
      </trkpt>
      <trkpt lat="37.0137410" lon="-2.2667650">
        <ele>1046.7</ele>
        <time>2019-10-18T12:45:31Z</time>
      </trkpt>
      <trkpt lat="37.0137240" lon="-2.2667680">
        <ele>1047.0</ele>
        <time>2019-10-18T12:45:32Z</time>
      </trkpt>
      <trkpt lat="37.0137060" lon="-2.2667690">
        <ele>1047.4</ele>
        <time>2019-10-18T12:45:33Z</time>
      </trkpt>
      <trkpt lat="37.0136880" lon="-2.2667720">
        <ele>1047.7</ele>
        <time>2019-10-18T12:45:34Z</time>
      </trkpt>
      <trkpt lat="37.0136690" lon="-2.2667740">
        <ele>1047.9</ele>
        <time>2019-10-18T12:45:35Z</time>
      </trkpt>
      <trkpt lat="37.0136500" lon="-2.2667770">
        <ele>1048.2</ele>
        <time>2019-10-18T12:45:36Z</time>
      </trkpt>
      <trkpt lat="37.0136310" lon="-2.2667800">
        <ele>1048.4</ele>
        <time>2019-10-18T12:45:37Z</time>
      </trkpt>
      <trkpt lat="37.0136140" lon="-2.2667840">
        <ele>1048.7</ele>
        <time>2019-10-18T12:45:38Z</time>
      </trkpt>
      <trkpt lat="37.0135970" lon="-2.2667870">
        <ele>1048.9</ele>
        <time>2019-10-18T12:45:39Z</time>
      </trkpt>
      <trkpt lat="37.0135790" lon="-2.2667900">
        <ele>1049.2</ele>
        <time>2019-10-18T12:45:40Z</time>
      </trkpt>
      <trkpt lat="37.0135620" lon="-2.2667930">
        <ele>1049.5</ele>
        <time>2019-10-18T12:45:41Z</time>
      </trkpt>
      <trkpt lat="37.0135460" lon="-2.2667960">
        <ele>1049.7</ele>
        <time>2019-10-18T12:45:42Z</time>
      </trkpt>
      <trkpt lat="37.0135290" lon="-2.2667990">
        <ele>1050.0</ele>
        <time>2019-10-18T12:45:43Z</time>
      </trkpt>
      <trkpt lat="37.0135130" lon="-2.2668000">
        <ele>1050.2</ele>
        <time>2019-10-18T12:45:44Z</time>
      </trkpt>
      <trkpt lat="37.0134960" lon="-2.2668020">
        <ele>1050.4</ele>
        <time>2019-10-18T12:45:45Z</time>
      </trkpt>
      <trkpt lat="37.0134790" lon="-2.2668060">
        <ele>1050.7</ele>
        <time>2019-10-18T12:45:46Z</time>
      </trkpt>
      <trkpt lat="37.0134620" lon="-2.2668090">
        <ele>1050.9</ele>
        <time>2019-10-18T12:45:47Z</time>
      </trkpt>
      <trkpt lat="37.0134450" lon="-2.2668120">
        <ele>1051.1</ele>
        <time>2019-10-18T12:45:48Z</time>
      </trkpt>
      <trkpt lat="37.0134280" lon="-2.2668150">
        <ele>1051.3</ele>
        <time>2019-10-18T12:45:49Z</time>
      </trkpt>
      <trkpt lat="37.0134120" lon="-2.2668190">
        <ele>1051.5</ele>
        <time>2019-10-18T12:45:50Z</time>
      </trkpt>
      <trkpt lat="37.0133960" lon="-2.2668230">
        <ele>1051.7</ele>
        <time>2019-10-18T12:45:51Z</time>
      </trkpt>
      <trkpt lat="37.0133800" lon="-2.2668290">
        <ele>1051.9</ele>
        <time>2019-10-18T12:45:52Z</time>
      </trkpt>
      <trkpt lat="37.0133650" lon="-2.2668330">
        <ele>1052.2</ele>
        <time>2019-10-18T12:45:53Z</time>
      </trkpt>
      <trkpt lat="37.0133500" lon="-2.2668350">
        <ele>1052.4</ele>
        <time>2019-10-18T12:45:54Z</time>
      </trkpt>
      <trkpt lat="37.0133340" lon="-2.2668330">
        <ele>1052.6</ele>
        <time>2019-10-18T12:45:55Z</time>
      </trkpt>
      <trkpt lat="37.0133170" lon="-2.2668320">
        <ele>1052.8</ele>
        <time>2019-10-18T12:45:56Z</time>
      </trkpt>
      <trkpt lat="37.0133000" lon="-2.2668320">
        <ele>1053.1</ele>
        <time>2019-10-18T12:45:57Z</time>
      </trkpt>
      <trkpt lat="37.0132830" lon="-2.2668330">
        <ele>1053.4</ele>
        <time>2019-10-18T12:45:58Z</time>
      </trkpt>
      <trkpt lat="37.0132670" lon="-2.2668360">
        <ele>1053.7</ele>
        <time>2019-10-18T12:45:59Z</time>
      </trkpt>
      <trkpt lat="37.0132510" lon="-2.2668390">
        <ele>1054.0</ele>
        <time>2019-10-18T12:46:00Z</time>
      </trkpt>
      <trkpt lat="37.0132340" lon="-2.2668430">
        <ele>1054.3</ele>
        <time>2019-10-18T12:46:01Z</time>
      </trkpt>
      <trkpt lat="37.0132180" lon="-2.2668470">
        <ele>1054.6</ele>
        <time>2019-10-18T12:46:02Z</time>
      </trkpt>
      <trkpt lat="37.0132010" lon="-2.2668500">
        <ele>1054.8</ele>
        <time>2019-10-18T12:46:03Z</time>
      </trkpt>
      <trkpt lat="37.0131840" lon="-2.2668520">
        <ele>1055.1</ele>
        <time>2019-10-18T12:46:04Z</time>
      </trkpt>
      <trkpt lat="37.0131660" lon="-2.2668530">
        <ele>1055.4</ele>
        <time>2019-10-18T12:46:05Z</time>
      </trkpt>
      <trkpt lat="37.0131480" lon="-2.2668560">
        <ele>1055.7</ele>
        <time>2019-10-18T12:46:06Z</time>
      </trkpt>
      <trkpt lat="37.0131300" lon="-2.2668600">
        <ele>1056.0</ele>
        <time>2019-10-18T12:46:07Z</time>
      </trkpt>
      <trkpt lat="37.0131120" lon="-2.2668630">
        <ele>1056.3</ele>
        <time>2019-10-18T12:46:08Z</time>
      </trkpt>
      <trkpt lat="37.0130940" lon="-2.2668650">
        <ele>1056.5</ele>
        <time>2019-10-18T12:46:09Z</time>
      </trkpt>
      <trkpt lat="37.0130760" lon="-2.2668670">
        <ele>1056.7</ele>
        <time>2019-10-18T12:46:10Z</time>
      </trkpt>
      <trkpt lat="37.0130580" lon="-2.2668690">
        <ele>1056.9</ele>
        <time>2019-10-18T12:46:11Z</time>
      </trkpt>
      <trkpt lat="37.0130410" lon="-2.2668710">
        <ele>1057.2</ele>
        <time>2019-10-18T12:46:12Z</time>
      </trkpt>
      <trkpt lat="37.0130220" lon="-2.2668730">
        <ele>1057.4</ele>
        <time>2019-10-18T12:46:13Z</time>
      </trkpt>
      <trkpt lat="37.0130040" lon="-2.2668740">
        <ele>1057.6</ele>
        <time>2019-10-18T12:46:14Z</time>
      </trkpt>
      <trkpt lat="37.0129850" lon="-2.2668750">
        <ele>1057.8</ele>
        <time>2019-10-18T12:46:15Z</time>
      </trkpt>
      <trkpt lat="37.0129670" lon="-2.2668750">
        <ele>1058.1</ele>
        <time>2019-10-18T12:46:16Z</time>
      </trkpt>
      <trkpt lat="37.0129480" lon="-2.2668750">
        <ele>1058.4</ele>
        <time>2019-10-18T12:46:17Z</time>
      </trkpt>
      <trkpt lat="37.0129290" lon="-2.2668750">
        <ele>1058.7</ele>
        <time>2019-10-18T12:46:18Z</time>
      </trkpt>
      <trkpt lat="37.0129100" lon="-2.2668770">
        <ele>1059.0</ele>
        <time>2019-10-18T12:46:19Z</time>
      </trkpt>
      <trkpt lat="37.0128910" lon="-2.2668790">
        <ele>1059.3</ele>
        <time>2019-10-18T12:46:20Z</time>
      </trkpt>
      <trkpt lat="37.0128730" lon="-2.2668820">
        <ele>1059.5</ele>
        <time>2019-10-18T12:46:21Z</time>
      </trkpt>
      <trkpt lat="37.0128540" lon="-2.2668840">
        <ele>1060.3</ele>
        <time>2019-10-18T12:46:22Z</time>
      </trkpt>
      <trkpt lat="37.0128360" lon="-2.2668890">
        <ele>1060.6</ele>
        <time>2019-10-18T12:46:23Z</time>
      </trkpt>
      <trkpt lat="37.0128180" lon="-2.2668950">
        <ele>1061.0</ele>
        <time>2019-10-18T12:46:24Z</time>
      </trkpt>
      <trkpt lat="37.0128000" lon="-2.2669030">
        <ele>1061.3</ele>
        <time>2019-10-18T12:46:25Z</time>
      </trkpt>
      <trkpt lat="37.0127830" lon="-2.2669100">
        <ele>1061.5</ele>
        <time>2019-10-18T12:46:26Z</time>
      </trkpt>
      <trkpt lat="37.0127660" lon="-2.2669160">
        <ele>1061.7</ele>
        <time>2019-10-18T12:46:27Z</time>
      </trkpt>
      <trkpt lat="37.0127480" lon="-2.2669220">
        <ele>1062.0</ele>
        <time>2019-10-18T12:46:28Z</time>
      </trkpt>
      <trkpt lat="37.0127300" lon="-2.2669290">
        <ele>1062.2</ele>
        <time>2019-10-18T12:46:29Z</time>
      </trkpt>
      <trkpt lat="37.0127130" lon="-2.2669380">
        <ele>1062.4</ele>
        <time>2019-10-18T12:46:30Z</time>
      </trkpt>
      <trkpt lat="37.0126960" lon="-2.2669500">
        <ele>1062.6</ele>
        <time>2019-10-18T12:46:31Z</time>
      </trkpt>
      <trkpt lat="37.0126810" lon="-2.2669620">
        <ele>1062.8</ele>
        <time>2019-10-18T12:46:32Z</time>
      </trkpt>
      <trkpt lat="37.0126650" lon="-2.2669760">
        <ele>1063.0</ele>
        <time>2019-10-18T12:46:33Z</time>
      </trkpt>
      <trkpt lat="37.0126500" lon="-2.2669890">
        <ele>1063.3</ele>
        <time>2019-10-18T12:46:34Z</time>
      </trkpt>
      <trkpt lat="37.0126350" lon="-2.2670020">
        <ele>1063.6</ele>
        <time>2019-10-18T12:46:35Z</time>
      </trkpt>
      <trkpt lat="37.0126190" lon="-2.2670150">
        <ele>1063.8</ele>
        <time>2019-10-18T12:46:36Z</time>
      </trkpt>
      <trkpt lat="37.0126020" lon="-2.2670270">
        <ele>1064.1</ele>
        <time>2019-10-18T12:46:37Z</time>
      </trkpt>
      <trkpt lat="37.0125850" lon="-2.2670380">
        <ele>1064.3</ele>
        <time>2019-10-18T12:46:38Z</time>
      </trkpt>
      <trkpt lat="37.0125670" lon="-2.2670490">
        <ele>1064.6</ele>
        <time>2019-10-18T12:46:39Z</time>
      </trkpt>
      <trkpt lat="37.0125500" lon="-2.2670600">
        <ele>1064.8</ele>
        <time>2019-10-18T12:46:40Z</time>
      </trkpt>
      <trkpt lat="37.0125330" lon="-2.2670690">
        <ele>1065.0</ele>
        <time>2019-10-18T12:46:41Z</time>
      </trkpt>
      <trkpt lat="37.0125150" lon="-2.2670780">
        <ele>1065.2</ele>
        <time>2019-10-18T12:46:42Z</time>
      </trkpt>
      <trkpt lat="37.0124970" lon="-2.2670870">
        <ele>1065.4</ele>
        <time>2019-10-18T12:46:43Z</time>
      </trkpt>
      <trkpt lat="37.0124790" lon="-2.2670980">
        <ele>1065.6</ele>
        <time>2019-10-18T12:46:44Z</time>
      </trkpt>
      <trkpt lat="37.0124620" lon="-2.2671080">
        <ele>1065.8</ele>
        <time>2019-10-18T12:46:45Z</time>
      </trkpt>
      <trkpt lat="37.0124440" lon="-2.2671180">
        <ele>1066.0</ele>
        <time>2019-10-18T12:46:46Z</time>
      </trkpt>
      <trkpt lat="37.0124260" lon="-2.2671250">
        <ele>1066.2</ele>
        <time>2019-10-18T12:46:47Z</time>
      </trkpt>
      <trkpt lat="37.0124080" lon="-2.2671330">
        <ele>1066.4</ele>
        <time>2019-10-18T12:46:48Z</time>
      </trkpt>
      <trkpt lat="37.0123900" lon="-2.2671390">
        <ele>1066.5</ele>
        <time>2019-10-18T12:46:49Z</time>
      </trkpt>
      <trkpt lat="37.0123710" lon="-2.2671450">
        <ele>1066.7</ele>
        <time>2019-10-18T12:46:50Z</time>
      </trkpt>
      <trkpt lat="37.0123520" lon="-2.2671510">
        <ele>1066.9</ele>
        <time>2019-10-18T12:46:51Z</time>
      </trkpt>
      <trkpt lat="37.0123330" lon="-2.2671560">
        <ele>1067.0</ele>
        <time>2019-10-18T12:46:52Z</time>
      </trkpt>
      <trkpt lat="37.0123130" lon="-2.2671610">
        <ele>1067.1</ele>
        <time>2019-10-18T12:46:53Z</time>
      </trkpt>
      <trkpt lat="37.0122940" lon="-2.2671670">
        <ele>1067.1</ele>
        <time>2019-10-18T12:46:54Z</time>
      </trkpt>
      <trkpt lat="37.0122740" lon="-2.2671730">
        <ele>1067.2</ele>
        <time>2019-10-18T12:46:55Z</time>
      </trkpt>
      <trkpt lat="37.0122540" lon="-2.2671790">
        <ele>1067.3</ele>
        <time>2019-10-18T12:46:56Z</time>
      </trkpt>
      <trkpt lat="37.0122340" lon="-2.2671840">
        <ele>1067.4</ele>
        <time>2019-10-18T12:46:57Z</time>
      </trkpt>
      <trkpt lat="37.0122130" lon="-2.2671880">
        <ele>1067.5</ele>
        <time>2019-10-18T12:46:58Z</time>
      </trkpt>
      <trkpt lat="37.0121910" lon="-2.2671910">
        <ele>1067.6</ele>
        <time>2019-10-18T12:46:59Z</time>
      </trkpt>
      <trkpt lat="37.0121700" lon="-2.2671940">
        <ele>1067.7</ele>
        <time>2019-10-18T12:47:00Z</time>
      </trkpt>
      <trkpt lat="37.0121480" lon="-2.2671970">
        <ele>1067.8</ele>
        <time>2019-10-18T12:47:01Z</time>
      </trkpt>
      <trkpt lat="37.0121260" lon="-2.2672010">
        <ele>1067.9</ele>
        <time>2019-10-18T12:47:02Z</time>
      </trkpt>
      <trkpt lat="37.0121050" lon="-2.2672060">
        <ele>1068.0</ele>
        <time>2019-10-18T12:47:03Z</time>
      </trkpt>
      <trkpt lat="37.0120840" lon="-2.2672110">
        <ele>1068.1</ele>
        <time>2019-10-18T12:47:04Z</time>
      </trkpt>
      <trkpt lat="37.0120630" lon="-2.2672170">
        <ele>1068.2</ele>
        <time>2019-10-18T12:47:05Z</time>
      </trkpt>
      <trkpt lat="37.0120410" lon="-2.2672230">
        <ele>1068.3</ele>
        <time>2019-10-18T12:47:06Z</time>
      </trkpt>
      <trkpt lat="37.0120200" lon="-2.2672280">
        <ele>1068.4</ele>
        <time>2019-10-18T12:47:07Z</time>
      </trkpt>
      <trkpt lat="37.0119980" lon="-2.2672330">
        <ele>1068.5</ele>
        <time>2019-10-18T12:47:08Z</time>
      </trkpt>
      <trkpt lat="37.0119770" lon="-2.2672380">
        <ele>1068.6</ele>
        <time>2019-10-18T12:47:09Z</time>
      </trkpt>
      <trkpt lat="37.0119560" lon="-2.2672430">
        <ele>1068.7</ele>
        <time>2019-10-18T12:47:10Z</time>
      </trkpt>
      <trkpt lat="37.0119350" lon="-2.2672480">
        <ele>1068.8</ele>
        <time>2019-10-18T12:47:11Z</time>
      </trkpt>
      <trkpt lat="37.0119150" lon="-2.2672540">
        <ele>1068.9</ele>
        <time>2019-10-18T12:47:12Z</time>
      </trkpt>
      <trkpt lat="37.0118940" lon="-2.2672570">
        <ele>1069.0</ele>
        <time>2019-10-18T12:47:13Z</time>
      </trkpt>
      <trkpt lat="37.0118740" lon="-2.2672610">
        <ele>1069.2</ele>
        <time>2019-10-18T12:47:14Z</time>
      </trkpt>
      <trkpt lat="37.0118550" lon="-2.2672670">
        <ele>1069.4</ele>
        <time>2019-10-18T12:47:15Z</time>
      </trkpt>
      <trkpt lat="37.0118370" lon="-2.2672730">
        <ele>1069.6</ele>
        <time>2019-10-18T12:47:16Z</time>
      </trkpt>
      <trkpt lat="37.0118190" lon="-2.2672790">
        <ele>1069.7</ele>
        <time>2019-10-18T12:47:17Z</time>
      </trkpt>
      <trkpt lat="37.0118020" lon="-2.2672850">
        <ele>1069.9</ele>
        <time>2019-10-18T12:47:18Z</time>
      </trkpt>
      <trkpt lat="37.0117850" lon="-2.2672940">
        <ele>1070.2</ele>
        <time>2019-10-18T12:47:19Z</time>
      </trkpt>
      <trkpt lat="37.0117690" lon="-2.2673040">
        <ele>1070.4</ele>
        <time>2019-10-18T12:47:20Z</time>
      </trkpt>
      <trkpt lat="37.0117530" lon="-2.2673140">
        <ele>1070.6</ele>
        <time>2019-10-18T12:47:21Z</time>
      </trkpt>
      <trkpt lat="37.0117360" lon="-2.2673250">
        <ele>1070.8</ele>
        <time>2019-10-18T12:47:22Z</time>
      </trkpt>
      <trkpt lat="37.0117200" lon="-2.2673360">
        <ele>1071.1</ele>
        <time>2019-10-18T12:47:23Z</time>
      </trkpt>
      <trkpt lat="37.0117030" lon="-2.2673440">
        <ele>1071.3</ele>
        <time>2019-10-18T12:47:24Z</time>
      </trkpt>
      <trkpt lat="37.0116850" lon="-2.2673510">
        <ele>1071.5</ele>
        <time>2019-10-18T12:47:25Z</time>
      </trkpt>
      <trkpt lat="37.0116670" lon="-2.2673580">
        <ele>1071.8</ele>
        <time>2019-10-18T12:47:26Z</time>
      </trkpt>
      <trkpt lat="37.0116500" lon="-2.2673670">
        <ele>1072.0</ele>
        <time>2019-10-18T12:47:27Z</time>
      </trkpt>
      <trkpt lat="37.0116330" lon="-2.2673790">
        <ele>1072.3</ele>
        <time>2019-10-18T12:47:28Z</time>
      </trkpt>
      <trkpt lat="37.0116170" lon="-2.2673910">
        <ele>1072.6</ele>
        <time>2019-10-18T12:47:29Z</time>
      </trkpt>
      <trkpt lat="37.0116020" lon="-2.2674050">
        <ele>1072.8</ele>
        <time>2019-10-18T12:47:30Z</time>
      </trkpt>
      <trkpt lat="37.0115870" lon="-2.2674180">
        <ele>1073.1</ele>
        <time>2019-10-18T12:47:31Z</time>
      </trkpt>
      <trkpt lat="37.0115720" lon="-2.2674320">
        <ele>1073.4</ele>
        <time>2019-10-18T12:47:32Z</time>
      </trkpt>
      <trkpt lat="37.0115580" lon="-2.2674470">
        <ele>1073.6</ele>
        <time>2019-10-18T12:47:33Z</time>
      </trkpt>
      <trkpt lat="37.0115440" lon="-2.2674640">
        <ele>1073.9</ele>
        <time>2019-10-18T12:47:34Z</time>
      </trkpt>
      <trkpt lat="37.0115320" lon="-2.2674820">
        <ele>1074.2</ele>
        <time>2019-10-18T12:47:35Z</time>
      </trkpt>
      <trkpt lat="37.0115190" lon="-2.2675000">
        <ele>1074.4</ele>
        <time>2019-10-18T12:47:36Z</time>
      </trkpt>
      <trkpt lat="37.0115070" lon="-2.2675170">
        <ele>1074.7</ele>
        <time>2019-10-18T12:47:37Z</time>
      </trkpt>
      <trkpt lat="37.0114940" lon="-2.2675350">
        <ele>1075.0</ele>
        <time>2019-10-18T12:47:38Z</time>
      </trkpt>
      <trkpt lat="37.0114800" lon="-2.2675530">
        <ele>1075.2</ele>
        <time>2019-10-18T12:47:39Z</time>
      </trkpt>
      <trkpt lat="37.0114670" lon="-2.2675710">
        <ele>1075.5</ele>
        <time>2019-10-18T12:47:40Z</time>
      </trkpt>
      <trkpt lat="37.0114550" lon="-2.2675900">
        <ele>1075.8</ele>
        <time>2019-10-18T12:47:41Z</time>
      </trkpt>
      <trkpt lat="37.0114430" lon="-2.2676100">
        <ele>1076.0</ele>
        <time>2019-10-18T12:47:42Z</time>
      </trkpt>
      <trkpt lat="37.0114310" lon="-2.2676300">
        <ele>1076.3</ele>
        <time>2019-10-18T12:47:43Z</time>
      </trkpt>
      <trkpt lat="37.0114190" lon="-2.2676510">
        <ele>1076.5</ele>
        <time>2019-10-18T12:47:44Z</time>
      </trkpt>
      <trkpt lat="37.0114060" lon="-2.2676720">
        <ele>1076.8</ele>
        <time>2019-10-18T12:47:45Z</time>
      </trkpt>
      <trkpt lat="37.0113940" lon="-2.2676930">
        <ele>1077.0</ele>
        <time>2019-10-18T12:47:46Z</time>
      </trkpt>
      <trkpt lat="37.0113810" lon="-2.2677140">
        <ele>1077.2</ele>
        <time>2019-10-18T12:47:47Z</time>
      </trkpt>
      <trkpt lat="37.0113700" lon="-2.2677360">
        <ele>1077.3</ele>
        <time>2019-10-18T12:47:48Z</time>
      </trkpt>
      <trkpt lat="37.0113580" lon="-2.2677580">
        <ele>1077.5</ele>
        <time>2019-10-18T12:47:49Z</time>
      </trkpt>
      <trkpt lat="37.0113460" lon="-2.2677810">
        <ele>1077.7</ele>
        <time>2019-10-18T12:47:50Z</time>
      </trkpt>
      <trkpt lat="37.0113330" lon="-2.2678040">
        <ele>1077.9</ele>
        <time>2019-10-18T12:47:51Z</time>
      </trkpt>
      <trkpt lat="37.0113190" lon="-2.2678260">
        <ele>1078.1</ele>
        <time>2019-10-18T12:47:52Z</time>
      </trkpt>
      <trkpt lat="37.0113050" lon="-2.2678490">
        <ele>1078.3</ele>
        <time>2019-10-18T12:47:53Z</time>
      </trkpt>
      <trkpt lat="37.0112900" lon="-2.2678710">
        <ele>1078.5</ele>
        <time>2019-10-18T12:47:54Z</time>
      </trkpt>
      <trkpt lat="37.0112750" lon="-2.2678930">
        <ele>1078.7</ele>
        <time>2019-10-18T12:47:55Z</time>
      </trkpt>
      <trkpt lat="37.0112600" lon="-2.2679140">
        <ele>1078.9</ele>
        <time>2019-10-18T12:47:56Z</time>
      </trkpt>
      <trkpt lat="37.0112440" lon="-2.2679330">
        <ele>1079.1</ele>
        <time>2019-10-18T12:47:57Z</time>
      </trkpt>
      <trkpt lat="37.0112270" lon="-2.2679490">
        <ele>1079.3</ele>
        <time>2019-10-18T12:47:58Z</time>
      </trkpt>
      <trkpt lat="37.0112100" lon="-2.2679630">
        <ele>1079.4</ele>
        <time>2019-10-18T12:47:59Z</time>
      </trkpt>
      <trkpt lat="37.0111930" lon="-2.2679780">
        <ele>1079.6</ele>
        <time>2019-10-18T12:48:00Z</time>
      </trkpt>
      <trkpt lat="37.0111780" lon="-2.2679940">
        <ele>1079.8</ele>
        <time>2019-10-18T12:48:01Z</time>
      </trkpt>
      <trkpt lat="37.0111630" lon="-2.2680080">
        <ele>1079.9</ele>
        <time>2019-10-18T12:48:02Z</time>
      </trkpt>
      <trkpt lat="37.0111460" lon="-2.2680210">
        <ele>1080.1</ele>
        <time>2019-10-18T12:48:03Z</time>
      </trkpt>
      <trkpt lat="37.0111290" lon="-2.2680340">
        <ele>1080.3</ele>
        <time>2019-10-18T12:48:04Z</time>
      </trkpt>
      <trkpt lat="37.0111110" lon="-2.2680450">
        <ele>1080.5</ele>
        <time>2019-10-18T12:48:05Z</time>
      </trkpt>
      <trkpt lat="37.0110930" lon="-2.2680570">
        <ele>1080.7</ele>
        <time>2019-10-18T12:48:06Z</time>
      </trkpt>
      <trkpt lat="37.0110740" lon="-2.2680680">
        <ele>1080.9</ele>
        <time>2019-10-18T12:48:07Z</time>
      </trkpt>
      <trkpt lat="37.0110550" lon="-2.2680790">
        <ele>1081.1</ele>
        <time>2019-10-18T12:48:08Z</time>
      </trkpt>
      <trkpt lat="37.0110360" lon="-2.2680910">
        <ele>1081.4</ele>
        <time>2019-10-18T12:48:09Z</time>
      </trkpt>
      <trkpt lat="37.0110170" lon="-2.2681030">
        <ele>1081.6</ele>
        <time>2019-10-18T12:48:10Z</time>
      </trkpt>
      <trkpt lat="37.0109980" lon="-2.2681160">
        <ele>1081.9</ele>
        <time>2019-10-18T12:48:11Z</time>
      </trkpt>
      <trkpt lat="37.0109790" lon="-2.2681280">
        <ele>1082.1</ele>
        <time>2019-10-18T12:48:12Z</time>
      </trkpt>
      <trkpt lat="37.0109590" lon="-2.2681410">
        <ele>1082.4</ele>
        <time>2019-10-18T12:48:13Z</time>
      </trkpt>
      <trkpt lat="37.0109400" lon="-2.2681530">
        <ele>1082.6</ele>
        <time>2019-10-18T12:48:14Z</time>
      </trkpt>
      <trkpt lat="37.0109190" lon="-2.2681650">
        <ele>1083.0</ele>
        <time>2019-10-18T12:48:15Z</time>
      </trkpt>
      <trkpt lat="37.0108980" lon="-2.2681760">
        <ele>1083.3</ele>
        <time>2019-10-18T12:48:16Z</time>
      </trkpt>
      <trkpt lat="37.0108780" lon="-2.2681870">
        <ele>1083.5</ele>
        <time>2019-10-18T12:48:17Z</time>
      </trkpt>
      <trkpt lat="37.0108580" lon="-2.2681990">
        <ele>1083.8</ele>
        <time>2019-10-18T12:48:18Z</time>
      </trkpt>
      <trkpt lat="37.0108380" lon="-2.2682120">
        <ele>1084.1</ele>
        <time>2019-10-18T12:48:19Z</time>
      </trkpt>
      <trkpt lat="37.0108180" lon="-2.2682250">
        <ele>1084.4</ele>
        <time>2019-10-18T12:48:20Z</time>
      </trkpt>
      <trkpt lat="37.0107990" lon="-2.2682400">
        <ele>1084.7</ele>
        <time>2019-10-18T12:48:21Z</time>
      </trkpt>
      <trkpt lat="37.0107800" lon="-2.2682560">
        <ele>1084.9</ele>
        <time>2019-10-18T12:48:22Z</time>
      </trkpt>
      <trkpt lat="37.0107620" lon="-2.2682720">
        <ele>1085.1</ele>
        <time>2019-10-18T12:48:23Z</time>
      </trkpt>
      <trkpt lat="37.0107450" lon="-2.2682890">
        <ele>1085.4</ele>
        <time>2019-10-18T12:48:24Z</time>
      </trkpt>
      <trkpt lat="37.0107270" lon="-2.2683060">
        <ele>1085.6</ele>
        <time>2019-10-18T12:48:25Z</time>
      </trkpt>
      <trkpt lat="37.0107110" lon="-2.2683250">
        <ele>1085.8</ele>
        <time>2019-10-18T12:48:26Z</time>
      </trkpt>
      <trkpt lat="37.0106950" lon="-2.2683450">
        <ele>1086.1</ele>
        <time>2019-10-18T12:48:27Z</time>
      </trkpt>
      <trkpt lat="37.0106790" lon="-2.2683660">
        <ele>1086.3</ele>
        <time>2019-10-18T12:48:28Z</time>
      </trkpt>
      <trkpt lat="37.0106630" lon="-2.2683900">
        <ele>1086.6</ele>
        <time>2019-10-18T12:48:29Z</time>
      </trkpt>
      <trkpt lat="37.0106500" lon="-2.2684170">
        <ele>1086.8</ele>
        <time>2019-10-18T12:48:30Z</time>
      </trkpt>
      <trkpt lat="37.0106380" lon="-2.2684450">
        <ele>1087.0</ele>
        <time>2019-10-18T12:48:31Z</time>
      </trkpt>
      <trkpt lat="37.0106270" lon="-2.2684760">
        <ele>1087.2</ele>
        <time>2019-10-18T12:48:32Z</time>
      </trkpt>
      <trkpt lat="37.0106180" lon="-2.2685070">
        <ele>1087.4</ele>
        <time>2019-10-18T12:48:33Z</time>
      </trkpt>
      <trkpt lat="37.0106120" lon="-2.2685400">
        <ele>1087.5</ele>
        <time>2019-10-18T12:48:34Z</time>
      </trkpt>
      <trkpt lat="37.0106070" lon="-2.2685720">
        <ele>1087.7</ele>
        <time>2019-10-18T12:48:35Z</time>
      </trkpt>
      <trkpt lat="37.0106040" lon="-2.2686050">
        <ele>1087.9</ele>
        <time>2019-10-18T12:48:36Z</time>
      </trkpt>
      <trkpt lat="37.0106020" lon="-2.2686390">
        <ele>1088.0</ele>
        <time>2019-10-18T12:48:37Z</time>
      </trkpt>
      <trkpt lat="37.0106010" lon="-2.2686740">
        <ele>1088.0</ele>
        <time>2019-10-18T12:48:38Z</time>
      </trkpt>
      <trkpt lat="37.0106010" lon="-2.2687090">
        <ele>1087.9</ele>
        <time>2019-10-18T12:48:39Z</time>
      </trkpt>
      <trkpt lat="37.0106010" lon="-2.2687450">
        <ele>1087.7</ele>
        <time>2019-10-18T12:48:40Z</time>
      </trkpt>
      <trkpt lat="37.0106010" lon="-2.2687810">
        <ele>1087.5</ele>
        <time>2019-10-18T12:48:41Z</time>
      </trkpt>
      <trkpt lat="37.0106000" lon="-2.2688190">
        <ele>1087.3</ele>
        <time>2019-10-18T12:48:42Z</time>
      </trkpt>
      <trkpt lat="37.0106000" lon="-2.2688580">
        <ele>1087.1</ele>
        <time>2019-10-18T12:48:43Z</time>
      </trkpt>
      <trkpt lat="37.0106000" lon="-2.2688970">
        <ele>1086.9</ele>
        <time>2019-10-18T12:48:44Z</time>
      </trkpt>
      <trkpt lat="37.0105990" lon="-2.2689380">
        <ele>1086.8</ele>
        <time>2019-10-18T12:48:45Z</time>
      </trkpt>
      <trkpt lat="37.0105990" lon="-2.2689790">
        <ele>1086.7</ele>
        <time>2019-10-18T12:48:46Z</time>
      </trkpt>
      <trkpt lat="37.0106010" lon="-2.2690220">
        <ele>1086.6</ele>
        <time>2019-10-18T12:48:47Z</time>
      </trkpt>
      <trkpt lat="37.0106030" lon="-2.2690660">
        <ele>1086.5</ele>
        <time>2019-10-18T12:48:48Z</time>
      </trkpt>
      <trkpt lat="37.0106050" lon="-2.2691130">
        <ele>1086.4</ele>
        <time>2019-10-18T12:48:49Z</time>
      </trkpt>
      <trkpt lat="37.0106050" lon="-2.2691610">
        <ele>1086.3</ele>
        <time>2019-10-18T12:48:50Z</time>
      </trkpt>
      <trkpt lat="37.0106040" lon="-2.2692120">
        <ele>1086.2</ele>
        <time>2019-10-18T12:48:51Z</time>
      </trkpt>
      <trkpt lat="37.0106040" lon="-2.2692630">
        <ele>1086.1</ele>
        <time>2019-10-18T12:48:52Z</time>
      </trkpt>
      <trkpt lat="37.0106050" lon="-2.2693140">
        <ele>1086.0</ele>
        <time>2019-10-18T12:48:53Z</time>
      </trkpt>
      <trkpt lat="37.0106060" lon="-2.2693640">
        <ele>1085.8</ele>
        <time>2019-10-18T12:48:54Z</time>
      </trkpt>
      <trkpt lat="37.0106060" lon="-2.2694130">
        <ele>1085.5</ele>
        <time>2019-10-18T12:48:55Z</time>
      </trkpt>
      <trkpt lat="37.0106030" lon="-2.2694580">
        <ele>1085.3</ele>
        <time>2019-10-18T12:48:56Z</time>
      </trkpt>
      <trkpt lat="37.0105960" lon="-2.2695000">
        <ele>1085.1</ele>
        <time>2019-10-18T12:48:57Z</time>
      </trkpt>
      <trkpt lat="37.0105880" lon="-2.2695400">
        <ele>1085.0</ele>
        <time>2019-10-18T12:48:58Z</time>
      </trkpt>
      <trkpt lat="37.0105780" lon="-2.2695790">
        <ele>1084.8</ele>
        <time>2019-10-18T12:48:59Z</time>
      </trkpt>
      <trkpt lat="37.0105670" lon="-2.2696170">
        <ele>1084.6</ele>
        <time>2019-10-18T12:49:00Z</time>
      </trkpt>
      <trkpt lat="37.0105540" lon="-2.2696530">
        <ele>1084.3</ele>
        <time>2019-10-18T12:49:01Z</time>
      </trkpt>
      <trkpt lat="37.0105370" lon="-2.2696860">
        <ele>1084.2</ele>
        <time>2019-10-18T12:49:02Z</time>
      </trkpt>
      <trkpt lat="37.0105170" lon="-2.2697150">
        <ele>1084.1</ele>
        <time>2019-10-18T12:49:03Z</time>
      </trkpt>
      <trkpt lat="37.0104940" lon="-2.2697400">
        <ele>1084.0</ele>
        <time>2019-10-18T12:49:04Z</time>
      </trkpt>
      <trkpt lat="37.0104690" lon="-2.2697600">
        <ele>1084.2</ele>
        <time>2019-10-18T12:49:05Z</time>
      </trkpt>
      <trkpt lat="37.0104430" lon="-2.2697760">
        <ele>1084.4</ele>
        <time>2019-10-18T12:49:06Z</time>
      </trkpt>
      <trkpt lat="37.0104170" lon="-2.2697860">
        <ele>1084.5</ele>
        <time>2019-10-18T12:49:07Z</time>
      </trkpt>
      <trkpt lat="37.0103900" lon="-2.2697910">
        <ele>1084.5</ele>
        <time>2019-10-18T12:49:08Z</time>
      </trkpt>
      <trkpt lat="37.0103630" lon="-2.2697920">
        <ele>1084.6</ele>
        <time>2019-10-18T12:49:09Z</time>
      </trkpt>
      <trkpt lat="37.0103360" lon="-2.2697920">
        <ele>1084.6</ele>
        <time>2019-10-18T12:49:10Z</time>
      </trkpt>
      <trkpt lat="37.0103100" lon="-2.2697910">
        <ele>1084.7</ele>
        <time>2019-10-18T12:49:11Z</time>
      </trkpt>
      <trkpt lat="37.0102840" lon="-2.2697900">
        <ele>1084.7</ele>
        <time>2019-10-18T12:49:12Z</time>
      </trkpt>
      <trkpt lat="37.0102590" lon="-2.2697890">
        <ele>1084.7</ele>
        <time>2019-10-18T12:49:13Z</time>
      </trkpt>
      <trkpt lat="37.0102350" lon="-2.2697860">
        <ele>1084.7</ele>
        <time>2019-10-18T12:49:14Z</time>
      </trkpt>
      <trkpt lat="37.0102110" lon="-2.2697810">
        <ele>1084.6</ele>
        <time>2019-10-18T12:49:15Z</time>
      </trkpt>
      <trkpt lat="37.0101870" lon="-2.2697760">
        <ele>1084.6</ele>
        <time>2019-10-18T12:49:16Z</time>
      </trkpt>
      <trkpt lat="37.0101630" lon="-2.2697710">
        <ele>1084.6</ele>
        <time>2019-10-18T12:49:17Z</time>
      </trkpt>
      <trkpt lat="37.0101400" lon="-2.2697660">
        <ele>1084.5</ele>
        <time>2019-10-18T12:49:18Z</time>
      </trkpt>
      <trkpt lat="37.0101170" lon="-2.2697610">
        <ele>1084.5</ele>
        <time>2019-10-18T12:49:19Z</time>
      </trkpt>
      <trkpt lat="37.0100950" lon="-2.2697560">
        <ele>1084.4</ele>
        <time>2019-10-18T12:49:20Z</time>
      </trkpt>
      <trkpt lat="37.0100730" lon="-2.2697530">
        <ele>1084.3</ele>
        <time>2019-10-18T12:49:21Z</time>
      </trkpt>
      <trkpt lat="37.0100510" lon="-2.2697500">
        <ele>1084.2</ele>
        <time>2019-10-18T12:49:22Z</time>
      </trkpt>
      <trkpt lat="37.0100300" lon="-2.2697470">
        <ele>1084.0</ele>
        <time>2019-10-18T12:49:23Z</time>
      </trkpt>
      <trkpt lat="37.0100080" lon="-2.2697430">
        <ele>1083.9</ele>
        <time>2019-10-18T12:49:24Z</time>
      </trkpt>
      <trkpt lat="37.0099870" lon="-2.2697380">
        <ele>1083.7</ele>
        <time>2019-10-18T12:49:25Z</time>
      </trkpt>
      <trkpt lat="37.0099660" lon="-2.2697310">
        <ele>1083.5</ele>
        <time>2019-10-18T12:49:26Z</time>
      </trkpt>
      <trkpt lat="37.0099450" lon="-2.2697240">
        <ele>1083.2</ele>
        <time>2019-10-18T12:49:27Z</time>
      </trkpt>
      <trkpt lat="37.0099240" lon="-2.2697150">
        <ele>1082.9</ele>
        <time>2019-10-18T12:49:28Z</time>
      </trkpt>
      <trkpt lat="37.0099040" lon="-2.2697060">
        <ele>1082.5</ele>
        <time>2019-10-18T12:49:29Z</time>
      </trkpt>
      <trkpt lat="37.0098840" lon="-2.2696950">
        <ele>1082.1</ele>
        <time>2019-10-18T12:49:30Z</time>
      </trkpt>
      <trkpt lat="37.0098650" lon="-2.2696840">
        <ele>1081.7</ele>
        <time>2019-10-18T12:49:31Z</time>
      </trkpt>
      <trkpt lat="37.0098450" lon="-2.2696750">
        <ele>1081.2</ele>
        <time>2019-10-18T12:49:32Z</time>
      </trkpt>
      <trkpt lat="37.0098260" lon="-2.2696670">
        <ele>1080.7</ele>
        <time>2019-10-18T12:49:33Z</time>
      </trkpt>
      <trkpt lat="37.0098060" lon="-2.2696590">
        <ele>1080.2</ele>
        <time>2019-10-18T12:49:34Z</time>
      </trkpt>
      <trkpt lat="37.0097860" lon="-2.2696520">
        <ele>1079.6</ele>
        <time>2019-10-18T12:49:35Z</time>
      </trkpt>
      <trkpt lat="37.0097660" lon="-2.2696460">
        <ele>1079.1</ele>
        <time>2019-10-18T12:49:36Z</time>
      </trkpt>
      <trkpt lat="37.0097450" lon="-2.2696420">
        <ele>1078.6</ele>
        <time>2019-10-18T12:49:37Z</time>
      </trkpt>
      <trkpt lat="37.0097250" lon="-2.2696370">
        <ele>1078.2</ele>
        <time>2019-10-18T12:49:38Z</time>
      </trkpt>
      <trkpt lat="37.0097050" lon="-2.2696320">
        <ele>1077.7</ele>
        <time>2019-10-18T12:49:39Z</time>
      </trkpt>
      <trkpt lat="37.0096850" lon="-2.2696290">
        <ele>1077.1</ele>
        <time>2019-10-18T12:49:40Z</time>
      </trkpt>
      <trkpt lat="37.0096650" lon="-2.2696290">
        <ele>1076.5</ele>
        <time>2019-10-18T12:49:41Z</time>
      </trkpt>
      <trkpt lat="37.0096440" lon="-2.2696320">
        <ele>1075.8</ele>
        <time>2019-10-18T12:49:42Z</time>
      </trkpt>
      <trkpt lat="37.0096220" lon="-2.2696370">
        <ele>1075.2</ele>
        <time>2019-10-18T12:49:43Z</time>
      </trkpt>
      <trkpt lat="37.0096020" lon="-2.2696470">
        <ele>1074.7</ele>
        <time>2019-10-18T12:49:44Z</time>
      </trkpt>
      <trkpt lat="37.0095840" lon="-2.2696640">
        <ele>1074.1</ele>
        <time>2019-10-18T12:49:45Z</time>
      </trkpt>
      <trkpt lat="37.0095690" lon="-2.2696880">
        <ele>1073.9</ele>
        <time>2019-10-18T12:49:46Z</time>
      </trkpt>
      <trkpt lat="37.0095580" lon="-2.2697170">
        <ele>1073.8</ele>
        <time>2019-10-18T12:49:47Z</time>
      </trkpt>
      <trkpt lat="37.0095540" lon="-2.2697500">
        <ele>1073.8</ele>
        <time>2019-10-18T12:49:48Z</time>
      </trkpt>
      <trkpt lat="37.0095550" lon="-2.2697840">
        <ele>1074.3</ele>
        <time>2019-10-18T12:49:49Z</time>
      </trkpt>
      <trkpt lat="37.0095600" lon="-2.2698160">
        <ele>1074.8</ele>
        <time>2019-10-18T12:49:50Z</time>
      </trkpt>
      <trkpt lat="37.0095680" lon="-2.2698480">
        <ele>1075.3</ele>
        <time>2019-10-18T12:49:51Z</time>
      </trkpt>
      <trkpt lat="37.0095780" lon="-2.2698780">
        <ele>1075.9</ele>
        <time>2019-10-18T12:49:52Z</time>
      </trkpt>
      <trkpt lat="37.0095910" lon="-2.2699070">
        <ele>1076.5</ele>
        <time>2019-10-18T12:49:53Z</time>
      </trkpt>
      <trkpt lat="37.0096060" lon="-2.2699350">
        <ele>1077.2</ele>
        <time>2019-10-18T12:49:54Z</time>
      </trkpt>
      <trkpt lat="37.0096210" lon="-2.2699620">
        <ele>1077.9</ele>
        <time>2019-10-18T12:49:55Z</time>
      </trkpt>
      <trkpt lat="37.0096360" lon="-2.2699890">
        <ele>1078.6</ele>
        <time>2019-10-18T12:49:56Z</time>
      </trkpt>
      <trkpt lat="37.0096510" lon="-2.2700150">
        <ele>1079.4</ele>
        <time>2019-10-18T12:49:57Z</time>
      </trkpt>
      <trkpt lat="37.0096660" lon="-2.2700410">
        <ele>1080.1</ele>
        <time>2019-10-18T12:49:58Z</time>
      </trkpt>
      <trkpt lat="37.0096810" lon="-2.2700680">
        <ele>1080.9</ele>
        <time>2019-10-18T12:49:59Z</time>
      </trkpt>
      <trkpt lat="37.0096940" lon="-2.2700940">
        <ele>1081.6</ele>
        <time>2019-10-18T12:50:00Z</time>
      </trkpt>
      <trkpt lat="37.0097080" lon="-2.2701200">
        <ele>1082.4</ele>
        <time>2019-10-18T12:50:01Z</time>
      </trkpt>
      <trkpt lat="37.0097220" lon="-2.2701460">
        <ele>1083.2</ele>
        <time>2019-10-18T12:50:02Z</time>
      </trkpt>
      <trkpt lat="37.0097360" lon="-2.2701720">
        <ele>1084.0</ele>
        <time>2019-10-18T12:50:03Z</time>
      </trkpt>
      <trkpt lat="37.0097500" lon="-2.2701990">
        <ele>1084.8</ele>
        <time>2019-10-18T12:50:04Z</time>
      </trkpt>
      <trkpt lat="37.0097630" lon="-2.2702270">
        <ele>1085.6</ele>
        <time>2019-10-18T12:50:05Z</time>
      </trkpt>
      <trkpt lat="37.0097760" lon="-2.2702560">
        <ele>1086.4</ele>
        <time>2019-10-18T12:50:06Z</time>
      </trkpt>
      <trkpt lat="37.0097880" lon="-2.2702860">
        <ele>1087.1</ele>
        <time>2019-10-18T12:50:07Z</time>
      </trkpt>
      <trkpt lat="37.0098020" lon="-2.2703140">
        <ele>1087.6</ele>
        <time>2019-10-18T12:50:08Z</time>
      </trkpt>
      <trkpt lat="37.0098170" lon="-2.2703420">
        <ele>1088.0</ele>
        <time>2019-10-18T12:50:09Z</time>
      </trkpt>
      <trkpt lat="37.0098350" lon="-2.2703680">
        <ele>1088.5</ele>
        <time>2019-10-18T12:50:10Z</time>
      </trkpt>
      <trkpt lat="37.0098530" lon="-2.2703950">
        <ele>1089.0</ele>
        <time>2019-10-18T12:50:11Z</time>
      </trkpt>
      <trkpt lat="37.0098710" lon="-2.2704230">
        <ele>1089.5</ele>
        <time>2019-10-18T12:50:12Z</time>
      </trkpt>
      <trkpt lat="37.0098870" lon="-2.2704520">
        <ele>1090.0</ele>
        <time>2019-10-18T12:50:13Z</time>
      </trkpt>
      <trkpt lat="37.0099030" lon="-2.2704830">
        <ele>1090.6</ele>
        <time>2019-10-18T12:50:14Z</time>
      </trkpt>
      <trkpt lat="37.0099170" lon="-2.2705150">
        <ele>1091.2</ele>
        <time>2019-10-18T12:50:15Z</time>
      </trkpt>
      <trkpt lat="37.0099300" lon="-2.2705480">
        <ele>1091.9</ele>
        <time>2019-10-18T12:50:16Z</time>
      </trkpt>
      <trkpt lat="37.0099420" lon="-2.2705820">
        <ele>1092.7</ele>
        <time>2019-10-18T12:50:17Z</time>
      </trkpt>
      <trkpt lat="37.0099540" lon="-2.2706170">
        <ele>1093.5</ele>
        <time>2019-10-18T12:50:18Z</time>
      </trkpt>
      <trkpt lat="37.0099650" lon="-2.2706510">
        <ele>1094.4</ele>
        <time>2019-10-18T12:50:19Z</time>
      </trkpt>
      <trkpt lat="37.0099760" lon="-2.2706870">
        <ele>1095.2</ele>
        <time>2019-10-18T12:50:20Z</time>
      </trkpt>
      <trkpt lat="37.0099860" lon="-2.2707230">
        <ele>1096.1</ele>
        <time>2019-10-18T12:50:21Z</time>
      </trkpt>
      <trkpt lat="37.0099960" lon="-2.2707610">
        <ele>1097.2</ele>
        <time>2019-10-18T12:50:22Z</time>
      </trkpt>
      <trkpt lat="37.0100050" lon="-2.2708000">
        <ele>1098.4</ele>
        <time>2019-10-18T12:50:23Z</time>
      </trkpt>
      <trkpt lat="37.0100130" lon="-2.2708390">
        <ele>1099.4</ele>
        <time>2019-10-18T12:50:24Z</time>
      </trkpt>
      <trkpt lat="37.0100190" lon="-2.2708780">
        <ele>1100.1</ele>
        <time>2019-10-18T12:50:25Z</time>
      </trkpt>
      <trkpt lat="37.0100260" lon="-2.2709170">
        <ele>1100.7</ele>
        <time>2019-10-18T12:50:26Z</time>
      </trkpt>
      <trkpt lat="37.0100320" lon="-2.2709570">
        <ele>1101.3</ele>
        <time>2019-10-18T12:50:27Z</time>
      </trkpt>
      <trkpt lat="37.0100390" lon="-2.2709990">
        <ele>1102.0</ele>
        <time>2019-10-18T12:50:28Z</time>
      </trkpt>
      <trkpt lat="37.0100450" lon="-2.2710410">
        <ele>1102.7</ele>
        <time>2019-10-18T12:50:29Z</time>
      </trkpt>
      <trkpt lat="37.0100510" lon="-2.2710840">
        <ele>1103.4</ele>
        <time>2019-10-18T12:50:30Z</time>
      </trkpt>
      <trkpt lat="37.0100560" lon="-2.2711280">
        <ele>1104.0</ele>
        <time>2019-10-18T12:50:31Z</time>
      </trkpt>
      <trkpt lat="37.0100610" lon="-2.2711740">
        <ele>1104.8</ele>
        <time>2019-10-18T12:50:32Z</time>
      </trkpt>
      <trkpt lat="37.0100650" lon="-2.2712190">
        <ele>1105.5</ele>
        <time>2019-10-18T12:50:33Z</time>
      </trkpt>
      <trkpt lat="37.0100680" lon="-2.2712650">
        <ele>1106.0</ele>
        <time>2019-10-18T12:50:34Z</time>
      </trkpt>
      <trkpt lat="37.0100720" lon="-2.2713110">
        <ele>1106.5</ele>
        <time>2019-10-18T12:50:35Z</time>
      </trkpt>
      <trkpt lat="37.0100750" lon="-2.2713560">
        <ele>1106.9</ele>
        <time>2019-10-18T12:50:36Z</time>
      </trkpt>
      <trkpt lat="37.0100790" lon="-2.2714010">
        <ele>1107.3</ele>
        <time>2019-10-18T12:50:37Z</time>
      </trkpt>
      <trkpt lat="37.0100830" lon="-2.2714450">
        <ele>1107.6</ele>
        <time>2019-10-18T12:50:38Z</time>
      </trkpt>
      <trkpt lat="37.0100860" lon="-2.2714870">
        <ele>1107.8</ele>
        <time>2019-10-18T12:50:39Z</time>
      </trkpt>
      <trkpt lat="37.0100890" lon="-2.2715290">
        <ele>1108.0</ele>
        <time>2019-10-18T12:50:40Z</time>
      </trkpt>
      <trkpt lat="37.0100910" lon="-2.2715710">
        <ele>1108.5</ele>
        <time>2019-10-18T12:50:41Z</time>
      </trkpt>
      <trkpt lat="37.0100920" lon="-2.2716110">
        <ele>1109.0</ele>
        <time>2019-10-18T12:50:42Z</time>
      </trkpt>
      <trkpt lat="37.0100920" lon="-2.2716520">
        <ele>1109.3</ele>
        <time>2019-10-18T12:50:43Z</time>
      </trkpt>
      <trkpt lat="37.0100930" lon="-2.2716920">
        <ele>1109.5</ele>
        <time>2019-10-18T12:50:44Z</time>
      </trkpt>
      <trkpt lat="37.0100940" lon="-2.2717320">
        <ele>1109.7</ele>
        <time>2019-10-18T12:50:45Z</time>
      </trkpt>
      <trkpt lat="37.0100960" lon="-2.2717720">
        <ele>1109.8</ele>
        <time>2019-10-18T12:50:46Z</time>
      </trkpt>
      <trkpt lat="37.0100970" lon="-2.2718110">
        <ele>1109.9</ele>
        <time>2019-10-18T12:50:47Z</time>
      </trkpt>
      <trkpt lat="37.0100960" lon="-2.2718500">
        <ele>1110.0</ele>
        <time>2019-10-18T12:50:48Z</time>
      </trkpt>
      <trkpt lat="37.0100940" lon="-2.2718890">
        <ele>1110.0</ele>
        <time>2019-10-18T12:50:49Z</time>
      </trkpt>
      <trkpt lat="37.0100920" lon="-2.2719280">
        <ele>1109.9</ele>
        <time>2019-10-18T12:50:50Z</time>
      </trkpt>
      <trkpt lat="37.0100880" lon="-2.2719660">
        <ele>1109.8</ele>
        <time>2019-10-18T12:50:51Z</time>
      </trkpt>
      <trkpt lat="37.0100830" lon="-2.2720050">
        <ele>1109.7</ele>
        <time>2019-10-18T12:50:52Z</time>
      </trkpt>
      <trkpt lat="37.0100780" lon="-2.2720440">
        <ele>1109.5</ele>
        <time>2019-10-18T12:50:53Z</time>
      </trkpt>
      <trkpt lat="37.0100720" lon="-2.2720830">
        <ele>1109.2</ele>
        <time>2019-10-18T12:50:54Z</time>
      </trkpt>
      <trkpt lat="37.0100660" lon="-2.2721210">
        <ele>1109.0</ele>
        <time>2019-10-18T12:50:55Z</time>
      </trkpt>
      <trkpt lat="37.0100600" lon="-2.2721600">
        <ele>1108.9</ele>
        <time>2019-10-18T12:50:56Z</time>
      </trkpt>
      <trkpt lat="37.0100540" lon="-2.2722000">
        <ele>1108.9</ele>
        <time>2019-10-18T12:50:57Z</time>
      </trkpt>
      <trkpt lat="37.0100480" lon="-2.2722390">
        <ele>1108.8</ele>
        <time>2019-10-18T12:50:58Z</time>
      </trkpt>
      <trkpt lat="37.0100400" lon="-2.2722780">
        <ele>1108.7</ele>
        <time>2019-10-18T12:50:59Z</time>
      </trkpt>
      <trkpt lat="37.0100320" lon="-2.2723160">
        <ele>1108.6</ele>
        <time>2019-10-18T12:51:00Z</time>
      </trkpt>
      <trkpt lat="37.0100220" lon="-2.2723540">
        <ele>1108.6</ele>
        <time>2019-10-18T12:51:01Z</time>
      </trkpt>
      <trkpt lat="37.0100110" lon="-2.2723920">
        <ele>1108.7</ele>
        <time>2019-10-18T12:51:02Z</time>
      </trkpt>
      <trkpt lat="37.0100000" lon="-2.2724300">
        <ele>1108.7</ele>
        <time>2019-10-18T12:51:03Z</time>
      </trkpt>
      <trkpt lat="37.0099880" lon="-2.2724660">
        <ele>1108.8</ele>
        <time>2019-10-18T12:51:04Z</time>
      </trkpt>
      <trkpt lat="37.0099750" lon="-2.2725010">
        <ele>1108.9</ele>
        <time>2019-10-18T12:51:05Z</time>
      </trkpt>
      <trkpt lat="37.0099610" lon="-2.2725350">
        <ele>1109.0</ele>
        <time>2019-10-18T12:51:06Z</time>
      </trkpt>
      <trkpt lat="37.0099480" lon="-2.2725680">
        <ele>1109.1</ele>
        <time>2019-10-18T12:51:07Z</time>
      </trkpt>
      <trkpt lat="37.0099350" lon="-2.2726020">
        <ele>1109.2</ele>
        <time>2019-10-18T12:51:08Z</time>
      </trkpt>
      <trkpt lat="37.0099220" lon="-2.2726350">
        <ele>1109.3</ele>
        <time>2019-10-18T12:51:09Z</time>
      </trkpt>
      <trkpt lat="37.0099090" lon="-2.2726690">
        <ele>1109.4</ele>
        <time>2019-10-18T12:51:10Z</time>
      </trkpt>
      <trkpt lat="37.0098980" lon="-2.2727020">
        <ele>1109.5</ele>
        <time>2019-10-18T12:51:11Z</time>
      </trkpt>
      <trkpt lat="37.0098870" lon="-2.2727350">
        <ele>1109.6</ele>
        <time>2019-10-18T12:51:12Z</time>
      </trkpt>
      <trkpt lat="37.0098770" lon="-2.2727680">
        <ele>1109.7</ele>
        <time>2019-10-18T12:51:13Z</time>
      </trkpt>
      <trkpt lat="37.0098670" lon="-2.2728010">
        <ele>1109.8</ele>
        <time>2019-10-18T12:51:14Z</time>
      </trkpt>
      <trkpt lat="37.0098560" lon="-2.2728350">
        <ele>1109.7</ele>
        <time>2019-10-18T12:51:15Z</time>
      </trkpt>
      <trkpt lat="37.0098450" lon="-2.2728690">
        <ele>1109.6</ele>
        <time>2019-10-18T12:51:16Z</time>
      </trkpt>
      <trkpt lat="37.0098340" lon="-2.2729040">
        <ele>1109.5</ele>
        <time>2019-10-18T12:51:17Z</time>
      </trkpt>
      <trkpt lat="37.0098230" lon="-2.2729370">
        <ele>1109.4</ele>
        <time>2019-10-18T12:51:18Z</time>
      </trkpt>
      <trkpt lat="37.0098120" lon="-2.2729680">
        <ele>1109.2</ele>
        <time>2019-10-18T12:51:19Z</time>
      </trkpt>
      <trkpt lat="37.0098000" lon="-2.2729980">
        <ele>1109.1</ele>
        <time>2019-10-18T12:51:20Z</time>
      </trkpt>
      <trkpt lat="37.0097880" lon="-2.2730270">
        <ele>1109.0</ele>
        <time>2019-10-18T12:51:21Z</time>
      </trkpt>
      <trkpt lat="37.0097770" lon="-2.2730560">
        <ele>1108.9</ele>
        <time>2019-10-18T12:51:22Z</time>
      </trkpt>
      <trkpt lat="37.0097650" lon="-2.2730840">
        <ele>1108.9</ele>
        <time>2019-10-18T12:51:23Z</time>
      </trkpt>
      <trkpt lat="37.0097530" lon="-2.2731110">
        <ele>1108.8</ele>
        <time>2019-10-18T12:51:24Z</time>
      </trkpt>
      <trkpt lat="37.0097400" lon="-2.2731380">
        <ele>1108.7</ele>
        <time>2019-10-18T12:51:25Z</time>
      </trkpt>
      <trkpt lat="37.0097280" lon="-2.2731660">
        <ele>1108.7</ele>
        <time>2019-10-18T12:51:26Z</time>
      </trkpt>
      <trkpt lat="37.0097170" lon="-2.2731930">
        <ele>1108.6</ele>
        <time>2019-10-18T12:51:27Z</time>
      </trkpt>
      <trkpt lat="37.0097070" lon="-2.2732190">
        <ele>1108.5</ele>
        <time>2019-10-18T12:51:28Z</time>
      </trkpt>
      <trkpt lat="37.0096960" lon="-2.2732450">
        <ele>1108.4</ele>
        <time>2019-10-18T12:51:29Z</time>
      </trkpt>
      <trkpt lat="37.0096860" lon="-2.2732700">
        <ele>1108.3</ele>
        <time>2019-10-18T12:51:30Z</time>
      </trkpt>
      <trkpt lat="37.0096770" lon="-2.2732960">
        <ele>1108.1</ele>
        <time>2019-10-18T12:51:31Z</time>
      </trkpt>
      <trkpt lat="37.0096680" lon="-2.2733220">
        <ele>1108.1</ele>
        <time>2019-10-18T12:51:32Z</time>
      </trkpt>
      <trkpt lat="37.0096600" lon="-2.2733480">
        <ele>1108.0</ele>
        <time>2019-10-18T12:51:33Z</time>
      </trkpt>
      <trkpt lat="37.0096510" lon="-2.2733730">
        <ele>1108.0</ele>
        <time>2019-10-18T12:51:34Z</time>
      </trkpt>
      <trkpt lat="37.0096410" lon="-2.2733980">
        <ele>1107.9</ele>
        <time>2019-10-18T12:51:35Z</time>
      </trkpt>
      <trkpt lat="37.0096290" lon="-2.2734230">
        <ele>1107.9</ele>
        <time>2019-10-18T12:51:36Z</time>
      </trkpt>
      <trkpt lat="37.0096180" lon="-2.2734480">
        <ele>1107.9</ele>
        <time>2019-10-18T12:51:37Z</time>
      </trkpt>
      <trkpt lat="37.0096080" lon="-2.2734740">
        <ele>1107.9</ele>
        <time>2019-10-18T12:51:38Z</time>
      </trkpt>
      <trkpt lat="37.0095980" lon="-2.2735000">
        <ele>1107.9</ele>
        <time>2019-10-18T12:51:39Z</time>
      </trkpt>
      <trkpt lat="37.0095890" lon="-2.2735250">
        <ele>1107.9</ele>
        <time>2019-10-18T12:51:40Z</time>
      </trkpt>
      <trkpt lat="37.0095800" lon="-2.2735500">
        <ele>1107.8</ele>
        <time>2019-10-18T12:51:41Z</time>
      </trkpt>
      <trkpt lat="37.0095720" lon="-2.2735750">
        <ele>1107.8</ele>
        <time>2019-10-18T12:51:42Z</time>
      </trkpt>
      <trkpt lat="37.0095640" lon="-2.2736010">
        <ele>1107.8</ele>
        <time>2019-10-18T12:51:43Z</time>
      </trkpt>
      <trkpt lat="37.0095560" lon="-2.2736260">
        <ele>1107.9</ele>
        <time>2019-10-18T12:51:44Z</time>
      </trkpt>
      <trkpt lat="37.0095500" lon="-2.2736530">
        <ele>1107.9</ele>
        <time>2019-10-18T12:51:45Z</time>
      </trkpt>
      <trkpt lat="37.0095440" lon="-2.2736790">
        <ele>1108.0</ele>
        <time>2019-10-18T12:51:46Z</time>
      </trkpt>
      <trkpt lat="37.0095370" lon="-2.2737050">
        <ele>1108.1</ele>
        <time>2019-10-18T12:51:47Z</time>
      </trkpt>
      <trkpt lat="37.0095280" lon="-2.2737300">
        <ele>1108.1</ele>
        <time>2019-10-18T12:51:48Z</time>
      </trkpt>
      <trkpt lat="37.0095190" lon="-2.2737560">
        <ele>1108.2</ele>
        <time>2019-10-18T12:51:49Z</time>
      </trkpt>
      <trkpt lat="37.0095090" lon="-2.2737820">
        <ele>1108.2</ele>
        <time>2019-10-18T12:51:50Z</time>
      </trkpt>
      <trkpt lat="37.0095010" lon="-2.2738080">
        <ele>1108.2</ele>
        <time>2019-10-18T12:51:51Z</time>
      </trkpt>
      <trkpt lat="37.0094910" lon="-2.2738340">
        <ele>1108.2</ele>
        <time>2019-10-18T12:51:52Z</time>
      </trkpt>
      <trkpt lat="37.0094820" lon="-2.2738610">
        <ele>1108.2</ele>
        <time>2019-10-18T12:51:53Z</time>
      </trkpt>
      <trkpt lat="37.0094750" lon="-2.2738880">
        <ele>1108.2</ele>
        <time>2019-10-18T12:51:54Z</time>
      </trkpt>
      <trkpt lat="37.0094690" lon="-2.2739150">
        <ele>1108.2</ele>
        <time>2019-10-18T12:51:55Z</time>
      </trkpt>
      <trkpt lat="37.0094630" lon="-2.2739420">
        <ele>1108.3</ele>
        <time>2019-10-18T12:51:56Z</time>
      </trkpt>
      <trkpt lat="37.0094570" lon="-2.2739670">
        <ele>1108.4</ele>
        <time>2019-10-18T12:51:57Z</time>
      </trkpt>
      <trkpt lat="37.0094480" lon="-2.2739920">
        <ele>1108.4</ele>
        <time>2019-10-18T12:51:58Z</time>
      </trkpt>
      <trkpt lat="37.0094400" lon="-2.2740170">
        <ele>1108.5</ele>
        <time>2019-10-18T12:51:59Z</time>
      </trkpt>
      <trkpt lat="37.0094310" lon="-2.2740420">
        <ele>1108.6</ele>
        <time>2019-10-18T12:52:00Z</time>
      </trkpt>
      <trkpt lat="37.0094210" lon="-2.2740670">
        <ele>1108.7</ele>
        <time>2019-10-18T12:52:01Z</time>
      </trkpt>
      <trkpt lat="37.0094110" lon="-2.2740910">
        <ele>1108.8</ele>
        <time>2019-10-18T12:52:02Z</time>
      </trkpt>
      <trkpt lat="37.0094000" lon="-2.2741160">
        <ele>1108.9</ele>
        <time>2019-10-18T12:52:03Z</time>
      </trkpt>
      <trkpt lat="37.0093880" lon="-2.2741410">
        <ele>1109.0</ele>
        <time>2019-10-18T12:52:04Z</time>
      </trkpt>
      <trkpt lat="37.0093770" lon="-2.2741660">
        <ele>1109.1</ele>
        <time>2019-10-18T12:52:05Z</time>
      </trkpt>
      <trkpt lat="37.0093640" lon="-2.2741890">
        <ele>1109.2</ele>
        <time>2019-10-18T12:52:06Z</time>
      </trkpt>
      <trkpt lat="37.0093490" lon="-2.2742120">
        <ele>1109.5</ele>
        <time>2019-10-18T12:52:07Z</time>
      </trkpt>
      <trkpt lat="37.0093320" lon="-2.2742330">
        <ele>1109.8</ele>
        <time>2019-10-18T12:52:08Z</time>
      </trkpt>
      <trkpt lat="37.0093140" lon="-2.2742540">
        <ele>1110.2</ele>
        <time>2019-10-18T12:52:09Z</time>
      </trkpt>
      <trkpt lat="37.0092950" lon="-2.2742750">
        <ele>1110.5</ele>
        <time>2019-10-18T12:52:10Z</time>
      </trkpt>
      <trkpt lat="37.0092770" lon="-2.2742960">
        <ele>1110.7</ele>
        <time>2019-10-18T12:52:11Z</time>
      </trkpt>
      <trkpt lat="37.0092580" lon="-2.2743160">
        <ele>1110.9</ele>
        <time>2019-10-18T12:52:12Z</time>
      </trkpt>
      <trkpt lat="37.0092390" lon="-2.2743360">
        <ele>1111.2</ele>
        <time>2019-10-18T12:52:13Z</time>
      </trkpt>
      <trkpt lat="37.0092200" lon="-2.2743560">
        <ele>1111.6</ele>
        <time>2019-10-18T12:52:14Z</time>
      </trkpt>
      <trkpt lat="37.0092010" lon="-2.2743760">
        <ele>1112.1</ele>
        <time>2019-10-18T12:52:15Z</time>
      </trkpt>
      <trkpt lat="37.0091830" lon="-2.2743970">
        <ele>1112.5</ele>
        <time>2019-10-18T12:52:16Z</time>
      </trkpt>
      <trkpt lat="37.0091650" lon="-2.2744170">
        <ele>1112.8</ele>
        <time>2019-10-18T12:52:17Z</time>
      </trkpt>
      <trkpt lat="37.0091460" lon="-2.2744380">
        <ele>1113.0</ele>
        <time>2019-10-18T12:52:18Z</time>
      </trkpt>
      <trkpt lat="37.0091280" lon="-2.2744580">
        <ele>1113.3</ele>
        <time>2019-10-18T12:52:19Z</time>
      </trkpt>
      <trkpt lat="37.0091090" lon="-2.2744780">
        <ele>1113.7</ele>
        <time>2019-10-18T12:52:20Z</time>
      </trkpt>
      <trkpt lat="37.0090910" lon="-2.2744970">
        <ele>1114.2</ele>
        <time>2019-10-18T12:52:21Z</time>
      </trkpt>
      <trkpt lat="37.0090730" lon="-2.2745170">
        <ele>1114.8</ele>
        <time>2019-10-18T12:52:22Z</time>
      </trkpt>
      <trkpt lat="37.0090550" lon="-2.2745380">
        <ele>1115.3</ele>
        <time>2019-10-18T12:52:23Z</time>
      </trkpt>
      <trkpt lat="37.0090380" lon="-2.2745600">
        <ele>1115.6</ele>
        <time>2019-10-18T12:52:24Z</time>
      </trkpt>
      <trkpt lat="37.0090230" lon="-2.2745830">
        <ele>1115.8</ele>
        <time>2019-10-18T12:52:25Z</time>
      </trkpt>
      <trkpt lat="37.0090090" lon="-2.2746070">
        <ele>1116.1</ele>
        <time>2019-10-18T12:52:26Z</time>
      </trkpt>
      <trkpt lat="37.0089970" lon="-2.2746330">
        <ele>1116.5</ele>
        <time>2019-10-18T12:52:27Z</time>
      </trkpt>
      <trkpt lat="37.0089870" lon="-2.2746590">
        <ele>1116.9</ele>
        <time>2019-10-18T12:52:28Z</time>
      </trkpt>
      <trkpt lat="37.0089780" lon="-2.2746850">
        <ele>1117.3</ele>
        <time>2019-10-18T12:52:29Z</time>
      </trkpt>
      <trkpt lat="37.0089700" lon="-2.2747120">
        <ele>1117.6</ele>
        <time>2019-10-18T12:52:30Z</time>
      </trkpt>
      <trkpt lat="37.0089630" lon="-2.2747390">
        <ele>1117.5</ele>
        <time>2019-10-18T12:52:31Z</time>
      </trkpt>
      <trkpt lat="37.0089570" lon="-2.2747660">
        <ele>1117.5</ele>
        <time>2019-10-18T12:52:32Z</time>
      </trkpt>
      <trkpt lat="37.0089530" lon="-2.2747940">
        <ele>1117.4</ele>
        <time>2019-10-18T12:52:33Z</time>
      </trkpt>
      <trkpt lat="37.0089520" lon="-2.2748220">
        <ele>1117.5</ele>
        <time>2019-10-18T12:52:34Z</time>
      </trkpt>
      <trkpt lat="37.0089520" lon="-2.2748500">
        <ele>1117.6</ele>
        <time>2019-10-18T12:52:35Z</time>
      </trkpt>
      <trkpt lat="37.0089540" lon="-2.2748780">
        <ele>1117.7</ele>
        <time>2019-10-18T12:52:36Z</time>
      </trkpt>
      <trkpt lat="37.0089560" lon="-2.2749050">
        <ele>1117.8</ele>
        <time>2019-10-18T12:52:37Z</time>
      </trkpt>
      <trkpt lat="37.0089590" lon="-2.2749330">
        <ele>1117.7</ele>
        <time>2019-10-18T12:52:38Z</time>
      </trkpt>
      <trkpt lat="37.0089600" lon="-2.2749610">
        <ele>1117.6</ele>
        <time>2019-10-18T12:52:39Z</time>
      </trkpt>
      <trkpt lat="37.0089620" lon="-2.2749900">
        <ele>1117.5</ele>
        <time>2019-10-18T12:52:40Z</time>
      </trkpt>
      <trkpt lat="37.0089630" lon="-2.2750190">
        <ele>1117.4</ele>
        <time>2019-10-18T12:52:41Z</time>
      </trkpt>
      <trkpt lat="37.0089640" lon="-2.2750500">
        <ele>1117.3</ele>
        <time>2019-10-18T12:52:42Z</time>
      </trkpt>
      <trkpt lat="37.0089670" lon="-2.2750810">
        <ele>1117.1</ele>
        <time>2019-10-18T12:52:43Z</time>
      </trkpt>
      <trkpt lat="37.0089690" lon="-2.2751110">
        <ele>1117.0</ele>
        <time>2019-10-18T12:52:44Z</time>
      </trkpt>
      <trkpt lat="37.0089720" lon="-2.2751420">
        <ele>1116.8</ele>
        <time>2019-10-18T12:52:45Z</time>
      </trkpt>
      <trkpt lat="37.0089740" lon="-2.2751730">
        <ele>1116.7</ele>
        <time>2019-10-18T12:52:46Z</time>
      </trkpt>
      <trkpt lat="37.0089770" lon="-2.2752050">
        <ele>1116.5</ele>
        <time>2019-10-18T12:52:47Z</time>
      </trkpt>
      <trkpt lat="37.0089800" lon="-2.2752360">
        <ele>1116.4</ele>
        <time>2019-10-18T12:52:48Z</time>
      </trkpt>
      <trkpt lat="37.0089830" lon="-2.2752680">
        <ele>1116.3</ele>
        <time>2019-10-18T12:52:49Z</time>
      </trkpt>
      <trkpt lat="37.0089860" lon="-2.2753000">
        <ele>1116.2</ele>
        <time>2019-10-18T12:52:50Z</time>
      </trkpt>
      <trkpt lat="37.0089880" lon="-2.2753320">
        <ele>1116.0</ele>
        <time>2019-10-18T12:52:51Z</time>
      </trkpt>
      <trkpt lat="37.0089910" lon="-2.2753650">
        <ele>1115.8</ele>
        <time>2019-10-18T12:52:52Z</time>
      </trkpt>
      <trkpt lat="37.0089930" lon="-2.2753970">
        <ele>1115.6</ele>
        <time>2019-10-18T12:52:53Z</time>
      </trkpt>
      <trkpt lat="37.0089960" lon="-2.2754300">
        <ele>1115.4</ele>
        <time>2019-10-18T12:52:54Z</time>
      </trkpt>
      <trkpt lat="37.0089990" lon="-2.2754630">
        <ele>1115.1</ele>
        <time>2019-10-18T12:52:55Z</time>
      </trkpt>
      <trkpt lat="37.0090020" lon="-2.2754970">
        <ele>1114.7</ele>
        <time>2019-10-18T12:52:56Z</time>
      </trkpt>
      <trkpt lat="37.0090030" lon="-2.2755310">
        <ele>1114.6</ele>
        <time>2019-10-18T12:52:57Z</time>
      </trkpt>
      <trkpt lat="37.0090040" lon="-2.2755660">
        <ele>1114.5</ele>
        <time>2019-10-18T12:52:58Z</time>
      </trkpt>
      <trkpt lat="37.0090050" lon="-2.2756020">
        <ele>1114.4</ele>
        <time>2019-10-18T12:52:59Z</time>
      </trkpt>
      <trkpt lat="37.0090070" lon="-2.2756400">
        <ele>1114.4</ele>
        <time>2019-10-18T12:53:00Z</time>
      </trkpt>
      <trkpt lat="37.0090100" lon="-2.2756790">
        <ele>1114.4</ele>
        <time>2019-10-18T12:53:01Z</time>
      </trkpt>
      <trkpt lat="37.0090120" lon="-2.2757180">
        <ele>1114.5</ele>
        <time>2019-10-18T12:53:02Z</time>
      </trkpt>
      <trkpt lat="37.0090110" lon="-2.2757560">
        <ele>1114.5</ele>
        <time>2019-10-18T12:53:03Z</time>
      </trkpt>
      <trkpt lat="37.0090080" lon="-2.2757940">
        <ele>1114.6</ele>
        <time>2019-10-18T12:53:04Z</time>
      </trkpt>
      <trkpt lat="37.0090020" lon="-2.2758310">
        <ele>1114.8</ele>
        <time>2019-10-18T12:53:05Z</time>
      </trkpt>
      <trkpt lat="37.0089930" lon="-2.2758690">
        <ele>1115.0</ele>
        <time>2019-10-18T12:53:06Z</time>
      </trkpt>
      <trkpt lat="37.0089820" lon="-2.2759060">
        <ele>1115.3</ele>
        <time>2019-10-18T12:53:07Z</time>
      </trkpt>
      <trkpt lat="37.0089680" lon="-2.2759430">
        <ele>1115.6</ele>
        <time>2019-10-18T12:53:08Z</time>
      </trkpt>
      <trkpt lat="37.0089530" lon="-2.2759800">
        <ele>1116.0</ele>
        <time>2019-10-18T12:53:09Z</time>
      </trkpt>
      <trkpt lat="37.0089370" lon="-2.2760170">
        <ele>1116.3</ele>
        <time>2019-10-18T12:53:10Z</time>
      </trkpt>
      <trkpt lat="37.0089210" lon="-2.2760560">
        <ele>1116.7</ele>
        <time>2019-10-18T12:53:11Z</time>
      </trkpt>
      <trkpt lat="37.0089050" lon="-2.2760950">
        <ele>1117.0</ele>
        <time>2019-10-18T12:53:12Z</time>
      </trkpt>
      <trkpt lat="37.0088860" lon="-2.2761350">
        <ele>1117.4</ele>
        <time>2019-10-18T12:53:13Z</time>
      </trkpt>
      <trkpt lat="37.0088670" lon="-2.2761760">
        <ele>1117.8</ele>
        <time>2019-10-18T12:53:14Z</time>
      </trkpt>
      <trkpt lat="37.0088460" lon="-2.2762180">
        <ele>1118.1</ele>
        <time>2019-10-18T12:53:15Z</time>
      </trkpt>
      <trkpt lat="37.0088240" lon="-2.2762590">
        <ele>1118.3</ele>
        <time>2019-10-18T12:53:16Z</time>
      </trkpt>
      <trkpt lat="37.0088000" lon="-2.2763000">
        <ele>1118.5</ele>
        <time>2019-10-18T12:53:17Z</time>
      </trkpt>
      <trkpt lat="37.0087740" lon="-2.2763410">
        <ele>1118.7</ele>
        <time>2019-10-18T12:53:18Z</time>
      </trkpt>
      <trkpt lat="37.0087450" lon="-2.2763830">
        <ele>1118.9</ele>
        <time>2019-10-18T12:53:19Z</time>
      </trkpt>
      <trkpt lat="37.0087190" lon="-2.2764290">
        <ele>1119.0</ele>
        <time>2019-10-18T12:53:20Z</time>
      </trkpt>
      <trkpt lat="37.0087000" lon="-2.2764780">
        <ele>1119.0</ele>
        <time>2019-10-18T12:53:21Z</time>
      </trkpt>
      <trkpt lat="37.0086910" lon="-2.2765310">
        <ele>1119.1</ele>
        <time>2019-10-18T12:53:22Z</time>
      </trkpt>
      <trkpt lat="37.0086940" lon="-2.2765840">
        <ele>1119.1</ele>
        <time>2019-10-18T12:53:23Z</time>
      </trkpt>
      <trkpt lat="37.0087040" lon="-2.2766330">
        <ele>1119.1</ele>
        <time>2019-10-18T12:53:24Z</time>
      </trkpt>
      <trkpt lat="37.0087200" lon="-2.2766770">
        <ele>1118.9</ele>
        <time>2019-10-18T12:53:25Z</time>
      </trkpt>
      <trkpt lat="37.0087400" lon="-2.2767140">
        <ele>1118.7</ele>
        <time>2019-10-18T12:53:26Z</time>
      </trkpt>
      <trkpt lat="37.0087630" lon="-2.2767460">
        <ele>1118.5</ele>
        <time>2019-10-18T12:53:27Z</time>
      </trkpt>
      <trkpt lat="37.0087870" lon="-2.2767760">
        <ele>1118.4</ele>
        <time>2019-10-18T12:53:28Z</time>
      </trkpt>
      <trkpt lat="37.0088100" lon="-2.2768040">
        <ele>1118.2</ele>
        <time>2019-10-18T12:53:29Z</time>
      </trkpt>
      <trkpt lat="37.0088340" lon="-2.2768320">
        <ele>1118.1</ele>
        <time>2019-10-18T12:53:30Z</time>
      </trkpt>
      <trkpt lat="37.0088580" lon="-2.2768600">
        <ele>1117.9</ele>
        <time>2019-10-18T12:53:31Z</time>
      </trkpt>
      <trkpt lat="37.0088830" lon="-2.2768870">
        <ele>1117.8</ele>
        <time>2019-10-18T12:53:32Z</time>
      </trkpt>
      <trkpt lat="37.0089070" lon="-2.2769150">
        <ele>1117.7</ele>
        <time>2019-10-18T12:53:33Z</time>
      </trkpt>
      <trkpt lat="37.0089300" lon="-2.2769420">
        <ele>1117.6</ele>
        <time>2019-10-18T12:53:34Z</time>
      </trkpt>
      <trkpt lat="37.0089540" lon="-2.2769680">
        <ele>1117.5</ele>
        <time>2019-10-18T12:53:35Z</time>
      </trkpt>
      <trkpt lat="37.0089780" lon="-2.2769920">
        <ele>1117.4</ele>
        <time>2019-10-18T12:53:36Z</time>
      </trkpt>
      <trkpt lat="37.0090020" lon="-2.2770160">
        <ele>1117.4</ele>
        <time>2019-10-18T12:53:37Z</time>
      </trkpt>
      <trkpt lat="37.0090260" lon="-2.2770400">
        <ele>1117.3</ele>
        <time>2019-10-18T12:53:38Z</time>
      </trkpt>
      <trkpt lat="37.0090500" lon="-2.2770650">
        <ele>1117.4</ele>
        <time>2019-10-18T12:53:39Z</time>
      </trkpt>
      <trkpt lat="37.0090740" lon="-2.2770890">
        <ele>1117.4</ele>
        <time>2019-10-18T12:53:40Z</time>
      </trkpt>
      <trkpt lat="37.0090980" lon="-2.2771120">
        <ele>1117.5</ele>
        <time>2019-10-18T12:53:41Z</time>
      </trkpt>
      <trkpt lat="37.0091220" lon="-2.2771360">
        <ele>1117.6</ele>
        <time>2019-10-18T12:53:42Z</time>
      </trkpt>
      <trkpt lat="37.0091470" lon="-2.2771570">
        <ele>1117.8</ele>
        <time>2019-10-18T12:53:43Z</time>
      </trkpt>
      <trkpt lat="37.0091730" lon="-2.2771770">
        <ele>1117.9</ele>
        <time>2019-10-18T12:53:44Z</time>
      </trkpt>
      <trkpt lat="37.0092000" lon="-2.2771970">
        <ele>1118.1</ele>
        <time>2019-10-18T12:53:45Z</time>
      </trkpt>
      <trkpt lat="37.0092270" lon="-2.2772180">
        <ele>1118.4</ele>
        <time>2019-10-18T12:53:46Z</time>
      </trkpt>
      <trkpt lat="37.0092540" lon="-2.2772380">
        <ele>1118.9</ele>
        <time>2019-10-18T12:53:47Z</time>
      </trkpt>
      <trkpt lat="37.0092810" lon="-2.2772570">
        <ele>1119.4</ele>
        <time>2019-10-18T12:53:48Z</time>
      </trkpt>
      <trkpt lat="37.0093080" lon="-2.2772760">
        <ele>1119.9</ele>
        <time>2019-10-18T12:53:49Z</time>
      </trkpt>
      <trkpt lat="37.0093350" lon="-2.2772950">
        <ele>1120.4</ele>
        <time>2019-10-18T12:53:50Z</time>
      </trkpt>
      <trkpt lat="37.0093620" lon="-2.2773170">
        <ele>1120.9</ele>
        <time>2019-10-18T12:53:51Z</time>
      </trkpt>
      <trkpt lat="37.0093880" lon="-2.2773400">
        <ele>1121.4</ele>
        <time>2019-10-18T12:53:52Z</time>
      </trkpt>
      <trkpt lat="37.0094130" lon="-2.2773640">
        <ele>1121.8</ele>
        <time>2019-10-18T12:53:53Z</time>
      </trkpt>
      <trkpt lat="37.0094390" lon="-2.2773890">
        <ele>1122.2</ele>
        <time>2019-10-18T12:53:54Z</time>
      </trkpt>
      <trkpt lat="37.0094640" lon="-2.2774150">
        <ele>1122.6</ele>
        <time>2019-10-18T12:53:55Z</time>
      </trkpt>
      <trkpt lat="37.0094890" lon="-2.2774420">
        <ele>1123.0</ele>
        <time>2019-10-18T12:53:56Z</time>
      </trkpt>
      <trkpt lat="37.0095130" lon="-2.2774700">
        <ele>1123.5</ele>
        <time>2019-10-18T12:53:57Z</time>
      </trkpt>
      <trkpt lat="37.0095370" lon="-2.2774990">
        <ele>1124.1</ele>
        <time>2019-10-18T12:53:58Z</time>
      </trkpt>
      <trkpt lat="37.0095600" lon="-2.2775290">
        <ele>1124.7</ele>
        <time>2019-10-18T12:53:59Z</time>
      </trkpt>
      <trkpt lat="37.0095840" lon="-2.2775580">
        <ele>1125.3</ele>
        <time>2019-10-18T12:54:00Z</time>
      </trkpt>
      <trkpt lat="37.0096080" lon="-2.2775870">
        <ele>1125.9</ele>
        <time>2019-10-18T12:54:01Z</time>
      </trkpt>
      <trkpt lat="37.0096320" lon="-2.2776170">
        <ele>1126.3</ele>
        <time>2019-10-18T12:54:02Z</time>
      </trkpt>
      <trkpt lat="37.0096520" lon="-2.2776490">
        <ele>1126.7</ele>
        <time>2019-10-18T12:54:03Z</time>
      </trkpt>
      <trkpt lat="37.0096710" lon="-2.2776830">
        <ele>1127.2</ele>
        <time>2019-10-18T12:54:04Z</time>
      </trkpt>
      <trkpt lat="37.0096870" lon="-2.2777210">
        <ele>1127.7</ele>
        <time>2019-10-18T12:54:05Z</time>
      </trkpt>
      <trkpt lat="37.0097010" lon="-2.2777620">
        <ele>1128.2</ele>
        <time>2019-10-18T12:54:06Z</time>
      </trkpt>
      <trkpt lat="37.0097130" lon="-2.2778060">
        <ele>1128.8</ele>
        <time>2019-10-18T12:54:07Z</time>
      </trkpt>
      <trkpt lat="37.0097220" lon="-2.2778530">
        <ele>1129.3</ele>
        <time>2019-10-18T12:54:08Z</time>
      </trkpt>
      <trkpt lat="37.0097290" lon="-2.2779020">
        <ele>1129.6</ele>
        <time>2019-10-18T12:54:09Z</time>
      </trkpt>
      <trkpt lat="37.0097330" lon="-2.2779530">
        <ele>1129.8</ele>
        <time>2019-10-18T12:54:10Z</time>
      </trkpt>
      <trkpt lat="37.0097360" lon="-2.2780040">
        <ele>1130.1</ele>
        <time>2019-10-18T12:54:11Z</time>
      </trkpt>
      <trkpt lat="37.0097370" lon="-2.2780550">
        <ele>1130.4</ele>
        <time>2019-10-18T12:54:12Z</time>
      </trkpt>
      <trkpt lat="37.0097360" lon="-2.2781040">
        <ele>1130.8</ele>
        <time>2019-10-18T12:54:13Z</time>
      </trkpt>
      <trkpt lat="37.0097340" lon="-2.2781520">
        <ele>1131.4</ele>
        <time>2019-10-18T12:54:14Z</time>
      </trkpt>
      <trkpt lat="37.0097310" lon="-2.2782000">
        <ele>1132.2</ele>
        <time>2019-10-18T12:54:15Z</time>
      </trkpt>
      <trkpt lat="37.0097280" lon="-2.2782460">
        <ele>1132.9</ele>
        <time>2019-10-18T12:54:16Z</time>
      </trkpt>
      <trkpt lat="37.0097260" lon="-2.2782910">
        <ele>1133.5</ele>
        <time>2019-10-18T12:54:17Z</time>
      </trkpt>
      <trkpt lat="37.0097250" lon="-2.2783340">
        <ele>1134.1</ele>
        <time>2019-10-18T12:54:18Z</time>
      </trkpt>
      <trkpt lat="37.0097240" lon="-2.2783760">
        <ele>1134.7</ele>
        <time>2019-10-18T12:54:19Z</time>
      </trkpt>
      <trkpt lat="37.0097220" lon="-2.2784180">
        <ele>1135.3</ele>
        <time>2019-10-18T12:54:20Z</time>
      </trkpt>
      <trkpt lat="37.0097200" lon="-2.2784600">
        <ele>1136.0</ele>
        <time>2019-10-18T12:54:21Z</time>
      </trkpt>
      <trkpt lat="37.0097170" lon="-2.2785030">
        <ele>1136.8</ele>
        <time>2019-10-18T12:54:22Z</time>
      </trkpt>
      <trkpt lat="37.0097120" lon="-2.2785450">
        <ele>1137.9</ele>
        <time>2019-10-18T12:54:23Z</time>
      </trkpt>
      <trkpt lat="37.0097050" lon="-2.2785880">
        <ele>1139.4</ele>
        <time>2019-10-18T12:54:24Z</time>
      </trkpt>
      <trkpt lat="37.0096970" lon="-2.2786310">
        <ele>1140.7</ele>
        <time>2019-10-18T12:54:25Z</time>
      </trkpt>
      <trkpt lat="37.0096870" lon="-2.2786750">
        <ele>1141.7</ele>
        <time>2019-10-18T12:54:26Z</time>
      </trkpt>
      <trkpt lat="37.0096750" lon="-2.2787200">
        <ele>1142.7</ele>
        <time>2019-10-18T12:54:27Z</time>
      </trkpt>
      <trkpt lat="37.0096630" lon="-2.2787650">
        <ele>1143.2</ele>
        <time>2019-10-18T12:54:28Z</time>
      </trkpt>
      <trkpt lat="37.0096520" lon="-2.2788120">
        <ele>1143.6</ele>
        <time>2019-10-18T12:54:29Z</time>
      </trkpt>
      <trkpt lat="37.0096420" lon="-2.2788600">
        <ele>1143.3</ele>
        <time>2019-10-18T12:54:30Z</time>
      </trkpt>
      <trkpt lat="37.0096330" lon="-2.2789090">
        <ele>1143.0</ele>
        <time>2019-10-18T12:54:31Z</time>
      </trkpt>
      <trkpt lat="37.0096260" lon="-2.2789570">
        <ele>1142.4</ele>
        <time>2019-10-18T12:54:32Z</time>
      </trkpt>
      <trkpt lat="37.0096210" lon="-2.2790060">
        <ele>1141.8</ele>
        <time>2019-10-18T12:54:33Z</time>
      </trkpt>
      <trkpt lat="37.0096180" lon="-2.2790540">
        <ele>1142.0</ele>
        <time>2019-10-18T12:54:34Z</time>
      </trkpt>
      <trkpt lat="37.0096200" lon="-2.2791020">
        <ele>1142.2</ele>
        <time>2019-10-18T12:54:35Z</time>
      </trkpt>
      <trkpt lat="37.0096280" lon="-2.2791460">
        <ele>1143.1</ele>
        <time>2019-10-18T12:54:36Z</time>
      </trkpt>
      <trkpt lat="37.0096380" lon="-2.2791860">
        <ele>1143.9</ele>
        <time>2019-10-18T12:54:37Z</time>
      </trkpt>
      <trkpt lat="37.0096500" lon="-2.2792230">
        <ele>1145.1</ele>
        <time>2019-10-18T12:54:38Z</time>
      </trkpt>
      <trkpt lat="37.0096640" lon="-2.2792600">
        <ele>1146.3</ele>
        <time>2019-10-18T12:54:39Z</time>
      </trkpt>
      <trkpt lat="37.0096800" lon="-2.2792950">
        <ele>1147.3</ele>
        <time>2019-10-18T12:54:40Z</time>
      </trkpt>
      <trkpt lat="37.0096980" lon="-2.2793310">
        <ele>1148.3</ele>
        <time>2019-10-18T12:54:41Z</time>
      </trkpt>
      <trkpt lat="37.0097160" lon="-2.2793640">
        <ele>1148.6</ele>
        <time>2019-10-18T12:54:42Z</time>
      </trkpt>
      <trkpt lat="37.0097360" lon="-2.2793960">
        <ele>1149.0</ele>
        <time>2019-10-18T12:54:43Z</time>
      </trkpt>
      <trkpt lat="37.0097550" lon="-2.2794280">
        <ele>1149.1</ele>
        <time>2019-10-18T12:54:44Z</time>
      </trkpt>
      <trkpt lat="37.0097750" lon="-2.2794600">
        <ele>1148.8</ele>
        <time>2019-10-18T12:54:45Z</time>
      </trkpt>
      <trkpt lat="37.0097970" lon="-2.2794910">
        <ele>1148.6</ele>
        <time>2019-10-18T12:54:46Z</time>
      </trkpt>
      <trkpt lat="37.0098200" lon="-2.2795180">
        <ele>1148.1</ele>
        <time>2019-10-18T12:54:47Z</time>
      </trkpt>
      <trkpt lat="37.0098450" lon="-2.2795420">
        <ele>1147.7</ele>
        <time>2019-10-18T12:54:48Z</time>
      </trkpt>
      <trkpt lat="37.0098710" lon="-2.2795630">
        <ele>1147.2</ele>
        <time>2019-10-18T12:54:49Z</time>
      </trkpt>
      <trkpt lat="37.0098970" lon="-2.2795830">
        <ele>1147.0</ele>
        <time>2019-10-18T12:54:50Z</time>
      </trkpt>
      <trkpt lat="37.0099230" lon="-2.2796020">
        <ele>1146.8</ele>
        <time>2019-10-18T12:54:51Z</time>
      </trkpt>
      <trkpt lat="37.0099490" lon="-2.2796190">
        <ele>1146.6</ele>
        <time>2019-10-18T12:54:52Z</time>
      </trkpt>
      <trkpt lat="37.0099750" lon="-2.2796350">
        <ele>1146.3</ele>
        <time>2019-10-18T12:54:53Z</time>
      </trkpt>
      <trkpt lat="37.0100010" lon="-2.2796500">
        <ele>1146.0</ele>
        <time>2019-10-18T12:54:54Z</time>
      </trkpt>
      <trkpt lat="37.0100260" lon="-2.2796660">
        <ele>1145.6</ele>
        <time>2019-10-18T12:54:55Z</time>
      </trkpt>
      <trkpt lat="37.0100510" lon="-2.2796820">
        <ele>1145.1</ele>
        <time>2019-10-18T12:54:56Z</time>
      </trkpt>
      <trkpt lat="37.0100760" lon="-2.2796980">
        <ele>1144.6</ele>
        <time>2019-10-18T12:54:57Z</time>
      </trkpt>
      <trkpt lat="37.0101010" lon="-2.2797120">
        <ele>1143.9</ele>
        <time>2019-10-18T12:54:58Z</time>
      </trkpt>
      <trkpt lat="37.0101260" lon="-2.2797270">
        <ele>1143.3</ele>
        <time>2019-10-18T12:54:59Z</time>
      </trkpt>
      <trkpt lat="37.0101500" lon="-2.2797430">
        <ele>1142.6</ele>
        <time>2019-10-18T12:55:00Z</time>
      </trkpt>
      <trkpt lat="37.0101740" lon="-2.2797610">
        <ele>1141.8</ele>
        <time>2019-10-18T12:55:01Z</time>
      </trkpt>
      <trkpt lat="37.0101980" lon="-2.2797800">
        <ele>1140.9</ele>
        <time>2019-10-18T12:55:02Z</time>
      </trkpt>
      <trkpt lat="37.0102220" lon="-2.2798000">
        <ele>1140.1</ele>
        <time>2019-10-18T12:55:03Z</time>
      </trkpt>
      <trkpt lat="37.0102450" lon="-2.2798200">
        <ele>1139.2</ele>
        <time>2019-10-18T12:55:04Z</time>
      </trkpt>
      <trkpt lat="37.0102680" lon="-2.2798420">
        <ele>1138.4</ele>
        <time>2019-10-18T12:55:05Z</time>
      </trkpt>
      <trkpt lat="37.0102900" lon="-2.2798660">
        <ele>1137.8</ele>
        <time>2019-10-18T12:55:06Z</time>
      </trkpt>
      <trkpt lat="37.0103090" lon="-2.2798920">
        <ele>1137.2</ele>
        <time>2019-10-18T12:55:07Z</time>
      </trkpt>
      <trkpt lat="37.0103260" lon="-2.2799190">
        <ele>1136.5</ele>
        <time>2019-10-18T12:55:08Z</time>
      </trkpt>
      <trkpt lat="37.0103400" lon="-2.2799490">
        <ele>1135.7</ele>
        <time>2019-10-18T12:55:09Z</time>
      </trkpt>
      <trkpt lat="37.0103510" lon="-2.2799810">
        <ele>1134.9</ele>
        <time>2019-10-18T12:55:10Z</time>
      </trkpt>
      <trkpt lat="37.0103600" lon="-2.2800150">
        <ele>1134.0</ele>
        <time>2019-10-18T12:55:11Z</time>
      </trkpt>
      <trkpt lat="37.0103660" lon="-2.2800510">
        <ele>1133.0</ele>
        <time>2019-10-18T12:55:12Z</time>
      </trkpt>
      <trkpt lat="37.0103710" lon="-2.2800900">
        <ele>1131.9</ele>
        <time>2019-10-18T12:55:13Z</time>
      </trkpt>
      <trkpt lat="37.0103740" lon="-2.2801290">
        <ele>1131.2</ele>
        <time>2019-10-18T12:55:14Z</time>
      </trkpt>
      <trkpt lat="37.0103750" lon="-2.2801700">
        <ele>1130.5</ele>
        <time>2019-10-18T12:55:15Z</time>
      </trkpt>
      <trkpt lat="37.0103750" lon="-2.2802100">
        <ele>1129.9</ele>
        <time>2019-10-18T12:55:16Z</time>
      </trkpt>
      <trkpt lat="37.0103760" lon="-2.2802510">
        <ele>1128.9</ele>
        <time>2019-10-18T12:55:17Z</time>
      </trkpt>
      <trkpt lat="37.0103780" lon="-2.2802920">
        <ele>1128.0</ele>
        <time>2019-10-18T12:55:18Z</time>
      </trkpt>
      <trkpt lat="37.0103790" lon="-2.2803320">
        <ele>1126.8</ele>
        <time>2019-10-18T12:55:19Z</time>
      </trkpt>
      <trkpt lat="37.0103780" lon="-2.2803730">
        <ele>1125.2</ele>
        <time>2019-10-18T12:55:20Z</time>
      </trkpt>
      <trkpt lat="37.0103770" lon="-2.2804130">
        <ele>1123.7</ele>
        <time>2019-10-18T12:55:21Z</time>
      </trkpt>
      <trkpt lat="37.0103760" lon="-2.2804540">
        <ele>1122.5</ele>
        <time>2019-10-18T12:55:22Z</time>
      </trkpt>
      <trkpt lat="37.0103780" lon="-2.2804930">
        <ele>1121.3</ele>
        <time>2019-10-18T12:55:23Z</time>
      </trkpt>
      <trkpt lat="37.0103810" lon="-2.2805320">
        <ele>1120.0</ele>
        <time>2019-10-18T12:55:24Z</time>
      </trkpt>
      <trkpt lat="37.0103850" lon="-2.2805710">
        <ele>1118.2</ele>
        <time>2019-10-18T12:55:25Z</time>
      </trkpt>
      <trkpt lat="37.0103900" lon="-2.2806090">
        <ele>1116.5</ele>
        <time>2019-10-18T12:55:26Z</time>
      </trkpt>
      <trkpt lat="37.0103940" lon="-2.2806480">
        <ele>1115.0</ele>
        <time>2019-10-18T12:55:27Z</time>
      </trkpt>
      <trkpt lat="37.0104000" lon="-2.2806870">
        <ele>1113.8</ele>
        <time>2019-10-18T12:55:28Z</time>
      </trkpt>
      <trkpt lat="37.0104060" lon="-2.2807270">
        <ele>1112.6</ele>
        <time>2019-10-18T12:55:29Z</time>
      </trkpt>
      <trkpt lat="37.0104130" lon="-2.2807650">
        <ele>1111.5</ele>
        <time>2019-10-18T12:55:30Z</time>
      </trkpt>
      <trkpt lat="37.0104220" lon="-2.2808030">
        <ele>1110.4</ele>
        <time>2019-10-18T12:55:31Z</time>
      </trkpt>
      <trkpt lat="37.0104320" lon="-2.2808410">
        <ele>1109.4</ele>
        <time>2019-10-18T12:55:32Z</time>
      </trkpt>
      <trkpt lat="37.0104450" lon="-2.2808770">
        <ele>1109.0</ele>
        <time>2019-10-18T12:55:33Z</time>
      </trkpt>
      <trkpt lat="37.0104570" lon="-2.2809130">
        <ele>1108.5</ele>
        <time>2019-10-18T12:55:34Z</time>
      </trkpt>
      <trkpt lat="37.0104680" lon="-2.2809490">
        <ele>1108.4</ele>
        <time>2019-10-18T12:55:35Z</time>
      </trkpt>
      <trkpt lat="37.0104800" lon="-2.2809860">
        <ele>1108.6</ele>
        <time>2019-10-18T12:55:36Z</time>
      </trkpt>
      <trkpt lat="37.0104930" lon="-2.2810210">
        <ele>1108.9</ele>
        <time>2019-10-18T12:55:37Z</time>
      </trkpt>
      <trkpt lat="37.0105070" lon="-2.2810580">
        <ele>1109.3</ele>
        <time>2019-10-18T12:55:38Z</time>
      </trkpt>
      <trkpt lat="37.0105220" lon="-2.2810950">
        <ele>1109.9</ele>
        <time>2019-10-18T12:55:39Z</time>
      </trkpt>
      <trkpt lat="37.0105360" lon="-2.2811320">
        <ele>1110.5</ele>
        <time>2019-10-18T12:55:40Z</time>
      </trkpt>
      <trkpt lat="37.0105520" lon="-2.2811700">
        <ele>1111.8</ele>
        <time>2019-10-18T12:55:41Z</time>
      </trkpt>
      <trkpt lat="37.0105670" lon="-2.2812070">
        <ele>1113.2</ele>
        <time>2019-10-18T12:55:42Z</time>
      </trkpt>
      <trkpt lat="37.0105820" lon="-2.2812450">
        <ele>1114.5</ele>
        <time>2019-10-18T12:55:43Z</time>
      </trkpt>
      <trkpt lat="37.0105970" lon="-2.2812820">
        <ele>1116.0</ele>
        <time>2019-10-18T12:55:44Z</time>
      </trkpt>
      <trkpt lat="37.0106110" lon="-2.2813190">
        <ele>1117.4</ele>
        <time>2019-10-18T12:55:45Z</time>
      </trkpt>
      <trkpt lat="37.0106260" lon="-2.2813560">
        <ele>1118.8</ele>
        <time>2019-10-18T12:55:46Z</time>
      </trkpt>
      <trkpt lat="37.0106400" lon="-2.2813930">
        <ele>1120.2</ele>
        <time>2019-10-18T12:55:47Z</time>
      </trkpt>
      <trkpt lat="37.0106550" lon="-2.2814300">
        <ele>1121.6</ele>
        <time>2019-10-18T12:55:48Z</time>
      </trkpt>
      <trkpt lat="37.0106710" lon="-2.2814660">
        <ele>1123.0</ele>
        <time>2019-10-18T12:55:49Z</time>
      </trkpt>
      <trkpt lat="37.0106860" lon="-2.2815030">
        <ele>1124.5</ele>
        <time>2019-10-18T12:55:50Z</time>
      </trkpt>
      <trkpt lat="37.0107010" lon="-2.2815410">
        <ele>1125.5</ele>
        <time>2019-10-18T12:55:51Z</time>
      </trkpt>
      <trkpt lat="37.0107170" lon="-2.2815790">
        <ele>1125.9</ele>
        <time>2019-10-18T12:55:52Z</time>
      </trkpt>
      <trkpt lat="37.0107330" lon="-2.2816170">
        <ele>1126.3</ele>
        <time>2019-10-18T12:55:53Z</time>
      </trkpt>
      <trkpt lat="37.0107490" lon="-2.2816540">
        <ele>1126.7</ele>
        <time>2019-10-18T12:55:54Z</time>
      </trkpt>
      <trkpt lat="37.0107630" lon="-2.2816910">
        <ele>1127.1</ele>
        <time>2019-10-18T12:55:55Z</time>
      </trkpt>
      <trkpt lat="37.0107760" lon="-2.2817290">
        <ele>1127.5</ele>
        <time>2019-10-18T12:55:56Z</time>
      </trkpt>
      <trkpt lat="37.0107910" lon="-2.2817660">
        <ele>1127.9</ele>
        <time>2019-10-18T12:55:57Z</time>
      </trkpt>
      <trkpt lat="37.0108060" lon="-2.2818010">
        <ele>1128.4</ele>
        <time>2019-10-18T12:55:58Z</time>
      </trkpt>
      <trkpt lat="37.0108210" lon="-2.2818360">
        <ele>1128.9</ele>
        <time>2019-10-18T12:55:59Z</time>
      </trkpt>
      <trkpt lat="37.0108370" lon="-2.2818730">
        <ele>1129.7</ele>
        <time>2019-10-18T12:56:00Z</time>
      </trkpt>
      <trkpt lat="37.0108520" lon="-2.2819090">
        <ele>1130.4</ele>
        <time>2019-10-18T12:56:01Z</time>
      </trkpt>
      <trkpt lat="37.0108650" lon="-2.2819470">
        <ele>1131.1</ele>
        <time>2019-10-18T12:56:02Z</time>
      </trkpt>
      <trkpt lat="37.0108780" lon="-2.2819850">
        <ele>1131.8</ele>
        <time>2019-10-18T12:56:03Z</time>
      </trkpt>
      <trkpt lat="37.0108890" lon="-2.2820230">
        <ele>1132.5</ele>
        <time>2019-10-18T12:56:04Z</time>
      </trkpt>
      <trkpt lat="37.0108980" lon="-2.2820630">
        <ele>1133.2</ele>
        <time>2019-10-18T12:56:05Z</time>
      </trkpt>
      <trkpt lat="37.0109050" lon="-2.2821040">
        <ele>1133.9</ele>
        <time>2019-10-18T12:56:06Z</time>
      </trkpt>
      <trkpt lat="37.0109100" lon="-2.2821450">
        <ele>1134.7</ele>
        <time>2019-10-18T12:56:07Z</time>
      </trkpt>
      <trkpt lat="37.0109130" lon="-2.2821860">
        <ele>1135.3</ele>
        <time>2019-10-18T12:56:08Z</time>
      </trkpt>
      <trkpt lat="37.0109130" lon="-2.2822270">
        <ele>1135.9</ele>
        <time>2019-10-18T12:56:09Z</time>
      </trkpt>
      <trkpt lat="37.0109120" lon="-2.2822690">
        <ele>1136.5</ele>
        <time>2019-10-18T12:56:10Z</time>
      </trkpt>
      <trkpt lat="37.0109120" lon="-2.2823110">
        <ele>1137.2</ele>
        <time>2019-10-18T12:56:11Z</time>
      </trkpt>
      <trkpt lat="37.0109110" lon="-2.2823530">
        <ele>1137.9</ele>
        <time>2019-10-18T12:56:12Z</time>
      </trkpt>
      <trkpt lat="37.0109080" lon="-2.2823940">
        <ele>1138.7</ele>
        <time>2019-10-18T12:56:13Z</time>
      </trkpt>
      <trkpt lat="37.0109010" lon="-2.2824340">
        <ele>1139.5</ele>
        <time>2019-10-18T12:56:14Z</time>
      </trkpt>
      <trkpt lat="37.0108900" lon="-2.2824740">
        <ele>1140.2</ele>
        <time>2019-10-18T12:56:15Z</time>
      </trkpt>
      <trkpt lat="37.0108780" lon="-2.2825140">
        <ele>1140.9</ele>
        <time>2019-10-18T12:56:16Z</time>
      </trkpt>
      <trkpt lat="37.0108660" lon="-2.2825540">
        <ele>1141.6</ele>
        <time>2019-10-18T12:56:17Z</time>
      </trkpt>
      <trkpt lat="37.0108530" lon="-2.2825930">
        <ele>1142.3</ele>
        <time>2019-10-18T12:56:18Z</time>
      </trkpt>
      <trkpt lat="37.0108400" lon="-2.2826320">
        <ele>1142.9</ele>
        <time>2019-10-18T12:56:19Z</time>
      </trkpt>
      <trkpt lat="37.0108260" lon="-2.2826700">
        <ele>1143.6</ele>
        <time>2019-10-18T12:56:20Z</time>
      </trkpt>
      <trkpt lat="37.0108100" lon="-2.2827060">
        <ele>1144.3</ele>
        <time>2019-10-18T12:56:21Z</time>
      </trkpt>
      <trkpt lat="37.0107930" lon="-2.2827400">
        <ele>1145.0</ele>
        <time>2019-10-18T12:56:22Z</time>
      </trkpt>
      <trkpt lat="37.0107760" lon="-2.2827740">
        <ele>1145.8</ele>
        <time>2019-10-18T12:56:23Z</time>
      </trkpt>
      <trkpt lat="37.0107580" lon="-2.2828050">
        <ele>1146.4</ele>
        <time>2019-10-18T12:56:24Z</time>
      </trkpt>
      <trkpt lat="37.0107400" lon="-2.2828370">
        <ele>1146.9</ele>
        <time>2019-10-18T12:56:25Z</time>
      </trkpt>
      <trkpt lat="37.0107240" lon="-2.2828680">
        <ele>1147.2</ele>
        <time>2019-10-18T12:56:26Z</time>
      </trkpt>
      <trkpt lat="37.0107080" lon="-2.2829000">
        <ele>1147.5</ele>
        <time>2019-10-18T12:56:27Z</time>
      </trkpt>
      <trkpt lat="37.0106920" lon="-2.2829320">
        <ele>1147.7</ele>
        <time>2019-10-18T12:56:28Z</time>
      </trkpt>
      <trkpt lat="37.0106750" lon="-2.2829630">
        <ele>1147.7</ele>
        <time>2019-10-18T12:56:29Z</time>
      </trkpt>
      <trkpt lat="37.0106560" lon="-2.2829930">
        <ele>1147.7</ele>
        <time>2019-10-18T12:56:30Z</time>
      </trkpt>
      <trkpt lat="37.0106370" lon="-2.2830230">
        <ele>1147.5</ele>
        <time>2019-10-18T12:56:31Z</time>
      </trkpt>
      <trkpt lat="37.0106180" lon="-2.2830530">
        <ele>1147.3</ele>
        <time>2019-10-18T12:56:32Z</time>
      </trkpt>
      <trkpt lat="37.0105980" lon="-2.2830830">
        <ele>1147.2</ele>
        <time>2019-10-18T12:56:33Z</time>
      </trkpt>
      <trkpt lat="37.0105780" lon="-2.2831130">
        <ele>1147.1</ele>
        <time>2019-10-18T12:56:34Z</time>
      </trkpt>
      <trkpt lat="37.0105580" lon="-2.2831430">
        <ele>1147.0</ele>
        <time>2019-10-18T12:56:35Z</time>
      </trkpt>
      <trkpt lat="37.0105380" lon="-2.2831730">
        <ele>1146.8</ele>
        <time>2019-10-18T12:56:36Z</time>
      </trkpt>
      <trkpt lat="37.0105180" lon="-2.2832030">
        <ele>1146.7</ele>
        <time>2019-10-18T12:56:37Z</time>
      </trkpt>
      <trkpt lat="37.0104980" lon="-2.2832320">
        <ele>1146.6</ele>
        <time>2019-10-18T12:56:38Z</time>
      </trkpt>
      <trkpt lat="37.0104780" lon="-2.2832620">
        <ele>1146.7</ele>
        <time>2019-10-18T12:56:39Z</time>
      </trkpt>
      <trkpt lat="37.0104570" lon="-2.2832920">
        <ele>1146.7</ele>
        <time>2019-10-18T12:56:40Z</time>
      </trkpt>
      <trkpt lat="37.0104370" lon="-2.2833220">
        <ele>1146.8</ele>
        <time>2019-10-18T12:56:41Z</time>
      </trkpt>
      <trkpt lat="37.0104150" lon="-2.2833520">
        <ele>1146.9</ele>
        <time>2019-10-18T12:56:42Z</time>
      </trkpt>
      <trkpt lat="37.0103930" lon="-2.2833830">
        <ele>1147.2</ele>
        <time>2019-10-18T12:56:43Z</time>
      </trkpt>
      <trkpt lat="37.0103710" lon="-2.2834130">
        <ele>1147.5</ele>
        <time>2019-10-18T12:56:44Z</time>
      </trkpt>
      <trkpt lat="37.0103500" lon="-2.2834450">
        <ele>1147.8</ele>
        <time>2019-10-18T12:56:45Z</time>
      </trkpt>
      <trkpt lat="37.0103290" lon="-2.2834770">
        <ele>1148.1</ele>
        <time>2019-10-18T12:56:46Z</time>
      </trkpt>
      <trkpt lat="37.0103090" lon="-2.2835080">
        <ele>1148.4</ele>
        <time>2019-10-18T12:56:47Z</time>
      </trkpt>
      <trkpt lat="37.0102890" lon="-2.2835400">
        <ele>1148.7</ele>
        <time>2019-10-18T12:56:48Z</time>
      </trkpt>
      <trkpt lat="37.0102690" lon="-2.2835710">
        <ele>1149.0</ele>
        <time>2019-10-18T12:56:49Z</time>
      </trkpt>
      <trkpt lat="37.0102500" lon="-2.2836010">
        <ele>1149.3</ele>
        <time>2019-10-18T12:56:50Z</time>
      </trkpt>
      <trkpt lat="37.0102310" lon="-2.2836320">
        <ele>1149.6</ele>
        <time>2019-10-18T12:56:51Z</time>
      </trkpt>
      <trkpt lat="37.0102130" lon="-2.2836640">
        <ele>1150.0</ele>
        <time>2019-10-18T12:56:52Z</time>
      </trkpt>
      <trkpt lat="37.0101970" lon="-2.2836970">
        <ele>1150.2</ele>
        <time>2019-10-18T12:56:53Z</time>
      </trkpt>
      <trkpt lat="37.0101800" lon="-2.2837300">
        <ele>1150.5</ele>
        <time>2019-10-18T12:56:54Z</time>
      </trkpt>
      <trkpt lat="37.0101640" lon="-2.2837630">
        <ele>1150.7</ele>
        <time>2019-10-18T12:56:55Z</time>
      </trkpt>
      <trkpt lat="37.0101480" lon="-2.2837950">
        <ele>1150.9</ele>
        <time>2019-10-18T12:56:56Z</time>
      </trkpt>
      <trkpt lat="37.0101330" lon="-2.2838280">
        <ele>1151.0</ele>
        <time>2019-10-18T12:56:57Z</time>
      </trkpt>
      <trkpt lat="37.0101190" lon="-2.2838620">
        <ele>1151.1</ele>
        <time>2019-10-18T12:56:58Z</time>
      </trkpt>
      <trkpt lat="37.0101050" lon="-2.2838960">
        <ele>1151.2</ele>
        <time>2019-10-18T12:56:59Z</time>
      </trkpt>
      <trkpt lat="37.0100910" lon="-2.2839300">
        <ele>1151.3</ele>
        <time>2019-10-18T12:57:00Z</time>
      </trkpt>
      <trkpt lat="37.0100760" lon="-2.2839640">
        <ele>1151.4</ele>
        <time>2019-10-18T12:57:01Z</time>
      </trkpt>
      <trkpt lat="37.0100620" lon="-2.2840000">
        <ele>1151.3</ele>
        <time>2019-10-18T12:57:02Z</time>
      </trkpt>
      <trkpt lat="37.0100490" lon="-2.2840370">
        <ele>1151.3</ele>
        <time>2019-10-18T12:57:03Z</time>
      </trkpt>
      <trkpt lat="37.0100370" lon="-2.2840760">
        <ele>1151.3</ele>
        <time>2019-10-18T12:57:04Z</time>
      </trkpt>
      <trkpt lat="37.0100240" lon="-2.2841150">
        <ele>1151.2</ele>
        <time>2019-10-18T12:57:05Z</time>
      </trkpt>
      <trkpt lat="37.0100100" lon="-2.2841540">
        <ele>1151.2</ele>
        <time>2019-10-18T12:57:06Z</time>
      </trkpt>
      <trkpt lat="37.0099960" lon="-2.2841940">
        <ele>1151.2</ele>
        <time>2019-10-18T12:57:07Z</time>
      </trkpt>
      <trkpt lat="37.0099820" lon="-2.2842340">
        <ele>1151.2</ele>
        <time>2019-10-18T12:57:08Z</time>
      </trkpt>
      <trkpt lat="37.0099680" lon="-2.2842760">
        <ele>1151.2</ele>
        <time>2019-10-18T12:57:09Z</time>
      </trkpt>
      <trkpt lat="37.0099550" lon="-2.2843200">
        <ele>1151.2</ele>
        <time>2019-10-18T12:57:10Z</time>
      </trkpt>
      <trkpt lat="37.0099420" lon="-2.2843640">
        <ele>1151.2</ele>
        <time>2019-10-18T12:57:11Z</time>
      </trkpt>
      <trkpt lat="37.0099310" lon="-2.2844100">
        <ele>1151.2</ele>
        <time>2019-10-18T12:57:12Z</time>
      </trkpt>
      <trkpt lat="37.0099220" lon="-2.2844560">
        <ele>1151.2</ele>
        <time>2019-10-18T12:57:13Z</time>
      </trkpt>
      <trkpt lat="37.0099140" lon="-2.2845050">
        <ele>1151.2</ele>
        <time>2019-10-18T12:57:14Z</time>
      </trkpt>
      <trkpt lat="37.0099080" lon="-2.2845550">
        <ele>1151.2</ele>
        <time>2019-10-18T12:57:15Z</time>
      </trkpt>
      <trkpt lat="37.0099050" lon="-2.2846070">
        <ele>1151.3</ele>
        <time>2019-10-18T12:57:16Z</time>
      </trkpt>
      <trkpt lat="37.0099010" lon="-2.2846600">
        <ele>1151.4</ele>
        <time>2019-10-18T12:57:17Z</time>
      </trkpt>
      <trkpt lat="37.0098970" lon="-2.2847150">
        <ele>1151.5</ele>
        <time>2019-10-18T12:57:18Z</time>
      </trkpt>
      <trkpt lat="37.0098930" lon="-2.2847710">
        <ele>1151.6</ele>
        <time>2019-10-18T12:57:19Z</time>
      </trkpt>
      <trkpt lat="37.0098890" lon="-2.2848290">
        <ele>1151.7</ele>
        <time>2019-10-18T12:57:20Z</time>
      </trkpt>
      <trkpt lat="37.0098860" lon="-2.2848890">
        <ele>1151.9</ele>
        <time>2019-10-18T12:57:21Z</time>
      </trkpt>
      <trkpt lat="37.0098820" lon="-2.2849520">
        <ele>1152.2</ele>
        <time>2019-10-18T12:57:22Z</time>
      </trkpt>
      <trkpt lat="37.0098770" lon="-2.2850160">
        <ele>1152.4</ele>
        <time>2019-10-18T12:57:23Z</time>
      </trkpt>
      <trkpt lat="37.0098710" lon="-2.2850830">
        <ele>1152.6</ele>
        <time>2019-10-18T12:57:24Z</time>
      </trkpt>
      <trkpt lat="37.0098620" lon="-2.2851510">
        <ele>1152.9</ele>
        <time>2019-10-18T12:57:25Z</time>
      </trkpt>
      <trkpt lat="37.0098530" lon="-2.2852200">
        <ele>1152.7</ele>
        <time>2019-10-18T12:57:26Z</time>
      </trkpt>
      <trkpt lat="37.0098420" lon="-2.2852900">
        <ele>1152.5</ele>
        <time>2019-10-18T12:57:27Z</time>
      </trkpt>
      <trkpt lat="37.0098300" lon="-2.2853600">
        <ele>1152.5</ele>
        <time>2019-10-18T12:57:28Z</time>
      </trkpt>
      <trkpt lat="37.0098170" lon="-2.2854300">
        <ele>1152.2</ele>
        <time>2019-10-18T12:57:29Z</time>
      </trkpt>
      <trkpt lat="37.0098050" lon="-2.2855010">
        <ele>1152.1</ele>
        <time>2019-10-18T12:57:30Z</time>
      </trkpt>
      <trkpt lat="37.0097920" lon="-2.2855730">
        <ele>1152.0</ele>
        <time>2019-10-18T12:57:31Z</time>
      </trkpt>
      <trkpt lat="37.0097790" lon="-2.2856450">
        <ele>1151.6</ele>
        <time>2019-10-18T12:57:32Z</time>
      </trkpt>
      <trkpt lat="37.0097640" lon="-2.2857180">
        <ele>1151.7</ele>
        <time>2019-10-18T12:57:33Z</time>
      </trkpt>
      <trkpt lat="37.0097470" lon="-2.2857910">
        <ele>1151.5</ele>
        <time>2019-10-18T12:57:34Z</time>
      </trkpt>
      <trkpt lat="37.0097290" lon="-2.2858620">
        <ele>1151.3</ele>
        <time>2019-10-18T12:57:35Z</time>
      </trkpt>
      <trkpt lat="37.0097070" lon="-2.2859310">
        <ele>1151.2</ele>
        <time>2019-10-18T12:57:36Z</time>
      </trkpt>
      <trkpt lat="37.0096840" lon="-2.2859980">
        <ele>1151.1</ele>
        <time>2019-10-18T12:57:37Z</time>
      </trkpt>
      <trkpt lat="37.0096590" lon="-2.2860610">
        <ele>1151.1</ele>
        <time>2019-10-18T12:57:38Z</time>
      </trkpt>
      <trkpt lat="37.0096320" lon="-2.2861200">
        <ele>1150.7</ele>
        <time>2019-10-18T12:57:39Z</time>
      </trkpt>
      <trkpt lat="37.0096050" lon="-2.2861750">
        <ele>1150.2</ele>
        <time>2019-10-18T12:57:40Z</time>
      </trkpt>
      <trkpt lat="37.0095770" lon="-2.2862260">
        <ele>1151.1</ele>
        <time>2019-10-18T12:57:41Z</time>
      </trkpt>
      <trkpt lat="37.0095510" lon="-2.2862730">
        <ele>1151.4</ele>
        <time>2019-10-18T12:57:42Z</time>
      </trkpt>
      <trkpt lat="37.0095260" lon="-2.2863150">
        <ele>1151.3</ele>
        <time>2019-10-18T12:57:43Z</time>
      </trkpt>
      <trkpt lat="37.0095020" lon="-2.2863520">
        <ele>1151.1</ele>
        <time>2019-10-18T12:57:44Z</time>
      </trkpt>
      <trkpt lat="37.0094780" lon="-2.2863860">
        <ele>1151.0</ele>
        <time>2019-10-18T12:57:45Z</time>
      </trkpt>
      <trkpt lat="37.0094540" lon="-2.2864160">
        <ele>1151.7</ele>
        <time>2019-10-18T12:57:46Z</time>
      </trkpt>
      <trkpt lat="37.0094290" lon="-2.2864420">
        <ele>1152.3</ele>
        <time>2019-10-18T12:57:47Z</time>
      </trkpt>
      <trkpt lat="37.0094020" lon="-2.2864640">
        <ele>1152.5</ele>
        <time>2019-10-18T12:57:48Z</time>
      </trkpt>
      <trkpt lat="37.0093750" lon="-2.2864820">
        <ele>1152.6</ele>
        <time>2019-10-18T12:57:49Z</time>
      </trkpt>
      <trkpt lat="37.0093490" lon="-2.2864950">
        <ele>1153.2</ele>
        <time>2019-10-18T12:57:50Z</time>
      </trkpt>
      <trkpt lat="37.0093230" lon="-2.2865010">
        <ele>1154.1</ele>
        <time>2019-10-18T12:57:51Z</time>
      </trkpt>
      <trkpt lat="37.0092960" lon="-2.2865000">
        <ele>1154.9</ele>
        <time>2019-10-18T12:57:52Z</time>
      </trkpt>
      <trkpt lat="37.0092710" lon="-2.2864920">
        <ele>1155.9</ele>
        <time>2019-10-18T12:57:53Z</time>
      </trkpt>
      <trkpt lat="37.0092450" lon="-2.2864780">
        <ele>1157.0</ele>
        <time>2019-10-18T12:57:54Z</time>
      </trkpt>
      <trkpt lat="37.0092210" lon="-2.2864570">
        <ele>1158.3</ele>
        <time>2019-10-18T12:57:55Z</time>
      </trkpt>
      <trkpt lat="37.0092000" lon="-2.2864310">
        <ele>1159.0</ele>
        <time>2019-10-18T12:57:56Z</time>
      </trkpt>
      <trkpt lat="37.0091830" lon="-2.2864010">
        <ele>1159.6</ele>
        <time>2019-10-18T12:57:57Z</time>
      </trkpt>
      <trkpt lat="37.0091680" lon="-2.2863680">
        <ele>1160.2</ele>
        <time>2019-10-18T12:57:58Z</time>
      </trkpt>
      <trkpt lat="37.0091540" lon="-2.2863360">
        <ele>1160.9</ele>
        <time>2019-10-18T12:57:59Z</time>
      </trkpt>
      <trkpt lat="37.0091390" lon="-2.2863050">
        <ele>1161.5</ele>
        <time>2019-10-18T12:58:00Z</time>
      </trkpt>
      <trkpt lat="37.0091250" lon="-2.2862750">
        <ele>1162.1</ele>
        <time>2019-10-18T12:58:01Z</time>
      </trkpt>
      <trkpt lat="37.0091120" lon="-2.2862460">
        <ele>1162.6</ele>
        <time>2019-10-18T12:58:02Z</time>
      </trkpt>
      <trkpt lat="37.0091010" lon="-2.2862190">
        <ele>1163.1</ele>
        <time>2019-10-18T12:58:03Z</time>
      </trkpt>
      <trkpt lat="37.0090930" lon="-2.2861930">
        <ele>1163.5</ele>
        <time>2019-10-18T12:58:04Z</time>
      </trkpt>
      <trkpt lat="37.0090860" lon="-2.2861680">
        <ele>1163.8</ele>
        <time>2019-10-18T12:58:05Z</time>
      </trkpt>
      <trkpt lat="37.0090810" lon="-2.2861410">
        <ele>1164.0</ele>
        <time>2019-10-18T12:58:06Z</time>
      </trkpt>
      <trkpt lat="37.0090770" lon="-2.2861140">
        <ele>1164.1</ele>
        <time>2019-10-18T12:58:07Z</time>
      </trkpt>
      <trkpt lat="37.0090730" lon="-2.2860860">
        <ele>1164.3</ele>
        <time>2019-10-18T12:58:08Z</time>
      </trkpt>
      <trkpt lat="37.0090680" lon="-2.2860600">
        <ele>1164.6</ele>
        <time>2019-10-18T12:58:09Z</time>
      </trkpt>
      <trkpt lat="37.0090620" lon="-2.2860340">
        <ele>1164.9</ele>
        <time>2019-10-18T12:58:10Z</time>
      </trkpt>
      <trkpt lat="37.0090550" lon="-2.2860080">
        <ele>1165.2</ele>
        <time>2019-10-18T12:58:11Z</time>
      </trkpt>
      <trkpt lat="37.0090480" lon="-2.2859820">
        <ele>1165.5</ele>
        <time>2019-10-18T12:58:12Z</time>
      </trkpt>
      <trkpt lat="37.0090400" lon="-2.2859570">
        <ele>1165.7</ele>
        <time>2019-10-18T12:58:13Z</time>
      </trkpt>
      <trkpt lat="37.0090330" lon="-2.2859310">
        <ele>1166.0</ele>
        <time>2019-10-18T12:58:14Z</time>
      </trkpt>
      <trkpt lat="37.0090270" lon="-2.2859050">
        <ele>1166.2</ele>
        <time>2019-10-18T12:58:15Z</time>
      </trkpt>
      <trkpt lat="37.0090190" lon="-2.2858790">
        <ele>1166.4</ele>
        <time>2019-10-18T12:58:16Z</time>
      </trkpt>
      <trkpt lat="37.0090120" lon="-2.2858530">
        <ele>1166.6</ele>
        <time>2019-10-18T12:58:17Z</time>
      </trkpt>
      <trkpt lat="37.0090040" lon="-2.2858270">
        <ele>1166.8</ele>
        <time>2019-10-18T12:58:18Z</time>
      </trkpt>
      <trkpt lat="37.0089980" lon="-2.2858010">
        <ele>1166.9</ele>
        <time>2019-10-18T12:58:19Z</time>
      </trkpt>
      <trkpt lat="37.0089920" lon="-2.2857740">
        <ele>1167.0</ele>
        <time>2019-10-18T12:58:20Z</time>
      </trkpt>
      <trkpt lat="37.0089860" lon="-2.2857470">
        <ele>1167.0</ele>
        <time>2019-10-18T12:58:21Z</time>
      </trkpt>
      <trkpt lat="37.0089800" lon="-2.2857200">
        <ele>1166.9</ele>
        <time>2019-10-18T12:58:22Z</time>
      </trkpt>
      <trkpt lat="37.0089720" lon="-2.2856930">
        <ele>1166.8</ele>
        <time>2019-10-18T12:58:23Z</time>
      </trkpt>
      <trkpt lat="37.0089640" lon="-2.2856670">
        <ele>1166.9</ele>
        <time>2019-10-18T12:58:24Z</time>
      </trkpt>
      <trkpt lat="37.0089550" lon="-2.2856410">
        <ele>1166.9</ele>
        <time>2019-10-18T12:58:25Z</time>
      </trkpt>
      <trkpt lat="37.0089450" lon="-2.2856160">
        <ele>1167.0</ele>
        <time>2019-10-18T12:58:26Z</time>
      </trkpt>
      <trkpt lat="37.0089360" lon="-2.2855900">
        <ele>1167.1</ele>
        <time>2019-10-18T12:58:27Z</time>
      </trkpt>
      <trkpt lat="37.0089290" lon="-2.2855650">
        <ele>1167.3</ele>
        <time>2019-10-18T12:58:28Z</time>
      </trkpt>
      <trkpt lat="37.0089220" lon="-2.2855390">
        <ele>1167.5</ele>
        <time>2019-10-18T12:58:29Z</time>
      </trkpt>
      <trkpt lat="37.0089140" lon="-2.2855130">
        <ele>1167.7</ele>
        <time>2019-10-18T12:58:30Z</time>
      </trkpt>
      <trkpt lat="37.0089060" lon="-2.2854870">
        <ele>1167.9</ele>
        <time>2019-10-18T12:58:31Z</time>
      </trkpt>
      <trkpt lat="37.0088960" lon="-2.2854620">
        <ele>1167.7</ele>
        <time>2019-10-18T12:58:32Z</time>
      </trkpt>
      <trkpt lat="37.0088870" lon="-2.2854360">
        <ele>1167.6</ele>
        <time>2019-10-18T12:58:33Z</time>
      </trkpt>
      <trkpt lat="37.0088770" lon="-2.2854100">
        <ele>1167.4</ele>
        <time>2019-10-18T12:58:34Z</time>
      </trkpt>
      <trkpt lat="37.0088670" lon="-2.2853840">
        <ele>1167.2</ele>
        <time>2019-10-18T12:58:35Z</time>
      </trkpt>
      <trkpt lat="37.0088560" lon="-2.2853580">
        <ele>1167.1</ele>
        <time>2019-10-18T12:58:36Z</time>
      </trkpt>
      <trkpt lat="37.0088430" lon="-2.2853330">
        <ele>1166.9</ele>
        <time>2019-10-18T12:58:37Z</time>
      </trkpt>
      <trkpt lat="37.0088290" lon="-2.2853080">
        <ele>1166.8</ele>
        <time>2019-10-18T12:58:38Z</time>
      </trkpt>
      <trkpt lat="37.0088160" lon="-2.2852830">
        <ele>1166.6</ele>
        <time>2019-10-18T12:58:39Z</time>
      </trkpt>
      <trkpt lat="37.0088030" lon="-2.2852570">
        <ele>1166.3</ele>
        <time>2019-10-18T12:58:40Z</time>
      </trkpt>
      <trkpt lat="37.0087910" lon="-2.2852300">
        <ele>1166.0</ele>
        <time>2019-10-18T12:58:41Z</time>
      </trkpt>
      <trkpt lat="37.0087810" lon="-2.2852020">
        <ele>1165.7</ele>
        <time>2019-10-18T12:58:42Z</time>
      </trkpt>
      <trkpt lat="37.0087690" lon="-2.2851740">
        <ele>1165.5</ele>
        <time>2019-10-18T12:58:43Z</time>
      </trkpt>
      <trkpt lat="37.0087580" lon="-2.2851460">
        <ele>1165.4</ele>
        <time>2019-10-18T12:58:44Z</time>
      </trkpt>
      <trkpt lat="37.0087470" lon="-2.2851190">
        <ele>1165.4</ele>
        <time>2019-10-18T12:58:45Z</time>
      </trkpt>
      <trkpt lat="37.0087360" lon="-2.2850910">
        <ele>1165.3</ele>
        <time>2019-10-18T12:58:46Z</time>
      </trkpt>
      <trkpt lat="37.0087240" lon="-2.2850650">
        <ele>1164.8</ele>
        <time>2019-10-18T12:58:47Z</time>
      </trkpt>
      <trkpt lat="37.0087120" lon="-2.2850380">
        <ele>1164.4</ele>
        <time>2019-10-18T12:58:48Z</time>
      </trkpt>
      <trkpt lat="37.0087000" lon="-2.2850120">
        <ele>1164.0</ele>
        <time>2019-10-18T12:58:49Z</time>
      </trkpt>
      <trkpt lat="37.0086870" lon="-2.2849860">
        <ele>1163.8</ele>
        <time>2019-10-18T12:58:50Z</time>
      </trkpt>
      <trkpt lat="37.0086740" lon="-2.2849610">
        <ele>1163.7</ele>
        <time>2019-10-18T12:58:51Z</time>
      </trkpt>
      <trkpt lat="37.0086600" lon="-2.2849350">
        <ele>1163.6</ele>
        <time>2019-10-18T12:58:52Z</time>
      </trkpt>
      <trkpt lat="37.0086470" lon="-2.2849090">
        <ele>1163.5</ele>
        <time>2019-10-18T12:58:53Z</time>
      </trkpt>
      <trkpt lat="37.0086350" lon="-2.2848820">
        <ele>1163.4</ele>
        <time>2019-10-18T12:58:54Z</time>
      </trkpt>
      <trkpt lat="37.0086230" lon="-2.2848560">
        <ele>1163.4</ele>
        <time>2019-10-18T12:58:55Z</time>
      </trkpt>
      <trkpt lat="37.0086110" lon="-2.2848300">
        <ele>1163.4</ele>
        <time>2019-10-18T12:58:56Z</time>
      </trkpt>
      <trkpt lat="37.0086000" lon="-2.2848040">
        <ele>1163.3</ele>
        <time>2019-10-18T12:58:57Z</time>
      </trkpt>
      <trkpt lat="37.0085890" lon="-2.2847780">
        <ele>1163.1</ele>
        <time>2019-10-18T12:58:58Z</time>
      </trkpt>
      <trkpt lat="37.0085780" lon="-2.2847520">
        <ele>1163.0</ele>
        <time>2019-10-18T12:58:59Z</time>
      </trkpt>
      <trkpt lat="37.0085670" lon="-2.2847260">
        <ele>1162.8</ele>
        <time>2019-10-18T12:59:00Z</time>
      </trkpt>
      <trkpt lat="37.0085560" lon="-2.2847000">
        <ele>1162.9</ele>
        <time>2019-10-18T12:59:01Z</time>
      </trkpt>
      <trkpt lat="37.0085450" lon="-2.2846740">
        <ele>1163.1</ele>
        <time>2019-10-18T12:59:02Z</time>
      </trkpt>
      <trkpt lat="37.0085350" lon="-2.2846490">
        <ele>1163.4</ele>
        <time>2019-10-18T12:59:03Z</time>
      </trkpt>
      <trkpt lat="37.0085230" lon="-2.2846240">
        <ele>1163.7</ele>
        <time>2019-10-18T12:59:04Z</time>
      </trkpt>
      <trkpt lat="37.0085130" lon="-2.2845990">
        <ele>1163.9</ele>
        <time>2019-10-18T12:59:05Z</time>
      </trkpt>
      <trkpt lat="37.0085020" lon="-2.2845750">
        <ele>1164.0</ele>
        <time>2019-10-18T12:59:06Z</time>
      </trkpt>
      <trkpt lat="37.0084930" lon="-2.2845510">
        <ele>1164.1</ele>
        <time>2019-10-18T12:59:07Z</time>
      </trkpt>
      <trkpt lat="37.0084810" lon="-2.2845280">
        <ele>1164.3</ele>
        <time>2019-10-18T12:59:08Z</time>
      </trkpt>
      <trkpt lat="37.0084670" lon="-2.2845070">
        <ele>1164.6</ele>
        <time>2019-10-18T12:59:09Z</time>
      </trkpt>
      <trkpt lat="37.0084510" lon="-2.2844910">
        <ele>1164.9</ele>
        <time>2019-10-18T12:59:10Z</time>
      </trkpt>
      <trkpt lat="37.0084340" lon="-2.2844790">
        <ele>1165.1</ele>
        <time>2019-10-18T12:59:11Z</time>
      </trkpt>
      <trkpt lat="37.0084160" lon="-2.2844730">
        <ele>1165.6</ele>
        <time>2019-10-18T12:59:12Z</time>
      </trkpt>
      <trkpt lat="37.0083970" lon="-2.2844740">
        <ele>1166.4</ele>
        <time>2019-10-18T12:59:13Z</time>
      </trkpt>
      <trkpt lat="37.0083790" lon="-2.2844830">
        <ele>1167.1</ele>
        <time>2019-10-18T12:59:14Z</time>
      </trkpt>
      <trkpt lat="37.0083650" lon="-2.2844970">
        <ele>1167.8</ele>
        <time>2019-10-18T12:59:15Z</time>
      </trkpt>
      <trkpt lat="37.0083540" lon="-2.2845160">
        <ele>1168.6</ele>
        <time>2019-10-18T12:59:16Z</time>
      </trkpt>
      <trkpt lat="37.0083470" lon="-2.2845380">
        <ele>1169.0</ele>
        <time>2019-10-18T12:59:17Z</time>
      </trkpt>
      <trkpt lat="37.0083440" lon="-2.2845620">
        <ele>1169.2</ele>
        <time>2019-10-18T12:59:18Z</time>
      </trkpt>
      <trkpt lat="37.0083440" lon="-2.2845870">
        <ele>1169.7</ele>
        <time>2019-10-18T12:59:19Z</time>
      </trkpt>
      <trkpt lat="37.0083470" lon="-2.2846130">
        <ele>1170.8</ele>
        <time>2019-10-18T12:59:20Z</time>
      </trkpt>
      <trkpt lat="37.0083500" lon="-2.2846390">
        <ele>1171.8</ele>
        <time>2019-10-18T12:59:21Z</time>
      </trkpt>
      <trkpt lat="37.0083540" lon="-2.2846650">
        <ele>1171.9</ele>
        <time>2019-10-18T12:59:22Z</time>
      </trkpt>
      <trkpt lat="37.0083590" lon="-2.2846920">
        <ele>1171.9</ele>
        <time>2019-10-18T12:59:23Z</time>
      </trkpt>
      <trkpt lat="37.0083640" lon="-2.2847180">
        <ele>1171.8</ele>
        <time>2019-10-18T12:59:24Z</time>
      </trkpt>
      <trkpt lat="37.0083690" lon="-2.2847450">
        <ele>1172.0</ele>
        <time>2019-10-18T12:59:25Z</time>
      </trkpt>
      <trkpt lat="37.0083730" lon="-2.2847720">
        <ele>1172.3</ele>
        <time>2019-10-18T12:59:26Z</time>
      </trkpt>
      <trkpt lat="37.0083780" lon="-2.2847990">
        <ele>1172.6</ele>
        <time>2019-10-18T12:59:27Z</time>
      </trkpt>
      <trkpt lat="37.0083850" lon="-2.2848260">
        <ele>1172.8</ele>
        <time>2019-10-18T12:59:28Z</time>
      </trkpt>
      <trkpt lat="37.0083910" lon="-2.2848530">
        <ele>1172.7</ele>
        <time>2019-10-18T12:59:29Z</time>
      </trkpt>
      <trkpt lat="37.0083960" lon="-2.2848800">
        <ele>1172.7</ele>
        <time>2019-10-18T12:59:30Z</time>
      </trkpt>
      <trkpt lat="37.0084020" lon="-2.2849080">
        <ele>1172.7</ele>
        <time>2019-10-18T12:59:31Z</time>
      </trkpt>
      <trkpt lat="37.0084080" lon="-2.2849360">
        <ele>1173.1</ele>
        <time>2019-10-18T12:59:32Z</time>
      </trkpt>
      <trkpt lat="37.0084130" lon="-2.2849650">
        <ele>1173.5</ele>
        <time>2019-10-18T12:59:33Z</time>
      </trkpt>
      <trkpt lat="37.0084170" lon="-2.2849940">
        <ele>1173.8</ele>
        <time>2019-10-18T12:59:34Z</time>
      </trkpt>
      <trkpt lat="37.0084210" lon="-2.2850240">
        <ele>1173.9</ele>
        <time>2019-10-18T12:59:35Z</time>
      </trkpt>
      <trkpt lat="37.0084240" lon="-2.2850540">
        <ele>1174.0</ele>
        <time>2019-10-18T12:59:36Z</time>
      </trkpt>
      <trkpt lat="37.0084270" lon="-2.2850840">
        <ele>1174.1</ele>
        <time>2019-10-18T12:59:37Z</time>
      </trkpt>
      <trkpt lat="37.0084280" lon="-2.2851130">
        <ele>1174.5</ele>
        <time>2019-10-18T12:59:38Z</time>
      </trkpt>
      <trkpt lat="37.0084300" lon="-2.2851420">
        <ele>1174.8</ele>
        <time>2019-10-18T12:59:39Z</time>
      </trkpt>
      <trkpt lat="37.0084340" lon="-2.2851700">
        <ele>1175.2</ele>
        <time>2019-10-18T12:59:40Z</time>
      </trkpt>
      <trkpt lat="37.0084380" lon="-2.2851960">
        <ele>1175.6</ele>
        <time>2019-10-18T12:59:41Z</time>
      </trkpt>
      <trkpt lat="37.0084410" lon="-2.2852220">
        <ele>1176.2</ele>
        <time>2019-10-18T12:59:42Z</time>
      </trkpt>
      <trkpt lat="37.0084430" lon="-2.2852480">
        <ele>1176.7</ele>
        <time>2019-10-18T12:59:43Z</time>
      </trkpt>
      <trkpt lat="37.0084460" lon="-2.2852740">
        <ele>1177.3</ele>
        <time>2019-10-18T12:59:44Z</time>
      </trkpt>
      <trkpt lat="37.0084490" lon="-2.2853010">
        <ele>1177.6</ele>
        <time>2019-10-18T12:59:45Z</time>
      </trkpt>
      <trkpt lat="37.0084520" lon="-2.2853280">
        <ele>1177.9</ele>
        <time>2019-10-18T12:59:46Z</time>
      </trkpt>
      <trkpt lat="37.0084540" lon="-2.2853540">
        <ele>1178.2</ele>
        <time>2019-10-18T12:59:47Z</time>
      </trkpt>
      <trkpt lat="37.0084540" lon="-2.2853820">
        <ele>1178.4</ele>
        <time>2019-10-18T12:59:48Z</time>
      </trkpt>
      <trkpt lat="37.0084550" lon="-2.2854090">
        <ele>1178.7</ele>
        <time>2019-10-18T12:59:49Z</time>
      </trkpt>
      <trkpt lat="37.0084550" lon="-2.2854370">
        <ele>1178.9</ele>
        <time>2019-10-18T12:59:50Z</time>
      </trkpt>
      <trkpt lat="37.0084540" lon="-2.2854640">
        <ele>1179.1</ele>
        <time>2019-10-18T12:59:51Z</time>
      </trkpt>
      <trkpt lat="37.0084510" lon="-2.2854920">
        <ele>1179.3</ele>
        <time>2019-10-18T12:59:52Z</time>
      </trkpt>
      <trkpt lat="37.0084480" lon="-2.2855200">
        <ele>1179.5</ele>
        <time>2019-10-18T12:59:53Z</time>
      </trkpt>
      <trkpt lat="37.0084440" lon="-2.2855490">
        <ele>1179.7</ele>
        <time>2019-10-18T12:59:54Z</time>
      </trkpt>
      <trkpt lat="37.0084380" lon="-2.2855770">
        <ele>1179.9</ele>
        <time>2019-10-18T12:59:55Z</time>
      </trkpt>
      <trkpt lat="37.0084320" lon="-2.2856060">
        <ele>1180.0</ele>
        <time>2019-10-18T12:59:56Z</time>
      </trkpt>
      <trkpt lat="37.0084250" lon="-2.2856350">
        <ele>1180.0</ele>
        <time>2019-10-18T12:59:57Z</time>
      </trkpt>
      <trkpt lat="37.0084180" lon="-2.2856640">
        <ele>1180.1</ele>
        <time>2019-10-18T12:59:58Z</time>
      </trkpt>
      <trkpt lat="37.0084100" lon="-2.2856920">
        <ele>1180.1</ele>
        <time>2019-10-18T12:59:59Z</time>
      </trkpt>
      <trkpt lat="37.0084030" lon="-2.2857200">
        <ele>1180.4</ele>
        <time>2019-10-18T13:00:00Z</time>
      </trkpt>
      <trkpt lat="37.0083960" lon="-2.2857480">
        <ele>1180.6</ele>
        <time>2019-10-18T13:00:01Z</time>
      </trkpt>
      <trkpt lat="37.0083880" lon="-2.2857750">
        <ele>1180.8</ele>
        <time>2019-10-18T13:00:02Z</time>
      </trkpt>
      <trkpt lat="37.0083800" lon="-2.2858020">
        <ele>1181.0</ele>
        <time>2019-10-18T13:00:03Z</time>
      </trkpt>
      <trkpt lat="37.0083720" lon="-2.2858300">
        <ele>1181.0</ele>
        <time>2019-10-18T13:00:04Z</time>
      </trkpt>
      <trkpt lat="37.0083660" lon="-2.2858580">
        <ele>1180.9</ele>
        <time>2019-10-18T13:00:05Z</time>
      </trkpt>
      <trkpt lat="37.0083620" lon="-2.2858870">
        <ele>1180.9</ele>
        <time>2019-10-18T13:00:06Z</time>
      </trkpt>
      <trkpt lat="37.0083570" lon="-2.2859160">
        <ele>1181.0</ele>
        <time>2019-10-18T13:00:07Z</time>
      </trkpt>
      <trkpt lat="37.0083520" lon="-2.2859440">
        <ele>1181.1</ele>
        <time>2019-10-18T13:00:08Z</time>
      </trkpt>
      <trkpt lat="37.0083470" lon="-2.2859730">
        <ele>1181.3</ele>
        <time>2019-10-18T13:00:09Z</time>
      </trkpt>
      <trkpt lat="37.0083400" lon="-2.2860010">
        <ele>1181.5</ele>
        <time>2019-10-18T13:00:10Z</time>
      </trkpt>
      <trkpt lat="37.0083340" lon="-2.2860310">
        <ele>1181.7</ele>
        <time>2019-10-18T13:00:11Z</time>
      </trkpt>
      <trkpt lat="37.0083280" lon="-2.2860600">
        <ele>1181.8</ele>
        <time>2019-10-18T13:00:12Z</time>
      </trkpt>
      <trkpt lat="37.0083230" lon="-2.2860890">
        <ele>1182.0</ele>
        <time>2019-10-18T13:00:13Z</time>
      </trkpt>
      <trkpt lat="37.0083190" lon="-2.2861180">
        <ele>1182.2</ele>
        <time>2019-10-18T13:00:14Z</time>
      </trkpt>
      <trkpt lat="37.0083130" lon="-2.2861470">
        <ele>1182.0</ele>
        <time>2019-10-18T13:00:15Z</time>
      </trkpt>
      <trkpt lat="37.0083070" lon="-2.2861750">
        <ele>1181.7</ele>
        <time>2019-10-18T13:00:16Z</time>
      </trkpt>
      <trkpt lat="37.0083000" lon="-2.2862020">
        <ele>1181.5</ele>
        <time>2019-10-18T13:00:17Z</time>
      </trkpt>
      <trkpt lat="37.0082950" lon="-2.2862300">
        <ele>1181.3</ele>
        <time>2019-10-18T13:00:18Z</time>
      </trkpt>
      <trkpt lat="37.0082910" lon="-2.2862580">
        <ele>1181.1</ele>
        <time>2019-10-18T13:00:19Z</time>
      </trkpt>
      <trkpt lat="37.0082880" lon="-2.2862850">
        <ele>1180.9</ele>
        <time>2019-10-18T13:00:20Z</time>
      </trkpt>
      <trkpt lat="37.0082870" lon="-2.2863130">
        <ele>1180.8</ele>
        <time>2019-10-18T13:00:21Z</time>
      </trkpt>
      <trkpt lat="37.0082860" lon="-2.2863400">
        <ele>1180.6</ele>
        <time>2019-10-18T13:00:22Z</time>
      </trkpt>
      <trkpt lat="37.0082840" lon="-2.2863660">
        <ele>1180.2</ele>
        <time>2019-10-18T13:00:23Z</time>
      </trkpt>
      <trkpt lat="37.0082810" lon="-2.2863930">
        <ele>1179.9</ele>
        <time>2019-10-18T13:00:24Z</time>
      </trkpt>
      <trkpt lat="37.0082770" lon="-2.2864210">
        <ele>1179.5</ele>
        <time>2019-10-18T13:00:25Z</time>
      </trkpt>
      <trkpt lat="37.0082740" lon="-2.2864490">
        <ele>1179.1</ele>
        <time>2019-10-18T13:00:26Z</time>
      </trkpt>
      <trkpt lat="37.0082710" lon="-2.2864780">
        <ele>1178.7</ele>
        <time>2019-10-18T13:00:27Z</time>
      </trkpt>
      <trkpt lat="37.0082660" lon="-2.2865060">
        <ele>1178.2</ele>
        <time>2019-10-18T13:00:28Z</time>
      </trkpt>
      <trkpt lat="37.0082610" lon="-2.2865350">
        <ele>1177.8</ele>
        <time>2019-10-18T13:00:29Z</time>
      </trkpt>
      <trkpt lat="37.0082550" lon="-2.2865640">
        <ele>1177.4</ele>
        <time>2019-10-18T13:00:30Z</time>
      </trkpt>
      <trkpt lat="37.0082480" lon="-2.2865940">
        <ele>1176.9</ele>
        <time>2019-10-18T13:00:31Z</time>
      </trkpt>
      <trkpt lat="37.0082400" lon="-2.2866240">
        <ele>1176.3</ele>
        <time>2019-10-18T13:00:32Z</time>
      </trkpt>
      <trkpt lat="37.0082320" lon="-2.2866530">
        <ele>1175.9</ele>
        <time>2019-10-18T13:00:33Z</time>
      </trkpt>
      <trkpt lat="37.0082220" lon="-2.2866820">
        <ele>1175.4</ele>
        <time>2019-10-18T13:00:34Z</time>
      </trkpt>
      <trkpt lat="37.0082110" lon="-2.2867100">
        <ele>1175.0</ele>
        <time>2019-10-18T13:00:35Z</time>
      </trkpt>
      <trkpt lat="37.0081990" lon="-2.2867380">
        <ele>1174.6</ele>
        <time>2019-10-18T13:00:36Z</time>
      </trkpt>
      <trkpt lat="37.0081860" lon="-2.2867650">
        <ele>1174.2</ele>
        <time>2019-10-18T13:00:37Z</time>
      </trkpt>
      <trkpt lat="37.0081730" lon="-2.2867910">
        <ele>1173.8</ele>
        <time>2019-10-18T13:00:38Z</time>
      </trkpt>
      <trkpt lat="37.0081590" lon="-2.2868150">
        <ele>1173.4</ele>
        <time>2019-10-18T13:00:39Z</time>
      </trkpt>
      <trkpt lat="37.0081430" lon="-2.2868370">
        <ele>1173.0</ele>
        <time>2019-10-18T13:00:40Z</time>
      </trkpt>
      <trkpt lat="37.0081250" lon="-2.2868560">
        <ele>1172.6</ele>
        <time>2019-10-18T13:00:41Z</time>
      </trkpt>
      <trkpt lat="37.0081070" lon="-2.2868750">
        <ele>1172.2</ele>
        <time>2019-10-18T13:00:42Z</time>
      </trkpt>
      <trkpt lat="37.0080880" lon="-2.2868940">
        <ele>1171.9</ele>
        <time>2019-10-18T13:00:43Z</time>
      </trkpt>
      <trkpt lat="37.0080700" lon="-2.2869130">
        <ele>1172.1</ele>
        <time>2019-10-18T13:00:44Z</time>
      </trkpt>
      <trkpt lat="37.0080520" lon="-2.2869320">
        <ele>1172.4</ele>
        <time>2019-10-18T13:00:45Z</time>
      </trkpt>
      <trkpt lat="37.0080340" lon="-2.2869480">
        <ele>1172.5</ele>
        <time>2019-10-18T13:00:46Z</time>
      </trkpt>
      <trkpt lat="37.0080140" lon="-2.2869630">
        <ele>1172.1</ele>
        <time>2019-10-18T13:00:47Z</time>
      </trkpt>
      <trkpt lat="37.0079930" lon="-2.2869760">
        <ele>1171.8</ele>
        <time>2019-10-18T13:00:48Z</time>
      </trkpt>
      <trkpt lat="37.0079710" lon="-2.2869900">
        <ele>1171.6</ele>
        <time>2019-10-18T13:00:49Z</time>
      </trkpt>
      <trkpt lat="37.0079500" lon="-2.2870030">
        <ele>1171.8</ele>
        <time>2019-10-18T13:00:50Z</time>
      </trkpt>
      <trkpt lat="37.0079300" lon="-2.2870180">
        <ele>1172.1</ele>
        <time>2019-10-18T13:00:51Z</time>
      </trkpt>
      <trkpt lat="37.0079100" lon="-2.2870330">
        <ele>1172.3</ele>
        <time>2019-10-18T13:00:52Z</time>
      </trkpt>
      <trkpt lat="37.0078900" lon="-2.2870470">
        <ele>1172.4</ele>
        <time>2019-10-18T13:00:53Z</time>
      </trkpt>
      <trkpt lat="37.0078700" lon="-2.2870600">
        <ele>1172.6</ele>
        <time>2019-10-18T13:00:54Z</time>
      </trkpt>
      <trkpt lat="37.0078500" lon="-2.2870740">
        <ele>1172.7</ele>
        <time>2019-10-18T13:00:55Z</time>
      </trkpt>
      <trkpt lat="37.0078300" lon="-2.2870900">
        <ele>1172.9</ele>
        <time>2019-10-18T13:00:56Z</time>
      </trkpt>
      <trkpt lat="37.0078110" lon="-2.2871060">
        <ele>1173.1</ele>
        <time>2019-10-18T13:00:57Z</time>
      </trkpt>
      <trkpt lat="37.0077930" lon="-2.2871230">
        <ele>1173.3</ele>
        <time>2019-10-18T13:00:58Z</time>
      </trkpt>
      <trkpt lat="37.0077740" lon="-2.2871400">
        <ele>1173.5</ele>
        <time>2019-10-18T13:00:59Z</time>
      </trkpt>
      <trkpt lat="37.0077540" lon="-2.2871570">
        <ele>1173.5</ele>
        <time>2019-10-18T13:01:00Z</time>
      </trkpt>
      <trkpt lat="37.0077350" lon="-2.2871740">
        <ele>1173.5</ele>
        <time>2019-10-18T13:01:01Z</time>
      </trkpt>
      <trkpt lat="37.0077140" lon="-2.2871900">
        <ele>1173.5</ele>
        <time>2019-10-18T13:01:02Z</time>
      </trkpt>
      <trkpt lat="37.0076930" lon="-2.2872060">
        <ele>1173.8</ele>
        <time>2019-10-18T13:01:03Z</time>
      </trkpt>
      <trkpt lat="37.0076720" lon="-2.2872210">
        <ele>1174.1</ele>
        <time>2019-10-18T13:01:04Z</time>
      </trkpt>
      <trkpt lat="37.0076500" lon="-2.2872350">
        <ele>1174.4</ele>
        <time>2019-10-18T13:01:05Z</time>
      </trkpt>
      <trkpt lat="37.0076270" lon="-2.2872490">
        <ele>1174.8</ele>
        <time>2019-10-18T13:01:06Z</time>
      </trkpt>
      <trkpt lat="37.0076040" lon="-2.2872610">
        <ele>1175.0</ele>
        <time>2019-10-18T13:01:07Z</time>
      </trkpt>
      <trkpt lat="37.0075800" lon="-2.2872730">
        <ele>1175.3</ele>
        <time>2019-10-18T13:01:08Z</time>
      </trkpt>
      <trkpt lat="37.0075560" lon="-2.2872850">
        <ele>1175.8</ele>
        <time>2019-10-18T13:01:09Z</time>
      </trkpt>
      <trkpt lat="37.0075330" lon="-2.2872980">
        <ele>1176.5</ele>
        <time>2019-10-18T13:01:10Z</time>
      </trkpt>
      <trkpt lat="37.0075090" lon="-2.2873090">
        <ele>1177.3</ele>
        <time>2019-10-18T13:01:11Z</time>
      </trkpt>
      <trkpt lat="37.0074840" lon="-2.2873170">
        <ele>1178.0</ele>
        <time>2019-10-18T13:01:12Z</time>
      </trkpt>
      <trkpt lat="37.0074590" lon="-2.2873240">
        <ele>1178.8</ele>
        <time>2019-10-18T13:01:13Z</time>
      </trkpt>
      <trkpt lat="37.0074340" lon="-2.2873290">
        <ele>1179.5</ele>
        <time>2019-10-18T13:01:14Z</time>
      </trkpt>
      <trkpt lat="37.0074090" lon="-2.2873350">
        <ele>1180.3</ele>
        <time>2019-10-18T13:01:15Z</time>
      </trkpt>
      <trkpt lat="37.0073840" lon="-2.2873390">
        <ele>1180.9</ele>
        <time>2019-10-18T13:01:16Z</time>
      </trkpt>
      <trkpt lat="37.0073590" lon="-2.2873430">
        <ele>1181.4</ele>
        <time>2019-10-18T13:01:17Z</time>
      </trkpt>
      <trkpt lat="37.0073330" lon="-2.2873460">
        <ele>1181.9</ele>
        <time>2019-10-18T13:01:18Z</time>
      </trkpt>
      <trkpt lat="37.0073060" lon="-2.2873480">
        <ele>1182.9</ele>
        <time>2019-10-18T13:01:19Z</time>
      </trkpt>
      <trkpt lat="37.0072800" lon="-2.2873480">
        <ele>1184.0</ele>
        <time>2019-10-18T13:01:20Z</time>
      </trkpt>
      <trkpt lat="37.0072540" lon="-2.2873470">
        <ele>1185.2</ele>
        <time>2019-10-18T13:01:21Z</time>
      </trkpt>
      <trkpt lat="37.0072280" lon="-2.2873450">
        <ele>1186.2</ele>
        <time>2019-10-18T13:01:22Z</time>
      </trkpt>
      <trkpt lat="37.0072010" lon="-2.2873420">
        <ele>1187.1</ele>
        <time>2019-10-18T13:01:23Z</time>
      </trkpt>
      <trkpt lat="37.0071740" lon="-2.2873390">
        <ele>1188.0</ele>
        <time>2019-10-18T13:01:24Z</time>
      </trkpt>
      <trkpt lat="37.0071470" lon="-2.2873370">
        <ele>1188.9</ele>
        <time>2019-10-18T13:01:25Z</time>
      </trkpt>
      <trkpt lat="37.0071200" lon="-2.2873370">
        <ele>1189.8</ele>
        <time>2019-10-18T13:01:26Z</time>
      </trkpt>
      <trkpt lat="37.0070930" lon="-2.2873380">
        <ele>1190.7</ele>
        <time>2019-10-18T13:01:27Z</time>
      </trkpt>
      <trkpt lat="37.0070660" lon="-2.2873400">
        <ele>1191.7</ele>
        <time>2019-10-18T13:01:28Z</time>
      </trkpt>
      <trkpt lat="37.0070400" lon="-2.2873410">
        <ele>1192.8</ele>
        <time>2019-10-18T13:01:29Z</time>
      </trkpt>
      <trkpt lat="37.0070130" lon="-2.2873440">
        <ele>1193.9</ele>
        <time>2019-10-18T13:01:30Z</time>
      </trkpt>
      <trkpt lat="37.0069860" lon="-2.2873480">
        <ele>1194.9</ele>
        <time>2019-10-18T13:01:31Z</time>
      </trkpt>
      <trkpt lat="37.0069600" lon="-2.2873550">
        <ele>1195.7</ele>
        <time>2019-10-18T13:01:32Z</time>
      </trkpt>
      <trkpt lat="37.0069350" lon="-2.2873640">
        <ele>1196.5</ele>
        <time>2019-10-18T13:01:33Z</time>
      </trkpt>
      <trkpt lat="37.0069100" lon="-2.2873750">
        <ele>1197.3</ele>
        <time>2019-10-18T13:01:34Z</time>
      </trkpt>
      <trkpt lat="37.0068860" lon="-2.2873880">
        <ele>1198.0</ele>
        <time>2019-10-18T13:01:35Z</time>
      </trkpt>
      <trkpt lat="37.0068630" lon="-2.2874010">
        <ele>1198.7</ele>
        <time>2019-10-18T13:01:36Z</time>
      </trkpt>
      <trkpt lat="37.0068400" lon="-2.2874150">
        <ele>1199.5</ele>
        <time>2019-10-18T13:01:37Z</time>
      </trkpt>
      <trkpt lat="37.0068170" lon="-2.2874300">
        <ele>1200.6</ele>
        <time>2019-10-18T13:01:38Z</time>
      </trkpt>
      <trkpt lat="37.0067940" lon="-2.2874460">
        <ele>1201.6</ele>
        <time>2019-10-18T13:01:39Z</time>
      </trkpt>
      <trkpt lat="37.0067730" lon="-2.2874640">
        <ele>1202.5</ele>
        <time>2019-10-18T13:01:40Z</time>
      </trkpt>
      <trkpt lat="37.0067510" lon="-2.2874810">
        <ele>1203.1</ele>
        <time>2019-10-18T13:01:41Z</time>
      </trkpt>
      <trkpt lat="37.0067310" lon="-2.2875000">
        <ele>1203.7</ele>
        <time>2019-10-18T13:01:42Z</time>
      </trkpt>
      <trkpt lat="37.0067110" lon="-2.2875190">
        <ele>1204.3</ele>
        <time>2019-10-18T13:01:43Z</time>
      </trkpt>
      <trkpt lat="37.0066930" lon="-2.2875390">
        <ele>1204.8</ele>
        <time>2019-10-18T13:01:44Z</time>
      </trkpt>
      <trkpt lat="37.0066750" lon="-2.2875590">
        <ele>1205.4</ele>
        <time>2019-10-18T13:01:45Z</time>
      </trkpt>
      <trkpt lat="37.0066560" lon="-2.2875810">
        <ele>1206.0</ele>
        <time>2019-10-18T13:01:46Z</time>
      </trkpt>
      <trkpt lat="37.0066380" lon="-2.2876020">
        <ele>1206.5</ele>
        <time>2019-10-18T13:01:47Z</time>
      </trkpt>
      <trkpt lat="37.0066200" lon="-2.2876240">
        <ele>1207.0</ele>
        <time>2019-10-18T13:01:48Z</time>
      </trkpt>
      <trkpt lat="37.0066020" lon="-2.2876460">
        <ele>1207.6</ele>
        <time>2019-10-18T13:01:49Z</time>
      </trkpt>
      <trkpt lat="37.0065840" lon="-2.2876680">
        <ele>1208.1</ele>
        <time>2019-10-18T13:01:50Z</time>
      </trkpt>
      <trkpt lat="37.0065660" lon="-2.2876900">
        <ele>1208.5</ele>
        <time>2019-10-18T13:01:51Z</time>
      </trkpt>
      <trkpt lat="37.0065480" lon="-2.2877120">
        <ele>1208.9</ele>
        <time>2019-10-18T13:01:52Z</time>
      </trkpt>
      <trkpt lat="37.0065300" lon="-2.2877350">
        <ele>1209.3</ele>
        <time>2019-10-18T13:01:53Z</time>
      </trkpt>
      <trkpt lat="37.0065130" lon="-2.2877580">
        <ele>1209.7</ele>
        <time>2019-10-18T13:01:54Z</time>
      </trkpt>
      <trkpt lat="37.0064950" lon="-2.2877800">
        <ele>1210.1</ele>
        <time>2019-10-18T13:01:55Z</time>
      </trkpt>
      <trkpt lat="37.0064770" lon="-2.2878020">
        <ele>1210.6</ele>
        <time>2019-10-18T13:01:56Z</time>
      </trkpt>
      <trkpt lat="37.0064590" lon="-2.2878260">
        <ele>1211.1</ele>
        <time>2019-10-18T13:01:57Z</time>
      </trkpt>
      <trkpt lat="37.0064430" lon="-2.2878500">
        <ele>1211.7</ele>
        <time>2019-10-18T13:01:58Z</time>
      </trkpt>
      <trkpt lat="37.0064270" lon="-2.2878750">
        <ele>1212.2</ele>
        <time>2019-10-18T13:01:59Z</time>
      </trkpt>
      <trkpt lat="37.0064130" lon="-2.2879010">
        <ele>1212.8</ele>
        <time>2019-10-18T13:02:00Z</time>
      </trkpt>
      <trkpt lat="37.0064020" lon="-2.2879290">
        <ele>1212.9</ele>
        <time>2019-10-18T13:02:01Z</time>
      </trkpt>
      <trkpt lat="37.0063960" lon="-2.2879600">
        <ele>1212.9</ele>
        <time>2019-10-18T13:02:02Z</time>
      </trkpt>
      <trkpt lat="37.0063920" lon="-2.2879910">
        <ele>1212.9</ele>
        <time>2019-10-18T13:02:03Z</time>
      </trkpt>
      <trkpt lat="37.0063910" lon="-2.2880220">
        <ele>1213.0</ele>
        <time>2019-10-18T13:02:04Z</time>
      </trkpt>
      <trkpt lat="37.0063920" lon="-2.2880530">
        <ele>1213.2</ele>
        <time>2019-10-18T13:02:05Z</time>
      </trkpt>
      <trkpt lat="37.0063950" lon="-2.2880820">
        <ele>1213.4</ele>
        <time>2019-10-18T13:02:06Z</time>
      </trkpt>
      <trkpt lat="37.0064000" lon="-2.2881110">
        <ele>1213.7</ele>
        <time>2019-10-18T13:02:07Z</time>
      </trkpt>
      <trkpt lat="37.0064060" lon="-2.2881400">
        <ele>1213.5</ele>
        <time>2019-10-18T13:02:08Z</time>
      </trkpt>
      <trkpt lat="37.0064150" lon="-2.2881680">
        <ele>1213.0</ele>
        <time>2019-10-18T13:02:09Z</time>
      </trkpt>
      <trkpt lat="37.0064260" lon="-2.2881940">
        <ele>1212.5</ele>
        <time>2019-10-18T13:02:10Z</time>
      </trkpt>
      <trkpt lat="37.0064400" lon="-2.2882180">
        <ele>1212.0</ele>
        <time>2019-10-18T13:02:11Z</time>
      </trkpt>
      <trkpt lat="37.0064540" lon="-2.2882410">
        <ele>1211.7</ele>
        <time>2019-10-18T13:02:12Z</time>
      </trkpt>
      <trkpt lat="37.0064690" lon="-2.2882640">
        <ele>1211.5</ele>
        <time>2019-10-18T13:02:13Z</time>
      </trkpt>
      <trkpt lat="37.0064830" lon="-2.2882870">
        <ele>1211.3</ele>
        <time>2019-10-18T13:02:14Z</time>
      </trkpt>
      <trkpt lat="37.0064960" lon="-2.2883100">
        <ele>1211.1</ele>
        <time>2019-10-18T13:02:15Z</time>
      </trkpt>
      <trkpt lat="37.0065100" lon="-2.2883330">
        <ele>1210.9</ele>
        <time>2019-10-18T13:02:16Z</time>
      </trkpt>
      <trkpt lat="37.0065250" lon="-2.2883550">
        <ele>1210.7</ele>
        <time>2019-10-18T13:02:17Z</time>
      </trkpt>
      <trkpt lat="37.0065400" lon="-2.2883770">
        <ele>1210.5</ele>
        <time>2019-10-18T13:02:18Z</time>
      </trkpt>
      <trkpt lat="37.0065560" lon="-2.2884000">
        <ele>1210.3</ele>
        <time>2019-10-18T13:02:19Z</time>
      </trkpt>
      <trkpt lat="37.0065700" lon="-2.2884230">
        <ele>1210.1</ele>
        <time>2019-10-18T13:02:20Z</time>
      </trkpt>
      <trkpt lat="37.0065850" lon="-2.2884480">
        <ele>1209.9</ele>
        <time>2019-10-18T13:02:21Z</time>
      </trkpt>
      <trkpt lat="37.0065990" lon="-2.2884720">
        <ele>1209.6</ele>
        <time>2019-10-18T13:02:22Z</time>
      </trkpt>
      <trkpt lat="37.0066130" lon="-2.2884960">
        <ele>1209.1</ele>
        <time>2019-10-18T13:02:23Z</time>
      </trkpt>
      <trkpt lat="37.0066250" lon="-2.2885200">
        <ele>1208.7</ele>
        <time>2019-10-18T13:02:24Z</time>
      </trkpt>
      <trkpt lat="37.0066370" lon="-2.2885440">
        <ele>1208.3</ele>
        <time>2019-10-18T13:02:25Z</time>
      </trkpt>
      <trkpt lat="37.0066480" lon="-2.2885690">
        <ele>1208.0</ele>
        <time>2019-10-18T13:02:26Z</time>
      </trkpt>
      <trkpt lat="37.0066600" lon="-2.2885940">
        <ele>1207.9</ele>
        <time>2019-10-18T13:02:27Z</time>
      </trkpt>
      <trkpt lat="37.0066710" lon="-2.2886190">
        <ele>1207.8</ele>
        <time>2019-10-18T13:02:28Z</time>
      </trkpt>
      <trkpt lat="37.0066820" lon="-2.2886440">
        <ele>1207.6</ele>
        <time>2019-10-18T13:02:29Z</time>
      </trkpt>
      <trkpt lat="37.0066920" lon="-2.2886690">
        <ele>1207.4</ele>
        <time>2019-10-18T13:02:30Z</time>
      </trkpt>
      <trkpt lat="37.0067010" lon="-2.2886940">
        <ele>1207.2</ele>
        <time>2019-10-18T13:02:31Z</time>
      </trkpt>
      <trkpt lat="37.0067090" lon="-2.2887190">
        <ele>1207.0</ele>
        <time>2019-10-18T13:02:32Z</time>
      </trkpt>
      <trkpt lat="37.0067170" lon="-2.2887440">
        <ele>1206.9</ele>
        <time>2019-10-18T13:02:33Z</time>
      </trkpt>
      <trkpt lat="37.0067260" lon="-2.2887690">
        <ele>1206.6</ele>
        <time>2019-10-18T13:02:34Z</time>
      </trkpt>
      <trkpt lat="37.0067340" lon="-2.2887940">
        <ele>1206.4</ele>
        <time>2019-10-18T13:02:35Z</time>
      </trkpt>
      <trkpt lat="37.0067430" lon="-2.2888190">
        <ele>1206.2</ele>
        <time>2019-10-18T13:02:36Z</time>
      </trkpt>
      <trkpt lat="37.0067520" lon="-2.2888450">
        <ele>1206.2</ele>
        <time>2019-10-18T13:02:37Z</time>
      </trkpt>
      <trkpt lat="37.0067610" lon="-2.2888710">
        <ele>1206.3</ele>
        <time>2019-10-18T13:02:38Z</time>
      </trkpt>
      <trkpt lat="37.0067690" lon="-2.2888970">
        <ele>1206.5</ele>
        <time>2019-10-18T13:02:39Z</time>
      </trkpt>
      <trkpt lat="37.0067770" lon="-2.2889230">
        <ele>1206.6</ele>
        <time>2019-10-18T13:02:40Z</time>
      </trkpt>
      <trkpt lat="37.0067830" lon="-2.2889500">
        <ele>1206.5</ele>
        <time>2019-10-18T13:02:41Z</time>
      </trkpt>
      <trkpt lat="37.0067880" lon="-2.2889780">
        <ele>1206.3</ele>
        <time>2019-10-18T13:02:42Z</time>
      </trkpt>
      <trkpt lat="37.0067900" lon="-2.2890080">
        <ele>1206.2</ele>
        <time>2019-10-18T13:02:43Z</time>
      </trkpt>
      <trkpt lat="37.0067930" lon="-2.2890380">
        <ele>1206.0</ele>
        <time>2019-10-18T13:02:44Z</time>
      </trkpt>
      <trkpt lat="37.0067960" lon="-2.2890670">
        <ele>1205.8</ele>
        <time>2019-10-18T13:02:45Z</time>
      </trkpt>
      <trkpt lat="37.0067980" lon="-2.2890960">
        <ele>1205.6</ele>
        <time>2019-10-18T13:02:46Z</time>
      </trkpt>
      <trkpt lat="37.0067970" lon="-2.2891250">
        <ele>1205.3</ele>
        <time>2019-10-18T13:02:47Z</time>
      </trkpt>
      <trkpt lat="37.0067930" lon="-2.2891560">
        <ele>1205.4</ele>
        <time>2019-10-18T13:02:48Z</time>
      </trkpt>
      <trkpt lat="37.0067870" lon="-2.2891880">
        <ele>1205.4</ele>
        <time>2019-10-18T13:02:49Z</time>
      </trkpt>
      <trkpt lat="37.0067810" lon="-2.2892210">
        <ele>1205.4</ele>
        <time>2019-10-18T13:02:50Z</time>
      </trkpt>
      <trkpt lat="37.0067740" lon="-2.2892540">
        <ele>1205.7</ele>
        <time>2019-10-18T13:02:51Z</time>
      </trkpt>
      <trkpt lat="37.0067670" lon="-2.2892880">
        <ele>1206.0</ele>
        <time>2019-10-18T13:02:52Z</time>
      </trkpt>
      <trkpt lat="37.0067590" lon="-2.2893210">
        <ele>1206.4</ele>
        <time>2019-10-18T13:02:53Z</time>
      </trkpt>
      <trkpt lat="37.0067510" lon="-2.2893550">
        <ele>1206.3</ele>
        <time>2019-10-18T13:02:54Z</time>
      </trkpt>
      <trkpt lat="37.0067410" lon="-2.2893880">
        <ele>1206.2</ele>
        <time>2019-10-18T13:02:55Z</time>
      </trkpt>
      <trkpt lat="37.0067290" lon="-2.2894210">
        <ele>1206.2</ele>
        <time>2019-10-18T13:02:56Z</time>
      </trkpt>
      <trkpt lat="37.0067160" lon="-2.2894550">
        <ele>1206.4</ele>
        <time>2019-10-18T13:02:57Z</time>
      </trkpt>
      <trkpt lat="37.0067040" lon="-2.2894910">
        <ele>1206.5</ele>
        <time>2019-10-18T13:02:58Z</time>
      </trkpt>
      <trkpt lat="37.0066900" lon="-2.2895270">
        <ele>1206.7</ele>
        <time>2019-10-18T13:02:59Z</time>
      </trkpt>
      <trkpt lat="37.0066760" lon="-2.2895640">
        <ele>1206.8</ele>
        <time>2019-10-18T13:03:00Z</time>
      </trkpt>
      <trkpt lat="37.0066610" lon="-2.2896020">
        <ele>1206.9</ele>
        <time>2019-10-18T13:03:01Z</time>
      </trkpt>
      <trkpt lat="37.0066460" lon="-2.2896400">
        <ele>1207.0</ele>
        <time>2019-10-18T13:03:02Z</time>
      </trkpt>
      <trkpt lat="37.0066330" lon="-2.2896790">
        <ele>1207.1</ele>
        <time>2019-10-18T13:03:03Z</time>
      </trkpt>
      <trkpt lat="37.0066220" lon="-2.2897200">
        <ele>1207.2</ele>
        <time>2019-10-18T13:03:04Z</time>
      </trkpt>
      <trkpt lat="37.0066120" lon="-2.2897600">
        <ele>1207.2</ele>
        <time>2019-10-18T13:03:05Z</time>
      </trkpt>
      <trkpt lat="37.0066040" lon="-2.2897990">
        <ele>1207.2</ele>
        <time>2019-10-18T13:03:06Z</time>
      </trkpt>
      <trkpt lat="37.0065960" lon="-2.2898380">
        <ele>1207.2</ele>
        <time>2019-10-18T13:03:07Z</time>
      </trkpt>
      <trkpt lat="37.0065880" lon="-2.2898760">
        <ele>1207.2</ele>
        <time>2019-10-18T13:03:08Z</time>
      </trkpt>
      <trkpt lat="37.0065820" lon="-2.2899160">
        <ele>1206.7</ele>
        <time>2019-10-18T13:03:09Z</time>
      </trkpt>
      <trkpt lat="37.0065770" lon="-2.2899570">
        <ele>1206.1</ele>
        <time>2019-10-18T13:03:10Z</time>
      </trkpt>
      <trkpt lat="37.0065740" lon="-2.2900020">
        <ele>1205.5</ele>
        <time>2019-10-18T13:03:11Z</time>
      </trkpt>
      <trkpt lat="37.0065740" lon="-2.2900480">
        <ele>1204.9</ele>
        <time>2019-10-18T13:03:12Z</time>
      </trkpt>
      <trkpt lat="37.0065730" lon="-2.2900940">
        <ele>1204.4</ele>
        <time>2019-10-18T13:03:13Z</time>
      </trkpt>
      <trkpt lat="37.0065710" lon="-2.2901370">
        <ele>1204.2</ele>
        <time>2019-10-18T13:03:14Z</time>
      </trkpt>
      <trkpt lat="37.0065680" lon="-2.2901800">
        <ele>1203.9</ele>
        <time>2019-10-18T13:03:15Z</time>
      </trkpt>
      <trkpt lat="37.0065640" lon="-2.2902210">
        <ele>1203.4</ele>
        <time>2019-10-18T13:03:16Z</time>
      </trkpt>
      <trkpt lat="37.0065610" lon="-2.2902610">
        <ele>1202.9</ele>
        <time>2019-10-18T13:03:17Z</time>
      </trkpt>
      <trkpt lat="37.0065560" lon="-2.2903010">
        <ele>1202.2</ele>
        <time>2019-10-18T13:03:18Z</time>
      </trkpt>
      <trkpt lat="37.0065490" lon="-2.2903420">
        <ele>1201.5</ele>
        <time>2019-10-18T13:03:19Z</time>
      </trkpt>
      <trkpt lat="37.0065390" lon="-2.2903830">
        <ele>1201.0</ele>
        <time>2019-10-18T13:03:20Z</time>
      </trkpt>
      <trkpt lat="37.0065280" lon="-2.2904250">
        <ele>1200.9</ele>
        <time>2019-10-18T13:03:21Z</time>
      </trkpt>
      <trkpt lat="37.0065140" lon="-2.2904670">
        <ele>1200.6</ele>
        <time>2019-10-18T13:03:22Z</time>
      </trkpt>
      <trkpt lat="37.0064990" lon="-2.2905110">
        <ele>1200.0</ele>
        <time>2019-10-18T13:03:23Z</time>
      </trkpt>
      <trkpt lat="37.0064820" lon="-2.2905560">
        <ele>1199.5</ele>
        <time>2019-10-18T13:03:24Z</time>
      </trkpt>
      <trkpt lat="37.0064630" lon="-2.2906040">
        <ele>1199.2</ele>
        <time>2019-10-18T13:03:25Z</time>
      </trkpt>
      <trkpt lat="37.0064430" lon="-2.2906540">
        <ele>1199.0</ele>
        <time>2019-10-18T13:03:26Z</time>
      </trkpt>
      <trkpt lat="37.0064230" lon="-2.2907070">
        <ele>1199.0</ele>
        <time>2019-10-18T13:03:27Z</time>
      </trkpt>
      <trkpt lat="37.0064040" lon="-2.2907610">
        <ele>1198.9</ele>
        <time>2019-10-18T13:03:28Z</time>
      </trkpt>
      <trkpt lat="37.0063870" lon="-2.2908150">
        <ele>1198.3</ele>
        <time>2019-10-18T13:03:29Z</time>
      </trkpt>
      <trkpt lat="37.0063720" lon="-2.2908690">
        <ele>1198.0</ele>
        <time>2019-10-18T13:03:30Z</time>
      </trkpt>
      <trkpt lat="37.0063590" lon="-2.2909210">
        <ele>1198.2</ele>
        <time>2019-10-18T13:03:31Z</time>
      </trkpt>
      <trkpt lat="37.0063460" lon="-2.2909730">
        <ele>1198.4</ele>
        <time>2019-10-18T13:03:32Z</time>
      </trkpt>
      <trkpt lat="37.0063330" lon="-2.2910240">
        <ele>1198.4</ele>
        <time>2019-10-18T13:03:33Z</time>
      </trkpt>
      <trkpt lat="37.0063190" lon="-2.2910760">
        <ele>1198.5</ele>
        <time>2019-10-18T13:03:34Z</time>
      </trkpt>
      <trkpt lat="37.0063060" lon="-2.2911290">
        <ele>1198.7</ele>
        <time>2019-10-18T13:03:35Z</time>
      </trkpt>
      <trkpt lat="37.0062950" lon="-2.2911830">
        <ele>1198.9</ele>
        <time>2019-10-18T13:03:36Z</time>
      </trkpt>
      <trkpt lat="37.0062850" lon="-2.2912350">
        <ele>1199.0</ele>
        <time>2019-10-18T13:03:37Z</time>
      </trkpt>
      <trkpt lat="37.0062740" lon="-2.2912880">
        <ele>1199.1</ele>
        <time>2019-10-18T13:03:38Z</time>
      </trkpt>
      <trkpt lat="37.0062620" lon="-2.2913390">
        <ele>1199.1</ele>
        <time>2019-10-18T13:03:39Z</time>
      </trkpt>
      <trkpt lat="37.0062490" lon="-2.2913910">
        <ele>1199.1</ele>
        <time>2019-10-18T13:03:40Z</time>
      </trkpt>
      <trkpt lat="37.0062350" lon="-2.2914430">
        <ele>1198.9</ele>
        <time>2019-10-18T13:03:41Z</time>
      </trkpt>
      <trkpt lat="37.0062200" lon="-2.2914960">
        <ele>1198.7</ele>
        <time>2019-10-18T13:03:42Z</time>
      </trkpt>
      <trkpt lat="37.0062040" lon="-2.2915490">
        <ele>1198.6</ele>
        <time>2019-10-18T13:03:43Z</time>
      </trkpt>
      <trkpt lat="37.0061860" lon="-2.2916040">
        <ele>1198.6</ele>
        <time>2019-10-18T13:03:44Z</time>
      </trkpt>
      <trkpt lat="37.0061660" lon="-2.2916620">
        <ele>1198.6</ele>
        <time>2019-10-18T13:03:45Z</time>
      </trkpt>
      <trkpt lat="37.0061460" lon="-2.2917210">
        <ele>1198.5</ele>
        <time>2019-10-18T13:03:46Z</time>
      </trkpt>
      <trkpt lat="37.0061270" lon="-2.2917820">
        <ele>1198.3</ele>
        <time>2019-10-18T13:03:47Z</time>
      </trkpt>
      <trkpt lat="37.0061100" lon="-2.2918440">
        <ele>1198.3</ele>
        <time>2019-10-18T13:03:48Z</time>
      </trkpt>
      <trkpt lat="37.0060940" lon="-2.2919060">
        <ele>1198.4</ele>
        <time>2019-10-18T13:03:49Z</time>
      </trkpt>
      <trkpt lat="37.0060780" lon="-2.2919670">
        <ele>1197.9</ele>
        <time>2019-10-18T13:03:50Z</time>
      </trkpt>
      <trkpt lat="37.0060610" lon="-2.2920280">
        <ele>1197.4</ele>
        <time>2019-10-18T13:03:51Z</time>
      </trkpt>
      <trkpt lat="37.0060440" lon="-2.2920880">
        <ele>1197.5</ele>
        <time>2019-10-18T13:03:52Z</time>
      </trkpt>
      <trkpt lat="37.0060270" lon="-2.2921470">
        <ele>1197.5</ele>
        <time>2019-10-18T13:03:53Z</time>
      </trkpt>
      <trkpt lat="37.0060110" lon="-2.2922070">
        <ele>1197.3</ele>
        <time>2019-10-18T13:03:54Z</time>
      </trkpt>
      <trkpt lat="37.0059940" lon="-2.2922660">
        <ele>1197.2</ele>
        <time>2019-10-18T13:03:55Z</time>
      </trkpt>
      <trkpt lat="37.0059750" lon="-2.2923250">
        <ele>1197.2</ele>
        <time>2019-10-18T13:03:56Z</time>
      </trkpt>
      <trkpt lat="37.0059520" lon="-2.2923830">
        <ele>1197.0</ele>
        <time>2019-10-18T13:03:57Z</time>
      </trkpt>
      <trkpt lat="37.0059240" lon="-2.2924370">
        <ele>1196.8</ele>
        <time>2019-10-18T13:03:58Z</time>
      </trkpt>
      <trkpt lat="37.0058910" lon="-2.2924880">
        <ele>1196.7</ele>
        <time>2019-10-18T13:03:59Z</time>
      </trkpt>
      <trkpt lat="37.0058550" lon="-2.2925360">
        <ele>1197.1</ele>
        <time>2019-10-18T13:04:00Z</time>
      </trkpt>
      <trkpt lat="37.0058160" lon="-2.2925830">
        <ele>1197.9</ele>
        <time>2019-10-18T13:04:01Z</time>
      </trkpt>
      <trkpt lat="37.0057760" lon="-2.2926310">
        <ele>1198.5</ele>
        <time>2019-10-18T13:04:02Z</time>
      </trkpt>
      <trkpt lat="37.0057350" lon="-2.2926810">
        <ele>1198.8</ele>
        <time>2019-10-18T13:04:03Z</time>
      </trkpt>
      <trkpt lat="37.0056940" lon="-2.2927310">
        <ele>1198.8</ele>
        <time>2019-10-18T13:04:04Z</time>
      </trkpt>
      <trkpt lat="37.0056500" lon="-2.2927800">
        <ele>1199.2</ele>
        <time>2019-10-18T13:04:05Z</time>
      </trkpt>
      <trkpt lat="37.0056040" lon="-2.2928280">
        <ele>1199.8</ele>
        <time>2019-10-18T13:04:06Z</time>
      </trkpt>
      <trkpt lat="37.0055550" lon="-2.2928740">
        <ele>1200.4</ele>
        <time>2019-10-18T13:04:07Z</time>
      </trkpt>
      <trkpt lat="37.0055030" lon="-2.2929160">
        <ele>1201.1</ele>
        <time>2019-10-18T13:04:08Z</time>
      </trkpt>
      <trkpt lat="37.0054480" lon="-2.2929530">
        <ele>1201.3</ele>
        <time>2019-10-18T13:04:09Z</time>
      </trkpt>
      <trkpt lat="37.0053920" lon="-2.2929880">
        <ele>1201.7</ele>
        <time>2019-10-18T13:04:10Z</time>
      </trkpt>
      <trkpt lat="37.0053350" lon="-2.2930220">
        <ele>1202.2</ele>
        <time>2019-10-18T13:04:11Z</time>
      </trkpt>
      <trkpt lat="37.0052780" lon="-2.2930560">
        <ele>1202.5</ele>
        <time>2019-10-18T13:04:12Z</time>
      </trkpt>
      <trkpt lat="37.0052200" lon="-2.2930930">
        <ele>1202.8</ele>
        <time>2019-10-18T13:04:13Z</time>
      </trkpt>
      <trkpt lat="37.0051620" lon="-2.2931350">
        <ele>1202.8</ele>
        <time>2019-10-18T13:04:14Z</time>
      </trkpt>
      <trkpt lat="37.0051070" lon="-2.2931860">
        <ele>1202.6</ele>
        <time>2019-10-18T13:04:15Z</time>
      </trkpt>
      <trkpt lat="37.0050570" lon="-2.2932440">
        <ele>1202.8</ele>
        <time>2019-10-18T13:04:16Z</time>
      </trkpt>
      <trkpt lat="37.0050130" lon="-2.2933070">
        <ele>1202.3</ele>
        <time>2019-10-18T13:04:17Z</time>
      </trkpt>
      <trkpt lat="37.0049760" lon="-2.2933740">
        <ele>1201.9</ele>
        <time>2019-10-18T13:04:18Z</time>
      </trkpt>
      <trkpt lat="37.0049480" lon="-2.2934420">
        <ele>1201.7</ele>
        <time>2019-10-18T13:04:19Z</time>
      </trkpt>
      <trkpt lat="37.0049300" lon="-2.2935110">
        <ele>1201.6</ele>
        <time>2019-10-18T13:04:20Z</time>
      </trkpt>
      <trkpt lat="37.0049200" lon="-2.2935780">
        <ele>1201.6</ele>
        <time>2019-10-18T13:04:21Z</time>
      </trkpt>
      <trkpt lat="37.0049140" lon="-2.2936420">
        <ele>1201.6</ele>
        <time>2019-10-18T13:04:22Z</time>
      </trkpt>
      <trkpt lat="37.0049100" lon="-2.2937010">
        <ele>1201.7</ele>
        <time>2019-10-18T13:04:23Z</time>
      </trkpt>
      <trkpt lat="37.0049090" lon="-2.2937560">
        <ele>1201.8</ele>
        <time>2019-10-18T13:04:24Z</time>
      </trkpt>
      <trkpt lat="37.0049100" lon="-2.2938060">
        <ele>1202.0</ele>
        <time>2019-10-18T13:04:25Z</time>
      </trkpt>
      <trkpt lat="37.0049100" lon="-2.2938510">
        <ele>1202.2</ele>
        <time>2019-10-18T13:04:26Z</time>
      </trkpt>
      <trkpt lat="37.0049090" lon="-2.2938940">
        <ele>1202.5</ele>
        <time>2019-10-18T13:04:27Z</time>
      </trkpt>
      <trkpt lat="37.0049080" lon="-2.2939320">
        <ele>1202.7</ele>
        <time>2019-10-18T13:04:28Z</time>
      </trkpt>
      <trkpt lat="37.0049080" lon="-2.2939700">
        <ele>1203.0</ele>
        <time>2019-10-18T13:04:29Z</time>
      </trkpt>
      <trkpt lat="37.0049100" lon="-2.2940070">
        <ele>1203.4</ele>
        <time>2019-10-18T13:04:30Z</time>
      </trkpt>
      <trkpt lat="37.0049110" lon="-2.2940450">
        <ele>1203.7</ele>
        <time>2019-10-18T13:04:31Z</time>
      </trkpt>
      <trkpt lat="37.0049110" lon="-2.2940820">
        <ele>1204.1</ele>
        <time>2019-10-18T13:04:32Z</time>
      </trkpt>
      <trkpt lat="37.0049080" lon="-2.2941210">
        <ele>1204.5</ele>
        <time>2019-10-18T13:04:33Z</time>
      </trkpt>
      <trkpt lat="37.0049050" lon="-2.2941600">
        <ele>1204.9</ele>
        <time>2019-10-18T13:04:34Z</time>
      </trkpt>
      <trkpt lat="37.0049020" lon="-2.2941980">
        <ele>1205.3</ele>
        <time>2019-10-18T13:04:35Z</time>
      </trkpt>
      <trkpt lat="37.0048990" lon="-2.2942360">
        <ele>1205.7</ele>
        <time>2019-10-18T13:04:36Z</time>
      </trkpt>
      <trkpt lat="37.0048960" lon="-2.2942730">
        <ele>1206.0</ele>
        <time>2019-10-18T13:04:37Z</time>
      </trkpt>
      <trkpt lat="37.0048950" lon="-2.2943100">
        <ele>1206.3</ele>
        <time>2019-10-18T13:04:38Z</time>
      </trkpt>
      <trkpt lat="37.0048940" lon="-2.2943470">
        <ele>1206.7</ele>
        <time>2019-10-18T13:04:39Z</time>
      </trkpt>
      <trkpt lat="37.0048920" lon="-2.2943840">
        <ele>1207.1</ele>
        <time>2019-10-18T13:04:40Z</time>
      </trkpt>
      <trkpt lat="37.0048890" lon="-2.2944240">
        <ele>1207.4</ele>
        <time>2019-10-18T13:04:41Z</time>
      </trkpt>
      <trkpt lat="37.0048850" lon="-2.2944630">
        <ele>1207.8</ele>
        <time>2019-10-18T13:04:42Z</time>
      </trkpt>
      <trkpt lat="37.0048800" lon="-2.2945020">
        <ele>1208.1</ele>
        <time>2019-10-18T13:04:43Z</time>
      </trkpt>
      <trkpt lat="37.0048760" lon="-2.2945390">
        <ele>1208.4</ele>
        <time>2019-10-18T13:04:44Z</time>
      </trkpt>
      <trkpt lat="37.0048730" lon="-2.2945750">
        <ele>1208.7</ele>
        <time>2019-10-18T13:04:45Z</time>
      </trkpt>
      <trkpt lat="37.0048700" lon="-2.2946100">
        <ele>1209.0</ele>
        <time>2019-10-18T13:04:46Z</time>
      </trkpt>
      <trkpt lat="37.0048660" lon="-2.2946450">
        <ele>1209.3</ele>
        <time>2019-10-18T13:04:47Z</time>
      </trkpt>
      <trkpt lat="37.0048610" lon="-2.2946800">
        <ele>1209.6</ele>
        <time>2019-10-18T13:04:48Z</time>
      </trkpt>
      <trkpt lat="37.0048540" lon="-2.2947150">
        <ele>1209.9</ele>
        <time>2019-10-18T13:04:49Z</time>
      </trkpt>
      <trkpt lat="37.0048460" lon="-2.2947500">
        <ele>1210.0</ele>
        <time>2019-10-18T13:04:50Z</time>
      </trkpt>
      <trkpt lat="37.0048360" lon="-2.2947830">
        <ele>1210.2</ele>
        <time>2019-10-18T13:04:51Z</time>
      </trkpt>
      <trkpt lat="37.0048270" lon="-2.2948170">
        <ele>1210.4</ele>
        <time>2019-10-18T13:04:52Z</time>
      </trkpt>
      <trkpt lat="37.0048190" lon="-2.2948500">
        <ele>1210.6</ele>
        <time>2019-10-18T13:04:53Z</time>
      </trkpt>
      <trkpt lat="37.0048140" lon="-2.2948830">
        <ele>1210.8</ele>
        <time>2019-10-18T13:04:54Z</time>
      </trkpt>
      <trkpt lat="37.0048090" lon="-2.2949160">
        <ele>1210.9</ele>
        <time>2019-10-18T13:04:55Z</time>
      </trkpt>
      <trkpt lat="37.0048030" lon="-2.2949480">
        <ele>1211.1</ele>
        <time>2019-10-18T13:04:56Z</time>
      </trkpt>
      <trkpt lat="37.0047950" lon="-2.2949790">
        <ele>1211.4</ele>
        <time>2019-10-18T13:04:57Z</time>
      </trkpt>
      <trkpt lat="37.0047870" lon="-2.2950100">
        <ele>1211.7</ele>
        <time>2019-10-18T13:04:58Z</time>
      </trkpt>
      <trkpt lat="37.0047780" lon="-2.2950400">
        <ele>1211.9</ele>
        <time>2019-10-18T13:04:59Z</time>
      </trkpt>
      <trkpt lat="37.0047680" lon="-2.2950680">
        <ele>1212.2</ele>
        <time>2019-10-18T13:05:00Z</time>
      </trkpt>
      <trkpt lat="37.0047570" lon="-2.2950960">
        <ele>1212.4</ele>
        <time>2019-10-18T13:05:01Z</time>
      </trkpt>
      <trkpt lat="37.0047460" lon="-2.2951220">
        <ele>1212.6</ele>
        <time>2019-10-18T13:05:02Z</time>
      </trkpt>
      <trkpt lat="37.0047330" lon="-2.2951490">
        <ele>1212.8</ele>
        <time>2019-10-18T13:05:03Z</time>
      </trkpt>
      <trkpt lat="37.0047200" lon="-2.2951740">
        <ele>1213.0</ele>
        <time>2019-10-18T13:05:04Z</time>
      </trkpt>
      <trkpt lat="37.0047040" lon="-2.2951990">
        <ele>1213.3</ele>
        <time>2019-10-18T13:05:05Z</time>
      </trkpt>
      <trkpt lat="37.0046880" lon="-2.2952220">
        <ele>1213.5</ele>
        <time>2019-10-18T13:05:06Z</time>
      </trkpt>
      <trkpt lat="37.0046700" lon="-2.2952440">
        <ele>1213.8</ele>
        <time>2019-10-18T13:05:07Z</time>
      </trkpt>
      <trkpt lat="37.0046510" lon="-2.2952650">
        <ele>1214.0</ele>
        <time>2019-10-18T13:05:08Z</time>
      </trkpt>
      <trkpt lat="37.0046320" lon="-2.2952860">
        <ele>1214.3</ele>
        <time>2019-10-18T13:05:09Z</time>
      </trkpt>
      <trkpt lat="37.0046120" lon="-2.2953050">
        <ele>1214.5</ele>
        <time>2019-10-18T13:05:10Z</time>
      </trkpt>
      <trkpt lat="37.0045930" lon="-2.2953230">
        <ele>1214.8</ele>
        <time>2019-10-18T13:05:11Z</time>
      </trkpt>
      <trkpt lat="37.0045730" lon="-2.2953400">
        <ele>1215.1</ele>
        <time>2019-10-18T13:05:12Z</time>
      </trkpt>
      <trkpt lat="37.0045540" lon="-2.2953570">
        <ele>1215.3</ele>
        <time>2019-10-18T13:05:13Z</time>
      </trkpt>
      <trkpt lat="37.0045360" lon="-2.2953730">
        <ele>1215.5</ele>
        <time>2019-10-18T13:05:14Z</time>
      </trkpt>
      <trkpt lat="37.0045170" lon="-2.2953870">
        <ele>1215.6</ele>
        <time>2019-10-18T13:05:15Z</time>
      </trkpt>
      <trkpt lat="37.0044970" lon="-2.2953990">
        <ele>1215.8</ele>
        <time>2019-10-18T13:05:16Z</time>
      </trkpt>
      <trkpt lat="37.0044770" lon="-2.2954110">
        <ele>1216.1</ele>
        <time>2019-10-18T13:05:17Z</time>
      </trkpt>
      <trkpt lat="37.0044580" lon="-2.2954220">
        <ele>1216.3</ele>
        <time>2019-10-18T13:05:18Z</time>
      </trkpt>
      <trkpt lat="37.0044380" lon="-2.2954320">
        <ele>1216.6</ele>
        <time>2019-10-18T13:05:19Z</time>
      </trkpt>
      <trkpt lat="37.0044180" lon="-2.2954410">
        <ele>1216.8</ele>
        <time>2019-10-18T13:05:20Z</time>
      </trkpt>
      <trkpt lat="37.0043970" lon="-2.2954510">
        <ele>1217.0</ele>
        <time>2019-10-18T13:05:21Z</time>
      </trkpt>
      <trkpt lat="37.0043770" lon="-2.2954600">
        <ele>1217.1</ele>
        <time>2019-10-18T13:05:22Z</time>
      </trkpt>
      <trkpt lat="37.0043560" lon="-2.2954670">
        <ele>1217.3</ele>
        <time>2019-10-18T13:05:23Z</time>
      </trkpt>
      <trkpt lat="37.0043350" lon="-2.2954720">
        <ele>1217.5</ele>
        <time>2019-10-18T13:05:24Z</time>
      </trkpt>
      <trkpt lat="37.0043120" lon="-2.2954760">
        <ele>1217.6</ele>
        <time>2019-10-18T13:05:25Z</time>
      </trkpt>
      <trkpt lat="37.0042900" lon="-2.2954790">
        <ele>1217.8</ele>
        <time>2019-10-18T13:05:26Z</time>
      </trkpt>
      <trkpt lat="37.0042670" lon="-2.2954800">
        <ele>1218.1</ele>
        <time>2019-10-18T13:05:27Z</time>
      </trkpt>
      <trkpt lat="37.0042430" lon="-2.2954810">
        <ele>1218.4</ele>
        <time>2019-10-18T13:05:28Z</time>
      </trkpt>
      <trkpt lat="37.0042200" lon="-2.2954810">
        <ele>1218.7</ele>
        <time>2019-10-18T13:05:29Z</time>
      </trkpt>
      <trkpt lat="37.0041970" lon="-2.2954830">
        <ele>1218.9</ele>
        <time>2019-10-18T13:05:30Z</time>
      </trkpt>
      <trkpt lat="37.0041740" lon="-2.2954850">
        <ele>1219.2</ele>
        <time>2019-10-18T13:05:31Z</time>
      </trkpt>
      <trkpt lat="37.0041510" lon="-2.2954860">
        <ele>1219.4</ele>
        <time>2019-10-18T13:05:32Z</time>
      </trkpt>
      <trkpt lat="37.0041280" lon="-2.2954880">
        <ele>1219.6</ele>
        <time>2019-10-18T13:05:33Z</time>
      </trkpt>
      <trkpt lat="37.0041040" lon="-2.2954900">
        <ele>1219.7</ele>
        <time>2019-10-18T13:05:34Z</time>
      </trkpt>
      <trkpt lat="37.0040790" lon="-2.2954930">
        <ele>1219.9</ele>
        <time>2019-10-18T13:05:35Z</time>
      </trkpt>
      <trkpt lat="37.0040550" lon="-2.2954970">
        <ele>1220.1</ele>
        <time>2019-10-18T13:05:36Z</time>
      </trkpt>
      <trkpt lat="37.0040310" lon="-2.2955010">
        <ele>1220.3</ele>
        <time>2019-10-18T13:05:37Z</time>
      </trkpt>
      <trkpt lat="37.0040070" lon="-2.2955040">
        <ele>1220.5</ele>
        <time>2019-10-18T13:05:38Z</time>
      </trkpt>
      <trkpt lat="37.0039830" lon="-2.2955070">
        <ele>1220.8</ele>
        <time>2019-10-18T13:05:39Z</time>
      </trkpt>
      <trkpt lat="37.0039590" lon="-2.2955100">
        <ele>1221.0</ele>
        <time>2019-10-18T13:05:40Z</time>
      </trkpt>
      <trkpt lat="37.0039340" lon="-2.2955120">
        <ele>1221.3</ele>
        <time>2019-10-18T13:05:41Z</time>
      </trkpt>
      <trkpt lat="37.0039100" lon="-2.2955120">
        <ele>1221.5</ele>
        <time>2019-10-18T13:05:42Z</time>
      </trkpt>
      <trkpt lat="37.0038850" lon="-2.2955130">
        <ele>1221.7</ele>
        <time>2019-10-18T13:05:43Z</time>
      </trkpt>
      <trkpt lat="37.0038610" lon="-2.2955130">
        <ele>1221.9</ele>
        <time>2019-10-18T13:05:44Z</time>
      </trkpt>
      <trkpt lat="37.0038370" lon="-2.2955140">
        <ele>1222.0</ele>
        <time>2019-10-18T13:05:45Z</time>
      </trkpt>
      <trkpt lat="37.0038130" lon="-2.2955150">
        <ele>1222.2</ele>
        <time>2019-10-18T13:05:46Z</time>
      </trkpt>
      <trkpt lat="37.0037900" lon="-2.2955150">
        <ele>1222.3</ele>
        <time>2019-10-18T13:05:47Z</time>
      </trkpt>
      <trkpt lat="37.0037660" lon="-2.2955140">
        <ele>1222.5</ele>
        <time>2019-10-18T13:05:48Z</time>
      </trkpt>
      <trkpt lat="37.0037410" lon="-2.2955130">
        <ele>1222.7</ele>
        <time>2019-10-18T13:05:49Z</time>
      </trkpt>
      <trkpt lat="37.0037170" lon="-2.2955120">
        <ele>1223.0</ele>
        <time>2019-10-18T13:05:50Z</time>
      </trkpt>
      <trkpt lat="37.0036920" lon="-2.2955130">
        <ele>1223.3</ele>
        <time>2019-10-18T13:05:51Z</time>
      </trkpt>
      <trkpt lat="37.0036670" lon="-2.2955150">
        <ele>1223.5</ele>
        <time>2019-10-18T13:05:52Z</time>
      </trkpt>
      <trkpt lat="37.0036420" lon="-2.2955200">
        <ele>1223.8</ele>
        <time>2019-10-18T13:05:53Z</time>
      </trkpt>
      <trkpt lat="37.0036180" lon="-2.2955270">
        <ele>1224.0</ele>
        <time>2019-10-18T13:05:54Z</time>
      </trkpt>
      <trkpt lat="37.0035950" lon="-2.2955350">
        <ele>1224.2</ele>
        <time>2019-10-18T13:05:55Z</time>
      </trkpt>
      <trkpt lat="37.0035720" lon="-2.2955450">
        <ele>1224.4</ele>
        <time>2019-10-18T13:05:56Z</time>
      </trkpt>
      <trkpt lat="37.0035510" lon="-2.2955560">
        <ele>1224.5</ele>
        <time>2019-10-18T13:05:57Z</time>
      </trkpt>
      <trkpt lat="37.0035310" lon="-2.2955710">
        <ele>1224.7</ele>
        <time>2019-10-18T13:05:58Z</time>
      </trkpt>
      <trkpt lat="37.0035130" lon="-2.2955900">
        <ele>1225.0</ele>
        <time>2019-10-18T13:05:59Z</time>
      </trkpt>
      <trkpt lat="37.0034970" lon="-2.2956120">
        <ele>1225.3</ele>
        <time>2019-10-18T13:06:00Z</time>
      </trkpt>
      <trkpt lat="37.0034820" lon="-2.2956350">
        <ele>1225.5</ele>
        <time>2019-10-18T13:06:01Z</time>
      </trkpt>
      <trkpt lat="37.0034690" lon="-2.2956600">
        <ele>1225.8</ele>
        <time>2019-10-18T13:06:02Z</time>
      </trkpt>
      <trkpt lat="37.0034590" lon="-2.2956870">
        <ele>1226.1</ele>
        <time>2019-10-18T13:06:03Z</time>
      </trkpt>
      <trkpt lat="37.0034510" lon="-2.2957140">
        <ele>1226.4</ele>
        <time>2019-10-18T13:06:04Z</time>
      </trkpt>
      <trkpt lat="37.0034450" lon="-2.2957420">
        <ele>1226.7</ele>
        <time>2019-10-18T13:06:05Z</time>
      </trkpt>
      <trkpt lat="37.0034430" lon="-2.2957700">
        <ele>1226.9</ele>
        <time>2019-10-18T13:06:06Z</time>
      </trkpt>
      <trkpt lat="37.0034440" lon="-2.2957980">
        <ele>1227.1</ele>
        <time>2019-10-18T13:06:07Z</time>
      </trkpt>
      <trkpt lat="37.0034490" lon="-2.2958260">
        <ele>1227.3</ele>
        <time>2019-10-18T13:06:08Z</time>
      </trkpt>
      <trkpt lat="37.0034540" lon="-2.2958530">
        <ele>1227.5</ele>
        <time>2019-10-18T13:06:09Z</time>
      </trkpt>
      <trkpt lat="37.0034570" lon="-2.2958790">
        <ele>1227.8</ele>
        <time>2019-10-18T13:06:10Z</time>
      </trkpt>
      <trkpt lat="37.0034590" lon="-2.2959050">
        <ele>1228.0</ele>
        <time>2019-10-18T13:06:11Z</time>
      </trkpt>
      <trkpt lat="37.0034620" lon="-2.2959310">
        <ele>1228.3</ele>
        <time>2019-10-18T13:06:12Z</time>
      </trkpt>
      <trkpt lat="37.0034660" lon="-2.2959550">
        <ele>1228.5</ele>
        <time>2019-10-18T13:06:13Z</time>
      </trkpt>
      <trkpt lat="37.0034700" lon="-2.2959790">
        <ele>1228.8</ele>
        <time>2019-10-18T13:06:14Z</time>
      </trkpt>
      <trkpt lat="37.0034730" lon="-2.2960030">
        <ele>1229.0</ele>
        <time>2019-10-18T13:06:15Z</time>
      </trkpt>
      <trkpt lat="37.0034760" lon="-2.2960260">
        <ele>1229.3</ele>
        <time>2019-10-18T13:06:16Z</time>
      </trkpt>
      <trkpt lat="37.0034790" lon="-2.2960490">
        <ele>1229.5</ele>
        <time>2019-10-18T13:06:17Z</time>
      </trkpt>
      <trkpt lat="37.0034810" lon="-2.2960720">
        <ele>1229.7</ele>
        <time>2019-10-18T13:06:18Z</time>
      </trkpt>
      <trkpt lat="37.0034820" lon="-2.2960960">
        <ele>1230.0</ele>
        <time>2019-10-18T13:06:19Z</time>
      </trkpt>
      <trkpt lat="37.0034840" lon="-2.2961200">
        <ele>1230.2</ele>
        <time>2019-10-18T13:06:20Z</time>
      </trkpt>
      <trkpt lat="37.0034870" lon="-2.2961430">
        <ele>1230.4</ele>
        <time>2019-10-18T13:06:21Z</time>
      </trkpt>
      <trkpt lat="37.0034870" lon="-2.2961670">
        <ele>1230.7</ele>
        <time>2019-10-18T13:06:22Z</time>
      </trkpt>
      <trkpt lat="37.0034860" lon="-2.2961910">
        <ele>1230.9</ele>
        <time>2019-10-18T13:06:23Z</time>
      </trkpt>
      <trkpt lat="37.0034840" lon="-2.2962150">
        <ele>1231.1</ele>
        <time>2019-10-18T13:06:24Z</time>
      </trkpt>
      <trkpt lat="37.0034800" lon="-2.2962390">
        <ele>1231.3</ele>
        <time>2019-10-18T13:06:25Z</time>
      </trkpt>
      <trkpt lat="37.0034740" lon="-2.2962630">
        <ele>1231.5</ele>
        <time>2019-10-18T13:06:26Z</time>
      </trkpt>
      <trkpt lat="37.0034660" lon="-2.2962870">
        <ele>1231.8</ele>
        <time>2019-10-18T13:06:27Z</time>
      </trkpt>
      <trkpt lat="37.0034580" lon="-2.2963110">
        <ele>1232.1</ele>
        <time>2019-10-18T13:06:28Z</time>
      </trkpt>
      <trkpt lat="37.0034500" lon="-2.2963340">
        <ele>1232.4</ele>
        <time>2019-10-18T13:06:29Z</time>
      </trkpt>
      <trkpt lat="37.0034410" lon="-2.2963560">
        <ele>1232.6</ele>
        <time>2019-10-18T13:06:30Z</time>
      </trkpt>
      <trkpt lat="37.0034300" lon="-2.2963770">
        <ele>1232.9</ele>
        <time>2019-10-18T13:06:31Z</time>
      </trkpt>
      <trkpt lat="37.0034180" lon="-2.2963970">
        <ele>1233.1</ele>
        <time>2019-10-18T13:06:32Z</time>
      </trkpt>
      <trkpt lat="37.0034050" lon="-2.2964160">
        <ele>1233.3</ele>
        <time>2019-10-18T13:06:33Z</time>
      </trkpt>
      <trkpt lat="37.0033900" lon="-2.2964360">
        <ele>1233.6</ele>
        <time>2019-10-18T13:06:34Z</time>
      </trkpt>
      <trkpt lat="37.0033770" lon="-2.2964550">
        <ele>1233.9</ele>
        <time>2019-10-18T13:06:35Z</time>
      </trkpt>
      <trkpt lat="37.0033630" lon="-2.2964760">
        <ele>1234.1</ele>
        <time>2019-10-18T13:06:36Z</time>
      </trkpt>
      <trkpt lat="37.0033510" lon="-2.2964980">
        <ele>1234.4</ele>
        <time>2019-10-18T13:06:37Z</time>
      </trkpt>
      <trkpt lat="37.0033390" lon="-2.2965200">
        <ele>1234.7</ele>
        <time>2019-10-18T13:06:38Z</time>
      </trkpt>
      <trkpt lat="37.0033270" lon="-2.2965420">
        <ele>1234.9</ele>
        <time>2019-10-18T13:06:39Z</time>
      </trkpt>
      <trkpt lat="37.0033140" lon="-2.2965630">
        <ele>1235.1</ele>
        <time>2019-10-18T13:06:40Z</time>
      </trkpt>
      <trkpt lat="37.0033020" lon="-2.2965840">
        <ele>1235.3</ele>
        <time>2019-10-18T13:06:41Z</time>
      </trkpt>
      <trkpt lat="37.0032880" lon="-2.2966040">
        <ele>1235.5</ele>
        <time>2019-10-18T13:06:42Z</time>
      </trkpt>
      <trkpt lat="37.0032740" lon="-2.2966230">
        <ele>1235.8</ele>
        <time>2019-10-18T13:06:43Z</time>
      </trkpt>
      <trkpt lat="37.0032610" lon="-2.2966420">
        <ele>1236.0</ele>
        <time>2019-10-18T13:06:44Z</time>
      </trkpt>
      <trkpt lat="37.0032470" lon="-2.2966620">
        <ele>1236.3</ele>
        <time>2019-10-18T13:06:45Z</time>
      </trkpt>
      <trkpt lat="37.0032330" lon="-2.2966810">
        <ele>1236.5</ele>
        <time>2019-10-18T13:06:46Z</time>
      </trkpt>
      <trkpt lat="37.0032170" lon="-2.2966990">
        <ele>1236.8</ele>
        <time>2019-10-18T13:06:47Z</time>
      </trkpt>
      <trkpt lat="37.0032010" lon="-2.2967170">
        <ele>1237.1</ele>
        <time>2019-10-18T13:06:48Z</time>
      </trkpt>
      <trkpt lat="37.0031850" lon="-2.2967340">
        <ele>1237.5</ele>
        <time>2019-10-18T13:06:49Z</time>
      </trkpt>
      <trkpt lat="37.0031680" lon="-2.2967510">
        <ele>1237.7</ele>
        <time>2019-10-18T13:06:50Z</time>
      </trkpt>
      <trkpt lat="37.0031510" lon="-2.2967660">
        <ele>1237.9</ele>
        <time>2019-10-18T13:06:51Z</time>
      </trkpt>
      <trkpt lat="37.0031330" lon="-2.2967810">
        <ele>1238.1</ele>
        <time>2019-10-18T13:06:52Z</time>
      </trkpt>
      <trkpt lat="37.0031150" lon="-2.2967950">
        <ele>1238.3</ele>
        <time>2019-10-18T13:06:53Z</time>
      </trkpt>
      <trkpt lat="37.0030960" lon="-2.2968090">
        <ele>1238.5</ele>
        <time>2019-10-18T13:06:54Z</time>
      </trkpt>
      <trkpt lat="37.0030770" lon="-2.2968240">
        <ele>1238.7</ele>
        <time>2019-10-18T13:06:55Z</time>
      </trkpt>
      <trkpt lat="37.0030590" lon="-2.2968390">
        <ele>1239.0</ele>
        <time>2019-10-18T13:06:56Z</time>
      </trkpt>
      <trkpt lat="37.0030420" lon="-2.2968550">
        <ele>1239.3</ele>
        <time>2019-10-18T13:06:57Z</time>
      </trkpt>
      <trkpt lat="37.0030250" lon="-2.2968710">
        <ele>1239.6</ele>
        <time>2019-10-18T13:06:58Z</time>
      </trkpt>
      <trkpt lat="37.0030100" lon="-2.2968870">
        <ele>1239.9</ele>
        <time>2019-10-18T13:06:59Z</time>
      </trkpt>
      <trkpt lat="37.0029920" lon="-2.2969010">
        <ele>1240.1</ele>
        <time>2019-10-18T13:07:00Z</time>
      </trkpt>
      <trkpt lat="37.0029740" lon="-2.2969130">
        <ele>1240.3</ele>
        <time>2019-10-18T13:07:01Z</time>
      </trkpt>
      <trkpt lat="37.0029540" lon="-2.2969230">
        <ele>1240.5</ele>
        <time>2019-10-18T13:07:02Z</time>
      </trkpt>
      <trkpt lat="37.0029340" lon="-2.2969330">
        <ele>1240.7</ele>
        <time>2019-10-18T13:07:03Z</time>
      </trkpt>
      <trkpt lat="37.0029140" lon="-2.2969430">
        <ele>1241.0</ele>
        <time>2019-10-18T13:07:04Z</time>
      </trkpt>
      <trkpt lat="37.0028950" lon="-2.2969540">
        <ele>1241.2</ele>
        <time>2019-10-18T13:07:05Z</time>
      </trkpt>
      <trkpt lat="37.0028750" lon="-2.2969650">
        <ele>1241.5</ele>
        <time>2019-10-18T13:07:06Z</time>
      </trkpt>
      <trkpt lat="37.0028560" lon="-2.2969760">
        <ele>1241.9</ele>
        <time>2019-10-18T13:07:07Z</time>
      </trkpt>
      <trkpt lat="37.0028360" lon="-2.2969850">
        <ele>1242.1</ele>
        <time>2019-10-18T13:07:08Z</time>
      </trkpt>
      <trkpt lat="37.0028170" lon="-2.2969960">
        <ele>1242.3</ele>
        <time>2019-10-18T13:07:09Z</time>
      </trkpt>
      <trkpt lat="37.0027990" lon="-2.2970070">
        <ele>1242.4</ele>
        <time>2019-10-18T13:07:10Z</time>
      </trkpt>
      <trkpt lat="37.0027820" lon="-2.2970190">
        <ele>1242.6</ele>
        <time>2019-10-18T13:07:11Z</time>
      </trkpt>
      <trkpt lat="37.0027650" lon="-2.2970300">
        <ele>1242.8</ele>
        <time>2019-10-18T13:07:12Z</time>
      </trkpt>
      <trkpt lat="37.0027480" lon="-2.2970420">
        <ele>1242.9</ele>
        <time>2019-10-18T13:07:13Z</time>
      </trkpt>
      <trkpt lat="37.0027310" lon="-2.2970530">
        <ele>1243.1</ele>
        <time>2019-10-18T13:07:14Z</time>
      </trkpt>
      <trkpt lat="37.0027140" lon="-2.2970640">
        <ele>1243.3</ele>
        <time>2019-10-18T13:07:15Z</time>
      </trkpt>
      <trkpt lat="37.0026970" lon="-2.2970750">
        <ele>1243.4</ele>
        <time>2019-10-18T13:07:16Z</time>
      </trkpt>
      <trkpt lat="37.0026800" lon="-2.2970860">
        <ele>1243.7</ele>
        <time>2019-10-18T13:07:17Z</time>
      </trkpt>
      <trkpt lat="37.0026620" lon="-2.2970960">
        <ele>1244.0</ele>
        <time>2019-10-18T13:07:18Z</time>
      </trkpt>
      <trkpt lat="37.0026430" lon="-2.2971080">
        <ele>1244.3</ele>
        <time>2019-10-18T13:07:19Z</time>
      </trkpt>
      <trkpt lat="37.0026260" lon="-2.2971190">
        <ele>1244.6</ele>
        <time>2019-10-18T13:07:20Z</time>
      </trkpt>
      <trkpt lat="37.0026080" lon="-2.2971320">
        <ele>1244.9</ele>
        <time>2019-10-18T13:07:21Z</time>
      </trkpt>
      <trkpt lat="37.0025910" lon="-2.2971450">
        <ele>1245.2</ele>
        <time>2019-10-18T13:07:22Z</time>
      </trkpt>
      <trkpt lat="37.0025730" lon="-2.2971570">
        <ele>1245.4</ele>
        <time>2019-10-18T13:07:23Z</time>
      </trkpt>
      <trkpt lat="37.0025560" lon="-2.2971700">
        <ele>1245.7</ele>
        <time>2019-10-18T13:07:24Z</time>
      </trkpt>
      <trkpt lat="37.0025380" lon="-2.2971840">
        <ele>1245.9</ele>
        <time>2019-10-18T13:07:25Z</time>
      </trkpt>
      <trkpt lat="37.0025210" lon="-2.2971990">
        <ele>1246.2</ele>
        <time>2019-10-18T13:07:26Z</time>
      </trkpt>
      <trkpt lat="37.0025050" lon="-2.2972140">
        <ele>1246.5</ele>
        <time>2019-10-18T13:07:27Z</time>
      </trkpt>
      <trkpt lat="37.0024890" lon="-2.2972300">
        <ele>1246.7</ele>
        <time>2019-10-18T13:07:28Z</time>
      </trkpt>
      <trkpt lat="37.0024730" lon="-2.2972460">
        <ele>1246.9</ele>
        <time>2019-10-18T13:07:29Z</time>
      </trkpt>
      <trkpt lat="37.0024570" lon="-2.2972630">
        <ele>1247.1</ele>
        <time>2019-10-18T13:07:30Z</time>
      </trkpt>
      <trkpt lat="37.0024420" lon="-2.2972780">
        <ele>1247.3</ele>
        <time>2019-10-18T13:07:31Z</time>
      </trkpt>
      <trkpt lat="37.0024260" lon="-2.2972940">
        <ele>1247.5</ele>
        <time>2019-10-18T13:07:32Z</time>
      </trkpt>
      <trkpt lat="37.0024100" lon="-2.2973090">
        <ele>1247.6</ele>
        <time>2019-10-18T13:07:33Z</time>
      </trkpt>
      <trkpt lat="37.0023950" lon="-2.2973260">
        <ele>1247.9</ele>
        <time>2019-10-18T13:07:34Z</time>
      </trkpt>
      <trkpt lat="37.0023800" lon="-2.2973420">
        <ele>1248.1</ele>
        <time>2019-10-18T13:07:35Z</time>
      </trkpt>
      <trkpt lat="37.0023650" lon="-2.2973600">
        <ele>1248.4</ele>
        <time>2019-10-18T13:07:36Z</time>
      </trkpt>
      <trkpt lat="37.0023510" lon="-2.2973780">
        <ele>1248.6</ele>
        <time>2019-10-18T13:07:37Z</time>
      </trkpt>
      <trkpt lat="37.0023380" lon="-2.2973990">
        <ele>1248.9</ele>
        <time>2019-10-18T13:07:38Z</time>
      </trkpt>
      <trkpt lat="37.0023270" lon="-2.2974200">
        <ele>1249.2</ele>
        <time>2019-10-18T13:07:39Z</time>
      </trkpt>
      <trkpt lat="37.0023170" lon="-2.2974430">
        <ele>1249.3</ele>
        <time>2019-10-18T13:07:40Z</time>
      </trkpt>
      <trkpt lat="37.0023070" lon="-2.2974650">
        <ele>1249.5</ele>
        <time>2019-10-18T13:07:41Z</time>
      </trkpt>
      <trkpt lat="37.0022960" lon="-2.2974870">
        <ele>1249.7</ele>
        <time>2019-10-18T13:07:42Z</time>
      </trkpt>
      <trkpt lat="37.0022860" lon="-2.2975100">
        <ele>1249.8</ele>
        <time>2019-10-18T13:07:43Z</time>
      </trkpt>
      <trkpt lat="37.0022780" lon="-2.2975340">
        <ele>1250.0</ele>
        <time>2019-10-18T13:07:44Z</time>
      </trkpt>
      <trkpt lat="37.0022720" lon="-2.2975570">
        <ele>1250.2</ele>
        <time>2019-10-18T13:07:45Z</time>
      </trkpt>
      <trkpt lat="37.0022640" lon="-2.2975790">
        <ele>1250.3</ele>
        <time>2019-10-18T13:07:46Z</time>
      </trkpt>
      <trkpt lat="37.0022540" lon="-2.2976000">
        <ele>1250.5</ele>
        <time>2019-10-18T13:07:47Z</time>
      </trkpt>
      <trkpt lat="37.0022440" lon="-2.2976210">
        <ele>1250.7</ele>
        <time>2019-10-18T13:07:48Z</time>
      </trkpt>
      <trkpt lat="37.0022350" lon="-2.2976420">
        <ele>1250.9</ele>
        <time>2019-10-18T13:07:49Z</time>
      </trkpt>
      <trkpt lat="37.0022260" lon="-2.2976640">
        <ele>1251.2</ele>
        <time>2019-10-18T13:07:50Z</time>
      </trkpt>
      <trkpt lat="37.0022170" lon="-2.2976860">
        <ele>1251.3</ele>
        <time>2019-10-18T13:07:51Z</time>
      </trkpt>
      <trkpt lat="37.0022080" lon="-2.2977070">
        <ele>1251.5</ele>
        <time>2019-10-18T13:07:52Z</time>
      </trkpt>
      <trkpt lat="37.0021980" lon="-2.2977270">
        <ele>1251.6</ele>
        <time>2019-10-18T13:07:53Z</time>
      </trkpt>
      <trkpt lat="37.0021860" lon="-2.2977470">
        <ele>1251.8</ele>
        <time>2019-10-18T13:07:54Z</time>
      </trkpt>
      <trkpt lat="37.0021730" lon="-2.2977680">
        <ele>1252.0</ele>
        <time>2019-10-18T13:07:55Z</time>
      </trkpt>
      <trkpt lat="37.0021610" lon="-2.2977900">
        <ele>1252.1</ele>
        <time>2019-10-18T13:07:56Z</time>
      </trkpt>
      <trkpt lat="37.0021500" lon="-2.2978130">
        <ele>1252.3</ele>
        <time>2019-10-18T13:07:57Z</time>
      </trkpt>
      <trkpt lat="37.0021410" lon="-2.2978370">
        <ele>1252.6</ele>
        <time>2019-10-18T13:07:58Z</time>
      </trkpt>
      <trkpt lat="37.0021330" lon="-2.2978620">
        <ele>1252.8</ele>
        <time>2019-10-18T13:07:59Z</time>
      </trkpt>
      <trkpt lat="37.0021250" lon="-2.2978880">
        <ele>1253.1</ele>
        <time>2019-10-18T13:08:00Z</time>
      </trkpt>
      <trkpt lat="37.0021160" lon="-2.2979130">
        <ele>1253.3</ele>
        <time>2019-10-18T13:08:01Z</time>
      </trkpt>
      <trkpt lat="37.0021050" lon="-2.2979380">
        <ele>1253.5</ele>
        <time>2019-10-18T13:08:02Z</time>
      </trkpt>
      <trkpt lat="37.0020940" lon="-2.2979620">
        <ele>1253.7</ele>
        <time>2019-10-18T13:08:03Z</time>
      </trkpt>
      <trkpt lat="37.0020820" lon="-2.2979870">
        <ele>1253.8</ele>
        <time>2019-10-18T13:08:04Z</time>
      </trkpt>
      <trkpt lat="37.0020700" lon="-2.2980110">
        <ele>1253.9</ele>
        <time>2019-10-18T13:08:05Z</time>
      </trkpt>
      <trkpt lat="37.0020590" lon="-2.2980360">
        <ele>1254.1</ele>
        <time>2019-10-18T13:08:06Z</time>
      </trkpt>
      <trkpt lat="37.0020500" lon="-2.2980610">
        <ele>1254.2</ele>
        <time>2019-10-18T13:08:07Z</time>
      </trkpt>
      <trkpt lat="37.0020410" lon="-2.2980860">
        <ele>1254.3</ele>
        <time>2019-10-18T13:08:08Z</time>
      </trkpt>
      <trkpt lat="37.0020310" lon="-2.2981110">
        <ele>1254.4</ele>
        <time>2019-10-18T13:08:09Z</time>
      </trkpt>
      <trkpt lat="37.0020200" lon="-2.2981350">
        <ele>1254.6</ele>
        <time>2019-10-18T13:08:10Z</time>
      </trkpt>
      <trkpt lat="37.0020090" lon="-2.2981590">
        <ele>1254.8</ele>
        <time>2019-10-18T13:08:11Z</time>
      </trkpt>
      <trkpt lat="37.0019990" lon="-2.2981850">
        <ele>1255.0</ele>
        <time>2019-10-18T13:08:12Z</time>
      </trkpt>
      <trkpt lat="37.0019930" lon="-2.2982130">
        <ele>1255.2</ele>
        <time>2019-10-18T13:08:13Z</time>
      </trkpt>
      <trkpt lat="37.0019880" lon="-2.2982410">
        <ele>1255.4</ele>
        <time>2019-10-18T13:08:14Z</time>
      </trkpt>
      <trkpt lat="37.0019840" lon="-2.2982690">
        <ele>1255.6</ele>
        <time>2019-10-18T13:08:15Z</time>
      </trkpt>
      <trkpt lat="37.0019790" lon="-2.2982970">
        <ele>1255.8</ele>
        <time>2019-10-18T13:08:16Z</time>
      </trkpt>
      <trkpt lat="37.0019740" lon="-2.2983240">
        <ele>1255.9</ele>
        <time>2019-10-18T13:08:17Z</time>
      </trkpt>
      <trkpt lat="37.0019690" lon="-2.2983520">
        <ele>1256.0</ele>
        <time>2019-10-18T13:08:18Z</time>
      </trkpt>
      <trkpt lat="37.0019650" lon="-2.2983800">
        <ele>1256.1</ele>
        <time>2019-10-18T13:08:19Z</time>
      </trkpt>
      <trkpt lat="37.0019600" lon="-2.2984090">
        <ele>1256.2</ele>
        <time>2019-10-18T13:08:20Z</time>
      </trkpt>
      <trkpt lat="37.0019550" lon="-2.2984370">
        <ele>1256.3</ele>
        <time>2019-10-18T13:08:21Z</time>
      </trkpt>
      <trkpt lat="37.0019500" lon="-2.2984660">
        <ele>1256.4</ele>
        <time>2019-10-18T13:08:22Z</time>
      </trkpt>
      <trkpt lat="37.0019460" lon="-2.2984950">
        <ele>1256.6</ele>
        <time>2019-10-18T13:08:23Z</time>
      </trkpt>
      <trkpt lat="37.0019430" lon="-2.2985240">
        <ele>1256.7</ele>
        <time>2019-10-18T13:08:24Z</time>
      </trkpt>
      <trkpt lat="37.0019420" lon="-2.2985530">
        <ele>1256.8</ele>
        <time>2019-10-18T13:08:25Z</time>
      </trkpt>
      <trkpt lat="37.0019400" lon="-2.2985820">
        <ele>1257.0</ele>
        <time>2019-10-18T13:08:26Z</time>
      </trkpt>
      <trkpt lat="37.0019400" lon="-2.2986110">
        <ele>1257.2</ele>
        <time>2019-10-18T13:08:27Z</time>
      </trkpt>
      <trkpt lat="37.0019410" lon="-2.2986400">
        <ele>1257.5</ele>
        <time>2019-10-18T13:08:28Z</time>
      </trkpt>
      <trkpt lat="37.0019430" lon="-2.2986690">
        <ele>1257.7</ele>
        <time>2019-10-18T13:08:29Z</time>
      </trkpt>
      <trkpt lat="37.0019470" lon="-2.2986970">
        <ele>1257.9</ele>
        <time>2019-10-18T13:08:30Z</time>
      </trkpt>
      <trkpt lat="37.0019500" lon="-2.2987250">
        <ele>1258.0</ele>
        <time>2019-10-18T13:08:31Z</time>
      </trkpt>
      <trkpt lat="37.0019520" lon="-2.2987520">
        <ele>1258.1</ele>
        <time>2019-10-18T13:08:32Z</time>
      </trkpt>
      <trkpt lat="37.0019540" lon="-2.2987800">
        <ele>1258.3</ele>
        <time>2019-10-18T13:08:33Z</time>
      </trkpt>
      <trkpt lat="37.0019550" lon="-2.2988090">
        <ele>1258.4</ele>
        <time>2019-10-18T13:08:34Z</time>
      </trkpt>
      <trkpt lat="37.0019550" lon="-2.2988380">
        <ele>1258.5</ele>
        <time>2019-10-18T13:08:35Z</time>
      </trkpt>
      <trkpt lat="37.0019560" lon="-2.2988680">
        <ele>1258.6</ele>
        <time>2019-10-18T13:08:36Z</time>
      </trkpt>
      <trkpt lat="37.0019570" lon="-2.2988980">
        <ele>1258.8</ele>
        <time>2019-10-18T13:08:37Z</time>
      </trkpt>
      <trkpt lat="37.0019580" lon="-2.2989270">
        <ele>1258.9</ele>
        <time>2019-10-18T13:08:38Z</time>
      </trkpt>
      <trkpt lat="37.0019590" lon="-2.2989560">
        <ele>1259.0</ele>
        <time>2019-10-18T13:08:39Z</time>
      </trkpt>
      <trkpt lat="37.0019590" lon="-2.2989850">
        <ele>1259.2</ele>
        <time>2019-10-18T13:08:40Z</time>
      </trkpt>
      <trkpt lat="37.0019590" lon="-2.2990140">
        <ele>1259.5</ele>
        <time>2019-10-18T13:08:41Z</time>
      </trkpt>
      <trkpt lat="37.0019590" lon="-2.2990420">
        <ele>1259.7</ele>
        <time>2019-10-18T13:08:42Z</time>
      </trkpt>
      <trkpt lat="37.0019590" lon="-2.2990700">
        <ele>1259.9</ele>
        <time>2019-10-18T13:08:43Z</time>
      </trkpt>
      <trkpt lat="37.0019590" lon="-2.2990980">
        <ele>1260.1</ele>
        <time>2019-10-18T13:08:44Z</time>
      </trkpt>
      <trkpt lat="37.0019580" lon="-2.2991270">
        <ele>1260.2</ele>
        <time>2019-10-18T13:08:45Z</time>
      </trkpt>
      <trkpt lat="37.0019560" lon="-2.2991550">
        <ele>1260.4</ele>
        <time>2019-10-18T13:08:46Z</time>
      </trkpt>
      <trkpt lat="37.0019530" lon="-2.2991840">
        <ele>1260.5</ele>
        <time>2019-10-18T13:08:47Z</time>
      </trkpt>
      <trkpt lat="37.0019490" lon="-2.2992120">
        <ele>1260.7</ele>
        <time>2019-10-18T13:08:48Z</time>
      </trkpt>
      <trkpt lat="37.0019460" lon="-2.2992410">
        <ele>1260.8</ele>
        <time>2019-10-18T13:08:49Z</time>
      </trkpt>
      <trkpt lat="37.0019420" lon="-2.2992690">
        <ele>1260.9</ele>
        <time>2019-10-18T13:08:50Z</time>
      </trkpt>
      <trkpt lat="37.0019390" lon="-2.2992980">
        <ele>1261.1</ele>
        <time>2019-10-18T13:08:51Z</time>
      </trkpt>
      <trkpt lat="37.0019350" lon="-2.2993260">
        <ele>1261.2</ele>
        <time>2019-10-18T13:08:52Z</time>
      </trkpt>
      <trkpt lat="37.0019310" lon="-2.2993550">
        <ele>1261.4</ele>
        <time>2019-10-18T13:08:53Z</time>
      </trkpt>
      <trkpt lat="37.0019260" lon="-2.2993830">
        <ele>1261.5</ele>
        <time>2019-10-18T13:08:54Z</time>
      </trkpt>
      <trkpt lat="37.0019210" lon="-2.2994120">
        <ele>1261.6</ele>
        <time>2019-10-18T13:08:55Z</time>
      </trkpt>
      <trkpt lat="37.0019170" lon="-2.2994410">
        <ele>1261.8</ele>
        <time>2019-10-18T13:08:56Z</time>
      </trkpt>
      <trkpt lat="37.0019140" lon="-2.2994700">
        <ele>1262.0</ele>
        <time>2019-10-18T13:08:57Z</time>
      </trkpt>
      <trkpt lat="37.0019120" lon="-2.2995000">
        <ele>1262.2</ele>
        <time>2019-10-18T13:08:58Z</time>
      </trkpt>
      <trkpt lat="37.0019100" lon="-2.2995290">
        <ele>1262.4</ele>
        <time>2019-10-18T13:08:59Z</time>
      </trkpt>
      <trkpt lat="37.0019080" lon="-2.2995590">
        <ele>1262.6</ele>
        <time>2019-10-18T13:09:00Z</time>
      </trkpt>
      <trkpt lat="37.0019020" lon="-2.2995870">
        <ele>1262.8</ele>
        <time>2019-10-18T13:09:01Z</time>
      </trkpt>
      <trkpt lat="37.0018960" lon="-2.2996140">
        <ele>1262.9</ele>
        <time>2019-10-18T13:09:02Z</time>
      </trkpt>
      <trkpt lat="37.0018880" lon="-2.2996410">
        <ele>1263.0</ele>
        <time>2019-10-18T13:09:03Z</time>
      </trkpt>
      <trkpt lat="37.0018810" lon="-2.2996690">
        <ele>1263.1</ele>
        <time>2019-10-18T13:09:04Z</time>
      </trkpt>
      <trkpt lat="37.0018750" lon="-2.2996970">
        <ele>1263.2</ele>
        <time>2019-10-18T13:09:05Z</time>
      </trkpt>
      <trkpt lat="37.0018690" lon="-2.2997240">
        <ele>1263.3</ele>
        <time>2019-10-18T13:09:06Z</time>
      </trkpt>
      <trkpt lat="37.0018640" lon="-2.2997510">
        <ele>1263.5</ele>
        <time>2019-10-18T13:09:07Z</time>
      </trkpt>
      <trkpt lat="37.0018590" lon="-2.2997780">
        <ele>1263.6</ele>
        <time>2019-10-18T13:09:08Z</time>
      </trkpt>
      <trkpt lat="37.0018540" lon="-2.2998050">
        <ele>1263.8</ele>
        <time>2019-10-18T13:09:09Z</time>
      </trkpt>
      <trkpt lat="37.0018490" lon="-2.2998320">
        <ele>1264.0</ele>
        <time>2019-10-18T13:09:10Z</time>
      </trkpt>
      <trkpt lat="37.0018440" lon="-2.2998600">
        <ele>1264.2</ele>
        <time>2019-10-18T13:09:11Z</time>
      </trkpt>
      <trkpt lat="37.0018400" lon="-2.2998870">
        <ele>1264.4</ele>
        <time>2019-10-18T13:09:12Z</time>
      </trkpt>
      <trkpt lat="37.0018360" lon="-2.2999130">
        <ele>1264.6</ele>
        <time>2019-10-18T13:09:13Z</time>
      </trkpt>
      <trkpt lat="37.0018330" lon="-2.2999400">
        <ele>1264.9</ele>
        <time>2019-10-18T13:09:14Z</time>
      </trkpt>
      <trkpt lat="37.0018300" lon="-2.2999660">
        <ele>1265.1</ele>
        <time>2019-10-18T13:09:15Z</time>
      </trkpt>
      <trkpt lat="37.0018260" lon="-2.2999910">
        <ele>1265.3</ele>
        <time>2019-10-18T13:09:16Z</time>
      </trkpt>
      <trkpt lat="37.0018210" lon="-2.3000150">
        <ele>1265.5</ele>
        <time>2019-10-18T13:09:17Z</time>
      </trkpt>
      <trkpt lat="37.0018160" lon="-2.3000400">
        <ele>1265.7</ele>
        <time>2019-10-18T13:09:18Z</time>
      </trkpt>
      <trkpt lat="37.0018120" lon="-2.3000650">
        <ele>1265.9</ele>
        <time>2019-10-18T13:09:19Z</time>
      </trkpt>
      <trkpt lat="37.0018090" lon="-2.3000900">
        <ele>1266.1</ele>
        <time>2019-10-18T13:09:20Z</time>
      </trkpt>
      <trkpt lat="37.0018060" lon="-2.3001150">
        <ele>1266.3</ele>
        <time>2019-10-18T13:09:21Z</time>
      </trkpt>
      <trkpt lat="37.0018020" lon="-2.3001400">
        <ele>1266.5</ele>
        <time>2019-10-18T13:09:22Z</time>
      </trkpt>
      <trkpt lat="37.0017980" lon="-2.3001640">
        <ele>1266.8</ele>
        <time>2019-10-18T13:09:23Z</time>
      </trkpt>
      <trkpt lat="37.0017950" lon="-2.3001890">
        <ele>1267.0</ele>
        <time>2019-10-18T13:09:24Z</time>
      </trkpt>
      <trkpt lat="37.0017910" lon="-2.3002140">
        <ele>1267.3</ele>
        <time>2019-10-18T13:09:25Z</time>
      </trkpt>
      <trkpt lat="37.0017870" lon="-2.3002380">
        <ele>1267.4</ele>
        <time>2019-10-18T13:09:26Z</time>
      </trkpt>
      <trkpt lat="37.0017820" lon="-2.3002630">
        <ele>1267.6</ele>
        <time>2019-10-18T13:09:27Z</time>
      </trkpt>
      <trkpt lat="37.0017760" lon="-2.3002880">
        <ele>1267.8</ele>
        <time>2019-10-18T13:09:28Z</time>
      </trkpt>
      <trkpt lat="37.0017720" lon="-2.3003130">
        <ele>1268.0</ele>
        <time>2019-10-18T13:09:29Z</time>
      </trkpt>
      <trkpt lat="37.0017690" lon="-2.3003380">
        <ele>1268.2</ele>
        <time>2019-10-18T13:09:30Z</time>
      </trkpt>
      <trkpt lat="37.0017670" lon="-2.3003640">
        <ele>1268.4</ele>
        <time>2019-10-18T13:09:31Z</time>
      </trkpt>
      <trkpt lat="37.0017640" lon="-2.3003890">
        <ele>1268.6</ele>
        <time>2019-10-18T13:09:32Z</time>
      </trkpt>
      <trkpt lat="37.0017590" lon="-2.3004140">
        <ele>1268.9</ele>
        <time>2019-10-18T13:09:33Z</time>
      </trkpt>
      <trkpt lat="37.0017540" lon="-2.3004400">
        <ele>1269.1</ele>
        <time>2019-10-18T13:09:34Z</time>
      </trkpt>
      <trkpt lat="37.0017490" lon="-2.3004650">
        <ele>1269.4</ele>
        <time>2019-10-18T13:09:35Z</time>
      </trkpt>
      <trkpt lat="37.0017450" lon="-2.3004900">
        <ele>1269.6</ele>
        <time>2019-10-18T13:09:36Z</time>
      </trkpt>
      <trkpt lat="37.0017410" lon="-2.3005150">
        <ele>1269.9</ele>
        <time>2019-10-18T13:09:37Z</time>
      </trkpt>
      <trkpt lat="37.0017360" lon="-2.3005400">
        <ele>1270.1</ele>
        <time>2019-10-18T13:09:38Z</time>
      </trkpt>
      <trkpt lat="37.0017300" lon="-2.3005660">
        <ele>1270.2</ele>
        <time>2019-10-18T13:09:39Z</time>
      </trkpt>
      <trkpt lat="37.0017230" lon="-2.3005920">
        <ele>1270.4</ele>
        <time>2019-10-18T13:09:40Z</time>
      </trkpt>
      <trkpt lat="37.0017160" lon="-2.3006180">
        <ele>1270.6</ele>
        <time>2019-10-18T13:09:41Z</time>
      </trkpt>
      <trkpt lat="37.0017100" lon="-2.3006440">
        <ele>1270.8</ele>
        <time>2019-10-18T13:09:42Z</time>
      </trkpt>
      <trkpt lat="37.0017020" lon="-2.3006710">
        <ele>1270.9</ele>
        <time>2019-10-18T13:09:43Z</time>
      </trkpt>
      <trkpt lat="37.0016940" lon="-2.3006970">
        <ele>1271.2</ele>
        <time>2019-10-18T13:09:44Z</time>
      </trkpt>
      <trkpt lat="37.0016850" lon="-2.3007240">
        <ele>1271.4</ele>
        <time>2019-10-18T13:09:45Z</time>
      </trkpt>
      <trkpt lat="37.0016750" lon="-2.3007500">
        <ele>1271.6</ele>
        <time>2019-10-18T13:09:46Z</time>
      </trkpt>
      <trkpt lat="37.0016650" lon="-2.3007770">
        <ele>1271.8</ele>
        <time>2019-10-18T13:09:47Z</time>
      </trkpt>
      <trkpt lat="37.0016540" lon="-2.3008030">
        <ele>1272.1</ele>
        <time>2019-10-18T13:09:48Z</time>
      </trkpt>
      <trkpt lat="37.0016440" lon="-2.3008300">
        <ele>1272.2</ele>
        <time>2019-10-18T13:09:49Z</time>
      </trkpt>
      <trkpt lat="37.0016330" lon="-2.3008570">
        <ele>1272.4</ele>
        <time>2019-10-18T13:09:50Z</time>
      </trkpt>
      <trkpt lat="37.0016230" lon="-2.3008840">
        <ele>1272.6</ele>
        <time>2019-10-18T13:09:51Z</time>
      </trkpt>
      <trkpt lat="37.0016130" lon="-2.3009120">
        <ele>1272.7</ele>
        <time>2019-10-18T13:09:52Z</time>
      </trkpt>
      <trkpt lat="37.0016030" lon="-2.3009390">
        <ele>1272.9</ele>
        <time>2019-10-18T13:09:53Z</time>
      </trkpt>
      <trkpt lat="37.0015920" lon="-2.3009670">
        <ele>1273.1</ele>
        <time>2019-10-18T13:09:54Z</time>
      </trkpt>
      <trkpt lat="37.0015810" lon="-2.3009930">
        <ele>1273.3</ele>
        <time>2019-10-18T13:09:55Z</time>
      </trkpt>
      <trkpt lat="37.0015690" lon="-2.3010190">
        <ele>1273.5</ele>
        <time>2019-10-18T13:09:56Z</time>
      </trkpt>
      <trkpt lat="37.0015560" lon="-2.3010430">
        <ele>1273.7</ele>
        <time>2019-10-18T13:09:57Z</time>
      </trkpt>
      <trkpt lat="37.0015430" lon="-2.3010680">
        <ele>1273.9</ele>
        <time>2019-10-18T13:09:58Z</time>
      </trkpt>
      <trkpt lat="37.0015310" lon="-2.3010940">
        <ele>1274.1</ele>
        <time>2019-10-18T13:09:59Z</time>
      </trkpt>
      <trkpt lat="37.0015180" lon="-2.3011190">
        <ele>1274.3</ele>
        <time>2019-10-18T13:10:00Z</time>
      </trkpt>
      <trkpt lat="37.0015040" lon="-2.3011450">
        <ele>1274.5</ele>
        <time>2019-10-18T13:10:01Z</time>
      </trkpt>
      <trkpt lat="37.0014890" lon="-2.3011700">
        <ele>1274.7</ele>
        <time>2019-10-18T13:10:02Z</time>
      </trkpt>
      <trkpt lat="37.0014750" lon="-2.3011960">
        <ele>1274.8</ele>
        <time>2019-10-18T13:10:03Z</time>
      </trkpt>
      <trkpt lat="37.0014610" lon="-2.3012230">
        <ele>1274.9</ele>
        <time>2019-10-18T13:10:04Z</time>
      </trkpt>
      <trkpt lat="37.0014470" lon="-2.3012500">
        <ele>1275.0</ele>
        <time>2019-10-18T13:10:05Z</time>
      </trkpt>
      <trkpt lat="37.0014320" lon="-2.3012770">
        <ele>1275.1</ele>
        <time>2019-10-18T13:10:06Z</time>
      </trkpt>
      <trkpt lat="37.0014170" lon="-2.3013040">
        <ele>1275.3</ele>
        <time>2019-10-18T13:10:07Z</time>
      </trkpt>
      <trkpt lat="37.0014020" lon="-2.3013320">
        <ele>1275.4</ele>
        <time>2019-10-18T13:10:08Z</time>
      </trkpt>
      <trkpt lat="37.0013860" lon="-2.3013600">
        <ele>1275.5</ele>
        <time>2019-10-18T13:10:09Z</time>
      </trkpt>
      <trkpt lat="37.0013700" lon="-2.3013880">
        <ele>1275.6</ele>
        <time>2019-10-18T13:10:10Z</time>
      </trkpt>
      <trkpt lat="37.0013530" lon="-2.3014160">
        <ele>1275.8</ele>
        <time>2019-10-18T13:10:11Z</time>
      </trkpt>
      <trkpt lat="37.0013360" lon="-2.3014440">
        <ele>1276.0</ele>
        <time>2019-10-18T13:10:12Z</time>
      </trkpt>
      <trkpt lat="37.0013190" lon="-2.3014730">
        <ele>1276.2</ele>
        <time>2019-10-18T13:10:13Z</time>
      </trkpt>
      <trkpt lat="37.0013020" lon="-2.3015030">
        <ele>1276.4</ele>
        <time>2019-10-18T13:10:14Z</time>
      </trkpt>
      <trkpt lat="37.0012840" lon="-2.3015350">
        <ele>1276.5</ele>
        <time>2019-10-18T13:10:15Z</time>
      </trkpt>
      <trkpt lat="37.0012670" lon="-2.3015670">
        <ele>1276.7</ele>
        <time>2019-10-18T13:10:16Z</time>
      </trkpt>
      <trkpt lat="37.0012510" lon="-2.3016000">
        <ele>1276.8</ele>
        <time>2019-10-18T13:10:17Z</time>
      </trkpt>
      <trkpt lat="37.0012360" lon="-2.3016330">
        <ele>1276.9</ele>
        <time>2019-10-18T13:10:18Z</time>
      </trkpt>
      <trkpt lat="37.0012220" lon="-2.3016670">
        <ele>1277.1</ele>
        <time>2019-10-18T13:10:19Z</time>
      </trkpt>
      <trkpt lat="37.0012080" lon="-2.3017010">
        <ele>1277.2</ele>
        <time>2019-10-18T13:10:20Z</time>
      </trkpt>
      <trkpt lat="37.0011940" lon="-2.3017350">
        <ele>1277.3</ele>
        <time>2019-10-18T13:10:21Z</time>
      </trkpt>
      <trkpt lat="37.0011800" lon="-2.3017690">
        <ele>1277.3</ele>
        <time>2019-10-18T13:10:22Z</time>
      </trkpt>
      <trkpt lat="37.0011670" lon="-2.3018040">
        <ele>1277.4</ele>
        <time>2019-10-18T13:10:23Z</time>
      </trkpt>
      <trkpt lat="37.0011540" lon="-2.3018400">
        <ele>1277.5</ele>
        <time>2019-10-18T13:10:24Z</time>
      </trkpt>
      <trkpt lat="37.0011420" lon="-2.3018760">
        <ele>1277.5</ele>
        <time>2019-10-18T13:10:25Z</time>
      </trkpt>
      <trkpt lat="37.0011300" lon="-2.3019120">
        <ele>1277.6</ele>
        <time>2019-10-18T13:10:26Z</time>
      </trkpt>
      <trkpt lat="37.0011180" lon="-2.3019490">
        <ele>1277.7</ele>
        <time>2019-10-18T13:10:27Z</time>
      </trkpt>
      <trkpt lat="37.0011040" lon="-2.3019850">
        <ele>1277.7</ele>
        <time>2019-10-18T13:10:28Z</time>
      </trkpt>
      <trkpt lat="37.0010880" lon="-2.3020200">
        <ele>1277.8</ele>
        <time>2019-10-18T13:10:29Z</time>
      </trkpt>
      <trkpt lat="37.0010710" lon="-2.3020550">
        <ele>1277.9</ele>
        <time>2019-10-18T13:10:30Z</time>
      </trkpt>
      <trkpt lat="37.0010530" lon="-2.3020890">
        <ele>1277.9</ele>
        <time>2019-10-18T13:10:31Z</time>
      </trkpt>
      <trkpt lat="37.0010340" lon="-2.3021220">
        <ele>1278.0</ele>
        <time>2019-10-18T13:10:32Z</time>
      </trkpt>
      <trkpt lat="37.0010140" lon="-2.3021550">
        <ele>1278.1</ele>
        <time>2019-10-18T13:10:33Z</time>
      </trkpt>
      <trkpt lat="37.0009940" lon="-2.3021870">
        <ele>1278.2</ele>
        <time>2019-10-18T13:10:34Z</time>
      </trkpt>
      <trkpt lat="37.0009730" lon="-2.3022190">
        <ele>1278.2</ele>
        <time>2019-10-18T13:10:35Z</time>
      </trkpt>
      <trkpt lat="37.0009520" lon="-2.3022500">
        <ele>1278.3</ele>
        <time>2019-10-18T13:10:36Z</time>
      </trkpt>
      <trkpt lat="37.0009290" lon="-2.3022800">
        <ele>1278.4</ele>
        <time>2019-10-18T13:10:37Z</time>
      </trkpt>
      <trkpt lat="37.0009070" lon="-2.3023110">
        <ele>1278.5</ele>
        <time>2019-10-18T13:10:38Z</time>
      </trkpt>
      <trkpt lat="37.0008850" lon="-2.3023410">
        <ele>1278.6</ele>
        <time>2019-10-18T13:10:39Z</time>
      </trkpt>
      <trkpt lat="37.0008630" lon="-2.3023710">
        <ele>1278.7</ele>
        <time>2019-10-18T13:10:40Z</time>
      </trkpt>
      <trkpt lat="37.0008420" lon="-2.3024020">
        <ele>1278.7</ele>
        <time>2019-10-18T13:10:41Z</time>
      </trkpt>
      <trkpt lat="37.0008240" lon="-2.3024350">
        <ele>1278.9</ele>
        <time>2019-10-18T13:10:42Z</time>
      </trkpt>
      <trkpt lat="37.0008100" lon="-2.3024690">
        <ele>1279.1</ele>
        <time>2019-10-18T13:10:43Z</time>
      </trkpt>
      <trkpt lat="37.0008020" lon="-2.3025040">
        <ele>1279.2</ele>
        <time>2019-10-18T13:10:44Z</time>
      </trkpt>
      <trkpt lat="37.0007950" lon="-2.3025390">
        <ele>1279.4</ele>
        <time>2019-10-18T13:10:45Z</time>
      </trkpt>
      <trkpt lat="37.0007900" lon="-2.3025730">
        <ele>1279.6</ele>
        <time>2019-10-18T13:10:46Z</time>
      </trkpt>
      <trkpt lat="37.0007830" lon="-2.3026070">
        <ele>1279.7</ele>
        <time>2019-10-18T13:10:47Z</time>
      </trkpt>
      <trkpt lat="37.0007770" lon="-2.3026400">
        <ele>1279.9</ele>
        <time>2019-10-18T13:10:48Z</time>
      </trkpt>
      <trkpt lat="37.0007720" lon="-2.3026740">
        <ele>1280.0</ele>
        <time>2019-10-18T13:10:49Z</time>
      </trkpt>
      <trkpt lat="37.0007690" lon="-2.3027080">
        <ele>1280.2</ele>
        <time>2019-10-18T13:10:50Z</time>
      </trkpt>
      <trkpt lat="37.0007670" lon="-2.3027420">
        <ele>1280.3</ele>
        <time>2019-10-18T13:10:51Z</time>
      </trkpt>
      <trkpt lat="37.0007670" lon="-2.3027760">
        <ele>1280.4</ele>
        <time>2019-10-18T13:10:52Z</time>
      </trkpt>
      <trkpt lat="37.0007660" lon="-2.3028100">
        <ele>1280.6</ele>
        <time>2019-10-18T13:10:53Z</time>
      </trkpt>
      <trkpt lat="37.0007650" lon="-2.3028440">
        <ele>1280.7</ele>
        <time>2019-10-18T13:10:54Z</time>
      </trkpt>
      <trkpt lat="37.0007630" lon="-2.3028780">
        <ele>1281.0</ele>
        <time>2019-10-18T13:10:55Z</time>
      </trkpt>
      <trkpt lat="37.0007600" lon="-2.3029130">
        <ele>1281.2</ele>
        <time>2019-10-18T13:10:56Z</time>
      </trkpt>
      <trkpt lat="37.0007550" lon="-2.3029470">
        <ele>1281.5</ele>
        <time>2019-10-18T13:10:57Z</time>
      </trkpt>
      <trkpt lat="37.0007490" lon="-2.3029820">
        <ele>1281.7</ele>
        <time>2019-10-18T13:10:58Z</time>
      </trkpt>
      <trkpt lat="37.0007410" lon="-2.3030170">
        <ele>1282.0</ele>
        <time>2019-10-18T13:10:59Z</time>
      </trkpt>
      <trkpt lat="37.0007310" lon="-2.3030510">
        <ele>1282.2</ele>
        <time>2019-10-18T13:11:00Z</time>
      </trkpt>
      <trkpt lat="37.0007190" lon="-2.3030860">
        <ele>1282.4</ele>
        <time>2019-10-18T13:11:01Z</time>
      </trkpt>
      <trkpt lat="37.0007050" lon="-2.3031200">
        <ele>1282.6</ele>
        <time>2019-10-18T13:11:02Z</time>
      </trkpt>
      <trkpt lat="37.0006900" lon="-2.3031530">
        <ele>1282.8</ele>
        <time>2019-10-18T13:11:03Z</time>
      </trkpt>
      <trkpt lat="37.0006750" lon="-2.3031860">
        <ele>1282.9</ele>
        <time>2019-10-18T13:11:04Z</time>
      </trkpt>
      <trkpt lat="37.0006600" lon="-2.3032190">
        <ele>1283.1</ele>
        <time>2019-10-18T13:11:05Z</time>
      </trkpt>
      <trkpt lat="37.0006450" lon="-2.3032520">
        <ele>1283.3</ele>
        <time>2019-10-18T13:11:06Z</time>
      </trkpt>
      <trkpt lat="37.0006300" lon="-2.3032850">
        <ele>1283.6</ele>
        <time>2019-10-18T13:11:07Z</time>
      </trkpt>
      <trkpt lat="37.0006140" lon="-2.3033170">
        <ele>1283.9</ele>
        <time>2019-10-18T13:11:08Z</time>
      </trkpt>
      <trkpt lat="37.0005980" lon="-2.3033480">
        <ele>1284.1</ele>
        <time>2019-10-18T13:11:09Z</time>
      </trkpt>
      <trkpt lat="37.0005810" lon="-2.3033770">
        <ele>1284.3</ele>
        <time>2019-10-18T13:11:10Z</time>
      </trkpt>
      <trkpt lat="37.0005650" lon="-2.3034060">
        <ele>1284.5</ele>
        <time>2019-10-18T13:11:11Z</time>
      </trkpt>
      <trkpt lat="37.0005480" lon="-2.3034330">
        <ele>1284.6</ele>
        <time>2019-10-18T13:11:12Z</time>
      </trkpt>
      <trkpt lat="37.0005320" lon="-2.3034610">
        <ele>1284.8</ele>
        <time>2019-10-18T13:11:13Z</time>
      </trkpt>
      <trkpt lat="37.0005150" lon="-2.3034880">
        <ele>1285.0</ele>
        <time>2019-10-18T13:11:14Z</time>
      </trkpt>
      <trkpt lat="37.0004960" lon="-2.3035160">
        <ele>1285.2</ele>
        <time>2019-10-18T13:11:15Z</time>
      </trkpt>
      <trkpt lat="37.0004770" lon="-2.3035440">
        <ele>1285.5</ele>
        <time>2019-10-18T13:11:16Z</time>
      </trkpt>
      <trkpt lat="37.0004590" lon="-2.3035720">
        <ele>1285.8</ele>
        <time>2019-10-18T13:11:17Z</time>
      </trkpt>
      <trkpt lat="37.0004420" lon="-2.3036000">
        <ele>1286.1</ele>
        <time>2019-10-18T13:11:18Z</time>
      </trkpt>
      <trkpt lat="37.0004260" lon="-2.3036270">
        <ele>1286.4</ele>
        <time>2019-10-18T13:11:19Z</time>
      </trkpt>
      <trkpt lat="37.0004110" lon="-2.3036540">
        <ele>1286.6</ele>
        <time>2019-10-18T13:11:20Z</time>
      </trkpt>
      <trkpt lat="37.0003970" lon="-2.3036800">
        <ele>1286.9</ele>
        <time>2019-10-18T13:11:21Z</time>
      </trkpt>
      <trkpt lat="37.0003850" lon="-2.3037090">
        <ele>1287.1</ele>
        <time>2019-10-18T13:11:22Z</time>
      </trkpt>
      <trkpt lat="37.0003750" lon="-2.3037380">
        <ele>1287.3</ele>
        <time>2019-10-18T13:11:23Z</time>
      </trkpt>
      <trkpt lat="37.0003650" lon="-2.3037670">
        <ele>1287.4</ele>
        <time>2019-10-18T13:11:24Z</time>
      </trkpt>
      <trkpt lat="37.0003510" lon="-2.3037940">
        <ele>1287.6</ele>
        <time>2019-10-18T13:11:25Z</time>
      </trkpt>
      <trkpt lat="37.0003360" lon="-2.3038200">
        <ele>1287.7</ele>
        <time>2019-10-18T13:11:26Z</time>
      </trkpt>
      <trkpt lat="37.0003170" lon="-2.3038450">
        <ele>1287.9</ele>
        <time>2019-10-18T13:11:27Z</time>
      </trkpt>
      <trkpt lat="37.0002970" lon="-2.3038690">
        <ele>1288.1</ele>
        <time>2019-10-18T13:11:28Z</time>
      </trkpt>
      <trkpt lat="37.0002750" lon="-2.3038920">
        <ele>1288.3</ele>
        <time>2019-10-18T13:11:29Z</time>
      </trkpt>
      <trkpt lat="37.0002530" lon="-2.3039130">
        <ele>1288.6</ele>
        <time>2019-10-18T13:11:30Z</time>
      </trkpt>
      <trkpt lat="37.0002300" lon="-2.3039350">
        <ele>1288.8</ele>
        <time>2019-10-18T13:11:31Z</time>
      </trkpt>
      <trkpt lat="37.0002070" lon="-2.3039550">
        <ele>1289.1</ele>
        <time>2019-10-18T13:11:32Z</time>
      </trkpt>
      <trkpt lat="37.0001840" lon="-2.3039750">
        <ele>1289.4</ele>
        <time>2019-10-18T13:11:33Z</time>
      </trkpt>
      <trkpt lat="37.0001610" lon="-2.3039930">
        <ele>1289.6</ele>
        <time>2019-10-18T13:11:34Z</time>
      </trkpt>
      <trkpt lat="37.0001370" lon="-2.3040090">
        <ele>1289.7</ele>
        <time>2019-10-18T13:11:35Z</time>
      </trkpt>
      <trkpt lat="37.0001120" lon="-2.3040240">
        <ele>1289.9</ele>
        <time>2019-10-18T13:11:36Z</time>
      </trkpt>
      <trkpt lat="37.0000880" lon="-2.3040400">
        <ele>1290.0</ele>
        <time>2019-10-18T13:11:37Z</time>
      </trkpt>
      <trkpt lat="37.0000630" lon="-2.3040560">
        <ele>1290.2</ele>
        <time>2019-10-18T13:11:38Z</time>
      </trkpt>
      <trkpt lat="37.0000390" lon="-2.3040740">
        <ele>1290.4</ele>
        <time>2019-10-18T13:11:39Z</time>
      </trkpt>
      <trkpt lat="37.0000150" lon="-2.3040910">
        <ele>1290.6</ele>
        <time>2019-10-18T13:11:40Z</time>
      </trkpt>
      <trkpt lat="36.9999910" lon="-2.3041090">
        <ele>1290.8</ele>
        <time>2019-10-18T13:11:41Z</time>
      </trkpt>
      <trkpt lat="36.9999660" lon="-2.3041260">
        <ele>1291.1</ele>
        <time>2019-10-18T13:11:42Z</time>
      </trkpt>
      <trkpt lat="36.9999420" lon="-2.3041440">
        <ele>1291.3</ele>
        <time>2019-10-18T13:11:43Z</time>
      </trkpt>
      <trkpt lat="36.9999200" lon="-2.3041660">
        <ele>1291.5</ele>
        <time>2019-10-18T13:11:44Z</time>
      </trkpt>
      <trkpt lat="36.9998990" lon="-2.3041900">
        <ele>1291.6</ele>
        <time>2019-10-18T13:11:45Z</time>
      </trkpt>
      <trkpt lat="36.9998810" lon="-2.3042180">
        <ele>1291.8</ele>
        <time>2019-10-18T13:11:46Z</time>
      </trkpt>
      <trkpt lat="36.9998660" lon="-2.3042480">
        <ele>1291.9</ele>
        <time>2019-10-18T13:11:47Z</time>
      </trkpt>
      <trkpt lat="36.9998530" lon="-2.3042800">
        <ele>1292.0</ele>
        <time>2019-10-18T13:11:48Z</time>
      </trkpt>
      <trkpt lat="36.9998390" lon="-2.3043120">
        <ele>1292.1</ele>
        <time>2019-10-18T13:11:49Z</time>
      </trkpt>
      <trkpt lat="36.9998270" lon="-2.3043460">
        <ele>1292.2</ele>
        <time>2019-10-18T13:11:50Z</time>
      </trkpt>
      <trkpt lat="36.9998140" lon="-2.3043800">
        <ele>1292.3</ele>
        <time>2019-10-18T13:11:51Z</time>
      </trkpt>
      <trkpt lat="36.9998020" lon="-2.3044150">
        <ele>1292.4</ele>
        <time>2019-10-18T13:11:52Z</time>
      </trkpt>
      <trkpt lat="36.9997890" lon="-2.3044500">
        <ele>1292.5</ele>
        <time>2019-10-18T13:11:53Z</time>
      </trkpt>
      <trkpt lat="36.9997750" lon="-2.3044850">
        <ele>1292.6</ele>
        <time>2019-10-18T13:11:54Z</time>
      </trkpt>
      <trkpt lat="36.9997610" lon="-2.3045200">
        <ele>1292.7</ele>
        <time>2019-10-18T13:11:55Z</time>
      </trkpt>
      <trkpt lat="36.9997450" lon="-2.3045560">
        <ele>1292.8</ele>
        <time>2019-10-18T13:11:56Z</time>
      </trkpt>
      <trkpt lat="36.9997280" lon="-2.3045910">
        <ele>1292.9</ele>
        <time>2019-10-18T13:11:57Z</time>
      </trkpt>
      <trkpt lat="36.9997110" lon="-2.3046260">
        <ele>1293.0</ele>
        <time>2019-10-18T13:11:58Z</time>
      </trkpt>
      <trkpt lat="36.9996960" lon="-2.3046610">
        <ele>1293.1</ele>
        <time>2019-10-18T13:11:59Z</time>
      </trkpt>
      <trkpt lat="36.9996810" lon="-2.3046970">
        <ele>1293.2</ele>
        <time>2019-10-18T13:12:00Z</time>
      </trkpt>
      <trkpt lat="36.9996650" lon="-2.3047320">
        <ele>1293.4</ele>
        <time>2019-10-18T13:12:01Z</time>
      </trkpt>
      <trkpt lat="36.9996500" lon="-2.3047670">
        <ele>1293.6</ele>
        <time>2019-10-18T13:12:02Z</time>
      </trkpt>
      <trkpt lat="36.9996340" lon="-2.3048020">
        <ele>1293.8</ele>
        <time>2019-10-18T13:12:03Z</time>
      </trkpt>
      <trkpt lat="36.9996190" lon="-2.3048380">
        <ele>1293.9</ele>
        <time>2019-10-18T13:12:04Z</time>
      </trkpt>
      <trkpt lat="36.9996060" lon="-2.3048750">
        <ele>1294.1</ele>
        <time>2019-10-18T13:12:05Z</time>
      </trkpt>
      <trkpt lat="36.9995940" lon="-2.3049140">
        <ele>1294.2</ele>
        <time>2019-10-18T13:12:06Z</time>
      </trkpt>
      <trkpt lat="36.9995850" lon="-2.3049540">
        <ele>1294.4</ele>
        <time>2019-10-18T13:12:07Z</time>
      </trkpt>
      <trkpt lat="36.9995770" lon="-2.3049950">
        <ele>1294.5</ele>
        <time>2019-10-18T13:12:08Z</time>
      </trkpt>
      <trkpt lat="36.9995720" lon="-2.3050380">
        <ele>1294.6</ele>
        <time>2019-10-18T13:12:09Z</time>
      </trkpt>
      <trkpt lat="36.9995690" lon="-2.3050820">
        <ele>1294.6</ele>
        <time>2019-10-18T13:12:10Z</time>
      </trkpt>
      <trkpt lat="36.9995690" lon="-2.3051280">
        <ele>1294.7</ele>
        <time>2019-10-18T13:12:11Z</time>
      </trkpt>
      <trkpt lat="36.9995710" lon="-2.3051740">
        <ele>1294.8</ele>
        <time>2019-10-18T13:12:12Z</time>
      </trkpt>
      <trkpt lat="36.9995740" lon="-2.3052200">
        <ele>1294.8</ele>
        <time>2019-10-18T13:12:13Z</time>
      </trkpt>
      <trkpt lat="36.9995770" lon="-2.3052660">
        <ele>1294.9</ele>
        <time>2019-10-18T13:12:14Z</time>
      </trkpt>
      <trkpt lat="36.9995820" lon="-2.3053130">
        <ele>1294.9</ele>
        <time>2019-10-18T13:12:15Z</time>
      </trkpt>
      <trkpt lat="36.9995880" lon="-2.3053600">
        <ele>1294.9</ele>
        <time>2019-10-18T13:12:16Z</time>
      </trkpt>
      <trkpt lat="36.9995970" lon="-2.3054080">
        <ele>1294.9</ele>
        <time>2019-10-18T13:12:17Z</time>
      </trkpt>
      <trkpt lat="36.9996070" lon="-2.3054570">
        <ele>1295.0</ele>
        <time>2019-10-18T13:12:18Z</time>
      </trkpt>
      <trkpt lat="36.9996180" lon="-2.3055080">
        <ele>1295.0</ele>
        <time>2019-10-18T13:12:19Z</time>
      </trkpt>
      <trkpt lat="36.9996260" lon="-2.3055600">
        <ele>1295.0</ele>
        <time>2019-10-18T13:12:20Z</time>
      </trkpt>
      <trkpt lat="36.9996340" lon="-2.3056130">
        <ele>1295.1</ele>
        <time>2019-10-18T13:12:21Z</time>
      </trkpt>
      <trkpt lat="36.9996410" lon="-2.3056670">
        <ele>1295.1</ele>
        <time>2019-10-18T13:12:22Z</time>
      </trkpt>
      <trkpt lat="36.9996470" lon="-2.3057240">
        <ele>1295.1</ele>
        <time>2019-10-18T13:12:23Z</time>
      </trkpt>
      <trkpt lat="36.9996520" lon="-2.3057840">
        <ele>1295.2</ele>
        <time>2019-10-18T13:12:24Z</time>
      </trkpt>
      <trkpt lat="36.9996570" lon="-2.3058490">
        <ele>1295.2</ele>
        <time>2019-10-18T13:12:25Z</time>
      </trkpt>
      <trkpt lat="36.9996600" lon="-2.3059150">
        <ele>1295.3</ele>
        <time>2019-10-18T13:12:26Z</time>
      </trkpt>
      <trkpt lat="36.9996610" lon="-2.3059840">
        <ele>1295.3</ele>
        <time>2019-10-18T13:12:27Z</time>
      </trkpt>
      <trkpt lat="36.9996600" lon="-2.3060520">
        <ele>1295.3</ele>
        <time>2019-10-18T13:12:28Z</time>
      </trkpt>
      <trkpt lat="36.9996580" lon="-2.3061220">
        <ele>1295.4</ele>
        <time>2019-10-18T13:12:29Z</time>
      </trkpt>
      <trkpt lat="36.9996570" lon="-2.3061930">
        <ele>1295.4</ele>
        <time>2019-10-18T13:12:30Z</time>
      </trkpt>
      <trkpt lat="36.9996580" lon="-2.3062640">
        <ele>1295.5</ele>
        <time>2019-10-18T13:12:31Z</time>
      </trkpt>
      <trkpt lat="36.9996620" lon="-2.3063360">
        <ele>1295.5</ele>
        <time>2019-10-18T13:12:32Z</time>
      </trkpt>
      <trkpt lat="36.9996690" lon="-2.3064070">
        <ele>1295.5</ele>
        <time>2019-10-18T13:12:33Z</time>
      </trkpt>
      <trkpt lat="36.9996780" lon="-2.3064780">
        <ele>1295.6</ele>
        <time>2019-10-18T13:12:34Z</time>
      </trkpt>
      <trkpt lat="36.9996890" lon="-2.3065480">
        <ele>1295.6</ele>
        <time>2019-10-18T13:12:35Z</time>
      </trkpt>
      <trkpt lat="36.9997010" lon="-2.3066180">
        <ele>1295.2</ele>
        <time>2019-10-18T13:12:36Z</time>
      </trkpt>
      <trkpt lat="36.9997130" lon="-2.3066880">
        <ele>1294.9</ele>
        <time>2019-10-18T13:12:37Z</time>
      </trkpt>
      <trkpt lat="36.9997250" lon="-2.3067590">
        <ele>1294.5</ele>
        <time>2019-10-18T13:12:38Z</time>
      </trkpt>
      <trkpt lat="36.9997390" lon="-2.3068300">
        <ele>1294.2</ele>
        <time>2019-10-18T13:12:39Z</time>
      </trkpt>
      <trkpt lat="36.9997520" lon="-2.3069020">
        <ele>1293.9</ele>
        <time>2019-10-18T13:12:40Z</time>
      </trkpt>
      <trkpt lat="36.9997650" lon="-2.3069750">
        <ele>1293.6</ele>
        <time>2019-10-18T13:12:41Z</time>
      </trkpt>
      <trkpt lat="36.9997770" lon="-2.3070510">
        <ele>1293.2</ele>
        <time>2019-10-18T13:12:42Z</time>
      </trkpt>
      <trkpt lat="36.9997870" lon="-2.3071260">
        <ele>1292.9</ele>
        <time>2019-10-18T13:12:43Z</time>
      </trkpt>
      <trkpt lat="36.9997970" lon="-2.3072020">
        <ele>1292.5</ele>
        <time>2019-10-18T13:12:44Z</time>
      </trkpt>
      <trkpt lat="36.9998080" lon="-2.3072770">
        <ele>1292.1</ele>
        <time>2019-10-18T13:12:45Z</time>
      </trkpt>
      <trkpt lat="36.9998230" lon="-2.3073510">
        <ele>1291.7</ele>
        <time>2019-10-18T13:12:46Z</time>
      </trkpt>
      <trkpt lat="36.9998450" lon="-2.3074230">
        <ele>1291.3</ele>
        <time>2019-10-18T13:12:47Z</time>
      </trkpt>
      <trkpt lat="36.9998750" lon="-2.3074910">
        <ele>1290.8</ele>
        <time>2019-10-18T13:12:48Z</time>
      </trkpt>
      <trkpt lat="36.9999110" lon="-2.3075570">
        <ele>1290.4</ele>
        <time>2019-10-18T13:12:49Z</time>
      </trkpt>
      <trkpt lat="36.9999480" lon="-2.3076210">
        <ele>1290.1</ele>
        <time>2019-10-18T13:12:50Z</time>
      </trkpt>
      <trkpt lat="36.9999850" lon="-2.3076820">
        <ele>1289.9</ele>
        <time>2019-10-18T13:12:51Z</time>
      </trkpt>
      <trkpt lat="37.0000200" lon="-2.3077420">
        <ele>1289.6</ele>
        <time>2019-10-18T13:12:52Z</time>
      </trkpt>
      <trkpt lat="37.0000540" lon="-2.3078020">
        <ele>1289.4</ele>
        <time>2019-10-18T13:12:53Z</time>
      </trkpt>
      <trkpt lat="37.0000870" lon="-2.3078620">
        <ele>1289.1</ele>
        <time>2019-10-18T13:12:54Z</time>
      </trkpt>
      <trkpt lat="37.0001180" lon="-2.3079250">
        <ele>1288.8</ele>
        <time>2019-10-18T13:12:55Z</time>
      </trkpt>
      <trkpt lat="37.0001470" lon="-2.3079900">
        <ele>1288.4</ele>
        <time>2019-10-18T13:12:56Z</time>
      </trkpt>
      <trkpt lat="37.0001710" lon="-2.3080580">
        <ele>1288.2</ele>
        <time>2019-10-18T13:12:57Z</time>
      </trkpt>
      <trkpt lat="37.0001930" lon="-2.3081270">
        <ele>1287.9</ele>
        <time>2019-10-18T13:12:58Z</time>
      </trkpt>
      <trkpt lat="37.0002120" lon="-2.3081970">
        <ele>1287.7</ele>
        <time>2019-10-18T13:12:59Z</time>
      </trkpt>
      <trkpt lat="37.0002290" lon="-2.3082670">
        <ele>1287.6</ele>
        <time>2019-10-18T13:13:00Z</time>
      </trkpt>
      <trkpt lat="37.0002440" lon="-2.3083360">
        <ele>1287.5</ele>
        <time>2019-10-18T13:13:01Z</time>
      </trkpt>
      <trkpt lat="37.0002560" lon="-2.3084040">
        <ele>1287.5</ele>
        <time>2019-10-18T13:13:02Z</time>
      </trkpt>
      <trkpt lat="37.0002670" lon="-2.3084710">
        <ele>1287.5</ele>
        <time>2019-10-18T13:13:03Z</time>
      </trkpt>
      <trkpt lat="37.0002750" lon="-2.3085370">
        <ele>1287.6</ele>
        <time>2019-10-18T13:13:04Z</time>
      </trkpt>
      <trkpt lat="37.0002810" lon="-2.3086010">
        <ele>1287.7</ele>
        <time>2019-10-18T13:13:05Z</time>
      </trkpt>
      <trkpt lat="37.0002830" lon="-2.3086610">
        <ele>1287.7</ele>
        <time>2019-10-18T13:13:06Z</time>
      </trkpt>
      <trkpt lat="37.0002820" lon="-2.3087180">
        <ele>1287.8</ele>
        <time>2019-10-18T13:13:07Z</time>
      </trkpt>
      <trkpt lat="37.0002810" lon="-2.3087710">
        <ele>1287.9</ele>
        <time>2019-10-18T13:13:08Z</time>
      </trkpt>
      <trkpt lat="37.0002790" lon="-2.3088230">
        <ele>1287.9</ele>
        <time>2019-10-18T13:13:09Z</time>
      </trkpt>
      <trkpt lat="37.0002780" lon="-2.3088730">
        <ele>1288.0</ele>
        <time>2019-10-18T13:13:10Z</time>
      </trkpt>
      <trkpt lat="37.0002760" lon="-2.3089190">
        <ele>1288.1</ele>
        <time>2019-10-18T13:13:11Z</time>
      </trkpt>
      <trkpt lat="37.0002730" lon="-2.3089650">
        <ele>1288.2</ele>
        <time>2019-10-18T13:13:12Z</time>
      </trkpt>
      <trkpt lat="37.0002690" lon="-2.3090110">
        <ele>1288.4</ele>
        <time>2019-10-18T13:13:13Z</time>
      </trkpt>
      <trkpt lat="37.0002640" lon="-2.3090560">
        <ele>1288.5</ele>
        <time>2019-10-18T13:13:14Z</time>
      </trkpt>
      <trkpt lat="37.0002570" lon="-2.3091010">
        <ele>1288.8</ele>
        <time>2019-10-18T13:13:15Z</time>
      </trkpt>
      <trkpt lat="37.0002490" lon="-2.3091470">
        <ele>1289.0</ele>
        <time>2019-10-18T13:13:16Z</time>
      </trkpt>
      <trkpt lat="37.0002400" lon="-2.3091930">
        <ele>1289.3</ele>
        <time>2019-10-18T13:13:17Z</time>
      </trkpt>
      <trkpt lat="37.0002300" lon="-2.3092370">
        <ele>1289.7</ele>
        <time>2019-10-18T13:13:18Z</time>
      </trkpt>
      <trkpt lat="37.0002170" lon="-2.3092790">
        <ele>1290.2</ele>
        <time>2019-10-18T13:13:19Z</time>
      </trkpt>
      <trkpt lat="37.0002040" lon="-2.3093180">
        <ele>1290.7</ele>
        <time>2019-10-18T13:13:20Z</time>
      </trkpt>
      <trkpt lat="37.0001880" lon="-2.3093550">
        <ele>1291.2</ele>
        <time>2019-10-18T13:13:21Z</time>
      </trkpt>
      <trkpt lat="37.0001730" lon="-2.3093890">
        <ele>1291.6</ele>
        <time>2019-10-18T13:13:22Z</time>
      </trkpt>
      <trkpt lat="37.0001570" lon="-2.3094180">
        <ele>1292.0</ele>
        <time>2019-10-18T13:13:23Z</time>
      </trkpt>
      <trkpt lat="37.0001430" lon="-2.3094410">
        <ele>1292.4</ele>
        <time>2019-10-18T13:13:24Z</time>
      </trkpt>
      <trkpt lat="37.0001310" lon="-2.3094580">
        <ele>1292.7</ele>
        <time>2019-10-18T13:13:25Z</time>
      </trkpt>
      <trkpt lat="37.0001210" lon="-2.3094730">
        <ele>1293.0</ele>
        <time>2019-10-18T13:13:26Z</time>
      </trkpt>
      <trkpt lat="37.0001120" lon="-2.3094890">
        <ele>1293.3</ele>
        <time>2019-10-18T13:13:27Z</time>
      </trkpt>
      <trkpt lat="37.0001060" lon="-2.3095080">
        <ele>1293.6</ele>
        <time>2019-10-18T13:13:28Z</time>
      </trkpt>
      <trkpt lat="37.0000990" lon="-2.3095290">
        <ele>1293.5</ele>
        <time>2019-10-18T13:13:29Z</time>
      </trkpt>
      <trkpt lat="37.0000900" lon="-2.3095490">
        <ele>1293.4</ele>
        <time>2019-10-18T13:13:30Z</time>
      </trkpt>
      <trkpt lat="37.0000800" lon="-2.3095710">
        <ele>1293.2</ele>
        <time>2019-10-18T13:13:31Z</time>
      </trkpt>
      <trkpt lat="37.0000680" lon="-2.3095930">
        <ele>1293.1</ele>
        <time>2019-10-18T13:13:32Z</time>
      </trkpt>
      <trkpt lat="37.0000580" lon="-2.3096160">
        <ele>1293.0</ele>
        <time>2019-10-18T13:13:33Z</time>
      </trkpt>
      <trkpt lat="37.0000480" lon="-2.3096350">
        <ele>1292.9</ele>
        <time>2019-10-18T13:13:34Z</time>
      </trkpt>
      <trkpt lat="37.0000420" lon="-2.3096470">
        <ele>1292.9</ele>
        <time>2019-10-18T13:13:35Z</time>
      </trkpt>
      <trkpt lat="37.0000390" lon="-2.3096520">
        <ele>1292.9</ele>
        <time>2019-10-18T13:13:36Z</time>
      </trkpt>
      <trkpt lat="37.0000390" lon="-2.3096530">
        <ele>1292.9</ele>
        <time>2019-10-18T13:13:37Z</time>
      </trkpt>
      <trkpt lat="37.0000390" lon="-2.3096530">
        <ele>1292.9</ele>
        <time>2019-10-18T13:13:38Z</time>
      </trkpt>
      <trkpt lat="37.0000390" lon="-2.3096530">
        <ele>1292.9</ele>
        <time>2019-10-18T13:13:39Z</time>
      </trkpt>
      <trkpt lat="37.0000390" lon="-2.3096530">
        <ele>1292.9</ele>
        <time>2019-10-18T13:13:40Z</time>
      </trkpt>
      <trkpt lat="37.0000400" lon="-2.3096520">
        <ele>1292.9</ele>
        <time>2019-10-18T13:13:41Z</time>
      </trkpt>
      <trkpt lat="37.0000400" lon="-2.3096540">
        <ele>1292.9</ele>
        <time>2019-10-18T13:13:42Z</time>
      </trkpt>
      <trkpt lat="37.0000390" lon="-2.3096560">
        <ele>1292.9</ele>
        <time>2019-10-18T13:13:43Z</time>
      </trkpt>
      <trkpt lat="37.0000380" lon="-2.3096600">
        <ele>1292.9</ele>
        <time>2019-10-18T13:13:44Z</time>
      </trkpt>
      <trkpt lat="37.0000380" lon="-2.3096620">
        <ele>1292.9</ele>
        <time>2019-10-18T13:13:45Z</time>
      </trkpt>
      <trkpt lat="37.0000370" lon="-2.3096620">
        <ele>1292.9</ele>
        <time>2019-10-18T13:13:46Z</time>
      </trkpt>
      <trkpt lat="37.0000370" lon="-2.3096620">
        <ele>1292.9</ele>
        <time>2019-10-18T13:13:47Z</time>
      </trkpt>
      <trkpt lat="37.0000370" lon="-2.3096620">
        <ele>1292.9</ele>
        <time>2019-10-18T13:13:48Z</time>
      </trkpt>
      <trkpt lat="37.0000370" lon="-2.3096620">
        <ele>1292.9</ele>
        <time>2019-10-18T13:13:49Z</time>
      </trkpt>
      <trkpt lat="37.0000360" lon="-2.3096620">
        <ele>1292.9</ele>
        <time>2019-10-18T13:13:50Z</time>
      </trkpt>
      <trkpt lat="37.0000360" lon="-2.3096620">
        <ele>1292.9</ele>
        <time>2019-10-18T13:13:51Z</time>
      </trkpt>
      <trkpt lat="37.0000350" lon="-2.3096620">
        <ele>1292.9</ele>
        <time>2019-10-18T13:13:52Z</time>
      </trkpt>
      <trkpt lat="37.0000350" lon="-2.3096620">
        <ele>1292.9</ele>
        <time>2019-10-18T13:13:53Z</time>
      </trkpt>
      <trkpt lat="37.0000360" lon="-2.3096620">
        <ele>1292.9</ele>
        <time>2019-10-18T13:13:54Z</time>
      </trkpt>
      <trkpt lat="37.0000370" lon="-2.3096630">
        <ele>1292.9</ele>
        <time>2019-10-18T13:13:55Z</time>
      </trkpt>
      <trkpt lat="37.0000380" lon="-2.3096640">
        <ele>1292.9</ele>
        <time>2019-10-18T13:13:56Z</time>
      </trkpt>
      <trkpt lat="37.0000390" lon="-2.3096640">
        <ele>1292.9</ele>
        <time>2019-10-18T13:13:57Z</time>
      </trkpt>
      <trkpt lat="37.0000410" lon="-2.3096640">
        <ele>1292.9</ele>
        <time>2019-10-18T13:13:58Z</time>
      </trkpt>
      <trkpt lat="37.0000420" lon="-2.3096640">
        <ele>1292.9</ele>
        <time>2019-10-18T13:13:59Z</time>
      </trkpt>
      <trkpt lat="37.0000430" lon="-2.3096640">
        <ele>1292.9</ele>
        <time>2019-10-18T13:14:00Z</time>
      </trkpt>
      <trkpt lat="37.0000430" lon="-2.3096640">
        <ele>1292.9</ele>
        <time>2019-10-18T13:14:01Z</time>
      </trkpt>
      <trkpt lat="37.0000430" lon="-2.3096640">
        <ele>1292.9</ele>
        <time>2019-10-18T13:14:02Z</time>
      </trkpt>
      <trkpt lat="37.0000430" lon="-2.3096640">
        <ele>1292.9</ele>
        <time>2019-10-18T13:14:03Z</time>
      </trkpt>
      <trkpt lat="37.0000420" lon="-2.3096630">
        <ele>1292.9</ele>
        <time>2019-10-18T13:14:04Z</time>
      </trkpt>
      <trkpt lat="37.0000410" lon="-2.3096630">
        <ele>1292.9</ele>
        <time>2019-10-18T13:14:05Z</time>
      </trkpt>
      <trkpt lat="37.0000400" lon="-2.3096630">
        <ele>1292.9</ele>
        <time>2019-10-18T13:14:06Z</time>
      </trkpt>
      <trkpt lat="37.0000400" lon="-2.3096620">
        <ele>1292.9</ele>
        <time>2019-10-18T13:14:07Z</time>
      </trkpt>
      <trkpt lat="37.0000390" lon="-2.3096620">
        <ele>1292.9</ele>
        <time>2019-10-18T13:14:08Z</time>
      </trkpt>
      <trkpt lat="37.0000390" lon="-2.3096620">
        <ele>1292.9</ele>
        <time>2019-10-18T13:14:09Z</time>
      </trkpt>
      <trkpt lat="37.0000390" lon="-2.3096620">
        <ele>1292.9</ele>
        <time>2019-10-18T13:14:10Z</time>
      </trkpt>
      <trkpt lat="37.0000390" lon="-2.3096610">
        <ele>1292.9</ele>
        <time>2019-10-18T13:14:11Z</time>
      </trkpt>
      <trkpt lat="37.0000380" lon="-2.3096610">
        <ele>1292.9</ele>
        <time>2019-10-18T13:14:12Z</time>
      </trkpt>
      <trkpt lat="37.0000380" lon="-2.3096600">
        <ele>1292.9</ele>
        <time>2019-10-18T13:14:13Z</time>
      </trkpt>
      <trkpt lat="37.0000370" lon="-2.3096600">
        <ele>1292.9</ele>
        <time>2019-10-18T13:14:14Z</time>
      </trkpt>
      <trkpt lat="37.0000380" lon="-2.3096600">
        <ele>1293.0</ele>
        <time>2019-10-18T13:14:15Z</time>
      </trkpt>
      <trkpt lat="37.0000380" lon="-2.3096610">
        <ele>1293.0</ele>
        <time>2019-10-18T13:14:16Z</time>
      </trkpt>
      <trkpt lat="37.0000370" lon="-2.3096620">
        <ele>1293.0</ele>
        <time>2019-10-18T13:14:17Z</time>
      </trkpt>
      <trkpt lat="37.0000350" lon="-2.3096620">
        <ele>1293.0</ele>
        <time>2019-10-18T13:14:18Z</time>
      </trkpt>
      <trkpt lat="37.0000340" lon="-2.3096620">
        <ele>1293.0</ele>
        <time>2019-10-18T13:14:19Z</time>
      </trkpt>
      <trkpt lat="37.0000340" lon="-2.3096610">
        <ele>1293.0</ele>
        <time>2019-10-18T13:14:20Z</time>
      </trkpt>
      <trkpt lat="37.0000350" lon="-2.3096610">
        <ele>1293.0</ele>
        <time>2019-10-18T13:14:21Z</time>
      </trkpt>
      <trkpt lat="37.0000360" lon="-2.3096630">
        <ele>1293.0</ele>
        <time>2019-10-18T13:14:22Z</time>
      </trkpt>
      <trkpt lat="37.0000390" lon="-2.3096640">
        <ele>1293.0</ele>
        <time>2019-10-18T13:14:23Z</time>
      </trkpt>
      <trkpt lat="37.0000410" lon="-2.3096660">
        <ele>1293.0</ele>
        <time>2019-10-18T13:14:24Z</time>
      </trkpt>
      <trkpt lat="37.0000430" lon="-2.3096670">
        <ele>1293.0</ele>
        <time>2019-10-18T13:14:25Z</time>
      </trkpt>
      <trkpt lat="37.0000450" lon="-2.3096680">
        <ele>1293.0</ele>
        <time>2019-10-18T13:14:26Z</time>
      </trkpt>
      <trkpt lat="37.0000460" lon="-2.3096690">
        <ele>1293.0</ele>
        <time>2019-10-18T13:14:27Z</time>
      </trkpt>
      <trkpt lat="37.0000470" lon="-2.3096690">
        <ele>1293.0</ele>
        <time>2019-10-18T13:14:28Z</time>
      </trkpt>
      <trkpt lat="37.0000470" lon="-2.3096690">
        <ele>1293.0</ele>
        <time>2019-10-18T13:14:29Z</time>
      </trkpt>
      <trkpt lat="37.0000470" lon="-2.3096690">
        <ele>1293.0</ele>
        <time>2019-10-18T13:14:30Z</time>
      </trkpt>
      <trkpt lat="37.0000460" lon="-2.3096680">
        <ele>1293.0</ele>
        <time>2019-10-18T13:14:31Z</time>
      </trkpt>
      <trkpt lat="37.0000450" lon="-2.3096670">
        <ele>1293.0</ele>
        <time>2019-10-18T13:14:32Z</time>
      </trkpt>
      <trkpt lat="37.0000440" lon="-2.3096660">
        <ele>1293.0</ele>
        <time>2019-10-18T13:14:33Z</time>
      </trkpt>
      <trkpt lat="37.0000440" lon="-2.3096650">
        <ele>1293.0</ele>
        <time>2019-10-18T13:14:34Z</time>
      </trkpt>
      <trkpt lat="37.0000430" lon="-2.3096640">
        <ele>1293.0</ele>
        <time>2019-10-18T13:14:35Z</time>
      </trkpt>
      <trkpt lat="37.0000420" lon="-2.3096630">
        <ele>1293.0</ele>
        <time>2019-10-18T13:14:36Z</time>
      </trkpt>
      <trkpt lat="37.0000400" lon="-2.3096620">
        <ele>1293.0</ele>
        <time>2019-10-18T13:14:37Z</time>
      </trkpt>
      <trkpt lat="37.0000390" lon="-2.3096610">
        <ele>1293.0</ele>
        <time>2019-10-18T13:14:38Z</time>
      </trkpt>
      <trkpt lat="37.0000370" lon="-2.3096600">
        <ele>1293.0</ele>
        <time>2019-10-18T13:14:39Z</time>
      </trkpt>
      <trkpt lat="37.0000360" lon="-2.3096590">
        <ele>1293.0</ele>
        <time>2019-10-18T13:14:40Z</time>
      </trkpt>
      <trkpt lat="37.0000350" lon="-2.3096580">
        <ele>1293.0</ele>
        <time>2019-10-18T13:14:41Z</time>
      </trkpt>
      <trkpt lat="37.0000330" lon="-2.3096560">
        <ele>1293.0</ele>
        <time>2019-10-18T13:14:42Z</time>
      </trkpt>
      <trkpt lat="37.0000310" lon="-2.3096550">
        <ele>1293.0</ele>
        <time>2019-10-18T13:14:43Z</time>
      </trkpt>
      <trkpt lat="37.0000300" lon="-2.3096540">
        <ele>1293.0</ele>
        <time>2019-10-18T13:14:44Z</time>
      </trkpt>
      <trkpt lat="37.0000280" lon="-2.3096540">
        <ele>1293.0</ele>
        <time>2019-10-18T13:14:45Z</time>
      </trkpt>
      <trkpt lat="37.0000260" lon="-2.3096530">
        <ele>1293.0</ele>
        <time>2019-10-18T13:14:46Z</time>
      </trkpt>
      <trkpt lat="37.0000250" lon="-2.3096520">
        <ele>1293.0</ele>
        <time>2019-10-18T13:14:47Z</time>
      </trkpt>
      <trkpt lat="37.0000230" lon="-2.3096510">
        <ele>1293.0</ele>
        <time>2019-10-18T13:14:48Z</time>
      </trkpt>
      <trkpt lat="37.0000210" lon="-2.3096500">
        <ele>1293.0</ele>
        <time>2019-10-18T13:14:49Z</time>
      </trkpt>
      <trkpt lat="37.0000190" lon="-2.3096490">
        <ele>1293.0</ele>
        <time>2019-10-18T13:14:50Z</time>
      </trkpt>
      <trkpt lat="37.0000170" lon="-2.3096480">
        <ele>1293.1</ele>
        <time>2019-10-18T13:14:51Z</time>
      </trkpt>
      <trkpt lat="37.0000160" lon="-2.3096470">
        <ele>1293.1</ele>
        <time>2019-10-18T13:14:52Z</time>
      </trkpt>
      <trkpt lat="37.0000150" lon="-2.3096460">
        <ele>1293.1</ele>
        <time>2019-10-18T13:14:53Z</time>
      </trkpt>
      <trkpt lat="37.0000140" lon="-2.3096450">
        <ele>1293.1</ele>
        <time>2019-10-18T13:14:54Z</time>
      </trkpt>
      <trkpt lat="37.0000130" lon="-2.3096440">
        <ele>1293.1</ele>
        <time>2019-10-18T13:14:55Z</time>
      </trkpt>
      <trkpt lat="37.0000130" lon="-2.3096440">
        <ele>1293.1</ele>
        <time>2019-10-18T13:14:56Z</time>
      </trkpt>
      <trkpt lat="37.0000120" lon="-2.3096440">
        <ele>1293.1</ele>
        <time>2019-10-18T13:14:57Z</time>
      </trkpt>
      <trkpt lat="37.0000130" lon="-2.3096440">
        <ele>1293.1</ele>
        <time>2019-10-18T13:14:58Z</time>
      </trkpt>
      <trkpt lat="37.0000130" lon="-2.3096440">
        <ele>1293.1</ele>
        <time>2019-10-18T13:14:59Z</time>
      </trkpt>
      <trkpt lat="37.0000130" lon="-2.3096440">
        <ele>1293.1</ele>
        <time>2019-10-18T13:15:00Z</time>
      </trkpt>
      <trkpt lat="37.0000140" lon="-2.3096440">
        <ele>1293.1</ele>
        <time>2019-10-18T13:15:01Z</time>
      </trkpt>
      <trkpt lat="37.0000140" lon="-2.3096440">
        <ele>1293.1</ele>
        <time>2019-10-18T13:15:02Z</time>
      </trkpt>
      <trkpt lat="37.0000140" lon="-2.3096440">
        <ele>1293.1</ele>
        <time>2019-10-18T13:15:03Z</time>
      </trkpt>
      <trkpt lat="37.0000150" lon="-2.3096430">
        <ele>1293.1</ele>
        <time>2019-10-18T13:15:04Z</time>
      </trkpt>
      <trkpt lat="37.0000150" lon="-2.3096430">
        <ele>1293.1</ele>
        <time>2019-10-18T13:15:05Z</time>
      </trkpt>
      <trkpt lat="37.0000140" lon="-2.3096430">
        <ele>1293.1</ele>
        <time>2019-10-18T13:15:06Z</time>
      </trkpt>
      <trkpt lat="37.0000130" lon="-2.3096420">
        <ele>1293.1</ele>
        <time>2019-10-18T13:15:07Z</time>
      </trkpt>
      <trkpt lat="37.0000130" lon="-2.3096420">
        <ele>1293.1</ele>
        <time>2019-10-18T13:15:08Z</time>
      </trkpt>
      <trkpt lat="37.0000120" lon="-2.3096410">
        <ele>1293.1</ele>
        <time>2019-10-18T13:15:09Z</time>
      </trkpt>
      <trkpt lat="37.0000120" lon="-2.3096410">
        <ele>1293.1</ele>
        <time>2019-10-18T13:15:10Z</time>
      </trkpt>
      <trkpt lat="37.0000120" lon="-2.3096410">
        <ele>1293.1</ele>
        <time>2019-10-18T13:15:11Z</time>
      </trkpt>
      <trkpt lat="37.0000110" lon="-2.3096410">
        <ele>1293.1</ele>
        <time>2019-10-18T13:15:12Z</time>
      </trkpt>
      <trkpt lat="37.0000110" lon="-2.3096400">
        <ele>1293.1</ele>
        <time>2019-10-18T13:15:13Z</time>
      </trkpt>
      <trkpt lat="37.0000110" lon="-2.3096400">
        <ele>1293.1</ele>
        <time>2019-10-18T13:15:14Z</time>
      </trkpt>
      <trkpt lat="37.0000100" lon="-2.3096400">
        <ele>1293.1</ele>
        <time>2019-10-18T13:15:15Z</time>
      </trkpt>
      <trkpt lat="37.0000090" lon="-2.3096400">
        <ele>1293.1</ele>
        <time>2019-10-18T13:15:16Z</time>
      </trkpt>
      <trkpt lat="37.0000090" lon="-2.3096400">
        <ele>1293.1</ele>
        <time>2019-10-18T13:15:17Z</time>
      </trkpt>
      <trkpt lat="37.0000080" lon="-2.3096410">
        <ele>1293.1</ele>
        <time>2019-10-18T13:15:18Z</time>
      </trkpt>
      <trkpt lat="37.0000080" lon="-2.3096410">
        <ele>1293.1</ele>
        <time>2019-10-18T13:15:19Z</time>
      </trkpt>
      <trkpt lat="37.0000080" lon="-2.3096410">
        <ele>1293.1</ele>
        <time>2019-10-18T13:15:20Z</time>
      </trkpt>
      <trkpt lat="37.0000080" lon="-2.3096410">
        <ele>1293.1</ele>
        <time>2019-10-18T13:15:21Z</time>
      </trkpt>
      <trkpt lat="37.0000080" lon="-2.3096410">
        <ele>1293.1</ele>
        <time>2019-10-18T13:15:22Z</time>
      </trkpt>
      <trkpt lat="37.0000090" lon="-2.3096410">
        <ele>1293.1</ele>
        <time>2019-10-18T13:15:23Z</time>
      </trkpt>
      <trkpt lat="37.0000100" lon="-2.3096410">
        <ele>1293.1</ele>
        <time>2019-10-18T13:15:24Z</time>
      </trkpt>
      <trkpt lat="37.0000110" lon="-2.3096410">
        <ele>1293.1</ele>
        <time>2019-10-18T13:15:25Z</time>
      </trkpt>
      <trkpt lat="37.0000120" lon="-2.3096420">
        <ele>1293.1</ele>
        <time>2019-10-18T13:15:26Z</time>
      </trkpt>
      <trkpt lat="37.0000130" lon="-2.3096430">
        <ele>1293.1</ele>
        <time>2019-10-18T13:15:27Z</time>
      </trkpt>
      <trkpt lat="37.0000140" lon="-2.3096430">
        <ele>1293.1</ele>
        <time>2019-10-18T13:15:28Z</time>
      </trkpt>
      <trkpt lat="37.0000150" lon="-2.3096440">
        <ele>1293.1</ele>
        <time>2019-10-18T13:15:29Z</time>
      </trkpt>
      <trkpt lat="37.0000160" lon="-2.3096450">
        <ele>1293.1</ele>
        <time>2019-10-18T13:15:30Z</time>
      </trkpt>
      <trkpt lat="37.0000170" lon="-2.3096460">
        <ele>1293.1</ele>
        <time>2019-10-18T13:15:31Z</time>
      </trkpt>
      <trkpt lat="37.0000180" lon="-2.3096460">
        <ele>1293.1</ele>
        <time>2019-10-18T13:15:32Z</time>
      </trkpt>
      <trkpt lat="37.0000190" lon="-2.3096470">
        <ele>1293.1</ele>
        <time>2019-10-18T13:15:33Z</time>
      </trkpt>
      <trkpt lat="37.0000190" lon="-2.3096480">
        <ele>1293.1</ele>
        <time>2019-10-18T13:15:34Z</time>
      </trkpt>
      <trkpt lat="37.0000200" lon="-2.3096480">
        <ele>1293.1</ele>
        <time>2019-10-18T13:15:35Z</time>
      </trkpt>
      <trkpt lat="37.0000200" lon="-2.3096490">
        <ele>1293.1</ele>
        <time>2019-10-18T13:15:36Z</time>
      </trkpt>
      <trkpt lat="37.0000200" lon="-2.3096490">
        <ele>1293.1</ele>
        <time>2019-10-18T13:15:37Z</time>
      </trkpt>
      <trkpt lat="37.0000200" lon="-2.3096500">
        <ele>1293.1</ele>
        <time>2019-10-18T13:15:38Z</time>
      </trkpt>
      <trkpt lat="37.0000210" lon="-2.3096500">
        <ele>1293.1</ele>
        <time>2019-10-18T13:15:39Z</time>
      </trkpt>
      <trkpt lat="37.0000210" lon="-2.3096500">
        <ele>1293.1</ele>
        <time>2019-10-18T13:15:40Z</time>
      </trkpt>
      <trkpt lat="37.0000210" lon="-2.3096500">
        <ele>1293.1</ele>
        <time>2019-10-18T13:15:41Z</time>
      </trkpt>
      <trkpt lat="37.0000210" lon="-2.3096500">
        <ele>1293.1</ele>
        <time>2019-10-18T13:15:42Z</time>
      </trkpt>
      <trkpt lat="37.0000220" lon="-2.3096500">
        <ele>1293.1</ele>
        <time>2019-10-18T13:15:43Z</time>
      </trkpt>
      <trkpt lat="37.0000230" lon="-2.3096500">
        <ele>1293.1</ele>
        <time>2019-10-18T13:15:44Z</time>
      </trkpt>
      <trkpt lat="37.0000240" lon="-2.3096510">
        <ele>1293.1</ele>
        <time>2019-10-18T13:15:45Z</time>
      </trkpt>
      <trkpt lat="37.0000240" lon="-2.3096500">
        <ele>1293.1</ele>
        <time>2019-10-18T13:15:46Z</time>
      </trkpt>
      <trkpt lat="37.0000240" lon="-2.3096500">
        <ele>1293.1</ele>
        <time>2019-10-18T13:15:47Z</time>
      </trkpt>
      <trkpt lat="37.0000240" lon="-2.3096500">
        <ele>1293.1</ele>
        <time>2019-10-18T13:15:48Z</time>
      </trkpt>
      <trkpt lat="37.0000240" lon="-2.3096500">
        <ele>1293.1</ele>
        <time>2019-10-18T13:15:49Z</time>
      </trkpt>
      <trkpt lat="37.0000240" lon="-2.3096500">
        <ele>1293.1</ele>
        <time>2019-10-18T13:15:50Z</time>
      </trkpt>
      <trkpt lat="37.0000250" lon="-2.3096500">
        <ele>1293.1</ele>
        <time>2019-10-18T13:15:51Z</time>
      </trkpt>
      <trkpt lat="37.0000250" lon="-2.3096510">
        <ele>1293.1</ele>
        <time>2019-10-18T13:15:52Z</time>
      </trkpt>
      <trkpt lat="37.0000260" lon="-2.3096510">
        <ele>1293.1</ele>
        <time>2019-10-18T13:15:53Z</time>
      </trkpt>
      <trkpt lat="37.0000260" lon="-2.3096520">
        <ele>1293.1</ele>
        <time>2019-10-18T13:15:54Z</time>
      </trkpt>
      <trkpt lat="37.0000270" lon="-2.3096530">
        <ele>1293.1</ele>
        <time>2019-10-18T13:15:55Z</time>
      </trkpt>
      <trkpt lat="37.0000280" lon="-2.3096540">
        <ele>1293.1</ele>
        <time>2019-10-18T13:15:56Z</time>
      </trkpt>
      <trkpt lat="37.0000270" lon="-2.3096540">
        <ele>1293.1</ele>
        <time>2019-10-18T13:15:57Z</time>
      </trkpt>
      <trkpt lat="37.0000270" lon="-2.3096550">
        <ele>1293.1</ele>
        <time>2019-10-18T13:15:58Z</time>
      </trkpt>
      <trkpt lat="37.0000270" lon="-2.3096560">
        <ele>1293.1</ele>
        <time>2019-10-18T13:15:59Z</time>
      </trkpt>
      <trkpt lat="37.0000270" lon="-2.3096560">
        <ele>1293.1</ele>
        <time>2019-10-18T13:16:00Z</time>
      </trkpt>
      <trkpt lat="37.0000260" lon="-2.3096570">
        <ele>1293.1</ele>
        <time>2019-10-18T13:16:01Z</time>
      </trkpt>
      <trkpt lat="37.0000260" lon="-2.3096570">
        <ele>1293.1</ele>
        <time>2019-10-18T13:16:02Z</time>
      </trkpt>
      <trkpt lat="37.0000250" lon="-2.3096580">
        <ele>1293.1</ele>
        <time>2019-10-18T13:16:03Z</time>
      </trkpt>
      <trkpt lat="37.0000240" lon="-2.3096580">
        <ele>1293.1</ele>
        <time>2019-10-18T13:16:04Z</time>
      </trkpt>
      <trkpt lat="37.0000240" lon="-2.3096580">
        <ele>1293.1</ele>
        <time>2019-10-18T13:16:05Z</time>
      </trkpt>
      <trkpt lat="37.0000230" lon="-2.3096590">
        <ele>1293.1</ele>
        <time>2019-10-18T13:16:06Z</time>
      </trkpt>
      <trkpt lat="37.0000220" lon="-2.3096600">
        <ele>1293.1</ele>
        <time>2019-10-18T13:16:07Z</time>
      </trkpt>
      <trkpt lat="37.0000220" lon="-2.3096600">
        <ele>1293.1</ele>
        <time>2019-10-18T13:16:08Z</time>
      </trkpt>
      <trkpt lat="37.0000210" lon="-2.3096610">
        <ele>1293.1</ele>
        <time>2019-10-18T13:16:09Z</time>
      </trkpt>
      <trkpt lat="37.0000210" lon="-2.3096610">
        <ele>1293.1</ele>
        <time>2019-10-18T13:16:10Z</time>
      </trkpt>
      <trkpt lat="37.0000200" lon="-2.3096620">
        <ele>1293.1</ele>
        <time>2019-10-18T13:16:11Z</time>
      </trkpt>
      <trkpt lat="37.0000200" lon="-2.3096620">
        <ele>1293.1</ele>
        <time>2019-10-18T13:16:12Z</time>
      </trkpt>
      <trkpt lat="37.0000190" lon="-2.3096620">
        <ele>1293.1</ele>
        <time>2019-10-18T13:16:13Z</time>
      </trkpt>
      <trkpt lat="37.0000190" lon="-2.3096620">
        <ele>1293.1</ele>
        <time>2019-10-18T13:16:14Z</time>
      </trkpt>
      <trkpt lat="37.0000180" lon="-2.3096630">
        <ele>1293.1</ele>
        <time>2019-10-18T13:16:15Z</time>
      </trkpt>
      <trkpt lat="37.0000180" lon="-2.3096630">
        <ele>1293.1</ele>
        <time>2019-10-18T13:16:16Z</time>
      </trkpt>
      <trkpt lat="37.0000180" lon="-2.3096640">
        <ele>1293.2</ele>
        <time>2019-10-18T13:16:17Z</time>
      </trkpt>
      <trkpt lat="37.0000180" lon="-2.3096640">
        <ele>1293.2</ele>
        <time>2019-10-18T13:16:18Z</time>
      </trkpt>
      <trkpt lat="37.0000170" lon="-2.3096630">
        <ele>1293.2</ele>
        <time>2019-10-18T13:16:19Z</time>
      </trkpt>
      <trkpt lat="37.0000170" lon="-2.3096630">
        <ele>1293.2</ele>
        <time>2019-10-18T13:16:20Z</time>
      </trkpt>
      <trkpt lat="37.0000170" lon="-2.3096620">
        <ele>1293.2</ele>
        <time>2019-10-18T13:16:21Z</time>
      </trkpt>
      <trkpt lat="37.0000170" lon="-2.3096620">
        <ele>1293.2</ele>
        <time>2019-10-18T13:16:22Z</time>
      </trkpt>
      <trkpt lat="37.0000170" lon="-2.3096610">
        <ele>1293.2</ele>
        <time>2019-10-18T13:16:23Z</time>
      </trkpt>
      <trkpt lat="37.0000180" lon="-2.3096610">
        <ele>1293.2</ele>
        <time>2019-10-18T13:16:24Z</time>
      </trkpt>
      <trkpt lat="37.0000190" lon="-2.3096610">
        <ele>1293.2</ele>
        <time>2019-10-18T13:16:25Z</time>
      </trkpt>
      <trkpt lat="37.0000190" lon="-2.3096610">
        <ele>1293.2</ele>
        <time>2019-10-18T13:16:26Z</time>
      </trkpt>
      <trkpt lat="37.0000190" lon="-2.3096610">
        <ele>1293.2</ele>
        <time>2019-10-18T13:16:27Z</time>
      </trkpt>
      <trkpt lat="37.0000200" lon="-2.3096610">
        <ele>1293.2</ele>
        <time>2019-10-18T13:16:28Z</time>
      </trkpt>
      <trkpt lat="37.0000200" lon="-2.3096610">
        <ele>1293.2</ele>
        <time>2019-10-18T13:16:29Z</time>
      </trkpt>
      <trkpt lat="37.0000200" lon="-2.3096600">
        <ele>1293.2</ele>
        <time>2019-10-18T13:16:30Z</time>
      </trkpt>
      <trkpt lat="37.0000200" lon="-2.3096600">
        <ele>1293.2</ele>
        <time>2019-10-18T13:16:31Z</time>
      </trkpt>
      <trkpt lat="37.0000210" lon="-2.3096600">
        <ele>1293.2</ele>
        <time>2019-10-18T13:16:32Z</time>
      </trkpt>
      <trkpt lat="37.0000210" lon="-2.3096600">
        <ele>1293.2</ele>
        <time>2019-10-18T13:16:33Z</time>
      </trkpt>
      <trkpt lat="37.0000210" lon="-2.3096610">
        <ele>1293.2</ele>
        <time>2019-10-18T13:16:34Z</time>
      </trkpt>
      <trkpt lat="37.0000220" lon="-2.3096610">
        <ele>1293.2</ele>
        <time>2019-10-18T13:16:35Z</time>
      </trkpt>
      <trkpt lat="37.0000220" lon="-2.3096610">
        <ele>1293.2</ele>
        <time>2019-10-18T13:16:36Z</time>
      </trkpt>
      <trkpt lat="37.0000230" lon="-2.3096620">
        <ele>1293.2</ele>
        <time>2019-10-18T13:16:37Z</time>
      </trkpt>
      <trkpt lat="37.0000230" lon="-2.3096620">
        <ele>1293.2</ele>
        <time>2019-10-18T13:16:38Z</time>
      </trkpt>
      <trkpt lat="37.0000240" lon="-2.3096630">
        <ele>1293.2</ele>
        <time>2019-10-18T13:16:39Z</time>
      </trkpt>
      <trkpt lat="37.0000250" lon="-2.3096630">
        <ele>1293.2</ele>
        <time>2019-10-18T13:16:40Z</time>
      </trkpt>
      <trkpt lat="37.0000250" lon="-2.3096630">
        <ele>1293.2</ele>
        <time>2019-10-18T13:16:41Z</time>
      </trkpt>
      <trkpt lat="37.0000250" lon="-2.3096630">
        <ele>1293.2</ele>
        <time>2019-10-18T13:16:42Z</time>
      </trkpt>
      <trkpt lat="37.0000260" lon="-2.3096630">
        <ele>1293.2</ele>
        <time>2019-10-18T13:16:43Z</time>
      </trkpt>
      <trkpt lat="37.0000260" lon="-2.3096630">
        <ele>1293.2</ele>
        <time>2019-10-18T13:16:44Z</time>
      </trkpt>
      <trkpt lat="37.0000270" lon="-2.3096640">
        <ele>1293.2</ele>
        <time>2019-10-18T13:16:45Z</time>
      </trkpt>
      <trkpt lat="37.0000270" lon="-2.3096640">
        <ele>1293.2</ele>
        <time>2019-10-18T13:16:46Z</time>
      </trkpt>
      <trkpt lat="37.0000280" lon="-2.3096640">
        <ele>1293.2</ele>
        <time>2019-10-18T13:16:47Z</time>
      </trkpt>
      <trkpt lat="37.0000280" lon="-2.3096650">
        <ele>1293.2</ele>
        <time>2019-10-18T13:16:48Z</time>
      </trkpt>
      <trkpt lat="37.0000280" lon="-2.3096640">
        <ele>1293.2</ele>
        <time>2019-10-18T13:16:49Z</time>
      </trkpt>
      <trkpt lat="37.0000280" lon="-2.3096640">
        <ele>1293.2</ele>
        <time>2019-10-18T13:16:50Z</time>
      </trkpt>
      <trkpt lat="37.0000280" lon="-2.3096640">
        <ele>1293.2</ele>
        <time>2019-10-18T13:16:51Z</time>
      </trkpt>
      <trkpt lat="37.0000270" lon="-2.3096640">
        <ele>1293.2</ele>
        <time>2019-10-18T13:16:52Z</time>
      </trkpt>
      <trkpt lat="37.0000270" lon="-2.3096640">
        <ele>1293.2</ele>
        <time>2019-10-18T13:16:53Z</time>
      </trkpt>
      <trkpt lat="37.0000270" lon="-2.3096640">
        <ele>1293.2</ele>
        <time>2019-10-18T13:16:54Z</time>
      </trkpt>
      <trkpt lat="37.0000270" lon="-2.3096640">
        <ele>1293.2</ele>
        <time>2019-10-18T13:16:55Z</time>
      </trkpt>
      <trkpt lat="37.0000260" lon="-2.3096630">
        <ele>1293.2</ele>
        <time>2019-10-18T13:16:56Z</time>
      </trkpt>
      <trkpt lat="37.0000260" lon="-2.3096630">
        <ele>1293.2</ele>
        <time>2019-10-18T13:16:57Z</time>
      </trkpt>
      <trkpt lat="37.0000250" lon="-2.3096620">
        <ele>1293.2</ele>
        <time>2019-10-18T13:16:58Z</time>
      </trkpt>
      <trkpt lat="37.0000250" lon="-2.3096620">
        <ele>1293.2</ele>
        <time>2019-10-18T13:16:59Z</time>
      </trkpt>
      <trkpt lat="37.0000250" lon="-2.3096610">
        <ele>1293.2</ele>
        <time>2019-10-18T13:17:00Z</time>
      </trkpt>
      <trkpt lat="37.0000250" lon="-2.3096610">
        <ele>1293.2</ele>
        <time>2019-10-18T13:17:01Z</time>
      </trkpt>
      <trkpt lat="37.0000250" lon="-2.3096620">
        <ele>1293.2</ele>
        <time>2019-10-18T13:17:02Z</time>
      </trkpt>
      <trkpt lat="37.0000250" lon="-2.3096630">
        <ele>1293.2</ele>
        <time>2019-10-18T13:17:03Z</time>
      </trkpt>
      <trkpt lat="37.0000250" lon="-2.3096630">
        <ele>1293.2</ele>
        <time>2019-10-18T13:17:04Z</time>
      </trkpt>
      <trkpt lat="37.0000230" lon="-2.3096620">
        <ele>1293.2</ele>
        <time>2019-10-18T13:17:05Z</time>
      </trkpt>
      <trkpt lat="37.0000220" lon="-2.3096610">
        <ele>1293.2</ele>
        <time>2019-10-18T13:17:06Z</time>
      </trkpt>
      <trkpt lat="37.0000200" lon="-2.3096590">
        <ele>1293.2</ele>
        <time>2019-10-18T13:17:07Z</time>
      </trkpt>
      <trkpt lat="37.0000200" lon="-2.3096570">
        <ele>1293.2</ele>
        <time>2019-10-18T13:17:08Z</time>
      </trkpt>
      <trkpt lat="37.0000200" lon="-2.3096540">
        <ele>1293.2</ele>
        <time>2019-10-18T13:17:09Z</time>
      </trkpt>
      <trkpt lat="37.0000220" lon="-2.3096520">
        <ele>1293.2</ele>
        <time>2019-10-18T13:17:10Z</time>
      </trkpt>
      <trkpt lat="37.0000250" lon="-2.3096510">
        <ele>1293.2</ele>
        <time>2019-10-18T13:17:11Z</time>
      </trkpt>
      <trkpt lat="37.0000300" lon="-2.3096470">
        <ele>1293.2</ele>
        <time>2019-10-18T13:17:12Z</time>
      </trkpt>
      <trkpt lat="37.0000380" lon="-2.3096420">
        <ele>1293.2</ele>
        <time>2019-10-18T13:17:13Z</time>
      </trkpt>
      <trkpt lat="37.0000470" lon="-2.3096340">
        <ele>1293.3</ele>
        <time>2019-10-18T13:17:14Z</time>
      </trkpt>
      <trkpt lat="37.0000560" lon="-2.3096240">
        <ele>1293.3</ele>
        <time>2019-10-18T13:17:15Z</time>
      </trkpt>
      <trkpt lat="37.0000640" lon="-2.3096130">
        <ele>1293.3</ele>
        <time>2019-10-18T13:17:16Z</time>
      </trkpt>
      <trkpt lat="37.0000720" lon="-2.3095990">
        <ele>1293.3</ele>
        <time>2019-10-18T13:17:17Z</time>
      </trkpt>
      <trkpt lat="37.0000790" lon="-2.3095830">
        <ele>1293.3</ele>
        <time>2019-10-18T13:17:18Z</time>
      </trkpt>
      <trkpt lat="37.0000840" lon="-2.3095680">
        <ele>1293.4</ele>
        <time>2019-10-18T13:17:19Z</time>
      </trkpt>
      <trkpt lat="37.0000870" lon="-2.3095520">
        <ele>1293.4</ele>
        <time>2019-10-18T13:17:20Z</time>
      </trkpt>
      <trkpt lat="37.0000860" lon="-2.3095380">
        <ele>1293.4</ele>
        <time>2019-10-18T13:17:21Z</time>
      </trkpt>
      <trkpt lat="37.0000830" lon="-2.3095260">
        <ele>1293.4</ele>
        <time>2019-10-18T13:17:22Z</time>
      </trkpt>
      <trkpt lat="37.0000800" lon="-2.3095200">
        <ele>1293.4</ele>
        <time>2019-10-18T13:17:23Z</time>
      </trkpt>
      <trkpt lat="37.0000800" lon="-2.3095180">
        <ele>1293.4</ele>
        <time>2019-10-18T13:17:24Z</time>
      </trkpt>
      <trkpt lat="37.0000790" lon="-2.3095180">
        <ele>1293.4</ele>
        <time>2019-10-18T13:17:25Z</time>
      </trkpt>
      <trkpt lat="37.0000790" lon="-2.3095180">
        <ele>1293.4</ele>
        <time>2019-10-18T13:17:26Z</time>
      </trkpt>
      <trkpt lat="37.0000790" lon="-2.3095190">
        <ele>1293.4</ele>
        <time>2019-10-18T13:17:27Z</time>
      </trkpt>
      <trkpt lat="37.0000790" lon="-2.3095190">
        <ele>1293.4</ele>
        <time>2019-10-18T13:17:28Z</time>
      </trkpt>
      <trkpt lat="37.0000790" lon="-2.3095190">
        <ele>1293.4</ele>
        <time>2019-10-18T13:17:29Z</time>
      </trkpt>
      <trkpt lat="37.0000790" lon="-2.3095180">
        <ele>1293.4</ele>
        <time>2019-10-18T13:17:30Z</time>
      </trkpt>
      <trkpt lat="37.0000790" lon="-2.3095170">
        <ele>1293.8</ele>
        <time>2019-10-18T13:17:31Z</time>
      </trkpt>
      <trkpt lat="37.0000790" lon="-2.3095170">
        <ele>1293.8</ele>
        <time>2019-10-18T13:17:32Z</time>
      </trkpt>
      <trkpt lat="37.0000790" lon="-2.3095160">
        <ele>1293.8</ele>
        <time>2019-10-18T13:17:33Z</time>
      </trkpt>
      <trkpt lat="37.0000800" lon="-2.3095160">
        <ele>1293.8</ele>
        <time>2019-10-18T13:17:34Z</time>
      </trkpt>
      <trkpt lat="37.0000800" lon="-2.3095150">
        <ele>1293.8</ele>
        <time>2019-10-18T13:17:35Z</time>
      </trkpt>
      <trkpt lat="37.0000810" lon="-2.3095150">
        <ele>1293.8</ele>
        <time>2019-10-18T13:17:36Z</time>
      </trkpt>
      <trkpt lat="37.0000820" lon="-2.3095150">
        <ele>1293.8</ele>
        <time>2019-10-18T13:17:37Z</time>
      </trkpt>
      <trkpt lat="37.0000810" lon="-2.3095140">
        <ele>1293.8</ele>
        <time>2019-10-18T13:17:38Z</time>
      </trkpt>
      <trkpt lat="37.0000800" lon="-2.3095120">
        <ele>1293.8</ele>
        <time>2019-10-18T13:17:39Z</time>
      </trkpt>
      <trkpt lat="37.0000780" lon="-2.3095070">
        <ele>1293.8</ele>
        <time>2019-10-18T13:17:40Z</time>
      </trkpt>
      <trkpt lat="37.0000760" lon="-2.3094980">
        <ele>1293.9</ele>
        <time>2019-10-18T13:17:41Z</time>
      </trkpt>
      <trkpt lat="37.0000730" lon="-2.3094850">
        <ele>1293.9</ele>
        <time>2019-10-18T13:17:42Z</time>
      </trkpt>
      <trkpt lat="37.0000690" lon="-2.3094710">
        <ele>1294.0</ele>
        <time>2019-10-18T13:17:43Z</time>
      </trkpt>
      <trkpt lat="37.0000650" lon="-2.3094570">
        <ele>1294.1</ele>
        <time>2019-10-18T13:17:44Z</time>
      </trkpt>
      <trkpt lat="37.0000600" lon="-2.3094410">
        <ele>1294.2</ele>
        <time>2019-10-18T13:17:45Z</time>
      </trkpt>
      <trkpt lat="37.0000520" lon="-2.3094280">
        <ele>1294.3</ele>
        <time>2019-10-18T13:17:46Z</time>
      </trkpt>
      <trkpt lat="37.0000420" lon="-2.3094170">
        <ele>1294.4</ele>
        <time>2019-10-18T13:17:47Z</time>
      </trkpt>
      <trkpt lat="37.0000310" lon="-2.3094070">
        <ele>1294.5</ele>
        <time>2019-10-18T13:17:48Z</time>
      </trkpt>
      <trkpt lat="37.0000200" lon="-2.3093950">
        <ele>1294.7</ele>
        <time>2019-10-18T13:17:49Z</time>
      </trkpt>
      <trkpt lat="37.0000110" lon="-2.3093770">
        <ele>1294.9</ele>
        <time>2019-10-18T13:17:50Z</time>
      </trkpt>
      <trkpt lat="37.0000040" lon="-2.3093580">
        <ele>1295.0</ele>
        <time>2019-10-18T13:17:51Z</time>
      </trkpt>
      <trkpt lat="36.9999960" lon="-2.3093400">
        <ele>1295.3</ele>
        <time>2019-10-18T13:17:52Z</time>
      </trkpt>
      <trkpt lat="36.9999890" lon="-2.3093240">
        <ele>1295.4</ele>
        <time>2019-10-18T13:17:53Z</time>
      </trkpt>
      <trkpt lat="36.9999830" lon="-2.3093090">
        <ele>1295.6</ele>
        <time>2019-10-18T13:17:54Z</time>
      </trkpt>
      <trkpt lat="36.9999780" lon="-2.3092930">
        <ele>1295.8</ele>
        <time>2019-10-18T13:17:55Z</time>
      </trkpt>
      <trkpt lat="36.9999700" lon="-2.3092770">
        <ele>1296.1</ele>
        <time>2019-10-18T13:17:56Z</time>
      </trkpt>
      <trkpt lat="36.9999610" lon="-2.3092610">
        <ele>1296.3</ele>
        <time>2019-10-18T13:17:57Z</time>
      </trkpt>
      <trkpt lat="36.9999520" lon="-2.3092460">
        <ele>1296.5</ele>
        <time>2019-10-18T13:17:58Z</time>
      </trkpt>
      <trkpt lat="36.9999430" lon="-2.3092290">
        <ele>1296.8</ele>
        <time>2019-10-18T13:17:59Z</time>
      </trkpt>
      <trkpt lat="36.9999360" lon="-2.3092100">
        <ele>1297.1</ele>
        <time>2019-10-18T13:18:00Z</time>
      </trkpt>
      <trkpt lat="36.9999280" lon="-2.3091920">
        <ele>1297.4</ele>
        <time>2019-10-18T13:18:01Z</time>
      </trkpt>
      <trkpt lat="36.9999200" lon="-2.3091740">
        <ele>1297.7</ele>
        <time>2019-10-18T13:18:02Z</time>
      </trkpt>
      <trkpt lat="36.9999120" lon="-2.3091580">
        <ele>1297.9</ele>
        <time>2019-10-18T13:18:03Z</time>
      </trkpt>
      <trkpt lat="36.9999050" lon="-2.3091430">
        <ele>1298.1</ele>
        <time>2019-10-18T13:18:04Z</time>
      </trkpt>
      <trkpt lat="36.9998980" lon="-2.3091280">
        <ele>1298.4</ele>
        <time>2019-10-18T13:18:05Z</time>
      </trkpt>
      <trkpt lat="36.9998900" lon="-2.3091130">
        <ele>1298.6</ele>
        <time>2019-10-18T13:18:06Z</time>
      </trkpt>
      <trkpt lat="36.9998820" lon="-2.3090970">
        <ele>1298.9</ele>
        <time>2019-10-18T13:18:07Z</time>
      </trkpt>
      <trkpt lat="36.9998760" lon="-2.3090810">
        <ele>1299.2</ele>
        <time>2019-10-18T13:18:08Z</time>
      </trkpt>
      <trkpt lat="36.9998690" lon="-2.3090640">
        <ele>1299.5</ele>
        <time>2019-10-18T13:18:09Z</time>
      </trkpt>
      <trkpt lat="36.9998620" lon="-2.3090470">
        <ele>1299.7</ele>
        <time>2019-10-18T13:18:10Z</time>
      </trkpt>
      <trkpt lat="36.9998540" lon="-2.3090330">
        <ele>1300.0</ele>
        <time>2019-10-18T13:18:11Z</time>
      </trkpt>
      <trkpt lat="36.9998450" lon="-2.3090210">
        <ele>1300.2</ele>
        <time>2019-10-18T13:18:12Z</time>
      </trkpt>
      <trkpt lat="36.9998350" lon="-2.3090080">
        <ele>1300.4</ele>
        <time>2019-10-18T13:18:13Z</time>
      </trkpt>
      <trkpt lat="36.9998260" lon="-2.3089950">
        <ele>1300.6</ele>
        <time>2019-10-18T13:18:14Z</time>
      </trkpt>
      <trkpt lat="36.9998180" lon="-2.3089800">
        <ele>1300.9</ele>
        <time>2019-10-18T13:18:15Z</time>
      </trkpt>
      <trkpt lat="36.9998130" lon="-2.3089620">
        <ele>1301.1</ele>
        <time>2019-10-18T13:18:16Z</time>
      </trkpt>
      <trkpt lat="36.9998070" lon="-2.3089450">
        <ele>1301.3</ele>
        <time>2019-10-18T13:18:17Z</time>
      </trkpt>
      <trkpt lat="36.9997980" lon="-2.3089280">
        <ele>1301.6</ele>
        <time>2019-10-18T13:18:18Z</time>
      </trkpt>
      <trkpt lat="36.9997860" lon="-2.3089160">
        <ele>1301.8</ele>
        <time>2019-10-18T13:18:19Z</time>
      </trkpt>
      <trkpt lat="36.9997750" lon="-2.3089050">
        <ele>1302.1</ele>
        <time>2019-10-18T13:18:20Z</time>
      </trkpt>
      <trkpt lat="36.9997670" lon="-2.3088920">
        <ele>1302.2</ele>
        <time>2019-10-18T13:18:21Z</time>
      </trkpt>
      <trkpt lat="36.9997610" lon="-2.3088760">
        <ele>1302.4</ele>
        <time>2019-10-18T13:18:22Z</time>
      </trkpt>
      <trkpt lat="36.9997540" lon="-2.3088600">
        <ele>1302.6</ele>
        <time>2019-10-18T13:18:23Z</time>
      </trkpt>
      <trkpt lat="36.9997450" lon="-2.3088460">
        <ele>1302.7</ele>
        <time>2019-10-18T13:18:24Z</time>
      </trkpt>
      <trkpt lat="36.9997350" lon="-2.3088330">
        <ele>1302.9</ele>
        <time>2019-10-18T13:18:25Z</time>
      </trkpt>
      <trkpt lat="36.9997260" lon="-2.3088190">
        <ele>1303.1</ele>
        <time>2019-10-18T13:18:26Z</time>
      </trkpt>
      <trkpt lat="36.9997170" lon="-2.3088030">
        <ele>1303.3</ele>
        <time>2019-10-18T13:18:27Z</time>
      </trkpt>
      <trkpt lat="36.9997070" lon="-2.3087870">
        <ele>1303.5</ele>
        <time>2019-10-18T13:18:28Z</time>
      </trkpt>
      <trkpt lat="36.9996970" lon="-2.3087720">
        <ele>1303.6</ele>
        <time>2019-10-18T13:18:29Z</time>
      </trkpt>
      <trkpt lat="36.9996870" lon="-2.3087570">
        <ele>1303.9</ele>
        <time>2019-10-18T13:18:30Z</time>
      </trkpt>
      <trkpt lat="36.9996780" lon="-2.3087420">
        <ele>1304.1</ele>
        <time>2019-10-18T13:18:31Z</time>
      </trkpt>
      <trkpt lat="36.9996700" lon="-2.3087260">
        <ele>1304.3</ele>
        <time>2019-10-18T13:18:32Z</time>
      </trkpt>
      <trkpt lat="36.9996640" lon="-2.3087080">
        <ele>1304.5</ele>
        <time>2019-10-18T13:18:33Z</time>
      </trkpt>
      <trkpt lat="36.9996570" lon="-2.3086910">
        <ele>1304.7</ele>
        <time>2019-10-18T13:18:34Z</time>
      </trkpt>
      <trkpt lat="36.9996490" lon="-2.3086750">
        <ele>1304.9</ele>
        <time>2019-10-18T13:18:35Z</time>
      </trkpt>
      <trkpt lat="36.9996390" lon="-2.3086600">
        <ele>1305.2</ele>
        <time>2019-10-18T13:18:36Z</time>
      </trkpt>
      <trkpt lat="36.9996290" lon="-2.3086460">
        <ele>1305.4</ele>
        <time>2019-10-18T13:18:37Z</time>
      </trkpt>
      <trkpt lat="36.9996200" lon="-2.3086310">
        <ele>1305.6</ele>
        <time>2019-10-18T13:18:38Z</time>
      </trkpt>
      <trkpt lat="36.9996120" lon="-2.3086130">
        <ele>1305.7</ele>
        <time>2019-10-18T13:18:39Z</time>
      </trkpt>
      <trkpt lat="36.9996030" lon="-2.3085950">
        <ele>1305.9</ele>
        <time>2019-10-18T13:18:40Z</time>
      </trkpt>
      <trkpt lat="36.9995930" lon="-2.3085780">
        <ele>1306.0</ele>
        <time>2019-10-18T13:18:41Z</time>
      </trkpt>
      <trkpt lat="36.9995830" lon="-2.3085610">
        <ele>1306.2</ele>
        <time>2019-10-18T13:18:42Z</time>
      </trkpt>
      <trkpt lat="36.9995740" lon="-2.3085440">
        <ele>1306.3</ele>
        <time>2019-10-18T13:18:43Z</time>
      </trkpt>
      <trkpt lat="36.9995660" lon="-2.3085270">
        <ele>1306.4</ele>
        <time>2019-10-18T13:18:44Z</time>
      </trkpt>
      <trkpt lat="36.9995580" lon="-2.3085080">
        <ele>1306.6</ele>
        <time>2019-10-18T13:18:45Z</time>
      </trkpt>
      <trkpt lat="36.9995500" lon="-2.3084900">
        <ele>1306.7</ele>
        <time>2019-10-18T13:18:46Z</time>
      </trkpt>
      <trkpt lat="36.9995410" lon="-2.3084720">
        <ele>1306.9</ele>
        <time>2019-10-18T13:18:47Z</time>
      </trkpt>
      <trkpt lat="36.9995310" lon="-2.3084560">
        <ele>1307.0</ele>
        <time>2019-10-18T13:18:48Z</time>
      </trkpt>
      <trkpt lat="36.9995190" lon="-2.3084410">
        <ele>1307.3</ele>
        <time>2019-10-18T13:18:49Z</time>
      </trkpt>
      <trkpt lat="36.9995070" lon="-2.3084280">
        <ele>1307.5</ele>
        <time>2019-10-18T13:18:50Z</time>
      </trkpt>
      <trkpt lat="36.9994950" lon="-2.3084140">
        <ele>1307.7</ele>
        <time>2019-10-18T13:18:51Z</time>
      </trkpt>
      <trkpt lat="36.9994850" lon="-2.3084000">
        <ele>1307.8</ele>
        <time>2019-10-18T13:18:52Z</time>
      </trkpt>
      <trkpt lat="36.9994750" lon="-2.3083840">
        <ele>1308.1</ele>
        <time>2019-10-18T13:18:53Z</time>
      </trkpt>
      <trkpt lat="36.9994650" lon="-2.3083660">
        <ele>1308.3</ele>
        <time>2019-10-18T13:18:54Z</time>
      </trkpt>
      <trkpt lat="36.9994550" lon="-2.3083480">
        <ele>1308.5</ele>
        <time>2019-10-18T13:18:55Z</time>
      </trkpt>
      <trkpt lat="36.9994460" lon="-2.3083300">
        <ele>1308.6</ele>
        <time>2019-10-18T13:18:56Z</time>
      </trkpt>
      <trkpt lat="36.9994360" lon="-2.3083120">
        <ele>1308.8</ele>
        <time>2019-10-18T13:18:57Z</time>
      </trkpt>
      <trkpt lat="36.9994260" lon="-2.3082940">
        <ele>1309.0</ele>
        <time>2019-10-18T13:18:58Z</time>
      </trkpt>
      <trkpt lat="36.9994170" lon="-2.3082750">
        <ele>1309.2</ele>
        <time>2019-10-18T13:18:59Z</time>
      </trkpt>
      <trkpt lat="36.9994070" lon="-2.3082560">
        <ele>1309.3</ele>
        <time>2019-10-18T13:19:00Z</time>
      </trkpt>
      <trkpt lat="36.9993970" lon="-2.3082370">
        <ele>1309.5</ele>
        <time>2019-10-18T13:19:01Z</time>
      </trkpt>
      <trkpt lat="36.9993860" lon="-2.3082180">
        <ele>1309.7</ele>
        <time>2019-10-18T13:19:02Z</time>
      </trkpt>
      <trkpt lat="36.9993760" lon="-2.3081990">
        <ele>1309.9</ele>
        <time>2019-10-18T13:19:03Z</time>
      </trkpt>
      <trkpt lat="36.9993660" lon="-2.3081790">
        <ele>1310.0</ele>
        <time>2019-10-18T13:19:04Z</time>
      </trkpt>
      <trkpt lat="36.9993560" lon="-2.3081590">
        <ele>1310.2</ele>
        <time>2019-10-18T13:19:05Z</time>
      </trkpt>
      <trkpt lat="36.9993440" lon="-2.3081410">
        <ele>1310.4</ele>
        <time>2019-10-18T13:19:06Z</time>
      </trkpt>
      <trkpt lat="36.9993310" lon="-2.3081260">
        <ele>1310.6</ele>
        <time>2019-10-18T13:19:07Z</time>
      </trkpt>
      <trkpt lat="36.9993180" lon="-2.3081110">
        <ele>1310.8</ele>
        <time>2019-10-18T13:19:08Z</time>
      </trkpt>
      <trkpt lat="36.9993050" lon="-2.3080970">
        <ele>1311.0</ele>
        <time>2019-10-18T13:19:09Z</time>
      </trkpt>
      <trkpt lat="36.9992920" lon="-2.3080820">
        <ele>1311.1</ele>
        <time>2019-10-18T13:19:10Z</time>
      </trkpt>
      <trkpt lat="36.9992800" lon="-2.3080670">
        <ele>1311.3</ele>
        <time>2019-10-18T13:19:11Z</time>
      </trkpt>
      <trkpt lat="36.9992690" lon="-2.3080500">
        <ele>1311.5</ele>
        <time>2019-10-18T13:19:12Z</time>
      </trkpt>
      <trkpt lat="36.9992590" lon="-2.3080320">
        <ele>1311.7</ele>
        <time>2019-10-18T13:19:13Z</time>
      </trkpt>
      <trkpt lat="36.9992500" lon="-2.3080130">
        <ele>1311.9</ele>
        <time>2019-10-18T13:19:14Z</time>
      </trkpt>
      <trkpt lat="36.9992400" lon="-2.3079930">
        <ele>1312.2</ele>
        <time>2019-10-18T13:19:15Z</time>
      </trkpt>
      <trkpt lat="36.9992300" lon="-2.3079740">
        <ele>1312.4</ele>
        <time>2019-10-18T13:19:16Z</time>
      </trkpt>
      <trkpt lat="36.9992190" lon="-2.3079570">
        <ele>1312.5</ele>
        <time>2019-10-18T13:19:17Z</time>
      </trkpt>
      <trkpt lat="36.9992070" lon="-2.3079400">
        <ele>1312.7</ele>
        <time>2019-10-18T13:19:18Z</time>
      </trkpt>
      <trkpt lat="36.9991960" lon="-2.3079240">
        <ele>1312.9</ele>
        <time>2019-10-18T13:19:19Z</time>
      </trkpt>
      <trkpt lat="36.9991850" lon="-2.3079060">
        <ele>1313.1</ele>
        <time>2019-10-18T13:19:20Z</time>
      </trkpt>
      <trkpt lat="36.9991740" lon="-2.3078890">
        <ele>1313.3</ele>
        <time>2019-10-18T13:19:21Z</time>
      </trkpt>
      <trkpt lat="36.9991630" lon="-2.3078730">
        <ele>1313.4</ele>
        <time>2019-10-18T13:19:22Z</time>
      </trkpt>
      <trkpt lat="36.9991520" lon="-2.3078580">
        <ele>1313.6</ele>
        <time>2019-10-18T13:19:23Z</time>
      </trkpt>
      <trkpt lat="36.9991410" lon="-2.3078420">
        <ele>1313.8</ele>
        <time>2019-10-18T13:19:24Z</time>
      </trkpt>
      <trkpt lat="36.9991310" lon="-2.3078260">
        <ele>1314.0</ele>
        <time>2019-10-18T13:19:25Z</time>
      </trkpt>
      <trkpt lat="36.9991190" lon="-2.3078090">
        <ele>1314.2</ele>
        <time>2019-10-18T13:19:26Z</time>
      </trkpt>
      <trkpt lat="36.9991080" lon="-2.3077920">
        <ele>1314.4</ele>
        <time>2019-10-18T13:19:27Z</time>
      </trkpt>
      <trkpt lat="36.9990960" lon="-2.3077750">
        <ele>1314.6</ele>
        <time>2019-10-18T13:19:28Z</time>
      </trkpt>
      <trkpt lat="36.9990840" lon="-2.3077580">
        <ele>1314.8</ele>
        <time>2019-10-18T13:19:29Z</time>
      </trkpt>
      <trkpt lat="36.9990710" lon="-2.3077420">
        <ele>1315.1</ele>
        <time>2019-10-18T13:19:30Z</time>
      </trkpt>
      <trkpt lat="36.9990570" lon="-2.3077280">
        <ele>1315.4</ele>
        <time>2019-10-18T13:19:31Z</time>
      </trkpt>
      <trkpt lat="36.9990440" lon="-2.3077150">
        <ele>1315.7</ele>
        <time>2019-10-18T13:19:32Z</time>
      </trkpt>
      <trkpt lat="36.9990320" lon="-2.3077020">
        <ele>1316.0</ele>
        <time>2019-10-18T13:19:33Z</time>
      </trkpt>
      <trkpt lat="36.9990200" lon="-2.3076900">
        <ele>1316.3</ele>
        <time>2019-10-18T13:19:34Z</time>
      </trkpt>
      <trkpt lat="36.9990070" lon="-2.3076780">
        <ele>1316.5</ele>
        <time>2019-10-18T13:19:35Z</time>
      </trkpt>
      <trkpt lat="36.9989940" lon="-2.3076680">
        <ele>1316.8</ele>
        <time>2019-10-18T13:19:36Z</time>
      </trkpt>
      <trkpt lat="36.9989820" lon="-2.3076570">
        <ele>1317.0</ele>
        <time>2019-10-18T13:19:37Z</time>
      </trkpt>
      <trkpt lat="36.9989690" lon="-2.3076470">
        <ele>1317.3</ele>
        <time>2019-10-18T13:19:38Z</time>
      </trkpt>
      <trkpt lat="36.9989550" lon="-2.3076380">
        <ele>1317.7</ele>
        <time>2019-10-18T13:19:39Z</time>
      </trkpt>
      <trkpt lat="36.9989420" lon="-2.3076300">
        <ele>1318.0</ele>
        <time>2019-10-18T13:19:40Z</time>
      </trkpt>
      <trkpt lat="36.9989300" lon="-2.3076210">
        <ele>1318.3</ele>
        <time>2019-10-18T13:19:41Z</time>
      </trkpt>
      <trkpt lat="36.9989170" lon="-2.3076110">
        <ele>1318.6</ele>
        <time>2019-10-18T13:19:42Z</time>
      </trkpt>
      <trkpt lat="36.9989050" lon="-2.3076010">
        <ele>1318.8</ele>
        <time>2019-10-18T13:19:43Z</time>
      </trkpt>
      <trkpt lat="36.9988920" lon="-2.3075930">
        <ele>1319.1</ele>
        <time>2019-10-18T13:19:44Z</time>
      </trkpt>
      <trkpt lat="36.9988790" lon="-2.3075880">
        <ele>1319.4</ele>
        <time>2019-10-18T13:19:45Z</time>
      </trkpt>
      <trkpt lat="36.9988660" lon="-2.3075830">
        <ele>1319.6</ele>
        <time>2019-10-18T13:19:46Z</time>
      </trkpt>
      <trkpt lat="36.9988540" lon="-2.3075770">
        <ele>1319.9</ele>
        <time>2019-10-18T13:19:47Z</time>
      </trkpt>
      <trkpt lat="36.9988420" lon="-2.3075690">
        <ele>1320.2</ele>
        <time>2019-10-18T13:19:48Z</time>
      </trkpt>
      <trkpt lat="36.9988290" lon="-2.3075610">
        <ele>1320.5</ele>
        <time>2019-10-18T13:19:49Z</time>
      </trkpt>
      <trkpt lat="36.9988160" lon="-2.3075530">
        <ele>1320.8</ele>
        <time>2019-10-18T13:19:50Z</time>
      </trkpt>
      <trkpt lat="36.9988030" lon="-2.3075460">
        <ele>1321.1</ele>
        <time>2019-10-18T13:19:51Z</time>
      </trkpt>
      <trkpt lat="36.9987900" lon="-2.3075410">
        <ele>1321.4</ele>
        <time>2019-10-18T13:19:52Z</time>
      </trkpt>
      <trkpt lat="36.9987770" lon="-2.3075350">
        <ele>1321.6</ele>
        <time>2019-10-18T13:19:53Z</time>
      </trkpt>
      <trkpt lat="36.9987640" lon="-2.3075290">
        <ele>1321.8</ele>
        <time>2019-10-18T13:19:54Z</time>
      </trkpt>
      <trkpt lat="36.9987510" lon="-2.3075210">
        <ele>1322.1</ele>
        <time>2019-10-18T13:19:55Z</time>
      </trkpt>
      <trkpt lat="36.9987380" lon="-2.3075130">
        <ele>1322.4</ele>
        <time>2019-10-18T13:19:56Z</time>
      </trkpt>
      <trkpt lat="36.9987250" lon="-2.3075050">
        <ele>1322.6</ele>
        <time>2019-10-18T13:19:57Z</time>
      </trkpt>
      <trkpt lat="36.9987130" lon="-2.3074950">
        <ele>1322.9</ele>
        <time>2019-10-18T13:19:58Z</time>
      </trkpt>
      <trkpt lat="36.9987000" lon="-2.3074840">
        <ele>1323.2</ele>
        <time>2019-10-18T13:19:59Z</time>
      </trkpt>
      <trkpt lat="36.9986870" lon="-2.3074750">
        <ele>1323.4</ele>
        <time>2019-10-18T13:20:00Z</time>
      </trkpt>
      <trkpt lat="36.9986730" lon="-2.3074680">
        <ele>1323.7</ele>
        <time>2019-10-18T13:20:01Z</time>
      </trkpt>
      <trkpt lat="36.9986600" lon="-2.3074610">
        <ele>1323.9</ele>
        <time>2019-10-18T13:20:02Z</time>
      </trkpt>
      <trkpt lat="36.9986470" lon="-2.3074530">
        <ele>1324.2</ele>
        <time>2019-10-18T13:20:03Z</time>
      </trkpt>
      <trkpt lat="36.9986350" lon="-2.3074440">
        <ele>1324.4</ele>
        <time>2019-10-18T13:20:04Z</time>
      </trkpt>
      <trkpt lat="36.9986240" lon="-2.3074330">
        <ele>1324.7</ele>
        <time>2019-10-18T13:20:05Z</time>
      </trkpt>
      <trkpt lat="36.9986140" lon="-2.3074190">
        <ele>1325.0</ele>
        <time>2019-10-18T13:20:06Z</time>
      </trkpt>
      <trkpt lat="36.9986040" lon="-2.3074040">
        <ele>1325.2</ele>
        <time>2019-10-18T13:20:07Z</time>
      </trkpt>
      <trkpt lat="36.9985950" lon="-2.3073880">
        <ele>1325.5</ele>
        <time>2019-10-18T13:20:08Z</time>
      </trkpt>
      <trkpt lat="36.9985860" lon="-2.3073710">
        <ele>1325.7</ele>
        <time>2019-10-18T13:20:09Z</time>
      </trkpt>
      <trkpt lat="36.9985770" lon="-2.3073530">
        <ele>1325.9</ele>
        <time>2019-10-18T13:20:10Z</time>
      </trkpt>
      <trkpt lat="36.9985690" lon="-2.3073350">
        <ele>1326.2</ele>
        <time>2019-10-18T13:20:11Z</time>
      </trkpt>
      <trkpt lat="36.9985620" lon="-2.3073160">
        <ele>1326.4</ele>
        <time>2019-10-18T13:20:12Z</time>
      </trkpt>
      <trkpt lat="36.9985550" lon="-2.3072970">
        <ele>1326.6</ele>
        <time>2019-10-18T13:20:13Z</time>
      </trkpt>
      <trkpt lat="36.9985490" lon="-2.3072770">
        <ele>1326.7</ele>
        <time>2019-10-18T13:20:14Z</time>
      </trkpt>
      <trkpt lat="36.9985430" lon="-2.3072570">
        <ele>1326.9</ele>
        <time>2019-10-18T13:20:15Z</time>
      </trkpt>
      <trkpt lat="36.9985390" lon="-2.3072350">
        <ele>1327.1</ele>
        <time>2019-10-18T13:20:16Z</time>
      </trkpt>
      <trkpt lat="36.9985350" lon="-2.3072120">
        <ele>1327.3</ele>
        <time>2019-10-18T13:20:17Z</time>
      </trkpt>
      <trkpt lat="36.9985290" lon="-2.3071900">
        <ele>1327.5</ele>
        <time>2019-10-18T13:20:18Z</time>
      </trkpt>
      <trkpt lat="36.9985210" lon="-2.3071690">
        <ele>1327.6</ele>
        <time>2019-10-18T13:20:19Z</time>
      </trkpt>
      <trkpt lat="36.9985160" lon="-2.3071470">
        <ele>1327.8</ele>
        <time>2019-10-18T13:20:20Z</time>
      </trkpt>
      <trkpt lat="36.9985120" lon="-2.3071250">
        <ele>1327.9</ele>
        <time>2019-10-18T13:20:21Z</time>
      </trkpt>
      <trkpt lat="36.9985110" lon="-2.3071010">
        <ele>1328.1</ele>
        <time>2019-10-18T13:20:22Z</time>
      </trkpt>
      <trkpt lat="36.9985110" lon="-2.3070780">
        <ele>1328.2</ele>
        <time>2019-10-18T13:20:23Z</time>
      </trkpt>
      <trkpt lat="36.9985100" lon="-2.3070540">
        <ele>1328.3</ele>
        <time>2019-10-18T13:20:24Z</time>
      </trkpt>
      <trkpt lat="36.9985090" lon="-2.3070320">
        <ele>1328.4</ele>
        <time>2019-10-18T13:20:25Z</time>
      </trkpt>
      <trkpt lat="36.9985080" lon="-2.3070100">
        <ele>1328.5</ele>
        <time>2019-10-18T13:20:26Z</time>
      </trkpt>
      <trkpt lat="36.9985090" lon="-2.3069880">
        <ele>1328.6</ele>
        <time>2019-10-18T13:20:27Z</time>
      </trkpt>
      <trkpt lat="36.9985110" lon="-2.3069650">
        <ele>1328.7</ele>
        <time>2019-10-18T13:20:28Z</time>
      </trkpt>
      <trkpt lat="36.9985120" lon="-2.3069420">
        <ele>1328.8</ele>
        <time>2019-10-18T13:20:29Z</time>
      </trkpt>
      <trkpt lat="36.9985120" lon="-2.3069170">
        <ele>1328.9</ele>
        <time>2019-10-18T13:20:30Z</time>
      </trkpt>
      <trkpt lat="36.9985110" lon="-2.3068910">
        <ele>1328.9</ele>
        <time>2019-10-18T13:20:31Z</time>
      </trkpt>
      <trkpt lat="36.9985090" lon="-2.3068640">
        <ele>1329.0</ele>
        <time>2019-10-18T13:20:32Z</time>
      </trkpt>
      <trkpt lat="36.9985090" lon="-2.3068370">
        <ele>1329.1</ele>
        <time>2019-10-18T13:20:33Z</time>
      </trkpt>
      <trkpt lat="36.9985090" lon="-2.3068090">
        <ele>1329.1</ele>
        <time>2019-10-18T13:20:34Z</time>
      </trkpt>
      <trkpt lat="36.9985080" lon="-2.3067800">
        <ele>1329.2</ele>
        <time>2019-10-18T13:20:35Z</time>
      </trkpt>
      <trkpt lat="36.9985060" lon="-2.3067490">
        <ele>1329.2</ele>
        <time>2019-10-18T13:20:36Z</time>
      </trkpt>
      <trkpt lat="36.9985020" lon="-2.3067180">
        <ele>1329.3</ele>
        <time>2019-10-18T13:20:37Z</time>
      </trkpt>
      <trkpt lat="36.9984990" lon="-2.3066860">
        <ele>1329.3</ele>
        <time>2019-10-18T13:20:38Z</time>
      </trkpt>
      <trkpt lat="36.9984960" lon="-2.3066540">
        <ele>1329.3</ele>
        <time>2019-10-18T13:20:39Z</time>
      </trkpt>
      <trkpt lat="36.9984920" lon="-2.3066210">
        <ele>1329.4</ele>
        <time>2019-10-18T13:20:40Z</time>
      </trkpt>
      <trkpt lat="36.9984880" lon="-2.3065870">
        <ele>1329.4</ele>
        <time>2019-10-18T13:20:41Z</time>
      </trkpt>
      <trkpt lat="36.9984820" lon="-2.3065530">
        <ele>1329.4</ele>
        <time>2019-10-18T13:20:42Z</time>
      </trkpt>
      <trkpt lat="36.9984760" lon="-2.3065180">
        <ele>1329.4</ele>
        <time>2019-10-18T13:20:43Z</time>
      </trkpt>
      <trkpt lat="36.9984710" lon="-2.3064760">
        <ele>1329.4</ele>
        <time>2019-10-18T13:20:44Z</time>
      </trkpt>
      <trkpt lat="36.9984650" lon="-2.3064280">
        <ele>1329.4</ele>
        <time>2019-10-18T13:20:45Z</time>
      </trkpt>
      <trkpt lat="36.9984600" lon="-2.3063750">
        <ele>1329.4</ele>
        <time>2019-10-18T13:20:46Z</time>
      </trkpt>
      <trkpt lat="36.9984530" lon="-2.3063190">
        <ele>1329.4</ele>
        <time>2019-10-18T13:20:47Z</time>
      </trkpt>
      <trkpt lat="36.9984450" lon="-2.3062610">
        <ele>1329.4</ele>
        <time>2019-10-18T13:20:48Z</time>
      </trkpt>
      <trkpt lat="36.9984350" lon="-2.3062010">
        <ele>1329.4</ele>
        <time>2019-10-18T13:20:49Z</time>
      </trkpt>
      <trkpt lat="36.9984250" lon="-2.3061390">
        <ele>1329.4</ele>
        <time>2019-10-18T13:20:50Z</time>
      </trkpt>
      <trkpt lat="36.9984120" lon="-2.3060770">
        <ele>1329.4</ele>
        <time>2019-10-18T13:20:51Z</time>
      </trkpt>
      <trkpt lat="36.9983980" lon="-2.3060140">
        <ele>1329.4</ele>
        <time>2019-10-18T13:20:52Z</time>
      </trkpt>
      <trkpt lat="36.9983810" lon="-2.3059500">
        <ele>1329.5</ele>
        <time>2019-10-18T13:20:53Z</time>
      </trkpt>
      <trkpt lat="36.9983610" lon="-2.3058880">
        <ele>1329.6</ele>
        <time>2019-10-18T13:20:54Z</time>
      </trkpt>
      <trkpt lat="36.9983390" lon="-2.3058290">
        <ele>1329.8</ele>
        <time>2019-10-18T13:20:55Z</time>
      </trkpt>
      <trkpt lat="36.9983150" lon="-2.3057740">
        <ele>1330.0</ele>
        <time>2019-10-18T13:20:56Z</time>
      </trkpt>
      <trkpt lat="36.9982910" lon="-2.3057260">
        <ele>1330.3</ele>
        <time>2019-10-18T13:20:57Z</time>
      </trkpt>
      <trkpt lat="36.9982660" lon="-2.3056830">
        <ele>1330.5</ele>
        <time>2019-10-18T13:20:58Z</time>
      </trkpt>
      <trkpt lat="36.9982420" lon="-2.3056450">
        <ele>1330.7</ele>
        <time>2019-10-18T13:20:59Z</time>
      </trkpt>
      <trkpt lat="36.9982200" lon="-2.3056110">
        <ele>1330.9</ele>
        <time>2019-10-18T13:21:00Z</time>
      </trkpt>
      <trkpt lat="36.9981980" lon="-2.3055780">
        <ele>1331.1</ele>
        <time>2019-10-18T13:21:01Z</time>
      </trkpt>
      <trkpt lat="36.9981770" lon="-2.3055470">
        <ele>1331.3</ele>
        <time>2019-10-18T13:21:02Z</time>
      </trkpt>
      <trkpt lat="36.9981560" lon="-2.3055170">
        <ele>1331.5</ele>
        <time>2019-10-18T13:21:03Z</time>
      </trkpt>
      <trkpt lat="36.9981340" lon="-2.3054870">
        <ele>1331.7</ele>
        <time>2019-10-18T13:21:04Z</time>
      </trkpt>
      <trkpt lat="36.9981120" lon="-2.3054550">
        <ele>1332.0</ele>
        <time>2019-10-18T13:21:05Z</time>
      </trkpt>
      <trkpt lat="36.9980900" lon="-2.3054220">
        <ele>1332.1</ele>
        <time>2019-10-18T13:21:06Z</time>
      </trkpt>
      <trkpt lat="36.9980700" lon="-2.3053880">
        <ele>1332.3</ele>
        <time>2019-10-18T13:21:07Z</time>
      </trkpt>
      <trkpt lat="36.9980520" lon="-2.3053520">
        <ele>1332.5</ele>
        <time>2019-10-18T13:21:08Z</time>
      </trkpt>
      <trkpt lat="36.9980360" lon="-2.3053140">
        <ele>1332.6</ele>
        <time>2019-10-18T13:21:09Z</time>
      </trkpt>
      <trkpt lat="36.9980220" lon="-2.3052730">
        <ele>1332.8</ele>
        <time>2019-10-18T13:21:10Z</time>
      </trkpt>
      <trkpt lat="36.9980110" lon="-2.3052310">
        <ele>1333.0</ele>
        <time>2019-10-18T13:21:11Z</time>
      </trkpt>
      <trkpt lat="36.9980000" lon="-2.3051880">
        <ele>1333.2</ele>
        <time>2019-10-18T13:21:12Z</time>
      </trkpt>
      <trkpt lat="36.9979910" lon="-2.3051440">
        <ele>1333.3</ele>
        <time>2019-10-18T13:21:13Z</time>
      </trkpt>
      <trkpt lat="36.9979830" lon="-2.3051020">
        <ele>1333.5</ele>
        <time>2019-10-18T13:21:14Z</time>
      </trkpt>
      <trkpt lat="36.9979770" lon="-2.3050610">
        <ele>1333.6</ele>
        <time>2019-10-18T13:21:15Z</time>
      </trkpt>
      <trkpt lat="36.9979730" lon="-2.3050220">
        <ele>1333.8</ele>
        <time>2019-10-18T13:21:16Z</time>
      </trkpt>
      <trkpt lat="36.9979700" lon="-2.3049820">
        <ele>1334.0</ele>
        <time>2019-10-18T13:21:17Z</time>
      </trkpt>
      <trkpt lat="36.9979670" lon="-2.3049440">
        <ele>1334.1</ele>
        <time>2019-10-18T13:21:18Z</time>
      </trkpt>
      <trkpt lat="36.9979640" lon="-2.3049060">
        <ele>1334.3</ele>
        <time>2019-10-18T13:21:19Z</time>
      </trkpt>
      <trkpt lat="36.9979620" lon="-2.3048680">
        <ele>1334.5</ele>
        <time>2019-10-18T13:21:20Z</time>
      </trkpt>
      <trkpt lat="36.9979610" lon="-2.3048310">
        <ele>1334.6</ele>
        <time>2019-10-18T13:21:21Z</time>
      </trkpt>
      <trkpt lat="36.9979600" lon="-2.3047940">
        <ele>1334.8</ele>
        <time>2019-10-18T13:21:22Z</time>
      </trkpt>
      <trkpt lat="36.9979600" lon="-2.3047580">
        <ele>1335.1</ele>
        <time>2019-10-18T13:21:23Z</time>
      </trkpt>
      <trkpt lat="36.9979590" lon="-2.3047230">
        <ele>1335.3</ele>
        <time>2019-10-18T13:21:24Z</time>
      </trkpt>
      <trkpt lat="36.9979590" lon="-2.3046890">
        <ele>1335.6</ele>
        <time>2019-10-18T13:21:25Z</time>
      </trkpt>
      <trkpt lat="36.9979600" lon="-2.3046570">
        <ele>1335.8</ele>
        <time>2019-10-18T13:21:26Z</time>
      </trkpt>
      <trkpt lat="36.9979610" lon="-2.3046240">
        <ele>1336.2</ele>
        <time>2019-10-18T13:21:27Z</time>
      </trkpt>
      <trkpt lat="36.9979620" lon="-2.3045910">
        <ele>1336.5</ele>
        <time>2019-10-18T13:21:28Z</time>
      </trkpt>
      <trkpt lat="36.9979620" lon="-2.3045580">
        <ele>1336.8</ele>
        <time>2019-10-18T13:21:29Z</time>
      </trkpt>
      <trkpt lat="36.9979610" lon="-2.3045260">
        <ele>1337.0</ele>
        <time>2019-10-18T13:21:30Z</time>
      </trkpt>
      <trkpt lat="36.9979590" lon="-2.3044920">
        <ele>1337.2</ele>
        <time>2019-10-18T13:21:31Z</time>
      </trkpt>
      <trkpt lat="36.9979580" lon="-2.3044590">
        <ele>1337.5</ele>
        <time>2019-10-18T13:21:32Z</time>
      </trkpt>
      <trkpt lat="36.9979570" lon="-2.3044270">
        <ele>1337.7</ele>
        <time>2019-10-18T13:21:33Z</time>
      </trkpt>
      <trkpt lat="36.9979560" lon="-2.3043940">
        <ele>1338.0</ele>
        <time>2019-10-18T13:21:34Z</time>
      </trkpt>
      <trkpt lat="36.9979560" lon="-2.3043600">
        <ele>1338.2</ele>
        <time>2019-10-18T13:21:35Z</time>
      </trkpt>
      <trkpt lat="36.9979550" lon="-2.3043260">
        <ele>1338.5</ele>
        <time>2019-10-18T13:21:36Z</time>
      </trkpt>
      <trkpt lat="36.9979550" lon="-2.3042920">
        <ele>1338.7</ele>
        <time>2019-10-18T13:21:37Z</time>
      </trkpt>
      <trkpt lat="36.9979540" lon="-2.3042570">
        <ele>1338.9</ele>
        <time>2019-10-18T13:21:38Z</time>
      </trkpt>
      <trkpt lat="36.9979530" lon="-2.3042210">
        <ele>1339.0</ele>
        <time>2019-10-18T13:21:39Z</time>
      </trkpt>
      <trkpt lat="36.9979510" lon="-2.3041830">
        <ele>1339.2</ele>
        <time>2019-10-18T13:21:40Z</time>
      </trkpt>
      <trkpt lat="36.9979460" lon="-2.3041450">
        <ele>1339.3</ele>
        <time>2019-10-18T13:21:41Z</time>
      </trkpt>
      <trkpt lat="36.9979370" lon="-2.3041060">
        <ele>1339.4</ele>
        <time>2019-10-18T13:21:42Z</time>
      </trkpt>
      <trkpt lat="36.9979220" lon="-2.3040690">
        <ele>1339.5</ele>
        <time>2019-10-18T13:21:43Z</time>
      </trkpt>
      <trkpt lat="36.9979020" lon="-2.3040340">
        <ele>1339.5</ele>
        <time>2019-10-18T13:21:44Z</time>
      </trkpt>
      <trkpt lat="36.9978790" lon="-2.3040000">
        <ele>1339.6</ele>
        <time>2019-10-18T13:21:45Z</time>
      </trkpt>
      <trkpt lat="36.9978540" lon="-2.3039670">
        <ele>1339.6</ele>
        <time>2019-10-18T13:21:46Z</time>
      </trkpt>
      <trkpt lat="36.9978270" lon="-2.3039360">
        <ele>1339.7</ele>
        <time>2019-10-18T13:21:47Z</time>
      </trkpt>
      <trkpt lat="36.9977980" lon="-2.3039090">
        <ele>1339.7</ele>
        <time>2019-10-18T13:21:48Z</time>
      </trkpt>
      <trkpt lat="36.9977700" lon="-2.3038850">
        <ele>1339.7</ele>
        <time>2019-10-18T13:21:49Z</time>
      </trkpt>
      <trkpt lat="36.9977420" lon="-2.3038610">
        <ele>1339.6</ele>
        <time>2019-10-18T13:21:50Z</time>
      </trkpt>
      <trkpt lat="36.9977150" lon="-2.3038360">
        <ele>1339.6</ele>
        <time>2019-10-18T13:21:51Z</time>
      </trkpt>
      <trkpt lat="36.9976900" lon="-2.3038080">
        <ele>1339.6</ele>
        <time>2019-10-18T13:21:52Z</time>
      </trkpt>
      <trkpt lat="36.9976640" lon="-2.3037800">
        <ele>1339.5</ele>
        <time>2019-10-18T13:21:53Z</time>
      </trkpt>
      <trkpt lat="36.9976380" lon="-2.3037490">
        <ele>1339.4</ele>
        <time>2019-10-18T13:21:54Z</time>
      </trkpt>
      <trkpt lat="36.9976110" lon="-2.3037180">
        <ele>1339.2</ele>
        <time>2019-10-18T13:21:55Z</time>
      </trkpt>
      <trkpt lat="36.9975840" lon="-2.3036850">
        <ele>1339.1</ele>
        <time>2019-10-18T13:21:56Z</time>
      </trkpt>
      <trkpt lat="36.9975540" lon="-2.3036480">
        <ele>1338.8</ele>
        <time>2019-10-18T13:21:57Z</time>
      </trkpt>
      <trkpt lat="36.9975220" lon="-2.3036080">
        <ele>1338.5</ele>
        <time>2019-10-18T13:21:58Z</time>
      </trkpt>
      <trkpt lat="36.9974860" lon="-2.3035630">
        <ele>1338.1</ele>
        <time>2019-10-18T13:21:59Z</time>
      </trkpt>
      <trkpt lat="36.9974480" lon="-2.3035150">
        <ele>1337.6</ele>
        <time>2019-10-18T13:22:00Z</time>
      </trkpt>
      <trkpt lat="36.9974060" lon="-2.3034620">
        <ele>1337.1</ele>
        <time>2019-10-18T13:22:01Z</time>
      </trkpt>
      <trkpt lat="36.9973600" lon="-2.3034060">
        <ele>1336.6</ele>
        <time>2019-10-18T13:22:02Z</time>
      </trkpt>
      <trkpt lat="36.9973100" lon="-2.3033470">
        <ele>1336.1</ele>
        <time>2019-10-18T13:22:03Z</time>
      </trkpt>
      <trkpt lat="36.9972560" lon="-2.3032860">
        <ele>1335.5</ele>
        <time>2019-10-18T13:22:04Z</time>
      </trkpt>
      <trkpt lat="36.9971990" lon="-2.3032250">
        <ele>1335.0</ele>
        <time>2019-10-18T13:22:05Z</time>
      </trkpt>
      <trkpt lat="36.9971390" lon="-2.3031640">
        <ele>1334.5</ele>
        <time>2019-10-18T13:22:06Z</time>
      </trkpt>
      <trkpt lat="36.9970760" lon="-2.3031060">
        <ele>1334.2</ele>
        <time>2019-10-18T13:22:07Z</time>
      </trkpt>
      <trkpt lat="36.9970110" lon="-2.3030510">
        <ele>1334.1</ele>
        <time>2019-10-18T13:22:08Z</time>
      </trkpt>
      <trkpt lat="36.9969480" lon="-2.3029950">
        <ele>1334.0</ele>
        <time>2019-10-18T13:22:09Z</time>
      </trkpt>
      <trkpt lat="36.9968870" lon="-2.3029350">
        <ele>1334.0</ele>
        <time>2019-10-18T13:22:10Z</time>
      </trkpt>
      <trkpt lat="36.9968290" lon="-2.3028740">
        <ele>1334.0</ele>
        <time>2019-10-18T13:22:11Z</time>
      </trkpt>
      <trkpt lat="36.9967740" lon="-2.3028130">
        <ele>1334.0</ele>
        <time>2019-10-18T13:22:12Z</time>
      </trkpt>
      <trkpt lat="36.9967240" lon="-2.3027520">
        <ele>1334.0</ele>
        <time>2019-10-18T13:22:13Z</time>
      </trkpt>
      <trkpt lat="36.9966780" lon="-2.3026900">
        <ele>1334.1</ele>
        <time>2019-10-18T13:22:14Z</time>
      </trkpt>
      <trkpt lat="36.9966390" lon="-2.3026300">
        <ele>1334.2</ele>
        <time>2019-10-18T13:22:15Z</time>
      </trkpt>
      <trkpt lat="36.9966050" lon="-2.3025700">
        <ele>1334.3</ele>
        <time>2019-10-18T13:22:16Z</time>
      </trkpt>
      <trkpt lat="36.9965760" lon="-2.3025110">
        <ele>1334.4</ele>
        <time>2019-10-18T13:22:17Z</time>
      </trkpt>
      <trkpt lat="36.9965510" lon="-2.3024530">
        <ele>1334.5</ele>
        <time>2019-10-18T13:22:18Z</time>
      </trkpt>
      <trkpt lat="36.9965290" lon="-2.3023950">
        <ele>1334.7</ele>
        <time>2019-10-18T13:22:19Z</time>
      </trkpt>
      <trkpt lat="36.9965070" lon="-2.3023370">
        <ele>1334.8</ele>
        <time>2019-10-18T13:22:20Z</time>
      </trkpt>
      <trkpt lat="36.9964820" lon="-2.3022800">
        <ele>1334.9</ele>
        <time>2019-10-18T13:22:21Z</time>
      </trkpt>
      <trkpt lat="36.9964510" lon="-2.3022260">
        <ele>1335.0</ele>
        <time>2019-10-18T13:22:22Z</time>
      </trkpt>
      <trkpt lat="36.9964140" lon="-2.3021790">
        <ele>1335.0</ele>
        <time>2019-10-18T13:22:23Z</time>
      </trkpt>
      <trkpt lat="36.9963710" lon="-2.3021420">
        <ele>1335.2</ele>
        <time>2019-10-18T13:22:24Z</time>
      </trkpt>
      <trkpt lat="36.9963260" lon="-2.3021150">
        <ele>1335.3</ele>
        <time>2019-10-18T13:22:25Z</time>
      </trkpt>
      <trkpt lat="36.9962820" lon="-2.3020970">
        <ele>1335.5</ele>
        <time>2019-10-18T13:22:26Z</time>
      </trkpt>
      <trkpt lat="36.9962400" lon="-2.3020830">
        <ele>1335.6</ele>
        <time>2019-10-18T13:22:27Z</time>
      </trkpt>
      <trkpt lat="36.9961990" lon="-2.3020730">
        <ele>1335.8</ele>
        <time>2019-10-18T13:22:28Z</time>
      </trkpt>
      <trkpt lat="36.9961600" lon="-2.3020650">
        <ele>1336.0</ele>
        <time>2019-10-18T13:22:29Z</time>
      </trkpt>
      <trkpt lat="36.9961230" lon="-2.3020600">
        <ele>1336.2</ele>
        <time>2019-10-18T13:22:30Z</time>
      </trkpt>
      <trkpt lat="36.9960880" lon="-2.3020620">
        <ele>1336.4</ele>
        <time>2019-10-18T13:22:31Z</time>
      </trkpt>
      <trkpt lat="36.9960540" lon="-2.3020710">
        <ele>1336.6</ele>
        <time>2019-10-18T13:22:32Z</time>
      </trkpt>
      <trkpt lat="36.9960210" lon="-2.3020810">
        <ele>1336.7</ele>
        <time>2019-10-18T13:22:33Z</time>
      </trkpt>
      <trkpt lat="36.9959880" lon="-2.3020920">
        <ele>1336.9</ele>
        <time>2019-10-18T13:22:34Z</time>
      </trkpt>
      <trkpt lat="36.9959540" lon="-2.3021010">
        <ele>1337.1</ele>
        <time>2019-10-18T13:22:35Z</time>
      </trkpt>
      <trkpt lat="36.9959190" lon="-2.3021110">
        <ele>1337.3</ele>
        <time>2019-10-18T13:22:36Z</time>
      </trkpt>
      <trkpt lat="36.9958850" lon="-2.3021210">
        <ele>1337.5</ele>
        <time>2019-10-18T13:22:37Z</time>
      </trkpt>
      <trkpt lat="36.9958490" lon="-2.3021300">
        <ele>1337.7</ele>
        <time>2019-10-18T13:22:38Z</time>
      </trkpt>
      <trkpt lat="36.9958140" lon="-2.3021400">
        <ele>1337.9</ele>
        <time>2019-10-18T13:22:39Z</time>
      </trkpt>
      <trkpt lat="36.9957800" lon="-2.3021510">
        <ele>1338.1</ele>
        <time>2019-10-18T13:22:40Z</time>
      </trkpt>
      <trkpt lat="36.9957460" lon="-2.3021610">
        <ele>1338.3</ele>
        <time>2019-10-18T13:22:41Z</time>
      </trkpt>
      <trkpt lat="36.9957130" lon="-2.3021700">
        <ele>1338.4</ele>
        <time>2019-10-18T13:22:42Z</time>
      </trkpt>
      <trkpt lat="36.9956790" lon="-2.3021770">
        <ele>1338.6</ele>
        <time>2019-10-18T13:22:43Z</time>
      </trkpt>
      <trkpt lat="36.9956460" lon="-2.3021830">
        <ele>1338.8</ele>
        <time>2019-10-18T13:22:44Z</time>
      </trkpt>
      <trkpt lat="36.9956130" lon="-2.3021870">
        <ele>1339.0</ele>
        <time>2019-10-18T13:22:45Z</time>
      </trkpt>
      <trkpt lat="36.9955800" lon="-2.3021880">
        <ele>1339.1</ele>
        <time>2019-10-18T13:22:46Z</time>
      </trkpt>
      <trkpt lat="36.9955460" lon="-2.3021880">
        <ele>1339.3</ele>
        <time>2019-10-18T13:22:47Z</time>
      </trkpt>
      <trkpt lat="36.9955120" lon="-2.3021880">
        <ele>1339.4</ele>
        <time>2019-10-18T13:22:48Z</time>
      </trkpt>
      <trkpt lat="36.9954780" lon="-2.3021910">
        <ele>1339.6</ele>
        <time>2019-10-18T13:22:49Z</time>
      </trkpt>
      <trkpt lat="36.9954440" lon="-2.3021930">
        <ele>1339.7</ele>
        <time>2019-10-18T13:22:50Z</time>
      </trkpt>
      <trkpt lat="36.9954100" lon="-2.3021950">
        <ele>1339.9</ele>
        <time>2019-10-18T13:22:51Z</time>
      </trkpt>
      <trkpt lat="36.9953760" lon="-2.3021920">
        <ele>1340.0</ele>
        <time>2019-10-18T13:22:52Z</time>
      </trkpt>
      <trkpt lat="36.9953420" lon="-2.3021850">
        <ele>1340.2</ele>
        <time>2019-10-18T13:22:53Z</time>
      </trkpt>
      <trkpt lat="36.9953070" lon="-2.3021770">
        <ele>1340.4</ele>
        <time>2019-10-18T13:22:54Z</time>
      </trkpt>
      <trkpt lat="36.9952720" lon="-2.3021660">
        <ele>1340.5</ele>
        <time>2019-10-18T13:22:55Z</time>
      </trkpt>
      <trkpt lat="36.9952370" lon="-2.3021540">
        <ele>1340.6</ele>
        <time>2019-10-18T13:22:56Z</time>
      </trkpt>
      <trkpt lat="36.9952030" lon="-2.3021400">
        <ele>1340.8</ele>
        <time>2019-10-18T13:22:57Z</time>
      </trkpt>
      <trkpt lat="36.9951690" lon="-2.3021280">
        <ele>1340.9</ele>
        <time>2019-10-18T13:22:58Z</time>
      </trkpt>
      <trkpt lat="36.9951350" lon="-2.3021170">
        <ele>1341.0</ele>
        <time>2019-10-18T13:22:59Z</time>
      </trkpt>
      <trkpt lat="36.9951010" lon="-2.3021070">
        <ele>1341.2</ele>
        <time>2019-10-18T13:23:00Z</time>
      </trkpt>
      <trkpt lat="36.9950680" lon="-2.3020950">
        <ele>1341.4</ele>
        <time>2019-10-18T13:23:01Z</time>
      </trkpt>
      <trkpt lat="36.9950360" lon="-2.3020820">
        <ele>1341.6</ele>
        <time>2019-10-18T13:23:02Z</time>
      </trkpt>
      <trkpt lat="36.9950040" lon="-2.3020680">
        <ele>1341.7</ele>
        <time>2019-10-18T13:23:03Z</time>
      </trkpt>
      <trkpt lat="36.9949730" lon="-2.3020520">
        <ele>1341.9</ele>
        <time>2019-10-18T13:23:04Z</time>
      </trkpt>
      <trkpt lat="36.9949430" lon="-2.3020360">
        <ele>1342.0</ele>
        <time>2019-10-18T13:23:05Z</time>
      </trkpt>
      <trkpt lat="36.9949140" lon="-2.3020190">
        <ele>1342.1</ele>
        <time>2019-10-18T13:23:06Z</time>
      </trkpt>
      <trkpt lat="36.9948860" lon="-2.3020010">
        <ele>1342.3</ele>
        <time>2019-10-18T13:23:07Z</time>
      </trkpt>
      <trkpt lat="36.9948590" lon="-2.3019830">
        <ele>1342.5</ele>
        <time>2019-10-18T13:23:08Z</time>
      </trkpt>
      <trkpt lat="36.9948330" lon="-2.3019650">
        <ele>1342.7</ele>
        <time>2019-10-18T13:23:09Z</time>
      </trkpt>
      <trkpt lat="36.9948060" lon="-2.3019470">
        <ele>1342.9</ele>
        <time>2019-10-18T13:23:10Z</time>
      </trkpt>
      <trkpt lat="36.9947790" lon="-2.3019310">
        <ele>1343.1</ele>
        <time>2019-10-18T13:23:11Z</time>
      </trkpt>
      <trkpt lat="36.9947520" lon="-2.3019130">
        <ele>1343.3</ele>
        <time>2019-10-18T13:23:12Z</time>
      </trkpt>
      <trkpt lat="36.9947240" lon="-2.3018950">
        <ele>1343.5</ele>
        <time>2019-10-18T13:23:13Z</time>
      </trkpt>
      <trkpt lat="36.9946970" lon="-2.3018760">
        <ele>1343.7</ele>
        <time>2019-10-18T13:23:14Z</time>
      </trkpt>
      <trkpt lat="36.9946690" lon="-2.3018580">
        <ele>1343.8</ele>
        <time>2019-10-18T13:23:15Z</time>
      </trkpt>
      <trkpt lat="36.9946430" lon="-2.3018380">
        <ele>1343.9</ele>
        <time>2019-10-18T13:23:16Z</time>
      </trkpt>
      <trkpt lat="36.9946180" lon="-2.3018150">
        <ele>1343.9</ele>
        <time>2019-10-18T13:23:17Z</time>
      </trkpt>
      <trkpt lat="36.9945940" lon="-2.3017900">
        <ele>1344.0</ele>
        <time>2019-10-18T13:23:18Z</time>
      </trkpt>
      <trkpt lat="36.9945690" lon="-2.3017640">
        <ele>1344.0</ele>
        <time>2019-10-18T13:23:19Z</time>
      </trkpt>
      <trkpt lat="36.9945420" lon="-2.3017390">
        <ele>1344.1</ele>
        <time>2019-10-18T13:23:20Z</time>
      </trkpt>
      <trkpt lat="36.9945110" lon="-2.3017130">
        <ele>1344.1</ele>
        <time>2019-10-18T13:23:21Z</time>
      </trkpt>
      <trkpt lat="36.9944770" lon="-2.3016880">
        <ele>1344.1</ele>
        <time>2019-10-18T13:23:22Z</time>
      </trkpt>
      <trkpt lat="36.9944400" lon="-2.3016610">
        <ele>1344.0</ele>
        <time>2019-10-18T13:23:23Z</time>
      </trkpt>
      <trkpt lat="36.9944010" lon="-2.3016340">
        <ele>1343.9</ele>
        <time>2019-10-18T13:23:24Z</time>
      </trkpt>
      <trkpt lat="36.9943600" lon="-2.3016050">
        <ele>1343.8</ele>
        <time>2019-10-18T13:23:25Z</time>
      </trkpt>
      <trkpt lat="36.9943150" lon="-2.3015750">
        <ele>1343.7</ele>
        <time>2019-10-18T13:23:26Z</time>
      </trkpt>
      <trkpt lat="36.9942690" lon="-2.3015420">
        <ele>1343.6</ele>
        <time>2019-10-18T13:23:27Z</time>
      </trkpt>
      <trkpt lat="36.9942210" lon="-2.3015090">
        <ele>1343.4</ele>
        <time>2019-10-18T13:23:28Z</time>
      </trkpt>
      <trkpt lat="36.9941710" lon="-2.3014740">
        <ele>1343.3</ele>
        <time>2019-10-18T13:23:29Z</time>
      </trkpt>
      <trkpt lat="36.9941200" lon="-2.3014380">
        <ele>1343.2</ele>
        <time>2019-10-18T13:23:30Z</time>
      </trkpt>
      <trkpt lat="36.9940690" lon="-2.3014040">
        <ele>1343.2</ele>
        <time>2019-10-18T13:23:31Z</time>
      </trkpt>
      <trkpt lat="36.9940200" lon="-2.3013690">
        <ele>1343.3</ele>
        <time>2019-10-18T13:23:32Z</time>
      </trkpt>
      <trkpt lat="36.9939750" lon="-2.3013330">
        <ele>1343.4</ele>
        <time>2019-10-18T13:23:33Z</time>
      </trkpt>
      <trkpt lat="36.9939370" lon="-2.3012960">
        <ele>1343.7</ele>
        <time>2019-10-18T13:23:34Z</time>
      </trkpt>
      <trkpt lat="36.9939050" lon="-2.3012580">
        <ele>1344.0</ele>
        <time>2019-10-18T13:23:35Z</time>
      </trkpt>
      <trkpt lat="36.9938810" lon="-2.3012230">
        <ele>1344.3</ele>
        <time>2019-10-18T13:23:36Z</time>
      </trkpt>
      <trkpt lat="36.9938630" lon="-2.3011910">
        <ele>1344.5</ele>
        <time>2019-10-18T13:23:37Z</time>
      </trkpt>
      <trkpt lat="36.9938480" lon="-2.3011610">
        <ele>1344.8</ele>
        <time>2019-10-18T13:23:38Z</time>
      </trkpt>
      <trkpt lat="36.9938350" lon="-2.3011310">
        <ele>1345.1</ele>
        <time>2019-10-18T13:23:39Z</time>
      </trkpt>
      <trkpt lat="36.9938240" lon="-2.3011010">
        <ele>1345.4</ele>
        <time>2019-10-18T13:23:40Z</time>
      </trkpt>
      <trkpt lat="36.9938150" lon="-2.3010720">
        <ele>1345.8</ele>
        <time>2019-10-18T13:23:41Z</time>
      </trkpt>
      <trkpt lat="36.9938070" lon="-2.3010420">
        <ele>1346.1</ele>
        <time>2019-10-18T13:23:42Z</time>
      </trkpt>
      <trkpt lat="36.9937970" lon="-2.3010120">
        <ele>1346.4</ele>
        <time>2019-10-18T13:23:43Z</time>
      </trkpt>
      <trkpt lat="36.9937890" lon="-2.3009820">
        <ele>1346.8</ele>
        <time>2019-10-18T13:23:44Z</time>
      </trkpt>
      <trkpt lat="36.9937810" lon="-2.3009530">
        <ele>1347.1</ele>
        <time>2019-10-18T13:23:45Z</time>
      </trkpt>
      <trkpt lat="36.9937750" lon="-2.3009220">
        <ele>1347.5</ele>
        <time>2019-10-18T13:23:46Z</time>
      </trkpt>
      <trkpt lat="36.9937700" lon="-2.3008900">
        <ele>1347.8</ele>
        <time>2019-10-18T13:23:47Z</time>
      </trkpt>
      <trkpt lat="36.9937650" lon="-2.3008580">
        <ele>1348.2</ele>
        <time>2019-10-18T13:23:48Z</time>
      </trkpt>
      <trkpt lat="36.9937610" lon="-2.3008260">
        <ele>1348.5</ele>
        <time>2019-10-18T13:23:49Z</time>
      </trkpt>
      <trkpt lat="36.9937600" lon="-2.3007950">
        <ele>1348.8</ele>
        <time>2019-10-18T13:23:50Z</time>
      </trkpt>
      <trkpt lat="36.9937620" lon="-2.3007650">
        <ele>1349.2</ele>
        <time>2019-10-18T13:23:51Z</time>
      </trkpt>
      <trkpt lat="36.9937690" lon="-2.3007380">
        <ele>1349.5</ele>
        <time>2019-10-18T13:23:52Z</time>
      </trkpt>
      <trkpt lat="36.9937830" lon="-2.3007170">
        <ele>1349.8</ele>
        <time>2019-10-18T13:23:53Z</time>
      </trkpt>
      <trkpt lat="36.9938010" lon="-2.3007020">
        <ele>1350.1</ele>
        <time>2019-10-18T13:23:54Z</time>
      </trkpt>
      <trkpt lat="36.9938230" lon="-2.3006940">
        <ele>1350.4</ele>
        <time>2019-10-18T13:23:55Z</time>
      </trkpt>
      <trkpt lat="36.9938470" lon="-2.3006920">
        <ele>1350.7</ele>
        <time>2019-10-18T13:23:56Z</time>
      </trkpt>
      <trkpt lat="36.9938710" lon="-2.3006920">
        <ele>1351.0</ele>
        <time>2019-10-18T13:23:57Z</time>
      </trkpt>
      <trkpt lat="36.9938950" lon="-2.3006930">
        <ele>1351.3</ele>
        <time>2019-10-18T13:23:58Z</time>
      </trkpt>
      <trkpt lat="36.9939170" lon="-2.3006920">
        <ele>1351.6</ele>
        <time>2019-10-18T13:23:59Z</time>
      </trkpt>
      <trkpt lat="36.9939390" lon="-2.3006900">
        <ele>1351.8</ele>
        <time>2019-10-18T13:24:00Z</time>
      </trkpt>
      <trkpt lat="36.9939610" lon="-2.3006880">
        <ele>1352.1</ele>
        <time>2019-10-18T13:24:01Z</time>
      </trkpt>
      <trkpt lat="36.9939830" lon="-2.3006860">
        <ele>1352.3</ele>
        <time>2019-10-18T13:24:02Z</time>
      </trkpt>
      <trkpt lat="36.9940050" lon="-2.3006880">
        <ele>1352.6</ele>
        <time>2019-10-18T13:24:03Z</time>
      </trkpt>
      <trkpt lat="36.9940270" lon="-2.3006930">
        <ele>1352.9</ele>
        <time>2019-10-18T13:24:04Z</time>
      </trkpt>
      <trkpt lat="36.9940480" lon="-2.3007010">
        <ele>1353.2</ele>
        <time>2019-10-18T13:24:05Z</time>
      </trkpt>
      <trkpt lat="36.9940690" lon="-2.3007130">
        <ele>1353.4</ele>
        <time>2019-10-18T13:24:06Z</time>
      </trkpt>
      <trkpt lat="36.9940900" lon="-2.3007250">
        <ele>1353.7</ele>
        <time>2019-10-18T13:24:07Z</time>
      </trkpt>
      <trkpt lat="36.9941110" lon="-2.3007370">
        <ele>1353.9</ele>
        <time>2019-10-18T13:24:08Z</time>
      </trkpt>
      <trkpt lat="36.9941320" lon="-2.3007500">
        <ele>1354.1</ele>
        <time>2019-10-18T13:24:09Z</time>
      </trkpt>
      <trkpt lat="36.9941520" lon="-2.3007660">
        <ele>1354.3</ele>
        <time>2019-10-18T13:24:10Z</time>
      </trkpt>
      <trkpt lat="36.9941710" lon="-2.3007830">
        <ele>1354.6</ele>
        <time>2019-10-18T13:24:11Z</time>
      </trkpt>
      <trkpt lat="36.9941910" lon="-2.3008020">
        <ele>1354.7</ele>
        <time>2019-10-18T13:24:12Z</time>
      </trkpt>
      <trkpt lat="36.9942110" lon="-2.3008210">
        <ele>1354.9</ele>
        <time>2019-10-18T13:24:13Z</time>
      </trkpt>
      <trkpt lat="36.9942320" lon="-2.3008390">
        <ele>1355.1</ele>
        <time>2019-10-18T13:24:14Z</time>
      </trkpt>
      <trkpt lat="36.9942540" lon="-2.3008570">
        <ele>1355.3</ele>
        <time>2019-10-18T13:24:15Z</time>
      </trkpt>
      <trkpt lat="36.9942750" lon="-2.3008740">
        <ele>1355.5</ele>
        <time>2019-10-18T13:24:16Z</time>
      </trkpt>
      <trkpt lat="36.9942960" lon="-2.3008920">
        <ele>1355.7</ele>
        <time>2019-10-18T13:24:17Z</time>
      </trkpt>
      <trkpt lat="36.9943170" lon="-2.3009080">
        <ele>1355.9</ele>
        <time>2019-10-18T13:24:18Z</time>
      </trkpt>
      <trkpt lat="36.9943390" lon="-2.3009230">
        <ele>1356.1</ele>
        <time>2019-10-18T13:24:19Z</time>
      </trkpt>
      <trkpt lat="36.9943600" lon="-2.3009360">
        <ele>1356.3</ele>
        <time>2019-10-18T13:24:20Z</time>
      </trkpt>
      <trkpt lat="36.9943810" lon="-2.3009500">
        <ele>1356.6</ele>
        <time>2019-10-18T13:24:21Z</time>
      </trkpt>
      <trkpt lat="36.9944020" lon="-2.3009630">
        <ele>1356.8</ele>
        <time>2019-10-18T13:24:22Z</time>
      </trkpt>
      <trkpt lat="36.9944230" lon="-2.3009740">
        <ele>1356.9</ele>
        <time>2019-10-18T13:24:23Z</time>
      </trkpt>
      <trkpt lat="36.9944440" lon="-2.3009830">
        <ele>1357.1</ele>
        <time>2019-10-18T13:24:24Z</time>
      </trkpt>
      <trkpt lat="36.9944640" lon="-2.3009910">
        <ele>1357.3</ele>
        <time>2019-10-18T13:24:25Z</time>
      </trkpt>
      <trkpt lat="36.9944850" lon="-2.3009980">
        <ele>1357.4</ele>
        <time>2019-10-18T13:24:26Z</time>
      </trkpt>
      <trkpt lat="36.9945060" lon="-2.3010030">
        <ele>1357.6</ele>
        <time>2019-10-18T13:24:27Z</time>
      </trkpt>
      <trkpt lat="36.9945270" lon="-2.3010060">
        <ele>1357.8</ele>
        <time>2019-10-18T13:24:28Z</time>
      </trkpt>
      <trkpt lat="36.9945460" lon="-2.3010070">
        <ele>1358.0</ele>
        <time>2019-10-18T13:24:29Z</time>
      </trkpt>
      <trkpt lat="36.9945660" lon="-2.3010080">
        <ele>1358.2</ele>
        <time>2019-10-18T13:24:30Z</time>
      </trkpt>
      <trkpt lat="36.9945860" lon="-2.3010100">
        <ele>1358.4</ele>
        <time>2019-10-18T13:24:31Z</time>
      </trkpt>
      <trkpt lat="36.9946060" lon="-2.3010120">
        <ele>1358.6</ele>
        <time>2019-10-18T13:24:32Z</time>
      </trkpt>
      <trkpt lat="36.9946250" lon="-2.3010130">
        <ele>1358.8</ele>
        <time>2019-10-18T13:24:33Z</time>
      </trkpt>
      <trkpt lat="36.9946440" lon="-2.3010140">
        <ele>1359.0</ele>
        <time>2019-10-18T13:24:34Z</time>
      </trkpt>
      <trkpt lat="36.9946640" lon="-2.3010130">
        <ele>1359.2</ele>
        <time>2019-10-18T13:24:35Z</time>
      </trkpt>
      <trkpt lat="36.9946830" lon="-2.3010080">
        <ele>1359.4</ele>
        <time>2019-10-18T13:24:36Z</time>
      </trkpt>
      <trkpt lat="36.9947010" lon="-2.3010030">
        <ele>1359.6</ele>
        <time>2019-10-18T13:24:37Z</time>
      </trkpt>
      <trkpt lat="36.9947190" lon="-2.3010010">
        <ele>1359.9</ele>
        <time>2019-10-18T13:24:38Z</time>
      </trkpt>
      <trkpt lat="36.9947360" lon="-2.3010010">
        <ele>1360.1</ele>
        <time>2019-10-18T13:24:39Z</time>
      </trkpt>
      <trkpt lat="36.9947540" lon="-2.3010030">
        <ele>1360.4</ele>
        <time>2019-10-18T13:24:40Z</time>
      </trkpt>
      <trkpt lat="36.9947730" lon="-2.3010040">
        <ele>1360.6</ele>
        <time>2019-10-18T13:24:41Z</time>
      </trkpt>
      <trkpt lat="36.9947920" lon="-2.3010060">
        <ele>1360.9</ele>
        <time>2019-10-18T13:24:42Z</time>
      </trkpt>
      <trkpt lat="36.9948120" lon="-2.3010080">
        <ele>1361.2</ele>
        <time>2019-10-18T13:24:43Z</time>
      </trkpt>
      <trkpt lat="36.9948310" lon="-2.3010120">
        <ele>1361.5</ele>
        <time>2019-10-18T13:24:44Z</time>
      </trkpt>
      <trkpt lat="36.9948500" lon="-2.3010190">
        <ele>1361.8</ele>
        <time>2019-10-18T13:24:45Z</time>
      </trkpt>
      <trkpt lat="36.9948670" lon="-2.3010260">
        <ele>1362.1</ele>
        <time>2019-10-18T13:24:46Z</time>
      </trkpt>
      <trkpt lat="36.9948850" lon="-2.3010340">
        <ele>1362.4</ele>
        <time>2019-10-18T13:24:47Z</time>
      </trkpt>
      <trkpt lat="36.9949030" lon="-2.3010430">
        <ele>1362.8</ele>
        <time>2019-10-18T13:24:48Z</time>
      </trkpt>
      <trkpt lat="36.9949200" lon="-2.3010540">
        <ele>1363.1</ele>
        <time>2019-10-18T13:24:49Z</time>
      </trkpt>
      <trkpt lat="36.9949360" lon="-2.3010660">
        <ele>1363.5</ele>
        <time>2019-10-18T13:24:50Z</time>
      </trkpt>
      <trkpt lat="36.9949520" lon="-2.3010770">
        <ele>1363.8</ele>
        <time>2019-10-18T13:24:51Z</time>
      </trkpt>
      <trkpt lat="36.9949680" lon="-2.3010890">
        <ele>1364.1</ele>
        <time>2019-10-18T13:24:52Z</time>
      </trkpt>
      <trkpt lat="36.9949830" lon="-2.3011010">
        <ele>1364.5</ele>
        <time>2019-10-18T13:24:53Z</time>
      </trkpt>
      <trkpt lat="36.9949990" lon="-2.3011120">
        <ele>1364.9</ele>
        <time>2019-10-18T13:24:54Z</time>
      </trkpt>
      <trkpt lat="36.9950110" lon="-2.3011210">
        <ele>1365.1</ele>
        <time>2019-10-18T13:24:55Z</time>
      </trkpt>
      <trkpt lat="36.9950190" lon="-2.3011280">
        <ele>1365.3</ele>
        <time>2019-10-18T13:24:56Z</time>
      </trkpt>
      <trkpt lat="36.9950230" lon="-2.3011320">
        <ele>1365.4</ele>
        <time>2019-10-18T13:24:57Z</time>
      </trkpt>
      <trkpt lat="36.9950260" lon="-2.3011340">
        <ele>1365.4</ele>
        <time>2019-10-18T13:24:58Z</time>
      </trkpt>
      <trkpt lat="36.9950290" lon="-2.3011350">
        <ele>1365.5</ele>
        <time>2019-10-18T13:24:59Z</time>
      </trkpt>
      <trkpt lat="36.9950340" lon="-2.3011360">
        <ele>1365.6</ele>
        <time>2019-10-18T13:25:00Z</time>
      </trkpt>
      <trkpt lat="36.9950410" lon="-2.3011380">
        <ele>1365.7</ele>
        <time>2019-10-18T13:25:01Z</time>
      </trkpt>
      <trkpt lat="36.9950480" lon="-2.3011390">
        <ele>1365.8</ele>
        <time>2019-10-18T13:25:02Z</time>
      </trkpt>
      <trkpt lat="36.9950550" lon="-2.3011400">
        <ele>1365.9</ele>
        <time>2019-10-18T13:25:03Z</time>
      </trkpt>
      <trkpt lat="36.9950620" lon="-2.3011410">
        <ele>1367.2</ele>
        <time>2019-10-18T13:25:04Z</time>
      </trkpt>
      <trkpt lat="36.9950690" lon="-2.3011420">
        <ele>1367.2</ele>
        <time>2019-10-18T13:25:05Z</time>
      </trkpt>
      <trkpt lat="36.9950750" lon="-2.3011450">
        <ele>1367.2</ele>
        <time>2019-10-18T13:25:06Z</time>
      </trkpt>
      <trkpt lat="36.9950810" lon="-2.3011500">
        <ele>1367.2</ele>
        <time>2019-10-18T13:25:07Z</time>
      </trkpt>
      <trkpt lat="36.9950880" lon="-2.3011560">
        <ele>1367.2</ele>
        <time>2019-10-18T13:25:08Z</time>
      </trkpt>
      <trkpt lat="36.9950940" lon="-2.3011610">
        <ele>1367.2</ele>
        <time>2019-10-18T13:25:09Z</time>
      </trkpt>
      <trkpt lat="36.9951010" lon="-2.3011660">
        <ele>1367.2</ele>
        <time>2019-10-18T13:25:10Z</time>
      </trkpt>
      <trkpt lat="36.9951080" lon="-2.3011700">
        <ele>1367.2</ele>
        <time>2019-10-18T13:25:11Z</time>
      </trkpt>
      <trkpt lat="36.9951140" lon="-2.3011730">
        <ele>1367.2</ele>
        <time>2019-10-18T13:25:12Z</time>
      </trkpt>
      <trkpt lat="36.9951190" lon="-2.3011770">
        <ele>1367.2</ele>
        <time>2019-10-18T13:25:13Z</time>
      </trkpt>
      <trkpt lat="36.9951240" lon="-2.3011810">
        <ele>1367.1</ele>
        <time>2019-10-18T13:25:14Z</time>
      </trkpt>
      <trkpt lat="36.9951290" lon="-2.3011850">
        <ele>1367.1</ele>
        <time>2019-10-18T13:25:15Z</time>
      </trkpt>
      <trkpt lat="36.9951340" lon="-2.3011870">
        <ele>1367.1</ele>
        <time>2019-10-18T13:25:16Z</time>
      </trkpt>
      <trkpt lat="36.9951390" lon="-2.3011900">
        <ele>1367.1</ele>
        <time>2019-10-18T13:25:17Z</time>
      </trkpt>
      <trkpt lat="36.9951440" lon="-2.3011910">
        <ele>1367.1</ele>
        <time>2019-10-18T13:25:18Z</time>
      </trkpt>
      <trkpt lat="36.9951490" lon="-2.3011930">
        <ele>1367.1</ele>
        <time>2019-10-18T13:25:19Z</time>
      </trkpt>
      <trkpt lat="36.9951560" lon="-2.3011930">
        <ele>1367.1</ele>
        <time>2019-10-18T13:25:20Z</time>
      </trkpt>
      <trkpt lat="36.9951610" lon="-2.3011930">
        <ele>1367.1</ele>
        <time>2019-10-18T13:25:21Z</time>
      </trkpt>
      <trkpt lat="36.9951660" lon="-2.3011920">
        <ele>1367.1</ele>
        <time>2019-10-18T13:25:22Z</time>
      </trkpt>
      <trkpt lat="36.9951690" lon="-2.3011920">
        <ele>1367.0</ele>
        <time>2019-10-18T13:25:23Z</time>
      </trkpt>
      <trkpt lat="36.9951740" lon="-2.3011910">
        <ele>1367.0</ele>
        <time>2019-10-18T13:25:24Z</time>
      </trkpt>
      <trkpt lat="36.9951790" lon="-2.3011900">
        <ele>1367.0</ele>
        <time>2019-10-18T13:25:25Z</time>
      </trkpt>
      <trkpt lat="36.9951830" lon="-2.3011900">
        <ele>1367.0</ele>
        <time>2019-10-18T13:25:26Z</time>
      </trkpt>
      <trkpt lat="36.9951860" lon="-2.3011910">
        <ele>1367.0</ele>
        <time>2019-10-18T13:25:27Z</time>
      </trkpt>
      <trkpt lat="36.9951890" lon="-2.3011920">
        <ele>1367.0</ele>
        <time>2019-10-18T13:25:28Z</time>
      </trkpt>
      <trkpt lat="36.9951910" lon="-2.3011930">
        <ele>1367.0</ele>
        <time>2019-10-18T13:25:29Z</time>
      </trkpt>
      <trkpt lat="36.9951930" lon="-2.3011930">
        <ele>1367.0</ele>
        <time>2019-10-18T13:25:30Z</time>
      </trkpt>
      <trkpt lat="36.9951930" lon="-2.3011930">
        <ele>1367.0</ele>
        <time>2019-10-18T13:25:31Z</time>
      </trkpt>
      <trkpt lat="36.9951930" lon="-2.3011910">
        <ele>1367.0</ele>
        <time>2019-10-18T13:25:32Z</time>
      </trkpt>
      <trkpt lat="36.9951930" lon="-2.3011890">
        <ele>1367.0</ele>
        <time>2019-10-18T13:25:33Z</time>
      </trkpt>
      <trkpt lat="36.9951930" lon="-2.3011880">
        <ele>1367.0</ele>
        <time>2019-10-18T13:25:34Z</time>
      </trkpt>
      <trkpt lat="36.9951930" lon="-2.3011880">
        <ele>1367.0</ele>
        <time>2019-10-18T13:25:35Z</time>
      </trkpt>
      <trkpt lat="36.9951930" lon="-2.3011870">
        <ele>1367.0</ele>
        <time>2019-10-18T13:25:36Z</time>
      </trkpt>
      <trkpt lat="36.9951930" lon="-2.3011870">
        <ele>1367.0</ele>
        <time>2019-10-18T13:25:37Z</time>
      </trkpt>
      <trkpt lat="36.9951930" lon="-2.3011870">
        <ele>1367.0</ele>
        <time>2019-10-18T13:25:38Z</time>
      </trkpt>
      <trkpt lat="36.9951940" lon="-2.3011870">
        <ele>1366.9</ele>
        <time>2019-10-18T13:25:39Z</time>
      </trkpt>
      <trkpt lat="36.9951940" lon="-2.3011870">
        <ele>1366.9</ele>
        <time>2019-10-18T13:25:40Z</time>
      </trkpt>
      <trkpt lat="36.9951940" lon="-2.3011880">
        <ele>1366.9</ele>
        <time>2019-10-18T13:25:41Z</time>
      </trkpt>
      <trkpt lat="36.9951940" lon="-2.3011890">
        <ele>1366.9</ele>
        <time>2019-10-18T13:25:42Z</time>
      </trkpt>
      <trkpt lat="36.9951940" lon="-2.3011890">
        <ele>1366.9</ele>
        <time>2019-10-18T13:25:43Z</time>
      </trkpt>
      <trkpt lat="36.9951940" lon="-2.3011890">
        <ele>1366.9</ele>
        <time>2019-10-18T13:25:44Z</time>
      </trkpt>
      <trkpt lat="36.9951930" lon="-2.3011880">
        <ele>1366.9</ele>
        <time>2019-10-18T13:25:45Z</time>
      </trkpt>
      <trkpt lat="36.9985090" lon="-2.3070030">
        <ele>1328.6</ele>
        <time>2019-10-18T13:25:46Z</time>
      </trkpt>
      <trkpt lat="36.9985120" lon="-2.3070040">
        <ele>1328.5</ele>
        <time>2019-10-18T13:25:47Z</time>
      </trkpt>
      <trkpt lat="36.9985130" lon="-2.3070040">
        <ele>1328.5</ele>
        <time>2019-10-18T13:57:39Z</time>
      </trkpt>
      <trkpt lat="36.9985140" lon="-2.3070040">
        <ele>1328.5</ele>
        <time>2019-10-18T13:57:40Z</time>
      </trkpt>
      <trkpt lat="36.9985150" lon="-2.3070040">
        <ele>1328.5</ele>
        <time>2019-10-18T13:57:41Z</time>
      </trkpt>
      <trkpt lat="36.9985160" lon="-2.3070040">
        <ele>1328.5</ele>
        <time>2019-10-18T13:57:42Z</time>
      </trkpt>
      <trkpt lat="36.9985170" lon="-2.3070040">
        <ele>1328.5</ele>
        <time>2019-10-18T13:57:43Z</time>
      </trkpt>
      <trkpt lat="36.9985180" lon="-2.3070050">
        <ele>1328.5</ele>
        <time>2019-10-18T13:57:44Z</time>
      </trkpt>
      <trkpt lat="36.9985190" lon="-2.3070060">
        <ele>1328.5</ele>
        <time>2019-10-18T13:57:45Z</time>
      </trkpt>
      <trkpt lat="36.9985180" lon="-2.3070070">
        <ele>1328.5</ele>
        <time>2019-10-18T13:57:46Z</time>
      </trkpt>
      <trkpt lat="36.9985180" lon="-2.3070070">
        <ele>1328.5</ele>
        <time>2019-10-18T13:57:47Z</time>
      </trkpt>
      <trkpt lat="36.9985180" lon="-2.3070060">
        <ele>1328.5</ele>
        <time>2019-10-18T13:57:48Z</time>
      </trkpt>
      <trkpt lat="36.9985170" lon="-2.3070060">
        <ele>1328.5</ele>
        <time>2019-10-18T13:57:49Z</time>
      </trkpt>
      <trkpt lat="36.9985160" lon="-2.3070060">
        <ele>1328.5</ele>
        <time>2019-10-18T13:57:50Z</time>
      </trkpt>
      <trkpt lat="36.9985150" lon="-2.3070050">
        <ele>1328.5</ele>
        <time>2019-10-18T13:57:51Z</time>
      </trkpt>
      <trkpt lat="36.9985150" lon="-2.3070050">
        <ele>1328.5</ele>
        <time>2019-10-18T13:57:52Z</time>
      </trkpt>
      <trkpt lat="36.9985150" lon="-2.3070050">
        <ele>1328.5</ele>
        <time>2019-10-18T13:57:53Z</time>
      </trkpt>
      <trkpt lat="36.9985150" lon="-2.3070040">
        <ele>1328.5</ele>
        <time>2019-10-18T13:57:54Z</time>
      </trkpt>
      <trkpt lat="36.9985140" lon="-2.3070040">
        <ele>1328.5</ele>
        <time>2019-10-18T13:57:55Z</time>
      </trkpt>
      <trkpt lat="36.9985140" lon="-2.3070040">
        <ele>1328.5</ele>
        <time>2019-10-18T13:57:56Z</time>
      </trkpt>
      <trkpt lat="36.9985140" lon="-2.3070040">
        <ele>1328.5</ele>
        <time>2019-10-18T13:57:57Z</time>
      </trkpt>
      <trkpt lat="36.9985150" lon="-2.3070050">
        <ele>1328.5</ele>
        <time>2019-10-18T13:57:58Z</time>
      </trkpt>
      <trkpt lat="36.9985150" lon="-2.3070060">
        <ele>1328.5</ele>
        <time>2019-10-18T13:57:59Z</time>
      </trkpt>
      <trkpt lat="36.9985160" lon="-2.3070070">
        <ele>1328.4</ele>
        <time>2019-10-18T13:58:00Z</time>
      </trkpt>
      <trkpt lat="36.9985170" lon="-2.3070060">
        <ele>1328.4</ele>
        <time>2019-10-18T13:58:01Z</time>
      </trkpt>
      <trkpt lat="36.9985180" lon="-2.3070060">
        <ele>1328.4</ele>
        <time>2019-10-18T13:58:02Z</time>
      </trkpt>
      <trkpt lat="36.9985200" lon="-2.3070070">
        <ele>1328.4</ele>
        <time>2019-10-18T13:58:03Z</time>
      </trkpt>
      <trkpt lat="36.9985210" lon="-2.3070090">
        <ele>1328.4</ele>
        <time>2019-10-18T13:58:04Z</time>
      </trkpt>
      <trkpt lat="36.9985200" lon="-2.3070100">
        <ele>1328.4</ele>
        <time>2019-10-18T13:58:05Z</time>
      </trkpt>
      <trkpt lat="36.9985190" lon="-2.3070100">
        <ele>1328.4</ele>
        <time>2019-10-18T13:58:06Z</time>
      </trkpt>
      <trkpt lat="36.9985180" lon="-2.3070100">
        <ele>1328.4</ele>
        <time>2019-10-18T13:58:07Z</time>
      </trkpt>
      <trkpt lat="36.9985190" lon="-2.3070110">
        <ele>1328.4</ele>
        <time>2019-10-18T13:58:08Z</time>
      </trkpt>
      <trkpt lat="36.9985180" lon="-2.3070150">
        <ele>1328.4</ele>
        <time>2019-10-18T13:58:09Z</time>
      </trkpt>
      <trkpt lat="36.9985170" lon="-2.3070210">
        <ele>1328.3</ele>
        <time>2019-10-18T13:58:10Z</time>
      </trkpt>
      <trkpt lat="36.9985150" lon="-2.3070330">
        <ele>1328.3</ele>
        <time>2019-10-18T13:58:11Z</time>
      </trkpt>
      <trkpt lat="36.9985130" lon="-2.3070510">
        <ele>1328.1</ele>
        <time>2019-10-18T13:58:12Z</time>
      </trkpt>
      <trkpt lat="36.9985140" lon="-2.3070750">
        <ele>1328.0</ele>
        <time>2019-10-18T13:58:13Z</time>
      </trkpt>
      <trkpt lat="36.9985180" lon="-2.3071060">
        <ele>1327.8</ele>
        <time>2019-10-18T13:58:14Z</time>
      </trkpt>
      <trkpt lat="36.9985240" lon="-2.3071440">
        <ele>1327.5</ele>
        <time>2019-10-18T13:58:15Z</time>
      </trkpt>
      <trkpt lat="36.9985330" lon="-2.3071890">
        <ele>1327.2</ele>
        <time>2019-10-18T13:58:16Z</time>
      </trkpt>
      <trkpt lat="36.9985440" lon="-2.3072380">
        <ele>1326.8</ele>
        <time>2019-10-18T13:58:17Z</time>
      </trkpt>
      <trkpt lat="36.9985580" lon="-2.3072880">
        <ele>1326.4</ele>
        <time>2019-10-18T13:58:18Z</time>
      </trkpt>
      <trkpt lat="36.9985790" lon="-2.3073400">
        <ele>1325.7</ele>
        <time>2019-10-18T13:58:19Z</time>
      </trkpt>
      <trkpt lat="36.9986080" lon="-2.3073900">
        <ele>1325.0</ele>
        <time>2019-10-18T13:58:20Z</time>
      </trkpt>
      <trkpt lat="36.9986470" lon="-2.3074360">
        <ele>1324.0</ele>
        <time>2019-10-18T13:58:21Z</time>
      </trkpt>
      <trkpt lat="36.9986990" lon="-2.3074770">
        <ele>1323.0</ele>
        <time>2019-10-18T13:58:22Z</time>
      </trkpt>
      <trkpt lat="36.9987660" lon="-2.3075170">
        <ele>1321.6</ele>
        <time>2019-10-18T13:58:23Z</time>
      </trkpt>
      <trkpt lat="36.9988450" lon="-2.3075590">
        <ele>1319.9</ele>
        <time>2019-10-18T13:58:24Z</time>
      </trkpt>
      <trkpt lat="36.9989270" lon="-2.3076120">
        <ele>1318.1</ele>
        <time>2019-10-18T13:58:25Z</time>
      </trkpt>
      <trkpt lat="36.9990070" lon="-2.3076780">
        <ele>1316.3</ele>
        <time>2019-10-18T13:58:26Z</time>
      </trkpt>
      <trkpt lat="36.9990820" lon="-2.3077590">
        <ele>1314.7</ele>
        <time>2019-10-18T13:58:27Z</time>
      </trkpt>
      <trkpt lat="36.9991550" lon="-2.3078520">
        <ele>1313.5</ele>
        <time>2019-10-18T13:58:28Z</time>
      </trkpt>
      <trkpt lat="36.9992280" lon="-2.3079550">
        <ele>1312.4</ele>
        <time>2019-10-18T13:58:29Z</time>
      </trkpt>
      <trkpt lat="36.9993030" lon="-2.3080640">
        <ele>1311.1</ele>
        <time>2019-10-18T13:58:30Z</time>
      </trkpt>
      <trkpt lat="36.9993750" lon="-2.3081740">
        <ele>1310.0</ele>
        <time>2019-10-18T13:58:31Z</time>
      </trkpt>
      <trkpt lat="36.9994430" lon="-2.3082850">
        <ele>1308.9</ele>
        <time>2019-10-18T13:58:32Z</time>
      </trkpt>
      <trkpt lat="36.9995080" lon="-2.3083960">
        <ele>1307.7</ele>
        <time>2019-10-18T13:58:33Z</time>
      </trkpt>
      <trkpt lat="36.9995710" lon="-2.3085050">
        <ele>1306.5</ele>
        <time>2019-10-18T13:58:34Z</time>
      </trkpt>
      <trkpt lat="36.9996330" lon="-2.3086140">
        <ele>1305.6</ele>
        <time>2019-10-18T13:58:35Z</time>
      </trkpt>
      <trkpt lat="36.9996930" lon="-2.3087200">
        <ele>1304.2</ele>
        <time>2019-10-18T13:58:36Z</time>
      </trkpt>
      <trkpt lat="36.9997510" lon="-2.3088260">
        <ele>1302.9</ele>
        <time>2019-10-18T13:58:37Z</time>
      </trkpt>
      <trkpt lat="36.9998050" lon="-2.3089290">
        <ele>1301.6</ele>
        <time>2019-10-18T13:58:38Z</time>
      </trkpt>
      <trkpt lat="36.9998560" lon="-2.3090290">
        <ele>1300.1</ele>
        <time>2019-10-18T13:58:39Z</time>
      </trkpt>
      <trkpt lat="36.9999000" lon="-2.3091230">
        <ele>1298.6</ele>
        <time>2019-10-18T13:58:40Z</time>
      </trkpt>
      <trkpt lat="36.9999400" lon="-2.3092100">
        <ele>1297.2</ele>
        <time>2019-10-18T13:58:41Z</time>
      </trkpt>
      <trkpt lat="36.9999760" lon="-2.3092870">
        <ele>1296.1</ele>
        <time>2019-10-18T13:58:42Z</time>
      </trkpt>
      <trkpt lat="37.0000090" lon="-2.3093540">
        <ele>1295.2</ele>
        <time>2019-10-18T13:58:43Z</time>
      </trkpt>
      <trkpt lat="37.0000360" lon="-2.3094130">
        <ele>1294.6</ele>
        <time>2019-10-18T13:58:44Z</time>
      </trkpt>
      <trkpt lat="37.0000540" lon="-2.3094670">
        <ele>1294.2</ele>
        <time>2019-10-18T13:58:45Z</time>
      </trkpt>
      <trkpt lat="37.0000590" lon="-2.3095180">
        <ele>1293.9</ele>
        <time>2019-10-18T13:58:46Z</time>
      </trkpt>
      <trkpt lat="37.0000490" lon="-2.3095690">
        <ele>1293.1</ele>
        <time>2019-10-18T13:58:47Z</time>
      </trkpt>
      <trkpt lat="37.0000300" lon="-2.3096200">
        <ele>1292.8</ele>
        <time>2019-10-18T13:58:48Z</time>
      </trkpt>
      <trkpt lat="37.0000050" lon="-2.3096720">
        <ele>1292.5</ele>
        <time>2019-10-18T13:58:49Z</time>
      </trkpt>
      <trkpt lat="36.9999780" lon="-2.3097250">
        <ele>1292.2</ele>
        <time>2019-10-18T13:58:50Z</time>
      </trkpt>
      <trkpt lat="36.9999500" lon="-2.3097810">
        <ele>1291.9</ele>
        <time>2019-10-18T13:58:51Z</time>
      </trkpt>
      <trkpt lat="36.9999210" lon="-2.3098400">
        <ele>1291.7</ele>
        <time>2019-10-18T13:58:52Z</time>
      </trkpt>
      <trkpt lat="36.9998930" lon="-2.3099040">
        <ele>1291.7</ele>
        <time>2019-10-18T13:58:53Z</time>
      </trkpt>
      <trkpt lat="36.9998650" lon="-2.3099730">
        <ele>1291.8</ele>
        <time>2019-10-18T13:58:54Z</time>
      </trkpt>
      <trkpt lat="36.9998370" lon="-2.3100450">
        <ele>1292.1</ele>
        <time>2019-10-18T13:58:55Z</time>
      </trkpt>
      <trkpt lat="36.9998090" lon="-2.3101200">
        <ele>1292.6</ele>
        <time>2019-10-18T13:58:56Z</time>
      </trkpt>
      <trkpt lat="36.9997820" lon="-2.3101960">
        <ele>1293.1</ele>
        <time>2019-10-18T13:58:57Z</time>
      </trkpt>
      <trkpt lat="36.9997570" lon="-2.3102730">
        <ele>1293.4</ele>
        <time>2019-10-18T13:58:58Z</time>
      </trkpt>
      <trkpt lat="36.9997350" lon="-2.3103510">
        <ele>1293.8</ele>
        <time>2019-10-18T13:58:59Z</time>
      </trkpt>
      <trkpt lat="36.9997160" lon="-2.3104290">
        <ele>1294.2</ele>
        <time>2019-10-18T13:59:00Z</time>
      </trkpt>
      <trkpt lat="36.9996990" lon="-2.3105060">
        <ele>1294.4</ele>
        <time>2019-10-18T13:59:01Z</time>
      </trkpt>
      <trkpt lat="36.9996850" lon="-2.3105820">
        <ele>1294.5</ele>
        <time>2019-10-18T13:59:02Z</time>
      </trkpt>
      <trkpt lat="36.9996760" lon="-2.3106570">
        <ele>1294.5</ele>
        <time>2019-10-18T13:59:03Z</time>
      </trkpt>
      <trkpt lat="36.9996710" lon="-2.3107330">
        <ele>1294.5</ele>
        <time>2019-10-18T13:59:04Z</time>
      </trkpt>
      <trkpt lat="36.9996680" lon="-2.3108090">
        <ele>1294.5</ele>
        <time>2019-10-18T13:59:05Z</time>
      </trkpt>
      <trkpt lat="36.9996650" lon="-2.3108830">
        <ele>1294.4</ele>
        <time>2019-10-18T13:59:06Z</time>
      </trkpt>
      <trkpt lat="36.9996600" lon="-2.3109570">
        <ele>1294.3</ele>
        <time>2019-10-18T13:59:07Z</time>
      </trkpt>
      <trkpt lat="36.9996550" lon="-2.3110310">
        <ele>1294.1</ele>
        <time>2019-10-18T13:59:08Z</time>
      </trkpt>
      <trkpt lat="36.9996490" lon="-2.3111050">
        <ele>1293.9</ele>
        <time>2019-10-18T13:59:09Z</time>
      </trkpt>
      <trkpt lat="36.9996400" lon="-2.3111780">
        <ele>1293.5</ele>
        <time>2019-10-18T13:59:10Z</time>
      </trkpt>
      <trkpt lat="36.9996280" lon="-2.3112500">
        <ele>1293.1</ele>
        <time>2019-10-18T13:59:11Z</time>
      </trkpt>
      <trkpt lat="36.9996110" lon="-2.3113210">
        <ele>1292.7</ele>
        <time>2019-10-18T13:59:12Z</time>
      </trkpt>
      <trkpt lat="36.9995900" lon="-2.3113910">
        <ele>1292.4</ele>
        <time>2019-10-18T13:59:13Z</time>
      </trkpt>
      <trkpt lat="36.9995610" lon="-2.3114580">
        <ele>1292.0</ele>
        <time>2019-10-18T13:59:14Z</time>
      </trkpt>
      <trkpt lat="36.9995260" lon="-2.3115230">
        <ele>1291.6</ele>
        <time>2019-10-18T13:59:15Z</time>
      </trkpt>
      <trkpt lat="36.9994850" lon="-2.3115830">
        <ele>1291.3</ele>
        <time>2019-10-18T13:59:16Z</time>
      </trkpt>
      <trkpt lat="36.9994390" lon="-2.3116380">
        <ele>1290.9</ele>
        <time>2019-10-18T13:59:17Z</time>
      </trkpt>
      <trkpt lat="36.9993910" lon="-2.3116900">
        <ele>1290.5</ele>
        <time>2019-10-18T13:59:18Z</time>
      </trkpt>
      <trkpt lat="36.9993410" lon="-2.3117410">
        <ele>1290.0</ele>
        <time>2019-10-18T13:59:19Z</time>
      </trkpt>
      <trkpt lat="36.9992930" lon="-2.3117930">
        <ele>1289.7</ele>
        <time>2019-10-18T13:59:20Z</time>
      </trkpt>
      <trkpt lat="36.9992450" lon="-2.3118450">
        <ele>1289.4</ele>
        <time>2019-10-18T13:59:21Z</time>
      </trkpt>
      <trkpt lat="36.9992000" lon="-2.3118990">
        <ele>1289.1</ele>
        <time>2019-10-18T13:59:22Z</time>
      </trkpt>
      <trkpt lat="36.9991560" lon="-2.3119530">
        <ele>1288.8</ele>
        <time>2019-10-18T13:59:23Z</time>
      </trkpt>
      <trkpt lat="36.9991130" lon="-2.3120070">
        <ele>1288.4</ele>
        <time>2019-10-18T13:59:24Z</time>
      </trkpt>
      <trkpt lat="36.9990700" lon="-2.3120630">
        <ele>1288.1</ele>
        <time>2019-10-18T13:59:25Z</time>
      </trkpt>
      <trkpt lat="36.9990260" lon="-2.3121240">
        <ele>1287.8</ele>
        <time>2019-10-18T13:59:26Z</time>
      </trkpt>
      <trkpt lat="36.9989820" lon="-2.3121890">
        <ele>1287.4</ele>
        <time>2019-10-18T13:59:27Z</time>
      </trkpt>
      <trkpt lat="36.9989380" lon="-2.3122580">
        <ele>1287.1</ele>
        <time>2019-10-18T13:59:28Z</time>
      </trkpt>
      <trkpt lat="36.9988950" lon="-2.3123310">
        <ele>1286.8</ele>
        <time>2019-10-18T13:59:29Z</time>
      </trkpt>
      <trkpt lat="36.9988530" lon="-2.3124070">
        <ele>1286.4</ele>
        <time>2019-10-18T13:59:30Z</time>
      </trkpt>
      <trkpt lat="36.9988120" lon="-2.3124850">
        <ele>1286.0</ele>
        <time>2019-10-18T13:59:31Z</time>
      </trkpt>
      <trkpt lat="36.9987720" lon="-2.3125630">
        <ele>1285.5</ele>
        <time>2019-10-18T13:59:32Z</time>
      </trkpt>
      <trkpt lat="36.9987330" lon="-2.3126400">
        <ele>1285.0</ele>
        <time>2019-10-18T13:59:33Z</time>
      </trkpt>
      <trkpt lat="36.9986920" lon="-2.3127140">
        <ele>1284.6</ele>
        <time>2019-10-18T13:59:34Z</time>
      </trkpt>
      <trkpt lat="36.9986510" lon="-2.3127840">
        <ele>1284.3</ele>
        <time>2019-10-18T13:59:35Z</time>
      </trkpt>
      <trkpt lat="36.9986080" lon="-2.3128490">
        <ele>1284.0</ele>
        <time>2019-10-18T13:59:36Z</time>
      </trkpt>
      <trkpt lat="36.9985590" lon="-2.3129060">
        <ele>1283.6</ele>
        <time>2019-10-18T13:59:37Z</time>
      </trkpt>
      <trkpt lat="36.9985040" lon="-2.3129540">
        <ele>1283.2</ele>
        <time>2019-10-18T13:59:38Z</time>
      </trkpt>
      <trkpt lat="36.9984470" lon="-2.3129950">
        <ele>1283.0</ele>
        <time>2019-10-18T13:59:39Z</time>
      </trkpt>
      <trkpt lat="36.9983920" lon="-2.3130340">
        <ele>1282.8</ele>
        <time>2019-10-18T13:59:40Z</time>
      </trkpt>
      <trkpt lat="36.9983380" lon="-2.3130720">
        <ele>1282.7</ele>
        <time>2019-10-18T13:59:41Z</time>
      </trkpt>
      <trkpt lat="36.9982830" lon="-2.3131070">
        <ele>1282.6</ele>
        <time>2019-10-18T13:59:42Z</time>
      </trkpt>
      <trkpt lat="36.9982270" lon="-2.3131380">
        <ele>1282.4</ele>
        <time>2019-10-18T13:59:43Z</time>
      </trkpt>
      <trkpt lat="36.9981690" lon="-2.3131660">
        <ele>1282.3</ele>
        <time>2019-10-18T13:59:44Z</time>
      </trkpt>
      <trkpt lat="36.9981120" lon="-2.3131930">
        <ele>1282.0</ele>
        <time>2019-10-18T13:59:45Z</time>
      </trkpt>
      <trkpt lat="36.9980560" lon="-2.3132220">
        <ele>1281.7</ele>
        <time>2019-10-18T13:59:46Z</time>
      </trkpt>
      <trkpt lat="36.9980000" lon="-2.3132520">
        <ele>1281.3</ele>
        <time>2019-10-18T13:59:47Z</time>
      </trkpt>
      <trkpt lat="36.9979460" lon="-2.3132840">
        <ele>1280.9</ele>
        <time>2019-10-18T13:59:48Z</time>
      </trkpt>
      <trkpt lat="36.9978950" lon="-2.3133230">
        <ele>1280.5</ele>
        <time>2019-10-18T13:59:49Z</time>
      </trkpt>
      <trkpt lat="36.9978490" lon="-2.3133700">
        <ele>1280.1</ele>
        <time>2019-10-18T13:59:50Z</time>
      </trkpt>
      <trkpt lat="36.9978100" lon="-2.3134280">
        <ele>1279.8</ele>
        <time>2019-10-18T13:59:51Z</time>
      </trkpt>
      <trkpt lat="36.9977770" lon="-2.3134960">
        <ele>1279.6</ele>
        <time>2019-10-18T13:59:52Z</time>
      </trkpt>
      <trkpt lat="36.9977530" lon="-2.3135720">
        <ele>1279.5</ele>
        <time>2019-10-18T13:59:53Z</time>
      </trkpt>
      <trkpt lat="36.9977350" lon="-2.3136540">
        <ele>1279.4</ele>
        <time>2019-10-18T13:59:54Z</time>
      </trkpt>
      <trkpt lat="36.9977220" lon="-2.3137380">
        <ele>1279.3</ele>
        <time>2019-10-18T13:59:55Z</time>
      </trkpt>
      <trkpt lat="36.9977120" lon="-2.3138250">
        <ele>1279.2</ele>
        <time>2019-10-18T13:59:56Z</time>
      </trkpt>
      <trkpt lat="36.9977020" lon="-2.3139130">
        <ele>1279.1</ele>
        <time>2019-10-18T13:59:57Z</time>
      </trkpt>
      <trkpt lat="36.9976920" lon="-2.3140050">
        <ele>1278.8</ele>
        <time>2019-10-18T13:59:58Z</time>
      </trkpt>
      <trkpt lat="36.9976830" lon="-2.3140980">
        <ele>1278.5</ele>
        <time>2019-10-18T13:59:59Z</time>
      </trkpt>
      <trkpt lat="36.9976730" lon="-2.3141920">
        <ele>1278.2</ele>
        <time>2019-10-18T14:00:00Z</time>
      </trkpt>
      <trkpt lat="36.9976620" lon="-2.3142870">
        <ele>1278.0</ele>
        <time>2019-10-18T14:00:01Z</time>
      </trkpt>
      <trkpt lat="36.9976480" lon="-2.3143800">
        <ele>1277.8</ele>
        <time>2019-10-18T14:00:02Z</time>
      </trkpt>
      <trkpt lat="36.9976300" lon="-2.3144720">
        <ele>1277.5</ele>
        <time>2019-10-18T14:00:03Z</time>
      </trkpt>
      <trkpt lat="36.9976080" lon="-2.3145630">
        <ele>1277.1</ele>
        <time>2019-10-18T14:00:04Z</time>
      </trkpt>
      <trkpt lat="36.9975810" lon="-2.3146520">
        <ele>1276.6</ele>
        <time>2019-10-18T14:00:05Z</time>
      </trkpt>
      <trkpt lat="36.9975500" lon="-2.3147380">
        <ele>1276.0</ele>
        <time>2019-10-18T14:00:06Z</time>
      </trkpt>
      <trkpt lat="36.9975140" lon="-2.3148180">
        <ele>1275.5</ele>
        <time>2019-10-18T14:00:07Z</time>
      </trkpt>
      <trkpt lat="36.9974740" lon="-2.3148900">
        <ele>1275.2</ele>
        <time>2019-10-18T14:00:08Z</time>
      </trkpt>
      <trkpt lat="36.9974310" lon="-2.3149560">
        <ele>1274.8</ele>
        <time>2019-10-18T14:00:09Z</time>
      </trkpt>
      <trkpt lat="36.9973870" lon="-2.3150200">
        <ele>1274.5</ele>
        <time>2019-10-18T14:00:10Z</time>
      </trkpt>
      <trkpt lat="36.9973410" lon="-2.3150800">
        <ele>1274.3</ele>
        <time>2019-10-18T14:00:11Z</time>
      </trkpt>
      <trkpt lat="36.9972940" lon="-2.3151390">
        <ele>1274.2</ele>
        <time>2019-10-18T14:00:12Z</time>
      </trkpt>
      <trkpt lat="36.9972470" lon="-2.3151970">
        <ele>1274.0</ele>
        <time>2019-10-18T14:00:13Z</time>
      </trkpt>
      <trkpt lat="36.9972010" lon="-2.3152580">
        <ele>1273.8</ele>
        <time>2019-10-18T14:00:14Z</time>
      </trkpt>
      <trkpt lat="36.9971570" lon="-2.3153170">
        <ele>1273.7</ele>
        <time>2019-10-18T14:00:15Z</time>
      </trkpt>
      <trkpt lat="36.9971130" lon="-2.3153740">
        <ele>1273.5</ele>
        <time>2019-10-18T14:00:16Z</time>
      </trkpt>
      <trkpt lat="36.9970690" lon="-2.3154300">
        <ele>1273.3</ele>
        <time>2019-10-18T14:00:17Z</time>
      </trkpt>
      <trkpt lat="36.9970220" lon="-2.3154880">
        <ele>1273.0</ele>
        <time>2019-10-18T14:00:18Z</time>
      </trkpt>
      <trkpt lat="36.9969750" lon="-2.3155480">
        <ele>1272.7</ele>
        <time>2019-10-18T14:00:19Z</time>
      </trkpt>
      <trkpt lat="36.9969260" lon="-2.3156110">
        <ele>1272.2</ele>
        <time>2019-10-18T14:00:20Z</time>
      </trkpt>
      <trkpt lat="36.9968720" lon="-2.3156780">
        <ele>1271.4</ele>
        <time>2019-10-18T14:00:21Z</time>
      </trkpt>
      <trkpt lat="36.9968140" lon="-2.3157480">
        <ele>1271.4</ele>
        <time>2019-10-18T14:00:22Z</time>
      </trkpt>
      <trkpt lat="36.9967530" lon="-2.3158200">
        <ele>1271.3</ele>
        <time>2019-10-18T14:00:23Z</time>
      </trkpt>
      <trkpt lat="36.9966900" lon="-2.3158910">
        <ele>1271.2</ele>
        <time>2019-10-18T14:00:24Z</time>
      </trkpt>
      <trkpt lat="36.9966260" lon="-2.3159600">
        <ele>1270.9</ele>
        <time>2019-10-18T14:00:25Z</time>
      </trkpt>
      <trkpt lat="36.9965630" lon="-2.3160240">
        <ele>1270.6</ele>
        <time>2019-10-18T14:00:26Z</time>
      </trkpt>
      <trkpt lat="36.9965040" lon="-2.3160800">
        <ele>1270.5</ele>
        <time>2019-10-18T14:00:27Z</time>
      </trkpt>
      <trkpt lat="36.9964500" lon="-2.3161290">
        <ele>1270.6</ele>
        <time>2019-10-18T14:00:28Z</time>
      </trkpt>
      <trkpt lat="36.9964000" lon="-2.3161740">
        <ele>1270.7</ele>
        <time>2019-10-18T14:00:29Z</time>
      </trkpt>
      <trkpt lat="36.9963570" lon="-2.3162160">
        <ele>1270.6</ele>
        <time>2019-10-18T14:00:30Z</time>
      </trkpt>
      <trkpt lat="36.9963210" lon="-2.3162570">
        <ele>1270.5</ele>
        <time>2019-10-18T14:00:31Z</time>
      </trkpt>
      <trkpt lat="36.9962940" lon="-2.3162960">
        <ele>1270.3</ele>
        <time>2019-10-18T14:00:32Z</time>
      </trkpt>
      <trkpt lat="36.9962710" lon="-2.3163320">
        <ele>1270.1</ele>
        <time>2019-10-18T14:00:33Z</time>
      </trkpt>
      <trkpt lat="36.9962510" lon="-2.3163680">
        <ele>1270.0</ele>
        <time>2019-10-18T14:00:34Z</time>
      </trkpt>
      <trkpt lat="36.9962310" lon="-2.3164020">
        <ele>1269.8</ele>
        <time>2019-10-18T14:00:35Z</time>
      </trkpt>
      <trkpt lat="36.9962150" lon="-2.3164380">
        <ele>1269.6</ele>
        <time>2019-10-18T14:00:36Z</time>
      </trkpt>
      <trkpt lat="36.9962040" lon="-2.3164750">
        <ele>1269.6</ele>
        <time>2019-10-18T14:00:37Z</time>
      </trkpt>
      <trkpt lat="36.9961950" lon="-2.3165150">
        <ele>1269.5</ele>
        <time>2019-10-18T14:00:38Z</time>
      </trkpt>
      <trkpt lat="36.9961880" lon="-2.3165560">
        <ele>1269.4</ele>
        <time>2019-10-18T14:00:39Z</time>
      </trkpt>
      <trkpt lat="36.9961810" lon="-2.3165970">
        <ele>1269.3</ele>
        <time>2019-10-18T14:00:40Z</time>
      </trkpt>
      <trkpt lat="36.9961760" lon="-2.3166380">
        <ele>1269.3</ele>
        <time>2019-10-18T14:00:41Z</time>
      </trkpt>
      <trkpt lat="36.9961710" lon="-2.3166790">
        <ele>1269.3</ele>
        <time>2019-10-18T14:00:42Z</time>
      </trkpt>
      <trkpt lat="36.9961690" lon="-2.3167190">
        <ele>1269.2</ele>
        <time>2019-10-18T14:00:43Z</time>
      </trkpt>
      <trkpt lat="36.9961680" lon="-2.3167600">
        <ele>1269.0</ele>
        <time>2019-10-18T14:00:44Z</time>
      </trkpt>
      <trkpt lat="36.9961690" lon="-2.3167990">
        <ele>1268.9</ele>
        <time>2019-10-18T14:00:45Z</time>
      </trkpt>
      <trkpt lat="36.9961720" lon="-2.3168380">
        <ele>1268.9</ele>
        <time>2019-10-18T14:00:46Z</time>
      </trkpt>
      <trkpt lat="36.9961760" lon="-2.3168750">
        <ele>1268.9</ele>
        <time>2019-10-18T14:00:47Z</time>
      </trkpt>
      <trkpt lat="36.9961830" lon="-2.3169130">
        <ele>1269.0</ele>
        <time>2019-10-18T14:00:48Z</time>
      </trkpt>
      <trkpt lat="36.9961920" lon="-2.3169520">
        <ele>1269.0</ele>
        <time>2019-10-18T14:00:49Z</time>
      </trkpt>
      <trkpt lat="36.9962030" lon="-2.3169890">
        <ele>1268.9</ele>
        <time>2019-10-18T14:00:50Z</time>
      </trkpt>
      <trkpt lat="36.9962140" lon="-2.3170260">
        <ele>1268.8</ele>
        <time>2019-10-18T14:00:51Z</time>
      </trkpt>
      <trkpt lat="36.9962260" lon="-2.3170650">
        <ele>1268.6</ele>
        <time>2019-10-18T14:00:52Z</time>
      </trkpt>
      <trkpt lat="36.9962400" lon="-2.3171030">
        <ele>1268.5</ele>
        <time>2019-10-18T14:00:53Z</time>
      </trkpt>
      <trkpt lat="36.9962570" lon="-2.3171410">
        <ele>1268.4</ele>
        <time>2019-10-18T14:00:54Z</time>
      </trkpt>
      <trkpt lat="36.9962730" lon="-2.3171780">
        <ele>1268.2</ele>
        <time>2019-10-18T14:00:55Z</time>
      </trkpt>
      <trkpt lat="36.9962900" lon="-2.3172170">
        <ele>1268.2</ele>
        <time>2019-10-18T14:00:56Z</time>
      </trkpt>
      <trkpt lat="36.9963070" lon="-2.3172550">
        <ele>1268.1</ele>
        <time>2019-10-18T14:00:57Z</time>
      </trkpt>
      <trkpt lat="36.9963250" lon="-2.3172930">
        <ele>1268.1</ele>
        <time>2019-10-18T14:00:58Z</time>
      </trkpt>
      <trkpt lat="36.9963420" lon="-2.3173310">
        <ele>1268.0</ele>
        <time>2019-10-18T14:00:59Z</time>
      </trkpt>
      <trkpt lat="36.9963600" lon="-2.3173710">
        <ele>1268.1</ele>
        <time>2019-10-18T14:01:00Z</time>
      </trkpt>
      <trkpt lat="36.9963750" lon="-2.3174110">
        <ele>1268.1</ele>
        <time>2019-10-18T14:01:01Z</time>
      </trkpt>
      <trkpt lat="36.9963890" lon="-2.3174530">
        <ele>1268.0</ele>
        <time>2019-10-18T14:01:02Z</time>
      </trkpt>
      <trkpt lat="36.9964010" lon="-2.3174940">
        <ele>1267.8</ele>
        <time>2019-10-18T14:01:03Z</time>
      </trkpt>
      <trkpt lat="36.9964100" lon="-2.3175350">
        <ele>1267.8</ele>
        <time>2019-10-18T14:01:04Z</time>
      </trkpt>
      <trkpt lat="36.9964150" lon="-2.3175750">
        <ele>1267.8</ele>
        <time>2019-10-18T14:01:05Z</time>
      </trkpt>
      <trkpt lat="36.9964180" lon="-2.3176160">
        <ele>1268.1</ele>
        <time>2019-10-18T14:01:06Z</time>
      </trkpt>
      <trkpt lat="36.9964190" lon="-2.3176550">
        <ele>1268.4</ele>
        <time>2019-10-18T14:01:07Z</time>
      </trkpt>
      <trkpt lat="36.9964190" lon="-2.3176920">
        <ele>1268.7</ele>
        <time>2019-10-18T14:01:08Z</time>
      </trkpt>
      <trkpt lat="36.9964160" lon="-2.3177280">
        <ele>1269.0</ele>
        <time>2019-10-18T14:01:09Z</time>
      </trkpt>
      <trkpt lat="36.9964110" lon="-2.3177620">
        <ele>1269.3</ele>
        <time>2019-10-18T14:01:10Z</time>
      </trkpt>
      <trkpt lat="36.9964050" lon="-2.3177970">
        <ele>1269.6</ele>
        <time>2019-10-18T14:01:11Z</time>
      </trkpt>
      <trkpt lat="36.9963980" lon="-2.3178300">
        <ele>1270.0</ele>
        <time>2019-10-18T14:01:12Z</time>
      </trkpt>
      <trkpt lat="36.9963890" lon="-2.3178620">
        <ele>1270.5</ele>
        <time>2019-10-18T14:01:13Z</time>
      </trkpt>
      <trkpt lat="36.9963790" lon="-2.3178920">
        <ele>1271.1</ele>
        <time>2019-10-18T14:01:14Z</time>
      </trkpt>
      <trkpt lat="36.9963670" lon="-2.3179200">
        <ele>1271.7</ele>
        <time>2019-10-18T14:01:15Z</time>
      </trkpt>
      <trkpt lat="36.9963550" lon="-2.3179470">
        <ele>1272.4</ele>
        <time>2019-10-18T14:01:16Z</time>
      </trkpt>
      <trkpt lat="36.9963400" lon="-2.3179730">
        <ele>1273.1</ele>
        <time>2019-10-18T14:01:17Z</time>
      </trkpt>
      <trkpt lat="36.9963250" lon="-2.3179990">
        <ele>1273.7</ele>
        <time>2019-10-18T14:01:18Z</time>
      </trkpt>
      <trkpt lat="36.9963090" lon="-2.3180240">
        <ele>1274.2</ele>
        <time>2019-10-18T14:01:19Z</time>
      </trkpt>
      <trkpt lat="36.9962920" lon="-2.3180500">
        <ele>1274.8</ele>
        <time>2019-10-18T14:01:20Z</time>
      </trkpt>
      <trkpt lat="36.9962750" lon="-2.3180750">
        <ele>1275.6</ele>
        <time>2019-10-18T14:01:21Z</time>
      </trkpt>
      <trkpt lat="36.9962560" lon="-2.3180980">
        <ele>1276.6</ele>
        <time>2019-10-18T14:01:22Z</time>
      </trkpt>
      <trkpt lat="36.9962360" lon="-2.3181210">
        <ele>1277.6</ele>
        <time>2019-10-18T14:01:23Z</time>
      </trkpt>
      <trkpt lat="36.9962150" lon="-2.3181420">
        <ele>1278.5</ele>
        <time>2019-10-18T14:01:24Z</time>
      </trkpt>
      <trkpt lat="36.9961950" lon="-2.3181640">
        <ele>1279.3</ele>
        <time>2019-10-18T14:01:25Z</time>
      </trkpt>
      <trkpt lat="36.9961740" lon="-2.3181850">
        <ele>1280.1</ele>
        <time>2019-10-18T14:01:26Z</time>
      </trkpt>
      <trkpt lat="36.9961540" lon="-2.3182060">
        <ele>1280.9</ele>
        <time>2019-10-18T14:01:27Z</time>
      </trkpt>
      <trkpt lat="36.9961350" lon="-2.3182270">
        <ele>1281.4</ele>
        <time>2019-10-18T14:01:28Z</time>
      </trkpt>
      <trkpt lat="36.9961150" lon="-2.3182480">
        <ele>1282.0</ele>
        <time>2019-10-18T14:01:29Z</time>
      </trkpt>
      <trkpt lat="36.9960950" lon="-2.3182690">
        <ele>1282.6</ele>
        <time>2019-10-18T14:01:30Z</time>
      </trkpt>
      <trkpt lat="36.9960750" lon="-2.3182880">
        <ele>1283.4</ele>
        <time>2019-10-18T14:01:31Z</time>
      </trkpt>
      <trkpt lat="36.9960550" lon="-2.3183070">
        <ele>1284.3</ele>
        <time>2019-10-18T14:01:32Z</time>
      </trkpt>
      <trkpt lat="36.9960350" lon="-2.3183250">
        <ele>1285.2</ele>
        <time>2019-10-18T14:01:33Z</time>
      </trkpt>
      <trkpt lat="36.9960150" lon="-2.3183410">
        <ele>1285.9</ele>
        <time>2019-10-18T14:01:34Z</time>
      </trkpt>
      <trkpt lat="36.9959960" lon="-2.3183580">
        <ele>1286.3</ele>
        <time>2019-10-18T14:01:35Z</time>
      </trkpt>
      <trkpt lat="36.9959770" lon="-2.3183750">
        <ele>1286.7</ele>
        <time>2019-10-18T14:01:36Z</time>
      </trkpt>
      <trkpt lat="36.9959580" lon="-2.3183930">
        <ele>1287.1</ele>
        <time>2019-10-18T14:01:37Z</time>
      </trkpt>
      <trkpt lat="36.9959380" lon="-2.3184090">
        <ele>1287.7</ele>
        <time>2019-10-18T14:01:38Z</time>
      </trkpt>
      <trkpt lat="36.9959180" lon="-2.3184250">
        <ele>1288.3</ele>
        <time>2019-10-18T14:01:39Z</time>
      </trkpt>
      <trkpt lat="36.9958970" lon="-2.3184410">
        <ele>1288.9</ele>
        <time>2019-10-18T14:01:40Z</time>
      </trkpt>
      <trkpt lat="36.9958760" lon="-2.3184560">
        <ele>1289.5</ele>
        <time>2019-10-18T14:01:41Z</time>
      </trkpt>
      <trkpt lat="36.9958560" lon="-2.3184710">
        <ele>1290.0</ele>
        <time>2019-10-18T14:01:42Z</time>
      </trkpt>
      <trkpt lat="36.9958370" lon="-2.3184890">
        <ele>1290.5</ele>
        <time>2019-10-18T14:01:43Z</time>
      </trkpt>
      <trkpt lat="36.9958170" lon="-2.3185090">
        <ele>1291.1</ele>
        <time>2019-10-18T14:01:44Z</time>
      </trkpt>
      <trkpt lat="36.9957980" lon="-2.3185290">
        <ele>1291.7</ele>
        <time>2019-10-18T14:01:45Z</time>
      </trkpt>
      <trkpt lat="36.9957800" lon="-2.3185500">
        <ele>1292.3</ele>
        <time>2019-10-18T14:01:46Z</time>
      </trkpt>
      <trkpt lat="36.9957630" lon="-2.3185750">
        <ele>1292.9</ele>
        <time>2019-10-18T14:01:47Z</time>
      </trkpt>
      <trkpt lat="36.9957470" lon="-2.3186030">
        <ele>1293.4</ele>
        <time>2019-10-18T14:01:48Z</time>
      </trkpt>
      <trkpt lat="36.9957310" lon="-2.3186310">
        <ele>1293.8</ele>
        <time>2019-10-18T14:01:49Z</time>
      </trkpt>
      <trkpt lat="36.9957150" lon="-2.3186600">
        <ele>1294.2</ele>
        <time>2019-10-18T14:01:50Z</time>
      </trkpt>
      <trkpt lat="36.9957010" lon="-2.3186920">
        <ele>1294.8</ele>
        <time>2019-10-18T14:01:51Z</time>
      </trkpt>
      <trkpt lat="36.9956870" lon="-2.3187290">
        <ele>1296.0</ele>
        <time>2019-10-18T14:01:52Z</time>
      </trkpt>
      <trkpt lat="36.9956730" lon="-2.3187690">
        <ele>1297.2</ele>
        <time>2019-10-18T14:01:53Z</time>
      </trkpt>
      <trkpt lat="36.9956590" lon="-2.3188110">
        <ele>1298.0</ele>
        <time>2019-10-18T14:01:54Z</time>
      </trkpt>
      <trkpt lat="36.9956430" lon="-2.3188540">
        <ele>1298.8</ele>
        <time>2019-10-18T14:01:55Z</time>
      </trkpt>
      <trkpt lat="36.9956250" lon="-2.3188980">
        <ele>1299.5</ele>
        <time>2019-10-18T14:01:56Z</time>
      </trkpt>
      <trkpt lat="36.9956060" lon="-2.3189420">
        <ele>1300.2</ele>
        <time>2019-10-18T14:01:57Z</time>
      </trkpt>
      <trkpt lat="36.9955850" lon="-2.3189850">
        <ele>1300.7</ele>
        <time>2019-10-18T14:01:58Z</time>
      </trkpt>
      <trkpt lat="36.9955620" lon="-2.3190280">
        <ele>1301.1</ele>
        <time>2019-10-18T14:01:59Z</time>
      </trkpt>
      <trkpt lat="36.9955380" lon="-2.3190710">
        <ele>1301.6</ele>
        <time>2019-10-18T14:02:00Z</time>
      </trkpt>
      <trkpt lat="36.9955130" lon="-2.3191140">
        <ele>1302.2</ele>
        <time>2019-10-18T14:02:01Z</time>
      </trkpt>
      <trkpt lat="36.9954880" lon="-2.3191570">
        <ele>1302.9</ele>
        <time>2019-10-18T14:02:02Z</time>
      </trkpt>
      <trkpt lat="36.9954640" lon="-2.3191980">
        <ele>1303.7</ele>
        <time>2019-10-18T14:02:03Z</time>
      </trkpt>
      <trkpt lat="36.9954390" lon="-2.3192380">
        <ele>1304.6</ele>
        <time>2019-10-18T14:02:04Z</time>
      </trkpt>
      <trkpt lat="36.9954120" lon="-2.3192740">
        <ele>1305.4</ele>
        <time>2019-10-18T14:02:05Z</time>
      </trkpt>
      <trkpt lat="36.9953840" lon="-2.3193070">
        <ele>1306.0</ele>
        <time>2019-10-18T14:02:06Z</time>
      </trkpt>
      <trkpt lat="36.9953560" lon="-2.3193380">
        <ele>1306.6</ele>
        <time>2019-10-18T14:02:07Z</time>
      </trkpt>
      <trkpt lat="36.9953290" lon="-2.3193690">
        <ele>1306.9</ele>
        <time>2019-10-18T14:02:08Z</time>
      </trkpt>
      <trkpt lat="36.9953030" lon="-2.3194010">
        <ele>1307.3</ele>
        <time>2019-10-18T14:02:09Z</time>
      </trkpt>
      <trkpt lat="36.9952770" lon="-2.3194330">
        <ele>1307.3</ele>
        <time>2019-10-18T14:02:10Z</time>
      </trkpt>
      <trkpt lat="36.9952510" lon="-2.3194660">
        <ele>1307.2</ele>
        <time>2019-10-18T14:02:11Z</time>
      </trkpt>
      <trkpt lat="36.9952250" lon="-2.3194980">
        <ele>1307.1</ele>
        <time>2019-10-18T14:02:12Z</time>
      </trkpt>
      <trkpt lat="36.9951980" lon="-2.3195300">
        <ele>1307.2</ele>
        <time>2019-10-18T14:02:13Z</time>
      </trkpt>
      <trkpt lat="36.9951700" lon="-2.3195620">
        <ele>1307.2</ele>
        <time>2019-10-18T14:02:14Z</time>
      </trkpt>
      <trkpt lat="36.9951420" lon="-2.3195930">
        <ele>1307.3</ele>
        <time>2019-10-18T14:02:15Z</time>
      </trkpt>
      <trkpt lat="36.9951120" lon="-2.3196250">
        <ele>1307.3</ele>
        <time>2019-10-18T14:02:16Z</time>
      </trkpt>
      <trkpt lat="36.9950830" lon="-2.3196570">
        <ele>1307.1</ele>
        <time>2019-10-18T14:02:17Z</time>
      </trkpt>
      <trkpt lat="36.9950530" lon="-2.3196890">
        <ele>1306.9</ele>
        <time>2019-10-18T14:02:18Z</time>
      </trkpt>
      <trkpt lat="36.9950220" lon="-2.3197210">
        <ele>1306.7</ele>
        <time>2019-10-18T14:02:19Z</time>
      </trkpt>
      <trkpt lat="36.9949910" lon="-2.3197520">
        <ele>1306.5</ele>
        <time>2019-10-18T14:02:20Z</time>
      </trkpt>
      <trkpt lat="36.9949600" lon="-2.3197820">
        <ele>1306.4</ele>
        <time>2019-10-18T14:02:21Z</time>
      </trkpt>
      <trkpt lat="36.9949290" lon="-2.3198090">
        <ele>1306.3</ele>
        <time>2019-10-18T14:02:22Z</time>
      </trkpt>
      <trkpt lat="36.9948960" lon="-2.3198340">
        <ele>1306.1</ele>
        <time>2019-10-18T14:02:23Z</time>
      </trkpt>
      <trkpt lat="36.9948640" lon="-2.3198570">
        <ele>1305.9</ele>
        <time>2019-10-18T14:02:24Z</time>
      </trkpt>
      <trkpt lat="36.9948300" lon="-2.3198790">
        <ele>1305.6</ele>
        <time>2019-10-18T14:02:25Z</time>
      </trkpt>
      <trkpt lat="36.9947970" lon="-2.3198990">
        <ele>1305.2</ele>
        <time>2019-10-18T14:02:26Z</time>
      </trkpt>
      <trkpt lat="36.9947640" lon="-2.3199160">
        <ele>1304.8</ele>
        <time>2019-10-18T14:02:27Z</time>
      </trkpt>
      <trkpt lat="36.9947310" lon="-2.3199290">
        <ele>1304.4</ele>
        <time>2019-10-18T14:02:28Z</time>
      </trkpt>
      <trkpt lat="36.9946990" lon="-2.3199370">
        <ele>1304.1</ele>
        <time>2019-10-18T14:02:29Z</time>
      </trkpt>
      <trkpt lat="36.9946660" lon="-2.3199430">
        <ele>1303.8</ele>
        <time>2019-10-18T14:02:30Z</time>
      </trkpt>
      <trkpt lat="36.9946330" lon="-2.3199480">
        <ele>1303.1</ele>
        <time>2019-10-18T14:02:31Z</time>
      </trkpt>
      <trkpt lat="36.9946010" lon="-2.3199490">
        <ele>1302.4</ele>
        <time>2019-10-18T14:02:32Z</time>
      </trkpt>
      <trkpt lat="36.9945700" lon="-2.3199510">
        <ele>1301.6</ele>
        <time>2019-10-18T14:02:33Z</time>
      </trkpt>
      <trkpt lat="36.9945380" lon="-2.3199540">
        <ele>1300.5</ele>
        <time>2019-10-18T14:02:34Z</time>
      </trkpt>
      <trkpt lat="36.9945080" lon="-2.3199610">
        <ele>1299.5</ele>
        <time>2019-10-18T14:02:35Z</time>
      </trkpt>
      <trkpt lat="36.9944780" lon="-2.3199720">
        <ele>1298.8</ele>
        <time>2019-10-18T14:02:36Z</time>
      </trkpt>
      <trkpt lat="36.9944510" lon="-2.3199850">
        <ele>1298.3</ele>
        <time>2019-10-18T14:02:37Z</time>
      </trkpt>
      <trkpt lat="36.9944260" lon="-2.3199980">
        <ele>1297.7</ele>
        <time>2019-10-18T14:02:38Z</time>
      </trkpt>
      <trkpt lat="36.9944050" lon="-2.3200100">
        <ele>1297.1</ele>
        <time>2019-10-18T14:02:39Z</time>
      </trkpt>
      <trkpt lat="36.9943890" lon="-2.3200230">
        <ele>1296.7</ele>
        <time>2019-10-18T14:02:40Z</time>
      </trkpt>
      <trkpt lat="36.9943790" lon="-2.3200350">
        <ele>1296.3</ele>
        <time>2019-10-18T14:02:41Z</time>
      </trkpt>
      <trkpt lat="36.9943740" lon="-2.3200440">
        <ele>1296.1</ele>
        <time>2019-10-18T14:02:42Z</time>
      </trkpt>
      <trkpt lat="36.9943710" lon="-2.3200490">
        <ele>1296.0</ele>
        <time>2019-10-18T14:02:43Z</time>
      </trkpt>
      <trkpt lat="36.9943700" lon="-2.3200510">
        <ele>1295.9</ele>
        <time>2019-10-18T14:02:44Z</time>
      </trkpt>
      <trkpt lat="36.9943700" lon="-2.3200520">
        <ele>1295.9</ele>
        <time>2019-10-18T14:02:45Z</time>
      </trkpt>
      <trkpt lat="36.9943690" lon="-2.3200510">
        <ele>1295.9</ele>
        <time>2019-10-18T14:02:46Z</time>
      </trkpt>
      <trkpt lat="36.9943680" lon="-2.3200500">
        <ele>1295.9</ele>
        <time>2019-10-18T14:02:47Z</time>
      </trkpt>
      <trkpt lat="36.9943680" lon="-2.3200490">
        <ele>1295.9</ele>
        <time>2019-10-18T14:02:48Z</time>
      </trkpt>
      <trkpt lat="36.9943670" lon="-2.3200480">
        <ele>1295.9</ele>
        <time>2019-10-18T14:02:49Z</time>
      </trkpt>
      <trkpt lat="36.9943660" lon="-2.3200470">
        <ele>1295.9</ele>
        <time>2019-10-18T14:02:50Z</time>
      </trkpt>
      <trkpt lat="36.9943650" lon="-2.3200470">
        <ele>1295.9</ele>
        <time>2019-10-18T14:02:51Z</time>
      </trkpt>
      <trkpt lat="36.9943640" lon="-2.3200460">
        <ele>1295.9</ele>
        <time>2019-10-18T14:02:52Z</time>
      </trkpt>
      <trkpt lat="36.9943620" lon="-2.3200460">
        <ele>1295.9</ele>
        <time>2019-10-18T14:02:53Z</time>
      </trkpt>
      <trkpt lat="36.9943600" lon="-2.3200460">
        <ele>1295.9</ele>
        <time>2019-10-18T14:02:54Z</time>
      </trkpt>
      <trkpt lat="36.9943590" lon="-2.3200460">
        <ele>1295.9</ele>
        <time>2019-10-18T14:02:55Z</time>
      </trkpt>
      <trkpt lat="36.9943570" lon="-2.3200450">
        <ele>1295.9</ele>
        <time>2019-10-18T14:02:56Z</time>
      </trkpt>
      <trkpt lat="36.9943570" lon="-2.3200440">
        <ele>1295.9</ele>
        <time>2019-10-18T14:02:57Z</time>
      </trkpt>
      <trkpt lat="36.9943560" lon="-2.3200440">
        <ele>1295.9</ele>
        <time>2019-10-18T14:02:58Z</time>
      </trkpt>
      <trkpt lat="36.9943560" lon="-2.3200430">
        <ele>1295.9</ele>
        <time>2019-10-18T14:02:59Z</time>
      </trkpt>
      <trkpt lat="36.9943560" lon="-2.3200430">
        <ele>1295.9</ele>
        <time>2019-10-18T14:03:00Z</time>
      </trkpt>
      <trkpt lat="36.9943550" lon="-2.3200440">
        <ele>1295.9</ele>
        <time>2019-10-18T14:03:01Z</time>
      </trkpt>
      <trkpt lat="36.9943550" lon="-2.3200440">
        <ele>1295.9</ele>
        <time>2019-10-18T14:03:02Z</time>
      </trkpt>
      <trkpt lat="36.9943540" lon="-2.3200450">
        <ele>1295.9</ele>
        <time>2019-10-18T14:03:03Z</time>
      </trkpt>
      <trkpt lat="36.9943540" lon="-2.3200460">
        <ele>1295.9</ele>
        <time>2019-10-18T14:03:04Z</time>
      </trkpt>
      <trkpt lat="36.9943540" lon="-2.3200470">
        <ele>1295.9</ele>
        <time>2019-10-18T14:03:05Z</time>
      </trkpt>
      <trkpt lat="36.9943540" lon="-2.3200480">
        <ele>1295.9</ele>
        <time>2019-10-18T14:03:06Z</time>
      </trkpt>
      <trkpt lat="36.9943550" lon="-2.3200480">
        <ele>1295.9</ele>
        <time>2019-10-18T14:03:07Z</time>
      </trkpt>
      <trkpt lat="36.9943550" lon="-2.3200490">
        <ele>1295.9</ele>
        <time>2019-10-18T14:03:08Z</time>
      </trkpt>
      <trkpt lat="36.9943550" lon="-2.3200500">
        <ele>1295.9</ele>
        <time>2019-10-18T14:03:09Z</time>
      </trkpt>
      <trkpt lat="36.9943550" lon="-2.3200500">
        <ele>1295.9</ele>
        <time>2019-10-18T14:03:10Z</time>
      </trkpt>
      <trkpt lat="36.9943550" lon="-2.3200510">
        <ele>1295.9</ele>
        <time>2019-10-18T14:03:11Z</time>
      </trkpt>
      <trkpt lat="36.9943540" lon="-2.3200530">
        <ele>1295.9</ele>
        <time>2019-10-18T14:03:12Z</time>
      </trkpt>
      <trkpt lat="36.9943520" lon="-2.3200580">
        <ele>1295.9</ele>
        <time>2019-10-18T14:03:13Z</time>
      </trkpt>
      <trkpt lat="36.9943460" lon="-2.3200660">
        <ele>1295.9</ele>
        <time>2019-10-18T14:03:14Z</time>
      </trkpt>
      <trkpt lat="36.9943400" lon="-2.3200790">
        <ele>1295.9</ele>
        <time>2019-10-18T14:03:15Z</time>
      </trkpt>
      <trkpt lat="36.9943330" lon="-2.3200970">
        <ele>1295.9</ele>
        <time>2019-10-18T14:03:16Z</time>
      </trkpt>
      <trkpt lat="36.9943270" lon="-2.3201200">
        <ele>1295.7</ele>
        <time>2019-10-18T14:03:17Z</time>
      </trkpt>
      <trkpt lat="36.9943210" lon="-2.3201470">
        <ele>1295.4</ele>
        <time>2019-10-18T14:03:18Z</time>
      </trkpt>
      <trkpt lat="36.9943130" lon="-2.3201770">
        <ele>1295.1</ele>
        <time>2019-10-18T14:03:19Z</time>
      </trkpt>
      <trkpt lat="36.9943050" lon="-2.3202110">
        <ele>1295.4</ele>
        <time>2019-10-18T14:03:20Z</time>
      </trkpt>
      <trkpt lat="36.9942960" lon="-2.3202460">
        <ele>1295.7</ele>
        <time>2019-10-18T14:03:21Z</time>
      </trkpt>
      <trkpt lat="36.9942890" lon="-2.3202850">
        <ele>1296.0</ele>
        <time>2019-10-18T14:03:22Z</time>
      </trkpt>
      <trkpt lat="36.9942810" lon="-2.3203250">
        <ele>1296.2</ele>
        <time>2019-10-18T14:03:23Z</time>
      </trkpt>
      <trkpt lat="36.9942730" lon="-2.3203650">
        <ele>1296.4</ele>
        <time>2019-10-18T14:03:24Z</time>
      </trkpt>
      <trkpt lat="36.9942650" lon="-2.3204070">
        <ele>1296.6</ele>
        <time>2019-10-18T14:03:25Z</time>
      </trkpt>
      <trkpt lat="36.9942580" lon="-2.3204500">
        <ele>1296.8</ele>
        <time>2019-10-18T14:03:26Z</time>
      </trkpt>
      <trkpt lat="36.9942510" lon="-2.3204930">
        <ele>1297.0</ele>
        <time>2019-10-18T14:03:27Z</time>
      </trkpt>
      <trkpt lat="36.9942430" lon="-2.3205370">
        <ele>1297.1</ele>
        <time>2019-10-18T14:03:28Z</time>
      </trkpt>
      <trkpt lat="36.9942340" lon="-2.3205820">
        <ele>1297.1</ele>
        <time>2019-10-18T14:03:29Z</time>
      </trkpt>
      <trkpt lat="36.9942250" lon="-2.3206270">
        <ele>1297.1</ele>
        <time>2019-10-18T14:03:30Z</time>
      </trkpt>
      <trkpt lat="36.9942150" lon="-2.3206710">
        <ele>1296.9</ele>
        <time>2019-10-18T14:03:31Z</time>
      </trkpt>
      <trkpt lat="36.9942060" lon="-2.3207140">
        <ele>1296.8</ele>
        <time>2019-10-18T14:03:32Z</time>
      </trkpt>
      <trkpt lat="36.9941970" lon="-2.3207560">
        <ele>1296.6</ele>
        <time>2019-10-18T14:03:33Z</time>
      </trkpt>
      <trkpt lat="36.9941890" lon="-2.3207980">
        <ele>1296.6</ele>
        <time>2019-10-18T14:03:34Z</time>
      </trkpt>
      <trkpt lat="36.9941820" lon="-2.3208390">
        <ele>1296.5</ele>
        <time>2019-10-18T14:03:35Z</time>
      </trkpt>
      <trkpt lat="36.9941750" lon="-2.3208800">
        <ele>1296.2</ele>
        <time>2019-10-18T14:03:36Z</time>
      </trkpt>
      <trkpt lat="36.9941670" lon="-2.3209210">
        <ele>1295.7</ele>
        <time>2019-10-18T14:03:37Z</time>
      </trkpt>
      <trkpt lat="36.9941590" lon="-2.3209630">
        <ele>1295.2</ele>
        <time>2019-10-18T14:03:38Z</time>
      </trkpt>
      <trkpt lat="36.9941500" lon="-2.3210040">
        <ele>1294.3</ele>
        <time>2019-10-18T14:03:39Z</time>
      </trkpt>
      <trkpt lat="36.9941410" lon="-2.3210460">
        <ele>1293.4</ele>
        <time>2019-10-18T14:03:40Z</time>
      </trkpt>
      <trkpt lat="36.9941310" lon="-2.3210870">
        <ele>1292.4</ele>
        <time>2019-10-18T14:03:41Z</time>
      </trkpt>
      <trkpt lat="36.9941220" lon="-2.3211290">
        <ele>1291.9</ele>
        <time>2019-10-18T14:03:42Z</time>
      </trkpt>
      <trkpt lat="36.9941130" lon="-2.3211700">
        <ele>1291.3</ele>
        <time>2019-10-18T14:03:43Z</time>
      </trkpt>
      <trkpt lat="36.9941060" lon="-2.3212110">
        <ele>1290.7</ele>
        <time>2019-10-18T14:03:44Z</time>
      </trkpt>
      <trkpt lat="36.9941010" lon="-2.3212520">
        <ele>1289.8</ele>
        <time>2019-10-18T14:03:45Z</time>
      </trkpt>
      <trkpt lat="36.9941000" lon="-2.3212910">
        <ele>1289.0</ele>
        <time>2019-10-18T14:03:46Z</time>
      </trkpt>
      <trkpt lat="36.9941050" lon="-2.3213270">
        <ele>1288.4</ele>
        <time>2019-10-18T14:03:47Z</time>
      </trkpt>
      <trkpt lat="36.9941180" lon="-2.3213600">
        <ele>1287.9</ele>
        <time>2019-10-18T14:03:48Z</time>
      </trkpt>
      <trkpt lat="36.9941410" lon="-2.3213860">
        <ele>1287.4</ele>
        <time>2019-10-18T14:03:49Z</time>
      </trkpt>
      <trkpt lat="36.9941720" lon="-2.3214040">
        <ele>1287.7</ele>
        <time>2019-10-18T14:03:50Z</time>
      </trkpt>
      <trkpt lat="36.9942100" lon="-2.3214120">
        <ele>1287.9</ele>
        <time>2019-10-18T14:03:51Z</time>
      </trkpt>
      <trkpt lat="36.9942520" lon="-2.3214120">
        <ele>1288.1</ele>
        <time>2019-10-18T14:03:52Z</time>
      </trkpt>
      <trkpt lat="36.9942950" lon="-2.3214050">
        <ele>1288.5</ele>
        <time>2019-10-18T14:03:53Z</time>
      </trkpt>
      <trkpt lat="36.9943360" lon="-2.3213930">
        <ele>1288.8</ele>
        <time>2019-10-18T14:03:54Z</time>
      </trkpt>
      <trkpt lat="36.9943770" lon="-2.3213770">
        <ele>1289.4</ele>
        <time>2019-10-18T14:03:55Z</time>
      </trkpt>
      <trkpt lat="36.9944200" lon="-2.3213560">
        <ele>1290.4</ele>
        <time>2019-10-18T14:03:56Z</time>
      </trkpt>
      <trkpt lat="36.9944670" lon="-2.3213310">
        <ele>1291.4</ele>
        <time>2019-10-18T14:03:57Z</time>
      </trkpt>
      <trkpt lat="36.9945160" lon="-2.3213080">
        <ele>1292.3</ele>
        <time>2019-10-18T14:03:58Z</time>
      </trkpt>
      <trkpt lat="36.9945630" lon="-2.3212910">
        <ele>1293.0</ele>
        <time>2019-10-18T14:03:59Z</time>
      </trkpt>
      <trkpt lat="36.9946080" lon="-2.3212820">
        <ele>1293.4</ele>
        <time>2019-10-18T14:04:00Z</time>
      </trkpt>
      <trkpt lat="36.9946490" lon="-2.3212850">
        <ele>1293.3</ele>
        <time>2019-10-18T14:04:01Z</time>
      </trkpt>
      <trkpt lat="36.9946870" lon="-2.3212940">
        <ele>1293.0</ele>
        <time>2019-10-18T14:04:02Z</time>
      </trkpt>
      <trkpt lat="36.9947240" lon="-2.3213170">
        <ele>1292.6</ele>
        <time>2019-10-18T14:04:03Z</time>
      </trkpt>
      <trkpt lat="36.9947590" lon="-2.3213440">
        <ele>1291.2</ele>
        <time>2019-10-18T14:04:04Z</time>
      </trkpt>
      <trkpt lat="36.9947940" lon="-2.3213840">
        <ele>1289.6</ele>
        <time>2019-10-18T14:04:05Z</time>
      </trkpt>
      <trkpt lat="36.9948260" lon="-2.3214230">
        <ele>1288.1</ele>
        <time>2019-10-18T14:04:06Z</time>
      </trkpt>
      <trkpt lat="36.9948600" lon="-2.3214710">
        <ele>1286.5</ele>
        <time>2019-10-18T14:04:07Z</time>
      </trkpt>
      <trkpt lat="36.9948940" lon="-2.3215210">
        <ele>1285.1</ele>
        <time>2019-10-18T14:04:08Z</time>
      </trkpt>
      <trkpt lat="36.9949360" lon="-2.3215750">
        <ele>1283.9</ele>
        <time>2019-10-18T14:04:09Z</time>
      </trkpt>
      <trkpt lat="36.9949790" lon="-2.3216260">
        <ele>1282.2</ele>
        <time>2019-10-18T14:04:10Z</time>
      </trkpt>
      <trkpt lat="36.9950250" lon="-2.3216740">
        <ele>1281.1</ele>
        <time>2019-10-18T14:04:11Z</time>
      </trkpt>
      <trkpt lat="36.9950720" lon="-2.3217190">
        <ele>1280.3</ele>
        <time>2019-10-18T14:04:12Z</time>
      </trkpt>
      <trkpt lat="36.9951210" lon="-2.3217620">
        <ele>1279.3</ele>
        <time>2019-10-18T14:04:13Z</time>
      </trkpt>
      <trkpt lat="36.9951740" lon="-2.3218020">
        <ele>1278.2</ele>
        <time>2019-10-18T14:04:14Z</time>
      </trkpt>
      <trkpt lat="36.9952310" lon="-2.3218360">
        <ele>1277.6</ele>
        <time>2019-10-18T14:04:15Z</time>
      </trkpt>
      <trkpt lat="36.9952930" lon="-2.3218590">
        <ele>1277.2</ele>
        <time>2019-10-18T14:04:16Z</time>
      </trkpt>
      <trkpt lat="36.9953580" lon="-2.3218750">
        <ele>1277.0</ele>
        <time>2019-10-18T14:04:17Z</time>
      </trkpt>
      <trkpt lat="36.9954250" lon="-2.3218860">
        <ele>1277.0</ele>
        <time>2019-10-18T14:04:18Z</time>
      </trkpt>
      <trkpt lat="36.9954910" lon="-2.3218950">
        <ele>1276.7</ele>
        <time>2019-10-18T14:04:19Z</time>
      </trkpt>
      <trkpt lat="36.9955560" lon="-2.3219010">
        <ele>1276.6</ele>
        <time>2019-10-18T14:04:20Z</time>
      </trkpt>
      <trkpt lat="36.9956190" lon="-2.3219060">
        <ele>1276.4</ele>
        <time>2019-10-18T14:04:21Z</time>
      </trkpt>
      <trkpt lat="36.9956790" lon="-2.3219140">
        <ele>1276.1</ele>
        <time>2019-10-18T14:04:22Z</time>
      </trkpt>
      <trkpt lat="36.9957350" lon="-2.3219260">
        <ele>1275.8</ele>
        <time>2019-10-18T14:04:23Z</time>
      </trkpt>
      <trkpt lat="36.9957900" lon="-2.3219440">
        <ele>1275.4</ele>
        <time>2019-10-18T14:04:24Z</time>
      </trkpt>
      <trkpt lat="36.9958450" lon="-2.3219700">
        <ele>1274.6</ele>
        <time>2019-10-18T14:04:25Z</time>
      </trkpt>
      <trkpt lat="36.9958990" lon="-2.3219990">
        <ele>1273.8</ele>
        <time>2019-10-18T14:04:26Z</time>
      </trkpt>
      <trkpt lat="36.9959500" lon="-2.3220340">
        <ele>1273.4</ele>
        <time>2019-10-18T14:04:27Z</time>
      </trkpt>
      <trkpt lat="36.9959950" lon="-2.3220710">
        <ele>1273.4</ele>
        <time>2019-10-18T14:04:28Z</time>
      </trkpt>
      <trkpt lat="36.9960340" lon="-2.3221160">
        <ele>1273.4</ele>
        <time>2019-10-18T14:04:29Z</time>
      </trkpt>
      <trkpt lat="36.9960670" lon="-2.3221650">
        <ele>1273.6</ele>
        <time>2019-10-18T14:04:30Z</time>
      </trkpt>
      <trkpt lat="36.9960940" lon="-2.3222170">
        <ele>1273.6</ele>
        <time>2019-10-18T14:04:31Z</time>
      </trkpt>
      <trkpt lat="36.9961170" lon="-2.3222740">
        <ele>1273.6</ele>
        <time>2019-10-18T14:04:32Z</time>
      </trkpt>
      <trkpt lat="36.9961360" lon="-2.3223340">
        <ele>1274.0</ele>
        <time>2019-10-18T14:04:33Z</time>
      </trkpt>
      <trkpt lat="36.9961510" lon="-2.3223960">
        <ele>1274.3</ele>
        <time>2019-10-18T14:04:34Z</time>
      </trkpt>
      <trkpt lat="36.9961640" lon="-2.3224580">
        <ele>1274.4</ele>
        <time>2019-10-18T14:04:35Z</time>
      </trkpt>
      <trkpt lat="36.9961780" lon="-2.3225220">
        <ele>1274.5</ele>
        <time>2019-10-18T14:04:36Z</time>
      </trkpt>
      <trkpt lat="36.9961920" lon="-2.3225870">
        <ele>1274.5</ele>
        <time>2019-10-18T14:04:37Z</time>
      </trkpt>
      <trkpt lat="36.9962070" lon="-2.3226560">
        <ele>1274.6</ele>
        <time>2019-10-18T14:04:38Z</time>
      </trkpt>
      <trkpt lat="36.9962230" lon="-2.3227290">
        <ele>1274.7</ele>
        <time>2019-10-18T14:04:39Z</time>
      </trkpt>
      <trkpt lat="36.9962400" lon="-2.3228060">
        <ele>1274.8</ele>
        <time>2019-10-18T14:04:40Z</time>
      </trkpt>
      <trkpt lat="36.9962570" lon="-2.3228840">
        <ele>1274.8</ele>
        <time>2019-10-18T14:04:41Z</time>
      </trkpt>
      <trkpt lat="36.9962740" lon="-2.3229600">
        <ele>1274.9</ele>
        <time>2019-10-18T14:04:42Z</time>
      </trkpt>
      <trkpt lat="36.9962880" lon="-2.3230350">
        <ele>1275.1</ele>
        <time>2019-10-18T14:04:43Z</time>
      </trkpt>
      <trkpt lat="36.9962970" lon="-2.3231080">
        <ele>1275.4</ele>
        <time>2019-10-18T14:04:44Z</time>
      </trkpt>
      <trkpt lat="36.9962980" lon="-2.3231820">
        <ele>1275.6</ele>
        <time>2019-10-18T14:04:45Z</time>
      </trkpt>
      <trkpt lat="36.9962870" lon="-2.3232550">
        <ele>1275.7</ele>
        <time>2019-10-18T14:04:46Z</time>
      </trkpt>
      <trkpt lat="36.9962670" lon="-2.3233270">
        <ele>1275.7</ele>
        <time>2019-10-18T14:04:47Z</time>
      </trkpt>
      <trkpt lat="36.9962380" lon="-2.3233940">
        <ele>1275.6</ele>
        <time>2019-10-18T14:04:48Z</time>
      </trkpt>
      <trkpt lat="36.9962030" lon="-2.3234590">
        <ele>1275.3</ele>
        <time>2019-10-18T14:04:49Z</time>
      </trkpt>
      <trkpt lat="36.9961630" lon="-2.3235210">
        <ele>1274.9</ele>
        <time>2019-10-18T14:04:50Z</time>
      </trkpt>
      <trkpt lat="36.9961200" lon="-2.3235810">
        <ele>1274.0</ele>
        <time>2019-10-18T14:04:51Z</time>
      </trkpt>
      <trkpt lat="36.9960770" lon="-2.3236380">
        <ele>1272.9</ele>
        <time>2019-10-18T14:04:52Z</time>
      </trkpt>
      <trkpt lat="36.9960330" lon="-2.3236940">
        <ele>1271.9</ele>
        <time>2019-10-18T14:04:53Z</time>
      </trkpt>
      <trkpt lat="36.9959900" lon="-2.3237500">
        <ele>1271.1</ele>
        <time>2019-10-18T14:04:54Z</time>
      </trkpt>
      <trkpt lat="36.9959510" lon="-2.3238090">
        <ele>1270.5</ele>
        <time>2019-10-18T14:04:55Z</time>
      </trkpt>
      <trkpt lat="36.9959160" lon="-2.3238720">
        <ele>1270.0</ele>
        <time>2019-10-18T14:04:56Z</time>
      </trkpt>
      <trkpt lat="36.9958860" lon="-2.3239400">
        <ele>1269.8</ele>
        <time>2019-10-18T14:04:57Z</time>
      </trkpt>
      <trkpt lat="36.9958580" lon="-2.3240120">
        <ele>1269.8</ele>
        <time>2019-10-18T14:04:58Z</time>
      </trkpt>
      <trkpt lat="36.9958320" lon="-2.3240860">
        <ele>1270.2</ele>
        <time>2019-10-18T14:04:59Z</time>
      </trkpt>
      <trkpt lat="36.9958090" lon="-2.3241610">
        <ele>1270.8</ele>
        <time>2019-10-18T14:05:00Z</time>
      </trkpt>
      <trkpt lat="36.9957870" lon="-2.3242380">
        <ele>1271.3</ele>
        <time>2019-10-18T14:05:01Z</time>
      </trkpt>
      <trkpt lat="36.9957660" lon="-2.3243160">
        <ele>1271.6</ele>
        <time>2019-10-18T14:05:02Z</time>
      </trkpt>
      <trkpt lat="36.9957430" lon="-2.3243940">
        <ele>1271.9</ele>
        <time>2019-10-18T14:05:03Z</time>
      </trkpt>
      <trkpt lat="36.9957170" lon="-2.3244710">
        <ele>1271.7</ele>
        <time>2019-10-18T14:05:04Z</time>
      </trkpt>
      <trkpt lat="36.9956870" lon="-2.3245460">
        <ele>1271.4</ele>
        <time>2019-10-18T14:05:05Z</time>
      </trkpt>
      <trkpt lat="36.9956550" lon="-2.3246190">
        <ele>1271.0</ele>
        <time>2019-10-18T14:05:06Z</time>
      </trkpt>
      <trkpt lat="36.9956200" lon="-2.3246880">
        <ele>1270.6</ele>
        <time>2019-10-18T14:05:07Z</time>
      </trkpt>
      <trkpt lat="36.9955800" lon="-2.3247520">
        <ele>1270.3</ele>
        <time>2019-10-18T14:05:08Z</time>
      </trkpt>
      <trkpt lat="36.9955270" lon="-2.3248060">
        <ele>1269.9</ele>
        <time>2019-10-18T14:05:09Z</time>
      </trkpt>
      <trkpt lat="36.9954630" lon="-2.3248530">
        <ele>1269.6</ele>
        <time>2019-10-18T14:05:10Z</time>
      </trkpt>
      <trkpt lat="36.9953920" lon="-2.3248930">
        <ele>1269.1</ele>
        <time>2019-10-18T14:05:11Z</time>
      </trkpt>
      <trkpt lat="36.9953220" lon="-2.3249370">
        <ele>1268.3</ele>
        <time>2019-10-18T14:05:12Z</time>
      </trkpt>
      <trkpt lat="36.9952550" lon="-2.3249850">
        <ele>1267.7</ele>
        <time>2019-10-18T14:05:13Z</time>
      </trkpt>
      <trkpt lat="36.9951880" lon="-2.3250380">
        <ele>1266.9</ele>
        <time>2019-10-18T14:05:14Z</time>
      </trkpt>
      <trkpt lat="36.9951190" lon="-2.3250940">
        <ele>1266.2</ele>
        <time>2019-10-18T14:05:15Z</time>
      </trkpt>
      <trkpt lat="36.9950520" lon="-2.3251470">
        <ele>1265.4</ele>
        <time>2019-10-18T14:05:16Z</time>
      </trkpt>
      <trkpt lat="36.9949870" lon="-2.3251950">
        <ele>1264.4</ele>
        <time>2019-10-18T14:05:17Z</time>
      </trkpt>
      <trkpt lat="36.9949250" lon="-2.3252360">
        <ele>1263.6</ele>
        <time>2019-10-18T14:05:18Z</time>
      </trkpt>
      <trkpt lat="36.9948690" lon="-2.3252730">
        <ele>1262.9</ele>
        <time>2019-10-18T14:05:19Z</time>
      </trkpt>
      <trkpt lat="36.9948260" lon="-2.3253100">
        <ele>1262.5</ele>
        <time>2019-10-18T14:05:20Z</time>
      </trkpt>
      <trkpt lat="36.9947980" lon="-2.3253470">
        <ele>1262.2</ele>
        <time>2019-10-18T14:05:21Z</time>
      </trkpt>
      <trkpt lat="36.9947820" lon="-2.3253840">
        <ele>1261.9</ele>
        <time>2019-10-18T14:05:22Z</time>
      </trkpt>
      <trkpt lat="36.9947760" lon="-2.3254250">
        <ele>1261.6</ele>
        <time>2019-10-18T14:05:23Z</time>
      </trkpt>
      <trkpt lat="36.9947790" lon="-2.3254680">
        <ele>1261.3</ele>
        <time>2019-10-18T14:05:24Z</time>
      </trkpt>
      <trkpt lat="36.9947930" lon="-2.3255070">
        <ele>1261.1</ele>
        <time>2019-10-18T14:05:25Z</time>
      </trkpt>
      <trkpt lat="36.9948140" lon="-2.3255400">
        <ele>1260.7</ele>
        <time>2019-10-18T14:05:26Z</time>
      </trkpt>
      <trkpt lat="36.9948400" lon="-2.3255690">
        <ele>1260.4</ele>
        <time>2019-10-18T14:05:27Z</time>
      </trkpt>
      <trkpt lat="36.9948700" lon="-2.3255990">
        <ele>1260.2</ele>
        <time>2019-10-18T14:05:28Z</time>
      </trkpt>
      <trkpt lat="36.9949060" lon="-2.3256300">
        <ele>1260.0</ele>
        <time>2019-10-18T14:05:29Z</time>
      </trkpt>
      <trkpt lat="36.9949520" lon="-2.3256610">
        <ele>1259.8</ele>
        <time>2019-10-18T14:05:30Z</time>
      </trkpt>
      <trkpt lat="36.9950030" lon="-2.3256950">
        <ele>1259.6</ele>
        <time>2019-10-18T14:05:31Z</time>
      </trkpt>
      <trkpt lat="36.9950550" lon="-2.3257310">
        <ele>1259.5</ele>
        <time>2019-10-18T14:05:32Z</time>
      </trkpt>
      <trkpt lat="36.9951020" lon="-2.3257710">
        <ele>1259.2</ele>
        <time>2019-10-18T14:05:33Z</time>
      </trkpt>
      <trkpt lat="36.9951450" lon="-2.3258140">
        <ele>1258.8</ele>
        <time>2019-10-18T14:05:34Z</time>
      </trkpt>
      <trkpt lat="36.9951840" lon="-2.3258590">
        <ele>1258.1</ele>
        <time>2019-10-18T14:05:35Z</time>
      </trkpt>
      <trkpt lat="36.9952180" lon="-2.3259040">
        <ele>1257.2</ele>
        <time>2019-10-18T14:05:36Z</time>
      </trkpt>
      <trkpt lat="36.9952460" lon="-2.3259540">
        <ele>1256.7</ele>
        <time>2019-10-18T14:05:37Z</time>
      </trkpt>
      <trkpt lat="36.9952690" lon="-2.3260070">
        <ele>1255.9</ele>
        <time>2019-10-18T14:05:38Z</time>
      </trkpt>
      <trkpt lat="36.9952850" lon="-2.3260670">
        <ele>1254.7</ele>
        <time>2019-10-18T14:05:39Z</time>
      </trkpt>
      <trkpt lat="36.9952980" lon="-2.3261350">
        <ele>1253.4</ele>
        <time>2019-10-18T14:05:40Z</time>
      </trkpt>
      <trkpt lat="36.9953040" lon="-2.3262150">
        <ele>1252.4</ele>
        <time>2019-10-18T14:05:41Z</time>
      </trkpt>
      <trkpt lat="36.9953080" lon="-2.3262990">
        <ele>1250.6</ele>
        <time>2019-10-18T14:05:42Z</time>
      </trkpt>
      <trkpt lat="36.9953110" lon="-2.3263790">
        <ele>1248.8</ele>
        <time>2019-10-18T14:05:43Z</time>
      </trkpt>
      <trkpt lat="36.9953220" lon="-2.3264550">
        <ele>1247.1</ele>
        <time>2019-10-18T14:05:44Z</time>
      </trkpt>
      <trkpt lat="36.9953430" lon="-2.3265300">
        <ele>1245.5</ele>
        <time>2019-10-18T14:05:45Z</time>
      </trkpt>
      <trkpt lat="36.9953740" lon="-2.3266040">
        <ele>1243.6</ele>
        <time>2019-10-18T14:05:46Z</time>
      </trkpt>
      <trkpt lat="36.9954110" lon="-2.3266730">
        <ele>1242.6</ele>
        <time>2019-10-18T14:05:47Z</time>
      </trkpt>
      <trkpt lat="36.9954470" lon="-2.3267360">
        <ele>1241.3</ele>
        <time>2019-10-18T14:05:48Z</time>
      </trkpt>
      <trkpt lat="36.9954830" lon="-2.3267950">
        <ele>1240.0</ele>
        <time>2019-10-18T14:05:49Z</time>
      </trkpt>
      <trkpt lat="36.9955170" lon="-2.3268520">
        <ele>1238.9</ele>
        <time>2019-10-18T14:05:50Z</time>
      </trkpt>
      <trkpt lat="36.9955510" lon="-2.3269050">
        <ele>1237.9</ele>
        <time>2019-10-18T14:05:51Z</time>
      </trkpt>
      <trkpt lat="36.9955840" lon="-2.3269560">
        <ele>1237.0</ele>
        <time>2019-10-18T14:05:52Z</time>
      </trkpt>
      <trkpt lat="36.9956170" lon="-2.3270020">
        <ele>1236.2</ele>
        <time>2019-10-18T14:05:53Z</time>
      </trkpt>
      <trkpt lat="36.9956550" lon="-2.3270390">
        <ele>1235.7</ele>
        <time>2019-10-18T14:05:54Z</time>
      </trkpt>
      <trkpt lat="36.9956960" lon="-2.3270650">
        <ele>1235.3</ele>
        <time>2019-10-18T14:05:55Z</time>
      </trkpt>
      <trkpt lat="36.9957440" lon="-2.3270710">
        <ele>1235.0</ele>
        <time>2019-10-18T14:05:56Z</time>
      </trkpt>
      <trkpt lat="36.9957920" lon="-2.3270620">
        <ele>1235.0</ele>
        <time>2019-10-18T14:05:57Z</time>
      </trkpt>
      <trkpt lat="36.9958450" lon="-2.3270430">
        <ele>1235.4</ele>
        <time>2019-10-18T14:05:58Z</time>
      </trkpt>
      <trkpt lat="36.9958960" lon="-2.3270260">
        <ele>1236.3</ele>
        <time>2019-10-18T14:05:59Z</time>
      </trkpt>
      <trkpt lat="36.9959490" lon="-2.3270100">
        <ele>1237.2</ele>
        <time>2019-10-18T14:06:00Z</time>
      </trkpt>
      <trkpt lat="36.9960010" lon="-2.3269950">
        <ele>1238.1</ele>
        <time>2019-10-18T14:06:01Z</time>
      </trkpt>
      <trkpt lat="36.9960550" lon="-2.3269830">
        <ele>1239.1</ele>
        <time>2019-10-18T14:06:02Z</time>
      </trkpt>
      <trkpt lat="36.9961090" lon="-2.3269730">
        <ele>1239.8</ele>
        <time>2019-10-18T14:06:03Z</time>
      </trkpt>
      <trkpt lat="36.9961640" lon="-2.3269690">
        <ele>1240.6</ele>
        <time>2019-10-18T14:06:04Z</time>
      </trkpt>
      <trkpt lat="36.9962190" lon="-2.3269720">
        <ele>1241.3</ele>
        <time>2019-10-18T14:06:05Z</time>
      </trkpt>
      <trkpt lat="36.9962710" lon="-2.3269830">
        <ele>1242.0</ele>
        <time>2019-10-18T14:06:06Z</time>
      </trkpt>
      <trkpt lat="36.9963220" lon="-2.3269970">
        <ele>1242.9</ele>
        <time>2019-10-18T14:06:07Z</time>
      </trkpt>
      <trkpt lat="36.9963720" lon="-2.3270160">
        <ele>1244.1</ele>
        <time>2019-10-18T14:06:08Z</time>
      </trkpt>
      <trkpt lat="36.9964220" lon="-2.3270380">
        <ele>1245.3</ele>
        <time>2019-10-18T14:06:09Z</time>
      </trkpt>
      <trkpt lat="36.9964670" lon="-2.3270680">
        <ele>1246.1</ele>
        <time>2019-10-18T14:06:10Z</time>
      </trkpt>
      <trkpt lat="36.9965070" lon="-2.3270990">
        <ele>1246.8</ele>
        <time>2019-10-18T14:06:11Z</time>
      </trkpt>
      <trkpt lat="36.9965430" lon="-2.3271340">
        <ele>1247.5</ele>
        <time>2019-10-18T14:06:12Z</time>
      </trkpt>
      <trkpt lat="36.9965740" lon="-2.3271700">
        <ele>1247.8</ele>
        <time>2019-10-18T14:06:13Z</time>
      </trkpt>
      <trkpt lat="36.9965990" lon="-2.3272200">
        <ele>1248.0</ele>
        <time>2019-10-18T14:06:14Z</time>
      </trkpt>
      <trkpt lat="36.9966170" lon="-2.3272750">
        <ele>1248.3</ele>
        <time>2019-10-18T14:06:15Z</time>
      </trkpt>
      <trkpt lat="36.9966290" lon="-2.3273380">
        <ele>1248.5</ele>
        <time>2019-10-18T14:06:16Z</time>
      </trkpt>
      <trkpt lat="36.9966350" lon="-2.3274000">
        <ele>1248.5</ele>
        <time>2019-10-18T14:06:17Z</time>
      </trkpt>
      <trkpt lat="36.9966390" lon="-2.3274650">
        <ele>1248.1</ele>
        <time>2019-10-18T14:06:18Z</time>
      </trkpt>
      <trkpt lat="36.9966410" lon="-2.3275270">
        <ele>1247.8</ele>
        <time>2019-10-18T14:06:19Z</time>
      </trkpt>
      <trkpt lat="36.9966420" lon="-2.3275890">
        <ele>1247.7</ele>
        <time>2019-10-18T14:06:20Z</time>
      </trkpt>
      <trkpt lat="36.9966400" lon="-2.3276520">
        <ele>1247.6</ele>
        <time>2019-10-18T14:06:21Z</time>
      </trkpt>
      <trkpt lat="36.9966340" lon="-2.3277170">
        <ele>1247.4</ele>
        <time>2019-10-18T14:06:22Z</time>
      </trkpt>
      <trkpt lat="36.9966270" lon="-2.3277850">
        <ele>1247.3</ele>
        <time>2019-10-18T14:06:23Z</time>
      </trkpt>
      <trkpt lat="36.9966200" lon="-2.3278540">
        <ele>1247.0</ele>
        <time>2019-10-18T14:06:24Z</time>
      </trkpt>
      <trkpt lat="36.9966130" lon="-2.3279260">
        <ele>1246.5</ele>
        <time>2019-10-18T14:06:25Z</time>
      </trkpt>
      <trkpt lat="36.9966050" lon="-2.3279970">
        <ele>1246.1</ele>
        <time>2019-10-18T14:06:26Z</time>
      </trkpt>
      <trkpt lat="36.9965950" lon="-2.3280650">
        <ele>1245.5</ele>
        <time>2019-10-18T14:06:27Z</time>
      </trkpt>
      <trkpt lat="36.9965810" lon="-2.3281280">
        <ele>1244.8</ele>
        <time>2019-10-18T14:06:28Z</time>
      </trkpt>
      <trkpt lat="36.9965630" lon="-2.3281850">
        <ele>1244.3</ele>
        <time>2019-10-18T14:06:29Z</time>
      </trkpt>
      <trkpt lat="36.9965400" lon="-2.3282380">
        <ele>1243.7</ele>
        <time>2019-10-18T14:06:30Z</time>
      </trkpt>
      <trkpt lat="36.9965130" lon="-2.3282890">
        <ele>1243.1</ele>
        <time>2019-10-18T14:06:31Z</time>
      </trkpt>
      <trkpt lat="36.9964830" lon="-2.3283400">
        <ele>1242.6</ele>
        <time>2019-10-18T14:06:32Z</time>
      </trkpt>
      <trkpt lat="36.9964510" lon="-2.3283930">
        <ele>1242.1</ele>
        <time>2019-10-18T14:06:33Z</time>
      </trkpt>
      <trkpt lat="36.9964160" lon="-2.3284470">
        <ele>1241.6</ele>
        <time>2019-10-18T14:06:34Z</time>
      </trkpt>
      <trkpt lat="36.9963800" lon="-2.3285030">
        <ele>1241.0</ele>
        <time>2019-10-18T14:06:35Z</time>
      </trkpt>
      <trkpt lat="36.9963430" lon="-2.3285620">
        <ele>1240.2</ele>
        <time>2019-10-18T14:06:36Z</time>
      </trkpt>
      <trkpt lat="36.9963050" lon="-2.3286240">
        <ele>1239.8</ele>
        <time>2019-10-18T14:06:37Z</time>
      </trkpt>
      <trkpt lat="36.9962680" lon="-2.3286870">
        <ele>1239.2</ele>
        <time>2019-10-18T14:06:38Z</time>
      </trkpt>
      <trkpt lat="36.9962310" lon="-2.3287530">
        <ele>1238.6</ele>
        <time>2019-10-18T14:06:39Z</time>
      </trkpt>
      <trkpt lat="36.9961950" lon="-2.3288200">
        <ele>1238.2</ele>
        <time>2019-10-18T14:06:40Z</time>
      </trkpt>
      <trkpt lat="36.9961600" lon="-2.3288880">
        <ele>1237.1</ele>
        <time>2019-10-18T14:06:41Z</time>
      </trkpt>
      <trkpt lat="36.9961270" lon="-2.3289570">
        <ele>1236.4</ele>
        <time>2019-10-18T14:06:42Z</time>
      </trkpt>
      <trkpt lat="36.9960960" lon="-2.3290260">
        <ele>1235.2</ele>
        <time>2019-10-18T14:06:43Z</time>
      </trkpt>
      <trkpt lat="36.9960660" lon="-2.3290950">
        <ele>1233.8</ele>
        <time>2019-10-18T14:06:44Z</time>
      </trkpt>
      <trkpt lat="36.9960370" lon="-2.3291680">
        <ele>1232.8</ele>
        <time>2019-10-18T14:06:45Z</time>
      </trkpt>
      <trkpt lat="36.9960100" lon="-2.3292450">
        <ele>1231.8</ele>
        <time>2019-10-18T14:06:46Z</time>
      </trkpt>
      <trkpt lat="36.9959840" lon="-2.3293230">
        <ele>1230.9</ele>
        <time>2019-10-18T14:06:47Z</time>
      </trkpt>
      <trkpt lat="36.9959590" lon="-2.3294030">
        <ele>1230.0</ele>
        <time>2019-10-18T14:06:48Z</time>
      </trkpt>
      <trkpt lat="36.9959350" lon="-2.3294820">
        <ele>1229.0</ele>
        <time>2019-10-18T14:06:49Z</time>
      </trkpt>
      <trkpt lat="36.9959140" lon="-2.3295600">
        <ele>1228.2</ele>
        <time>2019-10-18T14:06:50Z</time>
      </trkpt>
      <trkpt lat="36.9958970" lon="-2.3296360">
        <ele>1227.4</ele>
        <time>2019-10-18T14:06:51Z</time>
      </trkpt>
      <trkpt lat="36.9958830" lon="-2.3297080">
        <ele>1226.9</ele>
        <time>2019-10-18T14:06:52Z</time>
      </trkpt>
      <trkpt lat="36.9958750" lon="-2.3297770">
        <ele>1226.7</ele>
        <time>2019-10-18T14:06:53Z</time>
      </trkpt>
      <trkpt lat="36.9958740" lon="-2.3298440">
        <ele>1226.5</ele>
        <time>2019-10-18T14:06:54Z</time>
      </trkpt>
      <trkpt lat="36.9958830" lon="-2.3299120">
        <ele>1225.4</ele>
        <time>2019-10-18T14:06:55Z</time>
      </trkpt>
      <trkpt lat="36.9958990" lon="-2.3299790">
        <ele>1225.4</ele>
        <time>2019-10-18T14:06:56Z</time>
      </trkpt>
      <trkpt lat="36.9959210" lon="-2.3300450">
        <ele>1225.5</ele>
        <time>2019-10-18T14:06:57Z</time>
      </trkpt>
      <trkpt lat="36.9959460" lon="-2.3301080">
        <ele>1225.4</ele>
        <time>2019-10-18T14:06:58Z</time>
      </trkpt>
      <trkpt lat="36.9959710" lon="-2.3301650">
        <ele>1225.0</ele>
        <time>2019-10-18T14:06:59Z</time>
      </trkpt>
      <trkpt lat="36.9959910" lon="-2.3302180">
        <ele>1224.7</ele>
        <time>2019-10-18T14:07:00Z</time>
      </trkpt>
      <trkpt lat="36.9960030" lon="-2.3302680">
        <ele>1224.6</ele>
        <time>2019-10-18T14:07:01Z</time>
      </trkpt>
      <trkpt lat="36.9960040" lon="-2.3303160">
        <ele>1224.1</ele>
        <time>2019-10-18T14:07:02Z</time>
      </trkpt>
      <trkpt lat="36.9959940" lon="-2.3303610">
        <ele>1223.6</ele>
        <time>2019-10-18T14:07:03Z</time>
      </trkpt>
      <trkpt lat="36.9959780" lon="-2.3304030">
        <ele>1223.2</ele>
        <time>2019-10-18T14:07:04Z</time>
      </trkpt>
      <trkpt lat="36.9959590" lon="-2.3304460">
        <ele>1222.7</ele>
        <time>2019-10-18T14:07:05Z</time>
      </trkpt>
      <trkpt lat="36.9959420" lon="-2.3304920">
        <ele>1222.0</ele>
        <time>2019-10-18T14:07:06Z</time>
      </trkpt>
      <trkpt lat="36.9959250" lon="-2.3305430">
        <ele>1221.2</ele>
        <time>2019-10-18T14:07:07Z</time>
      </trkpt>
      <trkpt lat="36.9959050" lon="-2.3305970">
        <ele>1220.5</ele>
        <time>2019-10-18T14:07:08Z</time>
      </trkpt>
      <trkpt lat="36.9958830" lon="-2.3306530">
        <ele>1220.0</ele>
        <time>2019-10-18T14:07:09Z</time>
      </trkpt>
      <trkpt lat="36.9958550" lon="-2.3307100">
        <ele>1219.9</ele>
        <time>2019-10-18T14:07:10Z</time>
      </trkpt>
      <trkpt lat="36.9958240" lon="-2.3307660">
        <ele>1219.5</ele>
        <time>2019-10-18T14:07:11Z</time>
      </trkpt>
      <trkpt lat="36.9957880" lon="-2.3308200">
        <ele>1218.9</ele>
        <time>2019-10-18T14:07:12Z</time>
      </trkpt>
      <trkpt lat="36.9957510" lon="-2.3308710">
        <ele>1218.3</ele>
        <time>2019-10-18T14:07:13Z</time>
      </trkpt>
      <trkpt lat="36.9957110" lon="-2.3309210">
        <ele>1217.6</ele>
        <time>2019-10-18T14:07:14Z</time>
      </trkpt>
      <trkpt lat="36.9956700" lon="-2.3309690">
        <ele>1216.8</ele>
        <time>2019-10-18T14:07:15Z</time>
      </trkpt>
      <trkpt lat="36.9956290" lon="-2.3310180">
        <ele>1216.0</ele>
        <time>2019-10-18T14:07:16Z</time>
      </trkpt>
      <trkpt lat="36.9955910" lon="-2.3310660">
        <ele>1215.5</ele>
        <time>2019-10-18T14:07:17Z</time>
      </trkpt>
      <trkpt lat="36.9955590" lon="-2.3311180">
        <ele>1215.0</ele>
        <time>2019-10-18T14:07:18Z</time>
      </trkpt>
      <trkpt lat="36.9955330" lon="-2.3311760">
        <ele>1213.9</ele>
        <time>2019-10-18T14:07:19Z</time>
      </trkpt>
      <trkpt lat="36.9955170" lon="-2.3312400">
        <ele>1212.8</ele>
        <time>2019-10-18T14:07:20Z</time>
      </trkpt>
      <trkpt lat="36.9955080" lon="-2.3313090">
        <ele>1212.0</ele>
        <time>2019-10-18T14:07:21Z</time>
      </trkpt>
      <trkpt lat="36.9955090" lon="-2.3313820">
        <ele>1211.0</ele>
        <time>2019-10-18T14:07:22Z</time>
      </trkpt>
      <trkpt lat="36.9955210" lon="-2.3314550">
        <ele>1210.1</ele>
        <time>2019-10-18T14:07:23Z</time>
      </trkpt>
      <trkpt lat="36.9955420" lon="-2.3315280">
        <ele>1209.0</ele>
        <time>2019-10-18T14:07:24Z</time>
      </trkpt>
      <trkpt lat="36.9955670" lon="-2.3316010">
        <ele>1207.7</ele>
        <time>2019-10-18T14:07:25Z</time>
      </trkpt>
      <trkpt lat="36.9955870" lon="-2.3316750">
        <ele>1206.6</ele>
        <time>2019-10-18T14:07:26Z</time>
      </trkpt>
      <trkpt lat="36.9955990" lon="-2.3317520">
        <ele>1204.4</ele>
        <time>2019-10-18T14:07:27Z</time>
      </trkpt>
      <trkpt lat="36.9956050" lon="-2.3318290">
        <ele>1202.3</ele>
        <time>2019-10-18T14:07:28Z</time>
      </trkpt>
      <trkpt lat="36.9956050" lon="-2.3319070">
        <ele>1200.0</ele>
        <time>2019-10-18T14:07:29Z</time>
      </trkpt>
      <trkpt lat="36.9955990" lon="-2.3319830">
        <ele>1197.3</ele>
        <time>2019-10-18T14:07:30Z</time>
      </trkpt>
      <trkpt lat="36.9955880" lon="-2.3320570">
        <ele>1194.4</ele>
        <time>2019-10-18T14:07:31Z</time>
      </trkpt>
      <trkpt lat="36.9955700" lon="-2.3321240">
        <ele>1192.0</ele>
        <time>2019-10-18T14:07:32Z</time>
      </trkpt>
      <trkpt lat="36.9955470" lon="-2.3321850">
        <ele>1190.0</ele>
        <time>2019-10-18T14:07:33Z</time>
      </trkpt>
      <trkpt lat="36.9955220" lon="-2.3322400">
        <ele>1186.6</ele>
        <time>2019-10-18T14:07:34Z</time>
      </trkpt>
      <trkpt lat="36.9954940" lon="-2.3322890">
        <ele>1183.3</ele>
        <time>2019-10-18T14:07:35Z</time>
      </trkpt>
      <trkpt lat="36.9954660" lon="-2.3323330">
        <ele>1182.3</ele>
        <time>2019-10-18T14:07:36Z</time>
      </trkpt>
      <trkpt lat="36.9954370" lon="-2.3323740">
        <ele>1180.7</ele>
        <time>2019-10-18T14:07:37Z</time>
      </trkpt>
      <trkpt lat="36.9954080" lon="-2.3324130">
        <ele>1177.9</ele>
        <time>2019-10-18T14:07:38Z</time>
      </trkpt>
      <trkpt lat="36.9953800" lon="-2.3324510">
        <ele>1174.7</ele>
        <time>2019-10-18T14:07:39Z</time>
      </trkpt>
      <trkpt lat="36.9953530" lon="-2.3324900">
        <ele>1171.0</ele>
        <time>2019-10-18T14:07:40Z</time>
      </trkpt>
      <trkpt lat="36.9953290" lon="-2.3325310">
        <ele>1168.5</ele>
        <time>2019-10-18T14:07:41Z</time>
      </trkpt>
      <trkpt lat="36.9953070" lon="-2.3325750">
        <ele>1167.0</ele>
        <time>2019-10-18T14:07:42Z</time>
      </trkpt>
      <trkpt lat="36.9952860" lon="-2.3326230">
        <ele>1166.5</ele>
        <time>2019-10-18T14:07:43Z</time>
      </trkpt>
      <trkpt lat="36.9952630" lon="-2.3326740">
        <ele>1166.9</ele>
        <time>2019-10-18T14:07:44Z</time>
      </trkpt>
      <trkpt lat="36.9952410" lon="-2.3327270">
        <ele>1168.6</ele>
        <time>2019-10-18T14:07:45Z</time>
      </trkpt>
      <trkpt lat="36.9952170" lon="-2.3327840">
        <ele>1170.8</ele>
        <time>2019-10-18T14:07:46Z</time>
      </trkpt>
      <trkpt lat="36.9951940" lon="-2.3328430">
        <ele>1173.2</ele>
        <time>2019-10-18T14:07:47Z</time>
      </trkpt>
      <trkpt lat="36.9951710" lon="-2.3329060">
        <ele>1175.0</ele>
        <time>2019-10-18T14:07:48Z</time>
      </trkpt>
      <trkpt lat="36.9951480" lon="-2.3329710">
        <ele>1176.4</ele>
        <time>2019-10-18T14:07:49Z</time>
      </trkpt>
      <trkpt lat="36.9951260" lon="-2.3330370">
        <ele>1176.2</ele>
        <time>2019-10-18T14:07:50Z</time>
      </trkpt>
      <trkpt lat="36.9951040" lon="-2.3331020">
        <ele>1175.9</ele>
        <time>2019-10-18T14:07:51Z</time>
      </trkpt>
      <trkpt lat="36.9950840" lon="-2.3331660">
        <ele>1175.6</ele>
        <time>2019-10-18T14:07:52Z</time>
      </trkpt>
      <trkpt lat="36.9950690" lon="-2.3332280">
        <ele>1175.3</ele>
        <time>2019-10-18T14:07:53Z</time>
      </trkpt>
      <trkpt lat="36.9950590" lon="-2.3332890">
        <ele>1174.8</ele>
        <time>2019-10-18T14:07:54Z</time>
      </trkpt>
      <trkpt lat="36.9950560" lon="-2.3333480">
        <ele>1174.0</ele>
        <time>2019-10-18T14:07:55Z</time>
      </trkpt>
      <trkpt lat="36.9950570" lon="-2.3334090">
        <ele>1173.4</ele>
        <time>2019-10-18T14:07:56Z</time>
      </trkpt>
      <trkpt lat="36.9950640" lon="-2.3334730">
        <ele>1173.1</ele>
        <time>2019-10-18T14:07:57Z</time>
      </trkpt>
      <trkpt lat="36.9950740" lon="-2.3335390">
        <ele>1173.2</ele>
        <time>2019-10-18T14:07:58Z</time>
      </trkpt>
      <trkpt lat="36.9950900" lon="-2.3336060">
        <ele>1172.8</ele>
        <time>2019-10-18T14:07:59Z</time>
      </trkpt>
      <trkpt lat="36.9951080" lon="-2.3336750">
        <ele>1171.9</ele>
        <time>2019-10-18T14:08:00Z</time>
      </trkpt>
      <trkpt lat="36.9951290" lon="-2.3337440">
        <ele>1170.3</ele>
        <time>2019-10-18T14:08:01Z</time>
      </trkpt>
      <trkpt lat="36.9951490" lon="-2.3338120">
        <ele>1167.0</ele>
        <time>2019-10-18T14:08:02Z</time>
      </trkpt>
      <trkpt lat="36.9951690" lon="-2.3338790">
        <ele>1164.6</ele>
        <time>2019-10-18T14:08:03Z</time>
      </trkpt>
      <trkpt lat="36.9951850" lon="-2.3339420">
        <ele>1162.6</ele>
        <time>2019-10-18T14:08:04Z</time>
      </trkpt>
      <trkpt lat="36.9951950" lon="-2.3340020">
        <ele>1161.1</ele>
        <time>2019-10-18T14:08:05Z</time>
      </trkpt>
      <trkpt lat="36.9951990" lon="-2.3340590">
        <ele>1160.2</ele>
        <time>2019-10-18T14:08:06Z</time>
      </trkpt>
      <trkpt lat="36.9952000" lon="-2.3341140">
        <ele>1160.2</ele>
        <time>2019-10-18T14:08:07Z</time>
      </trkpt>
      <trkpt lat="36.9951960" lon="-2.3341710">
        <ele>1161.3</ele>
        <time>2019-10-18T14:08:08Z</time>
      </trkpt>
      <trkpt lat="36.9951910" lon="-2.3342300">
        <ele>1163.2</ele>
        <time>2019-10-18T14:08:09Z</time>
      </trkpt>
      <trkpt lat="36.9951860" lon="-2.3342920">
        <ele>1165.6</ele>
        <time>2019-10-18T14:08:10Z</time>
      </trkpt>
      <trkpt lat="36.9951810" lon="-2.3343570">
        <ele>1168.4</ele>
        <time>2019-10-18T14:08:11Z</time>
      </trkpt>
      <trkpt lat="36.9951750" lon="-2.3344240">
        <ele>1170.0</ele>
        <time>2019-10-18T14:08:12Z</time>
      </trkpt>
      <trkpt lat="36.9951620" lon="-2.3344880">
        <ele>1171.5</ele>
        <time>2019-10-18T14:08:13Z</time>
      </trkpt>
      <trkpt lat="36.9951420" lon="-2.3345470">
        <ele>1172.6</ele>
        <time>2019-10-18T14:08:14Z</time>
      </trkpt>
      <trkpt lat="36.9951160" lon="-2.3345970">
        <ele>1173.4</ele>
        <time>2019-10-18T14:08:15Z</time>
      </trkpt>
      <trkpt lat="36.9950850" lon="-2.3346380">
        <ele>1174.8</ele>
        <time>2019-10-18T14:08:16Z</time>
      </trkpt>
      <trkpt lat="36.9950530" lon="-2.3346710">
        <ele>1175.9</ele>
        <time>2019-10-18T14:08:17Z</time>
      </trkpt>
      <trkpt lat="36.9950210" lon="-2.3346980">
        <ele>1176.7</ele>
        <time>2019-10-18T14:08:18Z</time>
      </trkpt>
      <trkpt lat="36.9949920" lon="-2.3347230">
        <ele>1177.3</ele>
        <time>2019-10-18T14:08:19Z</time>
      </trkpt>
      <trkpt lat="36.9949650" lon="-2.3347460">
        <ele>1177.6</ele>
        <time>2019-10-18T14:08:20Z</time>
      </trkpt>
      <trkpt lat="36.9949380" lon="-2.3347690">
        <ele>1177.8</ele>
        <time>2019-10-18T14:08:21Z</time>
      </trkpt>
      <trkpt lat="36.9949120" lon="-2.3347910">
        <ele>1178.0</ele>
        <time>2019-10-18T14:08:22Z</time>
      </trkpt>
      <trkpt lat="36.9948860" lon="-2.3348130">
        <ele>1178.3</ele>
        <time>2019-10-18T14:08:23Z</time>
      </trkpt>
      <trkpt lat="36.9948600" lon="-2.3348360">
        <ele>1178.5</ele>
        <time>2019-10-18T14:08:24Z</time>
      </trkpt>
      <trkpt lat="36.9948360" lon="-2.3348590">
        <ele>1178.7</ele>
        <time>2019-10-18T14:08:25Z</time>
      </trkpt>
      <trkpt lat="36.9948130" lon="-2.3348840">
        <ele>1179.0</ele>
        <time>2019-10-18T14:08:26Z</time>
      </trkpt>
      <trkpt lat="36.9947920" lon="-2.3349090">
        <ele>1178.6</ele>
        <time>2019-10-18T14:08:27Z</time>
      </trkpt>
      <trkpt lat="36.9947720" lon="-2.3349360">
        <ele>1177.8</ele>
        <time>2019-10-18T14:08:28Z</time>
      </trkpt>
      <trkpt lat="36.9947540" lon="-2.3349650">
        <ele>1176.9</ele>
        <time>2019-10-18T14:08:29Z</time>
      </trkpt>
      <trkpt lat="36.9947380" lon="-2.3349950">
        <ele>1177.1</ele>
        <time>2019-10-18T14:08:30Z</time>
      </trkpt>
      <trkpt lat="36.9947240" lon="-2.3350260">
        <ele>1177.3</ele>
        <time>2019-10-18T14:08:31Z</time>
      </trkpt>
      <trkpt lat="36.9947120" lon="-2.3350580">
        <ele>1177.3</ele>
        <time>2019-10-18T14:08:32Z</time>
      </trkpt>
      <trkpt lat="36.9947010" lon="-2.3350910">
        <ele>1176.9</ele>
        <time>2019-10-18T14:08:33Z</time>
      </trkpt>
      <trkpt lat="36.9946920" lon="-2.3351240">
        <ele>1176.5</ele>
        <time>2019-10-18T14:08:34Z</time>
      </trkpt>
      <trkpt lat="36.9946860" lon="-2.3351580">
        <ele>1175.5</ele>
        <time>2019-10-18T14:08:35Z</time>
      </trkpt>
      <trkpt lat="36.9946820" lon="-2.3351920">
        <ele>1174.4</ele>
        <time>2019-10-18T14:08:36Z</time>
      </trkpt>
      <trkpt lat="36.9946790" lon="-2.3352250">
        <ele>1173.2</ele>
        <time>2019-10-18T14:08:37Z</time>
      </trkpt>
      <trkpt lat="36.9946770" lon="-2.3352580">
        <ele>1172.2</ele>
        <time>2019-10-18T14:08:38Z</time>
      </trkpt>
      <trkpt lat="36.9946760" lon="-2.3352910">
        <ele>1171.2</ele>
        <time>2019-10-18T14:08:39Z</time>
      </trkpt>
      <trkpt lat="36.9946760" lon="-2.3353250">
        <ele>1170.2</ele>
        <time>2019-10-18T14:08:40Z</time>
      </trkpt>
      <trkpt lat="36.9946780" lon="-2.3353590">
        <ele>1169.2</ele>
        <time>2019-10-18T14:08:41Z</time>
      </trkpt>
      <trkpt lat="36.9946820" lon="-2.3353940">
        <ele>1168.2</ele>
        <time>2019-10-18T14:08:42Z</time>
      </trkpt>
      <trkpt lat="36.9946860" lon="-2.3354300">
        <ele>1167.3</ele>
        <time>2019-10-18T14:08:43Z</time>
      </trkpt>
      <trkpt lat="36.9946880" lon="-2.3354650">
        <ele>1166.9</ele>
        <time>2019-10-18T14:08:44Z</time>
      </trkpt>
      <trkpt lat="36.9946900" lon="-2.3355000">
        <ele>1166.8</ele>
        <time>2019-10-18T14:08:45Z</time>
      </trkpt>
      <trkpt lat="36.9946930" lon="-2.3355350">
        <ele>1166.6</ele>
        <time>2019-10-18T14:08:46Z</time>
      </trkpt>
      <trkpt lat="36.9946970" lon="-2.3355700">
        <ele>1166.8</ele>
        <time>2019-10-18T14:08:47Z</time>
      </trkpt>
      <trkpt lat="36.9946990" lon="-2.3356040">
        <ele>1167.1</ele>
        <time>2019-10-18T14:08:48Z</time>
      </trkpt>
      <trkpt lat="36.9947010" lon="-2.3356370">
        <ele>1167.4</ele>
        <time>2019-10-18T14:08:49Z</time>
      </trkpt>
      <trkpt lat="36.9947020" lon="-2.3356710">
        <ele>1167.7</ele>
        <time>2019-10-18T14:08:50Z</time>
      </trkpt>
      <trkpt lat="36.9947050" lon="-2.3357040">
        <ele>1167.9</ele>
        <time>2019-10-18T14:08:51Z</time>
      </trkpt>
      <trkpt lat="36.9947100" lon="-2.3357370">
        <ele>1168.0</ele>
        <time>2019-10-18T14:08:52Z</time>
      </trkpt>
      <trkpt lat="36.9947150" lon="-2.3357700">
        <ele>1167.9</ele>
        <time>2019-10-18T14:08:53Z</time>
      </trkpt>
      <trkpt lat="36.9947190" lon="-2.3358040">
        <ele>1167.8</ele>
        <time>2019-10-18T14:08:54Z</time>
      </trkpt>
      <trkpt lat="36.9947190" lon="-2.3358380">
        <ele>1166.5</ele>
        <time>2019-10-18T14:08:55Z</time>
      </trkpt>
      <trkpt lat="36.9947180" lon="-2.3358730">
        <ele>1166.5</ele>
        <time>2019-10-18T14:08:56Z</time>
      </trkpt>
      <trkpt lat="36.9947140" lon="-2.3359060">
        <ele>1166.5</ele>
        <time>2019-10-18T14:08:57Z</time>
      </trkpt>
      <trkpt lat="36.9947100" lon="-2.3359370">
        <ele>1166.5</ele>
        <time>2019-10-18T14:08:58Z</time>
      </trkpt>
      <trkpt lat="36.9947030" lon="-2.3359680">
        <ele>1166.5</ele>
        <time>2019-10-18T14:08:59Z</time>
      </trkpt>
      <trkpt lat="36.9946940" lon="-2.3359960">
        <ele>1167.5</ele>
        <time>2019-10-18T14:09:00Z</time>
      </trkpt>
      <trkpt lat="36.9946830" lon="-2.3360240">
        <ele>1168.8</ele>
        <time>2019-10-18T14:09:01Z</time>
      </trkpt>
      <trkpt lat="36.9946730" lon="-2.3360510">
        <ele>1170.1</ele>
        <time>2019-10-18T14:09:02Z</time>
      </trkpt>
      <trkpt lat="36.9946620" lon="-2.3360770">
        <ele>1171.7</ele>
        <time>2019-10-18T14:09:03Z</time>
      </trkpt>
      <trkpt lat="36.9946530" lon="-2.3361030">
        <ele>1173.4</ele>
        <time>2019-10-18T14:09:04Z</time>
      </trkpt>
      <trkpt lat="36.9946430" lon="-2.3361290">
        <ele>1175.1</ele>
        <time>2019-10-18T14:09:05Z</time>
      </trkpt>
      <trkpt lat="36.9946330" lon="-2.3361540">
        <ele>1176.8</ele>
        <time>2019-10-18T14:09:06Z</time>
      </trkpt>
      <trkpt lat="36.9946240" lon="-2.3361800">
        <ele>1178.6</ele>
        <time>2019-10-18T14:09:07Z</time>
      </trkpt>
      <trkpt lat="36.9946160" lon="-2.3362050">
        <ele>1180.3</ele>
        <time>2019-10-18T14:09:08Z</time>
      </trkpt>
      <trkpt lat="36.9946080" lon="-2.3362300">
        <ele>1182.0</ele>
        <time>2019-10-18T14:09:09Z</time>
      </trkpt>
      <trkpt lat="36.9946000" lon="-2.3362550">
        <ele>1183.6</ele>
        <time>2019-10-18T14:09:10Z</time>
      </trkpt>
      <trkpt lat="36.9945920" lon="-2.3362790">
        <ele>1185.1</ele>
        <time>2019-10-18T14:09:11Z</time>
      </trkpt>
      <trkpt lat="36.9945840" lon="-2.3363020">
        <ele>1186.5</ele>
        <time>2019-10-18T14:09:12Z</time>
      </trkpt>
      <trkpt lat="36.9945750" lon="-2.3363250">
        <ele>1188.0</ele>
        <time>2019-10-18T14:09:13Z</time>
      </trkpt>
      <trkpt lat="36.9945670" lon="-2.3363470">
        <ele>1189.4</ele>
        <time>2019-10-18T14:09:14Z</time>
      </trkpt>
      <trkpt lat="36.9945590" lon="-2.3363700">
        <ele>1190.9</ele>
        <time>2019-10-18T14:09:15Z</time>
      </trkpt>
      <trkpt lat="36.9945520" lon="-2.3363930">
        <ele>1192.4</ele>
        <time>2019-10-18T14:09:16Z</time>
      </trkpt>
      <trkpt lat="36.9945460" lon="-2.3364170">
        <ele>1193.9</ele>
        <time>2019-10-18T14:09:17Z</time>
      </trkpt>
      <trkpt lat="36.9945390" lon="-2.3364400">
        <ele>1194.9</ele>
        <time>2019-10-18T14:09:18Z</time>
      </trkpt>
      <trkpt lat="36.9945320" lon="-2.3364630">
        <ele>1195.9</ele>
        <time>2019-10-18T14:09:19Z</time>
      </trkpt>
      <trkpt lat="36.9945240" lon="-2.3364860">
        <ele>1196.8</ele>
        <time>2019-10-18T14:09:20Z</time>
      </trkpt>
      <trkpt lat="36.9945160" lon="-2.3365080">
        <ele>1197.8</ele>
        <time>2019-10-18T14:09:21Z</time>
      </trkpt>
      <trkpt lat="36.9945070" lon="-2.3365310">
        <ele>1198.7</ele>
        <time>2019-10-18T14:09:22Z</time>
      </trkpt>
      <trkpt lat="36.9944990" lon="-2.3365530">
        <ele>1199.6</ele>
        <time>2019-10-18T14:09:23Z</time>
      </trkpt>
      <trkpt lat="36.9944910" lon="-2.3365750">
        <ele>1200.5</ele>
        <time>2019-10-18T14:09:24Z</time>
      </trkpt>
      <trkpt lat="36.9944820" lon="-2.3365980">
        <ele>1201.4</ele>
        <time>2019-10-18T14:09:25Z</time>
      </trkpt>
      <trkpt lat="36.9944740" lon="-2.3366210">
        <ele>1202.3</ele>
        <time>2019-10-18T14:09:26Z</time>
      </trkpt>
      <trkpt lat="36.9944640" lon="-2.3366450">
        <ele>1203.5</ele>
        <time>2019-10-18T14:09:27Z</time>
      </trkpt>
      <trkpt lat="36.9944550" lon="-2.3366680">
        <ele>1204.6</ele>
        <time>2019-10-18T14:09:28Z</time>
      </trkpt>
      <trkpt lat="36.9944440" lon="-2.3366910">
        <ele>1205.7</ele>
        <time>2019-10-18T14:09:29Z</time>
      </trkpt>
      <trkpt lat="36.9944340" lon="-2.3367150">
        <ele>1206.9</ele>
        <time>2019-10-18T14:09:30Z</time>
      </trkpt>
      <trkpt lat="36.9944240" lon="-2.3367380">
        <ele>1207.6</ele>
        <time>2019-10-18T14:09:31Z</time>
      </trkpt>
      <trkpt lat="36.9944140" lon="-2.3367610">
        <ele>1208.3</ele>
        <time>2019-10-18T14:09:32Z</time>
      </trkpt>
      <trkpt lat="36.9944050" lon="-2.3367840">
        <ele>1209.0</ele>
        <time>2019-10-18T14:09:33Z</time>
      </trkpt>
      <trkpt lat="36.9943960" lon="-2.3368070">
        <ele>1209.7</ele>
        <time>2019-10-18T14:09:34Z</time>
      </trkpt>
      <trkpt lat="36.9943860" lon="-2.3368300">
        <ele>1210.3</ele>
        <time>2019-10-18T14:09:35Z</time>
      </trkpt>
      <trkpt lat="36.9943770" lon="-2.3368530">
        <ele>1210.9</ele>
        <time>2019-10-18T14:09:36Z</time>
      </trkpt>
      <trkpt lat="36.9943680" lon="-2.3368750">
        <ele>1211.5</ele>
        <time>2019-10-18T14:09:37Z</time>
      </trkpt>
      <trkpt lat="36.9943590" lon="-2.3368970">
        <ele>1212.1</ele>
        <time>2019-10-18T14:09:38Z</time>
      </trkpt>
      <trkpt lat="36.9943500" lon="-2.3369190">
        <ele>1212.7</ele>
        <time>2019-10-18T14:09:39Z</time>
      </trkpt>
      <trkpt lat="36.9943410" lon="-2.3369400">
        <ele>1213.4</ele>
        <time>2019-10-18T14:09:40Z</time>
      </trkpt>
      <trkpt lat="36.9943320" lon="-2.3369610">
        <ele>1214.1</ele>
        <time>2019-10-18T14:09:41Z</time>
      </trkpt>
      <trkpt lat="36.9943240" lon="-2.3369820">
        <ele>1214.8</ele>
        <time>2019-10-18T14:09:42Z</time>
      </trkpt>
      <trkpt lat="36.9943160" lon="-2.3370030">
        <ele>1215.4</ele>
        <time>2019-10-18T14:09:43Z</time>
      </trkpt>
      <trkpt lat="36.9943080" lon="-2.3370250">
        <ele>1216.2</ele>
        <time>2019-10-18T14:09:44Z</time>
      </trkpt>
      <trkpt lat="36.9943010" lon="-2.3370470">
        <ele>1216.9</ele>
        <time>2019-10-18T14:09:45Z</time>
      </trkpt>
      <trkpt lat="36.9942940" lon="-2.3370690">
        <ele>1217.7</ele>
        <time>2019-10-18T14:09:46Z</time>
      </trkpt>
      <trkpt lat="36.9942870" lon="-2.3370910">
        <ele>1218.5</ele>
        <time>2019-10-18T14:09:47Z</time>
      </trkpt>
      <trkpt lat="36.9942810" lon="-2.3371130">
        <ele>1219.1</ele>
        <time>2019-10-18T14:09:48Z</time>
      </trkpt>
      <trkpt lat="36.9942750" lon="-2.3371350">
        <ele>1219.4</ele>
        <time>2019-10-18T14:09:49Z</time>
      </trkpt>
      <trkpt lat="36.9942690" lon="-2.3371580">
        <ele>1219.8</ele>
        <time>2019-10-18T14:09:50Z</time>
      </trkpt>
      <trkpt lat="36.9942630" lon="-2.3371800">
        <ele>1220.1</ele>
        <time>2019-10-18T14:09:51Z</time>
      </trkpt>
      <trkpt lat="36.9942570" lon="-2.3372020">
        <ele>1220.5</ele>
        <time>2019-10-18T14:09:52Z</time>
      </trkpt>
      <trkpt lat="36.9942510" lon="-2.3372240">
        <ele>1221.0</ele>
        <time>2019-10-18T14:09:53Z</time>
      </trkpt>
      <trkpt lat="36.9942440" lon="-2.3372450">
        <ele>1221.5</ele>
        <time>2019-10-18T14:09:54Z</time>
      </trkpt>
      <trkpt lat="36.9942390" lon="-2.3372670">
        <ele>1222.0</ele>
        <time>2019-10-18T14:09:55Z</time>
      </trkpt>
      <trkpt lat="36.9942340" lon="-2.3372880">
        <ele>1222.5</ele>
        <time>2019-10-18T14:09:56Z</time>
      </trkpt>
      <trkpt lat="36.9942300" lon="-2.3373100">
        <ele>1222.6</ele>
        <time>2019-10-18T14:09:57Z</time>
      </trkpt>
      <trkpt lat="36.9942250" lon="-2.3373310">
        <ele>1222.8</ele>
        <time>2019-10-18T14:09:58Z</time>
      </trkpt>
      <trkpt lat="36.9942200" lon="-2.3373520">
        <ele>1223.0</ele>
        <time>2019-10-18T14:09:59Z</time>
      </trkpt>
      <trkpt lat="36.9942150" lon="-2.3373720">
        <ele>1223.2</ele>
        <time>2019-10-18T14:10:00Z</time>
      </trkpt>
      <trkpt lat="36.9942120" lon="-2.3373920">
        <ele>1223.4</ele>
        <time>2019-10-18T14:10:01Z</time>
      </trkpt>
      <trkpt lat="36.9942080" lon="-2.3374110">
        <ele>1223.7</ele>
        <time>2019-10-18T14:10:02Z</time>
      </trkpt>
      <trkpt lat="36.9942040" lon="-2.3374300">
        <ele>1224.0</ele>
        <time>2019-10-18T14:10:03Z</time>
      </trkpt>
      <trkpt lat="36.9941990" lon="-2.3374500">
        <ele>1224.3</ele>
        <time>2019-10-18T14:10:04Z</time>
      </trkpt>
      <trkpt lat="36.9941930" lon="-2.3374700">
        <ele>1224.6</ele>
        <time>2019-10-18T14:10:05Z</time>
      </trkpt>
      <trkpt lat="36.9941860" lon="-2.3374880">
        <ele>1224.7</ele>
        <time>2019-10-18T14:10:06Z</time>
      </trkpt>
      <trkpt lat="36.9941770" lon="-2.3375060">
        <ele>1224.9</ele>
        <time>2019-10-18T14:10:07Z</time>
      </trkpt>
      <trkpt lat="36.9941680" lon="-2.3375230">
        <ele>1225.0</ele>
        <time>2019-10-18T14:10:08Z</time>
      </trkpt>
      <trkpt lat="36.9941610" lon="-2.3375410">
        <ele>1225.1</ele>
        <time>2019-10-18T14:10:09Z</time>
      </trkpt>
      <trkpt lat="36.9941530" lon="-2.3375590">
        <ele>1225.2</ele>
        <time>2019-10-18T14:10:10Z</time>
      </trkpt>
      <trkpt lat="36.9941450" lon="-2.3375780">
        <ele>1225.0</ele>
        <time>2019-10-18T14:10:11Z</time>
      </trkpt>
      <trkpt lat="36.9941380" lon="-2.3375970">
        <ele>1224.9</ele>
        <time>2019-10-18T14:10:12Z</time>
      </trkpt>
      <trkpt lat="36.9941330" lon="-2.3376160">
        <ele>1224.8</ele>
        <time>2019-10-18T14:10:13Z</time>
      </trkpt>
      <trkpt lat="36.9941300" lon="-2.3376380">
        <ele>1224.6</ele>
        <time>2019-10-18T14:10:14Z</time>
      </trkpt>
      <trkpt lat="36.9941300" lon="-2.3376590">
        <ele>1224.9</ele>
        <time>2019-10-18T14:10:15Z</time>
      </trkpt>
      <trkpt lat="36.9941310" lon="-2.3376800">
        <ele>1225.2</ele>
        <time>2019-10-18T14:10:16Z</time>
      </trkpt>
      <trkpt lat="36.9941270" lon="-2.3376990">
        <ele>1225.5</ele>
        <time>2019-10-18T14:10:17Z</time>
      </trkpt>
      <trkpt lat="36.9941200" lon="-2.3377160">
        <ele>1225.7</ele>
        <time>2019-10-18T14:10:18Z</time>
      </trkpt>
      <trkpt lat="36.9941080" lon="-2.3377300">
        <ele>1226.0</ele>
        <time>2019-10-18T14:10:19Z</time>
      </trkpt>
      <trkpt lat="36.9940950" lon="-2.3377390">
        <ele>1226.0</ele>
        <time>2019-10-18T14:10:20Z</time>
      </trkpt>
      <trkpt lat="36.9940780" lon="-2.3377450">
        <ele>1225.9</ele>
        <time>2019-10-18T14:10:21Z</time>
      </trkpt>
      <trkpt lat="36.9940610" lon="-2.3377490">
        <ele>1225.9</ele>
        <time>2019-10-18T14:10:22Z</time>
      </trkpt>
      <trkpt lat="36.9940430" lon="-2.3377530">
        <ele>1225.9</ele>
        <time>2019-10-18T14:10:23Z</time>
      </trkpt>
      <trkpt lat="36.9940260" lon="-2.3377580">
        <ele>1226.1</ele>
        <time>2019-10-18T14:10:24Z</time>
      </trkpt>
      <trkpt lat="36.9940100" lon="-2.3377620">
        <ele>1226.6</ele>
        <time>2019-10-18T14:10:25Z</time>
      </trkpt>
      <trkpt lat="36.9939950" lon="-2.3377640">
        <ele>1227.0</ele>
        <time>2019-10-18T14:10:26Z</time>
      </trkpt>
      <trkpt lat="36.9939800" lon="-2.3377630">
        <ele>1227.4</ele>
        <time>2019-10-18T14:10:27Z</time>
      </trkpt>
      <trkpt lat="36.9939660" lon="-2.3377570">
        <ele>1227.6</ele>
        <time>2019-10-18T14:10:28Z</time>
      </trkpt>
      <trkpt lat="36.9939540" lon="-2.3377430">
        <ele>1227.8</ele>
        <time>2019-10-18T14:10:29Z</time>
      </trkpt>
      <trkpt lat="36.9939410" lon="-2.3377270">
        <ele>1228.0</ele>
        <time>2019-10-18T14:10:30Z</time>
      </trkpt>
      <trkpt lat="36.9939300" lon="-2.3377080">
        <ele>1228.4</ele>
        <time>2019-10-18T14:10:31Z</time>
      </trkpt>
      <trkpt lat="36.9939210" lon="-2.3376900">
        <ele>1228.7</ele>
        <time>2019-10-18T14:10:32Z</time>
      </trkpt>
      <trkpt lat="36.9939120" lon="-2.3376710">
        <ele>1229.0</ele>
        <time>2019-10-18T14:10:33Z</time>
      </trkpt>
      <trkpt lat="36.9939060" lon="-2.3376520">
        <ele>1229.2</ele>
        <time>2019-10-18T14:10:34Z</time>
      </trkpt>
      <trkpt lat="36.9938990" lon="-2.3376330">
        <ele>1229.4</ele>
        <time>2019-10-18T14:10:35Z</time>
      </trkpt>
      <trkpt lat="36.9938950" lon="-2.3376140">
        <ele>1229.5</ele>
        <time>2019-10-18T14:10:36Z</time>
      </trkpt>
      <trkpt lat="36.9938920" lon="-2.3375930">
        <ele>1229.6</ele>
        <time>2019-10-18T14:10:37Z</time>
      </trkpt>
      <trkpt lat="36.9938870" lon="-2.3375720">
        <ele>1229.8</ele>
        <time>2019-10-18T14:10:38Z</time>
      </trkpt>
      <trkpt lat="36.9938820" lon="-2.3375510">
        <ele>1229.8</ele>
        <time>2019-10-18T14:10:39Z</time>
      </trkpt>
      <trkpt lat="36.9938760" lon="-2.3375290">
        <ele>1229.8</ele>
        <time>2019-10-18T14:10:40Z</time>
      </trkpt>
      <trkpt lat="36.9938710" lon="-2.3375060">
        <ele>1229.8</ele>
        <time>2019-10-18T14:10:41Z</time>
      </trkpt>
      <trkpt lat="36.9938650" lon="-2.3374830">
        <ele>1229.8</ele>
        <time>2019-10-18T14:10:42Z</time>
      </trkpt>
      <trkpt lat="36.9938590" lon="-2.3374610">
        <ele>1229.7</ele>
        <time>2019-10-18T14:10:43Z</time>
      </trkpt>
      <trkpt lat="36.9938550" lon="-2.3374390">
        <ele>1229.6</ele>
        <time>2019-10-18T14:10:44Z</time>
      </trkpt>
      <trkpt lat="36.9938520" lon="-2.3374180">
        <ele>1229.6</ele>
        <time>2019-10-18T14:10:45Z</time>
      </trkpt>
      <trkpt lat="36.9938500" lon="-2.3373970">
        <ele>1229.5</ele>
        <time>2019-10-18T14:10:46Z</time>
      </trkpt>
      <trkpt lat="36.9938480" lon="-2.3373750">
        <ele>1229.2</ele>
        <time>2019-10-18T14:10:47Z</time>
      </trkpt>
      <trkpt lat="36.9938440" lon="-2.3373520">
        <ele>1229.0</ele>
        <time>2019-10-18T14:10:48Z</time>
      </trkpt>
      <trkpt lat="36.9938400" lon="-2.3373280">
        <ele>1228.7</ele>
        <time>2019-10-18T14:10:49Z</time>
      </trkpt>
      <trkpt lat="36.9938330" lon="-2.3373030">
        <ele>1228.4</ele>
        <time>2019-10-18T14:10:50Z</time>
      </trkpt>
      <trkpt lat="36.9938240" lon="-2.3372790">
        <ele>1228.2</ele>
        <time>2019-10-18T14:10:51Z</time>
      </trkpt>
      <trkpt lat="36.9938160" lon="-2.3372540">
        <ele>1228.1</ele>
        <time>2019-10-18T14:10:52Z</time>
      </trkpt>
      <trkpt lat="36.9938080" lon="-2.3372290">
        <ele>1228.0</ele>
        <time>2019-10-18T14:10:53Z</time>
      </trkpt>
      <trkpt lat="36.9938010" lon="-2.3372050">
        <ele>1227.7</ele>
        <time>2019-10-18T14:10:54Z</time>
      </trkpt>
      <trkpt lat="36.9937940" lon="-2.3371810">
        <ele>1227.3</ele>
        <time>2019-10-18T14:10:55Z</time>
      </trkpt>
      <trkpt lat="36.9937870" lon="-2.3371580">
        <ele>1227.0</ele>
        <time>2019-10-18T14:10:56Z</time>
      </trkpt>
      <trkpt lat="36.9937780" lon="-2.3371350">
        <ele>1226.6</ele>
        <time>2019-10-18T14:10:57Z</time>
      </trkpt>
      <trkpt lat="36.9937680" lon="-2.3371120">
        <ele>1226.2</ele>
        <time>2019-10-18T14:10:58Z</time>
      </trkpt>
      <trkpt lat="36.9937560" lon="-2.3370900">
        <ele>1225.9</ele>
        <time>2019-10-18T14:10:59Z</time>
      </trkpt>
      <trkpt lat="36.9937450" lon="-2.3370680">
        <ele>1225.5</ele>
        <time>2019-10-18T14:11:00Z</time>
      </trkpt>
      <trkpt lat="36.9937330" lon="-2.3370480">
        <ele>1224.9</ele>
        <time>2019-10-18T14:11:01Z</time>
      </trkpt>
      <trkpt lat="36.9937210" lon="-2.3370280">
        <ele>1224.2</ele>
        <time>2019-10-18T14:11:02Z</time>
      </trkpt>
      <trkpt lat="36.9937090" lon="-2.3370090">
        <ele>1223.4</ele>
        <time>2019-10-18T14:11:03Z</time>
      </trkpt>
      <trkpt lat="36.9936960" lon="-2.3369910">
        <ele>1222.7</ele>
        <time>2019-10-18T14:11:04Z</time>
      </trkpt>
      <trkpt lat="36.9936810" lon="-2.3369750">
        <ele>1222.2</ele>
        <time>2019-10-18T14:11:05Z</time>
      </trkpt>
      <trkpt lat="36.9936630" lon="-2.3369620">
        <ele>1221.6</ele>
        <time>2019-10-18T14:11:06Z</time>
      </trkpt>
      <trkpt lat="36.9936400" lon="-2.3369520">
        <ele>1221.0</ele>
        <time>2019-10-18T14:11:07Z</time>
      </trkpt>
      <trkpt lat="36.9936160" lon="-2.3369450">
        <ele>1220.4</ele>
        <time>2019-10-18T14:11:08Z</time>
      </trkpt>
      <trkpt lat="36.9935930" lon="-2.3369410">
        <ele>1219.7</ele>
        <time>2019-10-18T14:11:09Z</time>
      </trkpt>
      <trkpt lat="36.9935700" lon="-2.3369390">
        <ele>1219.1</ele>
        <time>2019-10-18T14:11:10Z</time>
      </trkpt>
      <trkpt lat="36.9935480" lon="-2.3369360">
        <ele>1218.4</ele>
        <time>2019-10-18T14:11:11Z</time>
      </trkpt>
      <trkpt lat="36.9935260" lon="-2.3369320">
        <ele>1217.7</ele>
        <time>2019-10-18T14:11:12Z</time>
      </trkpt>
      <trkpt lat="36.9935050" lon="-2.3369290">
        <ele>1217.0</ele>
        <time>2019-10-18T14:11:13Z</time>
      </trkpt>
      <trkpt lat="36.9934850" lon="-2.3369270">
        <ele>1216.5</ele>
        <time>2019-10-18T14:11:14Z</time>
      </trkpt>
      <trkpt lat="36.9934650" lon="-2.3369260">
        <ele>1216.1</ele>
        <time>2019-10-18T14:11:15Z</time>
      </trkpt>
      <trkpt lat="36.9934450" lon="-2.3369250">
        <ele>1215.6</ele>
        <time>2019-10-18T14:11:16Z</time>
      </trkpt>
      <trkpt lat="36.9934230" lon="-2.3369260">
        <ele>1215.1</ele>
        <time>2019-10-18T14:11:17Z</time>
      </trkpt>
      <trkpt lat="36.9934010" lon="-2.3369260">
        <ele>1214.5</ele>
        <time>2019-10-18T14:11:18Z</time>
      </trkpt>
      <trkpt lat="36.9933800" lon="-2.3369270">
        <ele>1213.8</ele>
        <time>2019-10-18T14:11:19Z</time>
      </trkpt>
      <trkpt lat="36.9933590" lon="-2.3369270">
        <ele>1213.1</ele>
        <time>2019-10-18T14:11:20Z</time>
      </trkpt>
      <trkpt lat="36.9933390" lon="-2.3369280">
        <ele>1212.4</ele>
        <time>2019-10-18T14:11:21Z</time>
      </trkpt>
      <trkpt lat="36.9933190" lon="-2.3369280">
        <ele>1211.9</ele>
        <time>2019-10-18T14:11:22Z</time>
      </trkpt>
      <trkpt lat="36.9932990" lon="-2.3369280">
        <ele>1211.4</ele>
        <time>2019-10-18T14:11:23Z</time>
      </trkpt>
      <trkpt lat="36.9932790" lon="-2.3369280">
        <ele>1211.0</ele>
        <time>2019-10-18T14:11:24Z</time>
      </trkpt>
      <trkpt lat="36.9932590" lon="-2.3369300">
        <ele>1210.6</ele>
        <time>2019-10-18T14:11:25Z</time>
      </trkpt>
      <trkpt lat="36.9932390" lon="-2.3369330">
        <ele>1210.0</ele>
        <time>2019-10-18T14:11:26Z</time>
      </trkpt>
      <trkpt lat="36.9932190" lon="-2.3369360">
        <ele>1209.4</ele>
        <time>2019-10-18T14:11:27Z</time>
      </trkpt>
      <trkpt lat="36.9932010" lon="-2.3369370">
        <ele>1208.8</ele>
        <time>2019-10-18T14:11:28Z</time>
      </trkpt>
      <trkpt lat="36.9931830" lon="-2.3369380">
        <ele>1208.2</ele>
        <time>2019-10-18T14:11:29Z</time>
      </trkpt>
      <trkpt lat="36.9931650" lon="-2.3369380">
        <ele>1207.6</ele>
        <time>2019-10-18T14:11:30Z</time>
      </trkpt>
      <trkpt lat="36.9931480" lon="-2.3369380">
        <ele>1207.3</ele>
        <time>2019-10-18T14:11:31Z</time>
      </trkpt>
      <trkpt lat="36.9931310" lon="-2.3369380">
        <ele>1207.0</ele>
        <time>2019-10-18T14:11:32Z</time>
      </trkpt>
      <trkpt lat="36.9931130" lon="-2.3369390">
        <ele>1206.6</ele>
        <time>2019-10-18T14:11:33Z</time>
      </trkpt>
      <trkpt lat="36.9930950" lon="-2.3369420">
        <ele>1206.3</ele>
        <time>2019-10-18T14:11:34Z</time>
      </trkpt>
      <trkpt lat="36.9930770" lon="-2.3369440">
        <ele>1205.9</ele>
        <time>2019-10-18T14:11:35Z</time>
      </trkpt>
      <trkpt lat="36.9930580" lon="-2.3369470">
        <ele>1205.5</ele>
        <time>2019-10-18T14:11:36Z</time>
      </trkpt>
      <trkpt lat="36.9930400" lon="-2.3369480">
        <ele>1205.1</ele>
        <time>2019-10-18T14:11:37Z</time>
      </trkpt>
      <trkpt lat="36.9930210" lon="-2.3369490">
        <ele>1204.8</ele>
        <time>2019-10-18T14:11:38Z</time>
      </trkpt>
      <trkpt lat="36.9930030" lon="-2.3369500">
        <ele>1204.4</ele>
        <time>2019-10-18T14:11:39Z</time>
      </trkpt>
      <trkpt lat="36.9929850" lon="-2.3369500">
        <ele>1204.1</ele>
        <time>2019-10-18T14:11:40Z</time>
      </trkpt>
      <trkpt lat="36.9929680" lon="-2.3369510">
        <ele>1203.8</ele>
        <time>2019-10-18T14:11:41Z</time>
      </trkpt>
      <trkpt lat="36.9929500" lon="-2.3369510">
        <ele>1203.6</ele>
        <time>2019-10-18T14:11:42Z</time>
      </trkpt>
      <trkpt lat="36.9929330" lon="-2.3369520">
        <ele>1203.4</ele>
        <time>2019-10-18T14:11:43Z</time>
      </trkpt>
      <trkpt lat="36.9929150" lon="-2.3369540">
        <ele>1203.1</ele>
        <time>2019-10-18T14:11:44Z</time>
      </trkpt>
      <trkpt lat="36.9928970" lon="-2.3369560">
        <ele>1203.0</ele>
        <time>2019-10-18T14:11:45Z</time>
      </trkpt>
      <trkpt lat="36.9928800" lon="-2.3369570">
        <ele>1203.0</ele>
        <time>2019-10-18T14:11:46Z</time>
      </trkpt>
      <trkpt lat="36.9928620" lon="-2.3369580">
        <ele>1202.9</ele>
        <time>2019-10-18T14:11:47Z</time>
      </trkpt>
      <trkpt lat="36.9928440" lon="-2.3369590">
        <ele>1202.9</ele>
        <time>2019-10-18T14:11:48Z</time>
      </trkpt>
      <trkpt lat="36.9928270" lon="-2.3369590">
        <ele>1202.9</ele>
        <time>2019-10-18T14:11:49Z</time>
      </trkpt>
      <trkpt lat="36.9928090" lon="-2.3369580">
        <ele>1203.0</ele>
        <time>2019-10-18T14:11:50Z</time>
      </trkpt>
      <trkpt lat="36.9927920" lon="-2.3369580">
        <ele>1203.2</ele>
        <time>2019-10-18T14:11:51Z</time>
      </trkpt>
      <trkpt lat="36.9927750" lon="-2.3369590">
        <ele>1203.4</ele>
        <time>2019-10-18T14:11:52Z</time>
      </trkpt>
      <trkpt lat="36.9927580" lon="-2.3369600">
        <ele>1203.5</ele>
        <time>2019-10-18T14:11:53Z</time>
      </trkpt>
      <trkpt lat="36.9927410" lon="-2.3369610">
        <ele>1203.7</ele>
        <time>2019-10-18T14:11:54Z</time>
      </trkpt>
      <trkpt lat="36.9927220" lon="-2.3369650">
        <ele>1204.1</ele>
        <time>2019-10-18T14:11:55Z</time>
      </trkpt>
      <trkpt lat="36.9927040" lon="-2.3369710">
        <ele>1204.4</ele>
        <time>2019-10-18T14:11:56Z</time>
      </trkpt>
      <trkpt lat="36.9926850" lon="-2.3369790">
        <ele>1204.7</ele>
        <time>2019-10-18T14:11:57Z</time>
      </trkpt>
      <trkpt lat="36.9926680" lon="-2.3369890">
        <ele>1205.0</ele>
        <time>2019-10-18T14:11:58Z</time>
      </trkpt>
      <trkpt lat="36.9926540" lon="-2.3370030">
        <ele>1205.4</ele>
        <time>2019-10-18T14:11:59Z</time>
      </trkpt>
      <trkpt lat="36.9926410" lon="-2.3370210">
        <ele>1205.8</ele>
        <time>2019-10-18T14:12:00Z</time>
      </trkpt>
      <trkpt lat="36.9926310" lon="-2.3370410">
        <ele>1206.3</ele>
        <time>2019-10-18T14:12:01Z</time>
      </trkpt>
      <trkpt lat="36.9926240" lon="-2.3370620">
        <ele>1206.7</ele>
        <time>2019-10-18T14:12:02Z</time>
      </trkpt>
      <trkpt lat="36.9926190" lon="-2.3370830">
        <ele>1207.3</ele>
        <time>2019-10-18T14:12:03Z</time>
      </trkpt>
      <trkpt lat="36.9926170" lon="-2.3371050">
        <ele>1207.9</ele>
        <time>2019-10-18T14:12:04Z</time>
      </trkpt>
      <trkpt lat="36.9926170" lon="-2.3371280">
        <ele>1208.6</ele>
        <time>2019-10-18T14:12:05Z</time>
      </trkpt>
      <trkpt lat="36.9926180" lon="-2.3371500">
        <ele>1208.9</ele>
        <time>2019-10-18T14:12:06Z</time>
      </trkpt>
      <trkpt lat="36.9926210" lon="-2.3371730">
        <ele>1209.0</ele>
        <time>2019-10-18T14:12:07Z</time>
      </trkpt>
      <trkpt lat="36.9926250" lon="-2.3371970">
        <ele>1209.1</ele>
        <time>2019-10-18T14:12:08Z</time>
      </trkpt>
      <trkpt lat="36.9926320" lon="-2.3372200">
        <ele>1209.1</ele>
        <time>2019-10-18T14:12:09Z</time>
      </trkpt>
      <trkpt lat="36.9926400" lon="-2.3372430">
        <ele>1209.4</ele>
        <time>2019-10-18T14:12:10Z</time>
      </trkpt>
      <trkpt lat="36.9926480" lon="-2.3372650">
        <ele>1209.9</ele>
        <time>2019-10-18T14:12:11Z</time>
      </trkpt>
      <trkpt lat="36.9926560" lon="-2.3372880">
        <ele>1210.4</ele>
        <time>2019-10-18T14:12:12Z</time>
      </trkpt>
      <trkpt lat="36.9926650" lon="-2.3373110">
        <ele>1210.9</ele>
        <time>2019-10-18T14:12:13Z</time>
      </trkpt>
      <trkpt lat="36.9926740" lon="-2.3373340">
        <ele>1211.3</ele>
        <time>2019-10-18T14:12:14Z</time>
      </trkpt>
      <trkpt lat="36.9926820" lon="-2.3373580">
        <ele>1211.6</ele>
        <time>2019-10-18T14:12:15Z</time>
      </trkpt>
      <trkpt lat="36.9926900" lon="-2.3373810">
        <ele>1211.8</ele>
        <time>2019-10-18T14:12:16Z</time>
      </trkpt>
      <trkpt lat="36.9926970" lon="-2.3374040">
        <ele>1212.1</ele>
        <time>2019-10-18T14:12:17Z</time>
      </trkpt>
      <trkpt lat="36.9927050" lon="-2.3374280">
        <ele>1212.5</ele>
        <time>2019-10-18T14:12:18Z</time>
      </trkpt>
      <trkpt lat="36.9927140" lon="-2.3374510">
        <ele>1213.2</ele>
        <time>2019-10-18T14:12:19Z</time>
      </trkpt>
      <trkpt lat="36.9927220" lon="-2.3374750">
        <ele>1213.8</ele>
        <time>2019-10-18T14:12:20Z</time>
      </trkpt>
      <trkpt lat="36.9927290" lon="-2.3374980">
        <ele>1214.5</ele>
        <time>2019-10-18T14:12:21Z</time>
      </trkpt>
      <trkpt lat="36.9927350" lon="-2.3375220">
        <ele>1215.0</ele>
        <time>2019-10-18T14:12:22Z</time>
      </trkpt>
      <trkpt lat="36.9927400" lon="-2.3375450">
        <ele>1215.3</ele>
        <time>2019-10-18T14:12:23Z</time>
      </trkpt>
      <trkpt lat="36.9927460" lon="-2.3375690">
        <ele>1215.6</ele>
        <time>2019-10-18T14:12:24Z</time>
      </trkpt>
      <trkpt lat="36.9927520" lon="-2.3375930">
        <ele>1215.9</ele>
        <time>2019-10-18T14:12:25Z</time>
      </trkpt>
      <trkpt lat="36.9927580" lon="-2.3376170">
        <ele>1216.2</ele>
        <time>2019-10-18T14:12:26Z</time>
      </trkpt>
      <trkpt lat="36.9927640" lon="-2.3376420">
        <ele>1216.4</ele>
        <time>2019-10-18T14:12:27Z</time>
      </trkpt>
      <trkpt lat="36.9927700" lon="-2.3376660">
        <ele>1216.6</ele>
        <time>2019-10-18T14:12:28Z</time>
      </trkpt>
      <trkpt lat="36.9927760" lon="-2.3376920">
        <ele>1216.9</ele>
        <time>2019-10-18T14:12:29Z</time>
      </trkpt>
      <trkpt lat="36.9927810" lon="-2.3377180">
        <ele>1217.1</ele>
        <time>2019-10-18T14:12:30Z</time>
      </trkpt>
      <trkpt lat="36.9927860" lon="-2.3377440">
        <ele>1217.5</ele>
        <time>2019-10-18T14:12:31Z</time>
      </trkpt>
      <trkpt lat="36.9927910" lon="-2.3377700">
        <ele>1217.9</ele>
        <time>2019-10-18T14:12:32Z</time>
      </trkpt>
      <trkpt lat="36.9927970" lon="-2.3377960">
        <ele>1218.3</ele>
        <time>2019-10-18T14:12:33Z</time>
      </trkpt>
      <trkpt lat="36.9928020" lon="-2.3378220">
        <ele>1218.8</ele>
        <time>2019-10-18T14:12:34Z</time>
      </trkpt>
      <trkpt lat="36.9928060" lon="-2.3378480">
        <ele>1219.2</ele>
        <time>2019-10-18T14:12:35Z</time>
      </trkpt>
      <trkpt lat="36.9928100" lon="-2.3378730">
        <ele>1219.6</ele>
        <time>2019-10-18T14:12:36Z</time>
      </trkpt>
      <trkpt lat="36.9928150" lon="-2.3378990">
        <ele>1220.0</ele>
        <time>2019-10-18T14:12:37Z</time>
      </trkpt>
      <trkpt lat="36.9928190" lon="-2.3379240">
        <ele>1220.5</ele>
        <time>2019-10-18T14:12:38Z</time>
      </trkpt>
      <trkpt lat="36.9928230" lon="-2.3379500">
        <ele>1220.9</ele>
        <time>2019-10-18T14:12:39Z</time>
      </trkpt>
      <trkpt lat="36.9928280" lon="-2.3379750">
        <ele>1221.3</ele>
        <time>2019-10-18T14:12:40Z</time>
      </trkpt>
      <trkpt lat="36.9928320" lon="-2.3380000">
        <ele>1221.7</ele>
        <time>2019-10-18T14:12:41Z</time>
      </trkpt>
      <trkpt lat="36.9928370" lon="-2.3380250">
        <ele>1222.1</ele>
        <time>2019-10-18T14:12:42Z</time>
      </trkpt>
      <trkpt lat="36.9928400" lon="-2.3380510">
        <ele>1222.6</ele>
        <time>2019-10-18T14:12:43Z</time>
      </trkpt>
      <trkpt lat="36.9928420" lon="-2.3380770">
        <ele>1223.1</ele>
        <time>2019-10-18T14:12:44Z</time>
      </trkpt>
      <trkpt lat="36.9928440" lon="-2.3381030">
        <ele>1223.6</ele>
        <time>2019-10-18T14:12:45Z</time>
      </trkpt>
      <trkpt lat="36.9928450" lon="-2.3381290">
        <ele>1224.1</ele>
        <time>2019-10-18T14:12:46Z</time>
      </trkpt>
      <trkpt lat="36.9928450" lon="-2.3381540">
        <ele>1224.6</ele>
        <time>2019-10-18T14:12:47Z</time>
      </trkpt>
      <trkpt lat="36.9928430" lon="-2.3381800">
        <ele>1225.1</ele>
        <time>2019-10-18T14:12:48Z</time>
      </trkpt>
      <trkpt lat="36.9928400" lon="-2.3382070">
        <ele>1225.7</ele>
        <time>2019-10-18T14:12:49Z</time>
      </trkpt>
      <trkpt lat="36.9928350" lon="-2.3382340">
        <ele>1226.3</ele>
        <time>2019-10-18T14:12:50Z</time>
      </trkpt>
      <trkpt lat="36.9928300" lon="-2.3382610">
        <ele>1226.9</ele>
        <time>2019-10-18T14:12:51Z</time>
      </trkpt>
      <trkpt lat="36.9928230" lon="-2.3382890">
        <ele>1227.6</ele>
        <time>2019-10-18T14:12:52Z</time>
      </trkpt>
      <trkpt lat="36.9928150" lon="-2.3383160">
        <ele>1228.2</ele>
        <time>2019-10-18T14:12:53Z</time>
      </trkpt>
      <trkpt lat="36.9928050" lon="-2.3383420">
        <ele>1229.0</ele>
        <time>2019-10-18T14:12:54Z</time>
      </trkpt>
      <trkpt lat="36.9927940" lon="-2.3383680">
        <ele>1230.2</ele>
        <time>2019-10-18T14:12:55Z</time>
      </trkpt>
      <trkpt lat="36.9927820" lon="-2.3383920">
        <ele>1231.3</ele>
        <time>2019-10-18T14:12:56Z</time>
      </trkpt>
      <trkpt lat="36.9927700" lon="-2.3384180">
        <ele>1232.4</ele>
        <time>2019-10-18T14:12:57Z</time>
      </trkpt>
      <trkpt lat="36.9927590" lon="-2.3384440">
        <ele>1233.6</ele>
        <time>2019-10-18T14:12:58Z</time>
      </trkpt>
      <trkpt lat="36.9927490" lon="-2.3384720">
        <ele>1234.8</ele>
        <time>2019-10-18T14:12:59Z</time>
      </trkpt>
      <trkpt lat="36.9927380" lon="-2.3385010">
        <ele>1236.0</ele>
        <time>2019-10-18T14:13:00Z</time>
      </trkpt>
      <trkpt lat="36.9927280" lon="-2.3385300">
        <ele>1237.2</ele>
        <time>2019-10-18T14:13:01Z</time>
      </trkpt>
      <trkpt lat="36.9927180" lon="-2.3385590">
        <ele>1238.4</ele>
        <time>2019-10-18T14:13:02Z</time>
      </trkpt>
      <trkpt lat="36.9927070" lon="-2.3385880">
        <ele>1239.6</ele>
        <time>2019-10-18T14:13:03Z</time>
      </trkpt>
      <trkpt lat="36.9926940" lon="-2.3386170">
        <ele>1240.7</ele>
        <time>2019-10-18T14:13:04Z</time>
      </trkpt>
      <trkpt lat="36.9926810" lon="-2.3386440">
        <ele>1241.8</ele>
        <time>2019-10-18T14:13:05Z</time>
      </trkpt>
      <trkpt lat="36.9926650" lon="-2.3386700">
        <ele>1242.9</ele>
        <time>2019-10-18T14:13:06Z</time>
      </trkpt>
      <trkpt lat="36.9926480" lon="-2.3386940">
        <ele>1244.0</ele>
        <time>2019-10-18T14:13:07Z</time>
      </trkpt>
      <trkpt lat="36.9926290" lon="-2.3387160">
        <ele>1245.0</ele>
        <time>2019-10-18T14:13:08Z</time>
      </trkpt>
      <trkpt lat="36.9926080" lon="-2.3387350">
        <ele>1246.1</ele>
        <time>2019-10-18T14:13:09Z</time>
      </trkpt>
      <trkpt lat="36.9925870" lon="-2.3387520">
        <ele>1247.0</ele>
        <time>2019-10-18T14:13:10Z</time>
      </trkpt>
      <trkpt lat="36.9925640" lon="-2.3387670">
        <ele>1248.0</ele>
        <time>2019-10-18T14:13:11Z</time>
      </trkpt>
      <trkpt lat="36.9925420" lon="-2.3387790">
        <ele>1248.9</ele>
        <time>2019-10-18T14:13:12Z</time>
      </trkpt>
      <trkpt lat="36.9925190" lon="-2.3387890">
        <ele>1249.6</ele>
        <time>2019-10-18T14:13:13Z</time>
      </trkpt>
      <trkpt lat="36.9924960" lon="-2.3387960">
        <ele>1250.3</ele>
        <time>2019-10-18T14:13:14Z</time>
      </trkpt>
      <trkpt lat="36.9924730" lon="-2.3388010">
        <ele>1250.9</ele>
        <time>2019-10-18T14:13:15Z</time>
      </trkpt>
      <trkpt lat="36.9924490" lon="-2.3388040">
        <ele>1251.5</ele>
        <time>2019-10-18T14:13:16Z</time>
      </trkpt>
      <trkpt lat="36.9924240" lon="-2.3388050">
        <ele>1252.2</ele>
        <time>2019-10-18T14:13:17Z</time>
      </trkpt>
      <trkpt lat="36.9923990" lon="-2.3388040">
        <ele>1252.8</ele>
        <time>2019-10-18T14:13:18Z</time>
      </trkpt>
      <trkpt lat="36.9923750" lon="-2.3388030">
        <ele>1253.3</ele>
        <time>2019-10-18T14:13:19Z</time>
      </trkpt>
      <trkpt lat="36.9923510" lon="-2.3387990">
        <ele>1253.8</ele>
        <time>2019-10-18T14:13:20Z</time>
      </trkpt>
      <trkpt lat="36.9923270" lon="-2.3387940">
        <ele>1254.1</ele>
        <time>2019-10-18T14:13:21Z</time>
      </trkpt>
      <trkpt lat="36.9923040" lon="-2.3387880">
        <ele>1254.4</ele>
        <time>2019-10-18T14:13:22Z</time>
      </trkpt>
      <trkpt lat="36.9922820" lon="-2.3387800">
        <ele>1254.7</ele>
        <time>2019-10-18T14:13:23Z</time>
      </trkpt>
      <trkpt lat="36.9922600" lon="-2.3387700">
        <ele>1255.0</ele>
        <time>2019-10-18T14:13:24Z</time>
      </trkpt>
      <trkpt lat="36.9922380" lon="-2.3387610">
        <ele>1255.0</ele>
        <time>2019-10-18T14:13:25Z</time>
      </trkpt>
      <trkpt lat="36.9922160" lon="-2.3387530">
        <ele>1255.1</ele>
        <time>2019-10-18T14:13:26Z</time>
      </trkpt>
      <trkpt lat="36.9921940" lon="-2.3387460">
        <ele>1255.2</ele>
        <time>2019-10-18T14:13:27Z</time>
      </trkpt>
      <trkpt lat="36.9921720" lon="-2.3387380">
        <ele>1255.3</ele>
        <time>2019-10-18T14:13:28Z</time>
      </trkpt>
      <trkpt lat="36.9921500" lon="-2.3387290">
        <ele>1255.1</ele>
        <time>2019-10-18T14:13:29Z</time>
      </trkpt>
      <trkpt lat="36.9921280" lon="-2.3387190">
        <ele>1255.0</ele>
        <time>2019-10-18T14:13:30Z</time>
      </trkpt>
      <trkpt lat="36.9921070" lon="-2.3387090">
        <ele>1254.9</ele>
        <time>2019-10-18T14:13:31Z</time>
      </trkpt>
      <trkpt lat="36.9920870" lon="-2.3387000">
        <ele>1254.8</ele>
        <time>2019-10-18T14:13:32Z</time>
      </trkpt>
      <trkpt lat="36.9920650" lon="-2.3386910">
        <ele>1254.6</ele>
        <time>2019-10-18T14:13:33Z</time>
      </trkpt>
      <trkpt lat="36.9920430" lon="-2.3386820">
        <ele>1254.4</ele>
        <time>2019-10-18T14:13:34Z</time>
      </trkpt>
      <trkpt lat="36.9920180" lon="-2.3386740">
        <ele>1254.2</ele>
        <time>2019-10-18T14:13:35Z</time>
      </trkpt>
      <trkpt lat="36.9919940" lon="-2.3386650">
        <ele>1253.8</ele>
        <time>2019-10-18T14:13:36Z</time>
      </trkpt>
      <trkpt lat="36.9919690" lon="-2.3386560">
        <ele>1253.4</ele>
        <time>2019-10-18T14:13:37Z</time>
      </trkpt>
      <trkpt lat="36.9919450" lon="-2.3386480">
        <ele>1253.0</ele>
        <time>2019-10-18T14:13:38Z</time>
      </trkpt>
      <trkpt lat="36.9919210" lon="-2.3386410">
        <ele>1252.6</ele>
        <time>2019-10-18T14:13:39Z</time>
      </trkpt>
      <trkpt lat="36.9918960" lon="-2.3386390">
        <ele>1252.1</ele>
        <time>2019-10-18T14:13:40Z</time>
      </trkpt>
      <trkpt lat="36.9918710" lon="-2.3386400">
        <ele>1251.5</ele>
        <time>2019-10-18T14:13:41Z</time>
      </trkpt>
      <trkpt lat="36.9918450" lon="-2.3386460">
        <ele>1250.9</ele>
        <time>2019-10-18T14:13:42Z</time>
      </trkpt>
      <trkpt lat="36.9918200" lon="-2.3386550">
        <ele>1250.3</ele>
        <time>2019-10-18T14:13:43Z</time>
      </trkpt>
      <trkpt lat="36.9917970" lon="-2.3386670">
        <ele>1250.1</ele>
        <time>2019-10-18T14:13:44Z</time>
      </trkpt>
      <trkpt lat="36.9917750" lon="-2.3386810">
        <ele>1249.8</ele>
        <time>2019-10-18T14:13:45Z</time>
      </trkpt>
      <trkpt lat="36.9917580" lon="-2.3386970">
        <ele>1249.0</ele>
        <time>2019-10-18T14:13:46Z</time>
      </trkpt>
      <trkpt lat="36.9917430" lon="-2.3387170">
        <ele>1248.2</ele>
        <time>2019-10-18T14:13:47Z</time>
      </trkpt>
      <trkpt lat="36.9917320" lon="-2.3387400">
        <ele>1248.3</ele>
        <time>2019-10-18T14:13:48Z</time>
      </trkpt>
      <trkpt lat="36.9917250" lon="-2.3387630">
        <ele>1248.8</ele>
        <time>2019-10-18T14:13:49Z</time>
      </trkpt>
      <trkpt lat="36.9917210" lon="-2.3387860">
        <ele>1249.3</ele>
        <time>2019-10-18T14:13:50Z</time>
      </trkpt>
      <trkpt lat="36.9917190" lon="-2.3388100">
        <ele>1249.7</ele>
        <time>2019-10-18T14:13:51Z</time>
      </trkpt>
      <trkpt lat="36.9917210" lon="-2.3388350">
        <ele>1250.0</ele>
        <time>2019-10-18T14:13:52Z</time>
      </trkpt>
      <trkpt lat="36.9917250" lon="-2.3388610">
        <ele>1250.2</ele>
        <time>2019-10-18T14:13:53Z</time>
      </trkpt>
      <trkpt lat="36.9917300" lon="-2.3388860">
        <ele>1250.3</ele>
        <time>2019-10-18T14:13:54Z</time>
      </trkpt>
      <trkpt lat="36.9917360" lon="-2.3389110">
        <ele>1250.5</ele>
        <time>2019-10-18T14:13:55Z</time>
      </trkpt>
      <trkpt lat="36.9917430" lon="-2.3389360">
        <ele>1250.8</ele>
        <time>2019-10-18T14:13:56Z</time>
      </trkpt>
      <trkpt lat="36.9917510" lon="-2.3389590">
        <ele>1251.3</ele>
        <time>2019-10-18T14:13:57Z</time>
      </trkpt>
      <trkpt lat="36.9917610" lon="-2.3389800">
        <ele>1251.7</ele>
        <time>2019-10-18T14:13:58Z</time>
      </trkpt>
      <trkpt lat="36.9917720" lon="-2.3390000">
        <ele>1252.1</ele>
        <time>2019-10-18T14:13:59Z</time>
      </trkpt>
      <trkpt lat="36.9917840" lon="-2.3390180">
        <ele>1252.5</ele>
        <time>2019-10-18T14:14:00Z</time>
      </trkpt>
      <trkpt lat="36.9917950" lon="-2.3390350">
        <ele>1252.9</ele>
        <time>2019-10-18T14:14:01Z</time>
      </trkpt>
      <trkpt lat="36.9918060" lon="-2.3390510">
        <ele>1253.2</ele>
        <time>2019-10-18T14:14:02Z</time>
      </trkpt>
      <trkpt lat="36.9918180" lon="-2.3390660">
        <ele>1253.4</ele>
        <time>2019-10-18T14:14:03Z</time>
      </trkpt>
      <trkpt lat="36.9918330" lon="-2.3390810">
        <ele>1253.7</ele>
        <time>2019-10-18T14:14:04Z</time>
      </trkpt>
      <trkpt lat="36.9918480" lon="-2.3390950">
        <ele>1254.0</ele>
        <time>2019-10-18T14:14:05Z</time>
      </trkpt>
      <trkpt lat="36.9918640" lon="-2.3391090">
        <ele>1254.5</ele>
        <time>2019-10-18T14:14:06Z</time>
      </trkpt>
      <trkpt lat="36.9918820" lon="-2.3391220">
        <ele>1254.9</ele>
        <time>2019-10-18T14:14:07Z</time>
      </trkpt>
      <trkpt lat="36.9919000" lon="-2.3391350">
        <ele>1255.4</ele>
        <time>2019-10-18T14:14:08Z</time>
      </trkpt>
      <trkpt lat="36.9919190" lon="-2.3391460">
        <ele>1255.8</ele>
        <time>2019-10-18T14:14:09Z</time>
      </trkpt>
      <trkpt lat="36.9919390" lon="-2.3391550">
        <ele>1256.2</ele>
        <time>2019-10-18T14:14:10Z</time>
      </trkpt>
      <trkpt lat="36.9919590" lon="-2.3391640">
        <ele>1256.6</ele>
        <time>2019-10-18T14:14:11Z</time>
      </trkpt>
      <trkpt lat="36.9919790" lon="-2.3391730">
        <ele>1256.9</ele>
        <time>2019-10-18T14:14:12Z</time>
      </trkpt>
      <trkpt lat="36.9919990" lon="-2.3391810">
        <ele>1257.2</ele>
        <time>2019-10-18T14:14:13Z</time>
      </trkpt>
      <trkpt lat="36.9920200" lon="-2.3391860">
        <ele>1257.4</ele>
        <time>2019-10-18T14:14:14Z</time>
      </trkpt>
      <trkpt lat="36.9920420" lon="-2.3391900">
        <ele>1257.5</ele>
        <time>2019-10-18T14:14:15Z</time>
      </trkpt>
      <trkpt lat="36.9920630" lon="-2.3391930">
        <ele>1257.6</ele>
        <time>2019-10-18T14:14:16Z</time>
      </trkpt>
      <trkpt lat="36.9920850" lon="-2.3391950">
        <ele>1257.7</ele>
        <time>2019-10-18T14:14:17Z</time>
      </trkpt>
      <trkpt lat="36.9921060" lon="-2.3391980">
        <ele>1257.9</ele>
        <time>2019-10-18T14:14:18Z</time>
      </trkpt>
      <trkpt lat="36.9921260" lon="-2.3392000">
        <ele>1258.0</ele>
        <time>2019-10-18T14:14:19Z</time>
      </trkpt>
      <trkpt lat="36.9921470" lon="-2.3392000">
        <ele>1258.1</ele>
        <time>2019-10-18T14:14:20Z</time>
      </trkpt>
      <trkpt lat="36.9921680" lon="-2.3391970">
        <ele>1258.0</ele>
        <time>2019-10-18T14:14:21Z</time>
      </trkpt>
      <trkpt lat="36.9921900" lon="-2.3391920">
        <ele>1257.9</ele>
        <time>2019-10-18T14:14:22Z</time>
      </trkpt>
      <trkpt lat="36.9922130" lon="-2.3391860">
        <ele>1257.8</ele>
        <time>2019-10-18T14:14:23Z</time>
      </trkpt>
      <trkpt lat="36.9922370" lon="-2.3391790">
        <ele>1257.6</ele>
        <time>2019-10-18T14:14:24Z</time>
      </trkpt>
      <trkpt lat="36.9922620" lon="-2.3391710">
        <ele>1257.4</ele>
        <time>2019-10-18T14:14:25Z</time>
      </trkpt>
      <trkpt lat="36.9922880" lon="-2.3391620">
        <ele>1257.2</ele>
        <time>2019-10-18T14:14:26Z</time>
      </trkpt>
      <trkpt lat="36.9923140" lon="-2.3391550">
        <ele>1257.0</ele>
        <time>2019-10-18T14:14:27Z</time>
      </trkpt>
      <trkpt lat="36.9923410" lon="-2.3391510">
        <ele>1256.7</ele>
        <time>2019-10-18T14:14:28Z</time>
      </trkpt>
      <trkpt lat="36.9923680" lon="-2.3391460">
        <ele>1256.3</ele>
        <time>2019-10-18T14:14:29Z</time>
      </trkpt>
      <trkpt lat="36.9923950" lon="-2.3391400">
        <ele>1255.9</ele>
        <time>2019-10-18T14:14:30Z</time>
      </trkpt>
      <trkpt lat="36.9924200" lon="-2.3391340">
        <ele>1255.5</ele>
        <time>2019-10-18T14:14:31Z</time>
      </trkpt>
      <trkpt lat="36.9924440" lon="-2.3391290">
        <ele>1255.2</ele>
        <time>2019-10-18T14:14:32Z</time>
      </trkpt>
      <trkpt lat="36.9924700" lon="-2.3391250">
        <ele>1254.7</ele>
        <time>2019-10-18T14:14:33Z</time>
      </trkpt>
      <trkpt lat="36.9924980" lon="-2.3391230">
        <ele>1254.3</ele>
        <time>2019-10-18T14:14:34Z</time>
      </trkpt>
      <trkpt lat="36.9925280" lon="-2.3391200">
        <ele>1253.9</ele>
        <time>2019-10-18T14:14:35Z</time>
      </trkpt>
      <trkpt lat="36.9925600" lon="-2.3391200">
        <ele>1253.5</ele>
        <time>2019-10-18T14:14:36Z</time>
      </trkpt>
      <trkpt lat="36.9925930" lon="-2.3391190">
        <ele>1252.8</ele>
        <time>2019-10-18T14:14:37Z</time>
      </trkpt>
      <trkpt lat="36.9926280" lon="-2.3391190">
        <ele>1252.1</ele>
        <time>2019-10-18T14:14:38Z</time>
      </trkpt>
      <trkpt lat="36.9926630" lon="-2.3391170">
        <ele>1251.4</ele>
        <time>2019-10-18T14:14:39Z</time>
      </trkpt>
      <trkpt lat="36.9926980" lon="-2.3391130">
        <ele>1250.9</ele>
        <time>2019-10-18T14:14:40Z</time>
      </trkpt>
      <trkpt lat="36.9927320" lon="-2.3391060">
        <ele>1250.4</ele>
        <time>2019-10-18T14:14:41Z</time>
      </trkpt>
      <trkpt lat="36.9927640" lon="-2.3390950">
        <ele>1249.6</ele>
        <time>2019-10-18T14:14:42Z</time>
      </trkpt>
      <trkpt lat="36.9927940" lon="-2.3390820">
        <ele>1248.7</ele>
        <time>2019-10-18T14:14:43Z</time>
      </trkpt>
      <trkpt lat="36.9928220" lon="-2.3390670">
        <ele>1247.9</ele>
        <time>2019-10-18T14:14:44Z</time>
      </trkpt>
      <trkpt lat="36.9928470" lon="-2.3390520">
        <ele>1247.1</ele>
        <time>2019-10-18T14:14:45Z</time>
      </trkpt>
      <trkpt lat="36.9928700" lon="-2.3390380">
        <ele>1246.4</ele>
        <time>2019-10-18T14:14:46Z</time>
      </trkpt>
      <trkpt lat="36.9928900" lon="-2.3390220">
        <ele>1245.6</ele>
        <time>2019-10-18T14:14:47Z</time>
      </trkpt>
      <trkpt lat="36.9929080" lon="-2.3390050">
        <ele>1244.9</ele>
        <time>2019-10-18T14:14:48Z</time>
      </trkpt>
      <trkpt lat="36.9929250" lon="-2.3389860">
        <ele>1244.2</ele>
        <time>2019-10-18T14:14:49Z</time>
      </trkpt>
      <trkpt lat="36.9929420" lon="-2.3389650">
        <ele>1243.5</ele>
        <time>2019-10-18T14:14:50Z</time>
      </trkpt>
      <trkpt lat="36.9929580" lon="-2.3389440">
        <ele>1242.8</ele>
        <time>2019-10-18T14:14:51Z</time>
      </trkpt>
      <trkpt lat="36.9929740" lon="-2.3389220">
        <ele>1242.2</ele>
        <time>2019-10-18T14:14:52Z</time>
      </trkpt>
      <trkpt lat="36.9929900" lon="-2.3388990">
        <ele>1241.4</ele>
        <time>2019-10-18T14:14:53Z</time>
      </trkpt>
      <trkpt lat="36.9930060" lon="-2.3388760">
        <ele>1240.6</ele>
        <time>2019-10-18T14:14:54Z</time>
      </trkpt>
      <trkpt lat="36.9930230" lon="-2.3388530">
        <ele>1239.6</ele>
        <time>2019-10-18T14:14:55Z</time>
      </trkpt>
      <trkpt lat="36.9930420" lon="-2.3388320">
        <ele>1238.8</ele>
        <time>2019-10-18T14:14:56Z</time>
      </trkpt>
      <trkpt lat="36.9930620" lon="-2.3388140">
        <ele>1238.0</ele>
        <time>2019-10-18T14:14:57Z</time>
      </trkpt>
      <trkpt lat="36.9930830" lon="-2.3387980">
        <ele>1237.2</ele>
        <time>2019-10-18T14:14:58Z</time>
      </trkpt>
      <trkpt lat="36.9931050" lon="-2.3387830">
        <ele>1236.5</ele>
        <time>2019-10-18T14:14:59Z</time>
      </trkpt>
      <trkpt lat="36.9931290" lon="-2.3387730">
        <ele>1235.8</ele>
        <time>2019-10-18T14:15:00Z</time>
      </trkpt>
      <trkpt lat="36.9931530" lon="-2.3387680">
        <ele>1235.1</ele>
        <time>2019-10-18T14:15:01Z</time>
      </trkpt>
      <trkpt lat="36.9931770" lon="-2.3387730">
        <ele>1235.2</ele>
        <time>2019-10-18T14:15:02Z</time>
      </trkpt>
      <trkpt lat="36.9931990" lon="-2.3387850">
        <ele>1235.6</ele>
        <time>2019-10-18T14:15:03Z</time>
      </trkpt>
      <trkpt lat="36.9932190" lon="-2.3388010">
        <ele>1235.6</ele>
        <time>2019-10-18T14:15:04Z</time>
      </trkpt>
      <trkpt lat="36.9932360" lon="-2.3388210">
        <ele>1235.3</ele>
        <time>2019-10-18T14:15:05Z</time>
      </trkpt>
      <trkpt lat="36.9932520" lon="-2.3388440">
        <ele>1235.6</ele>
        <time>2019-10-18T14:15:06Z</time>
      </trkpt>
      <trkpt lat="36.9932650" lon="-2.3388710">
        <ele>1236.4</ele>
        <time>2019-10-18T14:15:07Z</time>
      </trkpt>
      <trkpt lat="36.9932760" lon="-2.3389020">
        <ele>1237.3</ele>
        <time>2019-10-18T14:15:08Z</time>
      </trkpt>
      <trkpt lat="36.9932860" lon="-2.3389350">
        <ele>1238.0</ele>
        <time>2019-10-18T14:15:09Z</time>
      </trkpt>
      <trkpt lat="36.9932970" lon="-2.3389700">
        <ele>1238.9</ele>
        <time>2019-10-18T14:15:10Z</time>
      </trkpt>
      <trkpt lat="36.9933080" lon="-2.3390050">
        <ele>1239.6</ele>
        <time>2019-10-18T14:15:11Z</time>
      </trkpt>
      <trkpt lat="36.9933200" lon="-2.3390400">
        <ele>1240.4</ele>
        <time>2019-10-18T14:15:12Z</time>
      </trkpt>
      <trkpt lat="36.9933320" lon="-2.3390760">
        <ele>1241.2</ele>
        <time>2019-10-18T14:15:13Z</time>
      </trkpt>
      <trkpt lat="36.9933450" lon="-2.3391120">
        <ele>1242.1</ele>
        <time>2019-10-18T14:15:14Z</time>
      </trkpt>
      <trkpt lat="36.9933590" lon="-2.3391460">
        <ele>1243.0</ele>
        <time>2019-10-18T14:15:15Z</time>
      </trkpt>
      <trkpt lat="36.9933750" lon="-2.3391810">
        <ele>1244.1</ele>
        <time>2019-10-18T14:15:16Z</time>
      </trkpt>
      <trkpt lat="36.9933920" lon="-2.3392140">
        <ele>1245.2</ele>
        <time>2019-10-18T14:15:17Z</time>
      </trkpt>
      <trkpt lat="36.9934110" lon="-2.3392470">
        <ele>1246.4</ele>
        <time>2019-10-18T14:15:18Z</time>
      </trkpt>
      <trkpt lat="36.9934310" lon="-2.3392800">
        <ele>1247.9</ele>
        <time>2019-10-18T14:15:19Z</time>
      </trkpt>
      <trkpt lat="36.9934530" lon="-2.3393110">
        <ele>1249.3</ele>
        <time>2019-10-18T14:15:20Z</time>
      </trkpt>
      <trkpt lat="36.9934760" lon="-2.3393390">
        <ele>1250.4</ele>
        <time>2019-10-18T14:15:21Z</time>
      </trkpt>
      <trkpt lat="36.9935000" lon="-2.3393630">
        <ele>1251.5</ele>
        <time>2019-10-18T14:15:22Z</time>
      </trkpt>
      <trkpt lat="36.9935250" lon="-2.3393850">
        <ele>1252.4</ele>
        <time>2019-10-18T14:15:23Z</time>
      </trkpt>
      <trkpt lat="36.9935490" lon="-2.3394060">
        <ele>1252.7</ele>
        <time>2019-10-18T14:15:24Z</time>
      </trkpt>
      <trkpt lat="36.9935730" lon="-2.3394270">
        <ele>1253.1</ele>
        <time>2019-10-18T14:15:25Z</time>
      </trkpt>
      <trkpt lat="36.9935970" lon="-2.3394470">
        <ele>1253.5</ele>
        <time>2019-10-18T14:15:26Z</time>
      </trkpt>
      <trkpt lat="36.9936210" lon="-2.3394690">
        <ele>1254.1</ele>
        <time>2019-10-18T14:15:27Z</time>
      </trkpt>
      <trkpt lat="36.9936430" lon="-2.3394920">
        <ele>1254.7</ele>
        <time>2019-10-18T14:15:28Z</time>
      </trkpt>
      <trkpt lat="36.9936630" lon="-2.3395180">
        <ele>1255.1</ele>
        <time>2019-10-18T14:15:29Z</time>
      </trkpt>
      <trkpt lat="36.9936790" lon="-2.3395480">
        <ele>1255.1</ele>
        <time>2019-10-18T14:15:30Z</time>
      </trkpt>
      <trkpt lat="36.9936910" lon="-2.3395820">
        <ele>1255.2</ele>
        <time>2019-10-18T14:15:31Z</time>
      </trkpt>
      <trkpt lat="36.9937000" lon="-2.3396180">
        <ele>1255.3</ele>
        <time>2019-10-18T14:15:32Z</time>
      </trkpt>
      <trkpt lat="36.9937080" lon="-2.3396570">
        <ele>1256.1</ele>
        <time>2019-10-18T14:15:33Z</time>
      </trkpt>
      <trkpt lat="36.9937100" lon="-2.3396940">
        <ele>1256.8</ele>
        <time>2019-10-18T14:15:34Z</time>
      </trkpt>
      <trkpt lat="36.9937110" lon="-2.3397310">
        <ele>1257.5</ele>
        <time>2019-10-18T14:15:35Z</time>
      </trkpt>
      <trkpt lat="36.9937080" lon="-2.3397670">
        <ele>1258.1</ele>
        <time>2019-10-18T14:15:36Z</time>
      </trkpt>
      <trkpt lat="36.9937070" lon="-2.3398020">
        <ele>1258.7</ele>
        <time>2019-10-18T14:15:37Z</time>
      </trkpt>
      <trkpt lat="36.9937050" lon="-2.3398370">
        <ele>1259.4</ele>
        <time>2019-10-18T14:15:38Z</time>
      </trkpt>
      <trkpt lat="36.9937020" lon="-2.3398700">
        <ele>1260.1</ele>
        <time>2019-10-18T14:15:39Z</time>
      </trkpt>
      <trkpt lat="36.9937000" lon="-2.3399030">
        <ele>1260.9</ele>
        <time>2019-10-18T14:15:40Z</time>
      </trkpt>
      <trkpt lat="36.9936980" lon="-2.3399350">
        <ele>1261.7</ele>
        <time>2019-10-18T14:15:41Z</time>
      </trkpt>
      <trkpt lat="36.9936950" lon="-2.3399660">
        <ele>1262.6</ele>
        <time>2019-10-18T14:15:42Z</time>
      </trkpt>
      <trkpt lat="36.9936930" lon="-2.3399970">
        <ele>1263.5</ele>
        <time>2019-10-18T14:15:43Z</time>
      </trkpt>
      <trkpt lat="36.9936900" lon="-2.3400290">
        <ele>1264.3</ele>
        <time>2019-10-18T14:15:44Z</time>
      </trkpt>
      <trkpt lat="36.9936870" lon="-2.3400610">
        <ele>1265.0</ele>
        <time>2019-10-18T14:15:45Z</time>
      </trkpt>
      <trkpt lat="36.9936830" lon="-2.3400930">
        <ele>1265.7</ele>
        <time>2019-10-18T14:15:46Z</time>
      </trkpt>
      <trkpt lat="36.9936800" lon="-2.3401240">
        <ele>1266.3</ele>
        <time>2019-10-18T14:15:47Z</time>
      </trkpt>
      <trkpt lat="36.9936770" lon="-2.3401540">
        <ele>1266.7</ele>
        <time>2019-10-18T14:15:48Z</time>
      </trkpt>
      <trkpt lat="36.9936750" lon="-2.3401830">
        <ele>1267.1</ele>
        <time>2019-10-18T14:15:49Z</time>
      </trkpt>
      <trkpt lat="36.9936730" lon="-2.3402120">
        <ele>1267.5</ele>
        <time>2019-10-18T14:15:50Z</time>
      </trkpt>
      <trkpt lat="36.9936710" lon="-2.3402410">
        <ele>1267.8</ele>
        <time>2019-10-18T14:15:51Z</time>
      </trkpt>
      <trkpt lat="36.9936680" lon="-2.3402710">
        <ele>1268.2</ele>
        <time>2019-10-18T14:15:52Z</time>
      </trkpt>
      <trkpt lat="36.9936660" lon="-2.3403000">
        <ele>1268.6</ele>
        <time>2019-10-18T14:15:53Z</time>
      </trkpt>
      <trkpt lat="36.9936630" lon="-2.3403290">
        <ele>1269.0</ele>
        <time>2019-10-18T14:15:54Z</time>
      </trkpt>
      <trkpt lat="36.9936640" lon="-2.3403560">
        <ele>1269.4</ele>
        <time>2019-10-18T14:15:55Z</time>
      </trkpt>
      <trkpt lat="36.9936670" lon="-2.3403830">
        <ele>1269.9</ele>
        <time>2019-10-18T14:15:56Z</time>
      </trkpt>
      <trkpt lat="36.9936710" lon="-2.3404090">
        <ele>1270.3</ele>
        <time>2019-10-18T14:15:57Z</time>
      </trkpt>
      <trkpt lat="36.9936740" lon="-2.3404370">
        <ele>1270.6</ele>
        <time>2019-10-18T14:15:58Z</time>
      </trkpt>
      <trkpt lat="36.9936790" lon="-2.3404620">
        <ele>1270.8</ele>
        <time>2019-10-18T14:15:59Z</time>
      </trkpt>
      <trkpt lat="36.9936850" lon="-2.3404870">
        <ele>1271.1</ele>
        <time>2019-10-18T14:16:00Z</time>
      </trkpt>
      <trkpt lat="36.9936930" lon="-2.3405110">
        <ele>1271.3</ele>
        <time>2019-10-18T14:16:01Z</time>
      </trkpt>
      <trkpt lat="36.9937020" lon="-2.3405350">
        <ele>1271.2</ele>
        <time>2019-10-18T14:16:02Z</time>
      </trkpt>
      <trkpt lat="36.9937130" lon="-2.3405590">
        <ele>1271.0</ele>
        <time>2019-10-18T14:16:03Z</time>
      </trkpt>
      <trkpt lat="36.9937250" lon="-2.3405830">
        <ele>1270.8</ele>
        <time>2019-10-18T14:16:04Z</time>
      </trkpt>
      <trkpt lat="36.9937390" lon="-2.3406050">
        <ele>1270.7</ele>
        <time>2019-10-18T14:16:05Z</time>
      </trkpt>
      <trkpt lat="36.9937530" lon="-2.3406290">
        <ele>1270.5</ele>
        <time>2019-10-18T14:16:06Z</time>
      </trkpt>
      <trkpt lat="36.9937690" lon="-2.3406530">
        <ele>1270.4</ele>
        <time>2019-10-18T14:16:07Z</time>
      </trkpt>
      <trkpt lat="36.9937850" lon="-2.3406750">
        <ele>1270.2</ele>
        <time>2019-10-18T14:16:08Z</time>
      </trkpt>
      <trkpt lat="36.9938020" lon="-2.3406940">
        <ele>1269.9</ele>
        <time>2019-10-18T14:16:09Z</time>
      </trkpt>
      <trkpt lat="36.9938200" lon="-2.3407120">
        <ele>1269.6</ele>
        <time>2019-10-18T14:16:10Z</time>
      </trkpt>
      <trkpt lat="36.9938380" lon="-2.3407310">
        <ele>1269.1</ele>
        <time>2019-10-18T14:16:11Z</time>
      </trkpt>
      <trkpt lat="36.9938570" lon="-2.3407510">
        <ele>1268.3</ele>
        <time>2019-10-18T14:16:12Z</time>
      </trkpt>
      <trkpt lat="36.9938760" lon="-2.3407690">
        <ele>1267.6</ele>
        <time>2019-10-18T14:16:13Z</time>
      </trkpt>
      <trkpt lat="36.9938940" lon="-2.3407870">
        <ele>1267.0</ele>
        <time>2019-10-18T14:16:14Z</time>
      </trkpt>
      <trkpt lat="36.9939110" lon="-2.3408060">
        <ele>1266.3</ele>
        <time>2019-10-18T14:16:15Z</time>
      </trkpt>
      <trkpt lat="36.9939260" lon="-2.3408270">
        <ele>1265.7</ele>
        <time>2019-10-18T14:16:16Z</time>
      </trkpt>
      <trkpt lat="36.9939410" lon="-2.3408500">
        <ele>1265.0</ele>
        <time>2019-10-18T14:16:17Z</time>
      </trkpt>
      <trkpt lat="36.9939530" lon="-2.3408740">
        <ele>1264.4</ele>
        <time>2019-10-18T14:16:18Z</time>
      </trkpt>
      <trkpt lat="36.9939630" lon="-2.3408980">
        <ele>1263.9</ele>
        <time>2019-10-18T14:16:19Z</time>
      </trkpt>
      <trkpt lat="36.9939700" lon="-2.3409230">
        <ele>1263.4</ele>
        <time>2019-10-18T14:16:20Z</time>
      </trkpt>
      <trkpt lat="36.9939750" lon="-2.3409530">
        <ele>1262.9</ele>
        <time>2019-10-18T14:16:21Z</time>
      </trkpt>
      <trkpt lat="36.9939800" lon="-2.3409830">
        <ele>1263.0</ele>
        <time>2019-10-18T14:16:22Z</time>
      </trkpt>
      <trkpt lat="36.9939850" lon="-2.3410120">
        <ele>1263.2</ele>
        <time>2019-10-18T14:16:23Z</time>
      </trkpt>
      <trkpt lat="36.9939900" lon="-2.3410390">
        <ele>1263.1</ele>
        <time>2019-10-18T14:16:24Z</time>
      </trkpt>
      <trkpt lat="36.9939930" lon="-2.3410650">
        <ele>1262.9</ele>
        <time>2019-10-18T14:16:25Z</time>
      </trkpt>
      <trkpt lat="36.9939950" lon="-2.3410890">
        <ele>1262.9</ele>
        <time>2019-10-18T14:16:26Z</time>
      </trkpt>
      <trkpt lat="36.9939960" lon="-2.3411130">
        <ele>1263.3</ele>
        <time>2019-10-18T14:16:27Z</time>
      </trkpt>
      <trkpt lat="36.9939960" lon="-2.3411390">
        <ele>1263.8</ele>
        <time>2019-10-18T14:16:28Z</time>
      </trkpt>
      <trkpt lat="36.9939960" lon="-2.3411640">
        <ele>1264.2</ele>
        <time>2019-10-18T14:16:29Z</time>
      </trkpt>
      <trkpt lat="36.9939960" lon="-2.3411890">
        <ele>1264.7</ele>
        <time>2019-10-18T14:16:30Z</time>
      </trkpt>
      <trkpt lat="36.9939950" lon="-2.3412130">
        <ele>1264.9</ele>
        <time>2019-10-18T14:16:31Z</time>
      </trkpt>
      <trkpt lat="36.9939950" lon="-2.3412370">
        <ele>1265.1</ele>
        <time>2019-10-18T14:16:32Z</time>
      </trkpt>
      <trkpt lat="36.9939940" lon="-2.3412600">
        <ele>1265.3</ele>
        <time>2019-10-18T14:16:33Z</time>
      </trkpt>
      <trkpt lat="36.9939920" lon="-2.3412820">
        <ele>1265.4</ele>
        <time>2019-10-18T14:16:34Z</time>
      </trkpt>
      <trkpt lat="36.9939900" lon="-2.3413030">
        <ele>1265.6</ele>
        <time>2019-10-18T14:16:35Z</time>
      </trkpt>
      <trkpt lat="36.9939870" lon="-2.3413250">
        <ele>1265.7</ele>
        <time>2019-10-18T14:16:36Z</time>
      </trkpt>
      <trkpt lat="36.9939840" lon="-2.3413490">
        <ele>1265.8</ele>
        <time>2019-10-18T14:16:37Z</time>
      </trkpt>
      <trkpt lat="36.9939820" lon="-2.3413730">
        <ele>1265.9</ele>
        <time>2019-10-18T14:16:38Z</time>
      </trkpt>
      <trkpt lat="36.9939810" lon="-2.3413970">
        <ele>1266.0</ele>
        <time>2019-10-18T14:16:39Z</time>
      </trkpt>
      <trkpt lat="36.9939840" lon="-2.3414220">
        <ele>1266.3</ele>
        <time>2019-10-18T14:16:40Z</time>
      </trkpt>
      <trkpt lat="36.9939890" lon="-2.3414470">
        <ele>1266.7</ele>
        <time>2019-10-18T14:16:41Z</time>
      </trkpt>
      <trkpt lat="36.9939950" lon="-2.3414690">
        <ele>1267.1</ele>
        <time>2019-10-18T14:16:42Z</time>
      </trkpt>
      <trkpt lat="36.9940010" lon="-2.3414890">
        <ele>1267.5</ele>
        <time>2019-10-18T14:16:43Z</time>
      </trkpt>
      <trkpt lat="36.9940060" lon="-2.3415090">
        <ele>1267.8</ele>
        <time>2019-10-18T14:16:44Z</time>
      </trkpt>
      <trkpt lat="36.9940110" lon="-2.3415300">
        <ele>1267.6</ele>
        <time>2019-10-18T14:16:45Z</time>
      </trkpt>
      <trkpt lat="36.9940180" lon="-2.3415500">
        <ele>1267.1</ele>
        <time>2019-10-18T14:16:46Z</time>
      </trkpt>
      <trkpt lat="36.9940270" lon="-2.3415710">
        <ele>1266.6</ele>
        <time>2019-10-18T14:16:47Z</time>
      </trkpt>
      <trkpt lat="36.9940390" lon="-2.3415900">
        <ele>1266.0</ele>
        <time>2019-10-18T14:16:48Z</time>
      </trkpt>
      <trkpt lat="36.9940530" lon="-2.3416100">
        <ele>1265.8</ele>
        <time>2019-10-18T14:16:49Z</time>
      </trkpt>
      <trkpt lat="36.9940690" lon="-2.3416320">
        <ele>1265.6</ele>
        <time>2019-10-18T14:16:50Z</time>
      </trkpt>
      <trkpt lat="36.9940850" lon="-2.3416550">
        <ele>1265.4</ele>
        <time>2019-10-18T14:16:51Z</time>
      </trkpt>
      <trkpt lat="36.9941000" lon="-2.3416770">
        <ele>1265.1</ele>
        <time>2019-10-18T14:16:52Z</time>
      </trkpt>
      <trkpt lat="36.9941160" lon="-2.3416980">
        <ele>1264.8</ele>
        <time>2019-10-18T14:16:53Z</time>
      </trkpt>
      <trkpt lat="36.9941310" lon="-2.3417180">
        <ele>1264.5</ele>
        <time>2019-10-18T14:16:54Z</time>
      </trkpt>
      <trkpt lat="36.9941460" lon="-2.3417390">
        <ele>1264.3</ele>
        <time>2019-10-18T14:16:55Z</time>
      </trkpt>
      <trkpt lat="36.9941610" lon="-2.3417630">
        <ele>1264.2</ele>
        <time>2019-10-18T14:16:56Z</time>
      </trkpt>
      <trkpt lat="36.9941750" lon="-2.3417890">
        <ele>1264.0</ele>
        <time>2019-10-18T14:16:57Z</time>
      </trkpt>
      <trkpt lat="36.9941890" lon="-2.3418150">
        <ele>1264.0</ele>
        <time>2019-10-18T14:16:58Z</time>
      </trkpt>
      <trkpt lat="36.9942020" lon="-2.3418410">
        <ele>1264.0</ele>
        <time>2019-10-18T14:16:59Z</time>
      </trkpt>
      <trkpt lat="36.9942150" lon="-2.3418660">
        <ele>1264.0</ele>
        <time>2019-10-18T14:17:00Z</time>
      </trkpt>
      <trkpt lat="36.9942260" lon="-2.3418940">
        <ele>1263.9</ele>
        <time>2019-10-18T14:17:01Z</time>
      </trkpt>
      <trkpt lat="36.9942370" lon="-2.3419210">
        <ele>1263.8</ele>
        <time>2019-10-18T14:17:02Z</time>
      </trkpt>
      <trkpt lat="36.9942470" lon="-2.3419490">
        <ele>1263.6</ele>
        <time>2019-10-18T14:17:03Z</time>
      </trkpt>
      <trkpt lat="36.9942570" lon="-2.3419770">
        <ele>1263.5</ele>
        <time>2019-10-18T14:17:04Z</time>
      </trkpt>
      <trkpt lat="36.9942660" lon="-2.3420050">
        <ele>1263.5</ele>
        <time>2019-10-18T14:17:05Z</time>
      </trkpt>
      <trkpt lat="36.9942740" lon="-2.3420330">
        <ele>1263.6</ele>
        <time>2019-10-18T14:17:06Z</time>
      </trkpt>
      <trkpt lat="36.9942810" lon="-2.3420640">
        <ele>1263.6</ele>
        <time>2019-10-18T14:17:07Z</time>
      </trkpt>
      <trkpt lat="36.9942870" lon="-2.3420970">
        <ele>1263.8</ele>
        <time>2019-10-18T14:17:08Z</time>
      </trkpt>
      <trkpt lat="36.9942910" lon="-2.3421300">
        <ele>1264.0</ele>
        <time>2019-10-18T14:17:09Z</time>
      </trkpt>
      <trkpt lat="36.9942930" lon="-2.3421610">
        <ele>1264.3</ele>
        <time>2019-10-18T14:17:10Z</time>
      </trkpt>
      <trkpt lat="36.9942920" lon="-2.3421900">
        <ele>1264.5</ele>
        <time>2019-10-18T14:17:11Z</time>
      </trkpt>
      <trkpt lat="36.9942900" lon="-2.3422190">
        <ele>1264.6</ele>
        <time>2019-10-18T14:17:12Z</time>
      </trkpt>
      <trkpt lat="36.9942850" lon="-2.3422460">
        <ele>1264.8</ele>
        <time>2019-10-18T14:17:13Z</time>
      </trkpt>
      <trkpt lat="36.9942790" lon="-2.3422740">
        <ele>1264.9</ele>
        <time>2019-10-18T14:17:14Z</time>
      </trkpt>
      <trkpt lat="36.9942720" lon="-2.3423030">
        <ele>1265.1</ele>
        <time>2019-10-18T14:17:15Z</time>
      </trkpt>
      <trkpt lat="36.9942630" lon="-2.3423320">
        <ele>1265.3</ele>
        <time>2019-10-18T14:17:16Z</time>
      </trkpt>
      <trkpt lat="36.9942540" lon="-2.3423600">
        <ele>1265.4</ele>
        <time>2019-10-18T14:17:17Z</time>
      </trkpt>
      <trkpt lat="36.9942440" lon="-2.3423860">
        <ele>1265.6</ele>
        <time>2019-10-18T14:17:18Z</time>
      </trkpt>
      <trkpt lat="36.9942330" lon="-2.3424130">
        <ele>1265.9</ele>
        <time>2019-10-18T14:17:19Z</time>
      </trkpt>
      <trkpt lat="36.9942220" lon="-2.3424400">
        <ele>1266.4</ele>
        <time>2019-10-18T14:17:20Z</time>
      </trkpt>
      <trkpt lat="36.9942100" lon="-2.3424670">
        <ele>1266.8</ele>
        <time>2019-10-18T14:17:21Z</time>
      </trkpt>
      <trkpt lat="36.9941970" lon="-2.3424930">
        <ele>1267.3</ele>
        <time>2019-10-18T14:17:22Z</time>
      </trkpt>
      <trkpt lat="36.9941840" lon="-2.3425190">
        <ele>1267.8</ele>
        <time>2019-10-18T14:17:23Z</time>
      </trkpt>
      <trkpt lat="36.9941710" lon="-2.3425440">
        <ele>1268.3</ele>
        <time>2019-10-18T14:17:24Z</time>
      </trkpt>
      <trkpt lat="36.9941590" lon="-2.3425700">
        <ele>1268.8</ele>
        <time>2019-10-18T14:17:25Z</time>
      </trkpt>
      <trkpt lat="36.9941480" lon="-2.3425950">
        <ele>1269.3</ele>
        <time>2019-10-18T14:17:26Z</time>
      </trkpt>
      <trkpt lat="36.9941360" lon="-2.3426190">
        <ele>1269.9</ele>
        <time>2019-10-18T14:17:27Z</time>
      </trkpt>
      <trkpt lat="36.9941230" lon="-2.3426440">
        <ele>1270.4</ele>
        <time>2019-10-18T14:17:28Z</time>
      </trkpt>
      <trkpt lat="36.9941090" lon="-2.3426700">
        <ele>1270.9</ele>
        <time>2019-10-18T14:17:29Z</time>
      </trkpt>
      <trkpt lat="36.9940960" lon="-2.3426960">
        <ele>1271.5</ele>
        <time>2019-10-18T14:17:30Z</time>
      </trkpt>
      <trkpt lat="36.9940850" lon="-2.3427220">
        <ele>1272.0</ele>
        <time>2019-10-18T14:17:31Z</time>
      </trkpt>
      <trkpt lat="36.9940750" lon="-2.3427480">
        <ele>1272.6</ele>
        <time>2019-10-18T14:17:32Z</time>
      </trkpt>
      <trkpt lat="36.9940670" lon="-2.3427730">
        <ele>1273.1</ele>
        <time>2019-10-18T14:17:33Z</time>
      </trkpt>
      <trkpt lat="36.9940610" lon="-2.3427990">
        <ele>1273.7</ele>
        <time>2019-10-18T14:17:34Z</time>
      </trkpt>
      <trkpt lat="36.9940560" lon="-2.3428250">
        <ele>1274.3</ele>
        <time>2019-10-18T14:17:35Z</time>
      </trkpt>
      <trkpt lat="36.9940530" lon="-2.3428510">
        <ele>1274.9</ele>
        <time>2019-10-18T14:17:36Z</time>
      </trkpt>
      <trkpt lat="36.9940500" lon="-2.3428760">
        <ele>1275.5</ele>
        <time>2019-10-18T14:17:37Z</time>
      </trkpt>
      <trkpt lat="36.9940500" lon="-2.3429010">
        <ele>1276.0</ele>
        <time>2019-10-18T14:17:38Z</time>
      </trkpt>
      <trkpt lat="36.9940520" lon="-2.3429260">
        <ele>1276.5</ele>
        <time>2019-10-18T14:17:39Z</time>
      </trkpt>
      <trkpt lat="36.9940560" lon="-2.3429520">
        <ele>1277.1</ele>
        <time>2019-10-18T14:17:40Z</time>
      </trkpt>
      <trkpt lat="36.9940600" lon="-2.3429780">
        <ele>1277.5</ele>
        <time>2019-10-18T14:17:41Z</time>
      </trkpt>
      <trkpt lat="36.9940670" lon="-2.3430050">
        <ele>1277.9</ele>
        <time>2019-10-18T14:17:42Z</time>
      </trkpt>
      <trkpt lat="36.9940750" lon="-2.3430310">
        <ele>1278.4</ele>
        <time>2019-10-18T14:17:43Z</time>
      </trkpt>
      <trkpt lat="36.9940840" lon="-2.3430570">
        <ele>1278.7</ele>
        <time>2019-10-18T14:17:44Z</time>
      </trkpt>
      <trkpt lat="36.9940950" lon="-2.3430820">
        <ele>1279.0</ele>
        <time>2019-10-18T14:17:45Z</time>
      </trkpt>
      <trkpt lat="36.9941060" lon="-2.3431080">
        <ele>1279.3</ele>
        <time>2019-10-18T14:17:46Z</time>
      </trkpt>
      <trkpt lat="36.9941180" lon="-2.3431330">
        <ele>1279.7</ele>
        <time>2019-10-18T14:17:47Z</time>
      </trkpt>
      <trkpt lat="36.9941300" lon="-2.3431580">
        <ele>1280.0</ele>
        <time>2019-10-18T14:17:48Z</time>
      </trkpt>
      <trkpt lat="36.9941410" lon="-2.3431830">
        <ele>1280.3</ele>
        <time>2019-10-18T14:17:49Z</time>
      </trkpt>
      <trkpt lat="36.9941530" lon="-2.3432080">
        <ele>1280.7</ele>
        <time>2019-10-18T14:17:50Z</time>
      </trkpt>
      <trkpt lat="36.9941640" lon="-2.3432330">
        <ele>1280.9</ele>
        <time>2019-10-18T14:17:51Z</time>
      </trkpt>
      <trkpt lat="36.9941750" lon="-2.3432580">
        <ele>1281.1</ele>
        <time>2019-10-18T14:17:52Z</time>
      </trkpt>
      <trkpt lat="36.9941870" lon="-2.3432840">
        <ele>1281.3</ele>
        <time>2019-10-18T14:17:53Z</time>
      </trkpt>
      <trkpt lat="36.9941990" lon="-2.3433080">
        <ele>1281.5</ele>
        <time>2019-10-18T14:17:54Z</time>
      </trkpt>
      <trkpt lat="36.9942120" lon="-2.3433330">
        <ele>1281.8</ele>
        <time>2019-10-18T14:17:55Z</time>
      </trkpt>
      <trkpt lat="36.9942230" lon="-2.3433560">
        <ele>1282.1</ele>
        <time>2019-10-18T14:17:56Z</time>
      </trkpt>
      <trkpt lat="36.9942330" lon="-2.3433800">
        <ele>1282.4</ele>
        <time>2019-10-18T14:17:57Z</time>
      </trkpt>
      <trkpt lat="36.9942430" lon="-2.3434040">
        <ele>1282.6</ele>
        <time>2019-10-18T14:17:58Z</time>
      </trkpt>
      <trkpt lat="36.9942520" lon="-2.3434270">
        <ele>1282.7</ele>
        <time>2019-10-18T14:17:59Z</time>
      </trkpt>
      <trkpt lat="36.9942620" lon="-2.3434500">
        <ele>1282.8</ele>
        <time>2019-10-18T14:18:00Z</time>
      </trkpt>
      <trkpt lat="36.9942710" lon="-2.3434740">
        <ele>1282.8</ele>
        <time>2019-10-18T14:18:01Z</time>
      </trkpt>
      <trkpt lat="36.9942800" lon="-2.3435010">
        <ele>1282.9</ele>
        <time>2019-10-18T14:18:02Z</time>
      </trkpt>
      <trkpt lat="36.9942890" lon="-2.3435270">
        <ele>1282.9</ele>
        <time>2019-10-18T14:18:03Z</time>
      </trkpt>
      <trkpt lat="36.9942980" lon="-2.3435520">
        <ele>1282.9</ele>
        <time>2019-10-18T14:18:04Z</time>
      </trkpt>
      <trkpt lat="36.9943070" lon="-2.3435770">
        <ele>1282.9</ele>
        <time>2019-10-18T14:18:05Z</time>
      </trkpt>
      <trkpt lat="36.9943160" lon="-2.3436020">
        <ele>1282.9</ele>
        <time>2019-10-18T14:18:06Z</time>
      </trkpt>
      <trkpt lat="36.9943250" lon="-2.3436260">
        <ele>1282.9</ele>
        <time>2019-10-18T14:18:07Z</time>
      </trkpt>
      <trkpt lat="36.9943350" lon="-2.3436500">
        <ele>1283.0</ele>
        <time>2019-10-18T14:18:08Z</time>
      </trkpt>
      <trkpt lat="36.9943450" lon="-2.3436740">
        <ele>1283.1</ele>
        <time>2019-10-18T14:18:09Z</time>
      </trkpt>
      <trkpt lat="36.9943550" lon="-2.3436990">
        <ele>1283.1</ele>
        <time>2019-10-18T14:18:10Z</time>
      </trkpt>
      <trkpt lat="36.9943650" lon="-2.3437240">
        <ele>1283.1</ele>
        <time>2019-10-18T14:18:11Z</time>
      </trkpt>
      <trkpt lat="36.9943760" lon="-2.3437500">
        <ele>1283.1</ele>
        <time>2019-10-18T14:18:12Z</time>
      </trkpt>
      <trkpt lat="36.9943870" lon="-2.3437760">
        <ele>1283.0</ele>
        <time>2019-10-18T14:18:13Z</time>
      </trkpt>
      <trkpt lat="36.9943980" lon="-2.3438020">
        <ele>1283.0</ele>
        <time>2019-10-18T14:18:14Z</time>
      </trkpt>
      <trkpt lat="36.9944090" lon="-2.3438270">
        <ele>1282.7</ele>
        <time>2019-10-18T14:18:15Z</time>
      </trkpt>
      <trkpt lat="36.9944210" lon="-2.3438520">
        <ele>1282.4</ele>
        <time>2019-10-18T14:18:16Z</time>
      </trkpt>
      <trkpt lat="36.9944330" lon="-2.3438750">
        <ele>1282.1</ele>
        <time>2019-10-18T14:18:17Z</time>
      </trkpt>
      <trkpt lat="36.9944450" lon="-2.3438980">
        <ele>1281.8</ele>
        <time>2019-10-18T14:18:18Z</time>
      </trkpt>
      <trkpt lat="36.9944560" lon="-2.3439220">
        <ele>1281.6</ele>
        <time>2019-10-18T14:18:19Z</time>
      </trkpt>
      <trkpt lat="36.9944670" lon="-2.3439460">
        <ele>1281.4</ele>
        <time>2019-10-18T14:18:20Z</time>
      </trkpt>
      <trkpt lat="36.9944790" lon="-2.3439710">
        <ele>1281.2</ele>
        <time>2019-10-18T14:18:21Z</time>
      </trkpt>
      <trkpt lat="36.9944900" lon="-2.3439970">
        <ele>1280.8</ele>
        <time>2019-10-18T14:18:22Z</time>
      </trkpt>
      <trkpt lat="36.9945010" lon="-2.3440230">
        <ele>1280.5</ele>
        <time>2019-10-18T14:18:23Z</time>
      </trkpt>
      <trkpt lat="36.9945110" lon="-2.3440490">
        <ele>1280.1</ele>
        <time>2019-10-18T14:18:24Z</time>
      </trkpt>
      <trkpt lat="36.9945200" lon="-2.3440770">
        <ele>1279.8</ele>
        <time>2019-10-18T14:18:25Z</time>
      </trkpt>
      <trkpt lat="36.9945290" lon="-2.3441060">
        <ele>1279.4</ele>
        <time>2019-10-18T14:18:26Z</time>
      </trkpt>
      <trkpt lat="36.9945370" lon="-2.3441360">
        <ele>1279.0</ele>
        <time>2019-10-18T14:18:27Z</time>
      </trkpt>
      <trkpt lat="36.9945440" lon="-2.3441680">
        <ele>1278.4</ele>
        <time>2019-10-18T14:18:28Z</time>
      </trkpt>
      <trkpt lat="36.9945490" lon="-2.3442020">
        <ele>1277.9</ele>
        <time>2019-10-18T14:18:29Z</time>
      </trkpt>
      <trkpt lat="36.9945530" lon="-2.3442370">
        <ele>1277.3</ele>
        <time>2019-10-18T14:18:30Z</time>
      </trkpt>
      <trkpt lat="36.9945540" lon="-2.3442720">
        <ele>1276.9</ele>
        <time>2019-10-18T14:18:31Z</time>
      </trkpt>
      <trkpt lat="36.9945540" lon="-2.3443060">
        <ele>1276.6</ele>
        <time>2019-10-18T14:18:32Z</time>
      </trkpt>
      <trkpt lat="36.9945520" lon="-2.3443420">
        <ele>1276.2</ele>
        <time>2019-10-18T14:18:33Z</time>
      </trkpt>
      <trkpt lat="36.9945480" lon="-2.3443790">
        <ele>1275.9</ele>
        <time>2019-10-18T14:18:34Z</time>
      </trkpt>
      <trkpt lat="36.9945420" lon="-2.3444160">
        <ele>1275.7</ele>
        <time>2019-10-18T14:18:35Z</time>
      </trkpt>
      <trkpt lat="36.9945350" lon="-2.3444520">
        <ele>1275.4</ele>
        <time>2019-10-18T14:18:36Z</time>
      </trkpt>
      <trkpt lat="36.9945290" lon="-2.3444880">
        <ele>1274.9</ele>
        <time>2019-10-18T14:18:37Z</time>
      </trkpt>
      <trkpt lat="36.9945230" lon="-2.3445240">
        <ele>1274.4</ele>
        <time>2019-10-18T14:18:38Z</time>
      </trkpt>
      <trkpt lat="36.9945170" lon="-2.3445610">
        <ele>1273.9</ele>
        <time>2019-10-18T14:18:39Z</time>
      </trkpt>
      <trkpt lat="36.9945110" lon="-2.3445990">
        <ele>1273.5</ele>
        <time>2019-10-18T14:18:40Z</time>
      </trkpt>
      <trkpt lat="36.9945060" lon="-2.3446390">
        <ele>1273.0</ele>
        <time>2019-10-18T14:18:41Z</time>
      </trkpt>
      <trkpt lat="36.9945010" lon="-2.3446810">
        <ele>1272.3</ele>
        <time>2019-10-18T14:18:42Z</time>
      </trkpt>
      <trkpt lat="36.9944960" lon="-2.3447220">
        <ele>1271.6</ele>
        <time>2019-10-18T14:18:43Z</time>
      </trkpt>
      <trkpt lat="36.9944920" lon="-2.3447640">
        <ele>1271.2</ele>
        <time>2019-10-18T14:18:44Z</time>
      </trkpt>
      <trkpt lat="36.9944880" lon="-2.3448050">
        <ele>1271.0</ele>
        <time>2019-10-18T14:18:45Z</time>
      </trkpt>
      <trkpt lat="36.9944840" lon="-2.3448470">
        <ele>1270.5</ele>
        <time>2019-10-18T14:18:46Z</time>
      </trkpt>
      <trkpt lat="36.9944820" lon="-2.3448890">
        <ele>1269.3</ele>
        <time>2019-10-18T14:18:47Z</time>
      </trkpt>
      <trkpt lat="36.9944800" lon="-2.3449310">
        <ele>1268.2</ele>
        <time>2019-10-18T14:18:48Z</time>
      </trkpt>
      <trkpt lat="36.9944790" lon="-2.3449720">
        <ele>1267.4</ele>
        <time>2019-10-18T14:18:49Z</time>
      </trkpt>
      <trkpt lat="36.9944780" lon="-2.3450130">
        <ele>1266.7</ele>
        <time>2019-10-18T14:18:50Z</time>
      </trkpt>
      <trkpt lat="36.9944770" lon="-2.3450560">
        <ele>1265.6</ele>
        <time>2019-10-18T14:18:51Z</time>
      </trkpt>
      <trkpt lat="36.9944780" lon="-2.3450990">
        <ele>1264.3</ele>
        <time>2019-10-18T14:18:52Z</time>
      </trkpt>
      <trkpt lat="36.9944800" lon="-2.3451430">
        <ele>1262.9</ele>
        <time>2019-10-18T14:18:53Z</time>
      </trkpt>
      <trkpt lat="36.9944830" lon="-2.3451890">
        <ele>1261.9</ele>
        <time>2019-10-18T14:18:54Z</time>
      </trkpt>
      <trkpt lat="36.9944850" lon="-2.3452370">
        <ele>1260.7</ele>
        <time>2019-10-18T14:18:55Z</time>
      </trkpt>
      <trkpt lat="36.9944890" lon="-2.3452860">
        <ele>1258.7</ele>
        <time>2019-10-18T14:18:56Z</time>
      </trkpt>
      <trkpt lat="36.9944920" lon="-2.3453350">
        <ele>1256.6</ele>
        <time>2019-10-18T14:18:57Z</time>
      </trkpt>
      <trkpt lat="36.9944940" lon="-2.3453860">
        <ele>1255.5</ele>
        <time>2019-10-18T14:18:58Z</time>
      </trkpt>
      <trkpt lat="36.9944920" lon="-2.3454380">
        <ele>1254.4</ele>
        <time>2019-10-18T14:18:59Z</time>
      </trkpt>
      <trkpt lat="36.9944890" lon="-2.3454910">
        <ele>1252.8</ele>
        <time>2019-10-18T14:19:00Z</time>
      </trkpt>
      <trkpt lat="36.9944830" lon="-2.3455450">
        <ele>1251.5</ele>
        <time>2019-10-18T14:19:01Z</time>
      </trkpt>
      <trkpt lat="36.9944720" lon="-2.3455970">
        <ele>1250.8</ele>
        <time>2019-10-18T14:19:02Z</time>
      </trkpt>
      <trkpt lat="36.9944560" lon="-2.3456480">
        <ele>1250.9</ele>
        <time>2019-10-18T14:19:03Z</time>
      </trkpt>
      <trkpt lat="36.9944360" lon="-2.3456970">
        <ele>1250.3</ele>
        <time>2019-10-18T14:19:04Z</time>
      </trkpt>
      <trkpt lat="36.9944150" lon="-2.3457480">
        <ele>1249.5</ele>
        <time>2019-10-18T14:19:05Z</time>
      </trkpt>
      <trkpt lat="36.9943950" lon="-2.3458010">
        <ele>1249.9</ele>
        <time>2019-10-18T14:19:06Z</time>
      </trkpt>
      <trkpt lat="36.9943760" lon="-2.3458570">
        <ele>1250.7</ele>
        <time>2019-10-18T14:19:07Z</time>
      </trkpt>
      <trkpt lat="36.9943600" lon="-2.3459180">
        <ele>1251.6</ele>
        <time>2019-10-18T14:19:08Z</time>
      </trkpt>
      <trkpt lat="36.9943470" lon="-2.3459820">
        <ele>1252.3</ele>
        <time>2019-10-18T14:19:09Z</time>
      </trkpt>
      <trkpt lat="36.9943360" lon="-2.3460480">
        <ele>1253.0</ele>
        <time>2019-10-18T14:19:10Z</time>
      </trkpt>
      <trkpt lat="36.9943290" lon="-2.3461150">
        <ele>1253.8</ele>
        <time>2019-10-18T14:19:11Z</time>
      </trkpt>
      <trkpt lat="36.9943240" lon="-2.3461820">
        <ele>1254.6</ele>
        <time>2019-10-18T14:19:12Z</time>
      </trkpt>
      <trkpt lat="36.9943230" lon="-2.3462490">
        <ele>1254.4</ele>
        <time>2019-10-18T14:19:13Z</time>
      </trkpt>
      <trkpt lat="36.9943210" lon="-2.3463140">
        <ele>1254.3</ele>
        <time>2019-10-18T14:19:14Z</time>
      </trkpt>
      <trkpt lat="36.9943180" lon="-2.3463770">
        <ele>1254.4</ele>
        <time>2019-10-18T14:19:15Z</time>
      </trkpt>
      <trkpt lat="36.9943150" lon="-2.3464400">
        <ele>1254.6</ele>
        <time>2019-10-18T14:19:16Z</time>
      </trkpt>
      <trkpt lat="36.9943110" lon="-2.3465010">
        <ele>1254.8</ele>
        <time>2019-10-18T14:19:17Z</time>
      </trkpt>
      <trkpt lat="36.9943060" lon="-2.3465620">
        <ele>1255.3</ele>
        <time>2019-10-18T14:19:18Z</time>
      </trkpt>
      <trkpt lat="36.9943010" lon="-2.3466220">
        <ele>1256.2</ele>
        <time>2019-10-18T14:19:19Z</time>
      </trkpt>
      <trkpt lat="36.9942970" lon="-2.3466830">
        <ele>1257.5</ele>
        <time>2019-10-18T14:19:20Z</time>
      </trkpt>
      <trkpt lat="36.9942950" lon="-2.3467430">
        <ele>1257.5</ele>
        <time>2019-10-18T14:19:21Z</time>
      </trkpt>
      <trkpt lat="36.9942930" lon="-2.3468030">
        <ele>1258.1</ele>
        <time>2019-10-18T14:19:22Z</time>
      </trkpt>
      <trkpt lat="36.9942910" lon="-2.3468620">
        <ele>1258.8</ele>
        <time>2019-10-18T14:19:23Z</time>
      </trkpt>
      <trkpt lat="36.9942890" lon="-2.3469240">
        <ele>1260.1</ele>
        <time>2019-10-18T14:19:24Z</time>
      </trkpt>
      <trkpt lat="36.9942900" lon="-2.3469880">
        <ele>1261.3</ele>
        <time>2019-10-18T14:19:25Z</time>
      </trkpt>
      <trkpt lat="36.9942910" lon="-2.3470540">
        <ele>1262.3</ele>
        <time>2019-10-18T14:19:26Z</time>
      </trkpt>
      <trkpt lat="36.9942930" lon="-2.3471210">
        <ele>1263.5</ele>
        <time>2019-10-18T14:19:27Z</time>
      </trkpt>
      <trkpt lat="36.9942960" lon="-2.3471900">
        <ele>1264.7</ele>
        <time>2019-10-18T14:19:28Z</time>
      </trkpt>
      <trkpt lat="36.9943010" lon="-2.3472600">
        <ele>1265.6</ele>
        <time>2019-10-18T14:19:29Z</time>
      </trkpt>
      <trkpt lat="36.9943070" lon="-2.3473300">
        <ele>1265.9</ele>
        <time>2019-10-18T14:19:30Z</time>
      </trkpt>
      <trkpt lat="36.9943130" lon="-2.3474020">
        <ele>1266.6</ele>
        <time>2019-10-18T14:19:31Z</time>
      </trkpt>
      <trkpt lat="36.9943200" lon="-2.3474760">
        <ele>1268.1</ele>
        <time>2019-10-18T14:19:32Z</time>
      </trkpt>
      <trkpt lat="36.9943270" lon="-2.3475520">
        <ele>1269.1</ele>
        <time>2019-10-18T14:19:33Z</time>
      </trkpt>
      <trkpt lat="36.9943310" lon="-2.3476300">
        <ele>1270.2</ele>
        <time>2019-10-18T14:19:34Z</time>
      </trkpt>
      <trkpt lat="36.9943330" lon="-2.3477080">
        <ele>1271.1</ele>
        <time>2019-10-18T14:19:35Z</time>
      </trkpt>
      <trkpt lat="36.9943300" lon="-2.3477870">
        <ele>1271.6</ele>
        <time>2019-10-18T14:19:36Z</time>
      </trkpt>
      <trkpt lat="36.9943190" lon="-2.3478650">
        <ele>1272.4</ele>
        <time>2019-10-18T14:19:37Z</time>
      </trkpt>
      <trkpt lat="36.9943000" lon="-2.3479380">
        <ele>1272.6</ele>
        <time>2019-10-18T14:19:38Z</time>
      </trkpt>
      <trkpt lat="36.9942780" lon="-2.3480050">
        <ele>1272.9</ele>
        <time>2019-10-18T14:19:39Z</time>
      </trkpt>
      <trkpt lat="36.9942560" lon="-2.3480640">
        <ele>1273.0</ele>
        <time>2019-10-18T14:19:40Z</time>
      </trkpt>
      <trkpt lat="36.9942330" lon="-2.3481190">
        <ele>1273.1</ele>
        <time>2019-10-18T14:19:41Z</time>
      </trkpt>
      <trkpt lat="36.9942100" lon="-2.3481690">
        <ele>1273.4</ele>
        <time>2019-10-18T14:19:42Z</time>
      </trkpt>
      <trkpt lat="36.9941860" lon="-2.3482160">
        <ele>1273.7</ele>
        <time>2019-10-18T14:19:43Z</time>
      </trkpt>
      <trkpt lat="36.9941640" lon="-2.3482610">
        <ele>1273.7</ele>
        <time>2019-10-18T14:19:44Z</time>
      </trkpt>
      <trkpt lat="36.9941420" lon="-2.3483050">
        <ele>1273.8</ele>
        <time>2019-10-18T14:19:45Z</time>
      </trkpt>
      <trkpt lat="36.9941220" lon="-2.3483490">
        <ele>1273.9</ele>
        <time>2019-10-18T14:19:46Z</time>
      </trkpt>
      <trkpt lat="36.9941010" lon="-2.3483920">
        <ele>1274.0</ele>
        <time>2019-10-18T14:19:47Z</time>
      </trkpt>
      <trkpt lat="36.9940810" lon="-2.3484350">
        <ele>1274.2</ele>
        <time>2019-10-18T14:19:48Z</time>
      </trkpt>
      <trkpt lat="36.9940600" lon="-2.3484770">
        <ele>1274.4</ele>
        <time>2019-10-18T14:19:49Z</time>
      </trkpt>
      <trkpt lat="36.9940390" lon="-2.3485190">
        <ele>1274.9</ele>
        <time>2019-10-18T14:19:50Z</time>
      </trkpt>
      <trkpt lat="36.9940180" lon="-2.3485610">
        <ele>1275.5</ele>
        <time>2019-10-18T14:19:51Z</time>
      </trkpt>
      <trkpt lat="36.9939970" lon="-2.3486020">
        <ele>1276.1</ele>
        <time>2019-10-18T14:19:52Z</time>
      </trkpt>
      <trkpt lat="36.9939750" lon="-2.3486430">
        <ele>1276.6</ele>
        <time>2019-10-18T14:19:53Z</time>
      </trkpt>
      <trkpt lat="36.9939530" lon="-2.3486840">
        <ele>1277.2</ele>
        <time>2019-10-18T14:19:54Z</time>
      </trkpt>
      <trkpt lat="36.9939310" lon="-2.3487240">
        <ele>1277.7</ele>
        <time>2019-10-18T14:19:55Z</time>
      </trkpt>
      <trkpt lat="36.9939070" lon="-2.3487630">
        <ele>1278.3</ele>
        <time>2019-10-18T14:19:56Z</time>
      </trkpt>
      <trkpt lat="36.9938840" lon="-2.3488020">
        <ele>1279.0</ele>
        <time>2019-10-18T14:19:57Z</time>
      </trkpt>
      <trkpt lat="36.9938610" lon="-2.3488420">
        <ele>1279.6</ele>
        <time>2019-10-18T14:19:58Z</time>
      </trkpt>
      <trkpt lat="36.9938390" lon="-2.3488840">
        <ele>1280.0</ele>
        <time>2019-10-18T14:19:59Z</time>
      </trkpt>
      <trkpt lat="36.9938170" lon="-2.3489270">
        <ele>1280.4</ele>
        <time>2019-10-18T14:20:00Z</time>
      </trkpt>
      <trkpt lat="36.9937950" lon="-2.3489710">
        <ele>1280.8</ele>
        <time>2019-10-18T14:20:01Z</time>
      </trkpt>
      <trkpt lat="36.9937720" lon="-2.3490150">
        <ele>1281.2</ele>
        <time>2019-10-18T14:20:02Z</time>
      </trkpt>
      <trkpt lat="36.9937490" lon="-2.3490600">
        <ele>1281.6</ele>
        <time>2019-10-18T14:20:03Z</time>
      </trkpt>
      <trkpt lat="36.9937260" lon="-2.3491050">
        <ele>1282.0</ele>
        <time>2019-10-18T14:20:04Z</time>
      </trkpt>
      <trkpt lat="36.9937030" lon="-2.3491510">
        <ele>1282.5</ele>
        <time>2019-10-18T14:20:05Z</time>
      </trkpt>
      <trkpt lat="36.9936800" lon="-2.3491990">
        <ele>1283.0</ele>
        <time>2019-10-18T14:20:06Z</time>
      </trkpt>
      <trkpt lat="36.9936560" lon="-2.3492460">
        <ele>1283.1</ele>
        <time>2019-10-18T14:20:07Z</time>
      </trkpt>
      <trkpt lat="36.9936320" lon="-2.3492950">
        <ele>1283.2</ele>
        <time>2019-10-18T14:20:08Z</time>
      </trkpt>
      <trkpt lat="36.9936080" lon="-2.3493440">
        <ele>1283.1</ele>
        <time>2019-10-18T14:20:09Z</time>
      </trkpt>
      <trkpt lat="36.9935850" lon="-2.3493940">
        <ele>1282.9</ele>
        <time>2019-10-18T14:20:10Z</time>
      </trkpt>
      <trkpt lat="36.9935620" lon="-2.3494450">
        <ele>1282.3</ele>
        <time>2019-10-18T14:20:11Z</time>
      </trkpt>
      <trkpt lat="36.9935410" lon="-2.3494970">
        <ele>1281.8</ele>
        <time>2019-10-18T14:20:12Z</time>
      </trkpt>
      <trkpt lat="36.9935220" lon="-2.3495490">
        <ele>1281.4</ele>
        <time>2019-10-18T14:20:13Z</time>
      </trkpt>
      <trkpt lat="36.9935050" lon="-2.3496020">
        <ele>1280.9</ele>
        <time>2019-10-18T14:20:14Z</time>
      </trkpt>
      <trkpt lat="36.9934890" lon="-2.3496560">
        <ele>1280.3</ele>
        <time>2019-10-18T14:20:15Z</time>
      </trkpt>
      <trkpt lat="36.9934780" lon="-2.3497100">
        <ele>1279.9</ele>
        <time>2019-10-18T14:20:16Z</time>
      </trkpt>
      <trkpt lat="36.9934700" lon="-2.3497650">
        <ele>1279.5</ele>
        <time>2019-10-18T14:20:17Z</time>
      </trkpt>
      <trkpt lat="36.9934660" lon="-2.3498200">
        <ele>1279.3</ele>
        <time>2019-10-18T14:20:18Z</time>
      </trkpt>
      <trkpt lat="36.9934630" lon="-2.3498750">
        <ele>1279.1</ele>
        <time>2019-10-18T14:20:19Z</time>
      </trkpt>
      <trkpt lat="36.9934630" lon="-2.3499290">
        <ele>1278.9</ele>
        <time>2019-10-18T14:20:20Z</time>
      </trkpt>
      <trkpt lat="36.9934650" lon="-2.3499830">
        <ele>1278.7</ele>
        <time>2019-10-18T14:20:21Z</time>
      </trkpt>
      <trkpt lat="36.9934680" lon="-2.3500370">
        <ele>1278.6</ele>
        <time>2019-10-18T14:20:22Z</time>
      </trkpt>
      <trkpt lat="36.9934720" lon="-2.3500920">
        <ele>1278.6</ele>
        <time>2019-10-18T14:20:23Z</time>
      </trkpt>
      <trkpt lat="36.9934750" lon="-2.3501480">
        <ele>1278.5</ele>
        <time>2019-10-18T14:20:24Z</time>
      </trkpt>
      <trkpt lat="36.9934770" lon="-2.3502040">
        <ele>1278.5</ele>
        <time>2019-10-18T14:20:25Z</time>
      </trkpt>
      <trkpt lat="36.9934790" lon="-2.3502610">
        <ele>1278.5</ele>
        <time>2019-10-18T14:20:26Z</time>
      </trkpt>
      <trkpt lat="36.9934800" lon="-2.3503190">
        <ele>1278.5</ele>
        <time>2019-10-18T14:20:27Z</time>
      </trkpt>
      <trkpt lat="36.9934800" lon="-2.3503790">
        <ele>1278.4</ele>
        <time>2019-10-18T14:20:28Z</time>
      </trkpt>
      <trkpt lat="36.9934800" lon="-2.3504380">
        <ele>1278.3</ele>
        <time>2019-10-18T14:20:29Z</time>
      </trkpt>
      <trkpt lat="36.9934790" lon="-2.3504990">
        <ele>1278.2</ele>
        <time>2019-10-18T14:20:30Z</time>
      </trkpt>
      <trkpt lat="36.9934770" lon="-2.3505600">
        <ele>1278.0</ele>
        <time>2019-10-18T14:20:31Z</time>
      </trkpt>
      <trkpt lat="36.9934750" lon="-2.3506220">
        <ele>1277.7</ele>
        <time>2019-10-18T14:20:32Z</time>
      </trkpt>
      <trkpt lat="36.9934740" lon="-2.3506850">
        <ele>1277.5</ele>
        <time>2019-10-18T14:20:33Z</time>
      </trkpt>
      <trkpt lat="36.9934740" lon="-2.3507480">
        <ele>1277.3</ele>
        <time>2019-10-18T14:20:34Z</time>
      </trkpt>
      <trkpt lat="36.9934760" lon="-2.3508100">
        <ele>1277.0</ele>
        <time>2019-10-18T14:20:35Z</time>
      </trkpt>
      <trkpt lat="36.9934790" lon="-2.3508720">
        <ele>1276.9</ele>
        <time>2019-10-18T14:20:36Z</time>
      </trkpt>
      <trkpt lat="36.9934830" lon="-2.3509330">
        <ele>1276.8</ele>
        <time>2019-10-18T14:20:37Z</time>
      </trkpt>
      <trkpt lat="36.9934890" lon="-2.3509940">
        <ele>1276.5</ele>
        <time>2019-10-18T14:20:38Z</time>
      </trkpt>
      <trkpt lat="36.9934960" lon="-2.3510530">
        <ele>1276.4</ele>
        <time>2019-10-18T14:20:39Z</time>
      </trkpt>
      <trkpt lat="36.9935040" lon="-2.3511110">
        <ele>1276.7</ele>
        <time>2019-10-18T14:20:40Z</time>
      </trkpt>
      <trkpt lat="36.9935130" lon="-2.3511690">
        <ele>1276.8</ele>
        <time>2019-10-18T14:20:41Z</time>
      </trkpt>
      <trkpt lat="36.9935210" lon="-2.3512270">
        <ele>1277.1</ele>
        <time>2019-10-18T14:20:42Z</time>
      </trkpt>
      <trkpt lat="36.9935280" lon="-2.3512850">
        <ele>1277.7</ele>
        <time>2019-10-18T14:20:43Z</time>
      </trkpt>
      <trkpt lat="36.9935290" lon="-2.3513440">
        <ele>1278.0</ele>
        <time>2019-10-18T14:20:44Z</time>
      </trkpt>
      <trkpt lat="36.9935240" lon="-2.3514030">
        <ele>1278.5</ele>
        <time>2019-10-18T14:20:45Z</time>
      </trkpt>
      <trkpt lat="36.9935100" lon="-2.3514590">
        <ele>1279.4</ele>
        <time>2019-10-18T14:20:46Z</time>
      </trkpt>
      <trkpt lat="36.9934880" lon="-2.3515130">
        <ele>1280.6</ele>
        <time>2019-10-18T14:20:47Z</time>
      </trkpt>
      <trkpt lat="36.9934600" lon="-2.3515640">
        <ele>1281.5</ele>
        <time>2019-10-18T14:20:48Z</time>
      </trkpt>
      <trkpt lat="36.9934310" lon="-2.3516140">
        <ele>1282.4</ele>
        <time>2019-10-18T14:20:49Z</time>
      </trkpt>
      <trkpt lat="36.9934020" lon="-2.3516620">
        <ele>1283.3</ele>
        <time>2019-10-18T14:20:50Z</time>
      </trkpt>
      <trkpt lat="36.9933730" lon="-2.3517080">
        <ele>1283.8</ele>
        <time>2019-10-18T14:20:51Z</time>
      </trkpt>
      <trkpt lat="36.9933410" lon="-2.3517490">
        <ele>1284.3</ele>
        <time>2019-10-18T14:20:52Z</time>
      </trkpt>
      <trkpt lat="36.9933090" lon="-2.3517880">
        <ele>1284.8</ele>
        <time>2019-10-18T14:20:53Z</time>
      </trkpt>
      <trkpt lat="36.9932780" lon="-2.3518250">
        <ele>1285.0</ele>
        <time>2019-10-18T14:20:54Z</time>
      </trkpt>
      <trkpt lat="36.9932460" lon="-2.3518580">
        <ele>1285.2</ele>
        <time>2019-10-18T14:20:55Z</time>
      </trkpt>
      <trkpt lat="36.9932140" lon="-2.3518880">
        <ele>1285.4</ele>
        <time>2019-10-18T14:20:56Z</time>
      </trkpt>
      <trkpt lat="36.9931830" lon="-2.3519160">
        <ele>1285.6</ele>
        <time>2019-10-18T14:20:57Z</time>
      </trkpt>
      <trkpt lat="36.9931520" lon="-2.3519430">
        <ele>1285.7</ele>
        <time>2019-10-18T14:20:58Z</time>
      </trkpt>
      <trkpt lat="36.9931230" lon="-2.3519710">
        <ele>1285.7</ele>
        <time>2019-10-18T14:20:59Z</time>
      </trkpt>
      <trkpt lat="36.9930970" lon="-2.3520030">
        <ele>1285.7</ele>
        <time>2019-10-18T14:21:00Z</time>
      </trkpt>
      <trkpt lat="36.9930750" lon="-2.3520400">
        <ele>1285.9</ele>
        <time>2019-10-18T14:21:01Z</time>
      </trkpt>
      <trkpt lat="36.9930570" lon="-2.3520820">
        <ele>1286.0</ele>
        <time>2019-10-18T14:21:02Z</time>
      </trkpt>
      <trkpt lat="36.9930450" lon="-2.3521290">
        <ele>1286.0</ele>
        <time>2019-10-18T14:21:03Z</time>
      </trkpt>
      <trkpt lat="36.9930390" lon="-2.3521800">
        <ele>1286.2</ele>
        <time>2019-10-18T14:21:04Z</time>
      </trkpt>
      <trkpt lat="36.9930400" lon="-2.3522340">
        <ele>1286.7</ele>
        <time>2019-10-18T14:21:05Z</time>
      </trkpt>
      <trkpt lat="36.9930450" lon="-2.3522910">
        <ele>1287.2</ele>
        <time>2019-10-18T14:21:06Z</time>
      </trkpt>
      <trkpt lat="36.9930530" lon="-2.3523530">
        <ele>1287.7</ele>
        <time>2019-10-18T14:21:07Z</time>
      </trkpt>
      <trkpt lat="36.9930630" lon="-2.3524180">
        <ele>1288.2</ele>
        <time>2019-10-18T14:21:08Z</time>
      </trkpt>
      <trkpt lat="36.9930740" lon="-2.3524860">
        <ele>1288.5</ele>
        <time>2019-10-18T14:21:09Z</time>
      </trkpt>
      <trkpt lat="36.9930840" lon="-2.3525570">
        <ele>1288.8</ele>
        <time>2019-10-18T14:21:10Z</time>
      </trkpt>
      <trkpt lat="36.9930940" lon="-2.3526300">
        <ele>1288.9</ele>
        <time>2019-10-18T14:21:11Z</time>
      </trkpt>
      <trkpt lat="36.9931000" lon="-2.3527040">
        <ele>1289.0</ele>
        <time>2019-10-18T14:21:12Z</time>
      </trkpt>
      <trkpt lat="36.9931010" lon="-2.3527770">
        <ele>1288.9</ele>
        <time>2019-10-18T14:21:13Z</time>
      </trkpt>
      <trkpt lat="36.9930940" lon="-2.3528510">
        <ele>1288.7</ele>
        <time>2019-10-18T14:21:14Z</time>
      </trkpt>
      <trkpt lat="36.9930800" lon="-2.3529230">
        <ele>1288.4</ele>
        <time>2019-10-18T14:21:15Z</time>
      </trkpt>
      <trkpt lat="36.9930560" lon="-2.3529920">
        <ele>1288.4</ele>
        <time>2019-10-18T14:21:16Z</time>
      </trkpt>
      <trkpt lat="36.9930290" lon="-2.3530590">
        <ele>1288.3</ele>
        <time>2019-10-18T14:21:17Z</time>
      </trkpt>
      <trkpt lat="36.9930010" lon="-2.3531250">
        <ele>1288.3</ele>
        <time>2019-10-18T14:21:18Z</time>
      </trkpt>
      <trkpt lat="36.9929750" lon="-2.3531920">
        <ele>1288.0</ele>
        <time>2019-10-18T14:21:19Z</time>
      </trkpt>
      <trkpt lat="36.9929490" lon="-2.3532600">
        <ele>1287.1</ele>
        <time>2019-10-18T14:21:20Z</time>
      </trkpt>
      <trkpt lat="36.9929220" lon="-2.3533310">
        <ele>1286.2</ele>
        <time>2019-10-18T14:21:21Z</time>
      </trkpt>
      <trkpt lat="36.9928970" lon="-2.3534040">
        <ele>1285.8</ele>
        <time>2019-10-18T14:21:22Z</time>
      </trkpt>
      <trkpt lat="36.9928720" lon="-2.3534780">
        <ele>1285.3</ele>
        <time>2019-10-18T14:21:23Z</time>
      </trkpt>
      <trkpt lat="36.9928480" lon="-2.3535510">
        <ele>1285.1</ele>
        <time>2019-10-18T14:21:24Z</time>
      </trkpt>
      <trkpt lat="36.9928240" lon="-2.3536230">
        <ele>1284.8</ele>
        <time>2019-10-18T14:21:25Z</time>
      </trkpt>
      <trkpt lat="36.9928030" lon="-2.3536920">
        <ele>1284.6</ele>
        <time>2019-10-18T14:21:26Z</time>
      </trkpt>
      <trkpt lat="36.9927820" lon="-2.3537580">
        <ele>1284.4</ele>
        <time>2019-10-18T14:21:27Z</time>
      </trkpt>
      <trkpt lat="36.9927620" lon="-2.3538220">
        <ele>1284.3</ele>
        <time>2019-10-18T14:21:28Z</time>
      </trkpt>
      <trkpt lat="36.9927430" lon="-2.3538820">
        <ele>1284.2</ele>
        <time>2019-10-18T14:21:29Z</time>
      </trkpt>
      <trkpt lat="36.9927230" lon="-2.3539400">
        <ele>1284.1</ele>
        <time>2019-10-18T14:21:30Z</time>
      </trkpt>
      <trkpt lat="36.9927030" lon="-2.3539960">
        <ele>1284.1</ele>
        <time>2019-10-18T14:21:31Z</time>
      </trkpt>
      <trkpt lat="36.9926830" lon="-2.3540480">
        <ele>1284.1</ele>
        <time>2019-10-18T14:21:32Z</time>
      </trkpt>
      <trkpt lat="36.9926610" lon="-2.3540970">
        <ele>1284.1</ele>
        <time>2019-10-18T14:21:33Z</time>
      </trkpt>
      <trkpt lat="36.9926370" lon="-2.3541420">
        <ele>1284.1</ele>
        <time>2019-10-18T14:21:34Z</time>
      </trkpt>
      <trkpt lat="36.9926130" lon="-2.3541860">
        <ele>1284.1</ele>
        <time>2019-10-18T14:21:35Z</time>
      </trkpt>
      <trkpt lat="36.9925890" lon="-2.3542280">
        <ele>1284.2</ele>
        <time>2019-10-18T14:21:36Z</time>
      </trkpt>
      <trkpt lat="36.9925650" lon="-2.3542670">
        <ele>1284.2</ele>
        <time>2019-10-18T14:21:37Z</time>
      </trkpt>
      <trkpt lat="36.9925410" lon="-2.3543020">
        <ele>1284.2</ele>
        <time>2019-10-18T14:21:38Z</time>
      </trkpt>
      <trkpt lat="36.9925160" lon="-2.3543350">
        <ele>1284.2</ele>
        <time>2019-10-18T14:21:39Z</time>
      </trkpt>
      <trkpt lat="36.9924920" lon="-2.3543650">
        <ele>1284.2</ele>
        <time>2019-10-18T14:21:40Z</time>
      </trkpt>
      <trkpt lat="36.9924690" lon="-2.3543950">
        <ele>1284.3</ele>
        <time>2019-10-18T14:21:41Z</time>
      </trkpt>
      <trkpt lat="36.9924460" lon="-2.3544230">
        <ele>1284.3</ele>
        <time>2019-10-18T14:21:42Z</time>
      </trkpt>
      <trkpt lat="36.9924230" lon="-2.3544520">
        <ele>1284.3</ele>
        <time>2019-10-18T14:21:43Z</time>
      </trkpt>
      <trkpt lat="36.9924010" lon="-2.3544810">
        <ele>1284.3</ele>
        <time>2019-10-18T14:21:44Z</time>
      </trkpt>
      <trkpt lat="36.9923790" lon="-2.3545120">
        <ele>1284.3</ele>
        <time>2019-10-18T14:21:45Z</time>
      </trkpt>
      <trkpt lat="36.9923580" lon="-2.3545430">
        <ele>1284.4</ele>
        <time>2019-10-18T14:21:46Z</time>
      </trkpt>
      <trkpt lat="36.9923350" lon="-2.3545730">
        <ele>1284.4</ele>
        <time>2019-10-18T14:21:47Z</time>
      </trkpt>
      <trkpt lat="36.9923110" lon="-2.3546040">
        <ele>1284.4</ele>
        <time>2019-10-18T14:21:48Z</time>
      </trkpt>
      <trkpt lat="36.9922870" lon="-2.3546360">
        <ele>1284.4</ele>
        <time>2019-10-18T14:21:49Z</time>
      </trkpt>
      <trkpt lat="36.9922630" lon="-2.3546670">
        <ele>1284.4</ele>
        <time>2019-10-18T14:21:50Z</time>
      </trkpt>
      <trkpt lat="36.9922400" lon="-2.3546990">
        <ele>1284.4</ele>
        <time>2019-10-18T14:21:51Z</time>
      </trkpt>
      <trkpt lat="36.9922170" lon="-2.3547310">
        <ele>1284.4</ele>
        <time>2019-10-18T14:21:52Z</time>
      </trkpt>
      <trkpt lat="36.9921950" lon="-2.3547610">
        <ele>1284.4</ele>
        <time>2019-10-18T14:21:53Z</time>
      </trkpt>
      <trkpt lat="36.9921720" lon="-2.3547920">
        <ele>1284.4</ele>
        <time>2019-10-18T14:21:54Z</time>
      </trkpt>
      <trkpt lat="36.9921500" lon="-2.3548210">
        <ele>1284.4</ele>
        <time>2019-10-18T14:21:55Z</time>
      </trkpt>
      <trkpt lat="36.9921270" lon="-2.3548480">
        <ele>1284.3</ele>
        <time>2019-10-18T14:21:56Z</time>
      </trkpt>
      <trkpt lat="36.9921030" lon="-2.3548750">
        <ele>1284.3</ele>
        <time>2019-10-18T14:21:57Z</time>
      </trkpt>
      <trkpt lat="36.9920800" lon="-2.3549020">
        <ele>1284.2</ele>
        <time>2019-10-18T14:21:58Z</time>
      </trkpt>
      <trkpt lat="36.9920560" lon="-2.3549280">
        <ele>1284.2</ele>
        <time>2019-10-18T14:21:59Z</time>
      </trkpt>
      <trkpt lat="36.9920310" lon="-2.3549530">
        <ele>1284.1</ele>
        <time>2019-10-18T14:22:00Z</time>
      </trkpt>
      <trkpt lat="36.9920040" lon="-2.3549770">
        <ele>1284.1</ele>
        <time>2019-10-18T14:22:01Z</time>
      </trkpt>
      <trkpt lat="36.9919770" lon="-2.3550000">
        <ele>1284.0</ele>
        <time>2019-10-18T14:22:02Z</time>
      </trkpt>
      <trkpt lat="36.9919480" lon="-2.3550240">
        <ele>1283.9</ele>
        <time>2019-10-18T14:22:03Z</time>
      </trkpt>
      <trkpt lat="36.9919200" lon="-2.3550470">
        <ele>1283.9</ele>
        <time>2019-10-18T14:22:04Z</time>
      </trkpt>
      <trkpt lat="36.9918900" lon="-2.3550690">
        <ele>1283.8</ele>
        <time>2019-10-18T14:22:05Z</time>
      </trkpt>
      <trkpt lat="36.9918590" lon="-2.3550920">
        <ele>1283.8</ele>
        <time>2019-10-18T14:22:06Z</time>
      </trkpt>
      <trkpt lat="36.9918280" lon="-2.3551150">
        <ele>1283.8</ele>
        <time>2019-10-18T14:22:07Z</time>
      </trkpt>
      <trkpt lat="36.9917960" lon="-2.3551380">
        <ele>1283.8</ele>
        <time>2019-10-18T14:22:08Z</time>
      </trkpt>
      <trkpt lat="36.9917640" lon="-2.3551600">
        <ele>1283.7</ele>
        <time>2019-10-18T14:22:09Z</time>
      </trkpt>
      <trkpt lat="36.9917320" lon="-2.3551800">
        <ele>1283.7</ele>
        <time>2019-10-18T14:22:10Z</time>
      </trkpt>
      <trkpt lat="36.9917010" lon="-2.3551990">
        <ele>1283.7</ele>
        <time>2019-10-18T14:22:11Z</time>
      </trkpt>
      <trkpt lat="36.9916710" lon="-2.3552170">
        <ele>1283.6</ele>
        <time>2019-10-18T14:22:12Z</time>
      </trkpt>
      <trkpt lat="36.9916430" lon="-2.3552340">
        <ele>1283.6</ele>
        <time>2019-10-18T14:22:13Z</time>
      </trkpt>
      <trkpt lat="36.9916160" lon="-2.3552500">
        <ele>1283.6</ele>
        <time>2019-10-18T14:22:14Z</time>
      </trkpt>
      <trkpt lat="36.9915900" lon="-2.3552660">
        <ele>1283.7</ele>
        <time>2019-10-18T14:22:15Z</time>
      </trkpt>
      <trkpt lat="36.9915660" lon="-2.3552830">
        <ele>1283.7</ele>
        <time>2019-10-18T14:22:16Z</time>
      </trkpt>
      <trkpt lat="36.9915440" lon="-2.3553000">
        <ele>1283.7</ele>
        <time>2019-10-18T14:22:17Z</time>
      </trkpt>
      <trkpt lat="36.9915220" lon="-2.3553180">
        <ele>1283.8</ele>
        <time>2019-10-18T14:22:18Z</time>
      </trkpt>
      <trkpt lat="36.9915000" lon="-2.3553360">
        <ele>1283.9</ele>
        <time>2019-10-18T14:22:19Z</time>
      </trkpt>
      <trkpt lat="36.9914790" lon="-2.3553560">
        <ele>1284.0</ele>
        <time>2019-10-18T14:22:20Z</time>
      </trkpt>
      <trkpt lat="36.9914570" lon="-2.3553770">
        <ele>1284.0</ele>
        <time>2019-10-18T14:22:21Z</time>
      </trkpt>
      <trkpt lat="36.9914360" lon="-2.3554000">
        <ele>1284.2</ele>
        <time>2019-10-18T14:22:22Z</time>
      </trkpt>
      <trkpt lat="36.9914160" lon="-2.3554250">
        <ele>1284.4</ele>
        <time>2019-10-18T14:22:23Z</time>
      </trkpt>
      <trkpt lat="36.9913940" lon="-2.3554520">
        <ele>1284.6</ele>
        <time>2019-10-18T14:22:24Z</time>
      </trkpt>
      <trkpt lat="36.9913720" lon="-2.3554790">
        <ele>1284.8</ele>
        <time>2019-10-18T14:22:25Z</time>
      </trkpt>
      <trkpt lat="36.9913500" lon="-2.3555070">
        <ele>1285.2</ele>
        <time>2019-10-18T14:22:26Z</time>
      </trkpt>
      <trkpt lat="36.9913300" lon="-2.3555370">
        <ele>1285.5</ele>
        <time>2019-10-18T14:22:27Z</time>
      </trkpt>
      <trkpt lat="36.9913100" lon="-2.3555670">
        <ele>1285.8</ele>
        <time>2019-10-18T14:22:28Z</time>
      </trkpt>
      <trkpt lat="36.9912890" lon="-2.3555980">
        <ele>1286.2</ele>
        <time>2019-10-18T14:22:29Z</time>
      </trkpt>
      <trkpt lat="36.9912680" lon="-2.3556280">
        <ele>1286.6</ele>
        <time>2019-10-18T14:22:30Z</time>
      </trkpt>
      <trkpt lat="36.9912470" lon="-2.3556570">
        <ele>1287.0</ele>
        <time>2019-10-18T14:22:31Z</time>
      </trkpt>
      <trkpt lat="36.9912260" lon="-2.3556860">
        <ele>1287.3</ele>
        <time>2019-10-18T14:22:32Z</time>
      </trkpt>
      <trkpt lat="36.9912050" lon="-2.3557120">
        <ele>1287.6</ele>
        <time>2019-10-18T14:22:33Z</time>
      </trkpt>
      <trkpt lat="36.9911830" lon="-2.3557350">
        <ele>1287.8</ele>
        <time>2019-10-18T14:22:34Z</time>
      </trkpt>
      <trkpt lat="36.9911600" lon="-2.3557550">
        <ele>1288.0</ele>
        <time>2019-10-18T14:22:35Z</time>
      </trkpt>
      <trkpt lat="36.9911340" lon="-2.3557730">
        <ele>1288.3</ele>
        <time>2019-10-18T14:22:36Z</time>
      </trkpt>
      <trkpt lat="36.9911080" lon="-2.3557890">
        <ele>1288.5</ele>
        <time>2019-10-18T14:22:37Z</time>
      </trkpt>
      <trkpt lat="36.9910800" lon="-2.3558040">
        <ele>1288.8</ele>
        <time>2019-10-18T14:22:38Z</time>
      </trkpt>
      <trkpt lat="36.9910520" lon="-2.3558180">
        <ele>1289.0</ele>
        <time>2019-10-18T14:22:39Z</time>
      </trkpt>
      <trkpt lat="36.9910220" lon="-2.3558330">
        <ele>1289.3</ele>
        <time>2019-10-18T14:22:40Z</time>
      </trkpt>
      <trkpt lat="36.9909920" lon="-2.3558500">
        <ele>1289.5</ele>
        <time>2019-10-18T14:22:41Z</time>
      </trkpt>
      <trkpt lat="36.9909620" lon="-2.3558700">
        <ele>1289.8</ele>
        <time>2019-10-18T14:22:42Z</time>
      </trkpt>
      <trkpt lat="36.9909340" lon="-2.3558950">
        <ele>1290.1</ele>
        <time>2019-10-18T14:22:43Z</time>
      </trkpt>
      <trkpt lat="36.9909090" lon="-2.3559240">
        <ele>1290.3</ele>
        <time>2019-10-18T14:22:44Z</time>
      </trkpt>
      <trkpt lat="36.9908860" lon="-2.3559570">
        <ele>1290.5</ele>
        <time>2019-10-18T14:22:45Z</time>
      </trkpt>
      <trkpt lat="36.9908660" lon="-2.3559920">
        <ele>1290.7</ele>
        <time>2019-10-18T14:22:46Z</time>
      </trkpt>
      <trkpt lat="36.9908500" lon="-2.3560240">
        <ele>1290.9</ele>
        <time>2019-10-18T14:22:47Z</time>
      </trkpt>
      <trkpt lat="36.9908380" lon="-2.3560510">
        <ele>1291.0</ele>
        <time>2019-10-18T14:22:48Z</time>
      </trkpt>
      <trkpt lat="36.9908310" lon="-2.3560690">
        <ele>1291.1</ele>
        <time>2019-10-18T14:22:49Z</time>
      </trkpt>
      <trkpt lat="36.9908290" lon="-2.3560790">
        <ele>1291.1</ele>
        <time>2019-10-18T14:22:50Z</time>
      </trkpt>
      <trkpt lat="36.9908300" lon="-2.3560830">
        <ele>1291.2</ele>
        <time>2019-10-18T14:22:51Z</time>
      </trkpt>
      <trkpt lat="36.9908300" lon="-2.3560840">
        <ele>1291.2</ele>
        <time>2019-10-18T14:22:52Z</time>
      </trkpt>
      <trkpt lat="36.9908310" lon="-2.3560850">
        <ele>1291.2</ele>
        <time>2019-10-18T14:22:53Z</time>
      </trkpt>
      <trkpt lat="36.9908310" lon="-2.3560850">
        <ele>1291.2</ele>
        <time>2019-10-18T14:22:54Z</time>
      </trkpt>
      <trkpt lat="36.9908320" lon="-2.3560860">
        <ele>1291.2</ele>
        <time>2019-10-18T14:22:55Z</time>
      </trkpt>
      <trkpt lat="36.9908320" lon="-2.3560870">
        <ele>1291.2</ele>
        <time>2019-10-18T14:22:56Z</time>
      </trkpt>
      <trkpt lat="36.9908320" lon="-2.3560870">
        <ele>1291.2</ele>
        <time>2019-10-18T14:22:57Z</time>
      </trkpt>
      <trkpt lat="36.9908320" lon="-2.3560880">
        <ele>1291.2</ele>
        <time>2019-10-18T14:22:58Z</time>
      </trkpt>
      <trkpt lat="36.9908320" lon="-2.3560880">
        <ele>1291.2</ele>
        <time>2019-10-18T14:22:59Z</time>
      </trkpt>
      <trkpt lat="36.9908330" lon="-2.3560890">
        <ele>1291.2</ele>
        <time>2019-10-18T14:23:00Z</time>
      </trkpt>
      <trkpt lat="36.9908330" lon="-2.3560890">
        <ele>1291.2</ele>
        <time>2019-10-18T14:23:01Z</time>
      </trkpt>
      <trkpt lat="36.9908320" lon="-2.3560900">
        <ele>1291.2</ele>
        <time>2019-10-18T14:23:02Z</time>
      </trkpt>
      <trkpt lat="36.9908320" lon="-2.3560910">
        <ele>1291.2</ele>
        <time>2019-10-18T14:23:03Z</time>
      </trkpt>
      <trkpt lat="36.9908320" lon="-2.3560920">
        <ele>1291.2</ele>
        <time>2019-10-18T14:23:04Z</time>
      </trkpt>
      <trkpt lat="36.9908300" lon="-2.3560950">
        <ele>1291.2</ele>
        <time>2019-10-18T14:23:05Z</time>
      </trkpt>
      <trkpt lat="36.9908270" lon="-2.3561030">
        <ele>1291.3</ele>
        <time>2019-10-18T14:23:06Z</time>
      </trkpt>
      <trkpt lat="36.9908210" lon="-2.3561160">
        <ele>1291.3</ele>
        <time>2019-10-18T14:23:07Z</time>
      </trkpt>
      <trkpt lat="36.9908150" lon="-2.3561330">
        <ele>1291.4</ele>
        <time>2019-10-18T14:23:08Z</time>
      </trkpt>
      <trkpt lat="36.9908060" lon="-2.3561550">
        <ele>1291.5</ele>
        <time>2019-10-18T14:23:09Z</time>
      </trkpt>
      <trkpt lat="36.9907960" lon="-2.3561790">
        <ele>1291.5</ele>
        <time>2019-10-18T14:23:10Z</time>
      </trkpt>
      <trkpt lat="36.9907840" lon="-2.3562060">
        <ele>1291.6</ele>
        <time>2019-10-18T14:23:11Z</time>
      </trkpt>
      <trkpt lat="36.9907710" lon="-2.3562340">
        <ele>1291.7</ele>
        <time>2019-10-18T14:23:12Z</time>
      </trkpt>
      <trkpt lat="36.9907550" lon="-2.3562620">
        <ele>1291.7</ele>
        <time>2019-10-18T14:23:13Z</time>
      </trkpt>
      <trkpt lat="36.9907400" lon="-2.3562900">
        <ele>1291.8</ele>
        <time>2019-10-18T14:23:14Z</time>
      </trkpt>
      <trkpt lat="36.9907260" lon="-2.3563180">
        <ele>1291.9</ele>
        <time>2019-10-18T14:23:15Z</time>
      </trkpt>
      <trkpt lat="36.9907120" lon="-2.3563450">
        <ele>1291.9</ele>
        <time>2019-10-18T14:23:16Z</time>
      </trkpt>
      <trkpt lat="36.9906970" lon="-2.3563710">
        <ele>1292.0</ele>
        <time>2019-10-18T14:23:17Z</time>
      </trkpt>
      <trkpt lat="36.9906810" lon="-2.3563970">
        <ele>1292.1</ele>
        <time>2019-10-18T14:23:18Z</time>
      </trkpt>
      <trkpt lat="36.9906660" lon="-2.3564260">
        <ele>1292.1</ele>
        <time>2019-10-18T14:23:19Z</time>
      </trkpt>
      <trkpt lat="36.9906510" lon="-2.3564570">
        <ele>1292.2</ele>
        <time>2019-10-18T14:23:20Z</time>
      </trkpt>
      <trkpt lat="36.9906390" lon="-2.3564900">
        <ele>1292.3</ele>
        <time>2019-10-18T14:23:21Z</time>
      </trkpt>
      <trkpt lat="36.9906270" lon="-2.3565250">
        <ele>1292.4</ele>
        <time>2019-10-18T14:23:22Z</time>
      </trkpt>
      <trkpt lat="36.9906190" lon="-2.3565630">
        <ele>1292.4</ele>
        <time>2019-10-18T14:23:23Z</time>
      </trkpt>
      <trkpt lat="36.9906130" lon="-2.3566020">
        <ele>1292.4</ele>
        <time>2019-10-18T14:23:24Z</time>
      </trkpt>
      <trkpt lat="36.9906080" lon="-2.3566400">
        <ele>1292.5</ele>
        <time>2019-10-18T14:23:25Z</time>
      </trkpt>
      <trkpt lat="36.9906050" lon="-2.3566780">
        <ele>1292.5</ele>
        <time>2019-10-18T14:23:26Z</time>
      </trkpt>
      <trkpt lat="36.9906040" lon="-2.3567180">
        <ele>1292.5</ele>
        <time>2019-10-18T14:23:27Z</time>
      </trkpt>
      <trkpt lat="36.9906020" lon="-2.3567580">
        <ele>1292.5</ele>
        <time>2019-10-18T14:23:28Z</time>
      </trkpt>
      <trkpt lat="36.9906010" lon="-2.3568000">
        <ele>1292.5</ele>
        <time>2019-10-18T14:23:29Z</time>
      </trkpt>
      <trkpt lat="36.9905990" lon="-2.3568420">
        <ele>1292.4</ele>
        <time>2019-10-18T14:23:30Z</time>
      </trkpt>
      <trkpt lat="36.9905970" lon="-2.3568840">
        <ele>1292.4</ele>
        <time>2019-10-18T14:23:31Z</time>
      </trkpt>
      <trkpt lat="36.9905930" lon="-2.3569270">
        <ele>1292.4</ele>
        <time>2019-10-18T14:23:32Z</time>
      </trkpt>
      <trkpt lat="36.9905880" lon="-2.3569710">
        <ele>1292.3</ele>
        <time>2019-10-18T14:23:33Z</time>
      </trkpt>
      <trkpt lat="36.9905810" lon="-2.3570150">
        <ele>1292.3</ele>
        <time>2019-10-18T14:23:34Z</time>
      </trkpt>
      <trkpt lat="36.9905710" lon="-2.3570570">
        <ele>1292.3</ele>
        <time>2019-10-18T14:23:35Z</time>
      </trkpt>
      <trkpt lat="36.9905570" lon="-2.3570970">
        <ele>1292.2</ele>
        <time>2019-10-18T14:23:36Z</time>
      </trkpt>
      <trkpt lat="36.9905410" lon="-2.3571350">
        <ele>1292.2</ele>
        <time>2019-10-18T14:23:37Z</time>
      </trkpt>
      <trkpt lat="36.9905210" lon="-2.3571710">
        <ele>1292.2</ele>
        <time>2019-10-18T14:23:38Z</time>
      </trkpt>
      <trkpt lat="36.9904960" lon="-2.3572040">
        <ele>1292.1</ele>
        <time>2019-10-18T14:23:39Z</time>
      </trkpt>
      <trkpt lat="36.9904690" lon="-2.3572340">
        <ele>1292.1</ele>
        <time>2019-10-18T14:23:40Z</time>
      </trkpt>
      <trkpt lat="36.9904400" lon="-2.3572600">
        <ele>1292.0</ele>
        <time>2019-10-18T14:23:41Z</time>
      </trkpt>
      <trkpt lat="36.9904100" lon="-2.3572830">
        <ele>1292.0</ele>
        <time>2019-10-18T14:23:42Z</time>
      </trkpt>
      <trkpt lat="36.9903790" lon="-2.3573040">
        <ele>1291.9</ele>
        <time>2019-10-18T14:23:43Z</time>
      </trkpt>
      <trkpt lat="36.9903480" lon="-2.3573250">
        <ele>1291.8</ele>
        <time>2019-10-18T14:23:44Z</time>
      </trkpt>
      <trkpt lat="36.9903160" lon="-2.3573470">
        <ele>1291.7</ele>
        <time>2019-10-18T14:23:45Z</time>
      </trkpt>
      <trkpt lat="36.9902850" lon="-2.3573690">
        <ele>1291.6</ele>
        <time>2019-10-18T14:23:46Z</time>
      </trkpt>
      <trkpt lat="36.9902540" lon="-2.3573920">
        <ele>1291.5</ele>
        <time>2019-10-18T14:23:47Z</time>
      </trkpt>
      <trkpt lat="36.9902230" lon="-2.3574160">
        <ele>1291.4</ele>
        <time>2019-10-18T14:23:48Z</time>
      </trkpt>
      <trkpt lat="36.9901920" lon="-2.3574390">
        <ele>1291.3</ele>
        <time>2019-10-18T14:23:49Z</time>
      </trkpt>
      <trkpt lat="36.9901620" lon="-2.3574630">
        <ele>1291.2</ele>
        <time>2019-10-18T14:23:50Z</time>
      </trkpt>
      <trkpt lat="36.9901320" lon="-2.3574880">
        <ele>1291.2</ele>
        <time>2019-10-18T14:23:51Z</time>
      </trkpt>
      <trkpt lat="36.9901040" lon="-2.3575150">
        <ele>1291.1</ele>
        <time>2019-10-18T14:23:52Z</time>
      </trkpt>
      <trkpt lat="36.9900780" lon="-2.3575450">
        <ele>1291.1</ele>
        <time>2019-10-18T14:23:53Z</time>
      </trkpt>
      <trkpt lat="36.9900540" lon="-2.3575790">
        <ele>1291.0</ele>
        <time>2019-10-18T14:23:54Z</time>
      </trkpt>
      <trkpt lat="36.9900320" lon="-2.3576180">
        <ele>1290.9</ele>
        <time>2019-10-18T14:23:55Z</time>
      </trkpt>
      <trkpt lat="36.9900130" lon="-2.3576600">
        <ele>1290.9</ele>
        <time>2019-10-18T14:23:56Z</time>
      </trkpt>
      <trkpt lat="36.9899970" lon="-2.3577050">
        <ele>1290.8</ele>
        <time>2019-10-18T14:23:57Z</time>
      </trkpt>
      <trkpt lat="36.9899840" lon="-2.3577540">
        <ele>1290.8</ele>
        <time>2019-10-18T14:23:58Z</time>
      </trkpt>
      <trkpt lat="36.9899750" lon="-2.3578060">
        <ele>1290.7</ele>
        <time>2019-10-18T14:23:59Z</time>
      </trkpt>
      <trkpt lat="36.9899680" lon="-2.3578620">
        <ele>1290.7</ele>
        <time>2019-10-18T14:24:00Z</time>
      </trkpt>
      <trkpt lat="36.9899640" lon="-2.3579210">
        <ele>1290.6</ele>
        <time>2019-10-18T14:24:01Z</time>
      </trkpt>
      <trkpt lat="36.9899600" lon="-2.3579830">
        <ele>1290.6</ele>
        <time>2019-10-18T14:24:02Z</time>
      </trkpt>
      <trkpt lat="36.9899570" lon="-2.3580510">
        <ele>1290.6</ele>
        <time>2019-10-18T14:24:03Z</time>
      </trkpt>
      <trkpt lat="36.9899580" lon="-2.3581240">
        <ele>1290.6</ele>
        <time>2019-10-18T14:24:04Z</time>
      </trkpt>
      <trkpt lat="36.9899630" lon="-2.3582010">
        <ele>1290.6</ele>
        <time>2019-10-18T14:24:05Z</time>
      </trkpt>
      <trkpt lat="36.9899710" lon="-2.3582780">
        <ele>1290.6</ele>
        <time>2019-10-18T14:24:06Z</time>
      </trkpt>
      <trkpt lat="36.9899820" lon="-2.3583550">
        <ele>1290.7</ele>
        <time>2019-10-18T14:24:07Z</time>
      </trkpt>
      <trkpt lat="36.9899960" lon="-2.3584330">
        <ele>1290.9</ele>
        <time>2019-10-18T14:24:08Z</time>
      </trkpt>
      <trkpt lat="36.9900090" lon="-2.3585150">
        <ele>1291.1</ele>
        <time>2019-10-18T14:24:09Z</time>
      </trkpt>
      <trkpt lat="36.9900170" lon="-2.3585960">
        <ele>1291.5</ele>
        <time>2019-10-18T14:24:10Z</time>
      </trkpt>
      <trkpt lat="36.9900190" lon="-2.3586800">
        <ele>1292.0</ele>
        <time>2019-10-18T14:24:11Z</time>
      </trkpt>
      <trkpt lat="36.9900130" lon="-2.3587630">
        <ele>1292.7</ele>
        <time>2019-10-18T14:24:12Z</time>
      </trkpt>
      <trkpt lat="36.9899990" lon="-2.3588450">
        <ele>1293.5</ele>
        <time>2019-10-18T14:24:13Z</time>
      </trkpt>
      <trkpt lat="36.9899790" lon="-2.3589190">
        <ele>1294.4</ele>
        <time>2019-10-18T14:24:14Z</time>
      </trkpt>
      <trkpt lat="36.9899550" lon="-2.3589900">
        <ele>1295.2</ele>
        <time>2019-10-18T14:24:15Z</time>
      </trkpt>
      <trkpt lat="36.9899310" lon="-2.3590570">
        <ele>1295.9</ele>
        <time>2019-10-18T14:24:16Z</time>
      </trkpt>
      <trkpt lat="36.9899070" lon="-2.3591230">
        <ele>1296.4</ele>
        <time>2019-10-18T14:24:17Z</time>
      </trkpt>
      <trkpt lat="36.9898840" lon="-2.3591860">
        <ele>1297.0</ele>
        <time>2019-10-18T14:24:18Z</time>
      </trkpt>
      <trkpt lat="36.9898620" lon="-2.3592500">
        <ele>1297.5</ele>
        <time>2019-10-18T14:24:19Z</time>
      </trkpt>
      <trkpt lat="36.9898420" lon="-2.3593130">
        <ele>1298.0</ele>
        <time>2019-10-18T14:24:20Z</time>
      </trkpt>
      <trkpt lat="36.9898230" lon="-2.3593750">
        <ele>1298.4</ele>
        <time>2019-10-18T14:24:21Z</time>
      </trkpt>
      <trkpt lat="36.9898060" lon="-2.3594370">
        <ele>1298.8</ele>
        <time>2019-10-18T14:24:22Z</time>
      </trkpt>
      <trkpt lat="36.9897900" lon="-2.3594980">
        <ele>1299.1</ele>
        <time>2019-10-18T14:24:23Z</time>
      </trkpt>
      <trkpt lat="36.9897750" lon="-2.3595600">
        <ele>1299.4</ele>
        <time>2019-10-18T14:24:24Z</time>
      </trkpt>
      <trkpt lat="36.9897600" lon="-2.3596210">
        <ele>1299.8</ele>
        <time>2019-10-18T14:24:25Z</time>
      </trkpt>
      <trkpt lat="36.9897450" lon="-2.3596810">
        <ele>1300.1</ele>
        <time>2019-10-18T14:24:26Z</time>
      </trkpt>
      <trkpt lat="36.9897300" lon="-2.3597390">
        <ele>1300.5</ele>
        <time>2019-10-18T14:24:27Z</time>
      </trkpt>
      <trkpt lat="36.9897160" lon="-2.3597950">
        <ele>1300.8</ele>
        <time>2019-10-18T14:24:28Z</time>
      </trkpt>
      <trkpt lat="36.9897030" lon="-2.3598510">
        <ele>1301.2</ele>
        <time>2019-10-18T14:24:29Z</time>
      </trkpt>
      <trkpt lat="36.9896910" lon="-2.3599070">
        <ele>1301.6</ele>
        <time>2019-10-18T14:24:30Z</time>
      </trkpt>
      <trkpt lat="36.9896820" lon="-2.3599630">
        <ele>1302.1</ele>
        <time>2019-10-18T14:24:31Z</time>
      </trkpt>
      <trkpt lat="36.9896750" lon="-2.3600170">
        <ele>1302.5</ele>
        <time>2019-10-18T14:24:32Z</time>
      </trkpt>
      <trkpt lat="36.9896690" lon="-2.3600710">
        <ele>1302.8</ele>
        <time>2019-10-18T14:24:33Z</time>
      </trkpt>
      <trkpt lat="36.9896640" lon="-2.3601240">
        <ele>1303.1</ele>
        <time>2019-10-18T14:24:34Z</time>
      </trkpt>
      <trkpt lat="36.9896600" lon="-2.3601760">
        <ele>1303.4</ele>
        <time>2019-10-18T14:24:35Z</time>
      </trkpt>
      <trkpt lat="36.9896550" lon="-2.3602280">
        <ele>1303.6</ele>
        <time>2019-10-18T14:24:36Z</time>
      </trkpt>
      <trkpt lat="36.9896520" lon="-2.3602780">
        <ele>1303.9</ele>
        <time>2019-10-18T14:24:37Z</time>
      </trkpt>
      <trkpt lat="36.9896490" lon="-2.3603280">
        <ele>1304.1</ele>
        <time>2019-10-18T14:24:38Z</time>
      </trkpt>
      <trkpt lat="36.9896470" lon="-2.3603760">
        <ele>1304.4</ele>
        <time>2019-10-18T14:24:39Z</time>
      </trkpt>
      <trkpt lat="36.9896470" lon="-2.3604240">
        <ele>1304.6</ele>
        <time>2019-10-18T14:24:40Z</time>
      </trkpt>
      <trkpt lat="36.9896470" lon="-2.3604710">
        <ele>1304.8</ele>
        <time>2019-10-18T14:24:41Z</time>
      </trkpt>
      <trkpt lat="36.9896450" lon="-2.3605180">
        <ele>1305.0</ele>
        <time>2019-10-18T14:24:42Z</time>
      </trkpt>
      <trkpt lat="36.9896420" lon="-2.3605640">
        <ele>1305.2</ele>
        <time>2019-10-18T14:24:43Z</time>
      </trkpt>
      <trkpt lat="36.9896380" lon="-2.3606100">
        <ele>1305.4</ele>
        <time>2019-10-18T14:24:44Z</time>
      </trkpt>
      <trkpt lat="36.9896320" lon="-2.3606560">
        <ele>1305.6</ele>
        <time>2019-10-18T14:24:45Z</time>
      </trkpt>
      <trkpt lat="36.9896260" lon="-2.3607020">
        <ele>1305.8</ele>
        <time>2019-10-18T14:24:46Z</time>
      </trkpt>
      <trkpt lat="36.9896180" lon="-2.3607460">
        <ele>1306.1</ele>
        <time>2019-10-18T14:24:47Z</time>
      </trkpt>
      <trkpt lat="36.9896100" lon="-2.3607900">
        <ele>1306.4</ele>
        <time>2019-10-18T14:24:48Z</time>
      </trkpt>
      <trkpt lat="36.9896000" lon="-2.3608310">
        <ele>1306.7</ele>
        <time>2019-10-18T14:24:49Z</time>
      </trkpt>
      <trkpt lat="36.9895900" lon="-2.3608720">
        <ele>1307.1</ele>
        <time>2019-10-18T14:24:50Z</time>
      </trkpt>
      <trkpt lat="36.9895800" lon="-2.3609130">
        <ele>1307.5</ele>
        <time>2019-10-18T14:24:51Z</time>
      </trkpt>
      <trkpt lat="36.9895710" lon="-2.3609530">
        <ele>1307.9</ele>
        <time>2019-10-18T14:24:52Z</time>
      </trkpt>
      <trkpt lat="36.9895640" lon="-2.3609910">
        <ele>1308.2</ele>
        <time>2019-10-18T14:24:53Z</time>
      </trkpt>
      <trkpt lat="36.9895590" lon="-2.3610280">
        <ele>1307.7</ele>
        <time>2019-10-18T14:24:54Z</time>
      </trkpt>
      <trkpt lat="36.9895560" lon="-2.3610610">
        <ele>1307.6</ele>
        <time>2019-10-18T14:24:55Z</time>
      </trkpt>
      <trkpt lat="36.9895540" lon="-2.3610910">
        <ele>1307.5</ele>
        <time>2019-10-18T14:24:56Z</time>
      </trkpt>
      <trkpt lat="36.9895550" lon="-2.3611190">
        <ele>1307.4</ele>
        <time>2019-10-18T14:24:57Z</time>
      </trkpt>
      <trkpt lat="36.9895580" lon="-2.3611430">
        <ele>1307.4</ele>
        <time>2019-10-18T14:24:58Z</time>
      </trkpt>
      <trkpt lat="36.9895610" lon="-2.3611620">
        <ele>1307.3</ele>
        <time>2019-10-18T14:24:59Z</time>
      </trkpt>
      <trkpt lat="36.9895620" lon="-2.3611730">
        <ele>1307.3</ele>
        <time>2019-10-18T14:25:00Z</time>
      </trkpt>
      <trkpt lat="36.9895610" lon="-2.3611770">
        <ele>1307.3</ele>
        <time>2019-10-18T14:25:01Z</time>
      </trkpt>
      <trkpt lat="36.9895610" lon="-2.3611770">
        <ele>1307.3</ele>
        <time>2019-10-18T14:25:02Z</time>
      </trkpt>
      <trkpt lat="36.9895600" lon="-2.3611750">
        <ele>1307.3</ele>
        <time>2019-10-18T14:25:03Z</time>
      </trkpt>
      <trkpt lat="36.9895600" lon="-2.3611730">
        <ele>1307.3</ele>
        <time>2019-10-18T14:25:04Z</time>
      </trkpt>
      <trkpt lat="36.9895600" lon="-2.3611720">
        <ele>1307.2</ele>
        <time>2019-10-18T14:25:05Z</time>
      </trkpt>
      <trkpt lat="36.9895600" lon="-2.3611710">
        <ele>1307.2</ele>
        <time>2019-10-18T14:25:06Z</time>
      </trkpt>
      <trkpt lat="36.9895600" lon="-2.3611700">
        <ele>1307.2</ele>
        <time>2019-10-18T14:25:07Z</time>
      </trkpt>
      <trkpt lat="36.9895600" lon="-2.3611690">
        <ele>1307.2</ele>
        <time>2019-10-18T14:25:08Z</time>
      </trkpt>
      <trkpt lat="36.9895590" lon="-2.3611690">
        <ele>1307.2</ele>
        <time>2019-10-18T14:25:09Z</time>
      </trkpt>
      <trkpt lat="36.9895590" lon="-2.3611680">
        <ele>1307.2</ele>
        <time>2019-10-18T14:25:10Z</time>
      </trkpt>
      <trkpt lat="36.9895580" lon="-2.3611670">
        <ele>1307.2</ele>
        <time>2019-10-18T14:25:11Z</time>
      </trkpt>
      <trkpt lat="36.9895580" lon="-2.3611670">
        <ele>1307.2</ele>
        <time>2019-10-18T14:25:12Z</time>
      </trkpt>
      <trkpt lat="36.9895570" lon="-2.3611660">
        <ele>1307.2</ele>
        <time>2019-10-18T14:25:13Z</time>
      </trkpt>
      <trkpt lat="36.9895560" lon="-2.3611650">
        <ele>1307.2</ele>
        <time>2019-10-18T14:25:14Z</time>
      </trkpt>
      <trkpt lat="36.9895560" lon="-2.3611650">
        <ele>1307.2</ele>
        <time>2019-10-18T14:25:15Z</time>
      </trkpt>
      <trkpt lat="36.9895560" lon="-2.3611640">
        <ele>1307.2</ele>
        <time>2019-10-18T14:25:16Z</time>
      </trkpt>
      <trkpt lat="36.9895560" lon="-2.3611630">
        <ele>1307.1</ele>
        <time>2019-10-18T14:25:17Z</time>
      </trkpt>
      <trkpt lat="36.9895560" lon="-2.3611630">
        <ele>1307.1</ele>
        <time>2019-10-18T14:25:18Z</time>
      </trkpt>
      <trkpt lat="36.9895550" lon="-2.3611620">
        <ele>1307.1</ele>
        <time>2019-10-18T14:25:19Z</time>
      </trkpt>
      <trkpt lat="36.9895540" lon="-2.3611620">
        <ele>1307.1</ele>
        <time>2019-10-18T14:25:20Z</time>
      </trkpt>
      <trkpt lat="36.9895540" lon="-2.3611610">
        <ele>1307.1</ele>
        <time>2019-10-18T14:25:21Z</time>
      </trkpt>
      <trkpt lat="36.9895530" lon="-2.3611610">
        <ele>1307.1</ele>
        <time>2019-10-18T14:25:22Z</time>
      </trkpt>
      <trkpt lat="36.9895530" lon="-2.3611600">
        <ele>1307.1</ele>
        <time>2019-10-18T14:25:23Z</time>
      </trkpt>
      <trkpt lat="36.9895530" lon="-2.3611600">
        <ele>1307.1</ele>
        <time>2019-10-18T14:25:24Z</time>
      </trkpt>
      <trkpt lat="36.9895520" lon="-2.3611600">
        <ele>1307.1</ele>
        <time>2019-10-18T14:25:25Z</time>
      </trkpt>
      <trkpt lat="36.9895530" lon="-2.3611600">
        <ele>1307.1</ele>
        <time>2019-10-18T14:25:26Z</time>
      </trkpt>
      <trkpt lat="36.9895530" lon="-2.3611610">
        <ele>1307.1</ele>
        <time>2019-10-18T14:25:27Z</time>
      </trkpt>
      <trkpt lat="36.9895530" lon="-2.3611610">
        <ele>1307.1</ele>
        <time>2019-10-18T14:25:28Z</time>
      </trkpt>
      <trkpt lat="36.9895520" lon="-2.3611610">
        <ele>1307.1</ele>
        <time>2019-10-18T14:25:29Z</time>
      </trkpt>
      <trkpt lat="36.9895510" lon="-2.3611600">
        <ele>1307.1</ele>
        <time>2019-10-18T14:25:30Z</time>
      </trkpt>
      <trkpt lat="36.9895500" lon="-2.3611590">
        <ele>1307.1</ele>
        <time>2019-10-18T14:25:31Z</time>
      </trkpt>
      <trkpt lat="36.9895490" lon="-2.3611590">
        <ele>1307.1</ele>
        <time>2019-10-18T14:25:32Z</time>
      </trkpt>
      <trkpt lat="36.9895480" lon="-2.3611580">
        <ele>1307.1</ele>
        <time>2019-10-18T14:25:33Z</time>
      </trkpt>
      <trkpt lat="36.9895460" lon="-2.3611570">
        <ele>1307.1</ele>
        <time>2019-10-18T14:25:34Z</time>
      </trkpt>
      <trkpt lat="36.9895460" lon="-2.3611570">
        <ele>1307.1</ele>
        <time>2019-10-18T14:25:35Z</time>
      </trkpt>
      <trkpt lat="36.9895450" lon="-2.3611560">
        <ele>1307.1</ele>
        <time>2019-10-18T14:25:36Z</time>
      </trkpt>
      <trkpt lat="36.9895450" lon="-2.3611550">
        <ele>1307.1</ele>
        <time>2019-10-18T14:25:37Z</time>
      </trkpt>
      <trkpt lat="36.9895440" lon="-2.3611550">
        <ele>1307.1</ele>
        <time>2019-10-18T14:25:38Z</time>
      </trkpt>
      <trkpt lat="36.9895440" lon="-2.3611550">
        <ele>1307.1</ele>
        <time>2019-10-18T14:25:39Z</time>
      </trkpt>
      <trkpt lat="36.9895440" lon="-2.3611540">
        <ele>1307.1</ele>
        <time>2019-10-18T14:25:40Z</time>
      </trkpt>
      <trkpt lat="36.9895450" lon="-2.3611540">
        <ele>1307.1</ele>
        <time>2019-10-18T14:25:41Z</time>
      </trkpt>
      <trkpt lat="36.9895450" lon="-2.3611540">
        <ele>1307.1</ele>
        <time>2019-10-18T14:25:42Z</time>
      </trkpt>
      <trkpt lat="36.9895450" lon="-2.3611540">
        <ele>1307.1</ele>
        <time>2019-10-18T14:25:43Z</time>
      </trkpt>
      <trkpt lat="36.9895450" lon="-2.3611540">
        <ele>1307.1</ele>
        <time>2019-10-18T14:25:44Z</time>
      </trkpt>
      <trkpt lat="36.9895450" lon="-2.3611530">
        <ele>1307.1</ele>
        <time>2019-10-18T14:25:45Z</time>
      </trkpt>
      <trkpt lat="36.9895450" lon="-2.3611530">
        <ele>1307.1</ele>
        <time>2019-10-18T14:25:46Z</time>
      </trkpt>
      <trkpt lat="36.9895460" lon="-2.3611530">
        <ele>1307.1</ele>
        <time>2019-10-18T14:25:47Z</time>
      </trkpt>
      <trkpt lat="36.9895470" lon="-2.3611530">
        <ele>1307.1</ele>
        <time>2019-10-18T14:25:48Z</time>
      </trkpt>
      <trkpt lat="36.9895470" lon="-2.3611530">
        <ele>1307.1</ele>
        <time>2019-10-18T14:25:49Z</time>
      </trkpt>
      <trkpt lat="36.9895480" lon="-2.3611530">
        <ele>1307.1</ele>
        <time>2019-10-18T14:25:50Z</time>
      </trkpt>
      <trkpt lat="36.9895480" lon="-2.3611530">
        <ele>1307.1</ele>
        <time>2019-10-18T14:25:51Z</time>
      </trkpt>
      <trkpt lat="36.9895480" lon="-2.3611530">
        <ele>1307.1</ele>
        <time>2019-10-18T14:25:52Z</time>
      </trkpt>
      <trkpt lat="36.9895480" lon="-2.3611530">
        <ele>1307.1</ele>
        <time>2019-10-18T14:25:53Z</time>
      </trkpt>
      <trkpt lat="36.9895480" lon="-2.3611520">
        <ele>1307.1</ele>
        <time>2019-10-18T14:25:54Z</time>
      </trkpt>
      <trkpt lat="36.9895490" lon="-2.3611520">
        <ele>1307.0</ele>
        <time>2019-10-18T14:25:55Z</time>
      </trkpt>
      <trkpt lat="36.9895490" lon="-2.3611520">
        <ele>1307.0</ele>
        <time>2019-10-18T14:25:56Z</time>
      </trkpt>
      <trkpt lat="36.9895490" lon="-2.3611520">
        <ele>1307.0</ele>
        <time>2019-10-18T14:25:57Z</time>
      </trkpt>
      <trkpt lat="36.9895490" lon="-2.3611520">
        <ele>1307.0</ele>
        <time>2019-10-18T14:25:58Z</time>
      </trkpt>
      <trkpt lat="36.9895480" lon="-2.3611510">
        <ele>1307.0</ele>
        <time>2019-10-18T14:25:59Z</time>
      </trkpt>
      <trkpt lat="36.9895480" lon="-2.3611500">
        <ele>1307.0</ele>
        <time>2019-10-18T14:26:00Z</time>
      </trkpt>
      <trkpt lat="36.9895470" lon="-2.3611490">
        <ele>1307.0</ele>
        <time>2019-10-18T14:26:01Z</time>
      </trkpt>
      <trkpt lat="36.9895460" lon="-2.3611480">
        <ele>1307.0</ele>
        <time>2019-10-18T14:26:02Z</time>
      </trkpt>
      <trkpt lat="36.9895450" lon="-2.3611470">
        <ele>1307.0</ele>
        <time>2019-10-18T14:26:03Z</time>
      </trkpt>
      <trkpt lat="36.9895450" lon="-2.3611470">
        <ele>1307.0</ele>
        <time>2019-10-18T14:26:04Z</time>
      </trkpt>
      <trkpt lat="36.9895450" lon="-2.3611460">
        <ele>1307.0</ele>
        <time>2019-10-18T14:26:05Z</time>
      </trkpt>
      <trkpt lat="36.9895450" lon="-2.3611460">
        <ele>1307.0</ele>
        <time>2019-10-18T14:26:06Z</time>
      </trkpt>
      <trkpt lat="36.9895460" lon="-2.3611470">
        <ele>1307.0</ele>
        <time>2019-10-18T14:26:07Z</time>
      </trkpt>
      <trkpt lat="36.9895470" lon="-2.3611470">
        <ele>1307.0</ele>
        <time>2019-10-18T14:26:08Z</time>
      </trkpt>
      <trkpt lat="36.9895480" lon="-2.3611470">
        <ele>1307.0</ele>
        <time>2019-10-18T14:26:09Z</time>
      </trkpt>
      <trkpt lat="36.9895480" lon="-2.3611470">
        <ele>1307.0</ele>
        <time>2019-10-18T14:26:10Z</time>
      </trkpt>
      <trkpt lat="36.9895490" lon="-2.3611460">
        <ele>1307.0</ele>
        <time>2019-10-18T14:26:11Z</time>
      </trkpt>
      <trkpt lat="36.9895490" lon="-2.3611460">
        <ele>1307.0</ele>
        <time>2019-10-18T14:26:12Z</time>
      </trkpt>
      <trkpt lat="36.9895490" lon="-2.3611450">
        <ele>1307.0</ele>
        <time>2019-10-18T14:26:13Z</time>
      </trkpt>
      <trkpt lat="36.9895480" lon="-2.3611440">
        <ele>1307.0</ele>
        <time>2019-10-18T14:26:14Z</time>
      </trkpt>
      <trkpt lat="36.9895480" lon="-2.3611440">
        <ele>1307.0</ele>
        <time>2019-10-18T14:26:15Z</time>
      </trkpt>
      <trkpt lat="36.9895470" lon="-2.3611430">
        <ele>1307.0</ele>
        <time>2019-10-18T14:26:16Z</time>
      </trkpt>
      <trkpt lat="36.9895460" lon="-2.3611420">
        <ele>1307.0</ele>
        <time>2019-10-18T14:26:17Z</time>
      </trkpt>
      <trkpt lat="36.9895450" lon="-2.3611410">
        <ele>1307.0</ele>
        <time>2019-10-18T14:26:18Z</time>
      </trkpt>
      <trkpt lat="36.9895440" lon="-2.3611400">
        <ele>1307.0</ele>
        <time>2019-10-18T14:26:19Z</time>
      </trkpt>
      <trkpt lat="36.9895430" lon="-2.3611400">
        <ele>1307.0</ele>
        <time>2019-10-18T14:26:20Z</time>
      </trkpt>
      <trkpt lat="36.9895430" lon="-2.3611390">
        <ele>1307.0</ele>
        <time>2019-10-18T14:26:21Z</time>
      </trkpt>
      <trkpt lat="36.9895440" lon="-2.3611390">
        <ele>1307.0</ele>
        <time>2019-10-18T14:26:22Z</time>
      </trkpt>
      <trkpt lat="36.9895440" lon="-2.3611390">
        <ele>1307.0</ele>
        <time>2019-10-18T14:26:23Z</time>
      </trkpt>
      <trkpt lat="36.9895450" lon="-2.3611390">
        <ele>1307.0</ele>
        <time>2019-10-18T14:26:24Z</time>
      </trkpt>
      <trkpt lat="36.9895460" lon="-2.3611400">
        <ele>1307.0</ele>
        <time>2019-10-18T14:26:25Z</time>
      </trkpt>
      <trkpt lat="36.9895470" lon="-2.3611410">
        <ele>1307.0</ele>
        <time>2019-10-18T14:26:26Z</time>
      </trkpt>
      <trkpt lat="36.9895480" lon="-2.3611420">
        <ele>1306.9</ele>
        <time>2019-10-18T14:26:27Z</time>
      </trkpt>
      <trkpt lat="36.9895490" lon="-2.3611430">
        <ele>1306.9</ele>
        <time>2019-10-18T14:26:28Z</time>
      </trkpt>
      <trkpt lat="36.9895490" lon="-2.3611430">
        <ele>1306.9</ele>
        <time>2019-10-18T14:26:29Z</time>
      </trkpt>
      <trkpt lat="36.9895490" lon="-2.3611430">
        <ele>1306.9</ele>
        <time>2019-10-18T14:26:30Z</time>
      </trkpt>
      <trkpt lat="36.9895490" lon="-2.3611430">
        <ele>1306.9</ele>
        <time>2019-10-18T14:26:31Z</time>
      </trkpt>
      <trkpt lat="36.9895500" lon="-2.3611430">
        <ele>1306.9</ele>
        <time>2019-10-18T14:26:32Z</time>
      </trkpt>
      <trkpt lat="36.9895500" lon="-2.3611430">
        <ele>1306.9</ele>
        <time>2019-10-18T14:26:33Z</time>
      </trkpt>
      <trkpt lat="36.9895510" lon="-2.3611440">
        <ele>1306.9</ele>
        <time>2019-10-18T14:26:34Z</time>
      </trkpt>
      <trkpt lat="36.9895510" lon="-2.3611440">
        <ele>1306.9</ele>
        <time>2019-10-18T14:26:35Z</time>
      </trkpt>
      <trkpt lat="36.9895520" lon="-2.3611440">
        <ele>1306.9</ele>
        <time>2019-10-18T14:26:36Z</time>
      </trkpt>
      <trkpt lat="36.9895520" lon="-2.3611440">
        <ele>1306.9</ele>
        <time>2019-10-18T14:26:37Z</time>
      </trkpt>
      <trkpt lat="36.9895530" lon="-2.3611450">
        <ele>1306.9</ele>
        <time>2019-10-18T14:26:38Z</time>
      </trkpt>
      <trkpt lat="36.9895540" lon="-2.3611460">
        <ele>1306.9</ele>
        <time>2019-10-18T14:26:39Z</time>
      </trkpt>
      <trkpt lat="36.9895540" lon="-2.3611460">
        <ele>1306.9</ele>
        <time>2019-10-18T14:26:40Z</time>
      </trkpt>
      <trkpt lat="36.9895550" lon="-2.3611470">
        <ele>1306.9</ele>
        <time>2019-10-18T14:26:41Z</time>
      </trkpt>
      <trkpt lat="36.9895560" lon="-2.3611470">
        <ele>1306.9</ele>
        <time>2019-10-18T14:26:42Z</time>
      </trkpt>
      <trkpt lat="36.9895570" lon="-2.3611470">
        <ele>1306.9</ele>
        <time>2019-10-18T14:26:43Z</time>
      </trkpt>
      <trkpt lat="36.9895580" lon="-2.3611470">
        <ele>1306.9</ele>
        <time>2019-10-18T14:26:44Z</time>
      </trkpt>
      <trkpt lat="36.9895590" lon="-2.3611470">
        <ele>1306.9</ele>
        <time>2019-10-18T14:26:45Z</time>
      </trkpt>
      <trkpt lat="36.9895600" lon="-2.3611480">
        <ele>1306.9</ele>
        <time>2019-10-18T14:26:46Z</time>
      </trkpt>
      <trkpt lat="36.9895610" lon="-2.3611480">
        <ele>1306.9</ele>
        <time>2019-10-18T14:26:47Z</time>
      </trkpt>
      <trkpt lat="36.9895620" lon="-2.3611490">
        <ele>1306.9</ele>
        <time>2019-10-18T14:26:48Z</time>
      </trkpt>
      <trkpt lat="36.9895630" lon="-2.3611500">
        <ele>1306.9</ele>
        <time>2019-10-18T14:26:49Z</time>
      </trkpt>
      <trkpt lat="36.9895630" lon="-2.3611500">
        <ele>1306.9</ele>
        <time>2019-10-18T14:26:50Z</time>
      </trkpt>
      <trkpt lat="36.9895620" lon="-2.3611500">
        <ele>1306.9</ele>
        <time>2019-10-18T14:26:51Z</time>
      </trkpt>
      <trkpt lat="36.9895620" lon="-2.3611490">
        <ele>1306.9</ele>
        <time>2019-10-18T14:26:52Z</time>
      </trkpt>
      <trkpt lat="36.9895610" lon="-2.3611480">
        <ele>1306.9</ele>
        <time>2019-10-18T14:26:53Z</time>
      </trkpt>
      <trkpt lat="36.9895600" lon="-2.3611470">
        <ele>1306.9</ele>
        <time>2019-10-18T14:26:54Z</time>
      </trkpt>
      <trkpt lat="36.9895590" lon="-2.3611460">
        <ele>1306.9</ele>
        <time>2019-10-18T14:26:55Z</time>
      </trkpt>
      <trkpt lat="36.9895580" lon="-2.3611450">
        <ele>1306.9</ele>
        <time>2019-10-18T14:26:56Z</time>
      </trkpt>
      <trkpt lat="36.9895570" lon="-2.3611450">
        <ele>1306.8</ele>
        <time>2019-10-18T14:26:57Z</time>
      </trkpt>
      <trkpt lat="36.9895570" lon="-2.3611440">
        <ele>1306.8</ele>
        <time>2019-10-18T14:26:58Z</time>
      </trkpt>
      <trkpt lat="36.9895560" lon="-2.3611430">
        <ele>1306.8</ele>
        <time>2019-10-18T14:26:59Z</time>
      </trkpt>
      <trkpt lat="36.9895550" lon="-2.3611430">
        <ele>1306.8</ele>
        <time>2019-10-18T14:27:00Z</time>
      </trkpt>
      <trkpt lat="36.9895540" lon="-2.3611420">
        <ele>1306.8</ele>
        <time>2019-10-18T14:27:01Z</time>
      </trkpt>
      <trkpt lat="36.9895520" lon="-2.3611400">
        <ele>1306.8</ele>
        <time>2019-10-18T14:27:02Z</time>
      </trkpt>
      <trkpt lat="36.9895510" lon="-2.3611390">
        <ele>1306.8</ele>
        <time>2019-10-18T14:27:03Z</time>
      </trkpt>
      <trkpt lat="36.9895500" lon="-2.3611390">
        <ele>1306.8</ele>
        <time>2019-10-18T14:27:04Z</time>
      </trkpt>
      <trkpt lat="36.9895490" lon="-2.3611390">
        <ele>1306.8</ele>
        <time>2019-10-18T14:27:05Z</time>
      </trkpt>
      <trkpt lat="36.9895490" lon="-2.3611390">
        <ele>1306.8</ele>
        <time>2019-10-18T14:27:06Z</time>
      </trkpt>
      <trkpt lat="36.9895490" lon="-2.3611400">
        <ele>1306.8</ele>
        <time>2019-10-18T14:27:07Z</time>
      </trkpt>
      <trkpt lat="36.9895490" lon="-2.3611400">
        <ele>1306.8</ele>
        <time>2019-10-18T14:27:08Z</time>
      </trkpt>
      <trkpt lat="36.9895490" lon="-2.3611390">
        <ele>1306.8</ele>
        <time>2019-10-18T14:27:09Z</time>
      </trkpt>
      <trkpt lat="36.9895480" lon="-2.3611380">
        <ele>1306.8</ele>
        <time>2019-10-18T14:27:10Z</time>
      </trkpt>
      <trkpt lat="36.9895470" lon="-2.3611370">
        <ele>1306.8</ele>
        <time>2019-10-18T14:27:11Z</time>
      </trkpt>
      <trkpt lat="36.9895450" lon="-2.3611350">
        <ele>1306.8</ele>
        <time>2019-10-18T14:27:12Z</time>
      </trkpt>
      <trkpt lat="36.9895430" lon="-2.3611330">
        <ele>1306.8</ele>
        <time>2019-10-18T14:27:13Z</time>
      </trkpt>
      <trkpt lat="36.9895410" lon="-2.3611300">
        <ele>1306.8</ele>
        <time>2019-10-18T14:27:14Z</time>
      </trkpt>
      <trkpt lat="36.9895400" lon="-2.3611280">
        <ele>1306.8</ele>
        <time>2019-10-18T14:27:15Z</time>
      </trkpt>
      <trkpt lat="36.9895380" lon="-2.3611260">
        <ele>1306.7</ele>
        <time>2019-10-18T14:27:16Z</time>
      </trkpt>
      <trkpt lat="36.9895360" lon="-2.3611230">
        <ele>1306.7</ele>
        <time>2019-10-18T14:27:17Z</time>
      </trkpt>
      <trkpt lat="36.9895350" lon="-2.3611210">
        <ele>1306.7</ele>
        <time>2019-10-18T14:27:18Z</time>
      </trkpt>
      <trkpt lat="36.9895330" lon="-2.3611190">
        <ele>1306.7</ele>
        <time>2019-10-18T14:27:19Z</time>
      </trkpt>
      <trkpt lat="36.9895310" lon="-2.3611170">
        <ele>1306.7</ele>
        <time>2019-10-18T14:27:20Z</time>
      </trkpt>
      <trkpt lat="36.9895300" lon="-2.3611150">
        <ele>1306.7</ele>
        <time>2019-10-18T14:27:21Z</time>
      </trkpt>
      <trkpt lat="36.9895290" lon="-2.3611130">
        <ele>1306.7</ele>
        <time>2019-10-18T14:27:22Z</time>
      </trkpt>
      <trkpt lat="36.9895290" lon="-2.3611120">
        <ele>1306.7</ele>
        <time>2019-10-18T14:27:23Z</time>
      </trkpt>
      <trkpt lat="36.9895280" lon="-2.3611110">
        <ele>1306.7</ele>
        <time>2019-10-18T14:27:24Z</time>
      </trkpt>
      <trkpt lat="36.9895270" lon="-2.3611100">
        <ele>1306.7</ele>
        <time>2019-10-18T14:27:25Z</time>
      </trkpt>
      <trkpt lat="36.9895270" lon="-2.3611090">
        <ele>1306.7</ele>
        <time>2019-10-18T14:27:26Z</time>
      </trkpt>
      <trkpt lat="36.9895270" lon="-2.3611080">
        <ele>1306.7</ele>
        <time>2019-10-18T14:27:27Z</time>
      </trkpt>
      <trkpt lat="36.9895260" lon="-2.3611080">
        <ele>1306.7</ele>
        <time>2019-10-18T14:27:28Z</time>
      </trkpt>
      <trkpt lat="36.9895260" lon="-2.3611070">
        <ele>1306.7</ele>
        <time>2019-10-18T14:27:29Z</time>
      </trkpt>
      <trkpt lat="36.9895260" lon="-2.3611060">
        <ele>1306.7</ele>
        <time>2019-10-18T14:27:30Z</time>
      </trkpt>
      <trkpt lat="36.9895260" lon="-2.3611050">
        <ele>1306.7</ele>
        <time>2019-10-18T14:27:31Z</time>
      </trkpt>
      <trkpt lat="36.9895260" lon="-2.3611050">
        <ele>1306.7</ele>
        <time>2019-10-18T14:27:32Z</time>
      </trkpt>
      <trkpt lat="36.9895260" lon="-2.3611040">
        <ele>1306.7</ele>
        <time>2019-10-18T14:27:33Z</time>
      </trkpt>
      <trkpt lat="36.9895260" lon="-2.3611040">
        <ele>1306.7</ele>
        <time>2019-10-18T14:27:34Z</time>
      </trkpt>
      <trkpt lat="36.9895260" lon="-2.3611040">
        <ele>1306.7</ele>
        <time>2019-10-18T14:27:35Z</time>
      </trkpt>
      <trkpt lat="36.9895260" lon="-2.3611030">
        <ele>1306.7</ele>
        <time>2019-10-18T14:27:36Z</time>
      </trkpt>
      <trkpt lat="36.9895260" lon="-2.3611030">
        <ele>1306.7</ele>
        <time>2019-10-18T14:27:37Z</time>
      </trkpt>
      <trkpt lat="36.9895250" lon="-2.3611030">
        <ele>1306.6</ele>
        <time>2019-10-18T14:27:38Z</time>
      </trkpt>
      <trkpt lat="36.9895250" lon="-2.3611030">
        <ele>1306.6</ele>
        <time>2019-10-18T14:27:39Z</time>
      </trkpt>
      <trkpt lat="36.9895250" lon="-2.3611020">
        <ele>1306.6</ele>
        <time>2019-10-18T14:27:40Z</time>
      </trkpt>
      <trkpt lat="36.9895250" lon="-2.3611030">
        <ele>1306.6</ele>
        <time>2019-10-18T14:27:41Z</time>
      </trkpt>
      <trkpt lat="36.9895260" lon="-2.3611030">
        <ele>1306.6</ele>
        <time>2019-10-18T14:27:42Z</time>
      </trkpt>
      <trkpt lat="36.9895260" lon="-2.3611040">
        <ele>1306.6</ele>
        <time>2019-10-18T14:27:43Z</time>
      </trkpt>
      <trkpt lat="36.9895250" lon="-2.3611040">
        <ele>1306.6</ele>
        <time>2019-10-18T14:27:44Z</time>
      </trkpt>
      <trkpt lat="36.9895250" lon="-2.3611040">
        <ele>1306.6</ele>
        <time>2019-10-18T14:27:45Z</time>
      </trkpt>
      <trkpt lat="36.9895250" lon="-2.3611050">
        <ele>1306.6</ele>
        <time>2019-10-18T14:27:46Z</time>
      </trkpt>
      <trkpt lat="36.9895250" lon="-2.3611050">
        <ele>1306.6</ele>
        <time>2019-10-18T14:27:47Z</time>
      </trkpt>
      <trkpt lat="36.9895250" lon="-2.3611050">
        <ele>1306.6</ele>
        <time>2019-10-18T14:27:48Z</time>
      </trkpt>
      <trkpt lat="36.9895260" lon="-2.3611060">
        <ele>1306.6</ele>
        <time>2019-10-18T14:27:49Z</time>
      </trkpt>
      <trkpt lat="36.9895260" lon="-2.3611070">
        <ele>1306.6</ele>
        <time>2019-10-18T14:27:50Z</time>
      </trkpt>
      <trkpt lat="36.9895260" lon="-2.3611080">
        <ele>1306.6</ele>
        <time>2019-10-18T14:27:51Z</time>
      </trkpt>
      <trkpt lat="36.9895260" lon="-2.3611090">
        <ele>1306.6</ele>
        <time>2019-10-18T14:27:52Z</time>
      </trkpt>
      <trkpt lat="36.9895270" lon="-2.3611090">
        <ele>1306.6</ele>
        <time>2019-10-18T14:27:53Z</time>
      </trkpt>
      <trkpt lat="36.9895270" lon="-2.3611090">
        <ele>1306.6</ele>
        <time>2019-10-18T14:27:54Z</time>
      </trkpt>
      <trkpt lat="36.9895270" lon="-2.3611100">
        <ele>1306.6</ele>
        <time>2019-10-18T14:27:55Z</time>
      </trkpt>
      <trkpt lat="36.9895270" lon="-2.3611110">
        <ele>1306.6</ele>
        <time>2019-10-18T14:27:56Z</time>
      </trkpt>
      <trkpt lat="36.9895280" lon="-2.3611120">
        <ele>1306.6</ele>
        <time>2019-10-18T14:27:57Z</time>
      </trkpt>
      <trkpt lat="36.9895280" lon="-2.3611140">
        <ele>1306.6</ele>
        <time>2019-10-18T14:27:58Z</time>
      </trkpt>
      <trkpt lat="36.9895290" lon="-2.3611160">
        <ele>1306.6</ele>
        <time>2019-10-18T14:27:59Z</time>
      </trkpt>
      <trkpt lat="36.9895300" lon="-2.3611180">
        <ele>1306.6</ele>
        <time>2019-10-18T14:28:00Z</time>
      </trkpt>
      <trkpt lat="36.9895310" lon="-2.3611190">
        <ele>1306.6</ele>
        <time>2019-10-18T14:28:01Z</time>
      </trkpt>
      <trkpt lat="36.9895310" lon="-2.3611200">
        <ele>1306.6</ele>
        <time>2019-10-18T14:28:02Z</time>
      </trkpt>
      <trkpt lat="36.9895310" lon="-2.3611200">
        <ele>1306.6</ele>
        <time>2019-10-18T14:28:03Z</time>
      </trkpt>
      <trkpt lat="36.9895310" lon="-2.3611210">
        <ele>1306.6</ele>
        <time>2019-10-18T14:28:04Z</time>
      </trkpt>
      <trkpt lat="36.9895310" lon="-2.3611220">
        <ele>1306.6</ele>
        <time>2019-10-18T14:28:05Z</time>
      </trkpt>
      <trkpt lat="36.9895320" lon="-2.3611230">
        <ele>1306.6</ele>
        <time>2019-10-18T14:28:06Z</time>
      </trkpt>
      <trkpt lat="36.9895320" lon="-2.3611240">
        <ele>1306.6</ele>
        <time>2019-10-18T14:28:07Z</time>
      </trkpt>
      <trkpt lat="36.9895330" lon="-2.3611250">
        <ele>1306.6</ele>
        <time>2019-10-18T14:28:08Z</time>
      </trkpt>
      <trkpt lat="36.9895330" lon="-2.3611250">
        <ele>1306.6</ele>
        <time>2019-10-18T14:28:09Z</time>
      </trkpt>
      <trkpt lat="36.9895340" lon="-2.3611260">
        <ele>1306.5</ele>
        <time>2019-10-18T14:28:10Z</time>
      </trkpt>
      <trkpt lat="36.9895340" lon="-2.3611270">
        <ele>1306.5</ele>
        <time>2019-10-18T14:28:11Z</time>
      </trkpt>
      <trkpt lat="36.9895350" lon="-2.3611280">
        <ele>1306.5</ele>
        <time>2019-10-18T14:28:12Z</time>
      </trkpt>
      <trkpt lat="36.9895360" lon="-2.3611290">
        <ele>1306.5</ele>
        <time>2019-10-18T14:28:13Z</time>
      </trkpt>
      <trkpt lat="36.9895360" lon="-2.3611300">
        <ele>1306.5</ele>
        <time>2019-10-18T14:28:14Z</time>
      </trkpt>
      <trkpt lat="36.9895360" lon="-2.3611300">
        <ele>1306.5</ele>
        <time>2019-10-18T14:28:15Z</time>
      </trkpt>
      <trkpt lat="36.9895360" lon="-2.3611300">
        <ele>1306.5</ele>
        <time>2019-10-18T14:28:16Z</time>
      </trkpt>
      <trkpt lat="36.9895360" lon="-2.3611310">
        <ele>1306.5</ele>
        <time>2019-10-18T14:28:17Z</time>
      </trkpt>
      <trkpt lat="36.9895350" lon="-2.3611320">
        <ele>1306.5</ele>
        <time>2019-10-18T14:28:18Z</time>
      </trkpt>
      <trkpt lat="36.9895350" lon="-2.3611320">
        <ele>1306.5</ele>
        <time>2019-10-18T14:28:19Z</time>
      </trkpt>
      <trkpt lat="36.9895350" lon="-2.3611320">
        <ele>1306.5</ele>
        <time>2019-10-18T14:28:20Z</time>
      </trkpt>
      <trkpt lat="36.9895340" lon="-2.3611330">
        <ele>1306.5</ele>
        <time>2019-10-18T14:28:21Z</time>
      </trkpt>
      <trkpt lat="36.9895340" lon="-2.3611330">
        <ele>1306.5</ele>
        <time>2019-10-18T14:28:22Z</time>
      </trkpt>
      <trkpt lat="36.9895340" lon="-2.3611340">
        <ele>1306.5</ele>
        <time>2019-10-18T14:28:23Z</time>
      </trkpt>
      <trkpt lat="36.9895340" lon="-2.3611340">
        <ele>1306.5</ele>
        <time>2019-10-18T14:28:24Z</time>
      </trkpt>
      <trkpt lat="36.9895330" lon="-2.3611340">
        <ele>1306.5</ele>
        <time>2019-10-18T14:28:25Z</time>
      </trkpt>
      <trkpt lat="36.9895330" lon="-2.3611340">
        <ele>1306.5</ele>
        <time>2019-10-18T14:28:26Z</time>
      </trkpt>
      <trkpt lat="36.9895340" lon="-2.3611350">
        <ele>1306.5</ele>
        <time>2019-10-18T14:28:27Z</time>
      </trkpt>
      <trkpt lat="36.9895340" lon="-2.3611350">
        <ele>1306.5</ele>
        <time>2019-10-18T14:28:28Z</time>
      </trkpt>
      <trkpt lat="36.9895330" lon="-2.3611350">
        <ele>1306.5</ele>
        <time>2019-10-18T14:28:29Z</time>
      </trkpt>
      <trkpt lat="36.9895320" lon="-2.3611340">
        <ele>1306.5</ele>
        <time>2019-10-18T14:28:30Z</time>
      </trkpt>
      <trkpt lat="36.9895310" lon="-2.3611330">
        <ele>1306.5</ele>
        <time>2019-10-18T14:28:31Z</time>
      </trkpt>
      <trkpt lat="36.9895290" lon="-2.3611320">
        <ele>1306.5</ele>
        <time>2019-10-18T14:28:32Z</time>
      </trkpt>
      <trkpt lat="36.9895270" lon="-2.3611310">
        <ele>1306.5</ele>
        <time>2019-10-18T14:28:33Z</time>
      </trkpt>
      <trkpt lat="36.9895260" lon="-2.3611300">
        <ele>1306.5</ele>
        <time>2019-10-18T14:28:34Z</time>
      </trkpt>
      <trkpt lat="36.9895250" lon="-2.3611290">
        <ele>1306.5</ele>
        <time>2019-10-18T14:28:35Z</time>
      </trkpt>
      <trkpt lat="36.9895240" lon="-2.3611290">
        <ele>1306.5</ele>
        <time>2019-10-18T14:28:36Z</time>
      </trkpt>
      <trkpt lat="36.9895230" lon="-2.3611280">
        <ele>1306.5</ele>
        <time>2019-10-18T14:28:37Z</time>
      </trkpt>
      <trkpt lat="36.9895230" lon="-2.3611280">
        <ele>1306.5</ele>
        <time>2019-10-18T14:28:38Z</time>
      </trkpt>
      <trkpt lat="36.9895240" lon="-2.3611280">
        <ele>1306.5</ele>
        <time>2019-10-18T14:28:39Z</time>
      </trkpt>
      <trkpt lat="36.9895260" lon="-2.3611280">
        <ele>1306.4</ele>
        <time>2019-10-18T14:28:40Z</time>
      </trkpt>
      <trkpt lat="36.9895280" lon="-2.3611280">
        <ele>1306.4</ele>
        <time>2019-10-18T14:28:41Z</time>
      </trkpt>
      <trkpt lat="36.9895300" lon="-2.3611290">
        <ele>1306.4</ele>
        <time>2019-10-18T14:28:42Z</time>
      </trkpt>
      <trkpt lat="36.9895320" lon="-2.3611280">
        <ele>1306.4</ele>
        <time>2019-10-18T14:28:43Z</time>
      </trkpt>
      <trkpt lat="36.9895330" lon="-2.3611280">
        <ele>1306.4</ele>
        <time>2019-10-18T14:28:44Z</time>
      </trkpt>
      <trkpt lat="36.9895330" lon="-2.3611270">
        <ele>1306.4</ele>
        <time>2019-10-18T14:28:45Z</time>
      </trkpt>
      <trkpt lat="36.9895330" lon="-2.3611270">
        <ele>1306.4</ele>
        <time>2019-10-18T14:28:46Z</time>
      </trkpt>
      <trkpt lat="36.9895330" lon="-2.3611270">
        <ele>1306.4</ele>
        <time>2019-10-18T14:28:47Z</time>
      </trkpt>
      <trkpt lat="36.9895340" lon="-2.3611270">
        <ele>1306.4</ele>
        <time>2019-10-18T14:28:48Z</time>
      </trkpt>
      <trkpt lat="36.9895340" lon="-2.3611270">
        <ele>1306.4</ele>
        <time>2019-10-18T14:28:49Z</time>
      </trkpt>
      <trkpt lat="36.9895340" lon="-2.3611270">
        <ele>1306.4</ele>
        <time>2019-10-18T14:28:50Z</time>
      </trkpt>
      <trkpt lat="36.9895340" lon="-2.3611270">
        <ele>1306.4</ele>
        <time>2019-10-18T14:28:51Z</time>
      </trkpt>
      <trkpt lat="36.9895340" lon="-2.3611270">
        <ele>1306.4</ele>
        <time>2019-10-18T14:28:52Z</time>
      </trkpt>
      <trkpt lat="36.9895340" lon="-2.3611270">
        <ele>1306.4</ele>
        <time>2019-10-18T14:28:53Z</time>
      </trkpt>
      <trkpt lat="36.9895340" lon="-2.3611270">
        <ele>1306.4</ele>
        <time>2019-10-18T14:28:54Z</time>
      </trkpt>
      <trkpt lat="36.9895340" lon="-2.3611260">
        <ele>1306.4</ele>
        <time>2019-10-18T14:28:55Z</time>
      </trkpt>
      <trkpt lat="36.9895340" lon="-2.3611260">
        <ele>1306.4</ele>
        <time>2019-10-18T14:28:56Z</time>
      </trkpt>
      <trkpt lat="36.9895340" lon="-2.3611260">
        <ele>1306.4</ele>
        <time>2019-10-18T14:28:57Z</time>
      </trkpt>
      <trkpt lat="36.9895340" lon="-2.3611260">
        <ele>1306.4</ele>
        <time>2019-10-18T14:28:58Z</time>
      </trkpt>
      <trkpt lat="36.9895350" lon="-2.3611260">
        <ele>1306.4</ele>
        <time>2019-10-18T14:28:59Z</time>
      </trkpt>
      <trkpt lat="36.9895350" lon="-2.3611270">
        <ele>1306.4</ele>
        <time>2019-10-18T14:29:00Z</time>
      </trkpt>
      <trkpt lat="36.9895360" lon="-2.3611280">
        <ele>1306.4</ele>
        <time>2019-10-18T14:29:01Z</time>
      </trkpt>
      <trkpt lat="36.9895360" lon="-2.3611280">
        <ele>1306.4</ele>
        <time>2019-10-18T14:29:02Z</time>
      </trkpt>
      <trkpt lat="36.9895360" lon="-2.3611290">
        <ele>1306.4</ele>
        <time>2019-10-18T14:29:03Z</time>
      </trkpt>
      <trkpt lat="36.9895370" lon="-2.3611300">
        <ele>1306.4</ele>
        <time>2019-10-18T14:29:04Z</time>
      </trkpt>
      <trkpt lat="36.9895380" lon="-2.3611320">
        <ele>1306.4</ele>
        <time>2019-10-18T14:29:05Z</time>
      </trkpt>
      <trkpt lat="36.9895400" lon="-2.3611340">
        <ele>1306.4</ele>
        <time>2019-10-18T14:29:06Z</time>
      </trkpt>
      <trkpt lat="36.9895410" lon="-2.3611360">
        <ele>1306.4</ele>
        <time>2019-10-18T14:29:07Z</time>
      </trkpt>
      <trkpt lat="36.9895440" lon="-2.3611390">
        <ele>1306.3</ele>
        <time>2019-10-18T14:29:08Z</time>
      </trkpt>
      <trkpt lat="36.9895450" lon="-2.3611410">
        <ele>1306.3</ele>
        <time>2019-10-18T14:29:09Z</time>
      </trkpt>
      <trkpt lat="36.9895470" lon="-2.3611420">
        <ele>1306.3</ele>
        <time>2019-10-18T14:29:10Z</time>
      </trkpt>
      <trkpt lat="36.9895480" lon="-2.3611430">
        <ele>1306.3</ele>
        <time>2019-10-18T14:29:11Z</time>
      </trkpt>
      <trkpt lat="36.9895490" lon="-2.3611440">
        <ele>1306.3</ele>
        <time>2019-10-18T14:29:12Z</time>
      </trkpt>
      <trkpt lat="36.9895490" lon="-2.3611440">
        <ele>1306.3</ele>
        <time>2019-10-18T14:29:13Z</time>
      </trkpt>
      <trkpt lat="36.9895500" lon="-2.3611440">
        <ele>1306.3</ele>
        <time>2019-10-18T14:29:14Z</time>
      </trkpt>
      <trkpt lat="36.9895500" lon="-2.3611450">
        <ele>1306.3</ele>
        <time>2019-10-18T14:29:15Z</time>
      </trkpt>
      <trkpt lat="36.9895500" lon="-2.3611440">
        <ele>1306.3</ele>
        <time>2019-10-18T14:29:16Z</time>
      </trkpt>
      <trkpt lat="36.9895500" lon="-2.3611450">
        <ele>1306.3</ele>
        <time>2019-10-18T14:29:17Z</time>
      </trkpt>
      <trkpt lat="36.9895500" lon="-2.3611450">
        <ele>1306.3</ele>
        <time>2019-10-18T14:29:18Z</time>
      </trkpt>
      <trkpt lat="36.9895510" lon="-2.3611450">
        <ele>1306.3</ele>
        <time>2019-10-18T14:29:19Z</time>
      </trkpt>
      <trkpt lat="36.9895510" lon="-2.3611450">
        <ele>1306.3</ele>
        <time>2019-10-18T14:29:20Z</time>
      </trkpt>
      <trkpt lat="36.9895510" lon="-2.3611460">
        <ele>1306.3</ele>
        <time>2019-10-18T14:29:21Z</time>
      </trkpt>
      <trkpt lat="36.9895510" lon="-2.3611460">
        <ele>1306.3</ele>
        <time>2019-10-18T14:29:22Z</time>
      </trkpt>
      <trkpt lat="36.9895510" lon="-2.3611460">
        <ele>1306.3</ele>
        <time>2019-10-18T14:29:23Z</time>
      </trkpt>
      <trkpt lat="36.9895520" lon="-2.3611450">
        <ele>1306.3</ele>
        <time>2019-10-18T14:29:24Z</time>
      </trkpt>
      <trkpt lat="36.9895520" lon="-2.3611450">
        <ele>1306.3</ele>
        <time>2019-10-18T14:29:25Z</time>
      </trkpt>
      <trkpt lat="36.9895520" lon="-2.3611450">
        <ele>1306.3</ele>
        <time>2019-10-18T14:29:26Z</time>
      </trkpt>
      <trkpt lat="36.9895530" lon="-2.3611460">
        <ele>1306.3</ele>
        <time>2019-10-18T14:29:27Z</time>
      </trkpt>
      <trkpt lat="36.9895530" lon="-2.3611460">
        <ele>1306.3</ele>
        <time>2019-10-18T14:29:28Z</time>
      </trkpt>
      <trkpt lat="36.9895550" lon="-2.3611460">
        <ele>1306.3</ele>
        <time>2019-10-18T14:29:29Z</time>
      </trkpt>
      <trkpt lat="36.9895560" lon="-2.3611460">
        <ele>1306.3</ele>
        <time>2019-10-18T14:29:30Z</time>
      </trkpt>
      <trkpt lat="36.9895570" lon="-2.3611460">
        <ele>1306.3</ele>
        <time>2019-10-18T14:29:31Z</time>
      </trkpt>
      <trkpt lat="36.9895580" lon="-2.3611470">
        <ele>1306.3</ele>
        <time>2019-10-18T14:29:32Z</time>
      </trkpt>
      <trkpt lat="36.9895590" lon="-2.3611480">
        <ele>1306.3</ele>
        <time>2019-10-18T14:29:33Z</time>
      </trkpt>
      <trkpt lat="36.9895600" lon="-2.3611480">
        <ele>1306.3</ele>
        <time>2019-10-18T14:29:34Z</time>
      </trkpt>
      <trkpt lat="36.9895600" lon="-2.3611480">
        <ele>1306.3</ele>
        <time>2019-10-18T14:29:35Z</time>
      </trkpt>
      <trkpt lat="36.9895590" lon="-2.3611460">
        <ele>1306.3</ele>
        <time>2019-10-18T14:29:36Z</time>
      </trkpt>
      <trkpt lat="36.9895590" lon="-2.3611450">
        <ele>1306.3</ele>
        <time>2019-10-18T14:29:37Z</time>
      </trkpt>
      <trkpt lat="36.9895590" lon="-2.3611450">
        <ele>1306.3</ele>
        <time>2019-10-18T14:29:38Z</time>
      </trkpt>
      <trkpt lat="36.9895590" lon="-2.3611450">
        <ele>1306.3</ele>
        <time>2019-10-18T14:29:39Z</time>
      </trkpt>
      <trkpt lat="36.9895580" lon="-2.3611450">
        <ele>1306.2</ele>
        <time>2019-10-18T14:29:40Z</time>
      </trkpt>
      <trkpt lat="36.9895570" lon="-2.3611440">
        <ele>1306.2</ele>
        <time>2019-10-18T14:29:41Z</time>
      </trkpt>
      <trkpt lat="36.9895560" lon="-2.3611440">
        <ele>1306.2</ele>
        <time>2019-10-18T14:29:42Z</time>
      </trkpt>
      <trkpt lat="36.9895560" lon="-2.3611440">
        <ele>1306.2</ele>
        <time>2019-10-18T14:29:43Z</time>
      </trkpt>
      <trkpt lat="36.9895570" lon="-2.3611440">
        <ele>1306.2</ele>
        <time>2019-10-18T14:29:44Z</time>
      </trkpt>
      <trkpt lat="36.9895570" lon="-2.3611430">
        <ele>1306.2</ele>
        <time>2019-10-18T14:29:45Z</time>
      </trkpt>
      <trkpt lat="36.9895580" lon="-2.3611430">
        <ele>1306.2</ele>
        <time>2019-10-18T14:29:46Z</time>
      </trkpt>
      <trkpt lat="36.9895570" lon="-2.3611420">
        <ele>1306.2</ele>
        <time>2019-10-18T14:29:47Z</time>
      </trkpt>
      <trkpt lat="36.9895570" lon="-2.3611410">
        <ele>1306.2</ele>
        <time>2019-10-18T14:29:48Z</time>
      </trkpt>
      <trkpt lat="36.9895560" lon="-2.3611390">
        <ele>1306.2</ele>
        <time>2019-10-18T14:29:49Z</time>
      </trkpt>
      <trkpt lat="36.9895550" lon="-2.3611380">
        <ele>1306.2</ele>
        <time>2019-10-18T14:29:50Z</time>
      </trkpt>
      <trkpt lat="36.9895540" lon="-2.3611360">
        <ele>1306.2</ele>
        <time>2019-10-18T14:29:51Z</time>
      </trkpt>
      <trkpt lat="36.9895530" lon="-2.3611350">
        <ele>1306.2</ele>
        <time>2019-10-18T14:29:52Z</time>
      </trkpt>
      <trkpt lat="36.9895530" lon="-2.3611350">
        <ele>1306.2</ele>
        <time>2019-10-18T14:29:53Z</time>
      </trkpt>
      <trkpt lat="36.9895530" lon="-2.3611350">
        <ele>1306.2</ele>
        <time>2019-10-18T14:29:54Z</time>
      </trkpt>
      <trkpt lat="36.9895520" lon="-2.3611350">
        <ele>1306.2</ele>
        <time>2019-10-18T14:29:55Z</time>
      </trkpt>
      <trkpt lat="36.9895520" lon="-2.3611340">
        <ele>1306.2</ele>
        <time>2019-10-18T14:29:56Z</time>
      </trkpt>
      <trkpt lat="36.9895520" lon="-2.3611340">
        <ele>1306.2</ele>
        <time>2019-10-18T14:29:57Z</time>
      </trkpt>
      <trkpt lat="36.9895520" lon="-2.3611330">
        <ele>1306.2</ele>
        <time>2019-10-18T14:29:58Z</time>
      </trkpt>
      <trkpt lat="36.9895510" lon="-2.3611330">
        <ele>1306.2</ele>
        <time>2019-10-18T14:29:59Z</time>
      </trkpt>
      <trkpt lat="36.9895510" lon="-2.3611320">
        <ele>1306.2</ele>
        <time>2019-10-18T14:30:00Z</time>
      </trkpt>
      <trkpt lat="36.9895500" lon="-2.3611320">
        <ele>1306.2</ele>
        <time>2019-10-18T14:30:01Z</time>
      </trkpt>
      <trkpt lat="36.9895490" lon="-2.3611310">
        <ele>1306.2</ele>
        <time>2019-10-18T14:30:02Z</time>
      </trkpt>
      <trkpt lat="36.9895490" lon="-2.3611300">
        <ele>1306.2</ele>
        <time>2019-10-18T14:30:03Z</time>
      </trkpt>
      <trkpt lat="36.9895490" lon="-2.3611300">
        <ele>1306.2</ele>
        <time>2019-10-18T14:30:04Z</time>
      </trkpt>
      <trkpt lat="36.9895480" lon="-2.3611290">
        <ele>1306.2</ele>
        <time>2019-10-18T14:30:05Z</time>
      </trkpt>
      <trkpt lat="36.9895470" lon="-2.3611290">
        <ele>1306.2</ele>
        <time>2019-10-18T14:30:06Z</time>
      </trkpt>
      <trkpt lat="36.9895470" lon="-2.3611280">
        <ele>1306.2</ele>
        <time>2019-10-18T14:30:07Z</time>
      </trkpt>
      <trkpt lat="36.9895460" lon="-2.3611280">
        <ele>1306.2</ele>
        <time>2019-10-18T14:30:08Z</time>
      </trkpt>
      <trkpt lat="36.9895450" lon="-2.3611270">
        <ele>1306.1</ele>
        <time>2019-10-18T14:30:09Z</time>
      </trkpt>
      <trkpt lat="36.9895450" lon="-2.3611270">
        <ele>1306.1</ele>
        <time>2019-10-18T14:30:10Z</time>
      </trkpt>
      <trkpt lat="36.9895440" lon="-2.3611270">
        <ele>1306.1</ele>
        <time>2019-10-18T14:30:11Z</time>
      </trkpt>
      <trkpt lat="36.9895450" lon="-2.3611290">
        <ele>1306.1</ele>
        <time>2019-10-18T14:30:12Z</time>
      </trkpt>
      <trkpt lat="36.9895460" lon="-2.3611310">
        <ele>1306.1</ele>
        <time>2019-10-18T14:30:13Z</time>
      </trkpt>
      <trkpt lat="36.9895470" lon="-2.3611330">
        <ele>1306.1</ele>
        <time>2019-10-18T14:30:14Z</time>
      </trkpt>
      <trkpt lat="36.9895480" lon="-2.3611340">
        <ele>1306.1</ele>
        <time>2019-10-18T14:30:15Z</time>
      </trkpt>
      <trkpt lat="36.9895480" lon="-2.3611350">
        <ele>1306.1</ele>
        <time>2019-10-18T14:30:16Z</time>
      </trkpt>
      <trkpt lat="36.9895470" lon="-2.3611340">
        <ele>1306.1</ele>
        <time>2019-10-18T14:30:17Z</time>
      </trkpt>
      <trkpt lat="36.9895470" lon="-2.3611340">
        <ele>1306.1</ele>
        <time>2019-10-18T14:30:18Z</time>
      </trkpt>
      <trkpt lat="36.9895470" lon="-2.3611330">
        <ele>1306.1</ele>
        <time>2019-10-18T14:30:19Z</time>
      </trkpt>
      <trkpt lat="36.9895470" lon="-2.3611330">
        <ele>1306.1</ele>
        <time>2019-10-18T14:30:20Z</time>
      </trkpt>
      <trkpt lat="36.9895470" lon="-2.3611340">
        <ele>1306.1</ele>
        <time>2019-10-18T14:30:21Z</time>
      </trkpt>
      <trkpt lat="36.9895470" lon="-2.3611340">
        <ele>1306.1</ele>
        <time>2019-10-18T14:30:22Z</time>
      </trkpt>
      <trkpt lat="36.9895470" lon="-2.3611340">
        <ele>1306.1</ele>
        <time>2019-10-18T14:30:23Z</time>
      </trkpt>
      <trkpt lat="36.9895470" lon="-2.3611340">
        <ele>1306.1</ele>
        <time>2019-10-18T14:30:24Z</time>
      </trkpt>
      <trkpt lat="36.9895470" lon="-2.3611340">
        <ele>1306.1</ele>
        <time>2019-10-18T14:30:25Z</time>
      </trkpt>
      <trkpt lat="36.9895470" lon="-2.3611340">
        <ele>1306.1</ele>
        <time>2019-10-18T14:30:26Z</time>
      </trkpt>
      <trkpt lat="36.9895470" lon="-2.3611350">
        <ele>1306.1</ele>
        <time>2019-10-18T14:30:27Z</time>
      </trkpt>
      <trkpt lat="36.9895480" lon="-2.3611350">
        <ele>1306.1</ele>
        <time>2019-10-18T14:30:28Z</time>
      </trkpt>
      <trkpt lat="36.9895480" lon="-2.3611360">
        <ele>1306.1</ele>
        <time>2019-10-18T14:30:29Z</time>
      </trkpt>
      <trkpt lat="36.9895490" lon="-2.3611360">
        <ele>1306.1</ele>
        <time>2019-10-18T14:30:30Z</time>
      </trkpt>
      <trkpt lat="36.9895490" lon="-2.3611360">
        <ele>1306.1</ele>
        <time>2019-10-18T14:30:31Z</time>
      </trkpt>
      <trkpt lat="36.9895490" lon="-2.3611370">
        <ele>1306.1</ele>
        <time>2019-10-18T14:30:32Z</time>
      </trkpt>
      <trkpt lat="36.9895500" lon="-2.3611370">
        <ele>1306.1</ele>
        <time>2019-10-18T14:30:33Z</time>
      </trkpt>
      <trkpt lat="36.9895500" lon="-2.3611370">
        <ele>1306.1</ele>
        <time>2019-10-18T14:30:34Z</time>
      </trkpt>
      <trkpt lat="36.9895500" lon="-2.3611370">
        <ele>1306.1</ele>
        <time>2019-10-18T14:30:35Z</time>
      </trkpt>
      <trkpt lat="36.9895510" lon="-2.3611370">
        <ele>1306.1</ele>
        <time>2019-10-18T14:30:36Z</time>
      </trkpt>
      <trkpt lat="36.9895510" lon="-2.3611380">
        <ele>1306.1</ele>
        <time>2019-10-18T14:30:37Z</time>
      </trkpt>
      <trkpt lat="36.9895520" lon="-2.3611380">
        <ele>1306.1</ele>
        <time>2019-10-18T14:30:38Z</time>
      </trkpt>
      <trkpt lat="36.9895520" lon="-2.3611380">
        <ele>1306.1</ele>
        <time>2019-10-18T14:30:39Z</time>
      </trkpt>
      <trkpt lat="36.9895530" lon="-2.3611390">
        <ele>1306.1</ele>
        <time>2019-10-18T14:30:40Z</time>
      </trkpt>
      <trkpt lat="36.9895530" lon="-2.3611390">
        <ele>1306.1</ele>
        <time>2019-10-18T14:30:41Z</time>
      </trkpt>
      <trkpt lat="36.9895540" lon="-2.3611400">
        <ele>1306.1</ele>
        <time>2019-10-18T14:30:42Z</time>
      </trkpt>
      <trkpt lat="36.9895540" lon="-2.3611410">
        <ele>1306.1</ele>
        <time>2019-10-18T14:30:43Z</time>
      </trkpt>
      <trkpt lat="36.9895550" lon="-2.3611410">
        <ele>1306.1</ele>
        <time>2019-10-18T14:30:44Z</time>
      </trkpt>
      <trkpt lat="36.9895550" lon="-2.3611410">
        <ele>1306.1</ele>
        <time>2019-10-18T14:30:45Z</time>
      </trkpt>
      <trkpt lat="36.9895550" lon="-2.3611420">
        <ele>1306.1</ele>
        <time>2019-10-18T14:30:46Z</time>
      </trkpt>
      <trkpt lat="36.9895560" lon="-2.3611440">
        <ele>1306.0</ele>
        <time>2019-10-18T14:30:47Z</time>
      </trkpt>
      <trkpt lat="36.9895580" lon="-2.3611490">
        <ele>1306.0</ele>
        <time>2019-10-18T14:30:48Z</time>
      </trkpt>
      <trkpt lat="36.9895630" lon="-2.3611560">
        <ele>1306.0</ele>
        <time>2019-10-18T14:30:49Z</time>
      </trkpt>
      <trkpt lat="36.9895700" lon="-2.3611620">
        <ele>1306.0</ele>
        <time>2019-10-18T14:30:50Z</time>
      </trkpt>
      <trkpt lat="36.9895780" lon="-2.3611670">
        <ele>1305.9</ele>
        <time>2019-10-18T14:30:51Z</time>
      </trkpt>
      <trkpt lat="36.9895880" lon="-2.3611710">
        <ele>1305.9</ele>
        <time>2019-10-18T14:30:52Z</time>
      </trkpt>
      <trkpt lat="36.9895990" lon="-2.3611740">
        <ele>1305.8</ele>
        <time>2019-10-18T14:30:53Z</time>
      </trkpt>
      <trkpt lat="36.9896110" lon="-2.3611770">
        <ele>1305.8</ele>
        <time>2019-10-18T14:30:54Z</time>
      </trkpt>
      <trkpt lat="36.9896240" lon="-2.3611810">
        <ele>1305.7</ele>
        <time>2019-10-18T14:30:55Z</time>
      </trkpt>
      <trkpt lat="36.9896370" lon="-2.3611870">
        <ele>1305.7</ele>
        <time>2019-10-18T14:30:56Z</time>
      </trkpt>
      <trkpt lat="36.9896500" lon="-2.3611950">
        <ele>1304.4</ele>
        <time>2019-10-18T14:30:57Z</time>
      </trkpt>
      <trkpt lat="36.9896630" lon="-2.3612050">
        <ele>1304.2</ele>
        <time>2019-10-18T14:30:58Z</time>
      </trkpt>
      <trkpt lat="36.9896760" lon="-2.3612170">
        <ele>1303.9</ele>
        <time>2019-10-18T14:30:59Z</time>
      </trkpt>
      <trkpt lat="36.9896860" lon="-2.3612280">
        <ele>1303.7</ele>
        <time>2019-10-18T14:31:00Z</time>
      </trkpt>
      <trkpt lat="36.9896930" lon="-2.3612350">
        <ele>1303.6</ele>
        <time>2019-10-18T14:31:01Z</time>
      </trkpt>
      <trkpt lat="36.9896960" lon="-2.3612380">
        <ele>1303.5</ele>
        <time>2019-10-18T14:31:02Z</time>
      </trkpt>
      <trkpt lat="36.9896970" lon="-2.3612390">
        <ele>1303.5</ele>
        <time>2019-10-18T14:31:03Z</time>
      </trkpt>
      <trkpt lat="36.9896970" lon="-2.3612400">
        <ele>1303.5</ele>
        <time>2019-10-18T14:31:04Z</time>
      </trkpt>
      <trkpt lat="36.9896980" lon="-2.3612420">
        <ele>1303.5</ele>
        <time>2019-10-18T14:31:05Z</time>
      </trkpt>
      <trkpt lat="36.9896990" lon="-2.3612430">
        <ele>1303.5</ele>
        <time>2019-10-18T14:31:06Z</time>
      </trkpt>
      <trkpt lat="36.9897000" lon="-2.3612440">
        <ele>1303.4</ele>
        <time>2019-10-18T14:31:07Z</time>
      </trkpt>
      <trkpt lat="36.9897000" lon="-2.3612450">
        <ele>1303.4</ele>
        <time>2019-10-18T14:31:08Z</time>
      </trkpt>
      <trkpt lat="36.9897010" lon="-2.3612460">
        <ele>1303.4</ele>
        <time>2019-10-18T14:31:09Z</time>
      </trkpt>
      <trkpt lat="36.9897010" lon="-2.3612470">
        <ele>1303.4</ele>
        <time>2019-10-18T14:31:10Z</time>
      </trkpt>
      <trkpt lat="36.9897020" lon="-2.3612480">
        <ele>1303.4</ele>
        <time>2019-10-18T14:31:11Z</time>
      </trkpt>
      <trkpt lat="36.9897020" lon="-2.3612490">
        <ele>1303.4</ele>
        <time>2019-10-18T14:31:12Z</time>
      </trkpt>
      <trkpt lat="36.9897030" lon="-2.3612500">
        <ele>1303.3</ele>
        <time>2019-10-18T14:31:13Z</time>
      </trkpt>
      <trkpt lat="36.9897030" lon="-2.3612500">
        <ele>1303.3</ele>
        <time>2019-10-18T14:31:14Z</time>
      </trkpt>
      <trkpt lat="36.9897030" lon="-2.3612500">
        <ele>1303.3</ele>
        <time>2019-10-18T14:31:15Z</time>
      </trkpt>
      <trkpt lat="36.9897030" lon="-2.3612510">
        <ele>1303.3</ele>
        <time>2019-10-18T14:31:16Z</time>
      </trkpt>
      <trkpt lat="36.9897030" lon="-2.3612520">
        <ele>1303.3</ele>
        <time>2019-10-18T14:31:17Z</time>
      </trkpt>
      <trkpt lat="36.9897030" lon="-2.3612520">
        <ele>1303.3</ele>
        <time>2019-10-18T14:31:18Z</time>
      </trkpt>
      <trkpt lat="36.9897030" lon="-2.3612530">
        <ele>1303.3</ele>
        <time>2019-10-18T14:31:19Z</time>
      </trkpt>
      <trkpt lat="36.9897030" lon="-2.3612530">
        <ele>1303.3</ele>
        <time>2019-10-18T14:31:20Z</time>
      </trkpt>
      <trkpt lat="36.9897030" lon="-2.3612540">
        <ele>1303.3</ele>
        <time>2019-10-18T14:31:21Z</time>
      </trkpt>
      <trkpt lat="36.9897030" lon="-2.3612540">
        <ele>1303.3</ele>
        <time>2019-10-18T14:31:22Z</time>
      </trkpt>
      <trkpt lat="36.9897040" lon="-2.3612550">
        <ele>1303.3</ele>
        <time>2019-10-18T14:31:23Z</time>
      </trkpt>
      <trkpt lat="36.9897040" lon="-2.3612560">
        <ele>1303.3</ele>
        <time>2019-10-18T14:31:24Z</time>
      </trkpt>
      <trkpt lat="36.9897050" lon="-2.3612560">
        <ele>1303.2</ele>
        <time>2019-10-18T14:31:25Z</time>
      </trkpt>
      <trkpt lat="36.9897050" lon="-2.3612560">
        <ele>1303.2</ele>
        <time>2019-10-18T14:31:26Z</time>
      </trkpt>
      <trkpt lat="36.9897050" lon="-2.3612560">
        <ele>1303.2</ele>
        <time>2019-10-18T14:31:27Z</time>
      </trkpt>
      <trkpt lat="36.9897050" lon="-2.3612570">
        <ele>1303.2</ele>
        <time>2019-10-18T14:31:28Z</time>
      </trkpt>
      <trkpt lat="36.9897060" lon="-2.3612570">
        <ele>1303.2</ele>
        <time>2019-10-18T14:31:29Z</time>
      </trkpt>
      <trkpt lat="36.9897060" lon="-2.3612570">
        <ele>1303.2</ele>
        <time>2019-10-18T14:31:30Z</time>
      </trkpt>
      <trkpt lat="36.9897060" lon="-2.3612580">
        <ele>1303.2</ele>
        <time>2019-10-18T14:31:31Z</time>
      </trkpt>
      <trkpt lat="36.9897060" lon="-2.3612580">
        <ele>1303.2</ele>
        <time>2019-10-18T14:31:32Z</time>
      </trkpt>
      <trkpt lat="36.9897060" lon="-2.3612590">
        <ele>1303.2</ele>
        <time>2019-10-18T14:31:33Z</time>
      </trkpt>
      <trkpt lat="36.9897060" lon="-2.3612590">
        <ele>1303.2</ele>
        <time>2019-10-18T14:31:34Z</time>
      </trkpt>
      <trkpt lat="36.9897060" lon="-2.3612600">
        <ele>1303.2</ele>
        <time>2019-10-18T14:31:35Z</time>
      </trkpt>
      <trkpt lat="36.9897060" lon="-2.3612610">
        <ele>1303.2</ele>
        <time>2019-10-18T14:31:36Z</time>
      </trkpt>
      <trkpt lat="36.9897060" lon="-2.3612620">
        <ele>1303.2</ele>
        <time>2019-10-18T14:31:37Z</time>
      </trkpt>
      <trkpt lat="36.9897060" lon="-2.3612620">
        <ele>1303.2</ele>
        <time>2019-10-18T14:31:38Z</time>
      </trkpt>
      <trkpt lat="36.9897060" lon="-2.3612630">
        <ele>1303.1</ele>
        <time>2019-10-18T14:31:39Z</time>
      </trkpt>
      <trkpt lat="36.9897060" lon="-2.3612640">
        <ele>1303.1</ele>
        <time>2019-10-18T14:31:40Z</time>
      </trkpt>
      <trkpt lat="36.9897060" lon="-2.3612650">
        <ele>1303.1</ele>
        <time>2019-10-18T14:31:41Z</time>
      </trkpt>
      <trkpt lat="36.9897060" lon="-2.3612660">
        <ele>1303.1</ele>
        <time>2019-10-18T14:31:42Z</time>
      </trkpt>
      <trkpt lat="36.9897060" lon="-2.3612660">
        <ele>1303.1</ele>
        <time>2019-10-18T14:31:43Z</time>
      </trkpt>
      <trkpt lat="36.9897060" lon="-2.3612670">
        <ele>1303.1</ele>
        <time>2019-10-18T14:31:44Z</time>
      </trkpt>
      <trkpt lat="36.9897060" lon="-2.3612680">
        <ele>1303.1</ele>
        <time>2019-10-18T14:31:45Z</time>
      </trkpt>
      <trkpt lat="36.9897060" lon="-2.3612680">
        <ele>1303.1</ele>
        <time>2019-10-18T14:31:46Z</time>
      </trkpt>
      <trkpt lat="36.9897060" lon="-2.3612680">
        <ele>1303.1</ele>
        <time>2019-10-18T14:31:47Z</time>
      </trkpt>
      <trkpt lat="36.9897060" lon="-2.3612690">
        <ele>1303.1</ele>
        <time>2019-10-18T14:31:48Z</time>
      </trkpt>
      <trkpt lat="36.9897060" lon="-2.3612690">
        <ele>1303.1</ele>
        <time>2019-10-18T14:31:49Z</time>
      </trkpt>
      <trkpt lat="36.9897060" lon="-2.3612700">
        <ele>1303.1</ele>
        <time>2019-10-18T14:31:50Z</time>
      </trkpt>
      <trkpt lat="36.9897060" lon="-2.3612710">
        <ele>1303.0</ele>
        <time>2019-10-18T14:31:51Z</time>
      </trkpt>
      <trkpt lat="36.9897060" lon="-2.3612710">
        <ele>1303.0</ele>
        <time>2019-10-18T14:31:52Z</time>
      </trkpt>
      <trkpt lat="36.9897060" lon="-2.3612710">
        <ele>1303.0</ele>
        <time>2019-10-18T14:31:53Z</time>
      </trkpt>
      <trkpt lat="36.9897070" lon="-2.3612720">
        <ele>1303.0</ele>
        <time>2019-10-18T14:31:54Z</time>
      </trkpt>
      <trkpt lat="36.9897100" lon="-2.3612740">
        <ele>1302.9</ele>
        <time>2019-10-18T14:31:55Z</time>
      </trkpt>
      <trkpt lat="36.9897170" lon="-2.3612790">
        <ele>1302.8</ele>
        <time>2019-10-18T14:31:56Z</time>
      </trkpt>
      <trkpt lat="36.9897280" lon="-2.3612890">
        <ele>1302.5</ele>
        <time>2019-10-18T14:31:57Z</time>
      </trkpt>
      <trkpt lat="36.9897430" lon="-2.3613060">
        <ele>1302.1</ele>
        <time>2019-10-18T14:31:58Z</time>
      </trkpt>
      <trkpt lat="36.9897630" lon="-2.3613300">
        <ele>1301.5</ele>
        <time>2019-10-18T14:31:59Z</time>
      </trkpt>
      <trkpt lat="36.9897860" lon="-2.3613570">
        <ele>1300.9</ele>
        <time>2019-10-18T14:32:00Z</time>
      </trkpt>
      <trkpt lat="36.9898120" lon="-2.3613850">
        <ele>1300.2</ele>
        <time>2019-10-18T14:32:01Z</time>
      </trkpt>
      <trkpt lat="36.9898380" lon="-2.3614140">
        <ele>1299.2</ele>
        <time>2019-10-18T14:32:02Z</time>
      </trkpt>
      <trkpt lat="36.9898670" lon="-2.3614430">
        <ele>1298.1</ele>
        <time>2019-10-18T14:32:03Z</time>
      </trkpt>
      <trkpt lat="36.9898980" lon="-2.3614740">
        <ele>1297.1</ele>
        <time>2019-10-18T14:32:04Z</time>
      </trkpt>
      <trkpt lat="36.9899320" lon="-2.3615040">
        <ele>1296.1</ele>
        <time>2019-10-18T14:32:05Z</time>
      </trkpt>
      <trkpt lat="36.9899670" lon="-2.3615360">
        <ele>1295.1</ele>
        <time>2019-10-18T14:32:06Z</time>
      </trkpt>
      <trkpt lat="36.9900030" lon="-2.3615690">
        <ele>1294.1</ele>
        <time>2019-10-18T14:32:07Z</time>
      </trkpt>
      <trkpt lat="36.9900370" lon="-2.3616030">
        <ele>1293.1</ele>
        <time>2019-10-18T14:32:08Z</time>
      </trkpt>
      <trkpt lat="36.9900710" lon="-2.3616390">
        <ele>1291.9</ele>
        <time>2019-10-18T14:32:09Z</time>
      </trkpt>
      <trkpt lat="36.9901040" lon="-2.3616730">
        <ele>1290.6</ele>
        <time>2019-10-18T14:32:10Z</time>
      </trkpt>
      <trkpt lat="36.9901360" lon="-2.3617070">
        <ele>1289.3</ele>
        <time>2019-10-18T14:32:11Z</time>
      </trkpt>
      <trkpt lat="36.9901680" lon="-2.3617390">
        <ele>1288.0</ele>
        <time>2019-10-18T14:32:12Z</time>
      </trkpt>
      <trkpt lat="36.9902000" lon="-2.3617700">
        <ele>1287.1</ele>
        <time>2019-10-18T14:32:13Z</time>
      </trkpt>
      <trkpt lat="36.9902330" lon="-2.3617980">
        <ele>1286.2</ele>
        <time>2019-10-18T14:32:14Z</time>
      </trkpt>
      <trkpt lat="36.9902660" lon="-2.3618240">
        <ele>1285.3</ele>
        <time>2019-10-18T14:32:15Z</time>
      </trkpt>
      <trkpt lat="36.9903000" lon="-2.3618480">
        <ele>1284.2</ele>
        <time>2019-10-18T14:32:16Z</time>
      </trkpt>
      <trkpt lat="36.9903340" lon="-2.3618700">
        <ele>1282.9</ele>
        <time>2019-10-18T14:32:17Z</time>
      </trkpt>
      <trkpt lat="36.9903690" lon="-2.3618910">
        <ele>1281.9</ele>
        <time>2019-10-18T14:32:18Z</time>
      </trkpt>
      <trkpt lat="36.9904050" lon="-2.3619090">
        <ele>1280.9</ele>
        <time>2019-10-18T14:32:19Z</time>
      </trkpt>
      <trkpt lat="36.9904420" lon="-2.3619260">
        <ele>1279.9</ele>
        <time>2019-10-18T14:32:20Z</time>
      </trkpt>
      <trkpt lat="36.9904790" lon="-2.3619410">
        <ele>1278.9</ele>
        <time>2019-10-18T14:32:21Z</time>
      </trkpt>
      <trkpt lat="36.9905170" lon="-2.3619540">
        <ele>1277.7</ele>
        <time>2019-10-18T14:32:22Z</time>
      </trkpt>
      <trkpt lat="36.9905560" lon="-2.3619650">
        <ele>1276.5</ele>
        <time>2019-10-18T14:32:23Z</time>
      </trkpt>
      <trkpt lat="36.9905940" lon="-2.3619720">
        <ele>1275.3</ele>
        <time>2019-10-18T14:32:24Z</time>
      </trkpt>
      <trkpt lat="36.9906310" lon="-2.3619770">
        <ele>1274.1</ele>
        <time>2019-10-18T14:32:25Z</time>
      </trkpt>
      <trkpt lat="36.9906660" lon="-2.3619790">
        <ele>1273.2</ele>
        <time>2019-10-18T14:32:26Z</time>
      </trkpt>
      <trkpt lat="36.9907010" lon="-2.3619800">
        <ele>1272.4</ele>
        <time>2019-10-18T14:32:27Z</time>
      </trkpt>
      <trkpt lat="36.9907360" lon="-2.3619800">
        <ele>1271.5</ele>
        <time>2019-10-18T14:32:28Z</time>
      </trkpt>
      <trkpt lat="36.9907700" lon="-2.3619770">
        <ele>1270.7</ele>
        <time>2019-10-18T14:32:29Z</time>
      </trkpt>
      <trkpt lat="36.9908060" lon="-2.3619710">
        <ele>1269.8</ele>
        <time>2019-10-18T14:32:30Z</time>
      </trkpt>
      <trkpt lat="36.9908440" lon="-2.3619630">
        <ele>1268.3</ele>
        <time>2019-10-18T14:32:31Z</time>
      </trkpt>
      <trkpt lat="36.9908820" lon="-2.3619520">
        <ele>1266.8</ele>
        <time>2019-10-18T14:32:32Z</time>
      </trkpt>
      <trkpt lat="36.9909190" lon="-2.3619410">
        <ele>1265.7</ele>
        <time>2019-10-18T14:32:33Z</time>
      </trkpt>
      <trkpt lat="36.9909560" lon="-2.3619290">
        <ele>1264.6</ele>
        <time>2019-10-18T14:32:34Z</time>
      </trkpt>
      <trkpt lat="36.9909920" lon="-2.3619170">
        <ele>1263.6</ele>
        <time>2019-10-18T14:32:35Z</time>
      </trkpt>
      <trkpt lat="36.9910280" lon="-2.3619070">
        <ele>1262.3</ele>
        <time>2019-10-18T14:32:36Z</time>
      </trkpt>
      <trkpt lat="36.9910630" lon="-2.3619010">
        <ele>1261.0</ele>
        <time>2019-10-18T14:32:37Z</time>
      </trkpt>
      <trkpt lat="36.9910970" lon="-2.3618980">
        <ele>1259.6</ele>
        <time>2019-10-18T14:32:38Z</time>
      </trkpt>
      <trkpt lat="36.9911290" lon="-2.3619000">
        <ele>1258.4</ele>
        <time>2019-10-18T14:32:39Z</time>
      </trkpt>
      <trkpt lat="36.9911590" lon="-2.3619050">
        <ele>1257.3</ele>
        <time>2019-10-18T14:32:40Z</time>
      </trkpt>
      <trkpt lat="36.9911860" lon="-2.3619150">
        <ele>1256.5</ele>
        <time>2019-10-18T14:32:41Z</time>
      </trkpt>
      <trkpt lat="36.9912110" lon="-2.3619340">
        <ele>1255.7</ele>
        <time>2019-10-18T14:32:42Z</time>
      </trkpt>
      <trkpt lat="36.9912350" lon="-2.3619600">
        <ele>1254.8</ele>
        <time>2019-10-18T14:32:43Z</time>
      </trkpt>
      <trkpt lat="36.9912580" lon="-2.3619930">
        <ele>1253.5</ele>
        <time>2019-10-18T14:32:44Z</time>
      </trkpt>
      <trkpt lat="36.9912810" lon="-2.3620310">
        <ele>1252.1</ele>
        <time>2019-10-18T14:32:45Z</time>
      </trkpt>
      <trkpt lat="36.9913040" lon="-2.3620720">
        <ele>1250.7</ele>
        <time>2019-10-18T14:32:46Z</time>
      </trkpt>
      <trkpt lat="36.9913270" lon="-2.3621160">
        <ele>1249.3</ele>
        <time>2019-10-18T14:32:47Z</time>
      </trkpt>
      <trkpt lat="36.9913500" lon="-2.3621600">
        <ele>1247.9</ele>
        <time>2019-10-18T14:32:48Z</time>
      </trkpt>
      <trkpt lat="36.9913740" lon="-2.3622060">
        <ele>1246.5</ele>
        <time>2019-10-18T14:32:49Z</time>
      </trkpt>
      <trkpt lat="36.9913970" lon="-2.3622520">
        <ele>1245.1</ele>
        <time>2019-10-18T14:32:50Z</time>
      </trkpt>
      <trkpt lat="36.9914190" lon="-2.3622980">
        <ele>1244.0</ele>
        <time>2019-10-18T14:32:51Z</time>
      </trkpt>
      <trkpt lat="36.9914400" lon="-2.3623440">
        <ele>1243.0</ele>
        <time>2019-10-18T14:32:52Z</time>
      </trkpt>
      <trkpt lat="36.9914590" lon="-2.3623890">
        <ele>1242.0</ele>
        <time>2019-10-18T14:32:53Z</time>
      </trkpt>
      <trkpt lat="36.9914750" lon="-2.3624330">
        <ele>1240.7</ele>
        <time>2019-10-18T14:32:54Z</time>
      </trkpt>
      <trkpt lat="36.9914860" lon="-2.3624740">
        <ele>1239.4</ele>
        <time>2019-10-18T14:32:55Z</time>
      </trkpt>
      <trkpt lat="36.9914910" lon="-2.3625120">
        <ele>1238.5</ele>
        <time>2019-10-18T14:32:56Z</time>
      </trkpt>
      <trkpt lat="36.9914910" lon="-2.3625480">
        <ele>1237.7</ele>
        <time>2019-10-18T14:32:57Z</time>
      </trkpt>
      <trkpt lat="36.9914850" lon="-2.3625840">
        <ele>1236.9</ele>
        <time>2019-10-18T14:32:58Z</time>
      </trkpt>
      <trkpt lat="36.9914730" lon="-2.3626210">
        <ele>1235.8</ele>
        <time>2019-10-18T14:32:59Z</time>
      </trkpt>
      <trkpt lat="36.9914560" lon="-2.3626590">
        <ele>1235.5</ele>
        <time>2019-10-18T14:33:00Z</time>
      </trkpt>
      <trkpt lat="36.9914330" lon="-2.3626990">
        <ele>1235.2</ele>
        <time>2019-10-18T14:33:01Z</time>
      </trkpt>
      <trkpt lat="36.9914050" lon="-2.3627390">
        <ele>1234.8</ele>
        <time>2019-10-18T14:33:02Z</time>
      </trkpt>
      <trkpt lat="36.9913750" lon="-2.3627800">
        <ele>1234.5</ele>
        <time>2019-10-18T14:33:03Z</time>
      </trkpt>
      <trkpt lat="36.9913440" lon="-2.3628230">
        <ele>1234.1</ele>
        <time>2019-10-18T14:33:04Z</time>
      </trkpt>
      <trkpt lat="36.9913120" lon="-2.3628680">
        <ele>1233.7</ele>
        <time>2019-10-18T14:33:05Z</time>
      </trkpt>
      <trkpt lat="36.9912810" lon="-2.3629150">
        <ele>1233.3</ele>
        <time>2019-10-18T14:33:06Z</time>
      </trkpt>
      <trkpt lat="36.9912500" lon="-2.3629630">
        <ele>1232.8</ele>
        <time>2019-10-18T14:33:07Z</time>
      </trkpt>
      <trkpt lat="36.9912210" lon="-2.3630120">
        <ele>1232.2</ele>
        <time>2019-10-18T14:33:08Z</time>
      </trkpt>
      <trkpt lat="36.9911910" lon="-2.3630580">
        <ele>1231.6</ele>
        <time>2019-10-18T14:33:09Z</time>
      </trkpt>
      <trkpt lat="36.9911600" lon="-2.3631000">
        <ele>1231.1</ele>
        <time>2019-10-18T14:33:10Z</time>
      </trkpt>
      <trkpt lat="36.9911270" lon="-2.3631350">
        <ele>1230.5</ele>
        <time>2019-10-18T14:33:11Z</time>
      </trkpt>
      <trkpt lat="36.9910910" lon="-2.3631650">
        <ele>1230.0</ele>
        <time>2019-10-18T14:33:12Z</time>
      </trkpt>
      <trkpt lat="36.9910520" lon="-2.3631910">
        <ele>1229.6</ele>
        <time>2019-10-18T14:33:13Z</time>
      </trkpt>
      <trkpt lat="36.9910100" lon="-2.3632140">
        <ele>1229.2</ele>
        <time>2019-10-18T14:33:14Z</time>
      </trkpt>
      <trkpt lat="36.9909660" lon="-2.3632340">
        <ele>1228.8</ele>
        <time>2019-10-18T14:33:15Z</time>
      </trkpt>
      <trkpt lat="36.9909190" lon="-2.3632520">
        <ele>1228.3</ele>
        <time>2019-10-18T14:33:16Z</time>
      </trkpt>
      <trkpt lat="36.9908690" lon="-2.3632720">
        <ele>1227.8</ele>
        <time>2019-10-18T14:33:17Z</time>
      </trkpt>
      <trkpt lat="36.9908150" lon="-2.3632920">
        <ele>1227.2</ele>
        <time>2019-10-18T14:33:18Z</time>
      </trkpt>
      <trkpt lat="36.9907570" lon="-2.3633110">
        <ele>1226.6</ele>
        <time>2019-10-18T14:33:19Z</time>
      </trkpt>
      <trkpt lat="36.9907010" lon="-2.3633290">
        <ele>1226.0</ele>
        <time>2019-10-18T14:33:20Z</time>
      </trkpt>
      <trkpt lat="36.9906500" lon="-2.3633460">
        <ele>1225.4</ele>
        <time>2019-10-18T14:33:21Z</time>
      </trkpt>
      <trkpt lat="36.9906040" lon="-2.3633650">
        <ele>1224.9</ele>
        <time>2019-10-18T14:33:22Z</time>
      </trkpt>
      <trkpt lat="36.9905590" lon="-2.3633870">
        <ele>1224.5</ele>
        <time>2019-10-18T14:33:23Z</time>
      </trkpt>
      <trkpt lat="36.9905170" lon="-2.3634110">
        <ele>1224.1</ele>
        <time>2019-10-18T14:33:24Z</time>
      </trkpt>
      <trkpt lat="36.9904730" lon="-2.3634360">
        <ele>1223.8</ele>
        <time>2019-10-18T14:33:25Z</time>
      </trkpt>
      <trkpt lat="36.9904290" lon="-2.3634630">
        <ele>1223.4</ele>
        <time>2019-10-18T14:33:26Z</time>
      </trkpt>
      <trkpt lat="36.9903850" lon="-2.3634900">
        <ele>1223.1</ele>
        <time>2019-10-18T14:33:27Z</time>
      </trkpt>
      <trkpt lat="36.9903430" lon="-2.3635180">
        <ele>1222.7</ele>
        <time>2019-10-18T14:33:28Z</time>
      </trkpt>
      <trkpt lat="36.9903010" lon="-2.3635480">
        <ele>1222.3</ele>
        <time>2019-10-18T14:33:29Z</time>
      </trkpt>
      <trkpt lat="36.9902620" lon="-2.3635790">
        <ele>1222.0</ele>
        <time>2019-10-18T14:33:30Z</time>
      </trkpt>
      <trkpt lat="36.9902220" lon="-2.3636100">
        <ele>1221.6</ele>
        <time>2019-10-18T14:33:31Z</time>
      </trkpt>
      <trkpt lat="36.9901820" lon="-2.3636410">
        <ele>1221.3</ele>
        <time>2019-10-18T14:33:32Z</time>
      </trkpt>
      <trkpt lat="36.9901400" lon="-2.3636700">
        <ele>1220.9</ele>
        <time>2019-10-18T14:33:33Z</time>
      </trkpt>
      <trkpt lat="36.9900950" lon="-2.3636970">
        <ele>1220.5</ele>
        <time>2019-10-18T14:33:34Z</time>
      </trkpt>
      <trkpt lat="36.9900490" lon="-2.3637240">
        <ele>1220.1</ele>
        <time>2019-10-18T14:33:35Z</time>
      </trkpt>
      <trkpt lat="36.9900010" lon="-2.3637500">
        <ele>1219.7</ele>
        <time>2019-10-18T14:33:36Z</time>
      </trkpt>
      <trkpt lat="36.9899520" lon="-2.3637760">
        <ele>1219.2</ele>
        <time>2019-10-18T14:33:37Z</time>
      </trkpt>
      <trkpt lat="36.9899030" lon="-2.3638040">
        <ele>1218.8</ele>
        <time>2019-10-18T14:33:38Z</time>
      </trkpt>
      <trkpt lat="36.9898550" lon="-2.3638330">
        <ele>1218.3</ele>
        <time>2019-10-18T14:33:39Z</time>
      </trkpt>
      <trkpt lat="36.9898080" lon="-2.3638660">
        <ele>1217.9</ele>
        <time>2019-10-18T14:33:40Z</time>
      </trkpt>
      <trkpt lat="36.9897600" lon="-2.3639020">
        <ele>1217.4</ele>
        <time>2019-10-18T14:33:41Z</time>
      </trkpt>
      <trkpt lat="36.9897130" lon="-2.3639400">
        <ele>1217.0</ele>
        <time>2019-10-18T14:33:42Z</time>
      </trkpt>
      <trkpt lat="36.9896670" lon="-2.3639790">
        <ele>1216.5</ele>
        <time>2019-10-18T14:33:43Z</time>
      </trkpt>
      <trkpt lat="36.9896230" lon="-2.3640210">
        <ele>1216.1</ele>
        <time>2019-10-18T14:33:44Z</time>
      </trkpt>
      <trkpt lat="36.9895810" lon="-2.3640650">
        <ele>1215.6</ele>
        <time>2019-10-18T14:33:45Z</time>
      </trkpt>
      <trkpt lat="36.9895400" lon="-2.3641140">
        <ele>1215.1</ele>
        <time>2019-10-18T14:33:46Z</time>
      </trkpt>
      <trkpt lat="36.9894960" lon="-2.3641650">
        <ele>1214.6</ele>
        <time>2019-10-18T14:33:47Z</time>
      </trkpt>
      <trkpt lat="36.9894540" lon="-2.3642180">
        <ele>1214.0</ele>
        <time>2019-10-18T14:33:48Z</time>
      </trkpt>
      <trkpt lat="36.9894170" lon="-2.3642710">
        <ele>1213.5</ele>
        <time>2019-10-18T14:33:49Z</time>
      </trkpt>
      <trkpt lat="36.9893900" lon="-2.3643250">
        <ele>1213.0</ele>
        <time>2019-10-18T14:33:50Z</time>
      </trkpt>
      <trkpt lat="36.9893690" lon="-2.3643780">
        <ele>1212.5</ele>
        <time>2019-10-18T14:33:51Z</time>
      </trkpt>
      <trkpt lat="36.9893480" lon="-2.3644310">
        <ele>1212.0</ele>
        <time>2019-10-18T14:33:52Z</time>
      </trkpt>
      <trkpt lat="36.9893250" lon="-2.3644830">
        <ele>1211.4</ele>
        <time>2019-10-18T14:33:53Z</time>
      </trkpt>
      <trkpt lat="36.9893010" lon="-2.3645340">
        <ele>1210.7</ele>
        <time>2019-10-18T14:33:54Z</time>
      </trkpt>
      <trkpt lat="36.9892760" lon="-2.3645880">
        <ele>1209.9</ele>
        <time>2019-10-18T14:33:55Z</time>
      </trkpt>
      <trkpt lat="36.9892530" lon="-2.3646440">
        <ele>1209.0</ele>
        <time>2019-10-18T14:33:56Z</time>
      </trkpt>
      <trkpt lat="36.9892350" lon="-2.3647040">
        <ele>1208.2</ele>
        <time>2019-10-18T14:33:57Z</time>
      </trkpt>
      <trkpt lat="36.9892240" lon="-2.3647680">
        <ele>1207.4</ele>
        <time>2019-10-18T14:33:58Z</time>
      </trkpt>
      <trkpt lat="36.9892200" lon="-2.3648330">
        <ele>1206.8</ele>
        <time>2019-10-18T14:33:59Z</time>
      </trkpt>
      <trkpt lat="36.9892200" lon="-2.3649000">
        <ele>1206.2</ele>
        <time>2019-10-18T14:34:00Z</time>
      </trkpt>
      <trkpt lat="36.9892230" lon="-2.3649690">
        <ele>1205.6</ele>
        <time>2019-10-18T14:34:01Z</time>
      </trkpt>
      <trkpt lat="36.9892280" lon="-2.3650430">
        <ele>1204.7</ele>
        <time>2019-10-18T14:34:02Z</time>
      </trkpt>
      <trkpt lat="36.9892350" lon="-2.3651180">
        <ele>1203.9</ele>
        <time>2019-10-18T14:34:03Z</time>
      </trkpt>
      <trkpt lat="36.9892430" lon="-2.3651910">
        <ele>1203.2</ele>
        <time>2019-10-18T14:34:04Z</time>
      </trkpt>
      <trkpt lat="36.9892540" lon="-2.3652620">
        <ele>1202.4</ele>
        <time>2019-10-18T14:34:05Z</time>
      </trkpt>
      <trkpt lat="36.9892690" lon="-2.3653340">
        <ele>1201.8</ele>
        <time>2019-10-18T14:34:06Z</time>
      </trkpt>
      <trkpt lat="36.9892850" lon="-2.3654060">
        <ele>1201.3</ele>
        <time>2019-10-18T14:34:07Z</time>
      </trkpt>
      <trkpt lat="36.9893050" lon="-2.3654770">
        <ele>1200.8</ele>
        <time>2019-10-18T14:34:08Z</time>
      </trkpt>
      <trkpt lat="36.9893240" lon="-2.3655460">
        <ele>1200.3</ele>
        <time>2019-10-18T14:34:09Z</time>
      </trkpt>
      <trkpt lat="36.9893450" lon="-2.3656130">
        <ele>1199.7</ele>
        <time>2019-10-18T14:34:10Z</time>
      </trkpt>
      <trkpt lat="36.9893590" lon="-2.3656790">
        <ele>1199.0</ele>
        <time>2019-10-18T14:34:11Z</time>
      </trkpt>
      <trkpt lat="36.9893670" lon="-2.3657460">
        <ele>1198.4</ele>
        <time>2019-10-18T14:34:12Z</time>
      </trkpt>
      <trkpt lat="36.9893690" lon="-2.3658140">
        <ele>1197.9</ele>
        <time>2019-10-18T14:34:13Z</time>
      </trkpt>
      <trkpt lat="36.9893660" lon="-2.3658850">
        <ele>1197.5</ele>
        <time>2019-10-18T14:34:14Z</time>
      </trkpt>
      <trkpt lat="36.9893620" lon="-2.3659570">
        <ele>1197.1</ele>
        <time>2019-10-18T14:34:15Z</time>
      </trkpt>
      <trkpt lat="36.9893560" lon="-2.3660280">
        <ele>1196.6</ele>
        <time>2019-10-18T14:34:16Z</time>
      </trkpt>
      <trkpt lat="36.9893510" lon="-2.3661000">
        <ele>1196.0</ele>
        <time>2019-10-18T14:34:17Z</time>
      </trkpt>
      <trkpt lat="36.9893450" lon="-2.3661740">
        <ele>1195.3</ele>
        <time>2019-10-18T14:34:18Z</time>
      </trkpt>
      <trkpt lat="36.9893390" lon="-2.3662470">
        <ele>1194.5</ele>
        <time>2019-10-18T14:34:19Z</time>
      </trkpt>
      <trkpt lat="36.9893320" lon="-2.3663190">
        <ele>1193.7</ele>
        <time>2019-10-18T14:34:20Z</time>
      </trkpt>
      <trkpt lat="36.9893250" lon="-2.3663910">
        <ele>1192.8</ele>
        <time>2019-10-18T14:34:21Z</time>
      </trkpt>
      <trkpt lat="36.9893190" lon="-2.3664630">
        <ele>1191.9</ele>
        <time>2019-10-18T14:34:22Z</time>
      </trkpt>
      <trkpt lat="36.9893210" lon="-2.3665320">
        <ele>1191.0</ele>
        <time>2019-10-18T14:34:23Z</time>
      </trkpt>
      <trkpt lat="36.9893290" lon="-2.3666000">
        <ele>1190.0</ele>
        <time>2019-10-18T14:34:24Z</time>
      </trkpt>
      <trkpt lat="36.9893470" lon="-2.3666610">
        <ele>1189.1</ele>
        <time>2019-10-18T14:34:25Z</time>
      </trkpt>
      <trkpt lat="36.9893750" lon="-2.3667150">
        <ele>1188.3</ele>
        <time>2019-10-18T14:34:26Z</time>
      </trkpt>
      <trkpt lat="36.9894110" lon="-2.3667640">
        <ele>1187.4</ele>
        <time>2019-10-18T14:34:27Z</time>
      </trkpt>
      <trkpt lat="36.9894450" lon="-2.3668140">
        <ele>1186.6</ele>
        <time>2019-10-18T14:34:28Z</time>
      </trkpt>
      <trkpt lat="36.9894690" lon="-2.3668700">
        <ele>1185.8</ele>
        <time>2019-10-18T14:34:29Z</time>
      </trkpt>
      <trkpt lat="36.9894850" lon="-2.3669280">
        <ele>1185.1</ele>
        <time>2019-10-18T14:34:30Z</time>
      </trkpt>
      <trkpt lat="36.9894930" lon="-2.3669880">
        <ele>1184.4</ele>
        <time>2019-10-18T14:34:31Z</time>
      </trkpt>
      <trkpt lat="36.9894940" lon="-2.3670440">
        <ele>1183.7</ele>
        <time>2019-10-18T14:34:32Z</time>
      </trkpt>
      <trkpt lat="36.9894900" lon="-2.3670970">
        <ele>1183.0</ele>
        <time>2019-10-18T14:34:33Z</time>
      </trkpt>
      <trkpt lat="36.9894840" lon="-2.3671440">
        <ele>1182.3</ele>
        <time>2019-10-18T14:34:34Z</time>
      </trkpt>
      <trkpt lat="36.9894830" lon="-2.3671900">
        <ele>1181.7</ele>
        <time>2019-10-18T14:34:35Z</time>
      </trkpt>
      <trkpt lat="36.9894920" lon="-2.3672310">
        <ele>1181.0</ele>
        <time>2019-10-18T14:34:36Z</time>
      </trkpt>
      <trkpt lat="36.9895140" lon="-2.3672610">
        <ele>1180.4</ele>
        <time>2019-10-18T14:34:37Z</time>
      </trkpt>
      <trkpt lat="36.9895470" lon="-2.3672750">
        <ele>1179.9</ele>
        <time>2019-10-18T14:34:38Z</time>
      </trkpt>
      <trkpt lat="36.9895840" lon="-2.3672780">
        <ele>1179.2</ele>
        <time>2019-10-18T14:34:39Z</time>
      </trkpt>
      <trkpt lat="36.9896210" lon="-2.3672730">
        <ele>1178.5</ele>
        <time>2019-10-18T14:34:40Z</time>
      </trkpt>
      <trkpt lat="36.9896600" lon="-2.3672630">
        <ele>1178.0</ele>
        <time>2019-10-18T14:34:41Z</time>
      </trkpt>
      <trkpt lat="36.9896970" lon="-2.3672390">
        <ele>1177.5</ele>
        <time>2019-10-18T14:34:42Z</time>
      </trkpt>
      <trkpt lat="36.9897250" lon="-2.3672040">
        <ele>1177.0</ele>
        <time>2019-10-18T14:34:43Z</time>
      </trkpt>
      <trkpt lat="36.9897440" lon="-2.3671600">
        <ele>1176.5</ele>
        <time>2019-10-18T14:34:44Z</time>
      </trkpt>
      <trkpt lat="36.9897540" lon="-2.3671120">
        <ele>1176.1</ele>
        <time>2019-10-18T14:34:45Z</time>
      </trkpt>
      <trkpt lat="36.9897610" lon="-2.3670640">
        <ele>1175.6</ele>
        <time>2019-10-18T14:34:46Z</time>
      </trkpt>
      <trkpt lat="36.9897650" lon="-2.3670160">
        <ele>1175.2</ele>
        <time>2019-10-18T14:34:47Z</time>
      </trkpt>
      <trkpt lat="36.9897720" lon="-2.3669690">
        <ele>1174.8</ele>
        <time>2019-10-18T14:34:48Z</time>
      </trkpt>
      <trkpt lat="36.9897820" lon="-2.3669220">
        <ele>1174.4</ele>
        <time>2019-10-18T14:34:49Z</time>
      </trkpt>
      <trkpt lat="36.9897960" lon="-2.3668720">
        <ele>1173.9</ele>
        <time>2019-10-18T14:34:50Z</time>
      </trkpt>
      <trkpt lat="36.9898130" lon="-2.3668200">
        <ele>1173.4</ele>
        <time>2019-10-18T14:34:51Z</time>
      </trkpt>
      <trkpt lat="36.9898310" lon="-2.3667660">
        <ele>1172.8</ele>
        <time>2019-10-18T14:34:52Z</time>
      </trkpt>
      <trkpt lat="36.9898500" lon="-2.3667110">
        <ele>1172.2</ele>
        <time>2019-10-18T14:34:53Z</time>
      </trkpt>
      <trkpt lat="36.9898670" lon="-2.3666540">
        <ele>1171.8</ele>
        <time>2019-10-18T14:34:54Z</time>
      </trkpt>
      <trkpt lat="36.9898800" lon="-2.3665960">
        <ele>1171.4</ele>
        <time>2019-10-18T14:34:55Z</time>
      </trkpt>
      <trkpt lat="36.9898890" lon="-2.3665350">
        <ele>1170.9</ele>
        <time>2019-10-18T14:34:56Z</time>
      </trkpt>
      <trkpt lat="36.9898960" lon="-2.3664730">
        <ele>1170.6</ele>
        <time>2019-10-18T14:34:57Z</time>
      </trkpt>
      <trkpt lat="36.9899040" lon="-2.3664120">
        <ele>1170.3</ele>
        <time>2019-10-18T14:34:58Z</time>
      </trkpt>
      <trkpt lat="36.9899130" lon="-2.3663530">
        <ele>1170.1</ele>
        <time>2019-10-18T14:34:59Z</time>
      </trkpt>
      <trkpt lat="36.9899240" lon="-2.3662950">
        <ele>1169.8</ele>
        <time>2019-10-18T14:35:00Z</time>
      </trkpt>
      <trkpt lat="36.9899390" lon="-2.3662430">
        <ele>1169.5</ele>
        <time>2019-10-18T14:35:01Z</time>
      </trkpt>
      <trkpt lat="36.9899630" lon="-2.3661980">
        <ele>1169.3</ele>
        <time>2019-10-18T14:35:02Z</time>
      </trkpt>
      <trkpt lat="36.9899930" lon="-2.3661620">
        <ele>1169.0</ele>
        <time>2019-10-18T14:35:03Z</time>
      </trkpt>
      <trkpt lat="36.9900270" lon="-2.3661280">
        <ele>1168.7</ele>
        <time>2019-10-18T14:35:04Z</time>
      </trkpt>
      <trkpt lat="36.9900640" lon="-2.3660920">
        <ele>1168.4</ele>
        <time>2019-10-18T14:35:05Z</time>
      </trkpt>
      <trkpt lat="36.9901030" lon="-2.3660510">
        <ele>1168.0</ele>
        <time>2019-10-18T14:35:06Z</time>
      </trkpt>
      <trkpt lat="36.9901430" lon="-2.3660070">
        <ele>1167.5</ele>
        <time>2019-10-18T14:35:07Z</time>
      </trkpt>
      <trkpt lat="36.9901800" lon="-2.3659630">
        <ele>1167.0</ele>
        <time>2019-10-18T14:35:08Z</time>
      </trkpt>
      <trkpt lat="36.9902170" lon="-2.3659200">
        <ele>1166.5</ele>
        <time>2019-10-18T14:35:09Z</time>
      </trkpt>
      <trkpt lat="36.9902540" lon="-2.3658790">
        <ele>1166.0</ele>
        <time>2019-10-18T14:35:10Z</time>
      </trkpt>
      <trkpt lat="36.9902940" lon="-2.3658410">
        <ele>1165.4</ele>
        <time>2019-10-18T14:35:11Z</time>
      </trkpt>
      <trkpt lat="36.9903360" lon="-2.3658050">
        <ele>1164.9</ele>
        <time>2019-10-18T14:35:12Z</time>
      </trkpt>
      <trkpt lat="36.9903780" lon="-2.3657660">
        <ele>1164.3</ele>
        <time>2019-10-18T14:35:13Z</time>
      </trkpt>
      <trkpt lat="36.9904150" lon="-2.3657250">
        <ele>1163.7</ele>
        <time>2019-10-18T14:35:14Z</time>
      </trkpt>
      <trkpt lat="36.9904480" lon="-2.3656830">
        <ele>1163.1</ele>
        <time>2019-10-18T14:35:15Z</time>
      </trkpt>
      <trkpt lat="36.9904770" lon="-2.3656440">
        <ele>1162.5</ele>
        <time>2019-10-18T14:35:16Z</time>
      </trkpt>
      <trkpt lat="36.9905040" lon="-2.3656120">
        <ele>1161.9</ele>
        <time>2019-10-18T14:35:17Z</time>
      </trkpt>
      <trkpt lat="36.9905310" lon="-2.3655880">
        <ele>1161.3</ele>
        <time>2019-10-18T14:35:18Z</time>
      </trkpt>
      <trkpt lat="36.9905520" lon="-2.3655810">
        <ele>1161.0</ele>
        <time>2019-10-18T14:35:19Z</time>
      </trkpt>
      <trkpt lat="36.9905740" lon="-2.3655910">
        <ele>1160.7</ele>
        <time>2019-10-18T14:35:20Z</time>
      </trkpt>
      <trkpt lat="36.9905940" lon="-2.3656120">
        <ele>1160.3</ele>
        <time>2019-10-18T14:35:21Z</time>
      </trkpt>
      <trkpt lat="36.9906160" lon="-2.3656350">
        <ele>1159.9</ele>
        <time>2019-10-18T14:35:22Z</time>
      </trkpt>
      <trkpt lat="36.9906350" lon="-2.3656630">
        <ele>1159.6</ele>
        <time>2019-10-18T14:35:23Z</time>
      </trkpt>
      <trkpt lat="36.9906510" lon="-2.3656970">
        <ele>1159.3</ele>
        <time>2019-10-18T14:35:24Z</time>
      </trkpt>
      <trkpt lat="36.9906630" lon="-2.3657370">
        <ele>1158.9</ele>
        <time>2019-10-18T14:35:25Z</time>
      </trkpt>
      <trkpt lat="36.9906750" lon="-2.3657790">
        <ele>1158.5</ele>
        <time>2019-10-18T14:35:26Z</time>
      </trkpt>
      <trkpt lat="36.9906880" lon="-2.3658240">
        <ele>1158.1</ele>
        <time>2019-10-18T14:35:27Z</time>
      </trkpt>
      <trkpt lat="36.9907030" lon="-2.3658700">
        <ele>1157.7</ele>
        <time>2019-10-18T14:35:28Z</time>
      </trkpt>
      <trkpt lat="36.9907130" lon="-2.3659200">
        <ele>1157.3</ele>
        <time>2019-10-18T14:35:29Z</time>
      </trkpt>
      <trkpt lat="36.9907190" lon="-2.3659680">
        <ele>1157.0</ele>
        <time>2019-10-18T14:35:30Z</time>
      </trkpt>
      <trkpt lat="36.9907200" lon="-2.3660170">
        <ele>1156.6</ele>
        <time>2019-10-18T14:35:31Z</time>
      </trkpt>
      <trkpt lat="36.9907200" lon="-2.3660610">
        <ele>1156.3</ele>
        <time>2019-10-18T14:35:32Z</time>
      </trkpt>
      <trkpt lat="36.9907150" lon="-2.3661010">
        <ele>1156.0</ele>
        <time>2019-10-18T14:35:33Z</time>
      </trkpt>
      <trkpt lat="36.9907050" lon="-2.3661380">
        <ele>1155.7</ele>
        <time>2019-10-18T14:35:34Z</time>
      </trkpt>
      <trkpt lat="36.9906930" lon="-2.3661730">
        <ele>1155.4</ele>
        <time>2019-10-18T14:35:35Z</time>
      </trkpt>
      <trkpt lat="36.9906790" lon="-2.3662070">
        <ele>1155.1</ele>
        <time>2019-10-18T14:35:36Z</time>
      </trkpt>
      <trkpt lat="36.9906610" lon="-2.3662430">
        <ele>1154.8</ele>
        <time>2019-10-18T14:35:37Z</time>
      </trkpt>
      <trkpt lat="36.9906440" lon="-2.3662830">
        <ele>1154.5</ele>
        <time>2019-10-18T14:35:38Z</time>
      </trkpt>
      <trkpt lat="36.9906300" lon="-2.3663280">
        <ele>1154.1</ele>
        <time>2019-10-18T14:35:39Z</time>
      </trkpt>
      <trkpt lat="36.9906230" lon="-2.3663800">
        <ele>1153.7</ele>
        <time>2019-10-18T14:35:40Z</time>
      </trkpt>
      <trkpt lat="36.9906220" lon="-2.3664360">
        <ele>1153.3</ele>
        <time>2019-10-18T14:35:41Z</time>
      </trkpt>
      <trkpt lat="36.9906220" lon="-2.3664940">
        <ele>1152.9</ele>
        <time>2019-10-18T14:35:42Z</time>
      </trkpt>
      <trkpt lat="36.9906220" lon="-2.3665510">
        <ele>1152.5</ele>
        <time>2019-10-18T14:35:43Z</time>
      </trkpt>
      <trkpt lat="36.9906210" lon="-2.3666040">
        <ele>1152.1</ele>
        <time>2019-10-18T14:35:44Z</time>
      </trkpt>
      <trkpt lat="36.9906190" lon="-2.3666550">
        <ele>1151.8</ele>
        <time>2019-10-18T14:35:45Z</time>
      </trkpt>
      <trkpt lat="36.9906160" lon="-2.3667020">
        <ele>1151.5</ele>
        <time>2019-10-18T14:35:46Z</time>
      </trkpt>
      <trkpt lat="36.9906120" lon="-2.3667470">
        <ele>1151.2</ele>
        <time>2019-10-18T14:35:47Z</time>
      </trkpt>
      <trkpt lat="36.9906090" lon="-2.3667920">
        <ele>1150.9</ele>
        <time>2019-10-18T14:35:48Z</time>
      </trkpt>
      <trkpt lat="36.9906060" lon="-2.3668410">
        <ele>1150.5</ele>
        <time>2019-10-18T14:35:49Z</time>
      </trkpt>
      <trkpt lat="36.9906050" lon="-2.3668920">
        <ele>1150.2</ele>
        <time>2019-10-18T14:35:50Z</time>
      </trkpt>
      <trkpt lat="36.9906050" lon="-2.3669450">
        <ele>1149.8</ele>
        <time>2019-10-18T14:35:51Z</time>
      </trkpt>
      <trkpt lat="36.9906040" lon="-2.3669970">
        <ele>1149.5</ele>
        <time>2019-10-18T14:35:52Z</time>
      </trkpt>
      <trkpt lat="36.9906010" lon="-2.3670480">
        <ele>1149.1</ele>
        <time>2019-10-18T14:35:53Z</time>
      </trkpt>
      <trkpt lat="36.9905980" lon="-2.3670990">
        <ele>1148.7</ele>
        <time>2019-10-18T14:35:54Z</time>
      </trkpt>
      <trkpt lat="36.9905920" lon="-2.3671540">
        <ele>1148.4</ele>
        <time>2019-10-18T14:35:55Z</time>
      </trkpt>
      <trkpt lat="36.9905850" lon="-2.3672130">
        <ele>1147.9</ele>
        <time>2019-10-18T14:35:56Z</time>
      </trkpt>
      <trkpt lat="36.9905760" lon="-2.3672740">
        <ele>1147.5</ele>
        <time>2019-10-18T14:35:57Z</time>
      </trkpt>
      <trkpt lat="36.9905680" lon="-2.3673370">
        <ele>1147.0</ele>
        <time>2019-10-18T14:35:58Z</time>
      </trkpt>
      <trkpt lat="36.9905620" lon="-2.3674030">
        <ele>1146.6</ele>
        <time>2019-10-18T14:35:59Z</time>
      </trkpt>
      <trkpt lat="36.9905570" lon="-2.3674700">
        <ele>1146.1</ele>
        <time>2019-10-18T14:36:00Z</time>
      </trkpt>
      <trkpt lat="36.9905520" lon="-2.3675410">
        <ele>1145.6</ele>
        <time>2019-10-18T14:36:01Z</time>
      </trkpt>
      <trkpt lat="36.9905450" lon="-2.3676150">
        <ele>1145.1</ele>
        <time>2019-10-18T14:36:02Z</time>
      </trkpt>
      <trkpt lat="36.9905390" lon="-2.3676920">
        <ele>1144.6</ele>
        <time>2019-10-18T14:36:03Z</time>
      </trkpt>
      <trkpt lat="36.9905400" lon="-2.3677750">
        <ele>1143.9</ele>
        <time>2019-10-18T14:36:04Z</time>
      </trkpt>
      <trkpt lat="36.9905450" lon="-2.3678580">
        <ele>1143.3</ele>
        <time>2019-10-18T14:36:05Z</time>
      </trkpt>
      <trkpt lat="36.9905510" lon="-2.3679390">
        <ele>1142.6</ele>
        <time>2019-10-18T14:36:06Z</time>
      </trkpt>
      <trkpt lat="36.9905550" lon="-2.3680160">
        <ele>1142.0</ele>
        <time>2019-10-18T14:36:07Z</time>
      </trkpt>
      <trkpt lat="36.9905600" lon="-2.3680930">
        <ele>1141.3</ele>
        <time>2019-10-18T14:36:08Z</time>
      </trkpt>
      <trkpt lat="36.9905660" lon="-2.3681710">
        <ele>1140.7</ele>
        <time>2019-10-18T14:36:09Z</time>
      </trkpt>
      <trkpt lat="36.9905740" lon="-2.3682510">
        <ele>1140.0</ele>
        <time>2019-10-18T14:36:10Z</time>
      </trkpt>
      <trkpt lat="36.9905830" lon="-2.3683310">
        <ele>1139.4</ele>
        <time>2019-10-18T14:36:11Z</time>
      </trkpt>
      <trkpt lat="36.9905940" lon="-2.3684070">
        <ele>1138.9</ele>
        <time>2019-10-18T14:36:12Z</time>
      </trkpt>
      <trkpt lat="36.9906040" lon="-2.3684800">
        <ele>1138.5</ele>
        <time>2019-10-18T14:36:13Z</time>
      </trkpt>
      <trkpt lat="36.9906140" lon="-2.3685460">
        <ele>1138.0</ele>
        <time>2019-10-18T14:36:14Z</time>
      </trkpt>
      <trkpt lat="36.9906230" lon="-2.3686070">
        <ele>1137.5</ele>
        <time>2019-10-18T14:36:15Z</time>
      </trkpt>
      <trkpt lat="36.9906330" lon="-2.3686650">
        <ele>1137.0</ele>
        <time>2019-10-18T14:36:16Z</time>
      </trkpt>
      <trkpt lat="36.9906420" lon="-2.3687200">
        <ele>1136.4</ele>
        <time>2019-10-18T14:36:17Z</time>
      </trkpt>
      <trkpt lat="36.9906490" lon="-2.3687760">
        <ele>1135.9</ele>
        <time>2019-10-18T14:36:18Z</time>
      </trkpt>
      <trkpt lat="36.9906510" lon="-2.3688270">
        <ele>1135.3</ele>
        <time>2019-10-18T14:36:19Z</time>
      </trkpt>
      <trkpt lat="36.9906500" lon="-2.3688750">
        <ele>1134.7</ele>
        <time>2019-10-18T14:36:20Z</time>
      </trkpt>
      <trkpt lat="36.9906510" lon="-2.3689200">
        <ele>1134.2</ele>
        <time>2019-10-18T14:36:21Z</time>
      </trkpt>
      <trkpt lat="36.9906570" lon="-2.3689640">
        <ele>1133.7</ele>
        <time>2019-10-18T14:36:22Z</time>
      </trkpt>
      <trkpt lat="36.9906710" lon="-2.3690020">
        <ele>1133.3</ele>
        <time>2019-10-18T14:36:23Z</time>
      </trkpt>
      <trkpt lat="36.9906930" lon="-2.3690300">
        <ele>1132.9</ele>
        <time>2019-10-18T14:36:24Z</time>
      </trkpt>
      <trkpt lat="36.9907190" lon="-2.3690420">
        <ele>1132.4</ele>
        <time>2019-10-18T14:36:25Z</time>
      </trkpt>
      <trkpt lat="36.9907440" lon="-2.3690460">
        <ele>1132.0</ele>
        <time>2019-10-18T14:36:26Z</time>
      </trkpt>
      <trkpt lat="36.9907670" lon="-2.3690350">
        <ele>1131.5</ele>
        <time>2019-10-18T14:36:27Z</time>
      </trkpt>
      <trkpt lat="36.9907860" lon="-2.3690190">
        <ele>1131.2</ele>
        <time>2019-10-18T14:36:28Z</time>
      </trkpt>
      <trkpt lat="36.9908040" lon="-2.3689900">
        <ele>1130.8</ele>
        <time>2019-10-18T14:36:29Z</time>
      </trkpt>
      <trkpt lat="36.9908200" lon="-2.3689440">
        <ele>1130.2</ele>
        <time>2019-10-18T14:36:30Z</time>
      </trkpt>
      <trkpt lat="36.9908340" lon="-2.3688850">
        <ele>1129.6</ele>
        <time>2019-10-18T14:36:31Z</time>
      </trkpt>
      <trkpt lat="36.9908440" lon="-2.3688170">
        <ele>1128.6</ele>
        <time>2019-10-18T14:36:32Z</time>
      </trkpt>
      <trkpt lat="36.9908490" lon="-2.3687530">
        <ele>1127.7</ele>
        <time>2019-10-18T14:36:33Z</time>
      </trkpt>
      <trkpt lat="36.9908530" lon="-2.3686860">
        <ele>1126.9</ele>
        <time>2019-10-18T14:36:34Z</time>
      </trkpt>
      <trkpt lat="36.9908570" lon="-2.3686180">
        <ele>1126.3</ele>
        <time>2019-10-18T14:36:35Z</time>
      </trkpt>
      <trkpt lat="36.9908610" lon="-2.3685490">
        <ele>1125.8</ele>
        <time>2019-10-18T14:36:36Z</time>
      </trkpt>
      <trkpt lat="36.9908670" lon="-2.3684800">
        <ele>1125.2</ele>
        <time>2019-10-18T14:36:37Z</time>
      </trkpt>
      <trkpt lat="36.9908750" lon="-2.3684140">
        <ele>1124.8</ele>
        <time>2019-10-18T14:36:38Z</time>
      </trkpt>
      <trkpt lat="36.9908820" lon="-2.3683500">
        <ele>1124.3</ele>
        <time>2019-10-18T14:36:39Z</time>
      </trkpt>
      <trkpt lat="36.9908900" lon="-2.3682880">
        <ele>1123.9</ele>
        <time>2019-10-18T14:36:40Z</time>
      </trkpt>
      <trkpt lat="36.9908980" lon="-2.3682270">
        <ele>1123.5</ele>
        <time>2019-10-18T14:36:41Z</time>
      </trkpt>
      <trkpt lat="36.9909070" lon="-2.3681710">
        <ele>1123.1</ele>
        <time>2019-10-18T14:36:42Z</time>
      </trkpt>
      <trkpt lat="36.9909180" lon="-2.3681190">
        <ele>1122.7</ele>
        <time>2019-10-18T14:36:43Z</time>
      </trkpt>
      <trkpt lat="36.9909370" lon="-2.3680720">
        <ele>1122.4</ele>
        <time>2019-10-18T14:36:44Z</time>
      </trkpt>
      <trkpt lat="36.9909600" lon="-2.3680280">
        <ele>1122.1</ele>
        <time>2019-10-18T14:36:45Z</time>
      </trkpt>
      <trkpt lat="36.9909860" lon="-2.3679860">
        <ele>1121.7</ele>
        <time>2019-10-18T14:36:46Z</time>
      </trkpt>
      <trkpt lat="36.9910130" lon="-2.3679480">
        <ele>1121.4</ele>
        <time>2019-10-18T14:36:47Z</time>
      </trkpt>
      <trkpt lat="36.9910480" lon="-2.3679140">
        <ele>1121.0</ele>
        <time>2019-10-18T14:36:48Z</time>
      </trkpt>
      <trkpt lat="36.9910870" lon="-2.3678860">
        <ele>1120.6</ele>
        <time>2019-10-18T14:36:49Z</time>
      </trkpt>
      <trkpt lat="36.9911260" lon="-2.3678600">
        <ele>1120.2</ele>
        <time>2019-10-18T14:36:50Z</time>
      </trkpt>
      <trkpt lat="36.9911610" lon="-2.3678340">
        <ele>1119.9</ele>
        <time>2019-10-18T14:36:51Z</time>
      </trkpt>
      <trkpt lat="36.9911930" lon="-2.3678060">
        <ele>1119.5</ele>
        <time>2019-10-18T14:36:52Z</time>
      </trkpt>
      <trkpt lat="36.9912250" lon="-2.3677760">
        <ele>1119.2</ele>
        <time>2019-10-18T14:36:53Z</time>
      </trkpt>
      <trkpt lat="36.9912560" lon="-2.3677430">
        <ele>1118.8</ele>
        <time>2019-10-18T14:36:54Z</time>
      </trkpt>
      <trkpt lat="36.9912850" lon="-2.3677080">
        <ele>1118.5</ele>
        <time>2019-10-18T14:36:55Z</time>
      </trkpt>
      <trkpt lat="36.9913140" lon="-2.3676710">
        <ele>1118.1</ele>
        <time>2019-10-18T14:36:56Z</time>
      </trkpt>
      <trkpt lat="36.9913410" lon="-2.3676320">
        <ele>1117.7</ele>
        <time>2019-10-18T14:36:57Z</time>
      </trkpt>
      <trkpt lat="36.9913690" lon="-2.3675900">
        <ele>1117.2</ele>
        <time>2019-10-18T14:36:58Z</time>
      </trkpt>
      <trkpt lat="36.9913940" lon="-2.3675450">
        <ele>1116.8</ele>
        <time>2019-10-18T14:36:59Z</time>
      </trkpt>
      <trkpt lat="36.9914190" lon="-2.3674970">
        <ele>1116.4</ele>
        <time>2019-10-18T14:37:00Z</time>
      </trkpt>
      <trkpt lat="36.9914420" lon="-2.3674500">
        <ele>1115.9</ele>
        <time>2019-10-18T14:37:01Z</time>
      </trkpt>
      <trkpt lat="36.9914660" lon="-2.3674030">
        <ele>1115.5</ele>
        <time>2019-10-18T14:37:02Z</time>
      </trkpt>
      <trkpt lat="36.9914890" lon="-2.3673560">
        <ele>1115.0</ele>
        <time>2019-10-18T14:37:03Z</time>
      </trkpt>
      <trkpt lat="36.9915060" lon="-2.3673080">
        <ele>1114.5</ele>
        <time>2019-10-18T14:37:04Z</time>
      </trkpt>
      <trkpt lat="36.9915190" lon="-2.3672590">
        <ele>1114.0</ele>
        <time>2019-10-18T14:37:05Z</time>
      </trkpt>
      <trkpt lat="36.9915270" lon="-2.3672090">
        <ele>1113.5</ele>
        <time>2019-10-18T14:37:06Z</time>
      </trkpt>
      <trkpt lat="36.9915370" lon="-2.3671590">
        <ele>1113.0</ele>
        <time>2019-10-18T14:37:07Z</time>
      </trkpt>
      <trkpt lat="36.9915460" lon="-2.3671100">
        <ele>1112.5</ele>
        <time>2019-10-18T14:37:08Z</time>
      </trkpt>
      <trkpt lat="36.9915550" lon="-2.3670610">
        <ele>1112.0</ele>
        <time>2019-10-18T14:37:09Z</time>
      </trkpt>
      <trkpt lat="36.9915630" lon="-2.3670130">
        <ele>1111.5</ele>
        <time>2019-10-18T14:37:10Z</time>
      </trkpt>
      <trkpt lat="36.9915730" lon="-2.3669670">
        <ele>1111.1</ele>
        <time>2019-10-18T14:37:11Z</time>
      </trkpt>
      <trkpt lat="36.9915880" lon="-2.3669260">
        <ele>1110.6</ele>
        <time>2019-10-18T14:37:12Z</time>
      </trkpt>
      <trkpt lat="36.9916080" lon="-2.3668940">
        <ele>1110.2</ele>
        <time>2019-10-18T14:37:13Z</time>
      </trkpt>
      <trkpt lat="36.9916390" lon="-2.3668740">
        <ele>1109.7</ele>
        <time>2019-10-18T14:37:14Z</time>
      </trkpt>
      <trkpt lat="36.9916720" lon="-2.3668640">
        <ele>1109.2</ele>
        <time>2019-10-18T14:37:15Z</time>
      </trkpt>
      <trkpt lat="36.9917060" lon="-2.3668610">
        <ele>1108.6</ele>
        <time>2019-10-18T14:37:16Z</time>
      </trkpt>
      <trkpt lat="36.9917370" lon="-2.3668630">
        <ele>1108.2</ele>
        <time>2019-10-18T14:37:17Z</time>
      </trkpt>
      <trkpt lat="36.9917670" lon="-2.3668690">
        <ele>1107.8</ele>
        <time>2019-10-18T14:37:18Z</time>
      </trkpt>
      <trkpt lat="36.9917980" lon="-2.3668760">
        <ele>1107.4</ele>
        <time>2019-10-18T14:37:19Z</time>
      </trkpt>
      <trkpt lat="36.9918320" lon="-2.3668780">
        <ele>1107.1</ele>
        <time>2019-10-18T14:37:20Z</time>
      </trkpt>
      <trkpt lat="36.9918710" lon="-2.3668750">
        <ele>1106.8</ele>
        <time>2019-10-18T14:37:21Z</time>
      </trkpt>
      <trkpt lat="36.9919130" lon="-2.3668680">
        <ele>1106.5</ele>
        <time>2019-10-18T14:37:22Z</time>
      </trkpt>
      <trkpt lat="36.9919600" lon="-2.3668590">
        <ele>1106.0</ele>
        <time>2019-10-18T14:37:23Z</time>
      </trkpt>
      <trkpt lat="36.9920080" lon="-2.3668470">
        <ele>1105.5</ele>
        <time>2019-10-18T14:37:24Z</time>
      </trkpt>
      <trkpt lat="36.9920570" lon="-2.3668340">
        <ele>1105.2</ele>
        <time>2019-10-18T14:37:25Z</time>
      </trkpt>
      <trkpt lat="36.9921060" lon="-2.3668190">
        <ele>1104.9</ele>
        <time>2019-10-18T14:37:26Z</time>
      </trkpt>
      <trkpt lat="36.9921540" lon="-2.3668010">
        <ele>1104.6</ele>
        <time>2019-10-18T14:37:27Z</time>
      </trkpt>
      <trkpt lat="36.9922010" lon="-2.3667810">
        <ele>1104.3</ele>
        <time>2019-10-18T14:37:28Z</time>
      </trkpt>
      <trkpt lat="36.9922470" lon="-2.3667590">
        <ele>1104.0</ele>
        <time>2019-10-18T14:37:29Z</time>
      </trkpt>
      <trkpt lat="36.9922910" lon="-2.3667350">
        <ele>1103.6</ele>
        <time>2019-10-18T14:37:30Z</time>
      </trkpt>
      <trkpt lat="36.9923330" lon="-2.3667090">
        <ele>1103.3</ele>
        <time>2019-10-18T14:37:31Z</time>
      </trkpt>
      <trkpt lat="36.9923720" lon="-2.3666810">
        <ele>1103.0</ele>
        <time>2019-10-18T14:37:32Z</time>
      </trkpt>
      <trkpt lat="36.9924100" lon="-2.3666510">
        <ele>1102.6</ele>
        <time>2019-10-18T14:37:33Z</time>
      </trkpt>
      <trkpt lat="36.9924480" lon="-2.3666240">
        <ele>1102.3</ele>
        <time>2019-10-18T14:37:34Z</time>
      </trkpt>
      <trkpt lat="36.9924830" lon="-2.3666030">
        <ele>1101.9</ele>
        <time>2019-10-18T14:37:35Z</time>
      </trkpt>
      <trkpt lat="36.9925140" lon="-2.3665930">
        <ele>1101.6</ele>
        <time>2019-10-18T14:37:36Z</time>
      </trkpt>
      <trkpt lat="36.9925390" lon="-2.3665950">
        <ele>1101.3</ele>
        <time>2019-10-18T14:37:37Z</time>
      </trkpt>
      <trkpt lat="36.9925580" lon="-2.3666080">
        <ele>1101.1</ele>
        <time>2019-10-18T14:37:38Z</time>
      </trkpt>
      <trkpt lat="36.9925740" lon="-2.3666280">
        <ele>1100.9</ele>
        <time>2019-10-18T14:37:39Z</time>
      </trkpt>
      <trkpt lat="36.9925860" lon="-2.3666510">
        <ele>1100.7</ele>
        <time>2019-10-18T14:37:40Z</time>
      </trkpt>
      <trkpt lat="36.9925890" lon="-2.3666810">
        <ele>1100.4</ele>
        <time>2019-10-18T14:37:41Z</time>
      </trkpt>
      <trkpt lat="36.9925840" lon="-2.3667130">
        <ele>1099.9</ele>
        <time>2019-10-18T14:37:42Z</time>
      </trkpt>
      <trkpt lat="36.9925690" lon="-2.3667450">
        <ele>1099.4</ele>
        <time>2019-10-18T14:37:43Z</time>
      </trkpt>
      <trkpt lat="36.9925510" lon="-2.3667750">
        <ele>1099.0</ele>
        <time>2019-10-18T14:37:44Z</time>
      </trkpt>
      <trkpt lat="36.9925290" lon="-2.3668040">
        <ele>1098.5</ele>
        <time>2019-10-18T14:37:45Z</time>
      </trkpt>
      <trkpt lat="36.9925040" lon="-2.3668350">
        <ele>1098.0</ele>
        <time>2019-10-18T14:37:46Z</time>
      </trkpt>
      <trkpt lat="36.9924750" lon="-2.3668690">
        <ele>1097.3</ele>
        <time>2019-10-18T14:37:47Z</time>
      </trkpt>
      <trkpt lat="36.9924450" lon="-2.3669060">
        <ele>1096.6</ele>
        <time>2019-10-18T14:37:48Z</time>
      </trkpt>
      <trkpt lat="36.9924160" lon="-2.3669430">
        <ele>1096.0</ele>
        <time>2019-10-18T14:37:49Z</time>
      </trkpt>
      <trkpt lat="36.9923920" lon="-2.3669800">
        <ele>1095.6</ele>
        <time>2019-10-18T14:37:50Z</time>
      </trkpt>
      <trkpt lat="36.9923730" lon="-2.3670160">
        <ele>1095.2</ele>
        <time>2019-10-18T14:37:51Z</time>
      </trkpt>
      <trkpt lat="36.9923570" lon="-2.3670510">
        <ele>1094.9</ele>
        <time>2019-10-18T14:37:52Z</time>
      </trkpt>
      <trkpt lat="36.9923460" lon="-2.3670850">
        <ele>1094.7</ele>
        <time>2019-10-18T14:37:53Z</time>
      </trkpt>
      <trkpt lat="36.9923420" lon="-2.3671260">
        <ele>1094.4</ele>
        <time>2019-10-18T14:37:54Z</time>
      </trkpt>
      <trkpt lat="36.9923490" lon="-2.3671720">
        <ele>1094.0</ele>
        <time>2019-10-18T14:37:55Z</time>
      </trkpt>
      <trkpt lat="36.9923680" lon="-2.3672200">
        <ele>1093.6</ele>
        <time>2019-10-18T14:37:56Z</time>
      </trkpt>
      <trkpt lat="36.9923960" lon="-2.3672640">
        <ele>1093.2</ele>
        <time>2019-10-18T14:37:57Z</time>
      </trkpt>
      <trkpt lat="36.9924320" lon="-2.3673010">
        <ele>1092.8</ele>
        <time>2019-10-18T14:37:58Z</time>
      </trkpt>
      <trkpt lat="36.9924720" lon="-2.3673320">
        <ele>1092.3</ele>
        <time>2019-10-18T14:37:59Z</time>
      </trkpt>
      <trkpt lat="36.9925160" lon="-2.3673590">
        <ele>1091.8</ele>
        <time>2019-10-18T14:38:00Z</time>
      </trkpt>
      <trkpt lat="36.9925610" lon="-2.3673850">
        <ele>1091.4</ele>
        <time>2019-10-18T14:38:01Z</time>
      </trkpt>
      <trkpt lat="36.9926080" lon="-2.3674110">
        <ele>1090.9</ele>
        <time>2019-10-18T14:38:02Z</time>
      </trkpt>
      <trkpt lat="36.9926560" lon="-2.3674390">
        <ele>1090.5</ele>
        <time>2019-10-18T14:38:03Z</time>
      </trkpt>
      <trkpt lat="36.9927060" lon="-2.3674680">
        <ele>1090.0</ele>
        <time>2019-10-18T14:38:04Z</time>
      </trkpt>
      <trkpt lat="36.9927570" lon="-2.3674980">
        <ele>1089.5</ele>
        <time>2019-10-18T14:38:05Z</time>
      </trkpt>
      <trkpt lat="36.9928060" lon="-2.3675300">
        <ele>1089.0</ele>
        <time>2019-10-18T14:38:06Z</time>
      </trkpt>
      <trkpt lat="36.9928530" lon="-2.3675620">
        <ele>1088.6</ele>
        <time>2019-10-18T14:38:07Z</time>
      </trkpt>
      <trkpt lat="36.9928960" lon="-2.3675950">
        <ele>1088.1</ele>
        <time>2019-10-18T14:38:08Z</time>
      </trkpt>
      <trkpt lat="36.9929360" lon="-2.3676320">
        <ele>1087.5</ele>
        <time>2019-10-18T14:38:09Z</time>
      </trkpt>
      <trkpt lat="36.9929780" lon="-2.3676780">
        <ele>1086.9</ele>
        <time>2019-10-18T14:38:10Z</time>
      </trkpt>
      <trkpt lat="36.9930250" lon="-2.3677330">
        <ele>1086.1</ele>
        <time>2019-10-18T14:38:11Z</time>
      </trkpt>
      <trkpt lat="36.9930760" lon="-2.3677950">
        <ele>1085.2</ele>
        <time>2019-10-18T14:38:12Z</time>
      </trkpt>
      <trkpt lat="36.9931300" lon="-2.3678570">
        <ele>1084.4</ele>
        <time>2019-10-18T14:38:13Z</time>
      </trkpt>
      <trkpt lat="36.9931830" lon="-2.3679140">
        <ele>1083.5</ele>
        <time>2019-10-18T14:38:14Z</time>
      </trkpt>
      <trkpt lat="36.9932330" lon="-2.3679680">
        <ele>1082.8</ele>
        <time>2019-10-18T14:38:15Z</time>
      </trkpt>
      <trkpt lat="36.9932770" lon="-2.3680200">
        <ele>1082.0</ele>
        <time>2019-10-18T14:38:16Z</time>
      </trkpt>
      <trkpt lat="36.9933170" lon="-2.3680710">
        <ele>1081.3</ele>
        <time>2019-10-18T14:38:17Z</time>
      </trkpt>
      <trkpt lat="36.9933490" lon="-2.3681240">
        <ele>1080.5</ele>
        <time>2019-10-18T14:38:18Z</time>
      </trkpt>
      <trkpt lat="36.9933740" lon="-2.3681830">
        <ele>1079.7</ele>
        <time>2019-10-18T14:38:19Z</time>
      </trkpt>
      <trkpt lat="36.9933920" lon="-2.3682450">
        <ele>1078.9</ele>
        <time>2019-10-18T14:38:20Z</time>
      </trkpt>
      <trkpt lat="36.9934070" lon="-2.3683070">
        <ele>1078.0</ele>
        <time>2019-10-18T14:38:21Z</time>
      </trkpt>
      <trkpt lat="36.9934210" lon="-2.3683660">
        <ele>1077.2</ele>
        <time>2019-10-18T14:38:22Z</time>
      </trkpt>
      <trkpt lat="36.9934350" lon="-2.3684220">
        <ele>1076.3</ele>
        <time>2019-10-18T14:38:23Z</time>
      </trkpt>
      <trkpt lat="36.9934510" lon="-2.3684750">
        <ele>1075.5</ele>
        <time>2019-10-18T14:38:24Z</time>
      </trkpt>
      <trkpt lat="36.9934730" lon="-2.3685220">
        <ele>1074.7</ele>
        <time>2019-10-18T14:38:25Z</time>
      </trkpt>
      <trkpt lat="36.9935020" lon="-2.3685580">
        <ele>1073.9</ele>
        <time>2019-10-18T14:38:26Z</time>
      </trkpt>
      <trkpt lat="36.9935370" lon="-2.3685860">
        <ele>1073.1</ele>
        <time>2019-10-18T14:38:27Z</time>
      </trkpt>
      <trkpt lat="36.9935730" lon="-2.3686070">
        <ele>1072.3</ele>
        <time>2019-10-18T14:38:28Z</time>
      </trkpt>
      <trkpt lat="36.9936090" lon="-2.3686230">
        <ele>1071.7</ele>
        <time>2019-10-18T14:38:29Z</time>
      </trkpt>
      <trkpt lat="36.9936430" lon="-2.3686390">
        <ele>1071.1</ele>
        <time>2019-10-18T14:38:30Z</time>
      </trkpt>
      <trkpt lat="36.9936740" lon="-2.3686580">
        <ele>1070.6</ele>
        <time>2019-10-18T14:38:31Z</time>
      </trkpt>
      <trkpt lat="36.9937020" lon="-2.3686870">
        <ele>1070.0</ele>
        <time>2019-10-18T14:38:32Z</time>
      </trkpt>
      <trkpt lat="36.9937250" lon="-2.3687300">
        <ele>1069.7</ele>
        <time>2019-10-18T14:38:33Z</time>
      </trkpt>
      <trkpt lat="36.9937400" lon="-2.3687840">
        <ele>1069.3</ele>
        <time>2019-10-18T14:38:34Z</time>
      </trkpt>
      <trkpt lat="36.9937470" lon="-2.3688480">
        <ele>1068.9</ele>
        <time>2019-10-18T14:38:35Z</time>
      </trkpt>
      <trkpt lat="36.9937440" lon="-2.3689130">
        <ele>1068.5</ele>
        <time>2019-10-18T14:38:36Z</time>
      </trkpt>
      <trkpt lat="36.9937400" lon="-2.3689780">
        <ele>1068.1</ele>
        <time>2019-10-18T14:38:37Z</time>
      </trkpt>
      <trkpt lat="36.9937340" lon="-2.3690430">
        <ele>1067.8</ele>
        <time>2019-10-18T14:38:38Z</time>
      </trkpt>
      <trkpt lat="36.9937260" lon="-2.3691090">
        <ele>1067.5</ele>
        <time>2019-10-18T14:38:39Z</time>
      </trkpt>
      <trkpt lat="36.9937170" lon="-2.3691750">
        <ele>1067.1</ele>
        <time>2019-10-18T14:38:40Z</time>
      </trkpt>
      <trkpt lat="36.9937070" lon="-2.3692400">
        <ele>1066.7</ele>
        <time>2019-10-18T14:38:41Z</time>
      </trkpt>
      <trkpt lat="36.9936980" lon="-2.3693020">
        <ele>1066.3</ele>
        <time>2019-10-18T14:38:42Z</time>
      </trkpt>
      <trkpt lat="36.9936880" lon="-2.3693610">
        <ele>1065.9</ele>
        <time>2019-10-18T14:38:43Z</time>
      </trkpt>
      <trkpt lat="36.9936770" lon="-2.3694150">
        <ele>1065.5</ele>
        <time>2019-10-18T14:38:44Z</time>
      </trkpt>
      <trkpt lat="36.9936660" lon="-2.3694650">
        <ele>1065.2</ele>
        <time>2019-10-18T14:38:45Z</time>
      </trkpt>
      <trkpt lat="36.9936560" lon="-2.3695130">
        <ele>1064.8</ele>
        <time>2019-10-18T14:38:46Z</time>
      </trkpt>
      <trkpt lat="36.9936510" lon="-2.3695630">
        <ele>1064.4</ele>
        <time>2019-10-18T14:38:47Z</time>
      </trkpt>
      <trkpt lat="36.9936530" lon="-2.3696110">
        <ele>1064.0</ele>
        <time>2019-10-18T14:38:48Z</time>
      </trkpt>
      <trkpt lat="36.9936670" lon="-2.3696550">
        <ele>1063.5</ele>
        <time>2019-10-18T14:38:49Z</time>
      </trkpt>
      <trkpt lat="36.9936920" lon="-2.3696880">
        <ele>1063.1</ele>
        <time>2019-10-18T14:38:50Z</time>
      </trkpt>
      <trkpt lat="36.9937250" lon="-2.3697080">
        <ele>1062.8</ele>
        <time>2019-10-18T14:38:51Z</time>
      </trkpt>
      <trkpt lat="36.9937620" lon="-2.3697120">
        <ele>1062.4</ele>
        <time>2019-10-18T14:38:52Z</time>
      </trkpt>
      <trkpt lat="36.9937990" lon="-2.3697050">
        <ele>1062.1</ele>
        <time>2019-10-18T14:38:53Z</time>
      </trkpt>
      <trkpt lat="36.9938350" lon="-2.3696890">
        <ele>1061.8</ele>
        <time>2019-10-18T14:38:54Z</time>
      </trkpt>
      <trkpt lat="36.9938710" lon="-2.3696670">
        <ele>1061.5</ele>
        <time>2019-10-18T14:38:55Z</time>
      </trkpt>
      <trkpt lat="36.9939040" lon="-2.3696390">
        <ele>1061.2</ele>
        <time>2019-10-18T14:38:56Z</time>
      </trkpt>
      <trkpt lat="36.9939350" lon="-2.3696050">
        <ele>1060.9</ele>
        <time>2019-10-18T14:38:57Z</time>
      </trkpt>
      <trkpt lat="36.9939610" lon="-2.3695680">
        <ele>1060.6</ele>
        <time>2019-10-18T14:38:58Z</time>
      </trkpt>
      <trkpt lat="36.9939860" lon="-2.3695270">
        <ele>1060.3</ele>
        <time>2019-10-18T14:38:59Z</time>
      </trkpt>
      <trkpt lat="36.9940110" lon="-2.3694800">
        <ele>1060.0</ele>
        <time>2019-10-18T14:39:00Z</time>
      </trkpt>
      <trkpt lat="36.9940370" lon="-2.3694270">
        <ele>1059.6</ele>
        <time>2019-10-18T14:39:01Z</time>
      </trkpt>
      <trkpt lat="36.9940660" lon="-2.3693670">
        <ele>1059.0</ele>
        <time>2019-10-18T14:39:02Z</time>
      </trkpt>
      <trkpt lat="36.9940980" lon="-2.3693020">
        <ele>1058.3</ele>
        <time>2019-10-18T14:39:03Z</time>
      </trkpt>
      <trkpt lat="36.9941320" lon="-2.3692340">
        <ele>1057.8</ele>
        <time>2019-10-18T14:39:04Z</time>
      </trkpt>
      <trkpt lat="36.9941680" lon="-2.3691620">
        <ele>1057.3</ele>
        <time>2019-10-18T14:39:05Z</time>
      </trkpt>
      <trkpt lat="36.9942040" lon="-2.3690860">
        <ele>1056.7</ele>
        <time>2019-10-18T14:39:06Z</time>
      </trkpt>
      <trkpt lat="36.9942400" lon="-2.3690110">
        <ele>1056.2</ele>
        <time>2019-10-18T14:39:07Z</time>
      </trkpt>
      <trkpt lat="36.9942780" lon="-2.3689390">
        <ele>1055.7</ele>
        <time>2019-10-18T14:39:08Z</time>
      </trkpt>
      <trkpt lat="36.9943160" lon="-2.3688750">
        <ele>1055.3</ele>
        <time>2019-10-18T14:39:09Z</time>
      </trkpt>
      <trkpt lat="36.9943560" lon="-2.3688180">
        <ele>1054.9</ele>
        <time>2019-10-18T14:39:10Z</time>
      </trkpt>
      <trkpt lat="36.9943940" lon="-2.3687690">
        <ele>1054.5</ele>
        <time>2019-10-18T14:39:11Z</time>
      </trkpt>
      <trkpt lat="36.9944330" lon="-2.3687230">
        <ele>1054.1</ele>
        <time>2019-10-18T14:39:12Z</time>
      </trkpt>
      <trkpt lat="36.9944730" lon="-2.3686790">
        <ele>1053.6</ele>
        <time>2019-10-18T14:39:13Z</time>
      </trkpt>
      <trkpt lat="36.9945120" lon="-2.3686360">
        <ele>1053.1</ele>
        <time>2019-10-18T14:39:14Z</time>
      </trkpt>
      <trkpt lat="36.9945500" lon="-2.3685910">
        <ele>1052.5</ele>
        <time>2019-10-18T14:39:15Z</time>
      </trkpt>
      <trkpt lat="36.9945860" lon="-2.3685430">
        <ele>1051.8</ele>
        <time>2019-10-18T14:39:16Z</time>
      </trkpt>
      <trkpt lat="36.9946180" lon="-2.3684900">
        <ele>1051.1</ele>
        <time>2019-10-18T14:39:17Z</time>
      </trkpt>
      <trkpt lat="36.9946460" lon="-2.3684290">
        <ele>1050.5</ele>
        <time>2019-10-18T14:39:18Z</time>
      </trkpt>
      <trkpt lat="36.9946710" lon="-2.3683620">
        <ele>1049.9</ele>
        <time>2019-10-18T14:39:19Z</time>
      </trkpt>
      <trkpt lat="36.9946890" lon="-2.3682890">
        <ele>1049.3</ele>
        <time>2019-10-18T14:39:20Z</time>
      </trkpt>
      <trkpt lat="36.9947060" lon="-2.3682110">
        <ele>1048.7</ele>
        <time>2019-10-18T14:39:21Z</time>
      </trkpt>
      <trkpt lat="36.9947180" lon="-2.3681280">
        <ele>1047.9</ele>
        <time>2019-10-18T14:39:22Z</time>
      </trkpt>
      <trkpt lat="36.9947300" lon="-2.3680420">
        <ele>1047.1</ele>
        <time>2019-10-18T14:39:23Z</time>
      </trkpt>
      <trkpt lat="36.9947380" lon="-2.3679550">
        <ele>1046.3</ele>
        <time>2019-10-18T14:39:24Z</time>
      </trkpt>
      <trkpt lat="36.9947450" lon="-2.3678730">
        <ele>1045.6</ele>
        <time>2019-10-18T14:39:25Z</time>
      </trkpt>
      <trkpt lat="36.9947490" lon="-2.3677960">
        <ele>1045.0</ele>
        <time>2019-10-18T14:39:26Z</time>
      </trkpt>
      <trkpt lat="36.9947550" lon="-2.3677250">
        <ele>1044.5</ele>
        <time>2019-10-18T14:39:27Z</time>
      </trkpt>
      <trkpt lat="36.9947650" lon="-2.3676600">
        <ele>1043.9</ele>
        <time>2019-10-18T14:39:28Z</time>
      </trkpt>
      <trkpt lat="36.9947820" lon="-2.3675990">
        <ele>1043.4</ele>
        <time>2019-10-18T14:39:29Z</time>
      </trkpt>
      <trkpt lat="36.9948070" lon="-2.3675440">
        <ele>1042.8</ele>
        <time>2019-10-18T14:39:30Z</time>
      </trkpt>
      <trkpt lat="36.9948390" lon="-2.3674940">
        <ele>1042.2</ele>
        <time>2019-10-18T14:39:31Z</time>
      </trkpt>
      <trkpt lat="36.9948760" lon="-2.3674530">
        <ele>1041.7</ele>
        <time>2019-10-18T14:39:32Z</time>
      </trkpt>
      <trkpt lat="36.9949170" lon="-2.3674210">
        <ele>1041.1</ele>
        <time>2019-10-18T14:39:33Z</time>
      </trkpt>
      <trkpt lat="36.9949620" lon="-2.3673940">
        <ele>1040.7</ele>
        <time>2019-10-18T14:39:34Z</time>
      </trkpt>
      <trkpt lat="36.9950080" lon="-2.3673660">
        <ele>1040.3</ele>
        <time>2019-10-18T14:39:35Z</time>
      </trkpt>
      <trkpt lat="36.9950540" lon="-2.3673360">
        <ele>1039.9</ele>
        <time>2019-10-18T14:39:36Z</time>
      </trkpt>
      <trkpt lat="36.9950970" lon="-2.3673090">
        <ele>1039.5</ele>
        <time>2019-10-18T14:39:37Z</time>
      </trkpt>
      <trkpt lat="36.9951340" lon="-2.3672970">
        <ele>1039.0</ele>
        <time>2019-10-18T14:39:38Z</time>
      </trkpt>
      <trkpt lat="36.9951620" lon="-2.3673020">
        <ele>1038.7</ele>
        <time>2019-10-18T14:39:39Z</time>
      </trkpt>
      <trkpt lat="36.9951830" lon="-2.3673230">
        <ele>1038.3</ele>
        <time>2019-10-18T14:39:40Z</time>
      </trkpt>
      <trkpt lat="36.9952010" lon="-2.3673540">
        <ele>1037.9</ele>
        <time>2019-10-18T14:39:41Z</time>
      </trkpt>
      <trkpt lat="36.9952140" lon="-2.3673910">
        <ele>1037.4</ele>
        <time>2019-10-18T14:39:42Z</time>
      </trkpt>
      <trkpt lat="36.9952160" lon="-2.3674310">
        <ele>1036.9</ele>
        <time>2019-10-18T14:39:43Z</time>
      </trkpt>
      <trkpt lat="36.9952070" lon="-2.3674710">
        <ele>1036.5</ele>
        <time>2019-10-18T14:39:44Z</time>
      </trkpt>
      <trkpt lat="36.9951880" lon="-2.3675070">
        <ele>1036.1</ele>
        <time>2019-10-18T14:39:45Z</time>
      </trkpt>
      <trkpt lat="36.9951650" lon="-2.3675370">
        <ele>1035.6</ele>
        <time>2019-10-18T14:39:46Z</time>
      </trkpt>
      <trkpt lat="36.9951410" lon="-2.3675630">
        <ele>1035.0</ele>
        <time>2019-10-18T14:39:47Z</time>
      </trkpt>
      <trkpt lat="36.9951210" lon="-2.3675910">
        <ele>1034.5</ele>
        <time>2019-10-18T14:39:48Z</time>
      </trkpt>
      <trkpt lat="36.9951110" lon="-2.3676230">
        <ele>1034.1</ele>
        <time>2019-10-18T14:39:49Z</time>
      </trkpt>
      <trkpt lat="36.9951160" lon="-2.3676570">
        <ele>1033.7</ele>
        <time>2019-10-18T14:39:50Z</time>
      </trkpt>
      <trkpt lat="36.9951340" lon="-2.3676860">
        <ele>1033.3</ele>
        <time>2019-10-18T14:39:51Z</time>
      </trkpt>
      <trkpt lat="36.9951590" lon="-2.3676980">
        <ele>1033.0</ele>
        <time>2019-10-18T14:39:52Z</time>
      </trkpt>
      <trkpt lat="36.9951870" lon="-2.3676910">
        <ele>1032.6</ele>
        <time>2019-10-18T14:39:53Z</time>
      </trkpt>
      <trkpt lat="36.9952180" lon="-2.3676740">
        <ele>1032.2</ele>
        <time>2019-10-18T14:39:54Z</time>
      </trkpt>
      <trkpt lat="36.9952530" lon="-2.3676570">
        <ele>1031.8</ele>
        <time>2019-10-18T14:39:55Z</time>
      </trkpt>
      <trkpt lat="36.9952910" lon="-2.3676440">
        <ele>1031.3</ele>
        <time>2019-10-18T14:39:56Z</time>
      </trkpt>
      <trkpt lat="36.9953300" lon="-2.3676300">
        <ele>1030.8</ele>
        <time>2019-10-18T14:39:57Z</time>
      </trkpt>
      <trkpt lat="36.9953670" lon="-2.3676110">
        <ele>1030.4</ele>
        <time>2019-10-18T14:39:58Z</time>
      </trkpt>
      <trkpt lat="36.9954020" lon="-2.3675870">
        <ele>1030.0</ele>
        <time>2019-10-18T14:39:59Z</time>
      </trkpt>
      <trkpt lat="36.9954360" lon="-2.3675600">
        <ele>1029.7</ele>
        <time>2019-10-18T14:40:00Z</time>
      </trkpt>
      <trkpt lat="36.9954690" lon="-2.3675310">
        <ele>1029.3</ele>
        <time>2019-10-18T14:40:01Z</time>
      </trkpt>
      <trkpt lat="36.9955000" lon="-2.3675000">
        <ele>1029.0</ele>
        <time>2019-10-18T14:40:02Z</time>
      </trkpt>
      <trkpt lat="36.9955300" lon="-2.3674680">
        <ele>1028.7</ele>
        <time>2019-10-18T14:40:03Z</time>
      </trkpt>
      <trkpt lat="36.9955590" lon="-2.3674320">
        <ele>1028.4</ele>
        <time>2019-10-18T14:40:04Z</time>
      </trkpt>
      <trkpt lat="36.9955840" lon="-2.3673950">
        <ele>1028.2</ele>
        <time>2019-10-18T14:40:05Z</time>
      </trkpt>
      <trkpt lat="36.9956050" lon="-2.3673590">
        <ele>1028.0</ele>
        <time>2019-10-18T14:40:06Z</time>
      </trkpt>
      <trkpt lat="36.9956220" lon="-2.3673230">
        <ele>1027.8</ele>
        <time>2019-10-18T14:40:07Z</time>
      </trkpt>
      <trkpt lat="36.9956350" lon="-2.3672860">
        <ele>1027.6</ele>
        <time>2019-10-18T14:40:08Z</time>
      </trkpt>
      <trkpt lat="36.9956440" lon="-2.3672460">
        <ele>1027.5</ele>
        <time>2019-10-18T14:40:09Z</time>
      </trkpt>
      <trkpt lat="36.9956500" lon="-2.3672020">
        <ele>1027.3</ele>
        <time>2019-10-18T14:40:10Z</time>
      </trkpt>
      <trkpt lat="36.9956540" lon="-2.3671530">
        <ele>1027.1</ele>
        <time>2019-10-18T14:40:11Z</time>
      </trkpt>
      <trkpt lat="36.9956550" lon="-2.3671000">
        <ele>1026.9</ele>
        <time>2019-10-18T14:40:12Z</time>
      </trkpt>
      <trkpt lat="36.9956550" lon="-2.3670460">
        <ele>1026.6</ele>
        <time>2019-10-18T14:40:13Z</time>
      </trkpt>
      <trkpt lat="36.9956580" lon="-2.3669920">
        <ele>1026.4</ele>
        <time>2019-10-18T14:40:14Z</time>
      </trkpt>
      <trkpt lat="36.9956660" lon="-2.3669380">
        <ele>1026.2</ele>
        <time>2019-10-18T14:40:15Z</time>
      </trkpt>
      <trkpt lat="36.9956810" lon="-2.3668870">
        <ele>1025.8</ele>
        <time>2019-10-18T14:40:16Z</time>
      </trkpt>
      <trkpt lat="36.9957050" lon="-2.3668400">
        <ele>1025.5</ele>
        <time>2019-10-18T14:40:17Z</time>
      </trkpt>
      <trkpt lat="36.9957380" lon="-2.3667990">
        <ele>1025.2</ele>
        <time>2019-10-18T14:40:18Z</time>
      </trkpt>
      <trkpt lat="36.9957790" lon="-2.3667670">
        <ele>1024.8</ele>
        <time>2019-10-18T14:40:19Z</time>
      </trkpt>
      <trkpt lat="36.9958240" lon="-2.3667450">
        <ele>1024.5</ele>
        <time>2019-10-18T14:40:20Z</time>
      </trkpt>
      <trkpt lat="36.9958720" lon="-2.3667330">
        <ele>1024.2</ele>
        <time>2019-10-18T14:40:21Z</time>
      </trkpt>
      <trkpt lat="36.9959160" lon="-2.3667300">
        <ele>1023.8</ele>
        <time>2019-10-18T14:40:22Z</time>
      </trkpt>
      <trkpt lat="36.9959570" lon="-2.3667380">
        <ele>1023.5</ele>
        <time>2019-10-18T14:40:23Z</time>
      </trkpt>
      <trkpt lat="36.9959930" lon="-2.3667570">
        <ele>1023.2</ele>
        <time>2019-10-18T14:40:24Z</time>
      </trkpt>
      <trkpt lat="36.9960260" lon="-2.3667920">
        <ele>1022.9</ele>
        <time>2019-10-18T14:40:25Z</time>
      </trkpt>
      <trkpt lat="36.9960570" lon="-2.3668320">
        <ele>1022.6</ele>
        <time>2019-10-18T14:40:26Z</time>
      </trkpt>
      <trkpt lat="36.9960850" lon="-2.3668810">
        <ele>1022.2</ele>
        <time>2019-10-18T14:40:27Z</time>
      </trkpt>
      <trkpt lat="36.9961090" lon="-2.3669310">
        <ele>1021.9</ele>
        <time>2019-10-18T14:40:28Z</time>
      </trkpt>
      <trkpt lat="36.9961270" lon="-2.3669870">
        <ele>1021.5</ele>
        <time>2019-10-18T14:40:29Z</time>
      </trkpt>
      <trkpt lat="36.9961400" lon="-2.3670470">
        <ele>1021.1</ele>
        <time>2019-10-18T14:40:30Z</time>
      </trkpt>
      <trkpt lat="36.9961450" lon="-2.3671140">
        <ele>1020.7</ele>
        <time>2019-10-18T14:40:31Z</time>
      </trkpt>
      <trkpt lat="36.9961440" lon="-2.3671840">
        <ele>1020.3</ele>
        <time>2019-10-18T14:40:32Z</time>
      </trkpt>
      <trkpt lat="36.9961400" lon="-2.3672540">
        <ele>1019.9</ele>
        <time>2019-10-18T14:40:33Z</time>
      </trkpt>
      <trkpt lat="36.9961390" lon="-2.3673200">
        <ele>1019.5</ele>
        <time>2019-10-18T14:40:34Z</time>
      </trkpt>
      <trkpt lat="36.9961380" lon="-2.3673850">
        <ele>1019.0</ele>
        <time>2019-10-18T14:40:35Z</time>
      </trkpt>
      <trkpt lat="36.9961350" lon="-2.3674530">
        <ele>1018.4</ele>
        <time>2019-10-18T14:40:36Z</time>
      </trkpt>
      <trkpt lat="36.9961300" lon="-2.3675220">
        <ele>1018.0</ele>
        <time>2019-10-18T14:40:37Z</time>
      </trkpt>
      <trkpt lat="36.9961230" lon="-2.3675930">
        <ele>1017.6</ele>
        <time>2019-10-18T14:40:38Z</time>
      </trkpt>
      <trkpt lat="36.9961130" lon="-2.3676650">
        <ele>1017.1</ele>
        <time>2019-10-18T14:40:39Z</time>
      </trkpt>
      <trkpt lat="36.9961000" lon="-2.3677350">
        <ele>1016.7</ele>
        <time>2019-10-18T14:40:40Z</time>
      </trkpt>
      <trkpt lat="36.9960850" lon="-2.3678040">
        <ele>1016.2</ele>
        <time>2019-10-18T14:40:41Z</time>
      </trkpt>
      <trkpt lat="36.9960700" lon="-2.3678680">
        <ele>1015.8</ele>
        <time>2019-10-18T14:40:42Z</time>
      </trkpt>
      <trkpt lat="36.9960540" lon="-2.3679280">
        <ele>1015.4</ele>
        <time>2019-10-18T14:40:43Z</time>
      </trkpt>
      <trkpt lat="36.9960390" lon="-2.3679840">
        <ele>1015.0</ele>
        <time>2019-10-18T14:40:44Z</time>
      </trkpt>
      <trkpt lat="36.9960250" lon="-2.3680390">
        <ele>1014.6</ele>
        <time>2019-10-18T14:40:45Z</time>
      </trkpt>
      <trkpt lat="36.9960150" lon="-2.3680940">
        <ele>1014.2</ele>
        <time>2019-10-18T14:40:46Z</time>
      </trkpt>
      <trkpt lat="36.9960150" lon="-2.3681510">
        <ele>1013.8</ele>
        <time>2019-10-18T14:40:47Z</time>
      </trkpt>
      <trkpt lat="36.9960270" lon="-2.3682060">
        <ele>1013.1</ele>
        <time>2019-10-18T14:40:48Z</time>
      </trkpt>
      <trkpt lat="36.9960550" lon="-2.3682460">
        <ele>1012.4</ele>
        <time>2019-10-18T14:40:49Z</time>
      </trkpt>
      <trkpt lat="36.9960960" lon="-2.3682710">
        <ele>1011.6</ele>
        <time>2019-10-18T14:40:50Z</time>
      </trkpt>
      <trkpt lat="36.9961450" lon="-2.3682830">
        <ele>1011.0</ele>
        <time>2019-10-18T14:40:51Z</time>
      </trkpt>
      <trkpt lat="36.9961960" lon="-2.3682970">
        <ele>1010.4</ele>
        <time>2019-10-18T14:40:52Z</time>
      </trkpt>
      <trkpt lat="36.9962470" lon="-2.3683130">
        <ele>1009.9</ele>
        <time>2019-10-18T14:40:53Z</time>
      </trkpt>
      <trkpt lat="36.9962970" lon="-2.3683310">
        <ele>1009.0</ele>
        <time>2019-10-18T14:40:54Z</time>
      </trkpt>
      <trkpt lat="36.9963440" lon="-2.3683520">
        <ele>1008.3</ele>
        <time>2019-10-18T14:40:55Z</time>
      </trkpt>
      <trkpt lat="36.9963880" lon="-2.3683790">
        <ele>1007.7</ele>
        <time>2019-10-18T14:40:56Z</time>
      </trkpt>
      <trkpt lat="36.9964270" lon="-2.3684130">
        <ele>1007.1</ele>
        <time>2019-10-18T14:40:57Z</time>
      </trkpt>
      <trkpt lat="36.9964600" lon="-2.3684540">
        <ele>1006.5</ele>
        <time>2019-10-18T14:40:58Z</time>
      </trkpt>
      <trkpt lat="36.9964890" lon="-2.3685000">
        <ele>1006.2</ele>
        <time>2019-10-18T14:40:59Z</time>
      </trkpt>
      <trkpt lat="36.9965140" lon="-2.3685500">
        <ele>1005.8</ele>
        <time>2019-10-18T14:41:00Z</time>
      </trkpt>
      <trkpt lat="36.9965370" lon="-2.3686050">
        <ele>1005.4</ele>
        <time>2019-10-18T14:41:01Z</time>
      </trkpt>
      <trkpt lat="36.9965590" lon="-2.3686600">
        <ele>1005.0</ele>
        <time>2019-10-18T14:41:02Z</time>
      </trkpt>
      <trkpt lat="36.9965790" lon="-2.3687180">
        <ele>1004.7</ele>
        <time>2019-10-18T14:41:03Z</time>
      </trkpt>
      <trkpt lat="36.9965940" lon="-2.3687750">
        <ele>1004.3</ele>
        <time>2019-10-18T14:41:04Z</time>
      </trkpt>
      <trkpt lat="36.9966010" lon="-2.3688350">
        <ele>1003.9</ele>
        <time>2019-10-18T14:41:05Z</time>
      </trkpt>
      <trkpt lat="36.9966030" lon="-2.3688960">
        <ele>1003.4</ele>
        <time>2019-10-18T14:41:06Z</time>
      </trkpt>
      <trkpt lat="36.9965980" lon="-2.3689600">
        <ele>1002.9</ele>
        <time>2019-10-18T14:41:07Z</time>
      </trkpt>
      <trkpt lat="36.9965900" lon="-2.3690230">
        <ele>1002.4</ele>
        <time>2019-10-18T14:41:08Z</time>
      </trkpt>
      <trkpt lat="36.9965820" lon="-2.3690880">
        <ele>1002.1</ele>
        <time>2019-10-18T14:41:09Z</time>
      </trkpt>
      <trkpt lat="36.9965740" lon="-2.3691540">
        <ele>1001.8</ele>
        <time>2019-10-18T14:41:10Z</time>
      </trkpt>
      <trkpt lat="36.9965660" lon="-2.3692220">
        <ele>1001.5</ele>
        <time>2019-10-18T14:41:11Z</time>
      </trkpt>
      <trkpt lat="36.9965560" lon="-2.3692890">
        <ele>1001.1</ele>
        <time>2019-10-18T14:41:12Z</time>
      </trkpt>
      <trkpt lat="36.9965430" lon="-2.3693540">
        <ele>1000.8</ele>
        <time>2019-10-18T14:41:13Z</time>
      </trkpt>
      <trkpt lat="36.9965270" lon="-2.3694150">
        <ele>1000.5</ele>
        <time>2019-10-18T14:41:14Z</time>
      </trkpt>
      <trkpt lat="36.9965060" lon="-2.3694710">
        <ele>1000.2</ele>
        <time>2019-10-18T14:41:15Z</time>
      </trkpt>
      <trkpt lat="36.9964780" lon="-2.3695200">
        <ele>999.9</ele>
        <time>2019-10-18T14:41:16Z</time>
      </trkpt>
      <trkpt lat="36.9964440" lon="-2.3695590">
        <ele>999.5</ele>
        <time>2019-10-18T14:41:17Z</time>
      </trkpt>
      <trkpt lat="36.9964040" lon="-2.3695920">
        <ele>999.1</ele>
        <time>2019-10-18T14:41:18Z</time>
      </trkpt>
      <trkpt lat="36.9963620" lon="-2.3696230">
        <ele>998.6</ele>
        <time>2019-10-18T14:41:19Z</time>
      </trkpt>
      <trkpt lat="36.9963210" lon="-2.3696580">
        <ele>998.3</ele>
        <time>2019-10-18T14:41:20Z</time>
      </trkpt>
      <trkpt lat="36.9962840" lon="-2.3697010">
        <ele>998.0</ele>
        <time>2019-10-18T14:41:21Z</time>
      </trkpt>
      <trkpt lat="36.9962510" lon="-2.3697520">
        <ele>997.6</ele>
        <time>2019-10-18T14:41:22Z</time>
      </trkpt>
      <trkpt lat="36.9962230" lon="-2.3698070">
        <ele>997.1</ele>
        <time>2019-10-18T14:41:23Z</time>
      </trkpt>
      <trkpt lat="36.9962000" lon="-2.3698660">
        <ele>996.5</ele>
        <time>2019-10-18T14:41:24Z</time>
      </trkpt>
      <trkpt lat="36.9961820" lon="-2.3699300">
        <ele>995.9</ele>
        <time>2019-10-18T14:41:25Z</time>
      </trkpt>
      <trkpt lat="36.9961690" lon="-2.3699970">
        <ele>995.4</ele>
        <time>2019-10-18T14:41:26Z</time>
      </trkpt>
      <trkpt lat="36.9961610" lon="-2.3700690">
        <ele>995.0</ele>
        <time>2019-10-18T14:41:27Z</time>
      </trkpt>
      <trkpt lat="36.9961530" lon="-2.3701410">
        <ele>994.6</ele>
        <time>2019-10-18T14:41:28Z</time>
      </trkpt>
      <trkpt lat="36.9961440" lon="-2.3702150">
        <ele>994.1</ele>
        <time>2019-10-18T14:41:29Z</time>
      </trkpt>
      <trkpt lat="36.9961280" lon="-2.3702890">
        <ele>993.7</ele>
        <time>2019-10-18T14:41:30Z</time>
      </trkpt>
      <trkpt lat="36.9961040" lon="-2.3703600">
        <ele>993.3</ele>
        <time>2019-10-18T14:41:31Z</time>
      </trkpt>
      <trkpt lat="36.9960720" lon="-2.3704260">
        <ele>992.9</ele>
        <time>2019-10-18T14:41:32Z</time>
      </trkpt>
      <trkpt lat="36.9960310" lon="-2.3704880">
        <ele>992.4</ele>
        <time>2019-10-18T14:41:33Z</time>
      </trkpt>
      <trkpt lat="36.9959790" lon="-2.3705450">
        <ele>992.0</ele>
        <time>2019-10-18T14:41:34Z</time>
      </trkpt>
      <trkpt lat="36.9959160" lon="-2.3705940">
        <ele>991.5</ele>
        <time>2019-10-18T14:41:35Z</time>
      </trkpt>
      <trkpt lat="36.9958470" lon="-2.3706330">
        <ele>991.0</ele>
        <time>2019-10-18T14:41:36Z</time>
      </trkpt>
      <trkpt lat="36.9957780" lon="-2.3706620">
        <ele>990.5</ele>
        <time>2019-10-18T14:41:37Z</time>
      </trkpt>
      <trkpt lat="36.9957140" lon="-2.3706880">
        <ele>990.0</ele>
        <time>2019-10-18T14:41:38Z</time>
      </trkpt>
      <trkpt lat="36.9956600" lon="-2.3707140">
        <ele>989.6</ele>
        <time>2019-10-18T14:41:39Z</time>
      </trkpt>
      <trkpt lat="36.9956160" lon="-2.3707440">
        <ele>989.2</ele>
        <time>2019-10-18T14:41:40Z</time>
      </trkpt>
      <trkpt lat="36.9955840" lon="-2.3707780">
        <ele>988.7</ele>
        <time>2019-10-18T14:41:41Z</time>
      </trkpt>
      <trkpt lat="36.9955670" lon="-2.3708310">
        <ele>988.2</ele>
        <time>2019-10-18T14:41:42Z</time>
      </trkpt>
      <trkpt lat="36.9955620" lon="-2.3708990">
        <ele>987.4</ele>
        <time>2019-10-18T14:41:43Z</time>
      </trkpt>
      <trkpt lat="36.9955650" lon="-2.3709790">
        <ele>986.6</ele>
        <time>2019-10-18T14:41:44Z</time>
      </trkpt>
      <trkpt lat="36.9955660" lon="-2.3710530">
        <ele>986.0</ele>
        <time>2019-10-18T14:41:45Z</time>
      </trkpt>
      <trkpt lat="36.9955550" lon="-2.3711300">
        <ele>985.1</ele>
        <time>2019-10-18T14:41:46Z</time>
      </trkpt>
      <trkpt lat="36.9955290" lon="-2.3712090">
        <ele>984.2</ele>
        <time>2019-10-18T14:41:47Z</time>
      </trkpt>
      <trkpt lat="36.9954920" lon="-2.3712920">
        <ele>983.5</ele>
        <time>2019-10-18T14:41:48Z</time>
      </trkpt>
      <trkpt lat="36.9954510" lon="-2.3713740">
        <ele>983.0</ele>
        <time>2019-10-18T14:41:49Z</time>
      </trkpt>
      <trkpt lat="36.9954090" lon="-2.3714550">
        <ele>982.5</ele>
        <time>2019-10-18T14:41:50Z</time>
      </trkpt>
      <trkpt lat="36.9953650" lon="-2.3715360">
        <ele>982.1</ele>
        <time>2019-10-18T14:41:51Z</time>
      </trkpt>
      <trkpt lat="36.9953190" lon="-2.3716200">
        <ele>981.7</ele>
        <time>2019-10-18T14:41:52Z</time>
      </trkpt>
      <trkpt lat="36.9952710" lon="-2.3717100">
        <ele>981.3</ele>
        <time>2019-10-18T14:41:53Z</time>
      </trkpt>
      <trkpt lat="36.9952220" lon="-2.3718060">
        <ele>980.8</ele>
        <time>2019-10-18T14:41:54Z</time>
      </trkpt>
      <trkpt lat="36.9951750" lon="-2.3719070">
        <ele>980.3</ele>
        <time>2019-10-18T14:41:55Z</time>
      </trkpt>
      <trkpt lat="36.9951290" lon="-2.3720080">
        <ele>979.7</ele>
        <time>2019-10-18T14:41:56Z</time>
      </trkpt>
      <trkpt lat="36.9950870" lon="-2.3721040">
        <ele>979.1</ele>
        <time>2019-10-18T14:41:57Z</time>
      </trkpt>
      <trkpt lat="36.9950530" lon="-2.3721910">
        <ele>978.5</ele>
        <time>2019-10-18T14:41:58Z</time>
      </trkpt>
      <trkpt lat="36.9950260" lon="-2.3722700">
        <ele>977.8</ele>
        <time>2019-10-18T14:41:59Z</time>
      </trkpt>
      <trkpt lat="36.9950070" lon="-2.3723420">
        <ele>977.0</ele>
        <time>2019-10-18T14:42:00Z</time>
      </trkpt>
      <trkpt lat="36.9949950" lon="-2.3724070">
        <ele>976.3</ele>
        <time>2019-10-18T14:42:01Z</time>
      </trkpt>
      <trkpt lat="36.9949890" lon="-2.3724680">
        <ele>975.6</ele>
        <time>2019-10-18T14:42:02Z</time>
      </trkpt>
      <trkpt lat="36.9949910" lon="-2.3725270">
        <ele>974.8</ele>
        <time>2019-10-18T14:42:03Z</time>
      </trkpt>
      <trkpt lat="36.9950030" lon="-2.3725830">
        <ele>974.0</ele>
        <time>2019-10-18T14:42:04Z</time>
      </trkpt>
      <trkpt lat="36.9950280" lon="-2.3726330">
        <ele>973.2</ele>
        <time>2019-10-18T14:42:05Z</time>
      </trkpt>
      <trkpt lat="36.9950650" lon="-2.3726720">
        <ele>972.3</ele>
        <time>2019-10-18T14:42:06Z</time>
      </trkpt>
      <trkpt lat="36.9951100" lon="-2.3726940">
        <ele>971.6</ele>
        <time>2019-10-18T14:42:07Z</time>
      </trkpt>
      <trkpt lat="36.9951620" lon="-2.3726990">
        <ele>970.9</ele>
        <time>2019-10-18T14:42:08Z</time>
      </trkpt>
      <trkpt lat="36.9952230" lon="-2.3726910">
        <ele>970.3</ele>
        <time>2019-10-18T14:42:09Z</time>
      </trkpt>
      <trkpt lat="36.9952920" lon="-2.3726780">
        <ele>969.7</ele>
        <time>2019-10-18T14:42:10Z</time>
      </trkpt>
      <trkpt lat="36.9953670" lon="-2.3726630">
        <ele>969.1</ele>
        <time>2019-10-18T14:42:11Z</time>
      </trkpt>
      <trkpt lat="36.9954470" lon="-2.3726500">
        <ele>968.3</ele>
        <time>2019-10-18T14:42:12Z</time>
      </trkpt>
      <trkpt lat="36.9955310" lon="-2.3726390">
        <ele>967.6</ele>
        <time>2019-10-18T14:42:13Z</time>
      </trkpt>
      <trkpt lat="36.9956150" lon="-2.3726270">
        <ele>967.0</ele>
        <time>2019-10-18T14:42:14Z</time>
      </trkpt>
      <trkpt lat="36.9956960" lon="-2.3726130">
        <ele>966.5</ele>
        <time>2019-10-18T14:42:15Z</time>
      </trkpt>
      <trkpt lat="36.9957700" lon="-2.3725950">
        <ele>966.0</ele>
        <time>2019-10-18T14:42:16Z</time>
      </trkpt>
      <trkpt lat="36.9958360" lon="-2.3725760">
        <ele>965.5</ele>
        <time>2019-10-18T14:42:17Z</time>
      </trkpt>
      <trkpt lat="36.9958970" lon="-2.3725550">
        <ele>965.1</ele>
        <time>2019-10-18T14:42:18Z</time>
      </trkpt>
      <trkpt lat="36.9959540" lon="-2.3725370">
        <ele>964.6</ele>
        <time>2019-10-18T14:42:19Z</time>
      </trkpt>
      <trkpt lat="36.9960090" lon="-2.3725260">
        <ele>963.9</ele>
        <time>2019-10-18T14:42:20Z</time>
      </trkpt>
      <trkpt lat="36.9960630" lon="-2.3725240">
        <ele>963.2</ele>
        <time>2019-10-18T14:42:21Z</time>
      </trkpt>
      <trkpt lat="36.9961140" lon="-2.3725320">
        <ele>962.6</ele>
        <time>2019-10-18T14:42:22Z</time>
      </trkpt>
      <trkpt lat="36.9961630" lon="-2.3725490">
        <ele>961.9</ele>
        <time>2019-10-18T14:42:23Z</time>
      </trkpt>
      <trkpt lat="36.9962120" lon="-2.3725710">
        <ele>961.2</ele>
        <time>2019-10-18T14:42:24Z</time>
      </trkpt>
      <trkpt lat="36.9962610" lon="-2.3726020">
        <ele>960.5</ele>
        <time>2019-10-18T14:42:25Z</time>
      </trkpt>
      <trkpt lat="36.9963110" lon="-2.3726440">
        <ele>959.7</ele>
        <time>2019-10-18T14:42:26Z</time>
      </trkpt>
      <trkpt lat="36.9963630" lon="-2.3726970">
        <ele>959.0</ele>
        <time>2019-10-18T14:42:27Z</time>
      </trkpt>
      <trkpt lat="36.9964130" lon="-2.3727550">
        <ele>958.4</ele>
        <time>2019-10-18T14:42:28Z</time>
      </trkpt>
      <trkpt lat="36.9964580" lon="-2.3728080">
        <ele>957.9</ele>
        <time>2019-10-18T14:42:29Z</time>
      </trkpt>
      <trkpt lat="36.9964950" lon="-2.3728560">
        <ele>957.4</ele>
        <time>2019-10-18T14:42:30Z</time>
      </trkpt>
      <trkpt lat="36.9965250" lon="-2.3728950">
        <ele>957.0</ele>
        <time>2019-10-18T14:42:31Z</time>
      </trkpt>
      <trkpt lat="36.9965480" lon="-2.3729200">
        <ele>956.8</ele>
        <time>2019-10-18T14:42:32Z</time>
      </trkpt>
      <trkpt lat="36.9965700" lon="-2.3729350">
        <ele>956.5</ele>
        <time>2019-10-18T14:42:33Z</time>
      </trkpt>
      <trkpt lat="36.9965910" lon="-2.3729420">
        <ele>956.3</ele>
        <time>2019-10-18T14:42:34Z</time>
      </trkpt>
      <trkpt lat="36.9966120" lon="-2.3729460">
        <ele>956.1</ele>
        <time>2019-10-18T14:42:35Z</time>
      </trkpt>
      <trkpt lat="36.9966290" lon="-2.3729490">
        <ele>955.9</ele>
        <time>2019-10-18T14:42:36Z</time>
      </trkpt>
      <trkpt lat="36.9966420" lon="-2.3729510">
        <ele>955.7</ele>
        <time>2019-10-18T14:42:37Z</time>
      </trkpt>
      <trkpt lat="36.9966470" lon="-2.3729520">
        <ele>955.7</ele>
        <time>2019-10-18T14:42:38Z</time>
      </trkpt>
      <trkpt lat="36.9966490" lon="-2.3729530">
        <ele>955.7</ele>
        <time>2019-10-18T14:42:39Z</time>
      </trkpt>
      <trkpt lat="36.9966480" lon="-2.3729550">
        <ele>955.6</ele>
        <time>2019-10-18T14:42:40Z</time>
      </trkpt>
      <trkpt lat="36.9966480" lon="-2.3729550">
        <ele>955.6</ele>
        <time>2019-10-18T14:42:41Z</time>
      </trkpt>
      <trkpt lat="36.9966480" lon="-2.3729550">
        <ele>955.6</ele>
        <time>2019-10-18T14:42:42Z</time>
      </trkpt>
      <trkpt lat="36.9966480" lon="-2.3729550">
        <ele>955.6</ele>
        <time>2019-10-18T14:42:43Z</time>
      </trkpt>
      <trkpt lat="36.9966480" lon="-2.3729550">
        <ele>955.6</ele>
        <time>2019-10-18T14:42:44Z</time>
      </trkpt>
      <trkpt lat="36.9966480" lon="-2.3729550">
        <ele>955.6</ele>
        <time>2019-10-18T14:42:45Z</time>
      </trkpt>
      <trkpt lat="36.9966500" lon="-2.3729560">
        <ele>955.6</ele>
        <time>2019-10-18T14:42:46Z</time>
      </trkpt>
      <trkpt lat="36.9966510" lon="-2.3729570">
        <ele>955.6</ele>
        <time>2019-10-18T14:42:47Z</time>
      </trkpt>
      <trkpt lat="36.9966510" lon="-2.3729570">
        <ele>955.6</ele>
        <time>2019-10-18T14:42:48Z</time>
      </trkpt>
      <trkpt lat="36.9966520" lon="-2.3729570">
        <ele>955.6</ele>
        <time>2019-10-18T14:42:49Z</time>
      </trkpt>
      <trkpt lat="36.9966520" lon="-2.3729570">
        <ele>955.6</ele>
        <time>2019-10-18T14:42:50Z</time>
      </trkpt>
      <trkpt lat="36.9966530" lon="-2.3729570">
        <ele>955.6</ele>
        <time>2019-10-18T14:42:51Z</time>
      </trkpt>
      <trkpt lat="36.9966530" lon="-2.3729560">
        <ele>955.6</ele>
        <time>2019-10-18T14:42:52Z</time>
      </trkpt>
      <trkpt lat="36.9966530" lon="-2.3729560">
        <ele>955.6</ele>
        <time>2019-10-18T14:42:53Z</time>
      </trkpt>
      <trkpt lat="36.9966530" lon="-2.3729560">
        <ele>955.6</ele>
        <time>2019-10-18T14:42:54Z</time>
      </trkpt>
      <trkpt lat="36.9966530" lon="-2.3729560">
        <ele>955.6</ele>
        <time>2019-10-18T14:42:55Z</time>
      </trkpt>
      <trkpt lat="36.9966530" lon="-2.3729550">
        <ele>955.5</ele>
        <time>2019-10-18T14:42:56Z</time>
      </trkpt>
      <trkpt lat="36.9966530" lon="-2.3729550">
        <ele>955.5</ele>
        <time>2019-10-18T14:42:57Z</time>
      </trkpt>
      <trkpt lat="36.9966530" lon="-2.3729550">
        <ele>955.5</ele>
        <time>2019-10-18T14:42:58Z</time>
      </trkpt>
      <trkpt lat="36.9966530" lon="-2.3729550">
        <ele>955.5</ele>
        <time>2019-10-18T14:42:59Z</time>
      </trkpt>
      <trkpt lat="36.9966530" lon="-2.3729540">
        <ele>955.5</ele>
        <time>2019-10-18T14:43:00Z</time>
      </trkpt>
      <trkpt lat="36.9966520" lon="-2.3729540">
        <ele>955.5</ele>
        <time>2019-10-18T14:43:01Z</time>
      </trkpt>
      <trkpt lat="36.9966520" lon="-2.3729550">
        <ele>955.5</ele>
        <time>2019-10-18T14:43:02Z</time>
      </trkpt>
      <trkpt lat="36.9966520" lon="-2.3729550">
        <ele>955.5</ele>
        <time>2019-10-18T14:43:03Z</time>
      </trkpt>
      <trkpt lat="36.9966510" lon="-2.3729550">
        <ele>955.5</ele>
        <time>2019-10-18T14:43:04Z</time>
      </trkpt>
      <trkpt lat="36.9966510" lon="-2.3729550">
        <ele>955.5</ele>
        <time>2019-10-18T14:43:05Z</time>
      </trkpt>
      <trkpt lat="36.9966510" lon="-2.3729550">
        <ele>955.5</ele>
        <time>2019-10-18T14:43:06Z</time>
      </trkpt>
      <trkpt lat="36.9966500" lon="-2.3729550">
        <ele>955.5</ele>
        <time>2019-10-18T14:43:07Z</time>
      </trkpt>
      <trkpt lat="36.9966510" lon="-2.3729550">
        <ele>955.5</ele>
        <time>2019-10-18T14:43:08Z</time>
      </trkpt>
      <trkpt lat="36.9966510" lon="-2.3729550">
        <ele>955.5</ele>
        <time>2019-10-18T14:43:09Z</time>
      </trkpt>
      <trkpt lat="36.9966520" lon="-2.3729560">
        <ele>955.5</ele>
        <time>2019-10-18T14:43:10Z</time>
      </trkpt>
      <trkpt lat="36.9966530" lon="-2.3729570">
        <ele>955.5</ele>
        <time>2019-10-18T14:43:11Z</time>
      </trkpt>
      <trkpt lat="36.9966540" lon="-2.3729580">
        <ele>955.4</ele>
        <time>2019-10-18T14:43:12Z</time>
      </trkpt>
      <trkpt lat="36.9966540" lon="-2.3729590">
        <ele>955.4</ele>
        <time>2019-10-18T14:43:13Z</time>
      </trkpt>
      <trkpt lat="36.9966540" lon="-2.3729590">
        <ele>955.4</ele>
        <time>2019-10-18T14:43:14Z</time>
      </trkpt>
      <trkpt lat="36.9966530" lon="-2.3729590">
        <ele>955.4</ele>
        <time>2019-10-18T14:43:15Z</time>
      </trkpt>
      <trkpt lat="36.9966530" lon="-2.3729590">
        <ele>955.4</ele>
        <time>2019-10-18T14:43:16Z</time>
      </trkpt>
      <trkpt lat="36.9966530" lon="-2.3729580">
        <ele>955.4</ele>
        <time>2019-10-18T14:43:17Z</time>
      </trkpt>
      <trkpt lat="36.9966530" lon="-2.3729580">
        <ele>955.4</ele>
        <time>2019-10-18T14:43:18Z</time>
      </trkpt>
      <trkpt lat="36.9966520" lon="-2.3729580">
        <ele>955.4</ele>
        <time>2019-10-18T14:43:19Z</time>
      </trkpt>
      <trkpt lat="36.9966520" lon="-2.3729590">
        <ele>955.4</ele>
        <time>2019-10-18T14:43:20Z</time>
      </trkpt>
      <trkpt lat="36.9966510" lon="-2.3729600">
        <ele>955.3</ele>
        <time>2019-10-18T14:43:21Z</time>
      </trkpt>
      <trkpt lat="36.9966510" lon="-2.3729600">
        <ele>955.3</ele>
        <time>2019-10-18T14:43:22Z</time>
      </trkpt>
      <trkpt lat="36.9966510" lon="-2.3729600">
        <ele>955.3</ele>
        <time>2019-10-18T14:43:23Z</time>
      </trkpt>
      <trkpt lat="36.9966520" lon="-2.3729600">
        <ele>955.3</ele>
        <time>2019-10-18T14:43:24Z</time>
      </trkpt>
      <trkpt lat="36.9966520" lon="-2.3729610">
        <ele>955.3</ele>
        <time>2019-10-18T14:43:25Z</time>
      </trkpt>
      <trkpt lat="36.9966520" lon="-2.3729610">
        <ele>955.3</ele>
        <time>2019-10-18T14:43:26Z</time>
      </trkpt>
      <trkpt lat="36.9966540" lon="-2.3729620">
        <ele>955.3</ele>
        <time>2019-10-18T14:43:27Z</time>
      </trkpt>
      <trkpt lat="36.9966570" lon="-2.3729630">
        <ele>955.3</ele>
        <time>2019-10-18T14:43:28Z</time>
      </trkpt>
      <trkpt lat="36.9966630" lon="-2.3729640">
        <ele>955.2</ele>
        <time>2019-10-18T14:43:29Z</time>
      </trkpt>
      <trkpt lat="36.9966700" lon="-2.3729650">
        <ele>955.0</ele>
        <time>2019-10-18T14:43:30Z</time>
      </trkpt>
      <trkpt lat="36.9966760" lon="-2.3729640">
        <ele>955.0</ele>
        <time>2019-10-18T14:43:31Z</time>
      </trkpt>
      <trkpt lat="36.9966820" lon="-2.3729600">
        <ele>954.9</ele>
        <time>2019-10-18T14:43:32Z</time>
      </trkpt>
      <trkpt lat="36.9966920" lon="-2.3729530">
        <ele>954.7</ele>
        <time>2019-10-18T14:43:33Z</time>
      </trkpt>
      <trkpt lat="36.9967070" lon="-2.3729410">
        <ele>954.4</ele>
        <time>2019-10-18T14:43:34Z</time>
      </trkpt>
      <trkpt lat="36.9967240" lon="-2.3729270">
        <ele>954.1</ele>
        <time>2019-10-18T14:43:35Z</time>
      </trkpt>
      <trkpt lat="36.9967440" lon="-2.3729080">
        <ele>953.8</ele>
        <time>2019-10-18T14:43:36Z</time>
      </trkpt>
      <trkpt lat="36.9967660" lon="-2.3728850">
        <ele>953.5</ele>
        <time>2019-10-18T14:43:37Z</time>
      </trkpt>
      <trkpt lat="36.9967920" lon="-2.3728580">
        <ele>953.1</ele>
        <time>2019-10-18T14:43:38Z</time>
      </trkpt>
      <trkpt lat="36.9968190" lon="-2.3728270">
        <ele>952.8</ele>
        <time>2019-10-18T14:43:39Z</time>
      </trkpt>
      <trkpt lat="36.9968460" lon="-2.3727920">
        <ele>952.4</ele>
        <time>2019-10-18T14:43:40Z</time>
      </trkpt>
      <trkpt lat="36.9968710" lon="-2.3727510">
        <ele>952.1</ele>
        <time>2019-10-18T14:43:41Z</time>
      </trkpt>
      <trkpt lat="36.9968940" lon="-2.3727020">
        <ele>951.7</ele>
        <time>2019-10-18T14:43:42Z</time>
      </trkpt>
      <trkpt lat="36.9969160" lon="-2.3726440">
        <ele>951.3</ele>
        <time>2019-10-18T14:43:43Z</time>
      </trkpt>
      <trkpt lat="36.9969370" lon="-2.3725810">
        <ele>951.0</ele>
        <time>2019-10-18T14:43:44Z</time>
      </trkpt>
      <trkpt lat="36.9969580" lon="-2.3725170">
        <ele>950.6</ele>
        <time>2019-10-18T14:43:45Z</time>
      </trkpt>
      <trkpt lat="36.9969820" lon="-2.3724540">
        <ele>950.2</ele>
        <time>2019-10-18T14:43:46Z</time>
      </trkpt>
      <trkpt lat="36.9970090" lon="-2.3723950">
        <ele>949.8</ele>
        <time>2019-10-18T14:43:47Z</time>
      </trkpt>
      <trkpt lat="36.9970410" lon="-2.3723410">
        <ele>949.4</ele>
        <time>2019-10-18T14:43:48Z</time>
      </trkpt>
      <trkpt lat="36.9970770" lon="-2.3722920">
        <ele>949.0</ele>
        <time>2019-10-18T14:43:49Z</time>
      </trkpt>
      <trkpt lat="36.9971150" lon="-2.3722470">
        <ele>948.7</ele>
        <time>2019-10-18T14:43:50Z</time>
      </trkpt>
      <trkpt lat="36.9971580" lon="-2.3722070">
        <ele>948.4</ele>
        <time>2019-10-18T14:43:51Z</time>
      </trkpt>
      <trkpt lat="36.9972050" lon="-2.3721670">
        <ele>948.1</ele>
        <time>2019-10-18T14:43:52Z</time>
      </trkpt>
      <trkpt lat="36.9972550" lon="-2.3721260">
        <ele>947.8</ele>
        <time>2019-10-18T14:43:53Z</time>
      </trkpt>
      <trkpt lat="36.9973060" lon="-2.3720800">
        <ele>947.3</ele>
        <time>2019-10-18T14:43:54Z</time>
      </trkpt>
      <trkpt lat="36.9973570" lon="-2.3720280">
        <ele>946.8</ele>
        <time>2019-10-18T14:43:55Z</time>
      </trkpt>
      <trkpt lat="36.9974070" lon="-2.3719710">
        <ele>946.4</ele>
        <time>2019-10-18T14:43:56Z</time>
      </trkpt>
      <trkpt lat="36.9974530" lon="-2.3719090">
        <ele>945.8</ele>
        <time>2019-10-18T14:43:57Z</time>
      </trkpt>
      <trkpt lat="36.9974940" lon="-2.3718430">
        <ele>945.3</ele>
        <time>2019-10-18T14:43:58Z</time>
      </trkpt>
      <trkpt lat="36.9975300" lon="-2.3717720">
        <ele>944.8</ele>
        <time>2019-10-18T14:43:59Z</time>
      </trkpt>
      <trkpt lat="36.9975610" lon="-2.3716990">
        <ele>943.9</ele>
        <time>2019-10-18T14:44:00Z</time>
      </trkpt>
      <trkpt lat="36.9975880" lon="-2.3716290">
        <ele>943.3</ele>
        <time>2019-10-18T14:44:01Z</time>
      </trkpt>
      <trkpt lat="36.9976130" lon="-2.3715670">
        <ele>942.8</ele>
        <time>2019-10-18T14:44:02Z</time>
      </trkpt>
      <trkpt lat="36.9976400" lon="-2.3715160">
        <ele>942.3</ele>
        <time>2019-10-18T14:44:03Z</time>
      </trkpt>
      <trkpt lat="36.9976710" lon="-2.3714770">
        <ele>941.7</ele>
        <time>2019-10-18T14:44:04Z</time>
      </trkpt>
      <trkpt lat="36.9977080" lon="-2.3714500">
        <ele>941.1</ele>
        <time>2019-10-18T14:44:05Z</time>
      </trkpt>
      <trkpt lat="36.9977450" lon="-2.3714330">
        <ele>940.4</ele>
        <time>2019-10-18T14:44:06Z</time>
      </trkpt>
      <trkpt lat="36.9977790" lon="-2.3714270">
        <ele>939.8</ele>
        <time>2019-10-18T14:44:07Z</time>
      </trkpt>
      <trkpt lat="36.9978110" lon="-2.3714280">
        <ele>939.3</ele>
        <time>2019-10-18T14:44:08Z</time>
      </trkpt>
      <trkpt lat="36.9978400" lon="-2.3714350">
        <ele>938.8</ele>
        <time>2019-10-18T14:44:09Z</time>
      </trkpt>
      <trkpt lat="36.9978690" lon="-2.3714430">
        <ele>938.4</ele>
        <time>2019-10-18T14:44:10Z</time>
      </trkpt>
      <trkpt lat="36.9978990" lon="-2.3714480">
        <ele>937.9</ele>
        <time>2019-10-18T14:44:11Z</time>
      </trkpt>
      <trkpt lat="36.9979300" lon="-2.3714470">
        <ele>937.4</ele>
        <time>2019-10-18T14:44:12Z</time>
      </trkpt>
      <trkpt lat="36.9979600" lon="-2.3714370">
        <ele>937.0</ele>
        <time>2019-10-18T14:44:13Z</time>
      </trkpt>
      <trkpt lat="36.9979900" lon="-2.3714200">
        <ele>936.5</ele>
        <time>2019-10-18T14:44:14Z</time>
      </trkpt>
      <trkpt lat="36.9980180" lon="-2.3713980">
        <ele>936.0</ele>
        <time>2019-10-18T14:44:15Z</time>
      </trkpt>
      <trkpt lat="36.9980470" lon="-2.3713720">
        <ele>935.5</ele>
        <time>2019-10-18T14:44:16Z</time>
      </trkpt>
      <trkpt lat="36.9980760" lon="-2.3713420">
        <ele>935.0</ele>
        <time>2019-10-18T14:44:17Z</time>
      </trkpt>
      <trkpt lat="36.9981080" lon="-2.3713080">
        <ele>934.5</ele>
        <time>2019-10-18T14:44:18Z</time>
      </trkpt>
      <trkpt lat="36.9981410" lon="-2.3712740">
        <ele>934.0</ele>
        <time>2019-10-18T14:44:19Z</time>
      </trkpt>
      <trkpt lat="36.9981750" lon="-2.3712430">
        <ele>933.6</ele>
        <time>2019-10-18T14:44:20Z</time>
      </trkpt>
      <trkpt lat="36.9982100" lon="-2.3712170">
        <ele>933.2</ele>
        <time>2019-10-18T14:44:21Z</time>
      </trkpt>
      <trkpt lat="36.9982450" lon="-2.3711940">
        <ele>932.8</ele>
        <time>2019-10-18T14:44:22Z</time>
      </trkpt>
      <trkpt lat="36.9982800" lon="-2.3711710">
        <ele>932.5</ele>
        <time>2019-10-18T14:44:23Z</time>
      </trkpt>
      <trkpt lat="36.9983140" lon="-2.3711460">
        <ele>932.2</ele>
        <time>2019-10-18T14:44:24Z</time>
      </trkpt>
      <trkpt lat="36.9983470" lon="-2.3711180">
        <ele>931.9</ele>
        <time>2019-10-18T14:44:25Z</time>
      </trkpt>
      <trkpt lat="36.9983770" lon="-2.3710880">
        <ele>931.7</ele>
        <time>2019-10-18T14:44:26Z</time>
      </trkpt>
      <trkpt lat="36.9984030" lon="-2.3710560">
        <ele>931.5</ele>
        <time>2019-10-18T14:44:27Z</time>
      </trkpt>
      <trkpt lat="36.9984270" lon="-2.3710220">
        <ele>931.3</ele>
        <time>2019-10-18T14:44:28Z</time>
      </trkpt>
      <trkpt lat="36.9984490" lon="-2.3709870">
        <ele>931.1</ele>
        <time>2019-10-18T14:44:29Z</time>
      </trkpt>
      <trkpt lat="36.9984690" lon="-2.3709500">
        <ele>931.0</ele>
        <time>2019-10-18T14:44:30Z</time>
      </trkpt>
      <trkpt lat="36.9984870" lon="-2.3709110">
        <ele>930.8</ele>
        <time>2019-10-18T14:44:31Z</time>
      </trkpt>
      <trkpt lat="36.9985020" lon="-2.3708700">
        <ele>930.7</ele>
        <time>2019-10-18T14:44:32Z</time>
      </trkpt>
      <trkpt lat="36.9985130" lon="-2.3708280">
        <ele>930.6</ele>
        <time>2019-10-18T14:44:33Z</time>
      </trkpt>
      <trkpt lat="36.9985220" lon="-2.3707870">
        <ele>930.5</ele>
        <time>2019-10-18T14:44:34Z</time>
      </trkpt>
      <trkpt lat="36.9985310" lon="-2.3707450">
        <ele>930.4</ele>
        <time>2019-10-18T14:44:35Z</time>
      </trkpt>
      <trkpt lat="36.9985400" lon="-2.3707050">
        <ele>930.3</ele>
        <time>2019-10-18T14:44:36Z</time>
      </trkpt>
      <trkpt lat="36.9985500" lon="-2.3706670">
        <ele>930.2</ele>
        <time>2019-10-18T14:44:37Z</time>
      </trkpt>
      <trkpt lat="36.9985590" lon="-2.3706300">
        <ele>930.2</ele>
        <time>2019-10-18T14:44:38Z</time>
      </trkpt>
      <trkpt lat="36.9985680" lon="-2.3705940">
        <ele>930.1</ele>
        <time>2019-10-18T14:44:39Z</time>
      </trkpt>
      <trkpt lat="36.9985790" lon="-2.3705580">
        <ele>930.1</ele>
        <time>2019-10-18T14:44:40Z</time>
      </trkpt>
      <trkpt lat="36.9985900" lon="-2.3705220">
        <ele>930.0</ele>
        <time>2019-10-18T14:44:41Z</time>
      </trkpt>
      <trkpt lat="36.9986020" lon="-2.3704860">
        <ele>930.0</ele>
        <time>2019-10-18T14:44:42Z</time>
      </trkpt>
      <trkpt lat="36.9986140" lon="-2.3704510">
        <ele>930.0</ele>
        <time>2019-10-18T14:44:43Z</time>
      </trkpt>
      <trkpt lat="36.9986260" lon="-2.3704170">
        <ele>929.9</ele>
        <time>2019-10-18T14:44:44Z</time>
      </trkpt>
      <trkpt lat="36.9986360" lon="-2.3703830">
        <ele>929.9</ele>
        <time>2019-10-18T14:44:45Z</time>
      </trkpt>
      <trkpt lat="36.9986470" lon="-2.3703480">
        <ele>929.9</ele>
        <time>2019-10-18T14:44:46Z</time>
      </trkpt>
      <trkpt lat="36.9986560" lon="-2.3703140">
        <ele>929.9</ele>
        <time>2019-10-18T14:44:47Z</time>
      </trkpt>
      <trkpt lat="36.9986650" lon="-2.3702790">
        <ele>929.9</ele>
        <time>2019-10-18T14:44:48Z</time>
      </trkpt>
      <trkpt lat="36.9986730" lon="-2.3702430">
        <ele>929.9</ele>
        <time>2019-10-18T14:44:49Z</time>
      </trkpt>
      <trkpt lat="36.9986800" lon="-2.3702050">
        <ele>930.0</ele>
        <time>2019-10-18T14:44:50Z</time>
      </trkpt>
      <trkpt lat="36.9986850" lon="-2.3701660">
        <ele>930.0</ele>
        <time>2019-10-18T14:44:51Z</time>
      </trkpt>
      <trkpt lat="36.9986880" lon="-2.3701250">
        <ele>930.0</ele>
        <time>2019-10-18T14:44:52Z</time>
      </trkpt>
      <trkpt lat="36.9986890" lon="-2.3700800">
        <ele>930.0</ele>
        <time>2019-10-18T14:44:53Z</time>
      </trkpt>
      <trkpt lat="36.9986890" lon="-2.3700320">
        <ele>930.1</ele>
        <time>2019-10-18T14:44:54Z</time>
      </trkpt>
      <trkpt lat="36.9986890" lon="-2.3699840">
        <ele>930.1</ele>
        <time>2019-10-18T14:44:55Z</time>
      </trkpt>
      <trkpt lat="36.9986920" lon="-2.3699380">
        <ele>930.1</ele>
        <time>2019-10-18T14:44:56Z</time>
      </trkpt>
      <trkpt lat="36.9986960" lon="-2.3698940">
        <ele>930.1</ele>
        <time>2019-10-18T14:44:57Z</time>
      </trkpt>
      <trkpt lat="36.9987050" lon="-2.3698540">
        <ele>930.1</ele>
        <time>2019-10-18T14:44:58Z</time>
      </trkpt>
      <trkpt lat="36.9987180" lon="-2.3698150">
        <ele>930.0</ele>
        <time>2019-10-18T14:44:59Z</time>
      </trkpt>
      <trkpt lat="36.9987360" lon="-2.3697800">
        <ele>930.0</ele>
        <time>2019-10-18T14:45:00Z</time>
      </trkpt>
      <trkpt lat="36.9987560" lon="-2.3697480">
        <ele>930.0</ele>
        <time>2019-10-18T14:45:01Z</time>
      </trkpt>
      <trkpt lat="36.9987790" lon="-2.3697210">
        <ele>930.0</ele>
        <time>2019-10-18T14:45:02Z</time>
      </trkpt>
      <trkpt lat="36.9988050" lon="-2.3696990">
        <ele>929.9</ele>
        <time>2019-10-18T14:45:03Z</time>
      </trkpt>
      <trkpt lat="36.9988330" lon="-2.3696830">
        <ele>929.9</ele>
        <time>2019-10-18T14:45:04Z</time>
      </trkpt>
      <trkpt lat="36.9988640" lon="-2.3696670">
        <ele>929.9</ele>
        <time>2019-10-18T14:45:05Z</time>
      </trkpt>
      <trkpt lat="36.9988950" lon="-2.3696510">
        <ele>929.8</ele>
        <time>2019-10-18T14:45:06Z</time>
      </trkpt>
      <trkpt lat="36.9989210" lon="-2.3696340">
        <ele>929.9</ele>
        <time>2019-10-18T14:45:07Z</time>
      </trkpt>
      <trkpt lat="36.9989430" lon="-2.3696180">
        <ele>929.9</ele>
        <time>2019-10-18T14:45:08Z</time>
      </trkpt>
      <trkpt lat="36.9989620" lon="-2.3696010">
        <ele>929.9</ele>
        <time>2019-10-18T14:45:09Z</time>
      </trkpt>
      <trkpt lat="36.9989790" lon="-2.3695830">
        <ele>929.9</ele>
        <time>2019-10-18T14:45:10Z</time>
      </trkpt>
      <trkpt lat="36.9989950" lon="-2.3695630">
        <ele>929.9</ele>
        <time>2019-10-18T14:45:11Z</time>
      </trkpt>
      <trkpt lat="36.9990090" lon="-2.3695420">
        <ele>930.0</ele>
        <time>2019-10-18T14:45:12Z</time>
      </trkpt>
      <trkpt lat="36.9990210" lon="-2.3695210">
        <ele>930.0</ele>
        <time>2019-10-18T14:45:13Z</time>
      </trkpt>
      <trkpt lat="36.9990340" lon="-2.3694990">
        <ele>930.0</ele>
        <time>2019-10-18T14:45:14Z</time>
      </trkpt>
      <trkpt lat="36.9990450" lon="-2.3694770">
        <ele>930.1</ele>
        <time>2019-10-18T14:45:15Z</time>
      </trkpt>
      <trkpt lat="36.9990560" lon="-2.3694540">
        <ele>930.1</ele>
        <time>2019-10-18T14:45:16Z</time>
      </trkpt>
      <trkpt lat="36.9990660" lon="-2.3694290">
        <ele>930.1</ele>
        <time>2019-10-18T14:45:17Z</time>
      </trkpt>
      <trkpt lat="36.9990750" lon="-2.3694020">
        <ele>930.1</ele>
        <time>2019-10-18T14:45:18Z</time>
      </trkpt>
      <trkpt lat="36.9990820" lon="-2.3693750">
        <ele>930.2</ele>
        <time>2019-10-18T14:45:19Z</time>
      </trkpt>
      <trkpt lat="36.9990870" lon="-2.3693460">
        <ele>930.2</ele>
        <time>2019-10-18T14:45:20Z</time>
      </trkpt>
      <trkpt lat="36.9990910" lon="-2.3693170">
        <ele>930.3</ele>
        <time>2019-10-18T14:45:21Z</time>
      </trkpt>
      <trkpt lat="36.9990950" lon="-2.3692870">
        <ele>930.4</ele>
        <time>2019-10-18T14:45:22Z</time>
      </trkpt>
      <trkpt lat="36.9990980" lon="-2.3692580">
        <ele>930.5</ele>
        <time>2019-10-18T14:45:23Z</time>
      </trkpt>
      <trkpt lat="36.9991010" lon="-2.3692290">
        <ele>930.7</ele>
        <time>2019-10-18T14:45:24Z</time>
      </trkpt>
      <trkpt lat="36.9991050" lon="-2.3692010">
        <ele>930.8</ele>
        <time>2019-10-18T14:45:25Z</time>
      </trkpt>
      <trkpt lat="36.9991100" lon="-2.3691740">
        <ele>930.9</ele>
        <time>2019-10-18T14:45:26Z</time>
      </trkpt>
      <trkpt lat="36.9991170" lon="-2.3691480">
        <ele>931.0</ele>
        <time>2019-10-18T14:45:27Z</time>
      </trkpt>
      <trkpt lat="36.9991250" lon="-2.3691250">
        <ele>931.0</ele>
        <time>2019-10-18T14:45:28Z</time>
      </trkpt>
      <trkpt lat="36.9991350" lon="-2.3691050">
        <ele>931.1</ele>
        <time>2019-10-18T14:45:29Z</time>
      </trkpt>
      <trkpt lat="36.9991470" lon="-2.3690870">
        <ele>931.1</ele>
        <time>2019-10-18T14:45:30Z</time>
      </trkpt>
      <trkpt lat="36.9991610" lon="-2.3690750">
        <ele>931.2</ele>
        <time>2019-10-18T14:45:31Z</time>
      </trkpt>
      <trkpt lat="36.9991780" lon="-2.3690660">
        <ele>931.2</ele>
        <time>2019-10-18T14:45:32Z</time>
      </trkpt>
      <trkpt lat="36.9992000" lon="-2.3690600">
        <ele>931.3</ele>
        <time>2019-10-18T14:45:33Z</time>
      </trkpt>
      <trkpt lat="36.9992230" lon="-2.3690570">
        <ele>931.3</ele>
        <time>2019-10-18T14:45:34Z</time>
      </trkpt>
      <trkpt lat="36.9992470" lon="-2.3690530">
        <ele>931.4</ele>
        <time>2019-10-18T14:45:35Z</time>
      </trkpt>
      <trkpt lat="36.9992700" lon="-2.3690480">
        <ele>931.5</ele>
        <time>2019-10-18T14:45:36Z</time>
      </trkpt>
      <trkpt lat="36.9992930" lon="-2.3690400">
        <ele>931.5</ele>
        <time>2019-10-18T14:45:37Z</time>
      </trkpt>
      <trkpt lat="36.9993150" lon="-2.3690300">
        <ele>931.6</ele>
        <time>2019-10-18T14:45:38Z</time>
      </trkpt>
      <trkpt lat="36.9993370" lon="-2.3690180">
        <ele>931.6</ele>
        <time>2019-10-18T14:45:39Z</time>
      </trkpt>
      <trkpt lat="36.9993590" lon="-2.3690030">
        <ele>931.7</ele>
        <time>2019-10-18T14:45:40Z</time>
      </trkpt>
      <trkpt lat="36.9993790" lon="-2.3689850">
        <ele>931.7</ele>
        <time>2019-10-18T14:45:41Z</time>
      </trkpt>
      <trkpt lat="36.9993970" lon="-2.3689660">
        <ele>931.8</ele>
        <time>2019-10-18T14:45:42Z</time>
      </trkpt>
      <trkpt lat="36.9994150" lon="-2.3689460">
        <ele>931.8</ele>
        <time>2019-10-18T14:45:43Z</time>
      </trkpt>
      <trkpt lat="36.9994320" lon="-2.3689270">
        <ele>931.9</ele>
        <time>2019-10-18T14:45:44Z</time>
      </trkpt>
      <trkpt lat="36.9994490" lon="-2.3689100">
        <ele>931.9</ele>
        <time>2019-10-18T14:45:45Z</time>
      </trkpt>
      <trkpt lat="36.9994670" lon="-2.3688940">
        <ele>932.0</ele>
        <time>2019-10-18T14:45:46Z</time>
      </trkpt>
      <trkpt lat="36.9994850" lon="-2.3688780">
        <ele>932.0</ele>
        <time>2019-10-18T14:45:47Z</time>
      </trkpt>
      <trkpt lat="36.9995030" lon="-2.3688630">
        <ele>932.1</ele>
        <time>2019-10-18T14:45:48Z</time>
      </trkpt>
      <trkpt lat="36.9995230" lon="-2.3688470">
        <ele>932.1</ele>
        <time>2019-10-18T14:45:49Z</time>
      </trkpt>
      <trkpt lat="36.9995420" lon="-2.3688320">
        <ele>932.1</ele>
        <time>2019-10-18T14:45:50Z</time>
      </trkpt>
      <trkpt lat="36.9995620" lon="-2.3688170">
        <ele>932.2</ele>
        <time>2019-10-18T14:45:51Z</time>
      </trkpt>
      <trkpt lat="36.9995820" lon="-2.3688020">
        <ele>932.2</ele>
        <time>2019-10-18T14:45:52Z</time>
      </trkpt>
      <trkpt lat="36.9996030" lon="-2.3687890">
        <ele>932.2</ele>
        <time>2019-10-18T14:45:53Z</time>
      </trkpt>
      <trkpt lat="36.9996260" lon="-2.3687760">
        <ele>932.3</ele>
        <time>2019-10-18T14:45:54Z</time>
      </trkpt>
      <trkpt lat="36.9996490" lon="-2.3687640">
        <ele>932.3</ele>
        <time>2019-10-18T14:45:55Z</time>
      </trkpt>
      <trkpt lat="36.9996730" lon="-2.3687510">
        <ele>932.3</ele>
        <time>2019-10-18T14:45:56Z</time>
      </trkpt>
      <trkpt lat="36.9996960" lon="-2.3687360">
        <ele>932.4</ele>
        <time>2019-10-18T14:45:57Z</time>
      </trkpt>
      <trkpt lat="36.9997200" lon="-2.3687190">
        <ele>932.4</ele>
        <time>2019-10-18T14:45:58Z</time>
      </trkpt>
      <trkpt lat="36.9997430" lon="-2.3686990">
        <ele>932.4</ele>
        <time>2019-10-18T14:45:59Z</time>
      </trkpt>
      <trkpt lat="36.9997650" lon="-2.3686750">
        <ele>932.5</ele>
        <time>2019-10-18T14:46:00Z</time>
      </trkpt>
      <trkpt lat="36.9997830" lon="-2.3686480">
        <ele>932.5</ele>
        <time>2019-10-18T14:46:01Z</time>
      </trkpt>
      <trkpt lat="36.9997970" lon="-2.3686180">
        <ele>932.5</ele>
        <time>2019-10-18T14:46:02Z</time>
      </trkpt>
      <trkpt lat="36.9998090" lon="-2.3685880">
        <ele>932.6</ele>
        <time>2019-10-18T14:46:03Z</time>
      </trkpt>
      <trkpt lat="36.9998200" lon="-2.3685570">
        <ele>932.6</ele>
        <time>2019-10-18T14:46:04Z</time>
      </trkpt>
      <trkpt lat="36.9998290" lon="-2.3685250">
        <ele>932.6</ele>
        <time>2019-10-18T14:46:05Z</time>
      </trkpt>
      <trkpt lat="36.9998390" lon="-2.3684940">
        <ele>932.6</ele>
        <time>2019-10-18T14:46:06Z</time>
      </trkpt>
      <trkpt lat="36.9998500" lon="-2.3684630">
        <ele>932.7</ele>
        <time>2019-10-18T14:46:07Z</time>
      </trkpt>
      <trkpt lat="36.9998650" lon="-2.3684330">
        <ele>932.7</ele>
        <time>2019-10-18T14:46:08Z</time>
      </trkpt>
      <trkpt lat="36.9998850" lon="-2.3684070">
        <ele>932.7</ele>
        <time>2019-10-18T14:46:09Z</time>
      </trkpt>
      <trkpt lat="36.9999080" lon="-2.3683860">
        <ele>932.7</ele>
        <time>2019-10-18T14:46:10Z</time>
      </trkpt>
      <trkpt lat="36.9999350" lon="-2.3683720">
        <ele>932.7</ele>
        <time>2019-10-18T14:46:11Z</time>
      </trkpt>
      <trkpt lat="36.9999630" lon="-2.3683660">
        <ele>932.8</ele>
        <time>2019-10-18T14:46:12Z</time>
      </trkpt>
      <trkpt lat="36.9999900" lon="-2.3683660">
        <ele>932.8</ele>
        <time>2019-10-18T14:46:13Z</time>
      </trkpt>
      <trkpt lat="37.0000160" lon="-2.3683700">
        <ele>932.8</ele>
        <time>2019-10-18T14:46:14Z</time>
      </trkpt>
      <trkpt lat="37.0000400" lon="-2.3683800">
        <ele>932.7</ele>
        <time>2019-10-18T14:46:15Z</time>
      </trkpt>
      <trkpt lat="37.0000640" lon="-2.3683930">
        <ele>932.7</ele>
        <time>2019-10-18T14:46:16Z</time>
      </trkpt>
      <trkpt lat="37.0000880" lon="-2.3684090">
        <ele>932.7</ele>
        <time>2019-10-18T14:46:17Z</time>
      </trkpt>
      <trkpt lat="37.0001140" lon="-2.3684270">
        <ele>932.7</ele>
        <time>2019-10-18T14:46:18Z</time>
      </trkpt>
      <trkpt lat="37.0001410" lon="-2.3684480">
        <ele>932.6</ele>
        <time>2019-10-18T14:46:19Z</time>
      </trkpt>
      <trkpt lat="37.0001680" lon="-2.3684700">
        <ele>932.6</ele>
        <time>2019-10-18T14:46:20Z</time>
      </trkpt>
      <trkpt lat="37.0001960" lon="-2.3684950">
        <ele>932.5</ele>
        <time>2019-10-18T14:46:21Z</time>
      </trkpt>
      <trkpt lat="37.0002250" lon="-2.3685200">
        <ele>932.5</ele>
        <time>2019-10-18T14:46:22Z</time>
      </trkpt>
      <trkpt lat="37.0002550" lon="-2.3685480">
        <ele>932.4</ele>
        <time>2019-10-18T14:46:23Z</time>
      </trkpt>
      <trkpt lat="37.0002860" lon="-2.3685800">
        <ele>932.3</ele>
        <time>2019-10-18T14:46:24Z</time>
      </trkpt>
      <trkpt lat="37.0003180" lon="-2.3686140">
        <ele>932.2</ele>
        <time>2019-10-18T14:46:25Z</time>
      </trkpt>
      <trkpt lat="37.0003540" lon="-2.3686500">
        <ele>932.1</ele>
        <time>2019-10-18T14:46:26Z</time>
      </trkpt>
      <trkpt lat="37.0003940" lon="-2.3686850">
        <ele>931.8</ele>
        <time>2019-10-18T14:46:27Z</time>
      </trkpt>
      <trkpt lat="37.0004390" lon="-2.3687160">
        <ele>931.6</ele>
        <time>2019-10-18T14:46:28Z</time>
      </trkpt>
      <trkpt lat="37.0004910" lon="-2.3687420">
        <ele>931.4</ele>
        <time>2019-10-18T14:46:29Z</time>
      </trkpt>
      <trkpt lat="37.0005490" lon="-2.3687640">
        <ele>931.2</ele>
        <time>2019-10-18T14:46:30Z</time>
      </trkpt>
      <trkpt lat="37.0006110" lon="-2.3687840">
        <ele>930.9</ele>
        <time>2019-10-18T14:46:31Z</time>
      </trkpt>
      <trkpt lat="37.0006780" lon="-2.3688010">
        <ele>930.6</ele>
        <time>2019-10-18T14:46:32Z</time>
      </trkpt>
      <trkpt lat="37.0007470" lon="-2.3688130">
        <ele>930.3</ele>
        <time>2019-10-18T14:46:33Z</time>
      </trkpt>
      <trkpt lat="37.0008190" lon="-2.3688170">
        <ele>929.9</ele>
        <time>2019-10-18T14:46:34Z</time>
      </trkpt>
      <trkpt lat="37.0008920" lon="-2.3688120">
        <ele>929.6</ele>
        <time>2019-10-18T14:46:35Z</time>
      </trkpt>
      <trkpt lat="37.0009650" lon="-2.3688000">
        <ele>929.2</ele>
        <time>2019-10-18T14:46:36Z</time>
      </trkpt>
      <trkpt lat="37.0010380" lon="-2.3687840">
        <ele>928.7</ele>
        <time>2019-10-18T14:46:37Z</time>
      </trkpt>
      <trkpt lat="37.0011080" lon="-2.3687660">
        <ele>928.0</ele>
        <time>2019-10-18T14:46:38Z</time>
      </trkpt>
      <trkpt lat="37.0011760" lon="-2.3687490">
        <ele>927.3</ele>
        <time>2019-10-18T14:46:39Z</time>
      </trkpt>
      <trkpt lat="37.0012400" lon="-2.3687400">
        <ele>926.6</ele>
        <time>2019-10-18T14:46:40Z</time>
      </trkpt>
      <trkpt lat="37.0013000" lon="-2.3687400">
        <ele>926.0</ele>
        <time>2019-10-18T14:46:41Z</time>
      </trkpt>
      <trkpt lat="37.0013550" lon="-2.3687490">
        <ele>925.5</ele>
        <time>2019-10-18T14:46:42Z</time>
      </trkpt>
      <trkpt lat="37.0014070" lon="-2.3687670">
        <ele>925.0</ele>
        <time>2019-10-18T14:46:43Z</time>
      </trkpt>
      <trkpt lat="37.0014580" lon="-2.3687970">
        <ele>924.5</ele>
        <time>2019-10-18T14:46:44Z</time>
      </trkpt>
      <trkpt lat="37.0015060" lon="-2.3688390">
        <ele>923.9</ele>
        <time>2019-10-18T14:46:45Z</time>
      </trkpt>
      <trkpt lat="37.0015480" lon="-2.3688890">
        <ele>923.3</ele>
        <time>2019-10-18T14:46:46Z</time>
      </trkpt>
      <trkpt lat="37.0015840" lon="-2.3689410">
        <ele>922.7</ele>
        <time>2019-10-18T14:46:47Z</time>
      </trkpt>
      <trkpt lat="37.0016150" lon="-2.3689970">
        <ele>922.2</ele>
        <time>2019-10-18T14:46:48Z</time>
      </trkpt>
      <trkpt lat="37.0016440" lon="-2.3690570">
        <ele>921.0</ele>
        <time>2019-10-18T14:46:49Z</time>
      </trkpt>
      <trkpt lat="37.0016750" lon="-2.3691200">
        <ele>920.0</ele>
        <time>2019-10-18T14:46:50Z</time>
      </trkpt>
      <trkpt lat="37.0017080" lon="-2.3691860">
        <ele>919.0</ele>
        <time>2019-10-18T14:46:51Z</time>
      </trkpt>
      <trkpt lat="37.0017450" lon="-2.3692530">
        <ele>918.5</ele>
        <time>2019-10-18T14:46:52Z</time>
      </trkpt>
      <trkpt lat="37.0017870" lon="-2.3693180">
        <ele>918.1</ele>
        <time>2019-10-18T14:46:53Z</time>
      </trkpt>
      <trkpt lat="37.0018320" lon="-2.3693830">
        <ele>917.7</ele>
        <time>2019-10-18T14:46:54Z</time>
      </trkpt>
      <trkpt lat="37.0018790" lon="-2.3694480">
        <ele>917.1</ele>
        <time>2019-10-18T14:46:55Z</time>
      </trkpt>
      <trkpt lat="37.0019240" lon="-2.3695140">
        <ele>916.5</ele>
        <time>2019-10-18T14:46:56Z</time>
      </trkpt>
      <trkpt lat="37.0019650" lon="-2.3695830">
        <ele>916.0</ele>
        <time>2019-10-18T14:46:57Z</time>
      </trkpt>
      <trkpt lat="37.0020010" lon="-2.3696550">
        <ele>915.5</ele>
        <time>2019-10-18T14:46:58Z</time>
      </trkpt>
      <trkpt lat="37.0020310" lon="-2.3697290">
        <ele>915.0</ele>
        <time>2019-10-18T14:46:59Z</time>
      </trkpt>
      <trkpt lat="37.0020610" lon="-2.3697980">
        <ele>914.3</ele>
        <time>2019-10-18T14:47:00Z</time>
      </trkpt>
      <trkpt lat="37.0020930" lon="-2.3698590">
        <ele>913.8</ele>
        <time>2019-10-18T14:47:01Z</time>
      </trkpt>
      <trkpt lat="37.0021330" lon="-2.3699120">
        <ele>913.4</ele>
        <time>2019-10-18T14:47:02Z</time>
      </trkpt>
      <trkpt lat="37.0021810" lon="-2.3699570">
        <ele>912.8</ele>
        <time>2019-10-18T14:47:03Z</time>
      </trkpt>
      <trkpt lat="37.0022350" lon="-2.3699970">
        <ele>912.3</ele>
        <time>2019-10-18T14:47:04Z</time>
      </trkpt>
      <trkpt lat="37.0022920" lon="-2.3700330">
        <ele>911.9</ele>
        <time>2019-10-18T14:47:05Z</time>
      </trkpt>
      <trkpt lat="37.0023500" lon="-2.3700680">
        <ele>911.6</ele>
        <time>2019-10-18T14:47:06Z</time>
      </trkpt>
      <trkpt lat="37.0024080" lon="-2.3701030">
        <ele>911.3</ele>
        <time>2019-10-18T14:47:07Z</time>
      </trkpt>
      <trkpt lat="37.0024640" lon="-2.3701410">
        <ele>910.9</ele>
        <time>2019-10-18T14:47:08Z</time>
      </trkpt>
      <trkpt lat="37.0025200" lon="-2.3701810">
        <ele>910.5</ele>
        <time>2019-10-18T14:47:09Z</time>
      </trkpt>
      <trkpt lat="37.0025760" lon="-2.3702250">
        <ele>910.1</ele>
        <time>2019-10-18T14:47:10Z</time>
      </trkpt>
      <trkpt lat="37.0026320" lon="-2.3702700">
        <ele>909.6</ele>
        <time>2019-10-18T14:47:11Z</time>
      </trkpt>
      <trkpt lat="37.0026910" lon="-2.3703140">
        <ele>908.9</ele>
        <time>2019-10-18T14:47:12Z</time>
      </trkpt>
      <trkpt lat="37.0027500" lon="-2.3703550">
        <ele>908.2</ele>
        <time>2019-10-18T14:47:13Z</time>
      </trkpt>
      <trkpt lat="37.0028110" lon="-2.3703930">
        <ele>907.7</ele>
        <time>2019-10-18T14:47:14Z</time>
      </trkpt>
      <trkpt lat="37.0028700" lon="-2.3704280">
        <ele>907.2</ele>
        <time>2019-10-18T14:47:15Z</time>
      </trkpt>
      <trkpt lat="37.0029280" lon="-2.3704620">
        <ele>906.7</ele>
        <time>2019-10-18T14:47:16Z</time>
      </trkpt>
      <trkpt lat="37.0029840" lon="-2.3704970">
        <ele>905.8</ele>
        <time>2019-10-18T14:47:17Z</time>
      </trkpt>
      <trkpt lat="37.0030370" lon="-2.3705320">
        <ele>905.3</ele>
        <time>2019-10-18T14:47:18Z</time>
      </trkpt>
      <trkpt lat="37.0030880" lon="-2.3705690">
        <ele>904.8</ele>
        <time>2019-10-18T14:47:19Z</time>
      </trkpt>
      <trkpt lat="37.0031350" lon="-2.3706080">
        <ele>904.1</ele>
        <time>2019-10-18T14:47:20Z</time>
      </trkpt>
      <trkpt lat="37.0031810" lon="-2.3706510">
        <ele>903.5</ele>
        <time>2019-10-18T14:47:21Z</time>
      </trkpt>
      <trkpt lat="37.0032250" lon="-2.3706980">
        <ele>902.8</ele>
        <time>2019-10-18T14:47:22Z</time>
      </trkpt>
      <trkpt lat="37.0032690" lon="-2.3707490">
        <ele>902.2</ele>
        <time>2019-10-18T14:47:23Z</time>
      </trkpt>
      <trkpt lat="37.0033080" lon="-2.3708010">
        <ele>901.7</ele>
        <time>2019-10-18T14:47:24Z</time>
      </trkpt>
      <trkpt lat="37.0033430" lon="-2.3708560">
        <ele>901.1</ele>
        <time>2019-10-18T14:47:25Z</time>
      </trkpt>
      <trkpt lat="37.0033710" lon="-2.3709110">
        <ele>900.3</ele>
        <time>2019-10-18T14:47:26Z</time>
      </trkpt>
      <trkpt lat="37.0033930" lon="-2.3709720">
        <ele>899.7</ele>
        <time>2019-10-18T14:47:27Z</time>
      </trkpt>
      <trkpt lat="37.0034060" lon="-2.3710390">
        <ele>899.0</ele>
        <time>2019-10-18T14:47:28Z</time>
      </trkpt>
      <trkpt lat="37.0034110" lon="-2.3711140">
        <ele>898.1</ele>
        <time>2019-10-18T14:47:29Z</time>
      </trkpt>
      <trkpt lat="37.0034070" lon="-2.3711940">
        <ele>897.1</ele>
        <time>2019-10-18T14:47:30Z</time>
      </trkpt>
      <trkpt lat="37.0033970" lon="-2.3712750">
        <ele>896.3</ele>
        <time>2019-10-18T14:47:31Z</time>
      </trkpt>
      <trkpt lat="37.0033810" lon="-2.3713560">
        <ele>895.6</ele>
        <time>2019-10-18T14:47:32Z</time>
      </trkpt>
      <trkpt lat="37.0033630" lon="-2.3714340">
        <ele>894.8</ele>
        <time>2019-10-18T14:47:33Z</time>
      </trkpt>
      <trkpt lat="37.0033430" lon="-2.3715080">
        <ele>893.9</ele>
        <time>2019-10-18T14:47:34Z</time>
      </trkpt>
      <trkpt lat="37.0033240" lon="-2.3715790">
        <ele>893.4</ele>
        <time>2019-10-18T14:47:35Z</time>
      </trkpt>
      <trkpt lat="37.0033060" lon="-2.3716470">
        <ele>892.8</ele>
        <time>2019-10-18T14:47:36Z</time>
      </trkpt>
      <trkpt lat="37.0032940" lon="-2.3717130">
        <ele>892.1</ele>
        <time>2019-10-18T14:47:37Z</time>
      </trkpt>
      <trkpt lat="37.0032910" lon="-2.3717800">
        <ele>891.4</ele>
        <time>2019-10-18T14:47:38Z</time>
      </trkpt>
      <trkpt lat="37.0033020" lon="-2.3718450">
        <ele>890.8</ele>
        <time>2019-10-18T14:47:39Z</time>
      </trkpt>
      <trkpt lat="37.0033260" lon="-2.3719080">
        <ele>890.1</ele>
        <time>2019-10-18T14:47:40Z</time>
      </trkpt>
      <trkpt lat="37.0033610" lon="-2.3719640">
        <ele>889.4</ele>
        <time>2019-10-18T14:47:41Z</time>
      </trkpt>
      <trkpt lat="37.0034020" lon="-2.3720140">
        <ele>888.3</ele>
        <time>2019-10-18T14:47:42Z</time>
      </trkpt>
      <trkpt lat="37.0034480" lon="-2.3720590">
        <ele>887.5</ele>
        <time>2019-10-18T14:47:43Z</time>
      </trkpt>
      <trkpt lat="37.0034960" lon="-2.3720980">
        <ele>886.7</ele>
        <time>2019-10-18T14:47:44Z</time>
      </trkpt>
      <trkpt lat="37.0035480" lon="-2.3721250">
        <ele>885.7</ele>
        <time>2019-10-18T14:47:45Z</time>
      </trkpt>
      <trkpt lat="37.0036020" lon="-2.3721390">
        <ele>884.8</ele>
        <time>2019-10-18T14:47:46Z</time>
      </trkpt>
      <trkpt lat="37.0036580" lon="-2.3721420">
        <ele>884.0</ele>
        <time>2019-10-18T14:47:47Z</time>
      </trkpt>
      <trkpt lat="37.0037130" lon="-2.3721370">
        <ele>883.3</ele>
        <time>2019-10-18T14:47:48Z</time>
      </trkpt>
      <trkpt lat="37.0037650" lon="-2.3721230">
        <ele>882.6</ele>
        <time>2019-10-18T14:47:49Z</time>
      </trkpt>
      <trkpt lat="37.0038100" lon="-2.3720970">
        <ele>881.6</ele>
        <time>2019-10-18T14:47:50Z</time>
      </trkpt>
      <trkpt lat="37.0038470" lon="-2.3720620">
        <ele>880.9</ele>
        <time>2019-10-18T14:47:51Z</time>
      </trkpt>
      <trkpt lat="37.0038780" lon="-2.3720180">
        <ele>880.2</ele>
        <time>2019-10-18T14:47:52Z</time>
      </trkpt>
      <trkpt lat="37.0039070" lon="-2.3719720">
        <ele>879.5</ele>
        <time>2019-10-18T14:47:53Z</time>
      </trkpt>
      <trkpt lat="37.0039400" lon="-2.3719280">
        <ele>878.7</ele>
        <time>2019-10-18T14:47:54Z</time>
      </trkpt>
      <trkpt lat="37.0039780" lon="-2.3718890">
        <ele>877.9</ele>
        <time>2019-10-18T14:47:55Z</time>
      </trkpt>
      <trkpt lat="37.0040220" lon="-2.3718590">
        <ele>877.1</ele>
        <time>2019-10-18T14:47:56Z</time>
      </trkpt>
      <trkpt lat="37.0040710" lon="-2.3718380">
        <ele>876.5</ele>
        <time>2019-10-18T14:47:57Z</time>
      </trkpt>
      <trkpt lat="37.0041240" lon="-2.3718200">
        <ele>875.8</ele>
        <time>2019-10-18T14:47:58Z</time>
      </trkpt>
      <trkpt lat="37.0041780" lon="-2.3718010">
        <ele>874.9</ele>
        <time>2019-10-18T14:47:59Z</time>
      </trkpt>
      <trkpt lat="37.0042310" lon="-2.3717790">
        <ele>874.1</ele>
        <time>2019-10-18T14:48:00Z</time>
      </trkpt>
      <trkpt lat="37.0042820" lon="-2.3717520">
        <ele>873.5</ele>
        <time>2019-10-18T14:48:01Z</time>
      </trkpt>
      <trkpt lat="37.0043310" lon="-2.3717200">
        <ele>872.9</ele>
        <time>2019-10-18T14:48:02Z</time>
      </trkpt>
      <trkpt lat="37.0043760" lon="-2.3716800">
        <ele>872.1</ele>
        <time>2019-10-18T14:48:03Z</time>
      </trkpt>
      <trkpt lat="37.0044140" lon="-2.3716310">
        <ele>871.5</ele>
        <time>2019-10-18T14:48:04Z</time>
      </trkpt>
      <trkpt lat="37.0044440" lon="-2.3715750">
        <ele>870.9</ele>
        <time>2019-10-18T14:48:05Z</time>
      </trkpt>
      <trkpt lat="37.0044650" lon="-2.3715110">
        <ele>870.4</ele>
        <time>2019-10-18T14:48:06Z</time>
      </trkpt>
      <trkpt lat="37.0044780" lon="-2.3714430">
        <ele>869.9</ele>
        <time>2019-10-18T14:48:07Z</time>
      </trkpt>
      <trkpt lat="37.0044880" lon="-2.3713710">
        <ele>869.3</ele>
        <time>2019-10-18T14:48:08Z</time>
      </trkpt>
      <trkpt lat="37.0044960" lon="-2.3712960">
        <ele>868.6</ele>
        <time>2019-10-18T14:48:09Z</time>
      </trkpt>
      <trkpt lat="37.0045010" lon="-2.3712210">
        <ele>867.9</ele>
        <time>2019-10-18T14:48:10Z</time>
      </trkpt>
      <trkpt lat="37.0045030" lon="-2.3711450">
        <ele>867.3</ele>
        <time>2019-10-18T14:48:11Z</time>
      </trkpt>
      <trkpt lat="37.0045000" lon="-2.3710690">
        <ele>866.5</ele>
        <time>2019-10-18T14:48:12Z</time>
      </trkpt>
      <trkpt lat="37.0044940" lon="-2.3709950">
        <ele>865.7</ele>
        <time>2019-10-18T14:48:13Z</time>
      </trkpt>
      <trkpt lat="37.0044810" lon="-2.3709220">
        <ele>864.5</ele>
        <time>2019-10-18T14:48:14Z</time>
      </trkpt>
      <trkpt lat="37.0044650" lon="-2.3708500">
        <ele>863.7</ele>
        <time>2019-10-18T14:48:15Z</time>
      </trkpt>
      <trkpt lat="37.0044460" lon="-2.3707780">
        <ele>863.0</ele>
        <time>2019-10-18T14:48:16Z</time>
      </trkpt>
      <trkpt lat="37.0044310" lon="-2.3707080">
        <ele>862.3</ele>
        <time>2019-10-18T14:48:17Z</time>
      </trkpt>
      <trkpt lat="37.0044180" lon="-2.3706420">
        <ele>861.4</ele>
        <time>2019-10-18T14:48:18Z</time>
      </trkpt>
      <trkpt lat="37.0044090" lon="-2.3705790">
        <ele>860.4</ele>
        <time>2019-10-18T14:48:19Z</time>
      </trkpt>
      <trkpt lat="37.0044050" lon="-2.3705200">
        <ele>859.7</ele>
        <time>2019-10-18T14:48:20Z</time>
      </trkpt>
      <trkpt lat="37.0044090" lon="-2.3704670">
        <ele>859.0</ele>
        <time>2019-10-18T14:48:21Z</time>
      </trkpt>
      <trkpt lat="37.0044200" lon="-2.3704220">
        <ele>858.4</ele>
        <time>2019-10-18T14:48:22Z</time>
      </trkpt>
      <trkpt lat="37.0044360" lon="-2.3703850">
        <ele>857.8</ele>
        <time>2019-10-18T14:48:23Z</time>
      </trkpt>
      <trkpt lat="37.0044550" lon="-2.3703540">
        <ele>857.3</ele>
        <time>2019-10-18T14:48:24Z</time>
      </trkpt>
      <trkpt lat="37.0044820" lon="-2.3703290">
        <ele>856.8</ele>
        <time>2019-10-18T14:48:25Z</time>
      </trkpt>
      <trkpt lat="37.0045180" lon="-2.3703120">
        <ele>856.4</ele>
        <time>2019-10-18T14:48:26Z</time>
      </trkpt>
      <trkpt lat="37.0045580" lon="-2.3703050">
        <ele>856.0</ele>
        <time>2019-10-18T14:48:27Z</time>
      </trkpt>
      <trkpt lat="37.0045980" lon="-2.3703070">
        <ele>855.6</ele>
        <time>2019-10-18T14:48:28Z</time>
      </trkpt>
      <trkpt lat="37.0046340" lon="-2.3703240">
        <ele>855.3</ele>
        <time>2019-10-18T14:48:29Z</time>
      </trkpt>
      <trkpt lat="37.0046660" lon="-2.3703590">
        <ele>855.0</ele>
        <time>2019-10-18T14:48:30Z</time>
      </trkpt>
      <trkpt lat="37.0046950" lon="-2.3704110">
        <ele>854.5</ele>
        <time>2019-10-18T14:48:31Z</time>
      </trkpt>
      <trkpt lat="37.0047180" lon="-2.3704730">
        <ele>853.9</ele>
        <time>2019-10-18T14:48:32Z</time>
      </trkpt>
      <trkpt lat="37.0047380" lon="-2.3705390">
        <ele>853.5</ele>
        <time>2019-10-18T14:48:33Z</time>
      </trkpt>
      <trkpt lat="37.0047580" lon="-2.3706050">
        <ele>853.2</ele>
        <time>2019-10-18T14:48:34Z</time>
      </trkpt>
      <trkpt lat="37.0047780" lon="-2.3706700">
        <ele>852.9</ele>
        <time>2019-10-18T14:48:35Z</time>
      </trkpt>
      <trkpt lat="37.0048000" lon="-2.3707340">
        <ele>852.7</ele>
        <time>2019-10-18T14:48:36Z</time>
      </trkpt>
      <trkpt lat="37.0048240" lon="-2.3707970">
        <ele>852.5</ele>
        <time>2019-10-18T14:48:37Z</time>
      </trkpt>
      <trkpt lat="37.0048490" lon="-2.3708570">
        <ele>852.3</ele>
        <time>2019-10-18T14:48:38Z</time>
      </trkpt>
      <trkpt lat="37.0048720" lon="-2.3709170">
        <ele>852.2</ele>
        <time>2019-10-18T14:48:39Z</time>
      </trkpt>
      <trkpt lat="37.0048950" lon="-2.3709760">
        <ele>852.1</ele>
        <time>2019-10-18T14:48:40Z</time>
      </trkpt>
      <trkpt lat="37.0049170" lon="-2.3710360">
        <ele>851.9</ele>
        <time>2019-10-18T14:48:41Z</time>
      </trkpt>
      <trkpt lat="37.0049380" lon="-2.3710960">
        <ele>851.8</ele>
        <time>2019-10-18T14:48:42Z</time>
      </trkpt>
      <trkpt lat="37.0049550" lon="-2.3711560">
        <ele>851.8</ele>
        <time>2019-10-18T14:48:43Z</time>
      </trkpt>
      <trkpt lat="37.0049690" lon="-2.3712160">
        <ele>851.8</ele>
        <time>2019-10-18T14:48:44Z</time>
      </trkpt>
      <trkpt lat="37.0049790" lon="-2.3712780">
        <ele>851.8</ele>
        <time>2019-10-18T14:48:45Z</time>
      </trkpt>
      <trkpt lat="37.0049830" lon="-2.3713390">
        <ele>851.9</ele>
        <time>2019-10-18T14:48:46Z</time>
      </trkpt>
      <trkpt lat="37.0049810" lon="-2.3714010">
        <ele>852.1</ele>
        <time>2019-10-18T14:48:47Z</time>
      </trkpt>
      <trkpt lat="37.0049720" lon="-2.3714630">
        <ele>852.2</ele>
        <time>2019-10-18T14:48:48Z</time>
      </trkpt>
      <trkpt lat="37.0049570" lon="-2.3715260">
        <ele>852.2</ele>
        <time>2019-10-18T14:48:49Z</time>
      </trkpt>
      <trkpt lat="37.0049390" lon="-2.3715890">
        <ele>852.3</ele>
        <time>2019-10-18T14:48:50Z</time>
      </trkpt>
      <trkpt lat="37.0049190" lon="-2.3716530">
        <ele>852.4</ele>
        <time>2019-10-18T14:48:51Z</time>
      </trkpt>
      <trkpt lat="37.0049000" lon="-2.3717150">
        <ele>852.4</ele>
        <time>2019-10-18T14:48:52Z</time>
      </trkpt>
      <trkpt lat="37.0048840" lon="-2.3717750">
        <ele>852.4</ele>
        <time>2019-10-18T14:48:53Z</time>
      </trkpt>
      <trkpt lat="37.0048680" lon="-2.3718330">
        <ele>852.5</ele>
        <time>2019-10-18T14:48:54Z</time>
      </trkpt>
      <trkpt lat="37.0048500" lon="-2.3718880">
        <ele>852.5</ele>
        <time>2019-10-18T14:48:55Z</time>
      </trkpt>
      <trkpt lat="37.0048270" lon="-2.3719340">
        <ele>852.5</ele>
        <time>2019-10-18T14:48:56Z</time>
      </trkpt>
      <trkpt lat="37.0048000" lon="-2.3719760">
        <ele>852.5</ele>
        <time>2019-10-18T14:48:57Z</time>
      </trkpt>
      <trkpt lat="37.0047700" lon="-2.3720190">
        <ele>852.5</ele>
        <time>2019-10-18T14:48:58Z</time>
      </trkpt>
      <trkpt lat="37.0047460" lon="-2.3720710">
        <ele>852.5</ele>
        <time>2019-10-18T14:48:59Z</time>
      </trkpt>
      <trkpt lat="37.0047280" lon="-2.3721300">
        <ele>852.5</ele>
        <time>2019-10-18T14:49:00Z</time>
      </trkpt>
      <trkpt lat="37.0047290" lon="-2.3721910">
        <ele>852.5</ele>
        <time>2019-10-18T14:49:01Z</time>
      </trkpt>
      <trkpt lat="37.0047440" lon="-2.3722530">
        <ele>852.4</ele>
        <time>2019-10-18T14:49:02Z</time>
      </trkpt>
      <trkpt lat="37.0047710" lon="-2.3723140">
        <ele>852.2</ele>
        <time>2019-10-18T14:49:03Z</time>
      </trkpt>
      <trkpt lat="37.0047960" lon="-2.3723750">
        <ele>852.0</ele>
        <time>2019-10-18T14:49:04Z</time>
      </trkpt>
      <trkpt lat="37.0048150" lon="-2.3724350">
        <ele>851.8</ele>
        <time>2019-10-18T14:49:05Z</time>
      </trkpt>
      <trkpt lat="37.0048240" lon="-2.3724940">
        <ele>851.5</ele>
        <time>2019-10-18T14:49:06Z</time>
      </trkpt>
      <trkpt lat="37.0048200" lon="-2.3725500">
        <ele>851.3</ele>
        <time>2019-10-18T14:49:07Z</time>
      </trkpt>
      <trkpt lat="37.0048070" lon="-2.3726030">
        <ele>851.0</ele>
        <time>2019-10-18T14:49:08Z</time>
      </trkpt>
      <trkpt lat="37.0047850" lon="-2.3726480">
        <ele>850.8</ele>
        <time>2019-10-18T14:49:09Z</time>
      </trkpt>
      <trkpt lat="37.0047530" lon="-2.3726860">
        <ele>850.6</ele>
        <time>2019-10-18T14:49:10Z</time>
      </trkpt>
      <trkpt lat="37.0047120" lon="-2.3727120">
        <ele>850.3</ele>
        <time>2019-10-18T14:49:11Z</time>
      </trkpt>
      <trkpt lat="37.0046650" lon="-2.3727340">
        <ele>850.2</ele>
        <time>2019-10-18T14:49:12Z</time>
      </trkpt>
      <trkpt lat="37.0046200" lon="-2.3727540">
        <ele>850.0</ele>
        <time>2019-10-18T14:49:13Z</time>
      </trkpt>
      <trkpt lat="37.0045730" lon="-2.3727720">
        <ele>849.9</ele>
        <time>2019-10-18T14:49:14Z</time>
      </trkpt>
      <trkpt lat="37.0045250" lon="-2.3727910">
        <ele>849.8</ele>
        <time>2019-10-18T14:49:15Z</time>
      </trkpt>
      <trkpt lat="37.0044700" lon="-2.3728100">
        <ele>849.8</ele>
        <time>2019-10-18T14:49:16Z</time>
      </trkpt>
      <trkpt lat="37.0044130" lon="-2.3728320">
        <ele>849.7</ele>
        <time>2019-10-18T14:49:17Z</time>
      </trkpt>
      <trkpt lat="37.0043550" lon="-2.3728560">
        <ele>849.6</ele>
        <time>2019-10-18T14:49:18Z</time>
      </trkpt>
      <trkpt lat="37.0042990" lon="-2.3728820">
        <ele>849.5</ele>
        <time>2019-10-18T14:49:19Z</time>
      </trkpt>
      <trkpt lat="37.0042450" lon="-2.3729080">
        <ele>849.3</ele>
        <time>2019-10-18T14:49:20Z</time>
      </trkpt>
      <trkpt lat="37.0041940" lon="-2.3729350">
        <ele>849.0</ele>
        <time>2019-10-18T14:49:21Z</time>
      </trkpt>
      <trkpt lat="37.0041470" lon="-2.3729630">
        <ele>848.6</ele>
        <time>2019-10-18T14:49:22Z</time>
      </trkpt>
      <trkpt lat="37.0041050" lon="-2.3729960">
        <ele>848.2</ele>
        <time>2019-10-18T14:49:23Z</time>
      </trkpt>
      <trkpt lat="37.0040750" lon="-2.3730370">
        <ele>847.8</ele>
        <time>2019-10-18T14:49:24Z</time>
      </trkpt>
      <trkpt lat="37.0040600" lon="-2.3730840">
        <ele>847.4</ele>
        <time>2019-10-18T14:49:25Z</time>
      </trkpt>
      <trkpt lat="37.0040640" lon="-2.3731300">
        <ele>847.0</ele>
        <time>2019-10-18T14:49:26Z</time>
      </trkpt>
      <trkpt lat="37.0040830" lon="-2.3731710">
        <ele>846.7</ele>
        <time>2019-10-18T14:49:27Z</time>
      </trkpt>
      <trkpt lat="37.0041130" lon="-2.3732100">
        <ele>846.3</ele>
        <time>2019-10-18T14:49:28Z</time>
      </trkpt>
      <trkpt lat="37.0041490" lon="-2.3732520">
        <ele>846.0</ele>
        <time>2019-10-18T14:49:29Z</time>
      </trkpt>
      <trkpt lat="37.0041890" lon="-2.3733000">
        <ele>845.6</ele>
        <time>2019-10-18T14:49:30Z</time>
      </trkpt>
      <trkpt lat="37.0042310" lon="-2.3733540">
        <ele>845.1</ele>
        <time>2019-10-18T14:49:31Z</time>
      </trkpt>
      <trkpt lat="37.0042750" lon="-2.3734170">
        <ele>844.7</ele>
        <time>2019-10-18T14:49:32Z</time>
      </trkpt>
      <trkpt lat="37.0043200" lon="-2.3734850">
        <ele>844.3</ele>
        <time>2019-10-18T14:49:33Z</time>
      </trkpt>
      <trkpt lat="37.0043690" lon="-2.3735550">
        <ele>843.8</ele>
        <time>2019-10-18T14:49:34Z</time>
      </trkpt>
      <trkpt lat="37.0044190" lon="-2.3736210">
        <ele>843.2</ele>
        <time>2019-10-18T14:49:35Z</time>
      </trkpt>
      <trkpt lat="37.0044700" lon="-2.3736850">
        <ele>842.6</ele>
        <time>2019-10-18T14:49:36Z</time>
      </trkpt>
      <trkpt lat="37.0045230" lon="-2.3737450">
        <ele>842.0</ele>
        <time>2019-10-18T14:49:37Z</time>
      </trkpt>
      <trkpt lat="37.0045780" lon="-2.3738020">
        <ele>841.4</ele>
        <time>2019-10-18T14:49:38Z</time>
      </trkpt>
      <trkpt lat="37.0046350" lon="-2.3738550">
        <ele>840.7</ele>
        <time>2019-10-18T14:49:39Z</time>
      </trkpt>
      <trkpt lat="37.0046920" lon="-2.3739040">
        <ele>839.9</ele>
        <time>2019-10-18T14:49:40Z</time>
      </trkpt>
      <trkpt lat="37.0047470" lon="-2.3739520">
        <ele>839.3</ele>
        <time>2019-10-18T14:49:41Z</time>
      </trkpt>
      <trkpt lat="37.0047960" lon="-2.3739980">
        <ele>838.8</ele>
        <time>2019-10-18T14:49:42Z</time>
      </trkpt>
      <trkpt lat="37.0048350" lon="-2.3740460">
        <ele>838.3</ele>
        <time>2019-10-18T14:49:43Z</time>
      </trkpt>
      <trkpt lat="37.0048640" lon="-2.3740960">
        <ele>837.8</ele>
        <time>2019-10-18T14:49:44Z</time>
      </trkpt>
      <trkpt lat="37.0048820" lon="-2.3741530">
        <ele>837.4</ele>
        <time>2019-10-18T14:49:45Z</time>
      </trkpt>
      <trkpt lat="37.0048910" lon="-2.3742180">
        <ele>837.0</ele>
        <time>2019-10-18T14:49:46Z</time>
      </trkpt>
      <trkpt lat="37.0048930" lon="-2.3742900">
        <ele>836.5</ele>
        <time>2019-10-18T14:49:47Z</time>
      </trkpt>
      <trkpt lat="37.0048940" lon="-2.3743690">
        <ele>836.0</ele>
        <time>2019-10-18T14:49:48Z</time>
      </trkpt>
      <trkpt lat="37.0048960" lon="-2.3744550">
        <ele>835.6</ele>
        <time>2019-10-18T14:49:49Z</time>
      </trkpt>
      <trkpt lat="37.0049030" lon="-2.3745410">
        <ele>835.1</ele>
        <time>2019-10-18T14:49:50Z</time>
      </trkpt>
      <trkpt lat="37.0049130" lon="-2.3746220">
        <ele>834.5</ele>
        <time>2019-10-18T14:49:51Z</time>
      </trkpt>
      <trkpt lat="37.0049230" lon="-2.3746960">
        <ele>834.1</ele>
        <time>2019-10-18T14:49:52Z</time>
      </trkpt>
      <trkpt lat="37.0049310" lon="-2.3747640">
        <ele>833.7</ele>
        <time>2019-10-18T14:49:53Z</time>
      </trkpt>
      <trkpt lat="37.0049330" lon="-2.3748270">
        <ele>833.3</ele>
        <time>2019-10-18T14:49:54Z</time>
      </trkpt>
      <trkpt lat="37.0049250" lon="-2.3748860">
        <ele>832.8</ele>
        <time>2019-10-18T14:49:55Z</time>
      </trkpt>
      <trkpt lat="37.0049060" lon="-2.3749360">
        <ele>832.3</ele>
        <time>2019-10-18T14:49:56Z</time>
      </trkpt>
      <trkpt lat="37.0048740" lon="-2.3749770">
        <ele>831.8</ele>
        <time>2019-10-18T14:49:57Z</time>
      </trkpt>
      <trkpt lat="37.0048320" lon="-2.3750060">
        <ele>831.4</ele>
        <time>2019-10-18T14:49:58Z</time>
      </trkpt>
      <trkpt lat="37.0047810" lon="-2.3750230">
        <ele>831.0</ele>
        <time>2019-10-18T14:49:59Z</time>
      </trkpt>
      <trkpt lat="37.0047260" lon="-2.3750310">
        <ele>830.7</ele>
        <time>2019-10-18T14:50:00Z</time>
      </trkpt>
      <trkpt lat="37.0046680" lon="-2.3750340">
        <ele>830.3</ele>
        <time>2019-10-18T14:50:01Z</time>
      </trkpt>
      <trkpt lat="37.0046100" lon="-2.3750330">
        <ele>829.8</ele>
        <time>2019-10-18T14:50:02Z</time>
      </trkpt>
      <trkpt lat="37.0045550" lon="-2.3750270">
        <ele>829.4</ele>
        <time>2019-10-18T14:50:03Z</time>
      </trkpt>
      <trkpt lat="37.0045030" lon="-2.3750100">
        <ele>829.0</ele>
        <time>2019-10-18T14:50:04Z</time>
      </trkpt>
      <trkpt lat="37.0044550" lon="-2.3749790">
        <ele>828.6</ele>
        <time>2019-10-18T14:50:05Z</time>
      </trkpt>
      <trkpt lat="37.0044130" lon="-2.3749350">
        <ele>828.2</ele>
        <time>2019-10-18T14:50:06Z</time>
      </trkpt>
      <trkpt lat="37.0043770" lon="-2.3748790">
        <ele>827.9</ele>
        <time>2019-10-18T14:50:07Z</time>
      </trkpt>
      <trkpt lat="37.0043420" lon="-2.3748170">
        <ele>827.6</ele>
        <time>2019-10-18T14:50:08Z</time>
      </trkpt>
      <trkpt lat="37.0043040" lon="-2.3747530">
        <ele>827.4</ele>
        <time>2019-10-18T14:50:09Z</time>
      </trkpt>
      <trkpt lat="37.0042600" lon="-2.3746970">
        <ele>827.1</ele>
        <time>2019-10-18T14:50:10Z</time>
      </trkpt>
      <trkpt lat="37.0042080" lon="-2.3746500">
        <ele>826.8</ele>
        <time>2019-10-18T14:50:11Z</time>
      </trkpt>
      <trkpt lat="37.0041500" lon="-2.3746170">
        <ele>826.6</ele>
        <time>2019-10-18T14:50:12Z</time>
      </trkpt>
      <trkpt lat="37.0040900" lon="-2.3745950">
        <ele>826.3</ele>
        <time>2019-10-18T14:50:13Z</time>
      </trkpt>
      <trkpt lat="37.0040300" lon="-2.3745790">
        <ele>826.1</ele>
        <time>2019-10-18T14:50:14Z</time>
      </trkpt>
      <trkpt lat="37.0039720" lon="-2.3745630">
        <ele>825.9</ele>
        <time>2019-10-18T14:50:15Z</time>
      </trkpt>
      <trkpt lat="37.0039160" lon="-2.3745410">
        <ele>825.8</ele>
        <time>2019-10-18T14:50:16Z</time>
      </trkpt>
      <trkpt lat="37.0038650" lon="-2.3745140">
        <ele>825.7</ele>
        <time>2019-10-18T14:50:17Z</time>
      </trkpt>
      <trkpt lat="37.0038180" lon="-2.3744840">
        <ele>825.6</ele>
        <time>2019-10-18T14:50:18Z</time>
      </trkpt>
      <trkpt lat="37.0037730" lon="-2.3744610">
        <ele>825.5</ele>
        <time>2019-10-18T14:50:19Z</time>
      </trkpt>
      <trkpt lat="37.0037270" lon="-2.3744550">
        <ele>825.5</ele>
        <time>2019-10-18T14:50:20Z</time>
      </trkpt>
      <trkpt lat="37.0036810" lon="-2.3744690">
        <ele>825.4</ele>
        <time>2019-10-18T14:50:21Z</time>
      </trkpt>
      <trkpt lat="37.0036390" lon="-2.3745030">
        <ele>825.3</ele>
        <time>2019-10-18T14:50:22Z</time>
      </trkpt>
      <trkpt lat="37.0035980" lon="-2.3745460">
        <ele>825.1</ele>
        <time>2019-10-18T14:50:23Z</time>
      </trkpt>
      <trkpt lat="37.0035560" lon="-2.3745950">
        <ele>824.9</ele>
        <time>2019-10-18T14:50:24Z</time>
      </trkpt>
      <trkpt lat="37.0035050" lon="-2.3746370">
        <ele>824.6</ele>
        <time>2019-10-18T14:50:25Z</time>
      </trkpt>
      <trkpt lat="37.0034460" lon="-2.3746740">
        <ele>824.2</ele>
        <time>2019-10-18T14:50:26Z</time>
      </trkpt>
      <trkpt lat="37.0033800" lon="-2.3747020">
        <ele>823.7</ele>
        <time>2019-10-18T14:50:27Z</time>
      </trkpt>
      <trkpt lat="37.0033130" lon="-2.3747280">
        <ele>823.1</ele>
        <time>2019-10-18T14:50:28Z</time>
      </trkpt>
      <trkpt lat="37.0032450" lon="-2.3747570">
        <ele>822.4</ele>
        <time>2019-10-18T14:50:29Z</time>
      </trkpt>
      <trkpt lat="37.0031810" lon="-2.3747930">
        <ele>821.9</ele>
        <time>2019-10-18T14:50:30Z</time>
      </trkpt>
      <trkpt lat="37.0031200" lon="-2.3748330">
        <ele>821.4</ele>
        <time>2019-10-18T14:50:31Z</time>
      </trkpt>
      <trkpt lat="37.0030670" lon="-2.3748750">
        <ele>820.8</ele>
        <time>2019-10-18T14:50:32Z</time>
      </trkpt>
      <trkpt lat="37.0030220" lon="-2.3749170">
        <ele>820.2</ele>
        <time>2019-10-18T14:50:33Z</time>
      </trkpt>
      <trkpt lat="37.0029910" lon="-2.3749620">
        <ele>819.6</ele>
        <time>2019-10-18T14:50:34Z</time>
      </trkpt>
      <trkpt lat="37.0029760" lon="-2.3750140">
        <ele>819.2</ele>
        <time>2019-10-18T14:50:35Z</time>
      </trkpt>
      <trkpt lat="37.0029790" lon="-2.3750680">
        <ele>818.8</ele>
        <time>2019-10-18T14:50:36Z</time>
      </trkpt>
      <trkpt lat="37.0029980" lon="-2.3751160">
        <ele>818.4</ele>
        <time>2019-10-18T14:50:37Z</time>
      </trkpt>
      <trkpt lat="37.0030320" lon="-2.3751440">
        <ele>818.0</ele>
        <time>2019-10-18T14:50:38Z</time>
      </trkpt>
      <trkpt lat="37.0030760" lon="-2.3751510">
        <ele>817.5</ele>
        <time>2019-10-18T14:50:39Z</time>
      </trkpt>
      <trkpt lat="37.0031280" lon="-2.3751410">
        <ele>817.0</ele>
        <time>2019-10-18T14:50:40Z</time>
      </trkpt>
      <trkpt lat="37.0031820" lon="-2.3751270">
        <ele>816.5</ele>
        <time>2019-10-18T14:50:41Z</time>
      </trkpt>
      <trkpt lat="37.0032380" lon="-2.3751210">
        <ele>816.0</ele>
        <time>2019-10-18T14:50:42Z</time>
      </trkpt>
      <trkpt lat="37.0032950" lon="-2.3751270">
        <ele>815.6</ele>
        <time>2019-10-18T14:50:43Z</time>
      </trkpt>
      <trkpt lat="37.0033510" lon="-2.3751470">
        <ele>815.1</ele>
        <time>2019-10-18T14:50:44Z</time>
      </trkpt>
      <trkpt lat="37.0034080" lon="-2.3751750">
        <ele>814.6</ele>
        <time>2019-10-18T14:50:45Z</time>
      </trkpt>
      <trkpt lat="37.0034670" lon="-2.3752000">
        <ele>814.0</ele>
        <time>2019-10-18T14:50:46Z</time>
      </trkpt>
      <trkpt lat="37.0035240" lon="-2.3752110">
        <ele>813.5</ele>
        <time>2019-10-18T14:50:47Z</time>
      </trkpt>
      <trkpt lat="37.0035780" lon="-2.3752050">
        <ele>812.9</ele>
        <time>2019-10-18T14:50:48Z</time>
      </trkpt>
      <trkpt lat="37.0036260" lon="-2.3751850">
        <ele>812.4</ele>
        <time>2019-10-18T14:50:49Z</time>
      </trkpt>
      <trkpt lat="37.0036670" lon="-2.3751630">
        <ele>811.9</ele>
        <time>2019-10-18T14:50:50Z</time>
      </trkpt>
      <trkpt lat="37.0037010" lon="-2.3751500">
        <ele>811.4</ele>
        <time>2019-10-18T14:50:51Z</time>
      </trkpt>
      <trkpt lat="37.0037270" lon="-2.3751480">
        <ele>811.1</ele>
        <time>2019-10-18T14:50:52Z</time>
      </trkpt>
      <trkpt lat="37.0037450" lon="-2.3751570">
        <ele>810.9</ele>
        <time>2019-10-18T14:50:53Z</time>
      </trkpt>
      <trkpt lat="37.0037600" lon="-2.3751790">
        <ele>810.6</ele>
        <time>2019-10-18T14:50:54Z</time>
      </trkpt>
      <trkpt lat="37.0037690" lon="-2.3752110">
        <ele>810.3</ele>
        <time>2019-10-18T14:50:55Z</time>
      </trkpt>
      <trkpt lat="37.0037710" lon="-2.3752520">
        <ele>809.8</ele>
        <time>2019-10-18T14:50:56Z</time>
      </trkpt>
      <trkpt lat="37.0037620" lon="-2.3752950">
        <ele>809.4</ele>
        <time>2019-10-18T14:50:57Z</time>
      </trkpt>
      <trkpt lat="37.0037430" lon="-2.3753370">
        <ele>809.0</ele>
        <time>2019-10-18T14:50:58Z</time>
      </trkpt>
      <trkpt lat="37.0037160" lon="-2.3753750">
        <ele>808.5</ele>
        <time>2019-10-18T14:50:59Z</time>
      </trkpt>
      <trkpt lat="37.0036760" lon="-2.3754060">
        <ele>807.8</ele>
        <time>2019-10-18T14:51:00Z</time>
      </trkpt>
      <trkpt lat="37.0036240" lon="-2.3754280">
        <ele>807.1</ele>
        <time>2019-10-18T14:51:01Z</time>
      </trkpt>
      <trkpt lat="37.0035620" lon="-2.3754410">
        <ele>806.4</ele>
        <time>2019-10-18T14:51:02Z</time>
      </trkpt>
      <trkpt lat="37.0035000" lon="-2.3754510">
        <ele>805.8</ele>
        <time>2019-10-18T14:51:03Z</time>
      </trkpt>
      <trkpt lat="37.0034390" lon="-2.3754630">
        <ele>805.2</ele>
        <time>2019-10-18T14:51:04Z</time>
      </trkpt>
      <trkpt lat="37.0033790" lon="-2.3754830">
        <ele>804.6</ele>
        <time>2019-10-18T14:51:05Z</time>
      </trkpt>
      <trkpt lat="37.0033200" lon="-2.3755120">
        <ele>804.2</ele>
        <time>2019-10-18T14:51:06Z</time>
      </trkpt>
      <trkpt lat="37.0032630" lon="-2.3755500">
        <ele>803.8</ele>
        <time>2019-10-18T14:51:07Z</time>
      </trkpt>
      <trkpt lat="37.0032060" lon="-2.3755960">
        <ele>803.1</ele>
        <time>2019-10-18T14:51:08Z</time>
      </trkpt>
      <trkpt lat="37.0031510" lon="-2.3756470">
        <ele>802.4</ele>
        <time>2019-10-18T14:51:09Z</time>
      </trkpt>
      <trkpt lat="37.0030990" lon="-2.3757010">
        <ele>801.7</ele>
        <time>2019-10-18T14:51:10Z</time>
      </trkpt>
      <trkpt lat="37.0030510" lon="-2.3757580">
        <ele>801.0</ele>
        <time>2019-10-18T14:51:11Z</time>
      </trkpt>
      <trkpt lat="37.0030060" lon="-2.3758150">
        <ele>800.2</ele>
        <time>2019-10-18T14:51:12Z</time>
      </trkpt>
      <trkpt lat="37.0029620" lon="-2.3758700">
        <ele>799.3</ele>
        <time>2019-10-18T14:51:13Z</time>
      </trkpt>
      <trkpt lat="37.0029150" lon="-2.3759190">
        <ele>798.4</ele>
        <time>2019-10-18T14:51:14Z</time>
      </trkpt>
      <trkpt lat="37.0028630" lon="-2.3759570">
        <ele>797.5</ele>
        <time>2019-10-18T14:51:15Z</time>
      </trkpt>
      <trkpt lat="37.0028050" lon="-2.3759850">
        <ele>796.5</ele>
        <time>2019-10-18T14:51:16Z</time>
      </trkpt>
      <trkpt lat="37.0027420" lon="-2.3760060">
        <ele>795.6</ele>
        <time>2019-10-18T14:51:17Z</time>
      </trkpt>
      <trkpt lat="37.0026750" lon="-2.3760210">
        <ele>794.9</ele>
        <time>2019-10-18T14:51:18Z</time>
      </trkpt>
      <trkpt lat="37.0026060" lon="-2.3760310">
        <ele>794.2</ele>
        <time>2019-10-18T14:51:19Z</time>
      </trkpt>
      <trkpt lat="37.0025370" lon="-2.3760360">
        <ele>793.5</ele>
        <time>2019-10-18T14:51:20Z</time>
      </trkpt>
      <trkpt lat="37.0024700" lon="-2.3760370">
        <ele>792.8</ele>
        <time>2019-10-18T14:51:21Z</time>
      </trkpt>
      <trkpt lat="37.0024060" lon="-2.3760340">
        <ele>792.1</ele>
        <time>2019-10-18T14:51:22Z</time>
      </trkpt>
      <trkpt lat="37.0023460" lon="-2.3760260">
        <ele>791.4</ele>
        <time>2019-10-18T14:51:23Z</time>
      </trkpt>
      <trkpt lat="37.0022890" lon="-2.3760220">
        <ele>790.7</ele>
        <time>2019-10-18T14:51:24Z</time>
      </trkpt>
      <trkpt lat="37.0022360" lon="-2.3760290">
        <ele>790.1</ele>
        <time>2019-10-18T14:51:25Z</time>
      </trkpt>
      <trkpt lat="37.0021880" lon="-2.3760480">
        <ele>789.5</ele>
        <time>2019-10-18T14:51:26Z</time>
      </trkpt>
      <trkpt lat="37.0021480" lon="-2.3760790">
        <ele>788.8</ele>
        <time>2019-10-18T14:51:27Z</time>
      </trkpt>
      <trkpt lat="37.0021170" lon="-2.3761220">
        <ele>788.2</ele>
        <time>2019-10-18T14:51:28Z</time>
      </trkpt>
      <trkpt lat="37.0021020" lon="-2.3761750">
        <ele>787.5</ele>
        <time>2019-10-18T14:51:29Z</time>
      </trkpt>
      <trkpt lat="37.0021040" lon="-2.3762360">
        <ele>786.9</ele>
        <time>2019-10-18T14:51:30Z</time>
      </trkpt>
      <trkpt lat="37.0021210" lon="-2.3762880">
        <ele>786.5</ele>
        <time>2019-10-18T14:51:31Z</time>
      </trkpt>
      <trkpt lat="37.0021510" lon="-2.3763190">
        <ele>786.0</ele>
        <time>2019-10-18T14:51:32Z</time>
      </trkpt>
      <trkpt lat="37.0021910" lon="-2.3763240">
        <ele>785.6</ele>
        <time>2019-10-18T14:51:33Z</time>
      </trkpt>
      <trkpt lat="37.0022350" lon="-2.3763150">
        <ele>785.2</ele>
        <time>2019-10-18T14:51:34Z</time>
      </trkpt>
      <trkpt lat="37.0022800" lon="-2.3763070">
        <ele>784.6</ele>
        <time>2019-10-18T14:51:35Z</time>
      </trkpt>
      <trkpt lat="37.0023250" lon="-2.3763100">
        <ele>784.0</ele>
        <time>2019-10-18T14:51:36Z</time>
      </trkpt>
      <trkpt lat="37.0023660" lon="-2.3763260">
        <ele>783.4</ele>
        <time>2019-10-18T14:51:37Z</time>
      </trkpt>
      <trkpt lat="37.0024020" lon="-2.3763570">
        <ele>782.8</ele>
        <time>2019-10-18T14:51:38Z</time>
      </trkpt>
      <trkpt lat="37.0024350" lon="-2.3763990">
        <ele>782.1</ele>
        <time>2019-10-18T14:51:39Z</time>
      </trkpt>
      <trkpt lat="37.0024690" lon="-2.3764490">
        <ele>781.4</ele>
        <time>2019-10-18T14:51:40Z</time>
      </trkpt>
      <trkpt lat="37.0025100" lon="-2.3764960">
        <ele>780.6</ele>
        <time>2019-10-18T14:51:41Z</time>
      </trkpt>
      <trkpt lat="37.0025590" lon="-2.3765350">
        <ele>780.1</ele>
        <time>2019-10-18T14:51:42Z</time>
      </trkpt>
      <trkpt lat="37.0026170" lon="-2.3765610">
        <ele>779.5</ele>
        <time>2019-10-18T14:51:43Z</time>
      </trkpt>
      <trkpt lat="37.0026790" lon="-2.3765770">
        <ele>778.9</ele>
        <time>2019-10-18T14:51:44Z</time>
      </trkpt>
      <trkpt lat="37.0027430" lon="-2.3765880">
        <ele>778.3</ele>
        <time>2019-10-18T14:51:45Z</time>
      </trkpt>
      <trkpt lat="37.0028070" lon="-2.3766030">
        <ele>777.7</ele>
        <time>2019-10-18T14:51:46Z</time>
      </trkpt>
      <trkpt lat="37.0028720" lon="-2.3766240">
        <ele>777.2</ele>
        <time>2019-10-18T14:51:47Z</time>
      </trkpt>
      <trkpt lat="37.0029390" lon="-2.3766460">
        <ele>776.6</ele>
        <time>2019-10-18T14:51:48Z</time>
      </trkpt>
      <trkpt lat="37.0030070" lon="-2.3766630">
        <ele>776.0</ele>
        <time>2019-10-18T14:51:49Z</time>
      </trkpt>
      <trkpt lat="37.0030750" lon="-2.3766690">
        <ele>775.4</ele>
        <time>2019-10-18T14:51:50Z</time>
      </trkpt>
      <trkpt lat="37.0031430" lon="-2.3766630">
        <ele>774.7</ele>
        <time>2019-10-18T14:51:51Z</time>
      </trkpt>
      <trkpt lat="37.0032110" lon="-2.3766470">
        <ele>773.9</ele>
        <time>2019-10-18T14:51:52Z</time>
      </trkpt>
      <trkpt lat="37.0032780" lon="-2.3766240">
        <ele>773.2</ele>
        <time>2019-10-18T14:51:53Z</time>
      </trkpt>
      <trkpt lat="37.0033410" lon="-2.3766010">
        <ele>772.3</ele>
        <time>2019-10-18T14:51:54Z</time>
      </trkpt>
      <trkpt lat="37.0033980" lon="-2.3765810">
        <ele>771.6</ele>
        <time>2019-10-18T14:51:55Z</time>
      </trkpt>
      <trkpt lat="37.0034490" lon="-2.3765660">
        <ele>770.9</ele>
        <time>2019-10-18T14:51:56Z</time>
      </trkpt>
      <trkpt lat="37.0034940" lon="-2.3765590">
        <ele>770.4</ele>
        <time>2019-10-18T14:51:57Z</time>
      </trkpt>
      <trkpt lat="37.0035380" lon="-2.3765610">
        <ele>769.9</ele>
        <time>2019-10-18T14:51:58Z</time>
      </trkpt>
      <trkpt lat="37.0035790" lon="-2.3765710">
        <ele>769.4</ele>
        <time>2019-10-18T14:51:59Z</time>
      </trkpt>
      <trkpt lat="37.0036220" lon="-2.3765860">
        <ele>768.9</ele>
        <time>2019-10-18T14:52:00Z</time>
      </trkpt>
      <trkpt lat="37.0036690" lon="-2.3766060">
        <ele>768.3</ele>
        <time>2019-10-18T14:52:01Z</time>
      </trkpt>
      <trkpt lat="37.0037230" lon="-2.3766250">
        <ele>767.7</ele>
        <time>2019-10-18T14:52:02Z</time>
      </trkpt>
      <trkpt lat="37.0037820" lon="-2.3766410">
        <ele>767.1</ele>
        <time>2019-10-18T14:52:03Z</time>
      </trkpt>
      <trkpt lat="37.0038420" lon="-2.3766480">
        <ele>766.5</ele>
        <time>2019-10-18T14:52:04Z</time>
      </trkpt>
      <trkpt lat="37.0038980" lon="-2.3766540">
        <ele>765.9</ele>
        <time>2019-10-18T14:52:05Z</time>
      </trkpt>
      <trkpt lat="37.0039480" lon="-2.3766620">
        <ele>765.3</ele>
        <time>2019-10-18T14:52:06Z</time>
      </trkpt>
      <trkpt lat="37.0039890" lon="-2.3766780">
        <ele>764.8</ele>
        <time>2019-10-18T14:52:07Z</time>
      </trkpt>
      <trkpt lat="37.0040220" lon="-2.3767060">
        <ele>764.4</ele>
        <time>2019-10-18T14:52:08Z</time>
      </trkpt>
      <trkpt lat="37.0040480" lon="-2.3767470">
        <ele>763.9</ele>
        <time>2019-10-18T14:52:09Z</time>
      </trkpt>
      <trkpt lat="37.0040690" lon="-2.3768030">
        <ele>763.5</ele>
        <time>2019-10-18T14:52:10Z</time>
      </trkpt>
      <trkpt lat="37.0040880" lon="-2.3768670">
        <ele>762.9</ele>
        <time>2019-10-18T14:52:11Z</time>
      </trkpt>
      <trkpt lat="37.0041100" lon="-2.3769350">
        <ele>762.3</ele>
        <time>2019-10-18T14:52:12Z</time>
      </trkpt>
      <trkpt lat="37.0041410" lon="-2.3770000">
        <ele>761.8</ele>
        <time>2019-10-18T14:52:13Z</time>
      </trkpt>
      <trkpt lat="37.0041820" lon="-2.3770600">
        <ele>761.2</ele>
        <time>2019-10-18T14:52:14Z</time>
      </trkpt>
      <trkpt lat="37.0042280" lon="-2.3771150">
        <ele>760.7</ele>
        <time>2019-10-18T14:52:15Z</time>
      </trkpt>
      <trkpt lat="37.0042780" lon="-2.3771640">
        <ele>760.1</ele>
        <time>2019-10-18T14:52:16Z</time>
      </trkpt>
      <trkpt lat="37.0043290" lon="-2.3772050">
        <ele>759.4</ele>
        <time>2019-10-18T14:52:17Z</time>
      </trkpt>
      <trkpt lat="37.0043790" lon="-2.3772320">
        <ele>758.9</ele>
        <time>2019-10-18T14:52:18Z</time>
      </trkpt>
      <trkpt lat="37.0044300" lon="-2.3772440">
        <ele>758.3</ele>
        <time>2019-10-18T14:52:19Z</time>
      </trkpt>
      <trkpt lat="37.0044790" lon="-2.3772420">
        <ele>757.8</ele>
        <time>2019-10-18T14:52:20Z</time>
      </trkpt>
      <trkpt lat="37.0045270" lon="-2.3772290">
        <ele>757.3</ele>
        <time>2019-10-18T14:52:21Z</time>
      </trkpt>
      <trkpt lat="37.0045740" lon="-2.3772060">
        <ele>756.9</ele>
        <time>2019-10-18T14:52:22Z</time>
      </trkpt>
      <trkpt lat="37.0046180" lon="-2.3771750">
        <ele>756.3</ele>
        <time>2019-10-18T14:52:23Z</time>
      </trkpt>
      <trkpt lat="37.0046580" lon="-2.3771400">
        <ele>755.8</ele>
        <time>2019-10-18T14:52:24Z</time>
      </trkpt>
      <trkpt lat="37.0046960" lon="-2.3771060">
        <ele>755.4</ele>
        <time>2019-10-18T14:52:25Z</time>
      </trkpt>
      <trkpt lat="37.0047310" lon="-2.3770810">
        <ele>755.0</ele>
        <time>2019-10-18T14:52:26Z</time>
      </trkpt>
      <trkpt lat="37.0047650" lon="-2.3770670">
        <ele>754.7</ele>
        <time>2019-10-18T14:52:27Z</time>
      </trkpt>
      <trkpt lat="37.0047980" lon="-2.3770650">
        <ele>754.3</ele>
        <time>2019-10-18T14:52:28Z</time>
      </trkpt>
      <trkpt lat="37.0048290" lon="-2.3770750">
        <ele>753.9</ele>
        <time>2019-10-18T14:52:29Z</time>
      </trkpt>
      <trkpt lat="37.0048600" lon="-2.3771000">
        <ele>753.6</ele>
        <time>2019-10-18T14:52:30Z</time>
      </trkpt>
      <trkpt lat="37.0048870" lon="-2.3771380">
        <ele>753.2</ele>
        <time>2019-10-18T14:52:31Z</time>
      </trkpt>
      <trkpt lat="37.0049150" lon="-2.3771880">
        <ele>752.7</ele>
        <time>2019-10-18T14:52:32Z</time>
      </trkpt>
      <trkpt lat="37.0049440" lon="-2.3772420">
        <ele>752.1</ele>
        <time>2019-10-18T14:52:33Z</time>
      </trkpt>
      <trkpt lat="37.0049740" lon="-2.3772990">
        <ele>751.5</ele>
        <time>2019-10-18T14:52:34Z</time>
      </trkpt>
      <trkpt lat="37.0050030" lon="-2.3773500">
        <ele>751.0</ele>
        <time>2019-10-18T14:52:35Z</time>
      </trkpt>
      <trkpt lat="37.0050300" lon="-2.3773960">
        <ele>750.5</ele>
        <time>2019-10-18T14:52:36Z</time>
      </trkpt>
      <trkpt lat="37.0050550" lon="-2.3774340">
        <ele>750.1</ele>
        <time>2019-10-18T14:52:37Z</time>
      </trkpt>
      <trkpt lat="37.0050800" lon="-2.3774660">
        <ele>749.7</ele>
        <time>2019-10-18T14:52:38Z</time>
      </trkpt>
      <trkpt lat="37.0051050" lon="-2.3774950">
        <ele>749.3</ele>
        <time>2019-10-18T14:52:39Z</time>
      </trkpt>
      <trkpt lat="37.0051350" lon="-2.3775190">
        <ele>748.9</ele>
        <time>2019-10-18T14:52:40Z</time>
      </trkpt>
      <trkpt lat="37.0051690" lon="-2.3775380">
        <ele>748.4</ele>
        <time>2019-10-18T14:52:41Z</time>
      </trkpt>
      <trkpt lat="37.0052070" lon="-2.3775450">
        <ele>747.9</ele>
        <time>2019-10-18T14:52:42Z</time>
      </trkpt>
      <trkpt lat="37.0052470" lon="-2.3775440">
        <ele>747.4</ele>
        <time>2019-10-18T14:52:43Z</time>
      </trkpt>
      <trkpt lat="37.0052880" lon="-2.3775360">
        <ele>746.8</ele>
        <time>2019-10-18T14:52:44Z</time>
      </trkpt>
      <trkpt lat="37.0053290" lon="-2.3775270">
        <ele>746.3</ele>
        <time>2019-10-18T14:52:45Z</time>
      </trkpt>
      <trkpt lat="37.0053710" lon="-2.3775160">
        <ele>745.8</ele>
        <time>2019-10-18T14:52:46Z</time>
      </trkpt>
      <trkpt lat="37.0054120" lon="-2.3775060">
        <ele>745.3</ele>
        <time>2019-10-18T14:52:47Z</time>
      </trkpt>
      <trkpt lat="37.0054530" lon="-2.3774980">
        <ele>744.8</ele>
        <time>2019-10-18T14:52:48Z</time>
      </trkpt>
      <trkpt lat="37.0054950" lon="-2.3774960">
        <ele>744.4</ele>
        <time>2019-10-18T14:52:49Z</time>
      </trkpt>
      <trkpt lat="37.0055360" lon="-2.3775050">
        <ele>743.9</ele>
        <time>2019-10-18T14:52:50Z</time>
      </trkpt>
      <trkpt lat="37.0055720" lon="-2.3775240">
        <ele>743.5</ele>
        <time>2019-10-18T14:52:51Z</time>
      </trkpt>
      <trkpt lat="37.0056020" lon="-2.3775540">
        <ele>743.0</ele>
        <time>2019-10-18T14:52:52Z</time>
      </trkpt>
      <trkpt lat="37.0056270" lon="-2.3775900">
        <ele>742.6</ele>
        <time>2019-10-18T14:52:53Z</time>
      </trkpt>
      <trkpt lat="37.0056490" lon="-2.3776300">
        <ele>742.2</ele>
        <time>2019-10-18T14:52:54Z</time>
      </trkpt>
      <trkpt lat="37.0056720" lon="-2.3776710">
        <ele>741.7</ele>
        <time>2019-10-18T14:52:55Z</time>
      </trkpt>
      <trkpt lat="37.0057000" lon="-2.3777120">
        <ele>741.2</ele>
        <time>2019-10-18T14:52:56Z</time>
      </trkpt>
      <trkpt lat="37.0057360" lon="-2.3777510">
        <ele>740.6</ele>
        <time>2019-10-18T14:52:57Z</time>
      </trkpt>
      <trkpt lat="37.0057790" lon="-2.3777830">
        <ele>740.0</ele>
        <time>2019-10-18T14:52:58Z</time>
      </trkpt>
      <trkpt lat="37.0058260" lon="-2.3778070">
        <ele>739.4</ele>
        <time>2019-10-18T14:52:59Z</time>
      </trkpt>
      <trkpt lat="37.0058780" lon="-2.3778160">
        <ele>738.8</ele>
        <time>2019-10-18T14:53:00Z</time>
      </trkpt>
      <trkpt lat="37.0059360" lon="-2.3778110">
        <ele>738.1</ele>
        <time>2019-10-18T14:53:01Z</time>
      </trkpt>
      <trkpt lat="37.0059990" lon="-2.3777930">
        <ele>737.4</ele>
        <time>2019-10-18T14:53:02Z</time>
      </trkpt>
      <trkpt lat="37.0060630" lon="-2.3777730">
        <ele>736.8</ele>
        <time>2019-10-18T14:53:03Z</time>
      </trkpt>
      <trkpt lat="37.0061250" lon="-2.3777500">
        <ele>736.1</ele>
        <time>2019-10-18T14:53:04Z</time>
      </trkpt>
      <trkpt lat="37.0061860" lon="-2.3777250">
        <ele>735.5</ele>
        <time>2019-10-18T14:53:05Z</time>
      </trkpt>
      <trkpt lat="37.0062450" lon="-2.3776980">
        <ele>734.8</ele>
        <time>2019-10-18T14:53:06Z</time>
      </trkpt>
      <trkpt lat="37.0063020" lon="-2.3776710">
        <ele>734.1</ele>
        <time>2019-10-18T14:53:07Z</time>
      </trkpt>
      <trkpt lat="37.0063580" lon="-2.3776450">
        <ele>733.3</ele>
        <time>2019-10-18T14:53:08Z</time>
      </trkpt>
      <trkpt lat="37.0064130" lon="-2.3776270">
        <ele>732.5</ele>
        <time>2019-10-18T14:53:09Z</time>
      </trkpt>
      <trkpt lat="37.0064650" lon="-2.3776200">
        <ele>731.8</ele>
        <time>2019-10-18T14:53:10Z</time>
      </trkpt>
      <trkpt lat="37.0065110" lon="-2.3776260">
        <ele>731.2</ele>
        <time>2019-10-18T14:53:11Z</time>
      </trkpt>
      <trkpt lat="37.0065500" lon="-2.3776450">
        <ele>730.6</ele>
        <time>2019-10-18T14:53:12Z</time>
      </trkpt>
      <trkpt lat="37.0065790" lon="-2.3776760">
        <ele>730.1</ele>
        <time>2019-10-18T14:53:13Z</time>
      </trkpt>
      <trkpt lat="37.0065990" lon="-2.3777220">
        <ele>729.5</ele>
        <time>2019-10-18T14:53:14Z</time>
      </trkpt>
      <trkpt lat="37.0066130" lon="-2.3777810">
        <ele>728.9</ele>
        <time>2019-10-18T14:53:15Z</time>
      </trkpt>
      <trkpt lat="37.0066270" lon="-2.3778450">
        <ele>728.3</ele>
        <time>2019-10-18T14:53:16Z</time>
      </trkpt>
      <trkpt lat="37.0066370" lon="-2.3779070">
        <ele>727.8</ele>
        <time>2019-10-18T14:53:17Z</time>
      </trkpt>
      <trkpt lat="37.0066380" lon="-2.3779700">
        <ele>727.4</ele>
        <time>2019-10-18T14:53:18Z</time>
      </trkpt>
      <trkpt lat="37.0066260" lon="-2.3780320">
        <ele>727.0</ele>
        <time>2019-10-18T14:53:19Z</time>
      </trkpt>
      <trkpt lat="37.0066050" lon="-2.3780860">
        <ele>726.6</ele>
        <time>2019-10-18T14:53:20Z</time>
      </trkpt>
      <trkpt lat="37.0065860" lon="-2.3781240">
        <ele>726.3</ele>
        <time>2019-10-18T14:53:21Z</time>
      </trkpt>
      <trkpt lat="37.0065720" lon="-2.3781480">
        <ele>726.1</ele>
        <time>2019-10-18T14:53:22Z</time>
      </trkpt>
      <trkpt lat="37.0065650" lon="-2.3781630">
        <ele>726.0</ele>
        <time>2019-10-18T14:53:23Z</time>
      </trkpt>
      <trkpt lat="37.0065640" lon="-2.3781720">
        <ele>726.0</ele>
        <time>2019-10-18T14:53:24Z</time>
      </trkpt>
      <trkpt lat="37.0065650" lon="-2.3781780">
        <ele>726.0</ele>
        <time>2019-10-18T14:53:25Z</time>
      </trkpt>
      <trkpt lat="37.0065570" lon="-2.3782060">
        <ele>725.8</ele>
        <time>2019-10-18T14:53:26Z</time>
      </trkpt>
      <trkpt lat="37.0065460" lon="-2.3782310">
        <ele>725.7</ele>
        <time>2019-10-18T14:53:27Z</time>
      </trkpt>
      <trkpt lat="37.0065360" lon="-2.3782560">
        <ele>725.5</ele>
        <time>2019-10-18T14:53:28Z</time>
      </trkpt>
      <trkpt lat="37.0065250" lon="-2.3782810">
        <ele>725.3</ele>
        <time>2019-10-18T14:53:29Z</time>
      </trkpt>
      <trkpt lat="37.0065150" lon="-2.3783060">
        <ele>725.2</ele>
        <time>2019-10-18T14:53:30Z</time>
      </trkpt>
      <trkpt lat="37.0065050" lon="-2.3783320">
        <ele>725.0</ele>
        <time>2019-10-18T14:53:31Z</time>
      </trkpt>
      <trkpt lat="37.0064940" lon="-2.3783570">
        <ele>724.9</ele>
        <time>2019-10-18T14:53:32Z</time>
      </trkpt>
      <trkpt lat="37.0064840" lon="-2.3783820">
        <ele>724.8</ele>
        <time>2019-10-18T14:53:33Z</time>
      </trkpt>
      <trkpt lat="37.0064730" lon="-2.3784070">
        <ele>724.6</ele>
        <time>2019-10-18T14:53:34Z</time>
      </trkpt>
      <trkpt lat="37.0064630" lon="-2.3784320">
        <ele>724.5</ele>
        <time>2019-10-18T14:53:35Z</time>
      </trkpt>
      <trkpt lat="37.0064520" lon="-2.3784570">
        <ele>724.3</ele>
        <time>2019-10-18T14:53:36Z</time>
      </trkpt>
      <trkpt lat="37.0064420" lon="-2.3784820">
        <ele>724.2</ele>
        <time>2019-10-18T14:53:37Z</time>
      </trkpt>
      <trkpt lat="37.0064150" lon="-2.3785440">
        <ele>723.8</ele>
        <time>2019-10-18T14:53:38Z</time>
      </trkpt>
      <trkpt lat="37.0063900" lon="-2.3786080">
        <ele>723.3</ele>
        <time>2019-10-18T14:53:39Z</time>
      </trkpt>
      <trkpt lat="37.0063710" lon="-2.3786720">
        <ele>722.9</ele>
        <time>2019-10-18T14:53:40Z</time>
      </trkpt>
      <trkpt lat="37.0063610" lon="-2.3787390">
        <ele>722.3</ele>
        <time>2019-10-18T14:53:41Z</time>
      </trkpt>
      <trkpt lat="37.0063610" lon="-2.3788070">
        <ele>721.6</ele>
        <time>2019-10-18T14:53:42Z</time>
      </trkpt>
      <trkpt lat="37.0063730" lon="-2.3788740">
        <ele>720.9</ele>
        <time>2019-10-18T14:53:43Z</time>
      </trkpt>
      <trkpt lat="37.0063950" lon="-2.3789380">
        <ele>720.2</ele>
        <time>2019-10-18T14:53:44Z</time>
      </trkpt>
      <trkpt lat="37.0064250" lon="-2.3789940">
        <ele>719.6</ele>
        <time>2019-10-18T14:53:45Z</time>
      </trkpt>
      <trkpt lat="37.0064610" lon="-2.3790430">
        <ele>718.9</ele>
        <time>2019-10-18T14:53:46Z</time>
      </trkpt>
      <trkpt lat="37.0065060" lon="-2.3790860">
        <ele>718.3</ele>
        <time>2019-10-18T14:53:47Z</time>
      </trkpt>
      <trkpt lat="37.0065590" lon="-2.3791240">
        <ele>717.5</ele>
        <time>2019-10-18T14:53:48Z</time>
      </trkpt>
      <trkpt lat="37.0066170" lon="-2.3791600">
        <ele>716.8</ele>
        <time>2019-10-18T14:53:49Z</time>
      </trkpt>
      <trkpt lat="37.0066780" lon="-2.3791930">
        <ele>716.0</ele>
        <time>2019-10-18T14:53:50Z</time>
      </trkpt>
      <trkpt lat="37.0067350" lon="-2.3792250">
        <ele>715.3</ele>
        <time>2019-10-18T14:53:51Z</time>
      </trkpt>
      <trkpt lat="37.0067880" lon="-2.3792590">
        <ele>714.7</ele>
        <time>2019-10-18T14:53:52Z</time>
      </trkpt>
      <trkpt lat="37.0068360" lon="-2.3792960">
        <ele>714.1</ele>
        <time>2019-10-18T14:53:53Z</time>
      </trkpt>
      <trkpt lat="37.0068790" lon="-2.3793360">
        <ele>713.5</ele>
        <time>2019-10-18T14:53:54Z</time>
      </trkpt>
      <trkpt lat="37.0069160" lon="-2.3793810">
        <ele>713.0</ele>
        <time>2019-10-18T14:53:55Z</time>
      </trkpt>
      <trkpt lat="37.0069500" lon="-2.3794300">
        <ele>712.3</ele>
        <time>2019-10-18T14:53:56Z</time>
      </trkpt>
      <trkpt lat="37.0069840" lon="-2.3794770">
        <ele>711.8</ele>
        <time>2019-10-18T14:53:57Z</time>
      </trkpt>
      <trkpt lat="37.0070230" lon="-2.3795160">
        <ele>711.3</ele>
        <time>2019-10-18T14:53:58Z</time>
      </trkpt>
      <trkpt lat="37.0070660" lon="-2.3795520">
        <ele>710.8</ele>
        <time>2019-10-18T14:53:59Z</time>
      </trkpt>
      <trkpt lat="37.0071100" lon="-2.3795870">
        <ele>710.2</ele>
        <time>2019-10-18T14:54:00Z</time>
      </trkpt>
      <trkpt lat="37.0071530" lon="-2.3796240">
        <ele>709.5</ele>
        <time>2019-10-18T14:54:01Z</time>
      </trkpt>
      <trkpt lat="37.0071940" lon="-2.3796650">
        <ele>708.7</ele>
        <time>2019-10-18T14:54:02Z</time>
      </trkpt>
      <trkpt lat="37.0072290" lon="-2.3797150">
        <ele>708.0</ele>
        <time>2019-10-18T14:54:03Z</time>
      </trkpt>
      <trkpt lat="37.0072580" lon="-2.3797760">
        <ele>707.2</ele>
        <time>2019-10-18T14:54:04Z</time>
      </trkpt>
      <trkpt lat="37.0072830" lon="-2.3798500">
        <ele>706.4</ele>
        <time>2019-10-18T14:54:05Z</time>
      </trkpt>
      <trkpt lat="37.0073070" lon="-2.3799320">
        <ele>705.6</ele>
        <time>2019-10-18T14:54:06Z</time>
      </trkpt>
      <trkpt lat="37.0073350" lon="-2.3800200">
        <ele>704.8</ele>
        <time>2019-10-18T14:54:07Z</time>
      </trkpt>
      <trkpt lat="37.0073680" lon="-2.3801110">
        <ele>703.9</ele>
        <time>2019-10-18T14:54:08Z</time>
      </trkpt>
      <trkpt lat="37.0074080" lon="-2.3802070">
        <ele>703.0</ele>
        <time>2019-10-18T14:54:09Z</time>
      </trkpt>
      <trkpt lat="37.0074530" lon="-2.3803050">
        <ele>702.0</ele>
        <time>2019-10-18T14:54:10Z</time>
      </trkpt>
      <trkpt lat="37.0075030" lon="-2.3804040">
        <ele>701.0</ele>
        <time>2019-10-18T14:54:11Z</time>
      </trkpt>
      <trkpt lat="37.0075560" lon="-2.3805050">
        <ele>699.8</ele>
        <time>2019-10-18T14:54:12Z</time>
      </trkpt>
      <trkpt lat="37.0076120" lon="-2.3806080">
        <ele>698.5</ele>
        <time>2019-10-18T14:54:13Z</time>
      </trkpt>
      <trkpt lat="37.0076700" lon="-2.3807130">
        <ele>697.2</ele>
        <time>2019-10-18T14:54:14Z</time>
      </trkpt>
      <trkpt lat="37.0077310" lon="-2.3808190">
        <ele>696.0</ele>
        <time>2019-10-18T14:54:15Z</time>
      </trkpt>
      <trkpt lat="37.0077950" lon="-2.3809230">
        <ele>695.2</ele>
        <time>2019-10-18T14:54:16Z</time>
      </trkpt>
      <trkpt lat="37.0078600" lon="-2.3810240">
        <ele>694.5</ele>
        <time>2019-10-18T14:54:17Z</time>
      </trkpt>
      <trkpt lat="37.0079260" lon="-2.3811210">
        <ele>693.8</ele>
        <time>2019-10-18T14:54:18Z</time>
      </trkpt>
      <trkpt lat="37.0079920" lon="-2.3812110">
        <ele>692.7</ele>
        <time>2019-10-18T14:54:19Z</time>
      </trkpt>
      <trkpt lat="37.0080540" lon="-2.3812930">
        <ele>691.6</ele>
        <time>2019-10-18T14:54:20Z</time>
      </trkpt>
      <trkpt lat="37.0081100" lon="-2.3813650">
        <ele>690.7</ele>
        <time>2019-10-18T14:54:21Z</time>
      </trkpt>
      <trkpt lat="37.0081560" lon="-2.3814260">
        <ele>689.8</ele>
        <time>2019-10-18T14:54:22Z</time>
      </trkpt>
      <trkpt lat="37.0081960" lon="-2.3814780">
        <ele>689.1</ele>
        <time>2019-10-18T14:54:23Z</time>
      </trkpt>
      <trkpt lat="37.0082330" lon="-2.3815220">
        <ele>688.5</ele>
        <time>2019-10-18T14:54:24Z</time>
      </trkpt>
      <trkpt lat="37.0082720" lon="-2.3815580">
        <ele>687.9</ele>
        <time>2019-10-18T14:54:25Z</time>
      </trkpt>
      <trkpt lat="37.0083100" lon="-2.3815870">
        <ele>687.3</ele>
        <time>2019-10-18T14:54:26Z</time>
      </trkpt>
      <trkpt lat="37.0083490" lon="-2.3816090">
        <ele>686.7</ele>
        <time>2019-10-18T14:54:27Z</time>
      </trkpt>
      <trkpt lat="37.0083850" lon="-2.3816250">
        <ele>686.2</ele>
        <time>2019-10-18T14:54:28Z</time>
      </trkpt>
      <trkpt lat="37.0084170" lon="-2.3816310">
        <ele>685.8</ele>
        <time>2019-10-18T14:54:29Z</time>
      </trkpt>
      <trkpt lat="37.0084440" lon="-2.3816300">
        <ele>685.4</ele>
        <time>2019-10-18T14:54:30Z</time>
      </trkpt>
      <trkpt lat="37.0084660" lon="-2.3816240">
        <ele>685.1</ele>
        <time>2019-10-18T14:54:31Z</time>
      </trkpt>
      <trkpt lat="37.0084830" lon="-2.3816190">
        <ele>684.8</ele>
        <time>2019-10-18T14:54:32Z</time>
      </trkpt>
      <trkpt lat="37.0084920" lon="-2.3816140">
        <ele>684.7</ele>
        <time>2019-10-18T14:54:33Z</time>
      </trkpt>
      <trkpt lat="37.0084970" lon="-2.3816120">
        <ele>684.6</ele>
        <time>2019-10-18T14:54:34Z</time>
      </trkpt>
      <trkpt lat="37.0084990" lon="-2.3816100">
        <ele>684.6</ele>
        <time>2019-10-18T14:54:35Z</time>
      </trkpt>
      <trkpt lat="37.0084990" lon="-2.3816100">
        <ele>684.6</ele>
        <time>2019-10-18T14:54:36Z</time>
      </trkpt>
      <trkpt lat="37.0085000" lon="-2.3816100">
        <ele>684.5</ele>
        <time>2019-10-18T14:54:37Z</time>
      </trkpt>
      <trkpt lat="37.0084990" lon="-2.3816100">
        <ele>684.5</ele>
        <time>2019-10-18T14:54:38Z</time>
      </trkpt>
      <trkpt lat="37.0084990" lon="-2.3816100">
        <ele>684.5</ele>
        <time>2019-10-18T14:54:39Z</time>
      </trkpt>
      <trkpt lat="37.0084990" lon="-2.3816100">
        <ele>684.5</ele>
        <time>2019-10-18T14:54:40Z</time>
      </trkpt>
      <trkpt lat="37.0084990" lon="-2.3816110">
        <ele>684.5</ele>
        <time>2019-10-18T14:54:41Z</time>
      </trkpt>
      <trkpt lat="37.0084990" lon="-2.3816110">
        <ele>684.5</ele>
        <time>2019-10-18T14:54:42Z</time>
      </trkpt>
      <trkpt lat="37.0085000" lon="-2.3816120">
        <ele>684.5</ele>
        <time>2019-10-18T14:54:43Z</time>
      </trkpt>
      <trkpt lat="37.0085000" lon="-2.3816120">
        <ele>684.5</ele>
        <time>2019-10-18T14:54:44Z</time>
      </trkpt>
      <trkpt lat="37.0085010" lon="-2.3816120">
        <ele>684.5</ele>
        <time>2019-10-18T14:54:45Z</time>
      </trkpt>
      <trkpt lat="37.0085020" lon="-2.3816130">
        <ele>684.5</ele>
        <time>2019-10-18T14:54:46Z</time>
      </trkpt>
      <trkpt lat="37.0085040" lon="-2.3816140">
        <ele>684.4</ele>
        <time>2019-10-18T14:54:47Z</time>
      </trkpt>
      <trkpt lat="37.0085050" lon="-2.3816150">
        <ele>684.4</ele>
        <time>2019-10-18T14:54:48Z</time>
      </trkpt>
      <trkpt lat="37.0085060" lon="-2.3816150">
        <ele>684.4</ele>
        <time>2019-10-18T14:54:49Z</time>
      </trkpt>
      <trkpt lat="37.0085050" lon="-2.3816150">
        <ele>684.4</ele>
        <time>2019-10-18T14:54:50Z</time>
      </trkpt>
      <trkpt lat="37.0085050" lon="-2.3816140">
        <ele>684.4</ele>
        <time>2019-10-18T14:54:51Z</time>
      </trkpt>
      <trkpt lat="37.0085040" lon="-2.3816120">
        <ele>684.4</ele>
        <time>2019-10-18T14:54:52Z</time>
      </trkpt>
      <trkpt lat="37.0085030" lon="-2.3816110">
        <ele>684.3</ele>
        <time>2019-10-18T14:54:53Z</time>
      </trkpt>
      <trkpt lat="37.0085030" lon="-2.3816100">
        <ele>684.3</ele>
        <time>2019-10-18T14:54:54Z</time>
      </trkpt>
      <trkpt lat="37.0085030" lon="-2.3816100">
        <ele>684.3</ele>
        <time>2019-10-18T14:54:55Z</time>
      </trkpt>
      <trkpt lat="37.0085020" lon="-2.3816090">
        <ele>684.3</ele>
        <time>2019-10-18T14:54:56Z</time>
      </trkpt>
      <trkpt lat="37.0085010" lon="-2.3816080">
        <ele>684.3</ele>
        <time>2019-10-18T14:54:57Z</time>
      </trkpt>
      <trkpt lat="37.0085010" lon="-2.3816070">
        <ele>684.3</ele>
        <time>2019-10-18T14:54:58Z</time>
      </trkpt>
      <trkpt lat="37.0085000" lon="-2.3816060">
        <ele>684.3</ele>
        <time>2019-10-18T14:54:59Z</time>
      </trkpt>
      <trkpt lat="37.0085000" lon="-2.3816050">
        <ele>684.3</ele>
        <time>2019-10-18T14:55:00Z</time>
      </trkpt>
      <trkpt lat="37.0084990" lon="-2.3816040">
        <ele>684.3</ele>
        <time>2019-10-18T14:55:01Z</time>
      </trkpt>
      <trkpt lat="37.0084990" lon="-2.3816030">
        <ele>684.3</ele>
        <time>2019-10-18T14:55:02Z</time>
      </trkpt>
      <trkpt lat="37.0084980" lon="-2.3816030">
        <ele>684.3</ele>
        <time>2019-10-18T14:55:03Z</time>
      </trkpt>
      <trkpt lat="37.0084980" lon="-2.3816020">
        <ele>684.2</ele>
        <time>2019-10-18T14:55:04Z</time>
      </trkpt>
      <trkpt lat="37.0084970" lon="-2.3816020">
        <ele>684.2</ele>
        <time>2019-10-18T14:55:05Z</time>
      </trkpt>
      <trkpt lat="37.0084960" lon="-2.3816010">
        <ele>684.2</ele>
        <time>2019-10-18T14:55:06Z</time>
      </trkpt>
      <trkpt lat="37.0084960" lon="-2.3816000">
        <ele>684.2</ele>
        <time>2019-10-18T14:55:07Z</time>
      </trkpt>
      <trkpt lat="37.0084950" lon="-2.3815990">
        <ele>684.2</ele>
        <time>2019-10-18T14:55:08Z</time>
      </trkpt>
      <trkpt lat="37.0084940" lon="-2.3815980">
        <ele>684.2</ele>
        <time>2019-10-18T14:55:09Z</time>
      </trkpt>
      <trkpt lat="37.0084930" lon="-2.3815980">
        <ele>684.2</ele>
        <time>2019-10-18T14:55:10Z</time>
      </trkpt>
      <trkpt lat="37.0084930" lon="-2.3815970">
        <ele>684.2</ele>
        <time>2019-10-18T14:55:11Z</time>
      </trkpt>
      <trkpt lat="37.0084920" lon="-2.3815960">
        <ele>684.2</ele>
        <time>2019-10-18T14:55:12Z</time>
      </trkpt>
      <trkpt lat="37.0084920" lon="-2.3815960">
        <ele>684.2</ele>
        <time>2019-10-18T14:55:13Z</time>
      </trkpt>
      <trkpt lat="37.0084910" lon="-2.3815950">
        <ele>684.1</ele>
        <time>2019-10-18T14:55:14Z</time>
      </trkpt>
      <trkpt lat="37.0084910" lon="-2.3815950">
        <ele>684.1</ele>
        <time>2019-10-18T14:55:15Z</time>
      </trkpt>
      <trkpt lat="37.0084910" lon="-2.3815950">
        <ele>684.1</ele>
        <time>2019-10-18T14:55:16Z</time>
      </trkpt>
      <trkpt lat="37.0084910" lon="-2.3815960">
        <ele>684.1</ele>
        <time>2019-10-18T14:55:17Z</time>
      </trkpt>
      <trkpt lat="37.0084910" lon="-2.3815970">
        <ele>684.1</ele>
        <time>2019-10-18T14:55:18Z</time>
      </trkpt>
      <trkpt lat="37.0084900" lon="-2.3815980">
        <ele>684.1</ele>
        <time>2019-10-18T14:55:19Z</time>
      </trkpt>
      <trkpt lat="37.0084890" lon="-2.3815980">
        <ele>684.1</ele>
        <time>2019-10-18T14:55:20Z</time>
      </trkpt>
      <trkpt lat="37.0084890" lon="-2.3815980">
        <ele>684.1</ele>
        <time>2019-10-18T14:55:21Z</time>
      </trkpt>
      <trkpt lat="37.0084880" lon="-2.3815980">
        <ele>684.1</ele>
        <time>2019-10-18T14:55:22Z</time>
      </trkpt>
      <trkpt lat="37.0084860" lon="-2.3815980">
        <ele>684.1</ele>
        <time>2019-10-18T14:55:23Z</time>
      </trkpt>
      <trkpt lat="37.0084840" lon="-2.3815990">
        <ele>684.1</ele>
        <time>2019-10-18T14:55:24Z</time>
      </trkpt>
      <trkpt lat="37.0084820" lon="-2.3816000">
        <ele>684.0</ele>
        <time>2019-10-18T14:55:25Z</time>
      </trkpt>
      <trkpt lat="37.0084820" lon="-2.3816000">
        <ele>684.0</ele>
        <time>2019-10-18T14:55:26Z</time>
      </trkpt>
      <trkpt lat="37.0084830" lon="-2.3816010">
        <ele>684.0</ele>
        <time>2019-10-18T14:55:27Z</time>
      </trkpt>
      <trkpt lat="37.0084860" lon="-2.3816010">
        <ele>684.0</ele>
        <time>2019-10-18T14:55:28Z</time>
      </trkpt>
      <trkpt lat="37.0084870" lon="-2.3816020">
        <ele>684.0</ele>
        <time>2019-10-18T14:55:29Z</time>
      </trkpt>
      <trkpt lat="37.0084880" lon="-2.3816030">
        <ele>684.0</ele>
        <time>2019-10-18T14:55:30Z</time>
      </trkpt>
      <trkpt lat="37.0084880" lon="-2.3816040">
        <ele>684.0</ele>
        <time>2019-10-18T14:55:31Z</time>
      </trkpt>
      <trkpt lat="37.0084860" lon="-2.3816050">
        <ele>683.9</ele>
        <time>2019-10-18T14:55:32Z</time>
      </trkpt>
      <trkpt lat="37.0084840" lon="-2.3816060">
        <ele>683.9</ele>
        <time>2019-10-18T14:55:33Z</time>
      </trkpt>
      <trkpt lat="37.0084830" lon="-2.3816070">
        <ele>683.9</ele>
        <time>2019-10-18T14:55:34Z</time>
      </trkpt>
      <trkpt lat="37.0084820" lon="-2.3816070">
        <ele>683.9</ele>
        <time>2019-10-18T14:55:35Z</time>
      </trkpt>
      <trkpt lat="37.0084810" lon="-2.3816060">
        <ele>683.9</ele>
        <time>2019-10-18T14:55:36Z</time>
      </trkpt>
      <trkpt lat="37.0084810" lon="-2.3816050">
        <ele>683.9</ele>
        <time>2019-10-18T14:55:37Z</time>
      </trkpt>
      <trkpt lat="37.0084820" lon="-2.3816040">
        <ele>683.9</ele>
        <time>2019-10-18T14:55:38Z</time>
      </trkpt>
      <trkpt lat="37.0084840" lon="-2.3816030">
        <ele>683.8</ele>
        <time>2019-10-18T14:55:39Z</time>
      </trkpt>
      <trkpt lat="37.0084860" lon="-2.3816020">
        <ele>683.8</ele>
        <time>2019-10-18T14:55:40Z</time>
      </trkpt>
      <trkpt lat="37.0084910" lon="-2.3816000">
        <ele>683.8</ele>
        <time>2019-10-18T14:55:41Z</time>
      </trkpt>
      <trkpt lat="37.0084990" lon="-2.3815960">
        <ele>683.7</ele>
        <time>2019-10-18T14:55:42Z</time>
      </trkpt>
      <trkpt lat="37.0085110" lon="-2.3815900">
        <ele>683.6</ele>
        <time>2019-10-18T14:55:43Z</time>
      </trkpt>
      <trkpt lat="37.0085260" lon="-2.3815810">
        <ele>683.4</ele>
        <time>2019-10-18T14:55:44Z</time>
      </trkpt>
      <trkpt lat="37.0085450" lon="-2.3815670">
        <ele>683.2</ele>
        <time>2019-10-18T14:55:45Z</time>
      </trkpt>
      <trkpt lat="37.0085700" lon="-2.3815480">
        <ele>682.9</ele>
        <time>2019-10-18T14:55:46Z</time>
      </trkpt>
      <trkpt lat="37.0086000" lon="-2.3815290">
        <ele>682.6</ele>
        <time>2019-10-18T14:55:47Z</time>
      </trkpt>
      <trkpt lat="37.0086330" lon="-2.3815150">
        <ele>682.3</ele>
        <time>2019-10-18T14:55:48Z</time>
      </trkpt>
      <trkpt lat="37.0086650" lon="-2.3815100">
        <ele>682.1</ele>
        <time>2019-10-18T14:55:49Z</time>
      </trkpt>
      <trkpt lat="37.0086940" lon="-2.3815120">
        <ele>681.8</ele>
        <time>2019-10-18T14:55:50Z</time>
      </trkpt>
      <trkpt lat="37.0087200" lon="-2.3815210">
        <ele>681.6</ele>
        <time>2019-10-18T14:55:51Z</time>
      </trkpt>
      <trkpt lat="37.0087430" lon="-2.3815340">
        <ele>681.4</ele>
        <time>2019-10-18T14:55:52Z</time>
      </trkpt>
      <trkpt lat="37.0087630" lon="-2.3815520">
        <ele>681.2</ele>
        <time>2019-10-18T14:55:53Z</time>
      </trkpt>
      <trkpt lat="37.0087810" lon="-2.3815740">
        <ele>681.0</ele>
        <time>2019-10-18T14:55:54Z</time>
      </trkpt>
      <trkpt lat="37.0087980" lon="-2.3815990">
        <ele>680.8</ele>
        <time>2019-10-18T14:55:55Z</time>
      </trkpt>
      <trkpt lat="37.0088150" lon="-2.3816240">
        <ele>680.5</ele>
        <time>2019-10-18T14:55:56Z</time>
      </trkpt>
      <trkpt lat="37.0088360" lon="-2.3816460">
        <ele>680.3</ele>
        <time>2019-10-18T14:55:57Z</time>
      </trkpt>
      <trkpt lat="37.0088630" lon="-2.3816630">
        <ele>680.0</ele>
        <time>2019-10-18T14:55:58Z</time>
      </trkpt>
      <trkpt lat="37.0088960" lon="-2.3816720">
        <ele>679.7</ele>
        <time>2019-10-18T14:55:59Z</time>
      </trkpt>
      <trkpt lat="37.0089320" lon="-2.3816750">
        <ele>679.1</ele>
        <time>2019-10-18T14:56:00Z</time>
      </trkpt>
      <trkpt lat="37.0089690" lon="-2.3816740">
        <ele>678.7</ele>
        <time>2019-10-18T14:56:01Z</time>
      </trkpt>
      <trkpt lat="37.0090080" lon="-2.3816720">
        <ele>678.2</ele>
        <time>2019-10-18T14:56:02Z</time>
      </trkpt>
      <trkpt lat="37.0090480" lon="-2.3816670">
        <ele>677.8</ele>
        <time>2019-10-18T14:56:03Z</time>
      </trkpt>
      <trkpt lat="37.0090890" lon="-2.3816600">
        <ele>677.3</ele>
        <time>2019-10-18T14:56:04Z</time>
      </trkpt>
      <trkpt lat="37.0091320" lon="-2.3816550">
        <ele>676.7</ele>
        <time>2019-10-18T14:56:05Z</time>
      </trkpt>
      <trkpt lat="37.0091770" lon="-2.3816540">
        <ele>676.2</ele>
        <time>2019-10-18T14:56:06Z</time>
      </trkpt>
      <trkpt lat="37.0092240" lon="-2.3816560">
        <ele>675.6</ele>
        <time>2019-10-18T14:56:07Z</time>
      </trkpt>
      <trkpt lat="37.0092710" lon="-2.3816620">
        <ele>675.0</ele>
        <time>2019-10-18T14:56:08Z</time>
      </trkpt>
      <trkpt lat="37.0093160" lon="-2.3816700">
        <ele>674.4</ele>
        <time>2019-10-18T14:56:09Z</time>
      </trkpt>
      <trkpt lat="37.0093580" lon="-2.3816780">
        <ele>673.9</ele>
        <time>2019-10-18T14:56:10Z</time>
      </trkpt>
      <trkpt lat="37.0093980" lon="-2.3816880">
        <ele>673.4</ele>
        <time>2019-10-18T14:56:11Z</time>
      </trkpt>
      <trkpt lat="37.0094350" lon="-2.3817010">
        <ele>672.9</ele>
        <time>2019-10-18T14:56:12Z</time>
      </trkpt>
      <trkpt lat="37.0094700" lon="-2.3817180">
        <ele>672.5</ele>
        <time>2019-10-18T14:56:13Z</time>
      </trkpt>
      <trkpt lat="37.0095040" lon="-2.3817370">
        <ele>672.1</ele>
        <time>2019-10-18T14:56:14Z</time>
      </trkpt>
      <trkpt lat="37.0095390" lon="-2.3817590">
        <ele>671.8</ele>
        <time>2019-10-18T14:56:15Z</time>
      </trkpt>
      <trkpt lat="37.0095760" lon="-2.3817830">
        <ele>671.4</ele>
        <time>2019-10-18T14:56:16Z</time>
      </trkpt>
      <trkpt lat="37.0096130" lon="-2.3818090">
        <ele>671.1</ele>
        <time>2019-10-18T14:56:17Z</time>
      </trkpt>
      <trkpt lat="37.0096490" lon="-2.3818360">
        <ele>670.8</ele>
        <time>2019-10-18T14:56:18Z</time>
      </trkpt>
      <trkpt lat="37.0096830" lon="-2.3818630">
        <ele>670.5</ele>
        <time>2019-10-18T14:56:19Z</time>
      </trkpt>
      <trkpt lat="37.0097160" lon="-2.3818890">
        <ele>670.3</ele>
        <time>2019-10-18T14:56:20Z</time>
      </trkpt>
      <trkpt lat="37.0097510" lon="-2.3819140">
        <ele>670.0</ele>
        <time>2019-10-18T14:56:21Z</time>
      </trkpt>
      <trkpt lat="37.0097860" lon="-2.3819410">
        <ele>669.7</ele>
        <time>2019-10-18T14:56:22Z</time>
      </trkpt>
      <trkpt lat="37.0098200" lon="-2.3819670">
        <ele>669.5</ele>
        <time>2019-10-18T14:56:23Z</time>
      </trkpt>
      <trkpt lat="37.0098540" lon="-2.3819930">
        <ele>669.2</ele>
        <time>2019-10-18T14:56:24Z</time>
      </trkpt>
      <trkpt lat="37.0098850" lon="-2.3820180">
        <ele>668.9</ele>
        <time>2019-10-18T14:56:25Z</time>
      </trkpt>
      <trkpt lat="37.0099160" lon="-2.3820430">
        <ele>668.5</ele>
        <time>2019-10-18T14:56:26Z</time>
      </trkpt>
      <trkpt lat="37.0099460" lon="-2.3820660">
        <ele>668.2</ele>
        <time>2019-10-18T14:56:27Z</time>
      </trkpt>
      <trkpt lat="37.0099760" lon="-2.3820870">
        <ele>667.9</ele>
        <time>2019-10-18T14:56:28Z</time>
      </trkpt>
      <trkpt lat="37.0100060" lon="-2.3821080">
        <ele>667.6</ele>
        <time>2019-10-18T14:56:29Z</time>
      </trkpt>
      <trkpt lat="37.0100370" lon="-2.3821280">
        <ele>667.2</ele>
        <time>2019-10-18T14:56:30Z</time>
      </trkpt>
      <trkpt lat="37.0100690" lon="-2.3821490">
        <ele>666.8</ele>
        <time>2019-10-18T14:56:31Z</time>
      </trkpt>
      <trkpt lat="37.0101010" lon="-2.3821700">
        <ele>666.4</ele>
        <time>2019-10-18T14:56:32Z</time>
      </trkpt>
      <trkpt lat="37.0101330" lon="-2.3821920">
        <ele>666.0</ele>
        <time>2019-10-18T14:56:33Z</time>
      </trkpt>
      <trkpt lat="37.0101630" lon="-2.3822160">
        <ele>665.6</ele>
        <time>2019-10-18T14:56:34Z</time>
      </trkpt>
      <trkpt lat="37.0101910" lon="-2.3822390">
        <ele>665.2</ele>
        <time>2019-10-18T14:56:35Z</time>
      </trkpt>
      <trkpt lat="37.0102190" lon="-2.3822650">
        <ele>664.8</ele>
        <time>2019-10-18T14:56:36Z</time>
      </trkpt>
      <trkpt lat="37.0102480" lon="-2.3822920">
        <ele>664.3</ele>
        <time>2019-10-18T14:56:37Z</time>
      </trkpt>
      <trkpt lat="37.0102780" lon="-2.3823200">
        <ele>663.8</ele>
        <time>2019-10-18T14:56:38Z</time>
      </trkpt>
      <trkpt lat="37.0103100" lon="-2.3823440">
        <ele>663.3</ele>
        <time>2019-10-18T14:56:39Z</time>
      </trkpt>
      <trkpt lat="37.0103410" lon="-2.3823600">
        <ele>662.9</ele>
        <time>2019-10-18T14:56:40Z</time>
      </trkpt>
      <trkpt lat="37.0103720" lon="-2.3823660">
        <ele>662.5</ele>
        <time>2019-10-18T14:56:41Z</time>
      </trkpt>
      <trkpt lat="37.0104040" lon="-2.3823580">
        <ele>662.1</ele>
        <time>2019-10-18T14:56:42Z</time>
      </trkpt>
      <trkpt lat="37.0104350" lon="-2.3823350">
        <ele>661.6</ele>
        <time>2019-10-18T14:56:43Z</time>
      </trkpt>
      <trkpt lat="37.0104580" lon="-2.3823000">
        <ele>661.2</ele>
        <time>2019-10-18T14:56:44Z</time>
      </trkpt>
      <trkpt lat="37.0104720" lon="-2.3822530">
        <ele>660.7</ele>
        <time>2019-10-18T14:56:45Z</time>
      </trkpt>
      <trkpt lat="37.0104770" lon="-2.3821980">
        <ele>660.2</ele>
        <time>2019-10-18T14:56:46Z</time>
      </trkpt>
      <trkpt lat="37.0104770" lon="-2.3821410">
        <ele>659.6</ele>
        <time>2019-10-18T14:56:47Z</time>
      </trkpt>
      <trkpt lat="37.0104760" lon="-2.3820850">
        <ele>659.1</ele>
        <time>2019-10-18T14:56:48Z</time>
      </trkpt>
      <trkpt lat="37.0104800" lon="-2.3820350">
        <ele>658.5</ele>
        <time>2019-10-18T14:56:49Z</time>
      </trkpt>
      <trkpt lat="37.0104910" lon="-2.3819930">
        <ele>658.1</ele>
        <time>2019-10-18T14:56:50Z</time>
      </trkpt>
      <trkpt lat="37.0105120" lon="-2.3819610">
        <ele>657.6</ele>
        <time>2019-10-18T14:56:51Z</time>
      </trkpt>
      <trkpt lat="37.0105400" lon="-2.3819360">
        <ele>657.1</ele>
        <time>2019-10-18T14:56:52Z</time>
      </trkpt>
      <trkpt lat="37.0105700" lon="-2.3819210">
        <ele>656.6</ele>
        <time>2019-10-18T14:56:53Z</time>
      </trkpt>
      <trkpt lat="37.0105970" lon="-2.3819170">
        <ele>656.2</ele>
        <time>2019-10-18T14:56:54Z</time>
      </trkpt>
      <trkpt lat="37.0106190" lon="-2.3819260">
        <ele>655.8</ele>
        <time>2019-10-18T14:56:55Z</time>
      </trkpt>
      <trkpt lat="37.0106410" lon="-2.3819430">
        <ele>655.4</ele>
        <time>2019-10-18T14:56:56Z</time>
      </trkpt>
      <trkpt lat="37.0106650" lon="-2.3819640">
        <ele>655.1</ele>
        <time>2019-10-18T14:56:57Z</time>
      </trkpt>
      <trkpt lat="37.0106890" lon="-2.3819850">
        <ele>654.8</ele>
        <time>2019-10-18T14:56:58Z</time>
      </trkpt>
      <trkpt lat="37.0107150" lon="-2.3820100">
        <ele>654.4</ele>
        <time>2019-10-18T14:56:59Z</time>
      </trkpt>
      <trkpt lat="37.0107430" lon="-2.3820360">
        <ele>654.2</ele>
        <time>2019-10-18T14:57:00Z</time>
      </trkpt>
      <trkpt lat="37.0107720" lon="-2.3820630">
        <ele>653.9</ele>
        <time>2019-10-18T14:57:01Z</time>
      </trkpt>
      <trkpt lat="37.0108000" lon="-2.3820890">
        <ele>653.8</ele>
        <time>2019-10-18T14:57:02Z</time>
      </trkpt>
      <trkpt lat="37.0108290" lon="-2.3821140">
        <ele>653.6</ele>
        <time>2019-10-18T14:57:03Z</time>
      </trkpt>
      <trkpt lat="37.0108560" lon="-2.3821370">
        <ele>653.5</ele>
        <time>2019-10-18T14:57:04Z</time>
      </trkpt>
      <trkpt lat="37.0108830" lon="-2.3821580">
        <ele>653.5</ele>
        <time>2019-10-18T14:57:05Z</time>
      </trkpt>
      <trkpt lat="37.0109070" lon="-2.3821760">
        <ele>653.4</ele>
        <time>2019-10-18T14:57:06Z</time>
      </trkpt>
      <trkpt lat="37.0109260" lon="-2.3821930">
        <ele>653.4</ele>
        <time>2019-10-18T14:57:07Z</time>
      </trkpt>
      <trkpt lat="37.0109380" lon="-2.3822030">
        <ele>653.4</ele>
        <time>2019-10-18T14:57:08Z</time>
      </trkpt>
      <trkpt lat="37.0109410" lon="-2.3822070">
        <ele>653.4</ele>
        <time>2019-10-18T14:57:09Z</time>
      </trkpt>
      <trkpt lat="37.0109400" lon="-2.3822080">
        <ele>653.4</ele>
        <time>2019-10-18T14:57:10Z</time>
      </trkpt>
      <trkpt lat="37.0109390" lon="-2.3822060">
        <ele>653.4</ele>
        <time>2019-10-18T14:57:11Z</time>
      </trkpt>
      <trkpt lat="37.0109380" lon="-2.3822040">
        <ele>653.4</ele>
        <time>2019-10-18T14:57:12Z</time>
      </trkpt>
      <trkpt lat="37.0109380" lon="-2.3822020">
        <ele>653.4</ele>
        <time>2019-10-18T14:57:13Z</time>
      </trkpt>
      <trkpt lat="37.0109390" lon="-2.3822010">
        <ele>653.4</ele>
        <time>2019-10-18T14:57:14Z</time>
      </trkpt>
      <trkpt lat="37.0109390" lon="-2.3822020">
        <ele>653.4</ele>
        <time>2019-10-18T14:57:15Z</time>
      </trkpt>
      <trkpt lat="37.0109390" lon="-2.3822020">
        <ele>653.4</ele>
        <time>2019-10-18T14:57:16Z</time>
      </trkpt>
      <trkpt lat="37.0109390" lon="-2.3822020">
        <ele>653.4</ele>
        <time>2019-10-18T14:57:17Z</time>
      </trkpt>
      <trkpt lat="37.0109400" lon="-2.3822040">
        <ele>653.4</ele>
        <time>2019-10-18T14:57:18Z</time>
      </trkpt>
      <trkpt lat="37.0109410" lon="-2.3822070">
        <ele>653.4</ele>
        <time>2019-10-18T14:57:19Z</time>
      </trkpt>
      <trkpt lat="37.0109410" lon="-2.3822100">
        <ele>653.4</ele>
        <time>2019-10-18T14:57:20Z</time>
      </trkpt>
      <trkpt lat="37.0109420" lon="-2.3822120">
        <ele>653.4</ele>
        <time>2019-10-18T14:57:21Z</time>
      </trkpt>
      <trkpt lat="37.0109410" lon="-2.3822120">
        <ele>653.4</ele>
        <time>2019-10-18T14:57:22Z</time>
      </trkpt>
      <trkpt lat="37.0109390" lon="-2.3822100">
        <ele>653.4</ele>
        <time>2019-10-18T14:57:23Z</time>
      </trkpt>
      <trkpt lat="37.0109370" lon="-2.3822060">
        <ele>653.4</ele>
        <time>2019-10-18T14:57:24Z</time>
      </trkpt>
      <trkpt lat="37.0109350" lon="-2.3822040">
        <ele>653.4</ele>
        <time>2019-10-18T14:57:25Z</time>
      </trkpt>
      <trkpt lat="37.0109330" lon="-2.3822060">
        <ele>653.4</ele>
        <time>2019-10-18T14:57:26Z</time>
      </trkpt>
      <trkpt lat="37.0109340" lon="-2.3822120">
        <ele>653.4</ele>
        <time>2019-10-18T14:57:27Z</time>
      </trkpt>
      <trkpt lat="37.0109350" lon="-2.3822150">
        <ele>653.4</ele>
        <time>2019-10-18T14:57:28Z</time>
      </trkpt>
      <trkpt lat="37.0109360" lon="-2.3822150">
        <ele>653.4</ele>
        <time>2019-10-18T14:57:29Z</time>
      </trkpt>
      <trkpt lat="37.0109340" lon="-2.3822130">
        <ele>653.4</ele>
        <time>2019-10-18T14:57:30Z</time>
      </trkpt>
      <trkpt lat="37.0109340" lon="-2.3822120">
        <ele>653.4</ele>
        <time>2019-10-18T14:57:31Z</time>
      </trkpt>
      <trkpt lat="37.0109350" lon="-2.3822110">
        <ele>653.4</ele>
        <time>2019-10-18T14:57:32Z</time>
      </trkpt>
      <trkpt lat="37.0109350" lon="-2.3822100">
        <ele>653.4</ele>
        <time>2019-10-18T14:57:33Z</time>
      </trkpt>
      <trkpt lat="37.0109350" lon="-2.3822110">
        <ele>653.4</ele>
        <time>2019-10-18T14:57:34Z</time>
      </trkpt>
      <trkpt lat="37.0109360" lon="-2.3822100">
        <ele>653.4</ele>
        <time>2019-10-18T14:57:35Z</time>
      </trkpt>
      <trkpt lat="37.0109380" lon="-2.3822110">
        <ele>653.4</ele>
        <time>2019-10-18T14:57:36Z</time>
      </trkpt>
      <trkpt lat="37.0109400" lon="-2.3822110">
        <ele>653.4</ele>
        <time>2019-10-18T14:57:37Z</time>
      </trkpt>
      <trkpt lat="37.0109420" lon="-2.3822130">
        <ele>653.4</ele>
        <time>2019-10-18T14:57:38Z</time>
      </trkpt>
      <trkpt lat="37.0109410" lon="-2.3822140">
        <ele>653.4</ele>
        <time>2019-10-18T14:57:39Z</time>
      </trkpt>
      <trkpt lat="37.0109410" lon="-2.3822140">
        <ele>653.4</ele>
        <time>2019-10-18T14:57:40Z</time>
      </trkpt>
      <trkpt lat="37.0109400" lon="-2.3822130">
        <ele>653.4</ele>
        <time>2019-10-18T14:57:41Z</time>
      </trkpt>
      <trkpt lat="37.0109410" lon="-2.3822120">
        <ele>653.4</ele>
        <time>2019-10-18T14:57:42Z</time>
      </trkpt>
      <trkpt lat="37.0109440" lon="-2.3822110">
        <ele>653.4</ele>
        <time>2019-10-18T14:57:43Z</time>
      </trkpt>
      <trkpt lat="37.0109470" lon="-2.3822090">
        <ele>653.4</ele>
        <time>2019-10-18T14:57:44Z</time>
      </trkpt>
      <trkpt lat="37.0109490" lon="-2.3822070">
        <ele>653.4</ele>
        <time>2019-10-18T14:57:45Z</time>
      </trkpt>
      <trkpt lat="37.0109470" lon="-2.3822060">
        <ele>653.4</ele>
        <time>2019-10-18T14:57:46Z</time>
      </trkpt>
      <trkpt lat="37.0109450" lon="-2.3822080">
        <ele>653.4</ele>
        <time>2019-10-18T14:57:47Z</time>
      </trkpt>
      <trkpt lat="37.0109430" lon="-2.3822110">
        <ele>653.4</ele>
        <time>2019-10-18T14:57:48Z</time>
      </trkpt>
      <trkpt lat="37.0109430" lon="-2.3822160">
        <ele>653.4</ele>
        <time>2019-10-18T14:57:49Z</time>
      </trkpt>
      <trkpt lat="37.0109420" lon="-2.3822200">
        <ele>653.4</ele>
        <time>2019-10-18T14:57:50Z</time>
      </trkpt>
      <trkpt lat="37.0109420" lon="-2.3822240">
        <ele>653.4</ele>
        <time>2019-10-18T14:57:51Z</time>
      </trkpt>
      <trkpt lat="37.0109410" lon="-2.3822290">
        <ele>653.4</ele>
        <time>2019-10-18T14:57:52Z</time>
      </trkpt>
      <trkpt lat="37.0109410" lon="-2.3822340">
        <ele>653.4</ele>
        <time>2019-10-18T14:57:53Z</time>
      </trkpt>
      <trkpt lat="37.0109410" lon="-2.3822390">
        <ele>653.4</ele>
        <time>2019-10-18T14:57:54Z</time>
      </trkpt>
      <trkpt lat="37.0109410" lon="-2.3822440">
        <ele>653.4</ele>
        <time>2019-10-18T14:57:55Z</time>
      </trkpt>
      <trkpt lat="37.0109400" lon="-2.3822480">
        <ele>653.4</ele>
        <time>2019-10-18T14:57:56Z</time>
      </trkpt>
      <trkpt lat="37.0109390" lon="-2.3822510">
        <ele>653.4</ele>
        <time>2019-10-18T14:57:57Z</time>
      </trkpt>
      <trkpt lat="37.0109380" lon="-2.3822550">
        <ele>653.4</ele>
        <time>2019-10-18T14:57:58Z</time>
      </trkpt>
      <trkpt lat="37.0109380" lon="-2.3822580">
        <ele>653.4</ele>
        <time>2019-10-18T14:57:59Z</time>
      </trkpt>
      <trkpt lat="37.0109370" lon="-2.3822610">
        <ele>653.4</ele>
        <time>2019-10-18T14:58:00Z</time>
      </trkpt>
      <trkpt lat="37.0109350" lon="-2.3822610">
        <ele>653.4</ele>
        <time>2019-10-18T14:58:01Z</time>
      </trkpt>
      <trkpt lat="37.0109320" lon="-2.3822600">
        <ele>653.4</ele>
        <time>2019-10-18T14:58:02Z</time>
      </trkpt>
      <trkpt lat="37.0109300" lon="-2.3822610">
        <ele>653.4</ele>
        <time>2019-10-18T14:58:03Z</time>
      </trkpt>
      <trkpt lat="37.0109280" lon="-2.3822630">
        <ele>653.4</ele>
        <time>2019-10-18T14:58:04Z</time>
      </trkpt>
      <trkpt lat="37.0109270" lon="-2.3822640">
        <ele>653.4</ele>
        <time>2019-10-18T14:58:05Z</time>
      </trkpt>
      <trkpt lat="37.0109260" lon="-2.3822630">
        <ele>653.4</ele>
        <time>2019-10-18T14:58:06Z</time>
      </trkpt>
      <trkpt lat="37.0109260" lon="-2.3822610">
        <ele>653.4</ele>
        <time>2019-10-18T14:58:07Z</time>
      </trkpt>
      <trkpt lat="37.0109260" lon="-2.3822600">
        <ele>653.4</ele>
        <time>2019-10-18T14:58:08Z</time>
      </trkpt>
      <trkpt lat="37.0109260" lon="-2.3822590">
        <ele>653.4</ele>
        <time>2019-10-18T14:58:09Z</time>
      </trkpt>
      <trkpt lat="37.0109260" lon="-2.3822570">
        <ele>653.4</ele>
        <time>2019-10-18T14:58:10Z</time>
      </trkpt>
      <trkpt lat="37.0109260" lon="-2.3822530">
        <ele>653.4</ele>
        <time>2019-10-18T14:58:11Z</time>
      </trkpt>
      <trkpt lat="37.0109280" lon="-2.3822490">
        <ele>653.4</ele>
        <time>2019-10-18T14:58:12Z</time>
      </trkpt>
      <trkpt lat="37.0109300" lon="-2.3822450">
        <ele>653.4</ele>
        <time>2019-10-18T14:58:13Z</time>
      </trkpt>
      <trkpt lat="37.0109330" lon="-2.3822430">
        <ele>653.4</ele>
        <time>2019-10-18T14:58:14Z</time>
      </trkpt>
      <trkpt lat="37.0109350" lon="-2.3822420">
        <ele>653.4</ele>
        <time>2019-10-18T14:58:15Z</time>
      </trkpt>
      <trkpt lat="37.0109380" lon="-2.3822420">
        <ele>653.4</ele>
        <time>2019-10-18T14:58:16Z</time>
      </trkpt>
      <trkpt lat="37.0109400" lon="-2.3822430">
        <ele>653.4</ele>
        <time>2019-10-18T14:58:17Z</time>
      </trkpt>
      <trkpt lat="37.0109420" lon="-2.3822430">
        <ele>653.4</ele>
        <time>2019-10-18T14:58:18Z</time>
      </trkpt>
      <trkpt lat="37.0109440" lon="-2.3822440">
        <ele>653.4</ele>
        <time>2019-10-18T14:58:19Z</time>
      </trkpt>
      <trkpt lat="37.0109460" lon="-2.3822450">
        <ele>653.4</ele>
        <time>2019-10-18T14:58:20Z</time>
      </trkpt>
      <trkpt lat="37.0109480" lon="-2.3822450">
        <ele>653.4</ele>
        <time>2019-10-18T14:58:21Z</time>
      </trkpt>
      <trkpt lat="37.0109490" lon="-2.3822460">
        <ele>653.4</ele>
        <time>2019-10-18T14:58:22Z</time>
      </trkpt>
      <trkpt lat="37.0109500" lon="-2.3822460">
        <ele>653.4</ele>
        <time>2019-10-18T14:58:23Z</time>
      </trkpt>
      <trkpt lat="37.0109520" lon="-2.3822460">
        <ele>653.4</ele>
        <time>2019-10-18T14:58:24Z</time>
      </trkpt>
      <trkpt lat="37.0109540" lon="-2.3822440">
        <ele>653.4</ele>
        <time>2019-10-18T14:58:25Z</time>
      </trkpt>
      <trkpt lat="37.0109560" lon="-2.3822420">
        <ele>653.4</ele>
        <time>2019-10-18T14:58:26Z</time>
      </trkpt>
      <trkpt lat="37.0109560" lon="-2.3822390">
        <ele>653.4</ele>
        <time>2019-10-18T14:58:27Z</time>
      </trkpt>
      <trkpt lat="37.0109570" lon="-2.3822360">
        <ele>653.4</ele>
        <time>2019-10-18T14:58:28Z</time>
      </trkpt>
      <trkpt lat="37.0109560" lon="-2.3822340">
        <ele>653.4</ele>
        <time>2019-10-18T14:58:29Z</time>
      </trkpt>
      <trkpt lat="37.0109560" lon="-2.3822330">
        <ele>653.4</ele>
        <time>2019-10-18T14:58:30Z</time>
      </trkpt>
      <trkpt lat="37.0109560" lon="-2.3822320">
        <ele>653.4</ele>
        <time>2019-10-18T14:58:31Z</time>
      </trkpt>
      <trkpt lat="37.0109560" lon="-2.3822310">
        <ele>653.4</ele>
        <time>2019-10-18T14:58:32Z</time>
      </trkpt>
      <trkpt lat="37.0109560" lon="-2.3822310">
        <ele>653.4</ele>
        <time>2019-10-18T14:58:33Z</time>
      </trkpt>
      <trkpt lat="37.0109560" lon="-2.3822310">
        <ele>653.4</ele>
        <time>2019-10-18T14:58:34Z</time>
      </trkpt>
      <trkpt lat="37.0109550" lon="-2.3822300">
        <ele>653.4</ele>
        <time>2019-10-18T14:58:35Z</time>
      </trkpt>
      <trkpt lat="37.0109540" lon="-2.3822300">
        <ele>653.4</ele>
        <time>2019-10-18T14:58:36Z</time>
      </trkpt>
      <trkpt lat="37.0109540" lon="-2.3822310">
        <ele>653.4</ele>
        <time>2019-10-18T14:58:37Z</time>
      </trkpt>
      <trkpt lat="37.0109530" lon="-2.3822320">
        <ele>653.4</ele>
        <time>2019-10-18T14:58:38Z</time>
      </trkpt>
      <trkpt lat="37.0109540" lon="-2.3822340">
        <ele>653.4</ele>
        <time>2019-10-18T14:58:39Z</time>
      </trkpt>
      <trkpt lat="37.0109540" lon="-2.3822350">
        <ele>653.4</ele>
        <time>2019-10-18T14:58:40Z</time>
      </trkpt>
      <trkpt lat="37.0109550" lon="-2.3822340">
        <ele>653.4</ele>
        <time>2019-10-18T14:58:41Z</time>
      </trkpt>
      <trkpt lat="37.0109570" lon="-2.3822310">
        <ele>653.4</ele>
        <time>2019-10-18T14:58:42Z</time>
      </trkpt>
      <trkpt lat="37.0109580" lon="-2.3822260">
        <ele>653.4</ele>
        <time>2019-10-18T14:58:43Z</time>
      </trkpt>
      <trkpt lat="37.0109620" lon="-2.3822190">
        <ele>653.4</ele>
        <time>2019-10-18T14:58:44Z</time>
      </trkpt>
      <trkpt lat="37.0109660" lon="-2.3822160">
        <ele>653.4</ele>
        <time>2019-10-18T14:58:45Z</time>
      </trkpt>
      <trkpt lat="37.0109690" lon="-2.3822180">
        <ele>653.4</ele>
        <time>2019-10-18T14:58:46Z</time>
      </trkpt>
      <trkpt lat="37.0109710" lon="-2.3822250">
        <ele>653.4</ele>
        <time>2019-10-18T14:58:47Z</time>
      </trkpt>
      <trkpt lat="37.0109710" lon="-2.3822310">
        <ele>653.4</ele>
        <time>2019-10-18T14:58:48Z</time>
      </trkpt>
      <trkpt lat="37.0109700" lon="-2.3822350">
        <ele>653.4</ele>
        <time>2019-10-18T14:58:49Z</time>
      </trkpt>
      <trkpt lat="37.0109680" lon="-2.3822350">
        <ele>653.4</ele>
        <time>2019-10-18T14:58:50Z</time>
      </trkpt>
      <trkpt lat="37.0109680" lon="-2.3822340">
        <ele>653.4</ele>
        <time>2019-10-18T14:58:51Z</time>
      </trkpt>
      <trkpt lat="37.0109680" lon="-2.3822330">
        <ele>653.4</ele>
        <time>2019-10-18T14:58:52Z</time>
      </trkpt>
      <trkpt lat="37.0109690" lon="-2.3822310">
        <ele>653.4</ele>
        <time>2019-10-18T14:58:53Z</time>
      </trkpt>
      <trkpt lat="37.0109700" lon="-2.3822290">
        <ele>653.4</ele>
        <time>2019-10-18T14:58:54Z</time>
      </trkpt>
      <trkpt lat="37.0109710" lon="-2.3822280">
        <ele>653.4</ele>
        <time>2019-10-18T14:58:55Z</time>
      </trkpt>
      <trkpt lat="37.0109720" lon="-2.3822260">
        <ele>653.4</ele>
        <time>2019-10-18T14:58:56Z</time>
      </trkpt>
      <trkpt lat="37.0109730" lon="-2.3822250">
        <ele>653.4</ele>
        <time>2019-10-18T14:58:57Z</time>
      </trkpt>
      <trkpt lat="37.0109740" lon="-2.3822240">
        <ele>653.4</ele>
        <time>2019-10-18T14:58:58Z</time>
      </trkpt>
      <trkpt lat="37.0109750" lon="-2.3822230">
        <ele>653.4</ele>
        <time>2019-10-18T14:58:59Z</time>
      </trkpt>
      <trkpt lat="37.0109750" lon="-2.3822220">
        <ele>653.4</ele>
        <time>2019-10-18T14:59:00Z</time>
      </trkpt>
      <trkpt lat="37.0109760" lon="-2.3822210">
        <ele>653.4</ele>
        <time>2019-10-18T14:59:01Z</time>
      </trkpt>
      <trkpt lat="37.0109760" lon="-2.3822210">
        <ele>653.4</ele>
        <time>2019-10-18T14:59:02Z</time>
      </trkpt>
      <trkpt lat="37.0109760" lon="-2.3822210">
        <ele>653.4</ele>
        <time>2019-10-18T14:59:03Z</time>
      </trkpt>
      <trkpt lat="37.0109760" lon="-2.3822190">
        <ele>653.4</ele>
        <time>2019-10-18T14:59:04Z</time>
      </trkpt>
      <trkpt lat="37.0109750" lon="-2.3822170">
        <ele>653.4</ele>
        <time>2019-10-18T14:59:05Z</time>
      </trkpt>
      <trkpt lat="37.0109730" lon="-2.3822150">
        <ele>653.4</ele>
        <time>2019-10-18T14:59:06Z</time>
      </trkpt>
      <trkpt lat="37.0109730" lon="-2.3822140">
        <ele>653.4</ele>
        <time>2019-10-18T14:59:07Z</time>
      </trkpt>
      <trkpt lat="37.0109720" lon="-2.3822120">
        <ele>653.4</ele>
        <time>2019-10-18T14:59:08Z</time>
      </trkpt>
      <trkpt lat="37.0109710" lon="-2.3822100">
        <ele>653.4</ele>
        <time>2019-10-18T14:59:09Z</time>
      </trkpt>
      <trkpt lat="37.0109680" lon="-2.3822070">
        <ele>653.4</ele>
        <time>2019-10-18T14:59:10Z</time>
      </trkpt>
      <trkpt lat="37.0109650" lon="-2.3822040">
        <ele>653.4</ele>
        <time>2019-10-18T14:59:11Z</time>
      </trkpt>
      <trkpt lat="37.0109610" lon="-2.3822010">
        <ele>653.4</ele>
        <time>2019-10-18T14:59:12Z</time>
      </trkpt>
      <trkpt lat="37.0109570" lon="-2.3821980">
        <ele>653.4</ele>
        <time>2019-10-18T14:59:13Z</time>
      </trkpt>
      <trkpt lat="37.0109530" lon="-2.3821950">
        <ele>653.4</ele>
        <time>2019-10-18T14:59:14Z</time>
      </trkpt>
      <trkpt lat="37.0109500" lon="-2.3821930">
        <ele>653.4</ele>
        <time>2019-10-18T14:59:15Z</time>
      </trkpt>
      <trkpt lat="37.0109490" lon="-2.3821910">
        <ele>653.4</ele>
        <time>2019-10-18T14:59:16Z</time>
      </trkpt>
      <trkpt lat="37.0109480" lon="-2.3821890">
        <ele>653.4</ele>
        <time>2019-10-18T14:59:17Z</time>
      </trkpt>
      <trkpt lat="37.0109470" lon="-2.3821870">
        <ele>653.4</ele>
        <time>2019-10-18T14:59:18Z</time>
      </trkpt>
      <trkpt lat="37.0109470" lon="-2.3821870">
        <ele>653.4</ele>
        <time>2019-10-18T14:59:19Z</time>
      </trkpt>
      <trkpt lat="37.0109460" lon="-2.3821870">
        <ele>653.4</ele>
        <time>2019-10-18T14:59:20Z</time>
      </trkpt>
      <trkpt lat="37.0109450" lon="-2.3821870">
        <ele>653.4</ele>
        <time>2019-10-18T14:59:21Z</time>
      </trkpt>
      <trkpt lat="37.0109450" lon="-2.3821880">
        <ele>653.4</ele>
        <time>2019-10-18T14:59:22Z</time>
      </trkpt>
      <trkpt lat="37.0109440" lon="-2.3821890">
        <ele>653.4</ele>
        <time>2019-10-18T14:59:23Z</time>
      </trkpt>
      <trkpt lat="37.0109440" lon="-2.3821910">
        <ele>653.4</ele>
        <time>2019-10-18T14:59:24Z</time>
      </trkpt>
      <trkpt lat="37.0109450" lon="-2.3821930">
        <ele>653.4</ele>
        <time>2019-10-18T14:59:25Z</time>
      </trkpt>
      <trkpt lat="37.0109460" lon="-2.3821950">
        <ele>653.4</ele>
        <time>2019-10-18T14:59:26Z</time>
      </trkpt>
      <trkpt lat="37.0109480" lon="-2.3821990">
        <ele>653.4</ele>
        <time>2019-10-18T14:59:27Z</time>
      </trkpt>
      <trkpt lat="37.0109510" lon="-2.3822020">
        <ele>653.4</ele>
        <time>2019-10-18T14:59:28Z</time>
      </trkpt>
      <trkpt lat="37.0109570" lon="-2.3822060">
        <ele>653.4</ele>
        <time>2019-10-18T14:59:29Z</time>
      </trkpt>
      <trkpt lat="37.0109620" lon="-2.3822080">
        <ele>653.4</ele>
        <time>2019-10-18T14:59:30Z</time>
      </trkpt>
      <trkpt lat="37.0109670" lon="-2.3822100">
        <ele>653.4</ele>
        <time>2019-10-18T14:59:31Z</time>
      </trkpt>
      <trkpt lat="37.0109720" lon="-2.3822120">
        <ele>653.4</ele>
        <time>2019-10-18T14:59:32Z</time>
      </trkpt>
      <trkpt lat="37.0109760" lon="-2.3822170">
        <ele>653.4</ele>
        <time>2019-10-18T14:59:33Z</time>
      </trkpt>
      <trkpt lat="37.0109780" lon="-2.3822190">
        <ele>653.4</ele>
        <time>2019-10-18T14:59:34Z</time>
      </trkpt>
      <trkpt lat="37.0109790" lon="-2.3822200">
        <ele>653.4</ele>
        <time>2019-10-18T14:59:35Z</time>
      </trkpt>
      <trkpt lat="37.0109770" lon="-2.3822170">
        <ele>653.4</ele>
        <time>2019-10-18T14:59:36Z</time>
      </trkpt>
      <trkpt lat="37.0109770" lon="-2.3822160">
        <ele>653.4</ele>
        <time>2019-10-18T14:59:37Z</time>
      </trkpt>
      <trkpt lat="37.0109780" lon="-2.3822160">
        <ele>653.4</ele>
        <time>2019-10-18T14:59:38Z</time>
      </trkpt>
      <trkpt lat="37.0109790" lon="-2.3822160">
        <ele>653.4</ele>
        <time>2019-10-18T14:59:39Z</time>
      </trkpt>
      <trkpt lat="37.0109790" lon="-2.3822160">
        <ele>653.4</ele>
        <time>2019-10-18T14:59:40Z</time>
      </trkpt>
      <trkpt lat="37.0109790" lon="-2.3822170">
        <ele>653.4</ele>
        <time>2019-10-18T14:59:41Z</time>
      </trkpt>
      <trkpt lat="37.0109790" lon="-2.3822170">
        <ele>653.4</ele>
        <time>2019-10-18T14:59:42Z</time>
      </trkpt>
      <trkpt lat="37.0109790" lon="-2.3822180">
        <ele>653.4</ele>
        <time>2019-10-18T14:59:43Z</time>
      </trkpt>
      <trkpt lat="37.0109800" lon="-2.3822180">
        <ele>653.4</ele>
        <time>2019-10-18T14:59:44Z</time>
      </trkpt>
      <trkpt lat="37.0109810" lon="-2.3822190">
        <ele>653.4</ele>
        <time>2019-10-18T14:59:45Z</time>
      </trkpt>
      <trkpt lat="37.0109820" lon="-2.3822200">
        <ele>653.4</ele>
        <time>2019-10-18T14:59:46Z</time>
      </trkpt>
      <trkpt lat="37.0109830" lon="-2.3822210">
        <ele>653.4</ele>
        <time>2019-10-18T14:59:47Z</time>
      </trkpt>
      <trkpt lat="37.0109840" lon="-2.3822230">
        <ele>653.4</ele>
        <time>2019-10-18T14:59:48Z</time>
      </trkpt>
      <trkpt lat="37.0109850" lon="-2.3822250">
        <ele>653.4</ele>
        <time>2019-10-18T14:59:49Z</time>
      </trkpt>
      <trkpt lat="37.0109860" lon="-2.3822260">
        <ele>653.4</ele>
        <time>2019-10-18T14:59:50Z</time>
      </trkpt>
      <trkpt lat="37.0109860" lon="-2.3822280">
        <ele>653.4</ele>
        <time>2019-10-18T14:59:51Z</time>
      </trkpt>
      <trkpt lat="37.0109870" lon="-2.3822290">
        <ele>653.4</ele>
        <time>2019-10-18T14:59:52Z</time>
      </trkpt>
      <trkpt lat="37.0109880" lon="-2.3822300">
        <ele>653.4</ele>
        <time>2019-10-18T14:59:53Z</time>
      </trkpt>
      <trkpt lat="37.0109880" lon="-2.3822310">
        <ele>653.4</ele>
        <time>2019-10-18T14:59:54Z</time>
      </trkpt>
      <trkpt lat="37.0109880" lon="-2.3822320">
        <ele>653.4</ele>
        <time>2019-10-18T14:59:55Z</time>
      </trkpt>
      <trkpt lat="37.0109890" lon="-2.3822320">
        <ele>653.4</ele>
        <time>2019-10-18T14:59:56Z</time>
      </trkpt>
      <trkpt lat="37.0109890" lon="-2.3822320">
        <ele>653.4</ele>
        <time>2019-10-18T14:59:57Z</time>
      </trkpt>
      <trkpt lat="37.0109900" lon="-2.3822320">
        <ele>653.4</ele>
        <time>2019-10-18T14:59:58Z</time>
      </trkpt>
      <trkpt lat="37.0109900" lon="-2.3822330">
        <ele>653.4</ele>
        <time>2019-10-18T14:59:59Z</time>
      </trkpt>
      <trkpt lat="37.0109900" lon="-2.3822330">
        <ele>653.4</ele>
        <time>2019-10-18T15:00:00Z</time>
      </trkpt>
      <trkpt lat="37.0109900" lon="-2.3822340">
        <ele>653.4</ele>
        <time>2019-10-18T15:00:01Z</time>
      </trkpt>
      <trkpt lat="37.0109900" lon="-2.3822340">
        <ele>653.4</ele>
        <time>2019-10-18T15:00:02Z</time>
      </trkpt>
      <trkpt lat="37.0109900" lon="-2.3822340">
        <ele>653.4</ele>
        <time>2019-10-18T15:00:03Z</time>
      </trkpt>
      <trkpt lat="37.0109900" lon="-2.3822360">
        <ele>653.4</ele>
        <time>2019-10-18T15:00:04Z</time>
      </trkpt>
      <trkpt lat="37.0109900" lon="-2.3822370">
        <ele>653.4</ele>
        <time>2019-10-18T15:00:05Z</time>
      </trkpt>
      <trkpt lat="37.0109900" lon="-2.3822390">
        <ele>653.4</ele>
        <time>2019-10-18T15:00:06Z</time>
      </trkpt>
      <trkpt lat="37.0109900" lon="-2.3822400">
        <ele>653.4</ele>
        <time>2019-10-18T15:00:07Z</time>
      </trkpt>
      <trkpt lat="37.0109900" lon="-2.3822410">
        <ele>653.4</ele>
        <time>2019-10-18T15:00:08Z</time>
      </trkpt>
      <trkpt lat="37.0109890" lon="-2.3822410">
        <ele>653.4</ele>
        <time>2019-10-18T15:00:09Z</time>
      </trkpt>
      <trkpt lat="37.0109890" lon="-2.3822410">
        <ele>653.4</ele>
        <time>2019-10-18T15:00:10Z</time>
      </trkpt>
      <trkpt lat="37.0109880" lon="-2.3822400">
        <ele>653.4</ele>
        <time>2019-10-18T15:00:11Z</time>
      </trkpt>
      <trkpt lat="37.0109880" lon="-2.3822390">
        <ele>653.4</ele>
        <time>2019-10-18T15:00:12Z</time>
      </trkpt>
      <trkpt lat="37.0109880" lon="-2.3822380">
        <ele>653.4</ele>
        <time>2019-10-18T15:00:13Z</time>
      </trkpt>
      <trkpt lat="37.0109890" lon="-2.3822390">
        <ele>653.4</ele>
        <time>2019-10-18T15:00:14Z</time>
      </trkpt>
      <trkpt lat="37.0109910" lon="-2.3822420">
        <ele>653.4</ele>
        <time>2019-10-18T15:00:15Z</time>
      </trkpt>
      <trkpt lat="37.0109910" lon="-2.3822450">
        <ele>653.4</ele>
        <time>2019-10-18T15:00:16Z</time>
      </trkpt>
      <trkpt lat="37.0109930" lon="-2.3822490">
        <ele>653.4</ele>
        <time>2019-10-18T15:00:17Z</time>
      </trkpt>
      <trkpt lat="37.0109940" lon="-2.3822530">
        <ele>653.4</ele>
        <time>2019-10-18T15:00:18Z</time>
      </trkpt>
      <trkpt lat="37.0109970" lon="-2.3822560">
        <ele>653.4</ele>
        <time>2019-10-18T15:00:19Z</time>
      </trkpt>
      <trkpt lat="37.0110000" lon="-2.3822580">
        <ele>653.4</ele>
        <time>2019-10-18T15:00:20Z</time>
      </trkpt>
      <trkpt lat="37.0110060" lon="-2.3822620">
        <ele>653.4</ele>
        <time>2019-10-18T15:00:21Z</time>
      </trkpt>
      <trkpt lat="37.0110140" lon="-2.3822690">
        <ele>653.4</ele>
        <time>2019-10-18T15:00:22Z</time>
      </trkpt>
      <trkpt lat="37.0110240" lon="-2.3822770">
        <ele>653.4</ele>
        <time>2019-10-18T15:00:23Z</time>
      </trkpt>
      <trkpt lat="37.0110370" lon="-2.3822860">
        <ele>653.4</ele>
        <time>2019-10-18T15:00:24Z</time>
      </trkpt>
      <trkpt lat="37.0110520" lon="-2.3822970">
        <ele>653.4</ele>
        <time>2019-10-18T15:00:25Z</time>
      </trkpt>
      <trkpt lat="37.0110680" lon="-2.3823110">
        <ele>653.4</ele>
        <time>2019-10-18T15:00:26Z</time>
      </trkpt>
      <trkpt lat="37.0110870" lon="-2.3823240">
        <ele>653.4</ele>
        <time>2019-10-18T15:00:27Z</time>
      </trkpt>
      <trkpt lat="37.0111080" lon="-2.3823360">
        <ele>653.4</ele>
        <time>2019-10-18T15:00:28Z</time>
      </trkpt>
      <trkpt lat="37.0111310" lon="-2.3823460">
        <ele>653.3</ele>
        <time>2019-10-18T15:00:29Z</time>
      </trkpt>
      <trkpt lat="37.0111560" lon="-2.3823540">
        <ele>653.3</ele>
        <time>2019-10-18T15:00:30Z</time>
      </trkpt>
      <trkpt lat="37.0111820" lon="-2.3823590">
        <ele>653.3</ele>
        <time>2019-10-18T15:00:31Z</time>
      </trkpt>
      <trkpt lat="37.0112090" lon="-2.3823610">
        <ele>653.2</ele>
        <time>2019-10-18T15:00:32Z</time>
      </trkpt>
      <trkpt lat="37.0112370" lon="-2.3823610">
        <ele>653.1</ele>
        <time>2019-10-18T15:00:33Z</time>
      </trkpt>
      <trkpt lat="37.0112670" lon="-2.3823590">
        <ele>653.1</ele>
        <time>2019-10-18T15:00:34Z</time>
      </trkpt>
      <trkpt lat="37.0112990" lon="-2.3823570">
        <ele>652.9</ele>
        <time>2019-10-18T15:00:35Z</time>
      </trkpt>
      <trkpt lat="37.0113310" lon="-2.3823540">
        <ele>652.8</ele>
        <time>2019-10-18T15:00:36Z</time>
      </trkpt>
      <trkpt lat="37.0113650" lon="-2.3823520">
        <ele>652.7</ele>
        <time>2019-10-18T15:00:37Z</time>
      </trkpt>
      <trkpt lat="37.0114000" lon="-2.3823490">
        <ele>652.5</ele>
        <time>2019-10-18T15:00:38Z</time>
      </trkpt>
      <trkpt lat="37.0114360" lon="-2.3823460">
        <ele>652.3</ele>
        <time>2019-10-18T15:00:39Z</time>
      </trkpt>
      <trkpt lat="37.0114730" lon="-2.3823430">
        <ele>652.1</ele>
        <time>2019-10-18T15:00:40Z</time>
      </trkpt>
      <trkpt lat="37.0115120" lon="-2.3823370">
        <ele>651.9</ele>
        <time>2019-10-18T15:00:41Z</time>
      </trkpt>
      <trkpt lat="37.0115530" lon="-2.3823290">
        <ele>651.6</ele>
        <time>2019-10-18T15:00:42Z</time>
      </trkpt>
      <trkpt lat="37.0115950" lon="-2.3823160">
        <ele>651.3</ele>
        <time>2019-10-18T15:00:43Z</time>
      </trkpt>
      <trkpt lat="37.0116390" lon="-2.3822970">
        <ele>651.0</ele>
        <time>2019-10-18T15:00:44Z</time>
      </trkpt>
      <trkpt lat="37.0116830" lon="-2.3822700">
        <ele>650.6</ele>
        <time>2019-10-18T15:00:45Z</time>
      </trkpt>
      <trkpt lat="37.0117270" lon="-2.3822390">
        <ele>650.3</ele>
        <time>2019-10-18T15:00:46Z</time>
      </trkpt>
      <trkpt lat="37.0117700" lon="-2.3822060">
        <ele>650.0</ele>
        <time>2019-10-18T15:00:47Z</time>
      </trkpt>
      <trkpt lat="37.0118140" lon="-2.3821820">
        <ele>649.7</ele>
        <time>2019-10-18T15:00:48Z</time>
      </trkpt>
      <trkpt lat="37.0118610" lon="-2.3821700">
        <ele>649.5</ele>
        <time>2019-10-18T15:00:49Z</time>
      </trkpt>
      <trkpt lat="37.0119100" lon="-2.3821690">
        <ele>649.3</ele>
        <time>2019-10-18T15:00:50Z</time>
      </trkpt>
      <trkpt lat="37.0119620" lon="-2.3821710">
        <ele>649.1</ele>
        <time>2019-10-18T15:00:51Z</time>
      </trkpt>
      <trkpt lat="37.0120160" lon="-2.3821720">
        <ele>649.0</ele>
        <time>2019-10-18T15:00:52Z</time>
      </trkpt>
      <trkpt lat="37.0120720" lon="-2.3821710">
        <ele>648.9</ele>
        <time>2019-10-18T15:00:53Z</time>
      </trkpt>
      <trkpt lat="37.0121290" lon="-2.3821720">
        <ele>648.8</ele>
        <time>2019-10-18T15:00:54Z</time>
      </trkpt>
      <trkpt lat="37.0121860" lon="-2.3821740">
        <ele>648.8</ele>
        <time>2019-10-18T15:00:55Z</time>
      </trkpt>
      <trkpt lat="37.0122390" lon="-2.3821780">
        <ele>648.7</ele>
        <time>2019-10-18T15:00:56Z</time>
      </trkpt>
      <trkpt lat="37.0122870" lon="-2.3821800">
        <ele>648.7</ele>
        <time>2019-10-18T15:00:57Z</time>
      </trkpt>
      <trkpt lat="37.0123320" lon="-2.3821800">
        <ele>648.6</ele>
        <time>2019-10-18T15:00:58Z</time>
      </trkpt>
      <trkpt lat="37.0123760" lon="-2.3821780">
        <ele>648.4</ele>
        <time>2019-10-18T15:00:59Z</time>
      </trkpt>
      <trkpt lat="37.0124200" lon="-2.3821750">
        <ele>648.3</ele>
        <time>2019-10-18T15:01:00Z</time>
      </trkpt>
      <trkpt lat="37.0124670" lon="-2.3821720">
        <ele>648.1</ele>
        <time>2019-10-18T15:01:01Z</time>
      </trkpt>
      <trkpt lat="37.0125170" lon="-2.3821690">
        <ele>647.9</ele>
        <time>2019-10-18T15:01:02Z</time>
      </trkpt>
      <trkpt lat="37.0125720" lon="-2.3821660">
        <ele>647.6</ele>
        <time>2019-10-18T15:01:03Z</time>
      </trkpt>
      <trkpt lat="37.0126290" lon="-2.3821640">
        <ele>647.4</ele>
        <time>2019-10-18T15:01:04Z</time>
      </trkpt>
      <trkpt lat="37.0126900" lon="-2.3821640">
        <ele>647.1</ele>
        <time>2019-10-18T15:01:05Z</time>
      </trkpt>
      <trkpt lat="37.0127520" lon="-2.3821640">
        <ele>646.9</ele>
        <time>2019-10-18T15:01:06Z</time>
      </trkpt>
      <trkpt lat="37.0128160" lon="-2.3821650">
        <ele>646.7</ele>
        <time>2019-10-18T15:01:07Z</time>
      </trkpt>
      <trkpt lat="37.0128810" lon="-2.3821630">
        <ele>646.3</ele>
        <time>2019-10-18T15:01:08Z</time>
      </trkpt>
      <trkpt lat="37.0129470" lon="-2.3821550">
        <ele>646.0</ele>
        <time>2019-10-18T15:01:09Z</time>
      </trkpt>
      <trkpt lat="37.0130150" lon="-2.3821390">
        <ele>645.5</ele>
        <time>2019-10-18T15:01:10Z</time>
      </trkpt>
      <trkpt lat="37.0130840" lon="-2.3821170">
        <ele>645.0</ele>
        <time>2019-10-18T15:01:11Z</time>
      </trkpt>
      <trkpt lat="37.0131560" lon="-2.3820930">
        <ele>644.5</ele>
        <time>2019-10-18T15:01:12Z</time>
      </trkpt>
      <trkpt lat="37.0132290" lon="-2.3820670">
        <ele>644.0</ele>
        <time>2019-10-18T15:01:13Z</time>
      </trkpt>
      <trkpt lat="37.0133030" lon="-2.3820420">
        <ele>643.7</ele>
        <time>2019-10-18T15:01:14Z</time>
      </trkpt>
      <trkpt lat="37.0133770" lon="-2.3820230">
        <ele>643.5</ele>
        <time>2019-10-18T15:01:15Z</time>
      </trkpt>
      <trkpt lat="37.0134500" lon="-2.3820120">
        <ele>643.5</ele>
        <time>2019-10-18T15:01:16Z</time>
      </trkpt>
      <trkpt lat="37.0135210" lon="-2.3820100">
        <ele>643.6</ele>
        <time>2019-10-18T15:01:17Z</time>
      </trkpt>
      <trkpt lat="37.0135890" lon="-2.3820130">
        <ele>643.8</ele>
        <time>2019-10-18T15:01:18Z</time>
      </trkpt>
      <trkpt lat="37.0136510" lon="-2.3820210">
        <ele>643.9</ele>
        <time>2019-10-18T15:01:19Z</time>
      </trkpt>
      <trkpt lat="37.0137040" lon="-2.3820300">
        <ele>644.0</ele>
        <time>2019-10-18T15:01:20Z</time>
      </trkpt>
      <trkpt lat="37.0137480" lon="-2.3820380">
        <ele>644.1</ele>
        <time>2019-10-18T15:01:21Z</time>
      </trkpt>
      <trkpt lat="37.0137840" lon="-2.3820420">
        <ele>644.1</ele>
        <time>2019-10-18T15:01:22Z</time>
      </trkpt>
      <trkpt lat="37.0138160" lon="-2.3820440">
        <ele>644.1</ele>
        <time>2019-10-18T15:01:23Z</time>
      </trkpt>
      <trkpt lat="37.0138470" lon="-2.3820430">
        <ele>644.1</ele>
        <time>2019-10-18T15:01:24Z</time>
      </trkpt>
      <trkpt lat="37.0138800" lon="-2.3820400">
        <ele>644.0</ele>
        <time>2019-10-18T15:01:25Z</time>
      </trkpt>
      <trkpt lat="37.0139160" lon="-2.3820340">
        <ele>644.0</ele>
        <time>2019-10-18T15:01:26Z</time>
      </trkpt>
      <trkpt lat="37.0139530" lon="-2.3820250">
        <ele>643.9</ele>
        <time>2019-10-18T15:01:27Z</time>
      </trkpt>
      <trkpt lat="37.0139930" lon="-2.3820140">
        <ele>643.8</ele>
        <time>2019-10-18T15:01:28Z</time>
      </trkpt>
      <trkpt lat="37.0140350" lon="-2.3820030">
        <ele>643.7</ele>
        <time>2019-10-18T15:01:29Z</time>
      </trkpt>
      <trkpt lat="37.0140790" lon="-2.3819930">
        <ele>643.6</ele>
        <time>2019-10-18T15:01:30Z</time>
      </trkpt>
      <trkpt lat="37.0141230" lon="-2.3819820">
        <ele>643.6</ele>
        <time>2019-10-18T15:01:31Z</time>
      </trkpt>
      <trkpt lat="37.0141690" lon="-2.3819700">
        <ele>643.5</ele>
        <time>2019-10-18T15:01:32Z</time>
      </trkpt>
      <trkpt lat="37.0142150" lon="-2.3819540">
        <ele>643.5</ele>
        <time>2019-10-18T15:01:33Z</time>
      </trkpt>
      <trkpt lat="37.0142630" lon="-2.3819370">
        <ele>643.5</ele>
        <time>2019-10-18T15:01:34Z</time>
      </trkpt>
      <trkpt lat="37.0143120" lon="-2.3819190">
        <ele>643.6</ele>
        <time>2019-10-18T15:01:35Z</time>
      </trkpt>
      <trkpt lat="37.0143610" lon="-2.3819000">
        <ele>643.7</ele>
        <time>2019-10-18T15:01:36Z</time>
      </trkpt>
      <trkpt lat="37.0144110" lon="-2.3818810">
        <ele>643.9</ele>
        <time>2019-10-18T15:01:37Z</time>
      </trkpt>
      <trkpt lat="37.0144590" lon="-2.3818630">
        <ele>644.2</ele>
        <time>2019-10-18T15:01:38Z</time>
      </trkpt>
      <trkpt lat="37.0145060" lon="-2.3818480">
        <ele>644.4</ele>
        <time>2019-10-18T15:01:39Z</time>
      </trkpt>
      <trkpt lat="37.0145510" lon="-2.3818360">
        <ele>644.5</ele>
        <time>2019-10-18T15:01:40Z</time>
      </trkpt>
      <trkpt lat="37.0145940" lon="-2.3818250">
        <ele>644.4</ele>
        <time>2019-10-18T15:01:41Z</time>
      </trkpt>
      <trkpt lat="37.0146340" lon="-2.3818140">
        <ele>644.2</ele>
        <time>2019-10-18T15:01:42Z</time>
      </trkpt>
      <trkpt lat="37.0146730" lon="-2.3818030">
        <ele>643.9</ele>
        <time>2019-10-18T15:01:43Z</time>
      </trkpt>
      <trkpt lat="37.0147110" lon="-2.3817910">
        <ele>643.6</ele>
        <time>2019-10-18T15:01:44Z</time>
      </trkpt>
      <trkpt lat="37.0147500" lon="-2.3817770">
        <ele>643.3</ele>
        <time>2019-10-18T15:01:45Z</time>
      </trkpt>
      <trkpt lat="37.0147910" lon="-2.3817610">
        <ele>642.9</ele>
        <time>2019-10-18T15:01:46Z</time>
      </trkpt>
      <trkpt lat="37.0148360" lon="-2.3817450">
        <ele>642.4</ele>
        <time>2019-10-18T15:01:47Z</time>
      </trkpt>
      <trkpt lat="37.0148860" lon="-2.3817300">
        <ele>641.9</ele>
        <time>2019-10-18T15:01:48Z</time>
      </trkpt>
      <trkpt lat="37.0149400" lon="-2.3817180">
        <ele>641.4</ele>
        <time>2019-10-18T15:01:49Z</time>
      </trkpt>
      <trkpt lat="37.0149970" lon="-2.3817080">
        <ele>640.8</ele>
        <time>2019-10-18T15:01:50Z</time>
      </trkpt>
      <trkpt lat="37.0150580" lon="-2.3817020">
        <ele>640.1</ele>
        <time>2019-10-18T15:01:51Z</time>
      </trkpt>
      <trkpt lat="37.0151210" lon="-2.3817010">
        <ele>639.4</ele>
        <time>2019-10-18T15:01:52Z</time>
      </trkpt>
      <trkpt lat="37.0151870" lon="-2.3817050">
        <ele>638.7</ele>
        <time>2019-10-18T15:01:53Z</time>
      </trkpt>
      <trkpt lat="37.0152530" lon="-2.3817140">
        <ele>638.1</ele>
        <time>2019-10-18T15:01:54Z</time>
      </trkpt>
      <trkpt lat="37.0153190" lon="-2.3817280">
        <ele>637.5</ele>
        <time>2019-10-18T15:01:55Z</time>
      </trkpt>
      <trkpt lat="37.0153810" lon="-2.3817460">
        <ele>636.8</ele>
        <time>2019-10-18T15:01:56Z</time>
      </trkpt>
      <trkpt lat="37.0154400" lon="-2.3817630">
        <ele>636.3</ele>
        <time>2019-10-18T15:01:57Z</time>
      </trkpt>
      <trkpt lat="37.0154920" lon="-2.3817810">
        <ele>635.7</ele>
        <time>2019-10-18T15:01:58Z</time>
      </trkpt>
      <trkpt lat="37.0155380" lon="-2.3818000">
        <ele>635.1</ele>
        <time>2019-10-18T15:01:59Z</time>
      </trkpt>
      <trkpt lat="37.0155780" lon="-2.3818210">
        <ele>634.5</ele>
        <time>2019-10-18T15:02:00Z</time>
      </trkpt>
      <trkpt lat="37.0156110" lon="-2.3818460">
        <ele>634.1</ele>
        <time>2019-10-18T15:02:01Z</time>
      </trkpt>
      <trkpt lat="37.0156420" lon="-2.3818710">
        <ele>633.5</ele>
        <time>2019-10-18T15:02:02Z</time>
      </trkpt>
      <trkpt lat="37.0156710" lon="-2.3818930">
        <ele>633.0</ele>
        <time>2019-10-18T15:02:03Z</time>
      </trkpt>
      <trkpt lat="37.0157010" lon="-2.3819060">
        <ele>632.5</ele>
        <time>2019-10-18T15:02:04Z</time>
      </trkpt>
      <trkpt lat="37.0157330" lon="-2.3819100">
        <ele>631.9</ele>
        <time>2019-10-18T15:02:05Z</time>
      </trkpt>
      <trkpt lat="37.0157690" lon="-2.3819050">
        <ele>631.3</ele>
        <time>2019-10-18T15:02:06Z</time>
      </trkpt>
      <trkpt lat="37.0158080" lon="-2.3818960">
        <ele>630.6</ele>
        <time>2019-10-18T15:02:07Z</time>
      </trkpt>
      <trkpt lat="37.0158520" lon="-2.3818890">
        <ele>629.9</ele>
        <time>2019-10-18T15:02:08Z</time>
      </trkpt>
      <trkpt lat="37.0158960" lon="-2.3818890">
        <ele>629.3</ele>
        <time>2019-10-18T15:02:09Z</time>
      </trkpt>
      <trkpt lat="37.0159370" lon="-2.3818990">
        <ele>628.6</ele>
        <time>2019-10-18T15:02:10Z</time>
      </trkpt>
      <trkpt lat="37.0159740" lon="-2.3819180">
        <ele>628.0</ele>
        <time>2019-10-18T15:02:11Z</time>
      </trkpt>
      <trkpt lat="37.0160060" lon="-2.3819460">
        <ele>627.4</ele>
        <time>2019-10-18T15:02:12Z</time>
      </trkpt>
      <trkpt lat="37.0160330" lon="-2.3819810">
        <ele>626.8</ele>
        <time>2019-10-18T15:02:13Z</time>
      </trkpt>
      <trkpt lat="37.0160570" lon="-2.3820230">
        <ele>626.2</ele>
        <time>2019-10-18T15:02:14Z</time>
      </trkpt>
      <trkpt lat="37.0160820" lon="-2.3820670">
        <ele>625.6</ele>
        <time>2019-10-18T15:02:15Z</time>
      </trkpt>
      <trkpt lat="37.0161080" lon="-2.3821090">
        <ele>625.0</ele>
        <time>2019-10-18T15:02:16Z</time>
      </trkpt>
      <trkpt lat="37.0161370" lon="-2.3821470">
        <ele>624.3</ele>
        <time>2019-10-18T15:02:17Z</time>
      </trkpt>
      <trkpt lat="37.0161690" lon="-2.3821800">
        <ele>623.7</ele>
        <time>2019-10-18T15:02:18Z</time>
      </trkpt>
      <trkpt lat="37.0162040" lon="-2.3822090">
        <ele>623.1</ele>
        <time>2019-10-18T15:02:19Z</time>
      </trkpt>
      <trkpt lat="37.0162420" lon="-2.3822350">
        <ele>622.4</ele>
        <time>2019-10-18T15:02:20Z</time>
      </trkpt>
      <trkpt lat="37.0162810" lon="-2.3822570">
        <ele>621.7</ele>
        <time>2019-10-18T15:02:21Z</time>
      </trkpt>
      <trkpt lat="37.0163180" lon="-2.3822780">
        <ele>621.1</ele>
        <time>2019-10-18T15:02:22Z</time>
      </trkpt>
      <trkpt lat="37.0163520" lon="-2.3823000">
        <ele>620.5</ele>
        <time>2019-10-18T15:02:23Z</time>
      </trkpt>
      <trkpt lat="37.0163830" lon="-2.3823240">
        <ele>619.9</ele>
        <time>2019-10-18T15:02:24Z</time>
      </trkpt>
      <trkpt lat="37.0164130" lon="-2.3823520">
        <ele>619.3</ele>
        <time>2019-10-18T15:02:25Z</time>
      </trkpt>
      <trkpt lat="37.0164410" lon="-2.3823830">
        <ele>618.8</ele>
        <time>2019-10-18T15:02:26Z</time>
      </trkpt>
      <trkpt lat="37.0164650" lon="-2.3824140">
        <ele>618.3</ele>
        <time>2019-10-18T15:02:27Z</time>
      </trkpt>
      <trkpt lat="37.0164870" lon="-2.3824450">
        <ele>617.8</ele>
        <time>2019-10-18T15:02:28Z</time>
      </trkpt>
      <trkpt lat="37.0165060" lon="-2.3824760">
        <ele>617.4</ele>
        <time>2019-10-18T15:02:29Z</time>
      </trkpt>
      <trkpt lat="37.0165270" lon="-2.3825060">
        <ele>617.1</ele>
        <time>2019-10-18T15:02:30Z</time>
      </trkpt>
      <trkpt lat="37.0165500" lon="-2.3825320">
        <ele>616.7</ele>
        <time>2019-10-18T15:02:31Z</time>
      </trkpt>
      <trkpt lat="37.0165750" lon="-2.3825460">
        <ele>616.3</ele>
        <time>2019-10-18T15:02:32Z</time>
      </trkpt>
      <trkpt lat="37.0166030" lon="-2.3825500">
        <ele>616.0</ele>
        <time>2019-10-18T15:02:33Z</time>
      </trkpt>
      <trkpt lat="37.0166300" lon="-2.3825430">
        <ele>615.6</ele>
        <time>2019-10-18T15:02:34Z</time>
      </trkpt>
      <trkpt lat="37.0166580" lon="-2.3825250">
        <ele>615.2</ele>
        <time>2019-10-18T15:02:35Z</time>
      </trkpt>
      <trkpt lat="37.0166820" lon="-2.3824970">
        <ele>614.8</ele>
        <time>2019-10-18T15:02:36Z</time>
      </trkpt>
      <trkpt lat="37.0167010" lon="-2.3824640">
        <ele>614.3</ele>
        <time>2019-10-18T15:02:37Z</time>
      </trkpt>
      <trkpt lat="37.0167140" lon="-2.3824290">
        <ele>613.9</ele>
        <time>2019-10-18T15:02:38Z</time>
      </trkpt>
      <trkpt lat="37.0167250" lon="-2.3823910">
        <ele>613.5</ele>
        <time>2019-10-18T15:02:39Z</time>
      </trkpt>
      <trkpt lat="37.0167350" lon="-2.3823490">
        <ele>613.1</ele>
        <time>2019-10-18T15:02:40Z</time>
      </trkpt>
      <trkpt lat="37.0167440" lon="-2.3822990">
        <ele>612.6</ele>
        <time>2019-10-18T15:02:41Z</time>
      </trkpt>
      <trkpt lat="37.0167540" lon="-2.3822440">
        <ele>612.0</ele>
        <time>2019-10-18T15:02:42Z</time>
      </trkpt>
      <trkpt lat="37.0167640" lon="-2.3821800">
        <ele>611.4</ele>
        <time>2019-10-18T15:02:43Z</time>
      </trkpt>
      <trkpt lat="37.0167760" lon="-2.3821060">
        <ele>610.9</ele>
        <time>2019-10-18T15:02:44Z</time>
      </trkpt>
      <trkpt lat="37.0167860" lon="-2.3820240">
        <ele>610.2</ele>
        <time>2019-10-18T15:02:45Z</time>
      </trkpt>
      <trkpt lat="37.0167950" lon="-2.3819390">
        <ele>609.7</ele>
        <time>2019-10-18T15:02:46Z</time>
      </trkpt>
      <trkpt lat="37.0168020" lon="-2.3818530">
        <ele>609.2</ele>
        <time>2019-10-18T15:02:47Z</time>
      </trkpt>
      <trkpt lat="37.0168110" lon="-2.3817670">
        <ele>608.7</ele>
        <time>2019-10-18T15:02:48Z</time>
      </trkpt>
      <trkpt lat="37.0168230" lon="-2.3816820">
        <ele>608.3</ele>
        <time>2019-10-18T15:02:49Z</time>
      </trkpt>
      <trkpt lat="37.0168350" lon="-2.3816010">
        <ele>608.0</ele>
        <time>2019-10-18T15:02:50Z</time>
      </trkpt>
      <trkpt lat="37.0168490" lon="-2.3815250">
        <ele>607.7</ele>
        <time>2019-10-18T15:02:51Z</time>
      </trkpt>
      <trkpt lat="37.0168690" lon="-2.3814570">
        <ele>607.6</ele>
        <time>2019-10-18T15:02:52Z</time>
      </trkpt>
      <trkpt lat="37.0168960" lon="-2.3813980">
        <ele>607.5</ele>
        <time>2019-10-18T15:02:53Z</time>
      </trkpt>
      <trkpt lat="37.0169300" lon="-2.3813480">
        <ele>607.3</ele>
        <time>2019-10-18T15:02:54Z</time>
      </trkpt>
      <trkpt lat="37.0169690" lon="-2.3813090">
        <ele>607.1</ele>
        <time>2019-10-18T15:02:55Z</time>
      </trkpt>
      <trkpt lat="37.0170110" lon="-2.3812820">
        <ele>606.9</ele>
        <time>2019-10-18T15:02:56Z</time>
      </trkpt>
      <trkpt lat="37.0170550" lon="-2.3812640">
        <ele>606.6</ele>
        <time>2019-10-18T15:02:57Z</time>
      </trkpt>
      <trkpt lat="37.0170950" lon="-2.3812500">
        <ele>606.4</ele>
        <time>2019-10-18T15:02:58Z</time>
      </trkpt>
      <trkpt lat="37.0171320" lon="-2.3812360">
        <ele>606.1</ele>
        <time>2019-10-18T15:02:59Z</time>
      </trkpt>
      <trkpt lat="37.0171690" lon="-2.3812190">
        <ele>605.7</ele>
        <time>2019-10-18T15:03:00Z</time>
      </trkpt>
      <trkpt lat="37.0172080" lon="-2.3812010">
        <ele>605.3</ele>
        <time>2019-10-18T15:03:01Z</time>
      </trkpt>
      <trkpt lat="37.0172490" lon="-2.3811890">
        <ele>604.8</ele>
        <time>2019-10-18T15:03:02Z</time>
      </trkpt>
      <trkpt lat="37.0172910" lon="-2.3811860">
        <ele>604.3</ele>
        <time>2019-10-18T15:03:03Z</time>
      </trkpt>
      <trkpt lat="37.0173330" lon="-2.3811910">
        <ele>603.8</ele>
        <time>2019-10-18T15:03:04Z</time>
      </trkpt>
      <trkpt lat="37.0173740" lon="-2.3812000">
        <ele>603.3</ele>
        <time>2019-10-18T15:03:05Z</time>
      </trkpt>
      <trkpt lat="37.0174150" lon="-2.3812160">
        <ele>602.6</ele>
        <time>2019-10-18T15:03:06Z</time>
      </trkpt>
      <trkpt lat="37.0174550" lon="-2.3812380">
        <ele>602.0</ele>
        <time>2019-10-18T15:03:07Z</time>
      </trkpt>
      <trkpt lat="37.0174910" lon="-2.3812680">
        <ele>601.4</ele>
        <time>2019-10-18T15:03:08Z</time>
      </trkpt>
      <trkpt lat="37.0175230" lon="-2.3813020">
        <ele>600.7</ele>
        <time>2019-10-18T15:03:09Z</time>
      </trkpt>
      <trkpt lat="37.0175540" lon="-2.3813390">
        <ele>600.1</ele>
        <time>2019-10-18T15:03:10Z</time>
      </trkpt>
      <trkpt lat="37.0175800" lon="-2.3813800">
        <ele>599.4</ele>
        <time>2019-10-18T15:03:11Z</time>
      </trkpt>
      <trkpt lat="37.0176040" lon="-2.3814270">
        <ele>598.7</ele>
        <time>2019-10-18T15:03:12Z</time>
      </trkpt>
      <trkpt lat="37.0176250" lon="-2.3814800">
        <ele>598.0</ele>
        <time>2019-10-18T15:03:13Z</time>
      </trkpt>
      <trkpt lat="37.0176430" lon="-2.3815330">
        <ele>597.3</ele>
        <time>2019-10-18T15:03:14Z</time>
      </trkpt>
      <trkpt lat="37.0176550" lon="-2.3815940">
        <ele>596.6</ele>
        <time>2019-10-18T15:03:15Z</time>
      </trkpt>
      <trkpt lat="37.0176530" lon="-2.3816600">
        <ele>595.7</ele>
        <time>2019-10-18T15:03:16Z</time>
      </trkpt>
      <trkpt lat="37.0176410" lon="-2.3817300">
        <ele>594.8</ele>
        <time>2019-10-18T15:03:17Z</time>
      </trkpt>
      <trkpt lat="37.0176180" lon="-2.3817890">
        <ele>594.0</ele>
        <time>2019-10-18T15:03:18Z</time>
      </trkpt>
      <trkpt lat="37.0175960" lon="-2.3818430">
        <ele>593.4</ele>
        <time>2019-10-18T15:03:19Z</time>
      </trkpt>
      <trkpt lat="37.0175810" lon="-2.3818920">
        <ele>592.8</ele>
        <time>2019-10-18T15:03:20Z</time>
      </trkpt>
      <trkpt lat="37.0175790" lon="-2.3819460">
        <ele>592.2</ele>
        <time>2019-10-18T15:03:21Z</time>
      </trkpt>
      <trkpt lat="37.0175880" lon="-2.3820010">
        <ele>591.6</ele>
        <time>2019-10-18T15:03:22Z</time>
      </trkpt>
      <trkpt lat="37.0176150" lon="-2.3820490">
        <ele>591.1</ele>
        <time>2019-10-18T15:03:23Z</time>
      </trkpt>
      <trkpt lat="37.0176560" lon="-2.3820810">
        <ele>590.6</ele>
        <time>2019-10-18T15:03:24Z</time>
      </trkpt>
      <trkpt lat="37.0177130" lon="-2.3820980">
        <ele>590.0</ele>
        <time>2019-10-18T15:03:25Z</time>
      </trkpt>
      <trkpt lat="37.0177750" lon="-2.3820980">
        <ele>589.4</ele>
        <time>2019-10-18T15:03:26Z</time>
      </trkpt>
      <trkpt lat="37.0178430" lon="-2.3820860">
        <ele>588.9</ele>
        <time>2019-10-18T15:03:27Z</time>
      </trkpt>
      <trkpt lat="37.0179120" lon="-2.3820580">
        <ele>588.3</ele>
        <time>2019-10-18T15:03:28Z</time>
      </trkpt>
      <trkpt lat="37.0179770" lon="-2.3820170">
        <ele>587.8</ele>
        <time>2019-10-18T15:03:29Z</time>
      </trkpt>
      <trkpt lat="37.0180350" lon="-2.3819630">
        <ele>587.3</ele>
        <time>2019-10-18T15:03:30Z</time>
      </trkpt>
      <trkpt lat="37.0180890" lon="-2.3819010">
        <ele>586.8</ele>
        <time>2019-10-18T15:03:31Z</time>
      </trkpt>
      <trkpt lat="37.0181410" lon="-2.3818320">
        <ele>586.3</ele>
        <time>2019-10-18T15:03:32Z</time>
      </trkpt>
      <trkpt lat="37.0181920" lon="-2.3817620">
        <ele>585.8</ele>
        <time>2019-10-18T15:03:33Z</time>
      </trkpt>
      <trkpt lat="37.0182440" lon="-2.3816950">
        <ele>585.2</ele>
        <time>2019-10-18T15:03:34Z</time>
      </trkpt>
      <trkpt lat="37.0182970" lon="-2.3816350">
        <ele>584.6</ele>
        <time>2019-10-18T15:03:35Z</time>
      </trkpt>
      <trkpt lat="37.0183510" lon="-2.3815850">
        <ele>584.0</ele>
        <time>2019-10-18T15:03:36Z</time>
      </trkpt>
      <trkpt lat="37.0184060" lon="-2.3815470">
        <ele>583.4</ele>
        <time>2019-10-18T15:03:37Z</time>
      </trkpt>
      <trkpt lat="37.0184580" lon="-2.3815200">
        <ele>582.9</ele>
        <time>2019-10-18T15:03:38Z</time>
      </trkpt>
      <trkpt lat="37.0185050" lon="-2.3814960">
        <ele>582.4</ele>
        <time>2019-10-18T15:03:39Z</time>
      </trkpt>
      <trkpt lat="37.0185470" lon="-2.3814670">
        <ele>581.9</ele>
        <time>2019-10-18T15:03:40Z</time>
      </trkpt>
      <trkpt lat="37.0185770" lon="-2.3814290">
        <ele>581.5</ele>
        <time>2019-10-18T15:03:41Z</time>
      </trkpt>
      <trkpt lat="37.0185910" lon="-2.3813780">
        <ele>581.0</ele>
        <time>2019-10-18T15:03:42Z</time>
      </trkpt>
      <trkpt lat="37.0185830" lon="-2.3813180">
        <ele>580.4</ele>
        <time>2019-10-18T15:03:43Z</time>
      </trkpt>
      <trkpt lat="37.0185570" lon="-2.3812550">
        <ele>579.8</ele>
        <time>2019-10-18T15:03:44Z</time>
      </trkpt>
      <trkpt lat="37.0185210" lon="-2.3811900">
        <ele>579.1</ele>
        <time>2019-10-18T15:03:45Z</time>
      </trkpt>
      <trkpt lat="37.0184800" lon="-2.3811230">
        <ele>578.4</ele>
        <time>2019-10-18T15:03:46Z</time>
      </trkpt>
      <trkpt lat="37.0184360" lon="-2.3810560">
        <ele>577.6</ele>
        <time>2019-10-18T15:03:47Z</time>
      </trkpt>
      <trkpt lat="37.0183890" lon="-2.3809940">
        <ele>576.9</ele>
        <time>2019-10-18T15:03:48Z</time>
      </trkpt>
      <trkpt lat="37.0183380" lon="-2.3809440">
        <ele>576.2</ele>
        <time>2019-10-18T15:03:49Z</time>
      </trkpt>
      <trkpt lat="37.0182870" lon="-2.3809060">
        <ele>575.7</ele>
        <time>2019-10-18T15:03:50Z</time>
      </trkpt>
      <trkpt lat="37.0182370" lon="-2.3808790">
        <ele>575.2</ele>
        <time>2019-10-18T15:03:51Z</time>
      </trkpt>
      <trkpt lat="37.0181900" lon="-2.3808580">
        <ele>574.7</ele>
        <time>2019-10-18T15:03:52Z</time>
      </trkpt>
      <trkpt lat="37.0181500" lon="-2.3808390">
        <ele>574.3</ele>
        <time>2019-10-18T15:03:53Z</time>
      </trkpt>
      <trkpt lat="37.0181190" lon="-2.3808150">
        <ele>573.9</ele>
        <time>2019-10-18T15:03:54Z</time>
      </trkpt>
      <trkpt lat="37.0180960" lon="-2.3807850">
        <ele>573.5</ele>
        <time>2019-10-18T15:03:55Z</time>
      </trkpt>
      <trkpt lat="37.0180830" lon="-2.3807510">
        <ele>573.2</ele>
        <time>2019-10-18T15:03:56Z</time>
      </trkpt>
      <trkpt lat="37.0180770" lon="-2.3807130">
        <ele>572.8</ele>
        <time>2019-10-18T15:03:57Z</time>
      </trkpt>
      <trkpt lat="37.0180810" lon="-2.3806690">
        <ele>572.4</ele>
        <time>2019-10-18T15:03:58Z</time>
      </trkpt>
      <trkpt lat="37.0180960" lon="-2.3806210">
        <ele>571.9</ele>
        <time>2019-10-18T15:03:59Z</time>
      </trkpt>
      <trkpt lat="37.0181210" lon="-2.3805710">
        <ele>571.2</ele>
        <time>2019-10-18T15:04:00Z</time>
      </trkpt>
      <trkpt lat="37.0181540" lon="-2.3805290">
        <ele>570.5</ele>
        <time>2019-10-18T15:04:01Z</time>
      </trkpt>
      <trkpt lat="37.0181900" lon="-2.3804970">
        <ele>569.8</ele>
        <time>2019-10-18T15:04:02Z</time>
      </trkpt>
      <trkpt lat="37.0182280" lon="-2.3804790">
        <ele>569.2</ele>
        <time>2019-10-18T15:04:03Z</time>
      </trkpt>
      <trkpt lat="37.0182690" lon="-2.3804750">
        <ele>568.6</ele>
        <time>2019-10-18T15:04:04Z</time>
      </trkpt>
      <trkpt lat="37.0183110" lon="-2.3804820">
        <ele>567.9</ele>
        <time>2019-10-18T15:04:05Z</time>
      </trkpt>
      <trkpt lat="37.0183550" lon="-2.3804980">
        <ele>567.2</ele>
        <time>2019-10-18T15:04:06Z</time>
      </trkpt>
      <trkpt lat="37.0183980" lon="-2.3805180">
        <ele>566.6</ele>
        <time>2019-10-18T15:04:07Z</time>
      </trkpt>
      <trkpt lat="37.0184390" lon="-2.3805390">
        <ele>565.9</ele>
        <time>2019-10-18T15:04:08Z</time>
      </trkpt>
      <trkpt lat="37.0184780" lon="-2.3805610">
        <ele>565.3</ele>
        <time>2019-10-18T15:04:09Z</time>
      </trkpt>
      <trkpt lat="37.0185170" lon="-2.3805810">
        <ele>564.7</ele>
        <time>2019-10-18T15:04:10Z</time>
      </trkpt>
      <trkpt lat="37.0185550" lon="-2.3806010">
        <ele>564.1</ele>
        <time>2019-10-18T15:04:11Z</time>
      </trkpt>
      <trkpt lat="37.0185930" lon="-2.3806210">
        <ele>563.4</ele>
        <time>2019-10-18T15:04:12Z</time>
      </trkpt>
      <trkpt lat="37.0186310" lon="-2.3806410">
        <ele>562.7</ele>
        <time>2019-10-18T15:04:13Z</time>
      </trkpt>
      <trkpt lat="37.0186700" lon="-2.3806620">
        <ele>562.1</ele>
        <time>2019-10-18T15:04:14Z</time>
      </trkpt>
      <trkpt lat="37.0187080" lon="-2.3806870">
        <ele>561.4</ele>
        <time>2019-10-18T15:04:15Z</time>
      </trkpt>
      <trkpt lat="37.0187470" lon="-2.3807170">
        <ele>560.8</ele>
        <time>2019-10-18T15:04:16Z</time>
      </trkpt>
      <trkpt lat="37.0187860" lon="-2.3807490">
        <ele>560.1</ele>
        <time>2019-10-18T15:04:17Z</time>
      </trkpt>
      <trkpt lat="37.0188260" lon="-2.3807810">
        <ele>559.4</ele>
        <time>2019-10-18T15:04:18Z</time>
      </trkpt>
      <trkpt lat="37.0188700" lon="-2.3808130">
        <ele>558.8</ele>
        <time>2019-10-18T15:04:19Z</time>
      </trkpt>
      <trkpt lat="37.0189170" lon="-2.3808410">
        <ele>558.1</ele>
        <time>2019-10-18T15:04:20Z</time>
      </trkpt>
      <trkpt lat="37.0189660" lon="-2.3808640">
        <ele>557.5</ele>
        <time>2019-10-18T15:04:21Z</time>
      </trkpt>
      <trkpt lat="37.0190150" lon="-2.3808800">
        <ele>556.9</ele>
        <time>2019-10-18T15:04:22Z</time>
      </trkpt>
      <trkpt lat="37.0190640" lon="-2.3808950">
        <ele>556.3</ele>
        <time>2019-10-18T15:04:23Z</time>
      </trkpt>
      <trkpt lat="37.0191100" lon="-2.3809120">
        <ele>555.8</ele>
        <time>2019-10-18T15:04:24Z</time>
      </trkpt>
      <trkpt lat="37.0191550" lon="-2.3809370">
        <ele>555.2</ele>
        <time>2019-10-18T15:04:25Z</time>
      </trkpt>
      <trkpt lat="37.0191970" lon="-2.3809690">
        <ele>554.6</ele>
        <time>2019-10-18T15:04:26Z</time>
      </trkpt>
      <trkpt lat="37.0192360" lon="-2.3810070">
        <ele>553.9</ele>
        <time>2019-10-18T15:04:27Z</time>
      </trkpt>
      <trkpt lat="37.0192720" lon="-2.3810490">
        <ele>553.3</ele>
        <time>2019-10-18T15:04:28Z</time>
      </trkpt>
      <trkpt lat="37.0193060" lon="-2.3810910">
        <ele>552.5</ele>
        <time>2019-10-18T15:04:29Z</time>
      </trkpt>
      <trkpt lat="37.0193350" lon="-2.3811360">
        <ele>551.7</ele>
        <time>2019-10-18T15:04:30Z</time>
      </trkpt>
      <trkpt lat="37.0193570" lon="-2.3811870">
        <ele>550.9</ele>
        <time>2019-10-18T15:04:31Z</time>
      </trkpt>
      <trkpt lat="37.0193670" lon="-2.3812490">
        <ele>550.1</ele>
        <time>2019-10-18T15:04:32Z</time>
      </trkpt>
      <trkpt lat="37.0193680" lon="-2.3813210">
        <ele>549.1</ele>
        <time>2019-10-18T15:04:33Z</time>
      </trkpt>
      <trkpt lat="37.0193640" lon="-2.3814030">
        <ele>547.9</ele>
        <time>2019-10-18T15:04:34Z</time>
      </trkpt>
      <trkpt lat="37.0193580" lon="-2.3814850">
        <ele>546.8</ele>
        <time>2019-10-18T15:04:35Z</time>
      </trkpt>
      <trkpt lat="37.0193500" lon="-2.3815650">
        <ele>545.7</ele>
        <time>2019-10-18T15:04:36Z</time>
      </trkpt>
      <trkpt lat="37.0193420" lon="-2.3816370">
        <ele>544.9</ele>
        <time>2019-10-18T15:04:37Z</time>
      </trkpt>
      <trkpt lat="37.0193330" lon="-2.3817040">
        <ele>544.0</ele>
        <time>2019-10-18T15:04:38Z</time>
      </trkpt>
      <trkpt lat="37.0193250" lon="-2.3817660">
        <ele>543.3</ele>
        <time>2019-10-18T15:04:39Z</time>
      </trkpt>
      <trkpt lat="37.0193180" lon="-2.3818240">
        <ele>542.7</ele>
        <time>2019-10-18T15:04:40Z</time>
      </trkpt>
      <trkpt lat="37.0193210" lon="-2.3818820">
        <ele>542.1</ele>
        <time>2019-10-18T15:04:41Z</time>
      </trkpt>
      <trkpt lat="37.0193370" lon="-2.3819380">
        <ele>541.6</ele>
        <time>2019-10-18T15:04:42Z</time>
      </trkpt>
      <trkpt lat="37.0193650" lon="-2.3819880">
        <ele>541.1</ele>
        <time>2019-10-18T15:04:43Z</time>
      </trkpt>
      <trkpt lat="37.0194020" lon="-2.3820270">
        <ele>540.6</ele>
        <time>2019-10-18T15:04:44Z</time>
      </trkpt>
      <trkpt lat="37.0194430" lon="-2.3820520">
        <ele>540.1</ele>
        <time>2019-10-18T15:04:45Z</time>
      </trkpt>
      <trkpt lat="37.0194870" lon="-2.3820620">
        <ele>539.7</ele>
        <time>2019-10-18T15:04:46Z</time>
      </trkpt>
      <trkpt lat="37.0195370" lon="-2.3820510">
        <ele>539.2</ele>
        <time>2019-10-18T15:04:47Z</time>
      </trkpt>
      <trkpt lat="37.0195930" lon="-2.3820270">
        <ele>538.5</ele>
        <time>2019-10-18T15:04:48Z</time>
      </trkpt>
      <trkpt lat="37.0196540" lon="-2.3819850">
        <ele>537.6</ele>
        <time>2019-10-18T15:04:49Z</time>
      </trkpt>
      <trkpt lat="37.0197160" lon="-2.3819380">
        <ele>536.9</ele>
        <time>2019-10-18T15:04:50Z</time>
      </trkpt>
      <trkpt lat="37.0197800" lon="-2.3818800">
        <ele>536.0</ele>
        <time>2019-10-18T15:04:51Z</time>
      </trkpt>
      <trkpt lat="37.0198450" lon="-2.3818210">
        <ele>535.0</ele>
        <time>2019-10-18T15:04:52Z</time>
      </trkpt>
      <trkpt lat="37.0199120" lon="-2.3817600">
        <ele>534.2</ele>
        <time>2019-10-18T15:04:53Z</time>
      </trkpt>
      <trkpt lat="37.0199800" lon="-2.3817010">
        <ele>533.4</ele>
        <time>2019-10-18T15:04:54Z</time>
      </trkpt>
      <trkpt lat="37.0200490" lon="-2.3816450">
        <ele>532.5</ele>
        <time>2019-10-18T15:04:55Z</time>
      </trkpt>
      <trkpt lat="37.0201190" lon="-2.3815930">
        <ele>531.7</ele>
        <time>2019-10-18T15:04:56Z</time>
      </trkpt>
      <trkpt lat="37.0201900" lon="-2.3815470">
        <ele>531.0</ele>
        <time>2019-10-18T15:04:57Z</time>
      </trkpt>
      <trkpt lat="37.0202610" lon="-2.3815070">
        <ele>530.3</ele>
        <time>2019-10-18T15:04:58Z</time>
      </trkpt>
      <trkpt lat="37.0203310" lon="-2.3814730">
        <ele>529.6</ele>
        <time>2019-10-18T15:04:59Z</time>
      </trkpt>
      <trkpt lat="37.0203990" lon="-2.3814430">
        <ele>529.0</ele>
        <time>2019-10-18T15:05:00Z</time>
      </trkpt>
      <trkpt lat="37.0204670" lon="-2.3814180">
        <ele>528.3</ele>
        <time>2019-10-18T15:05:01Z</time>
      </trkpt>
      <trkpt lat="37.0205350" lon="-2.3813970">
        <ele>527.8</ele>
        <time>2019-10-18T15:05:02Z</time>
      </trkpt>
      <trkpt lat="37.0206020" lon="-2.3813800">
        <ele>527.3</ele>
        <time>2019-10-18T15:05:03Z</time>
      </trkpt>
      <trkpt lat="37.0206690" lon="-2.3813640">
        <ele>526.8</ele>
        <time>2019-10-18T15:05:04Z</time>
      </trkpt>
      <trkpt lat="37.0207360" lon="-2.3813460">
        <ele>526.2</ele>
        <time>2019-10-18T15:05:05Z</time>
      </trkpt>
      <trkpt lat="37.0208040" lon="-2.3813280">
        <ele>525.7</ele>
        <time>2019-10-18T15:05:06Z</time>
      </trkpt>
      <trkpt lat="37.0208720" lon="-2.3813090">
        <ele>525.4</ele>
        <time>2019-10-18T15:05:07Z</time>
      </trkpt>
      <trkpt lat="37.0209420" lon="-2.3812890">
        <ele>525.1</ele>
        <time>2019-10-18T15:05:08Z</time>
      </trkpt>
      <trkpt lat="37.0210130" lon="-2.3812690">
        <ele>524.7</ele>
        <time>2019-10-18T15:05:09Z</time>
      </trkpt>
      <trkpt lat="37.0210830" lon="-2.3812500">
        <ele>524.4</ele>
        <time>2019-10-18T15:05:10Z</time>
      </trkpt>
      <trkpt lat="37.0211540" lon="-2.3812330">
        <ele>524.1</ele>
        <time>2019-10-18T15:05:11Z</time>
      </trkpt>
      <trkpt lat="37.0212230" lon="-2.3812160">
        <ele>523.8</ele>
        <time>2019-10-18T15:05:12Z</time>
      </trkpt>
      <trkpt lat="37.0212920" lon="-2.3812010">
        <ele>523.5</ele>
        <time>2019-10-18T15:05:13Z</time>
      </trkpt>
      <trkpt lat="37.0213600" lon="-2.3811880">
        <ele>523.2</ele>
        <time>2019-10-18T15:05:14Z</time>
      </trkpt>
      <trkpt lat="37.0214270" lon="-2.3811770">
        <ele>522.9</ele>
        <time>2019-10-18T15:05:15Z</time>
      </trkpt>
      <trkpt lat="37.0214930" lon="-2.3811680">
        <ele>522.7</ele>
        <time>2019-10-18T15:05:16Z</time>
      </trkpt>
      <trkpt lat="37.0215570" lon="-2.3811610">
        <ele>522.5</ele>
        <time>2019-10-18T15:05:17Z</time>
      </trkpt>
      <trkpt lat="37.0216200" lon="-2.3811570">
        <ele>522.3</ele>
        <time>2019-10-18T15:05:18Z</time>
      </trkpt>
      <trkpt lat="37.0216820" lon="-2.3811540">
        <ele>522.1</ele>
        <time>2019-10-18T15:05:19Z</time>
      </trkpt>
      <trkpt lat="37.0217440" lon="-2.3811510">
        <ele>521.9</ele>
        <time>2019-10-18T15:05:20Z</time>
      </trkpt>
      <trkpt lat="37.0218060" lon="-2.3811470">
        <ele>521.7</ele>
        <time>2019-10-18T15:05:21Z</time>
      </trkpt>
      <trkpt lat="37.0218670" lon="-2.3811410">
        <ele>521.5</ele>
        <time>2019-10-18T15:05:22Z</time>
      </trkpt>
      <trkpt lat="37.0219270" lon="-2.3811320">
        <ele>521.3</ele>
        <time>2019-10-18T15:05:23Z</time>
      </trkpt>
      <trkpt lat="37.0219840" lon="-2.3811190">
        <ele>521.2</ele>
        <time>2019-10-18T15:05:24Z</time>
      </trkpt>
      <trkpt lat="37.0220390" lon="-2.3811030">
        <ele>521.0</ele>
        <time>2019-10-18T15:05:25Z</time>
      </trkpt>
      <trkpt lat="37.0220930" lon="-2.3810830">
        <ele>520.9</ele>
        <time>2019-10-18T15:05:26Z</time>
      </trkpt>
      <trkpt lat="37.0221450" lon="-2.3810620">
        <ele>520.8</ele>
        <time>2019-10-18T15:05:27Z</time>
      </trkpt>
      <trkpt lat="37.0221950" lon="-2.3810420">
        <ele>520.7</ele>
        <time>2019-10-18T15:05:28Z</time>
      </trkpt>
      <trkpt lat="37.0222430" lon="-2.3810230">
        <ele>520.7</ele>
        <time>2019-10-18T15:05:29Z</time>
      </trkpt>
      <trkpt lat="37.0222890" lon="-2.3810060">
        <ele>520.7</ele>
        <time>2019-10-18T15:05:30Z</time>
      </trkpt>
      <trkpt lat="37.0223340" lon="-2.3809900">
        <ele>520.7</ele>
        <time>2019-10-18T15:05:31Z</time>
      </trkpt>
      <trkpt lat="37.0223780" lon="-2.3809770">
        <ele>520.8</ele>
        <time>2019-10-18T15:05:32Z</time>
      </trkpt>
      <trkpt lat="37.0224230" lon="-2.3809650">
        <ele>520.8</ele>
        <time>2019-10-18T15:05:33Z</time>
      </trkpt>
      <trkpt lat="37.0224690" lon="-2.3809540">
        <ele>520.9</ele>
        <time>2019-10-18T15:05:34Z</time>
      </trkpt>
      <trkpt lat="37.0225170" lon="-2.3809430">
        <ele>521.0</ele>
        <time>2019-10-18T15:05:35Z</time>
      </trkpt>
      <trkpt lat="37.0225660" lon="-2.3809300">
        <ele>521.0</ele>
        <time>2019-10-18T15:05:36Z</time>
      </trkpt>
      <trkpt lat="37.0226170" lon="-2.3809170">
        <ele>521.0</ele>
        <time>2019-10-18T15:05:37Z</time>
      </trkpt>
      <trkpt lat="37.0226700" lon="-2.3809040">
        <ele>521.0</ele>
        <time>2019-10-18T15:05:38Z</time>
      </trkpt>
      <trkpt lat="37.0227240" lon="-2.3808900">
        <ele>520.8</ele>
        <time>2019-10-18T15:05:39Z</time>
      </trkpt>
      <trkpt lat="37.0227780" lon="-2.3808760">
        <ele>520.6</ele>
        <time>2019-10-18T15:05:40Z</time>
      </trkpt>
      <trkpt lat="37.0228330" lon="-2.3808630">
        <ele>520.4</ele>
        <time>2019-10-18T15:05:41Z</time>
      </trkpt>
      <trkpt lat="37.0228890" lon="-2.3808510">
        <ele>520.2</ele>
        <time>2019-10-18T15:05:42Z</time>
      </trkpt>
      <trkpt lat="37.0229450" lon="-2.3808390">
        <ele>519.9</ele>
        <time>2019-10-18T15:05:43Z</time>
      </trkpt>
      <trkpt lat="37.0230020" lon="-2.3808270">
        <ele>519.7</ele>
        <time>2019-10-18T15:05:44Z</time>
      </trkpt>
      <trkpt lat="37.0230590" lon="-2.3808160">
        <ele>519.5</ele>
        <time>2019-10-18T15:05:45Z</time>
      </trkpt>
      <trkpt lat="37.0231160" lon="-2.3808050">
        <ele>519.3</ele>
        <time>2019-10-18T15:05:46Z</time>
      </trkpt>
      <trkpt lat="37.0231730" lon="-2.3807950">
        <ele>519.1</ele>
        <time>2019-10-18T15:05:47Z</time>
      </trkpt>
      <trkpt lat="37.0232300" lon="-2.3807840">
        <ele>518.9</ele>
        <time>2019-10-18T15:05:48Z</time>
      </trkpt>
      <trkpt lat="37.0232860" lon="-2.3807730">
        <ele>518.7</ele>
        <time>2019-10-18T15:05:49Z</time>
      </trkpt>
      <trkpt lat="37.0233430" lon="-2.3807620">
        <ele>518.5</ele>
        <time>2019-10-18T15:05:50Z</time>
      </trkpt>
      <trkpt lat="37.0234000" lon="-2.3807520">
        <ele>518.4</ele>
        <time>2019-10-18T15:05:51Z</time>
      </trkpt>
      <trkpt lat="37.0234580" lon="-2.3807440">
        <ele>518.2</ele>
        <time>2019-10-18T15:05:52Z</time>
      </trkpt>
      <trkpt lat="37.0235160" lon="-2.3807360">
        <ele>518.0</ele>
        <time>2019-10-18T15:05:53Z</time>
      </trkpt>
      <trkpt lat="37.0235740" lon="-2.3807280">
        <ele>517.8</ele>
        <time>2019-10-18T15:05:54Z</time>
      </trkpt>
      <trkpt lat="37.0236320" lon="-2.3807170">
        <ele>517.6</ele>
        <time>2019-10-18T15:05:55Z</time>
      </trkpt>
      <trkpt lat="37.0236890" lon="-2.3807070">
        <ele>517.4</ele>
        <time>2019-10-18T15:05:56Z</time>
      </trkpt>
      <trkpt lat="37.0237420" lon="-2.3807000">
        <ele>517.3</ele>
        <time>2019-10-18T15:05:57Z</time>
      </trkpt>
      <trkpt lat="37.0237900" lon="-2.3806980">
        <ele>517.1</ele>
        <time>2019-10-18T15:05:58Z</time>
      </trkpt>
      <trkpt lat="37.0238350" lon="-2.3807020">
        <ele>516.9</ele>
        <time>2019-10-18T15:05:59Z</time>
      </trkpt>
      <trkpt lat="37.0238800" lon="-2.3807090">
        <ele>516.7</ele>
        <time>2019-10-18T15:06:00Z</time>
      </trkpt>
      <trkpt lat="37.0239240" lon="-2.3807180">
        <ele>516.4</ele>
        <time>2019-10-18T15:06:01Z</time>
      </trkpt>
      <trkpt lat="37.0239690" lon="-2.3807260">
        <ele>516.1</ele>
        <time>2019-10-18T15:06:02Z</time>
      </trkpt>
      <trkpt lat="37.0240140" lon="-2.3807300">
        <ele>515.8</ele>
        <time>2019-10-18T15:06:03Z</time>
      </trkpt>
      <trkpt lat="37.0240590" lon="-2.3807230">
        <ele>515.4</ele>
        <time>2019-10-18T15:06:04Z</time>
      </trkpt>
      <trkpt lat="37.0241050" lon="-2.3807050">
        <ele>515.0</ele>
        <time>2019-10-18T15:06:05Z</time>
      </trkpt>
      <trkpt lat="37.0241540" lon="-2.3806770">
        <ele>514.4</ele>
        <time>2019-10-18T15:06:06Z</time>
      </trkpt>
      <trkpt lat="37.0242050" lon="-2.3806420">
        <ele>513.8</ele>
        <time>2019-10-18T15:06:07Z</time>
      </trkpt>
      <trkpt lat="37.0242580" lon="-2.3806030">
        <ele>513.1</ele>
        <time>2019-10-18T15:06:08Z</time>
      </trkpt>
      <trkpt lat="37.0243130" lon="-2.3805580">
        <ele>512.3</ele>
        <time>2019-10-18T15:06:09Z</time>
      </trkpt>
      <trkpt lat="37.0243650" lon="-2.3805050">
        <ele>511.4</ele>
        <time>2019-10-18T15:06:10Z</time>
      </trkpt>
      <trkpt lat="37.0244150" lon="-2.3804450">
        <ele>510.5</ele>
        <time>2019-10-18T15:06:11Z</time>
      </trkpt>
      <trkpt lat="37.0244630" lon="-2.3803810">
        <ele>509.7</ele>
        <time>2019-10-18T15:06:12Z</time>
      </trkpt>
      <trkpt lat="37.0245100" lon="-2.3803150">
        <ele>508.8</ele>
        <time>2019-10-18T15:06:13Z</time>
      </trkpt>
      <trkpt lat="37.0245590" lon="-2.3802470">
        <ele>507.9</ele>
        <time>2019-10-18T15:06:14Z</time>
      </trkpt>
      <trkpt lat="37.0246090" lon="-2.3801790">
        <ele>507.0</ele>
        <time>2019-10-18T15:06:15Z</time>
      </trkpt>
      <trkpt lat="37.0246590" lon="-2.3801140">
        <ele>506.2</ele>
        <time>2019-10-18T15:06:16Z</time>
      </trkpt>
      <trkpt lat="37.0247110" lon="-2.3800540">
        <ele>505.3</ele>
        <time>2019-10-18T15:06:17Z</time>
      </trkpt>
      <trkpt lat="37.0247640" lon="-2.3799970">
        <ele>504.5</ele>
        <time>2019-10-18T15:06:18Z</time>
      </trkpt>
      <trkpt lat="37.0248150" lon="-2.3799430">
        <ele>503.6</ele>
        <time>2019-10-18T15:06:19Z</time>
      </trkpt>
      <trkpt lat="37.0248640" lon="-2.3798910">
        <ele>502.7</ele>
        <time>2019-10-18T15:06:20Z</time>
      </trkpt>
      <trkpt lat="37.0249140" lon="-2.3798460">
        <ele>501.9</ele>
        <time>2019-10-18T15:06:21Z</time>
      </trkpt>
      <trkpt lat="37.0249700" lon="-2.3798090">
        <ele>501.0</ele>
        <time>2019-10-18T15:06:22Z</time>
      </trkpt>
      <trkpt lat="37.0250300" lon="-2.3797820">
        <ele>500.2</ele>
        <time>2019-10-18T15:06:23Z</time>
      </trkpt>
      <trkpt lat="37.0250910" lon="-2.3797670">
        <ele>499.5</ele>
        <time>2019-10-18T15:06:24Z</time>
      </trkpt>
      <trkpt lat="37.0251480" lon="-2.3797610">
        <ele>498.9</ele>
        <time>2019-10-18T15:06:25Z</time>
      </trkpt>
      <trkpt lat="37.0252010" lon="-2.3797640">
        <ele>498.5</ele>
        <time>2019-10-18T15:06:26Z</time>
      </trkpt>
      <trkpt lat="37.0252530" lon="-2.3797720">
        <ele>497.9</ele>
        <time>2019-10-18T15:06:27Z</time>
      </trkpt>
      <trkpt lat="37.0253070" lon="-2.3797840">
        <ele>497.3</ele>
        <time>2019-10-18T15:06:28Z</time>
      </trkpt>
      <trkpt lat="37.0253640" lon="-2.3797980">
        <ele>496.6</ele>
        <time>2019-10-18T15:06:29Z</time>
      </trkpt>
      <trkpt lat="37.0254230" lon="-2.3798150">
        <ele>495.9</ele>
        <time>2019-10-18T15:06:30Z</time>
      </trkpt>
      <trkpt lat="37.0254790" lon="-2.3798360">
        <ele>495.1</ele>
        <time>2019-10-18T15:06:31Z</time>
      </trkpt>
      <trkpt lat="37.0255270" lon="-2.3798640">
        <ele>494.5</ele>
        <time>2019-10-18T15:06:32Z</time>
      </trkpt>
      <trkpt lat="37.0255670" lon="-2.3798990">
        <ele>494.0</ele>
        <time>2019-10-18T15:06:33Z</time>
      </trkpt>
      <trkpt lat="37.0255970" lon="-2.3799410">
        <ele>493.5</ele>
        <time>2019-10-18T15:06:34Z</time>
      </trkpt>
      <trkpt lat="37.0256210" lon="-2.3799880">
        <ele>493.1</ele>
        <time>2019-10-18T15:06:35Z</time>
      </trkpt>
      <trkpt lat="37.0256350" lon="-2.3800410">
        <ele>492.7</ele>
        <time>2019-10-18T15:06:36Z</time>
      </trkpt>
      <trkpt lat="37.0256430" lon="-2.3800990">
        <ele>492.3</ele>
        <time>2019-10-18T15:06:37Z</time>
      </trkpt>
      <trkpt lat="37.0256450" lon="-2.3801590">
        <ele>492.0</ele>
        <time>2019-10-18T15:06:38Z</time>
      </trkpt>
      <trkpt lat="37.0256440" lon="-2.3802190">
        <ele>491.7</ele>
        <time>2019-10-18T15:06:39Z</time>
      </trkpt>
      <trkpt lat="37.0256430" lon="-2.3802760">
        <ele>491.5</ele>
        <time>2019-10-18T15:06:40Z</time>
      </trkpt>
      <trkpt lat="37.0256420" lon="-2.3803340">
        <ele>491.3</ele>
        <time>2019-10-18T15:06:41Z</time>
      </trkpt>
      <trkpt lat="37.0256410" lon="-2.3803920">
        <ele>491.1</ele>
        <time>2019-10-18T15:06:42Z</time>
      </trkpt>
      <trkpt lat="37.0256440" lon="-2.3804530">
        <ele>490.9</ele>
        <time>2019-10-18T15:06:43Z</time>
      </trkpt>
      <trkpt lat="37.0256520" lon="-2.3805150">
        <ele>490.7</ele>
        <time>2019-10-18T15:06:44Z</time>
      </trkpt>
      <trkpt lat="37.0256650" lon="-2.3805790">
        <ele>490.4</ele>
        <time>2019-10-18T15:06:45Z</time>
      </trkpt>
      <trkpt lat="37.0256840" lon="-2.3806420">
        <ele>490.2</ele>
        <time>2019-10-18T15:06:46Z</time>
      </trkpt>
      <trkpt lat="37.0257080" lon="-2.3807050">
        <ele>489.9</ele>
        <time>2019-10-18T15:06:47Z</time>
      </trkpt>
      <trkpt lat="37.0257390" lon="-2.3807670">
        <ele>489.7</ele>
        <time>2019-10-18T15:06:48Z</time>
      </trkpt>
      <trkpt lat="37.0257750" lon="-2.3808270">
        <ele>489.4</ele>
        <time>2019-10-18T15:06:49Z</time>
      </trkpt>
      <trkpt lat="37.0258160" lon="-2.3808830">
        <ele>489.1</ele>
        <time>2019-10-18T15:06:50Z</time>
      </trkpt>
      <trkpt lat="37.0258620" lon="-2.3809340">
        <ele>488.8</ele>
        <time>2019-10-18T15:06:51Z</time>
      </trkpt>
      <trkpt lat="37.0259130" lon="-2.3809790">
        <ele>488.4</ele>
        <time>2019-10-18T15:06:52Z</time>
      </trkpt>
      <trkpt lat="37.0259690" lon="-2.3810200">
        <ele>488.1</ele>
        <time>2019-10-18T15:06:53Z</time>
      </trkpt>
      <trkpt lat="37.0260260" lon="-2.3810600">
        <ele>487.8</ele>
        <time>2019-10-18T15:06:54Z</time>
      </trkpt>
      <trkpt lat="37.0260830" lon="-2.3811020">
        <ele>487.5</ele>
        <time>2019-10-18T15:06:55Z</time>
      </trkpt>
      <trkpt lat="37.0261420" lon="-2.3811470">
        <ele>487.1</ele>
        <time>2019-10-18T15:06:56Z</time>
      </trkpt>
      <trkpt lat="37.0262010" lon="-2.3811920">
        <ele>486.8</ele>
        <time>2019-10-18T15:06:57Z</time>
      </trkpt>
      <trkpt lat="37.0262620" lon="-2.3812420">
        <ele>486.5</ele>
        <time>2019-10-18T15:06:58Z</time>
      </trkpt>
      <trkpt lat="37.0263250" lon="-2.3812980">
        <ele>486.0</ele>
        <time>2019-10-18T15:06:59Z</time>
      </trkpt>
      <trkpt lat="37.0263880" lon="-2.3813580">
        <ele>485.6</ele>
        <time>2019-10-18T15:07:00Z</time>
      </trkpt>
      <trkpt lat="37.0264480" lon="-2.3814210">
        <ele>485.1</ele>
        <time>2019-10-18T15:07:01Z</time>
      </trkpt>
      <trkpt lat="37.0265060" lon="-2.3814880">
        <ele>484.6</ele>
        <time>2019-10-18T15:07:02Z</time>
      </trkpt>
      <trkpt lat="37.0265610" lon="-2.3815600">
        <ele>484.0</ele>
        <time>2019-10-18T15:07:03Z</time>
      </trkpt>
      <trkpt lat="37.0266140" lon="-2.3816360">
        <ele>483.4</ele>
        <time>2019-10-18T15:07:04Z</time>
      </trkpt>
      <trkpt lat="37.0266690" lon="-2.3817130">
        <ele>482.8</ele>
        <time>2019-10-18T15:07:05Z</time>
      </trkpt>
      <trkpt lat="37.0267270" lon="-2.3817910">
        <ele>482.2</ele>
        <time>2019-10-18T15:07:06Z</time>
      </trkpt>
      <trkpt lat="37.0267890" lon="-2.3818700">
        <ele>481.5</ele>
        <time>2019-10-18T15:07:07Z</time>
      </trkpt>
      <trkpt lat="37.0268530" lon="-2.3819490">
        <ele>480.8</ele>
        <time>2019-10-18T15:07:08Z</time>
      </trkpt>
      <trkpt lat="37.0269190" lon="-2.3820290">
        <ele>480.0</ele>
        <time>2019-10-18T15:07:09Z</time>
      </trkpt>
      <trkpt lat="37.0269850" lon="-2.3821080">
        <ele>479.2</ele>
        <time>2019-10-18T15:07:10Z</time>
      </trkpt>
      <trkpt lat="37.0270510" lon="-2.3821860">
        <ele>478.5</ele>
        <time>2019-10-18T15:07:11Z</time>
      </trkpt>
      <trkpt lat="37.0271150" lon="-2.3822620">
        <ele>477.9</ele>
        <time>2019-10-18T15:07:12Z</time>
      </trkpt>
      <trkpt lat="37.0271780" lon="-2.3823360">
        <ele>477.3</ele>
        <time>2019-10-18T15:07:13Z</time>
      </trkpt>
      <trkpt lat="37.0272380" lon="-2.3824100">
        <ele>476.9</ele>
        <time>2019-10-18T15:07:14Z</time>
      </trkpt>
      <trkpt lat="37.0272960" lon="-2.3824830">
        <ele>476.5</ele>
        <time>2019-10-18T15:07:15Z</time>
      </trkpt>
      <trkpt lat="37.0273500" lon="-2.3825550">
        <ele>476.2</ele>
        <time>2019-10-18T15:07:16Z</time>
      </trkpt>
      <trkpt lat="37.0274010" lon="-2.3826240">
        <ele>476.0</ele>
        <time>2019-10-18T15:07:17Z</time>
      </trkpt>
      <trkpt lat="37.0274460" lon="-2.3826950">
        <ele>475.8</ele>
        <time>2019-10-18T15:07:18Z</time>
      </trkpt>
      <trkpt lat="37.0274850" lon="-2.3827680">
        <ele>475.7</ele>
        <time>2019-10-18T15:07:19Z</time>
      </trkpt>
      <trkpt lat="37.0275170" lon="-2.3828440">
        <ele>475.7</ele>
        <time>2019-10-18T15:07:20Z</time>
      </trkpt>
      <trkpt lat="37.0275420" lon="-2.3829220">
        <ele>475.6</ele>
        <time>2019-10-18T15:07:21Z</time>
      </trkpt>
      <trkpt lat="37.0275600" lon="-2.3830020">
        <ele>475.5</ele>
        <time>2019-10-18T15:07:22Z</time>
      </trkpt>
      <trkpt lat="37.0275710" lon="-2.3830800">
        <ele>475.4</ele>
        <time>2019-10-18T15:07:23Z</time>
      </trkpt>
      <trkpt lat="37.0275770" lon="-2.3831540">
        <ele>475.3</ele>
        <time>2019-10-18T15:07:24Z</time>
      </trkpt>
      <trkpt lat="37.0275840" lon="-2.3832250">
        <ele>475.2</ele>
        <time>2019-10-18T15:07:25Z</time>
      </trkpt>
      <trkpt lat="37.0275980" lon="-2.3832920">
        <ele>475.0</ele>
        <time>2019-10-18T15:07:26Z</time>
      </trkpt>
      <trkpt lat="37.0276210" lon="-2.3833520">
        <ele>474.9</ele>
        <time>2019-10-18T15:07:27Z</time>
      </trkpt>
      <trkpt lat="37.0276490" lon="-2.3834050">
        <ele>474.8</ele>
        <time>2019-10-18T15:07:28Z</time>
      </trkpt>
      <trkpt lat="37.0276800" lon="-2.3834520">
        <ele>474.8</ele>
        <time>2019-10-18T15:07:29Z</time>
      </trkpt>
      <trkpt lat="37.0277140" lon="-2.3834950">
        <ele>474.7</ele>
        <time>2019-10-18T15:07:30Z</time>
      </trkpt>
      <trkpt lat="37.0277490" lon="-2.3835340">
        <ele>474.7</ele>
        <time>2019-10-18T15:07:31Z</time>
      </trkpt>
      <trkpt lat="37.0277850" lon="-2.3835690">
        <ele>474.7</ele>
        <time>2019-10-18T15:07:32Z</time>
      </trkpt>
      <trkpt lat="37.0278220" lon="-2.3836010">
        <ele>474.7</ele>
        <time>2019-10-18T15:07:33Z</time>
      </trkpt>
      <trkpt lat="37.0278580" lon="-2.3836320">
        <ele>474.8</ele>
        <time>2019-10-18T15:07:34Z</time>
      </trkpt>
      <trkpt lat="37.0278940" lon="-2.3836620">
        <ele>474.8</ele>
        <time>2019-10-18T15:07:35Z</time>
      </trkpt>
      <trkpt lat="37.0279290" lon="-2.3836910">
        <ele>474.9</ele>
        <time>2019-10-18T15:07:36Z</time>
      </trkpt>
      <trkpt lat="37.0279640" lon="-2.3837210">
        <ele>475.0</ele>
        <time>2019-10-18T15:07:37Z</time>
      </trkpt>
      <trkpt lat="37.0279980" lon="-2.3837510">
        <ele>475.1</ele>
        <time>2019-10-18T15:07:38Z</time>
      </trkpt>
      <trkpt lat="37.0280330" lon="-2.3837820">
        <ele>475.2</ele>
        <time>2019-10-18T15:07:39Z</time>
      </trkpt>
      <trkpt lat="37.0280670" lon="-2.3838130">
        <ele>475.3</ele>
        <time>2019-10-18T15:07:40Z</time>
      </trkpt>
      <trkpt lat="37.0281010" lon="-2.3838440">
        <ele>475.4</ele>
        <time>2019-10-18T15:07:41Z</time>
      </trkpt>
      <trkpt lat="37.0281350" lon="-2.3838740">
        <ele>475.5</ele>
        <time>2019-10-18T15:07:42Z</time>
      </trkpt>
      <trkpt lat="37.0281680" lon="-2.3839040">
        <ele>475.5</ele>
        <time>2019-10-18T15:07:43Z</time>
      </trkpt>
      <trkpt lat="37.0282010" lon="-2.3839340">
        <ele>475.6</ele>
        <time>2019-10-18T15:07:44Z</time>
      </trkpt>
      <trkpt lat="37.0282320" lon="-2.3839640">
        <ele>475.7</ele>
        <time>2019-10-18T15:07:45Z</time>
      </trkpt>
      <trkpt lat="37.0282620" lon="-2.3839950">
        <ele>475.7</ele>
        <time>2019-10-18T15:07:46Z</time>
      </trkpt>
      <trkpt lat="37.0282900" lon="-2.3840250">
        <ele>475.8</ele>
        <time>2019-10-18T15:07:47Z</time>
      </trkpt>
      <trkpt lat="37.0283170" lon="-2.3840550">
        <ele>475.8</ele>
        <time>2019-10-18T15:07:48Z</time>
      </trkpt>
      <trkpt lat="37.0283430" lon="-2.3840850">
        <ele>475.9</ele>
        <time>2019-10-18T15:07:49Z</time>
      </trkpt>
      <trkpt lat="37.0283680" lon="-2.3841130">
        <ele>476.0</ele>
        <time>2019-10-18T15:07:50Z</time>
      </trkpt>
      <trkpt lat="37.0283910" lon="-2.3841380">
        <ele>476.2</ele>
        <time>2019-10-18T15:07:51Z</time>
      </trkpt>
      <trkpt lat="37.0284140" lon="-2.3841630">
        <ele>476.3</ele>
        <time>2019-10-18T15:07:52Z</time>
      </trkpt>
      <trkpt lat="37.0284360" lon="-2.3841880">
        <ele>476.4</ele>
        <time>2019-10-18T15:07:53Z</time>
      </trkpt>
      <trkpt lat="37.0284580" lon="-2.3842130">
        <ele>476.6</ele>
        <time>2019-10-18T15:07:54Z</time>
      </trkpt>
      <trkpt lat="37.0284800" lon="-2.3842360">
        <ele>476.8</ele>
        <time>2019-10-18T15:07:55Z</time>
      </trkpt>
      <trkpt lat="37.0285010" lon="-2.3842600">
        <ele>476.9</ele>
        <time>2019-10-18T15:07:56Z</time>
      </trkpt>
      <trkpt lat="37.0285220" lon="-2.3842830">
        <ele>477.1</ele>
        <time>2019-10-18T15:07:57Z</time>
      </trkpt>
      <trkpt lat="37.0285430" lon="-2.3843050">
        <ele>477.3</ele>
        <time>2019-10-18T15:07:58Z</time>
      </trkpt>
      <trkpt lat="37.0285630" lon="-2.3843260">
        <ele>477.5</ele>
        <time>2019-10-18T15:07:59Z</time>
      </trkpt>
      <trkpt lat="37.0285800" lon="-2.3843470">
        <ele>477.7</ele>
        <time>2019-10-18T15:08:00Z</time>
      </trkpt>
      <trkpt lat="37.0285950" lon="-2.3843700">
        <ele>477.8</ele>
        <time>2019-10-18T15:08:01Z</time>
      </trkpt>
      <trkpt lat="37.0286090" lon="-2.3843950">
        <ele>478.0</ele>
        <time>2019-10-18T15:08:02Z</time>
      </trkpt>
      <trkpt lat="37.0286180" lon="-2.3844200">
        <ele>478.2</ele>
        <time>2019-10-18T15:08:03Z</time>
      </trkpt>
      <trkpt lat="37.0286250" lon="-2.3844470">
        <ele>478.4</ele>
        <time>2019-10-18T15:08:04Z</time>
      </trkpt>
      <trkpt lat="37.0286270" lon="-2.3844760">
        <ele>478.6</ele>
        <time>2019-10-18T15:08:05Z</time>
      </trkpt>
      <trkpt lat="37.0286280" lon="-2.3845080">
        <ele>478.8</ele>
        <time>2019-10-18T15:08:06Z</time>
      </trkpt>
      <trkpt lat="37.0286250" lon="-2.3845400">
        <ele>478.9</ele>
        <time>2019-10-18T15:08:07Z</time>
      </trkpt>
      <trkpt lat="37.0286180" lon="-2.3845720">
        <ele>479.1</ele>
        <time>2019-10-18T15:08:08Z</time>
      </trkpt>
      <trkpt lat="37.0286080" lon="-2.3846030">
        <ele>479.3</ele>
        <time>2019-10-18T15:08:09Z</time>
      </trkpt>
      <trkpt lat="37.0285970" lon="-2.3846340">
        <ele>479.5</ele>
        <time>2019-10-18T15:08:10Z</time>
      </trkpt>
      <trkpt lat="37.0285840" lon="-2.3846670">
        <ele>479.6</ele>
        <time>2019-10-18T15:08:11Z</time>
      </trkpt>
      <trkpt lat="37.0285710" lon="-2.3847010">
        <ele>479.8</ele>
        <time>2019-10-18T15:08:12Z</time>
      </trkpt>
      <trkpt lat="37.0285560" lon="-2.3847370">
        <ele>480.0</ele>
        <time>2019-10-18T15:08:13Z</time>
      </trkpt>
      <trkpt lat="37.0285410" lon="-2.3847730">
        <ele>480.1</ele>
        <time>2019-10-18T15:08:14Z</time>
      </trkpt>
      <trkpt lat="37.0285280" lon="-2.3848100">
        <ele>480.2</ele>
        <time>2019-10-18T15:08:15Z</time>
      </trkpt>
      <trkpt lat="37.0285170" lon="-2.3848490">
        <ele>480.3</ele>
        <time>2019-10-18T15:08:16Z</time>
      </trkpt>
      <trkpt lat="37.0285100" lon="-2.3848900">
        <ele>480.4</ele>
        <time>2019-10-18T15:08:17Z</time>
      </trkpt>
      <trkpt lat="37.0285060" lon="-2.3849330">
        <ele>480.5</ele>
        <time>2019-10-18T15:08:18Z</time>
      </trkpt>
      <trkpt lat="37.0285080" lon="-2.3849760">
        <ele>480.6</ele>
        <time>2019-10-18T15:08:19Z</time>
      </trkpt>
      <trkpt lat="37.0285150" lon="-2.3850170">
        <ele>480.7</ele>
        <time>2019-10-18T15:08:20Z</time>
      </trkpt>
      <trkpt lat="37.0285250" lon="-2.3850540">
        <ele>480.8</ele>
        <time>2019-10-18T15:08:21Z</time>
      </trkpt>
      <trkpt lat="37.0285390" lon="-2.3850890">
        <ele>480.8</ele>
        <time>2019-10-18T15:08:22Z</time>
      </trkpt>
      <trkpt lat="37.0285540" lon="-2.3851240">
        <ele>480.9</ele>
        <time>2019-10-18T15:08:23Z</time>
      </trkpt>
      <trkpt lat="37.0285690" lon="-2.3851600">
        <ele>480.9</ele>
        <time>2019-10-18T15:08:24Z</time>
      </trkpt>
      <trkpt lat="37.0285850" lon="-2.3851960">
        <ele>480.9</ele>
        <time>2019-10-18T15:08:25Z</time>
      </trkpt>
      <trkpt lat="37.0286010" lon="-2.3852320">
        <ele>481.0</ele>
        <time>2019-10-18T15:08:26Z</time>
      </trkpt>
      <trkpt lat="37.0286160" lon="-2.3852680">
        <ele>481.0</ele>
        <time>2019-10-18T15:08:27Z</time>
      </trkpt>
      <trkpt lat="37.0286300" lon="-2.3853060">
        <ele>481.0</ele>
        <time>2019-10-18T15:08:28Z</time>
      </trkpt>
      <trkpt lat="37.0286420" lon="-2.3853440">
        <ele>481.1</ele>
        <time>2019-10-18T15:08:29Z</time>
      </trkpt>
      <trkpt lat="37.0286530" lon="-2.3853840">
        <ele>481.1</ele>
        <time>2019-10-18T15:08:30Z</time>
      </trkpt>
      <trkpt lat="37.0286630" lon="-2.3854250">
        <ele>481.1</ele>
        <time>2019-10-18T15:08:31Z</time>
      </trkpt>
      <trkpt lat="37.0286730" lon="-2.3854680">
        <ele>481.2</ele>
        <time>2019-10-18T15:08:32Z</time>
      </trkpt>
      <trkpt lat="37.0286820" lon="-2.3855110">
        <ele>481.2</ele>
        <time>2019-10-18T15:08:33Z</time>
      </trkpt>
      <trkpt lat="37.0286910" lon="-2.3855560">
        <ele>481.3</ele>
        <time>2019-10-18T15:08:34Z</time>
      </trkpt>
      <trkpt lat="37.0287000" lon="-2.3856010">
        <ele>481.3</ele>
        <time>2019-10-18T15:08:35Z</time>
      </trkpt>
      <trkpt lat="37.0287080" lon="-2.3856480">
        <ele>481.3</ele>
        <time>2019-10-18T15:08:36Z</time>
      </trkpt>
      <trkpt lat="37.0287170" lon="-2.3856950">
        <ele>481.4</ele>
        <time>2019-10-18T15:08:37Z</time>
      </trkpt>
      <trkpt lat="37.0287260" lon="-2.3857400">
        <ele>481.4</ele>
        <time>2019-10-18T15:08:38Z</time>
      </trkpt>
      <trkpt lat="37.0287370" lon="-2.3857830">
        <ele>481.5</ele>
        <time>2019-10-18T15:08:39Z</time>
      </trkpt>
      <trkpt lat="37.0287480" lon="-2.3858220">
        <ele>481.5</ele>
        <time>2019-10-18T15:08:40Z</time>
      </trkpt>
      <trkpt lat="37.0287600" lon="-2.3858580">
        <ele>481.5</ele>
        <time>2019-10-18T15:08:41Z</time>
      </trkpt>
      <trkpt lat="37.0287730" lon="-2.3858930">
        <ele>481.6</ele>
        <time>2019-10-18T15:08:42Z</time>
      </trkpt>
      <trkpt lat="37.0287850" lon="-2.3859260">
        <ele>481.6</ele>
        <time>2019-10-18T15:08:43Z</time>
      </trkpt>
      <trkpt lat="37.0287980" lon="-2.3859580">
        <ele>481.7</ele>
        <time>2019-10-18T15:08:44Z</time>
      </trkpt>
      <trkpt lat="37.0288120" lon="-2.3859890">
        <ele>481.7</ele>
        <time>2019-10-18T15:08:45Z</time>
      </trkpt>
      <trkpt lat="37.0288270" lon="-2.3860190">
        <ele>481.8</ele>
        <time>2019-10-18T15:08:46Z</time>
      </trkpt>
      <trkpt lat="37.0288440" lon="-2.3860480">
        <ele>481.8</ele>
        <time>2019-10-18T15:08:47Z</time>
      </trkpt>
      <trkpt lat="37.0288640" lon="-2.3860750">
        <ele>481.9</ele>
        <time>2019-10-18T15:08:48Z</time>
      </trkpt>
      <trkpt lat="37.0288850" lon="-2.3861010">
        <ele>482.0</ele>
        <time>2019-10-18T15:08:49Z</time>
      </trkpt>
      <trkpt lat="37.0289070" lon="-2.3861250">
        <ele>482.1</ele>
        <time>2019-10-18T15:08:50Z</time>
      </trkpt>
      <trkpt lat="37.0289300" lon="-2.3861500">
        <ele>482.2</ele>
        <time>2019-10-18T15:08:51Z</time>
      </trkpt>
      <trkpt lat="37.0289540" lon="-2.3861780">
        <ele>482.3</ele>
        <time>2019-10-18T15:08:52Z</time>
      </trkpt>
      <trkpt lat="37.0289770" lon="-2.3862070">
        <ele>482.5</ele>
        <time>2019-10-18T15:08:53Z</time>
      </trkpt>
      <trkpt lat="37.0289990" lon="-2.3862410">
        <ele>482.6</ele>
        <time>2019-10-18T15:08:54Z</time>
      </trkpt>
      <trkpt lat="37.0290200" lon="-2.3862780">
        <ele>482.6</ele>
        <time>2019-10-18T15:08:55Z</time>
      </trkpt>
      <trkpt lat="37.0290400" lon="-2.3863180">
        <ele>482.7</ele>
        <time>2019-10-18T15:08:56Z</time>
      </trkpt>
      <trkpt lat="37.0290590" lon="-2.3863630">
        <ele>482.8</ele>
        <time>2019-10-18T15:08:57Z</time>
      </trkpt>
      <trkpt lat="37.0290760" lon="-2.3864120">
        <ele>482.8</ele>
        <time>2019-10-18T15:08:58Z</time>
      </trkpt>
      <trkpt lat="37.0290900" lon="-2.3864660">
        <ele>482.7</ele>
        <time>2019-10-18T15:08:59Z</time>
      </trkpt>
      <trkpt lat="37.0291030" lon="-2.3865230">
        <ele>482.6</ele>
        <time>2019-10-18T15:09:00Z</time>
      </trkpt>
      <trkpt lat="37.0291150" lon="-2.3865830">
        <ele>482.5</ele>
        <time>2019-10-18T15:09:01Z</time>
      </trkpt>
      <trkpt lat="37.0291280" lon="-2.3866450">
        <ele>482.3</ele>
        <time>2019-10-18T15:09:02Z</time>
      </trkpt>
      <trkpt lat="37.0291430" lon="-2.3867100">
        <ele>482.1</ele>
        <time>2019-10-18T15:09:03Z</time>
      </trkpt>
      <trkpt lat="37.0291600" lon="-2.3867790">
        <ele>481.8</ele>
        <time>2019-10-18T15:09:04Z</time>
      </trkpt>
      <trkpt lat="37.0291780" lon="-2.3868510">
        <ele>481.6</ele>
        <time>2019-10-18T15:09:05Z</time>
      </trkpt>
      <trkpt lat="37.0291950" lon="-2.3869270">
        <ele>481.4</ele>
        <time>2019-10-18T15:09:06Z</time>
      </trkpt>
      <trkpt lat="37.0292130" lon="-2.3870060">
        <ele>481.1</ele>
        <time>2019-10-18T15:09:07Z</time>
      </trkpt>
      <trkpt lat="37.0292300" lon="-2.3870890">
        <ele>480.8</ele>
        <time>2019-10-18T15:09:08Z</time>
      </trkpt>
      <trkpt lat="37.0292470" lon="-2.3871770">
        <ele>480.4</ele>
        <time>2019-10-18T15:09:09Z</time>
      </trkpt>
      <trkpt lat="37.0292640" lon="-2.3872680">
        <ele>480.1</ele>
        <time>2019-10-18T15:09:10Z</time>
      </trkpt>
      <trkpt lat="37.0292820" lon="-2.3873610">
        <ele>479.8</ele>
        <time>2019-10-18T15:09:11Z</time>
      </trkpt>
      <trkpt lat="37.0293010" lon="-2.3874580">
        <ele>479.3</ele>
        <time>2019-10-18T15:09:12Z</time>
      </trkpt>
      <trkpt lat="37.0293190" lon="-2.3875570">
        <ele>478.9</ele>
        <time>2019-10-18T15:09:13Z</time>
      </trkpt>
      <trkpt lat="37.0293380" lon="-2.3876580">
        <ele>478.4</ele>
        <time>2019-10-18T15:09:14Z</time>
      </trkpt>
      <trkpt lat="37.0293560" lon="-2.3877610">
        <ele>478.0</ele>
        <time>2019-10-18T15:09:15Z</time>
      </trkpt>
      <trkpt lat="37.0293750" lon="-2.3878640">
        <ele>477.4</ele>
        <time>2019-10-18T15:09:16Z</time>
      </trkpt>
      <trkpt lat="37.0293940" lon="-2.3879680">
        <ele>476.8</ele>
        <time>2019-10-18T15:09:17Z</time>
      </trkpt>
      <trkpt lat="37.0294140" lon="-2.3880730">
        <ele>476.1</ele>
        <time>2019-10-18T15:09:18Z</time>
      </trkpt>
      <trkpt lat="37.0294320" lon="-2.3881780">
        <ele>475.4</ele>
        <time>2019-10-18T15:09:19Z</time>
      </trkpt>
      <trkpt lat="37.0294500" lon="-2.3882850">
        <ele>474.9</ele>
        <time>2019-10-18T15:09:20Z</time>
      </trkpt>
      <trkpt lat="37.0294660" lon="-2.3883930">
        <ele>474.3</ele>
        <time>2019-10-18T15:09:21Z</time>
      </trkpt>
      <trkpt lat="37.0294800" lon="-2.3885030">
        <ele>473.7</ele>
        <time>2019-10-18T15:09:22Z</time>
      </trkpt>
      <trkpt lat="37.0294910" lon="-2.3886150">
        <ele>473.2</ele>
        <time>2019-10-18T15:09:23Z</time>
      </trkpt>
      <trkpt lat="37.0294990" lon="-2.3887280">
        <ele>472.6</ele>
        <time>2019-10-18T15:09:24Z</time>
      </trkpt>
      <trkpt lat="37.0295070" lon="-2.3888450">
        <ele>472.0</ele>
        <time>2019-10-18T15:09:25Z</time>
      </trkpt>
      <trkpt lat="37.0295140" lon="-2.3889630">
        <ele>471.5</ele>
        <time>2019-10-18T15:09:26Z</time>
      </trkpt>
      <trkpt lat="37.0295220" lon="-2.3890820">
        <ele>470.9</ele>
        <time>2019-10-18T15:09:27Z</time>
      </trkpt>
      <trkpt lat="37.0295300" lon="-2.3892000">
        <ele>470.4</ele>
        <time>2019-10-18T15:09:28Z</time>
      </trkpt>
      <trkpt lat="37.0295350" lon="-2.3893160">
        <ele>469.9</ele>
        <time>2019-10-18T15:09:29Z</time>
      </trkpt>
      <trkpt lat="37.0295390" lon="-2.3894310">
        <ele>469.5</ele>
        <time>2019-10-18T15:09:30Z</time>
      </trkpt>
      <trkpt lat="37.0295390" lon="-2.3895470">
        <ele>468.9</ele>
        <time>2019-10-18T15:09:31Z</time>
      </trkpt>
      <trkpt lat="37.0295350" lon="-2.3896630">
        <ele>468.3</ele>
        <time>2019-10-18T15:09:32Z</time>
      </trkpt>
      <trkpt lat="37.0295270" lon="-2.3897790">
        <ele>467.7</ele>
        <time>2019-10-18T15:09:33Z</time>
      </trkpt>
      <trkpt lat="37.0295170" lon="-2.3898930">
        <ele>467.0</ele>
        <time>2019-10-18T15:09:34Z</time>
      </trkpt>
      <trkpt lat="37.0295050" lon="-2.3900030">
        <ele>466.3</ele>
        <time>2019-10-18T15:09:35Z</time>
      </trkpt>
      <trkpt lat="37.0294920" lon="-2.3901110">
        <ele>465.7</ele>
        <time>2019-10-18T15:09:36Z</time>
      </trkpt>
      <trkpt lat="37.0294780" lon="-2.3902160">
        <ele>465.1</ele>
        <time>2019-10-18T15:09:37Z</time>
      </trkpt>
      <trkpt lat="37.0294610" lon="-2.3903200">
        <ele>464.6</ele>
        <time>2019-10-18T15:09:38Z</time>
      </trkpt>
      <trkpt lat="37.0294420" lon="-2.3904260">
        <ele>464.1</ele>
        <time>2019-10-18T15:09:39Z</time>
      </trkpt>
      <trkpt lat="37.0294250" lon="-2.3905340">
        <ele>463.5</ele>
        <time>2019-10-18T15:09:40Z</time>
      </trkpt>
      <trkpt lat="37.0294110" lon="-2.3906440">
        <ele>462.9</ele>
        <time>2019-10-18T15:09:41Z</time>
      </trkpt>
      <trkpt lat="37.0293980" lon="-2.3907550">
        <ele>462.4</ele>
        <time>2019-10-18T15:09:42Z</time>
      </trkpt>
      <trkpt lat="37.0293860" lon="-2.3908660">
        <ele>461.9</ele>
        <time>2019-10-18T15:09:43Z</time>
      </trkpt>
      <trkpt lat="37.0293730" lon="-2.3909760">
        <ele>461.4</ele>
        <time>2019-10-18T15:09:44Z</time>
      </trkpt>
      <trkpt lat="37.0293560" lon="-2.3910870">
        <ele>460.9</ele>
        <time>2019-10-18T15:09:45Z</time>
      </trkpt>
      <trkpt lat="37.0293350" lon="-2.3911980">
        <ele>460.4</ele>
        <time>2019-10-18T15:09:46Z</time>
      </trkpt>
      <trkpt lat="37.0293120" lon="-2.3913070">
        <ele>459.8</ele>
        <time>2019-10-18T15:09:47Z</time>
      </trkpt>
      <trkpt lat="37.0292930" lon="-2.3914130">
        <ele>459.3</ele>
        <time>2019-10-18T15:09:48Z</time>
      </trkpt>
      <trkpt lat="37.0292820" lon="-2.3915180">
        <ele>458.7</ele>
        <time>2019-10-18T15:09:49Z</time>
      </trkpt>
      <trkpt lat="37.0292820" lon="-2.3916230">
        <ele>457.9</ele>
        <time>2019-10-18T15:09:50Z</time>
      </trkpt>
      <trkpt lat="37.0292910" lon="-2.3917250">
        <ele>457.1</ele>
        <time>2019-10-18T15:09:51Z</time>
      </trkpt>
      <trkpt lat="37.0293060" lon="-2.3918250">
        <ele>456.4</ele>
        <time>2019-10-18T15:09:52Z</time>
      </trkpt>
      <trkpt lat="37.0293220" lon="-2.3919230">
        <ele>455.6</ele>
        <time>2019-10-18T15:09:53Z</time>
      </trkpt>
      <trkpt lat="37.0293380" lon="-2.3920210">
        <ele>454.9</ele>
        <time>2019-10-18T15:09:54Z</time>
      </trkpt>
      <trkpt lat="37.0293570" lon="-2.3921210">
        <ele>454.1</ele>
        <time>2019-10-18T15:09:55Z</time>
      </trkpt>
      <trkpt lat="37.0293810" lon="-2.3922210">
        <ele>453.3</ele>
        <time>2019-10-18T15:09:56Z</time>
      </trkpt>
      <trkpt lat="37.0294100" lon="-2.3923220">
        <ele>452.4</ele>
        <time>2019-10-18T15:09:57Z</time>
      </trkpt>
      <trkpt lat="37.0294450" lon="-2.3924230">
        <ele>451.8</ele>
        <time>2019-10-18T15:09:58Z</time>
      </trkpt>
      <trkpt lat="37.0294820" lon="-2.3925250">
        <ele>451.3</ele>
        <time>2019-10-18T15:09:59Z</time>
      </trkpt>
      <trkpt lat="37.0295220" lon="-2.3926270">
        <ele>450.9</ele>
        <time>2019-10-18T15:10:00Z</time>
      </trkpt>
      <trkpt lat="37.0295630" lon="-2.3927270">
        <ele>450.4</ele>
        <time>2019-10-18T15:10:01Z</time>
      </trkpt>
      <trkpt lat="37.0296030" lon="-2.3928220">
        <ele>449.8</ele>
        <time>2019-10-18T15:10:02Z</time>
      </trkpt>
      <trkpt lat="37.0296380" lon="-2.3929110">
        <ele>449.3</ele>
        <time>2019-10-18T15:10:03Z</time>
      </trkpt>
      <trkpt lat="37.0296670" lon="-2.3929940">
        <ele>448.8</ele>
        <time>2019-10-18T15:10:04Z</time>
      </trkpt>
      <trkpt lat="37.0296890" lon="-2.3930730">
        <ele>448.3</ele>
        <time>2019-10-18T15:10:05Z</time>
      </trkpt>
      <trkpt lat="37.0297040" lon="-2.3931460">
        <ele>447.9</ele>
        <time>2019-10-18T15:10:06Z</time>
      </trkpt>
      <trkpt lat="37.0297160" lon="-2.3932140">
        <ele>447.5</ele>
        <time>2019-10-18T15:10:07Z</time>
      </trkpt>
      <trkpt lat="37.0297300" lon="-2.3932830">
        <ele>447.0</ele>
        <time>2019-10-18T15:10:08Z</time>
      </trkpt>
      <trkpt lat="37.0297500" lon="-2.3933520">
        <ele>446.6</ele>
        <time>2019-10-18T15:10:09Z</time>
      </trkpt>
      <trkpt lat="37.0297790" lon="-2.3934160">
        <ele>446.1</ele>
        <time>2019-10-18T15:10:10Z</time>
      </trkpt>
      <trkpt lat="37.0298190" lon="-2.3934770">
        <ele>445.5</ele>
        <time>2019-10-18T15:10:11Z</time>
      </trkpt>
      <trkpt lat="37.0298670" lon="-2.3935370">
        <ele>444.9</ele>
        <time>2019-10-18T15:10:12Z</time>
      </trkpt>
      <trkpt lat="37.0299170" lon="-2.3936030">
        <ele>443.9</ele>
        <time>2019-10-18T15:10:13Z</time>
      </trkpt>
      <trkpt lat="37.0299620" lon="-2.3936800">
        <ele>444.3</ele>
        <time>2019-10-18T15:10:14Z</time>
      </trkpt>
      <trkpt lat="37.0299930" lon="-2.3937640">
        <ele>444.7</ele>
        <time>2019-10-18T15:10:15Z</time>
      </trkpt>
      <trkpt lat="37.0300120" lon="-2.3938500">
        <ele>444.9</ele>
        <time>2019-10-18T15:10:16Z</time>
      </trkpt>
      <trkpt lat="37.0300210" lon="-2.3939340">
        <ele>445.2</ele>
        <time>2019-10-18T15:10:17Z</time>
      </trkpt>
      <trkpt lat="37.0300250" lon="-2.3940140">
        <ele>445.4</ele>
        <time>2019-10-18T15:10:18Z</time>
      </trkpt>
      <trkpt lat="37.0300290" lon="-2.3940900">
        <ele>445.6</ele>
        <time>2019-10-18T15:10:19Z</time>
      </trkpt>
      <trkpt lat="37.0300330" lon="-2.3941630">
        <ele>445.8</ele>
        <time>2019-10-18T15:10:20Z</time>
      </trkpt>
      <trkpt lat="37.0300370" lon="-2.3942310">
        <ele>446.0</ele>
        <time>2019-10-18T15:10:21Z</time>
      </trkpt>
      <trkpt lat="37.0300410" lon="-2.3942940">
        <ele>446.2</ele>
        <time>2019-10-18T15:10:22Z</time>
      </trkpt>
      <trkpt lat="37.0300440" lon="-2.3943500">
        <ele>446.4</ele>
        <time>2019-10-18T15:10:23Z</time>
      </trkpt>
      <trkpt lat="37.0300460" lon="-2.3944010">
        <ele>446.5</ele>
        <time>2019-10-18T15:10:24Z</time>
      </trkpt>
      <trkpt lat="37.0300480" lon="-2.3944470">
        <ele>446.6</ele>
        <time>2019-10-18T15:10:25Z</time>
      </trkpt>
      <trkpt lat="37.0300510" lon="-2.3944910">
        <ele>446.6</ele>
        <time>2019-10-18T15:10:26Z</time>
      </trkpt>
      <trkpt lat="37.0300530" lon="-2.3945340">
        <ele>446.6</ele>
        <time>2019-10-18T15:10:27Z</time>
      </trkpt>
      <trkpt lat="37.0300540" lon="-2.3945780">
        <ele>446.6</ele>
        <time>2019-10-18T15:10:28Z</time>
      </trkpt>
      <trkpt lat="37.0300540" lon="-2.3946210">
        <ele>446.5</ele>
        <time>2019-10-18T15:10:29Z</time>
      </trkpt>
      <trkpt lat="37.0300550" lon="-2.3946630">
        <ele>446.3</ele>
        <time>2019-10-18T15:10:30Z</time>
      </trkpt>
      <trkpt lat="37.0300570" lon="-2.3947060">
        <ele>446.1</ele>
        <time>2019-10-18T15:10:31Z</time>
      </trkpt>
      <trkpt lat="37.0300580" lon="-2.3947490">
        <ele>445.9</ele>
        <time>2019-10-18T15:10:32Z</time>
      </trkpt>
      <trkpt lat="37.0300590" lon="-2.3947940">
        <ele>445.6</ele>
        <time>2019-10-18T15:10:33Z</time>
      </trkpt>
      <trkpt lat="37.0300590" lon="-2.3948390">
        <ele>445.3</ele>
        <time>2019-10-18T15:10:34Z</time>
      </trkpt>
      <trkpt lat="37.0300590" lon="-2.3948870">
        <ele>445.0</ele>
        <time>2019-10-18T15:10:35Z</time>
      </trkpt>
      <trkpt lat="37.0300590" lon="-2.3949400">
        <ele>444.7</ele>
        <time>2019-10-18T15:10:36Z</time>
      </trkpt>
      <trkpt lat="37.0300580" lon="-2.3949990">
        <ele>444.4</ele>
        <time>2019-10-18T15:10:37Z</time>
      </trkpt>
      <trkpt lat="37.0300540" lon="-2.3950620">
        <ele>444.2</ele>
        <time>2019-10-18T15:10:38Z</time>
      </trkpt>
      <trkpt lat="37.0300470" lon="-2.3951280">
        <ele>444.0</ele>
        <time>2019-10-18T15:10:39Z</time>
      </trkpt>
      <trkpt lat="37.0300340" lon="-2.3951960">
        <ele>443.7</ele>
        <time>2019-10-18T15:10:40Z</time>
      </trkpt>
      <trkpt lat="37.0300170" lon="-2.3952640">
        <ele>443.5</ele>
        <time>2019-10-18T15:10:41Z</time>
      </trkpt>
      <trkpt lat="37.0299980" lon="-2.3953330">
        <ele>443.1</ele>
        <time>2019-10-18T15:10:42Z</time>
      </trkpt>
      <trkpt lat="37.0299780" lon="-2.3954000">
        <ele>442.7</ele>
        <time>2019-10-18T15:10:43Z</time>
      </trkpt>
      <trkpt lat="37.0299580" lon="-2.3954670">
        <ele>442.3</ele>
        <time>2019-10-18T15:10:44Z</time>
      </trkpt>
      <trkpt lat="37.0299370" lon="-2.3955340">
        <ele>441.8</ele>
        <time>2019-10-18T15:10:45Z</time>
      </trkpt>
      <trkpt lat="37.0299190" lon="-2.3956000">
        <ele>441.3</ele>
        <time>2019-10-18T15:10:46Z</time>
      </trkpt>
      <trkpt lat="37.0299060" lon="-2.3956620">
        <ele>440.8</ele>
        <time>2019-10-18T15:10:47Z</time>
      </trkpt>
      <trkpt lat="37.0299040" lon="-2.3957190">
        <ele>440.4</ele>
        <time>2019-10-18T15:10:48Z</time>
      </trkpt>
      <trkpt lat="37.0299160" lon="-2.3957650">
        <ele>440.0</ele>
        <time>2019-10-18T15:10:49Z</time>
      </trkpt>
      <trkpt lat="37.0299390" lon="-2.3958010">
        <ele>439.5</ele>
        <time>2019-10-18T15:10:50Z</time>
      </trkpt>
      <trkpt lat="37.0299700" lon="-2.3958210">
        <ele>439.1</ele>
        <time>2019-10-18T15:10:51Z</time>
      </trkpt>
      <trkpt lat="37.0300040" lon="-2.3958260">
        <ele>438.3</ele>
        <time>2019-10-18T15:10:52Z</time>
      </trkpt>
      <trkpt lat="37.0300400" lon="-2.3958150">
        <ele>438.2</ele>
        <time>2019-10-18T15:10:53Z</time>
      </trkpt>
      <trkpt lat="37.0300760" lon="-2.3957900">
        <ele>438.1</ele>
        <time>2019-10-18T15:10:54Z</time>
      </trkpt>
      <trkpt lat="37.0301130" lon="-2.3957560">
        <ele>438.0</ele>
        <time>2019-10-18T15:10:55Z</time>
      </trkpt>
      <trkpt lat="37.0301540" lon="-2.3957140">
        <ele>438.0</ele>
        <time>2019-10-18T15:10:56Z</time>
      </trkpt>
      <trkpt lat="37.0301970" lon="-2.3956660">
        <ele>437.9</ele>
        <time>2019-10-18T15:10:57Z</time>
      </trkpt>
      <trkpt lat="37.0302430" lon="-2.3956150">
        <ele>437.8</ele>
        <time>2019-10-18T15:10:58Z</time>
      </trkpt>
      <trkpt lat="37.0302890" lon="-2.3955620">
        <ele>437.7</ele>
        <time>2019-10-18T15:10:59Z</time>
      </trkpt>
      <trkpt lat="37.0303370" lon="-2.3955140">
        <ele>437.5</ele>
        <time>2019-10-18T15:11:00Z</time>
      </trkpt>
      <trkpt lat="37.0303860" lon="-2.3954730">
        <ele>437.3</ele>
        <time>2019-10-18T15:11:01Z</time>
      </trkpt>
      <trkpt lat="37.0304360" lon="-2.3954440">
        <ele>437.2</ele>
        <time>2019-10-18T15:11:02Z</time>
      </trkpt>
      <trkpt lat="37.0304870" lon="-2.3954280">
        <ele>437.0</ele>
        <time>2019-10-18T15:11:03Z</time>
      </trkpt>
      <trkpt lat="37.0305390" lon="-2.3954290">
        <ele>436.9</ele>
        <time>2019-10-18T15:11:04Z</time>
      </trkpt>
      <trkpt lat="37.0305900" lon="-2.3954440">
        <ele>436.7</ele>
        <time>2019-10-18T15:11:05Z</time>
      </trkpt>
      <trkpt lat="37.0306400" lon="-2.3954670">
        <ele>436.6</ele>
        <time>2019-10-18T15:11:06Z</time>
      </trkpt>
      <trkpt lat="37.0306860" lon="-2.3954900">
        <ele>436.5</ele>
        <time>2019-10-18T15:11:07Z</time>
      </trkpt>
      <trkpt lat="37.0307290" lon="-2.3955130">
        <ele>436.4</ele>
        <time>2019-10-18T15:11:08Z</time>
      </trkpt>
      <trkpt lat="37.0307690" lon="-2.3955360">
        <ele>436.3</ele>
        <time>2019-10-18T15:11:09Z</time>
      </trkpt>
      <trkpt lat="37.0308070" lon="-2.3955570">
        <ele>436.1</ele>
        <time>2019-10-18T15:11:10Z</time>
      </trkpt>
      <trkpt lat="37.0308440" lon="-2.3955760">
        <ele>435.6</ele>
        <time>2019-10-18T15:11:11Z</time>
      </trkpt>
      <trkpt lat="37.0308800" lon="-2.3955930">
        <ele>435.1</ele>
        <time>2019-10-18T15:11:12Z</time>
      </trkpt>
      <trkpt lat="37.0309160" lon="-2.3956020">
        <ele>434.7</ele>
        <time>2019-10-18T15:11:13Z</time>
      </trkpt>
      <trkpt lat="37.0309540" lon="-2.3956020">
        <ele>434.2</ele>
        <time>2019-10-18T15:11:14Z</time>
      </trkpt>
      <trkpt lat="37.0309930" lon="-2.3955920">
        <ele>433.6</ele>
        <time>2019-10-18T15:11:15Z</time>
      </trkpt>
      <trkpt lat="37.0310330" lon="-2.3955710">
        <ele>433.0</ele>
        <time>2019-10-18T15:11:16Z</time>
      </trkpt>
      <trkpt lat="37.0310710" lon="-2.3955370">
        <ele>432.3</ele>
        <time>2019-10-18T15:11:17Z</time>
      </trkpt>
      <trkpt lat="37.0311050" lon="-2.3954930">
        <ele>431.6</ele>
        <time>2019-10-18T15:11:18Z</time>
      </trkpt>
      <trkpt lat="37.0311320" lon="-2.3954430">
        <ele>430.9</ele>
        <time>2019-10-18T15:11:19Z</time>
      </trkpt>
      <trkpt lat="37.0311550" lon="-2.3953900">
        <ele>430.3</ele>
        <time>2019-10-18T15:11:20Z</time>
      </trkpt>
      <trkpt lat="37.0311760" lon="-2.3953380">
        <ele>429.6</ele>
        <time>2019-10-18T15:11:21Z</time>
      </trkpt>
      <trkpt lat="37.0312000" lon="-2.3952860">
        <ele>429.0</ele>
        <time>2019-10-18T15:11:22Z</time>
      </trkpt>
      <trkpt lat="37.0312310" lon="-2.3952370">
        <ele>428.3</ele>
        <time>2019-10-18T15:11:23Z</time>
      </trkpt>
      <trkpt lat="37.0312680" lon="-2.3951900">
        <ele>427.6</ele>
        <time>2019-10-18T15:11:24Z</time>
      </trkpt>
      <trkpt lat="37.0313070" lon="-2.3951460">
        <ele>426.8</ele>
        <time>2019-10-18T15:11:25Z</time>
      </trkpt>
      <trkpt lat="37.0313510" lon="-2.3951080">
        <ele>426.0</ele>
        <time>2019-10-18T15:11:26Z</time>
      </trkpt>
      <trkpt lat="37.0313960" lon="-2.3950780">
        <ele>425.3</ele>
        <time>2019-10-18T15:11:27Z</time>
      </trkpt>
      <trkpt lat="37.0314430" lon="-2.3950530">
        <ele>424.6</ele>
        <time>2019-10-18T15:11:28Z</time>
      </trkpt>
      <trkpt lat="37.0314880" lon="-2.3950310">
        <ele>423.9</ele>
        <time>2019-10-18T15:11:29Z</time>
      </trkpt>
      <trkpt lat="37.0315310" lon="-2.3950090">
        <ele>423.2</ele>
        <time>2019-10-18T15:11:30Z</time>
      </trkpt>
      <trkpt lat="37.0315700" lon="-2.3949830">
        <ele>422.6</ele>
        <time>2019-10-18T15:11:31Z</time>
      </trkpt>
      <trkpt lat="37.0316070" lon="-2.3949540">
        <ele>422.0</ele>
        <time>2019-10-18T15:11:32Z</time>
      </trkpt>
      <trkpt lat="37.0316430" lon="-2.3949220">
        <ele>421.4</ele>
        <time>2019-10-18T15:11:33Z</time>
      </trkpt>
      <trkpt lat="37.0316760" lon="-2.3948840">
        <ele>420.7</ele>
        <time>2019-10-18T15:11:34Z</time>
      </trkpt>
      <trkpt lat="37.0317080" lon="-2.3948420">
        <ele>420.0</ele>
        <time>2019-10-18T15:11:35Z</time>
      </trkpt>
      <trkpt lat="37.0317390" lon="-2.3947970">
        <ele>419.3</ele>
        <time>2019-10-18T15:11:36Z</time>
      </trkpt>
      <trkpt lat="37.0317700" lon="-2.3947490">
        <ele>418.5</ele>
        <time>2019-10-18T15:11:37Z</time>
      </trkpt>
      <trkpt lat="37.0318000" lon="-2.3947020">
        <ele>417.6</ele>
        <time>2019-10-18T15:11:38Z</time>
      </trkpt>
      <trkpt lat="37.0318320" lon="-2.3946570">
        <ele>416.8</ele>
        <time>2019-10-18T15:11:39Z</time>
      </trkpt>
      <trkpt lat="37.0318680" lon="-2.3946140">
        <ele>415.9</ele>
        <time>2019-10-18T15:11:40Z</time>
      </trkpt>
      <trkpt lat="37.0319080" lon="-2.3945770">
        <ele>415.2</ele>
        <time>2019-10-18T15:11:41Z</time>
      </trkpt>
      <trkpt lat="37.0319530" lon="-2.3945460">
        <ele>414.4</ele>
        <time>2019-10-18T15:11:42Z</time>
      </trkpt>
      <trkpt lat="37.0320000" lon="-2.3945200">
        <ele>413.7</ele>
        <time>2019-10-18T15:11:43Z</time>
      </trkpt>
      <trkpt lat="37.0320500" lon="-2.3944990">
        <ele>413.1</ele>
        <time>2019-10-18T15:11:44Z</time>
      </trkpt>
      <trkpt lat="37.0321020" lon="-2.3944820">
        <ele>412.5</ele>
        <time>2019-10-18T15:11:45Z</time>
      </trkpt>
      <trkpt lat="37.0321560" lon="-2.3944700">
        <ele>412.1</ele>
        <time>2019-10-18T15:11:46Z</time>
      </trkpt>
      <trkpt lat="37.0322130" lon="-2.3944670">
        <ele>411.8</ele>
        <time>2019-10-18T15:11:47Z</time>
      </trkpt>
      <trkpt lat="37.0322720" lon="-2.3944730">
        <ele>411.4</ele>
        <time>2019-10-18T15:11:48Z</time>
      </trkpt>
      <trkpt lat="37.0323330" lon="-2.3944850">
        <ele>411.1</ele>
        <time>2019-10-18T15:11:49Z</time>
      </trkpt>
      <trkpt lat="37.0323900" lon="-2.3945000">
        <ele>410.8</ele>
        <time>2019-10-18T15:11:50Z</time>
      </trkpt>
      <trkpt lat="37.0324440" lon="-2.3945160">
        <ele>410.5</ele>
        <time>2019-10-18T15:11:51Z</time>
      </trkpt>
      <trkpt lat="37.0324920" lon="-2.3945320">
        <ele>410.3</ele>
        <time>2019-10-18T15:11:52Z</time>
      </trkpt>
      <trkpt lat="37.0325340" lon="-2.3945450">
        <ele>410.1</ele>
        <time>2019-10-18T15:11:53Z</time>
      </trkpt>
      <trkpt lat="37.0325700" lon="-2.3945510">
        <ele>409.9</ele>
        <time>2019-10-18T15:11:54Z</time>
      </trkpt>
      <trkpt lat="37.0326050" lon="-2.3945470">
        <ele>409.7</ele>
        <time>2019-10-18T15:11:55Z</time>
      </trkpt>
      <trkpt lat="37.0326390" lon="-2.3945350">
        <ele>409.6</ele>
        <time>2019-10-18T15:11:56Z</time>
      </trkpt>
      <trkpt lat="37.0326720" lon="-2.3945160">
        <ele>409.5</ele>
        <time>2019-10-18T15:11:57Z</time>
      </trkpt>
      <trkpt lat="37.0327020" lon="-2.3944880">
        <ele>409.3</ele>
        <time>2019-10-18T15:11:58Z</time>
      </trkpt>
      <trkpt lat="37.0327280" lon="-2.3944530">
        <ele>409.2</ele>
        <time>2019-10-18T15:11:59Z</time>
      </trkpt>
      <trkpt lat="37.0327500" lon="-2.3944110">
        <ele>409.0</ele>
        <time>2019-10-18T15:12:00Z</time>
      </trkpt>
      <trkpt lat="37.0327690" lon="-2.3943640">
        <ele>408.7</ele>
        <time>2019-10-18T15:12:01Z</time>
      </trkpt>
      <trkpt lat="37.0327890" lon="-2.3943160">
        <ele>408.5</ele>
        <time>2019-10-18T15:12:02Z</time>
      </trkpt>
      <trkpt lat="37.0328130" lon="-2.3942700">
        <ele>408.2</ele>
        <time>2019-10-18T15:12:03Z</time>
      </trkpt>
      <trkpt lat="37.0328420" lon="-2.3942290">
        <ele>407.8</ele>
        <time>2019-10-18T15:12:04Z</time>
      </trkpt>
      <trkpt lat="37.0328740" lon="-2.3941950">
        <ele>407.3</ele>
        <time>2019-10-18T15:12:05Z</time>
      </trkpt>
      <trkpt lat="37.0329070" lon="-2.3941680">
        <ele>406.8</ele>
        <time>2019-10-18T15:12:06Z</time>
      </trkpt>
      <trkpt lat="37.0329390" lon="-2.3941440">
        <ele>406.3</ele>
        <time>2019-10-18T15:12:07Z</time>
      </trkpt>
      <trkpt lat="37.0329730" lon="-2.3941210">
        <ele>405.9</ele>
        <time>2019-10-18T15:12:08Z</time>
      </trkpt>
      <trkpt lat="37.0330080" lon="-2.3940970">
        <ele>405.4</ele>
        <time>2019-10-18T15:12:09Z</time>
      </trkpt>
      <trkpt lat="37.0330450" lon="-2.3940700">
        <ele>405.0</ele>
        <time>2019-10-18T15:12:10Z</time>
      </trkpt>
      <trkpt lat="37.0330830" lon="-2.3940420">
        <ele>404.7</ele>
        <time>2019-10-18T15:12:11Z</time>
      </trkpt>
      <trkpt lat="37.0331230" lon="-2.3940120">
        <ele>404.4</ele>
        <time>2019-10-18T15:12:12Z</time>
      </trkpt>
      <trkpt lat="37.0331640" lon="-2.3939810">
        <ele>404.2</ele>
        <time>2019-10-18T15:12:13Z</time>
      </trkpt>
      <trkpt lat="37.0332080" lon="-2.3939490">
        <ele>404.0</ele>
        <time>2019-10-18T15:12:14Z</time>
      </trkpt>
      <trkpt lat="37.0332510" lon="-2.3939140">
        <ele>403.8</ele>
        <time>2019-10-18T15:12:15Z</time>
      </trkpt>
      <trkpt lat="37.0332950" lon="-2.3938780">
        <ele>403.6</ele>
        <time>2019-10-18T15:12:16Z</time>
      </trkpt>
      <trkpt lat="37.0333360" lon="-2.3938380">
        <ele>403.5</ele>
        <time>2019-10-18T15:12:17Z</time>
      </trkpt>
      <trkpt lat="37.0333740" lon="-2.3937960">
        <ele>403.4</ele>
        <time>2019-10-18T15:12:18Z</time>
      </trkpt>
      <trkpt lat="37.0334060" lon="-2.3937520">
        <ele>403.3</ele>
        <time>2019-10-18T15:12:19Z</time>
      </trkpt>
      <trkpt lat="37.0334350" lon="-2.3937100">
        <ele>403.3</ele>
        <time>2019-10-18T15:12:20Z</time>
      </trkpt>
      <trkpt lat="37.0334620" lon="-2.3936760">
        <ele>403.3</ele>
        <time>2019-10-18T15:12:21Z</time>
      </trkpt>
      <trkpt lat="37.0334840" lon="-2.3936520">
        <ele>403.4</ele>
        <time>2019-10-18T15:12:22Z</time>
      </trkpt>
      <trkpt lat="37.0335030" lon="-2.3936340">
        <ele>403.4</ele>
        <time>2019-10-18T15:12:23Z</time>
      </trkpt>
      <trkpt lat="37.0335200" lon="-2.3936190">
        <ele>403.4</ele>
        <time>2019-10-18T15:12:24Z</time>
      </trkpt>
      <trkpt lat="37.0335390" lon="-2.3936050">
        <ele>403.5</ele>
        <time>2019-10-18T15:12:25Z</time>
      </trkpt>
      <trkpt lat="37.0335610" lon="-2.3935880">
        <ele>403.5</ele>
        <time>2019-10-18T15:12:26Z</time>
      </trkpt>
      <trkpt lat="37.0335870" lon="-2.3935700">
        <ele>403.6</ele>
        <time>2019-10-18T15:12:27Z</time>
      </trkpt>
      <trkpt lat="37.0336160" lon="-2.3935480">
        <ele>403.7</ele>
        <time>2019-10-18T15:12:28Z</time>
      </trkpt>
      <trkpt lat="37.0336490" lon="-2.3935240">
        <ele>403.8</ele>
        <time>2019-10-18T15:12:29Z</time>
      </trkpt>
      <trkpt lat="37.0336840" lon="-2.3934970">
        <ele>403.9</ele>
        <time>2019-10-18T15:12:30Z</time>
      </trkpt>
      <trkpt lat="37.0337200" lon="-2.3934680">
        <ele>404.0</ele>
        <time>2019-10-18T15:12:31Z</time>
      </trkpt>
      <trkpt lat="37.0337560" lon="-2.3934380">
        <ele>404.0</ele>
        <time>2019-10-18T15:12:32Z</time>
      </trkpt>
      <trkpt lat="37.0337930" lon="-2.3934060">
        <ele>404.1</ele>
        <time>2019-10-18T15:12:33Z</time>
      </trkpt>
      <trkpt lat="37.0338300" lon="-2.3933740">
        <ele>404.1</ele>
        <time>2019-10-18T15:12:34Z</time>
      </trkpt>
      <trkpt lat="37.0338680" lon="-2.3933400">
        <ele>404.2</ele>
        <time>2019-10-18T15:12:35Z</time>
      </trkpt>
      <trkpt lat="37.0339070" lon="-2.3933070">
        <ele>404.3</ele>
        <time>2019-10-18T15:12:36Z</time>
      </trkpt>
      <trkpt lat="37.0339470" lon="-2.3932740">
        <ele>404.5</ele>
        <time>2019-10-18T15:12:37Z</time>
      </trkpt>
      <trkpt lat="37.0339880" lon="-2.3932420">
        <ele>404.6</ele>
        <time>2019-10-18T15:12:38Z</time>
      </trkpt>
      <trkpt lat="37.0340290" lon="-2.3932120">
        <ele>404.7</ele>
        <time>2019-10-18T15:12:39Z</time>
      </trkpt>
      <trkpt lat="37.0340720" lon="-2.3931820">
        <ele>404.8</ele>
        <time>2019-10-18T15:12:40Z</time>
      </trkpt>
      <trkpt lat="37.0341140" lon="-2.3931540">
        <ele>404.9</ele>
        <time>2019-10-18T15:12:41Z</time>
      </trkpt>
      <trkpt lat="37.0341570" lon="-2.3931280">
        <ele>404.9</ele>
        <time>2019-10-18T15:12:42Z</time>
      </trkpt>
      <trkpt lat="37.0342020" lon="-2.3931060">
        <ele>404.9</ele>
        <time>2019-10-18T15:12:43Z</time>
      </trkpt>
      <trkpt lat="37.0342480" lon="-2.3930870">
        <ele>405.0</ele>
        <time>2019-10-18T15:12:44Z</time>
      </trkpt>
      <trkpt lat="37.0342930" lon="-2.3930670">
        <ele>404.9</ele>
        <time>2019-10-18T15:12:45Z</time>
      </trkpt>
      <trkpt lat="37.0343390" lon="-2.3930480">
        <ele>404.9</ele>
        <time>2019-10-18T15:12:46Z</time>
      </trkpt>
      <trkpt lat="37.0343840" lon="-2.3930280">
        <ele>404.9</ele>
        <time>2019-10-18T15:12:47Z</time>
      </trkpt>
      <trkpt lat="37.0344280" lon="-2.3930080">
        <ele>404.8</ele>
        <time>2019-10-18T15:12:48Z</time>
      </trkpt>
      <trkpt lat="37.0344710" lon="-2.3929870">
        <ele>404.7</ele>
        <time>2019-10-18T15:12:49Z</time>
      </trkpt>
      <trkpt lat="37.0345130" lon="-2.3929660">
        <ele>404.6</ele>
        <time>2019-10-18T15:12:50Z</time>
      </trkpt>
      <trkpt lat="37.0345530" lon="-2.3929440">
        <ele>404.5</ele>
        <time>2019-10-18T15:12:51Z</time>
      </trkpt>
      <trkpt lat="37.0345930" lon="-2.3929210">
        <ele>404.4</ele>
        <time>2019-10-18T15:12:52Z</time>
      </trkpt>
      <trkpt lat="37.0346310" lon="-2.3928980">
        <ele>404.3</ele>
        <time>2019-10-18T15:12:53Z</time>
      </trkpt>
      <trkpt lat="37.0346690" lon="-2.3928740">
        <ele>404.3</ele>
        <time>2019-10-18T15:12:54Z</time>
      </trkpt>
      <trkpt lat="37.0347070" lon="-2.3928470">
        <ele>404.2</ele>
        <time>2019-10-18T15:12:55Z</time>
      </trkpt>
      <trkpt lat="37.0347440" lon="-2.3928190">
        <ele>404.2</ele>
        <time>2019-10-18T15:12:56Z</time>
      </trkpt>
      <trkpt lat="37.0347800" lon="-2.3927900">
        <ele>404.3</ele>
        <time>2019-10-18T15:12:57Z</time>
      </trkpt>
      <trkpt lat="37.0348160" lon="-2.3927610">
        <ele>404.4</ele>
        <time>2019-10-18T15:12:58Z</time>
      </trkpt>
      <trkpt lat="37.0348510" lon="-2.3927310">
        <ele>404.6</ele>
        <time>2019-10-18T15:12:59Z</time>
      </trkpt>
      <trkpt lat="37.0348860" lon="-2.3927000">
        <ele>404.9</ele>
        <time>2019-10-18T15:13:00Z</time>
      </trkpt>
      <trkpt lat="37.0349210" lon="-2.3926700">
        <ele>404.1</ele>
        <time>2019-10-18T15:13:01Z</time>
      </trkpt>
      <trkpt lat="37.0349580" lon="-2.3926430">
        <ele>403.5</ele>
        <time>2019-10-18T15:13:02Z</time>
      </trkpt>
      <trkpt lat="37.0349970" lon="-2.3926210">
        <ele>403.0</ele>
        <time>2019-10-18T15:13:03Z</time>
      </trkpt>
      <trkpt lat="37.0350380" lon="-2.3926050">
        <ele>402.5</ele>
        <time>2019-10-18T15:13:04Z</time>
      </trkpt>
      <trkpt lat="37.0350790" lon="-2.3925950">
        <ele>402.0</ele>
        <time>2019-10-18T15:13:05Z</time>
      </trkpt>
      <trkpt lat="37.0351190" lon="-2.3925960">
        <ele>401.5</ele>
        <time>2019-10-18T15:13:06Z</time>
      </trkpt>
      <trkpt lat="37.0351590" lon="-2.3926090">
        <ele>401.0</ele>
        <time>2019-10-18T15:13:07Z</time>
      </trkpt>
      <trkpt lat="37.0351960" lon="-2.3926330">
        <ele>400.5</ele>
        <time>2019-10-18T15:13:08Z</time>
      </trkpt>
      <trkpt lat="37.0352320" lon="-2.3926640">
        <ele>400.0</ele>
        <time>2019-10-18T15:13:09Z</time>
      </trkpt>
      <trkpt lat="37.0352680" lon="-2.3926970">
        <ele>399.6</ele>
        <time>2019-10-18T15:13:10Z</time>
      </trkpt>
      <trkpt lat="37.0353060" lon="-2.3927320">
        <ele>399.2</ele>
        <time>2019-10-18T15:13:11Z</time>
      </trkpt>
      <trkpt lat="37.0353450" lon="-2.3927680">
        <ele>398.8</ele>
        <time>2019-10-18T15:13:12Z</time>
      </trkpt>
      <trkpt lat="37.0353880" lon="-2.3928040">
        <ele>398.6</ele>
        <time>2019-10-18T15:13:13Z</time>
      </trkpt>
      <trkpt lat="37.0354320" lon="-2.3928370">
        <ele>398.5</ele>
        <time>2019-10-18T15:13:14Z</time>
      </trkpt>
      <trkpt lat="37.0354790" lon="-2.3928660">
        <ele>398.3</ele>
        <time>2019-10-18T15:13:15Z</time>
      </trkpt>
      <trkpt lat="37.0355300" lon="-2.3928900">
        <ele>398.1</ele>
        <time>2019-10-18T15:13:16Z</time>
      </trkpt>
      <trkpt lat="37.0355840" lon="-2.3929100">
        <ele>398.0</ele>
        <time>2019-10-18T15:13:17Z</time>
      </trkpt>
      <trkpt lat="37.0356420" lon="-2.3929270">
        <ele>398.0</ele>
        <time>2019-10-18T15:13:18Z</time>
      </trkpt>
      <trkpt lat="37.0357020" lon="-2.3929410">
        <ele>398.0</ele>
        <time>2019-10-18T15:13:19Z</time>
      </trkpt>
      <trkpt lat="37.0357600" lon="-2.3929550">
        <ele>398.0</ele>
        <time>2019-10-18T15:13:20Z</time>
      </trkpt>
      <trkpt lat="37.0358170" lon="-2.3929700">
        <ele>398.0</ele>
        <time>2019-10-18T15:13:21Z</time>
      </trkpt>
      <trkpt lat="37.0358700" lon="-2.3929860">
        <ele>398.1</ele>
        <time>2019-10-18T15:13:22Z</time>
      </trkpt>
      <trkpt lat="37.0359220" lon="-2.3930020">
        <ele>398.2</ele>
        <time>2019-10-18T15:13:23Z</time>
      </trkpt>
      <trkpt lat="37.0359720" lon="-2.3930160">
        <ele>398.3</ele>
        <time>2019-10-18T15:13:24Z</time>
      </trkpt>
      <trkpt lat="37.0360210" lon="-2.3930290">
        <ele>398.4</ele>
        <time>2019-10-18T15:13:25Z</time>
      </trkpt>
      <trkpt lat="37.0360670" lon="-2.3930430">
        <ele>398.6</ele>
        <time>2019-10-18T15:13:26Z</time>
      </trkpt>
      <trkpt lat="37.0361100" lon="-2.3930550">
        <ele>398.7</ele>
        <time>2019-10-18T15:13:27Z</time>
      </trkpt>
      <trkpt lat="37.0361490" lon="-2.3930660">
        <ele>398.8</ele>
        <time>2019-10-18T15:13:28Z</time>
      </trkpt>
      <trkpt lat="37.0361840" lon="-2.3930750">
        <ele>398.9</ele>
        <time>2019-10-18T15:13:29Z</time>
      </trkpt>
      <trkpt lat="37.0362150" lon="-2.3930800">
        <ele>399.0</ele>
        <time>2019-10-18T15:13:30Z</time>
      </trkpt>
      <trkpt lat="37.0362440" lon="-2.3930820">
        <ele>399.1</ele>
        <time>2019-10-18T15:13:31Z</time>
      </trkpt>
      <trkpt lat="37.0362730" lon="-2.3930800">
        <ele>399.1</ele>
        <time>2019-10-18T15:13:32Z</time>
      </trkpt>
      <trkpt lat="37.0363040" lon="-2.3930760">
        <ele>399.2</ele>
        <time>2019-10-18T15:13:33Z</time>
      </trkpt>
      <trkpt lat="37.0363340" lon="-2.3930680">
        <ele>399.3</ele>
        <time>2019-10-18T15:13:34Z</time>
      </trkpt>
      <trkpt lat="37.0363650" lon="-2.3930540">
        <ele>399.4</ele>
        <time>2019-10-18T15:13:35Z</time>
      </trkpt>
      <trkpt lat="37.0363930" lon="-2.3930350">
        <ele>399.4</ele>
        <time>2019-10-18T15:13:36Z</time>
      </trkpt>
      <trkpt lat="37.0364210" lon="-2.3930110">
        <ele>399.5</ele>
        <time>2019-10-18T15:13:37Z</time>
      </trkpt>
      <trkpt lat="37.0364460" lon="-2.3929830">
        <ele>399.6</ele>
        <time>2019-10-18T15:13:38Z</time>
      </trkpt>
      <trkpt lat="37.0364690" lon="-2.3929510">
        <ele>399.7</ele>
        <time>2019-10-18T15:13:39Z</time>
      </trkpt>
      <trkpt lat="37.0364910" lon="-2.3929180">
        <ele>399.7</ele>
        <time>2019-10-18T15:13:40Z</time>
      </trkpt>
      <trkpt lat="37.0365110" lon="-2.3928830">
        <ele>399.8</ele>
        <time>2019-10-18T15:13:41Z</time>
      </trkpt>
      <trkpt lat="37.0365290" lon="-2.3928480">
        <ele>399.9</ele>
        <time>2019-10-18T15:13:42Z</time>
      </trkpt>
      <trkpt lat="37.0365470" lon="-2.3928110">
        <ele>399.9</ele>
        <time>2019-10-18T15:13:43Z</time>
      </trkpt>
      <trkpt lat="37.0365650" lon="-2.3927750">
        <ele>399.9</ele>
        <time>2019-10-18T15:13:44Z</time>
      </trkpt>
      <trkpt lat="37.0365810" lon="-2.3927390">
        <ele>399.9</ele>
        <time>2019-10-18T15:13:45Z</time>
      </trkpt>
      <trkpt lat="37.0365950" lon="-2.3927010">
        <ele>399.9</ele>
        <time>2019-10-18T15:13:46Z</time>
      </trkpt>
      <trkpt lat="37.0366070" lon="-2.3926620">
        <ele>400.0</ele>
        <time>2019-10-18T15:13:47Z</time>
      </trkpt>
      <trkpt lat="37.0366170" lon="-2.3926230">
        <ele>400.0</ele>
        <time>2019-10-18T15:13:48Z</time>
      </trkpt>
      <trkpt lat="37.0366250" lon="-2.3925830">
        <ele>400.0</ele>
        <time>2019-10-18T15:13:49Z</time>
      </trkpt>
      <trkpt lat="37.0366320" lon="-2.3925430">
        <ele>400.0</ele>
        <time>2019-10-18T15:13:50Z</time>
      </trkpt>
      <trkpt lat="37.0366370" lon="-2.3925020">
        <ele>399.9</ele>
        <time>2019-10-18T15:13:51Z</time>
      </trkpt>
      <trkpt lat="37.0366410" lon="-2.3924610">
        <ele>399.9</ele>
        <time>2019-10-18T15:13:52Z</time>
      </trkpt>
      <trkpt lat="37.0366450" lon="-2.3924210">
        <ele>399.9</ele>
        <time>2019-10-18T15:13:53Z</time>
      </trkpt>
      <trkpt lat="37.0366480" lon="-2.3923790">
        <ele>399.9</ele>
        <time>2019-10-18T15:13:54Z</time>
      </trkpt>
      <trkpt lat="37.0366510" lon="-2.3923380">
        <ele>399.8</ele>
        <time>2019-10-18T15:13:55Z</time>
      </trkpt>
      <trkpt lat="37.0366530" lon="-2.3922960">
        <ele>399.7</ele>
        <time>2019-10-18T15:13:56Z</time>
      </trkpt>
      <trkpt lat="37.0366550" lon="-2.3922540">
        <ele>399.7</ele>
        <time>2019-10-18T15:13:57Z</time>
      </trkpt>
      <trkpt lat="37.0366560" lon="-2.3922110">
        <ele>399.6</ele>
        <time>2019-10-18T15:13:58Z</time>
      </trkpt>
      <trkpt lat="37.0366580" lon="-2.3921680">
        <ele>399.5</ele>
        <time>2019-10-18T15:13:59Z</time>
      </trkpt>
      <trkpt lat="37.0366590" lon="-2.3921250">
        <ele>399.4</ele>
        <time>2019-10-18T15:14:00Z</time>
      </trkpt>
      <trkpt lat="37.0366600" lon="-2.3920830">
        <ele>399.2</ele>
        <time>2019-10-18T15:14:01Z</time>
      </trkpt>
      <trkpt lat="37.0366590" lon="-2.3920420">
        <ele>399.1</ele>
        <time>2019-10-18T15:14:02Z</time>
      </trkpt>
      <trkpt lat="37.0366580" lon="-2.3920000">
        <ele>398.9</ele>
        <time>2019-10-18T15:14:03Z</time>
      </trkpt>
      <trkpt lat="37.0366570" lon="-2.3919570">
        <ele>398.7</ele>
        <time>2019-10-18T15:14:04Z</time>
      </trkpt>
      <trkpt lat="37.0366570" lon="-2.3919140">
        <ele>398.3</ele>
        <time>2019-10-18T15:14:05Z</time>
      </trkpt>
      <trkpt lat="37.0366570" lon="-2.3918730">
        <ele>398.0</ele>
        <time>2019-10-18T15:14:06Z</time>
      </trkpt>
      <trkpt lat="37.0366580" lon="-2.3918390">
        <ele>397.8</ele>
        <time>2019-10-18T15:14:07Z</time>
      </trkpt>
      <trkpt lat="37.0366600" lon="-2.3918100">
        <ele>397.5</ele>
        <time>2019-10-18T15:14:08Z</time>
      </trkpt>
      <trkpt lat="37.0366610" lon="-2.3917860">
        <ele>397.3</ele>
        <time>2019-10-18T15:14:09Z</time>
      </trkpt>
      <trkpt lat="37.0366640" lon="-2.3917650">
        <ele>397.1</ele>
        <time>2019-10-18T15:14:10Z</time>
      </trkpt>
      <trkpt lat="37.0366680" lon="-2.3917460">
        <ele>396.9</ele>
        <time>2019-10-18T15:14:11Z</time>
      </trkpt>
      <trkpt lat="37.0366760" lon="-2.3917270">
        <ele>396.6</ele>
        <time>2019-10-18T15:14:12Z</time>
      </trkpt>
      <trkpt lat="37.0366860" lon="-2.3917060">
        <ele>396.4</ele>
        <time>2019-10-18T15:14:13Z</time>
      </trkpt>
      <trkpt lat="37.0366990" lon="-2.3916850">
        <ele>396.2</ele>
        <time>2019-10-18T15:14:14Z</time>
      </trkpt>
      <trkpt lat="37.0367140" lon="-2.3916640">
        <ele>395.9</ele>
        <time>2019-10-18T15:14:15Z</time>
      </trkpt>
      <trkpt lat="37.0367330" lon="-2.3916460">
        <ele>395.6</ele>
        <time>2019-10-18T15:14:16Z</time>
      </trkpt>
      <trkpt lat="37.0367550" lon="-2.3916280">
        <ele>395.3</ele>
        <time>2019-10-18T15:14:17Z</time>
      </trkpt>
      <trkpt lat="37.0367770" lon="-2.3916100">
        <ele>394.6</ele>
        <time>2019-10-18T15:14:18Z</time>
      </trkpt>
      <trkpt lat="37.0367970" lon="-2.3915910">
        <ele>394.7</ele>
        <time>2019-10-18T15:14:19Z</time>
      </trkpt>
      <trkpt lat="37.0368130" lon="-2.3915750">
        <ele>394.7</ele>
        <time>2019-10-18T15:14:20Z</time>
      </trkpt>
      <trkpt lat="37.0368250" lon="-2.3915630">
        <ele>394.7</ele>
        <time>2019-10-18T15:14:21Z</time>
      </trkpt>
      <trkpt lat="37.0368320" lon="-2.3915590">
        <ele>394.8</ele>
        <time>2019-10-18T15:14:22Z</time>
      </trkpt>
      <trkpt lat="37.0368370" lon="-2.3915580">
        <ele>394.8</ele>
        <time>2019-10-18T15:14:23Z</time>
      </trkpt>
      <trkpt lat="37.0368380" lon="-2.3915580">
        <ele>394.8</ele>
        <time>2019-10-18T15:14:24Z</time>
      </trkpt>
      <trkpt lat="37.0368380" lon="-2.3915570">
        <ele>394.8</ele>
        <time>2019-10-18T15:14:25Z</time>
      </trkpt>
      <trkpt lat="37.0368390" lon="-2.3915550">
        <ele>394.8</ele>
        <time>2019-10-18T15:14:26Z</time>
      </trkpt>
      <trkpt lat="37.0368400" lon="-2.3915520">
        <ele>394.8</ele>
        <time>2019-10-18T15:14:27Z</time>
      </trkpt>
      <trkpt lat="37.0368410" lon="-2.3915510">
        <ele>394.8</ele>
        <time>2019-10-18T15:14:28Z</time>
      </trkpt>
      <trkpt lat="37.0368430" lon="-2.3915510">
        <ele>394.8</ele>
        <time>2019-10-18T15:14:29Z</time>
      </trkpt>
      <trkpt lat="37.0368440" lon="-2.3915510">
        <ele>394.8</ele>
        <time>2019-10-18T15:14:30Z</time>
      </trkpt>
      <trkpt lat="37.0368440" lon="-2.3915510">
        <ele>394.8</ele>
        <time>2019-10-18T15:14:31Z</time>
      </trkpt>
      <trkpt lat="37.0368420" lon="-2.3915530">
        <ele>394.8</ele>
        <time>2019-10-18T15:14:32Z</time>
      </trkpt>
      <trkpt lat="37.0368400" lon="-2.3915540">
        <ele>394.8</ele>
        <time>2019-10-18T15:14:33Z</time>
      </trkpt>
      <trkpt lat="37.0368390" lon="-2.3915550">
        <ele>394.8</ele>
        <time>2019-10-18T15:14:34Z</time>
      </trkpt>
      <trkpt lat="37.0368390" lon="-2.3915550">
        <ele>394.8</ele>
        <time>2019-10-18T15:14:35Z</time>
      </trkpt>
      <trkpt lat="37.0368390" lon="-2.3915550">
        <ele>394.8</ele>
        <time>2019-10-18T15:14:36Z</time>
      </trkpt>
      <trkpt lat="37.0368390" lon="-2.3915560">
        <ele>394.8</ele>
        <time>2019-10-18T15:14:37Z</time>
      </trkpt>
      <trkpt lat="37.0368410" lon="-2.3915570">
        <ele>394.8</ele>
        <time>2019-10-18T15:14:38Z</time>
      </trkpt>
      <trkpt lat="37.0368440" lon="-2.3915570">
        <ele>394.8</ele>
        <time>2019-10-18T15:14:39Z</time>
      </trkpt>
      <trkpt lat="37.0368460" lon="-2.3915570">
        <ele>394.8</ele>
        <time>2019-10-18T15:14:40Z</time>
      </trkpt>
      <trkpt lat="37.0368480" lon="-2.3915590">
        <ele>394.8</ele>
        <time>2019-10-18T15:14:41Z</time>
      </trkpt>
      <trkpt lat="37.0368480" lon="-2.3915610">
        <ele>394.9</ele>
        <time>2019-10-18T15:14:42Z</time>
      </trkpt>
      <trkpt lat="37.0368480" lon="-2.3915630">
        <ele>394.9</ele>
        <time>2019-10-18T15:14:43Z</time>
      </trkpt>
      <trkpt lat="37.0368470" lon="-2.3915620">
        <ele>394.9</ele>
        <time>2019-10-18T15:14:44Z</time>
      </trkpt>
      <trkpt lat="37.0368470" lon="-2.3915610">
        <ele>394.9</ele>
        <time>2019-10-18T15:14:45Z</time>
      </trkpt>
      <trkpt lat="37.0368470" lon="-2.3915570">
        <ele>394.9</ele>
        <time>2019-10-18T15:14:46Z</time>
      </trkpt>
      <trkpt lat="37.0368490" lon="-2.3915560">
        <ele>394.9</ele>
        <time>2019-10-18T15:14:47Z</time>
      </trkpt>
      <trkpt lat="37.0368520" lon="-2.3915550">
        <ele>394.9</ele>
        <time>2019-10-18T15:14:48Z</time>
      </trkpt>
      <trkpt lat="37.0368550" lon="-2.3915590">
        <ele>394.9</ele>
        <time>2019-10-18T15:14:49Z</time>
      </trkpt>
      <trkpt lat="37.0368580" lon="-2.3915650">
        <ele>394.9</ele>
        <time>2019-10-18T15:14:50Z</time>
      </trkpt>
      <trkpt lat="37.0368580" lon="-2.3915690">
        <ele>394.9</ele>
        <time>2019-10-18T15:14:51Z</time>
      </trkpt>
      <trkpt lat="37.0368570" lon="-2.3915700">
        <ele>394.9</ele>
        <time>2019-10-18T15:14:52Z</time>
      </trkpt>
      <trkpt lat="37.0368560" lon="-2.3915710">
        <ele>394.9</ele>
        <time>2019-10-18T15:14:53Z</time>
      </trkpt>
      <trkpt lat="37.0368570" lon="-2.3915700">
        <ele>394.9</ele>
        <time>2019-10-18T15:14:54Z</time>
      </trkpt>
      <trkpt lat="37.0368580" lon="-2.3915690">
        <ele>394.9</ele>
        <time>2019-10-18T15:14:55Z</time>
      </trkpt>
      <trkpt lat="37.0368600" lon="-2.3915680">
        <ele>394.9</ele>
        <time>2019-10-18T15:14:56Z</time>
      </trkpt>
      <trkpt lat="37.0368620" lon="-2.3915670">
        <ele>394.9</ele>
        <time>2019-10-18T15:14:57Z</time>
      </trkpt>
      <trkpt lat="37.0368630" lon="-2.3915680">
        <ele>394.9</ele>
        <time>2019-10-18T15:14:58Z</time>
      </trkpt>
      <trkpt lat="37.0368630" lon="-2.3915680">
        <ele>394.9</ele>
        <time>2019-10-18T15:14:59Z</time>
      </trkpt>
      <trkpt lat="37.0368640" lon="-2.3915680">
        <ele>394.9</ele>
        <time>2019-10-18T15:15:00Z</time>
      </trkpt>
      <trkpt lat="37.0368640" lon="-2.3915690">
        <ele>394.9</ele>
        <time>2019-10-18T15:15:01Z</time>
      </trkpt>
      <trkpt lat="37.0368640" lon="-2.3915690">
        <ele>394.9</ele>
        <time>2019-10-18T15:15:02Z</time>
      </trkpt>
      <trkpt lat="37.0368640" lon="-2.3915700">
        <ele>395.0</ele>
        <time>2019-10-18T15:15:03Z</time>
      </trkpt>
      <trkpt lat="37.0368640" lon="-2.3915720">
        <ele>395.0</ele>
        <time>2019-10-18T15:15:04Z</time>
      </trkpt>
      <trkpt lat="37.0368640" lon="-2.3915740">
        <ele>395.0</ele>
        <time>2019-10-18T15:15:05Z</time>
      </trkpt>
      <trkpt lat="37.0368650" lon="-2.3915750">
        <ele>395.0</ele>
        <time>2019-10-18T15:15:06Z</time>
      </trkpt>
      <trkpt lat="37.0368650" lon="-2.3915750">
        <ele>395.0</ele>
        <time>2019-10-18T15:15:07Z</time>
      </trkpt>
      <trkpt lat="37.0368660" lon="-2.3915750">
        <ele>395.0</ele>
        <time>2019-10-18T15:15:08Z</time>
      </trkpt>
      <trkpt lat="37.0368650" lon="-2.3915750">
        <ele>395.0</ele>
        <time>2019-10-18T15:15:09Z</time>
      </trkpt>
      <trkpt lat="37.0368650" lon="-2.3915740">
        <ele>395.0</ele>
        <time>2019-10-18T15:15:10Z</time>
      </trkpt>
      <trkpt lat="37.0368650" lon="-2.3915740">
        <ele>395.0</ele>
        <time>2019-10-18T15:15:11Z</time>
      </trkpt>
      <trkpt lat="37.0368640" lon="-2.3915740">
        <ele>395.0</ele>
        <time>2019-10-18T15:15:12Z</time>
      </trkpt>
      <trkpt lat="37.0368640" lon="-2.3915730">
        <ele>395.0</ele>
        <time>2019-10-18T15:15:13Z</time>
      </trkpt>
      <trkpt lat="37.0368640" lon="-2.3915730">
        <ele>395.0</ele>
        <time>2019-10-18T15:15:14Z</time>
      </trkpt>
      <trkpt lat="37.0368630" lon="-2.3915720">
        <ele>395.0</ele>
        <time>2019-10-18T15:15:15Z</time>
      </trkpt>
      <trkpt lat="37.0368630" lon="-2.3915720">
        <ele>395.0</ele>
        <time>2019-10-18T15:15:16Z</time>
      </trkpt>
      <trkpt lat="37.0368630" lon="-2.3915720">
        <ele>395.0</ele>
        <time>2019-10-18T15:15:17Z</time>
      </trkpt>
      <trkpt lat="37.0368620" lon="-2.3915720">
        <ele>395.0</ele>
        <time>2019-10-18T15:15:18Z</time>
      </trkpt>
      <trkpt lat="37.0368620" lon="-2.3915710">
        <ele>395.0</ele>
        <time>2019-10-18T15:15:19Z</time>
      </trkpt>
      <trkpt lat="37.0368620" lon="-2.3915700">
        <ele>395.0</ele>
        <time>2019-10-18T15:15:20Z</time>
      </trkpt>
      <trkpt lat="37.0368620" lon="-2.3915690">
        <ele>395.0</ele>
        <time>2019-10-18T15:15:21Z</time>
      </trkpt>
      <trkpt lat="37.0368630" lon="-2.3915690">
        <ele>395.0</ele>
        <time>2019-10-18T15:15:22Z</time>
      </trkpt>
      <trkpt lat="37.0368630" lon="-2.3915680">
        <ele>395.0</ele>
        <time>2019-10-18T15:15:23Z</time>
      </trkpt>
      <trkpt lat="37.0368630" lon="-2.3915670">
        <ele>395.0</ele>
        <time>2019-10-18T15:15:24Z</time>
      </trkpt>
      <trkpt lat="37.0368630" lon="-2.3915670">
        <ele>395.0</ele>
        <time>2019-10-18T15:15:25Z</time>
      </trkpt>
      <trkpt lat="37.0368630" lon="-2.3915670">
        <ele>395.0</ele>
        <time>2019-10-18T15:15:26Z</time>
      </trkpt>
      <trkpt lat="37.0368630" lon="-2.3915670">
        <ele>395.0</ele>
        <time>2019-10-18T15:15:27Z</time>
      </trkpt>
      <trkpt lat="37.0368630" lon="-2.3915670">
        <ele>395.0</ele>
        <time>2019-10-18T15:15:28Z</time>
      </trkpt>
      <trkpt lat="37.0368630" lon="-2.3915670">
        <ele>395.0</ele>
        <time>2019-10-18T15:15:29Z</time>
      </trkpt>
      <trkpt lat="37.0368620" lon="-2.3915670">
        <ele>395.0</ele>
        <time>2019-10-18T15:15:30Z</time>
      </trkpt>
      <trkpt lat="37.0368620" lon="-2.3915670">
        <ele>395.0</ele>
        <time>2019-10-18T15:15:31Z</time>
      </trkpt>
      <trkpt lat="37.0368620" lon="-2.3915670">
        <ele>395.0</ele>
        <time>2019-10-18T15:15:32Z</time>
      </trkpt>
      <trkpt lat="37.0368620" lon="-2.3915660">
        <ele>395.0</ele>
        <time>2019-10-18T15:15:33Z</time>
      </trkpt>
      <trkpt lat="37.0368610" lon="-2.3915660">
        <ele>395.0</ele>
        <time>2019-10-18T15:15:34Z</time>
      </trkpt>
      <trkpt lat="37.0368610" lon="-2.3915660">
        <ele>395.0</ele>
        <time>2019-10-18T15:15:35Z</time>
      </trkpt>
      <trkpt lat="37.0368610" lon="-2.3915660">
        <ele>395.0</ele>
        <time>2019-10-18T15:15:36Z</time>
      </trkpt>
      <trkpt lat="37.0368610" lon="-2.3915660">
        <ele>395.0</ele>
        <time>2019-10-18T15:15:37Z</time>
      </trkpt>
      <trkpt lat="37.0368610" lon="-2.3915660">
        <ele>395.0</ele>
        <time>2019-10-18T15:15:38Z</time>
      </trkpt>
      <trkpt lat="37.0368610" lon="-2.3915660">
        <ele>395.0</ele>
        <time>2019-10-18T15:15:39Z</time>
      </trkpt>
      <trkpt lat="37.0368600" lon="-2.3915670">
        <ele>395.0</ele>
        <time>2019-10-18T15:15:40Z</time>
      </trkpt>
      <trkpt lat="37.0368600" lon="-2.3915670">
        <ele>395.0</ele>
        <time>2019-10-18T15:15:41Z</time>
      </trkpt>
      <trkpt lat="37.0368590" lon="-2.3915670">
        <ele>395.0</ele>
        <time>2019-10-18T15:15:42Z</time>
      </trkpt>
      <trkpt lat="37.0368590" lon="-2.3915660">
        <ele>395.0</ele>
        <time>2019-10-18T15:15:43Z</time>
      </trkpt>
      <trkpt lat="37.0368580" lon="-2.3915660">
        <ele>395.0</ele>
        <time>2019-10-18T15:15:44Z</time>
      </trkpt>
      <trkpt lat="37.0368580" lon="-2.3915660">
        <ele>395.0</ele>
        <time>2019-10-18T15:15:45Z</time>
      </trkpt>
      <trkpt lat="37.0368580" lon="-2.3915660">
        <ele>395.0</ele>
        <time>2019-10-18T15:15:46Z</time>
      </trkpt>
      <trkpt lat="37.0368580" lon="-2.3915660">
        <ele>395.0</ele>
        <time>2019-10-18T15:15:47Z</time>
      </trkpt>
      <trkpt lat="37.0368570" lon="-2.3915670">
        <ele>395.0</ele>
        <time>2019-10-18T15:15:48Z</time>
      </trkpt>
      <trkpt lat="37.0368560" lon="-2.3915670">
        <ele>395.0</ele>
        <time>2019-10-18T15:15:49Z</time>
      </trkpt>
      <trkpt lat="37.0368560" lon="-2.3915690">
        <ele>395.0</ele>
        <time>2019-10-18T15:15:50Z</time>
      </trkpt>
      <trkpt lat="37.0368550" lon="-2.3915700">
        <ele>395.0</ele>
        <time>2019-10-18T15:15:51Z</time>
      </trkpt>
      <trkpt lat="37.0368550" lon="-2.3915700">
        <ele>395.0</ele>
        <time>2019-10-18T15:15:52Z</time>
      </trkpt>
      <trkpt lat="37.0368560" lon="-2.3915710">
        <ele>395.0</ele>
        <time>2019-10-18T15:15:53Z</time>
      </trkpt>
      <trkpt lat="37.0368560" lon="-2.3915720">
        <ele>395.0</ele>
        <time>2019-10-18T15:15:54Z</time>
      </trkpt>
      <trkpt lat="37.0368560" lon="-2.3915730">
        <ele>395.0</ele>
        <time>2019-10-18T15:15:55Z</time>
      </trkpt>
      <trkpt lat="37.0368570" lon="-2.3915740">
        <ele>395.0</ele>
        <time>2019-10-18T15:15:56Z</time>
      </trkpt>
      <trkpt lat="37.0368570" lon="-2.3915750">
        <ele>395.0</ele>
        <time>2019-10-18T15:15:57Z</time>
      </trkpt>
      <trkpt lat="37.0368580" lon="-2.3915750">
        <ele>395.0</ele>
        <time>2019-10-18T15:15:58Z</time>
      </trkpt>
      <trkpt lat="37.0368590" lon="-2.3915750">
        <ele>395.0</ele>
        <time>2019-10-18T15:15:59Z</time>
      </trkpt>
      <trkpt lat="37.0368600" lon="-2.3915750">
        <ele>395.0</ele>
        <time>2019-10-18T15:16:00Z</time>
      </trkpt>
      <trkpt lat="37.0368610" lon="-2.3915750">
        <ele>395.0</ele>
        <time>2019-10-18T15:16:01Z</time>
      </trkpt>
      <trkpt lat="37.0368640" lon="-2.3915740">
        <ele>395.0</ele>
        <time>2019-10-18T15:16:02Z</time>
      </trkpt>
      <trkpt lat="37.0368660" lon="-2.3915740">
        <ele>395.0</ele>
        <time>2019-10-18T15:16:03Z</time>
      </trkpt>
      <trkpt lat="37.0368660" lon="-2.3915750">
        <ele>395.0</ele>
        <time>2019-10-18T15:16:04Z</time>
      </trkpt>
      <trkpt lat="37.0368660" lon="-2.3915760">
        <ele>395.0</ele>
        <time>2019-10-18T15:16:05Z</time>
      </trkpt>
      <trkpt lat="37.0368660" lon="-2.3915760">
        <ele>395.0</ele>
        <time>2019-10-18T15:16:06Z</time>
      </trkpt>
      <trkpt lat="37.0368670" lon="-2.3915760">
        <ele>395.0</ele>
        <time>2019-10-18T15:16:07Z</time>
      </trkpt>
      <trkpt lat="37.0368670" lon="-2.3915750">
        <ele>395.0</ele>
        <time>2019-10-18T15:16:08Z</time>
      </trkpt>
      <trkpt lat="37.0368690" lon="-2.3915750">
        <ele>395.0</ele>
        <time>2019-10-18T15:16:09Z</time>
      </trkpt>
      <trkpt lat="37.0368700" lon="-2.3915740">
        <ele>395.0</ele>
        <time>2019-10-18T15:16:10Z</time>
      </trkpt>
      <trkpt lat="37.0368710" lon="-2.3915740">
        <ele>395.0</ele>
        <time>2019-10-18T15:16:11Z</time>
      </trkpt>
      <trkpt lat="37.0368720" lon="-2.3915740">
        <ele>395.0</ele>
        <time>2019-10-18T15:16:12Z</time>
      </trkpt>
      <trkpt lat="37.0368720" lon="-2.3915740">
        <ele>395.0</ele>
        <time>2019-10-18T15:16:13Z</time>
      </trkpt>
      <trkpt lat="37.0368720" lon="-2.3915740">
        <ele>395.0</ele>
        <time>2019-10-18T15:16:14Z</time>
      </trkpt>
      <trkpt lat="37.0368710" lon="-2.3915750">
        <ele>395.0</ele>
        <time>2019-10-18T15:16:15Z</time>
      </trkpt>
      <trkpt lat="37.0368700" lon="-2.3915760">
        <ele>395.0</ele>
        <time>2019-10-18T15:16:16Z</time>
      </trkpt>
      <trkpt lat="37.0368710" lon="-2.3915760">
        <ele>395.0</ele>
        <time>2019-10-18T15:16:17Z</time>
      </trkpt>
      <trkpt lat="37.0368710" lon="-2.3915760">
        <ele>395.0</ele>
        <time>2019-10-18T15:16:18Z</time>
      </trkpt>
      <trkpt lat="37.0368710" lon="-2.3915760">
        <ele>395.0</ele>
        <time>2019-10-18T15:16:19Z</time>
      </trkpt>
      <trkpt lat="37.0368700" lon="-2.3915760">
        <ele>395.0</ele>
        <time>2019-10-18T15:16:20Z</time>
      </trkpt>
      <trkpt lat="37.0368700" lon="-2.3915760">
        <ele>395.0</ele>
        <time>2019-10-18T15:16:21Z</time>
      </trkpt>
      <trkpt lat="37.0368690" lon="-2.3915760">
        <ele>395.1</ele>
        <time>2019-10-18T15:16:22Z</time>
      </trkpt>
      <trkpt lat="37.0368690" lon="-2.3915750">
        <ele>395.1</ele>
        <time>2019-10-18T15:16:23Z</time>
      </trkpt>
      <trkpt lat="37.0368680" lon="-2.3915750">
        <ele>395.1</ele>
        <time>2019-10-18T15:16:24Z</time>
      </trkpt>
      <trkpt lat="37.0368670" lon="-2.3915750">
        <ele>395.1</ele>
        <time>2019-10-18T15:16:25Z</time>
      </trkpt>
      <trkpt lat="37.0368670" lon="-2.3915750">
        <ele>395.1</ele>
        <time>2019-10-18T15:16:26Z</time>
      </trkpt>
      <trkpt lat="37.0368660" lon="-2.3915750">
        <ele>395.1</ele>
        <time>2019-10-18T15:16:27Z</time>
      </trkpt>
      <trkpt lat="37.0368650" lon="-2.3915750">
        <ele>395.1</ele>
        <time>2019-10-18T15:16:28Z</time>
      </trkpt>
      <trkpt lat="37.0368660" lon="-2.3915750">
        <ele>395.1</ele>
        <time>2019-10-18T15:16:29Z</time>
      </trkpt>
      <trkpt lat="37.0368650" lon="-2.3915750">
        <ele>395.1</ele>
        <time>2019-10-18T15:16:30Z</time>
      </trkpt>
      <trkpt lat="37.0368650" lon="-2.3915750">
        <ele>395.1</ele>
        <time>2019-10-18T15:16:31Z</time>
      </trkpt>
      <trkpt lat="37.0368650" lon="-2.3915740">
        <ele>395.1</ele>
        <time>2019-10-18T15:16:32Z</time>
      </trkpt>
      <trkpt lat="37.0368640" lon="-2.3915740">
        <ele>395.1</ele>
        <time>2019-10-18T15:16:33Z</time>
      </trkpt>
      <trkpt lat="37.0368640" lon="-2.3915740">
        <ele>395.1</ele>
        <time>2019-10-18T15:16:34Z</time>
      </trkpt>
      <trkpt lat="37.0368640" lon="-2.3915740">
        <ele>395.1</ele>
        <time>2019-10-18T15:16:35Z</time>
      </trkpt>
      <trkpt lat="37.0368640" lon="-2.3915740">
        <ele>395.1</ele>
        <time>2019-10-18T15:16:36Z</time>
      </trkpt>
      <trkpt lat="37.0368640" lon="-2.3915750">
        <ele>395.1</ele>
        <time>2019-10-18T15:16:37Z</time>
      </trkpt>
      <trkpt lat="37.0368640" lon="-2.3915750">
        <ele>395.1</ele>
        <time>2019-10-18T15:16:38Z</time>
      </trkpt>
      <trkpt lat="37.0368640" lon="-2.3915760">
        <ele>395.1</ele>
        <time>2019-10-18T15:16:39Z</time>
      </trkpt>
      <trkpt lat="37.0368640" lon="-2.3915760">
        <ele>395.1</ele>
        <time>2019-10-18T15:16:40Z</time>
      </trkpt>
      <trkpt lat="37.0368640" lon="-2.3915760">
        <ele>395.1</ele>
        <time>2019-10-18T15:16:41Z</time>
      </trkpt>
      <trkpt lat="37.0368630" lon="-2.3915760">
        <ele>395.1</ele>
        <time>2019-10-18T15:16:42Z</time>
      </trkpt>
      <trkpt lat="37.0368620" lon="-2.3915760">
        <ele>395.1</ele>
        <time>2019-10-18T15:16:43Z</time>
      </trkpt>
      <trkpt lat="37.0368620" lon="-2.3915760">
        <ele>395.1</ele>
        <time>2019-10-18T15:16:44Z</time>
      </trkpt>
      <trkpt lat="37.0368610" lon="-2.3915760">
        <ele>395.1</ele>
        <time>2019-10-18T15:16:45Z</time>
      </trkpt>
      <trkpt lat="37.0368610" lon="-2.3915760">
        <ele>395.1</ele>
        <time>2019-10-18T15:16:46Z</time>
      </trkpt>
      <trkpt lat="37.0368620" lon="-2.3915770">
        <ele>395.1</ele>
        <time>2019-10-18T15:16:47Z</time>
      </trkpt>
      <trkpt lat="37.0368620" lon="-2.3915770">
        <ele>395.1</ele>
        <time>2019-10-18T15:16:48Z</time>
      </trkpt>
      <trkpt lat="37.0368630" lon="-2.3915770">
        <ele>395.1</ele>
        <time>2019-10-18T15:16:49Z</time>
      </trkpt>
      <trkpt lat="37.0368630" lon="-2.3915760">
        <ele>395.1</ele>
        <time>2019-10-18T15:16:50Z</time>
      </trkpt>
      <trkpt lat="37.0368650" lon="-2.3915760">
        <ele>395.1</ele>
        <time>2019-10-18T15:16:51Z</time>
      </trkpt>
      <trkpt lat="37.0368660" lon="-2.3915760">
        <ele>395.1</ele>
        <time>2019-10-18T15:16:52Z</time>
      </trkpt>
      <trkpt lat="37.0368680" lon="-2.3915770">
        <ele>395.1</ele>
        <time>2019-10-18T15:16:53Z</time>
      </trkpt>
      <trkpt lat="37.0368700" lon="-2.3915780">
        <ele>395.1</ele>
        <time>2019-10-18T15:16:54Z</time>
      </trkpt>
      <trkpt lat="37.0368710" lon="-2.3915790">
        <ele>395.1</ele>
        <time>2019-10-18T15:16:55Z</time>
      </trkpt>
      <trkpt lat="37.0368720" lon="-2.3915790">
        <ele>395.1</ele>
        <time>2019-10-18T15:16:56Z</time>
      </trkpt>
      <trkpt lat="37.0368710" lon="-2.3915790">
        <ele>395.1</ele>
        <time>2019-10-18T15:16:57Z</time>
      </trkpt>
      <trkpt lat="37.0368720" lon="-2.3915780">
        <ele>395.1</ele>
        <time>2019-10-18T15:16:58Z</time>
      </trkpt>
      <trkpt lat="37.0368720" lon="-2.3915780">
        <ele>395.1</ele>
        <time>2019-10-18T15:16:59Z</time>
      </trkpt>
      <trkpt lat="37.0368730" lon="-2.3915790">
        <ele>395.1</ele>
        <time>2019-10-18T15:17:00Z</time>
      </trkpt>
      <trkpt lat="37.0368750" lon="-2.3915790">
        <ele>395.1</ele>
        <time>2019-10-18T15:17:01Z</time>
      </trkpt>
      <trkpt lat="37.0368760" lon="-2.3915790">
        <ele>395.1</ele>
        <time>2019-10-18T15:17:02Z</time>
      </trkpt>
      <trkpt lat="37.0368770" lon="-2.3915800">
        <ele>395.1</ele>
        <time>2019-10-18T15:17:03Z</time>
      </trkpt>
      <trkpt lat="37.0368790" lon="-2.3915810">
        <ele>395.1</ele>
        <time>2019-10-18T15:17:04Z</time>
      </trkpt>
      <trkpt lat="37.0368790" lon="-2.3915810">
        <ele>395.1</ele>
        <time>2019-10-18T15:17:05Z</time>
      </trkpt>
      <trkpt lat="37.0368790" lon="-2.3915810">
        <ele>395.1</ele>
        <time>2019-10-18T15:17:06Z</time>
      </trkpt>
      <trkpt lat="37.0368780" lon="-2.3915820">
        <ele>395.1</ele>
        <time>2019-10-18T15:17:07Z</time>
      </trkpt>
      <trkpt lat="37.0368770" lon="-2.3915830">
        <ele>395.1</ele>
        <time>2019-10-18T15:17:08Z</time>
      </trkpt>
      <trkpt lat="37.0368770" lon="-2.3915830">
        <ele>395.1</ele>
        <time>2019-10-18T15:17:09Z</time>
      </trkpt>
      <trkpt lat="37.0368770" lon="-2.3915830">
        <ele>395.1</ele>
        <time>2019-10-18T15:17:10Z</time>
      </trkpt>
      <trkpt lat="37.0368780" lon="-2.3915840">
        <ele>395.1</ele>
        <time>2019-10-18T15:17:11Z</time>
      </trkpt>
      <trkpt lat="37.0368780" lon="-2.3915840">
        <ele>395.1</ele>
        <time>2019-10-18T15:17:12Z</time>
      </trkpt>
      <trkpt lat="37.0368790" lon="-2.3915840">
        <ele>395.1</ele>
        <time>2019-10-18T15:17:13Z</time>
      </trkpt>
      <trkpt lat="37.0368790" lon="-2.3915840">
        <ele>395.1</ele>
        <time>2019-10-18T15:17:14Z</time>
      </trkpt>
      <trkpt lat="37.0368790" lon="-2.3915830">
        <ele>395.1</ele>
        <time>2019-10-18T15:17:15Z</time>
      </trkpt>
      <trkpt lat="37.0368800" lon="-2.3915830">
        <ele>395.1</ele>
        <time>2019-10-18T15:17:16Z</time>
      </trkpt>
      <trkpt lat="37.0368800" lon="-2.3915820">
        <ele>395.1</ele>
        <time>2019-10-18T15:17:17Z</time>
      </trkpt>
      <trkpt lat="37.0368810" lon="-2.3915820">
        <ele>395.1</ele>
        <time>2019-10-18T15:17:18Z</time>
      </trkpt>
      <trkpt lat="37.0368810" lon="-2.3915820">
        <ele>395.1</ele>
        <time>2019-10-18T15:17:19Z</time>
      </trkpt>
      <trkpt lat="37.0368820" lon="-2.3915820">
        <ele>395.1</ele>
        <time>2019-10-18T15:17:20Z</time>
      </trkpt>
      <trkpt lat="37.0368820" lon="-2.3915810">
        <ele>395.1</ele>
        <time>2019-10-18T15:17:21Z</time>
      </trkpt>
      <trkpt lat="37.0368820" lon="-2.3915810">
        <ele>395.1</ele>
        <time>2019-10-18T15:17:22Z</time>
      </trkpt>
      <trkpt lat="37.0368820" lon="-2.3915810">
        <ele>395.1</ele>
        <time>2019-10-18T15:17:23Z</time>
      </trkpt>
      <trkpt lat="37.0368820" lon="-2.3915810">
        <ele>395.1</ele>
        <time>2019-10-18T15:17:24Z</time>
      </trkpt>
      <trkpt lat="37.0368820" lon="-2.3915820">
        <ele>395.1</ele>
        <time>2019-10-18T15:17:25Z</time>
      </trkpt>
      <trkpt lat="37.0368820" lon="-2.3915820">
        <ele>395.1</ele>
        <time>2019-10-18T15:17:26Z</time>
      </trkpt>
      <trkpt lat="37.0368830" lon="-2.3915830">
        <ele>395.1</ele>
        <time>2019-10-18T15:17:27Z</time>
      </trkpt>
      <trkpt lat="37.0368830" lon="-2.3915850">
        <ele>395.1</ele>
        <time>2019-10-18T15:17:28Z</time>
      </trkpt>
      <trkpt lat="37.0368830" lon="-2.3915860">
        <ele>395.1</ele>
        <time>2019-10-18T15:17:29Z</time>
      </trkpt>
      <trkpt lat="37.0368830" lon="-2.3915870">
        <ele>395.1</ele>
        <time>2019-10-18T15:17:30Z</time>
      </trkpt>
      <trkpt lat="37.0368830" lon="-2.3915880">
        <ele>395.1</ele>
        <time>2019-10-18T15:17:31Z</time>
      </trkpt>
      <trkpt lat="37.0368830" lon="-2.3915890">
        <ele>395.1</ele>
        <time>2019-10-18T15:17:32Z</time>
      </trkpt>
      <trkpt lat="37.0368820" lon="-2.3915890">
        <ele>395.1</ele>
        <time>2019-10-18T15:17:33Z</time>
      </trkpt>
      <trkpt lat="37.0368810" lon="-2.3915880">
        <ele>395.1</ele>
        <time>2019-10-18T15:17:34Z</time>
      </trkpt>
      <trkpt lat="37.0368810" lon="-2.3915880">
        <ele>395.1</ele>
        <time>2019-10-18T15:17:35Z</time>
      </trkpt>
      <trkpt lat="37.0368800" lon="-2.3915880">
        <ele>395.1</ele>
        <time>2019-10-18T15:17:36Z</time>
      </trkpt>
      <trkpt lat="37.0368790" lon="-2.3915880">
        <ele>395.1</ele>
        <time>2019-10-18T15:17:37Z</time>
      </trkpt>
      <trkpt lat="37.0368790" lon="-2.3915880">
        <ele>395.1</ele>
        <time>2019-10-18T15:17:38Z</time>
      </trkpt>
      <trkpt lat="37.0368780" lon="-2.3915880">
        <ele>395.2</ele>
        <time>2019-10-18T15:17:39Z</time>
      </trkpt>
      <trkpt lat="37.0368770" lon="-2.3915890">
        <ele>395.2</ele>
        <time>2019-10-18T15:17:40Z</time>
      </trkpt>
      <trkpt lat="37.0368760" lon="-2.3915890">
        <ele>395.2</ele>
        <time>2019-10-18T15:17:41Z</time>
      </trkpt>
      <trkpt lat="37.0368750" lon="-2.3915880">
        <ele>395.2</ele>
        <time>2019-10-18T15:17:42Z</time>
      </trkpt>
      <trkpt lat="37.0368740" lon="-2.3915870">
        <ele>395.2</ele>
        <time>2019-10-18T15:17:43Z</time>
      </trkpt>
      <trkpt lat="37.0368730" lon="-2.3915880">
        <ele>395.2</ele>
        <time>2019-10-18T15:17:44Z</time>
      </trkpt>
      <trkpt lat="37.0368720" lon="-2.3915880">
        <ele>395.2</ele>
        <time>2019-10-18T15:17:45Z</time>
      </trkpt>
      <trkpt lat="37.0368710" lon="-2.3915890">
        <ele>395.2</ele>
        <time>2019-10-18T15:17:46Z</time>
      </trkpt>
      <trkpt lat="37.0368700" lon="-2.3915890">
        <ele>395.2</ele>
        <time>2019-10-18T15:17:47Z</time>
      </trkpt>
      <trkpt lat="37.0368700" lon="-2.3915880">
        <ele>395.2</ele>
        <time>2019-10-18T15:17:48Z</time>
      </trkpt>
      <trkpt lat="37.0368690" lon="-2.3915880">
        <ele>395.2</ele>
        <time>2019-10-18T15:17:49Z</time>
      </trkpt>
      <trkpt lat="37.0368690" lon="-2.3915870">
        <ele>395.2</ele>
        <time>2019-10-18T15:17:50Z</time>
      </trkpt>
      <trkpt lat="37.0368690" lon="-2.3915870">
        <ele>395.2</ele>
        <time>2019-10-18T15:17:51Z</time>
      </trkpt>
      <trkpt lat="37.0368680" lon="-2.3915860">
        <ele>395.2</ele>
        <time>2019-10-18T15:17:52Z</time>
      </trkpt>
      <trkpt lat="37.0368680" lon="-2.3915850">
        <ele>395.2</ele>
        <time>2019-10-18T15:17:53Z</time>
      </trkpt>
      <trkpt lat="37.0368680" lon="-2.3915840">
        <ele>395.2</ele>
        <time>2019-10-18T15:17:54Z</time>
      </trkpt>
      <trkpt lat="37.0368680" lon="-2.3915830">
        <ele>395.2</ele>
        <time>2019-10-18T15:17:55Z</time>
      </trkpt>
      <trkpt lat="37.0368670" lon="-2.3915820">
        <ele>395.2</ele>
        <time>2019-10-18T15:17:56Z</time>
      </trkpt>
      <trkpt lat="37.0368670" lon="-2.3915820">
        <ele>395.2</ele>
        <time>2019-10-18T15:17:57Z</time>
      </trkpt>
      <trkpt lat="37.0368660" lon="-2.3915810">
        <ele>395.2</ele>
        <time>2019-10-18T15:17:58Z</time>
      </trkpt>
      <trkpt lat="37.0368660" lon="-2.3915810">
        <ele>395.2</ele>
        <time>2019-10-18T15:17:59Z</time>
      </trkpt>
      <trkpt lat="37.0368660" lon="-2.3915810">
        <ele>395.2</ele>
        <time>2019-10-18T15:18:00Z</time>
      </trkpt>
      <trkpt lat="37.0368670" lon="-2.3915820">
        <ele>395.2</ele>
        <time>2019-10-18T15:18:01Z</time>
      </trkpt>
      <trkpt lat="37.0368670" lon="-2.3915820">
        <ele>395.2</ele>
        <time>2019-10-18T15:18:02Z</time>
      </trkpt>
      <trkpt lat="37.0368660" lon="-2.3915820">
        <ele>395.2</ele>
        <time>2019-10-18T15:18:03Z</time>
      </trkpt>
      <trkpt lat="37.0368660" lon="-2.3915820">
        <ele>395.2</ele>
        <time>2019-10-18T15:18:04Z</time>
      </trkpt>
      <trkpt lat="37.0368660" lon="-2.3915820">
        <ele>395.2</ele>
        <time>2019-10-18T15:18:05Z</time>
      </trkpt>
      <trkpt lat="37.0368660" lon="-2.3915820">
        <ele>395.2</ele>
        <time>2019-10-18T15:18:06Z</time>
      </trkpt>
      <trkpt lat="37.0368660" lon="-2.3915820">
        <ele>395.2</ele>
        <time>2019-10-18T15:18:07Z</time>
      </trkpt>
      <trkpt lat="37.0368660" lon="-2.3915820">
        <ele>395.2</ele>
        <time>2019-10-18T15:18:08Z</time>
      </trkpt>
      <trkpt lat="37.0368660" lon="-2.3915820">
        <ele>395.2</ele>
        <time>2019-10-18T15:18:09Z</time>
      </trkpt>
      <trkpt lat="37.0368660" lon="-2.3915820">
        <ele>395.2</ele>
        <time>2019-10-18T15:18:10Z</time>
      </trkpt>
      <trkpt lat="37.0368660" lon="-2.3915820">
        <ele>395.2</ele>
        <time>2019-10-18T15:18:11Z</time>
      </trkpt>
      <trkpt lat="37.0368660" lon="-2.3915810">
        <ele>395.2</ele>
        <time>2019-10-18T15:18:12Z</time>
      </trkpt>
      <trkpt lat="37.0368660" lon="-2.3915820">
        <ele>395.2</ele>
        <time>2019-10-18T15:18:13Z</time>
      </trkpt>
      <trkpt lat="37.0368670" lon="-2.3915820">
        <ele>395.2</ele>
        <time>2019-10-18T15:18:14Z</time>
      </trkpt>
      <trkpt lat="37.0368670" lon="-2.3915820">
        <ele>395.2</ele>
        <time>2019-10-18T15:18:15Z</time>
      </trkpt>
      <trkpt lat="37.0368670" lon="-2.3915810">
        <ele>395.2</ele>
        <time>2019-10-18T15:18:16Z</time>
      </trkpt>
      <trkpt lat="37.0368670" lon="-2.3915810">
        <ele>395.2</ele>
        <time>2019-10-18T15:18:17Z</time>
      </trkpt>
      <trkpt lat="37.0368680" lon="-2.3915800">
        <ele>395.2</ele>
        <time>2019-10-18T15:18:18Z</time>
      </trkpt>
      <trkpt lat="37.0368680" lon="-2.3915800">
        <ele>395.2</ele>
        <time>2019-10-18T15:18:19Z</time>
      </trkpt>
      <trkpt lat="37.0368680" lon="-2.3915800">
        <ele>395.2</ele>
        <time>2019-10-18T15:18:20Z</time>
      </trkpt>
      <trkpt lat="37.0368690" lon="-2.3915790">
        <ele>395.2</ele>
        <time>2019-10-18T15:18:21Z</time>
      </trkpt>
      <trkpt lat="37.0368690" lon="-2.3915780">
        <ele>395.2</ele>
        <time>2019-10-18T15:18:22Z</time>
      </trkpt>
      <trkpt lat="37.0368690" lon="-2.3915770">
        <ele>395.2</ele>
        <time>2019-10-18T15:18:23Z</time>
      </trkpt>
      <trkpt lat="37.0368680" lon="-2.3915770">
        <ele>395.2</ele>
        <time>2019-10-18T15:18:24Z</time>
      </trkpt>
      <trkpt lat="37.0368670" lon="-2.3915780">
        <ele>395.2</ele>
        <time>2019-10-18T15:18:25Z</time>
      </trkpt>
      <trkpt lat="37.0368660" lon="-2.3915790">
        <ele>395.2</ele>
        <time>2019-10-18T15:18:26Z</time>
      </trkpt>
      <trkpt lat="37.0368660" lon="-2.3915810">
        <ele>395.2</ele>
        <time>2019-10-18T15:18:27Z</time>
      </trkpt>
      <trkpt lat="37.0368660" lon="-2.3915810">
        <ele>395.2</ele>
        <time>2019-10-18T15:18:28Z</time>
      </trkpt>
      <trkpt lat="37.0368660" lon="-2.3915820">
        <ele>395.2</ele>
        <time>2019-10-18T15:18:29Z</time>
      </trkpt>
      <trkpt lat="37.0368660" lon="-2.3915810">
        <ele>395.2</ele>
        <time>2019-10-18T15:18:30Z</time>
      </trkpt>
      <trkpt lat="37.0368660" lon="-2.3915810">
        <ele>395.2</ele>
        <time>2019-10-18T15:18:31Z</time>
      </trkpt>
      <trkpt lat="37.0368660" lon="-2.3915810">
        <ele>395.2</ele>
        <time>2019-10-18T15:18:32Z</time>
      </trkpt>
      <trkpt lat="37.0368660" lon="-2.3915810">
        <ele>395.2</ele>
        <time>2019-10-18T15:18:33Z</time>
      </trkpt>
      <trkpt lat="37.0368650" lon="-2.3915810">
        <ele>395.2</ele>
        <time>2019-10-18T15:18:34Z</time>
      </trkpt>
      <trkpt lat="37.0368650" lon="-2.3915800">
        <ele>395.2</ele>
        <time>2019-10-18T15:18:35Z</time>
      </trkpt>
      <trkpt lat="37.0368650" lon="-2.3915800">
        <ele>395.2</ele>
        <time>2019-10-18T15:18:36Z</time>
      </trkpt>
      <trkpt lat="37.0368650" lon="-2.3915800">
        <ele>395.2</ele>
        <time>2019-10-18T15:18:37Z</time>
      </trkpt>
      <trkpt lat="37.0368660" lon="-2.3915790">
        <ele>395.2</ele>
        <time>2019-10-18T15:18:38Z</time>
      </trkpt>
      <trkpt lat="37.0368660" lon="-2.3915790">
        <ele>395.2</ele>
        <time>2019-10-18T15:18:39Z</time>
      </trkpt>
      <trkpt lat="37.0368660" lon="-2.3915790">
        <ele>395.2</ele>
        <time>2019-10-18T15:18:40Z</time>
      </trkpt>
      <trkpt lat="37.0368650" lon="-2.3915780">
        <ele>395.2</ele>
        <time>2019-10-18T15:18:41Z</time>
      </trkpt>
      <trkpt lat="37.0368650" lon="-2.3915770">
        <ele>395.2</ele>
        <time>2019-10-18T15:18:42Z</time>
      </trkpt>
      <trkpt lat="37.0368650" lon="-2.3915770">
        <ele>395.2</ele>
        <time>2019-10-18T15:18:43Z</time>
      </trkpt>
      <trkpt lat="37.0368650" lon="-2.3915760">
        <ele>395.2</ele>
        <time>2019-10-18T15:18:44Z</time>
      </trkpt>
      <trkpt lat="37.0368650" lon="-2.3915750">
        <ele>395.2</ele>
        <time>2019-10-18T15:18:45Z</time>
      </trkpt>
      <trkpt lat="37.0368650" lon="-2.3915740">
        <ele>395.2</ele>
        <time>2019-10-18T15:18:46Z</time>
      </trkpt>
      <trkpt lat="37.0368650" lon="-2.3915740">
        <ele>395.2</ele>
        <time>2019-10-18T15:18:47Z</time>
      </trkpt>
      <trkpt lat="37.0368660" lon="-2.3915730">
        <ele>395.2</ele>
        <time>2019-10-18T15:18:48Z</time>
      </trkpt>
      <trkpt lat="37.0368660" lon="-2.3915720">
        <ele>395.2</ele>
        <time>2019-10-18T15:18:49Z</time>
      </trkpt>
      <trkpt lat="37.0368660" lon="-2.3915720">
        <ele>395.2</ele>
        <time>2019-10-18T15:18:50Z</time>
      </trkpt>
      <trkpt lat="37.0368660" lon="-2.3915710">
        <ele>395.2</ele>
        <time>2019-10-18T15:18:51Z</time>
      </trkpt>
      <trkpt lat="37.0368660" lon="-2.3915700">
        <ele>395.2</ele>
        <time>2019-10-18T15:18:52Z</time>
      </trkpt>
      <trkpt lat="37.0368660" lon="-2.3915700">
        <ele>395.2</ele>
        <time>2019-10-18T15:18:53Z</time>
      </trkpt>
      <trkpt lat="37.0368670" lon="-2.3915700">
        <ele>395.2</ele>
        <time>2019-10-18T15:18:54Z</time>
      </trkpt>
      <trkpt lat="37.0368670" lon="-2.3915700">
        <ele>395.2</ele>
        <time>2019-10-18T15:18:55Z</time>
      </trkpt>
      <trkpt lat="37.0368670" lon="-2.3915700">
        <ele>395.2</ele>
        <time>2019-10-18T15:18:56Z</time>
      </trkpt>
      <trkpt lat="37.0368670" lon="-2.3915700">
        <ele>395.2</ele>
        <time>2019-10-18T15:18:57Z</time>
      </trkpt>
      <trkpt lat="37.0368660" lon="-2.3915700">
        <ele>395.2</ele>
        <time>2019-10-18T15:18:58Z</time>
      </trkpt>
      <trkpt lat="37.0368660" lon="-2.3915710">
        <ele>395.2</ele>
        <time>2019-10-18T15:18:59Z</time>
      </trkpt>
      <trkpt lat="37.0368660" lon="-2.3915710">
        <ele>395.2</ele>
        <time>2019-10-18T15:19:00Z</time>
      </trkpt>
      <trkpt lat="37.0368660" lon="-2.3915710">
        <ele>395.2</ele>
        <time>2019-10-18T15:19:01Z</time>
      </trkpt>
      <trkpt lat="37.0368660" lon="-2.3915720">
        <ele>395.2</ele>
        <time>2019-10-18T15:19:02Z</time>
      </trkpt>
      <trkpt lat="37.0368660" lon="-2.3915720">
        <ele>395.2</ele>
        <time>2019-10-18T15:19:03Z</time>
      </trkpt>
      <trkpt lat="37.0368650" lon="-2.3915720">
        <ele>395.2</ele>
        <time>2019-10-18T15:19:04Z</time>
      </trkpt>
      <trkpt lat="37.0368650" lon="-2.3915720">
        <ele>395.2</ele>
        <time>2019-10-18T15:19:05Z</time>
      </trkpt>
      <trkpt lat="37.0368640" lon="-2.3915720">
        <ele>395.2</ele>
        <time>2019-10-18T15:19:06Z</time>
      </trkpt>
      <trkpt lat="37.0368640" lon="-2.3915720">
        <ele>395.2</ele>
        <time>2019-10-18T15:19:07Z</time>
      </trkpt>
      <trkpt lat="37.0368640" lon="-2.3915720">
        <ele>395.2</ele>
        <time>2019-10-18T15:19:08Z</time>
      </trkpt>
      <trkpt lat="37.0368630" lon="-2.3915710">
        <ele>395.2</ele>
        <time>2019-10-18T15:19:09Z</time>
      </trkpt>
      <trkpt lat="37.0368630" lon="-2.3915710">
        <ele>395.2</ele>
        <time>2019-10-18T15:19:10Z</time>
      </trkpt>
      <trkpt lat="37.0368620" lon="-2.3915710">
        <ele>395.2</ele>
        <time>2019-10-18T15:19:11Z</time>
      </trkpt>
      <trkpt lat="37.0368610" lon="-2.3915710">
        <ele>395.2</ele>
        <time>2019-10-18T15:19:12Z</time>
      </trkpt>
      <trkpt lat="37.0368610" lon="-2.3915710">
        <ele>395.2</ele>
        <time>2019-10-18T15:19:13Z</time>
      </trkpt>
      <trkpt lat="37.0368600" lon="-2.3915710">
        <ele>395.2</ele>
        <time>2019-10-18T15:19:14Z</time>
      </trkpt>
      <trkpt lat="37.0368600" lon="-2.3915710">
        <ele>395.2</ele>
        <time>2019-10-18T15:19:15Z</time>
      </trkpt>
      <trkpt lat="37.0368590" lon="-2.3915710">
        <ele>395.2</ele>
        <time>2019-10-18T15:19:16Z</time>
      </trkpt>
      <trkpt lat="37.0368590" lon="-2.3915710">
        <ele>395.2</ele>
        <time>2019-10-18T15:19:17Z</time>
      </trkpt>
      <trkpt lat="37.0368590" lon="-2.3915720">
        <ele>395.2</ele>
        <time>2019-10-18T15:19:18Z</time>
      </trkpt>
      <trkpt lat="37.0368580" lon="-2.3915720">
        <ele>395.2</ele>
        <time>2019-10-18T15:19:19Z</time>
      </trkpt>
      <trkpt lat="37.0368580" lon="-2.3915730">
        <ele>395.2</ele>
        <time>2019-10-18T15:19:20Z</time>
      </trkpt>
      <trkpt lat="37.0368570" lon="-2.3915730">
        <ele>395.2</ele>
        <time>2019-10-18T15:19:21Z</time>
      </trkpt>
      <trkpt lat="37.0368570" lon="-2.3915730">
        <ele>395.2</ele>
        <time>2019-10-18T15:19:22Z</time>
      </trkpt>
      <trkpt lat="37.0368560" lon="-2.3915740">
        <ele>395.2</ele>
        <time>2019-10-18T15:19:23Z</time>
      </trkpt>
      <trkpt lat="37.0368560" lon="-2.3915740">
        <ele>395.2</ele>
        <time>2019-10-18T15:19:24Z</time>
      </trkpt>
      <trkpt lat="37.0368550" lon="-2.3915740">
        <ele>395.2</ele>
        <time>2019-10-18T15:19:25Z</time>
      </trkpt>
      <trkpt lat="37.0368550" lon="-2.3915740">
        <ele>395.2</ele>
        <time>2019-10-18T15:19:26Z</time>
      </trkpt>
      <trkpt lat="37.0368540" lon="-2.3915740">
        <ele>395.2</ele>
        <time>2019-10-18T15:19:27Z</time>
      </trkpt>
      <trkpt lat="37.0368540" lon="-2.3915740">
        <ele>395.2</ele>
        <time>2019-10-18T15:19:28Z</time>
      </trkpt>
      <trkpt lat="37.0368540" lon="-2.3915730">
        <ele>395.2</ele>
        <time>2019-10-18T15:19:29Z</time>
      </trkpt>
      <trkpt lat="37.0368540" lon="-2.3915730">
        <ele>395.2</ele>
        <time>2019-10-18T15:19:30Z</time>
      </trkpt>
      <trkpt lat="37.0368540" lon="-2.3915730">
        <ele>395.2</ele>
        <time>2019-10-18T15:19:31Z</time>
      </trkpt>
      <trkpt lat="37.0368540" lon="-2.3915730">
        <ele>395.2</ele>
        <time>2019-10-18T15:19:32Z</time>
      </trkpt>
      <trkpt lat="37.0368540" lon="-2.3915730">
        <ele>395.2</ele>
        <time>2019-10-18T15:19:33Z</time>
      </trkpt>
      <trkpt lat="37.0368540" lon="-2.3915730">
        <ele>395.2</ele>
        <time>2019-10-18T15:19:34Z</time>
      </trkpt>
      <trkpt lat="37.0368530" lon="-2.3915730">
        <ele>395.2</ele>
        <time>2019-10-18T15:19:35Z</time>
      </trkpt>
      <trkpt lat="37.0368530" lon="-2.3915740">
        <ele>395.2</ele>
        <time>2019-10-18T15:19:36Z</time>
      </trkpt>
      <trkpt lat="37.0368530" lon="-2.3915740">
        <ele>395.2</ele>
        <time>2019-10-18T15:19:37Z</time>
      </trkpt>
      <trkpt lat="37.0368530" lon="-2.3915740">
        <ele>395.2</ele>
        <time>2019-10-18T15:19:38Z</time>
      </trkpt>
      <trkpt lat="37.0368530" lon="-2.3915740">
        <ele>395.2</ele>
        <time>2019-10-18T15:19:39Z</time>
      </trkpt>
      <trkpt lat="37.0368530" lon="-2.3915740">
        <ele>395.2</ele>
        <time>2019-10-18T15:19:40Z</time>
      </trkpt>
      <trkpt lat="37.0368530" lon="-2.3915740">
        <ele>395.2</ele>
        <time>2019-10-18T15:19:41Z</time>
      </trkpt>
      <trkpt lat="37.0368540" lon="-2.3915740">
        <ele>395.2</ele>
        <time>2019-10-18T15:19:42Z</time>
      </trkpt>
      <trkpt lat="37.0368540" lon="-2.3915740">
        <ele>395.2</ele>
        <time>2019-10-18T15:19:43Z</time>
      </trkpt>
      <trkpt lat="37.0368540" lon="-2.3915740">
        <ele>395.2</ele>
        <time>2019-10-18T15:19:44Z</time>
      </trkpt>
      <trkpt lat="37.0368540" lon="-2.3915740">
        <ele>395.2</ele>
        <time>2019-10-18T15:19:45Z</time>
      </trkpt>
      <trkpt lat="37.0368540" lon="-2.3915740">
        <ele>395.2</ele>
        <time>2019-10-18T15:19:46Z</time>
      </trkpt>
      <trkpt lat="37.0368540" lon="-2.3915740">
        <ele>395.2</ele>
        <time>2019-10-18T15:19:47Z</time>
      </trkpt>
      <trkpt lat="37.0368540" lon="-2.3915740">
        <ele>395.2</ele>
        <time>2019-10-18T15:19:48Z</time>
      </trkpt>
      <trkpt lat="37.0368540" lon="-2.3915740">
        <ele>395.2</ele>
        <time>2019-10-18T15:19:49Z</time>
      </trkpt>
      <trkpt lat="37.0368540" lon="-2.3915740">
        <ele>395.2</ele>
        <time>2019-10-18T15:19:50Z</time>
      </trkpt>
      <trkpt lat="37.0368540" lon="-2.3915740">
        <ele>395.2</ele>
        <time>2019-10-18T15:19:51Z</time>
      </trkpt>
      <trkpt lat="37.0368540" lon="-2.3915730">
        <ele>395.2</ele>
        <time>2019-10-18T15:19:52Z</time>
      </trkpt>
      <trkpt lat="37.0368540" lon="-2.3915730">
        <ele>395.2</ele>
        <time>2019-10-18T15:19:53Z</time>
      </trkpt>
      <trkpt lat="37.0368540" lon="-2.3915730">
        <ele>395.2</ele>
        <time>2019-10-18T15:19:54Z</time>
      </trkpt>
      <trkpt lat="37.0368540" lon="-2.3915730">
        <ele>395.2</ele>
        <time>2019-10-18T15:19:55Z</time>
      </trkpt>
      <trkpt lat="37.0368540" lon="-2.3915720">
        <ele>395.2</ele>
        <time>2019-10-18T15:19:56Z</time>
      </trkpt>
      <trkpt lat="37.0368540" lon="-2.3915720">
        <ele>395.2</ele>
        <time>2019-10-18T15:19:57Z</time>
      </trkpt>
      <trkpt lat="37.0368540" lon="-2.3915720">
        <ele>395.2</ele>
        <time>2019-10-18T15:19:58Z</time>
      </trkpt>
      <trkpt lat="37.0368540" lon="-2.3915720">
        <ele>395.2</ele>
        <time>2019-10-18T15:19:59Z</time>
      </trkpt>
      <trkpt lat="37.0368540" lon="-2.3915720">
        <ele>395.2</ele>
        <time>2019-10-18T15:20:00Z</time>
      </trkpt>
      <trkpt lat="37.0368540" lon="-2.3915720">
        <ele>395.2</ele>
        <time>2019-10-18T15:20:01Z</time>
      </trkpt>
      <trkpt lat="37.0368550" lon="-2.3915710">
        <ele>395.2</ele>
        <time>2019-10-18T15:20:02Z</time>
      </trkpt>
      <trkpt lat="37.0368560" lon="-2.3915700">
        <ele>395.2</ele>
        <time>2019-10-18T15:20:03Z</time>
      </trkpt>
      <trkpt lat="37.0368570" lon="-2.3915680">
        <ele>395.2</ele>
        <time>2019-10-18T15:20:04Z</time>
      </trkpt>
      <trkpt lat="37.0368570" lon="-2.3915670">
        <ele>395.2</ele>
        <time>2019-10-18T15:20:05Z</time>
      </trkpt>
      <trkpt lat="37.0368580" lon="-2.3915670">
        <ele>395.2</ele>
        <time>2019-10-18T15:20:06Z</time>
      </trkpt>
      <trkpt lat="37.0368580" lon="-2.3915670">
        <ele>395.2</ele>
        <time>2019-10-18T15:20:07Z</time>
      </trkpt>
      <trkpt lat="37.0368590" lon="-2.3915670">
        <ele>395.2</ele>
        <time>2019-10-18T15:20:08Z</time>
      </trkpt>
      <trkpt lat="37.0368600" lon="-2.3915670">
        <ele>395.2</ele>
        <time>2019-10-18T15:20:09Z</time>
      </trkpt>
      <trkpt lat="37.0368600" lon="-2.3915680">
        <ele>395.2</ele>
        <time>2019-10-18T15:20:10Z</time>
      </trkpt>
      <trkpt lat="37.0368610" lon="-2.3915680">
        <ele>395.2</ele>
        <time>2019-10-18T15:20:11Z</time>
      </trkpt>
      <trkpt lat="37.0368620" lon="-2.3915670">
        <ele>395.2</ele>
        <time>2019-10-18T15:20:12Z</time>
      </trkpt>
      <trkpt lat="37.0368620" lon="-2.3915670">
        <ele>395.2</ele>
        <time>2019-10-18T15:20:13Z</time>
      </trkpt>
      <trkpt lat="37.0368630" lon="-2.3915670">
        <ele>395.2</ele>
        <time>2019-10-18T15:20:14Z</time>
      </trkpt>
      <trkpt lat="37.0368630" lon="-2.3915670">
        <ele>395.2</ele>
        <time>2019-10-18T15:20:15Z</time>
      </trkpt>
      <trkpt lat="37.0368630" lon="-2.3915680">
        <ele>395.2</ele>
        <time>2019-10-18T15:20:16Z</time>
      </trkpt>
      <trkpt lat="37.0368640" lon="-2.3915690">
        <ele>395.2</ele>
        <time>2019-10-18T15:20:17Z</time>
      </trkpt>
      <trkpt lat="37.0368640" lon="-2.3915700">
        <ele>395.2</ele>
        <time>2019-10-18T15:20:18Z</time>
      </trkpt>
      <trkpt lat="37.0368650" lon="-2.3915720">
        <ele>395.2</ele>
        <time>2019-10-18T15:20:19Z</time>
      </trkpt>
      <trkpt lat="37.0368650" lon="-2.3915720">
        <ele>395.2</ele>
        <time>2019-10-18T15:20:20Z</time>
      </trkpt>
      <trkpt lat="37.0368650" lon="-2.3915730">
        <ele>395.2</ele>
        <time>2019-10-18T15:20:21Z</time>
      </trkpt>
      <trkpt lat="37.0368650" lon="-2.3915730">
        <ele>395.2</ele>
        <time>2019-10-18T15:20:22Z</time>
      </trkpt>
      <trkpt lat="37.0368650" lon="-2.3915730">
        <ele>395.2</ele>
        <time>2019-10-18T15:20:23Z</time>
      </trkpt>
      <trkpt lat="37.0368650" lon="-2.3915730">
        <ele>395.2</ele>
        <time>2019-10-18T15:20:24Z</time>
      </trkpt>
      <trkpt lat="37.0368640" lon="-2.3915730">
        <ele>395.2</ele>
        <time>2019-10-18T15:20:25Z</time>
      </trkpt>
      <trkpt lat="37.0368640" lon="-2.3915740">
        <ele>395.2</ele>
        <time>2019-10-18T15:20:26Z</time>
      </trkpt>
      <trkpt lat="37.0368640" lon="-2.3915740">
        <ele>395.2</ele>
        <time>2019-10-18T15:20:27Z</time>
      </trkpt>
      <trkpt lat="37.0368640" lon="-2.3915740">
        <ele>395.2</ele>
        <time>2019-10-18T15:20:28Z</time>
      </trkpt>
      <trkpt lat="37.0368640" lon="-2.3915740">
        <ele>395.2</ele>
        <time>2019-10-18T15:20:29Z</time>
      </trkpt>
      <trkpt lat="37.0368640" lon="-2.3915740">
        <ele>395.2</ele>
        <time>2019-10-18T15:20:30Z</time>
      </trkpt>
      <trkpt lat="37.0368630" lon="-2.3915740">
        <ele>395.2</ele>
        <time>2019-10-18T15:20:31Z</time>
      </trkpt>
      <trkpt lat="37.0368630" lon="-2.3915750">
        <ele>395.2</ele>
        <time>2019-10-18T15:20:32Z</time>
      </trkpt>
      <trkpt lat="37.0368630" lon="-2.3915750">
        <ele>395.2</ele>
        <time>2019-10-18T15:20:33Z</time>
      </trkpt>
      <trkpt lat="37.0368630" lon="-2.3915750">
        <ele>395.2</ele>
        <time>2019-10-18T15:20:34Z</time>
      </trkpt>
      <trkpt lat="37.0368620" lon="-2.3915750">
        <ele>395.2</ele>
        <time>2019-10-18T15:20:35Z</time>
      </trkpt>
      <trkpt lat="37.0368620" lon="-2.3915760">
        <ele>395.2</ele>
        <time>2019-10-18T15:20:36Z</time>
      </trkpt>
      <trkpt lat="37.0368620" lon="-2.3915760">
        <ele>395.2</ele>
        <time>2019-10-18T15:20:37Z</time>
      </trkpt>
      <trkpt lat="37.0368620" lon="-2.3915760">
        <ele>395.2</ele>
        <time>2019-10-18T15:20:38Z</time>
      </trkpt>
      <trkpt lat="37.0368620" lon="-2.3915760">
        <ele>395.2</ele>
        <time>2019-10-18T15:20:39Z</time>
      </trkpt>
      <trkpt lat="37.0368620" lon="-2.3915760">
        <ele>395.2</ele>
        <time>2019-10-18T15:20:40Z</time>
      </trkpt>
      <trkpt lat="37.0368630" lon="-2.3915750">
        <ele>395.2</ele>
        <time>2019-10-18T15:20:41Z</time>
      </trkpt>
      <trkpt lat="37.0368630" lon="-2.3915750">
        <ele>395.2</ele>
        <time>2019-10-18T15:20:42Z</time>
      </trkpt>
      <trkpt lat="37.0368640" lon="-2.3915750">
        <ele>395.2</ele>
        <time>2019-10-18T15:20:43Z</time>
      </trkpt>
      <trkpt lat="37.0368650" lon="-2.3915740">
        <ele>395.2</ele>
        <time>2019-10-18T15:20:44Z</time>
      </trkpt>
      <trkpt lat="37.0368660" lon="-2.3915740">
        <ele>395.2</ele>
        <time>2019-10-18T15:20:45Z</time>
      </trkpt>
      <trkpt lat="37.0368670" lon="-2.3915740">
        <ele>395.2</ele>
        <time>2019-10-18T15:20:46Z</time>
      </trkpt>
      <trkpt lat="37.0368670" lon="-2.3915740">
        <ele>395.2</ele>
        <time>2019-10-18T15:20:47Z</time>
      </trkpt>
      <trkpt lat="37.0368670" lon="-2.3915730">
        <ele>395.2</ele>
        <time>2019-10-18T15:20:48Z</time>
      </trkpt>
      <trkpt lat="37.0368680" lon="-2.3915730">
        <ele>395.2</ele>
        <time>2019-10-18T15:20:49Z</time>
      </trkpt>
      <trkpt lat="37.0368680" lon="-2.3915730">
        <ele>395.2</ele>
        <time>2019-10-18T15:20:50Z</time>
      </trkpt>
      <trkpt lat="37.0368680" lon="-2.3915730">
        <ele>395.2</ele>
        <time>2019-10-18T15:20:51Z</time>
      </trkpt>
      <trkpt lat="37.0368680" lon="-2.3915730">
        <ele>395.2</ele>
        <time>2019-10-18T15:20:52Z</time>
      </trkpt>
      <trkpt lat="37.0368680" lon="-2.3915730">
        <ele>395.2</ele>
        <time>2019-10-18T15:20:53Z</time>
      </trkpt>
      <trkpt lat="37.0368680" lon="-2.3915730">
        <ele>395.2</ele>
        <time>2019-10-18T15:20:54Z</time>
      </trkpt>
      <trkpt lat="37.0368680" lon="-2.3915730">
        <ele>395.2</ele>
        <time>2019-10-18T15:20:55Z</time>
      </trkpt>
      <trkpt lat="37.0368680" lon="-2.3915730">
        <ele>395.2</ele>
        <time>2019-10-18T15:20:56Z</time>
      </trkpt>
      <trkpt lat="37.0368680" lon="-2.3915730">
        <ele>395.2</ele>
        <time>2019-10-18T15:20:57Z</time>
      </trkpt>
      <trkpt lat="37.0368680" lon="-2.3915730">
        <ele>395.2</ele>
        <time>2019-10-18T15:20:58Z</time>
      </trkpt>
      <trkpt lat="37.0368680" lon="-2.3915730">
        <ele>395.2</ele>
        <time>2019-10-18T15:20:59Z</time>
      </trkpt>
      <trkpt lat="37.0368680" lon="-2.3915730">
        <ele>395.2</ele>
        <time>2019-10-18T15:21:00Z</time>
      </trkpt>
      <trkpt lat="37.0368680" lon="-2.3915730">
        <ele>395.2</ele>
        <time>2019-10-18T15:21:01Z</time>
      </trkpt>
      <trkpt lat="37.0368690" lon="-2.3915730">
        <ele>395.2</ele>
        <time>2019-10-18T15:21:02Z</time>
      </trkpt>
      <trkpt lat="37.0368690" lon="-2.3915730">
        <ele>395.2</ele>
        <time>2019-10-18T15:21:03Z</time>
      </trkpt>
      <trkpt lat="37.0368690" lon="-2.3915730">
        <ele>395.2</ele>
        <time>2019-10-18T15:21:04Z</time>
      </trkpt>
      <trkpt lat="37.0368690" lon="-2.3915730">
        <ele>395.2</ele>
        <time>2019-10-18T15:21:05Z</time>
      </trkpt>
      <trkpt lat="37.0368680" lon="-2.3915730">
        <ele>395.2</ele>
        <time>2019-10-18T15:21:06Z</time>
      </trkpt>
      <trkpt lat="37.0368680" lon="-2.3915730">
        <ele>395.2</ele>
        <time>2019-10-18T15:21:07Z</time>
      </trkpt>
      <trkpt lat="37.0368680" lon="-2.3915730">
        <ele>395.2</ele>
        <time>2019-10-18T15:21:08Z</time>
      </trkpt>
      <trkpt lat="37.0368680" lon="-2.3915730">
        <ele>395.2</ele>
        <time>2019-10-18T15:21:09Z</time>
      </trkpt>
      <trkpt lat="37.0368670" lon="-2.3915720">
        <ele>395.2</ele>
        <time>2019-10-18T15:21:10Z</time>
      </trkpt>
      <trkpt lat="37.0368670" lon="-2.3915720">
        <ele>395.2</ele>
        <time>2019-10-18T15:21:11Z</time>
      </trkpt>
      <trkpt lat="37.0368670" lon="-2.3915720">
        <ele>395.2</ele>
        <time>2019-10-18T15:21:12Z</time>
      </trkpt>
      <trkpt lat="37.0368670" lon="-2.3915720">
        <ele>395.2</ele>
        <time>2019-10-18T15:21:13Z</time>
      </trkpt>
      <trkpt lat="37.0368660" lon="-2.3915720">
        <ele>395.2</ele>
        <time>2019-10-18T15:21:14Z</time>
      </trkpt>
      <trkpt lat="37.0368660" lon="-2.3915710">
        <ele>395.2</ele>
        <time>2019-10-18T15:21:15Z</time>
      </trkpt>
      <trkpt lat="37.0368660" lon="-2.3915710">
        <ele>395.2</ele>
        <time>2019-10-18T15:21:16Z</time>
      </trkpt>
      <trkpt lat="37.0368660" lon="-2.3915710">
        <ele>395.2</ele>
        <time>2019-10-18T15:21:17Z</time>
      </trkpt>
      <trkpt lat="37.0368650" lon="-2.3915710">
        <ele>395.2</ele>
        <time>2019-10-18T15:21:18Z</time>
      </trkpt>
      <trkpt lat="37.0368640" lon="-2.3915710">
        <ele>395.2</ele>
        <time>2019-10-18T15:21:19Z</time>
      </trkpt>
      <trkpt lat="37.0368640" lon="-2.3915710">
        <ele>395.2</ele>
        <time>2019-10-18T15:21:20Z</time>
      </trkpt>
      <trkpt lat="37.0368630" lon="-2.3915710">
        <ele>395.2</ele>
        <time>2019-10-18T15:21:21Z</time>
      </trkpt>
      <trkpt lat="37.0368630" lon="-2.3915710">
        <ele>395.2</ele>
        <time>2019-10-18T15:21:22Z</time>
      </trkpt>
      <trkpt lat="37.0368630" lon="-2.3915710">
        <ele>395.2</ele>
        <time>2019-10-18T15:21:23Z</time>
      </trkpt>
      <trkpt lat="37.0368630" lon="-2.3915710">
        <ele>395.2</ele>
        <time>2019-10-18T15:21:24Z</time>
      </trkpt>
      <trkpt lat="37.0368620" lon="-2.3915710">
        <ele>395.2</ele>
        <time>2019-10-18T15:21:25Z</time>
      </trkpt>
      <trkpt lat="37.0368620" lon="-2.3915710">
        <ele>395.2</ele>
        <time>2019-10-18T15:21:26Z</time>
      </trkpt>
      <trkpt lat="37.0368610" lon="-2.3915710">
        <ele>395.2</ele>
        <time>2019-10-18T15:21:27Z</time>
      </trkpt>
      <trkpt lat="37.0368610" lon="-2.3915710">
        <ele>395.2</ele>
        <time>2019-10-18T15:21:28Z</time>
      </trkpt>
      <trkpt lat="37.0368610" lon="-2.3915710">
        <ele>395.2</ele>
        <time>2019-10-18T15:21:29Z</time>
      </trkpt>
      <trkpt lat="37.0368600" lon="-2.3915710">
        <ele>395.2</ele>
        <time>2019-10-18T15:21:30Z</time>
      </trkpt>
      <trkpt lat="37.0368590" lon="-2.3915720">
        <ele>395.2</ele>
        <time>2019-10-18T15:21:31Z</time>
      </trkpt>
      <trkpt lat="37.0368590" lon="-2.3915710">
        <ele>395.2</ele>
        <time>2019-10-18T15:21:32Z</time>
      </trkpt>
      <trkpt lat="37.0368590" lon="-2.3915710">
        <ele>395.2</ele>
        <time>2019-10-18T15:21:33Z</time>
      </trkpt>
      <trkpt lat="37.0368590" lon="-2.3915710">
        <ele>395.2</ele>
        <time>2019-10-18T15:21:34Z</time>
      </trkpt>
      <trkpt lat="37.0368590" lon="-2.3915710">
        <ele>395.2</ele>
        <time>2019-10-18T15:21:35Z</time>
      </trkpt>
      <trkpt lat="37.0368590" lon="-2.3915710">
        <ele>395.2</ele>
        <time>2019-10-18T15:21:36Z</time>
      </trkpt>
      <trkpt lat="37.0368590" lon="-2.3915710">
        <ele>395.2</ele>
        <time>2019-10-18T15:21:37Z</time>
      </trkpt>
      <trkpt lat="37.0368590" lon="-2.3915710">
        <ele>395.2</ele>
        <time>2019-10-18T15:21:38Z</time>
      </trkpt>
      <trkpt lat="37.0368580" lon="-2.3915720">
        <ele>395.2</ele>
        <time>2019-10-18T15:21:39Z</time>
      </trkpt>
      <trkpt lat="37.0368580" lon="-2.3915720">
        <ele>395.2</ele>
        <time>2019-10-18T15:21:40Z</time>
      </trkpt>
      <trkpt lat="37.0368570" lon="-2.3915730">
        <ele>395.2</ele>
        <time>2019-10-18T15:21:41Z</time>
      </trkpt>
      <trkpt lat="37.0368570" lon="-2.3915730">
        <ele>395.2</ele>
        <time>2019-10-18T15:21:42Z</time>
      </trkpt>
      <trkpt lat="37.0368570" lon="-2.3915730">
        <ele>395.2</ele>
        <time>2019-10-18T15:21:43Z</time>
      </trkpt>
      <trkpt lat="37.0368570" lon="-2.3915730">
        <ele>395.2</ele>
        <time>2019-10-18T15:21:44Z</time>
      </trkpt>
      <trkpt lat="37.0368580" lon="-2.3915720">
        <ele>395.2</ele>
        <time>2019-10-18T15:21:45Z</time>
      </trkpt>
      <trkpt lat="37.0368580" lon="-2.3915720">
        <ele>395.2</ele>
        <time>2019-10-18T15:21:46Z</time>
      </trkpt>
      <trkpt lat="37.0368580" lon="-2.3915720">
        <ele>395.2</ele>
        <time>2019-10-18T15:21:47Z</time>
      </trkpt>
      <trkpt lat="37.0368590" lon="-2.3915720">
        <ele>395.2</ele>
        <time>2019-10-18T15:21:48Z</time>
      </trkpt>
      <trkpt lat="37.0368590" lon="-2.3915710">
        <ele>395.2</ele>
        <time>2019-10-18T15:21:49Z</time>
      </trkpt>
      <trkpt lat="37.0368590" lon="-2.3915710">
        <ele>395.2</ele>
        <time>2019-10-18T15:21:50Z</time>
      </trkpt>
      <trkpt lat="37.0368590" lon="-2.3915710">
        <ele>395.2</ele>
        <time>2019-10-18T15:21:51Z</time>
      </trkpt>
      <trkpt lat="37.0368590" lon="-2.3915710">
        <ele>395.2</ele>
        <time>2019-10-18T15:21:52Z</time>
      </trkpt>
      <trkpt lat="37.0368580" lon="-2.3915710">
        <ele>395.2</ele>
        <time>2019-10-18T15:21:53Z</time>
      </trkpt>
      <trkpt lat="37.0368580" lon="-2.3915710">
        <ele>395.2</ele>
        <time>2019-10-18T15:21:54Z</time>
      </trkpt>
      <trkpt lat="37.0368580" lon="-2.3915710">
        <ele>395.2</ele>
        <time>2019-10-18T15:21:55Z</time>
      </trkpt>
      <trkpt lat="37.0368580" lon="-2.3915720">
        <ele>395.2</ele>
        <time>2019-10-18T15:21:56Z</time>
      </trkpt>
      <trkpt lat="37.0368590" lon="-2.3915720">
        <ele>395.2</ele>
        <time>2019-10-18T15:21:57Z</time>
      </trkpt>
      <trkpt lat="37.0368600" lon="-2.3915720">
        <ele>395.2</ele>
        <time>2019-10-18T15:21:58Z</time>
      </trkpt>
      <trkpt lat="37.0368600" lon="-2.3915720">
        <ele>395.2</ele>
        <time>2019-10-18T15:21:59Z</time>
      </trkpt>
      <trkpt lat="37.0368610" lon="-2.3915720">
        <ele>395.2</ele>
        <time>2019-10-18T15:22:00Z</time>
      </trkpt>
      <trkpt lat="37.0368610" lon="-2.3915720">
        <ele>395.2</ele>
        <time>2019-10-18T15:22:01Z</time>
      </trkpt>
      <trkpt lat="37.0368620" lon="-2.3915720">
        <ele>395.2</ele>
        <time>2019-10-18T15:22:02Z</time>
      </trkpt>
      <trkpt lat="37.0368620" lon="-2.3915720">
        <ele>395.2</ele>
        <time>2019-10-18T15:22:03Z</time>
      </trkpt>
      <trkpt lat="37.0368630" lon="-2.3915720">
        <ele>395.2</ele>
        <time>2019-10-18T15:22:04Z</time>
      </trkpt>
      <trkpt lat="37.0368630" lon="-2.3915720">
        <ele>395.2</ele>
        <time>2019-10-18T15:22:05Z</time>
      </trkpt>
      <trkpt lat="37.0368640" lon="-2.3915720">
        <ele>395.2</ele>
        <time>2019-10-18T15:22:06Z</time>
      </trkpt>
      <trkpt lat="37.0368650" lon="-2.3915720">
        <ele>395.2</ele>
        <time>2019-10-18T15:22:07Z</time>
      </trkpt>
      <trkpt lat="37.0368650" lon="-2.3915720">
        <ele>395.2</ele>
        <time>2019-10-18T15:22:08Z</time>
      </trkpt>
      <trkpt lat="37.0368660" lon="-2.3915720">
        <ele>395.2</ele>
        <time>2019-10-18T15:22:09Z</time>
      </trkpt>
      <trkpt lat="37.0368670" lon="-2.3915720">
        <ele>395.2</ele>
        <time>2019-10-18T15:22:10Z</time>
      </trkpt>
      <trkpt lat="37.0368670" lon="-2.3915720">
        <ele>395.2</ele>
        <time>2019-10-18T15:22:11Z</time>
      </trkpt>
      <trkpt lat="37.0368680" lon="-2.3915720">
        <ele>395.2</ele>
        <time>2019-10-18T15:22:12Z</time>
      </trkpt>
      <trkpt lat="37.0368680" lon="-2.3915710">
        <ele>395.2</ele>
        <time>2019-10-18T15:22:13Z</time>
      </trkpt>
      <trkpt lat="37.0368680" lon="-2.3915700">
        <ele>395.2</ele>
        <time>2019-10-18T15:22:14Z</time>
      </trkpt>
      <trkpt lat="37.0368680" lon="-2.3915690">
        <ele>395.2</ele>
        <time>2019-10-18T15:22:15Z</time>
      </trkpt>
      <trkpt lat="37.0368680" lon="-2.3915690">
        <ele>395.2</ele>
        <time>2019-10-18T15:22:16Z</time>
      </trkpt>
      <trkpt lat="37.0368680" lon="-2.3915700">
        <ele>395.2</ele>
        <time>2019-10-18T15:22:17Z</time>
      </trkpt>
      <trkpt lat="37.0368680" lon="-2.3915700">
        <ele>395.2</ele>
        <time>2019-10-18T15:22:18Z</time>
      </trkpt>
      <trkpt lat="37.0368680" lon="-2.3915700">
        <ele>395.2</ele>
        <time>2019-10-18T15:22:19Z</time>
      </trkpt>
      <trkpt lat="37.0368680" lon="-2.3915710">
        <ele>395.2</ele>
        <time>2019-10-18T15:22:20Z</time>
      </trkpt>
      <trkpt lat="37.0368680" lon="-2.3915710">
        <ele>395.2</ele>
        <time>2019-10-18T15:22:21Z</time>
      </trkpt>
      <trkpt lat="37.0368680" lon="-2.3915710">
        <ele>395.2</ele>
        <time>2019-10-18T15:22:22Z</time>
      </trkpt>
      <trkpt lat="37.0368680" lon="-2.3915720">
        <ele>395.2</ele>
        <time>2019-10-18T15:22:23Z</time>
      </trkpt>
      <trkpt lat="37.0368680" lon="-2.3915730">
        <ele>395.2</ele>
        <time>2019-10-18T15:22:24Z</time>
      </trkpt>
      <trkpt lat="37.0368680" lon="-2.3915730">
        <ele>395.2</ele>
        <time>2019-10-18T15:22:25Z</time>
      </trkpt>
      <trkpt lat="37.0368690" lon="-2.3915730">
        <ele>395.2</ele>
        <time>2019-10-18T15:22:26Z</time>
      </trkpt>
      <trkpt lat="37.0368690" lon="-2.3915730">
        <ele>395.2</ele>
        <time>2019-10-18T15:22:27Z</time>
      </trkpt>
      <trkpt lat="37.0368690" lon="-2.3915720">
        <ele>395.2</ele>
        <time>2019-10-18T15:22:28Z</time>
      </trkpt>
      <trkpt lat="37.0368700" lon="-2.3915720">
        <ele>395.2</ele>
        <time>2019-10-18T15:22:29Z</time>
      </trkpt>
      <trkpt lat="37.0368700" lon="-2.3915720">
        <ele>395.2</ele>
        <time>2019-10-18T15:22:30Z</time>
      </trkpt>
      <trkpt lat="37.0368680" lon="-2.3915720">
        <ele>395.2</ele>
        <time>2019-10-18T15:22:31Z</time>
      </trkpt>
      <trkpt lat="37.0368660" lon="-2.3915700">
        <ele>395.2</ele>
        <time>2019-10-18T15:22:32Z</time>
      </trkpt>
      <trkpt lat="37.0368640" lon="-2.3915680">
        <ele>395.2</ele>
        <time>2019-10-18T15:22:33Z</time>
      </trkpt>
      <trkpt lat="37.0368640" lon="-2.3915660">
        <ele>395.2</ele>
        <time>2019-10-18T15:22:34Z</time>
      </trkpt>
      <trkpt lat="37.0368640" lon="-2.3915640">
        <ele>395.2</ele>
        <time>2019-10-18T15:22:35Z</time>
      </trkpt>
      <trkpt lat="37.0368630" lon="-2.3915620">
        <ele>395.2</ele>
        <time>2019-10-18T15:22:36Z</time>
      </trkpt>
      <trkpt lat="37.0368620" lon="-2.3915590">
        <ele>395.2</ele>
        <time>2019-10-18T15:22:37Z</time>
      </trkpt>
      <trkpt lat="37.0368600" lon="-2.3915580">
        <ele>395.2</ele>
        <time>2019-10-18T15:22:38Z</time>
      </trkpt>
      <trkpt lat="37.0368580" lon="-2.3915590">
        <ele>395.2</ele>
        <time>2019-10-18T15:22:39Z</time>
      </trkpt>
      <trkpt lat="37.0368550" lon="-2.3915610">
        <ele>395.2</ele>
        <time>2019-10-18T15:22:40Z</time>
      </trkpt>
      <trkpt lat="37.0368540" lon="-2.3915610">
        <ele>395.2</ele>
        <time>2019-10-18T15:22:41Z</time>
      </trkpt>
      <trkpt lat="37.0368530" lon="-2.3915620">
        <ele>395.2</ele>
        <time>2019-10-18T15:22:42Z</time>
      </trkpt>
      <trkpt lat="37.0368520" lon="-2.3915600">
        <ele>395.2</ele>
        <time>2019-10-18T15:22:43Z</time>
      </trkpt>
      <trkpt lat="37.0368520" lon="-2.3915580">
        <ele>395.2</ele>
        <time>2019-10-18T15:22:44Z</time>
      </trkpt>
      <trkpt lat="37.0368520" lon="-2.3915560">
        <ele>395.2</ele>
        <time>2019-10-18T15:22:45Z</time>
      </trkpt>
      <trkpt lat="37.0368510" lon="-2.3915560">
        <ele>395.2</ele>
        <time>2019-10-18T15:22:46Z</time>
      </trkpt>
      <trkpt lat="37.0368500" lon="-2.3915550">
        <ele>395.2</ele>
        <time>2019-10-18T15:22:47Z</time>
      </trkpt>
      <trkpt lat="37.0368480" lon="-2.3915540">
        <ele>395.2</ele>
        <time>2019-10-18T15:22:48Z</time>
      </trkpt>
      <trkpt lat="37.0368470" lon="-2.3915530">
        <ele>395.2</ele>
        <time>2019-10-18T15:22:49Z</time>
      </trkpt>
      <trkpt lat="37.0368470" lon="-2.3915530">
        <ele>395.2</ele>
        <time>2019-10-18T15:22:50Z</time>
      </trkpt>
      <trkpt lat="37.0368470" lon="-2.3915540">
        <ele>395.2</ele>
        <time>2019-10-18T15:22:51Z</time>
      </trkpt>
      <trkpt lat="37.0368470" lon="-2.3915540">
        <ele>395.2</ele>
        <time>2019-10-18T15:22:52Z</time>
      </trkpt>
      <trkpt lat="37.0368470" lon="-2.3915540">
        <ele>395.2</ele>
        <time>2019-10-18T15:22:53Z</time>
      </trkpt>
      <trkpt lat="37.0368460" lon="-2.3915550">
        <ele>395.2</ele>
        <time>2019-10-18T15:22:54Z</time>
      </trkpt>
      <trkpt lat="37.0368460" lon="-2.3915550">
        <ele>395.2</ele>
        <time>2019-10-18T15:22:55Z</time>
      </trkpt>
      <trkpt lat="37.0368460" lon="-2.3915550">
        <ele>395.2</ele>
        <time>2019-10-18T15:22:56Z</time>
      </trkpt>
      <trkpt lat="37.0368450" lon="-2.3915560">
        <ele>395.2</ele>
        <time>2019-10-18T15:22:57Z</time>
      </trkpt>
      <trkpt lat="37.0368450" lon="-2.3915560">
        <ele>395.2</ele>
        <time>2019-10-18T15:22:58Z</time>
      </trkpt>
      <trkpt lat="37.0368440" lon="-2.3915560">
        <ele>395.2</ele>
        <time>2019-10-18T15:22:59Z</time>
      </trkpt>
      <trkpt lat="37.0368430" lon="-2.3915560">
        <ele>395.2</ele>
        <time>2019-10-18T15:23:00Z</time>
      </trkpt>
      <trkpt lat="37.0368430" lon="-2.3915560">
        <ele>395.2</ele>
        <time>2019-10-18T15:23:01Z</time>
      </trkpt>
      <trkpt lat="37.0368440" lon="-2.3915560">
        <ele>395.2</ele>
        <time>2019-10-18T15:23:02Z</time>
      </trkpt>
      <trkpt lat="37.0368470" lon="-2.3915560">
        <ele>395.2</ele>
        <time>2019-10-18T15:23:03Z</time>
      </trkpt>
      <trkpt lat="37.0368520" lon="-2.3915570">
        <ele>395.2</ele>
        <time>2019-10-18T15:23:04Z</time>
      </trkpt>
      <trkpt lat="37.0368590" lon="-2.3915590">
        <ele>395.2</ele>
        <time>2019-10-18T15:23:05Z</time>
      </trkpt>
      <trkpt lat="37.0368660" lon="-2.3915640">
        <ele>395.2</ele>
        <time>2019-10-18T15:23:06Z</time>
      </trkpt>
      <trkpt lat="37.0368720" lon="-2.3915720">
        <ele>395.2</ele>
        <time>2019-10-18T15:23:07Z</time>
      </trkpt>
      <trkpt lat="37.0368770" lon="-2.3915800">
        <ele>395.2</ele>
        <time>2019-10-18T15:23:08Z</time>
      </trkpt>
      <trkpt lat="37.0368830" lon="-2.3915890">
        <ele>395.2</ele>
        <time>2019-10-18T15:23:09Z</time>
      </trkpt>
      <trkpt lat="37.0368920" lon="-2.3915980">
        <ele>395.2</ele>
        <time>2019-10-18T15:23:10Z</time>
      </trkpt>
      <trkpt lat="37.0369060" lon="-2.3916060">
        <ele>395.2</ele>
        <time>2019-10-18T15:23:11Z</time>
      </trkpt>
      <trkpt lat="37.0369220" lon="-2.3916110">
        <ele>395.2</ele>
        <time>2019-10-18T15:23:12Z</time>
      </trkpt>
      <trkpt lat="37.0369390" lon="-2.3916130">
        <ele>395.1</ele>
        <time>2019-10-18T15:23:13Z</time>
      </trkpt>
      <trkpt lat="37.0369580" lon="-2.3916130">
        <ele>395.1</ele>
        <time>2019-10-18T15:23:14Z</time>
      </trkpt>
      <trkpt lat="37.0369790" lon="-2.3916120">
        <ele>395.0</ele>
        <time>2019-10-18T15:23:15Z</time>
      </trkpt>
      <trkpt lat="37.0370020" lon="-2.3916100">
        <ele>395.0</ele>
        <time>2019-10-18T15:23:16Z</time>
      </trkpt>
      <trkpt lat="37.0370270" lon="-2.3916070">
        <ele>394.8</ele>
        <time>2019-10-18T15:23:17Z</time>
      </trkpt>
      <trkpt lat="37.0370520" lon="-2.3916040">
        <ele>394.7</ele>
        <time>2019-10-18T15:23:18Z</time>
      </trkpt>
      <trkpt lat="37.0370790" lon="-2.3915990">
        <ele>394.5</ele>
        <time>2019-10-18T15:23:19Z</time>
      </trkpt>
      <trkpt lat="37.0371070" lon="-2.3915940">
        <ele>394.2</ele>
        <time>2019-10-18T15:23:20Z</time>
      </trkpt>
      <trkpt lat="37.0371380" lon="-2.3915900">
        <ele>393.9</ele>
        <time>2019-10-18T15:23:21Z</time>
      </trkpt>
      <trkpt lat="37.0371700" lon="-2.3915890">
        <ele>393.5</ele>
        <time>2019-10-18T15:23:22Z</time>
      </trkpt>
      <trkpt lat="37.0372020" lon="-2.3915890">
        <ele>393.1</ele>
        <time>2019-10-18T15:23:23Z</time>
      </trkpt>
      <trkpt lat="37.0372340" lon="-2.3915910">
        <ele>392.7</ele>
        <time>2019-10-18T15:23:24Z</time>
      </trkpt>
      <trkpt lat="37.0372670" lon="-2.3915960">
        <ele>392.2</ele>
        <time>2019-10-18T15:23:25Z</time>
      </trkpt>
      <trkpt lat="37.0372990" lon="-2.3916040">
        <ele>391.7</ele>
        <time>2019-10-18T15:23:26Z</time>
      </trkpt>
      <trkpt lat="37.0373320" lon="-2.3916160">
        <ele>391.2</ele>
        <time>2019-10-18T15:23:27Z</time>
      </trkpt>
      <trkpt lat="37.0373650" lon="-2.3916300">
        <ele>390.8</ele>
        <time>2019-10-18T15:23:28Z</time>
      </trkpt>
      <trkpt lat="37.0374000" lon="-2.3916480">
        <ele>390.3</ele>
        <time>2019-10-18T15:23:29Z</time>
      </trkpt>
      <trkpt lat="37.0374340" lon="-2.3916700">
        <ele>389.8</ele>
        <time>2019-10-18T15:23:30Z</time>
      </trkpt>
      <trkpt lat="37.0374680" lon="-2.3916980">
        <ele>389.3</ele>
        <time>2019-10-18T15:23:31Z</time>
      </trkpt>
      <trkpt lat="37.0375010" lon="-2.3917300">
        <ele>388.9</ele>
        <time>2019-10-18T15:23:32Z</time>
      </trkpt>
      <trkpt lat="37.0375340" lon="-2.3917640">
        <ele>387.7</ele>
        <time>2019-10-18T15:23:33Z</time>
      </trkpt>
      <trkpt lat="37.0375670" lon="-2.3917990">
        <ele>387.8</ele>
        <time>2019-10-18T15:23:34Z</time>
      </trkpt>
      <trkpt lat="37.0375990" lon="-2.3918370">
        <ele>387.8</ele>
        <time>2019-10-18T15:23:35Z</time>
      </trkpt>
      <trkpt lat="37.0376320" lon="-2.3918760">
        <ele>387.9</ele>
        <time>2019-10-18T15:23:36Z</time>
      </trkpt>
      <trkpt lat="37.0376680" lon="-2.3919170">
        <ele>387.9</ele>
        <time>2019-10-18T15:23:37Z</time>
      </trkpt>
      <trkpt lat="37.0377070" lon="-2.3919590">
        <ele>387.9</ele>
        <time>2019-10-18T15:23:38Z</time>
      </trkpt>
      <trkpt lat="37.0377500" lon="-2.3919990">
        <ele>387.8</ele>
        <time>2019-10-18T15:23:39Z</time>
      </trkpt>
      <trkpt lat="37.0377930" lon="-2.3920360">
        <ele>387.6</ele>
        <time>2019-10-18T15:23:40Z</time>
      </trkpt>
      <trkpt lat="37.0378340" lon="-2.3920710">
        <ele>387.5</ele>
        <time>2019-10-18T15:23:41Z</time>
      </trkpt>
      <trkpt lat="37.0378750" lon="-2.3921050">
        <ele>387.3</ele>
        <time>2019-10-18T15:23:42Z</time>
      </trkpt>
      <trkpt lat="37.0379150" lon="-2.3921370">
        <ele>387.1</ele>
        <time>2019-10-18T15:23:43Z</time>
      </trkpt>
      <trkpt lat="37.0379560" lon="-2.3921670">
        <ele>386.9</ele>
        <time>2019-10-18T15:23:44Z</time>
      </trkpt>
      <trkpt lat="37.0379960" lon="-2.3921960">
        <ele>386.8</ele>
        <time>2019-10-18T15:23:45Z</time>
      </trkpt>
      <trkpt lat="37.0380370" lon="-2.3922220">
        <ele>386.6</ele>
        <time>2019-10-18T15:23:46Z</time>
      </trkpt>
      <trkpt lat="37.0380780" lon="-2.3922440">
        <ele>386.4</ele>
        <time>2019-10-18T15:23:47Z</time>
      </trkpt>
      <trkpt lat="37.0381210" lon="-2.3922610">
        <ele>386.2</ele>
        <time>2019-10-18T15:23:48Z</time>
      </trkpt>
      <trkpt lat="37.0381640" lon="-2.3922710">
        <ele>386.0</ele>
        <time>2019-10-18T15:23:49Z</time>
      </trkpt>
      <trkpt lat="37.0382070" lon="-2.3922740">
        <ele>385.9</ele>
        <time>2019-10-18T15:23:50Z</time>
      </trkpt>
      <trkpt lat="37.0382510" lon="-2.3922690">
        <ele>385.8</ele>
        <time>2019-10-18T15:23:51Z</time>
      </trkpt>
      <trkpt lat="37.0382950" lon="-2.3922600">
        <ele>385.6</ele>
        <time>2019-10-18T15:23:52Z</time>
      </trkpt>
      <trkpt lat="37.0383390" lon="-2.3922480">
        <ele>385.6</ele>
        <time>2019-10-18T15:23:53Z</time>
      </trkpt>
      <trkpt lat="37.0383800" lon="-2.3922300">
        <ele>385.6</ele>
        <time>2019-10-18T15:23:54Z</time>
      </trkpt>
      <trkpt lat="37.0384170" lon="-2.3922080">
        <ele>385.7</ele>
        <time>2019-10-18T15:23:55Z</time>
      </trkpt>
      <trkpt lat="37.0384500" lon="-2.3921840">
        <ele>385.8</ele>
        <time>2019-10-18T15:23:56Z</time>
      </trkpt>
      <trkpt lat="37.0384830" lon="-2.3921660">
        <ele>386.0</ele>
        <time>2019-10-18T15:23:57Z</time>
      </trkpt>
      <trkpt lat="37.0385130" lon="-2.3921590">
        <ele>386.1</ele>
        <time>2019-10-18T15:23:58Z</time>
      </trkpt>
      <trkpt lat="37.0385430" lon="-2.3921640">
        <ele>386.3</ele>
        <time>2019-10-18T15:23:59Z</time>
      </trkpt>
      <trkpt lat="37.0385710" lon="-2.3921790">
        <ele>386.5</ele>
        <time>2019-10-18T15:24:00Z</time>
      </trkpt>
      <trkpt lat="37.0385980" lon="-2.3922030">
        <ele>386.6</ele>
        <time>2019-10-18T15:24:01Z</time>
      </trkpt>
      <trkpt lat="37.0386220" lon="-2.3922330">
        <ele>386.8</ele>
        <time>2019-10-18T15:24:02Z</time>
      </trkpt>
      <trkpt lat="37.0386430" lon="-2.3922700">
        <ele>387.0</ele>
        <time>2019-10-18T15:24:03Z</time>
      </trkpt>
      <trkpt lat="37.0386610" lon="-2.3923160">
        <ele>387.1</ele>
        <time>2019-10-18T15:24:04Z</time>
      </trkpt>
      <trkpt lat="37.0386770" lon="-2.3923670">
        <ele>387.2</ele>
        <time>2019-10-18T15:24:05Z</time>
      </trkpt>
      <trkpt lat="37.0386880" lon="-2.3924220">
        <ele>387.4</ele>
        <time>2019-10-18T15:24:06Z</time>
      </trkpt>
      <trkpt lat="37.0386990" lon="-2.3924770">
        <ele>387.5</ele>
        <time>2019-10-18T15:24:07Z</time>
      </trkpt>
      <trkpt lat="37.0387070" lon="-2.3925290">
        <ele>387.6</ele>
        <time>2019-10-18T15:24:08Z</time>
      </trkpt>
      <trkpt lat="37.0387130" lon="-2.3925760">
        <ele>387.6</ele>
        <time>2019-10-18T15:24:09Z</time>
      </trkpt>
      <trkpt lat="37.0387170" lon="-2.3926180">
        <ele>387.6</ele>
        <time>2019-10-18T15:24:10Z</time>
      </trkpt>
      <trkpt lat="37.0387200" lon="-2.3926590">
        <ele>387.6</ele>
        <time>2019-10-18T15:24:11Z</time>
      </trkpt>
      <trkpt lat="37.0387230" lon="-2.3927020">
        <ele>387.5</ele>
        <time>2019-10-18T15:24:12Z</time>
      </trkpt>
      <trkpt lat="37.0387270" lon="-2.3927480">
        <ele>387.3</ele>
        <time>2019-10-18T15:24:13Z</time>
      </trkpt>
      <trkpt lat="37.0387310" lon="-2.3927980">
        <ele>387.1</ele>
        <time>2019-10-18T15:24:14Z</time>
      </trkpt>
      <trkpt lat="37.0387320" lon="-2.3928490">
        <ele>387.0</ele>
        <time>2019-10-18T15:24:15Z</time>
      </trkpt>
      <trkpt lat="37.0387310" lon="-2.3929020">
        <ele>386.8</ele>
        <time>2019-10-18T15:24:16Z</time>
      </trkpt>
      <trkpt lat="37.0387270" lon="-2.3929550">
        <ele>386.7</ele>
        <time>2019-10-18T15:24:17Z</time>
      </trkpt>
      <trkpt lat="37.0387230" lon="-2.3930070">
        <ele>386.6</ele>
        <time>2019-10-18T15:24:18Z</time>
      </trkpt>
      <trkpt lat="37.0387170" lon="-2.3930590">
        <ele>386.5</ele>
        <time>2019-10-18T15:24:19Z</time>
      </trkpt>
      <trkpt lat="37.0387120" lon="-2.3931100">
        <ele>386.3</ele>
        <time>2019-10-18T15:24:20Z</time>
      </trkpt>
      <trkpt lat="37.0387080" lon="-2.3931610">
        <ele>386.2</ele>
        <time>2019-10-18T15:24:21Z</time>
      </trkpt>
      <trkpt lat="37.0387030" lon="-2.3932100">
        <ele>386.1</ele>
        <time>2019-10-18T15:24:22Z</time>
      </trkpt>
      <trkpt lat="37.0386990" lon="-2.3932570">
        <ele>386.0</ele>
        <time>2019-10-18T15:24:23Z</time>
      </trkpt>
      <trkpt lat="37.0386950" lon="-2.3933040">
        <ele>385.9</ele>
        <time>2019-10-18T15:24:24Z</time>
      </trkpt>
      <trkpt lat="37.0386940" lon="-2.3933480">
        <ele>385.8</ele>
        <time>2019-10-18T15:24:25Z</time>
      </trkpt>
      <trkpt lat="37.0386940" lon="-2.3933910">
        <ele>385.7</ele>
        <time>2019-10-18T15:24:26Z</time>
      </trkpt>
      <trkpt lat="37.0386950" lon="-2.3934320">
        <ele>385.6</ele>
        <time>2019-10-18T15:24:27Z</time>
      </trkpt>
      <trkpt lat="37.0386970" lon="-2.3934710">
        <ele>385.6</ele>
        <time>2019-10-18T15:24:28Z</time>
      </trkpt>
      <trkpt lat="37.0386980" lon="-2.3935100">
        <ele>385.5</ele>
        <time>2019-10-18T15:24:29Z</time>
      </trkpt>
      <trkpt lat="37.0386970" lon="-2.3935490">
        <ele>385.4</ele>
        <time>2019-10-18T15:24:30Z</time>
      </trkpt>
      <trkpt lat="37.0386950" lon="-2.3935860">
        <ele>385.3</ele>
        <time>2019-10-18T15:24:31Z</time>
      </trkpt>
      <trkpt lat="37.0386940" lon="-2.3936230">
        <ele>385.3</ele>
        <time>2019-10-18T15:24:32Z</time>
      </trkpt>
      <trkpt lat="37.0386920" lon="-2.3936580">
        <ele>385.2</ele>
        <time>2019-10-18T15:24:33Z</time>
      </trkpt>
      <trkpt lat="37.0386900" lon="-2.3936920">
        <ele>385.1</ele>
        <time>2019-10-18T15:24:34Z</time>
      </trkpt>
      <trkpt lat="37.0386880" lon="-2.3937250">
        <ele>385.1</ele>
        <time>2019-10-18T15:24:35Z</time>
      </trkpt>
      <trkpt lat="37.0386840" lon="-2.3937580">
        <ele>385.0</ele>
        <time>2019-10-18T15:24:36Z</time>
      </trkpt>
      <trkpt lat="37.0386800" lon="-2.3937920">
        <ele>384.9</ele>
        <time>2019-10-18T15:24:37Z</time>
      </trkpt>
      <trkpt lat="37.0386760" lon="-2.3938270">
        <ele>384.8</ele>
        <time>2019-10-18T15:24:38Z</time>
      </trkpt>
      <trkpt lat="37.0386730" lon="-2.3938620">
        <ele>384.8</ele>
        <time>2019-10-18T15:24:39Z</time>
      </trkpt>
      <trkpt lat="37.0386700" lon="-2.3938980">
        <ele>384.7</ele>
        <time>2019-10-18T15:24:40Z</time>
      </trkpt>
      <trkpt lat="37.0386660" lon="-2.3939350">
        <ele>384.6</ele>
        <time>2019-10-18T15:24:41Z</time>
      </trkpt>
      <trkpt lat="37.0386610" lon="-2.3939730">
        <ele>384.5</ele>
        <time>2019-10-18T15:24:42Z</time>
      </trkpt>
      <trkpt lat="37.0386570" lon="-2.3940130">
        <ele>384.4</ele>
        <time>2019-10-18T15:24:43Z</time>
      </trkpt>
      <trkpt lat="37.0386520" lon="-2.3940530">
        <ele>384.4</ele>
        <time>2019-10-18T15:24:44Z</time>
      </trkpt>
      <trkpt lat="37.0386460" lon="-2.3940930">
        <ele>384.3</ele>
        <time>2019-10-18T15:24:45Z</time>
      </trkpt>
      <trkpt lat="37.0386400" lon="-2.3941350">
        <ele>384.2</ele>
        <time>2019-10-18T15:24:46Z</time>
      </trkpt>
      <trkpt lat="37.0386340" lon="-2.3941780">
        <ele>384.1</ele>
        <time>2019-10-18T15:24:47Z</time>
      </trkpt>
      <trkpt lat="37.0386280" lon="-2.3942220">
        <ele>384.0</ele>
        <time>2019-10-18T15:24:48Z</time>
      </trkpt>
      <trkpt lat="37.0386240" lon="-2.3942660">
        <ele>383.8</ele>
        <time>2019-10-18T15:24:49Z</time>
      </trkpt>
      <trkpt lat="37.0386230" lon="-2.3943110">
        <ele>383.7</ele>
        <time>2019-10-18T15:24:50Z</time>
      </trkpt>
      <trkpt lat="37.0386260" lon="-2.3943550">
        <ele>383.6</ele>
        <time>2019-10-18T15:24:51Z</time>
      </trkpt>
      <trkpt lat="37.0386340" lon="-2.3944000">
        <ele>383.5</ele>
        <time>2019-10-18T15:24:52Z</time>
      </trkpt>
      <trkpt lat="37.0386460" lon="-2.3944440">
        <ele>383.4</ele>
        <time>2019-10-18T15:24:53Z</time>
      </trkpt>
      <trkpt lat="37.0386620" lon="-2.3944860">
        <ele>383.3</ele>
        <time>2019-10-18T15:24:54Z</time>
      </trkpt>
      <trkpt lat="37.0386810" lon="-2.3945230">
        <ele>383.2</ele>
        <time>2019-10-18T15:24:55Z</time>
      </trkpt>
      <trkpt lat="37.0387020" lon="-2.3945600">
        <ele>383.2</ele>
        <time>2019-10-18T15:24:56Z</time>
      </trkpt>
      <trkpt lat="37.0387210" lon="-2.3945970">
        <ele>383.1</ele>
        <time>2019-10-18T15:24:57Z</time>
      </trkpt>
      <trkpt lat="37.0387360" lon="-2.3946360">
        <ele>383.0</ele>
        <time>2019-10-18T15:24:58Z</time>
      </trkpt>
      <trkpt lat="37.0387490" lon="-2.3946770">
        <ele>382.9</ele>
        <time>2019-10-18T15:24:59Z</time>
      </trkpt>
      <trkpt lat="37.0387580" lon="-2.3947200">
        <ele>382.8</ele>
        <time>2019-10-18T15:25:00Z</time>
      </trkpt>
      <trkpt lat="37.0387640" lon="-2.3947620">
        <ele>382.7</ele>
        <time>2019-10-18T15:25:01Z</time>
      </trkpt>
      <trkpt lat="37.0387660" lon="-2.3948010">
        <ele>382.6</ele>
        <time>2019-10-18T15:25:02Z</time>
      </trkpt>
      <trkpt lat="37.0387640" lon="-2.3948370">
        <ele>382.5</ele>
        <time>2019-10-18T15:25:03Z</time>
      </trkpt>
      <trkpt lat="37.0387590" lon="-2.3948720">
        <ele>382.4</ele>
        <time>2019-10-18T15:25:04Z</time>
      </trkpt>
      <trkpt lat="37.0387530" lon="-2.3949090">
        <ele>382.4</ele>
        <time>2019-10-18T15:25:05Z</time>
      </trkpt>
      <trkpt lat="37.0387460" lon="-2.3949470">
        <ele>382.3</ele>
        <time>2019-10-18T15:25:06Z</time>
      </trkpt>
      <trkpt lat="37.0387400" lon="-2.3949860">
        <ele>382.2</ele>
        <time>2019-10-18T15:25:07Z</time>
      </trkpt>
      <trkpt lat="37.0387350" lon="-2.3950240">
        <ele>382.2</ele>
        <time>2019-10-18T15:25:08Z</time>
      </trkpt>
      <trkpt lat="37.0387320" lon="-2.3950600">
        <ele>382.1</ele>
        <time>2019-10-18T15:25:09Z</time>
      </trkpt>
      <trkpt lat="37.0387330" lon="-2.3950940">
        <ele>382.1</ele>
        <time>2019-10-18T15:25:10Z</time>
      </trkpt>
      <trkpt lat="37.0387370" lon="-2.3951280">
        <ele>382.0</ele>
        <time>2019-10-18T15:25:11Z</time>
      </trkpt>
      <trkpt lat="37.0387430" lon="-2.3951630">
        <ele>382.0</ele>
        <time>2019-10-18T15:25:12Z</time>
      </trkpt>
      <trkpt lat="37.0387480" lon="-2.3952010">
        <ele>381.9</ele>
        <time>2019-10-18T15:25:13Z</time>
      </trkpt>
      <trkpt lat="37.0387520" lon="-2.3952420">
        <ele>381.8</ele>
        <time>2019-10-18T15:25:14Z</time>
      </trkpt>
      <trkpt lat="37.0387550" lon="-2.3952830">
        <ele>381.8</ele>
        <time>2019-10-18T15:25:15Z</time>
      </trkpt>
      <trkpt lat="37.0387590" lon="-2.3953240">
        <ele>381.7</ele>
        <time>2019-10-18T15:25:16Z</time>
      </trkpt>
      <trkpt lat="37.0387620" lon="-2.3953660">
        <ele>381.6</ele>
        <time>2019-10-18T15:25:17Z</time>
      </trkpt>
      <trkpt lat="37.0387660" lon="-2.3954100">
        <ele>381.5</ele>
        <time>2019-10-18T15:25:18Z</time>
      </trkpt>
      <trkpt lat="37.0387670" lon="-2.3954550">
        <ele>381.4</ele>
        <time>2019-10-18T15:25:19Z</time>
      </trkpt>
      <trkpt lat="37.0387650" lon="-2.3955010">
        <ele>381.3</ele>
        <time>2019-10-18T15:25:20Z</time>
      </trkpt>
      <trkpt lat="37.0387600" lon="-2.3955470">
        <ele>381.3</ele>
        <time>2019-10-18T15:25:21Z</time>
      </trkpt>
      <trkpt lat="37.0387520" lon="-2.3955950">
        <ele>381.2</ele>
        <time>2019-10-18T15:25:22Z</time>
      </trkpt>
      <trkpt lat="37.0387410" lon="-2.3956410">
        <ele>381.1</ele>
        <time>2019-10-18T15:25:23Z</time>
      </trkpt>
      <trkpt lat="37.0387280" lon="-2.3956840">
        <ele>381.0</ele>
        <time>2019-10-18T15:25:24Z</time>
      </trkpt>
      <trkpt lat="37.0387150" lon="-2.3957240">
        <ele>380.9</ele>
        <time>2019-10-18T15:25:25Z</time>
      </trkpt>
      <trkpt lat="37.0387040" lon="-2.3957630">
        <ele>380.8</ele>
        <time>2019-10-18T15:25:26Z</time>
      </trkpt>
      <trkpt lat="37.0386930" lon="-2.3958020">
        <ele>380.8</ele>
        <time>2019-10-18T15:25:27Z</time>
      </trkpt>
      <trkpt lat="37.0386800" lon="-2.3958390">
        <ele>380.7</ele>
        <time>2019-10-18T15:25:28Z</time>
      </trkpt>
      <trkpt lat="37.0386660" lon="-2.3958760">
        <ele>380.6</ele>
        <time>2019-10-18T15:25:29Z</time>
      </trkpt>
      <trkpt lat="37.0386530" lon="-2.3959130">
        <ele>380.5</ele>
        <time>2019-10-18T15:25:30Z</time>
      </trkpt>
      <trkpt lat="37.0386410" lon="-2.3959520">
        <ele>380.4</ele>
        <time>2019-10-18T15:25:31Z</time>
      </trkpt>
      <trkpt lat="37.0386300" lon="-2.3959920">
        <ele>380.4</ele>
        <time>2019-10-18T15:25:32Z</time>
      </trkpt>
      <trkpt lat="37.0386220" lon="-2.3960340">
        <ele>380.3</ele>
        <time>2019-10-18T15:25:33Z</time>
      </trkpt>
      <trkpt lat="37.0386160" lon="-2.3960770">
        <ele>380.2</ele>
        <time>2019-10-18T15:25:34Z</time>
      </trkpt>
      <trkpt lat="37.0386100" lon="-2.3961200">
        <ele>380.1</ele>
        <time>2019-10-18T15:25:35Z</time>
      </trkpt>
      <trkpt lat="37.0386010" lon="-2.3961640">
        <ele>380.0</ele>
        <time>2019-10-18T15:25:36Z</time>
      </trkpt>
      <trkpt lat="37.0385910" lon="-2.3962070">
        <ele>379.9</ele>
        <time>2019-10-18T15:25:37Z</time>
      </trkpt>
      <trkpt lat="37.0385790" lon="-2.3962510">
        <ele>379.8</ele>
        <time>2019-10-18T15:25:38Z</time>
      </trkpt>
      <trkpt lat="37.0385710" lon="-2.3962940">
        <ele>379.7</ele>
        <time>2019-10-18T15:25:39Z</time>
      </trkpt>
      <trkpt lat="37.0385670" lon="-2.3963360">
        <ele>379.5</ele>
        <time>2019-10-18T15:25:40Z</time>
      </trkpt>
      <trkpt lat="37.0385700" lon="-2.3963750">
        <ele>379.4</ele>
        <time>2019-10-18T15:25:41Z</time>
      </trkpt>
      <trkpt lat="37.0385800" lon="-2.3964120">
        <ele>379.4</ele>
        <time>2019-10-18T15:25:42Z</time>
      </trkpt>
      <trkpt lat="37.0385970" lon="-2.3964490">
        <ele>379.3</ele>
        <time>2019-10-18T15:25:43Z</time>
      </trkpt>
      <trkpt lat="37.0386200" lon="-2.3964850">
        <ele>379.1</ele>
        <time>2019-10-18T15:25:44Z</time>
      </trkpt>
      <trkpt lat="37.0386470" lon="-2.3965200">
        <ele>379.0</ele>
        <time>2019-10-18T15:25:45Z</time>
      </trkpt>
      <trkpt lat="37.0386740" lon="-2.3965520">
        <ele>378.9</ele>
        <time>2019-10-18T15:25:46Z</time>
      </trkpt>
      <trkpt lat="37.0387000" lon="-2.3965790">
        <ele>378.8</ele>
        <time>2019-10-18T15:25:47Z</time>
      </trkpt>
      <trkpt lat="37.0387280" lon="-2.3966030">
        <ele>378.7</ele>
        <time>2019-10-18T15:25:48Z</time>
      </trkpt>
      <trkpt lat="37.0387560" lon="-2.3966250">
        <ele>378.6</ele>
        <time>2019-10-18T15:25:49Z</time>
      </trkpt>
      <trkpt lat="37.0387840" lon="-2.3966480">
        <ele>378.6</ele>
        <time>2019-10-18T15:25:50Z</time>
      </trkpt>
      <trkpt lat="37.0388170" lon="-2.3966650">
        <ele>378.5</ele>
        <time>2019-10-18T15:25:51Z</time>
      </trkpt>
      <trkpt lat="37.0388520" lon="-2.3966740">
        <ele>378.4</ele>
        <time>2019-10-18T15:25:52Z</time>
      </trkpt>
      <trkpt lat="37.0388870" lon="-2.3966780">
        <ele>378.3</ele>
        <time>2019-10-18T15:25:53Z</time>
      </trkpt>
      <trkpt lat="37.0389220" lon="-2.3966790">
        <ele>378.2</ele>
        <time>2019-10-18T15:25:54Z</time>
      </trkpt>
      <trkpt lat="37.0389560" lon="-2.3966730">
        <ele>378.1</ele>
        <time>2019-10-18T15:25:55Z</time>
      </trkpt>
      <trkpt lat="37.0389930" lon="-2.3966660">
        <ele>378.1</ele>
        <time>2019-10-18T15:25:56Z</time>
      </trkpt>
      <trkpt lat="37.0390320" lon="-2.3966610">
        <ele>378.0</ele>
        <time>2019-10-18T15:25:57Z</time>
      </trkpt>
      <trkpt lat="37.0390730" lon="-2.3966610">
        <ele>377.9</ele>
        <time>2019-10-18T15:25:58Z</time>
      </trkpt>
      <trkpt lat="37.0391140" lon="-2.3966630">
        <ele>377.8</ele>
        <time>2019-10-18T15:25:59Z</time>
      </trkpt>
      <trkpt lat="37.0391530" lon="-2.3966630">
        <ele>377.8</ele>
        <time>2019-10-18T15:26:00Z</time>
      </trkpt>
      <trkpt lat="37.0391920" lon="-2.3966620">
        <ele>377.7</ele>
        <time>2019-10-18T15:26:01Z</time>
      </trkpt>
      <trkpt lat="37.0392330" lon="-2.3966590">
        <ele>377.6</ele>
        <time>2019-10-18T15:26:02Z</time>
      </trkpt>
      <trkpt lat="37.0392730" lon="-2.3966570">
        <ele>377.4</ele>
        <time>2019-10-18T15:26:03Z</time>
      </trkpt>
      <trkpt lat="37.0393140" lon="-2.3966580">
        <ele>377.3</ele>
        <time>2019-10-18T15:26:04Z</time>
      </trkpt>
      <trkpt lat="37.0393540" lon="-2.3966650">
        <ele>377.2</ele>
        <time>2019-10-18T15:26:05Z</time>
      </trkpt>
      <trkpt lat="37.0393920" lon="-2.3966770">
        <ele>377.1</ele>
        <time>2019-10-18T15:26:06Z</time>
      </trkpt>
      <trkpt lat="37.0394300" lon="-2.3966880">
        <ele>376.9</ele>
        <time>2019-10-18T15:26:07Z</time>
      </trkpt>
      <trkpt lat="37.0394670" lon="-2.3966980">
        <ele>376.8</ele>
        <time>2019-10-18T15:26:08Z</time>
      </trkpt>
      <trkpt lat="37.0395040" lon="-2.3967070">
        <ele>376.7</ele>
        <time>2019-10-18T15:26:09Z</time>
      </trkpt>
      <trkpt lat="37.0395390" lon="-2.3967170">
        <ele>376.6</ele>
        <time>2019-10-18T15:26:10Z</time>
      </trkpt>
      <trkpt lat="37.0395730" lon="-2.3967290">
        <ele>376.6</ele>
        <time>2019-10-18T15:26:11Z</time>
      </trkpt>
      <trkpt lat="37.0396070" lon="-2.3967410">
        <ele>376.5</ele>
        <time>2019-10-18T15:26:12Z</time>
      </trkpt>
      <trkpt lat="37.0396400" lon="-2.3967530">
        <ele>376.4</ele>
        <time>2019-10-18T15:26:13Z</time>
      </trkpt>
      <trkpt lat="37.0396730" lon="-2.3967640">
        <ele>376.3</ele>
        <time>2019-10-18T15:26:14Z</time>
      </trkpt>
      <trkpt lat="37.0397070" lon="-2.3967740">
        <ele>376.2</ele>
        <time>2019-10-18T15:26:15Z</time>
      </trkpt>
      <trkpt lat="37.0397410" lon="-2.3967850">
        <ele>376.2</ele>
        <time>2019-10-18T15:26:16Z</time>
      </trkpt>
      <trkpt lat="37.0397750" lon="-2.3967960">
        <ele>376.1</ele>
        <time>2019-10-18T15:26:17Z</time>
      </trkpt>
      <trkpt lat="37.0398100" lon="-2.3968090">
        <ele>376.0</ele>
        <time>2019-10-18T15:26:18Z</time>
      </trkpt>
      <trkpt lat="37.0398450" lon="-2.3968240">
        <ele>375.9</ele>
        <time>2019-10-18T15:26:19Z</time>
      </trkpt>
      <trkpt lat="37.0398780" lon="-2.3968420">
        <ele>375.9</ele>
        <time>2019-10-18T15:26:20Z</time>
      </trkpt>
      <trkpt lat="37.0399100" lon="-2.3968640">
        <ele>375.8</ele>
        <time>2019-10-18T15:26:21Z</time>
      </trkpt>
      <trkpt lat="37.0399390" lon="-2.3968890">
        <ele>375.7</ele>
        <time>2019-10-18T15:26:22Z</time>
      </trkpt>
      <trkpt lat="37.0399660" lon="-2.3969160">
        <ele>375.6</ele>
        <time>2019-10-18T15:26:23Z</time>
      </trkpt>
      <trkpt lat="37.0399910" lon="-2.3969430">
        <ele>375.5</ele>
        <time>2019-10-18T15:26:24Z</time>
      </trkpt>
      <trkpt lat="37.0400150" lon="-2.3969720">
        <ele>375.4</ele>
        <time>2019-10-18T15:26:25Z</time>
      </trkpt>
      <trkpt lat="37.0400380" lon="-2.3970030">
        <ele>375.4</ele>
        <time>2019-10-18T15:26:26Z</time>
      </trkpt>
      <trkpt lat="37.0400600" lon="-2.3970340">
        <ele>375.3</ele>
        <time>2019-10-18T15:26:27Z</time>
      </trkpt>
      <trkpt lat="37.0400830" lon="-2.3970640">
        <ele>375.2</ele>
        <time>2019-10-18T15:26:28Z</time>
      </trkpt>
      <trkpt lat="37.0401090" lon="-2.3970900">
        <ele>375.2</ele>
        <time>2019-10-18T15:26:29Z</time>
      </trkpt>
      <trkpt lat="37.0401360" lon="-2.3971150">
        <ele>375.1</ele>
        <time>2019-10-18T15:26:30Z</time>
      </trkpt>
      <trkpt lat="37.0401630" lon="-2.3971390">
        <ele>375.0</ele>
        <time>2019-10-18T15:26:31Z</time>
      </trkpt>
      <trkpt lat="37.0401890" lon="-2.3971630">
        <ele>375.0</ele>
        <time>2019-10-18T15:26:32Z</time>
      </trkpt>
      <trkpt lat="37.0402150" lon="-2.3971880">
        <ele>374.9</ele>
        <time>2019-10-18T15:26:33Z</time>
      </trkpt>
      <trkpt lat="37.0402400" lon="-2.3972140">
        <ele>374.8</ele>
        <time>2019-10-18T15:26:34Z</time>
      </trkpt>
      <trkpt lat="37.0402680" lon="-2.3972400">
        <ele>374.7</ele>
        <time>2019-10-18T15:26:35Z</time>
      </trkpt>
      <trkpt lat="37.0402990" lon="-2.3972630">
        <ele>374.6</ele>
        <time>2019-10-18T15:26:36Z</time>
      </trkpt>
      <trkpt lat="37.0403340" lon="-2.3972830">
        <ele>374.6</ele>
        <time>2019-10-18T15:26:37Z</time>
      </trkpt>
      <trkpt lat="37.0403710" lon="-2.3973010">
        <ele>374.5</ele>
        <time>2019-10-18T15:26:38Z</time>
      </trkpt>
      <trkpt lat="37.0404070" lon="-2.3973200">
        <ele>374.5</ele>
        <time>2019-10-18T15:26:39Z</time>
      </trkpt>
      <trkpt lat="37.0404410" lon="-2.3973410">
        <ele>374.4</ele>
        <time>2019-10-18T15:26:40Z</time>
      </trkpt>
      <trkpt lat="37.0404750" lon="-2.3973630">
        <ele>374.4</ele>
        <time>2019-10-18T15:26:41Z</time>
      </trkpt>
      <trkpt lat="37.0405080" lon="-2.3973870">
        <ele>374.3</ele>
        <time>2019-10-18T15:26:42Z</time>
      </trkpt>
      <trkpt lat="37.0405390" lon="-2.3974120">
        <ele>374.2</ele>
        <time>2019-10-18T15:26:43Z</time>
      </trkpt>
      <trkpt lat="37.0405700" lon="-2.3974400">
        <ele>374.2</ele>
        <time>2019-10-18T15:26:44Z</time>
      </trkpt>
      <trkpt lat="37.0405990" lon="-2.3974730">
        <ele>374.1</ele>
        <time>2019-10-18T15:26:45Z</time>
      </trkpt>
      <trkpt lat="37.0406270" lon="-2.3975090">
        <ele>374.0</ele>
        <time>2019-10-18T15:26:46Z</time>
      </trkpt>
      <trkpt lat="37.0406520" lon="-2.3975480">
        <ele>373.9</ele>
        <time>2019-10-18T15:26:47Z</time>
      </trkpt>
      <trkpt lat="37.0406750" lon="-2.3975870">
        <ele>373.9</ele>
        <time>2019-10-18T15:26:48Z</time>
      </trkpt>
      <trkpt lat="37.0406960" lon="-2.3976290">
        <ele>373.8</ele>
        <time>2019-10-18T15:26:49Z</time>
      </trkpt>
      <trkpt lat="37.0407130" lon="-2.3976700">
        <ele>373.7</ele>
        <time>2019-10-18T15:26:50Z</time>
      </trkpt>
      <trkpt lat="37.0407280" lon="-2.3977130">
        <ele>373.7</ele>
        <time>2019-10-18T15:26:51Z</time>
      </trkpt>
      <trkpt lat="37.0407400" lon="-2.3977540">
        <ele>373.7</ele>
        <time>2019-10-18T15:26:52Z</time>
      </trkpt>
      <trkpt lat="37.0407490" lon="-2.3977960">
        <ele>373.6</ele>
        <time>2019-10-18T15:26:53Z</time>
      </trkpt>
      <trkpt lat="37.0407560" lon="-2.3978390">
        <ele>373.6</ele>
        <time>2019-10-18T15:26:54Z</time>
      </trkpt>
      <trkpt lat="37.0407620" lon="-2.3978820">
        <ele>373.6</ele>
        <time>2019-10-18T15:26:55Z</time>
      </trkpt>
      <trkpt lat="37.0407630" lon="-2.3979320">
        <ele>373.6</ele>
        <time>2019-10-18T15:26:56Z</time>
      </trkpt>
      <trkpt lat="37.0407540" lon="-2.3979970">
        <ele>373.5</ele>
        <time>2019-10-18T15:26:57Z</time>
      </trkpt>
      <trkpt lat="37.0407410" lon="-2.3980650">
        <ele>373.4</ele>
        <time>2019-10-18T15:26:58Z</time>
      </trkpt>
      <trkpt lat="37.0407280" lon="-2.3981300">
        <ele>373.3</ele>
        <time>2019-10-18T15:26:59Z</time>
      </trkpt>
      <trkpt lat="37.0407220" lon="-2.3981810">
        <ele>373.1</ele>
        <time>2019-10-18T15:27:00Z</time>
      </trkpt>
      <trkpt lat="37.0407190" lon="-2.3982300">
        <ele>373.0</ele>
        <time>2019-10-18T15:27:01Z</time>
      </trkpt>
      <trkpt lat="37.0407190" lon="-2.3982780">
        <ele>372.9</ele>
        <time>2019-10-18T15:27:02Z</time>
      </trkpt>
      <trkpt lat="37.0407230" lon="-2.3983260">
        <ele>372.8</ele>
        <time>2019-10-18T15:27:03Z</time>
      </trkpt>
      <trkpt lat="37.0407350" lon="-2.3983690">
        <ele>372.7</ele>
        <time>2019-10-18T15:27:04Z</time>
      </trkpt>
      <trkpt lat="37.0407490" lon="-2.3984090">
        <ele>372.7</ele>
        <time>2019-10-18T15:27:05Z</time>
      </trkpt>
      <trkpt lat="37.0407660" lon="-2.3984460">
        <ele>372.7</ele>
        <time>2019-10-18T15:27:06Z</time>
      </trkpt>
      <trkpt lat="37.0407820" lon="-2.3984850">
        <ele>372.6</ele>
        <time>2019-10-18T15:27:07Z</time>
      </trkpt>
      <trkpt lat="37.0408000" lon="-2.3985260">
        <ele>372.6</ele>
        <time>2019-10-18T15:27:08Z</time>
      </trkpt>
      <trkpt lat="37.0408220" lon="-2.3985640">
        <ele>372.6</ele>
        <time>2019-10-18T15:27:09Z</time>
      </trkpt>
      <trkpt lat="37.0408470" lon="-2.3985970">
        <ele>372.5</ele>
        <time>2019-10-18T15:27:10Z</time>
      </trkpt>
      <trkpt lat="37.0408740" lon="-2.3986260">
        <ele>372.5</ele>
        <time>2019-10-18T15:27:11Z</time>
      </trkpt>
      <trkpt lat="37.0409040" lon="-2.3986530">
        <ele>372.4</ele>
        <time>2019-10-18T15:27:12Z</time>
      </trkpt>
      <trkpt lat="37.0409360" lon="-2.3986780">
        <ele>372.4</ele>
        <time>2019-10-18T15:27:13Z</time>
      </trkpt>
      <trkpt lat="37.0409690" lon="-2.3987000">
        <ele>372.3</ele>
        <time>2019-10-18T15:27:14Z</time>
      </trkpt>
      <trkpt lat="37.0410020" lon="-2.3987180">
        <ele>372.2</ele>
        <time>2019-10-18T15:27:15Z</time>
      </trkpt>
      <trkpt lat="37.0410380" lon="-2.3987330">
        <ele>372.1</ele>
        <time>2019-10-18T15:27:16Z</time>
      </trkpt>
      <trkpt lat="37.0410740" lon="-2.3987480">
        <ele>372.0</ele>
        <time>2019-10-18T15:27:17Z</time>
      </trkpt>
      <trkpt lat="37.0411110" lon="-2.3987640">
        <ele>371.9</ele>
        <time>2019-10-18T15:27:18Z</time>
      </trkpt>
      <trkpt lat="37.0411480" lon="-2.3987780">
        <ele>371.9</ele>
        <time>2019-10-18T15:27:19Z</time>
      </trkpt>
      <trkpt lat="37.0411860" lon="-2.3987890">
        <ele>371.9</ele>
        <time>2019-10-18T15:27:20Z</time>
      </trkpt>
      <trkpt lat="37.0412250" lon="-2.3987990">
        <ele>371.8</ele>
        <time>2019-10-18T15:27:21Z</time>
      </trkpt>
      <trkpt lat="37.0412640" lon="-2.3988090">
        <ele>371.8</ele>
        <time>2019-10-18T15:27:22Z</time>
      </trkpt>
      <trkpt lat="37.0413030" lon="-2.3988200">
        <ele>371.7</ele>
        <time>2019-10-18T15:27:23Z</time>
      </trkpt>
      <trkpt lat="37.0413420" lon="-2.3988330">
        <ele>371.7</ele>
        <time>2019-10-18T15:27:24Z</time>
      </trkpt>
      <trkpt lat="37.0413800" lon="-2.3988470">
        <ele>371.6</ele>
        <time>2019-10-18T15:27:25Z</time>
      </trkpt>
      <trkpt lat="37.0414170" lon="-2.3988630">
        <ele>371.6</ele>
        <time>2019-10-18T15:27:26Z</time>
      </trkpt>
      <trkpt lat="37.0414530" lon="-2.3988850">
        <ele>371.5</ele>
        <time>2019-10-18T15:27:27Z</time>
      </trkpt>
      <trkpt lat="37.0414870" lon="-2.3989110">
        <ele>371.4</ele>
        <time>2019-10-18T15:27:28Z</time>
      </trkpt>
      <trkpt lat="37.0415190" lon="-2.3989400">
        <ele>371.3</ele>
        <time>2019-10-18T15:27:29Z</time>
      </trkpt>
      <trkpt lat="37.0415490" lon="-2.3989690">
        <ele>371.2</ele>
        <time>2019-10-18T15:27:30Z</time>
      </trkpt>
      <trkpt lat="37.0415770" lon="-2.3989970">
        <ele>371.1</ele>
        <time>2019-10-18T15:27:31Z</time>
      </trkpt>
      <trkpt lat="37.0416010" lon="-2.3990290">
        <ele>371.0</ele>
        <time>2019-10-18T15:27:32Z</time>
      </trkpt>
      <trkpt lat="37.0416240" lon="-2.3990630">
        <ele>371.0</ele>
        <time>2019-10-18T15:27:33Z</time>
      </trkpt>
      <trkpt lat="37.0416450" lon="-2.3991000">
        <ele>370.9</ele>
        <time>2019-10-18T15:27:34Z</time>
      </trkpt>
      <trkpt lat="37.0416640" lon="-2.3991410">
        <ele>370.8</ele>
        <time>2019-10-18T15:27:35Z</time>
      </trkpt>
      <trkpt lat="37.0416810" lon="-2.3991840">
        <ele>370.7</ele>
        <time>2019-10-18T15:27:36Z</time>
      </trkpt>
      <trkpt lat="37.0416970" lon="-2.3992300">
        <ele>370.6</ele>
        <time>2019-10-18T15:27:37Z</time>
      </trkpt>
      <trkpt lat="37.0417080" lon="-2.3992750">
        <ele>370.5</ele>
        <time>2019-10-18T15:27:38Z</time>
      </trkpt>
      <trkpt lat="37.0417100" lon="-2.3993200">
        <ele>370.4</ele>
        <time>2019-10-18T15:27:39Z</time>
      </trkpt>
      <trkpt lat="37.0417030" lon="-2.3993680">
        <ele>370.3</ele>
        <time>2019-10-18T15:27:40Z</time>
      </trkpt>
      <trkpt lat="37.0416900" lon="-2.3994190">
        <ele>370.2</ele>
        <time>2019-10-18T15:27:41Z</time>
      </trkpt>
      <trkpt lat="37.0416770" lon="-2.3994700">
        <ele>370.1</ele>
        <time>2019-10-18T15:27:42Z</time>
      </trkpt>
      <trkpt lat="37.0416620" lon="-2.3995200">
        <ele>370.0</ele>
        <time>2019-10-18T15:27:43Z</time>
      </trkpt>
      <trkpt lat="37.0416430" lon="-2.3995670">
        <ele>369.9</ele>
        <time>2019-10-18T15:27:44Z</time>
      </trkpt>
      <trkpt lat="37.0416150" lon="-2.3996040">
        <ele>369.8</ele>
        <time>2019-10-18T15:27:45Z</time>
      </trkpt>
      <trkpt lat="37.0415810" lon="-2.3996310">
        <ele>369.8</ele>
        <time>2019-10-18T15:27:46Z</time>
      </trkpt>
      <trkpt lat="37.0415430" lon="-2.3996500">
        <ele>369.8</ele>
        <time>2019-10-18T15:27:47Z</time>
      </trkpt>
      <trkpt lat="37.0415050" lon="-2.3996660">
        <ele>369.7</ele>
        <time>2019-10-18T15:27:48Z</time>
      </trkpt>
      <trkpt lat="37.0414680" lon="-2.3996810">
        <ele>369.7</ele>
        <time>2019-10-18T15:27:49Z</time>
      </trkpt>
      <trkpt lat="37.0414290" lon="-2.3996930">
        <ele>369.7</ele>
        <time>2019-10-18T15:27:50Z</time>
      </trkpt>
      <trkpt lat="37.0413890" lon="-2.3997040">
        <ele>369.7</ele>
        <time>2019-10-18T15:27:51Z</time>
      </trkpt>
      <trkpt lat="37.0413470" lon="-2.3997160">
        <ele>369.5</ele>
        <time>2019-10-18T15:27:52Z</time>
      </trkpt>
      <trkpt lat="37.0413070" lon="-2.3997310">
        <ele>369.2</ele>
        <time>2019-10-18T15:27:53Z</time>
      </trkpt>
      <trkpt lat="37.0412690" lon="-2.3997490">
        <ele>369.0</ele>
        <time>2019-10-18T15:27:54Z</time>
      </trkpt>
      <trkpt lat="37.0412320" lon="-2.3997700">
        <ele>368.7</ele>
        <time>2019-10-18T15:27:55Z</time>
      </trkpt>
      <trkpt lat="37.0411950" lon="-2.3997940">
        <ele>368.4</ele>
        <time>2019-10-18T15:27:56Z</time>
      </trkpt>
      <trkpt lat="37.0411590" lon="-2.3998210">
        <ele>368.1</ele>
        <time>2019-10-18T15:27:57Z</time>
      </trkpt>
      <trkpt lat="37.0411260" lon="-2.3998530">
        <ele>367.9</ele>
        <time>2019-10-18T15:27:58Z</time>
      </trkpt>
      <trkpt lat="37.0410970" lon="-2.3998900">
        <ele>367.6</ele>
        <time>2019-10-18T15:27:59Z</time>
      </trkpt>
      <trkpt lat="37.0410720" lon="-2.3999310">
        <ele>367.4</ele>
        <time>2019-10-18T15:28:00Z</time>
      </trkpt>
      <trkpt lat="37.0410510" lon="-2.3999760">
        <ele>367.1</ele>
        <time>2019-10-18T15:28:01Z</time>
      </trkpt>
      <trkpt lat="37.0410350" lon="-2.4000230">
        <ele>366.9</ele>
        <time>2019-10-18T15:28:02Z</time>
      </trkpt>
      <trkpt lat="37.0410220" lon="-2.4000640">
        <ele>366.6</ele>
        <time>2019-10-18T15:28:03Z</time>
      </trkpt>
      <trkpt lat="37.0410110" lon="-2.4000990">
        <ele>366.4</ele>
        <time>2019-10-18T15:28:04Z</time>
      </trkpt>
      <trkpt lat="37.0409960" lon="-2.4001290">
        <ele>366.1</ele>
        <time>2019-10-18T15:28:05Z</time>
      </trkpt>
      <trkpt lat="37.0409780" lon="-2.4001590">
        <ele>365.8</ele>
        <time>2019-10-18T15:28:06Z</time>
      </trkpt>
      <trkpt lat="37.0409590" lon="-2.4001890">
        <ele>365.4</ele>
        <time>2019-10-18T15:28:07Z</time>
      </trkpt>
      <trkpt lat="37.0409400" lon="-2.4002200">
        <ele>365.1</ele>
        <time>2019-10-18T15:28:08Z</time>
      </trkpt>
      <trkpt lat="37.0409210" lon="-2.4002500">
        <ele>364.8</ele>
        <time>2019-10-18T15:28:09Z</time>
      </trkpt>
      <trkpt lat="37.0409030" lon="-2.4002800">
        <ele>364.5</ele>
        <time>2019-10-18T15:28:10Z</time>
      </trkpt>
      <trkpt lat="37.0408840" lon="-2.4003110">
        <ele>364.2</ele>
        <time>2019-10-18T15:28:11Z</time>
      </trkpt>
      <trkpt lat="37.0408650" lon="-2.4003440">
        <ele>363.9</ele>
        <time>2019-10-18T15:28:12Z</time>
      </trkpt>
      <trkpt lat="37.0408450" lon="-2.4003800">
        <ele>363.7</ele>
        <time>2019-10-18T15:28:13Z</time>
      </trkpt>
      <trkpt lat="37.0408250" lon="-2.4004200">
        <ele>363.4</ele>
        <time>2019-10-18T15:28:14Z</time>
      </trkpt>
      <trkpt lat="37.0408050" lon="-2.4004610">
        <ele>363.0</ele>
        <time>2019-10-18T15:28:15Z</time>
      </trkpt>
      <trkpt lat="37.0407860" lon="-2.4005050">
        <ele>362.7</ele>
        <time>2019-10-18T15:28:16Z</time>
      </trkpt>
      <trkpt lat="37.0407700" lon="-2.4005520">
        <ele>362.2</ele>
        <time>2019-10-18T15:28:17Z</time>
      </trkpt>
      <trkpt lat="37.0407560" lon="-2.4006010">
        <ele>361.7</ele>
        <time>2019-10-18T15:28:18Z</time>
      </trkpt>
      <trkpt lat="37.0407430" lon="-2.4006510">
        <ele>361.3</ele>
        <time>2019-10-18T15:28:19Z</time>
      </trkpt>
      <trkpt lat="37.0407290" lon="-2.4007030">
        <ele>361.0</ele>
        <time>2019-10-18T15:28:20Z</time>
      </trkpt>
      <trkpt lat="37.0407150" lon="-2.4007550">
        <ele>360.7</ele>
        <time>2019-10-18T15:28:21Z</time>
      </trkpt>
      <trkpt lat="37.0407010" lon="-2.4008100">
        <ele>360.4</ele>
        <time>2019-10-18T15:28:22Z</time>
      </trkpt>
      <trkpt lat="37.0406870" lon="-2.4008650">
        <ele>360.1</ele>
        <time>2019-10-18T15:28:23Z</time>
      </trkpt>
      <trkpt lat="37.0406740" lon="-2.4009210">
        <ele>359.7</ele>
        <time>2019-10-18T15:28:24Z</time>
      </trkpt>
      <trkpt lat="37.0406630" lon="-2.4009770">
        <ele>359.4</ele>
        <time>2019-10-18T15:28:25Z</time>
      </trkpt>
      <trkpt lat="37.0406520" lon="-2.4010330">
        <ele>358.9</ele>
        <time>2019-10-18T15:28:26Z</time>
      </trkpt>
      <trkpt lat="37.0406450" lon="-2.4010890">
        <ele>358.4</ele>
        <time>2019-10-18T15:28:27Z</time>
      </trkpt>
      <trkpt lat="37.0406400" lon="-2.4011420">
        <ele>357.9</ele>
        <time>2019-10-18T15:28:28Z</time>
      </trkpt>
      <trkpt lat="37.0406410" lon="-2.4011960">
        <ele>357.3</ele>
        <time>2019-10-18T15:28:29Z</time>
      </trkpt>
      <trkpt lat="37.0406450" lon="-2.4012480">
        <ele>356.8</ele>
        <time>2019-10-18T15:28:30Z</time>
      </trkpt>
      <trkpt lat="37.0406490" lon="-2.4013010">
        <ele>356.3</ele>
        <time>2019-10-18T15:28:31Z</time>
      </trkpt>
      <trkpt lat="37.0406540" lon="-2.4013530">
        <ele>356.0</ele>
        <time>2019-10-18T15:28:32Z</time>
      </trkpt>
      <trkpt lat="37.0406580" lon="-2.4014040">
        <ele>355.6</ele>
        <time>2019-10-18T15:28:33Z</time>
      </trkpt>
      <trkpt lat="37.0406620" lon="-2.4014540">
        <ele>355.3</ele>
        <time>2019-10-18T15:28:34Z</time>
      </trkpt>
      <trkpt lat="37.0406660" lon="-2.4015020">
        <ele>355.0</ele>
        <time>2019-10-18T15:28:35Z</time>
      </trkpt>
      <trkpt lat="37.0406710" lon="-2.4015470">
        <ele>354.7</ele>
        <time>2019-10-18T15:28:36Z</time>
      </trkpt>
      <trkpt lat="37.0406750" lon="-2.4015900">
        <ele>354.4</ele>
        <time>2019-10-18T15:28:37Z</time>
      </trkpt>
      <trkpt lat="37.0406800" lon="-2.4016290">
        <ele>354.2</ele>
        <time>2019-10-18T15:28:38Z</time>
      </trkpt>
      <trkpt lat="37.0406840" lon="-2.4016660">
        <ele>354.0</ele>
        <time>2019-10-18T15:28:39Z</time>
      </trkpt>
      <trkpt lat="37.0406900" lon="-2.4017040">
        <ele>353.7</ele>
        <time>2019-10-18T15:28:40Z</time>
      </trkpt>
      <trkpt lat="37.0406980" lon="-2.4017440">
        <ele>353.5</ele>
        <time>2019-10-18T15:28:41Z</time>
      </trkpt>
      <trkpt lat="37.0407070" lon="-2.4017860">
        <ele>353.2</ele>
        <time>2019-10-18T15:28:42Z</time>
      </trkpt>
      <trkpt lat="37.0407170" lon="-2.4018300">
        <ele>353.0</ele>
        <time>2019-10-18T15:28:43Z</time>
      </trkpt>
      <trkpt lat="37.0407280" lon="-2.4018730">
        <ele>352.6</ele>
        <time>2019-10-18T15:28:44Z</time>
      </trkpt>
      <trkpt lat="37.0407460" lon="-2.4019150">
        <ele>352.2</ele>
        <time>2019-10-18T15:28:45Z</time>
      </trkpt>
      <trkpt lat="37.0407700" lon="-2.4019500">
        <ele>352.0</ele>
        <time>2019-10-18T15:28:46Z</time>
      </trkpt>
      <trkpt lat="37.0408010" lon="-2.4019760">
        <ele>351.7</ele>
        <time>2019-10-18T15:28:47Z</time>
      </trkpt>
      <trkpt lat="37.0408360" lon="-2.4019940">
        <ele>351.5</ele>
        <time>2019-10-18T15:28:48Z</time>
      </trkpt>
      <trkpt lat="37.0408720" lon="-2.4020090">
        <ele>351.3</ele>
        <time>2019-10-18T15:28:49Z</time>
      </trkpt>
      <trkpt lat="37.0409080" lon="-2.4020250">
        <ele>351.0</ele>
        <time>2019-10-18T15:28:50Z</time>
      </trkpt>
      <trkpt lat="37.0409430" lon="-2.4020430">
        <ele>350.8</ele>
        <time>2019-10-18T15:28:51Z</time>
      </trkpt>
      <trkpt lat="37.0409760" lon="-2.4020600">
        <ele>350.6</ele>
        <time>2019-10-18T15:28:52Z</time>
      </trkpt>
      <trkpt lat="37.0410080" lon="-2.4020790">
        <ele>350.4</ele>
        <time>2019-10-18T15:28:53Z</time>
      </trkpt>
      <trkpt lat="37.0410410" lon="-2.4020970">
        <ele>350.2</ele>
        <time>2019-10-18T15:28:54Z</time>
      </trkpt>
      <trkpt lat="37.0410750" lon="-2.4021160">
        <ele>350.0</ele>
        <time>2019-10-18T15:28:55Z</time>
      </trkpt>
      <trkpt lat="37.0411100" lon="-2.4021340">
        <ele>349.8</ele>
        <time>2019-10-18T15:28:56Z</time>
      </trkpt>
      <trkpt lat="37.0411440" lon="-2.4021530">
        <ele>349.6</ele>
        <time>2019-10-18T15:28:57Z</time>
      </trkpt>
      <trkpt lat="37.0411780" lon="-2.4021700">
        <ele>349.4</ele>
        <time>2019-10-18T15:28:58Z</time>
      </trkpt>
      <trkpt lat="37.0412120" lon="-2.4021890">
        <ele>349.1</ele>
        <time>2019-10-18T15:28:59Z</time>
      </trkpt>
      <trkpt lat="37.0412440" lon="-2.4022090">
        <ele>348.8</ele>
        <time>2019-10-18T15:29:00Z</time>
      </trkpt>
      <trkpt lat="37.0412740" lon="-2.4022350">
        <ele>348.5</ele>
        <time>2019-10-18T15:29:01Z</time>
      </trkpt>
      <trkpt lat="37.0413020" lon="-2.4022630">
        <ele>348.2</ele>
        <time>2019-10-18T15:29:02Z</time>
      </trkpt>
      <trkpt lat="37.0413300" lon="-2.4022960">
        <ele>347.8</ele>
        <time>2019-10-18T15:29:03Z</time>
      </trkpt>
      <trkpt lat="37.0413580" lon="-2.4023320">
        <ele>347.2</ele>
        <time>2019-10-18T15:29:04Z</time>
      </trkpt>
      <trkpt lat="37.0413850" lon="-2.4023710">
        <ele>346.7</ele>
        <time>2019-10-18T15:29:05Z</time>
      </trkpt>
      <trkpt lat="37.0414120" lon="-2.4024100">
        <ele>346.2</ele>
        <time>2019-10-18T15:29:06Z</time>
      </trkpt>
      <trkpt lat="37.0414380" lon="-2.4024480">
        <ele>345.7</ele>
        <time>2019-10-18T15:29:07Z</time>
      </trkpt>
      <trkpt lat="37.0414650" lon="-2.4024860">
        <ele>345.2</ele>
        <time>2019-10-18T15:29:08Z</time>
      </trkpt>
      <trkpt lat="37.0414930" lon="-2.4025240">
        <ele>344.7</ele>
        <time>2019-10-18T15:29:09Z</time>
      </trkpt>
      <trkpt lat="37.0415200" lon="-2.4025620">
        <ele>344.2</ele>
        <time>2019-10-18T15:29:10Z</time>
      </trkpt>
      <trkpt lat="37.0415460" lon="-2.4025990">
        <ele>343.7</ele>
        <time>2019-10-18T15:29:11Z</time>
      </trkpt>
      <trkpt lat="37.0415720" lon="-2.4026390">
        <ele>343.1</ele>
        <time>2019-10-18T15:29:12Z</time>
      </trkpt>
      <trkpt lat="37.0415960" lon="-2.4026790">
        <ele>342.7</ele>
        <time>2019-10-18T15:29:13Z</time>
      </trkpt>
      <trkpt lat="37.0416210" lon="-2.4027200">
        <ele>342.3</ele>
        <time>2019-10-18T15:29:14Z</time>
      </trkpt>
      <trkpt lat="37.0416440" lon="-2.4027600">
        <ele>341.8</ele>
        <time>2019-10-18T15:29:15Z</time>
      </trkpt>
      <trkpt lat="37.0416640" lon="-2.4028020">
        <ele>341.8</ele>
        <time>2019-10-18T15:29:16Z</time>
      </trkpt>
      <trkpt lat="37.0416810" lon="-2.4028430">
        <ele>341.8</ele>
        <time>2019-10-18T15:29:17Z</time>
      </trkpt>
      <trkpt lat="37.0416960" lon="-2.4028860">
        <ele>341.8</ele>
        <time>2019-10-18T15:29:18Z</time>
      </trkpt>
      <trkpt lat="37.0417100" lon="-2.4029310">
        <ele>341.8</ele>
        <time>2019-10-18T15:29:19Z</time>
      </trkpt>
      <trkpt lat="37.0417260" lon="-2.4029760">
        <ele>341.8</ele>
        <time>2019-10-18T15:29:20Z</time>
      </trkpt>
      <trkpt lat="37.0417460" lon="-2.4030200">
        <ele>341.8</ele>
        <time>2019-10-18T15:29:21Z</time>
      </trkpt>
      <trkpt lat="37.0417690" lon="-2.4030630">
        <ele>341.8</ele>
        <time>2019-10-18T15:29:22Z</time>
      </trkpt>
      <trkpt lat="37.0417900" lon="-2.4031070">
        <ele>341.8</ele>
        <time>2019-10-18T15:29:23Z</time>
      </trkpt>
      <trkpt lat="37.0418050" lon="-2.4031540">
        <ele>341.8</ele>
        <time>2019-10-18T15:29:24Z</time>
      </trkpt>
      <trkpt lat="37.0418160" lon="-2.4032020">
        <ele>341.8</ele>
        <time>2019-10-18T15:29:25Z</time>
      </trkpt>
      <trkpt lat="37.0418260" lon="-2.4032500">
        <ele>341.8</ele>
        <time>2019-10-18T15:29:26Z</time>
      </trkpt>
      <trkpt lat="37.0418370" lon="-2.4032970">
        <ele>341.7</ele>
        <time>2019-10-18T15:29:27Z</time>
      </trkpt>
      <trkpt lat="37.0418470" lon="-2.4033440">
        <ele>341.7</ele>
        <time>2019-10-18T15:29:28Z</time>
      </trkpt>
      <trkpt lat="37.0418550" lon="-2.4033910">
        <ele>341.7</ele>
        <time>2019-10-18T15:29:29Z</time>
      </trkpt>
      <trkpt lat="37.0418600" lon="-2.4034370">
        <ele>341.7</ele>
        <time>2019-10-18T15:29:30Z</time>
      </trkpt>
      <trkpt lat="37.0418630" lon="-2.4034820">
        <ele>341.6</ele>
        <time>2019-10-18T15:29:31Z</time>
      </trkpt>
      <trkpt lat="37.0418660" lon="-2.4035260">
        <ele>341.6</ele>
        <time>2019-10-18T15:29:32Z</time>
      </trkpt>
      <trkpt lat="37.0418690" lon="-2.4035690">
        <ele>341.6</ele>
        <time>2019-10-18T15:29:33Z</time>
      </trkpt>
      <trkpt lat="37.0418740" lon="-2.4036120">
        <ele>341.6</ele>
        <time>2019-10-18T15:29:34Z</time>
      </trkpt>
      <trkpt lat="37.0418790" lon="-2.4036540">
        <ele>341.6</ele>
        <time>2019-10-18T15:29:35Z</time>
      </trkpt>
      <trkpt lat="37.0418850" lon="-2.4036950">
        <ele>341.5</ele>
        <time>2019-10-18T15:29:36Z</time>
      </trkpt>
      <trkpt lat="37.0418910" lon="-2.4037370">
        <ele>341.5</ele>
        <time>2019-10-18T15:29:37Z</time>
      </trkpt>
      <trkpt lat="37.0418980" lon="-2.4037790">
        <ele>341.4</ele>
        <time>2019-10-18T15:29:38Z</time>
      </trkpt>
      <trkpt lat="37.0419070" lon="-2.4038220">
        <ele>341.4</ele>
        <time>2019-10-18T15:29:39Z</time>
      </trkpt>
      <trkpt lat="37.0419190" lon="-2.4038670">
        <ele>341.3</ele>
        <time>2019-10-18T15:29:40Z</time>
      </trkpt>
      <trkpt lat="37.0419310" lon="-2.4039120">
        <ele>341.3</ele>
        <time>2019-10-18T15:29:41Z</time>
      </trkpt>
      <trkpt lat="37.0419430" lon="-2.4039560">
        <ele>341.2</ele>
        <time>2019-10-18T15:29:42Z</time>
      </trkpt>
      <trkpt lat="37.0419540" lon="-2.4040000">
        <ele>341.2</ele>
        <time>2019-10-18T15:29:43Z</time>
      </trkpt>
      <trkpt lat="37.0419660" lon="-2.4040440">
        <ele>341.1</ele>
        <time>2019-10-18T15:29:44Z</time>
      </trkpt>
      <trkpt lat="37.0419780" lon="-2.4040880">
        <ele>340.9</ele>
        <time>2019-10-18T15:29:45Z</time>
      </trkpt>
      <trkpt lat="37.0419910" lon="-2.4041310">
        <ele>340.8</ele>
        <time>2019-10-18T15:29:46Z</time>
      </trkpt>
      <trkpt lat="37.0420020" lon="-2.4041750">
        <ele>340.8</ele>
        <time>2019-10-18T15:29:47Z</time>
      </trkpt>
      <trkpt lat="37.0420140" lon="-2.4042180">
        <ele>340.7</ele>
        <time>2019-10-18T15:29:48Z</time>
      </trkpt>
      <trkpt lat="37.0420260" lon="-2.4042610">
        <ele>340.6</ele>
        <time>2019-10-18T15:29:49Z</time>
      </trkpt>
      <trkpt lat="37.0420380" lon="-2.4043050">
        <ele>340.5</ele>
        <time>2019-10-18T15:29:50Z</time>
      </trkpt>
      <trkpt lat="37.0420510" lon="-2.4043470">
        <ele>340.4</ele>
        <time>2019-10-18T15:29:51Z</time>
      </trkpt>
      <trkpt lat="37.0420640" lon="-2.4043880">
        <ele>340.0</ele>
        <time>2019-10-18T15:29:52Z</time>
      </trkpt>
      <trkpt lat="37.0420780" lon="-2.4044240">
        <ele>339.8</ele>
        <time>2019-10-18T15:29:53Z</time>
      </trkpt>
      <trkpt lat="37.0420940" lon="-2.4044580">
        <ele>339.7</ele>
        <time>2019-10-18T15:29:54Z</time>
      </trkpt>
      <trkpt lat="37.0421130" lon="-2.4044880">
        <ele>339.6</ele>
        <time>2019-10-18T15:29:55Z</time>
      </trkpt>
      <trkpt lat="37.0421330" lon="-2.4045160">
        <ele>339.5</ele>
        <time>2019-10-18T15:29:56Z</time>
      </trkpt>
      <trkpt lat="37.0421520" lon="-2.4045430">
        <ele>339.4</ele>
        <time>2019-10-18T15:29:57Z</time>
      </trkpt>
      <trkpt lat="37.0421700" lon="-2.4045710">
        <ele>339.3</ele>
        <time>2019-10-18T15:29:58Z</time>
      </trkpt>
      <trkpt lat="37.0421840" lon="-2.4045980">
        <ele>339.2</ele>
        <time>2019-10-18T15:29:59Z</time>
      </trkpt>
      <trkpt lat="37.0421930" lon="-2.4046250">
        <ele>339.1</ele>
        <time>2019-10-18T15:30:00Z</time>
      </trkpt>
      <trkpt lat="37.0421980" lon="-2.4046540">
        <ele>339.0</ele>
        <time>2019-10-18T15:30:01Z</time>
      </trkpt>
      <trkpt lat="37.0422000" lon="-2.4046850">
        <ele>338.9</ele>
        <time>2019-10-18T15:30:02Z</time>
      </trkpt>
      <trkpt lat="37.0422000" lon="-2.4047160">
        <ele>338.9</ele>
        <time>2019-10-18T15:30:03Z</time>
      </trkpt>
      <trkpt lat="37.0421980" lon="-2.4047430">
        <ele>338.8</ele>
        <time>2019-10-18T15:30:04Z</time>
      </trkpt>
      <trkpt lat="37.0421990" lon="-2.4047680">
        <ele>338.7</ele>
        <time>2019-10-18T15:30:05Z</time>
      </trkpt>
      <trkpt lat="37.0422030" lon="-2.4047930">
        <ele>338.7</ele>
        <time>2019-10-18T15:30:06Z</time>
      </trkpt>
      <trkpt lat="37.0422100" lon="-2.4048210">
        <ele>338.6</ele>
        <time>2019-10-18T15:30:07Z</time>
      </trkpt>
      <trkpt lat="37.0422200" lon="-2.4048490">
        <ele>338.6</ele>
        <time>2019-10-18T15:30:08Z</time>
      </trkpt>
      <trkpt lat="37.0422320" lon="-2.4048760">
        <ele>338.5</ele>
        <time>2019-10-18T15:30:09Z</time>
      </trkpt>
      <trkpt lat="37.0422470" lon="-2.4049000">
        <ele>338.4</ele>
        <time>2019-10-18T15:30:10Z</time>
      </trkpt>
      <trkpt lat="37.0422620" lon="-2.4049220">
        <ele>338.4</ele>
        <time>2019-10-18T15:30:11Z</time>
      </trkpt>
      <trkpt lat="37.0422750" lon="-2.4049460">
        <ele>338.4</ele>
        <time>2019-10-18T15:30:12Z</time>
      </trkpt>
      <trkpt lat="37.0422890" lon="-2.4049700">
        <ele>338.3</ele>
        <time>2019-10-18T15:30:13Z</time>
      </trkpt>
      <trkpt lat="37.0423020" lon="-2.4049950">
        <ele>338.3</ele>
        <time>2019-10-18T15:30:14Z</time>
      </trkpt>
      <trkpt lat="37.0423170" lon="-2.4050210">
        <ele>338.3</ele>
        <time>2019-10-18T15:30:15Z</time>
      </trkpt>
      <trkpt lat="37.0423310" lon="-2.4050470">
        <ele>338.3</ele>
        <time>2019-10-18T15:30:16Z</time>
      </trkpt>
      <trkpt lat="37.0423460" lon="-2.4050730">
        <ele>338.3</ele>
        <time>2019-10-18T15:30:17Z</time>
      </trkpt>
      <trkpt lat="37.0423590" lon="-2.4050980">
        <ele>338.2</ele>
        <time>2019-10-18T15:30:18Z</time>
      </trkpt>
      <trkpt lat="37.0423710" lon="-2.4051220">
        <ele>338.2</ele>
        <time>2019-10-18T15:30:19Z</time>
      </trkpt>
      <trkpt lat="37.0423820" lon="-2.4051450">
        <ele>338.2</ele>
        <time>2019-10-18T15:30:20Z</time>
      </trkpt>
      <trkpt lat="37.0423940" lon="-2.4051670">
        <ele>338.2</ele>
        <time>2019-10-18T15:30:21Z</time>
      </trkpt>
      <trkpt lat="37.0424090" lon="-2.4051920">
        <ele>338.2</ele>
        <time>2019-10-18T15:30:22Z</time>
      </trkpt>
      <trkpt lat="37.0424260" lon="-2.4052190">
        <ele>338.2</ele>
        <time>2019-10-18T15:30:23Z</time>
      </trkpt>
      <trkpt lat="37.0424460" lon="-2.4052490">
        <ele>338.2</ele>
        <time>2019-10-18T15:30:24Z</time>
      </trkpt>
      <trkpt lat="37.0424670" lon="-2.4052800">
        <ele>338.2</ele>
        <time>2019-10-18T15:30:25Z</time>
      </trkpt>
      <trkpt lat="37.0424890" lon="-2.4053120">
        <ele>338.1</ele>
        <time>2019-10-18T15:30:26Z</time>
      </trkpt>
      <trkpt lat="37.0425100" lon="-2.4053420">
        <ele>338.1</ele>
        <time>2019-10-18T15:30:27Z</time>
      </trkpt>
      <trkpt lat="37.0425310" lon="-2.4053730">
        <ele>338.1</ele>
        <time>2019-10-18T15:30:28Z</time>
      </trkpt>
      <trkpt lat="37.0425500" lon="-2.4054040">
        <ele>338.0</ele>
        <time>2019-10-18T15:30:29Z</time>
      </trkpt>
      <trkpt lat="37.0425700" lon="-2.4054380">
        <ele>338.0</ele>
        <time>2019-10-18T15:30:30Z</time>
      </trkpt>
      <trkpt lat="37.0425900" lon="-2.4054730">
        <ele>337.9</ele>
        <time>2019-10-18T15:30:31Z</time>
      </trkpt>
      <trkpt lat="37.0426120" lon="-2.4055110">
        <ele>337.8</ele>
        <time>2019-10-18T15:30:32Z</time>
      </trkpt>
      <trkpt lat="37.0426330" lon="-2.4055480">
        <ele>337.7</ele>
        <time>2019-10-18T15:30:33Z</time>
      </trkpt>
      <trkpt lat="37.0426550" lon="-2.4055860">
        <ele>337.6</ele>
        <time>2019-10-18T15:30:34Z</time>
      </trkpt>
      <trkpt lat="37.0426790" lon="-2.4056230">
        <ele>337.5</ele>
        <time>2019-10-18T15:30:35Z</time>
      </trkpt>
      <trkpt lat="37.0427020" lon="-2.4056600">
        <ele>337.4</ele>
        <time>2019-10-18T15:30:36Z</time>
      </trkpt>
      <trkpt lat="37.0427240" lon="-2.4056950">
        <ele>337.3</ele>
        <time>2019-10-18T15:30:37Z</time>
      </trkpt>
      <trkpt lat="37.0427440" lon="-2.4057300">
        <ele>337.2</ele>
        <time>2019-10-18T15:30:38Z</time>
      </trkpt>
      <trkpt lat="37.0427640" lon="-2.4057640">
        <ele>337.1</ele>
        <time>2019-10-18T15:30:39Z</time>
      </trkpt>
      <trkpt lat="37.0427840" lon="-2.4057980">
        <ele>337.0</ele>
        <time>2019-10-18T15:30:40Z</time>
      </trkpt>
      <trkpt lat="37.0428040" lon="-2.4058300">
        <ele>336.9</ele>
        <time>2019-10-18T15:30:41Z</time>
      </trkpt>
      <trkpt lat="37.0428230" lon="-2.4058630">
        <ele>336.8</ele>
        <time>2019-10-18T15:30:42Z</time>
      </trkpt>
      <trkpt lat="37.0428420" lon="-2.4058970">
        <ele>336.7</ele>
        <time>2019-10-18T15:30:43Z</time>
      </trkpt>
      <trkpt lat="37.0428620" lon="-2.4059320">
        <ele>336.6</ele>
        <time>2019-10-18T15:30:44Z</time>
      </trkpt>
      <trkpt lat="37.0428830" lon="-2.4059680">
        <ele>336.5</ele>
        <time>2019-10-18T15:30:45Z</time>
      </trkpt>
      <trkpt lat="37.0429050" lon="-2.4060050">
        <ele>336.4</ele>
        <time>2019-10-18T15:30:46Z</time>
      </trkpt>
      <trkpt lat="37.0429280" lon="-2.4060430">
        <ele>336.4</ele>
        <time>2019-10-18T15:30:47Z</time>
      </trkpt>
      <trkpt lat="37.0429520" lon="-2.4060800">
        <ele>336.3</ele>
        <time>2019-10-18T15:30:48Z</time>
      </trkpt>
      <trkpt lat="37.0429750" lon="-2.4061170">
        <ele>336.3</ele>
        <time>2019-10-18T15:30:49Z</time>
      </trkpt>
      <trkpt lat="37.0429990" lon="-2.4061540">
        <ele>336.2</ele>
        <time>2019-10-18T15:30:50Z</time>
      </trkpt>
      <trkpt lat="37.0430230" lon="-2.4061920">
        <ele>336.2</ele>
        <time>2019-10-18T15:30:51Z</time>
      </trkpt>
      <trkpt lat="37.0430480" lon="-2.4062300">
        <ele>336.2</ele>
        <time>2019-10-18T15:30:52Z</time>
      </trkpt>
      <trkpt lat="37.0430720" lon="-2.4062680">
        <ele>336.2</ele>
        <time>2019-10-18T15:30:53Z</time>
      </trkpt>
      <trkpt lat="37.0430950" lon="-2.4063070">
        <ele>336.1</ele>
        <time>2019-10-18T15:30:54Z</time>
      </trkpt>
      <trkpt lat="37.0431180" lon="-2.4063460">
        <ele>336.1</ele>
        <time>2019-10-18T15:30:55Z</time>
      </trkpt>
      <trkpt lat="37.0431420" lon="-2.4063860">
        <ele>336.1</ele>
        <time>2019-10-18T15:30:56Z</time>
      </trkpt>
      <trkpt lat="37.0431660" lon="-2.4064260">
        <ele>336.0</ele>
        <time>2019-10-18T15:30:57Z</time>
      </trkpt>
      <trkpt lat="37.0431890" lon="-2.4064650">
        <ele>335.9</ele>
        <time>2019-10-18T15:30:58Z</time>
      </trkpt>
      <trkpt lat="37.0432120" lon="-2.4065040">
        <ele>335.9</ele>
        <time>2019-10-18T15:30:59Z</time>
      </trkpt>
      <trkpt lat="37.0432350" lon="-2.4065430">
        <ele>335.8</ele>
        <time>2019-10-18T15:31:00Z</time>
      </trkpt>
      <trkpt lat="37.0432580" lon="-2.4065820">
        <ele>335.7</ele>
        <time>2019-10-18T15:31:01Z</time>
      </trkpt>
      <trkpt lat="37.0432800" lon="-2.4066200">
        <ele>335.6</ele>
        <time>2019-10-18T15:31:02Z</time>
      </trkpt>
      <trkpt lat="37.0433020" lon="-2.4066570">
        <ele>335.5</ele>
        <time>2019-10-18T15:31:03Z</time>
      </trkpt>
      <trkpt lat="37.0433220" lon="-2.4066920">
        <ele>335.4</ele>
        <time>2019-10-18T15:31:04Z</time>
      </trkpt>
      <trkpt lat="37.0433390" lon="-2.4067250">
        <ele>335.3</ele>
        <time>2019-10-18T15:31:05Z</time>
      </trkpt>
      <trkpt lat="37.0433560" lon="-2.4067580">
        <ele>335.2</ele>
        <time>2019-10-18T15:31:06Z</time>
      </trkpt>
      <trkpt lat="37.0433730" lon="-2.4067920">
        <ele>335.2</ele>
        <time>2019-10-18T15:31:07Z</time>
      </trkpt>
      <trkpt lat="37.0433910" lon="-2.4068290">
        <ele>335.1</ele>
        <time>2019-10-18T15:31:08Z</time>
      </trkpt>
      <trkpt lat="37.0434080" lon="-2.4068660">
        <ele>335.0</ele>
        <time>2019-10-18T15:31:09Z</time>
      </trkpt>
      <trkpt lat="37.0434260" lon="-2.4069040">
        <ele>334.9</ele>
        <time>2019-10-18T15:31:10Z</time>
      </trkpt>
      <trkpt lat="37.0434450" lon="-2.4069400">
        <ele>334.8</ele>
        <time>2019-10-18T15:31:11Z</time>
      </trkpt>
      <trkpt lat="37.0434650" lon="-2.4069780">
        <ele>334.7</ele>
        <time>2019-10-18T15:31:12Z</time>
      </trkpt>
      <trkpt lat="37.0434850" lon="-2.4070150">
        <ele>334.6</ele>
        <time>2019-10-18T15:31:13Z</time>
      </trkpt>
      <trkpt lat="37.0435050" lon="-2.4070520">
        <ele>334.5</ele>
        <time>2019-10-18T15:31:14Z</time>
      </trkpt>
      <trkpt lat="37.0435230" lon="-2.4070890">
        <ele>334.4</ele>
        <time>2019-10-18T15:31:15Z</time>
      </trkpt>
      <trkpt lat="37.0435410" lon="-2.4071260">
        <ele>334.4</ele>
        <time>2019-10-18T15:31:16Z</time>
      </trkpt>
      <trkpt lat="37.0435590" lon="-2.4071630">
        <ele>334.3</ele>
        <time>2019-10-18T15:31:17Z</time>
      </trkpt>
      <trkpt lat="37.0435770" lon="-2.4072010">
        <ele>334.3</ele>
        <time>2019-10-18T15:31:18Z</time>
      </trkpt>
      <trkpt lat="37.0435940" lon="-2.4072380">
        <ele>334.2</ele>
        <time>2019-10-18T15:31:19Z</time>
      </trkpt>
      <trkpt lat="37.0436120" lon="-2.4072750">
        <ele>334.2</ele>
        <time>2019-10-18T15:31:20Z</time>
      </trkpt>
      <trkpt lat="37.0436310" lon="-2.4073140">
        <ele>334.1</ele>
        <time>2019-10-18T15:31:21Z</time>
      </trkpt>
      <trkpt lat="37.0436490" lon="-2.4073520">
        <ele>334.1</ele>
        <time>2019-10-18T15:31:22Z</time>
      </trkpt>
      <trkpt lat="37.0436670" lon="-2.4073910">
        <ele>334.1</ele>
        <time>2019-10-18T15:31:23Z</time>
      </trkpt>
      <trkpt lat="37.0436850" lon="-2.4074310">
        <ele>334.0</ele>
        <time>2019-10-18T15:31:24Z</time>
      </trkpt>
      <trkpt lat="37.0437030" lon="-2.4074710">
        <ele>334.0</ele>
        <time>2019-10-18T15:31:25Z</time>
      </trkpt>
      <trkpt lat="37.0437220" lon="-2.4075120">
        <ele>333.9</ele>
        <time>2019-10-18T15:31:26Z</time>
      </trkpt>
      <trkpt lat="37.0437410" lon="-2.4075540">
        <ele>333.8</ele>
        <time>2019-10-18T15:31:27Z</time>
      </trkpt>
      <trkpt lat="37.0437600" lon="-2.4075950">
        <ele>333.7</ele>
        <time>2019-10-18T15:31:28Z</time>
      </trkpt>
      <trkpt lat="37.0437790" lon="-2.4076360">
        <ele>333.6</ele>
        <time>2019-10-18T15:31:29Z</time>
      </trkpt>
      <trkpt lat="37.0437990" lon="-2.4076760">
        <ele>333.5</ele>
        <time>2019-10-18T15:31:30Z</time>
      </trkpt>
      <trkpt lat="37.0438180" lon="-2.4077150">
        <ele>333.4</ele>
        <time>2019-10-18T15:31:31Z</time>
      </trkpt>
      <trkpt lat="37.0438390" lon="-2.4077530">
        <ele>333.4</ele>
        <time>2019-10-18T15:31:32Z</time>
      </trkpt>
      <trkpt lat="37.0438600" lon="-2.4077910">
        <ele>333.3</ele>
        <time>2019-10-18T15:31:33Z</time>
      </trkpt>
      <trkpt lat="37.0438810" lon="-2.4078280">
        <ele>333.3</ele>
        <time>2019-10-18T15:31:34Z</time>
      </trkpt>
      <trkpt lat="37.0439020" lon="-2.4078650">
        <ele>333.2</ele>
        <time>2019-10-18T15:31:35Z</time>
      </trkpt>
      <trkpt lat="37.0439230" lon="-2.4079020">
        <ele>333.2</ele>
        <time>2019-10-18T15:31:36Z</time>
      </trkpt>
      <trkpt lat="37.0439440" lon="-2.4079390">
        <ele>333.1</ele>
        <time>2019-10-18T15:31:37Z</time>
      </trkpt>
      <trkpt lat="37.0439660" lon="-2.4079770">
        <ele>333.1</ele>
        <time>2019-10-18T15:31:38Z</time>
      </trkpt>
      <trkpt lat="37.0439910" lon="-2.4080140">
        <ele>333.0</ele>
        <time>2019-10-18T15:31:39Z</time>
      </trkpt>
      <trkpt lat="37.0440180" lon="-2.4080510">
        <ele>333.0</ele>
        <time>2019-10-18T15:31:40Z</time>
      </trkpt>
      <trkpt lat="37.0440460" lon="-2.4080880">
        <ele>332.9</ele>
        <time>2019-10-18T15:31:41Z</time>
      </trkpt>
      <trkpt lat="37.0440740" lon="-2.4081250">
        <ele>332.9</ele>
        <time>2019-10-18T15:31:42Z</time>
      </trkpt>
      <trkpt lat="37.0441020" lon="-2.4081610">
        <ele>332.8</ele>
        <time>2019-10-18T15:31:43Z</time>
      </trkpt>
      <trkpt lat="37.0441310" lon="-2.4081960">
        <ele>332.7</ele>
        <time>2019-10-18T15:31:44Z</time>
      </trkpt>
      <trkpt lat="37.0441600" lon="-2.4082330">
        <ele>332.6</ele>
        <time>2019-10-18T15:31:45Z</time>
      </trkpt>
      <trkpt lat="37.0441880" lon="-2.4082700">
        <ele>332.5</ele>
        <time>2019-10-18T15:31:46Z</time>
      </trkpt>
      <trkpt lat="37.0442160" lon="-2.4083090">
        <ele>332.4</ele>
        <time>2019-10-18T15:31:47Z</time>
      </trkpt>
      <trkpt lat="37.0442420" lon="-2.4083480">
        <ele>332.3</ele>
        <time>2019-10-18T15:31:48Z</time>
      </trkpt>
      <trkpt lat="37.0442680" lon="-2.4083880">
        <ele>332.3</ele>
        <time>2019-10-18T15:31:49Z</time>
      </trkpt>
      <trkpt lat="37.0442940" lon="-2.4084270">
        <ele>332.2</ele>
        <time>2019-10-18T15:31:50Z</time>
      </trkpt>
      <trkpt lat="37.0443200" lon="-2.4084670">
        <ele>332.2</ele>
        <time>2019-10-18T15:31:51Z</time>
      </trkpt>
      <trkpt lat="37.0443450" lon="-2.4085070">
        <ele>332.2</ele>
        <time>2019-10-18T15:31:52Z</time>
      </trkpt>
      <trkpt lat="37.0443700" lon="-2.4085490">
        <ele>332.1</ele>
        <time>2019-10-18T15:31:53Z</time>
      </trkpt>
      <trkpt lat="37.0443950" lon="-2.4085900">
        <ele>332.1</ele>
        <time>2019-10-18T15:31:54Z</time>
      </trkpt>
      <trkpt lat="37.0444180" lon="-2.4086320">
        <ele>332.1</ele>
        <time>2019-10-18T15:31:55Z</time>
      </trkpt>
      <trkpt lat="37.0444410" lon="-2.4086740">
        <ele>332.1</ele>
        <time>2019-10-18T15:31:56Z</time>
      </trkpt>
      <trkpt lat="37.0444650" lon="-2.4087170">
        <ele>332.1</ele>
        <time>2019-10-18T15:31:57Z</time>
      </trkpt>
      <trkpt lat="37.0444890" lon="-2.4087600">
        <ele>332.1</ele>
        <time>2019-10-18T15:31:58Z</time>
      </trkpt>
      <trkpt lat="37.0445120" lon="-2.4088040">
        <ele>332.1</ele>
        <time>2019-10-18T15:31:59Z</time>
      </trkpt>
      <trkpt lat="37.0445340" lon="-2.4088490">
        <ele>332.1</ele>
        <time>2019-10-18T15:32:00Z</time>
      </trkpt>
      <trkpt lat="37.0445560" lon="-2.4088940">
        <ele>332.1</ele>
        <time>2019-10-18T15:32:01Z</time>
      </trkpt>
      <trkpt lat="37.0445770" lon="-2.4089380">
        <ele>332.1</ele>
        <time>2019-10-18T15:32:02Z</time>
      </trkpt>
      <trkpt lat="37.0445970" lon="-2.4089830">
        <ele>332.1</ele>
        <time>2019-10-18T15:32:03Z</time>
      </trkpt>
      <trkpt lat="37.0446150" lon="-2.4090270">
        <ele>332.1</ele>
        <time>2019-10-18T15:32:04Z</time>
      </trkpt>
      <trkpt lat="37.0446330" lon="-2.4090710">
        <ele>332.1</ele>
        <time>2019-10-18T15:32:05Z</time>
      </trkpt>
      <trkpt lat="37.0446510" lon="-2.4091160">
        <ele>332.1</ele>
        <time>2019-10-18T15:32:06Z</time>
      </trkpt>
      <trkpt lat="37.0446680" lon="-2.4091610">
        <ele>332.1</ele>
        <time>2019-10-18T15:32:07Z</time>
      </trkpt>
      <trkpt lat="37.0446830" lon="-2.4092050">
        <ele>332.1</ele>
        <time>2019-10-18T15:32:08Z</time>
      </trkpt>
      <trkpt lat="37.0446970" lon="-2.4092490">
        <ele>332.1</ele>
        <time>2019-10-18T15:32:09Z</time>
      </trkpt>
      <trkpt lat="37.0447100" lon="-2.4092930">
        <ele>332.1</ele>
        <time>2019-10-18T15:32:10Z</time>
      </trkpt>
      <trkpt lat="37.0447230" lon="-2.4093370">
        <ele>332.1</ele>
        <time>2019-10-18T15:32:11Z</time>
      </trkpt>
      <trkpt lat="37.0447360" lon="-2.4093820">
        <ele>332.1</ele>
        <time>2019-10-18T15:32:12Z</time>
      </trkpt>
      <trkpt lat="37.0447490" lon="-2.4094270">
        <ele>332.1</ele>
        <time>2019-10-18T15:32:13Z</time>
      </trkpt>
      <trkpt lat="37.0447630" lon="-2.4094730">
        <ele>332.1</ele>
        <time>2019-10-18T15:32:14Z</time>
      </trkpt>
      <trkpt lat="37.0447780" lon="-2.4095190">
        <ele>332.1</ele>
        <time>2019-10-18T15:32:15Z</time>
      </trkpt>
      <trkpt lat="37.0447930" lon="-2.4095640">
        <ele>332.1</ele>
        <time>2019-10-18T15:32:16Z</time>
      </trkpt>
      <trkpt lat="37.0448100" lon="-2.4096090">
        <ele>332.1</ele>
        <time>2019-10-18T15:32:17Z</time>
      </trkpt>
      <trkpt lat="37.0448250" lon="-2.4096560">
        <ele>332.1</ele>
        <time>2019-10-18T15:32:18Z</time>
      </trkpt>
      <trkpt lat="37.0448410" lon="-2.4097030">
        <ele>332.1</ele>
        <time>2019-10-18T15:32:19Z</time>
      </trkpt>
      <trkpt lat="37.0448550" lon="-2.4097510">
        <ele>332.1</ele>
        <time>2019-10-18T15:32:20Z</time>
      </trkpt>
      <trkpt lat="37.0448680" lon="-2.4097990">
        <ele>332.1</ele>
        <time>2019-10-18T15:32:21Z</time>
      </trkpt>
      <trkpt lat="37.0448800" lon="-2.4098460">
        <ele>332.0</ele>
        <time>2019-10-18T15:32:22Z</time>
      </trkpt>
      <trkpt lat="37.0448910" lon="-2.4098940">
        <ele>332.0</ele>
        <time>2019-10-18T15:32:23Z</time>
      </trkpt>
      <trkpt lat="37.0449010" lon="-2.4099410">
        <ele>332.0</ele>
        <time>2019-10-18T15:32:24Z</time>
      </trkpt>
      <trkpt lat="37.0449080" lon="-2.4099890">
        <ele>332.0</ele>
        <time>2019-10-18T15:32:25Z</time>
      </trkpt>
      <trkpt lat="37.0449120" lon="-2.4100370">
        <ele>331.9</ele>
        <time>2019-10-18T15:32:26Z</time>
      </trkpt>
      <trkpt lat="37.0449150" lon="-2.4100850">
        <ele>331.9</ele>
        <time>2019-10-18T15:32:27Z</time>
      </trkpt>
      <trkpt lat="37.0449160" lon="-2.4101330">
        <ele>331.8</ele>
        <time>2019-10-18T15:32:28Z</time>
      </trkpt>
      <trkpt lat="37.0449140" lon="-2.4101800">
        <ele>331.7</ele>
        <time>2019-10-18T15:32:29Z</time>
      </trkpt>
      <trkpt lat="37.0449110" lon="-2.4102270">
        <ele>331.6</ele>
        <time>2019-10-18T15:32:30Z</time>
      </trkpt>
      <trkpt lat="37.0449060" lon="-2.4102760">
        <ele>331.5</ele>
        <time>2019-10-18T15:32:31Z</time>
      </trkpt>
      <trkpt lat="37.0449030" lon="-2.4103260">
        <ele>331.4</ele>
        <time>2019-10-18T15:32:32Z</time>
      </trkpt>
      <trkpt lat="37.0448990" lon="-2.4103770">
        <ele>331.3</ele>
        <time>2019-10-18T15:32:33Z</time>
      </trkpt>
      <trkpt lat="37.0448950" lon="-2.4104280">
        <ele>331.2</ele>
        <time>2019-10-18T15:32:34Z</time>
      </trkpt>
      <trkpt lat="37.0448910" lon="-2.4104780">
        <ele>331.0</ele>
        <time>2019-10-18T15:32:35Z</time>
      </trkpt>
      <trkpt lat="37.0448870" lon="-2.4105280">
        <ele>330.9</ele>
        <time>2019-10-18T15:32:36Z</time>
      </trkpt>
      <trkpt lat="37.0448830" lon="-2.4105790">
        <ele>330.8</ele>
        <time>2019-10-18T15:32:37Z</time>
      </trkpt>
      <trkpt lat="37.0448780" lon="-2.4106310">
        <ele>330.6</ele>
        <time>2019-10-18T15:32:38Z</time>
      </trkpt>
      <trkpt lat="37.0448720" lon="-2.4106830">
        <ele>330.5</ele>
        <time>2019-10-18T15:32:39Z</time>
      </trkpt>
      <trkpt lat="37.0448640" lon="-2.4107370">
        <ele>330.4</ele>
        <time>2019-10-18T15:32:40Z</time>
      </trkpt>
      <trkpt lat="37.0448550" lon="-2.4107900">
        <ele>330.3</ele>
        <time>2019-10-18T15:32:41Z</time>
      </trkpt>
      <trkpt lat="37.0448440" lon="-2.4108440">
        <ele>330.2</ele>
        <time>2019-10-18T15:32:42Z</time>
      </trkpt>
      <trkpt lat="37.0448290" lon="-2.4108970">
        <ele>330.2</ele>
        <time>2019-10-18T15:32:43Z</time>
      </trkpt>
      <trkpt lat="37.0448130" lon="-2.4109510">
        <ele>330.1</ele>
        <time>2019-10-18T15:32:44Z</time>
      </trkpt>
      <trkpt lat="37.0447950" lon="-2.4110050">
        <ele>330.1</ele>
        <time>2019-10-18T15:32:45Z</time>
      </trkpt>
      <trkpt lat="37.0447750" lon="-2.4110600">
        <ele>330.1</ele>
        <time>2019-10-18T15:32:46Z</time>
      </trkpt>
      <trkpt lat="37.0447540" lon="-2.4111120">
        <ele>330.0</ele>
        <time>2019-10-18T15:32:47Z</time>
      </trkpt>
      <trkpt lat="37.0447310" lon="-2.4111600">
        <ele>330.0</ele>
        <time>2019-10-18T15:32:48Z</time>
      </trkpt>
      <trkpt lat="37.0447080" lon="-2.4112070">
        <ele>330.0</ele>
        <time>2019-10-18T15:32:49Z</time>
      </trkpt>
      <trkpt lat="37.0446860" lon="-2.4112530">
        <ele>330.0</ele>
        <time>2019-10-18T15:32:50Z</time>
      </trkpt>
      <trkpt lat="37.0446630" lon="-2.4112950">
        <ele>329.9</ele>
        <time>2019-10-18T15:32:51Z</time>
      </trkpt>
      <trkpt lat="37.0446390" lon="-2.4113370">
        <ele>329.9</ele>
        <time>2019-10-18T15:32:52Z</time>
      </trkpt>
      <trkpt lat="37.0446150" lon="-2.4113790">
        <ele>329.8</ele>
        <time>2019-10-18T15:32:53Z</time>
      </trkpt>
      <trkpt lat="37.0445920" lon="-2.4114230">
        <ele>329.7</ele>
        <time>2019-10-18T15:32:54Z</time>
      </trkpt>
      <trkpt lat="37.0445700" lon="-2.4114690">
        <ele>329.6</ele>
        <time>2019-10-18T15:32:55Z</time>
      </trkpt>
      <trkpt lat="37.0445480" lon="-2.4115140">
        <ele>329.5</ele>
        <time>2019-10-18T15:32:56Z</time>
      </trkpt>
      <trkpt lat="37.0445260" lon="-2.4115590">
        <ele>329.4</ele>
        <time>2019-10-18T15:32:57Z</time>
      </trkpt>
      <trkpt lat="37.0445040" lon="-2.4116040">
        <ele>329.3</ele>
        <time>2019-10-18T15:32:58Z</time>
      </trkpt>
      <trkpt lat="37.0444830" lon="-2.4116490">
        <ele>329.3</ele>
        <time>2019-10-18T15:32:59Z</time>
      </trkpt>
      <trkpt lat="37.0444620" lon="-2.4116940">
        <ele>329.2</ele>
        <time>2019-10-18T15:33:00Z</time>
      </trkpt>
      <trkpt lat="37.0444420" lon="-2.4117390">
        <ele>329.1</ele>
        <time>2019-10-18T15:33:01Z</time>
      </trkpt>
      <trkpt lat="37.0444230" lon="-2.4117840">
        <ele>329.1</ele>
        <time>2019-10-18T15:33:02Z</time>
      </trkpt>
      <trkpt lat="37.0444050" lon="-2.4118290">
        <ele>329.0</ele>
        <time>2019-10-18T15:33:03Z</time>
      </trkpt>
      <trkpt lat="37.0443880" lon="-2.4118750">
        <ele>328.9</ele>
        <time>2019-10-18T15:33:04Z</time>
      </trkpt>
      <trkpt lat="37.0443730" lon="-2.4119200">
        <ele>328.9</ele>
        <time>2019-10-18T15:33:05Z</time>
      </trkpt>
      <trkpt lat="37.0443600" lon="-2.4119650">
        <ele>328.8</ele>
        <time>2019-10-18T15:33:06Z</time>
      </trkpt>
      <trkpt lat="37.0443460" lon="-2.4120110">
        <ele>328.7</ele>
        <time>2019-10-18T15:33:07Z</time>
      </trkpt>
      <trkpt lat="37.0443330" lon="-2.4120580">
        <ele>328.6</ele>
        <time>2019-10-18T15:33:08Z</time>
      </trkpt>
      <trkpt lat="37.0443220" lon="-2.4121060">
        <ele>328.6</ele>
        <time>2019-10-18T15:33:09Z</time>
      </trkpt>
      <trkpt lat="37.0443130" lon="-2.4121570">
        <ele>328.5</ele>
        <time>2019-10-18T15:33:10Z</time>
      </trkpt>
      <trkpt lat="37.0443050" lon="-2.4122070">
        <ele>328.4</ele>
        <time>2019-10-18T15:33:11Z</time>
      </trkpt>
      <trkpt lat="37.0442970" lon="-2.4122560">
        <ele>328.3</ele>
        <time>2019-10-18T15:33:12Z</time>
      </trkpt>
      <trkpt lat="37.0442900" lon="-2.4123040">
        <ele>328.2</ele>
        <time>2019-10-18T15:33:13Z</time>
      </trkpt>
      <trkpt lat="37.0442830" lon="-2.4123510">
        <ele>328.2</ele>
        <time>2019-10-18T15:33:14Z</time>
      </trkpt>
      <trkpt lat="37.0442760" lon="-2.4123960">
        <ele>328.1</ele>
        <time>2019-10-18T15:33:15Z</time>
      </trkpt>
      <trkpt lat="37.0442690" lon="-2.4124390">
        <ele>328.1</ele>
        <time>2019-10-18T15:33:16Z</time>
      </trkpt>
      <trkpt lat="37.0442610" lon="-2.4124830">
        <ele>328.1</ele>
        <time>2019-10-18T15:33:17Z</time>
      </trkpt>
      <trkpt lat="37.0442520" lon="-2.4125270">
        <ele>328.0</ele>
        <time>2019-10-18T15:33:18Z</time>
      </trkpt>
      <trkpt lat="37.0442420" lon="-2.4125690">
        <ele>328.0</ele>
        <time>2019-10-18T15:33:19Z</time>
      </trkpt>
      <trkpt lat="37.0442310" lon="-2.4126120">
        <ele>328.0</ele>
        <time>2019-10-18T15:33:20Z</time>
      </trkpt>
      <trkpt lat="37.0442190" lon="-2.4126560">
        <ele>328.0</ele>
        <time>2019-10-18T15:33:21Z</time>
      </trkpt>
      <trkpt lat="37.0442070" lon="-2.4127000">
        <ele>328.0</ele>
        <time>2019-10-18T15:33:22Z</time>
      </trkpt>
      <trkpt lat="37.0441930" lon="-2.4127460">
        <ele>328.0</ele>
        <time>2019-10-18T15:33:23Z</time>
      </trkpt>
      <trkpt lat="37.0441780" lon="-2.4127920">
        <ele>328.0</ele>
        <time>2019-10-18T15:33:24Z</time>
      </trkpt>
      <trkpt lat="37.0441630" lon="-2.4128380">
        <ele>328.0</ele>
        <time>2019-10-18T15:33:25Z</time>
      </trkpt>
      <trkpt lat="37.0441490" lon="-2.4128820">
        <ele>328.0</ele>
        <time>2019-10-18T15:33:26Z</time>
      </trkpt>
      <trkpt lat="37.0441340" lon="-2.4129250">
        <ele>328.0</ele>
        <time>2019-10-18T15:33:27Z</time>
      </trkpt>
      <trkpt lat="37.0441180" lon="-2.4129690">
        <ele>328.0</ele>
        <time>2019-10-18T15:33:28Z</time>
      </trkpt>
      <trkpt lat="37.0440990" lon="-2.4130130">
        <ele>328.0</ele>
        <time>2019-10-18T15:33:29Z</time>
      </trkpt>
      <trkpt lat="37.0440770" lon="-2.4130570">
        <ele>328.0</ele>
        <time>2019-10-18T15:33:30Z</time>
      </trkpt>
      <trkpt lat="37.0440540" lon="-2.4131010">
        <ele>328.0</ele>
        <time>2019-10-18T15:33:31Z</time>
      </trkpt>
      <trkpt lat="37.0440280" lon="-2.4131440">
        <ele>328.0</ele>
        <time>2019-10-18T15:33:32Z</time>
      </trkpt>
      <trkpt lat="37.0440010" lon="-2.4131870">
        <ele>328.0</ele>
        <time>2019-10-18T15:33:33Z</time>
      </trkpt>
      <trkpt lat="37.0439740" lon="-2.4132290">
        <ele>327.9</ele>
        <time>2019-10-18T15:33:34Z</time>
      </trkpt>
      <trkpt lat="37.0439480" lon="-2.4132720">
        <ele>327.8</ele>
        <time>2019-10-18T15:33:35Z</time>
      </trkpt>
      <trkpt lat="37.0439230" lon="-2.4133150">
        <ele>327.7</ele>
        <time>2019-10-18T15:33:36Z</time>
      </trkpt>
      <trkpt lat="37.0439000" lon="-2.4133610">
        <ele>327.6</ele>
        <time>2019-10-18T15:33:37Z</time>
      </trkpt>
      <trkpt lat="37.0438770" lon="-2.4134080">
        <ele>327.5</ele>
        <time>2019-10-18T15:33:38Z</time>
      </trkpt>
      <trkpt lat="37.0438570" lon="-2.4134570">
        <ele>327.3</ele>
        <time>2019-10-18T15:33:39Z</time>
      </trkpt>
      <trkpt lat="37.0438410" lon="-2.4135080">
        <ele>327.3</ele>
        <time>2019-10-18T15:33:40Z</time>
      </trkpt>
      <trkpt lat="37.0438300" lon="-2.4135600">
        <ele>327.2</ele>
        <time>2019-10-18T15:33:41Z</time>
      </trkpt>
      <trkpt lat="37.0438230" lon="-2.4136130">
        <ele>327.2</ele>
        <time>2019-10-18T15:33:42Z</time>
      </trkpt>
      <trkpt lat="37.0438170" lon="-2.4136660">
        <ele>327.2</ele>
        <time>2019-10-18T15:33:43Z</time>
      </trkpt>
      <trkpt lat="37.0438130" lon="-2.4137190">
        <ele>327.2</ele>
        <time>2019-10-18T15:33:44Z</time>
      </trkpt>
      <trkpt lat="37.0438120" lon="-2.4137710">
        <ele>327.1</ele>
        <time>2019-10-18T15:33:45Z</time>
      </trkpt>
      <trkpt lat="37.0438130" lon="-2.4138250">
        <ele>327.1</ele>
        <time>2019-10-18T15:33:46Z</time>
      </trkpt>
      <trkpt lat="37.0438170" lon="-2.4138800">
        <ele>327.1</ele>
        <time>2019-10-18T15:33:47Z</time>
      </trkpt>
      <trkpt lat="37.0438220" lon="-2.4139350">
        <ele>327.1</ele>
        <time>2019-10-18T15:33:48Z</time>
      </trkpt>
      <trkpt lat="37.0438260" lon="-2.4139890">
        <ele>327.1</ele>
        <time>2019-10-18T15:33:49Z</time>
      </trkpt>
      <trkpt lat="37.0438300" lon="-2.4140430">
        <ele>327.1</ele>
        <time>2019-10-18T15:33:50Z</time>
      </trkpt>
      <trkpt lat="37.0438330" lon="-2.4140970">
        <ele>327.0</ele>
        <time>2019-10-18T15:33:51Z</time>
      </trkpt>
      <trkpt lat="37.0438360" lon="-2.4141520">
        <ele>326.9</ele>
        <time>2019-10-18T15:33:52Z</time>
      </trkpt>
      <trkpt lat="37.0438380" lon="-2.4142080">
        <ele>326.8</ele>
        <time>2019-10-18T15:33:53Z</time>
      </trkpt>
      <trkpt lat="37.0438400" lon="-2.4142640">
        <ele>326.6</ele>
        <time>2019-10-18T15:33:54Z</time>
      </trkpt>
      <trkpt lat="37.0438420" lon="-2.4143190">
        <ele>326.5</ele>
        <time>2019-10-18T15:33:55Z</time>
      </trkpt>
      <trkpt lat="37.0438440" lon="-2.4143740">
        <ele>326.4</ele>
        <time>2019-10-18T15:33:56Z</time>
      </trkpt>
      <trkpt lat="37.0438470" lon="-2.4144290">
        <ele>326.3</ele>
        <time>2019-10-18T15:33:57Z</time>
      </trkpt>
      <trkpt lat="37.0438530" lon="-2.4144840">
        <ele>326.3</ele>
        <time>2019-10-18T15:33:58Z</time>
      </trkpt>
      <trkpt lat="37.0438590" lon="-2.4145400">
        <ele>326.3</ele>
        <time>2019-10-18T15:33:59Z</time>
      </trkpt>
      <trkpt lat="37.0438640" lon="-2.4145970">
        <ele>326.2</ele>
        <time>2019-10-18T15:34:00Z</time>
      </trkpt>
      <trkpt lat="37.0438680" lon="-2.4146540">
        <ele>326.2</ele>
        <time>2019-10-18T15:34:01Z</time>
      </trkpt>
      <trkpt lat="37.0438700" lon="-2.4147110">
        <ele>326.2</ele>
        <time>2019-10-18T15:34:02Z</time>
      </trkpt>
      <trkpt lat="37.0438710" lon="-2.4147680">
        <ele>326.1</ele>
        <time>2019-10-18T15:34:03Z</time>
      </trkpt>
      <trkpt lat="37.0438720" lon="-2.4148260">
        <ele>326.1</ele>
        <time>2019-10-18T15:34:04Z</time>
      </trkpt>
      <trkpt lat="37.0438720" lon="-2.4148830">
        <ele>326.0</ele>
        <time>2019-10-18T15:34:05Z</time>
      </trkpt>
      <trkpt lat="37.0438710" lon="-2.4149400">
        <ele>325.9</ele>
        <time>2019-10-18T15:34:06Z</time>
      </trkpt>
      <trkpt lat="37.0438700" lon="-2.4149960">
        <ele>325.8</ele>
        <time>2019-10-18T15:34:07Z</time>
      </trkpt>
      <trkpt lat="37.0438670" lon="-2.4150520">
        <ele>325.7</ele>
        <time>2019-10-18T15:34:08Z</time>
      </trkpt>
      <trkpt lat="37.0438640" lon="-2.4151080">
        <ele>325.5</ele>
        <time>2019-10-18T15:34:09Z</time>
      </trkpt>
      <trkpt lat="37.0438610" lon="-2.4151630">
        <ele>325.5</ele>
        <time>2019-10-18T15:34:10Z</time>
      </trkpt>
      <trkpt lat="37.0438590" lon="-2.4152180">
        <ele>325.4</ele>
        <time>2019-10-18T15:34:11Z</time>
      </trkpt>
      <trkpt lat="37.0438580" lon="-2.4152730">
        <ele>325.4</ele>
        <time>2019-10-18T15:34:12Z</time>
      </trkpt>
      <trkpt lat="37.0438580" lon="-2.4153280">
        <ele>325.3</ele>
        <time>2019-10-18T15:34:13Z</time>
      </trkpt>
      <trkpt lat="37.0438570" lon="-2.4153820">
        <ele>325.3</ele>
        <time>2019-10-18T15:34:14Z</time>
      </trkpt>
      <trkpt lat="37.0438550" lon="-2.4154360">
        <ele>325.3</ele>
        <time>2019-10-18T15:34:15Z</time>
      </trkpt>
      <trkpt lat="37.0438520" lon="-2.4154890">
        <ele>325.3</ele>
        <time>2019-10-18T15:34:16Z</time>
      </trkpt>
      <trkpt lat="37.0438490" lon="-2.4155430">
        <ele>325.3</ele>
        <time>2019-10-18T15:34:17Z</time>
      </trkpt>
      <trkpt lat="37.0438460" lon="-2.4155980">
        <ele>325.3</ele>
        <time>2019-10-18T15:34:18Z</time>
      </trkpt>
      <trkpt lat="37.0438450" lon="-2.4156530">
        <ele>325.3</ele>
        <time>2019-10-18T15:34:19Z</time>
      </trkpt>
      <trkpt lat="37.0438440" lon="-2.4157090">
        <ele>325.3</ele>
        <time>2019-10-18T15:34:20Z</time>
      </trkpt>
      <trkpt lat="37.0438430" lon="-2.4157660">
        <ele>325.2</ele>
        <time>2019-10-18T15:34:21Z</time>
      </trkpt>
      <trkpt lat="37.0438420" lon="-2.4158210">
        <ele>325.2</ele>
        <time>2019-10-18T15:34:22Z</time>
      </trkpt>
      <trkpt lat="37.0438400" lon="-2.4158750">
        <ele>325.1</ele>
        <time>2019-10-18T15:34:23Z</time>
      </trkpt>
      <trkpt lat="37.0438390" lon="-2.4159280">
        <ele>325.1</ele>
        <time>2019-10-18T15:34:24Z</time>
      </trkpt>
      <trkpt lat="37.0438370" lon="-2.4159800">
        <ele>325.0</ele>
        <time>2019-10-18T15:34:25Z</time>
      </trkpt>
      <trkpt lat="37.0438360" lon="-2.4160340">
        <ele>324.9</ele>
        <time>2019-10-18T15:34:26Z</time>
      </trkpt>
      <trkpt lat="37.0438340" lon="-2.4160870">
        <ele>324.8</ele>
        <time>2019-10-18T15:34:27Z</time>
      </trkpt>
      <trkpt lat="37.0438300" lon="-2.4161400">
        <ele>324.7</ele>
        <time>2019-10-18T15:34:28Z</time>
      </trkpt>
      <trkpt lat="37.0438250" lon="-2.4161930">
        <ele>324.5</ele>
        <time>2019-10-18T15:34:29Z</time>
      </trkpt>
      <trkpt lat="37.0438200" lon="-2.4162470">
        <ele>324.4</ele>
        <time>2019-10-18T15:34:30Z</time>
      </trkpt>
      <trkpt lat="37.0438140" lon="-2.4163000">
        <ele>324.3</ele>
        <time>2019-10-18T15:34:31Z</time>
      </trkpt>
      <trkpt lat="37.0438060" lon="-2.4163520">
        <ele>324.3</ele>
        <time>2019-10-18T15:34:32Z</time>
      </trkpt>
      <trkpt lat="37.0437970" lon="-2.4164040">
        <ele>324.2</ele>
        <time>2019-10-18T15:34:33Z</time>
      </trkpt>
      <trkpt lat="37.0437870" lon="-2.4164550">
        <ele>324.1</ele>
        <time>2019-10-18T15:34:34Z</time>
      </trkpt>
      <trkpt lat="37.0437770" lon="-2.4165070">
        <ele>324.0</ele>
        <time>2019-10-18T15:34:35Z</time>
      </trkpt>
      <trkpt lat="37.0437650" lon="-2.4165590">
        <ele>323.9</ele>
        <time>2019-10-18T15:34:36Z</time>
      </trkpt>
      <trkpt lat="37.0437520" lon="-2.4166110">
        <ele>323.7</ele>
        <time>2019-10-18T15:34:37Z</time>
      </trkpt>
      <trkpt lat="37.0437370" lon="-2.4166620">
        <ele>323.6</ele>
        <time>2019-10-18T15:34:38Z</time>
      </trkpt>
      <trkpt lat="37.0437200" lon="-2.4167120">
        <ele>323.6</ele>
        <time>2019-10-18T15:34:39Z</time>
      </trkpt>
      <trkpt lat="37.0437040" lon="-2.4167630">
        <ele>323.5</ele>
        <time>2019-10-18T15:34:40Z</time>
      </trkpt>
      <trkpt lat="37.0436870" lon="-2.4168140">
        <ele>323.5</ele>
        <time>2019-10-18T15:34:41Z</time>
      </trkpt>
      <trkpt lat="37.0436700" lon="-2.4168640">
        <ele>323.5</ele>
        <time>2019-10-18T15:34:42Z</time>
      </trkpt>
      <trkpt lat="37.0436540" lon="-2.4169150">
        <ele>323.5</ele>
        <time>2019-10-18T15:34:43Z</time>
      </trkpt>
      <trkpt lat="37.0436370" lon="-2.4169640">
        <ele>323.5</ele>
        <time>2019-10-18T15:34:44Z</time>
      </trkpt>
      <trkpt lat="37.0436220" lon="-2.4170140">
        <ele>323.5</ele>
        <time>2019-10-18T15:34:45Z</time>
      </trkpt>
      <trkpt lat="37.0436100" lon="-2.4170630">
        <ele>323.5</ele>
        <time>2019-10-18T15:34:46Z</time>
      </trkpt>
      <trkpt lat="37.0436000" lon="-2.4171120">
        <ele>323.5</ele>
        <time>2019-10-18T15:34:47Z</time>
      </trkpt>
      <trkpt lat="37.0435920" lon="-2.4171590">
        <ele>323.5</ele>
        <time>2019-10-18T15:34:48Z</time>
      </trkpt>
      <trkpt lat="37.0435850" lon="-2.4172060">
        <ele>323.5</ele>
        <time>2019-10-18T15:34:49Z</time>
      </trkpt>
      <trkpt lat="37.0435790" lon="-2.4172510">
        <ele>323.5</ele>
        <time>2019-10-18T15:34:50Z</time>
      </trkpt>
      <trkpt lat="37.0435740" lon="-2.4172930">
        <ele>323.5</ele>
        <time>2019-10-18T15:34:51Z</time>
      </trkpt>
      <trkpt lat="37.0435670" lon="-2.4173290">
        <ele>323.5</ele>
        <time>2019-10-18T15:34:52Z</time>
      </trkpt>
      <trkpt lat="37.0435590" lon="-2.4173590">
        <ele>323.5</ele>
        <time>2019-10-18T15:34:53Z</time>
      </trkpt>
      <trkpt lat="37.0435500" lon="-2.4173800">
        <ele>323.5</ele>
        <time>2019-10-18T15:34:54Z</time>
      </trkpt>
      <trkpt lat="37.0435430" lon="-2.4173930">
        <ele>323.5</ele>
        <time>2019-10-18T15:34:55Z</time>
      </trkpt>
      <trkpt lat="37.0435380" lon="-2.4173990">
        <ele>323.5</ele>
        <time>2019-10-18T15:34:56Z</time>
      </trkpt>
      <trkpt lat="37.0435360" lon="-2.4174020">
        <ele>323.5</ele>
        <time>2019-10-18T15:34:57Z</time>
      </trkpt>
      <trkpt lat="37.0435350" lon="-2.4174030">
        <ele>323.5</ele>
        <time>2019-10-18T15:34:58Z</time>
      </trkpt>
      <trkpt lat="37.0435360" lon="-2.4174040">
        <ele>323.5</ele>
        <time>2019-10-18T15:34:59Z</time>
      </trkpt>
      <trkpt lat="37.0435370" lon="-2.4174050">
        <ele>323.5</ele>
        <time>2019-10-18T15:35:00Z</time>
      </trkpt>
      <trkpt lat="37.0435380" lon="-2.4174050">
        <ele>323.5</ele>
        <time>2019-10-18T15:35:01Z</time>
      </trkpt>
      <trkpt lat="37.0435390" lon="-2.4174060">
        <ele>323.5</ele>
        <time>2019-10-18T15:35:02Z</time>
      </trkpt>
      <trkpt lat="37.0435390" lon="-2.4174060">
        <ele>323.5</ele>
        <time>2019-10-18T15:35:03Z</time>
      </trkpt>
      <trkpt lat="37.0435400" lon="-2.4174070">
        <ele>323.5</ele>
        <time>2019-10-18T15:35:04Z</time>
      </trkpt>
      <trkpt lat="37.0435400" lon="-2.4174070">
        <ele>323.5</ele>
        <time>2019-10-18T15:35:05Z</time>
      </trkpt>
      <trkpt lat="37.0435400" lon="-2.4174080">
        <ele>323.5</ele>
        <time>2019-10-18T15:35:06Z</time>
      </trkpt>
      <trkpt lat="37.0435400" lon="-2.4174080">
        <ele>323.5</ele>
        <time>2019-10-18T15:35:07Z</time>
      </trkpt>
      <trkpt lat="37.0435400" lon="-2.4174080">
        <ele>323.5</ele>
        <time>2019-10-18T15:35:08Z</time>
      </trkpt>
      <trkpt lat="37.0435400" lon="-2.4174080">
        <ele>323.5</ele>
        <time>2019-10-18T15:35:09Z</time>
      </trkpt>
      <trkpt lat="37.0435410" lon="-2.4174080">
        <ele>323.5</ele>
        <time>2019-10-18T15:35:10Z</time>
      </trkpt>
      <trkpt lat="37.0435400" lon="-2.4174090">
        <ele>323.5</ele>
        <time>2019-10-18T15:35:11Z</time>
      </trkpt>
      <trkpt lat="37.0435380" lon="-2.4174110">
        <ele>323.5</ele>
        <time>2019-10-18T15:35:12Z</time>
      </trkpt>
      <trkpt lat="37.0435330" lon="-2.4174100">
        <ele>323.5</ele>
        <time>2019-10-18T15:35:13Z</time>
      </trkpt>
      <trkpt lat="37.0435250" lon="-2.4174040">
        <ele>323.5</ele>
        <time>2019-10-18T15:35:14Z</time>
      </trkpt>
      <trkpt lat="37.0435160" lon="-2.4173920">
        <ele>323.5</ele>
        <time>2019-10-18T15:35:15Z</time>
      </trkpt>
      <trkpt lat="37.0435080" lon="-2.4173760">
        <ele>323.5</ele>
        <time>2019-10-18T15:35:16Z</time>
      </trkpt>
      <trkpt lat="37.0435020" lon="-2.4173560">
        <ele>323.5</ele>
        <time>2019-10-18T15:35:17Z</time>
      </trkpt>
      <trkpt lat="37.0434950" lon="-2.4173320">
        <ele>323.5</ele>
        <time>2019-10-18T15:35:18Z</time>
      </trkpt>
      <trkpt lat="37.0434860" lon="-2.4173070">
        <ele>323.5</ele>
        <time>2019-10-18T15:35:19Z</time>
      </trkpt>
      <trkpt lat="37.0434760" lon="-2.4172800">
        <ele>323.5</ele>
        <time>2019-10-18T15:35:20Z</time>
      </trkpt>
      <trkpt lat="37.0434660" lon="-2.4172520">
        <ele>323.5</ele>
        <time>2019-10-18T15:35:21Z</time>
      </trkpt>
      <trkpt lat="37.0434550" lon="-2.4172250">
        <ele>323.5</ele>
        <time>2019-10-18T15:35:22Z</time>
      </trkpt>
      <trkpt lat="37.0434450" lon="-2.4171970">
        <ele>323.5</ele>
        <time>2019-10-18T15:35:23Z</time>
      </trkpt>
      <trkpt lat="37.0434350" lon="-2.4171690">
        <ele>323.5</ele>
        <time>2019-10-18T15:35:24Z</time>
      </trkpt>
      <trkpt lat="37.0434260" lon="-2.4171390">
        <ele>323.5</ele>
        <time>2019-10-18T15:35:25Z</time>
      </trkpt>
      <trkpt lat="37.0434180" lon="-2.4171100">
        <ele>323.6</ele>
        <time>2019-10-18T15:35:26Z</time>
      </trkpt>
      <trkpt lat="37.0434110" lon="-2.4170820">
        <ele>323.6</ele>
        <time>2019-10-18T15:35:27Z</time>
      </trkpt>
      <trkpt lat="37.0434070" lon="-2.4170590">
        <ele>323.7</ele>
        <time>2019-10-18T15:35:28Z</time>
      </trkpt>
      <trkpt lat="37.0434040" lon="-2.4170430">
        <ele>323.7</ele>
        <time>2019-10-18T15:35:29Z</time>
      </trkpt>
      <trkpt lat="37.0434030" lon="-2.4170350">
        <ele>323.7</ele>
        <time>2019-10-18T15:35:30Z</time>
      </trkpt>
      <trkpt lat="37.0434020" lon="-2.4170310">
        <ele>323.8</ele>
        <time>2019-10-18T15:35:31Z</time>
      </trkpt>
      <trkpt lat="37.0434020" lon="-2.4170260">
        <ele>323.8</ele>
        <time>2019-10-18T15:35:32Z</time>
      </trkpt>
      <trkpt lat="37.0434020" lon="-2.4170210">
        <ele>323.8</ele>
        <time>2019-10-18T15:35:33Z</time>
      </trkpt>
      <trkpt lat="37.0434030" lon="-2.4170140">
        <ele>323.8</ele>
        <time>2019-10-18T15:35:34Z</time>
      </trkpt>
      <trkpt lat="37.0434070" lon="-2.4170070">
        <ele>323.7</ele>
        <time>2019-10-18T15:35:35Z</time>
      </trkpt>
      <trkpt lat="37.0434110" lon="-2.4170000">
        <ele>323.7</ele>
        <time>2019-10-18T15:35:36Z</time>
      </trkpt>
      <trkpt lat="37.0434160" lon="-2.4169920">
        <ele>323.7</ele>
        <time>2019-10-18T15:35:37Z</time>
      </trkpt>
      <trkpt lat="37.0434210" lon="-2.4169820">
        <ele>323.7</ele>
        <time>2019-10-18T15:35:38Z</time>
      </trkpt>
      <trkpt lat="37.0434240" lon="-2.4169720">
        <ele>323.7</ele>
        <time>2019-10-18T15:35:39Z</time>
      </trkpt>
      <trkpt lat="37.0434270" lon="-2.4169630">
        <ele>323.7</ele>
        <time>2019-10-18T15:35:40Z</time>
      </trkpt>
      <trkpt lat="37.0434310" lon="-2.4169540">
        <ele>323.7</ele>
        <time>2019-10-18T15:35:41Z</time>
      </trkpt>
      <trkpt lat="37.0434340" lon="-2.4169450">
        <ele>323.7</ele>
        <time>2019-10-18T15:35:42Z</time>
      </trkpt>
      <trkpt lat="37.0434370" lon="-2.4169370">
        <ele>323.7</ele>
        <time>2019-10-18T15:35:43Z</time>
      </trkpt>
      <trkpt lat="37.0434380" lon="-2.4169310">
        <ele>323.6</ele>
        <time>2019-10-18T15:35:44Z</time>
      </trkpt>
      <trkpt lat="37.0434380" lon="-2.4169280">
        <ele>323.6</ele>
        <time>2019-10-18T15:35:45Z</time>
      </trkpt>
      <trkpt lat="37.0434380" lon="-2.4169270">
        <ele>323.6</ele>
        <time>2019-10-18T15:35:46Z</time>
      </trkpt>
      <trkpt lat="37.0434370" lon="-2.4169260">
        <ele>323.6</ele>
        <time>2019-10-18T15:35:47Z</time>
      </trkpt>
      <trkpt lat="37.0434350" lon="-2.4169250">
        <ele>323.6</ele>
        <time>2019-10-18T15:35:48Z</time>
      </trkpt>
      <trkpt lat="37.0434330" lon="-2.4169230">
        <ele>323.6</ele>
        <time>2019-10-18T15:35:49Z</time>
      </trkpt>
      <trkpt lat="37.0434320" lon="-2.4169220">
        <ele>323.6</ele>
        <time>2019-10-18T15:35:50Z</time>
      </trkpt>
      <trkpt lat="37.0434320" lon="-2.4169210">
        <ele>323.6</ele>
        <time>2019-10-18T15:35:51Z</time>
      </trkpt>
      <trkpt lat="37.0434330" lon="-2.4169210">
        <ele>323.6</ele>
        <time>2019-10-18T15:35:52Z</time>
      </trkpt>
      <trkpt lat="37.0434330" lon="-2.4169210">
        <ele>323.6</ele>
        <time>2019-10-18T15:35:53Z</time>
      </trkpt>
      <trkpt lat="37.0434330" lon="-2.4169220">
        <ele>323.6</ele>
        <time>2019-10-18T15:35:54Z</time>
      </trkpt>
      <trkpt lat="37.0434330" lon="-2.4169230">
        <ele>323.6</ele>
        <time>2019-10-18T15:35:55Z</time>
      </trkpt>
      <trkpt lat="37.0434330" lon="-2.4169260">
        <ele>323.6</ele>
        <time>2019-10-18T15:35:56Z</time>
      </trkpt>
      <trkpt lat="37.0434330" lon="-2.4169280">
        <ele>323.6</ele>
        <time>2019-10-18T15:35:57Z</time>
      </trkpt>
      <trkpt lat="37.0434340" lon="-2.4169300">
        <ele>323.6</ele>
        <time>2019-10-18T15:35:58Z</time>
      </trkpt>
      <trkpt lat="37.0434340" lon="-2.4169320">
        <ele>323.6</ele>
        <time>2019-10-18T15:35:59Z</time>
      </trkpt>
      <trkpt lat="37.0434340" lon="-2.4169330">
        <ele>323.6</ele>
        <time>2019-10-18T15:36:00Z</time>
      </trkpt>
      <trkpt lat="37.0434340" lon="-2.4169310">
        <ele>323.6</ele>
        <time>2019-10-18T15:36:01Z</time>
      </trkpt>
      <trkpt lat="37.0434340" lon="-2.4169300">
        <ele>323.6</ele>
        <time>2019-10-18T15:36:02Z</time>
      </trkpt>
      <trkpt lat="37.0434340" lon="-2.4169300">
        <ele>323.6</ele>
        <time>2019-10-18T15:36:03Z</time>
      </trkpt>
      <trkpt lat="37.0434340" lon="-2.4169320">
        <ele>323.6</ele>
        <time>2019-10-18T15:36:04Z</time>
      </trkpt>
      <trkpt lat="37.0434340" lon="-2.4169350">
        <ele>323.6</ele>
        <time>2019-10-18T15:36:05Z</time>
      </trkpt>
      <trkpt lat="37.0434340" lon="-2.4169380">
        <ele>323.6</ele>
        <time>2019-10-18T15:36:06Z</time>
      </trkpt>
      <trkpt lat="37.0434340" lon="-2.4169400">
        <ele>323.6</ele>
        <time>2019-10-18T15:36:07Z</time>
      </trkpt>
      <trkpt lat="37.0434340" lon="-2.4169410">
        <ele>323.6</ele>
        <time>2019-10-18T15:36:08Z</time>
      </trkpt>
      <trkpt lat="37.0434340" lon="-2.4169420">
        <ele>323.6</ele>
        <time>2019-10-18T15:36:09Z</time>
      </trkpt>
      <trkpt lat="37.0434350" lon="-2.4169430">
        <ele>323.6</ele>
        <time>2019-10-18T15:36:10Z</time>
      </trkpt>
      <trkpt lat="37.0434340" lon="-2.4169440">
        <ele>323.6</ele>
        <time>2019-10-18T15:36:11Z</time>
      </trkpt>
      <trkpt lat="37.0434350" lon="-2.4169440">
        <ele>323.6</ele>
        <time>2019-10-18T15:36:12Z</time>
      </trkpt>
      <trkpt lat="37.0434350" lon="-2.4169440">
        <ele>323.6</ele>
        <time>2019-10-18T15:36:13Z</time>
      </trkpt>
      <trkpt lat="37.0434360" lon="-2.4169440">
        <ele>323.6</ele>
        <time>2019-10-18T15:36:14Z</time>
      </trkpt>
      <trkpt lat="37.0434370" lon="-2.4169450">
        <ele>323.6</ele>
        <time>2019-10-18T15:36:15Z</time>
      </trkpt>
      <trkpt lat="37.0434370" lon="-2.4169450">
        <ele>323.6</ele>
        <time>2019-10-18T15:36:16Z</time>
      </trkpt>
      <trkpt lat="37.0434380" lon="-2.4169440">
        <ele>323.6</ele>
        <time>2019-10-18T15:36:17Z</time>
      </trkpt>
      <trkpt lat="37.0434380" lon="-2.4169430">
        <ele>323.6</ele>
        <time>2019-10-18T15:36:18Z</time>
      </trkpt>
      <trkpt lat="37.0434370" lon="-2.4169400">
        <ele>323.6</ele>
        <time>2019-10-18T15:36:19Z</time>
      </trkpt>
      <trkpt lat="37.0434350" lon="-2.4169390">
        <ele>323.6</ele>
        <time>2019-10-18T15:36:20Z</time>
      </trkpt>
      <trkpt lat="37.0434330" lon="-2.4169380">
        <ele>323.6</ele>
        <time>2019-10-18T15:36:21Z</time>
      </trkpt>
      <trkpt lat="37.0434340" lon="-2.4169370">
        <ele>323.6</ele>
        <time>2019-10-18T15:36:22Z</time>
      </trkpt>
      <trkpt lat="37.0434340" lon="-2.4169360">
        <ele>323.6</ele>
        <time>2019-10-18T15:36:23Z</time>
      </trkpt>
      <trkpt lat="37.0434330" lon="-2.4169340">
        <ele>323.6</ele>
        <time>2019-10-18T15:36:24Z</time>
      </trkpt>
      <trkpt lat="37.0434330" lon="-2.4169350">
        <ele>323.6</ele>
        <time>2019-10-18T15:36:25Z</time>
      </trkpt>
      <trkpt lat="37.0434320" lon="-2.4169350">
        <ele>323.6</ele>
        <time>2019-10-18T15:36:26Z</time>
      </trkpt>
      <trkpt lat="37.0434320" lon="-2.4169360">
        <ele>323.6</ele>
        <time>2019-10-18T15:36:27Z</time>
      </trkpt>
      <trkpt lat="37.0434310" lon="-2.4169370">
        <ele>323.6</ele>
        <time>2019-10-18T15:36:28Z</time>
      </trkpt>
      <trkpt lat="37.0434290" lon="-2.4169380">
        <ele>323.6</ele>
        <time>2019-10-18T15:36:29Z</time>
      </trkpt>
      <trkpt lat="37.0434280" lon="-2.4169400">
        <ele>323.6</ele>
        <time>2019-10-18T15:36:30Z</time>
      </trkpt>
      <trkpt lat="37.0434270" lon="-2.4169420">
        <ele>323.6</ele>
        <time>2019-10-18T15:36:31Z</time>
      </trkpt>
      <trkpt lat="37.0434270" lon="-2.4169440">
        <ele>323.6</ele>
        <time>2019-10-18T15:36:32Z</time>
      </trkpt>
      <trkpt lat="37.0434260" lon="-2.4169450">
        <ele>323.6</ele>
        <time>2019-10-18T15:36:33Z</time>
      </trkpt>
      <trkpt lat="37.0434250" lon="-2.4169470">
        <ele>323.6</ele>
        <time>2019-10-18T15:36:34Z</time>
      </trkpt>
      <trkpt lat="37.0434240" lon="-2.4169510">
        <ele>323.5</ele>
        <time>2019-10-18T15:36:35Z</time>
      </trkpt>
      <trkpt lat="37.0434220" lon="-2.4169550">
        <ele>323.5</ele>
        <time>2019-10-18T15:36:36Z</time>
      </trkpt>
      <trkpt lat="37.0434210" lon="-2.4169590">
        <ele>323.5</ele>
        <time>2019-10-18T15:36:37Z</time>
      </trkpt>
      <trkpt lat="37.0434190" lon="-2.4169640">
        <ele>323.5</ele>
        <time>2019-10-18T15:36:38Z</time>
      </trkpt>
      <trkpt lat="37.0434170" lon="-2.4169690">
        <ele>323.5</ele>
        <time>2019-10-18T15:36:39Z</time>
      </trkpt>
      <trkpt lat="37.0434150" lon="-2.4169730">
        <ele>323.5</ele>
        <time>2019-10-18T15:36:40Z</time>
      </trkpt>
      <trkpt lat="37.0434140" lon="-2.4169760">
        <ele>323.5</ele>
        <time>2019-10-18T15:36:41Z</time>
      </trkpt>
      <trkpt lat="37.0434140" lon="-2.4169780">
        <ele>323.5</ele>
        <time>2019-10-18T15:36:42Z</time>
      </trkpt>
      <trkpt lat="37.0434140" lon="-2.4169790">
        <ele>323.5</ele>
        <time>2019-10-18T15:36:43Z</time>
      </trkpt>
      <trkpt lat="37.0434140" lon="-2.4169800">
        <ele>323.5</ele>
        <time>2019-10-18T15:36:44Z</time>
      </trkpt>
      <trkpt lat="37.0434140" lon="-2.4169780">
        <ele>323.5</ele>
        <time>2019-10-18T15:36:45Z</time>
      </trkpt>
      <trkpt lat="37.0434140" lon="-2.4169750">
        <ele>323.5</ele>
        <time>2019-10-18T15:36:46Z</time>
      </trkpt>
      <trkpt lat="37.0434150" lon="-2.4169740">
        <ele>323.5</ele>
        <time>2019-10-18T15:36:47Z</time>
      </trkpt>
      <trkpt lat="37.0434150" lon="-2.4169740">
        <ele>323.5</ele>
        <time>2019-10-18T15:36:48Z</time>
      </trkpt>
      <trkpt lat="37.0434160" lon="-2.4169750">
        <ele>323.5</ele>
        <time>2019-10-18T15:36:49Z</time>
      </trkpt>
      <trkpt lat="37.0434170" lon="-2.4169760">
        <ele>323.5</ele>
        <time>2019-10-18T15:36:50Z</time>
      </trkpt>
      <trkpt lat="37.0434180" lon="-2.4169770">
        <ele>323.5</ele>
        <time>2019-10-18T15:36:51Z</time>
      </trkpt>
      <trkpt lat="37.0434190" lon="-2.4169790">
        <ele>323.5</ele>
        <time>2019-10-18T15:36:52Z</time>
      </trkpt>
      <trkpt lat="37.0434190" lon="-2.4169810">
        <ele>323.5</ele>
        <time>2019-10-18T15:36:53Z</time>
      </trkpt>
      <trkpt lat="37.0434190" lon="-2.4169830">
        <ele>323.5</ele>
        <time>2019-10-18T15:36:54Z</time>
      </trkpt>
      <trkpt lat="37.0434200" lon="-2.4169860">
        <ele>323.5</ele>
        <time>2019-10-18T15:36:55Z</time>
      </trkpt>
      <trkpt lat="37.0434200" lon="-2.4169890">
        <ele>323.5</ele>
        <time>2019-10-18T15:36:56Z</time>
      </trkpt>
      <trkpt lat="37.0434210" lon="-2.4169870">
        <ele>323.5</ele>
        <time>2019-10-18T15:36:57Z</time>
      </trkpt>
      <trkpt lat="37.0434220" lon="-2.4169830">
        <ele>323.5</ele>
        <time>2019-10-18T15:36:58Z</time>
      </trkpt>
      <trkpt lat="37.0434220" lon="-2.4169780">
        <ele>323.5</ele>
        <time>2019-10-18T15:36:59Z</time>
      </trkpt>
      <trkpt lat="37.0434230" lon="-2.4169730">
        <ele>323.5</ele>
        <time>2019-10-18T15:37:00Z</time>
      </trkpt>
      <trkpt lat="37.0434230" lon="-2.4169680">
        <ele>323.5</ele>
        <time>2019-10-18T15:37:01Z</time>
      </trkpt>
      <trkpt lat="37.0434240" lon="-2.4169640">
        <ele>323.5</ele>
        <time>2019-10-18T15:37:02Z</time>
      </trkpt>
      <trkpt lat="37.0434240" lon="-2.4169600">
        <ele>323.5</ele>
        <time>2019-10-18T15:37:03Z</time>
      </trkpt>
      <trkpt lat="37.0434240" lon="-2.4169570">
        <ele>323.5</ele>
        <time>2019-10-18T15:37:04Z</time>
      </trkpt>
      <trkpt lat="37.0434240" lon="-2.4169560">
        <ele>323.5</ele>
        <time>2019-10-18T15:37:05Z</time>
      </trkpt>
      <trkpt lat="37.0434230" lon="-2.4169550">
        <ele>323.5</ele>
        <time>2019-10-18T15:37:06Z</time>
      </trkpt>
      <trkpt lat="37.0434230" lon="-2.4169540">
        <ele>323.5</ele>
        <time>2019-10-18T15:37:07Z</time>
      </trkpt>
      <trkpt lat="37.0434230" lon="-2.4169530">
        <ele>323.5</ele>
        <time>2019-10-18T15:37:08Z</time>
      </trkpt>
      <trkpt lat="37.0434230" lon="-2.4169520">
        <ele>323.5</ele>
        <time>2019-10-18T15:37:09Z</time>
      </trkpt>
      <trkpt lat="37.0434230" lon="-2.4169510">
        <ele>323.5</ele>
        <time>2019-10-18T15:37:10Z</time>
      </trkpt>
      <trkpt lat="37.0434230" lon="-2.4169500">
        <ele>323.5</ele>
        <time>2019-10-18T15:37:11Z</time>
      </trkpt>
      <trkpt lat="37.0434230" lon="-2.4169480">
        <ele>323.5</ele>
        <time>2019-10-18T15:37:12Z</time>
      </trkpt>
      <trkpt lat="37.0434240" lon="-2.4169470">
        <ele>323.5</ele>
        <time>2019-10-18T15:37:13Z</time>
      </trkpt>
      <trkpt lat="37.0434240" lon="-2.4169460">
        <ele>323.5</ele>
        <time>2019-10-18T15:37:14Z</time>
      </trkpt>
      <trkpt lat="37.0434240" lon="-2.4169450">
        <ele>323.5</ele>
        <time>2019-10-18T15:37:15Z</time>
      </trkpt>
      <trkpt lat="37.0434240" lon="-2.4169440">
        <ele>323.5</ele>
        <time>2019-10-18T15:37:16Z</time>
      </trkpt>
      <trkpt lat="37.0434240" lon="-2.4169420">
        <ele>323.5</ele>
        <time>2019-10-18T15:37:17Z</time>
      </trkpt>
      <trkpt lat="37.0434240" lon="-2.4169410">
        <ele>323.5</ele>
        <time>2019-10-18T15:37:18Z</time>
      </trkpt>
      <trkpt lat="37.0434230" lon="-2.4169400">
        <ele>323.5</ele>
        <time>2019-10-18T15:37:19Z</time>
      </trkpt>
      <trkpt lat="37.0434230" lon="-2.4169400">
        <ele>323.5</ele>
        <time>2019-10-18T15:37:20Z</time>
      </trkpt>
      <trkpt lat="37.0434230" lon="-2.4169390">
        <ele>323.5</ele>
        <time>2019-10-18T15:37:21Z</time>
      </trkpt>
      <trkpt lat="37.0434220" lon="-2.4169390">
        <ele>323.5</ele>
        <time>2019-10-18T15:37:22Z</time>
      </trkpt>
      <trkpt lat="37.0434220" lon="-2.4169390">
        <ele>323.5</ele>
        <time>2019-10-18T15:37:23Z</time>
      </trkpt>
      <trkpt lat="37.0434220" lon="-2.4169380">
        <ele>323.5</ele>
        <time>2019-10-18T15:37:24Z</time>
      </trkpt>
      <trkpt lat="37.0434230" lon="-2.4169370">
        <ele>323.5</ele>
        <time>2019-10-18T15:37:25Z</time>
      </trkpt>
      <trkpt lat="37.0434230" lon="-2.4169370">
        <ele>323.5</ele>
        <time>2019-10-18T15:37:26Z</time>
      </trkpt>
      <trkpt lat="37.0434230" lon="-2.4169370">
        <ele>323.5</ele>
        <time>2019-10-18T15:37:27Z</time>
      </trkpt>
      <trkpt lat="37.0434230" lon="-2.4169370">
        <ele>323.5</ele>
        <time>2019-10-18T15:37:28Z</time>
      </trkpt>
      <trkpt lat="37.0434240" lon="-2.4169360">
        <ele>323.5</ele>
        <time>2019-10-18T15:37:29Z</time>
      </trkpt>
      <trkpt lat="37.0434240" lon="-2.4169360">
        <ele>323.5</ele>
        <time>2019-10-18T15:37:30Z</time>
      </trkpt>
      <trkpt lat="37.0434250" lon="-2.4169340">
        <ele>323.5</ele>
        <time>2019-10-18T15:37:31Z</time>
      </trkpt>
      <trkpt lat="37.0434250" lon="-2.4169330">
        <ele>323.5</ele>
        <time>2019-10-18T15:37:32Z</time>
      </trkpt>
      <trkpt lat="37.0434260" lon="-2.4169320">
        <ele>323.5</ele>
        <time>2019-10-18T15:37:33Z</time>
      </trkpt>
      <trkpt lat="37.0434270" lon="-2.4169310">
        <ele>323.5</ele>
        <time>2019-10-18T15:37:34Z</time>
      </trkpt>
      <trkpt lat="37.0434280" lon="-2.4169300">
        <ele>323.5</ele>
        <time>2019-10-18T15:37:35Z</time>
      </trkpt>
      <trkpt lat="37.0434280" lon="-2.4169290">
        <ele>323.5</ele>
        <time>2019-10-18T15:37:36Z</time>
      </trkpt>
      <trkpt lat="37.0434280" lon="-2.4169280">
        <ele>323.5</ele>
        <time>2019-10-18T15:37:37Z</time>
      </trkpt>
      <trkpt lat="37.0434280" lon="-2.4169270">
        <ele>323.5</ele>
        <time>2019-10-18T15:37:38Z</time>
      </trkpt>
      <trkpt lat="37.0434280" lon="-2.4169270">
        <ele>323.5</ele>
        <time>2019-10-18T15:37:39Z</time>
      </trkpt>
      <trkpt lat="37.0434290" lon="-2.4169270">
        <ele>323.5</ele>
        <time>2019-10-18T15:37:40Z</time>
      </trkpt>
      <trkpt lat="37.0434290" lon="-2.4169280">
        <ele>323.5</ele>
        <time>2019-10-18T15:37:41Z</time>
      </trkpt>
      <trkpt lat="37.0434290" lon="-2.4169280">
        <ele>323.5</ele>
        <time>2019-10-18T15:37:42Z</time>
      </trkpt>
      <trkpt lat="37.0434290" lon="-2.4169280">
        <ele>323.5</ele>
        <time>2019-10-18T15:37:43Z</time>
      </trkpt>
      <trkpt lat="37.0434290" lon="-2.4169280">
        <ele>323.5</ele>
        <time>2019-10-18T15:37:44Z</time>
      </trkpt>
      <trkpt lat="37.0434290" lon="-2.4169290">
        <ele>323.5</ele>
        <time>2019-10-18T15:37:45Z</time>
      </trkpt>
      <trkpt lat="37.0434290" lon="-2.4169290">
        <ele>323.5</ele>
        <time>2019-10-18T15:37:46Z</time>
      </trkpt>
      <trkpt lat="37.0434290" lon="-2.4169290">
        <ele>323.5</ele>
        <time>2019-10-18T15:37:47Z</time>
      </trkpt>
      <trkpt lat="37.0434300" lon="-2.4169290">
        <ele>323.5</ele>
        <time>2019-10-18T15:37:48Z</time>
      </trkpt>
      <trkpt lat="37.0434300" lon="-2.4169290">
        <ele>323.5</ele>
        <time>2019-10-18T15:37:49Z</time>
      </trkpt>
      <trkpt lat="37.0434300" lon="-2.4169290">
        <ele>323.5</ele>
        <time>2019-10-18T15:37:50Z</time>
      </trkpt>
      <trkpt lat="37.0434300" lon="-2.4169290">
        <ele>323.5</ele>
        <time>2019-10-18T15:37:51Z</time>
      </trkpt>
      <trkpt lat="37.0434300" lon="-2.4169310">
        <ele>323.5</ele>
        <time>2019-10-18T15:37:52Z</time>
      </trkpt>
      <trkpt lat="37.0434300" lon="-2.4169330">
        <ele>323.5</ele>
        <time>2019-10-18T15:37:53Z</time>
      </trkpt>
      <trkpt lat="37.0434300" lon="-2.4169360">
        <ele>323.5</ele>
        <time>2019-10-18T15:37:54Z</time>
      </trkpt>
      <trkpt lat="37.0434300" lon="-2.4169390">
        <ele>323.5</ele>
        <time>2019-10-18T15:37:55Z</time>
      </trkpt>
      <trkpt lat="37.0434280" lon="-2.4169420">
        <ele>323.5</ele>
        <time>2019-10-18T15:37:56Z</time>
      </trkpt>
      <trkpt lat="37.0434280" lon="-2.4169440">
        <ele>323.5</ele>
        <time>2019-10-18T15:37:57Z</time>
      </trkpt>
      <trkpt lat="37.0434290" lon="-2.4169470">
        <ele>323.5</ele>
        <time>2019-10-18T15:37:58Z</time>
      </trkpt>
      <trkpt lat="37.0434320" lon="-2.4169500">
        <ele>323.5</ele>
        <time>2019-10-18T15:37:59Z</time>
      </trkpt>
      <trkpt lat="37.0434350" lon="-2.4169550">
        <ele>323.5</ele>
        <time>2019-10-18T15:38:00Z</time>
      </trkpt>
      <trkpt lat="37.0434360" lon="-2.4169590">
        <ele>323.5</ele>
        <time>2019-10-18T15:38:01Z</time>
      </trkpt>
      <trkpt lat="37.0434350" lon="-2.4169610">
        <ele>323.5</ele>
        <time>2019-10-18T15:38:02Z</time>
      </trkpt>
      <trkpt lat="37.0434340" lon="-2.4169610">
        <ele>323.5</ele>
        <time>2019-10-18T15:38:03Z</time>
      </trkpt>
      <trkpt lat="37.0434330" lon="-2.4169590">
        <ele>323.5</ele>
        <time>2019-10-18T15:38:04Z</time>
      </trkpt>
      <trkpt lat="37.0434320" lon="-2.4169580">
        <ele>323.5</ele>
        <time>2019-10-18T15:38:05Z</time>
      </trkpt>
      <trkpt lat="37.0434300" lon="-2.4169580">
        <ele>323.5</ele>
        <time>2019-10-18T15:38:06Z</time>
      </trkpt>
      <trkpt lat="37.0434280" lon="-2.4169600">
        <ele>323.5</ele>
        <time>2019-10-18T15:38:07Z</time>
      </trkpt>
      <trkpt lat="37.0434270" lon="-2.4169610">
        <ele>323.5</ele>
        <time>2019-10-18T15:38:08Z</time>
      </trkpt>
      <trkpt lat="37.0434270" lon="-2.4169630">
        <ele>323.5</ele>
        <time>2019-10-18T15:38:09Z</time>
      </trkpt>
      <trkpt lat="37.0434270" lon="-2.4169630">
        <ele>323.5</ele>
        <time>2019-10-18T15:38:10Z</time>
      </trkpt>
      <trkpt lat="37.0434270" lon="-2.4169630">
        <ele>323.5</ele>
        <time>2019-10-18T15:38:11Z</time>
      </trkpt>
      <trkpt lat="37.0434270" lon="-2.4169630">
        <ele>323.5</ele>
        <time>2019-10-18T15:38:12Z</time>
      </trkpt>
      <trkpt lat="37.0434280" lon="-2.4169640">
        <ele>323.5</ele>
        <time>2019-10-18T15:38:13Z</time>
      </trkpt>
      <trkpt lat="37.0434280" lon="-2.4169650">
        <ele>323.5</ele>
        <time>2019-10-18T15:38:14Z</time>
      </trkpt>
      <trkpt lat="37.0434280" lon="-2.4169660">
        <ele>323.5</ele>
        <time>2019-10-18T15:38:15Z</time>
      </trkpt>
      <trkpt lat="37.0434270" lon="-2.4169680">
        <ele>323.5</ele>
        <time>2019-10-18T15:38:16Z</time>
      </trkpt>
      <trkpt lat="37.0434260" lon="-2.4169690">
        <ele>323.5</ele>
        <time>2019-10-18T15:38:17Z</time>
      </trkpt>
      <trkpt lat="37.0434260" lon="-2.4169700">
        <ele>323.5</ele>
        <time>2019-10-18T15:38:18Z</time>
      </trkpt>
      <trkpt lat="37.0434260" lon="-2.4169700">
        <ele>323.5</ele>
        <time>2019-10-18T15:38:19Z</time>
      </trkpt>
      <trkpt lat="37.0434260" lon="-2.4169710">
        <ele>323.5</ele>
        <time>2019-10-18T15:38:20Z</time>
      </trkpt>
      <trkpt lat="37.0434240" lon="-2.4169730">
        <ele>323.5</ele>
        <time>2019-10-18T15:38:21Z</time>
      </trkpt>
      <trkpt lat="37.0434240" lon="-2.4169780">
        <ele>323.5</ele>
        <time>2019-10-18T15:38:22Z</time>
      </trkpt>
      <trkpt lat="37.0434240" lon="-2.4169840">
        <ele>323.5</ele>
        <time>2019-10-18T15:38:23Z</time>
      </trkpt>
      <trkpt lat="37.0434230" lon="-2.4169880">
        <ele>323.5</ele>
        <time>2019-10-18T15:38:24Z</time>
      </trkpt>
      <trkpt lat="37.0434220" lon="-2.4169910">
        <ele>323.5</ele>
        <time>2019-10-18T15:38:25Z</time>
      </trkpt>
      <trkpt lat="37.0434200" lon="-2.4169930">
        <ele>323.5</ele>
        <time>2019-10-18T15:38:26Z</time>
      </trkpt>
      <trkpt lat="37.0434190" lon="-2.4169930">
        <ele>323.5</ele>
        <time>2019-10-18T15:38:27Z</time>
      </trkpt>
      <trkpt lat="37.0434180" lon="-2.4169920">
        <ele>323.5</ele>
        <time>2019-10-18T15:38:28Z</time>
      </trkpt>
      <trkpt lat="37.0434180" lon="-2.4169900">
        <ele>323.5</ele>
        <time>2019-10-18T15:38:29Z</time>
      </trkpt>
      <trkpt lat="37.0434170" lon="-2.4169890">
        <ele>323.5</ele>
        <time>2019-10-18T15:38:30Z</time>
      </trkpt>
      <trkpt lat="37.0434160" lon="-2.4169880">
        <ele>323.5</ele>
        <time>2019-10-18T15:38:31Z</time>
      </trkpt>
      <trkpt lat="37.0434140" lon="-2.4169870">
        <ele>323.5</ele>
        <time>2019-10-18T15:38:32Z</time>
      </trkpt>
      <trkpt lat="37.0434130" lon="-2.4169870">
        <ele>323.5</ele>
        <time>2019-10-18T15:38:33Z</time>
      </trkpt>
      <trkpt lat="37.0434110" lon="-2.4169860">
        <ele>323.5</ele>
        <time>2019-10-18T15:38:34Z</time>
      </trkpt>
      <trkpt lat="37.0434090" lon="-2.4169860">
        <ele>323.5</ele>
        <time>2019-10-18T15:38:35Z</time>
      </trkpt>
      <trkpt lat="37.0434060" lon="-2.4169860">
        <ele>323.5</ele>
        <time>2019-10-18T15:38:36Z</time>
      </trkpt>
      <trkpt lat="37.0434040" lon="-2.4169860">
        <ele>323.5</ele>
        <time>2019-10-18T15:38:37Z</time>
      </trkpt>
      <trkpt lat="37.0434030" lon="-2.4169860">
        <ele>323.5</ele>
        <time>2019-10-18T15:38:38Z</time>
      </trkpt>
      <trkpt lat="37.0434020" lon="-2.4169860">
        <ele>323.5</ele>
        <time>2019-10-18T15:38:39Z</time>
      </trkpt>
      <trkpt lat="37.0434010" lon="-2.4169870">
        <ele>323.5</ele>
        <time>2019-10-18T15:38:40Z</time>
      </trkpt>
      <trkpt lat="37.0434010" lon="-2.4169870">
        <ele>323.5</ele>
        <time>2019-10-18T15:38:41Z</time>
      </trkpt>
      <trkpt lat="37.0434000" lon="-2.4169870">
        <ele>323.5</ele>
        <time>2019-10-18T15:38:42Z</time>
      </trkpt>
      <trkpt lat="37.0434000" lon="-2.4169870">
        <ele>323.5</ele>
        <time>2019-10-18T15:38:43Z</time>
      </trkpt>
      <trkpt lat="37.0433990" lon="-2.4169870">
        <ele>323.5</ele>
        <time>2019-10-18T15:38:44Z</time>
      </trkpt>
      <trkpt lat="37.0433980" lon="-2.4169880">
        <ele>323.5</ele>
        <time>2019-10-18T15:38:45Z</time>
      </trkpt>
      <trkpt lat="37.0433970" lon="-2.4169880">
        <ele>323.5</ele>
        <time>2019-10-18T15:38:46Z</time>
      </trkpt>
      <trkpt lat="37.0433970" lon="-2.4169890">
        <ele>323.5</ele>
        <time>2019-10-18T15:38:47Z</time>
      </trkpt>
      <trkpt lat="37.0433960" lon="-2.4169900">
        <ele>323.5</ele>
        <time>2019-10-18T15:38:48Z</time>
      </trkpt>
      <trkpt lat="37.0433950" lon="-2.4169910">
        <ele>323.5</ele>
        <time>2019-10-18T15:38:49Z</time>
      </trkpt>
      <trkpt lat="37.0433950" lon="-2.4169930">
        <ele>323.5</ele>
        <time>2019-10-18T15:38:50Z</time>
      </trkpt>
      <trkpt lat="37.0433950" lon="-2.4169950">
        <ele>323.5</ele>
        <time>2019-10-18T15:38:51Z</time>
      </trkpt>
      <trkpt lat="37.0433960" lon="-2.4169960">
        <ele>323.5</ele>
        <time>2019-10-18T15:38:52Z</time>
      </trkpt>
      <trkpt lat="37.0433970" lon="-2.4169940">
        <ele>323.5</ele>
        <time>2019-10-18T15:38:53Z</time>
      </trkpt>
      <trkpt lat="37.0433980" lon="-2.4169910">
        <ele>323.5</ele>
        <time>2019-10-18T15:38:54Z</time>
      </trkpt>
      <trkpt lat="37.0434000" lon="-2.4169860">
        <ele>323.5</ele>
        <time>2019-10-18T15:38:55Z</time>
      </trkpt>
      <trkpt lat="37.0434020" lon="-2.4169800">
        <ele>323.5</ele>
        <time>2019-10-18T15:38:56Z</time>
      </trkpt>
      <trkpt lat="37.0434050" lon="-2.4169750">
        <ele>323.5</ele>
        <time>2019-10-18T15:38:57Z</time>
      </trkpt>
      <trkpt lat="37.0434070" lon="-2.4169720">
        <ele>323.5</ele>
        <time>2019-10-18T15:38:58Z</time>
      </trkpt>
      <trkpt lat="37.0434080" lon="-2.4169700">
        <ele>323.5</ele>
        <time>2019-10-18T15:38:59Z</time>
      </trkpt>
      <trkpt lat="37.0434080" lon="-2.4169700">
        <ele>323.5</ele>
        <time>2019-10-18T15:39:00Z</time>
      </trkpt>
      <trkpt lat="37.0434090" lon="-2.4169690">
        <ele>323.5</ele>
        <time>2019-10-18T15:39:01Z</time>
      </trkpt>
      <trkpt lat="37.0434090" lon="-2.4169680">
        <ele>323.5</ele>
        <time>2019-10-18T15:39:02Z</time>
      </trkpt>
      <trkpt lat="37.0434090" lon="-2.4169670">
        <ele>323.5</ele>
        <time>2019-10-18T15:39:03Z</time>
      </trkpt>
      <trkpt lat="37.0434090" lon="-2.4169660">
        <ele>323.5</ele>
        <time>2019-10-18T15:39:04Z</time>
      </trkpt>
      <trkpt lat="37.0434090" lon="-2.4169670">
        <ele>323.5</ele>
        <time>2019-10-18T15:39:05Z</time>
      </trkpt>
      <trkpt lat="37.0434080" lon="-2.4169680">
        <ele>323.5</ele>
        <time>2019-10-18T15:39:06Z</time>
      </trkpt>
      <trkpt lat="37.0434070" lon="-2.4169680">
        <ele>323.5</ele>
        <time>2019-10-18T15:39:07Z</time>
      </trkpt>
      <trkpt lat="37.0434090" lon="-2.4169670">
        <ele>323.5</ele>
        <time>2019-10-18T15:39:08Z</time>
      </trkpt>
      <trkpt lat="37.0434130" lon="-2.4169680">
        <ele>323.5</ele>
        <time>2019-10-18T15:39:09Z</time>
      </trkpt>
      <trkpt lat="37.0434180" lon="-2.4169700">
        <ele>323.5</ele>
        <time>2019-10-18T15:39:10Z</time>
      </trkpt>
      <trkpt lat="37.0434230" lon="-2.4169710">
        <ele>323.5</ele>
        <time>2019-10-18T15:39:11Z</time>
      </trkpt>
      <trkpt lat="37.0434270" lon="-2.4169710">
        <ele>323.5</ele>
        <time>2019-10-18T15:39:12Z</time>
      </trkpt>
      <trkpt lat="37.0434320" lon="-2.4169720">
        <ele>323.5</ele>
        <time>2019-10-18T15:39:13Z</time>
      </trkpt>
      <trkpt lat="37.0434370" lon="-2.4169730">
        <ele>323.5</ele>
        <time>2019-10-18T15:39:14Z</time>
      </trkpt>
      <trkpt lat="37.0434410" lon="-2.4169740">
        <ele>323.5</ele>
        <time>2019-10-18T15:39:15Z</time>
      </trkpt>
      <trkpt lat="37.0434450" lon="-2.4169750">
        <ele>323.5</ele>
        <time>2019-10-18T15:39:16Z</time>
      </trkpt>
      <trkpt lat="37.0434480" lon="-2.4169760">
        <ele>323.5</ele>
        <time>2019-10-18T15:39:17Z</time>
      </trkpt>
      <trkpt lat="37.0434510" lon="-2.4169770">
        <ele>323.5</ele>
        <time>2019-10-18T15:39:18Z</time>
      </trkpt>
      <trkpt lat="37.0434540" lon="-2.4169780">
        <ele>323.5</ele>
        <time>2019-10-18T15:39:19Z</time>
      </trkpt>
      <trkpt lat="37.0434560" lon="-2.4169790">
        <ele>323.5</ele>
        <time>2019-10-18T15:39:20Z</time>
      </trkpt>
      <trkpt lat="37.0434580" lon="-2.4169790">
        <ele>323.5</ele>
        <time>2019-10-18T15:39:21Z</time>
      </trkpt>
      <trkpt lat="37.0434590" lon="-2.4169790">
        <ele>323.5</ele>
        <time>2019-10-18T15:39:22Z</time>
      </trkpt>
      <trkpt lat="37.0434600" lon="-2.4169790">
        <ele>323.5</ele>
        <time>2019-10-18T15:39:23Z</time>
      </trkpt>
      <trkpt lat="37.0434600" lon="-2.4169790">
        <ele>323.5</ele>
        <time>2019-10-18T15:39:24Z</time>
      </trkpt>
      <trkpt lat="37.0434610" lon="-2.4169790">
        <ele>323.5</ele>
        <time>2019-10-18T15:39:25Z</time>
      </trkpt>
      <trkpt lat="37.0434620" lon="-2.4169800">
        <ele>323.5</ele>
        <time>2019-10-18T15:39:26Z</time>
      </trkpt>
      <trkpt lat="37.0434630" lon="-2.4169800">
        <ele>323.5</ele>
        <time>2019-10-18T15:39:27Z</time>
      </trkpt>
      <trkpt lat="37.0434640" lon="-2.4169820">
        <ele>323.5</ele>
        <time>2019-10-18T15:39:28Z</time>
      </trkpt>
      <trkpt lat="37.0434660" lon="-2.4169830">
        <ele>323.5</ele>
        <time>2019-10-18T15:39:29Z</time>
      </trkpt>
      <trkpt lat="37.0434680" lon="-2.4169840">
        <ele>323.5</ele>
        <time>2019-10-18T15:39:30Z</time>
      </trkpt>
      <trkpt lat="37.0434690" lon="-2.4169850">
        <ele>323.5</ele>
        <time>2019-10-18T15:39:31Z</time>
      </trkpt>
      <trkpt lat="37.0434680" lon="-2.4169850">
        <ele>323.5</ele>
        <time>2019-10-18T15:39:32Z</time>
      </trkpt>
      <trkpt lat="37.0434680" lon="-2.4169850">
        <ele>323.5</ele>
        <time>2019-10-18T15:39:33Z</time>
      </trkpt>
      <trkpt lat="37.0434670" lon="-2.4169870">
        <ele>323.5</ele>
        <time>2019-10-18T15:39:34Z</time>
      </trkpt>
      <trkpt lat="37.0434660" lon="-2.4169890">
        <ele>323.5</ele>
        <time>2019-10-18T15:39:35Z</time>
      </trkpt>
      <trkpt lat="37.0434640" lon="-2.4169930">
        <ele>323.5</ele>
        <time>2019-10-18T15:39:36Z</time>
      </trkpt>
      <trkpt lat="37.0434630" lon="-2.4169970">
        <ele>323.5</ele>
        <time>2019-10-18T15:39:37Z</time>
      </trkpt>
      <trkpt lat="37.0434600" lon="-2.4170000">
        <ele>323.5</ele>
        <time>2019-10-18T15:39:38Z</time>
      </trkpt>
      <trkpt lat="37.0434570" lon="-2.4170040">
        <ele>323.5</ele>
        <time>2019-10-18T15:39:39Z</time>
      </trkpt>
      <trkpt lat="37.0434520" lon="-2.4170090">
        <ele>323.5</ele>
        <time>2019-10-18T15:39:40Z</time>
      </trkpt>
      <trkpt lat="37.0434460" lon="-2.4170170">
        <ele>323.5</ele>
        <time>2019-10-18T15:39:41Z</time>
      </trkpt>
      <trkpt lat="37.0434390" lon="-2.4170320">
        <ele>323.5</ele>
        <time>2019-10-18T15:39:42Z</time>
      </trkpt>
      <trkpt lat="37.0434350" lon="-2.4170520">
        <ele>323.5</ele>
        <time>2019-10-18T15:39:43Z</time>
      </trkpt>
      <trkpt lat="37.0434380" lon="-2.4170790">
        <ele>323.5</ele>
        <time>2019-10-18T15:39:44Z</time>
      </trkpt>
      <trkpt lat="37.0434460" lon="-2.4171070">
        <ele>323.5</ele>
        <time>2019-10-18T15:39:45Z</time>
      </trkpt>
      <trkpt lat="37.0434570" lon="-2.4171370">
        <ele>323.5</ele>
        <time>2019-10-18T15:39:46Z</time>
      </trkpt>
      <trkpt lat="37.0434670" lon="-2.4171640">
        <ele>323.5</ele>
        <time>2019-10-18T15:39:47Z</time>
      </trkpt>
      <trkpt lat="37.0434770" lon="-2.4171900">
        <ele>323.5</ele>
        <time>2019-10-18T15:39:48Z</time>
      </trkpt>
      <trkpt lat="37.0434870" lon="-2.4172150">
        <ele>323.5</ele>
        <time>2019-10-18T15:39:49Z</time>
      </trkpt>
      <trkpt lat="37.0434970" lon="-2.4172410">
        <ele>323.5</ele>
        <time>2019-10-18T15:39:50Z</time>
      </trkpt>
      <trkpt lat="37.0435080" lon="-2.4172690">
        <ele>323.5</ele>
        <time>2019-10-18T15:39:51Z</time>
      </trkpt>
      <trkpt lat="37.0435200" lon="-2.4172980">
        <ele>323.5</ele>
        <time>2019-10-18T15:39:52Z</time>
      </trkpt>
      <trkpt lat="37.0435330" lon="-2.4173280">
        <ele>323.5</ele>
        <time>2019-10-18T15:39:53Z</time>
      </trkpt>
      <trkpt lat="37.0435460" lon="-2.4173580">
        <ele>323.5</ele>
        <time>2019-10-18T15:39:54Z</time>
      </trkpt>
      <trkpt lat="37.0435600" lon="-2.4173890">
        <ele>323.7</ele>
        <time>2019-10-18T15:39:55Z</time>
      </trkpt>
      <trkpt lat="37.0435750" lon="-2.4174190">
        <ele>324.0</ele>
        <time>2019-10-18T15:39:56Z</time>
      </trkpt>
      <trkpt lat="37.0435910" lon="-2.4174500">
        <ele>324.1</ele>
        <time>2019-10-18T15:39:57Z</time>
      </trkpt>
      <trkpt lat="37.0436060" lon="-2.4174820">
        <ele>324.3</ele>
        <time>2019-10-18T15:39:58Z</time>
      </trkpt>
      <trkpt lat="37.0436210" lon="-2.4175140">
        <ele>324.5</ele>
        <time>2019-10-18T15:39:59Z</time>
      </trkpt>
      <trkpt lat="37.0436350" lon="-2.4175460">
        <ele>324.7</ele>
        <time>2019-10-18T15:40:00Z</time>
      </trkpt>
      <trkpt lat="37.0436510" lon="-2.4175780">
        <ele>324.8</ele>
        <time>2019-10-18T15:40:01Z</time>
      </trkpt>
      <trkpt lat="37.0436680" lon="-2.4176100">
        <ele>325.0</ele>
        <time>2019-10-18T15:40:02Z</time>
      </trkpt>
      <trkpt lat="37.0436860" lon="-2.4176410">
        <ele>325.2</ele>
        <time>2019-10-18T15:40:03Z</time>
      </trkpt>
      <trkpt lat="37.0437040" lon="-2.4176710">
        <ele>325.4</ele>
        <time>2019-10-18T15:40:04Z</time>
      </trkpt>
      <trkpt lat="37.0437230" lon="-2.4177000">
        <ele>325.6</ele>
        <time>2019-10-18T15:40:05Z</time>
      </trkpt>
      <trkpt lat="37.0437420" lon="-2.4177270">
        <ele>325.9</ele>
        <time>2019-10-18T15:40:06Z</time>
      </trkpt>
      <trkpt lat="37.0437610" lon="-2.4177520">
        <ele>326.2</ele>
        <time>2019-10-18T15:40:07Z</time>
      </trkpt>
      <trkpt lat="37.0437800" lon="-2.4177760">
        <ele>326.4</ele>
        <time>2019-10-18T15:40:08Z</time>
      </trkpt>
      <trkpt lat="37.0437980" lon="-2.4177980">
        <ele>326.7</ele>
        <time>2019-10-18T15:40:09Z</time>
      </trkpt>
      <trkpt lat="37.0438130" lon="-2.4178180">
        <ele>326.9</ele>
        <time>2019-10-18T15:40:10Z</time>
      </trkpt>
      <trkpt lat="37.0438280" lon="-2.4178370">
        <ele>327.0</ele>
        <time>2019-10-18T15:40:11Z</time>
      </trkpt>
      <trkpt lat="37.0438430" lon="-2.4178550">
        <ele>327.2</ele>
        <time>2019-10-18T15:40:12Z</time>
      </trkpt>
      <trkpt lat="37.0438590" lon="-2.4178730">
        <ele>327.4</ele>
        <time>2019-10-18T15:40:13Z</time>
      </trkpt>
      <trkpt lat="37.0438750" lon="-2.4178900">
        <ele>327.6</ele>
        <time>2019-10-18T15:40:14Z</time>
      </trkpt>
      <trkpt lat="37.0438920" lon="-2.4179060">
        <ele>327.8</ele>
        <time>2019-10-18T15:40:15Z</time>
      </trkpt>
      <trkpt lat="37.0439100" lon="-2.4179200">
        <ele>328.0</ele>
        <time>2019-10-18T15:40:16Z</time>
      </trkpt>
      <trkpt lat="37.0439290" lon="-2.4179320">
        <ele>328.2</ele>
        <time>2019-10-18T15:40:17Z</time>
      </trkpt>
      <trkpt lat="37.0439470" lon="-2.4179430">
        <ele>328.4</ele>
        <time>2019-10-18T15:40:18Z</time>
      </trkpt>
      <trkpt lat="37.0439640" lon="-2.4179530">
        <ele>328.6</ele>
        <time>2019-10-18T15:40:19Z</time>
      </trkpt>
      <trkpt lat="37.0439800" lon="-2.4179630">
        <ele>328.8</ele>
        <time>2019-10-18T15:40:20Z</time>
      </trkpt>
      <trkpt lat="37.0439960" lon="-2.4179730">
        <ele>328.9</ele>
        <time>2019-10-18T15:40:21Z</time>
      </trkpt>
      <trkpt lat="37.0440120" lon="-2.4179810">
        <ele>329.1</ele>
        <time>2019-10-18T15:40:22Z</time>
      </trkpt>
      <trkpt lat="37.0440280" lon="-2.4179880">
        <ele>329.3</ele>
        <time>2019-10-18T15:40:23Z</time>
      </trkpt>
      <trkpt lat="37.0440450" lon="-2.4179940">
        <ele>329.5</ele>
        <time>2019-10-18T15:40:24Z</time>
      </trkpt>
      <trkpt lat="37.0440610" lon="-2.4180010">
        <ele>329.6</ele>
        <time>2019-10-18T15:40:25Z</time>
      </trkpt>
      <trkpt lat="37.0440770" lon="-2.4180070">
        <ele>329.8</ele>
        <time>2019-10-18T15:40:26Z</time>
      </trkpt>
      <trkpt lat="37.0440930" lon="-2.4180120">
        <ele>330.0</ele>
        <time>2019-10-18T15:40:27Z</time>
      </trkpt>
      <trkpt lat="37.0441070" lon="-2.4180150">
        <ele>330.2</ele>
        <time>2019-10-18T15:40:28Z</time>
      </trkpt>
      <trkpt lat="37.0441200" lon="-2.4180160">
        <ele>330.4</ele>
        <time>2019-10-18T15:40:29Z</time>
      </trkpt>
      <trkpt lat="37.0441320" lon="-2.4180170">
        <ele>330.5</ele>
        <time>2019-10-18T15:40:30Z</time>
      </trkpt>
      <trkpt lat="37.0441440" lon="-2.4180210">
        <ele>330.6</ele>
        <time>2019-10-18T15:40:31Z</time>
      </trkpt>
      <trkpt lat="37.0441560" lon="-2.4180270">
        <ele>330.8</ele>
        <time>2019-10-18T15:40:32Z</time>
      </trkpt>
      <trkpt lat="37.0441680" lon="-2.4180320">
        <ele>331.0</ele>
        <time>2019-10-18T15:40:33Z</time>
      </trkpt>
      <trkpt lat="37.0441800" lon="-2.4180340">
        <ele>331.1</ele>
        <time>2019-10-18T15:40:34Z</time>
      </trkpt>
      <trkpt lat="37.0441930" lon="-2.4180320">
        <ele>331.3</ele>
        <time>2019-10-18T15:40:35Z</time>
      </trkpt>
      <trkpt lat="37.0442070" lon="-2.4180260">
        <ele>331.4</ele>
        <time>2019-10-18T15:40:36Z</time>
      </trkpt>
      <trkpt lat="37.0442210" lon="-2.4180200">
        <ele>331.6</ele>
        <time>2019-10-18T15:40:37Z</time>
      </trkpt>
      <trkpt lat="37.0442350" lon="-2.4180140">
        <ele>331.8</ele>
        <time>2019-10-18T15:40:38Z</time>
      </trkpt>
      <trkpt lat="37.0442500" lon="-2.4180100">
        <ele>332.0</ele>
        <time>2019-10-18T15:40:39Z</time>
      </trkpt>
      <trkpt lat="37.0442640" lon="-2.4180080">
        <ele>332.2</ele>
        <time>2019-10-18T15:40:40Z</time>
      </trkpt>
      <trkpt lat="37.0442800" lon="-2.4180070">
        <ele>332.4</ele>
        <time>2019-10-18T15:40:41Z</time>
      </trkpt>
      <trkpt lat="37.0442960" lon="-2.4180040">
        <ele>332.6</ele>
        <time>2019-10-18T15:40:42Z</time>
      </trkpt>
      <trkpt lat="37.0443110" lon="-2.4180000">
        <ele>332.8</ele>
        <time>2019-10-18T15:40:43Z</time>
      </trkpt>
      <trkpt lat="37.0443260" lon="-2.4179940">
        <ele>333.0</ele>
        <time>2019-10-18T15:40:44Z</time>
      </trkpt>
      <trkpt lat="37.0443400" lon="-2.4179880">
        <ele>333.2</ele>
        <time>2019-10-18T15:40:45Z</time>
      </trkpt>
      <trkpt lat="37.0443540" lon="-2.4179830">
        <ele>333.4</ele>
        <time>2019-10-18T15:40:46Z</time>
      </trkpt>
      <trkpt lat="37.0443690" lon="-2.4179800">
        <ele>333.6</ele>
        <time>2019-10-18T15:40:47Z</time>
      </trkpt>
      <trkpt lat="37.0443840" lon="-2.4179780">
        <ele>333.8</ele>
        <time>2019-10-18T15:40:48Z</time>
      </trkpt>
      <trkpt lat="37.0443980" lon="-2.4179760">
        <ele>334.0</ele>
        <time>2019-10-18T15:40:49Z</time>
      </trkpt>
      <trkpt lat="37.0444120" lon="-2.4179720">
        <ele>334.2</ele>
        <time>2019-10-18T15:40:50Z</time>
      </trkpt>
      <trkpt lat="37.0444250" lon="-2.4179670">
        <ele>334.4</ele>
        <time>2019-10-18T15:40:51Z</time>
      </trkpt>
      <trkpt lat="37.0444380" lon="-2.4179610">
        <ele>334.6</ele>
        <time>2019-10-18T15:40:52Z</time>
      </trkpt>
      <trkpt lat="37.0444500" lon="-2.4179560">
        <ele>334.8</ele>
        <time>2019-10-18T15:40:53Z</time>
      </trkpt>
      <trkpt lat="37.0444630" lon="-2.4179540">
        <ele>334.9</ele>
        <time>2019-10-18T15:40:54Z</time>
      </trkpt>
      <trkpt lat="37.0444770" lon="-2.4179530">
        <ele>335.1</ele>
        <time>2019-10-18T15:40:55Z</time>
      </trkpt>
      <trkpt lat="37.0444920" lon="-2.4179510">
        <ele>335.3</ele>
        <time>2019-10-18T15:40:56Z</time>
      </trkpt>
      <trkpt lat="37.0445060" lon="-2.4179480">
        <ele>335.5</ele>
        <time>2019-10-18T15:40:57Z</time>
      </trkpt>
      <trkpt lat="37.0445200" lon="-2.4179440">
        <ele>335.7</ele>
        <time>2019-10-18T15:40:58Z</time>
      </trkpt>
      <trkpt lat="37.0445340" lon="-2.4179380">
        <ele>335.9</ele>
        <time>2019-10-18T15:40:59Z</time>
      </trkpt>
      <trkpt lat="37.0445480" lon="-2.4179320">
        <ele>336.1</ele>
        <time>2019-10-18T15:41:00Z</time>
      </trkpt>
      <trkpt lat="37.0445630" lon="-2.4179270">
        <ele>336.3</ele>
        <time>2019-10-18T15:41:01Z</time>
      </trkpt>
      <trkpt lat="37.0445780" lon="-2.4179240">
        <ele>336.5</ele>
        <time>2019-10-18T15:41:02Z</time>
      </trkpt>
      <trkpt lat="37.0445940" lon="-2.4179210">
        <ele>336.7</ele>
        <time>2019-10-18T15:41:03Z</time>
      </trkpt>
      <trkpt lat="37.0446100" lon="-2.4179160">
        <ele>337.0</ele>
        <time>2019-10-18T15:41:04Z</time>
      </trkpt>
      <trkpt lat="37.0446240" lon="-2.4179100">
        <ele>337.2</ele>
        <time>2019-10-18T15:41:05Z</time>
      </trkpt>
      <trkpt lat="37.0446390" lon="-2.4179020">
        <ele>337.4</ele>
        <time>2019-10-18T15:41:06Z</time>
      </trkpt>
      <trkpt lat="37.0446540" lon="-2.4178950">
        <ele>337.6</ele>
        <time>2019-10-18T15:41:07Z</time>
      </trkpt>
      <trkpt lat="37.0446690" lon="-2.4178880">
        <ele>337.8</ele>
        <time>2019-10-18T15:41:08Z</time>
      </trkpt>
      <trkpt lat="37.0446830" lon="-2.4178820">
        <ele>338.0</ele>
        <time>2019-10-18T15:41:09Z</time>
      </trkpt>
      <trkpt lat="37.0446980" lon="-2.4178790">
        <ele>338.3</ele>
        <time>2019-10-18T15:41:10Z</time>
      </trkpt>
      <trkpt lat="37.0447130" lon="-2.4178800">
        <ele>338.5</ele>
        <time>2019-10-18T15:41:11Z</time>
      </trkpt>
      <trkpt lat="37.0447290" lon="-2.4178820">
        <ele>338.7</ele>
        <time>2019-10-18T15:41:12Z</time>
      </trkpt>
      <trkpt lat="37.0447450" lon="-2.4178840">
        <ele>338.9</ele>
        <time>2019-10-18T15:41:13Z</time>
      </trkpt>
      <trkpt lat="37.0447610" lon="-2.4178850">
        <ele>339.2</ele>
        <time>2019-10-18T15:41:14Z</time>
      </trkpt>
      <trkpt lat="37.0447770" lon="-2.4178850">
        <ele>339.5</ele>
        <time>2019-10-18T15:41:15Z</time>
      </trkpt>
      <trkpt lat="37.0447930" lon="-2.4178860">
        <ele>339.7</ele>
        <time>2019-10-18T15:41:16Z</time>
      </trkpt>
      <trkpt lat="37.0448090" lon="-2.4178880">
        <ele>340.0</ele>
        <time>2019-10-18T15:41:17Z</time>
      </trkpt>
      <trkpt lat="37.0448240" lon="-2.4178900">
        <ele>340.3</ele>
        <time>2019-10-18T15:41:18Z</time>
      </trkpt>
      <trkpt lat="37.0448380" lon="-2.4178950">
        <ele>340.5</ele>
        <time>2019-10-18T15:41:19Z</time>
      </trkpt>
      <trkpt lat="37.0448540" lon="-2.4179000">
        <ele>340.7</ele>
        <time>2019-10-18T15:41:20Z</time>
      </trkpt>
      <trkpt lat="37.0448700" lon="-2.4179050">
        <ele>341.0</ele>
        <time>2019-10-18T15:41:21Z</time>
      </trkpt>
      <trkpt lat="37.0448850" lon="-2.4179090">
        <ele>341.2</ele>
        <time>2019-10-18T15:41:22Z</time>
      </trkpt>
      <trkpt lat="37.0449000" lon="-2.4179120">
        <ele>341.4</ele>
        <time>2019-10-18T15:41:23Z</time>
      </trkpt>
      <trkpt lat="37.0449150" lon="-2.4179160">
        <ele>341.7</ele>
        <time>2019-10-18T15:41:24Z</time>
      </trkpt>
      <trkpt lat="37.0449300" lon="-2.4179180">
        <ele>341.8</ele>
        <time>2019-10-18T15:41:25Z</time>
      </trkpt>
      <trkpt lat="37.0449440" lon="-2.4179180">
        <ele>342.0</ele>
        <time>2019-10-18T15:41:26Z</time>
      </trkpt>
      <trkpt lat="37.0449570" lon="-2.4179190">
        <ele>342.1</ele>
        <time>2019-10-18T15:41:27Z</time>
      </trkpt>
      <trkpt lat="37.0449690" lon="-2.4179260">
        <ele>342.2</ele>
        <time>2019-10-18T15:41:28Z</time>
      </trkpt>
      <trkpt lat="37.0449820" lon="-2.4179350">
        <ele>342.4</ele>
        <time>2019-10-18T15:41:29Z</time>
      </trkpt>
      <trkpt lat="37.0449950" lon="-2.4179450">
        <ele>342.5</ele>
        <time>2019-10-18T15:41:30Z</time>
      </trkpt>
      <trkpt lat="37.0450090" lon="-2.4179540">
        <ele>342.7</ele>
        <time>2019-10-18T15:41:31Z</time>
      </trkpt>
      <trkpt lat="37.0450220" lon="-2.4179620">
        <ele>342.8</ele>
        <time>2019-10-18T15:41:32Z</time>
      </trkpt>
      <trkpt lat="37.0450360" lon="-2.4179720">
        <ele>343.0</ele>
        <time>2019-10-18T15:41:33Z</time>
      </trkpt>
      <trkpt lat="37.0450500" lon="-2.4179810">
        <ele>343.1</ele>
        <time>2019-10-18T15:41:34Z</time>
      </trkpt>
      <trkpt lat="37.0450650" lon="-2.4179910">
        <ele>343.3</ele>
        <time>2019-10-18T15:41:35Z</time>
      </trkpt>
      <trkpt lat="37.0450790" lon="-2.4179990">
        <ele>343.4</ele>
        <time>2019-10-18T15:41:36Z</time>
      </trkpt>
      <trkpt lat="37.0450930" lon="-2.4180080">
        <ele>343.6</ele>
        <time>2019-10-18T15:41:37Z</time>
      </trkpt>
      <trkpt lat="37.0451060" lon="-2.4180180">
        <ele>343.7</ele>
        <time>2019-10-18T15:41:38Z</time>
      </trkpt>
      <trkpt lat="37.0451180" lon="-2.4180300">
        <ele>343.9</ele>
        <time>2019-10-18T15:41:39Z</time>
      </trkpt>
      <trkpt lat="37.0451290" lon="-2.4180440">
        <ele>344.0</ele>
        <time>2019-10-18T15:41:40Z</time>
      </trkpt>
      <trkpt lat="37.0451410" lon="-2.4180580">
        <ele>344.2</ele>
        <time>2019-10-18T15:41:41Z</time>
      </trkpt>
      <trkpt lat="37.0451540" lon="-2.4180710">
        <ele>344.3</ele>
        <time>2019-10-18T15:41:42Z</time>
      </trkpt>
      <trkpt lat="37.0451660" lon="-2.4180850">
        <ele>344.5</ele>
        <time>2019-10-18T15:41:43Z</time>
      </trkpt>
      <trkpt lat="37.0451800" lon="-2.4180990">
        <ele>344.6</ele>
        <time>2019-10-18T15:41:44Z</time>
      </trkpt>
      <trkpt lat="37.0451930" lon="-2.4181130">
        <ele>344.8</ele>
        <time>2019-10-18T15:41:45Z</time>
      </trkpt>
      <trkpt lat="37.0452060" lon="-2.4181270">
        <ele>345.0</ele>
        <time>2019-10-18T15:41:46Z</time>
      </trkpt>
      <trkpt lat="37.0452190" lon="-2.4181410">
        <ele>345.1</ele>
        <time>2019-10-18T15:41:47Z</time>
      </trkpt>
      <trkpt lat="37.0452330" lon="-2.4181530">
        <ele>345.2</ele>
        <time>2019-10-18T15:41:48Z</time>
      </trkpt>
      <trkpt lat="37.0452450" lon="-2.4181660">
        <ele>345.4</ele>
        <time>2019-10-18T15:41:49Z</time>
      </trkpt>
      <trkpt lat="37.0452580" lon="-2.4181790">
        <ele>345.5</ele>
        <time>2019-10-18T15:41:50Z</time>
      </trkpt>
      <trkpt lat="37.0452700" lon="-2.4181920">
        <ele>345.7</ele>
        <time>2019-10-18T15:41:51Z</time>
      </trkpt>
      <trkpt lat="37.0452830" lon="-2.4182060">
        <ele>345.8</ele>
        <time>2019-10-18T15:41:52Z</time>
      </trkpt>
      <trkpt lat="37.0452950" lon="-2.4182200">
        <ele>346.0</ele>
        <time>2019-10-18T15:41:53Z</time>
      </trkpt>
      <trkpt lat="37.0453070" lon="-2.4182350">
        <ele>346.1</ele>
        <time>2019-10-18T15:41:54Z</time>
      </trkpt>
      <trkpt lat="37.0453180" lon="-2.4182500">
        <ele>346.2</ele>
        <time>2019-10-18T15:41:55Z</time>
      </trkpt>
      <trkpt lat="37.0453300" lon="-2.4182660">
        <ele>346.4</ele>
        <time>2019-10-18T15:41:56Z</time>
      </trkpt>
      <trkpt lat="37.0453410" lon="-2.4182820">
        <ele>346.5</ele>
        <time>2019-10-18T15:41:57Z</time>
      </trkpt>
      <trkpt lat="37.0453510" lon="-2.4182990">
        <ele>346.6</ele>
        <time>2019-10-18T15:41:58Z</time>
      </trkpt>
      <trkpt lat="37.0453620" lon="-2.4183170">
        <ele>346.8</ele>
        <time>2019-10-18T15:41:59Z</time>
      </trkpt>
      <trkpt lat="37.0453730" lon="-2.4183350">
        <ele>346.9</ele>
        <time>2019-10-18T15:42:00Z</time>
      </trkpt>
      <trkpt lat="37.0453840" lon="-2.4183520">
        <ele>347.1</ele>
        <time>2019-10-18T15:42:01Z</time>
      </trkpt>
      <trkpt lat="37.0453950" lon="-2.4183700">
        <ele>347.2</ele>
        <time>2019-10-18T15:42:02Z</time>
      </trkpt>
      <trkpt lat="37.0454060" lon="-2.4183890">
        <ele>347.3</ele>
        <time>2019-10-18T15:42:03Z</time>
      </trkpt>
      <trkpt lat="37.0454160" lon="-2.4184090">
        <ele>347.4</ele>
        <time>2019-10-18T15:42:04Z</time>
      </trkpt>
      <trkpt lat="37.0454260" lon="-2.4184290">
        <ele>347.6</ele>
        <time>2019-10-18T15:42:05Z</time>
      </trkpt>
      <trkpt lat="37.0454350" lon="-2.4184490">
        <ele>347.7</ele>
        <time>2019-10-18T15:42:06Z</time>
      </trkpt>
      <trkpt lat="37.0454450" lon="-2.4184690">
        <ele>347.8</ele>
        <time>2019-10-18T15:42:07Z</time>
      </trkpt>
      <trkpt lat="37.0454540" lon="-2.4184900">
        <ele>347.9</ele>
        <time>2019-10-18T15:42:08Z</time>
      </trkpt>
      <trkpt lat="37.0454620" lon="-2.4185120">
        <ele>348.0</ele>
        <time>2019-10-18T15:42:09Z</time>
      </trkpt>
      <trkpt lat="37.0454700" lon="-2.4185350">
        <ele>348.2</ele>
        <time>2019-10-18T15:42:10Z</time>
      </trkpt>
      <trkpt lat="37.0454790" lon="-2.4185590">
        <ele>348.3</ele>
        <time>2019-10-18T15:42:11Z</time>
      </trkpt>
      <trkpt lat="37.0454870" lon="-2.4185840">
        <ele>348.4</ele>
        <time>2019-10-18T15:42:12Z</time>
      </trkpt>
      <trkpt lat="37.0454950" lon="-2.4186070">
        <ele>348.5</ele>
        <time>2019-10-18T15:42:13Z</time>
      </trkpt>
      <trkpt lat="37.0455040" lon="-2.4186310">
        <ele>348.6</ele>
        <time>2019-10-18T15:42:14Z</time>
      </trkpt>
      <trkpt lat="37.0455120" lon="-2.4186550">
        <ele>348.7</ele>
        <time>2019-10-18T15:42:15Z</time>
      </trkpt>
      <trkpt lat="37.0455200" lon="-2.4186790">
        <ele>348.8</ele>
        <time>2019-10-18T15:42:16Z</time>
      </trkpt>
      <trkpt lat="37.0455260" lon="-2.4187030">
        <ele>348.9</ele>
        <time>2019-10-18T15:42:17Z</time>
      </trkpt>
      <trkpt lat="37.0455310" lon="-2.4187270">
        <ele>349.0</ele>
        <time>2019-10-18T15:42:18Z</time>
      </trkpt>
      <trkpt lat="37.0455370" lon="-2.4187500">
        <ele>349.0</ele>
        <time>2019-10-18T15:42:19Z</time>
      </trkpt>
      <trkpt lat="37.0455430" lon="-2.4187750">
        <ele>349.1</ele>
        <time>2019-10-18T15:42:20Z</time>
      </trkpt>
      <trkpt lat="37.0455500" lon="-2.4187990">
        <ele>349.2</ele>
        <time>2019-10-18T15:42:21Z</time>
      </trkpt>
      <trkpt lat="37.0455560" lon="-2.4188230">
        <ele>349.3</ele>
        <time>2019-10-18T15:42:22Z</time>
      </trkpt>
      <trkpt lat="37.0455620" lon="-2.4188470">
        <ele>349.4</ele>
        <time>2019-10-18T15:42:23Z</time>
      </trkpt>
      <trkpt lat="37.0455680" lon="-2.4188710">
        <ele>349.4</ele>
        <time>2019-10-18T15:42:24Z</time>
      </trkpt>
      <trkpt lat="37.0455720" lon="-2.4188960">
        <ele>349.5</ele>
        <time>2019-10-18T15:42:25Z</time>
      </trkpt>
      <trkpt lat="37.0455770" lon="-2.4189210">
        <ele>349.6</ele>
        <time>2019-10-18T15:42:26Z</time>
      </trkpt>
      <trkpt lat="37.0455820" lon="-2.4189460">
        <ele>349.6</ele>
        <time>2019-10-18T15:42:27Z</time>
      </trkpt>
      <trkpt lat="37.0455870" lon="-2.4189720">
        <ele>349.7</ele>
        <time>2019-10-18T15:42:28Z</time>
      </trkpt>
      <trkpt lat="37.0455920" lon="-2.4189980">
        <ele>349.8</ele>
        <time>2019-10-18T15:42:29Z</time>
      </trkpt>
      <trkpt lat="37.0455980" lon="-2.4190250">
        <ele>349.8</ele>
        <time>2019-10-18T15:42:30Z</time>
      </trkpt>
      <trkpt lat="37.0456030" lon="-2.4190520">
        <ele>349.8</ele>
        <time>2019-10-18T15:42:31Z</time>
      </trkpt>
      <trkpt lat="37.0456090" lon="-2.4190790">
        <ele>349.9</ele>
        <time>2019-10-18T15:42:32Z</time>
      </trkpt>
      <trkpt lat="37.0456130" lon="-2.4191070">
        <ele>349.9</ele>
        <time>2019-10-18T15:42:33Z</time>
      </trkpt>
      <trkpt lat="37.0456160" lon="-2.4191360">
        <ele>349.9</ele>
        <time>2019-10-18T15:42:34Z</time>
      </trkpt>
      <trkpt lat="37.0456190" lon="-2.4191670">
        <ele>349.9</ele>
        <time>2019-10-18T15:42:35Z</time>
      </trkpt>
      <trkpt lat="37.0456210" lon="-2.4191980">
        <ele>350.0</ele>
        <time>2019-10-18T15:42:36Z</time>
      </trkpt>
      <trkpt lat="37.0456240" lon="-2.4192290">
        <ele>350.0</ele>
        <time>2019-10-18T15:42:37Z</time>
      </trkpt>
      <trkpt lat="37.0456270" lon="-2.4192600">
        <ele>350.0</ele>
        <time>2019-10-18T15:42:38Z</time>
      </trkpt>
      <trkpt lat="37.0456300" lon="-2.4192900">
        <ele>350.0</ele>
        <time>2019-10-18T15:42:39Z</time>
      </trkpt>
      <trkpt lat="37.0456340" lon="-2.4193200">
        <ele>350.0</ele>
        <time>2019-10-18T15:42:40Z</time>
      </trkpt>
      <trkpt lat="37.0456370" lon="-2.4193500">
        <ele>350.0</ele>
        <time>2019-10-18T15:42:41Z</time>
      </trkpt>
      <trkpt lat="37.0456410" lon="-2.4193800">
        <ele>350.0</ele>
        <time>2019-10-18T15:42:42Z</time>
      </trkpt>
      <trkpt lat="37.0456470" lon="-2.4194110">
        <ele>350.0</ele>
        <time>2019-10-18T15:42:43Z</time>
      </trkpt>
      <trkpt lat="37.0456540" lon="-2.4194420">
        <ele>350.1</ele>
        <time>2019-10-18T15:42:44Z</time>
      </trkpt>
      <trkpt lat="37.0456630" lon="-2.4194720">
        <ele>350.1</ele>
        <time>2019-10-18T15:42:45Z</time>
      </trkpt>
      <trkpt lat="37.0456740" lon="-2.4195010">
        <ele>350.2</ele>
        <time>2019-10-18T15:42:46Z</time>
      </trkpt>
      <trkpt lat="37.0456860" lon="-2.4195290">
        <ele>350.2</ele>
        <time>2019-10-18T15:42:47Z</time>
      </trkpt>
      <trkpt lat="37.0457000" lon="-2.4195560">
        <ele>350.3</ele>
        <time>2019-10-18T15:42:48Z</time>
      </trkpt>
      <trkpt lat="37.0457140" lon="-2.4195820">
        <ele>350.3</ele>
        <time>2019-10-18T15:42:49Z</time>
      </trkpt>
      <trkpt lat="37.0457290" lon="-2.4196080">
        <ele>350.4</ele>
        <time>2019-10-18T15:42:50Z</time>
      </trkpt>
      <trkpt lat="37.0457440" lon="-2.4196330">
        <ele>350.4</ele>
        <time>2019-10-18T15:42:51Z</time>
      </trkpt>
      <trkpt lat="37.0457610" lon="-2.4196580">
        <ele>350.5</ele>
        <time>2019-10-18T15:42:52Z</time>
      </trkpt>
      <trkpt lat="37.0457800" lon="-2.4196810">
        <ele>350.5</ele>
        <time>2019-10-18T15:42:53Z</time>
      </trkpt>
      <trkpt lat="37.0458000" lon="-2.4197020">
        <ele>350.6</ele>
        <time>2019-10-18T15:42:54Z</time>
      </trkpt>
      <trkpt lat="37.0458200" lon="-2.4197210">
        <ele>350.7</ele>
        <time>2019-10-18T15:42:55Z</time>
      </trkpt>
      <trkpt lat="37.0458400" lon="-2.4197390">
        <ele>350.7</ele>
        <time>2019-10-18T15:42:56Z</time>
      </trkpt>
      <trkpt lat="37.0458600" lon="-2.4197560">
        <ele>350.8</ele>
        <time>2019-10-18T15:42:57Z</time>
      </trkpt>
      <trkpt lat="37.0458790" lon="-2.4197710">
        <ele>350.8</ele>
        <time>2019-10-18T15:42:58Z</time>
      </trkpt>
      <trkpt lat="37.0458990" lon="-2.4197850">
        <ele>350.9</ele>
        <time>2019-10-18T15:42:59Z</time>
      </trkpt>
      <trkpt lat="37.0459190" lon="-2.4197970">
        <ele>350.9</ele>
        <time>2019-10-18T15:43:00Z</time>
      </trkpt>
      <trkpt lat="37.0459390" lon="-2.4198080">
        <ele>351.0</ele>
        <time>2019-10-18T15:43:01Z</time>
      </trkpt>
      <trkpt lat="37.0459590" lon="-2.4198180">
        <ele>351.0</ele>
        <time>2019-10-18T15:43:02Z</time>
      </trkpt>
      <trkpt lat="37.0459800" lon="-2.4198290">
        <ele>351.0</ele>
        <time>2019-10-18T15:43:03Z</time>
      </trkpt>
      <trkpt lat="37.0460000" lon="-2.4198390">
        <ele>351.1</ele>
        <time>2019-10-18T15:43:04Z</time>
      </trkpt>
      <trkpt lat="37.0460190" lon="-2.4198500">
        <ele>351.1</ele>
        <time>2019-10-18T15:43:05Z</time>
      </trkpt>
      <trkpt lat="37.0460380" lon="-2.4198610">
        <ele>351.1</ele>
        <time>2019-10-18T15:43:06Z</time>
      </trkpt>
      <trkpt lat="37.0460570" lon="-2.4198710">
        <ele>351.2</ele>
        <time>2019-10-18T15:43:07Z</time>
      </trkpt>
      <trkpt lat="37.0460740" lon="-2.4198800">
        <ele>351.2</ele>
        <time>2019-10-18T15:43:08Z</time>
      </trkpt>
      <trkpt lat="37.0460910" lon="-2.4198880">
        <ele>351.2</ele>
        <time>2019-10-18T15:43:09Z</time>
      </trkpt>
      <trkpt lat="37.0461070" lon="-2.4198970">
        <ele>351.2</ele>
        <time>2019-10-18T15:43:10Z</time>
      </trkpt>
      <trkpt lat="37.0461220" lon="-2.4199070">
        <ele>351.3</ele>
        <time>2019-10-18T15:43:11Z</time>
      </trkpt>
      <trkpt lat="37.0461380" lon="-2.4199170">
        <ele>351.3</ele>
        <time>2019-10-18T15:43:12Z</time>
      </trkpt>
      <trkpt lat="37.0461540" lon="-2.4199260">
        <ele>351.3</ele>
        <time>2019-10-18T15:43:13Z</time>
      </trkpt>
      <trkpt lat="37.0461680" lon="-2.4199350">
        <ele>351.3</ele>
        <time>2019-10-18T15:43:14Z</time>
      </trkpt>
      <trkpt lat="37.0461810" lon="-2.4199450">
        <ele>351.3</ele>
        <time>2019-10-18T15:43:15Z</time>
      </trkpt>
      <trkpt lat="37.0461900" lon="-2.4199570">
        <ele>351.4</ele>
        <time>2019-10-18T15:43:16Z</time>
      </trkpt>
      <trkpt lat="37.0461950" lon="-2.4199710">
        <ele>351.4</ele>
        <time>2019-10-18T15:43:17Z</time>
      </trkpt>
      <trkpt lat="37.0461990" lon="-2.4199830">
        <ele>351.4</ele>
        <time>2019-10-18T15:43:18Z</time>
      </trkpt>
      <trkpt lat="37.0462010" lon="-2.4199900">
        <ele>351.4</ele>
        <time>2019-10-18T15:43:19Z</time>
      </trkpt>
      <trkpt lat="37.0462020" lon="-2.4199930">
        <ele>351.4</ele>
        <time>2019-10-18T15:43:20Z</time>
      </trkpt>
      <trkpt lat="37.0462040" lon="-2.4199950">
        <ele>351.4</ele>
        <time>2019-10-18T15:43:21Z</time>
      </trkpt>
      <trkpt lat="37.0462060" lon="-2.4199980">
        <ele>351.4</ele>
        <time>2019-10-18T15:43:22Z</time>
      </trkpt>
      <trkpt lat="37.0462090" lon="-2.4200000">
        <ele>351.4</ele>
        <time>2019-10-18T15:43:23Z</time>
      </trkpt>
      <trkpt lat="37.0462090" lon="-2.4200000">
        <ele>351.4</ele>
        <time>2019-10-18T15:43:24Z</time>
      </trkpt>
      <trkpt lat="37.0462080" lon="-2.4199980">
        <ele>351.4</ele>
        <time>2019-10-18T15:43:25Z</time>
      </trkpt>
      <trkpt lat="37.0462070" lon="-2.4199970">
        <ele>351.4</ele>
        <time>2019-10-18T15:43:26Z</time>
      </trkpt>
      <trkpt lat="37.0462060" lon="-2.4199950">
        <ele>351.4</ele>
        <time>2019-10-18T15:43:27Z</time>
      </trkpt>
      <trkpt lat="37.0462060" lon="-2.4199950">
        <ele>351.4</ele>
        <time>2019-10-18T15:43:28Z</time>
      </trkpt>
      <trkpt lat="37.0462060" lon="-2.4199940">
        <ele>351.4</ele>
        <time>2019-10-18T15:43:29Z</time>
      </trkpt>
      <trkpt lat="37.0462060" lon="-2.4199940">
        <ele>351.4</ele>
        <time>2019-10-18T15:43:30Z</time>
      </trkpt>
      <trkpt lat="37.0462050" lon="-2.4199940">
        <ele>351.4</ele>
        <time>2019-10-18T15:43:31Z</time>
      </trkpt>
      <trkpt lat="37.0462050" lon="-2.4199930">
        <ele>351.4</ele>
        <time>2019-10-18T15:43:32Z</time>
      </trkpt>
      <trkpt lat="37.0462060" lon="-2.4199930">
        <ele>351.4</ele>
        <time>2019-10-18T15:43:33Z</time>
      </trkpt>
      <trkpt lat="37.0462060" lon="-2.4199930">
        <ele>351.4</ele>
        <time>2019-10-18T15:43:34Z</time>
      </trkpt>
      <trkpt lat="37.0462060" lon="-2.4199930">
        <ele>351.4</ele>
        <time>2019-10-18T15:43:35Z</time>
      </trkpt>
      <trkpt lat="37.0462060" lon="-2.4199930">
        <ele>351.4</ele>
        <time>2019-10-18T15:43:36Z</time>
      </trkpt>
      <trkpt lat="37.0462050" lon="-2.4199920">
        <ele>351.4</ele>
        <time>2019-10-18T15:43:37Z</time>
      </trkpt>
      <trkpt lat="37.0462050" lon="-2.4199920">
        <ele>351.4</ele>
        <time>2019-10-18T15:43:38Z</time>
      </trkpt>
      <trkpt lat="37.0462050" lon="-2.4199920">
        <ele>351.4</ele>
        <time>2019-10-18T15:43:39Z</time>
      </trkpt>
      <trkpt lat="37.0462050" lon="-2.4199920">
        <ele>351.4</ele>
        <time>2019-10-18T15:43:40Z</time>
      </trkpt>
      <trkpt lat="37.0462060" lon="-2.4199920">
        <ele>351.4</ele>
        <time>2019-10-18T15:43:41Z</time>
      </trkpt>
      <trkpt lat="37.0462060" lon="-2.4199920">
        <ele>351.4</ele>
        <time>2019-10-18T15:43:42Z</time>
      </trkpt>
      <trkpt lat="37.0462050" lon="-2.4199920">
        <ele>351.4</ele>
        <time>2019-10-18T15:43:43Z</time>
      </trkpt>
      <trkpt lat="37.0462050" lon="-2.4199920">
        <ele>351.4</ele>
        <time>2019-10-18T15:43:44Z</time>
      </trkpt>
      <trkpt lat="37.0462040" lon="-2.4199920">
        <ele>351.4</ele>
        <time>2019-10-18T15:43:45Z</time>
      </trkpt>
      <trkpt lat="37.0462040" lon="-2.4199920">
        <ele>351.4</ele>
        <time>2019-10-18T15:43:46Z</time>
      </trkpt>
      <trkpt lat="37.0462040" lon="-2.4199920">
        <ele>351.4</ele>
        <time>2019-10-18T15:43:47Z</time>
      </trkpt>
      <trkpt lat="37.0462040" lon="-2.4199930">
        <ele>351.4</ele>
        <time>2019-10-18T15:43:48Z</time>
      </trkpt>
      <trkpt lat="37.0462030" lon="-2.4199930">
        <ele>351.4</ele>
        <time>2019-10-18T15:43:49Z</time>
      </trkpt>
      <trkpt lat="37.0462030" lon="-2.4199930">
        <ele>351.4</ele>
        <time>2019-10-18T15:43:50Z</time>
      </trkpt>
      <trkpt lat="37.0462020" lon="-2.4199930">
        <ele>351.4</ele>
        <time>2019-10-18T15:43:51Z</time>
      </trkpt>
      <trkpt lat="37.0462010" lon="-2.4199920">
        <ele>351.4</ele>
        <time>2019-10-18T15:43:52Z</time>
      </trkpt>
      <trkpt lat="37.0462010" lon="-2.4199920">
        <ele>351.4</ele>
        <time>2019-10-18T15:43:53Z</time>
      </trkpt>
      <trkpt lat="37.0462000" lon="-2.4199910">
        <ele>351.4</ele>
        <time>2019-10-18T15:43:54Z</time>
      </trkpt>
      <trkpt lat="37.0461980" lon="-2.4199900">
        <ele>351.4</ele>
        <time>2019-10-18T15:43:55Z</time>
      </trkpt>
      <trkpt lat="37.0461970" lon="-2.4199890">
        <ele>351.4</ele>
        <time>2019-10-18T15:43:56Z</time>
      </trkpt>
      <trkpt lat="37.0461950" lon="-2.4199890">
        <ele>351.4</ele>
        <time>2019-10-18T15:43:57Z</time>
      </trkpt>
      <trkpt lat="37.0461950" lon="-2.4199880">
        <ele>351.4</ele>
        <time>2019-10-18T15:43:58Z</time>
      </trkpt>
      <trkpt lat="37.0461940" lon="-2.4199870">
        <ele>351.4</ele>
        <time>2019-10-18T15:43:59Z</time>
      </trkpt>
      <trkpt lat="37.0461930" lon="-2.4199860">
        <ele>351.4</ele>
        <time>2019-10-18T15:44:00Z</time>
      </trkpt>
      <trkpt lat="37.0461930" lon="-2.4199860">
        <ele>351.4</ele>
        <time>2019-10-18T15:44:01Z</time>
      </trkpt>
      <trkpt lat="37.0461920" lon="-2.4199860">
        <ele>351.4</ele>
        <time>2019-10-18T15:44:02Z</time>
      </trkpt>
      <trkpt lat="37.0461920" lon="-2.4199850">
        <ele>351.4</ele>
        <time>2019-10-18T15:44:03Z</time>
      </trkpt>
      <trkpt lat="37.0461910" lon="-2.4199850">
        <ele>351.4</ele>
        <time>2019-10-18T15:44:04Z</time>
      </trkpt>
      <trkpt lat="37.0461910" lon="-2.4199840">
        <ele>351.4</ele>
        <time>2019-10-18T15:44:05Z</time>
      </trkpt>
      <trkpt lat="37.0461910" lon="-2.4199840">
        <ele>351.4</ele>
        <time>2019-10-18T15:44:06Z</time>
      </trkpt>
      <trkpt lat="37.0461920" lon="-2.4199840">
        <ele>351.4</ele>
        <time>2019-10-18T15:44:07Z</time>
      </trkpt>
      <trkpt lat="37.0461920" lon="-2.4199840">
        <ele>351.4</ele>
        <time>2019-10-18T15:44:08Z</time>
      </trkpt>
      <trkpt lat="37.0461920" lon="-2.4199840">
        <ele>351.4</ele>
        <time>2019-10-18T15:44:09Z</time>
      </trkpt>
      <trkpt lat="37.0461920" lon="-2.4199830">
        <ele>351.4</ele>
        <time>2019-10-18T15:44:10Z</time>
      </trkpt>
      <trkpt lat="37.0461910" lon="-2.4199830">
        <ele>351.4</ele>
        <time>2019-10-18T15:44:11Z</time>
      </trkpt>
      <trkpt lat="37.0461910" lon="-2.4199830">
        <ele>351.4</ele>
        <time>2019-10-18T15:44:12Z</time>
      </trkpt>
      <trkpt lat="37.0461910" lon="-2.4199820">
        <ele>351.4</ele>
        <time>2019-10-18T15:44:13Z</time>
      </trkpt>
      <trkpt lat="37.0461910" lon="-2.4199820">
        <ele>351.4</ele>
        <time>2019-10-18T15:44:14Z</time>
      </trkpt>
      <trkpt lat="37.0461910" lon="-2.4199820">
        <ele>351.4</ele>
        <time>2019-10-18T15:44:15Z</time>
      </trkpt>
      <trkpt lat="37.0461910" lon="-2.4199820">
        <ele>351.4</ele>
        <time>2019-10-18T15:44:16Z</time>
      </trkpt>
      <trkpt lat="37.0461900" lon="-2.4199810">
        <ele>351.4</ele>
        <time>2019-10-18T15:44:17Z</time>
      </trkpt>
      <trkpt lat="37.0461900" lon="-2.4199820">
        <ele>351.4</ele>
        <time>2019-10-18T15:44:18Z</time>
      </trkpt>
      <trkpt lat="37.0461890" lon="-2.4199810">
        <ele>351.4</ele>
        <time>2019-10-18T15:44:19Z</time>
      </trkpt>
      <trkpt lat="37.0461890" lon="-2.4199810">
        <ele>351.4</ele>
        <time>2019-10-18T15:44:20Z</time>
      </trkpt>
      <trkpt lat="37.0461890" lon="-2.4199810">
        <ele>351.4</ele>
        <time>2019-10-18T15:44:21Z</time>
      </trkpt>
      <trkpt lat="37.0461890" lon="-2.4199810">
        <ele>351.4</ele>
        <time>2019-10-18T15:44:22Z</time>
      </trkpt>
      <trkpt lat="37.0461900" lon="-2.4199810">
        <ele>351.4</ele>
        <time>2019-10-18T15:44:23Z</time>
      </trkpt>
      <trkpt lat="37.0461910" lon="-2.4199810">
        <ele>351.4</ele>
        <time>2019-10-18T15:44:24Z</time>
      </trkpt>
      <trkpt lat="37.0461910" lon="-2.4199810">
        <ele>351.4</ele>
        <time>2019-10-18T15:44:25Z</time>
      </trkpt>
      <trkpt lat="37.0461920" lon="-2.4199800">
        <ele>351.4</ele>
        <time>2019-10-18T15:44:26Z</time>
      </trkpt>
      <trkpt lat="37.0461920" lon="-2.4199800">
        <ele>351.4</ele>
        <time>2019-10-18T15:44:27Z</time>
      </trkpt>
      <trkpt lat="37.0461910" lon="-2.4199790">
        <ele>351.4</ele>
        <time>2019-10-18T15:44:28Z</time>
      </trkpt>
      <trkpt lat="37.0461900" lon="-2.4199790">
        <ele>351.4</ele>
        <time>2019-10-18T15:44:29Z</time>
      </trkpt>
      <trkpt lat="37.0461890" lon="-2.4199780">
        <ele>351.4</ele>
        <time>2019-10-18T15:44:30Z</time>
      </trkpt>
      <trkpt lat="37.0461880" lon="-2.4199780">
        <ele>351.4</ele>
        <time>2019-10-18T15:44:31Z</time>
      </trkpt>
      <trkpt lat="37.0461870" lon="-2.4199770">
        <ele>351.4</ele>
        <time>2019-10-18T15:44:32Z</time>
      </trkpt>
      <trkpt lat="37.0461850" lon="-2.4199760">
        <ele>351.4</ele>
        <time>2019-10-18T15:44:33Z</time>
      </trkpt>
      <trkpt lat="37.0461840" lon="-2.4199760">
        <ele>351.4</ele>
        <time>2019-10-18T15:44:34Z</time>
      </trkpt>
      <trkpt lat="37.0461830" lon="-2.4199750">
        <ele>351.4</ele>
        <time>2019-10-18T15:44:35Z</time>
      </trkpt>
      <trkpt lat="37.0461840" lon="-2.4199750">
        <ele>351.4</ele>
        <time>2019-10-18T15:44:36Z</time>
      </trkpt>
      <trkpt lat="37.0461840" lon="-2.4199750">
        <ele>351.4</ele>
        <time>2019-10-18T15:44:37Z</time>
      </trkpt>
      <trkpt lat="37.0461840" lon="-2.4199750">
        <ele>351.4</ele>
        <time>2019-10-18T15:44:38Z</time>
      </trkpt>
      <trkpt lat="37.0461850" lon="-2.4199760">
        <ele>351.4</ele>
        <time>2019-10-18T15:44:39Z</time>
      </trkpt>
      <trkpt lat="37.0461870" lon="-2.4199760">
        <ele>351.4</ele>
        <time>2019-10-18T15:44:40Z</time>
      </trkpt>
      <trkpt lat="37.0461900" lon="-2.4199780">
        <ele>351.4</ele>
        <time>2019-10-18T15:44:41Z</time>
      </trkpt>
      <trkpt lat="37.0461920" lon="-2.4199790">
        <ele>351.4</ele>
        <time>2019-10-18T15:44:42Z</time>
      </trkpt>
      <trkpt lat="37.0461930" lon="-2.4199790">
        <ele>351.4</ele>
        <time>2019-10-18T15:44:43Z</time>
      </trkpt>
      <trkpt lat="37.0461930" lon="-2.4199790">
        <ele>351.4</ele>
        <time>2019-10-18T15:44:44Z</time>
      </trkpt>
      <trkpt lat="37.0461920" lon="-2.4199790">
        <ele>351.4</ele>
        <time>2019-10-18T15:44:45Z</time>
      </trkpt>
      <trkpt lat="37.0461920" lon="-2.4199790">
        <ele>351.4</ele>
        <time>2019-10-18T15:44:46Z</time>
      </trkpt>
      <trkpt lat="37.0461930" lon="-2.4199790">
        <ele>351.4</ele>
        <time>2019-10-18T15:44:47Z</time>
      </trkpt>
      <trkpt lat="37.0461930" lon="-2.4199780">
        <ele>351.4</ele>
        <time>2019-10-18T15:44:48Z</time>
      </trkpt>
      <trkpt lat="37.0461950" lon="-2.4199780">
        <ele>351.4</ele>
        <time>2019-10-18T15:44:49Z</time>
      </trkpt>
      <trkpt lat="37.0461960" lon="-2.4199780">
        <ele>351.4</ele>
        <time>2019-10-18T15:44:50Z</time>
      </trkpt>
      <trkpt lat="37.0461980" lon="-2.4199780">
        <ele>351.4</ele>
        <time>2019-10-18T15:44:51Z</time>
      </trkpt>
      <trkpt lat="37.0461990" lon="-2.4199790">
        <ele>351.4</ele>
        <time>2019-10-18T15:44:52Z</time>
      </trkpt>
      <trkpt lat="37.0461990" lon="-2.4199780">
        <ele>351.4</ele>
        <time>2019-10-18T15:44:53Z</time>
      </trkpt>
      <trkpt lat="37.0462000" lon="-2.4199790">
        <ele>351.4</ele>
        <time>2019-10-18T15:44:54Z</time>
      </trkpt>
      <trkpt lat="37.0461990" lon="-2.4199780">
        <ele>351.4</ele>
        <time>2019-10-18T15:44:55Z</time>
      </trkpt>
      <trkpt lat="37.0461990" lon="-2.4199780">
        <ele>351.4</ele>
        <time>2019-10-18T15:44:56Z</time>
      </trkpt>
      <trkpt lat="37.0461980" lon="-2.4199770">
        <ele>351.4</ele>
        <time>2019-10-18T15:44:57Z</time>
      </trkpt>
      <trkpt lat="37.0461980" lon="-2.4199770">
        <ele>351.4</ele>
        <time>2019-10-18T15:44:58Z</time>
      </trkpt>
      <trkpt lat="37.0461980" lon="-2.4199770">
        <ele>351.4</ele>
        <time>2019-10-18T15:44:59Z</time>
      </trkpt>
      <trkpt lat="37.0461980" lon="-2.4199770">
        <ele>351.4</ele>
        <time>2019-10-18T15:45:00Z</time>
      </trkpt>
      <trkpt lat="37.0461990" lon="-2.4199770">
        <ele>351.4</ele>
        <time>2019-10-18T15:45:01Z</time>
      </trkpt>
      <trkpt lat="37.0462000" lon="-2.4199770">
        <ele>351.4</ele>
        <time>2019-10-18T15:45:02Z</time>
      </trkpt>
      <trkpt lat="37.0462010" lon="-2.4199770">
        <ele>351.4</ele>
        <time>2019-10-18T15:45:03Z</time>
      </trkpt>
      <trkpt lat="37.0462020" lon="-2.4199770">
        <ele>351.4</ele>
        <time>2019-10-18T15:45:04Z</time>
      </trkpt>
      <trkpt lat="37.0462030" lon="-2.4199780">
        <ele>351.4</ele>
        <time>2019-10-18T15:45:05Z</time>
      </trkpt>
      <trkpt lat="37.0462030" lon="-2.4199780">
        <ele>351.4</ele>
        <time>2019-10-18T15:45:06Z</time>
      </trkpt>
      <trkpt lat="37.0462030" lon="-2.4199790">
        <ele>351.4</ele>
        <time>2019-10-18T15:45:07Z</time>
      </trkpt>
      <trkpt lat="37.0462030" lon="-2.4199790">
        <ele>351.4</ele>
        <time>2019-10-18T15:45:08Z</time>
      </trkpt>
      <trkpt lat="37.0462020" lon="-2.4199790">
        <ele>351.4</ele>
        <time>2019-10-18T15:45:09Z</time>
      </trkpt>
      <trkpt lat="37.0462020" lon="-2.4199800">
        <ele>351.4</ele>
        <time>2019-10-18T15:45:10Z</time>
      </trkpt>
      <trkpt lat="37.0462010" lon="-2.4199800">
        <ele>351.4</ele>
        <time>2019-10-18T15:45:11Z</time>
      </trkpt>
      <trkpt lat="37.0462000" lon="-2.4199800">
        <ele>351.4</ele>
        <time>2019-10-18T15:45:12Z</time>
      </trkpt>
      <trkpt lat="37.0462000" lon="-2.4199810">
        <ele>351.4</ele>
        <time>2019-10-18T15:45:13Z</time>
      </trkpt>
      <trkpt lat="37.0462000" lon="-2.4199820">
        <ele>351.4</ele>
        <time>2019-10-18T15:45:14Z</time>
      </trkpt>
      <trkpt lat="37.0461990" lon="-2.4199820">
        <ele>351.4</ele>
        <time>2019-10-18T15:45:15Z</time>
      </trkpt>
      <trkpt lat="37.0461990" lon="-2.4199820">
        <ele>351.4</ele>
        <time>2019-10-18T15:45:16Z</time>
      </trkpt>
      <trkpt lat="37.0461990" lon="-2.4199820">
        <ele>351.4</ele>
        <time>2019-10-18T15:45:17Z</time>
      </trkpt>
      <trkpt lat="37.0461990" lon="-2.4199830">
        <ele>351.4</ele>
        <time>2019-10-18T15:45:18Z</time>
      </trkpt>
      <trkpt lat="37.0461990" lon="-2.4199830">
        <ele>351.4</ele>
        <time>2019-10-18T15:45:19Z</time>
      </trkpt>
      <trkpt lat="37.0462000" lon="-2.4199840">
        <ele>351.4</ele>
        <time>2019-10-18T15:45:20Z</time>
      </trkpt>
      <trkpt lat="37.0462010" lon="-2.4199850">
        <ele>351.4</ele>
        <time>2019-10-18T15:45:21Z</time>
      </trkpt>
      <trkpt lat="37.0462010" lon="-2.4199860">
        <ele>351.4</ele>
        <time>2019-10-18T15:45:22Z</time>
      </trkpt>
      <trkpt lat="37.0462010" lon="-2.4199860">
        <ele>351.4</ele>
        <time>2019-10-18T15:45:23Z</time>
      </trkpt>
      <trkpt lat="37.0462010" lon="-2.4199870">
        <ele>351.4</ele>
        <time>2019-10-18T15:45:24Z</time>
      </trkpt>
      <trkpt lat="37.0462000" lon="-2.4199870">
        <ele>351.4</ele>
        <time>2019-10-18T15:45:25Z</time>
      </trkpt>
      <trkpt lat="37.0461990" lon="-2.4199870">
        <ele>351.4</ele>
        <time>2019-10-18T15:45:26Z</time>
      </trkpt>
      <trkpt lat="37.0461980" lon="-2.4199870">
        <ele>351.4</ele>
        <time>2019-10-18T15:45:27Z</time>
      </trkpt>
      <trkpt lat="37.0461980" lon="-2.4199870">
        <ele>351.4</ele>
        <time>2019-10-18T15:45:28Z</time>
      </trkpt>
      <trkpt lat="37.0461980" lon="-2.4199880">
        <ele>351.4</ele>
        <time>2019-10-18T15:45:29Z</time>
      </trkpt>
      <trkpt lat="37.0461980" lon="-2.4199880">
        <ele>351.4</ele>
        <time>2019-10-18T15:45:30Z</time>
      </trkpt>
      <trkpt lat="37.0461990" lon="-2.4199890">
        <ele>351.4</ele>
        <time>2019-10-18T15:45:31Z</time>
      </trkpt>
      <trkpt lat="37.0461990" lon="-2.4199900">
        <ele>351.4</ele>
        <time>2019-10-18T15:45:32Z</time>
      </trkpt>
      <trkpt lat="37.0462000" lon="-2.4199900">
        <ele>351.4</ele>
        <time>2019-10-18T15:45:33Z</time>
      </trkpt>
      <trkpt lat="37.0462000" lon="-2.4199900">
        <ele>351.4</ele>
        <time>2019-10-18T15:45:34Z</time>
      </trkpt>
      <trkpt lat="37.0462010" lon="-2.4199910">
        <ele>351.4</ele>
        <time>2019-10-18T15:45:35Z</time>
      </trkpt>
      <trkpt lat="37.0462010" lon="-2.4199910">
        <ele>351.4</ele>
        <time>2019-10-18T15:45:36Z</time>
      </trkpt>
      <trkpt lat="37.0462010" lon="-2.4199910">
        <ele>351.4</ele>
        <time>2019-10-18T15:45:37Z</time>
      </trkpt>
      <trkpt lat="37.0462000" lon="-2.4199920">
        <ele>351.4</ele>
        <time>2019-10-18T15:45:38Z</time>
      </trkpt>
      <trkpt lat="37.0462000" lon="-2.4199920">
        <ele>351.4</ele>
        <time>2019-10-18T15:45:39Z</time>
      </trkpt>
      <trkpt lat="37.0461990" lon="-2.4199930">
        <ele>351.4</ele>
        <time>2019-10-18T15:45:40Z</time>
      </trkpt>
      <trkpt lat="37.0461990" lon="-2.4199940">
        <ele>351.4</ele>
        <time>2019-10-18T15:45:41Z</time>
      </trkpt>
      <trkpt lat="37.0461990" lon="-2.4199940">
        <ele>351.4</ele>
        <time>2019-10-18T15:45:42Z</time>
      </trkpt>
      <trkpt lat="37.0461990" lon="-2.4199950">
        <ele>351.4</ele>
        <time>2019-10-18T15:45:43Z</time>
      </trkpt>
      <trkpt lat="37.0461990" lon="-2.4199940">
        <ele>351.4</ele>
        <time>2019-10-18T15:45:44Z</time>
      </trkpt>
      <trkpt lat="37.0461990" lon="-2.4199950">
        <ele>351.4</ele>
        <time>2019-10-18T15:45:45Z</time>
      </trkpt>
      <trkpt lat="37.0461990" lon="-2.4199950">
        <ele>351.4</ele>
        <time>2019-10-18T15:45:46Z</time>
      </trkpt>
      <trkpt lat="37.0461980" lon="-2.4199950">
        <ele>351.4</ele>
        <time>2019-10-18T15:45:47Z</time>
      </trkpt>
      <trkpt lat="37.0461980" lon="-2.4199950">
        <ele>351.4</ele>
        <time>2019-10-18T15:45:48Z</time>
      </trkpt>
      <trkpt lat="37.0461980" lon="-2.4199950">
        <ele>351.4</ele>
        <time>2019-10-18T15:45:49Z</time>
      </trkpt>
      <trkpt lat="37.0461980" lon="-2.4199950">
        <ele>351.4</ele>
        <time>2019-10-18T15:45:50Z</time>
      </trkpt>
      <trkpt lat="37.0461980" lon="-2.4199950">
        <ele>351.4</ele>
        <time>2019-10-18T15:45:51Z</time>
      </trkpt>
      <trkpt lat="37.0461980" lon="-2.4199950">
        <ele>351.4</ele>
        <time>2019-10-18T15:45:52Z</time>
      </trkpt>
      <trkpt lat="37.0461980" lon="-2.4199950">
        <ele>351.4</ele>
        <time>2019-10-18T15:45:53Z</time>
      </trkpt>
      <trkpt lat="37.0461980" lon="-2.4199950">
        <ele>351.4</ele>
        <time>2019-10-18T15:45:54Z</time>
      </trkpt>
      <trkpt lat="37.0461980" lon="-2.4199950">
        <ele>351.4</ele>
        <time>2019-10-18T15:45:55Z</time>
      </trkpt>
      <trkpt lat="37.0461980" lon="-2.4199940">
        <ele>351.4</ele>
        <time>2019-10-18T15:45:56Z</time>
      </trkpt>
      <trkpt lat="37.0461980" lon="-2.4199940">
        <ele>351.4</ele>
        <time>2019-10-18T15:45:57Z</time>
      </trkpt>
      <trkpt lat="37.0461980" lon="-2.4199940">
        <ele>351.4</ele>
        <time>2019-10-18T15:45:58Z</time>
      </trkpt>
      <trkpt lat="37.0461980" lon="-2.4199930">
        <ele>351.4</ele>
        <time>2019-10-18T15:45:59Z</time>
      </trkpt>
      <trkpt lat="37.0461980" lon="-2.4199920">
        <ele>351.4</ele>
        <time>2019-10-18T15:46:00Z</time>
      </trkpt>
      <trkpt lat="37.0461980" lon="-2.4199920">
        <ele>351.4</ele>
        <time>2019-10-18T15:46:01Z</time>
      </trkpt>
      <trkpt lat="37.0461980" lon="-2.4199920">
        <ele>351.4</ele>
        <time>2019-10-18T15:46:02Z</time>
      </trkpt>
      <trkpt lat="37.0461980" lon="-2.4199920">
        <ele>351.4</ele>
        <time>2019-10-18T15:46:03Z</time>
      </trkpt>
      <trkpt lat="37.0461980" lon="-2.4199910">
        <ele>351.4</ele>
        <time>2019-10-18T15:46:04Z</time>
      </trkpt>
      <trkpt lat="37.0461990" lon="-2.4199910">
        <ele>351.5</ele>
        <time>2019-10-18T15:46:05Z</time>
      </trkpt>
      <trkpt lat="37.0461980" lon="-2.4199910">
        <ele>351.5</ele>
        <time>2019-10-18T15:46:06Z</time>
      </trkpt>
      <trkpt lat="37.0461980" lon="-2.4199910">
        <ele>351.5</ele>
        <time>2019-10-18T15:46:07Z</time>
      </trkpt>
      <trkpt lat="37.0461980" lon="-2.4199900">
        <ele>351.5</ele>
        <time>2019-10-18T15:46:08Z</time>
      </trkpt>
      <trkpt lat="37.0461980" lon="-2.4199900">
        <ele>351.5</ele>
        <time>2019-10-18T15:46:09Z</time>
      </trkpt>
      <trkpt lat="37.0461970" lon="-2.4199900">
        <ele>351.5</ele>
        <time>2019-10-18T15:46:10Z</time>
      </trkpt>
      <trkpt lat="37.0461970" lon="-2.4199890">
        <ele>351.5</ele>
        <time>2019-10-18T15:46:11Z</time>
      </trkpt>
      <trkpt lat="37.0461960" lon="-2.4199890">
        <ele>351.5</ele>
        <time>2019-10-18T15:46:12Z</time>
      </trkpt>
      <trkpt lat="37.0461960" lon="-2.4199880">
        <ele>351.5</ele>
        <time>2019-10-18T15:46:13Z</time>
      </trkpt>
      <trkpt lat="37.0461960" lon="-2.4199880">
        <ele>351.5</ele>
        <time>2019-10-18T15:46:14Z</time>
      </trkpt>
      <trkpt lat="37.0461960" lon="-2.4199880">
        <ele>351.5</ele>
        <time>2019-10-18T15:46:15Z</time>
      </trkpt>
      <trkpt lat="37.0461960" lon="-2.4199880">
        <ele>351.5</ele>
        <time>2019-10-18T15:46:16Z</time>
      </trkpt>
      <trkpt lat="37.0461960" lon="-2.4199890">
        <ele>351.5</ele>
        <time>2019-10-18T15:46:17Z</time>
      </trkpt>
      <trkpt lat="37.0461960" lon="-2.4199890">
        <ele>351.5</ele>
        <time>2019-10-18T15:46:18Z</time>
      </trkpt>
      <trkpt lat="37.0461960" lon="-2.4199890">
        <ele>351.5</ele>
        <time>2019-10-18T15:46:19Z</time>
      </trkpt>
      <trkpt lat="37.0461960" lon="-2.4199890">
        <ele>351.5</ele>
        <time>2019-10-18T15:46:20Z</time>
      </trkpt>
      <trkpt lat="37.0461950" lon="-2.4199890">
        <ele>351.5</ele>
        <time>2019-10-18T15:46:21Z</time>
      </trkpt>
      <trkpt lat="37.0461950" lon="-2.4199880">
        <ele>351.5</ele>
        <time>2019-10-18T15:46:22Z</time>
      </trkpt>
      <trkpt lat="37.0461940" lon="-2.4199880">
        <ele>351.5</ele>
        <time>2019-10-18T15:46:23Z</time>
      </trkpt>
      <trkpt lat="37.0461940" lon="-2.4199890">
        <ele>351.5</ele>
        <time>2019-10-18T15:46:24Z</time>
      </trkpt>
      <trkpt lat="37.0461930" lon="-2.4199890">
        <ele>351.5</ele>
        <time>2019-10-18T15:46:25Z</time>
      </trkpt>
      <trkpt lat="37.0461920" lon="-2.4199880">
        <ele>351.5</ele>
        <time>2019-10-18T15:46:26Z</time>
      </trkpt>
      <trkpt lat="37.0461920" lon="-2.4199880">
        <ele>351.5</ele>
        <time>2019-10-18T15:46:27Z</time>
      </trkpt>
      <trkpt lat="37.0461910" lon="-2.4199880">
        <ele>351.5</ele>
        <time>2019-10-18T15:46:28Z</time>
      </trkpt>
      <trkpt lat="37.0461910" lon="-2.4199890">
        <ele>351.5</ele>
        <time>2019-10-18T15:46:29Z</time>
      </trkpt>
      <trkpt lat="37.0461900" lon="-2.4199900">
        <ele>351.5</ele>
        <time>2019-10-18T15:46:30Z</time>
      </trkpt>
      <trkpt lat="37.0461910" lon="-2.4199910">
        <ele>351.5</ele>
        <time>2019-10-18T15:46:31Z</time>
      </trkpt>
      <trkpt lat="37.0461930" lon="-2.4199910">
        <ele>351.5</ele>
        <time>2019-10-18T15:46:32Z</time>
      </trkpt>
      <trkpt lat="37.0461950" lon="-2.4199920">
        <ele>351.5</ele>
        <time>2019-10-18T15:46:33Z</time>
      </trkpt>
      <trkpt lat="37.0461970" lon="-2.4199920">
        <ele>351.5</ele>
        <time>2019-10-18T15:46:34Z</time>
      </trkpt>
      <trkpt lat="37.0461990" lon="-2.4199900">
        <ele>351.5</ele>
        <time>2019-10-18T15:46:35Z</time>
      </trkpt>
      <trkpt lat="37.0462010" lon="-2.4199880">
        <ele>351.5</ele>
        <time>2019-10-18T15:46:36Z</time>
      </trkpt>
      <trkpt lat="37.0462040" lon="-2.4199860">
        <ele>351.5</ele>
        <time>2019-10-18T15:46:37Z</time>
      </trkpt>
      <trkpt lat="37.0462100" lon="-2.4199850">
        <ele>351.5</ele>
        <time>2019-10-18T15:46:38Z</time>
      </trkpt>
      <trkpt lat="37.0462180" lon="-2.4199830">
        <ele>351.5</ele>
        <time>2019-10-18T15:46:39Z</time>
      </trkpt>
      <trkpt lat="37.0462280" lon="-2.4199820">
        <ele>351.5</ele>
        <time>2019-10-18T15:46:40Z</time>
      </trkpt>
      <trkpt lat="37.0462400" lon="-2.4199860">
        <ele>351.5</ele>
        <time>2019-10-18T15:46:41Z</time>
      </trkpt>
      <trkpt lat="37.0462540" lon="-2.4199930">
        <ele>351.5</ele>
        <time>2019-10-18T15:46:42Z</time>
      </trkpt>
      <trkpt lat="37.0462670" lon="-2.4200030">
        <ele>351.5</ele>
        <time>2019-10-18T15:46:43Z</time>
      </trkpt>
      <trkpt lat="37.0462770" lon="-2.4200100">
        <ele>351.5</ele>
        <time>2019-10-18T15:46:44Z</time>
      </trkpt>
      <trkpt lat="37.0462840" lon="-2.4200140">
        <ele>351.6</ele>
        <time>2019-10-18T15:46:45Z</time>
      </trkpt>
      <trkpt lat="37.0462870" lon="-2.4200160">
        <ele>351.6</ele>
        <time>2019-10-18T15:46:46Z</time>
      </trkpt>
      <trkpt lat="37.0462880" lon="-2.4200170">
        <ele>351.6</ele>
        <time>2019-10-18T15:46:47Z</time>
      </trkpt>
      <trkpt lat="37.0462890" lon="-2.4200180">
        <ele>351.6</ele>
        <time>2019-10-18T15:46:48Z</time>
      </trkpt>
      <trkpt lat="37.0462900" lon="-2.4200190">
        <ele>351.6</ele>
        <time>2019-10-18T15:46:49Z</time>
      </trkpt>
      <trkpt lat="37.0462950" lon="-2.4200210">
        <ele>351.6</ele>
        <time>2019-10-18T15:46:50Z</time>
      </trkpt>
      <trkpt lat="37.0463030" lon="-2.4200230">
        <ele>351.6</ele>
        <time>2019-10-18T15:46:51Z</time>
      </trkpt>
      <trkpt lat="37.0463140" lon="-2.4200260">
        <ele>351.6</ele>
        <time>2019-10-18T15:46:52Z</time>
      </trkpt>
      <trkpt lat="37.0463260" lon="-2.4200300">
        <ele>351.6</ele>
        <time>2019-10-18T15:46:53Z</time>
      </trkpt>
      <trkpt lat="37.0463360" lon="-2.4200340">
        <ele>351.6</ele>
        <time>2019-10-18T15:46:54Z</time>
      </trkpt>
      <trkpt lat="37.0463460" lon="-2.4200370">
        <ele>351.7</ele>
        <time>2019-10-18T15:46:55Z</time>
      </trkpt>
      <trkpt lat="37.0463560" lon="-2.4200400">
        <ele>351.7</ele>
        <time>2019-10-18T15:46:56Z</time>
      </trkpt>
      <trkpt lat="37.0463650" lon="-2.4200420">
        <ele>351.7</ele>
        <time>2019-10-18T15:46:57Z</time>
      </trkpt>
      <trkpt lat="37.0463740" lon="-2.4200440">
        <ele>351.7</ele>
        <time>2019-10-18T15:46:58Z</time>
      </trkpt>
      <trkpt lat="37.0463830" lon="-2.4200470">
        <ele>351.7</ele>
        <time>2019-10-18T15:46:59Z</time>
      </trkpt>
      <trkpt lat="37.0463890" lon="-2.4200510">
        <ele>351.7</ele>
        <time>2019-10-18T15:47:00Z</time>
      </trkpt>
      <trkpt lat="37.0463910" lon="-2.4200530">
        <ele>351.7</ele>
        <time>2019-10-18T15:47:01Z</time>
      </trkpt>
      <trkpt lat="37.0463910" lon="-2.4200530">
        <ele>351.7</ele>
        <time>2019-10-18T15:47:02Z</time>
      </trkpt>
      <trkpt lat="37.0463900" lon="-2.4200520">
        <ele>351.7</ele>
        <time>2019-10-18T15:47:03Z</time>
      </trkpt>
      <trkpt lat="37.0463910" lon="-2.4200520">
        <ele>351.7</ele>
        <time>2019-10-18T15:47:04Z</time>
      </trkpt>
      <trkpt lat="37.0463920" lon="-2.4200530">
        <ele>351.7</ele>
        <time>2019-10-18T15:47:05Z</time>
      </trkpt>
      <trkpt lat="37.0463940" lon="-2.4200550">
        <ele>351.7</ele>
        <time>2019-10-18T15:47:06Z</time>
      </trkpt>
      <trkpt lat="37.0463960" lon="-2.4200560">
        <ele>351.7</ele>
        <time>2019-10-18T15:47:07Z</time>
      </trkpt>
      <trkpt lat="37.0463970" lon="-2.4200560">
        <ele>351.7</ele>
        <time>2019-10-18T15:47:08Z</time>
      </trkpt>
      <trkpt lat="37.0463980" lon="-2.4200570">
        <ele>351.7</ele>
        <time>2019-10-18T15:47:09Z</time>
      </trkpt>
      <trkpt lat="37.0463990" lon="-2.4200570">
        <ele>351.7</ele>
        <time>2019-10-18T15:47:10Z</time>
      </trkpt>
      <trkpt lat="37.0464000" lon="-2.4200570">
        <ele>351.7</ele>
        <time>2019-10-18T15:47:11Z</time>
      </trkpt>
      <trkpt lat="37.0464000" lon="-2.4200570">
        <ele>351.7</ele>
        <time>2019-10-18T15:47:12Z</time>
      </trkpt>
      <trkpt lat="37.0464010" lon="-2.4200560">
        <ele>351.7</ele>
        <time>2019-10-18T15:47:13Z</time>
      </trkpt>
      <trkpt lat="37.0464020" lon="-2.4200560">
        <ele>351.7</ele>
        <time>2019-10-18T15:47:14Z</time>
      </trkpt>
      <trkpt lat="37.0464020" lon="-2.4200560">
        <ele>351.7</ele>
        <time>2019-10-18T15:47:15Z</time>
      </trkpt>
      <trkpt lat="37.0464030" lon="-2.4200560">
        <ele>351.7</ele>
        <time>2019-10-18T15:47:16Z</time>
      </trkpt>
      <trkpt lat="37.0464030" lon="-2.4200560">
        <ele>351.7</ele>
        <time>2019-10-18T15:47:17Z</time>
      </trkpt>
      <trkpt lat="37.0464040" lon="-2.4200560">
        <ele>351.7</ele>
        <time>2019-10-18T15:47:18Z</time>
      </trkpt>
      <trkpt lat="37.0464050" lon="-2.4200560">
        <ele>351.7</ele>
        <time>2019-10-18T15:47:19Z</time>
      </trkpt>
      <trkpt lat="37.0464050" lon="-2.4200560">
        <ele>351.7</ele>
        <time>2019-10-18T15:47:20Z</time>
      </trkpt>
      <trkpt lat="37.0464040" lon="-2.4200550">
        <ele>351.7</ele>
        <time>2019-10-18T15:47:21Z</time>
      </trkpt>
      <trkpt lat="37.0464040" lon="-2.4200540">
        <ele>351.7</ele>
        <time>2019-10-18T15:47:22Z</time>
      </trkpt>
      <trkpt lat="37.0464040" lon="-2.4200540">
        <ele>351.7</ele>
        <time>2019-10-18T15:47:23Z</time>
      </trkpt>
      <trkpt lat="37.0464040" lon="-2.4200540">
        <ele>351.7</ele>
        <time>2019-10-18T15:47:24Z</time>
      </trkpt>
      <trkpt lat="37.0464030" lon="-2.4200540">
        <ele>351.7</ele>
        <time>2019-10-18T15:47:25Z</time>
      </trkpt>
      <trkpt lat="37.0464040" lon="-2.4200540">
        <ele>351.7</ele>
        <time>2019-10-18T15:47:26Z</time>
      </trkpt>
      <trkpt lat="37.0464040" lon="-2.4200530">
        <ele>351.7</ele>
        <time>2019-10-18T15:47:27Z</time>
      </trkpt>
      <trkpt lat="37.0464040" lon="-2.4200530">
        <ele>351.7</ele>
        <time>2019-10-18T15:47:28Z</time>
      </trkpt>
      <trkpt lat="37.0464040" lon="-2.4200520">
        <ele>351.7</ele>
        <time>2019-10-18T15:47:29Z</time>
      </trkpt>
      <trkpt lat="37.0464040" lon="-2.4200530">
        <ele>351.7</ele>
        <time>2019-10-18T15:47:30Z</time>
      </trkpt>
      <trkpt lat="37.0464040" lon="-2.4200520">
        <ele>351.7</ele>
        <time>2019-10-18T15:47:31Z</time>
      </trkpt>
      <trkpt lat="37.0464040" lon="-2.4200520">
        <ele>351.7</ele>
        <time>2019-10-18T15:47:32Z</time>
      </trkpt>
      <trkpt lat="37.0464040" lon="-2.4200510">
        <ele>351.7</ele>
        <time>2019-10-18T15:47:33Z</time>
      </trkpt>
      <trkpt lat="37.0464070" lon="-2.4200510">
        <ele>351.7</ele>
        <time>2019-10-18T15:47:34Z</time>
      </trkpt>
      <trkpt lat="37.0464100" lon="-2.4200520">
        <ele>351.7</ele>
        <time>2019-10-18T15:47:35Z</time>
      </trkpt>
      <trkpt lat="37.0464140" lon="-2.4200530">
        <ele>351.7</ele>
        <time>2019-10-18T15:47:36Z</time>
      </trkpt>
      <trkpt lat="37.0464160" lon="-2.4200530">
        <ele>351.7</ele>
        <time>2019-10-18T15:47:37Z</time>
      </trkpt>
      <trkpt lat="37.0464160" lon="-2.4200520">
        <ele>351.7</ele>
        <time>2019-10-18T15:47:38Z</time>
      </trkpt>
      <trkpt lat="37.0464170" lon="-2.4200510">
        <ele>351.7</ele>
        <time>2019-10-18T15:47:39Z</time>
      </trkpt>
      <trkpt lat="37.0464160" lon="-2.4200510">
        <ele>351.7</ele>
        <time>2019-10-18T15:47:40Z</time>
      </trkpt>
      <trkpt lat="37.0464170" lon="-2.4200510">
        <ele>351.7</ele>
        <time>2019-10-18T15:47:41Z</time>
      </trkpt>
      <trkpt lat="37.0464170" lon="-2.4200510">
        <ele>351.7</ele>
        <time>2019-10-18T15:47:42Z</time>
      </trkpt>
      <trkpt lat="37.0464180" lon="-2.4200510">
        <ele>351.8</ele>
        <time>2019-10-18T15:47:43Z</time>
      </trkpt>
      <trkpt lat="37.0464180" lon="-2.4200510">
        <ele>351.8</ele>
        <time>2019-10-18T15:47:44Z</time>
      </trkpt>
      <trkpt lat="37.0464180" lon="-2.4200500">
        <ele>351.8</ele>
        <time>2019-10-18T15:47:45Z</time>
      </trkpt>
      <trkpt lat="37.0464190" lon="-2.4200500">
        <ele>351.8</ele>
        <time>2019-10-18T15:47:46Z</time>
      </trkpt>
      <trkpt lat="37.0464190" lon="-2.4200500">
        <ele>351.8</ele>
        <time>2019-10-18T15:47:47Z</time>
      </trkpt>
      <trkpt lat="37.0464190" lon="-2.4200490">
        <ele>351.8</ele>
        <time>2019-10-18T15:47:48Z</time>
      </trkpt>
      <trkpt lat="37.0464190" lon="-2.4200490">
        <ele>351.8</ele>
        <time>2019-10-18T15:47:49Z</time>
      </trkpt>
      <trkpt lat="37.0464190" lon="-2.4200490">
        <ele>351.8</ele>
        <time>2019-10-18T15:47:50Z</time>
      </trkpt>
      <trkpt lat="37.0464190" lon="-2.4200480">
        <ele>351.8</ele>
        <time>2019-10-18T15:47:51Z</time>
      </trkpt>
      <trkpt lat="37.0464190" lon="-2.4200480">
        <ele>351.8</ele>
        <time>2019-10-18T15:47:52Z</time>
      </trkpt>
      <trkpt lat="37.0464190" lon="-2.4200480">
        <ele>351.8</ele>
        <time>2019-10-18T15:47:53Z</time>
      </trkpt>
      <trkpt lat="37.0464190" lon="-2.4200470">
        <ele>351.8</ele>
        <time>2019-10-18T15:47:54Z</time>
      </trkpt>
      <trkpt lat="37.0464200" lon="-2.4200470">
        <ele>351.8</ele>
        <time>2019-10-18T15:47:55Z</time>
      </trkpt>
      <trkpt lat="37.0464200" lon="-2.4200470">
        <ele>351.8</ele>
        <time>2019-10-18T15:47:56Z</time>
      </trkpt>
      <trkpt lat="37.0464200" lon="-2.4200470">
        <ele>351.8</ele>
        <time>2019-10-18T15:47:57Z</time>
      </trkpt>
      <trkpt lat="37.0464200" lon="-2.4200470">
        <ele>351.8</ele>
        <time>2019-10-18T15:47:58Z</time>
      </trkpt>
      <trkpt lat="37.0464200" lon="-2.4200470">
        <ele>351.8</ele>
        <time>2019-10-18T15:47:59Z</time>
      </trkpt>
      <trkpt lat="37.0464200" lon="-2.4200470">
        <ele>351.8</ele>
        <time>2019-10-18T15:48:00Z</time>
      </trkpt>
      <trkpt lat="37.0464200" lon="-2.4200470">
        <ele>351.8</ele>
        <time>2019-10-18T15:48:01Z</time>
      </trkpt>
      <trkpt lat="37.0464200" lon="-2.4200480">
        <ele>351.8</ele>
        <time>2019-10-18T15:48:02Z</time>
      </trkpt>
      <trkpt lat="37.0464210" lon="-2.4200480">
        <ele>351.8</ele>
        <time>2019-10-18T15:48:03Z</time>
      </trkpt>
      <trkpt lat="37.0464210" lon="-2.4200480">
        <ele>351.8</ele>
        <time>2019-10-18T15:48:04Z</time>
      </trkpt>
      <trkpt lat="37.0464210" lon="-2.4200480">
        <ele>351.8</ele>
        <time>2019-10-18T15:48:05Z</time>
      </trkpt>
      <trkpt lat="37.0464220" lon="-2.4200480">
        <ele>351.8</ele>
        <time>2019-10-18T15:48:06Z</time>
      </trkpt>
      <trkpt lat="37.0464220" lon="-2.4200490">
        <ele>351.8</ele>
        <time>2019-10-18T15:48:07Z</time>
      </trkpt>
      <trkpt lat="37.0464220" lon="-2.4200490">
        <ele>351.8</ele>
        <time>2019-10-18T15:48:08Z</time>
      </trkpt>
      <trkpt lat="37.0464230" lon="-2.4200490">
        <ele>351.8</ele>
        <time>2019-10-18T15:48:09Z</time>
      </trkpt>
      <trkpt lat="37.0464230" lon="-2.4200490">
        <ele>351.8</ele>
        <time>2019-10-18T15:48:10Z</time>
      </trkpt>
      <trkpt lat="37.0464230" lon="-2.4200490">
        <ele>351.8</ele>
        <time>2019-10-18T15:48:11Z</time>
      </trkpt>
      <trkpt lat="37.0464230" lon="-2.4200480">
        <ele>351.8</ele>
        <time>2019-10-18T15:48:12Z</time>
      </trkpt>
      <trkpt lat="37.0464230" lon="-2.4200480">
        <ele>351.8</ele>
        <time>2019-10-18T15:48:13Z</time>
      </trkpt>
      <trkpt lat="37.0464230" lon="-2.4200470">
        <ele>351.8</ele>
        <time>2019-10-18T15:48:14Z</time>
      </trkpt>
      <trkpt lat="37.0464230" lon="-2.4200470">
        <ele>351.8</ele>
        <time>2019-10-18T15:48:15Z</time>
      </trkpt>
      <trkpt lat="37.0464230" lon="-2.4200470">
        <ele>351.8</ele>
        <time>2019-10-18T15:48:16Z</time>
      </trkpt>
      <trkpt lat="37.0464250" lon="-2.4200470">
        <ele>351.8</ele>
        <time>2019-10-18T15:48:17Z</time>
      </trkpt>
      <trkpt lat="37.0464290" lon="-2.4200470">
        <ele>351.8</ele>
        <time>2019-10-18T15:48:18Z</time>
      </trkpt>
      <trkpt lat="37.0464360" lon="-2.4200490">
        <ele>351.8</ele>
        <time>2019-10-18T15:48:19Z</time>
      </trkpt>
      <trkpt lat="37.0464470" lon="-2.4200520">
        <ele>351.8</ele>
        <time>2019-10-18T15:48:20Z</time>
      </trkpt>
      <trkpt lat="37.0464600" lon="-2.4200570">
        <ele>351.8</ele>
        <time>2019-10-18T15:48:21Z</time>
      </trkpt>
      <trkpt lat="37.0464740" lon="-2.4200630">
        <ele>351.8</ele>
        <time>2019-10-18T15:48:22Z</time>
      </trkpt>
      <trkpt lat="37.0464890" lon="-2.4200700">
        <ele>351.9</ele>
        <time>2019-10-18T15:48:23Z</time>
      </trkpt>
      <trkpt lat="37.0465050" lon="-2.4200770">
        <ele>351.9</ele>
        <time>2019-10-18T15:48:24Z</time>
      </trkpt>
      <trkpt lat="37.0465210" lon="-2.4200830">
        <ele>351.9</ele>
        <time>2019-10-18T15:48:25Z</time>
      </trkpt>
      <trkpt lat="37.0465370" lon="-2.4200900">
        <ele>352.0</ele>
        <time>2019-10-18T15:48:26Z</time>
      </trkpt>
      <trkpt lat="37.0465540" lon="-2.4200980">
        <ele>352.0</ele>
        <time>2019-10-18T15:48:27Z</time>
      </trkpt>
      <trkpt lat="37.0465710" lon="-2.4201070">
        <ele>352.1</ele>
        <time>2019-10-18T15:48:28Z</time>
      </trkpt>
      <trkpt lat="37.0465900" lon="-2.4201160">
        <ele>352.1</ele>
        <time>2019-10-18T15:48:29Z</time>
      </trkpt>
      <trkpt lat="37.0466090" lon="-2.4201240">
        <ele>352.2</ele>
        <time>2019-10-18T15:48:30Z</time>
      </trkpt>
      <trkpt lat="37.0466280" lon="-2.4201320">
        <ele>352.2</ele>
        <time>2019-10-18T15:48:31Z</time>
      </trkpt>
      <trkpt lat="37.0466470" lon="-2.4201410">
        <ele>352.2</ele>
        <time>2019-10-18T15:48:32Z</time>
      </trkpt>
      <trkpt lat="37.0466640" lon="-2.4201520">
        <ele>352.3</ele>
        <time>2019-10-18T15:48:33Z</time>
      </trkpt>
      <trkpt lat="37.0466820" lon="-2.4201620">
        <ele>352.3</ele>
        <time>2019-10-18T15:48:34Z</time>
      </trkpt>
      <trkpt lat="37.0466990" lon="-2.4201710">
        <ele>352.3</ele>
        <time>2019-10-18T15:48:35Z</time>
      </trkpt>
      <trkpt lat="37.0467170" lon="-2.4201810">
        <ele>352.4</ele>
        <time>2019-10-18T15:48:36Z</time>
      </trkpt>
      <trkpt lat="37.0467340" lon="-2.4201910">
        <ele>352.4</ele>
        <time>2019-10-18T15:48:37Z</time>
      </trkpt>
      <trkpt lat="37.0467530" lon="-2.4202000">
        <ele>352.4</ele>
        <time>2019-10-18T15:48:38Z</time>
      </trkpt>
      <trkpt lat="37.0467710" lon="-2.4202090">
        <ele>352.5</ele>
        <time>2019-10-18T15:48:39Z</time>
      </trkpt>
      <trkpt lat="37.0467880" lon="-2.4202170">
        <ele>352.5</ele>
        <time>2019-10-18T15:48:40Z</time>
      </trkpt>
      <trkpt lat="37.0468060" lon="-2.4202250">
        <ele>352.5</ele>
        <time>2019-10-18T15:48:41Z</time>
      </trkpt>
      <trkpt lat="37.0468230" lon="-2.4202350">
        <ele>352.6</ele>
        <time>2019-10-18T15:48:42Z</time>
      </trkpt>
      <trkpt lat="37.0468400" lon="-2.4202450">
        <ele>352.6</ele>
        <time>2019-10-18T15:48:43Z</time>
      </trkpt>
      <trkpt lat="37.0468570" lon="-2.4202570">
        <ele>352.7</ele>
        <time>2019-10-18T15:48:44Z</time>
      </trkpt>
      <trkpt lat="37.0468740" lon="-2.4202700">
        <ele>352.7</ele>
        <time>2019-10-18T15:48:45Z</time>
      </trkpt>
      <trkpt lat="37.0468930" lon="-2.4202810">
        <ele>352.8</ele>
        <time>2019-10-18T15:48:46Z</time>
      </trkpt>
      <trkpt lat="37.0469130" lon="-2.4202910">
        <ele>352.8</ele>
        <time>2019-10-18T15:48:47Z</time>
      </trkpt>
      <trkpt lat="37.0469340" lon="-2.4202990">
        <ele>352.8</ele>
        <time>2019-10-18T15:48:48Z</time>
      </trkpt>
      <trkpt lat="37.0469560" lon="-2.4203060">
        <ele>352.9</ele>
        <time>2019-10-18T15:48:49Z</time>
      </trkpt>
      <trkpt lat="37.0469780" lon="-2.4203140">
        <ele>352.9</ele>
        <time>2019-10-18T15:48:50Z</time>
      </trkpt>
      <trkpt lat="37.0470000" lon="-2.4203230">
        <ele>353.0</ele>
        <time>2019-10-18T15:48:51Z</time>
      </trkpt>
      <trkpt lat="37.0470230" lon="-2.4203310">
        <ele>353.0</ele>
        <time>2019-10-18T15:48:52Z</time>
      </trkpt>
      <trkpt lat="37.0470450" lon="-2.4203400">
        <ele>353.1</ele>
        <time>2019-10-18T15:48:53Z</time>
      </trkpt>
      <trkpt lat="37.0470660" lon="-2.4203470">
        <ele>353.1</ele>
        <time>2019-10-18T15:48:54Z</time>
      </trkpt>
      <trkpt lat="37.0470880" lon="-2.4203550">
        <ele>353.2</ele>
        <time>2019-10-18T15:48:55Z</time>
      </trkpt>
      <trkpt lat="37.0471100" lon="-2.4203620">
        <ele>353.2</ele>
        <time>2019-10-18T15:48:56Z</time>
      </trkpt>
      <trkpt lat="37.0471320" lon="-2.4203700">
        <ele>353.3</ele>
        <time>2019-10-18T15:48:57Z</time>
      </trkpt>
      <trkpt lat="37.0471540" lon="-2.4203770">
        <ele>353.4</ele>
        <time>2019-10-18T15:48:58Z</time>
      </trkpt>
      <trkpt lat="37.0471750" lon="-2.4203840">
        <ele>353.5</ele>
        <time>2019-10-18T15:48:59Z</time>
      </trkpt>
      <trkpt lat="37.0471970" lon="-2.4203920">
        <ele>353.6</ele>
        <time>2019-10-18T15:49:00Z</time>
      </trkpt>
      <trkpt lat="37.0472180" lon="-2.4204010">
        <ele>353.7</ele>
        <time>2019-10-18T15:49:01Z</time>
      </trkpt>
      <trkpt lat="37.0472390" lon="-2.4204090">
        <ele>353.7</ele>
        <time>2019-10-18T15:49:02Z</time>
      </trkpt>
      <trkpt lat="37.0472600" lon="-2.4204190">
        <ele>353.8</ele>
        <time>2019-10-18T15:49:03Z</time>
      </trkpt>
      <trkpt lat="37.0472800" lon="-2.4204290">
        <ele>353.9</ele>
        <time>2019-10-18T15:49:04Z</time>
      </trkpt>
      <trkpt lat="37.0473000" lon="-2.4204400">
        <ele>354.0</ele>
        <time>2019-10-18T15:49:05Z</time>
      </trkpt>
      <trkpt lat="37.0473200" lon="-2.4204530">
        <ele>354.1</ele>
        <time>2019-10-18T15:49:06Z</time>
      </trkpt>
      <trkpt lat="37.0473400" lon="-2.4204650">
        <ele>354.2</ele>
        <time>2019-10-18T15:49:07Z</time>
      </trkpt>
      <trkpt lat="37.0473610" lon="-2.4204760">
        <ele>354.3</ele>
        <time>2019-10-18T15:49:08Z</time>
      </trkpt>
      <trkpt lat="37.0473810" lon="-2.4204870">
        <ele>354.4</ele>
        <time>2019-10-18T15:49:09Z</time>
      </trkpt>
      <trkpt lat="37.0474020" lon="-2.4204980">
        <ele>354.5</ele>
        <time>2019-10-18T15:49:10Z</time>
      </trkpt>
      <trkpt lat="37.0474220" lon="-2.4205110">
        <ele>354.6</ele>
        <time>2019-10-18T15:49:11Z</time>
      </trkpt>
      <trkpt lat="37.0474410" lon="-2.4205250">
        <ele>354.7</ele>
        <time>2019-10-18T15:49:12Z</time>
      </trkpt>
      <trkpt lat="37.0474600" lon="-2.4205410">
        <ele>354.9</ele>
        <time>2019-10-18T15:49:13Z</time>
      </trkpt>
      <trkpt lat="37.0474780" lon="-2.4205590">
        <ele>355.1</ele>
        <time>2019-10-18T15:49:14Z</time>
      </trkpt>
      <trkpt lat="37.0474960" lon="-2.4205780">
        <ele>355.2</ele>
        <time>2019-10-18T15:49:15Z</time>
      </trkpt>
      <trkpt lat="37.0475140" lon="-2.4205960">
        <ele>355.4</ele>
        <time>2019-10-18T15:49:16Z</time>
      </trkpt>
      <trkpt lat="37.0475330" lon="-2.4206120">
        <ele>355.6</ele>
        <time>2019-10-18T15:49:17Z</time>
      </trkpt>
      <trkpt lat="37.0475510" lon="-2.4206280">
        <ele>355.8</ele>
        <time>2019-10-18T15:49:18Z</time>
      </trkpt>
      <trkpt lat="37.0475680" lon="-2.4206440">
        <ele>356.0</ele>
        <time>2019-10-18T15:49:19Z</time>
      </trkpt>
      <trkpt lat="37.0475840" lon="-2.4206620">
        <ele>356.2</ele>
        <time>2019-10-18T15:49:20Z</time>
      </trkpt>
      <trkpt lat="37.0476000" lon="-2.4206820">
        <ele>356.3</ele>
        <time>2019-10-18T15:49:21Z</time>
      </trkpt>
      <trkpt lat="37.0476150" lon="-2.4207020">
        <ele>356.3</ele>
        <time>2019-10-18T15:49:22Z</time>
      </trkpt>
      <trkpt lat="37.0476310" lon="-2.4207220">
        <ele>356.4</ele>
        <time>2019-10-18T15:49:23Z</time>
      </trkpt>
      <trkpt lat="37.0476460" lon="-2.4207400">
        <ele>356.6</ele>
        <time>2019-10-18T15:49:24Z</time>
      </trkpt>
      <trkpt lat="37.0476620" lon="-2.4207590">
        <ele>356.8</ele>
        <time>2019-10-18T15:49:25Z</time>
      </trkpt>
      <trkpt lat="37.0476780" lon="-2.4207770">
        <ele>356.9</ele>
        <time>2019-10-18T15:49:26Z</time>
      </trkpt>
      <trkpt lat="37.0476940" lon="-2.4207950">
        <ele>357.1</ele>
        <time>2019-10-18T15:49:27Z</time>
      </trkpt>
      <trkpt lat="37.0477090" lon="-2.4208140">
        <ele>357.3</ele>
        <time>2019-10-18T15:49:28Z</time>
      </trkpt>
      <trkpt lat="37.0477250" lon="-2.4208330">
        <ele>357.4</ele>
        <time>2019-10-18T15:49:29Z</time>
      </trkpt>
      <trkpt lat="37.0477410" lon="-2.4208510">
        <ele>357.6</ele>
        <time>2019-10-18T15:49:30Z</time>
      </trkpt>
      <trkpt lat="37.0477560" lon="-2.4208700">
        <ele>357.7</ele>
        <time>2019-10-18T15:49:31Z</time>
      </trkpt>
      <trkpt lat="37.0477690" lon="-2.4208890">
        <ele>357.8</ele>
        <time>2019-10-18T15:49:32Z</time>
      </trkpt>
      <trkpt lat="37.0477830" lon="-2.4209080">
        <ele>357.9</ele>
        <time>2019-10-18T15:49:33Z</time>
      </trkpt>
      <trkpt lat="37.0477960" lon="-2.4209270">
        <ele>358.0</ele>
        <time>2019-10-18T15:49:34Z</time>
      </trkpt>
      <trkpt lat="37.0478090" lon="-2.4209450">
        <ele>358.1</ele>
        <time>2019-10-18T15:49:35Z</time>
      </trkpt>
      <trkpt lat="37.0478230" lon="-2.4209620">
        <ele>358.2</ele>
        <time>2019-10-18T15:49:36Z</time>
      </trkpt>
      <trkpt lat="37.0478370" lon="-2.4209800">
        <ele>358.4</ele>
        <time>2019-10-18T15:49:37Z</time>
      </trkpt>
      <trkpt lat="37.0478500" lon="-2.4209980">
        <ele>358.5</ele>
        <time>2019-10-18T15:49:38Z</time>
      </trkpt>
      <trkpt lat="37.0478620" lon="-2.4210170">
        <ele>358.7</ele>
        <time>2019-10-18T15:49:39Z</time>
      </trkpt>
      <trkpt lat="37.0478720" lon="-2.4210360">
        <ele>358.9</ele>
        <time>2019-10-18T15:49:40Z</time>
      </trkpt>
      <trkpt lat="37.0478810" lon="-2.4210560">
        <ele>359.0</ele>
        <time>2019-10-18T15:49:41Z</time>
      </trkpt>
      <trkpt lat="37.0478910" lon="-2.4210750">
        <ele>359.1</ele>
        <time>2019-10-18T15:49:42Z</time>
      </trkpt>
      <trkpt lat="37.0479010" lon="-2.4210940">
        <ele>359.2</ele>
        <time>2019-10-18T15:49:43Z</time>
      </trkpt>
      <trkpt lat="37.0479110" lon="-2.4211140">
        <ele>359.2</ele>
        <time>2019-10-18T15:49:44Z</time>
      </trkpt>
      <trkpt lat="37.0479180" lon="-2.4211330">
        <ele>359.3</ele>
        <time>2019-10-18T15:49:45Z</time>
      </trkpt>
      <trkpt lat="37.0479230" lon="-2.4211540">
        <ele>359.4</ele>
        <time>2019-10-18T15:49:46Z</time>
      </trkpt>
      <trkpt lat="37.0479260" lon="-2.4211750">
        <ele>359.4</ele>
        <time>2019-10-18T15:49:47Z</time>
      </trkpt>
      <trkpt lat="37.0479300" lon="-2.4211960">
        <ele>359.4</ele>
        <time>2019-10-18T15:49:48Z</time>
      </trkpt>
      <trkpt lat="37.0479330" lon="-2.4212170">
        <ele>359.4</ele>
        <time>2019-10-18T15:49:49Z</time>
      </trkpt>
      <trkpt lat="37.0479370" lon="-2.4212380">
        <ele>359.4</ele>
        <time>2019-10-18T15:49:50Z</time>
      </trkpt>
      <trkpt lat="37.0479410" lon="-2.4212590">
        <ele>359.4</ele>
        <time>2019-10-18T15:49:51Z</time>
      </trkpt>
      <trkpt lat="37.0479470" lon="-2.4212800">
        <ele>359.4</ele>
        <time>2019-10-18T15:49:52Z</time>
      </trkpt>
      <trkpt lat="37.0479530" lon="-2.4213000">
        <ele>359.7</ele>
        <time>2019-10-18T15:49:53Z</time>
      </trkpt>
      <trkpt lat="37.0479610" lon="-2.4213190">
        <ele>359.7</ele>
        <time>2019-10-18T15:49:54Z</time>
      </trkpt>
      <trkpt lat="37.0479680" lon="-2.4213400">
        <ele>359.7</ele>
        <time>2019-10-18T15:49:55Z</time>
      </trkpt>
      <trkpt lat="37.0479730" lon="-2.4213600">
        <ele>359.7</ele>
        <time>2019-10-18T15:49:56Z</time>
      </trkpt>
      <trkpt lat="37.0479780" lon="-2.4213810">
        <ele>359.8</ele>
        <time>2019-10-18T15:49:57Z</time>
      </trkpt>
      <trkpt lat="37.0479830" lon="-2.4214010">
        <ele>359.8</ele>
        <time>2019-10-18T15:49:58Z</time>
      </trkpt>
      <trkpt lat="37.0479890" lon="-2.4214220">
        <ele>360.0</ele>
        <time>2019-10-18T15:49:59Z</time>
      </trkpt>
      <trkpt lat="37.0479960" lon="-2.4214440">
        <ele>360.0</ele>
        <time>2019-10-18T15:50:00Z</time>
      </trkpt>
      <trkpt lat="37.0480050" lon="-2.4214630">
        <ele>360.1</ele>
        <time>2019-10-18T15:50:01Z</time>
      </trkpt>
      <trkpt lat="37.0480130" lon="-2.4214820">
        <ele>360.1</ele>
        <time>2019-10-18T15:50:02Z</time>
      </trkpt>
      <trkpt lat="37.0480190" lon="-2.4215020">
        <ele>360.3</ele>
        <time>2019-10-18T15:50:03Z</time>
      </trkpt>
      <trkpt lat="37.0480250" lon="-2.4215210">
        <ele>360.3</ele>
        <time>2019-10-18T15:50:04Z</time>
      </trkpt>
      <trkpt lat="37.0480320" lon="-2.4215400">
        <ele>360.3</ele>
        <time>2019-10-18T15:50:05Z</time>
      </trkpt>
      <trkpt lat="37.0480390" lon="-2.4215580">
        <ele>360.3</ele>
        <time>2019-10-18T15:50:06Z</time>
      </trkpt>
      <trkpt lat="37.0480480" lon="-2.4215740">
        <ele>360.3</ele>
        <time>2019-10-18T15:50:07Z</time>
      </trkpt>
      <trkpt lat="37.0480570" lon="-2.4215910">
        <ele>360.5</ele>
        <time>2019-10-18T15:50:08Z</time>
      </trkpt>
      <trkpt lat="37.0480640" lon="-2.4216070">
        <ele>360.5</ele>
        <time>2019-10-18T15:50:09Z</time>
      </trkpt>
      <trkpt lat="37.0480710" lon="-2.4216230">
        <ele>360.5</ele>
        <time>2019-10-18T15:50:10Z</time>
      </trkpt>
      <trkpt lat="37.0480770" lon="-2.4216390">
        <ele>360.5</ele>
        <time>2019-10-18T15:50:11Z</time>
      </trkpt>
      <trkpt lat="37.0480820" lon="-2.4216540">
        <ele>360.5</ele>
        <time>2019-10-18T15:50:12Z</time>
      </trkpt>
      <trkpt lat="37.0480860" lon="-2.4216700">
        <ele>360.4</ele>
        <time>2019-10-18T15:50:13Z</time>
      </trkpt>
      <trkpt lat="37.0480880" lon="-2.4216840">
        <ele>360.7</ele>
        <time>2019-10-18T15:50:14Z</time>
      </trkpt>
      <trkpt lat="37.0480910" lon="-2.4216980">
        <ele>360.7</ele>
        <time>2019-10-18T15:50:15Z</time>
      </trkpt>
      <trkpt lat="37.0480950" lon="-2.4217110">
        <ele>360.7</ele>
        <time>2019-10-18T15:50:16Z</time>
      </trkpt>
      <trkpt lat="37.0480990" lon="-2.4217240">
        <ele>360.6</ele>
        <time>2019-10-18T15:50:17Z</time>
      </trkpt>
      <trkpt lat="37.0481040" lon="-2.4217360">
        <ele>360.6</ele>
        <time>2019-10-18T15:50:18Z</time>
      </trkpt>
      <trkpt lat="37.0481100" lon="-2.4217460">
        <ele>360.6</ele>
        <time>2019-10-18T15:50:19Z</time>
      </trkpt>
      <trkpt lat="37.0481180" lon="-2.4217540">
        <ele>360.6</ele>
        <time>2019-10-18T15:50:20Z</time>
      </trkpt>
      <trkpt lat="37.0481270" lon="-2.4217610">
        <ele>360.8</ele>
        <time>2019-10-18T15:50:21Z</time>
      </trkpt>
      <trkpt lat="37.0481360" lon="-2.4217680">
        <ele>360.8</ele>
        <time>2019-10-18T15:50:22Z</time>
      </trkpt>
      <trkpt lat="37.0481460" lon="-2.4217730">
        <ele>360.8</ele>
        <time>2019-10-18T15:50:23Z</time>
      </trkpt>
      <trkpt lat="37.0481550" lon="-2.4217750">
        <ele>360.8</ele>
        <time>2019-10-18T15:50:24Z</time>
      </trkpt>
      <trkpt lat="37.0481660" lon="-2.4217750">
        <ele>361.0</ele>
        <time>2019-10-18T15:50:25Z</time>
      </trkpt>
      <trkpt lat="37.0481770" lon="-2.4217740">
        <ele>361.0</ele>
        <time>2019-10-18T15:50:26Z</time>
      </trkpt>
      <trkpt lat="37.0481890" lon="-2.4217720">
        <ele>361.0</ele>
        <time>2019-10-18T15:50:27Z</time>
      </trkpt>
      <trkpt lat="37.0482010" lon="-2.4217710">
        <ele>361.2</ele>
        <time>2019-10-18T15:50:28Z</time>
      </trkpt>
      <trkpt lat="37.0482140" lon="-2.4217700">
        <ele>361.2</ele>
        <time>2019-10-18T15:50:29Z</time>
      </trkpt>
      <trkpt lat="37.0482270" lon="-2.4217680">
        <ele>361.4</ele>
        <time>2019-10-18T15:50:30Z</time>
      </trkpt>
      <trkpt lat="37.0482390" lon="-2.4217660">
        <ele>361.4</ele>
        <time>2019-10-18T15:50:31Z</time>
      </trkpt>
      <trkpt lat="37.0482520" lon="-2.4217610">
        <ele>361.4</ele>
        <time>2019-10-18T15:50:32Z</time>
      </trkpt>
      <trkpt lat="37.0482650" lon="-2.4217570">
        <ele>361.7</ele>
        <time>2019-10-18T15:50:33Z</time>
      </trkpt>
      <trkpt lat="37.0482770" lon="-2.4217550">
        <ele>361.7</ele>
        <time>2019-10-18T15:50:34Z</time>
      </trkpt>
      <trkpt lat="37.0482900" lon="-2.4217560">
        <ele>361.7</ele>
        <time>2019-10-18T15:50:35Z</time>
      </trkpt>
      <trkpt lat="37.0483030" lon="-2.4217580">
        <ele>361.9</ele>
        <time>2019-10-18T15:50:36Z</time>
      </trkpt>
      <trkpt lat="37.0483170" lon="-2.4217600">
        <ele>361.9</ele>
        <time>2019-10-18T15:50:37Z</time>
      </trkpt>
      <trkpt lat="37.0483310" lon="-2.4217600">
        <ele>362.2</ele>
        <time>2019-10-18T15:50:38Z</time>
      </trkpt>
      <trkpt lat="37.0483450" lon="-2.4217610">
        <ele>362.2</ele>
        <time>2019-10-18T15:50:39Z</time>
      </trkpt>
      <trkpt lat="37.0483580" lon="-2.4217620">
        <ele>362.2</ele>
        <time>2019-10-18T15:50:40Z</time>
      </trkpt>
      <trkpt lat="37.0483700" lon="-2.4217640">
        <ele>362.4</ele>
        <time>2019-10-18T15:50:41Z</time>
      </trkpt>
      <trkpt lat="37.0483830" lon="-2.4217680">
        <ele>362.4</ele>
        <time>2019-10-18T15:50:42Z</time>
      </trkpt>
      <trkpt lat="37.0483950" lon="-2.4217750">
        <ele>362.4</ele>
        <time>2019-10-18T15:50:43Z</time>
      </trkpt>
      <trkpt lat="37.0484070" lon="-2.4217830">
        <ele>362.6</ele>
        <time>2019-10-18T15:50:44Z</time>
      </trkpt>
      <trkpt lat="37.0484190" lon="-2.4217940">
        <ele>362.6</ele>
        <time>2019-10-18T15:50:45Z</time>
      </trkpt>
      <trkpt lat="37.0484310" lon="-2.4218050">
        <ele>362.7</ele>
        <time>2019-10-18T15:50:46Z</time>
      </trkpt>
      <trkpt lat="37.0484440" lon="-2.4218170">
        <ele>362.7</ele>
        <time>2019-10-18T15:50:47Z</time>
      </trkpt>
      <trkpt lat="37.0484580" lon="-2.4218290">
        <ele>362.7</ele>
        <time>2019-10-18T15:50:48Z</time>
      </trkpt>
      <trkpt lat="37.0484730" lon="-2.4218420">
        <ele>362.8</ele>
        <time>2019-10-18T15:50:49Z</time>
      </trkpt>
      <trkpt lat="37.0484870" lon="-2.4218530">
        <ele>362.8</ele>
        <time>2019-10-18T15:50:50Z</time>
      </trkpt>
      <trkpt lat="37.0485000" lon="-2.4218620">
        <ele>363.0</ele>
        <time>2019-10-18T15:50:51Z</time>
      </trkpt>
      <trkpt lat="37.0485140" lon="-2.4218680">
        <ele>363.0</ele>
        <time>2019-10-18T15:50:52Z</time>
      </trkpt>
      <trkpt lat="37.0485280" lon="-2.4218710">
        <ele>363.0</ele>
        <time>2019-10-18T15:50:53Z</time>
      </trkpt>
      <trkpt lat="37.0485450" lon="-2.4218700">
        <ele>363.1</ele>
        <time>2019-10-18T15:50:54Z</time>
      </trkpt>
      <trkpt lat="37.0485610" lon="-2.4218670">
        <ele>363.1</ele>
        <time>2019-10-18T15:50:55Z</time>
      </trkpt>
      <trkpt lat="37.0485770" lon="-2.4218640">
        <ele>363.3</ele>
        <time>2019-10-18T15:50:56Z</time>
      </trkpt>
      <trkpt lat="37.0485940" lon="-2.4218610">
        <ele>363.3</ele>
        <time>2019-10-18T15:50:57Z</time>
      </trkpt>
      <trkpt lat="37.0486110" lon="-2.4218590">
        <ele>363.4</ele>
        <time>2019-10-18T15:50:58Z</time>
      </trkpt>
      <trkpt lat="37.0486290" lon="-2.4218560">
        <ele>363.4</ele>
        <time>2019-10-18T15:50:59Z</time>
      </trkpt>
      <trkpt lat="37.0486480" lon="-2.4218530">
        <ele>363.5</ele>
        <time>2019-10-18T15:51:00Z</time>
      </trkpt>
      <trkpt lat="37.0486670" lon="-2.4218500">
        <ele>363.5</ele>
        <time>2019-10-18T15:51:01Z</time>
      </trkpt>
      <trkpt lat="37.0486850" lon="-2.4218480">
        <ele>363.5</ele>
        <time>2019-10-18T15:51:02Z</time>
      </trkpt>
      <trkpt lat="37.0487040" lon="-2.4218470">
        <ele>363.6</ele>
        <time>2019-10-18T15:51:03Z</time>
      </trkpt>
      <trkpt lat="37.0487240" lon="-2.4218460">
        <ele>363.6</ele>
        <time>2019-10-18T15:51:04Z</time>
      </trkpt>
      <trkpt lat="37.0487440" lon="-2.4218450">
        <ele>363.6</ele>
        <time>2019-10-18T15:51:05Z</time>
      </trkpt>
      <trkpt lat="37.0487640" lon="-2.4218450">
        <ele>363.6</ele>
        <time>2019-10-18T15:51:06Z</time>
      </trkpt>
      <trkpt lat="37.0487830" lon="-2.4218450">
        <ele>363.6</ele>
        <time>2019-10-18T15:51:07Z</time>
      </trkpt>
      <trkpt lat="37.0488020" lon="-2.4218450">
        <ele>363.6</ele>
        <time>2019-10-18T15:51:08Z</time>
      </trkpt>
      <trkpt lat="37.0488200" lon="-2.4218460">
        <ele>363.7</ele>
        <time>2019-10-18T15:51:09Z</time>
      </trkpt>
      <trkpt lat="37.0488370" lon="-2.4218470">
        <ele>363.7</ele>
        <time>2019-10-18T15:51:10Z</time>
      </trkpt>
      <trkpt lat="37.0488540" lon="-2.4218480">
        <ele>363.7</ele>
        <time>2019-10-18T15:51:11Z</time>
      </trkpt>
      <trkpt lat="37.0488690" lon="-2.4218500">
        <ele>363.7</ele>
        <time>2019-10-18T15:51:12Z</time>
      </trkpt>
      <trkpt lat="37.0488840" lon="-2.4218550">
        <ele>363.7</ele>
        <time>2019-10-18T15:51:13Z</time>
      </trkpt>
      <trkpt lat="37.0488990" lon="-2.4218610">
        <ele>363.7</ele>
        <time>2019-10-18T15:51:14Z</time>
      </trkpt>
      <trkpt lat="37.0489140" lon="-2.4218650">
        <ele>363.7</ele>
        <time>2019-10-18T15:51:15Z</time>
      </trkpt>
      <trkpt lat="37.0489300" lon="-2.4218680">
        <ele>363.7</ele>
        <time>2019-10-18T15:51:16Z</time>
      </trkpt>
      <trkpt lat="37.0489460" lon="-2.4218690">
        <ele>363.7</ele>
        <time>2019-10-18T15:51:17Z</time>
      </trkpt>
      <trkpt lat="37.0489610" lon="-2.4218670">
        <ele>363.7</ele>
        <time>2019-10-18T15:51:18Z</time>
      </trkpt>
      <trkpt lat="37.0489770" lon="-2.4218640">
        <ele>363.7</ele>
        <time>2019-10-18T15:51:19Z</time>
      </trkpt>
      <trkpt lat="37.0489940" lon="-2.4218590">
        <ele>363.7</ele>
        <time>2019-10-18T15:51:20Z</time>
      </trkpt>
      <trkpt lat="37.0490100" lon="-2.4218530">
        <ele>363.7</ele>
        <time>2019-10-18T15:51:21Z</time>
      </trkpt>
      <trkpt lat="37.0490240" lon="-2.4218450">
        <ele>363.7</ele>
        <time>2019-10-18T15:51:22Z</time>
      </trkpt>
      <trkpt lat="37.0490380" lon="-2.4218380">
        <ele>363.7</ele>
        <time>2019-10-18T15:51:23Z</time>
      </trkpt>
      <trkpt lat="37.0490510" lon="-2.4218320">
        <ele>363.7</ele>
        <time>2019-10-18T15:51:24Z</time>
      </trkpt>
      <trkpt lat="37.0490650" lon="-2.4218280">
        <ele>363.7</ele>
        <time>2019-10-18T15:51:25Z</time>
      </trkpt>
      <trkpt lat="37.0490790" lon="-2.4218250">
        <ele>363.7</ele>
        <time>2019-10-18T15:51:26Z</time>
      </trkpt>
      <trkpt lat="37.0490950" lon="-2.4218230">
        <ele>363.7</ele>
        <time>2019-10-18T15:51:27Z</time>
      </trkpt>
      <trkpt lat="37.0491100" lon="-2.4218220">
        <ele>363.7</ele>
        <time>2019-10-18T15:51:28Z</time>
      </trkpt>
      <trkpt lat="37.0491260" lon="-2.4218220">
        <ele>363.7</ele>
        <time>2019-10-18T15:51:29Z</time>
      </trkpt>
      <trkpt lat="37.0491430" lon="-2.4218210">
        <ele>363.7</ele>
        <time>2019-10-18T15:51:30Z</time>
      </trkpt>
      <trkpt lat="37.0491590" lon="-2.4218200">
        <ele>363.8</ele>
        <time>2019-10-18T15:51:31Z</time>
      </trkpt>
      <trkpt lat="37.0491760" lon="-2.4218190">
        <ele>363.8</ele>
        <time>2019-10-18T15:51:32Z</time>
      </trkpt>
      <trkpt lat="37.0491930" lon="-2.4218180">
        <ele>363.8</ele>
        <time>2019-10-18T15:51:33Z</time>
      </trkpt>
      <trkpt lat="37.0492100" lon="-2.4218190">
        <ele>363.8</ele>
        <time>2019-10-18T15:51:34Z</time>
      </trkpt>
      <trkpt lat="37.0492280" lon="-2.4218200">
        <ele>363.8</ele>
        <time>2019-10-18T15:51:35Z</time>
      </trkpt>
      <trkpt lat="37.0492470" lon="-2.4218200">
        <ele>363.8</ele>
        <time>2019-10-18T15:51:36Z</time>
      </trkpt>
      <trkpt lat="37.0492660" lon="-2.4218210">
        <ele>363.8</ele>
        <time>2019-10-18T15:51:37Z</time>
      </trkpt>
      <trkpt lat="37.0492840" lon="-2.4218240">
        <ele>363.8</ele>
        <time>2019-10-18T15:51:38Z</time>
      </trkpt>
      <trkpt lat="37.0493010" lon="-2.4218280">
        <ele>363.8</ele>
        <time>2019-10-18T15:51:39Z</time>
      </trkpt>
      <trkpt lat="37.0493190" lon="-2.4218320">
        <ele>363.8</ele>
        <time>2019-10-18T15:51:40Z</time>
      </trkpt>
      <trkpt lat="37.0493360" lon="-2.4218360">
        <ele>363.8</ele>
        <time>2019-10-18T15:51:41Z</time>
      </trkpt>
      <trkpt lat="37.0493540" lon="-2.4218400">
        <ele>363.8</ele>
        <time>2019-10-18T15:51:42Z</time>
      </trkpt>
      <trkpt lat="37.0493710" lon="-2.4218450">
        <ele>363.8</ele>
        <time>2019-10-18T15:51:43Z</time>
      </trkpt>
      <trkpt lat="37.0493880" lon="-2.4218500">
        <ele>363.8</ele>
        <time>2019-10-18T15:51:44Z</time>
      </trkpt>
      <trkpt lat="37.0494050" lon="-2.4218550">
        <ele>363.8</ele>
        <time>2019-10-18T15:51:45Z</time>
      </trkpt>
      <trkpt lat="37.0494230" lon="-2.4218590">
        <ele>363.8</ele>
        <time>2019-10-18T15:51:46Z</time>
      </trkpt>
      <trkpt lat="37.0494390" lon="-2.4218630">
        <ele>363.8</ele>
        <time>2019-10-18T15:51:47Z</time>
      </trkpt>
      <trkpt lat="37.0494540" lon="-2.4218690">
        <ele>363.8</ele>
        <time>2019-10-18T15:51:48Z</time>
      </trkpt>
      <trkpt lat="37.0494670" lon="-2.4218770">
        <ele>363.8</ele>
        <time>2019-10-18T15:51:49Z</time>
      </trkpt>
      <trkpt lat="37.0494800" lon="-2.4218850">
        <ele>363.8</ele>
        <time>2019-10-18T15:51:50Z</time>
      </trkpt>
      <trkpt lat="37.0494940" lon="-2.4218930">
        <ele>363.8</ele>
        <time>2019-10-18T15:51:51Z</time>
      </trkpt>
      <trkpt lat="37.0495100" lon="-2.4219020">
        <ele>363.8</ele>
        <time>2019-10-18T15:51:52Z</time>
      </trkpt>
      <trkpt lat="37.0495250" lon="-2.4219120">
        <ele>363.8</ele>
        <time>2019-10-18T15:51:53Z</time>
      </trkpt>
      <trkpt lat="37.0495400" lon="-2.4219210">
        <ele>363.8</ele>
        <time>2019-10-18T15:51:54Z</time>
      </trkpt>
      <trkpt lat="37.0495540" lon="-2.4219300">
        <ele>363.8</ele>
        <time>2019-10-18T15:51:55Z</time>
      </trkpt>
      <trkpt lat="37.0495690" lon="-2.4219390">
        <ele>363.9</ele>
        <time>2019-10-18T15:51:56Z</time>
      </trkpt>
      <trkpt lat="37.0495850" lon="-2.4219500">
        <ele>363.9</ele>
        <time>2019-10-18T15:51:57Z</time>
      </trkpt>
      <trkpt lat="37.0496010" lon="-2.4219600">
        <ele>363.9</ele>
        <time>2019-10-18T15:51:58Z</time>
      </trkpt>
      <trkpt lat="37.0496160" lon="-2.4219680">
        <ele>363.9</ele>
        <time>2019-10-18T15:51:59Z</time>
      </trkpt>
      <trkpt lat="37.0496310" lon="-2.4219740">
        <ele>363.9</ele>
        <time>2019-10-18T15:52:00Z</time>
      </trkpt>
      <trkpt lat="37.0496460" lon="-2.4219780">
        <ele>363.9</ele>
        <time>2019-10-18T15:52:01Z</time>
      </trkpt>
      <trkpt lat="37.0496600" lon="-2.4219810">
        <ele>363.9</ele>
        <time>2019-10-18T15:52:02Z</time>
      </trkpt>
      <trkpt lat="37.0496730" lon="-2.4219830">
        <ele>364.0</ele>
        <time>2019-10-18T15:52:03Z</time>
      </trkpt>
      <trkpt lat="37.0496850" lon="-2.4219840">
        <ele>364.0</ele>
        <time>2019-10-18T15:52:04Z</time>
      </trkpt>
      <trkpt lat="37.0496970" lon="-2.4219860">
        <ele>364.0</ele>
        <time>2019-10-18T15:52:05Z</time>
      </trkpt>
      <trkpt lat="37.0497080" lon="-2.4219890">
        <ele>364.0</ele>
        <time>2019-10-18T15:52:06Z</time>
      </trkpt>
      <trkpt lat="37.0497190" lon="-2.4219920">
        <ele>364.0</ele>
        <time>2019-10-18T15:52:07Z</time>
      </trkpt>
      <trkpt lat="37.0497300" lon="-2.4219930">
        <ele>364.0</ele>
        <time>2019-10-18T15:52:08Z</time>
      </trkpt>
      <trkpt lat="37.0497410" lon="-2.4219920">
        <ele>364.1</ele>
        <time>2019-10-18T15:52:09Z</time>
      </trkpt>
      <trkpt lat="37.0497530" lon="-2.4219910">
        <ele>364.1</ele>
        <time>2019-10-18T15:52:10Z</time>
      </trkpt>
      <trkpt lat="37.0497660" lon="-2.4219890">
        <ele>364.1</ele>
        <time>2019-10-18T15:52:11Z</time>
      </trkpt>
      <trkpt lat="37.0497770" lon="-2.4219820">
        <ele>364.1</ele>
        <time>2019-10-18T15:52:12Z</time>
      </trkpt>
      <trkpt lat="37.0497860" lon="-2.4219700">
        <ele>364.1</ele>
        <time>2019-10-18T15:52:13Z</time>
      </trkpt>
      <trkpt lat="37.0497910" lon="-2.4219540">
        <ele>364.1</ele>
        <time>2019-10-18T15:52:14Z</time>
      </trkpt>
      <trkpt lat="37.0497940" lon="-2.4219350">
        <ele>364.1</ele>
        <time>2019-10-18T15:52:15Z</time>
      </trkpt>
      <trkpt lat="37.0497950" lon="-2.4219150">
        <ele>364.1</ele>
        <time>2019-10-18T15:52:16Z</time>
      </trkpt>
      <trkpt lat="37.0497950" lon="-2.4218950">
        <ele>364.1</ele>
        <time>2019-10-18T15:52:17Z</time>
      </trkpt>
      <trkpt lat="37.0497930" lon="-2.4218770">
        <ele>364.1</ele>
        <time>2019-10-18T15:52:18Z</time>
      </trkpt>
      <trkpt lat="37.0497910" lon="-2.4218610">
        <ele>364.1</ele>
        <time>2019-10-18T15:52:19Z</time>
      </trkpt>
      <trkpt lat="37.0497840" lon="-2.4218440">
        <ele>364.1</ele>
        <time>2019-10-18T15:52:20Z</time>
      </trkpt>
      <trkpt lat="37.0497770" lon="-2.4218300">
        <ele>364.1</ele>
        <time>2019-10-18T15:52:21Z</time>
      </trkpt>
      <trkpt lat="37.0497680" lon="-2.4218160">
        <ele>364.1</ele>
        <time>2019-10-18T15:52:22Z</time>
      </trkpt>
      <trkpt lat="37.0497600" lon="-2.4218020">
        <ele>364.0</ele>
        <time>2019-10-18T15:52:23Z</time>
      </trkpt>
      <trkpt lat="37.0497500" lon="-2.4217870">
        <ele>364.0</ele>
        <time>2019-10-18T15:52:24Z</time>
      </trkpt>
      <trkpt lat="37.0497390" lon="-2.4217720">
        <ele>364.0</ele>
        <time>2019-10-18T15:52:25Z</time>
      </trkpt>
      <trkpt lat="37.0497270" lon="-2.4217560">
        <ele>364.0</ele>
        <time>2019-10-18T15:52:26Z</time>
      </trkpt>
      <trkpt lat="37.0497150" lon="-2.4217410">
        <ele>363.9</ele>
        <time>2019-10-18T15:52:27Z</time>
      </trkpt>
      <trkpt lat="37.0497040" lon="-2.4217220">
        <ele>363.9</ele>
        <time>2019-10-18T15:52:28Z</time>
      </trkpt>
      <trkpt lat="37.0496930" lon="-2.4217020">
        <ele>363.8</ele>
        <time>2019-10-18T15:52:29Z</time>
      </trkpt>
      <trkpt lat="37.0496810" lon="-2.4216830">
        <ele>363.8</ele>
        <time>2019-10-18T15:52:30Z</time>
      </trkpt>
      <trkpt lat="37.0496690" lon="-2.4216680">
        <ele>363.8</ele>
        <time>2019-10-18T15:52:31Z</time>
      </trkpt>
      <trkpt lat="37.0496580" lon="-2.4216540">
        <ele>363.7</ele>
        <time>2019-10-18T15:52:32Z</time>
      </trkpt>
      <trkpt lat="37.0496480" lon="-2.4216410">
        <ele>363.7</ele>
        <time>2019-10-18T15:52:33Z</time>
      </trkpt>
      <trkpt lat="37.0496410" lon="-2.4216310">
        <ele>363.7</ele>
        <time>2019-10-18T15:52:34Z</time>
      </trkpt>
      <trkpt lat="37.0496390" lon="-2.4216260">
        <ele>363.7</ele>
        <time>2019-10-18T15:52:35Z</time>
      </trkpt>
      <trkpt lat="37.0496400" lon="-2.4216240">
        <ele>363.7</ele>
        <time>2019-10-18T15:52:36Z</time>
      </trkpt>
      <trkpt lat="37.0496420" lon="-2.4216230">
        <ele>363.7</ele>
        <time>2019-10-18T15:52:37Z</time>
      </trkpt>
      <trkpt lat="37.0496420" lon="-2.4216220">
        <ele>363.7</ele>
        <time>2019-10-18T15:52:38Z</time>
      </trkpt>
      <trkpt lat="37.0496440" lon="-2.4216230">
        <ele>363.7</ele>
        <time>2019-10-18T15:52:39Z</time>
      </trkpt>
      <trkpt lat="37.0496450" lon="-2.4216240">
        <ele>363.7</ele>
        <time>2019-10-18T15:52:40Z</time>
      </trkpt>
      <trkpt lat="37.0496450" lon="-2.4216250">
        <ele>363.7</ele>
        <time>2019-10-18T15:52:41Z</time>
      </trkpt>
      <trkpt lat="37.0496450" lon="-2.4216260">
        <ele>363.7</ele>
        <time>2019-10-18T15:52:42Z</time>
      </trkpt>
      <trkpt lat="37.0496450" lon="-2.4216280">
        <ele>363.7</ele>
        <time>2019-10-18T15:52:43Z</time>
      </trkpt>
      <trkpt lat="37.0496450" lon="-2.4216290">
        <ele>363.7</ele>
        <time>2019-10-18T15:52:44Z</time>
      </trkpt>
      <trkpt lat="37.0496460" lon="-2.4216300">
        <ele>363.7</ele>
        <time>2019-10-18T15:52:45Z</time>
      </trkpt>
      <trkpt lat="37.0496450" lon="-2.4216320">
        <ele>363.7</ele>
        <time>2019-10-18T15:52:46Z</time>
      </trkpt>
      <trkpt lat="37.0496450" lon="-2.4216330">
        <ele>363.7</ele>
        <time>2019-10-18T15:52:47Z</time>
      </trkpt>
      <trkpt lat="37.0496440" lon="-2.4216330">
        <ele>363.7</ele>
        <time>2019-10-18T15:52:48Z</time>
      </trkpt>
      <trkpt lat="37.0496440" lon="-2.4216340">
        <ele>363.7</ele>
        <time>2019-10-18T15:52:49Z</time>
      </trkpt>
      <trkpt lat="37.0496430" lon="-2.4216340">
        <ele>363.7</ele>
        <time>2019-10-18T15:52:50Z</time>
      </trkpt>
      <trkpt lat="37.0496420" lon="-2.4216330">
        <ele>363.7</ele>
        <time>2019-10-18T15:52:51Z</time>
      </trkpt>
      <trkpt lat="37.0496390" lon="-2.4216250">
        <ele>363.7</ele>
        <time>2019-10-18T15:52:52Z</time>
      </trkpt>
      <trkpt lat="37.0496340" lon="-2.4216120">
        <ele>363.7</ele>
        <time>2019-10-18T15:52:53Z</time>
      </trkpt>
      <trkpt lat="37.0496260" lon="-2.4215940">
        <ele>363.7</ele>
        <time>2019-10-18T15:52:54Z</time>
      </trkpt>
      <trkpt lat="37.0496150" lon="-2.4215740">
        <ele>363.6</ele>
        <time>2019-10-18T15:52:55Z</time>
      </trkpt>
      <trkpt lat="37.0496010" lon="-2.4215540">
        <ele>363.6</ele>
        <time>2019-10-18T15:52:56Z</time>
      </trkpt>
      <trkpt lat="37.0495870" lon="-2.4215340">
        <ele>363.6</ele>
        <time>2019-10-18T15:52:57Z</time>
      </trkpt>
      <trkpt lat="37.0495730" lon="-2.4215170">
        <ele>363.6</ele>
        <time>2019-10-18T15:52:58Z</time>
      </trkpt>
      <trkpt lat="37.0495560" lon="-2.4215000">
        <ele>363.6</ele>
        <time>2019-10-18T15:52:59Z</time>
      </trkpt>
      <trkpt lat="37.0495390" lon="-2.4214840">
        <ele>363.5</ele>
        <time>2019-10-18T15:53:00Z</time>
      </trkpt>
      <trkpt lat="37.0495210" lon="-2.4214660">
        <ele>363.6</ele>
        <time>2019-10-18T15:53:01Z</time>
      </trkpt>
      <trkpt lat="37.0495030" lon="-2.4214480">
        <ele>363.5</ele>
        <time>2019-10-18T15:53:02Z</time>
      </trkpt>
      <trkpt lat="37.0494870" lon="-2.4214320">
        <ele>363.6</ele>
        <time>2019-10-18T15:53:03Z</time>
      </trkpt>
      <trkpt lat="37.0494700" lon="-2.4214200">
        <ele>363.6</ele>
        <time>2019-10-18T15:53:04Z</time>
      </trkpt>
      <trkpt lat="37.0494510" lon="-2.4214100">
        <ele>363.6</ele>
        <time>2019-10-18T15:53:05Z</time>
      </trkpt>
      <trkpt lat="37.0494300" lon="-2.4214050">
        <ele>363.6</ele>
        <time>2019-10-18T15:53:06Z</time>
      </trkpt>
      <trkpt lat="37.0494070" lon="-2.4214060">
        <ele>363.6</ele>
        <time>2019-10-18T15:53:07Z</time>
      </trkpt>
      <trkpt lat="37.0493820" lon="-2.4214120">
        <ele>363.6</ele>
        <time>2019-10-18T15:53:08Z</time>
      </trkpt>
      <trkpt lat="37.0493560" lon="-2.4214220">
        <ele>363.7</ele>
        <time>2019-10-18T15:53:09Z</time>
      </trkpt>
      <trkpt lat="37.0493300" lon="-2.4214310">
        <ele>363.7</ele>
        <time>2019-10-18T15:53:10Z</time>
      </trkpt>
      <trkpt lat="37.0493040" lon="-2.4214400">
        <ele>363.7</ele>
        <time>2019-10-18T15:53:11Z</time>
      </trkpt>
      <trkpt lat="37.0492790" lon="-2.4214510">
        <ele>363.8</ele>
        <time>2019-10-18T15:53:12Z</time>
      </trkpt>
      <trkpt lat="37.0492540" lon="-2.4214610">
        <ele>363.8</ele>
        <time>2019-10-18T15:53:13Z</time>
      </trkpt>
      <trkpt lat="37.0492290" lon="-2.4214720">
        <ele>363.8</ele>
        <time>2019-10-18T15:53:14Z</time>
      </trkpt>
      <trkpt lat="37.0492050" lon="-2.4214810">
        <ele>363.8</ele>
        <time>2019-10-18T15:53:15Z</time>
      </trkpt>
      <trkpt lat="37.0491800" lon="-2.4214870">
        <ele>363.8</ele>
        <time>2019-10-18T15:53:16Z</time>
      </trkpt>
      <trkpt lat="37.0491550" lon="-2.4214940">
        <ele>363.8</ele>
        <time>2019-10-18T15:53:17Z</time>
      </trkpt>
      <trkpt lat="37.0491290" lon="-2.4215010">
        <ele>363.9</ele>
        <time>2019-10-18T15:53:18Z</time>
      </trkpt>
      <trkpt lat="37.0491050" lon="-2.4215080">
        <ele>363.8</ele>
        <time>2019-10-18T15:53:19Z</time>
      </trkpt>
      <trkpt lat="37.0490830" lon="-2.4215140">
        <ele>363.8</ele>
        <time>2019-10-18T15:53:20Z</time>
      </trkpt>
      <trkpt lat="37.0490620" lon="-2.4215200">
        <ele>363.8</ele>
        <time>2019-10-18T15:53:21Z</time>
      </trkpt>
      <trkpt lat="37.0490420" lon="-2.4215270">
        <ele>363.8</ele>
        <time>2019-10-18T15:53:22Z</time>
      </trkpt>
      <trkpt lat="37.0490220" lon="-2.4215340">
        <ele>363.8</ele>
        <time>2019-10-18T15:53:23Z</time>
      </trkpt>
      <trkpt lat="37.0490050" lon="-2.4215400">
        <ele>363.8</ele>
        <time>2019-10-18T15:53:24Z</time>
      </trkpt>
      <trkpt lat="37.0489870" lon="-2.4215440">
        <ele>363.8</ele>
        <time>2019-10-18T15:53:25Z</time>
      </trkpt>
      <trkpt lat="37.0489670" lon="-2.4215470">
        <ele>363.8</ele>
        <time>2019-10-18T15:53:26Z</time>
      </trkpt>
      <trkpt lat="37.0489480" lon="-2.4215510">
        <ele>363.8</ele>
        <time>2019-10-18T15:53:27Z</time>
      </trkpt>
      <trkpt lat="37.0489280" lon="-2.4215520">
        <ele>363.7</ele>
        <time>2019-10-18T15:53:28Z</time>
      </trkpt>
      <trkpt lat="37.0489100" lon="-2.4215520">
        <ele>363.7</ele>
        <time>2019-10-18T15:53:29Z</time>
      </trkpt>
      <trkpt lat="37.0488910" lon="-2.4215510">
        <ele>363.7</ele>
        <time>2019-10-18T15:53:30Z</time>
      </trkpt>
      <trkpt lat="37.0488720" lon="-2.4215510">
        <ele>363.6</ele>
        <time>2019-10-18T15:53:31Z</time>
      </trkpt>
      <trkpt lat="37.0488530" lon="-2.4215530">
        <ele>363.6</ele>
        <time>2019-10-18T15:53:32Z</time>
      </trkpt>
      <trkpt lat="37.0488360" lon="-2.4215560">
        <ele>363.6</ele>
        <time>2019-10-18T15:53:33Z</time>
      </trkpt>
      <trkpt lat="37.0488240" lon="-2.4215630">
        <ele>363.6</ele>
        <time>2019-10-18T15:53:34Z</time>
      </trkpt>
      <trkpt lat="37.0488150" lon="-2.4215710">
        <ele>363.6</ele>
        <time>2019-10-18T15:53:35Z</time>
      </trkpt>
      <trkpt lat="37.0488070" lon="-2.4215800">
        <ele>363.6</ele>
        <time>2019-10-18T15:53:36Z</time>
      </trkpt>
      <trkpt lat="37.0487990" lon="-2.4215870">
        <ele>363.6</ele>
        <time>2019-10-18T15:53:37Z</time>
      </trkpt>
      <trkpt lat="37.0487900" lon="-2.4215930">
        <ele>363.6</ele>
        <time>2019-10-18T15:53:38Z</time>
      </trkpt>
      <trkpt lat="37.0487810" lon="-2.4215980">
        <ele>363.6</ele>
        <time>2019-10-18T15:53:39Z</time>
      </trkpt>
      <trkpt lat="37.0487750" lon="-2.4216020">
        <ele>363.6</ele>
        <time>2019-10-18T15:53:40Z</time>
      </trkpt>
      <trkpt lat="37.0487710" lon="-2.4216040">
        <ele>363.5</ele>
        <time>2019-10-18T15:53:41Z</time>
      </trkpt>
      <trkpt lat="37.0487700" lon="-2.4216050">
        <ele>363.5</ele>
        <time>2019-10-18T15:53:42Z</time>
      </trkpt>
      <trkpt lat="37.0487700" lon="-2.4216060">
        <ele>363.5</ele>
        <time>2019-10-18T15:53:43Z</time>
      </trkpt>
      <trkpt lat="37.0487710" lon="-2.4216070">
        <ele>363.5</ele>
        <time>2019-10-18T15:53:44Z</time>
      </trkpt>
      <trkpt lat="37.0487710" lon="-2.4216080">
        <ele>363.5</ele>
        <time>2019-10-18T15:53:45Z</time>
      </trkpt>
      <trkpt lat="37.0487700" lon="-2.4216090">
        <ele>363.5</ele>
        <time>2019-10-18T15:53:46Z</time>
      </trkpt>
      <trkpt lat="37.0487690" lon="-2.4216100">
        <ele>363.5</ele>
        <time>2019-10-18T15:53:47Z</time>
      </trkpt>
      <trkpt lat="37.0487680" lon="-2.4216110">
        <ele>363.5</ele>
        <time>2019-10-18T15:53:48Z</time>
      </trkpt>
      <trkpt lat="37.0487650" lon="-2.4216040">
        <ele>363.5</ele>
        <time>2019-10-18T15:53:49Z</time>
      </trkpt>
      <trkpt lat="37.0487630" lon="-2.4215880">
        <ele>363.5</ele>
        <time>2019-10-18T15:53:50Z</time>
      </trkpt>
      <trkpt lat="37.0487590" lon="-2.4215620">
        <ele>363.5</ele>
        <time>2019-10-18T15:53:51Z</time>
      </trkpt>
      <trkpt lat="37.0487560" lon="-2.4215360">
        <ele>363.5</ele>
        <time>2019-10-18T15:53:52Z</time>
      </trkpt>
      <trkpt lat="37.0487530" lon="-2.4215130">
        <ele>363.5</ele>
        <time>2019-10-18T15:53:53Z</time>
      </trkpt>
      <trkpt lat="37.0487500" lon="-2.4214950">
        <ele>363.4</ele>
        <time>2019-10-18T15:53:54Z</time>
      </trkpt>
      <trkpt lat="37.0487460" lon="-2.4214790">
        <ele>363.4</ele>
        <time>2019-10-18T15:53:55Z</time>
      </trkpt>
      <trkpt lat="37.0487420" lon="-2.4214620">
        <ele>363.4</ele>
        <time>2019-10-18T15:53:56Z</time>
      </trkpt>
      <trkpt lat="37.0487380" lon="-2.4214440">
        <ele>363.3</ele>
        <time>2019-10-18T15:53:57Z</time>
      </trkpt>
      <trkpt lat="37.0487330" lon="-2.4214230">
        <ele>363.3</ele>
        <time>2019-10-18T15:53:58Z</time>
      </trkpt>
      <trkpt lat="37.0487270" lon="-2.4214030">
        <ele>363.3</ele>
        <time>2019-10-18T15:53:59Z</time>
      </trkpt>
      <trkpt lat="37.0487200" lon="-2.4213830">
        <ele>363.3</ele>
        <time>2019-10-18T15:54:00Z</time>
      </trkpt>
      <trkpt lat="37.0487110" lon="-2.4213670">
        <ele>363.2</ele>
        <time>2019-10-18T15:54:01Z</time>
      </trkpt>
      <trkpt lat="37.0487020" lon="-2.4213530">
        <ele>363.2</ele>
        <time>2019-10-18T15:54:02Z</time>
      </trkpt>
      <trkpt lat="37.0486880" lon="-2.4213400">
        <ele>363.2</ele>
        <time>2019-10-18T15:54:03Z</time>
      </trkpt>
      <trkpt lat="37.0486720" lon="-2.4213280">
        <ele>363.2</ele>
        <time>2019-10-18T15:54:04Z</time>
      </trkpt>
      <trkpt lat="37.0486540" lon="-2.4213160">
        <ele>363.0</ele>
        <time>2019-10-18T15:54:05Z</time>
      </trkpt>
      <trkpt lat="37.0486370" lon="-2.4213040">
        <ele>363.0</ele>
        <time>2019-10-18T15:54:06Z</time>
      </trkpt>
      <trkpt lat="37.0486210" lon="-2.4212910">
        <ele>363.0</ele>
        <time>2019-10-18T15:54:07Z</time>
      </trkpt>
      <trkpt lat="37.0486030" lon="-2.4212790">
        <ele>362.9</ele>
        <time>2019-10-18T15:54:08Z</time>
      </trkpt>
      <trkpt lat="37.0485840" lon="-2.4212660">
        <ele>362.8</ele>
        <time>2019-10-18T15:54:09Z</time>
      </trkpt>
      <trkpt lat="37.0485660" lon="-2.4212520">
        <ele>362.7</ele>
        <time>2019-10-18T15:54:10Z</time>
      </trkpt>
      <trkpt lat="37.0485490" lon="-2.4212390">
        <ele>362.6</ele>
        <time>2019-10-18T15:54:11Z</time>
      </trkpt>
      <trkpt lat="37.0485310" lon="-2.4212250">
        <ele>362.6</ele>
        <time>2019-10-18T15:54:12Z</time>
      </trkpt>
      <trkpt lat="37.0485130" lon="-2.4212110">
        <ele>362.6</ele>
        <time>2019-10-18T15:54:13Z</time>
      </trkpt>
      <trkpt lat="37.0484960" lon="-2.4211960">
        <ele>362.4</ele>
        <time>2019-10-18T15:54:14Z</time>
      </trkpt>
      <trkpt lat="37.0484800" lon="-2.4211820">
        <ele>362.4</ele>
        <time>2019-10-18T15:54:15Z</time>
      </trkpt>
      <trkpt lat="37.0484650" lon="-2.4211690">
        <ele>362.4</ele>
        <time>2019-10-18T15:54:16Z</time>
      </trkpt>
      <trkpt lat="37.0484480" lon="-2.4211570">
        <ele>362.3</ele>
        <time>2019-10-18T15:54:17Z</time>
      </trkpt>
      <trkpt lat="37.0484290" lon="-2.4211480">
        <ele>362.1</ele>
        <time>2019-10-18T15:54:18Z</time>
      </trkpt>
      <trkpt lat="37.0484090" lon="-2.4211440">
        <ele>362.1</ele>
        <time>2019-10-18T15:54:19Z</time>
      </trkpt>
      <trkpt lat="37.0483880" lon="-2.4211430">
        <ele>361.9</ele>
        <time>2019-10-18T15:54:20Z</time>
      </trkpt>
      <trkpt lat="37.0483660" lon="-2.4211440">
        <ele>361.9</ele>
        <time>2019-10-18T15:54:21Z</time>
      </trkpt>
      <trkpt lat="37.0483450" lon="-2.4211440">
        <ele>361.7</ele>
        <time>2019-10-18T15:54:22Z</time>
      </trkpt>
      <trkpt lat="37.0483260" lon="-2.4211450">
        <ele>361.5</ele>
        <time>2019-10-18T15:54:23Z</time>
      </trkpt>
      <trkpt lat="37.0483080" lon="-2.4211470">
        <ele>361.5</ele>
        <time>2019-10-18T15:54:24Z</time>
      </trkpt>
      <trkpt lat="37.0482920" lon="-2.4211500">
        <ele>361.3</ele>
        <time>2019-10-18T15:54:25Z</time>
      </trkpt>
      <trkpt lat="37.0482760" lon="-2.4211550">
        <ele>361.5</ele>
        <time>2019-10-18T15:54:26Z</time>
      </trkpt>
      <trkpt lat="37.0482610" lon="-2.4211590">
        <ele>361.5</ele>
        <time>2019-10-18T15:54:27Z</time>
      </trkpt>
      <trkpt lat="37.0482450" lon="-2.4211610">
        <ele>361.3</ele>
        <time>2019-10-18T15:54:28Z</time>
      </trkpt>
      <trkpt lat="37.0482310" lon="-2.4211640">
        <ele>361.3</ele>
        <time>2019-10-18T15:54:29Z</time>
      </trkpt>
      <trkpt lat="37.0482180" lon="-2.4211700">
        <ele>361.1</ele>
        <time>2019-10-18T15:54:30Z</time>
      </trkpt>
      <trkpt lat="37.0482070" lon="-2.4211770">
        <ele>361.1</ele>
        <time>2019-10-18T15:54:31Z</time>
      </trkpt>
      <trkpt lat="37.0481990" lon="-2.4211880">
        <ele>361.1</ele>
        <time>2019-10-18T15:54:32Z</time>
      </trkpt>
      <trkpt lat="37.0481920" lon="-2.4211970">
        <ele>361.1</ele>
        <time>2019-10-18T15:54:33Z</time>
      </trkpt>
      <trkpt lat="37.0481850" lon="-2.4212020">
        <ele>361.0</ele>
        <time>2019-10-18T15:54:34Z</time>
      </trkpt>
      <trkpt lat="37.0481780" lon="-2.4212010">
        <ele>361.0</ele>
        <time>2019-10-18T15:54:35Z</time>
      </trkpt>
      <trkpt lat="37.0481720" lon="-2.4211950">
        <ele>360.9</ele>
        <time>2019-10-18T15:54:36Z</time>
      </trkpt>
      <trkpt lat="37.0481670" lon="-2.4211860">
        <ele>360.9</ele>
        <time>2019-10-18T15:54:37Z</time>
      </trkpt>
      <trkpt lat="37.0481630" lon="-2.4211740">
        <ele>360.9</ele>
        <time>2019-10-18T15:54:38Z</time>
      </trkpt>
      <trkpt lat="37.0481650" lon="-2.4211630">
        <ele>360.9</ele>
        <time>2019-10-18T15:54:39Z</time>
      </trkpt>
      <trkpt lat="37.0481710" lon="-2.4211540">
        <ele>360.7</ele>
        <time>2019-10-18T15:54:40Z</time>
      </trkpt>
      <trkpt lat="37.0481790" lon="-2.4211510">
        <ele>360.7</ele>
        <time>2019-10-18T15:54:41Z</time>
      </trkpt>
      <trkpt lat="37.0481880" lon="-2.4211540">
        <ele>360.7</ele>
        <time>2019-10-18T15:54:42Z</time>
      </trkpt>
      <trkpt lat="37.0481940" lon="-2.4211610">
        <ele>361.1</ele>
        <time>2019-10-18T15:54:43Z</time>
      </trkpt>
      <trkpt lat="37.0482000" lon="-2.4211700">
        <ele>361.1</ele>
        <time>2019-10-18T15:54:44Z</time>
      </trkpt>
      <trkpt lat="37.0482070" lon="-2.4211770">
        <ele>361.1</ele>
        <time>2019-10-18T15:54:45Z</time>
      </trkpt>
      <trkpt lat="37.0482180" lon="-2.4211810">
        <ele>361.1</ele>
        <time>2019-10-18T15:54:46Z</time>
      </trkpt>
      <trkpt lat="37.0482320" lon="-2.4211820">
        <ele>361.3</ele>
        <time>2019-10-18T15:54:47Z</time>
      </trkpt>
      <trkpt lat="37.0482470" lon="-2.4211800">
        <ele>361.3</ele>
        <time>2019-10-18T15:54:48Z</time>
      </trkpt>
      <trkpt lat="37.0482610" lon="-2.4211780">
        <ele>361.5</ele>
        <time>2019-10-18T15:54:49Z</time>
      </trkpt>
      <trkpt lat="37.0482750" lon="-2.4211750">
        <ele>361.5</ele>
        <time>2019-10-18T15:54:50Z</time>
      </trkpt>
      <trkpt lat="37.0482870" lon="-2.4211710">
        <ele>361.5</ele>
        <time>2019-10-18T15:54:51Z</time>
      </trkpt>
      <trkpt lat="37.0482960" lon="-2.4211680">
        <ele>361.7</ele>
        <time>2019-10-18T15:54:52Z</time>
      </trkpt>
      <trkpt lat="37.0483020" lon="-2.4211650">
        <ele>361.7</ele>
        <time>2019-10-18T15:54:53Z</time>
      </trkpt>
      <trkpt lat="37.0483060" lon="-2.4211630">
        <ele>361.7</ele>
        <time>2019-10-18T15:54:54Z</time>
      </trkpt>
      <trkpt lat="37.0483100" lon="-2.4211610">
        <ele>361.7</ele>
        <time>2019-10-18T15:54:55Z</time>
      </trkpt>
      <trkpt lat="37.0483190" lon="-2.4211580">
        <ele>361.7</ele>
        <time>2019-10-18T15:54:56Z</time>
      </trkpt>
      <trkpt lat="37.0483310" lon="-2.4211530">
        <ele>361.7</ele>
        <time>2019-10-18T15:54:57Z</time>
      </trkpt>
      <trkpt lat="37.0483450" lon="-2.4211470">
        <ele>361.7</ele>
        <time>2019-10-18T15:54:58Z</time>
      </trkpt>
      <trkpt lat="37.0483610" lon="-2.4211420">
        <ele>361.7</ele>
        <time>2019-10-18T15:54:59Z</time>
      </trkpt>
      <trkpt lat="37.0483800" lon="-2.4211400">
        <ele>361.9</ele>
        <time>2019-10-18T15:55:00Z</time>
      </trkpt>
      <trkpt lat="37.0484010" lon="-2.4211390">
        <ele>362.1</ele>
        <time>2019-10-18T15:55:01Z</time>
      </trkpt>
      <trkpt lat="37.0484210" lon="-2.4211420">
        <ele>362.1</ele>
        <time>2019-10-18T15:55:02Z</time>
      </trkpt>
      <trkpt lat="37.0484360" lon="-2.4211460">
        <ele>362.2</ele>
        <time>2019-10-18T15:55:03Z</time>
      </trkpt>
      <trkpt lat="37.0484490" lon="-2.4211510">
        <ele>362.2</ele>
        <time>2019-10-18T15:55:04Z</time>
      </trkpt>
      <trkpt lat="37.0484590" lon="-2.4211560">
        <ele>362.3</ele>
        <time>2019-10-18T15:55:05Z</time>
      </trkpt>
      <trkpt lat="37.0484680" lon="-2.4211620">
        <ele>362.4</ele>
        <time>2019-10-18T15:55:06Z</time>
      </trkpt>
      <trkpt lat="37.0484750" lon="-2.4211700">
        <ele>362.4</ele>
        <time>2019-10-18T15:55:07Z</time>
      </trkpt>
      <trkpt lat="37.0484820" lon="-2.4211820">
        <ele>362.4</ele>
        <time>2019-10-18T15:55:08Z</time>
      </trkpt>
      <trkpt lat="37.0484880" lon="-2.4211970">
        <ele>362.4</ele>
        <time>2019-10-18T15:55:09Z</time>
      </trkpt>
      <trkpt lat="37.0484950" lon="-2.4212160">
        <ele>362.5</ele>
        <time>2019-10-18T15:55:10Z</time>
      </trkpt>
      <trkpt lat="37.0485060" lon="-2.4212380">
        <ele>362.6</ele>
        <time>2019-10-18T15:55:11Z</time>
      </trkpt>
      <trkpt lat="37.0485220" lon="-2.4212600">
        <ele>362.7</ele>
        <time>2019-10-18T15:55:12Z</time>
      </trkpt>
      <trkpt lat="37.0485410" lon="-2.4212810">
        <ele>362.7</ele>
        <time>2019-10-18T15:55:13Z</time>
      </trkpt>
      <trkpt lat="37.0485600" lon="-2.4212990">
        <ele>362.8</ele>
        <time>2019-10-18T15:55:14Z</time>
      </trkpt>
      <trkpt lat="37.0485780" lon="-2.4213190">
        <ele>362.9</ele>
        <time>2019-10-18T15:55:15Z</time>
      </trkpt>
      <trkpt lat="37.0485960" lon="-2.4213380">
        <ele>363.0</ele>
        <time>2019-10-18T15:55:16Z</time>
      </trkpt>
      <trkpt lat="37.0486140" lon="-2.4213520">
        <ele>363.0</ele>
        <time>2019-10-18T15:55:17Z</time>
      </trkpt>
      <trkpt lat="37.0486300" lon="-2.4213600">
        <ele>363.0</ele>
        <time>2019-10-18T15:55:18Z</time>
      </trkpt>
      <trkpt lat="37.0486440" lon="-2.4213660">
        <ele>363.1</ele>
        <time>2019-10-18T15:55:19Z</time>
      </trkpt>
      <trkpt lat="37.0486570" lon="-2.4213710">
        <ele>363.2</ele>
        <time>2019-10-18T15:55:20Z</time>
      </trkpt>
      <trkpt lat="37.0486660" lon="-2.4213810">
        <ele>363.2</ele>
        <time>2019-10-18T15:55:21Z</time>
      </trkpt>
      <trkpt lat="37.0486740" lon="-2.4213930">
        <ele>363.2</ele>
        <time>2019-10-18T15:55:22Z</time>
      </trkpt>
      <trkpt lat="37.0486800" lon="-2.4214080">
        <ele>363.2</ele>
        <time>2019-10-18T15:55:23Z</time>
      </trkpt>
      <trkpt lat="37.0486870" lon="-2.4214240">
        <ele>363.3</ele>
        <time>2019-10-18T15:55:24Z</time>
      </trkpt>
      <trkpt lat="37.0486940" lon="-2.4214380">
        <ele>363.3</ele>
        <time>2019-10-18T15:55:25Z</time>
      </trkpt>
      <trkpt lat="37.0487010" lon="-2.4214490">
        <ele>363.3</ele>
        <time>2019-10-18T15:55:26Z</time>
      </trkpt>
      <trkpt lat="37.0487070" lon="-2.4214590">
        <ele>363.4</ele>
        <time>2019-10-18T15:55:27Z</time>
      </trkpt>
      <trkpt lat="37.0487120" lon="-2.4214670">
        <ele>363.4</ele>
        <time>2019-10-18T15:55:28Z</time>
      </trkpt>
      <trkpt lat="37.0487160" lon="-2.4214740">
        <ele>363.4</ele>
        <time>2019-10-18T15:55:29Z</time>
      </trkpt>
      <trkpt lat="37.0487180" lon="-2.4214780">
        <ele>363.4</ele>
        <time>2019-10-18T15:55:30Z</time>
      </trkpt>
      <trkpt lat="37.0487190" lon="-2.4214790">
        <ele>363.4</ele>
        <time>2019-10-18T15:55:31Z</time>
      </trkpt>
      <trkpt lat="37.0487190" lon="-2.4214790">
        <ele>363.4</ele>
        <time>2019-10-18T15:55:32Z</time>
      </trkpt>
      <trkpt lat="37.0487190" lon="-2.4214800">
        <ele>363.4</ele>
        <time>2019-10-18T15:55:33Z</time>
      </trkpt>
      <trkpt lat="37.0487190" lon="-2.4214810">
        <ele>363.4</ele>
        <time>2019-10-18T15:55:34Z</time>
      </trkpt>
      <trkpt lat="37.0487190" lon="-2.4214820">
        <ele>363.4</ele>
        <time>2019-10-18T15:55:35Z</time>
      </trkpt>
      <trkpt lat="37.0487180" lon="-2.4214820">
        <ele>363.4</ele>
        <time>2019-10-18T15:55:36Z</time>
      </trkpt>
      <trkpt lat="37.0487150" lon="-2.4214820">
        <ele>363.4</ele>
        <time>2019-10-18T15:55:37Z</time>
      </trkpt>
      <trkpt lat="37.0487100" lon="-2.4214790">
        <ele>363.4</ele>
        <time>2019-10-18T15:55:38Z</time>
      </trkpt>
      <trkpt lat="37.0487050" lon="-2.4214670">
        <ele>363.4</ele>
        <time>2019-10-18T15:55:39Z</time>
      </trkpt>
      <trkpt lat="37.0487000" lon="-2.4214500">
        <ele>363.3</ele>
        <time>2019-10-18T15:55:40Z</time>
      </trkpt>
      <trkpt lat="37.0486970" lon="-2.4214300">
        <ele>363.3</ele>
        <time>2019-10-18T15:55:41Z</time>
      </trkpt>
      <trkpt lat="37.0486940" lon="-2.4214090">
        <ele>363.2</ele>
        <time>2019-10-18T15:55:42Z</time>
      </trkpt>
      <trkpt lat="37.0486920" lon="-2.4213870">
        <ele>363.2</ele>
        <time>2019-10-18T15:55:43Z</time>
      </trkpt>
      <trkpt lat="37.0486930" lon="-2.4213670">
        <ele>363.2</ele>
        <time>2019-10-18T15:55:44Z</time>
      </trkpt>
      <trkpt lat="37.0486960" lon="-2.4213510">
        <ele>363.2</ele>
        <time>2019-10-18T15:55:45Z</time>
      </trkpt>
      <trkpt lat="37.0487010" lon="-2.4213400">
        <ele>363.2</ele>
        <time>2019-10-18T15:55:46Z</time>
      </trkpt>
      <trkpt lat="37.0487080" lon="-2.4213330">
        <ele>363.2</ele>
        <time>2019-10-18T15:55:47Z</time>
      </trkpt>
      <trkpt lat="37.0487130" lon="-2.4213300">
        <ele>363.2</ele>
        <time>2019-10-18T15:55:48Z</time>
      </trkpt>
      <trkpt lat="37.0487170" lon="-2.4213270">
        <ele>363.2</ele>
        <time>2019-10-18T15:55:49Z</time>
      </trkpt>
      <trkpt lat="37.0487210" lon="-2.4213260">
        <ele>363.1</ele>
        <time>2019-10-18T15:55:50Z</time>
      </trkpt>
      <trkpt lat="37.0487220" lon="-2.4213250">
        <ele>363.1</ele>
        <time>2019-10-18T15:55:51Z</time>
      </trkpt>
      <trkpt lat="37.0487230" lon="-2.4213250">
        <ele>363.1</ele>
        <time>2019-10-18T15:55:52Z</time>
      </trkpt>
      <trkpt lat="37.0487240" lon="-2.4213240">
        <ele>363.1</ele>
        <time>2019-10-18T15:55:53Z</time>
      </trkpt>
      <trkpt lat="37.0487260" lon="-2.4213230">
        <ele>363.1</ele>
        <time>2019-10-18T15:55:54Z</time>
      </trkpt>
      <trkpt lat="37.0487280" lon="-2.4213200">
        <ele>363.1</ele>
        <time>2019-10-18T15:55:55Z</time>
      </trkpt>
      <trkpt lat="37.0487300" lon="-2.4213150">
        <ele>363.1</ele>
        <time>2019-10-18T15:55:56Z</time>
      </trkpt>
      <trkpt lat="37.0487310" lon="-2.4213120">
        <ele>363.1</ele>
        <time>2019-10-18T15:55:57Z</time>
      </trkpt>
      <trkpt lat="37.0487310" lon="-2.4213110">
        <ele>363.1</ele>
        <time>2019-10-18T15:55:58Z</time>
      </trkpt>
      <trkpt lat="37.0487290" lon="-2.4213110">
        <ele>363.1</ele>
        <time>2019-10-18T15:55:59Z</time>
      </trkpt>
      <trkpt lat="37.0487240" lon="-2.4213080">
        <ele>363.1</ele>
        <time>2019-10-18T15:56:00Z</time>
      </trkpt>
      <trkpt lat="37.0487180" lon="-2.4213010">
        <ele>363.1</ele>
        <time>2019-10-18T15:56:01Z</time>
      </trkpt>
      <trkpt lat="37.0487100" lon="-2.4212920">
        <ele>363.1</ele>
        <time>2019-10-18T15:56:02Z</time>
      </trkpt>
      <trkpt lat="37.0487030" lon="-2.4212830">
        <ele>363.0</ele>
        <time>2019-10-18T15:56:03Z</time>
      </trkpt>
      <trkpt lat="37.0486970" lon="-2.4212740">
        <ele>363.0</ele>
        <time>2019-10-18T15:56:04Z</time>
      </trkpt>
      <trkpt lat="37.0486930" lon="-2.4212660">
        <ele>363.0</ele>
        <time>2019-10-18T15:56:05Z</time>
      </trkpt>
      <trkpt lat="37.0486900" lon="-2.4212600">
        <ele>363.0</ele>
        <time>2019-10-18T15:56:06Z</time>
      </trkpt>
      <trkpt lat="37.0486870" lon="-2.4212560">
        <ele>363.0</ele>
        <time>2019-10-18T15:56:07Z</time>
      </trkpt>
      <trkpt lat="37.0486810" lon="-2.4212510">
        <ele>363.0</ele>
        <time>2019-10-18T15:56:08Z</time>
      </trkpt>
      <trkpt lat="37.0486750" lon="-2.4212470">
        <ele>363.0</ele>
        <time>2019-10-18T15:56:09Z</time>
      </trkpt>
      <trkpt lat="37.0486680" lon="-2.4212430">
        <ele>362.9</ele>
        <time>2019-10-18T15:56:10Z</time>
      </trkpt>
      <trkpt lat="37.0486650" lon="-2.4212410">
        <ele>362.9</ele>
        <time>2019-10-18T15:56:11Z</time>
      </trkpt>
      <trkpt lat="37.0486630" lon="-2.4212390">
        <ele>362.8</ele>
        <time>2019-10-18T15:56:12Z</time>
      </trkpt>
      <trkpt lat="37.0486620" lon="-2.4212390">
        <ele>362.8</ele>
        <time>2019-10-18T15:56:13Z</time>
      </trkpt>
      <trkpt lat="37.0486590" lon="-2.4212380">
        <ele>362.8</ele>
        <time>2019-10-18T15:56:14Z</time>
      </trkpt>
      <trkpt lat="37.0486570" lon="-2.4212370">
        <ele>362.8</ele>
        <time>2019-10-18T15:56:15Z</time>
      </trkpt>
      <trkpt lat="37.0486550" lon="-2.4212350">
        <ele>362.8</ele>
        <time>2019-10-18T15:56:16Z</time>
      </trkpt>
      <trkpt lat="37.0486540" lon="-2.4212350">
        <ele>362.8</ele>
        <time>2019-10-18T15:56:17Z</time>
      </trkpt>
      <trkpt lat="37.0486510" lon="-2.4212350">
        <ele>362.8</ele>
        <time>2019-10-18T15:56:18Z</time>
      </trkpt>
      <trkpt lat="37.0486500" lon="-2.4212360">
        <ele>362.8</ele>
        <time>2019-10-18T15:56:19Z</time>
      </trkpt>
      <trkpt lat="37.0486490" lon="-2.4212370">
        <ele>362.8</ele>
        <time>2019-10-18T15:56:20Z</time>
      </trkpt>
      <trkpt lat="37.0486470" lon="-2.4212370">
        <ele>362.8</ele>
        <time>2019-10-18T15:56:21Z</time>
      </trkpt>
      <trkpt lat="37.0486440" lon="-2.4212380">
        <ele>362.8</ele>
        <time>2019-10-18T15:56:22Z</time>
      </trkpt>
      <trkpt lat="37.0486410" lon="-2.4212370">
        <ele>362.8</ele>
        <time>2019-10-18T15:56:23Z</time>
      </trkpt>
      <trkpt lat="37.0486380" lon="-2.4212370">
        <ele>362.8</ele>
        <time>2019-10-18T15:56:24Z</time>
      </trkpt>
      <trkpt lat="37.0486360" lon="-2.4212360">
        <ele>362.8</ele>
        <time>2019-10-18T15:56:25Z</time>
      </trkpt>
      <trkpt lat="37.0486340" lon="-2.4212350">
        <ele>362.8</ele>
        <time>2019-10-18T15:56:26Z</time>
      </trkpt>
      <trkpt lat="37.0486320" lon="-2.4212330">
        <ele>362.8</ele>
        <time>2019-10-18T15:56:27Z</time>
      </trkpt>
      <trkpt lat="37.0486300" lon="-2.4212300">
        <ele>362.8</ele>
        <time>2019-10-18T15:56:28Z</time>
      </trkpt>
      <trkpt lat="37.0486300" lon="-2.4212260">
        <ele>362.8</ele>
        <time>2019-10-18T15:56:29Z</time>
      </trkpt>
      <trkpt lat="37.0486290" lon="-2.4212230">
        <ele>362.8</ele>
        <time>2019-10-18T15:56:30Z</time>
      </trkpt>
      <trkpt lat="37.0486300" lon="-2.4212210">
        <ele>362.8</ele>
        <time>2019-10-18T15:56:31Z</time>
      </trkpt>
      <trkpt lat="37.0486300" lon="-2.4212210">
        <ele>362.8</ele>
        <time>2019-10-18T15:56:32Z</time>
      </trkpt>
      <trkpt lat="37.0486290" lon="-2.4212190">
        <ele>362.8</ele>
        <time>2019-10-18T15:56:33Z</time>
      </trkpt>
      <trkpt lat="37.0486280" lon="-2.4212180">
        <ele>362.8</ele>
        <time>2019-10-18T15:56:34Z</time>
      </trkpt>
      <trkpt lat="37.0486280" lon="-2.4212170">
        <ele>362.8</ele>
        <time>2019-10-18T15:56:35Z</time>
      </trkpt>
      <trkpt lat="37.0486270" lon="-2.4212180">
        <ele>362.8</ele>
        <time>2019-10-18T15:56:36Z</time>
      </trkpt>
      <trkpt lat="37.0486260" lon="-2.4212190">
        <ele>362.8</ele>
        <time>2019-10-18T15:56:37Z</time>
      </trkpt>
      <trkpt lat="37.0486260" lon="-2.4212200">
        <ele>362.8</ele>
        <time>2019-10-18T15:56:38Z</time>
      </trkpt>
      <trkpt lat="37.0486260" lon="-2.4212190">
        <ele>362.8</ele>
        <time>2019-10-18T15:56:39Z</time>
      </trkpt>
      <trkpt lat="37.0486270" lon="-2.4212190">
        <ele>362.8</ele>
        <time>2019-10-18T15:56:40Z</time>
      </trkpt>
      <trkpt lat="37.0486280" lon="-2.4212200">
        <ele>362.8</ele>
        <time>2019-10-18T15:56:41Z</time>
      </trkpt>
      <trkpt lat="37.0486290" lon="-2.4212220">
        <ele>362.8</ele>
        <time>2019-10-18T15:56:42Z</time>
      </trkpt>
      <trkpt lat="37.0486300" lon="-2.4212230">
        <ele>362.8</ele>
        <time>2019-10-18T15:56:43Z</time>
      </trkpt>
      <trkpt lat="37.0486300" lon="-2.4212250">
        <ele>362.8</ele>
        <time>2019-10-18T15:56:44Z</time>
      </trkpt>
      <trkpt lat="37.0486310" lon="-2.4212260">
        <ele>362.8</ele>
        <time>2019-10-18T15:56:45Z</time>
      </trkpt>
      <trkpt lat="37.0486320" lon="-2.4212270">
        <ele>362.8</ele>
        <time>2019-10-18T15:56:46Z</time>
      </trkpt>
      <trkpt lat="37.0486320" lon="-2.4212270">
        <ele>362.8</ele>
        <time>2019-10-18T15:56:47Z</time>
      </trkpt>
      <trkpt lat="37.0486320" lon="-2.4212260">
        <ele>362.8</ele>
        <time>2019-10-18T15:56:48Z</time>
      </trkpt>
      <trkpt lat="37.0486310" lon="-2.4212250">
        <ele>362.8</ele>
        <time>2019-10-18T15:56:49Z</time>
      </trkpt>
      <trkpt lat="37.0486300" lon="-2.4212240">
        <ele>362.8</ele>
        <time>2019-10-18T15:56:50Z</time>
      </trkpt>
      <trkpt lat="37.0486280" lon="-2.4212250">
        <ele>362.8</ele>
        <time>2019-10-18T15:56:51Z</time>
      </trkpt>
      <trkpt lat="37.0486270" lon="-2.4212260">
        <ele>362.8</ele>
        <time>2019-10-18T15:56:52Z</time>
      </trkpt>
      <trkpt lat="37.0486260" lon="-2.4212290">
        <ele>362.8</ele>
        <time>2019-10-18T15:56:53Z</time>
      </trkpt>
      <trkpt lat="37.0486300" lon="-2.4212320">
        <ele>362.8</ele>
        <time>2019-10-18T15:56:54Z</time>
      </trkpt>
      <trkpt lat="37.0486330" lon="-2.4212340">
        <ele>362.8</ele>
        <time>2019-10-18T15:56:55Z</time>
      </trkpt>
      <trkpt lat="37.0486360" lon="-2.4212360">
        <ele>362.8</ele>
        <time>2019-10-18T15:56:56Z</time>
      </trkpt>
      <trkpt lat="37.0486350" lon="-2.4212350">
        <ele>362.8</ele>
        <time>2019-10-18T15:56:57Z</time>
      </trkpt>
      <trkpt lat="37.0486340" lon="-2.4212340">
        <ele>362.8</ele>
        <time>2019-10-18T15:56:58Z</time>
      </trkpt>
      <trkpt lat="37.0486300" lon="-2.4212340">
        <ele>362.8</ele>
        <time>2019-10-18T15:56:59Z</time>
      </trkpt>
      <trkpt lat="37.0486270" lon="-2.4212340">
        <ele>362.8</ele>
        <time>2019-10-18T15:57:00Z</time>
      </trkpt>
      <trkpt lat="37.0486240" lon="-2.4212350">
        <ele>362.8</ele>
        <time>2019-10-18T15:57:01Z</time>
      </trkpt>
      <trkpt lat="37.0486200" lon="-2.4212350">
        <ele>362.8</ele>
        <time>2019-10-18T15:57:02Z</time>
      </trkpt>
      <trkpt lat="37.0486200" lon="-2.4212330">
        <ele>362.8</ele>
        <time>2019-10-18T15:57:03Z</time>
      </trkpt>
      <trkpt lat="37.0486190" lon="-2.4212320">
        <ele>362.8</ele>
        <time>2019-10-18T15:57:04Z</time>
      </trkpt>
      <trkpt lat="37.0486210" lon="-2.4212310">
        <ele>362.8</ele>
        <time>2019-10-18T15:57:05Z</time>
      </trkpt>
      <trkpt lat="37.0486180" lon="-2.4212310">
        <ele>362.8</ele>
        <time>2019-10-18T15:57:06Z</time>
      </trkpt>
      <trkpt lat="37.0486160" lon="-2.4212300">
        <ele>362.8</ele>
        <time>2019-10-18T15:57:07Z</time>
      </trkpt>
      <trkpt lat="37.0486160" lon="-2.4212300">
        <ele>362.8</ele>
        <time>2019-10-18T15:57:08Z</time>
      </trkpt>
      <trkpt lat="37.0486190" lon="-2.4212310">
        <ele>362.8</ele>
        <time>2019-10-18T15:57:09Z</time>
      </trkpt>
      <trkpt lat="37.0486230" lon="-2.4212320">
        <ele>362.8</ele>
        <time>2019-10-18T15:57:10Z</time>
      </trkpt>
      <trkpt lat="37.0486280" lon="-2.4212340">
        <ele>362.8</ele>
        <time>2019-10-18T15:57:11Z</time>
      </trkpt>
      <trkpt lat="37.0486300" lon="-2.4212350">
        <ele>362.8</ele>
        <time>2019-10-18T15:57:12Z</time>
      </trkpt>
      <trkpt lat="37.0486320" lon="-2.4212360">
        <ele>362.8</ele>
        <time>2019-10-18T15:57:13Z</time>
      </trkpt>
      <trkpt lat="37.0486310" lon="-2.4212370">
        <ele>362.8</ele>
        <time>2019-10-18T15:57:14Z</time>
      </trkpt>
      <trkpt lat="37.0486320" lon="-2.4212370">
        <ele>362.8</ele>
        <time>2019-10-18T15:57:15Z</time>
      </trkpt>
      <trkpt lat="37.0486330" lon="-2.4212380">
        <ele>362.8</ele>
        <time>2019-10-18T15:57:16Z</time>
      </trkpt>
      <trkpt lat="37.0486350" lon="-2.4212380">
        <ele>362.8</ele>
        <time>2019-10-18T15:57:17Z</time>
      </trkpt>
      <trkpt lat="37.0486350" lon="-2.4212400">
        <ele>362.8</ele>
        <time>2019-10-18T15:57:18Z</time>
      </trkpt>
      <trkpt lat="37.0486360" lon="-2.4212420">
        <ele>362.9</ele>
        <time>2019-10-18T15:57:19Z</time>
      </trkpt>
      <trkpt lat="37.0486350" lon="-2.4212440">
        <ele>362.9</ele>
        <time>2019-10-18T15:57:20Z</time>
      </trkpt>
      <trkpt lat="37.0486320" lon="-2.4212450">
        <ele>362.9</ele>
        <time>2019-10-18T15:57:21Z</time>
      </trkpt>
      <trkpt lat="37.0486270" lon="-2.4212440">
        <ele>362.9</ele>
        <time>2019-10-18T15:57:22Z</time>
      </trkpt>
      <trkpt lat="37.0486230" lon="-2.4212440">
        <ele>362.9</ele>
        <time>2019-10-18T15:57:23Z</time>
      </trkpt>
      <trkpt lat="37.0486210" lon="-2.4212430">
        <ele>362.9</ele>
        <time>2019-10-18T15:57:24Z</time>
      </trkpt>
      <trkpt lat="37.0486190" lon="-2.4212430">
        <ele>362.9</ele>
        <time>2019-10-18T15:57:25Z</time>
      </trkpt>
      <trkpt lat="37.0486210" lon="-2.4212430">
        <ele>362.9</ele>
        <time>2019-10-18T15:57:26Z</time>
      </trkpt>
      <trkpt lat="37.0486190" lon="-2.4212420">
        <ele>362.9</ele>
        <time>2019-10-18T15:57:27Z</time>
      </trkpt>
      <trkpt lat="37.0486170" lon="-2.4212400">
        <ele>362.8</ele>
        <time>2019-10-18T15:57:28Z</time>
      </trkpt>
      <trkpt lat="37.0486120" lon="-2.4212370">
        <ele>362.8</ele>
        <time>2019-10-18T15:57:29Z</time>
      </trkpt>
      <trkpt lat="37.0486080" lon="-2.4212330">
        <ele>362.8</ele>
        <time>2019-10-18T15:57:30Z</time>
      </trkpt>
      <trkpt lat="37.0486070" lon="-2.4212310">
        <ele>362.8</ele>
        <time>2019-10-18T15:57:31Z</time>
      </trkpt>
      <trkpt lat="37.0486070" lon="-2.4212310">
        <ele>362.8</ele>
        <time>2019-10-18T15:57:32Z</time>
      </trkpt>
      <trkpt lat="37.0486080" lon="-2.4212320">
        <ele>362.8</ele>
        <time>2019-10-18T15:57:33Z</time>
      </trkpt>
      <trkpt lat="37.0486090" lon="-2.4212340">
        <ele>362.8</ele>
        <time>2019-10-18T15:57:34Z</time>
      </trkpt>
      <trkpt lat="37.0486100" lon="-2.4212360">
        <ele>362.8</ele>
        <time>2019-10-18T15:57:35Z</time>
      </trkpt>
      <trkpt lat="37.0486130" lon="-2.4212380">
        <ele>362.8</ele>
        <time>2019-10-18T15:57:36Z</time>
      </trkpt>
      <trkpt lat="37.0486160" lon="-2.4212390">
        <ele>362.8</ele>
        <time>2019-10-18T15:57:37Z</time>
      </trkpt>
      <trkpt lat="37.0486190" lon="-2.4212400">
        <ele>362.8</ele>
        <time>2019-10-18T15:57:38Z</time>
      </trkpt>
      <trkpt lat="37.0486190" lon="-2.4212400">
        <ele>362.8</ele>
        <time>2019-10-18T15:57:39Z</time>
      </trkpt>
      <trkpt lat="37.0486180" lon="-2.4212390">
        <ele>362.8</ele>
        <time>2019-10-18T15:57:40Z</time>
      </trkpt>
      <trkpt lat="37.0486180" lon="-2.4212390">
        <ele>362.8</ele>
        <time>2019-10-18T15:57:41Z</time>
      </trkpt>
      <trkpt lat="37.0486180" lon="-2.4212390">
        <ele>362.8</ele>
        <time>2019-10-18T15:57:42Z</time>
      </trkpt>
      <trkpt lat="37.0486180" lon="-2.4212390">
        <ele>362.8</ele>
        <time>2019-10-18T15:57:43Z</time>
      </trkpt>
      <trkpt lat="37.0486190" lon="-2.4212390">
        <ele>362.8</ele>
        <time>2019-10-18T15:57:44Z</time>
      </trkpt>
      <trkpt lat="37.0486200" lon="-2.4212390">
        <ele>362.8</ele>
        <time>2019-10-18T15:57:45Z</time>
      </trkpt>
      <trkpt lat="37.0486210" lon="-2.4212400">
        <ele>362.8</ele>
        <time>2019-10-18T15:57:46Z</time>
      </trkpt>
      <trkpt lat="37.0486210" lon="-2.4212400">
        <ele>362.8</ele>
        <time>2019-10-18T15:57:47Z</time>
      </trkpt>
      <trkpt lat="37.0486210" lon="-2.4212410">
        <ele>362.9</ele>
        <time>2019-10-18T15:57:48Z</time>
      </trkpt>
      <trkpt lat="37.0486210" lon="-2.4212410">
        <ele>362.9</ele>
        <time>2019-10-18T15:57:49Z</time>
      </trkpt>
      <trkpt lat="37.0486200" lon="-2.4212410">
        <ele>362.9</ele>
        <time>2019-10-18T15:57:50Z</time>
      </trkpt>
      <trkpt lat="37.0486190" lon="-2.4212400">
        <ele>362.8</ele>
        <time>2019-10-18T15:57:51Z</time>
      </trkpt>
      <trkpt lat="37.0486180" lon="-2.4212400">
        <ele>362.8</ele>
        <time>2019-10-18T15:57:52Z</time>
      </trkpt>
      <trkpt lat="37.0486170" lon="-2.4212380">
        <ele>362.8</ele>
        <time>2019-10-18T15:57:53Z</time>
      </trkpt>
      <trkpt lat="37.0486170" lon="-2.4212370">
        <ele>362.8</ele>
        <time>2019-10-18T15:57:54Z</time>
      </trkpt>
      <trkpt lat="37.0486150" lon="-2.4212370">
        <ele>362.8</ele>
        <time>2019-10-18T15:57:55Z</time>
      </trkpt>
      <trkpt lat="37.0486140" lon="-2.4212380">
        <ele>362.8</ele>
        <time>2019-10-18T15:57:56Z</time>
      </trkpt>
      <trkpt lat="37.0486130" lon="-2.4212380">
        <ele>362.8</ele>
        <time>2019-10-18T15:57:57Z</time>
      </trkpt>
      <trkpt lat="37.0486130" lon="-2.4212370">
        <ele>362.8</ele>
        <time>2019-10-18T15:57:58Z</time>
      </trkpt>
      <trkpt lat="37.0486140" lon="-2.4212350">
        <ele>362.8</ele>
        <time>2019-10-18T15:57:59Z</time>
      </trkpt>
      <trkpt lat="37.0486160" lon="-2.4212350">
        <ele>362.8</ele>
        <time>2019-10-18T15:58:00Z</time>
      </trkpt>
      <trkpt lat="37.0486180" lon="-2.4212360">
        <ele>362.8</ele>
        <time>2019-10-18T15:58:01Z</time>
      </trkpt>
      <trkpt lat="37.0486190" lon="-2.4212390">
        <ele>362.8</ele>
        <time>2019-10-18T15:58:02Z</time>
      </trkpt>
      <trkpt lat="37.0486200" lon="-2.4212410">
        <ele>362.9</ele>
        <time>2019-10-18T15:58:03Z</time>
      </trkpt>
      <trkpt lat="37.0486200" lon="-2.4212410">
        <ele>362.9</ele>
        <time>2019-10-18T15:58:04Z</time>
      </trkpt>
      <trkpt lat="37.0486220" lon="-2.4212390">
        <ele>362.8</ele>
        <time>2019-10-18T15:58:05Z</time>
      </trkpt>
      <trkpt lat="37.0486240" lon="-2.4212380">
        <ele>362.8</ele>
        <time>2019-10-18T15:58:06Z</time>
      </trkpt>
      <trkpt lat="37.0486260" lon="-2.4212370">
        <ele>362.8</ele>
        <time>2019-10-18T15:58:07Z</time>
      </trkpt>
      <trkpt lat="37.0486280" lon="-2.4212360">
        <ele>362.8</ele>
        <time>2019-10-18T15:58:08Z</time>
      </trkpt>
      <trkpt lat="37.0486280" lon="-2.4212350">
        <ele>362.8</ele>
        <time>2019-10-18T15:58:09Z</time>
      </trkpt>
      <trkpt lat="37.0486280" lon="-2.4212340">
        <ele>362.8</ele>
        <time>2019-10-18T15:58:10Z</time>
      </trkpt>
      <trkpt lat="37.0486270" lon="-2.4212330">
        <ele>362.8</ele>
        <time>2019-10-18T15:58:11Z</time>
      </trkpt>
      <trkpt lat="37.0486260" lon="-2.4212320">
        <ele>362.8</ele>
        <time>2019-10-18T15:58:12Z</time>
      </trkpt>
      <trkpt lat="37.0486250" lon="-2.4212310">
        <ele>362.8</ele>
        <time>2019-10-18T15:58:13Z</time>
      </trkpt>
      <trkpt lat="37.0486250" lon="-2.4212310">
        <ele>362.8</ele>
        <time>2019-10-18T15:58:14Z</time>
      </trkpt>
      <trkpt lat="37.0486260" lon="-2.4212300">
        <ele>362.8</ele>
        <time>2019-10-18T15:58:15Z</time>
      </trkpt>
      <trkpt lat="37.0486260" lon="-2.4212290">
        <ele>362.8</ele>
        <time>2019-10-18T15:58:16Z</time>
      </trkpt>
      <trkpt lat="37.0486260" lon="-2.4212270">
        <ele>362.8</ele>
        <time>2019-10-18T15:58:17Z</time>
      </trkpt>
      <trkpt lat="37.0486250" lon="-2.4212250">
        <ele>362.8</ele>
        <time>2019-10-18T15:58:18Z</time>
      </trkpt>
      <trkpt lat="37.0486250" lon="-2.4212240">
        <ele>362.8</ele>
        <time>2019-10-18T15:58:19Z</time>
      </trkpt>
      <trkpt lat="37.0486250" lon="-2.4212240">
        <ele>362.8</ele>
        <time>2019-10-18T15:58:20Z</time>
      </trkpt>
      <trkpt lat="37.0486270" lon="-2.4212270">
        <ele>362.8</ele>
        <time>2019-10-18T15:58:21Z</time>
      </trkpt>
      <trkpt lat="37.0486290" lon="-2.4212300">
        <ele>362.8</ele>
        <time>2019-10-18T15:58:22Z</time>
      </trkpt>
      <trkpt lat="37.0486300" lon="-2.4212320">
        <ele>362.8</ele>
        <time>2019-10-18T15:58:23Z</time>
      </trkpt>
      <trkpt lat="37.0486290" lon="-2.4212330">
        <ele>362.8</ele>
        <time>2019-10-18T15:58:24Z</time>
      </trkpt>
      <trkpt lat="37.0486290" lon="-2.4212330">
        <ele>362.8</ele>
        <time>2019-10-18T15:58:25Z</time>
      </trkpt>
      <trkpt lat="37.0473560" lon="-2.4204190">
        <ele>354.1</ele>
        <time>2019-10-18T17:35:27Z</time>
      </trkpt>
      <trkpt lat="37.0473560" lon="-2.4204190">
        <ele>354.1</ele>
        <time>2019-10-18T17:35:28Z</time>
      </trkpt>
      <trkpt lat="37.0473560" lon="-2.4204190">
        <ele>354.1</ele>
        <time>2019-10-18T17:35:29Z</time>
      </trkpt>
      <trkpt lat="37.0473560" lon="-2.4204190">
        <ele>354.1</ele>
        <time>2019-10-18T17:35:30Z</time>
      </trkpt>
      <trkpt lat="37.0473480" lon="-2.4204220">
        <ele>354.1</ele>
        <time>2019-10-18T17:35:31Z</time>
      </trkpt>
      <trkpt lat="37.0473290" lon="-2.4204180">
        <ele>354.0</ele>
        <time>2019-10-18T17:35:32Z</time>
      </trkpt>
      <trkpt lat="37.0473000" lon="-2.4204080">
        <ele>353.9</ele>
        <time>2019-10-18T17:35:33Z</time>
      </trkpt>
      <trkpt lat="37.0472670" lon="-2.4203880">
        <ele>353.8</ele>
        <time>2019-10-18T17:35:34Z</time>
      </trkpt>
      <trkpt lat="37.0472350" lon="-2.4203720">
        <ele>353.7</ele>
        <time>2019-10-18T17:35:35Z</time>
      </trkpt>
      <trkpt lat="37.0472010" lon="-2.4203580">
        <ele>353.5</ele>
        <time>2019-10-18T17:35:36Z</time>
      </trkpt>
      <trkpt lat="37.0471650" lon="-2.4203470">
        <ele>353.4</ele>
        <time>2019-10-18T17:35:37Z</time>
      </trkpt>
      <trkpt lat="37.0471300" lon="-2.4203380">
        <ele>353.3</ele>
        <time>2019-10-18T17:35:38Z</time>
      </trkpt>
      <trkpt lat="37.0470960" lon="-2.4203280">
        <ele>353.2</ele>
        <time>2019-10-18T17:35:39Z</time>
      </trkpt>
      <trkpt lat="37.0470610" lon="-2.4203170">
        <ele>353.1</ele>
        <time>2019-10-18T17:35:40Z</time>
      </trkpt>
      <trkpt lat="37.0470260" lon="-2.4203060">
        <ele>353.0</ele>
        <time>2019-10-18T17:35:41Z</time>
      </trkpt>
      <trkpt lat="37.0469900" lon="-2.4202920">
        <ele>353.0</ele>
        <time>2019-10-18T17:35:42Z</time>
      </trkpt>
      <trkpt lat="37.0469530" lon="-2.4202780">
        <ele>352.9</ele>
        <time>2019-10-18T17:35:43Z</time>
      </trkpt>
      <trkpt lat="37.0469160" lon="-2.4202630">
        <ele>352.8</ele>
        <time>2019-10-18T17:35:44Z</time>
      </trkpt>
      <trkpt lat="37.0468780" lon="-2.4202480">
        <ele>352.8</ele>
        <time>2019-10-18T17:35:45Z</time>
      </trkpt>
      <trkpt lat="37.0468400" lon="-2.4202330">
        <ele>352.7</ele>
        <time>2019-10-18T17:35:46Z</time>
      </trkpt>
      <trkpt lat="37.0468010" lon="-2.4202200">
        <ele>352.6</ele>
        <time>2019-10-18T17:35:47Z</time>
      </trkpt>
      <trkpt lat="37.0467620" lon="-2.4202070">
        <ele>352.5</ele>
        <time>2019-10-18T17:35:48Z</time>
      </trkpt>
      <trkpt lat="37.0467220" lon="-2.4201940">
        <ele>352.5</ele>
        <time>2019-10-18T17:35:49Z</time>
      </trkpt>
      <trkpt lat="37.0466810" lon="-2.4201820">
        <ele>352.4</ele>
        <time>2019-10-18T17:35:50Z</time>
      </trkpt>
      <trkpt lat="37.0466390" lon="-2.4201710">
        <ele>352.3</ele>
        <time>2019-10-18T17:35:51Z</time>
      </trkpt>
      <trkpt lat="37.0465970" lon="-2.4201610">
        <ele>352.3</ele>
        <time>2019-10-18T17:35:52Z</time>
      </trkpt>
      <trkpt lat="37.0465550" lon="-2.4201520">
        <ele>352.2</ele>
        <time>2019-10-18T17:35:53Z</time>
      </trkpt>
      <trkpt lat="37.0465130" lon="-2.4201440">
        <ele>352.1</ele>
        <time>2019-10-18T17:35:54Z</time>
      </trkpt>
      <trkpt lat="37.0464720" lon="-2.4201360">
        <ele>352.0</ele>
        <time>2019-10-18T17:35:55Z</time>
      </trkpt>
      <trkpt lat="37.0464310" lon="-2.4201260">
        <ele>351.9</ele>
        <time>2019-10-18T17:35:56Z</time>
      </trkpt>
      <trkpt lat="37.0463910" lon="-2.4201140">
        <ele>351.9</ele>
        <time>2019-10-18T17:35:57Z</time>
      </trkpt>
      <trkpt lat="37.0463520" lon="-2.4201010">
        <ele>351.8</ele>
        <time>2019-10-18T17:35:58Z</time>
      </trkpt>
      <trkpt lat="37.0463170" lon="-2.4200890">
        <ele>351.8</ele>
        <time>2019-10-18T17:35:59Z</time>
      </trkpt>
      <trkpt lat="37.0462850" lon="-2.4200770">
        <ele>351.7</ele>
        <time>2019-10-18T17:36:00Z</time>
      </trkpt>
      <trkpt lat="37.0462580" lon="-2.4200670">
        <ele>351.7</ele>
        <time>2019-10-18T17:36:01Z</time>
      </trkpt>
      <trkpt lat="37.0462350" lon="-2.4200570">
        <ele>351.7</ele>
        <time>2019-10-18T17:36:02Z</time>
      </trkpt>
      <trkpt lat="37.0462160" lon="-2.4200480">
        <ele>351.7</ele>
        <time>2019-10-18T17:36:03Z</time>
      </trkpt>
      <trkpt lat="37.0462010" lon="-2.4200380">
        <ele>351.6</ele>
        <time>2019-10-18T17:36:04Z</time>
      </trkpt>
      <trkpt lat="37.0461890" lon="-2.4200250">
        <ele>351.6</ele>
        <time>2019-10-18T17:36:05Z</time>
      </trkpt>
      <trkpt lat="37.0461820" lon="-2.4200120">
        <ele>351.6</ele>
        <time>2019-10-18T17:36:06Z</time>
      </trkpt>
      <trkpt lat="37.0461800" lon="-2.4200040">
        <ele>351.6</ele>
        <time>2019-10-18T17:36:07Z</time>
      </trkpt>
      <trkpt lat="37.0461790" lon="-2.4200010">
        <ele>351.6</ele>
        <time>2019-10-18T17:36:08Z</time>
      </trkpt>
      <trkpt lat="37.0461790" lon="-2.4200020">
        <ele>351.6</ele>
        <time>2019-10-18T17:36:09Z</time>
      </trkpt>
      <trkpt lat="37.0461810" lon="-2.4200040">
        <ele>351.6</ele>
        <time>2019-10-18T17:36:10Z</time>
      </trkpt>
      <trkpt lat="37.0461820" lon="-2.4200050">
        <ele>351.6</ele>
        <time>2019-10-18T17:36:11Z</time>
      </trkpt>
      <trkpt lat="37.0461840" lon="-2.4200060">
        <ele>351.6</ele>
        <time>2019-10-18T17:36:12Z</time>
      </trkpt>
      <trkpt lat="37.0461840" lon="-2.4200060">
        <ele>351.6</ele>
        <time>2019-10-18T17:36:13Z</time>
      </trkpt>
      <trkpt lat="37.0461840" lon="-2.4200060">
        <ele>351.6</ele>
        <time>2019-10-18T17:36:14Z</time>
      </trkpt>
      <trkpt lat="37.0461840" lon="-2.4200060">
        <ele>351.6</ele>
        <time>2019-10-18T17:36:15Z</time>
      </trkpt>
      <trkpt lat="37.0461840" lon="-2.4200060">
        <ele>351.6</ele>
        <time>2019-10-18T17:36:16Z</time>
      </trkpt>
      <trkpt lat="37.0461830" lon="-2.4200060">
        <ele>351.6</ele>
        <time>2019-10-18T17:36:17Z</time>
      </trkpt>
      <trkpt lat="37.0461820" lon="-2.4200060">
        <ele>351.6</ele>
        <time>2019-10-18T17:36:18Z</time>
      </trkpt>
      <trkpt lat="37.0461810" lon="-2.4200060">
        <ele>351.6</ele>
        <time>2019-10-18T17:36:19Z</time>
      </trkpt>
      <trkpt lat="37.0461820" lon="-2.4200060">
        <ele>351.6</ele>
        <time>2019-10-18T17:36:20Z</time>
      </trkpt>
      <trkpt lat="37.0461830" lon="-2.4200050">
        <ele>351.6</ele>
        <time>2019-10-18T17:36:21Z</time>
      </trkpt>
      <trkpt lat="37.0461840" lon="-2.4200050">
        <ele>351.6</ele>
        <time>2019-10-18T17:36:22Z</time>
      </trkpt>
      <trkpt lat="37.0461850" lon="-2.4200040">
        <ele>351.6</ele>
        <time>2019-10-18T17:36:23Z</time>
      </trkpt>
      <trkpt lat="37.0461860" lon="-2.4200030">
        <ele>351.6</ele>
        <time>2019-10-18T17:36:24Z</time>
      </trkpt>
      <trkpt lat="37.0461860" lon="-2.4200030">
        <ele>351.6</ele>
        <time>2019-10-18T17:36:25Z</time>
      </trkpt>
      <trkpt lat="37.0461870" lon="-2.4200030">
        <ele>351.6</ele>
        <time>2019-10-18T17:36:26Z</time>
      </trkpt>
      <trkpt lat="37.0461880" lon="-2.4200030">
        <ele>351.6</ele>
        <time>2019-10-18T17:36:27Z</time>
      </trkpt>
      <trkpt lat="37.0461880" lon="-2.4200030">
        <ele>351.6</ele>
        <time>2019-10-18T17:36:28Z</time>
      </trkpt>
      <trkpt lat="37.0461880" lon="-2.4200040">
        <ele>351.6</ele>
        <time>2019-10-18T17:36:29Z</time>
      </trkpt>
      <trkpt lat="37.0461890" lon="-2.4200050">
        <ele>351.6</ele>
        <time>2019-10-18T17:36:30Z</time>
      </trkpt>
      <trkpt lat="37.0461900" lon="-2.4200070">
        <ele>351.6</ele>
        <time>2019-10-18T17:36:31Z</time>
      </trkpt>
      <trkpt lat="37.0461920" lon="-2.4200090">
        <ele>351.6</ele>
        <time>2019-10-18T17:36:32Z</time>
      </trkpt>
      <trkpt lat="37.0461940" lon="-2.4200110">
        <ele>351.6</ele>
        <time>2019-10-18T17:36:33Z</time>
      </trkpt>
      <trkpt lat="37.0461940" lon="-2.4200100">
        <ele>351.6</ele>
        <time>2019-10-18T17:36:34Z</time>
      </trkpt>
      <trkpt lat="37.0461930" lon="-2.4200100">
        <ele>351.5</ele>
        <time>2019-10-18T17:36:35Z</time>
      </trkpt>
      <trkpt lat="37.0461930" lon="-2.4200100">
        <ele>351.5</ele>
        <time>2019-10-18T17:36:36Z</time>
      </trkpt>
      <trkpt lat="37.0461940" lon="-2.4200110">
        <ele>351.5</ele>
        <time>2019-10-18T17:36:37Z</time>
      </trkpt>
      <trkpt lat="37.0461950" lon="-2.4200110">
        <ele>351.5</ele>
        <time>2019-10-18T17:36:38Z</time>
      </trkpt>
      <trkpt lat="37.0461960" lon="-2.4200120">
        <ele>351.5</ele>
        <time>2019-10-18T17:36:39Z</time>
      </trkpt>
      <trkpt lat="37.0461950" lon="-2.4200110">
        <ele>351.5</ele>
        <time>2019-10-18T17:36:40Z</time>
      </trkpt>
      <trkpt lat="37.0461960" lon="-2.4200110">
        <ele>351.5</ele>
        <time>2019-10-18T17:36:41Z</time>
      </trkpt>
      <trkpt lat="37.0461960" lon="-2.4200110">
        <ele>351.5</ele>
        <time>2019-10-18T17:36:42Z</time>
      </trkpt>
      <trkpt lat="37.0461960" lon="-2.4200110">
        <ele>351.5</ele>
        <time>2019-10-18T17:36:43Z</time>
      </trkpt>
      <trkpt lat="37.0461960" lon="-2.4200100">
        <ele>351.5</ele>
        <time>2019-10-18T17:36:44Z</time>
      </trkpt>
      <trkpt lat="37.0461950" lon="-2.4200090">
        <ele>351.5</ele>
        <time>2019-10-18T17:36:45Z</time>
      </trkpt>
      <trkpt lat="37.0461950" lon="-2.4200080">
        <ele>351.5</ele>
        <time>2019-10-18T17:36:46Z</time>
      </trkpt>
      <trkpt lat="37.0461950" lon="-2.4200070">
        <ele>351.5</ele>
        <time>2019-10-18T17:36:47Z</time>
      </trkpt>
      <trkpt lat="37.0461950" lon="-2.4200070">
        <ele>351.5</ele>
        <time>2019-10-18T17:36:48Z</time>
      </trkpt>
      <trkpt lat="37.0461950" lon="-2.4200060">
        <ele>351.5</ele>
        <time>2019-10-18T17:36:49Z</time>
      </trkpt>
      <trkpt lat="37.0461950" lon="-2.4200050">
        <ele>351.5</ele>
        <time>2019-10-18T17:36:50Z</time>
      </trkpt>
      <trkpt lat="37.0461960" lon="-2.4200060">
        <ele>351.5</ele>
        <time>2019-10-18T17:36:51Z</time>
      </trkpt>
      <trkpt lat="37.0461970" lon="-2.4200070">
        <ele>351.5</ele>
        <time>2019-10-18T17:36:52Z</time>
      </trkpt>
      <trkpt lat="37.0461970" lon="-2.4200070">
        <ele>351.5</ele>
        <time>2019-10-18T17:36:53Z</time>
      </trkpt>
      <trkpt lat="37.0461960" lon="-2.4200070">
        <ele>351.5</ele>
        <time>2019-10-18T17:36:54Z</time>
      </trkpt>
      <trkpt lat="37.0461940" lon="-2.4200070">
        <ele>351.5</ele>
        <time>2019-10-18T17:36:55Z</time>
      </trkpt>
      <trkpt lat="37.0461940" lon="-2.4200070">
        <ele>351.5</ele>
        <time>2019-10-18T17:36:56Z</time>
      </trkpt>
      <trkpt lat="37.0461940" lon="-2.4200080">
        <ele>351.5</ele>
        <time>2019-10-18T17:36:57Z</time>
      </trkpt>
      <trkpt lat="37.0461940" lon="-2.4200080">
        <ele>351.5</ele>
        <time>2019-10-18T17:36:58Z</time>
      </trkpt>
      <trkpt lat="37.0461940" lon="-2.4200080">
        <ele>351.5</ele>
        <time>2019-10-18T17:36:59Z</time>
      </trkpt>
      <trkpt lat="37.0461930" lon="-2.4200080">
        <ele>351.5</ele>
        <time>2019-10-18T17:37:00Z</time>
      </trkpt>
      <trkpt lat="37.0461930" lon="-2.4200090">
        <ele>351.5</ele>
        <time>2019-10-18T17:37:01Z</time>
      </trkpt>
      <trkpt lat="37.0461940" lon="-2.4200090">
        <ele>351.5</ele>
        <time>2019-10-18T17:37:02Z</time>
      </trkpt>
      <trkpt lat="37.0461950" lon="-2.4200090">
        <ele>351.5</ele>
        <time>2019-10-18T17:37:03Z</time>
      </trkpt>
      <trkpt lat="37.0461950" lon="-2.4200100">
        <ele>351.5</ele>
        <time>2019-10-18T17:37:04Z</time>
      </trkpt>
      <trkpt lat="37.0461950" lon="-2.4200100">
        <ele>351.5</ele>
        <time>2019-10-18T17:37:05Z</time>
      </trkpt>
      <trkpt lat="37.0461950" lon="-2.4200100">
        <ele>351.5</ele>
        <time>2019-10-18T17:37:06Z</time>
      </trkpt>
      <trkpt lat="37.0461950" lon="-2.4200110">
        <ele>351.5</ele>
        <time>2019-10-18T17:37:07Z</time>
      </trkpt>
      <trkpt lat="37.0461960" lon="-2.4200110">
        <ele>351.5</ele>
        <time>2019-10-18T17:37:08Z</time>
      </trkpt>
      <trkpt lat="37.0461960" lon="-2.4200110">
        <ele>351.5</ele>
        <time>2019-10-18T17:37:09Z</time>
      </trkpt>
      <trkpt lat="37.0461960" lon="-2.4200110">
        <ele>351.5</ele>
        <time>2019-10-18T17:37:10Z</time>
      </trkpt>
      <trkpt lat="37.0461960" lon="-2.4200110">
        <ele>351.5</ele>
        <time>2019-10-18T17:37:11Z</time>
      </trkpt>
      <trkpt lat="37.0461950" lon="-2.4200110">
        <ele>351.5</ele>
        <time>2019-10-18T17:37:12Z</time>
      </trkpt>
      <trkpt lat="37.0461950" lon="-2.4200110">
        <ele>351.5</ele>
        <time>2019-10-18T17:37:13Z</time>
      </trkpt>
      <trkpt lat="37.0461960" lon="-2.4200110">
        <ele>351.5</ele>
        <time>2019-10-18T17:37:14Z</time>
      </trkpt>
      <trkpt lat="37.0461960" lon="-2.4200100">
        <ele>351.5</ele>
        <time>2019-10-18T17:37:15Z</time>
      </trkpt>
      <trkpt lat="37.0461960" lon="-2.4200100">
        <ele>351.5</ele>
        <time>2019-10-18T17:37:16Z</time>
      </trkpt>
      <trkpt lat="37.0461950" lon="-2.4200090">
        <ele>351.5</ele>
        <time>2019-10-18T17:37:17Z</time>
      </trkpt>
      <trkpt lat="37.0461950" lon="-2.4200090">
        <ele>351.5</ele>
        <time>2019-10-18T17:37:18Z</time>
      </trkpt>
      <trkpt lat="37.0461950" lon="-2.4200090">
        <ele>351.5</ele>
        <time>2019-10-18T17:37:19Z</time>
      </trkpt>
      <trkpt lat="37.0461950" lon="-2.4200080">
        <ele>351.5</ele>
        <time>2019-10-18T17:37:20Z</time>
      </trkpt>
      <trkpt lat="37.0461950" lon="-2.4200080">
        <ele>351.5</ele>
        <time>2019-10-18T17:37:21Z</time>
      </trkpt>
      <trkpt lat="37.0461950" lon="-2.4200080">
        <ele>351.5</ele>
        <time>2019-10-18T17:37:22Z</time>
      </trkpt>
      <trkpt lat="37.0461940" lon="-2.4200080">
        <ele>351.5</ele>
        <time>2019-10-18T17:37:23Z</time>
      </trkpt>
      <trkpt lat="37.0461930" lon="-2.4200080">
        <ele>351.5</ele>
        <time>2019-10-18T17:37:24Z</time>
      </trkpt>
      <trkpt lat="37.0461920" lon="-2.4200080">
        <ele>351.5</ele>
        <time>2019-10-18T17:37:25Z</time>
      </trkpt>
      <trkpt lat="37.0461920" lon="-2.4200080">
        <ele>351.5</ele>
        <time>2019-10-18T17:37:26Z</time>
      </trkpt>
      <trkpt lat="37.0461910" lon="-2.4200080">
        <ele>351.5</ele>
        <time>2019-10-18T17:37:27Z</time>
      </trkpt>
      <trkpt lat="37.0461900" lon="-2.4200080">
        <ele>351.5</ele>
        <time>2019-10-18T17:37:28Z</time>
      </trkpt>
      <trkpt lat="37.0461900" lon="-2.4200080">
        <ele>351.5</ele>
        <time>2019-10-18T17:37:29Z</time>
      </trkpt>
      <trkpt lat="37.0461900" lon="-2.4200070">
        <ele>351.5</ele>
        <time>2019-10-18T17:37:30Z</time>
      </trkpt>
      <trkpt lat="37.0461900" lon="-2.4200060">
        <ele>351.5</ele>
        <time>2019-10-18T17:37:31Z</time>
      </trkpt>
      <trkpt lat="37.0461900" lon="-2.4200050">
        <ele>351.5</ele>
        <time>2019-10-18T17:37:32Z</time>
      </trkpt>
      <trkpt lat="37.0461910" lon="-2.4200040">
        <ele>351.5</ele>
        <time>2019-10-18T17:37:33Z</time>
      </trkpt>
      <trkpt lat="37.0461910" lon="-2.4200030">
        <ele>351.5</ele>
        <time>2019-10-18T17:37:34Z</time>
      </trkpt>
      <trkpt lat="37.0461910" lon="-2.4200020">
        <ele>351.5</ele>
        <time>2019-10-18T17:37:35Z</time>
      </trkpt>
      <trkpt lat="37.0461910" lon="-2.4200010">
        <ele>351.5</ele>
        <time>2019-10-18T17:37:36Z</time>
      </trkpt>
      <trkpt lat="37.0461920" lon="-2.4200010">
        <ele>351.5</ele>
        <time>2019-10-18T17:37:37Z</time>
      </trkpt>
      <trkpt lat="37.0461920" lon="-2.4200010">
        <ele>351.5</ele>
        <time>2019-10-18T17:37:38Z</time>
      </trkpt>
      <trkpt lat="37.0461910" lon="-2.4200020">
        <ele>351.5</ele>
        <time>2019-10-18T17:37:39Z</time>
      </trkpt>
      <trkpt lat="37.0461910" lon="-2.4200010">
        <ele>351.5</ele>
        <time>2019-10-18T17:37:40Z</time>
      </trkpt>
      <trkpt lat="37.0461900" lon="-2.4200010">
        <ele>351.5</ele>
        <time>2019-10-18T17:37:41Z</time>
      </trkpt>
      <trkpt lat="37.0461890" lon="-2.4199990">
        <ele>351.5</ele>
        <time>2019-10-18T17:37:42Z</time>
      </trkpt>
      <trkpt lat="37.0461880" lon="-2.4199990">
        <ele>351.5</ele>
        <time>2019-10-18T17:37:43Z</time>
      </trkpt>
      <trkpt lat="37.0461880" lon="-2.4200000">
        <ele>351.5</ele>
        <time>2019-10-18T17:37:44Z</time>
      </trkpt>
      <trkpt lat="37.0461870" lon="-2.4200000">
        <ele>351.5</ele>
        <time>2019-10-18T17:37:45Z</time>
      </trkpt>
      <trkpt lat="37.0461870" lon="-2.4200010">
        <ele>351.5</ele>
        <time>2019-10-18T17:37:46Z</time>
      </trkpt>
      <trkpt lat="37.0461870" lon="-2.4200010">
        <ele>351.5</ele>
        <time>2019-10-18T17:37:47Z</time>
      </trkpt>
      <trkpt lat="37.0461870" lon="-2.4200020">
        <ele>351.5</ele>
        <time>2019-10-18T17:37:48Z</time>
      </trkpt>
      <trkpt lat="37.0461870" lon="-2.4200020">
        <ele>351.5</ele>
        <time>2019-10-18T17:37:49Z</time>
      </trkpt>
      <trkpt lat="37.0461870" lon="-2.4200020">
        <ele>351.5</ele>
        <time>2019-10-18T17:37:50Z</time>
      </trkpt>
      <trkpt lat="37.0461870" lon="-2.4200020">
        <ele>351.5</ele>
        <time>2019-10-18T17:37:51Z</time>
      </trkpt>
      <trkpt lat="37.0461870" lon="-2.4200020">
        <ele>351.5</ele>
        <time>2019-10-18T17:37:52Z</time>
      </trkpt>
      <trkpt lat="37.0461870" lon="-2.4200020">
        <ele>351.5</ele>
        <time>2019-10-18T17:37:53Z</time>
      </trkpt>
      <trkpt lat="37.0461870" lon="-2.4200030">
        <ele>351.5</ele>
        <time>2019-10-18T17:37:54Z</time>
      </trkpt>
      <trkpt lat="37.0461870" lon="-2.4200030">
        <ele>351.5</ele>
        <time>2019-10-18T17:37:55Z</time>
      </trkpt>
      <trkpt lat="37.0461880" lon="-2.4200040">
        <ele>351.5</ele>
        <time>2019-10-18T17:37:56Z</time>
      </trkpt>
      <trkpt lat="37.0461880" lon="-2.4200040">
        <ele>351.5</ele>
        <time>2019-10-18T17:37:57Z</time>
      </trkpt>
      <trkpt lat="37.0461880" lon="-2.4200040">
        <ele>351.5</ele>
        <time>2019-10-18T17:37:58Z</time>
      </trkpt>
      <trkpt lat="37.0461880" lon="-2.4200030">
        <ele>351.5</ele>
        <time>2019-10-18T17:37:59Z</time>
      </trkpt>
      <trkpt lat="37.0461870" lon="-2.4200030">
        <ele>351.5</ele>
        <time>2019-10-18T17:38:00Z</time>
      </trkpt>
      <trkpt lat="37.0461860" lon="-2.4200020">
        <ele>351.5</ele>
        <time>2019-10-18T17:38:01Z</time>
      </trkpt>
      <trkpt lat="37.0461860" lon="-2.4200010">
        <ele>351.5</ele>
        <time>2019-10-18T17:38:02Z</time>
      </trkpt>
      <trkpt lat="37.0461860" lon="-2.4200000">
        <ele>351.5</ele>
        <time>2019-10-18T17:38:03Z</time>
      </trkpt>
      <trkpt lat="37.0461860" lon="-2.4199990">
        <ele>351.5</ele>
        <time>2019-10-18T17:38:04Z</time>
      </trkpt>
      <trkpt lat="37.0461860" lon="-2.4199990">
        <ele>351.5</ele>
        <time>2019-10-18T17:38:05Z</time>
      </trkpt>
      <trkpt lat="37.0461860" lon="-2.4199990">
        <ele>351.5</ele>
        <time>2019-10-18T17:38:06Z</time>
      </trkpt>
      <trkpt lat="37.0461860" lon="-2.4199990">
        <ele>351.5</ele>
        <time>2019-10-18T17:38:07Z</time>
      </trkpt>
      <trkpt lat="37.0461860" lon="-2.4199990">
        <ele>351.5</ele>
        <time>2019-10-18T17:38:08Z</time>
      </trkpt>
      <trkpt lat="37.0461850" lon="-2.4199990">
        <ele>351.5</ele>
        <time>2019-10-18T17:38:09Z</time>
      </trkpt>
      <trkpt lat="37.0461850" lon="-2.4199990">
        <ele>351.5</ele>
        <time>2019-10-18T17:38:10Z</time>
      </trkpt>
      <trkpt lat="37.0461850" lon="-2.4199980">
        <ele>351.5</ele>
        <time>2019-10-18T17:38:11Z</time>
      </trkpt>
      <trkpt lat="37.0461850" lon="-2.4199980">
        <ele>351.5</ele>
        <time>2019-10-18T17:38:12Z</time>
      </trkpt>
      <trkpt lat="37.0461850" lon="-2.4199970">
        <ele>351.5</ele>
        <time>2019-10-18T17:38:13Z</time>
      </trkpt>
      <trkpt lat="37.0461850" lon="-2.4199970">
        <ele>351.5</ele>
        <time>2019-10-18T17:38:14Z</time>
      </trkpt>
      <trkpt lat="37.0461850" lon="-2.4199960">
        <ele>351.5</ele>
        <time>2019-10-18T17:38:15Z</time>
      </trkpt>
      <trkpt lat="37.0461860" lon="-2.4199950">
        <ele>351.5</ele>
        <time>2019-10-18T17:38:16Z</time>
      </trkpt>
      <trkpt lat="37.0461860" lon="-2.4199950">
        <ele>351.5</ele>
        <time>2019-10-18T17:38:17Z</time>
      </trkpt>
      <trkpt lat="37.0461860" lon="-2.4199950">
        <ele>351.5</ele>
        <time>2019-10-18T17:38:18Z</time>
      </trkpt>
      <trkpt lat="37.0461860" lon="-2.4199950">
        <ele>351.5</ele>
        <time>2019-10-18T17:38:19Z</time>
      </trkpt>
      <trkpt lat="37.0461860" lon="-2.4199950">
        <ele>351.5</ele>
        <time>2019-10-18T17:38:20Z</time>
      </trkpt>
      <trkpt lat="37.0461870" lon="-2.4199960">
        <ele>351.5</ele>
        <time>2019-10-18T17:38:21Z</time>
      </trkpt>
      <trkpt lat="37.0461870" lon="-2.4199960">
        <ele>351.5</ele>
        <time>2019-10-18T17:38:22Z</time>
      </trkpt>
      <trkpt lat="37.0461880" lon="-2.4199960">
        <ele>351.5</ele>
        <time>2019-10-18T17:38:23Z</time>
      </trkpt>
      <trkpt lat="37.0461880" lon="-2.4199970">
        <ele>351.5</ele>
        <time>2019-10-18T17:38:24Z</time>
      </trkpt>
      <trkpt lat="37.0461880" lon="-2.4199970">
        <ele>351.5</ele>
        <time>2019-10-18T17:38:25Z</time>
      </trkpt>
      <trkpt lat="37.0461880" lon="-2.4199970">
        <ele>351.5</ele>
        <time>2019-10-18T17:38:26Z</time>
      </trkpt>
      <trkpt lat="37.0461890" lon="-2.4199970">
        <ele>351.5</ele>
        <time>2019-10-18T17:38:27Z</time>
      </trkpt>
      <trkpt lat="37.0461890" lon="-2.4199980">
        <ele>351.5</ele>
        <time>2019-10-18T17:38:28Z</time>
      </trkpt>
      <trkpt lat="37.0461890" lon="-2.4199980">
        <ele>351.5</ele>
        <time>2019-10-18T17:38:29Z</time>
      </trkpt>
      <trkpt lat="37.0461890" lon="-2.4199980">
        <ele>351.5</ele>
        <time>2019-10-18T17:38:30Z</time>
      </trkpt>
      <trkpt lat="37.0461880" lon="-2.4199980">
        <ele>351.5</ele>
        <time>2019-10-18T17:38:31Z</time>
      </trkpt>
      <trkpt lat="37.0461880" lon="-2.4199980">
        <ele>351.5</ele>
        <time>2019-10-18T17:38:32Z</time>
      </trkpt>
      <trkpt lat="37.0461880" lon="-2.4199980">
        <ele>351.5</ele>
        <time>2019-10-18T17:38:33Z</time>
      </trkpt>
      <trkpt lat="37.0461880" lon="-2.4199980">
        <ele>351.5</ele>
        <time>2019-10-18T17:38:34Z</time>
      </trkpt>
      <trkpt lat="37.0461880" lon="-2.4199980">
        <ele>351.5</ele>
        <time>2019-10-18T17:38:35Z</time>
      </trkpt>
      <trkpt lat="37.0461890" lon="-2.4199990">
        <ele>351.5</ele>
        <time>2019-10-18T17:38:36Z</time>
      </trkpt>
      <trkpt lat="37.0461900" lon="-2.4199990">
        <ele>351.5</ele>
        <time>2019-10-18T17:38:37Z</time>
      </trkpt>
      <trkpt lat="37.0461910" lon="-2.4200000">
        <ele>351.5</ele>
        <time>2019-10-18T17:38:38Z</time>
      </trkpt>
      <trkpt lat="37.0461910" lon="-2.4199990">
        <ele>351.5</ele>
        <time>2019-10-18T17:38:39Z</time>
      </trkpt>
      <trkpt lat="37.0461910" lon="-2.4199990">
        <ele>351.5</ele>
        <time>2019-10-18T17:38:40Z</time>
      </trkpt>
      <trkpt lat="37.0461900" lon="-2.4199980">
        <ele>351.5</ele>
        <time>2019-10-18T17:38:41Z</time>
      </trkpt>
      <trkpt lat="37.0461900" lon="-2.4199980">
        <ele>351.5</ele>
        <time>2019-10-18T17:38:42Z</time>
      </trkpt>
      <trkpt lat="37.0461900" lon="-2.4199990">
        <ele>351.5</ele>
        <time>2019-10-18T17:38:43Z</time>
      </trkpt>
      <trkpt lat="37.0461900" lon="-2.4199990">
        <ele>351.5</ele>
        <time>2019-10-18T17:38:44Z</time>
      </trkpt>
      <trkpt lat="37.0461900" lon="-2.4200000">
        <ele>351.5</ele>
        <time>2019-10-18T17:38:45Z</time>
      </trkpt>
      <trkpt lat="37.0461900" lon="-2.4200000">
        <ele>351.5</ele>
        <time>2019-10-18T17:38:46Z</time>
      </trkpt>
      <trkpt lat="37.0461900" lon="-2.4200000">
        <ele>351.5</ele>
        <time>2019-10-18T17:38:47Z</time>
      </trkpt>
      <trkpt lat="37.0461890" lon="-2.4200000">
        <ele>351.5</ele>
        <time>2019-10-18T17:38:48Z</time>
      </trkpt>
      <trkpt lat="37.0461890" lon="-2.4200000">
        <ele>351.5</ele>
        <time>2019-10-18T17:38:49Z</time>
      </trkpt>
      <trkpt lat="37.0461890" lon="-2.4200000">
        <ele>351.5</ele>
        <time>2019-10-18T17:38:50Z</time>
      </trkpt>
      <trkpt lat="37.0461890" lon="-2.4200000">
        <ele>351.5</ele>
        <time>2019-10-18T17:38:51Z</time>
      </trkpt>
      <trkpt lat="37.0461890" lon="-2.4200000">
        <ele>351.5</ele>
        <time>2019-10-18T17:38:52Z</time>
      </trkpt>
      <trkpt lat="37.0461890" lon="-2.4200000">
        <ele>351.5</ele>
        <time>2019-10-18T17:38:53Z</time>
      </trkpt>
      <trkpt lat="37.0461890" lon="-2.4199990">
        <ele>351.5</ele>
        <time>2019-10-18T17:38:54Z</time>
      </trkpt>
      <trkpt lat="37.0461900" lon="-2.4199990">
        <ele>351.5</ele>
        <time>2019-10-18T17:38:55Z</time>
      </trkpt>
      <trkpt lat="37.0461900" lon="-2.4199990">
        <ele>351.5</ele>
        <time>2019-10-18T17:38:56Z</time>
      </trkpt>
      <trkpt lat="37.0461900" lon="-2.4200000">
        <ele>351.5</ele>
        <time>2019-10-18T17:38:57Z</time>
      </trkpt>
      <trkpt lat="37.0461900" lon="-2.4200000">
        <ele>351.5</ele>
        <time>2019-10-18T17:38:58Z</time>
      </trkpt>
      <trkpt lat="37.0461910" lon="-2.4200000">
        <ele>351.5</ele>
        <time>2019-10-18T17:38:59Z</time>
      </trkpt>
      <trkpt lat="37.0461910" lon="-2.4200000">
        <ele>351.5</ele>
        <time>2019-10-18T17:39:00Z</time>
      </trkpt>
      <trkpt lat="37.0461910" lon="-2.4200000">
        <ele>351.5</ele>
        <time>2019-10-18T17:39:01Z</time>
      </trkpt>
      <trkpt lat="37.0461920" lon="-2.4200000">
        <ele>351.5</ele>
        <time>2019-10-18T17:39:02Z</time>
      </trkpt>
      <trkpt lat="37.0461920" lon="-2.4200000">
        <ele>351.5</ele>
        <time>2019-10-18T17:39:03Z</time>
      </trkpt>
      <trkpt lat="37.0461920" lon="-2.4200000">
        <ele>351.5</ele>
        <time>2019-10-18T17:39:04Z</time>
      </trkpt>
      <trkpt lat="37.0461920" lon="-2.4200000">
        <ele>351.5</ele>
        <time>2019-10-18T17:39:05Z</time>
      </trkpt>
      <trkpt lat="37.0461920" lon="-2.4200000">
        <ele>351.5</ele>
        <time>2019-10-18T17:39:06Z</time>
      </trkpt>
      <trkpt lat="37.0461920" lon="-2.4200000">
        <ele>351.5</ele>
        <time>2019-10-18T17:39:07Z</time>
      </trkpt>
      <trkpt lat="37.0461910" lon="-2.4200000">
        <ele>351.5</ele>
        <time>2019-10-18T17:39:08Z</time>
      </trkpt>
      <trkpt lat="37.0461910" lon="-2.4200000">
        <ele>351.5</ele>
        <time>2019-10-18T17:39:09Z</time>
      </trkpt>
      <trkpt lat="37.0461910" lon="-2.4200000">
        <ele>351.5</ele>
        <time>2019-10-18T17:39:10Z</time>
      </trkpt>
      <trkpt lat="37.0461910" lon="-2.4200000">
        <ele>351.5</ele>
        <time>2019-10-18T17:39:11Z</time>
      </trkpt>
      <trkpt lat="37.0461910" lon="-2.4200000">
        <ele>351.5</ele>
        <time>2019-10-18T17:39:12Z</time>
      </trkpt>
      <trkpt lat="37.0461910" lon="-2.4200000">
        <ele>351.5</ele>
        <time>2019-10-18T17:39:13Z</time>
      </trkpt>
      <trkpt lat="37.0461910" lon="-2.4200000">
        <ele>351.5</ele>
        <time>2019-10-18T17:39:14Z</time>
      </trkpt>
      <trkpt lat="37.0461910" lon="-2.4200000">
        <ele>351.5</ele>
        <time>2019-10-18T17:39:15Z</time>
      </trkpt>
      <trkpt lat="37.0461900" lon="-2.4200000">
        <ele>351.5</ele>
        <time>2019-10-18T17:39:16Z</time>
      </trkpt>
      <trkpt lat="37.0461900" lon="-2.4200000">
        <ele>351.5</ele>
        <time>2019-10-18T17:39:17Z</time>
      </trkpt>
      <trkpt lat="37.0461890" lon="-2.4200000">
        <ele>351.5</ele>
        <time>2019-10-18T17:39:18Z</time>
      </trkpt>
      <trkpt lat="37.0461890" lon="-2.4200010">
        <ele>351.5</ele>
        <time>2019-10-18T17:39:19Z</time>
      </trkpt>
      <trkpt lat="37.0461890" lon="-2.4200010">
        <ele>351.5</ele>
        <time>2019-10-18T17:39:20Z</time>
      </trkpt>
      <trkpt lat="37.0461890" lon="-2.4200010">
        <ele>351.5</ele>
        <time>2019-10-18T17:39:21Z</time>
      </trkpt>
      <trkpt lat="37.0461880" lon="-2.4200010">
        <ele>351.5</ele>
        <time>2019-10-18T17:39:22Z</time>
      </trkpt>
      <trkpt lat="37.0461880" lon="-2.4200010">
        <ele>351.5</ele>
        <time>2019-10-18T17:39:23Z</time>
      </trkpt>
      <trkpt lat="37.0461880" lon="-2.4200010">
        <ele>351.5</ele>
        <time>2019-10-18T17:39:24Z</time>
      </trkpt>
      <trkpt lat="37.0461870" lon="-2.4200000">
        <ele>351.5</ele>
        <time>2019-10-18T17:39:25Z</time>
      </trkpt>
      <trkpt lat="37.0461870" lon="-2.4200000">
        <ele>351.5</ele>
        <time>2019-10-18T17:39:26Z</time>
      </trkpt>
      <trkpt lat="37.0461870" lon="-2.4200000">
        <ele>351.5</ele>
        <time>2019-10-18T17:39:27Z</time>
      </trkpt>
      <trkpt lat="37.0461860" lon="-2.4200000">
        <ele>351.5</ele>
        <time>2019-10-18T17:39:28Z</time>
      </trkpt>
      <trkpt lat="37.0461860" lon="-2.4200000">
        <ele>351.5</ele>
        <time>2019-10-18T17:39:29Z</time>
      </trkpt>
      <trkpt lat="37.0461860" lon="-2.4200000">
        <ele>351.5</ele>
        <time>2019-10-18T17:39:30Z</time>
      </trkpt>
      <trkpt lat="37.0461850" lon="-2.4200010">
        <ele>351.5</ele>
        <time>2019-10-18T17:39:31Z</time>
      </trkpt>
      <trkpt lat="37.0461850" lon="-2.4200010">
        <ele>351.5</ele>
        <time>2019-10-18T17:39:32Z</time>
      </trkpt>
      <trkpt lat="37.0461850" lon="-2.4200010">
        <ele>351.5</ele>
        <time>2019-10-18T17:39:33Z</time>
      </trkpt>
      <trkpt lat="37.0461840" lon="-2.4200020">
        <ele>351.5</ele>
        <time>2019-10-18T17:39:34Z</time>
      </trkpt>
      <trkpt lat="37.0461840" lon="-2.4200020">
        <ele>351.5</ele>
        <time>2019-10-18T17:39:35Z</time>
      </trkpt>
      <trkpt lat="37.0461830" lon="-2.4200020">
        <ele>351.5</ele>
        <time>2019-10-18T17:39:36Z</time>
      </trkpt>
      <trkpt lat="37.0461830" lon="-2.4200020">
        <ele>351.5</ele>
        <time>2019-10-18T17:39:37Z</time>
      </trkpt>
      <trkpt lat="37.0461820" lon="-2.4200020">
        <ele>351.5</ele>
        <time>2019-10-18T17:39:38Z</time>
      </trkpt>
      <trkpt lat="37.0461820" lon="-2.4200020">
        <ele>351.5</ele>
        <time>2019-10-18T17:39:39Z</time>
      </trkpt>
      <trkpt lat="37.0461810" lon="-2.4200020">
        <ele>351.5</ele>
        <time>2019-10-18T17:39:40Z</time>
      </trkpt>
      <trkpt lat="37.0461810" lon="-2.4200020">
        <ele>351.5</ele>
        <time>2019-10-18T17:39:41Z</time>
      </trkpt>
      <trkpt lat="37.0461810" lon="-2.4200010">
        <ele>351.5</ele>
        <time>2019-10-18T17:39:42Z</time>
      </trkpt>
      <trkpt lat="37.0461800" lon="-2.4200010">
        <ele>351.5</ele>
        <time>2019-10-18T17:39:43Z</time>
      </trkpt>
      <trkpt lat="37.0461800" lon="-2.4200010">
        <ele>351.5</ele>
        <time>2019-10-18T17:39:44Z</time>
      </trkpt>
      <trkpt lat="37.0461800" lon="-2.4200010">
        <ele>351.5</ele>
        <time>2019-10-18T17:39:45Z</time>
      </trkpt>
      <trkpt lat="37.0461790" lon="-2.4200010">
        <ele>351.5</ele>
        <time>2019-10-18T17:39:46Z</time>
      </trkpt>
      <trkpt lat="37.0461790" lon="-2.4200020">
        <ele>351.5</ele>
        <time>2019-10-18T17:39:47Z</time>
      </trkpt>
      <trkpt lat="37.0461780" lon="-2.4200020">
        <ele>351.5</ele>
        <time>2019-10-18T17:39:48Z</time>
      </trkpt>
      <trkpt lat="37.0461770" lon="-2.4200020">
        <ele>351.5</ele>
        <time>2019-10-18T17:39:49Z</time>
      </trkpt>
      <trkpt lat="37.0461770" lon="-2.4200020">
        <ele>351.5</ele>
        <time>2019-10-18T17:39:50Z</time>
      </trkpt>
      <trkpt lat="37.0461760" lon="-2.4200020">
        <ele>351.5</ele>
        <time>2019-10-18T17:39:51Z</time>
      </trkpt>
      <trkpt lat="37.0461760" lon="-2.4200020">
        <ele>351.5</ele>
        <time>2019-10-18T17:39:52Z</time>
      </trkpt>
      <trkpt lat="37.0461750" lon="-2.4200020">
        <ele>351.5</ele>
        <time>2019-10-18T17:39:53Z</time>
      </trkpt>
      <trkpt lat="37.0461750" lon="-2.4200020">
        <ele>351.5</ele>
        <time>2019-10-18T17:39:54Z</time>
      </trkpt>
      <trkpt lat="37.0461750" lon="-2.4200020">
        <ele>351.5</ele>
        <time>2019-10-18T17:39:55Z</time>
      </trkpt>
      <trkpt lat="37.0461750" lon="-2.4200020">
        <ele>351.5</ele>
        <time>2019-10-18T17:39:56Z</time>
      </trkpt>
      <trkpt lat="37.0461750" lon="-2.4200020">
        <ele>351.5</ele>
        <time>2019-10-18T17:39:57Z</time>
      </trkpt>
      <trkpt lat="37.0461750" lon="-2.4200030">
        <ele>351.5</ele>
        <time>2019-10-18T17:39:58Z</time>
      </trkpt>
      <trkpt lat="37.0461750" lon="-2.4200030">
        <ele>351.5</ele>
        <time>2019-10-18T17:39:59Z</time>
      </trkpt>
      <trkpt lat="37.0461750" lon="-2.4200030">
        <ele>351.5</ele>
        <time>2019-10-18T17:40:00Z</time>
      </trkpt>
      <trkpt lat="37.0461750" lon="-2.4200020">
        <ele>351.5</ele>
        <time>2019-10-18T17:40:01Z</time>
      </trkpt>
      <trkpt lat="37.0461750" lon="-2.4200020">
        <ele>351.5</ele>
        <time>2019-10-18T17:40:02Z</time>
      </trkpt>
      <trkpt lat="37.0461750" lon="-2.4200020">
        <ele>351.5</ele>
        <time>2019-10-18T17:40:03Z</time>
      </trkpt>
      <trkpt lat="37.0461760" lon="-2.4200030">
        <ele>351.5</ele>
        <time>2019-10-18T17:40:04Z</time>
      </trkpt>
      <trkpt lat="37.0461760" lon="-2.4200030">
        <ele>351.5</ele>
        <time>2019-10-18T17:40:05Z</time>
      </trkpt>
      <trkpt lat="37.0461760" lon="-2.4200030">
        <ele>351.5</ele>
        <time>2019-10-18T17:40:06Z</time>
      </trkpt>
      <trkpt lat="37.0461760" lon="-2.4200030">
        <ele>351.5</ele>
        <time>2019-10-18T17:40:07Z</time>
      </trkpt>
      <trkpt lat="37.0461760" lon="-2.4200030">
        <ele>351.5</ele>
        <time>2019-10-18T17:40:08Z</time>
      </trkpt>
      <trkpt lat="37.0461760" lon="-2.4200030">
        <ele>351.5</ele>
        <time>2019-10-18T17:40:09Z</time>
      </trkpt>
      <trkpt lat="37.0461760" lon="-2.4200030">
        <ele>351.5</ele>
        <time>2019-10-18T17:40:10Z</time>
      </trkpt>
      <trkpt lat="37.0461760" lon="-2.4200030">
        <ele>351.5</ele>
        <time>2019-10-18T17:40:11Z</time>
      </trkpt>
      <trkpt lat="37.0461750" lon="-2.4200030">
        <ele>351.5</ele>
        <time>2019-10-18T17:40:12Z</time>
      </trkpt>
      <trkpt lat="37.0461750" lon="-2.4200030">
        <ele>351.5</ele>
        <time>2019-10-18T17:40:13Z</time>
      </trkpt>
      <trkpt lat="37.0461750" lon="-2.4200030">
        <ele>351.5</ele>
        <time>2019-10-18T17:40:14Z</time>
      </trkpt>
      <trkpt lat="37.0461750" lon="-2.4200030">
        <ele>351.5</ele>
        <time>2019-10-18T17:40:15Z</time>
      </trkpt>
      <trkpt lat="37.0461750" lon="-2.4200030">
        <ele>351.5</ele>
        <time>2019-10-18T17:40:16Z</time>
      </trkpt>
      <trkpt lat="37.0461750" lon="-2.4200030">
        <ele>351.5</ele>
        <time>2019-10-18T17:40:17Z</time>
      </trkpt>
      <trkpt lat="37.0461750" lon="-2.4200030">
        <ele>351.5</ele>
        <time>2019-10-18T17:40:18Z</time>
      </trkpt>
      <trkpt lat="37.0461750" lon="-2.4200030">
        <ele>351.5</ele>
        <time>2019-10-18T17:40:19Z</time>
      </trkpt>
      <trkpt lat="37.0461750" lon="-2.4200030">
        <ele>351.5</ele>
        <time>2019-10-18T17:40:20Z</time>
      </trkpt>
      <trkpt lat="37.0461760" lon="-2.4200030">
        <ele>351.5</ele>
        <time>2019-10-18T17:40:21Z</time>
      </trkpt>
      <trkpt lat="37.0461760" lon="-2.4200030">
        <ele>351.5</ele>
        <time>2019-10-18T17:40:22Z</time>
      </trkpt>
      <trkpt lat="37.0461760" lon="-2.4200030">
        <ele>351.5</ele>
        <time>2019-10-18T17:40:23Z</time>
      </trkpt>
      <trkpt lat="37.0461770" lon="-2.4200040">
        <ele>351.5</ele>
        <time>2019-10-18T17:40:24Z</time>
      </trkpt>
      <trkpt lat="37.0461770" lon="-2.4200040">
        <ele>351.5</ele>
        <time>2019-10-18T17:40:25Z</time>
      </trkpt>
      <trkpt lat="37.0461770" lon="-2.4200040">
        <ele>351.5</ele>
        <time>2019-10-18T17:40:26Z</time>
      </trkpt>
      <trkpt lat="37.0461770" lon="-2.4200040">
        <ele>351.5</ele>
        <time>2019-10-18T17:40:27Z</time>
      </trkpt>
      <trkpt lat="37.0461770" lon="-2.4200040">
        <ele>351.5</ele>
        <time>2019-10-18T17:40:28Z</time>
      </trkpt>
      <trkpt lat="37.0461770" lon="-2.4200040">
        <ele>351.5</ele>
        <time>2019-10-18T17:40:29Z</time>
      </trkpt>
      <trkpt lat="37.0461770" lon="-2.4200050">
        <ele>351.5</ele>
        <time>2019-10-18T17:40:30Z</time>
      </trkpt>
      <trkpt lat="37.0461770" lon="-2.4200050">
        <ele>351.5</ele>
        <time>2019-10-18T17:40:31Z</time>
      </trkpt>
      <trkpt lat="37.0461770" lon="-2.4200040">
        <ele>351.5</ele>
        <time>2019-10-18T17:40:32Z</time>
      </trkpt>
      <trkpt lat="37.0461770" lon="-2.4200040">
        <ele>351.5</ele>
        <time>2019-10-18T17:40:33Z</time>
      </trkpt>
      <trkpt lat="37.0461770" lon="-2.4200030">
        <ele>351.5</ele>
        <time>2019-10-18T17:40:34Z</time>
      </trkpt>
      <trkpt lat="37.0461770" lon="-2.4200020">
        <ele>351.5</ele>
        <time>2019-10-18T17:40:35Z</time>
      </trkpt>
      <trkpt lat="37.0461780" lon="-2.4199990">
        <ele>351.5</ele>
        <time>2019-10-18T17:40:36Z</time>
      </trkpt>
      <trkpt lat="37.0461800" lon="-2.4199940">
        <ele>351.5</ele>
        <time>2019-10-18T17:40:37Z</time>
      </trkpt>
      <trkpt lat="37.0461840" lon="-2.4199880">
        <ele>351.5</ele>
        <time>2019-10-18T17:40:38Z</time>
      </trkpt>
      <trkpt lat="37.0461870" lon="-2.4199830">
        <ele>351.5</ele>
        <time>2019-10-18T17:40:39Z</time>
      </trkpt>
      <trkpt lat="37.0461900" lon="-2.4199770">
        <ele>351.4</ele>
        <time>2019-10-18T17:40:40Z</time>
      </trkpt>
      <trkpt lat="37.0461920" lon="-2.4199700">
        <ele>351.4</ele>
        <time>2019-10-18T17:40:41Z</time>
      </trkpt>
      <trkpt lat="37.0461910" lon="-2.4199620">
        <ele>351.4</ele>
        <time>2019-10-18T17:40:42Z</time>
      </trkpt>
      <trkpt lat="37.0461880" lon="-2.4199530">
        <ele>351.4</ele>
        <time>2019-10-18T17:40:43Z</time>
      </trkpt>
      <trkpt lat="37.0461840" lon="-2.4199450">
        <ele>351.4</ele>
        <time>2019-10-18T17:40:44Z</time>
      </trkpt>
      <trkpt lat="37.0461800" lon="-2.4199400">
        <ele>351.4</ele>
        <time>2019-10-18T17:40:45Z</time>
      </trkpt>
      <trkpt lat="37.0461790" lon="-2.4199380">
        <ele>351.4</ele>
        <time>2019-10-18T17:40:46Z</time>
      </trkpt>
      <trkpt lat="37.0461790" lon="-2.4199380">
        <ele>351.4</ele>
        <time>2019-10-18T17:40:47Z</time>
      </trkpt>
      <trkpt lat="37.0461790" lon="-2.4199390">
        <ele>351.4</ele>
        <time>2019-10-18T17:40:48Z</time>
      </trkpt>
      <trkpt lat="37.0461800" lon="-2.4199390">
        <ele>351.4</ele>
        <time>2019-10-18T17:40:49Z</time>
      </trkpt>
      <trkpt lat="37.0461800" lon="-2.4199380">
        <ele>351.4</ele>
        <time>2019-10-18T17:40:50Z</time>
      </trkpt>
      <trkpt lat="37.0461810" lon="-2.4199380">
        <ele>351.4</ele>
        <time>2019-10-18T17:40:51Z</time>
      </trkpt>
      <trkpt lat="37.0461810" lon="-2.4199370">
        <ele>351.4</ele>
        <time>2019-10-18T17:40:52Z</time>
      </trkpt>
      <trkpt lat="37.0461820" lon="-2.4199370">
        <ele>351.4</ele>
        <time>2019-10-18T17:40:53Z</time>
      </trkpt>
      <trkpt lat="37.0461830" lon="-2.4199380">
        <ele>351.4</ele>
        <time>2019-10-18T17:40:54Z</time>
      </trkpt>
      <trkpt lat="37.0461830" lon="-2.4199380">
        <ele>351.4</ele>
        <time>2019-10-18T17:40:55Z</time>
      </trkpt>
      <trkpt lat="37.0461840" lon="-2.4199380">
        <ele>351.4</ele>
        <time>2019-10-18T17:40:56Z</time>
      </trkpt>
      <trkpt lat="37.0461840" lon="-2.4199370">
        <ele>351.4</ele>
        <time>2019-10-18T17:40:57Z</time>
      </trkpt>
      <trkpt lat="37.0461840" lon="-2.4199370">
        <ele>351.4</ele>
        <time>2019-10-18T17:40:58Z</time>
      </trkpt>
      <trkpt lat="37.0461850" lon="-2.4199370">
        <ele>351.4</ele>
        <time>2019-10-18T17:40:59Z</time>
      </trkpt>
      <trkpt lat="37.0461840" lon="-2.4199350">
        <ele>351.4</ele>
        <time>2019-10-18T17:41:00Z</time>
      </trkpt>
      <trkpt lat="37.0461820" lon="-2.4199320">
        <ele>351.4</ele>
        <time>2019-10-18T17:41:01Z</time>
      </trkpt>
      <trkpt lat="37.0461780" lon="-2.4199270">
        <ele>351.4</ele>
        <time>2019-10-18T17:41:02Z</time>
      </trkpt>
      <trkpt lat="37.0461750" lon="-2.4199200">
        <ele>351.4</ele>
        <time>2019-10-18T17:41:03Z</time>
      </trkpt>
      <trkpt lat="37.0461730" lon="-2.4199120">
        <ele>351.4</ele>
        <time>2019-10-18T17:41:04Z</time>
      </trkpt>
      <trkpt lat="37.0461730" lon="-2.4199040">
        <ele>351.4</ele>
        <time>2019-10-18T17:41:05Z</time>
      </trkpt>
      <trkpt lat="37.0461750" lon="-2.4198980">
        <ele>351.4</ele>
        <time>2019-10-18T17:41:06Z</time>
      </trkpt>
      <trkpt lat="37.0461760" lon="-2.4198960">
        <ele>351.4</ele>
        <time>2019-10-18T17:41:07Z</time>
      </trkpt>
      <trkpt lat="37.0461780" lon="-2.4198950">
        <ele>351.4</ele>
        <time>2019-10-18T17:41:08Z</time>
      </trkpt>
      <trkpt lat="37.0461790" lon="-2.4198940">
        <ele>351.4</ele>
        <time>2019-10-18T17:41:09Z</time>
      </trkpt>
      <trkpt lat="37.0461800" lon="-2.4198930">
        <ele>351.4</ele>
        <time>2019-10-18T17:41:10Z</time>
      </trkpt>
      <trkpt lat="37.0461810" lon="-2.4198910">
        <ele>351.4</ele>
        <time>2019-10-18T17:41:11Z</time>
      </trkpt>
      <trkpt lat="37.0461790" lon="-2.4198900">
        <ele>351.4</ele>
        <time>2019-10-18T17:41:12Z</time>
      </trkpt>
      <trkpt lat="37.0461750" lon="-2.4198880">
        <ele>351.4</ele>
        <time>2019-10-18T17:41:13Z</time>
      </trkpt>
      <trkpt lat="37.0461700" lon="-2.4198850">
        <ele>351.4</ele>
        <time>2019-10-18T17:41:14Z</time>
      </trkpt>
      <trkpt lat="37.0461680" lon="-2.4198830">
        <ele>351.4</ele>
        <time>2019-10-18T17:41:15Z</time>
      </trkpt>
      <trkpt lat="37.0461680" lon="-2.4198820">
        <ele>351.4</ele>
        <time>2019-10-18T17:41:16Z</time>
      </trkpt>
      <trkpt lat="37.0461700" lon="-2.4198820">
        <ele>351.4</ele>
        <time>2019-10-18T17:41:17Z</time>
      </trkpt>
      <trkpt lat="37.0461700" lon="-2.4198810">
        <ele>351.4</ele>
        <time>2019-10-18T17:41:18Z</time>
      </trkpt>
      <trkpt lat="37.0461700" lon="-2.4198810">
        <ele>351.4</ele>
        <time>2019-10-18T17:41:19Z</time>
      </trkpt>
      <trkpt lat="37.0461700" lon="-2.4198800">
        <ele>351.4</ele>
        <time>2019-10-18T17:41:20Z</time>
      </trkpt>
      <trkpt lat="37.0461700" lon="-2.4198800">
        <ele>351.4</ele>
        <time>2019-10-18T17:41:21Z</time>
      </trkpt>
      <trkpt lat="37.0461700" lon="-2.4198800">
        <ele>351.4</ele>
        <time>2019-10-18T17:41:22Z</time>
      </trkpt>
      <trkpt lat="37.0461690" lon="-2.4198790">
        <ele>351.4</ele>
        <time>2019-10-18T17:41:23Z</time>
      </trkpt>
      <trkpt lat="37.0461690" lon="-2.4198790">
        <ele>351.4</ele>
        <time>2019-10-18T17:41:24Z</time>
      </trkpt>
      <trkpt lat="37.0461680" lon="-2.4198780">
        <ele>351.4</ele>
        <time>2019-10-18T17:41:25Z</time>
      </trkpt>
      <trkpt lat="37.0461670" lon="-2.4198780">
        <ele>351.4</ele>
        <time>2019-10-18T17:41:26Z</time>
      </trkpt>
      <trkpt lat="37.0461660" lon="-2.4198780">
        <ele>351.4</ele>
        <time>2019-10-18T17:41:27Z</time>
      </trkpt>
      <trkpt lat="37.0461660" lon="-2.4198770">
        <ele>351.4</ele>
        <time>2019-10-18T17:41:28Z</time>
      </trkpt>
      <trkpt lat="37.0461660" lon="-2.4198770">
        <ele>351.4</ele>
        <time>2019-10-18T17:41:29Z</time>
      </trkpt>
      <trkpt lat="37.0461660" lon="-2.4198770">
        <ele>351.4</ele>
        <time>2019-10-18T17:41:30Z</time>
      </trkpt>
      <trkpt lat="37.0461650" lon="-2.4198770">
        <ele>351.4</ele>
        <time>2019-10-18T17:41:31Z</time>
      </trkpt>
      <trkpt lat="37.0461650" lon="-2.4198770">
        <ele>351.4</ele>
        <time>2019-10-18T17:41:32Z</time>
      </trkpt>
      <trkpt lat="37.0461650" lon="-2.4198760">
        <ele>351.4</ele>
        <time>2019-10-18T17:41:33Z</time>
      </trkpt>
      <trkpt lat="37.0461650" lon="-2.4198760">
        <ele>351.4</ele>
        <time>2019-10-18T17:41:34Z</time>
      </trkpt>
      <trkpt lat="37.0461650" lon="-2.4198760">
        <ele>351.4</ele>
        <time>2019-10-18T17:41:35Z</time>
      </trkpt>
      <trkpt lat="37.0461650" lon="-2.4198760">
        <ele>351.4</ele>
        <time>2019-10-18T17:41:36Z</time>
      </trkpt>
      <trkpt lat="37.0461650" lon="-2.4198760">
        <ele>351.4</ele>
        <time>2019-10-18T17:41:37Z</time>
      </trkpt>
      <trkpt lat="37.0461650" lon="-2.4198750">
        <ele>351.4</ele>
        <time>2019-10-18T17:41:38Z</time>
      </trkpt>
      <trkpt lat="37.0461650" lon="-2.4198750">
        <ele>351.4</ele>
        <time>2019-10-18T17:41:39Z</time>
      </trkpt>
      <trkpt lat="37.0461650" lon="-2.4198750">
        <ele>351.4</ele>
        <time>2019-10-18T17:41:40Z</time>
      </trkpt>
      <trkpt lat="37.0461650" lon="-2.4198750">
        <ele>351.4</ele>
        <time>2019-10-18T17:41:41Z</time>
      </trkpt>
      <trkpt lat="37.0461650" lon="-2.4198750">
        <ele>351.4</ele>
        <time>2019-10-18T17:41:42Z</time>
      </trkpt>
      <trkpt lat="37.0461650" lon="-2.4198760">
        <ele>351.4</ele>
        <time>2019-10-18T17:41:43Z</time>
      </trkpt>
      <trkpt lat="37.0461650" lon="-2.4198760">
        <ele>351.4</ele>
        <time>2019-10-18T17:41:44Z</time>
      </trkpt>
      <trkpt lat="37.0461640" lon="-2.4198760">
        <ele>351.4</ele>
        <time>2019-10-18T17:41:45Z</time>
      </trkpt>
      <trkpt lat="37.0461630" lon="-2.4198760">
        <ele>351.4</ele>
        <time>2019-10-18T17:41:46Z</time>
      </trkpt>
      <trkpt lat="37.0461640" lon="-2.4198760">
        <ele>351.4</ele>
        <time>2019-10-18T17:41:47Z</time>
      </trkpt>
      <trkpt lat="37.0461650" lon="-2.4198780">
        <ele>351.4</ele>
        <time>2019-10-18T17:41:48Z</time>
      </trkpt>
      <trkpt lat="37.0461680" lon="-2.4198820">
        <ele>351.4</ele>
        <time>2019-10-18T17:41:49Z</time>
      </trkpt>
      <trkpt lat="37.0461720" lon="-2.4198840">
        <ele>351.4</ele>
        <time>2019-10-18T17:41:50Z</time>
      </trkpt>
      <trkpt lat="37.0461770" lon="-2.4198850">
        <ele>351.4</ele>
        <time>2019-10-18T17:41:51Z</time>
      </trkpt>
      <trkpt lat="37.0461820" lon="-2.4198840">
        <ele>351.4</ele>
        <time>2019-10-18T17:41:52Z</time>
      </trkpt>
      <trkpt lat="37.0461850" lon="-2.4198840">
        <ele>351.4</ele>
        <time>2019-10-18T17:41:53Z</time>
      </trkpt>
      <trkpt lat="37.0461850" lon="-2.4198840">
        <ele>351.4</ele>
        <time>2019-10-18T17:41:54Z</time>
      </trkpt>
      <trkpt lat="37.0461860" lon="-2.4198880">
        <ele>351.4</ele>
        <time>2019-10-18T17:41:55Z</time>
      </trkpt>
      <trkpt lat="37.0461870" lon="-2.4198960">
        <ele>351.4</ele>
        <time>2019-10-18T17:41:56Z</time>
      </trkpt>
      <trkpt lat="37.0461900" lon="-2.4199070">
        <ele>351.4</ele>
        <time>2019-10-18T17:41:57Z</time>
      </trkpt>
      <trkpt lat="37.0461910" lon="-2.4199180">
        <ele>351.3</ele>
        <time>2019-10-18T17:41:58Z</time>
      </trkpt>
      <trkpt lat="37.0461900" lon="-2.4199290">
        <ele>351.3</ele>
        <time>2019-10-18T17:41:59Z</time>
      </trkpt>
      <trkpt lat="37.0461890" lon="-2.4199400">
        <ele>351.3</ele>
        <time>2019-10-18T17:42:00Z</time>
      </trkpt>
      <trkpt lat="37.0461890" lon="-2.4199490">
        <ele>351.3</ele>
        <time>2019-10-18T17:42:01Z</time>
      </trkpt>
      <trkpt lat="37.0461890" lon="-2.4199580">
        <ele>351.3</ele>
        <time>2019-10-18T17:42:02Z</time>
      </trkpt>
      <trkpt lat="37.0461880" lon="-2.4199660">
        <ele>351.3</ele>
        <time>2019-10-18T17:42:03Z</time>
      </trkpt>
      <trkpt lat="37.0461860" lon="-2.4199720">
        <ele>351.3</ele>
        <time>2019-10-18T17:42:04Z</time>
      </trkpt>
      <trkpt lat="37.0461840" lon="-2.4199750">
        <ele>351.3</ele>
        <time>2019-10-18T17:42:05Z</time>
      </trkpt>
      <trkpt lat="37.0461840" lon="-2.4199760">
        <ele>351.3</ele>
        <time>2019-10-18T17:42:06Z</time>
      </trkpt>
      <trkpt lat="37.0461840" lon="-2.4199770">
        <ele>351.3</ele>
        <time>2019-10-18T17:42:07Z</time>
      </trkpt>
      <trkpt lat="37.0461850" lon="-2.4199770">
        <ele>351.3</ele>
        <time>2019-10-18T17:42:08Z</time>
      </trkpt>
      <trkpt lat="37.0461850" lon="-2.4199770">
        <ele>351.3</ele>
        <time>2019-10-18T17:42:09Z</time>
      </trkpt>
      <trkpt lat="37.0461850" lon="-2.4199770">
        <ele>351.3</ele>
        <time>2019-10-18T17:42:10Z</time>
      </trkpt>
      <trkpt lat="37.0461850" lon="-2.4199770">
        <ele>351.3</ele>
        <time>2019-10-18T17:42:11Z</time>
      </trkpt>
      <trkpt lat="37.0461010" lon="-2.4199800">
        <ele>351.2</ele>
        <time>2019-10-18T17:42:33Z</time>
      </trkpt>
      <trkpt lat="37.0460800" lon="-2.4199630">
        <ele>351.2</ele>
        <time>2019-10-18T17:42:34Z</time>
      </trkpt>
      <trkpt lat="37.0460560" lon="-2.4199460">
        <ele>351.1</ele>
        <time>2019-10-18T17:42:35Z</time>
      </trkpt>
      <trkpt lat="37.0460290" lon="-2.4199290">
        <ele>351.1</ele>
        <time>2019-10-18T17:42:36Z</time>
      </trkpt>
      <trkpt lat="37.0460000" lon="-2.4199080">
        <ele>351.1</ele>
        <time>2019-10-18T17:42:37Z</time>
      </trkpt>
      <trkpt lat="37.0459700" lon="-2.4198840">
        <ele>351.0</ele>
        <time>2019-10-18T17:42:38Z</time>
      </trkpt>
      <trkpt lat="37.0459390" lon="-2.4198580">
        <ele>350.9</ele>
        <time>2019-10-18T17:42:39Z</time>
      </trkpt>
      <trkpt lat="37.0459080" lon="-2.4198270">
        <ele>350.9</ele>
        <time>2019-10-18T17:42:40Z</time>
      </trkpt>
      <trkpt lat="37.0458770" lon="-2.4197930">
        <ele>350.8</ele>
        <time>2019-10-18T17:42:41Z</time>
      </trkpt>
      <trkpt lat="37.0458460" lon="-2.4197560">
        <ele>350.7</ele>
        <time>2019-10-18T17:42:42Z</time>
      </trkpt>
      <trkpt lat="37.0458160" lon="-2.4197190">
        <ele>350.6</ele>
        <time>2019-10-18T17:42:43Z</time>
      </trkpt>
      <trkpt lat="37.0457870" lon="-2.4196810">
        <ele>350.5</ele>
        <time>2019-10-18T17:42:44Z</time>
      </trkpt>
      <trkpt lat="37.0457590" lon="-2.4196410">
        <ele>350.4</ele>
        <time>2019-10-18T17:42:45Z</time>
      </trkpt>
      <trkpt lat="37.0457350" lon="-2.4196000">
        <ele>350.4</ele>
        <time>2019-10-18T17:42:46Z</time>
      </trkpt>
      <trkpt lat="37.0457130" lon="-2.4195580">
        <ele>350.3</ele>
        <time>2019-10-18T17:42:47Z</time>
      </trkpt>
      <trkpt lat="37.0456940" lon="-2.4195130">
        <ele>350.2</ele>
        <time>2019-10-18T17:42:48Z</time>
      </trkpt>
      <trkpt lat="37.0456790" lon="-2.4194670">
        <ele>350.1</ele>
        <time>2019-10-18T17:42:49Z</time>
      </trkpt>
      <trkpt lat="37.0456680" lon="-2.4194200">
        <ele>350.1</ele>
        <time>2019-10-18T17:42:50Z</time>
      </trkpt>
      <trkpt lat="37.0456590" lon="-2.4193710">
        <ele>350.0</ele>
        <time>2019-10-18T17:42:51Z</time>
      </trkpt>
      <trkpt lat="37.0456520" lon="-2.4193220">
        <ele>350.0</ele>
        <time>2019-10-18T17:42:52Z</time>
      </trkpt>
      <trkpt lat="37.0456440" lon="-2.4192710">
        <ele>350.0</ele>
        <time>2019-10-18T17:42:53Z</time>
      </trkpt>
      <trkpt lat="37.0456360" lon="-2.4192190">
        <ele>350.0</ele>
        <time>2019-10-18T17:42:54Z</time>
      </trkpt>
      <trkpt lat="37.0456280" lon="-2.4191660">
        <ele>349.9</ele>
        <time>2019-10-18T17:42:55Z</time>
      </trkpt>
      <trkpt lat="37.0456220" lon="-2.4191130">
        <ele>349.9</ele>
        <time>2019-10-18T17:42:56Z</time>
      </trkpt>
      <trkpt lat="37.0456170" lon="-2.4190590">
        <ele>349.8</ele>
        <time>2019-10-18T17:42:57Z</time>
      </trkpt>
      <trkpt lat="37.0456100" lon="-2.4190050">
        <ele>349.8</ele>
        <time>2019-10-18T17:42:58Z</time>
      </trkpt>
      <trkpt lat="37.0456020" lon="-2.4189510">
        <ele>349.6</ele>
        <time>2019-10-18T17:42:59Z</time>
      </trkpt>
      <trkpt lat="37.0455920" lon="-2.4188990">
        <ele>349.5</ele>
        <time>2019-10-18T17:43:00Z</time>
      </trkpt>
      <trkpt lat="37.0455820" lon="-2.4188470">
        <ele>349.4</ele>
        <time>2019-10-18T17:43:01Z</time>
      </trkpt>
      <trkpt lat="37.0455720" lon="-2.4187960">
        <ele>349.2</ele>
        <time>2019-10-18T17:43:02Z</time>
      </trkpt>
      <trkpt lat="37.0455620" lon="-2.4187460">
        <ele>349.1</ele>
        <time>2019-10-18T17:43:03Z</time>
      </trkpt>
      <trkpt lat="37.0455510" lon="-2.4186950">
        <ele>348.9</ele>
        <time>2019-10-18T17:43:04Z</time>
      </trkpt>
      <trkpt lat="37.0455390" lon="-2.4186440">
        <ele>348.7</ele>
        <time>2019-10-18T17:43:05Z</time>
      </trkpt>
      <trkpt lat="37.0455240" lon="-2.4185940">
        <ele>348.5</ele>
        <time>2019-10-18T17:43:06Z</time>
      </trkpt>
      <trkpt lat="37.0455070" lon="-2.4185440">
        <ele>348.2</ele>
        <time>2019-10-18T17:43:07Z</time>
      </trkpt>
      <trkpt lat="37.0454860" lon="-2.4184960">
        <ele>348.0</ele>
        <time>2019-10-18T17:43:08Z</time>
      </trkpt>
      <trkpt lat="37.0454610" lon="-2.4184480">
        <ele>347.7</ele>
        <time>2019-10-18T17:43:09Z</time>
      </trkpt>
      <trkpt lat="37.0454340" lon="-2.4184010">
        <ele>347.4</ele>
        <time>2019-10-18T17:43:10Z</time>
      </trkpt>
      <trkpt lat="37.0454050" lon="-2.4183540">
        <ele>347.1</ele>
        <time>2019-10-18T17:43:11Z</time>
      </trkpt>
      <trkpt lat="37.0453750" lon="-2.4183080">
        <ele>346.7</ele>
        <time>2019-10-18T17:43:12Z</time>
      </trkpt>
      <trkpt lat="37.0453450" lon="-2.4182640">
        <ele>346.4</ele>
        <time>2019-10-18T17:43:13Z</time>
      </trkpt>
      <trkpt lat="37.0453150" lon="-2.4182210">
        <ele>346.0</ele>
        <time>2019-10-18T17:43:14Z</time>
      </trkpt>
      <trkpt lat="37.0452860" lon="-2.4181820">
        <ele>345.6</ele>
        <time>2019-10-18T17:43:15Z</time>
      </trkpt>
      <trkpt lat="37.0452570" lon="-2.4181460">
        <ele>345.3</ele>
        <time>2019-10-18T17:43:16Z</time>
      </trkpt>
      <trkpt lat="37.0452270" lon="-2.4181110">
        <ele>344.9</ele>
        <time>2019-10-18T17:43:17Z</time>
      </trkpt>
      <trkpt lat="37.0451960" lon="-2.4180760">
        <ele>344.6</ele>
        <time>2019-10-18T17:43:18Z</time>
      </trkpt>
      <trkpt lat="37.0451620" lon="-2.4180410">
        <ele>344.2</ele>
        <time>2019-10-18T17:43:19Z</time>
      </trkpt>
      <trkpt lat="37.0451270" lon="-2.4180070">
        <ele>343.7</ele>
        <time>2019-10-18T17:43:20Z</time>
      </trkpt>
      <trkpt lat="37.0450890" lon="-2.4179760">
        <ele>343.3</ele>
        <time>2019-10-18T17:43:21Z</time>
      </trkpt>
      <trkpt lat="37.0450490" lon="-2.4179500">
        <ele>342.9</ele>
        <time>2019-10-18T17:43:22Z</time>
      </trkpt>
      <trkpt lat="37.0450080" lon="-2.4179280">
        <ele>342.5</ele>
        <time>2019-10-18T17:43:23Z</time>
      </trkpt>
      <trkpt lat="37.0449660" lon="-2.4179130">
        <ele>342.0</ele>
        <time>2019-10-18T17:43:24Z</time>
      </trkpt>
      <trkpt lat="37.0449240" lon="-2.4179020">
        <ele>341.6</ele>
        <time>2019-10-18T17:43:25Z</time>
      </trkpt>
      <trkpt lat="37.0448810" lon="-2.4178950">
        <ele>340.9</ele>
        <time>2019-10-18T17:43:26Z</time>
      </trkpt>
      <trkpt lat="37.0448350" lon="-2.4178920">
        <ele>340.2</ele>
        <time>2019-10-18T17:43:27Z</time>
      </trkpt>
      <trkpt lat="37.0447890" lon="-2.4178910">
        <ele>339.5</ele>
        <time>2019-10-18T17:43:28Z</time>
      </trkpt>
      <trkpt lat="37.0447410" lon="-2.4178940">
        <ele>338.7</ele>
        <time>2019-10-18T17:43:29Z</time>
      </trkpt>
      <trkpt lat="37.0446890" lon="-2.4179000">
        <ele>338.0</ele>
        <time>2019-10-18T17:43:30Z</time>
      </trkpt>
      <trkpt lat="37.0446350" lon="-2.4179100">
        <ele>337.2</ele>
        <time>2019-10-18T17:43:31Z</time>
      </trkpt>
      <trkpt lat="37.0445840" lon="-2.4179260">
        <ele>336.5</ele>
        <time>2019-10-18T17:43:32Z</time>
      </trkpt>
      <trkpt lat="37.0445390" lon="-2.4179430">
        <ele>335.9</ele>
        <time>2019-10-18T17:43:33Z</time>
      </trkpt>
      <trkpt lat="37.0444990" lon="-2.4179590">
        <ele>335.3</ele>
        <time>2019-10-18T17:43:34Z</time>
      </trkpt>
      <trkpt lat="37.0444630" lon="-2.4179730">
        <ele>334.8</ele>
        <time>2019-10-18T17:43:35Z</time>
      </trkpt>
      <trkpt lat="37.0444310" lon="-2.4179840">
        <ele>334.4</ele>
        <time>2019-10-18T17:43:36Z</time>
      </trkpt>
      <trkpt lat="37.0444010" lon="-2.4179960">
        <ele>334.0</ele>
        <time>2019-10-18T17:43:37Z</time>
      </trkpt>
      <trkpt lat="37.0443740" lon="-2.4180090">
        <ele>333.6</ele>
        <time>2019-10-18T17:43:38Z</time>
      </trkpt>
      <trkpt lat="37.0443480" lon="-2.4180230">
        <ele>333.2</ele>
        <time>2019-10-18T17:43:39Z</time>
      </trkpt>
      <trkpt lat="37.0443230" lon="-2.4180350">
        <ele>332.9</ele>
        <time>2019-10-18T17:43:40Z</time>
      </trkpt>
      <trkpt lat="37.0442990" lon="-2.4180440">
        <ele>332.5</ele>
        <time>2019-10-18T17:43:41Z</time>
      </trkpt>
      <trkpt lat="37.0442740" lon="-2.4180500">
        <ele>332.2</ele>
        <time>2019-10-18T17:43:42Z</time>
      </trkpt>
      <trkpt lat="37.0442470" lon="-2.4180520">
        <ele>331.8</ele>
        <time>2019-10-18T17:43:43Z</time>
      </trkpt>
      <trkpt lat="37.0442140" lon="-2.4180490">
        <ele>331.4</ele>
        <time>2019-10-18T17:43:44Z</time>
      </trkpt>
      <trkpt lat="37.0441730" lon="-2.4180380">
        <ele>330.9</ele>
        <time>2019-10-18T17:43:45Z</time>
      </trkpt>
      <trkpt lat="37.0441230" lon="-2.4180200">
        <ele>330.3</ele>
        <time>2019-10-18T17:43:46Z</time>
      </trkpt>
      <trkpt lat="37.0440660" lon="-2.4179960">
        <ele>329.6</ele>
        <time>2019-10-18T17:43:47Z</time>
      </trkpt>
      <trkpt lat="37.0440040" lon="-2.4179640">
        <ele>328.9</ele>
        <time>2019-10-18T17:43:48Z</time>
      </trkpt>
      <trkpt lat="37.0439430" lon="-2.4179250">
        <ele>328.2</ele>
        <time>2019-10-18T17:43:49Z</time>
      </trkpt>
      <trkpt lat="37.0438850" lon="-2.4178810">
        <ele>327.6</ele>
        <time>2019-10-18T17:43:50Z</time>
      </trkpt>
      <trkpt lat="37.0438360" lon="-2.4178360">
        <ele>327.1</ele>
        <time>2019-10-18T17:43:51Z</time>
      </trkpt>
      <trkpt lat="37.0437950" lon="-2.4177930">
        <ele>326.6</ele>
        <time>2019-10-18T17:43:52Z</time>
      </trkpt>
      <trkpt lat="37.0437600" lon="-2.4177520">
        <ele>326.2</ele>
        <time>2019-10-18T17:43:53Z</time>
      </trkpt>
      <trkpt lat="37.0437300" lon="-2.4177160">
        <ele>325.7</ele>
        <time>2019-10-18T17:43:54Z</time>
      </trkpt>
      <trkpt lat="37.0437060" lon="-2.4176850">
        <ele>325.5</ele>
        <time>2019-10-18T17:43:55Z</time>
      </trkpt>
      <trkpt lat="37.0436880" lon="-2.4176570">
        <ele>325.3</ele>
        <time>2019-10-18T17:43:56Z</time>
      </trkpt>
      <trkpt lat="37.0436730" lon="-2.4176330">
        <ele>325.1</ele>
        <time>2019-10-18T17:43:57Z</time>
      </trkpt>
      <trkpt lat="37.0436600" lon="-2.4176110">
        <ele>325.0</ele>
        <time>2019-10-18T17:43:58Z</time>
      </trkpt>
      <trkpt lat="37.0436460" lon="-2.4175930">
        <ele>324.9</ele>
        <time>2019-10-18T17:43:59Z</time>
      </trkpt>
      <trkpt lat="37.0436310" lon="-2.4175770">
        <ele>324.8</ele>
        <time>2019-10-18T17:44:00Z</time>
      </trkpt>
      <trkpt lat="37.0436170" lon="-2.4175620">
        <ele>324.7</ele>
        <time>2019-10-18T17:44:01Z</time>
      </trkpt>
      <trkpt lat="37.0436050" lon="-2.4175450">
        <ele>324.6</ele>
        <time>2019-10-18T17:44:02Z</time>
      </trkpt>
      <trkpt lat="37.0435980" lon="-2.4175310">
        <ele>324.5</ele>
        <time>2019-10-18T17:44:03Z</time>
      </trkpt>
      <trkpt lat="37.0435940" lon="-2.4175210">
        <ele>324.4</ele>
        <time>2019-10-18T17:44:04Z</time>
      </trkpt>
      <trkpt lat="37.0435930" lon="-2.4175180">
        <ele>324.4</ele>
        <time>2019-10-18T17:44:05Z</time>
      </trkpt>
      <trkpt lat="37.0435920" lon="-2.4175180">
        <ele>324.4</ele>
        <time>2019-10-18T17:44:06Z</time>
      </trkpt>
      <trkpt lat="37.0435920" lon="-2.4175180">
        <ele>324.4</ele>
        <time>2019-10-18T17:44:07Z</time>
      </trkpt>
      <trkpt lat="37.0435920" lon="-2.4175180">
        <ele>324.4</ele>
        <time>2019-10-18T17:44:08Z</time>
      </trkpt>
      <trkpt lat="37.0435920" lon="-2.4175180">
        <ele>324.4</ele>
        <time>2019-10-18T17:44:09Z</time>
      </trkpt>
      <trkpt lat="37.0435920" lon="-2.4175180">
        <ele>324.4</ele>
        <time>2019-10-18T17:44:10Z</time>
      </trkpt>
      <trkpt lat="37.0435920" lon="-2.4175180">
        <ele>324.4</ele>
        <time>2019-10-18T17:44:11Z</time>
      </trkpt>
      <trkpt lat="37.0435920" lon="-2.4175180">
        <ele>324.4</ele>
        <time>2019-10-18T17:44:12Z</time>
      </trkpt>
      <trkpt lat="37.0435920" lon="-2.4175190">
        <ele>324.4</ele>
        <time>2019-10-18T17:44:13Z</time>
      </trkpt>
      <trkpt lat="37.0435920" lon="-2.4175190">
        <ele>324.4</ele>
        <time>2019-10-18T17:44:14Z</time>
      </trkpt>
      <trkpt lat="37.0435920" lon="-2.4175190">
        <ele>324.4</ele>
        <time>2019-10-18T17:44:15Z</time>
      </trkpt>
      <trkpt lat="37.0435920" lon="-2.4175190">
        <ele>324.4</ele>
        <time>2019-10-18T17:44:16Z</time>
      </trkpt>
      <trkpt lat="37.0435930" lon="-2.4175190">
        <ele>324.4</ele>
        <time>2019-10-18T17:44:17Z</time>
      </trkpt>
      <trkpt lat="37.0435930" lon="-2.4175180">
        <ele>324.4</ele>
        <time>2019-10-18T17:44:18Z</time>
      </trkpt>
      <trkpt lat="37.0435930" lon="-2.4175170">
        <ele>324.4</ele>
        <time>2019-10-18T17:44:19Z</time>
      </trkpt>
      <trkpt lat="37.0435930" lon="-2.4175160">
        <ele>324.4</ele>
        <time>2019-10-18T17:44:20Z</time>
      </trkpt>
      <trkpt lat="37.0435930" lon="-2.4175160">
        <ele>324.4</ele>
        <time>2019-10-18T17:44:21Z</time>
      </trkpt>
      <trkpt lat="37.0435930" lon="-2.4175150">
        <ele>324.4</ele>
        <time>2019-10-18T17:44:22Z</time>
      </trkpt>
      <trkpt lat="37.0435930" lon="-2.4175140">
        <ele>324.4</ele>
        <time>2019-10-18T17:44:23Z</time>
      </trkpt>
      <trkpt lat="37.0435930" lon="-2.4175090">
        <ele>324.4</ele>
        <time>2019-10-18T17:44:24Z</time>
      </trkpt>
      <trkpt lat="37.0435900" lon="-2.4174990">
        <ele>324.3</ele>
        <time>2019-10-18T17:44:25Z</time>
      </trkpt>
      <trkpt lat="37.0435860" lon="-2.4174840">
        <ele>324.2</ele>
        <time>2019-10-18T17:44:26Z</time>
      </trkpt>
      <trkpt lat="37.0435800" lon="-2.4174700">
        <ele>324.2</ele>
        <time>2019-10-18T17:44:27Z</time>
      </trkpt>
      <trkpt lat="37.0435710" lon="-2.4174550">
        <ele>324.1</ele>
        <time>2019-10-18T17:44:28Z</time>
      </trkpt>
      <trkpt lat="37.0435610" lon="-2.4174390">
        <ele>324.0</ele>
        <time>2019-10-18T17:44:29Z</time>
      </trkpt>
      <trkpt lat="37.0435500" lon="-2.4174220">
        <ele>323.8</ele>
        <time>2019-10-18T17:44:30Z</time>
      </trkpt>
      <trkpt lat="37.0435400" lon="-2.4174020">
        <ele>323.5</ele>
        <time>2019-10-18T17:44:31Z</time>
      </trkpt>
      <trkpt lat="37.0435310" lon="-2.4173820">
        <ele>323.5</ele>
        <time>2019-10-18T17:44:32Z</time>
      </trkpt>
      <trkpt lat="37.0435220" lon="-2.4173600">
        <ele>323.5</ele>
        <time>2019-10-18T17:44:33Z</time>
      </trkpt>
      <trkpt lat="37.0435120" lon="-2.4173380">
        <ele>323.5</ele>
        <time>2019-10-18T17:44:34Z</time>
      </trkpt>
      <trkpt lat="37.0435010" lon="-2.4173160">
        <ele>323.5</ele>
        <time>2019-10-18T17:44:35Z</time>
      </trkpt>
      <trkpt lat="37.0434900" lon="-2.4172920">
        <ele>323.5</ele>
        <time>2019-10-18T17:44:36Z</time>
      </trkpt>
      <trkpt lat="37.0434790" lon="-2.4172670">
        <ele>323.5</ele>
        <time>2019-10-18T17:44:37Z</time>
      </trkpt>
      <trkpt lat="37.0434670" lon="-2.4172400">
        <ele>323.5</ele>
        <time>2019-10-18T17:44:38Z</time>
      </trkpt>
      <trkpt lat="37.0434550" lon="-2.4172130">
        <ele>323.5</ele>
        <time>2019-10-18T17:44:39Z</time>
      </trkpt>
      <trkpt lat="37.0434440" lon="-2.4171840">
        <ele>323.5</ele>
        <time>2019-10-18T17:44:40Z</time>
      </trkpt>
      <trkpt lat="37.0434340" lon="-2.4171550">
        <ele>323.5</ele>
        <time>2019-10-18T17:44:41Z</time>
      </trkpt>
      <trkpt lat="37.0434240" lon="-2.4171250">
        <ele>323.5</ele>
        <time>2019-10-18T17:44:42Z</time>
      </trkpt>
      <trkpt lat="37.0434140" lon="-2.4170950">
        <ele>323.6</ele>
        <time>2019-10-18T17:44:43Z</time>
      </trkpt>
      <trkpt lat="37.0434030" lon="-2.4170660">
        <ele>323.7</ele>
        <time>2019-10-18T17:44:44Z</time>
      </trkpt>
      <trkpt lat="37.0433910" lon="-2.4170390">
        <ele>323.8</ele>
        <time>2019-10-18T17:44:45Z</time>
      </trkpt>
      <trkpt lat="37.0433800" lon="-2.4170120">
        <ele>323.9</ele>
        <time>2019-10-18T17:44:46Z</time>
      </trkpt>
      <trkpt lat="37.0433690" lon="-2.4169860">
        <ele>324.0</ele>
        <time>2019-10-18T17:44:47Z</time>
      </trkpt>
      <trkpt lat="37.0433590" lon="-2.4169600">
        <ele>324.1</ele>
        <time>2019-10-18T17:44:48Z</time>
      </trkpt>
      <trkpt lat="37.0433500" lon="-2.4169350">
        <ele>324.2</ele>
        <time>2019-10-18T17:44:49Z</time>
      </trkpt>
      <trkpt lat="37.0433400" lon="-2.4169090">
        <ele>324.3</ele>
        <time>2019-10-18T17:44:50Z</time>
      </trkpt>
      <trkpt lat="37.0433300" lon="-2.4168850">
        <ele>324.4</ele>
        <time>2019-10-18T17:44:51Z</time>
      </trkpt>
      <trkpt lat="37.0433210" lon="-2.4168620">
        <ele>324.5</ele>
        <time>2019-10-18T17:44:52Z</time>
      </trkpt>
      <trkpt lat="37.0433120" lon="-2.4168400">
        <ele>324.6</ele>
        <time>2019-10-18T17:44:53Z</time>
      </trkpt>
      <trkpt lat="37.0433030" lon="-2.4168190">
        <ele>324.6</ele>
        <time>2019-10-18T17:44:54Z</time>
      </trkpt>
      <trkpt lat="37.0432940" lon="-2.4167980">
        <ele>324.7</ele>
        <time>2019-10-18T17:44:55Z</time>
      </trkpt>
      <trkpt lat="37.0432850" lon="-2.4167770">
        <ele>324.8</ele>
        <time>2019-10-18T17:44:56Z</time>
      </trkpt>
      <trkpt lat="37.0432760" lon="-2.4167560">
        <ele>324.9</ele>
        <time>2019-10-18T17:44:57Z</time>
      </trkpt>
      <trkpt lat="37.0432690" lon="-2.4167350">
        <ele>325.0</ele>
        <time>2019-10-18T17:44:58Z</time>
      </trkpt>
      <trkpt lat="37.0432610" lon="-2.4167160">
        <ele>325.1</ele>
        <time>2019-10-18T17:44:59Z</time>
      </trkpt>
      <trkpt lat="37.0432530" lon="-2.4166970">
        <ele>325.2</ele>
        <time>2019-10-18T17:45:00Z</time>
      </trkpt>
      <trkpt lat="37.0432440" lon="-2.4166790">
        <ele>325.3</ele>
        <time>2019-10-18T17:45:01Z</time>
      </trkpt>
      <trkpt lat="37.0432340" lon="-2.4166630">
        <ele>325.4</ele>
        <time>2019-10-18T17:45:02Z</time>
      </trkpt>
      <trkpt lat="37.0432250" lon="-2.4166480">
        <ele>325.5</ele>
        <time>2019-10-18T17:45:03Z</time>
      </trkpt>
      <trkpt lat="37.0432160" lon="-2.4166320">
        <ele>325.6</ele>
        <time>2019-10-18T17:45:04Z</time>
      </trkpt>
      <trkpt lat="37.0432070" lon="-2.4166170">
        <ele>325.7</ele>
        <time>2019-10-18T17:45:05Z</time>
      </trkpt>
      <trkpt lat="37.0431990" lon="-2.4166010">
        <ele>325.8</ele>
        <time>2019-10-18T17:45:06Z</time>
      </trkpt>
      <trkpt lat="37.0431910" lon="-2.4165850">
        <ele>325.9</ele>
        <time>2019-10-18T17:45:07Z</time>
      </trkpt>
      <trkpt lat="37.0431830" lon="-2.4165690">
        <ele>326.0</ele>
        <time>2019-10-18T17:45:08Z</time>
      </trkpt>
      <trkpt lat="37.0431740" lon="-2.4165540">
        <ele>326.2</ele>
        <time>2019-10-18T17:45:09Z</time>
      </trkpt>
      <trkpt lat="37.0431650" lon="-2.4165390">
        <ele>326.3</ele>
        <time>2019-10-18T17:45:10Z</time>
      </trkpt>
      <trkpt lat="37.0431560" lon="-2.4165240">
        <ele>326.4</ele>
        <time>2019-10-18T17:45:11Z</time>
      </trkpt>
      <trkpt lat="37.0431470" lon="-2.4165090">
        <ele>326.5</ele>
        <time>2019-10-18T17:45:12Z</time>
      </trkpt>
      <trkpt lat="37.0431400" lon="-2.4164920">
        <ele>326.6</ele>
        <time>2019-10-18T17:45:13Z</time>
      </trkpt>
      <trkpt lat="37.0431330" lon="-2.4164750">
        <ele>326.7</ele>
        <time>2019-10-18T17:45:14Z</time>
      </trkpt>
      <trkpt lat="37.0431260" lon="-2.4164580">
        <ele>326.8</ele>
        <time>2019-10-18T17:45:15Z</time>
      </trkpt>
      <trkpt lat="37.0431190" lon="-2.4164420">
        <ele>326.9</ele>
        <time>2019-10-18T17:45:16Z</time>
      </trkpt>
      <trkpt lat="37.0431120" lon="-2.4164260">
        <ele>327.0</ele>
        <time>2019-10-18T17:45:17Z</time>
      </trkpt>
      <trkpt lat="37.0431050" lon="-2.4164090">
        <ele>327.1</ele>
        <time>2019-10-18T17:45:18Z</time>
      </trkpt>
      <trkpt lat="37.0430980" lon="-2.4163930">
        <ele>327.2</ele>
        <time>2019-10-18T17:45:19Z</time>
      </trkpt>
      <trkpt lat="37.0430910" lon="-2.4163760">
        <ele>327.3</ele>
        <time>2019-10-18T17:45:20Z</time>
      </trkpt>
      <trkpt lat="37.0430840" lon="-2.4163580">
        <ele>327.4</ele>
        <time>2019-10-18T17:45:21Z</time>
      </trkpt>
      <trkpt lat="37.0430770" lon="-2.4163400">
        <ele>327.6</ele>
        <time>2019-10-18T17:45:22Z</time>
      </trkpt>
      <trkpt lat="37.0430710" lon="-2.4163230">
        <ele>327.8</ele>
        <time>2019-10-18T17:45:23Z</time>
      </trkpt>
      <trkpt lat="37.0430630" lon="-2.4163050">
        <ele>328.1</ele>
        <time>2019-10-18T17:45:24Z</time>
      </trkpt>
      <trkpt lat="37.0430560" lon="-2.4162880">
        <ele>328.3</ele>
        <time>2019-10-18T17:45:25Z</time>
      </trkpt>
      <trkpt lat="37.0430480" lon="-2.4162720">
        <ele>328.5</ele>
        <time>2019-10-18T17:45:26Z</time>
      </trkpt>
      <trkpt lat="37.0430410" lon="-2.4162550">
        <ele>328.8</ele>
        <time>2019-10-18T17:45:27Z</time>
      </trkpt>
      <trkpt lat="37.0430340" lon="-2.4162390">
        <ele>328.9</ele>
        <time>2019-10-18T17:45:28Z</time>
      </trkpt>
      <trkpt lat="37.0430270" lon="-2.4162220">
        <ele>329.0</ele>
        <time>2019-10-18T17:45:29Z</time>
      </trkpt>
      <trkpt lat="37.0430190" lon="-2.4162050">
        <ele>329.1</ele>
        <time>2019-10-18T17:45:30Z</time>
      </trkpt>
      <trkpt lat="37.0430090" lon="-2.4161880">
        <ele>329.3</ele>
        <time>2019-10-18T17:45:31Z</time>
      </trkpt>
      <trkpt lat="37.0430000" lon="-2.4161710">
        <ele>329.4</ele>
        <time>2019-10-18T17:45:32Z</time>
      </trkpt>
      <trkpt lat="37.0429900" lon="-2.4161530">
        <ele>329.5</ele>
        <time>2019-10-18T17:45:33Z</time>
      </trkpt>
      <trkpt lat="37.0429810" lon="-2.4161360">
        <ele>329.6</ele>
        <time>2019-10-18T17:45:34Z</time>
      </trkpt>
      <trkpt lat="37.0429720" lon="-2.4161190">
        <ele>329.7</ele>
        <time>2019-10-18T17:45:35Z</time>
      </trkpt>
      <trkpt lat="37.0429650" lon="-2.4161020">
        <ele>329.9</ele>
        <time>2019-10-18T17:45:36Z</time>
      </trkpt>
      <trkpt lat="37.0429590" lon="-2.4160850">
        <ele>330.0</ele>
        <time>2019-10-18T17:45:37Z</time>
      </trkpt>
      <trkpt lat="37.0429540" lon="-2.4160690">
        <ele>330.1</ele>
        <time>2019-10-18T17:45:38Z</time>
      </trkpt>
      <trkpt lat="37.0429480" lon="-2.4160530">
        <ele>330.2</ele>
        <time>2019-10-18T17:45:39Z</time>
      </trkpt>
      <trkpt lat="37.0429420" lon="-2.4160360">
        <ele>330.4</ele>
        <time>2019-10-18T17:45:40Z</time>
      </trkpt>
      <trkpt lat="37.0429370" lon="-2.4160190">
        <ele>330.6</ele>
        <time>2019-10-18T17:45:41Z</time>
      </trkpt>
      <trkpt lat="37.0429330" lon="-2.4160030">
        <ele>330.8</ele>
        <time>2019-10-18T17:45:42Z</time>
      </trkpt>
      <trkpt lat="37.0429300" lon="-2.4159860">
        <ele>331.0</ele>
        <time>2019-10-18T17:45:43Z</time>
      </trkpt>
      <trkpt lat="37.0429290" lon="-2.4159690">
        <ele>331.2</ele>
        <time>2019-10-18T17:45:44Z</time>
      </trkpt>
      <trkpt lat="37.0429250" lon="-2.4159520">
        <ele>331.5</ele>
        <time>2019-10-18T17:45:45Z</time>
      </trkpt>
      <trkpt lat="37.0429190" lon="-2.4159370">
        <ele>331.6</ele>
        <time>2019-10-18T17:45:46Z</time>
      </trkpt>
      <trkpt lat="37.0429120" lon="-2.4159230">
        <ele>331.8</ele>
        <time>2019-10-18T17:45:47Z</time>
      </trkpt>
      <trkpt lat="37.0429040" lon="-2.4159090">
        <ele>332.0</ele>
        <time>2019-10-18T17:45:48Z</time>
      </trkpt>
      <trkpt lat="37.0428960" lon="-2.4158960">
        <ele>332.1</ele>
        <time>2019-10-18T17:45:49Z</time>
      </trkpt>
      <trkpt lat="37.0428870" lon="-2.4158830">
        <ele>332.3</ele>
        <time>2019-10-18T17:45:50Z</time>
      </trkpt>
      <trkpt lat="37.0428770" lon="-2.4158710">
        <ele>332.5</ele>
        <time>2019-10-18T17:45:51Z</time>
      </trkpt>
      <trkpt lat="37.0428660" lon="-2.4158590">
        <ele>332.7</ele>
        <time>2019-10-18T17:45:52Z</time>
      </trkpt>
      <trkpt lat="37.0428560" lon="-2.4158460">
        <ele>332.9</ele>
        <time>2019-10-18T17:45:53Z</time>
      </trkpt>
      <trkpt lat="37.0428470" lon="-2.4158320">
        <ele>333.0</ele>
        <time>2019-10-18T17:45:54Z</time>
      </trkpt>
      <trkpt lat="37.0428380" lon="-2.4158170">
        <ele>333.2</ele>
        <time>2019-10-18T17:45:55Z</time>
      </trkpt>
      <trkpt lat="37.0428300" lon="-2.4158030">
        <ele>333.4</ele>
        <time>2019-10-18T17:45:56Z</time>
      </trkpt>
      <trkpt lat="37.0428230" lon="-2.4157880">
        <ele>333.6</ele>
        <time>2019-10-18T17:45:57Z</time>
      </trkpt>
      <trkpt lat="37.0428180" lon="-2.4157720">
        <ele>333.8</ele>
        <time>2019-10-18T17:45:58Z</time>
      </trkpt>
      <trkpt lat="37.0428130" lon="-2.4157550">
        <ele>334.1</ele>
        <time>2019-10-18T17:45:59Z</time>
      </trkpt>
      <trkpt lat="37.0428070" lon="-2.4157390">
        <ele>334.4</ele>
        <time>2019-10-18T17:46:00Z</time>
      </trkpt>
      <trkpt lat="37.0428010" lon="-2.4157230">
        <ele>334.7</ele>
        <time>2019-10-18T17:46:01Z</time>
      </trkpt>
      <trkpt lat="37.0427950" lon="-2.4157080">
        <ele>334.9</ele>
        <time>2019-10-18T17:46:02Z</time>
      </trkpt>
      <trkpt lat="37.0427900" lon="-2.4156940">
        <ele>335.2</ele>
        <time>2019-10-18T17:46:03Z</time>
      </trkpt>
      <trkpt lat="37.0427860" lon="-2.4156780">
        <ele>335.5</ele>
        <time>2019-10-18T17:46:04Z</time>
      </trkpt>
      <trkpt lat="37.0427850" lon="-2.4156620">
        <ele>335.6</ele>
        <time>2019-10-18T17:46:05Z</time>
      </trkpt>
      <trkpt lat="37.0427840" lon="-2.4156450">
        <ele>335.5</ele>
        <time>2019-10-18T17:46:06Z</time>
      </trkpt>
      <trkpt lat="37.0427820" lon="-2.4156270">
        <ele>335.5</ele>
        <time>2019-10-18T17:46:07Z</time>
      </trkpt>
      <trkpt lat="37.0427800" lon="-2.4156100">
        <ele>335.4</ele>
        <time>2019-10-18T17:46:08Z</time>
      </trkpt>
      <trkpt lat="37.0427770" lon="-2.4155940">
        <ele>335.4</ele>
        <time>2019-10-18T17:46:09Z</time>
      </trkpt>
      <trkpt lat="37.0427760" lon="-2.4155770">
        <ele>335.4</ele>
        <time>2019-10-18T17:46:10Z</time>
      </trkpt>
      <trkpt lat="37.0427750" lon="-2.4155600">
        <ele>335.4</ele>
        <time>2019-10-18T17:46:11Z</time>
      </trkpt>
      <trkpt lat="37.0427750" lon="-2.4155420">
        <ele>335.5</ele>
        <time>2019-10-18T17:46:12Z</time>
      </trkpt>
      <trkpt lat="37.0427770" lon="-2.4155270">
        <ele>335.6</ele>
        <time>2019-10-18T17:46:13Z</time>
      </trkpt>
      <trkpt lat="37.0427820" lon="-2.4155120">
        <ele>335.8</ele>
        <time>2019-10-18T17:46:14Z</time>
      </trkpt>
      <trkpt lat="37.0427870" lon="-2.4154960">
        <ele>335.9</ele>
        <time>2019-10-18T17:46:15Z</time>
      </trkpt>
      <trkpt lat="37.0427900" lon="-2.4154780">
        <ele>336.0</ele>
        <time>2019-10-18T17:46:16Z</time>
      </trkpt>
      <trkpt lat="37.0427910" lon="-2.4154620">
        <ele>336.1</ele>
        <time>2019-10-18T17:46:17Z</time>
      </trkpt>
      <trkpt lat="37.0427910" lon="-2.4154450">
        <ele>336.2</ele>
        <time>2019-10-18T17:46:18Z</time>
      </trkpt>
      <trkpt lat="37.0427900" lon="-2.4154290">
        <ele>336.3</ele>
        <time>2019-10-18T17:46:19Z</time>
      </trkpt>
      <trkpt lat="37.0427900" lon="-2.4154120">
        <ele>336.4</ele>
        <time>2019-10-18T17:46:20Z</time>
      </trkpt>
      <trkpt lat="37.0427900" lon="-2.4153960">
        <ele>336.5</ele>
        <time>2019-10-18T17:46:21Z</time>
      </trkpt>
      <trkpt lat="37.0427910" lon="-2.4153790">
        <ele>336.6</ele>
        <time>2019-10-18T17:46:22Z</time>
      </trkpt>
      <trkpt lat="37.0427920" lon="-2.4153620">
        <ele>336.7</ele>
        <time>2019-10-18T17:46:23Z</time>
      </trkpt>
      <trkpt lat="37.0427930" lon="-2.4153440">
        <ele>336.8</ele>
        <time>2019-10-18T17:46:24Z</time>
      </trkpt>
      <trkpt lat="37.0427930" lon="-2.4153270">
        <ele>337.0</ele>
        <time>2019-10-18T17:46:25Z</time>
      </trkpt>
      <trkpt lat="37.0427930" lon="-2.4153090">
        <ele>337.1</ele>
        <time>2019-10-18T17:46:26Z</time>
      </trkpt>
      <trkpt lat="37.0427920" lon="-2.4152910">
        <ele>337.2</ele>
        <time>2019-10-18T17:46:27Z</time>
      </trkpt>
      <trkpt lat="37.0427920" lon="-2.4152740">
        <ele>337.3</ele>
        <time>2019-10-18T17:46:28Z</time>
      </trkpt>
      <trkpt lat="37.0427920" lon="-2.4152570">
        <ele>337.4</ele>
        <time>2019-10-18T17:46:29Z</time>
      </trkpt>
      <trkpt lat="37.0427950" lon="-2.4152400">
        <ele>337.5</ele>
        <time>2019-10-18T17:46:30Z</time>
      </trkpt>
      <trkpt lat="37.0427980" lon="-2.4152230">
        <ele>337.6</ele>
        <time>2019-10-18T17:46:31Z</time>
      </trkpt>
      <trkpt lat="37.0428020" lon="-2.4152050">
        <ele>337.6</ele>
        <time>2019-10-18T17:46:32Z</time>
      </trkpt>
      <trkpt lat="37.0428050" lon="-2.4151880">
        <ele>337.7</ele>
        <time>2019-10-18T17:46:33Z</time>
      </trkpt>
      <trkpt lat="37.0428080" lon="-2.4151710">
        <ele>337.7</ele>
        <time>2019-10-18T17:46:34Z</time>
      </trkpt>
      <trkpt lat="37.0428110" lon="-2.4151550">
        <ele>337.8</ele>
        <time>2019-10-18T17:46:35Z</time>
      </trkpt>
      <trkpt lat="37.0428140" lon="-2.4151380">
        <ele>337.9</ele>
        <time>2019-10-18T17:46:36Z</time>
      </trkpt>
      <trkpt lat="37.0428180" lon="-2.4151210">
        <ele>338.0</ele>
        <time>2019-10-18T17:46:37Z</time>
      </trkpt>
      <trkpt lat="37.0428230" lon="-2.4151040">
        <ele>338.1</ele>
        <time>2019-10-18T17:46:38Z</time>
      </trkpt>
      <trkpt lat="37.0428290" lon="-2.4150880">
        <ele>338.2</ele>
        <time>2019-10-18T17:46:39Z</time>
      </trkpt>
      <trkpt lat="37.0428330" lon="-2.4150700">
        <ele>338.3</ele>
        <time>2019-10-18T17:46:40Z</time>
      </trkpt>
      <trkpt lat="37.0428350" lon="-2.4150530">
        <ele>338.3</ele>
        <time>2019-10-18T17:46:41Z</time>
      </trkpt>
      <trkpt lat="37.0428360" lon="-2.4150360">
        <ele>338.4</ele>
        <time>2019-10-18T17:46:42Z</time>
      </trkpt>
      <trkpt lat="37.0428390" lon="-2.4150200">
        <ele>338.5</ele>
        <time>2019-10-18T17:46:43Z</time>
      </trkpt>
      <trkpt lat="37.0428430" lon="-2.4150030">
        <ele>338.6</ele>
        <time>2019-10-18T17:46:44Z</time>
      </trkpt>
      <trkpt lat="37.0428470" lon="-2.4149850">
        <ele>338.7</ele>
        <time>2019-10-18T17:46:45Z</time>
      </trkpt>
      <trkpt lat="37.0428500" lon="-2.4149670">
        <ele>338.8</ele>
        <time>2019-10-18T17:46:46Z</time>
      </trkpt>
      <trkpt lat="37.0428520" lon="-2.4149490">
        <ele>338.9</ele>
        <time>2019-10-18T17:46:47Z</time>
      </trkpt>
      <trkpt lat="37.0428550" lon="-2.4149290">
        <ele>338.8</ele>
        <time>2019-10-18T17:46:48Z</time>
      </trkpt>
      <trkpt lat="37.0428560" lon="-2.4149090">
        <ele>338.7</ele>
        <time>2019-10-18T17:46:49Z</time>
      </trkpt>
      <trkpt lat="37.0428560" lon="-2.4148890">
        <ele>338.7</ele>
        <time>2019-10-18T17:46:50Z</time>
      </trkpt>
      <trkpt lat="37.0428580" lon="-2.4148700">
        <ele>338.6</ele>
        <time>2019-10-18T17:46:51Z</time>
      </trkpt>
      <trkpt lat="37.0428610" lon="-2.4148510">
        <ele>338.5</ele>
        <time>2019-10-18T17:46:52Z</time>
      </trkpt>
      <trkpt lat="37.0428660" lon="-2.4148340">
        <ele>338.5</ele>
        <time>2019-10-18T17:46:53Z</time>
      </trkpt>
      <trkpt lat="37.0428720" lon="-2.4148170">
        <ele>338.6</ele>
        <time>2019-10-18T17:46:54Z</time>
      </trkpt>
      <trkpt lat="37.0428770" lon="-2.4147990">
        <ele>338.7</ele>
        <time>2019-10-18T17:46:55Z</time>
      </trkpt>
      <trkpt lat="37.0428820" lon="-2.4147800">
        <ele>338.8</ele>
        <time>2019-10-18T17:46:56Z</time>
      </trkpt>
      <trkpt lat="37.0428840" lon="-2.4147610">
        <ele>338.9</ele>
        <time>2019-10-18T17:46:57Z</time>
      </trkpt>
      <trkpt lat="37.0428850" lon="-2.4147410">
        <ele>339.0</ele>
        <time>2019-10-18T17:46:58Z</time>
      </trkpt>
      <trkpt lat="37.0428840" lon="-2.4147220">
        <ele>339.0</ele>
        <time>2019-10-18T17:46:59Z</time>
      </trkpt>
      <trkpt lat="37.0428820" lon="-2.4147020">
        <ele>338.9</ele>
        <time>2019-10-18T17:47:00Z</time>
      </trkpt>
      <trkpt lat="37.0428820" lon="-2.4146830">
        <ele>338.9</ele>
        <time>2019-10-18T17:47:01Z</time>
      </trkpt>
      <trkpt lat="37.0428820" lon="-2.4146640">
        <ele>338.8</ele>
        <time>2019-10-18T17:47:02Z</time>
      </trkpt>
      <trkpt lat="37.0428830" lon="-2.4146440">
        <ele>338.8</ele>
        <time>2019-10-18T17:47:03Z</time>
      </trkpt>
      <trkpt lat="37.0428860" lon="-2.4146260">
        <ele>338.7</ele>
        <time>2019-10-18T17:47:04Z</time>
      </trkpt>
      <trkpt lat="37.0428900" lon="-2.4146070">
        <ele>338.8</ele>
        <time>2019-10-18T17:47:05Z</time>
      </trkpt>
      <trkpt lat="37.0428940" lon="-2.4145880">
        <ele>338.8</ele>
        <time>2019-10-18T17:47:06Z</time>
      </trkpt>
      <trkpt lat="37.0428990" lon="-2.4145690">
        <ele>338.9</ele>
        <time>2019-10-18T17:47:07Z</time>
      </trkpt>
      <trkpt lat="37.0429030" lon="-2.4145490">
        <ele>338.9</ele>
        <time>2019-10-18T17:47:08Z</time>
      </trkpt>
      <trkpt lat="37.0429060" lon="-2.4145280">
        <ele>339.0</ele>
        <time>2019-10-18T17:47:09Z</time>
      </trkpt>
      <trkpt lat="37.0429100" lon="-2.4145080">
        <ele>339.1</ele>
        <time>2019-10-18T17:47:10Z</time>
      </trkpt>
      <trkpt lat="37.0429130" lon="-2.4144860">
        <ele>339.2</ele>
        <time>2019-10-18T17:47:11Z</time>
      </trkpt>
      <trkpt lat="37.0429160" lon="-2.4144650">
        <ele>339.3</ele>
        <time>2019-10-18T17:47:12Z</time>
      </trkpt>
      <trkpt lat="37.0429190" lon="-2.4144440">
        <ele>339.4</ele>
        <time>2019-10-18T17:47:13Z</time>
      </trkpt>
      <trkpt lat="37.0429210" lon="-2.4144230">
        <ele>339.5</ele>
        <time>2019-10-18T17:47:14Z</time>
      </trkpt>
      <trkpt lat="37.0429230" lon="-2.4144010">
        <ele>339.5</ele>
        <time>2019-10-18T17:47:15Z</time>
      </trkpt>
      <trkpt lat="37.0429250" lon="-2.4143810">
        <ele>339.5</ele>
        <time>2019-10-18T17:47:16Z</time>
      </trkpt>
      <trkpt lat="37.0429250" lon="-2.4143600">
        <ele>339.4</ele>
        <time>2019-10-18T17:47:17Z</time>
      </trkpt>
      <trkpt lat="37.0429250" lon="-2.4143400">
        <ele>339.3</ele>
        <time>2019-10-18T17:47:18Z</time>
      </trkpt>
      <trkpt lat="37.0429240" lon="-2.4143190">
        <ele>339.2</ele>
        <time>2019-10-18T17:47:19Z</time>
      </trkpt>
      <trkpt lat="37.0429250" lon="-2.4142970">
        <ele>339.1</ele>
        <time>2019-10-18T17:47:20Z</time>
      </trkpt>
      <trkpt lat="37.0429260" lon="-2.4142760">
        <ele>339.2</ele>
        <time>2019-10-18T17:47:21Z</time>
      </trkpt>
      <trkpt lat="37.0429280" lon="-2.4142550">
        <ele>339.3</ele>
        <time>2019-10-18T17:47:22Z</time>
      </trkpt>
      <trkpt lat="37.0429300" lon="-2.4142330">
        <ele>339.4</ele>
        <time>2019-10-18T17:47:23Z</time>
      </trkpt>
      <trkpt lat="37.0429320" lon="-2.4142130">
        <ele>339.5</ele>
        <time>2019-10-18T17:47:24Z</time>
      </trkpt>
      <trkpt lat="37.0429350" lon="-2.4141920">
        <ele>339.5</ele>
        <time>2019-10-18T17:47:25Z</time>
      </trkpt>
      <trkpt lat="37.0429370" lon="-2.4141710">
        <ele>339.5</ele>
        <time>2019-10-18T17:47:26Z</time>
      </trkpt>
      <trkpt lat="37.0429390" lon="-2.4141510">
        <ele>339.4</ele>
        <time>2019-10-18T17:47:27Z</time>
      </trkpt>
      <trkpt lat="37.0429410" lon="-2.4141290">
        <ele>339.3</ele>
        <time>2019-10-18T17:47:28Z</time>
      </trkpt>
      <trkpt lat="37.0429420" lon="-2.4141080">
        <ele>339.2</ele>
        <time>2019-10-18T17:47:29Z</time>
      </trkpt>
      <trkpt lat="37.0429440" lon="-2.4140870">
        <ele>339.1</ele>
        <time>2019-10-18T17:47:30Z</time>
      </trkpt>
      <trkpt lat="37.0429470" lon="-2.4140660">
        <ele>339.0</ele>
        <time>2019-10-18T17:47:31Z</time>
      </trkpt>
      <trkpt lat="37.0429480" lon="-2.4140440">
        <ele>339.1</ele>
        <time>2019-10-18T17:47:32Z</time>
      </trkpt>
      <trkpt lat="37.0429500" lon="-2.4140220">
        <ele>339.1</ele>
        <time>2019-10-18T17:47:33Z</time>
      </trkpt>
      <trkpt lat="37.0429510" lon="-2.4140000">
        <ele>339.1</ele>
        <time>2019-10-18T17:47:34Z</time>
      </trkpt>
      <trkpt lat="37.0429510" lon="-2.4139770">
        <ele>339.2</ele>
        <time>2019-10-18T17:47:35Z</time>
      </trkpt>
      <trkpt lat="37.0429510" lon="-2.4139540">
        <ele>339.2</ele>
        <time>2019-10-18T17:47:36Z</time>
      </trkpt>
      <trkpt lat="37.0429510" lon="-2.4139310">
        <ele>339.2</ele>
        <time>2019-10-18T17:47:37Z</time>
      </trkpt>
      <trkpt lat="37.0429520" lon="-2.4139090">
        <ele>339.2</ele>
        <time>2019-10-18T17:47:38Z</time>
      </trkpt>
      <trkpt lat="37.0429510" lon="-2.4138880">
        <ele>339.2</ele>
        <time>2019-10-18T17:47:39Z</time>
      </trkpt>
      <trkpt lat="37.0429500" lon="-2.4138660">
        <ele>339.2</ele>
        <time>2019-10-18T17:47:40Z</time>
      </trkpt>
      <trkpt lat="37.0429480" lon="-2.4138440">
        <ele>339.3</ele>
        <time>2019-10-18T17:47:41Z</time>
      </trkpt>
      <trkpt lat="37.0429460" lon="-2.4138220">
        <ele>339.5</ele>
        <time>2019-10-18T17:47:42Z</time>
      </trkpt>
      <trkpt lat="37.0429430" lon="-2.4137990">
        <ele>339.7</ele>
        <time>2019-10-18T17:47:43Z</time>
      </trkpt>
      <trkpt lat="37.0429410" lon="-2.4137760">
        <ele>339.8</ele>
        <time>2019-10-18T17:47:44Z</time>
      </trkpt>
      <trkpt lat="37.0429390" lon="-2.4137540">
        <ele>340.0</ele>
        <time>2019-10-18T17:47:45Z</time>
      </trkpt>
      <trkpt lat="37.0429370" lon="-2.4137310">
        <ele>340.1</ele>
        <time>2019-10-18T17:47:46Z</time>
      </trkpt>
      <trkpt lat="37.0429360" lon="-2.4137100">
        <ele>340.1</ele>
        <time>2019-10-18T17:47:47Z</time>
      </trkpt>
      <trkpt lat="37.0429330" lon="-2.4136870">
        <ele>340.2</ele>
        <time>2019-10-18T17:47:48Z</time>
      </trkpt>
      <trkpt lat="37.0429310" lon="-2.4136660">
        <ele>340.2</ele>
        <time>2019-10-18T17:47:49Z</time>
      </trkpt>
      <trkpt lat="37.0429280" lon="-2.4136440">
        <ele>340.2</ele>
        <time>2019-10-18T17:47:50Z</time>
      </trkpt>
      <trkpt lat="37.0429240" lon="-2.4136220">
        <ele>340.4</ele>
        <time>2019-10-18T17:47:51Z</time>
      </trkpt>
      <trkpt lat="37.0429200" lon="-2.4135990">
        <ele>340.7</ele>
        <time>2019-10-18T17:47:52Z</time>
      </trkpt>
      <trkpt lat="37.0429160" lon="-2.4135760">
        <ele>340.9</ele>
        <time>2019-10-18T17:47:53Z</time>
      </trkpt>
      <trkpt lat="37.0429130" lon="-2.4135530">
        <ele>341.2</ele>
        <time>2019-10-18T17:47:54Z</time>
      </trkpt>
      <trkpt lat="37.0429100" lon="-2.4135310">
        <ele>341.4</ele>
        <time>2019-10-18T17:47:55Z</time>
      </trkpt>
      <trkpt lat="37.0429070" lon="-2.4135080">
        <ele>341.5</ele>
        <time>2019-10-18T17:47:56Z</time>
      </trkpt>
      <trkpt lat="37.0429020" lon="-2.4134860">
        <ele>341.6</ele>
        <time>2019-10-18T17:47:57Z</time>
      </trkpt>
      <trkpt lat="37.0428990" lon="-2.4134630">
        <ele>341.6</ele>
        <time>2019-10-18T17:47:58Z</time>
      </trkpt>
      <trkpt lat="37.0428950" lon="-2.4134420">
        <ele>341.7</ele>
        <time>2019-10-18T17:47:59Z</time>
      </trkpt>
      <trkpt lat="37.0428920" lon="-2.4134210">
        <ele>341.8</ele>
        <time>2019-10-18T17:48:00Z</time>
      </trkpt>
      <trkpt lat="37.0428890" lon="-2.4133990">
        <ele>341.9</ele>
        <time>2019-10-18T17:48:01Z</time>
      </trkpt>
      <trkpt lat="37.0428870" lon="-2.4133760">
        <ele>342.0</ele>
        <time>2019-10-18T17:48:02Z</time>
      </trkpt>
      <trkpt lat="37.0428850" lon="-2.4133500">
        <ele>342.1</ele>
        <time>2019-10-18T17:48:03Z</time>
      </trkpt>
      <trkpt lat="37.0428820" lon="-2.4133240">
        <ele>342.2</ele>
        <time>2019-10-18T17:48:04Z</time>
      </trkpt>
      <trkpt lat="37.0428800" lon="-2.4132980">
        <ele>342.5</ele>
        <time>2019-10-18T17:48:05Z</time>
      </trkpt>
      <trkpt lat="37.0428770" lon="-2.4132710">
        <ele>342.7</ele>
        <time>2019-10-18T17:48:06Z</time>
      </trkpt>
      <trkpt lat="37.0428730" lon="-2.4132450">
        <ele>343.0</ele>
        <time>2019-10-18T17:48:07Z</time>
      </trkpt>
      <trkpt lat="37.0428690" lon="-2.4132180">
        <ele>343.3</ele>
        <time>2019-10-18T17:48:08Z</time>
      </trkpt>
      <trkpt lat="37.0428650" lon="-2.4131900">
        <ele>343.4</ele>
        <time>2019-10-18T17:48:09Z</time>
      </trkpt>
      <trkpt lat="37.0428600" lon="-2.4131620">
        <ele>343.5</ele>
        <time>2019-10-18T17:48:10Z</time>
      </trkpt>
      <trkpt lat="37.0428540" lon="-2.4131350">
        <ele>343.6</ele>
        <time>2019-10-18T17:48:11Z</time>
      </trkpt>
      <trkpt lat="37.0428490" lon="-2.4131080">
        <ele>343.7</ele>
        <time>2019-10-18T17:48:12Z</time>
      </trkpt>
      <trkpt lat="37.0428450" lon="-2.4130810">
        <ele>344.1</ele>
        <time>2019-10-18T17:48:13Z</time>
      </trkpt>
      <trkpt lat="37.0428410" lon="-2.4130520">
        <ele>344.5</ele>
        <time>2019-10-18T17:48:14Z</time>
      </trkpt>
      <trkpt lat="37.0428360" lon="-2.4130240">
        <ele>344.9</ele>
        <time>2019-10-18T17:48:15Z</time>
      </trkpt>
      <trkpt lat="37.0428320" lon="-2.4129950">
        <ele>345.2</ele>
        <time>2019-10-18T17:48:16Z</time>
      </trkpt>
      <trkpt lat="37.0428270" lon="-2.4129670">
        <ele>345.3</ele>
        <time>2019-10-18T17:48:17Z</time>
      </trkpt>
      <trkpt lat="37.0428220" lon="-2.4129380">
        <ele>345.4</ele>
        <time>2019-10-18T17:48:18Z</time>
      </trkpt>
      <trkpt lat="37.0428170" lon="-2.4129100">
        <ele>345.6</ele>
        <time>2019-10-18T17:48:19Z</time>
      </trkpt>
      <trkpt lat="37.0428120" lon="-2.4128820">
        <ele>345.8</ele>
        <time>2019-10-18T17:48:20Z</time>
      </trkpt>
      <trkpt lat="37.0428080" lon="-2.4128520">
        <ele>346.0</ele>
        <time>2019-10-18T17:48:21Z</time>
      </trkpt>
      <trkpt lat="37.0428040" lon="-2.4128220">
        <ele>346.3</ele>
        <time>2019-10-18T17:48:22Z</time>
      </trkpt>
      <trkpt lat="37.0428000" lon="-2.4127910">
        <ele>346.6</ele>
        <time>2019-10-18T17:48:23Z</time>
      </trkpt>
      <trkpt lat="37.0427960" lon="-2.4127590">
        <ele>346.9</ele>
        <time>2019-10-18T17:48:24Z</time>
      </trkpt>
      <trkpt lat="37.0427930" lon="-2.4127270">
        <ele>347.3</ele>
        <time>2019-10-18T17:48:25Z</time>
      </trkpt>
      <trkpt lat="37.0427880" lon="-2.4126950">
        <ele>347.7</ele>
        <time>2019-10-18T17:48:26Z</time>
      </trkpt>
      <trkpt lat="37.0427830" lon="-2.4126610">
        <ele>348.0</ele>
        <time>2019-10-18T17:48:27Z</time>
      </trkpt>
      <trkpt lat="37.0427780" lon="-2.4126270">
        <ele>348.3</ele>
        <time>2019-10-18T17:48:28Z</time>
      </trkpt>
      <trkpt lat="37.0427730" lon="-2.4125920">
        <ele>348.6</ele>
        <time>2019-10-18T17:48:29Z</time>
      </trkpt>
      <trkpt lat="37.0427680" lon="-2.4125560">
        <ele>349.1</ele>
        <time>2019-10-18T17:48:30Z</time>
      </trkpt>
      <trkpt lat="37.0427640" lon="-2.4125200">
        <ele>349.5</ele>
        <time>2019-10-18T17:48:31Z</time>
      </trkpt>
      <trkpt lat="37.0427590" lon="-2.4124840">
        <ele>349.9</ele>
        <time>2019-10-18T17:48:32Z</time>
      </trkpt>
      <trkpt lat="37.0427550" lon="-2.4124490">
        <ele>350.2</ele>
        <time>2019-10-18T17:48:33Z</time>
      </trkpt>
      <trkpt lat="37.0427500" lon="-2.4124140">
        <ele>350.5</ele>
        <time>2019-10-18T17:48:34Z</time>
      </trkpt>
      <trkpt lat="37.0427460" lon="-2.4123790">
        <ele>350.8</ele>
        <time>2019-10-18T17:48:35Z</time>
      </trkpt>
      <trkpt lat="37.0427400" lon="-2.4123440">
        <ele>351.2</ele>
        <time>2019-10-18T17:48:36Z</time>
      </trkpt>
      <trkpt lat="37.0427330" lon="-2.4123090">
        <ele>351.6</ele>
        <time>2019-10-18T17:48:37Z</time>
      </trkpt>
      <trkpt lat="37.0427270" lon="-2.4122740">
        <ele>352.0</ele>
        <time>2019-10-18T17:48:38Z</time>
      </trkpt>
      <trkpt lat="37.0427210" lon="-2.4122390">
        <ele>352.2</ele>
        <time>2019-10-18T17:48:39Z</time>
      </trkpt>
      <trkpt lat="37.0427150" lon="-2.4122040">
        <ele>352.4</ele>
        <time>2019-10-18T17:48:40Z</time>
      </trkpt>
      <trkpt lat="37.0427100" lon="-2.4121690">
        <ele>352.6</ele>
        <time>2019-10-18T17:48:41Z</time>
      </trkpt>
      <trkpt lat="37.0427050" lon="-2.4121340">
        <ele>353.0</ele>
        <time>2019-10-18T17:48:42Z</time>
      </trkpt>
      <trkpt lat="37.0427010" lon="-2.4120990">
        <ele>353.5</ele>
        <time>2019-10-18T17:48:43Z</time>
      </trkpt>
      <trkpt lat="37.0426970" lon="-2.4120640">
        <ele>353.9</ele>
        <time>2019-10-18T17:48:44Z</time>
      </trkpt>
      <trkpt lat="37.0426920" lon="-2.4120300">
        <ele>354.2</ele>
        <time>2019-10-18T17:48:45Z</time>
      </trkpt>
      <trkpt lat="37.0426880" lon="-2.4119950">
        <ele>354.4</ele>
        <time>2019-10-18T17:48:46Z</time>
      </trkpt>
      <trkpt lat="37.0426830" lon="-2.4119610">
        <ele>354.6</ele>
        <time>2019-10-18T17:48:47Z</time>
      </trkpt>
      <trkpt lat="37.0426780" lon="-2.4119280">
        <ele>354.9</ele>
        <time>2019-10-18T17:48:48Z</time>
      </trkpt>
      <trkpt lat="37.0426720" lon="-2.4118940">
        <ele>355.3</ele>
        <time>2019-10-18T17:48:49Z</time>
      </trkpt>
      <trkpt lat="37.0426650" lon="-2.4118610">
        <ele>355.7</ele>
        <time>2019-10-18T17:48:50Z</time>
      </trkpt>
      <trkpt lat="37.0426590" lon="-2.4118270">
        <ele>356.1</ele>
        <time>2019-10-18T17:48:51Z</time>
      </trkpt>
      <trkpt lat="37.0426530" lon="-2.4117940">
        <ele>356.5</ele>
        <time>2019-10-18T17:48:52Z</time>
      </trkpt>
      <trkpt lat="37.0426460" lon="-2.4117610">
        <ele>356.8</ele>
        <time>2019-10-18T17:48:53Z</time>
      </trkpt>
      <trkpt lat="37.0426390" lon="-2.4117280">
        <ele>357.1</ele>
        <time>2019-10-18T17:48:54Z</time>
      </trkpt>
      <trkpt lat="37.0426300" lon="-2.4116950">
        <ele>357.4</ele>
        <time>2019-10-18T17:48:55Z</time>
      </trkpt>
      <trkpt lat="37.0426220" lon="-2.4116630">
        <ele>357.7</ele>
        <time>2019-10-18T17:48:56Z</time>
      </trkpt>
      <trkpt lat="37.0426120" lon="-2.4116300">
        <ele>358.1</ele>
        <time>2019-10-18T17:48:57Z</time>
      </trkpt>
      <trkpt lat="37.0426030" lon="-2.4115980">
        <ele>358.4</ele>
        <time>2019-10-18T17:48:58Z</time>
      </trkpt>
      <trkpt lat="37.0425920" lon="-2.4115670">
        <ele>358.8</ele>
        <time>2019-10-18T17:48:59Z</time>
      </trkpt>
      <trkpt lat="37.0425800" lon="-2.4115370">
        <ele>359.1</ele>
        <time>2019-10-18T17:49:00Z</time>
      </trkpt>
      <trkpt lat="37.0425680" lon="-2.4115080">
        <ele>359.4</ele>
        <time>2019-10-18T17:49:01Z</time>
      </trkpt>
      <trkpt lat="37.0425560" lon="-2.4114790">
        <ele>359.7</ele>
        <time>2019-10-18T17:49:02Z</time>
      </trkpt>
      <trkpt lat="37.0425440" lon="-2.4114510">
        <ele>359.9</ele>
        <time>2019-10-18T17:49:03Z</time>
      </trkpt>
      <trkpt lat="37.0425300" lon="-2.4114240">
        <ele>360.2</ele>
        <time>2019-10-18T17:49:04Z</time>
      </trkpt>
      <trkpt lat="37.0425150" lon="-2.4114000">
        <ele>360.5</ele>
        <time>2019-10-18T17:49:05Z</time>
      </trkpt>
      <trkpt lat="37.0424990" lon="-2.4113770">
        <ele>360.8</ele>
        <time>2019-10-18T17:49:06Z</time>
      </trkpt>
      <trkpt lat="37.0424840" lon="-2.4113550">
        <ele>361.1</ele>
        <time>2019-10-18T17:49:07Z</time>
      </trkpt>
      <trkpt lat="37.0424690" lon="-2.4113340">
        <ele>361.4</ele>
        <time>2019-10-18T17:49:08Z</time>
      </trkpt>
      <trkpt lat="37.0424540" lon="-2.4113130">
        <ele>361.8</ele>
        <time>2019-10-18T17:49:09Z</time>
      </trkpt>
      <trkpt lat="37.0424380" lon="-2.4112940">
        <ele>362.2</ele>
        <time>2019-10-18T17:49:10Z</time>
      </trkpt>
      <trkpt lat="37.0424230" lon="-2.4112740">
        <ele>362.6</ele>
        <time>2019-10-18T17:49:11Z</time>
      </trkpt>
      <trkpt lat="37.0424070" lon="-2.4112570">
        <ele>362.9</ele>
        <time>2019-10-18T17:49:12Z</time>
      </trkpt>
      <trkpt lat="37.0423910" lon="-2.4112410">
        <ele>363.1</ele>
        <time>2019-10-18T17:49:13Z</time>
      </trkpt>
      <trkpt lat="37.0423730" lon="-2.4112290">
        <ele>363.4</ele>
        <time>2019-10-18T17:49:14Z</time>
      </trkpt>
      <trkpt lat="37.0423550" lon="-2.4112200">
        <ele>363.6</ele>
        <time>2019-10-18T17:49:15Z</time>
      </trkpt>
      <trkpt lat="37.0423350" lon="-2.4112130">
        <ele>363.9</ele>
        <time>2019-10-18T17:49:16Z</time>
      </trkpt>
      <trkpt lat="37.0423140" lon="-2.4112090">
        <ele>364.3</ele>
        <time>2019-10-18T17:49:17Z</time>
      </trkpt>
      <trkpt lat="37.0422920" lon="-2.4112080">
        <ele>367.4</ele>
        <time>2019-10-18T17:49:18Z</time>
      </trkpt>
      <trkpt lat="37.0422710" lon="-2.4112120">
        <ele>367.4</ele>
        <time>2019-10-18T17:49:19Z</time>
      </trkpt>
      <trkpt lat="37.0422520" lon="-2.4112240">
        <ele>367.5</ele>
        <time>2019-10-18T17:49:20Z</time>
      </trkpt>
      <trkpt lat="37.0422350" lon="-2.4112420">
        <ele>367.5</ele>
        <time>2019-10-18T17:49:21Z</time>
      </trkpt>
      <trkpt lat="37.0422210" lon="-2.4112670">
        <ele>367.6</ele>
        <time>2019-10-18T17:49:22Z</time>
      </trkpt>
      <trkpt lat="37.0422080" lon="-2.4112950">
        <ele>367.7</ele>
        <time>2019-10-18T17:49:23Z</time>
      </trkpt>
      <trkpt lat="37.0421960" lon="-2.4113280">
        <ele>367.7</ele>
        <time>2019-10-18T17:49:24Z</time>
      </trkpt>
      <trkpt lat="37.0421850" lon="-2.4113650">
        <ele>367.8</ele>
        <time>2019-10-18T17:49:25Z</time>
      </trkpt>
      <trkpt lat="37.0421730" lon="-2.4114050">
        <ele>367.9</ele>
        <time>2019-10-18T17:49:26Z</time>
      </trkpt>
      <trkpt lat="37.0421610" lon="-2.4114460">
        <ele>368.0</ele>
        <time>2019-10-18T17:49:27Z</time>
      </trkpt>
      <trkpt lat="37.0421480" lon="-2.4114880">
        <ele>368.0</ele>
        <time>2019-10-18T17:49:28Z</time>
      </trkpt>
      <trkpt lat="37.0421350" lon="-2.4115310">
        <ele>368.1</ele>
        <time>2019-10-18T17:49:29Z</time>
      </trkpt>
      <trkpt lat="37.0421200" lon="-2.4115760">
        <ele>368.1</ele>
        <time>2019-10-18T17:49:30Z</time>
      </trkpt>
      <trkpt lat="37.0421050" lon="-2.4116230">
        <ele>368.1</ele>
        <time>2019-10-18T17:49:31Z</time>
      </trkpt>
      <trkpt lat="37.0420890" lon="-2.4116730">
        <ele>368.1</ele>
        <time>2019-10-18T17:49:32Z</time>
      </trkpt>
      <trkpt lat="37.0420710" lon="-2.4117250">
        <ele>368.2</ele>
        <time>2019-10-18T17:49:33Z</time>
      </trkpt>
      <trkpt lat="37.0420540" lon="-2.4117780">
        <ele>368.2</ele>
        <time>2019-10-18T17:49:34Z</time>
      </trkpt>
      <trkpt lat="37.0420350" lon="-2.4118310">
        <ele>368.2</ele>
        <time>2019-10-18T17:49:35Z</time>
      </trkpt>
      <trkpt lat="37.0420170" lon="-2.4118850">
        <ele>368.2</ele>
        <time>2019-10-18T17:49:36Z</time>
      </trkpt>
      <trkpt lat="37.0419980" lon="-2.4119400">
        <ele>368.2</ele>
        <time>2019-10-18T17:49:37Z</time>
      </trkpt>
      <trkpt lat="37.0419780" lon="-2.4119950">
        <ele>368.2</ele>
        <time>2019-10-18T17:49:38Z</time>
      </trkpt>
      <trkpt lat="37.0419580" lon="-2.4120500">
        <ele>368.2</ele>
        <time>2019-10-18T17:49:39Z</time>
      </trkpt>
      <trkpt lat="37.0419380" lon="-2.4121050">
        <ele>368.2</ele>
        <time>2019-10-18T17:49:40Z</time>
      </trkpt>
      <trkpt lat="37.0419160" lon="-2.4121590">
        <ele>368.2</ele>
        <time>2019-10-18T17:49:41Z</time>
      </trkpt>
      <trkpt lat="37.0418930" lon="-2.4122130">
        <ele>368.2</ele>
        <time>2019-10-18T17:49:42Z</time>
      </trkpt>
      <trkpt lat="37.0418680" lon="-2.4122670">
        <ele>368.2</ele>
        <time>2019-10-18T17:49:43Z</time>
      </trkpt>
      <trkpt lat="37.0418420" lon="-2.4123220">
        <ele>368.2</ele>
        <time>2019-10-18T17:49:44Z</time>
      </trkpt>
      <trkpt lat="37.0418150" lon="-2.4123760">
        <ele>368.2</ele>
        <time>2019-10-18T17:49:45Z</time>
      </trkpt>
      <trkpt lat="37.0417870" lon="-2.4124300">
        <ele>368.2</ele>
        <time>2019-10-18T17:49:46Z</time>
      </trkpt>
      <trkpt lat="37.0417590" lon="-2.4124830">
        <ele>368.2</ele>
        <time>2019-10-18T17:49:47Z</time>
      </trkpt>
      <trkpt lat="37.0417290" lon="-2.4125360">
        <ele>368.2</ele>
        <time>2019-10-18T17:49:48Z</time>
      </trkpt>
      <trkpt lat="37.0416990" lon="-2.4125890">
        <ele>368.2</ele>
        <time>2019-10-18T17:49:49Z</time>
      </trkpt>
      <trkpt lat="37.0416660" lon="-2.4126420">
        <ele>368.2</ele>
        <time>2019-10-18T17:49:50Z</time>
      </trkpt>
      <trkpt lat="37.0416330" lon="-2.4126940">
        <ele>368.2</ele>
        <time>2019-10-18T17:49:51Z</time>
      </trkpt>
      <trkpt lat="37.0415970" lon="-2.4127450">
        <ele>368.2</ele>
        <time>2019-10-18T17:49:52Z</time>
      </trkpt>
      <trkpt lat="37.0415620" lon="-2.4127960">
        <ele>368.2</ele>
        <time>2019-10-18T17:49:53Z</time>
      </trkpt>
      <trkpt lat="37.0415270" lon="-2.4128460">
        <ele>368.2</ele>
        <time>2019-10-18T17:49:54Z</time>
      </trkpt>
      <trkpt lat="37.0414920" lon="-2.4128960">
        <ele>368.2</ele>
        <time>2019-10-18T17:49:55Z</time>
      </trkpt>
      <trkpt lat="37.0414560" lon="-2.4129440">
        <ele>368.2</ele>
        <time>2019-10-18T17:49:56Z</time>
      </trkpt>
      <trkpt lat="37.0414210" lon="-2.4129900">
        <ele>368.1</ele>
        <time>2019-10-18T17:49:57Z</time>
      </trkpt>
      <trkpt lat="37.0413850" lon="-2.4130360">
        <ele>368.1</ele>
        <time>2019-10-18T17:49:58Z</time>
      </trkpt>
      <trkpt lat="37.0413490" lon="-2.4130800">
        <ele>368.0</ele>
        <time>2019-10-18T17:49:59Z</time>
      </trkpt>
      <trkpt lat="37.0413120" lon="-2.4131240">
        <ele>367.9</ele>
        <time>2019-10-18T17:50:00Z</time>
      </trkpt>
      <trkpt lat="37.0412730" lon="-2.4131670">
        <ele>367.8</ele>
        <time>2019-10-18T17:50:01Z</time>
      </trkpt>
      <trkpt lat="37.0412330" lon="-2.4132090">
        <ele>367.7</ele>
        <time>2019-10-18T17:50:02Z</time>
      </trkpt>
      <trkpt lat="37.0411920" lon="-2.4132490">
        <ele>367.6</ele>
        <time>2019-10-18T17:50:03Z</time>
      </trkpt>
      <trkpt lat="37.0411500" lon="-2.4132890">
        <ele>367.5</ele>
        <time>2019-10-18T17:50:04Z</time>
      </trkpt>
      <trkpt lat="37.0411070" lon="-2.4133280">
        <ele>367.4</ele>
        <time>2019-10-18T17:50:05Z</time>
      </trkpt>
      <trkpt lat="37.0410630" lon="-2.4133680">
        <ele>367.4</ele>
        <time>2019-10-18T17:50:06Z</time>
      </trkpt>
      <trkpt lat="37.0410180" lon="-2.4134060">
        <ele>367.4</ele>
        <time>2019-10-18T17:50:07Z</time>
      </trkpt>
      <trkpt lat="37.0409720" lon="-2.4134440">
        <ele>367.3</ele>
        <time>2019-10-18T17:50:08Z</time>
      </trkpt>
      <trkpt lat="37.0409240" lon="-2.4134800">
        <ele>367.3</ele>
        <time>2019-10-18T17:50:09Z</time>
      </trkpt>
      <trkpt lat="37.0408750" lon="-2.4135160">
        <ele>367.3</ele>
        <time>2019-10-18T17:50:10Z</time>
      </trkpt>
      <trkpt lat="37.0408250" lon="-2.4135510">
        <ele>367.3</ele>
        <time>2019-10-18T17:50:11Z</time>
      </trkpt>
      <trkpt lat="37.0407740" lon="-2.4135870">
        <ele>367.3</ele>
        <time>2019-10-18T17:50:12Z</time>
      </trkpt>
      <trkpt lat="37.0407220" lon="-2.4136220">
        <ele>367.3</ele>
        <time>2019-10-18T17:50:13Z</time>
      </trkpt>
      <trkpt lat="37.0406690" lon="-2.4136550">
        <ele>367.3</ele>
        <time>2019-10-18T17:50:14Z</time>
      </trkpt>
      <trkpt lat="37.0406140" lon="-2.4136870">
        <ele>367.3</ele>
        <time>2019-10-18T17:50:15Z</time>
      </trkpt>
      <trkpt lat="37.0405580" lon="-2.4137200">
        <ele>367.3</ele>
        <time>2019-10-18T17:50:16Z</time>
      </trkpt>
      <trkpt lat="37.0405020" lon="-2.4137540">
        <ele>367.3</ele>
        <time>2019-10-18T17:50:17Z</time>
      </trkpt>
      <trkpt lat="37.0404460" lon="-2.4137870">
        <ele>367.3</ele>
        <time>2019-10-18T17:50:18Z</time>
      </trkpt>
      <trkpt lat="37.0403890" lon="-2.4138210">
        <ele>367.2</ele>
        <time>2019-10-18T17:50:19Z</time>
      </trkpt>
      <trkpt lat="37.0403330" lon="-2.4138540">
        <ele>367.2</ele>
        <time>2019-10-18T17:50:20Z</time>
      </trkpt>
      <trkpt lat="37.0402770" lon="-2.4138870">
        <ele>367.1</ele>
        <time>2019-10-18T17:50:21Z</time>
      </trkpt>
      <trkpt lat="37.0402210" lon="-2.4139200">
        <ele>367.0</ele>
        <time>2019-10-18T17:50:22Z</time>
      </trkpt>
      <trkpt lat="37.0401650" lon="-2.4139530">
        <ele>366.9</ele>
        <time>2019-10-18T17:50:23Z</time>
      </trkpt>
      <trkpt lat="37.0401080" lon="-2.4139860">
        <ele>366.7</ele>
        <time>2019-10-18T17:50:24Z</time>
      </trkpt>
      <trkpt lat="37.0400510" lon="-2.4140190">
        <ele>366.6</ele>
        <time>2019-10-18T17:50:25Z</time>
      </trkpt>
      <trkpt lat="37.0399920" lon="-2.4140530">
        <ele>366.5</ele>
        <time>2019-10-18T17:50:26Z</time>
      </trkpt>
      <trkpt lat="37.0399320" lon="-2.4140880">
        <ele>366.4</ele>
        <time>2019-10-18T17:50:27Z</time>
      </trkpt>
      <trkpt lat="37.0398710" lon="-2.4141250">
        <ele>366.2</ele>
        <time>2019-10-18T17:50:28Z</time>
      </trkpt>
      <trkpt lat="37.0398090" lon="-2.4141610">
        <ele>366.1</ele>
        <time>2019-10-18T17:50:29Z</time>
      </trkpt>
      <trkpt lat="37.0397460" lon="-2.4141980">
        <ele>365.9</ele>
        <time>2019-10-18T17:50:30Z</time>
      </trkpt>
      <trkpt lat="37.0396830" lon="-2.4142360">
        <ele>365.8</ele>
        <time>2019-10-18T17:50:31Z</time>
      </trkpt>
      <trkpt lat="37.0396190" lon="-2.4142740">
        <ele>365.6</ele>
        <time>2019-10-18T17:50:32Z</time>
      </trkpt>
      <trkpt lat="37.0395550" lon="-2.4143130">
        <ele>365.4</ele>
        <time>2019-10-18T17:50:33Z</time>
      </trkpt>
      <trkpt lat="37.0394910" lon="-2.4143520">
        <ele>365.3</ele>
        <time>2019-10-18T17:50:34Z</time>
      </trkpt>
      <trkpt lat="37.0394260" lon="-2.4143920">
        <ele>365.1</ele>
        <time>2019-10-18T17:50:35Z</time>
      </trkpt>
      <trkpt lat="37.0393590" lon="-2.4144330">
        <ele>364.9</ele>
        <time>2019-10-18T17:50:36Z</time>
      </trkpt>
      <trkpt lat="37.0392930" lon="-2.4144740">
        <ele>364.7</ele>
        <time>2019-10-18T17:50:37Z</time>
      </trkpt>
      <trkpt lat="37.0392260" lon="-2.4145170">
        <ele>364.5</ele>
        <time>2019-10-18T17:50:38Z</time>
      </trkpt>
      <trkpt lat="37.0391600" lon="-2.4145590">
        <ele>364.4</ele>
        <time>2019-10-18T17:50:39Z</time>
      </trkpt>
      <trkpt lat="37.0390950" lon="-2.4146020">
        <ele>364.3</ele>
        <time>2019-10-18T17:50:40Z</time>
      </trkpt>
      <trkpt lat="37.0390290" lon="-2.4146460">
        <ele>364.2</ele>
        <time>2019-10-18T17:50:41Z</time>
      </trkpt>
      <trkpt lat="37.0389640" lon="-2.4146920">
        <ele>364.1</ele>
        <time>2019-10-18T17:50:42Z</time>
      </trkpt>
      <trkpt lat="37.0388990" lon="-2.4147400">
        <ele>363.9</ele>
        <time>2019-10-18T17:50:43Z</time>
      </trkpt>
      <trkpt lat="37.0388330" lon="-2.4147890">
        <ele>363.6</ele>
        <time>2019-10-18T17:50:44Z</time>
      </trkpt>
      <trkpt lat="37.0387670" lon="-2.4148410">
        <ele>363.3</ele>
        <time>2019-10-18T17:50:45Z</time>
      </trkpt>
      <trkpt lat="37.0387010" lon="-2.4148950">
        <ele>362.9</ele>
        <time>2019-10-18T17:50:46Z</time>
      </trkpt>
      <trkpt lat="37.0386350" lon="-2.4149510">
        <ele>362.5</ele>
        <time>2019-10-18T17:50:47Z</time>
      </trkpt>
      <trkpt lat="37.0385700" lon="-2.4150080">
        <ele>362.1</ele>
        <time>2019-10-18T17:50:48Z</time>
      </trkpt>
      <trkpt lat="37.0385060" lon="-2.4150660">
        <ele>361.6</ele>
        <time>2019-10-18T17:50:49Z</time>
      </trkpt>
      <trkpt lat="37.0384440" lon="-2.4151250">
        <ele>361.1</ele>
        <time>2019-10-18T17:50:50Z</time>
      </trkpt>
      <trkpt lat="37.0383820" lon="-2.4151850">
        <ele>360.4</ele>
        <time>2019-10-18T17:50:51Z</time>
      </trkpt>
      <trkpt lat="37.0383230" lon="-2.4152460">
        <ele>359.9</ele>
        <time>2019-10-18T17:50:52Z</time>
      </trkpt>
      <trkpt lat="37.0382640" lon="-2.4153070">
        <ele>359.3</ele>
        <time>2019-10-18T17:50:53Z</time>
      </trkpt>
      <trkpt lat="37.0382070" lon="-2.4153690">
        <ele>358.8</ele>
        <time>2019-10-18T17:50:54Z</time>
      </trkpt>
      <trkpt lat="37.0381500" lon="-2.4154340">
        <ele>358.2</ele>
        <time>2019-10-18T17:50:55Z</time>
      </trkpt>
      <trkpt lat="37.0380940" lon="-2.4155000">
        <ele>357.6</ele>
        <time>2019-10-18T17:50:56Z</time>
      </trkpt>
      <trkpt lat="37.0380390" lon="-2.4155680">
        <ele>357.1</ele>
        <time>2019-10-18T17:50:57Z</time>
      </trkpt>
      <trkpt lat="37.0379840" lon="-2.4156370">
        <ele>356.5</ele>
        <time>2019-10-18T17:50:58Z</time>
      </trkpt>
      <trkpt lat="37.0379300" lon="-2.4157060">
        <ele>355.9</ele>
        <time>2019-10-18T17:50:59Z</time>
      </trkpt>
      <trkpt lat="37.0378770" lon="-2.4157760">
        <ele>355.3</ele>
        <time>2019-10-18T17:51:00Z</time>
      </trkpt>
      <trkpt lat="37.0378250" lon="-2.4158480">
        <ele>354.7</ele>
        <time>2019-10-18T17:51:01Z</time>
      </trkpt>
      <trkpt lat="37.0377750" lon="-2.4159200">
        <ele>354.1</ele>
        <time>2019-10-18T17:51:02Z</time>
      </trkpt>
      <trkpt lat="37.0377250" lon="-2.4159940">
        <ele>353.5</ele>
        <time>2019-10-18T17:51:03Z</time>
      </trkpt>
      <trkpt lat="37.0376750" lon="-2.4160690">
        <ele>352.9</ele>
        <time>2019-10-18T17:51:04Z</time>
      </trkpt>
      <trkpt lat="37.0376250" lon="-2.4161440">
        <ele>352.3</ele>
        <time>2019-10-18T17:51:05Z</time>
      </trkpt>
      <trkpt lat="37.0375760" lon="-2.4162210">
        <ele>351.7</ele>
        <time>2019-10-18T17:51:06Z</time>
      </trkpt>
      <trkpt lat="37.0375280" lon="-2.4162980">
        <ele>351.1</ele>
        <time>2019-10-18T17:51:07Z</time>
      </trkpt>
      <trkpt lat="37.0374800" lon="-2.4163760">
        <ele>350.5</ele>
        <time>2019-10-18T17:51:08Z</time>
      </trkpt>
      <trkpt lat="37.0374330" lon="-2.4164540">
        <ele>350.0</ele>
        <time>2019-10-18T17:51:09Z</time>
      </trkpt>
      <trkpt lat="37.0373850" lon="-2.4165340">
        <ele>349.5</ele>
        <time>2019-10-18T17:51:10Z</time>
      </trkpt>
      <trkpt lat="37.0373380" lon="-2.4166140">
        <ele>349.0</ele>
        <time>2019-10-18T17:51:11Z</time>
      </trkpt>
      <trkpt lat="37.0372900" lon="-2.4166940">
        <ele>348.5</ele>
        <time>2019-10-18T17:51:12Z</time>
      </trkpt>
      <trkpt lat="37.0372430" lon="-2.4167760">
        <ele>348.1</ele>
        <time>2019-10-18T17:51:13Z</time>
      </trkpt>
      <trkpt lat="37.0371960" lon="-2.4168580">
        <ele>347.6</ele>
        <time>2019-10-18T17:51:14Z</time>
      </trkpt>
      <trkpt lat="37.0371480" lon="-2.4169400">
        <ele>347.2</ele>
        <time>2019-10-18T17:51:15Z</time>
      </trkpt>
      <trkpt lat="37.0371000" lon="-2.4170220">
        <ele>346.8</ele>
        <time>2019-10-18T17:51:16Z</time>
      </trkpt>
      <trkpt lat="37.0370530" lon="-2.4171040">
        <ele>346.5</ele>
        <time>2019-10-18T17:51:17Z</time>
      </trkpt>
      <trkpt lat="37.0370050" lon="-2.4171850">
        <ele>346.2</ele>
        <time>2019-10-18T17:51:18Z</time>
      </trkpt>
      <trkpt lat="37.0369570" lon="-2.4172660">
        <ele>345.9</ele>
        <time>2019-10-18T17:51:19Z</time>
      </trkpt>
      <trkpt lat="37.0369090" lon="-2.4173470">
        <ele>345.6</ele>
        <time>2019-10-18T17:51:20Z</time>
      </trkpt>
      <trkpt lat="37.0368600" lon="-2.4174290">
        <ele>345.4</ele>
        <time>2019-10-18T17:51:21Z</time>
      </trkpt>
      <trkpt lat="37.0368120" lon="-2.4175110">
        <ele>345.1</ele>
        <time>2019-10-18T17:51:22Z</time>
      </trkpt>
      <trkpt lat="37.0367630" lon="-2.4175940">
        <ele>344.8</ele>
        <time>2019-10-18T17:51:23Z</time>
      </trkpt>
      <trkpt lat="37.0367140" lon="-2.4176780">
        <ele>344.5</ele>
        <time>2019-10-18T17:51:24Z</time>
      </trkpt>
      <trkpt lat="37.0366650" lon="-2.4177620">
        <ele>344.2</ele>
        <time>2019-10-18T17:51:25Z</time>
      </trkpt>
      <trkpt lat="37.0366150" lon="-2.4178480">
        <ele>343.9</ele>
        <time>2019-10-18T17:51:26Z</time>
      </trkpt>
      <trkpt lat="37.0365650" lon="-2.4179340">
        <ele>343.5</ele>
        <time>2019-10-18T17:51:27Z</time>
      </trkpt>
      <trkpt lat="37.0365150" lon="-2.4180200">
        <ele>343.2</ele>
        <time>2019-10-18T17:51:28Z</time>
      </trkpt>
      <trkpt lat="37.0364650" lon="-2.4181050">
        <ele>342.9</ele>
        <time>2019-10-18T17:51:29Z</time>
      </trkpt>
      <trkpt lat="37.0364140" lon="-2.4181910">
        <ele>342.5</ele>
        <time>2019-10-18T17:51:30Z</time>
      </trkpt>
      <trkpt lat="37.0363630" lon="-2.4182770">
        <ele>342.1</ele>
        <time>2019-10-18T17:51:31Z</time>
      </trkpt>
      <trkpt lat="37.0363120" lon="-2.4183630">
        <ele>341.7</ele>
        <time>2019-10-18T17:51:32Z</time>
      </trkpt>
      <trkpt lat="37.0362610" lon="-2.4184500">
        <ele>341.3</ele>
        <time>2019-10-18T17:51:33Z</time>
      </trkpt>
      <trkpt lat="37.0362100" lon="-2.4185380">
        <ele>340.8</ele>
        <time>2019-10-18T17:51:34Z</time>
      </trkpt>
      <trkpt lat="37.0361580" lon="-2.4186250">
        <ele>340.4</ele>
        <time>2019-10-18T17:51:35Z</time>
      </trkpt>
      <trkpt lat="37.0361060" lon="-2.4187130">
        <ele>340.0</ele>
        <time>2019-10-18T17:51:36Z</time>
      </trkpt>
      <trkpt lat="37.0360530" lon="-2.4187990">
        <ele>339.7</ele>
        <time>2019-10-18T17:51:37Z</time>
      </trkpt>
      <trkpt lat="37.0360020" lon="-2.4188860">
        <ele>339.5</ele>
        <time>2019-10-18T17:51:38Z</time>
      </trkpt>
      <trkpt lat="37.0359510" lon="-2.4189710">
        <ele>339.3</ele>
        <time>2019-10-18T17:51:39Z</time>
      </trkpt>
      <trkpt lat="37.0359010" lon="-2.4190540">
        <ele>339.2</ele>
        <time>2019-10-18T17:51:40Z</time>
      </trkpt>
      <trkpt lat="37.0358520" lon="-2.4191360">
        <ele>339.2</ele>
        <time>2019-10-18T17:51:41Z</time>
      </trkpt>
      <trkpt lat="37.0358040" lon="-2.4192170">
        <ele>339.2</ele>
        <time>2019-10-18T17:51:42Z</time>
      </trkpt>
      <trkpt lat="37.0357580" lon="-2.4192960">
        <ele>339.3</ele>
        <time>2019-10-18T17:51:43Z</time>
      </trkpt>
      <trkpt lat="37.0357130" lon="-2.4193720">
        <ele>339.5</ele>
        <time>2019-10-18T17:51:44Z</time>
      </trkpt>
      <trkpt lat="37.0356680" lon="-2.4194480">
        <ele>339.7</ele>
        <time>2019-10-18T17:51:45Z</time>
      </trkpt>
      <trkpt lat="37.0356230" lon="-2.4195220">
        <ele>339.9</ele>
        <time>2019-10-18T17:51:46Z</time>
      </trkpt>
      <trkpt lat="37.0355780" lon="-2.4195970">
        <ele>340.1</ele>
        <time>2019-10-18T17:51:47Z</time>
      </trkpt>
      <trkpt lat="37.0355350" lon="-2.4196700">
        <ele>340.2</ele>
        <time>2019-10-18T17:51:48Z</time>
      </trkpt>
      <trkpt lat="37.0354930" lon="-2.4197430">
        <ele>340.4</ele>
        <time>2019-10-18T17:51:49Z</time>
      </trkpt>
      <trkpt lat="37.0354510" lon="-2.4198160">
        <ele>340.6</ele>
        <time>2019-10-18T17:51:50Z</time>
      </trkpt>
      <trkpt lat="37.0354100" lon="-2.4198880">
        <ele>340.8</ele>
        <time>2019-10-18T17:51:51Z</time>
      </trkpt>
      <trkpt lat="37.0353680" lon="-2.4199580">
        <ele>341.0</ele>
        <time>2019-10-18T17:51:52Z</time>
      </trkpt>
      <trkpt lat="37.0353260" lon="-2.4200280">
        <ele>341.2</ele>
        <time>2019-10-18T17:51:53Z</time>
      </trkpt>
      <trkpt lat="37.0352860" lon="-2.4200970">
        <ele>341.4</ele>
        <time>2019-10-18T17:51:54Z</time>
      </trkpt>
      <trkpt lat="37.0352480" lon="-2.4201650">
        <ele>341.5</ele>
        <time>2019-10-18T17:51:55Z</time>
      </trkpt>
      <trkpt lat="37.0352090" lon="-2.4202310">
        <ele>341.7</ele>
        <time>2019-10-18T17:51:56Z</time>
      </trkpt>
      <trkpt lat="37.0351690" lon="-2.4202970">
        <ele>341.9</ele>
        <time>2019-10-18T17:51:57Z</time>
      </trkpt>
      <trkpt lat="37.0351300" lon="-2.4203610">
        <ele>342.0</ele>
        <time>2019-10-18T17:51:58Z</time>
      </trkpt>
      <trkpt lat="37.0350920" lon="-2.4204260">
        <ele>342.2</ele>
        <time>2019-10-18T17:51:59Z</time>
      </trkpt>
      <trkpt lat="37.0350540" lon="-2.4204910">
        <ele>342.4</ele>
        <time>2019-10-18T17:52:00Z</time>
      </trkpt>
      <trkpt lat="37.0350160" lon="-2.4205560">
        <ele>342.6</ele>
        <time>2019-10-18T17:52:01Z</time>
      </trkpt>
      <trkpt lat="37.0349790" lon="-2.4206220">
        <ele>342.8</ele>
        <time>2019-10-18T17:52:02Z</time>
      </trkpt>
      <trkpt lat="37.0349410" lon="-2.4206870">
        <ele>343.0</ele>
        <time>2019-10-18T17:52:03Z</time>
      </trkpt>
      <trkpt lat="37.0349030" lon="-2.4207530">
        <ele>343.2</ele>
        <time>2019-10-18T17:52:04Z</time>
      </trkpt>
      <trkpt lat="37.0348640" lon="-2.4208190">
        <ele>343.4</ele>
        <time>2019-10-18T17:52:05Z</time>
      </trkpt>
      <trkpt lat="37.0348260" lon="-2.4208840">
        <ele>343.5</ele>
        <time>2019-10-18T17:52:06Z</time>
      </trkpt>
      <trkpt lat="37.0347870" lon="-2.4209510">
        <ele>343.7</ele>
        <time>2019-10-18T17:52:07Z</time>
      </trkpt>
      <trkpt lat="37.0347480" lon="-2.4210180">
        <ele>343.8</ele>
        <time>2019-10-18T17:52:08Z</time>
      </trkpt>
      <trkpt lat="37.0347090" lon="-2.4210850">
        <ele>343.9</ele>
        <time>2019-10-18T17:52:09Z</time>
      </trkpt>
      <trkpt lat="37.0346700" lon="-2.4211530">
        <ele>343.9</ele>
        <time>2019-10-18T17:52:10Z</time>
      </trkpt>
      <trkpt lat="37.0346300" lon="-2.4212220">
        <ele>343.9</ele>
        <time>2019-10-18T17:52:11Z</time>
      </trkpt>
      <trkpt lat="37.0345890" lon="-2.4212920">
        <ele>343.7</ele>
        <time>2019-10-18T17:52:12Z</time>
      </trkpt>
      <trkpt lat="37.0345480" lon="-2.4213620">
        <ele>343.5</ele>
        <time>2019-10-18T17:52:13Z</time>
      </trkpt>
      <trkpt lat="37.0345070" lon="-2.4214330">
        <ele>343.2</ele>
        <time>2019-10-18T17:52:14Z</time>
      </trkpt>
      <trkpt lat="37.0344660" lon="-2.4215030">
        <ele>342.8</ele>
        <time>2019-10-18T17:52:15Z</time>
      </trkpt>
      <trkpt lat="37.0344250" lon="-2.4215730">
        <ele>342.4</ele>
        <time>2019-10-18T17:52:16Z</time>
      </trkpt>
      <trkpt lat="37.0343840" lon="-2.4216430">
        <ele>342.0</ele>
        <time>2019-10-18T17:52:17Z</time>
      </trkpt>
      <trkpt lat="37.0343430" lon="-2.4217130">
        <ele>341.6</ele>
        <time>2019-10-18T17:52:18Z</time>
      </trkpt>
      <trkpt lat="37.0343020" lon="-2.4217830">
        <ele>341.2</ele>
        <time>2019-10-18T17:52:19Z</time>
      </trkpt>
      <trkpt lat="37.0342620" lon="-2.4218540">
        <ele>340.8</ele>
        <time>2019-10-18T17:52:20Z</time>
      </trkpt>
      <trkpt lat="37.0342200" lon="-2.4219250">
        <ele>340.4</ele>
        <time>2019-10-18T17:52:21Z</time>
      </trkpt>
      <trkpt lat="37.0341780" lon="-2.4219960">
        <ele>340.1</ele>
        <time>2019-10-18T17:52:22Z</time>
      </trkpt>
      <trkpt lat="37.0341350" lon="-2.4220680">
        <ele>339.8</ele>
        <time>2019-10-18T17:52:23Z</time>
      </trkpt>
      <trkpt lat="37.0340930" lon="-2.4221400">
        <ele>339.5</ele>
        <time>2019-10-18T17:52:24Z</time>
      </trkpt>
      <trkpt lat="37.0340510" lon="-2.4222120">
        <ele>339.2</ele>
        <time>2019-10-18T17:52:25Z</time>
      </trkpt>
      <trkpt lat="37.0340080" lon="-2.4222850">
        <ele>338.6</ele>
        <time>2019-10-18T17:52:26Z</time>
      </trkpt>
      <trkpt lat="37.0339660" lon="-2.4223590">
        <ele>338.1</ele>
        <time>2019-10-18T17:52:27Z</time>
      </trkpt>
      <trkpt lat="37.0339240" lon="-2.4224330">
        <ele>337.6</ele>
        <time>2019-10-18T17:52:28Z</time>
      </trkpt>
      <trkpt lat="37.0338810" lon="-2.4225070">
        <ele>337.1</ele>
        <time>2019-10-18T17:52:29Z</time>
      </trkpt>
      <trkpt lat="37.0338370" lon="-2.4225820">
        <ele>336.6</ele>
        <time>2019-10-18T17:52:30Z</time>
      </trkpt>
      <trkpt lat="37.0337940" lon="-2.4226580">
        <ele>336.1</ele>
        <time>2019-10-18T17:52:31Z</time>
      </trkpt>
      <trkpt lat="37.0337480" lon="-2.4227340">
        <ele>335.7</ele>
        <time>2019-10-18T17:52:32Z</time>
      </trkpt>
      <trkpt lat="37.0337010" lon="-2.4228090">
        <ele>335.4</ele>
        <time>2019-10-18T17:52:33Z</time>
      </trkpt>
      <trkpt lat="37.0336520" lon="-2.4228840">
        <ele>335.0</ele>
        <time>2019-10-18T17:52:34Z</time>
      </trkpt>
      <trkpt lat="37.0336000" lon="-2.4229580">
        <ele>334.5</ele>
        <time>2019-10-18T17:52:35Z</time>
      </trkpt>
      <trkpt lat="37.0335460" lon="-2.4230290">
        <ele>334.0</ele>
        <time>2019-10-18T17:52:36Z</time>
      </trkpt>
      <trkpt lat="37.0334900" lon="-2.4230990">
        <ele>333.6</ele>
        <time>2019-10-18T17:52:37Z</time>
      </trkpt>
      <trkpt lat="37.0334300" lon="-2.4231660">
        <ele>333.1</ele>
        <time>2019-10-18T17:52:38Z</time>
      </trkpt>
      <trkpt lat="37.0333670" lon="-2.4232300">
        <ele>332.6</ele>
        <time>2019-10-18T17:52:39Z</time>
      </trkpt>
      <trkpt lat="37.0332990" lon="-2.4232910">
        <ele>332.1</ele>
        <time>2019-10-18T17:52:40Z</time>
      </trkpt>
      <trkpt lat="37.0332280" lon="-2.4233480">
        <ele>331.5</ele>
        <time>2019-10-18T17:52:41Z</time>
      </trkpt>
      <trkpt lat="37.0331550" lon="-2.4234010">
        <ele>331.0</ele>
        <time>2019-10-18T17:52:42Z</time>
      </trkpt>
      <trkpt lat="37.0330800" lon="-2.4234500">
        <ele>330.4</ele>
        <time>2019-10-18T17:52:43Z</time>
      </trkpt>
      <trkpt lat="37.0330040" lon="-2.4234940">
        <ele>329.9</ele>
        <time>2019-10-18T17:52:44Z</time>
      </trkpt>
      <trkpt lat="37.0329240" lon="-2.4235300">
        <ele>329.4</ele>
        <time>2019-10-18T17:52:45Z</time>
      </trkpt>
      <trkpt lat="37.0328420" lon="-2.4235610">
        <ele>328.9</ele>
        <time>2019-10-18T17:52:46Z</time>
      </trkpt>
      <trkpt lat="37.0327570" lon="-2.4235860">
        <ele>328.3</ele>
        <time>2019-10-18T17:52:47Z</time>
      </trkpt>
      <trkpt lat="37.0326690" lon="-2.4236050">
        <ele>327.8</ele>
        <time>2019-10-18T17:52:48Z</time>
      </trkpt>
      <trkpt lat="37.0325810" lon="-2.4236150">
        <ele>327.3</ele>
        <time>2019-10-18T17:52:49Z</time>
      </trkpt>
      <trkpt lat="37.0324910" lon="-2.4236190">
        <ele>326.7</ele>
        <time>2019-10-18T17:52:50Z</time>
      </trkpt>
      <trkpt lat="37.0324010" lon="-2.4236170">
        <ele>326.2</ele>
        <time>2019-10-18T17:52:51Z</time>
      </trkpt>
      <trkpt lat="37.0323120" lon="-2.4236100">
        <ele>325.6</ele>
        <time>2019-10-18T17:52:52Z</time>
      </trkpt>
      <trkpt lat="37.0322240" lon="-2.4235980">
        <ele>325.0</ele>
        <time>2019-10-18T17:52:53Z</time>
      </trkpt>
      <trkpt lat="37.0321390" lon="-2.4235810">
        <ele>324.5</ele>
        <time>2019-10-18T17:52:54Z</time>
      </trkpt>
      <trkpt lat="37.0320570" lon="-2.4235570">
        <ele>323.9</ele>
        <time>2019-10-18T17:52:55Z</time>
      </trkpt>
      <trkpt lat="37.0319790" lon="-2.4235290">
        <ele>323.5</ele>
        <time>2019-10-18T17:52:56Z</time>
      </trkpt>
      <trkpt lat="37.0319120" lon="-2.4234980">
        <ele>323.1</ele>
        <time>2019-10-18T17:52:57Z</time>
      </trkpt>
      <trkpt lat="37.0318570" lon="-2.4234680">
        <ele>322.8</ele>
        <time>2019-10-18T17:52:58Z</time>
      </trkpt>
      <trkpt lat="37.0318110" lon="-2.4234410">
        <ele>322.5</ele>
        <time>2019-10-18T17:52:59Z</time>
      </trkpt>
      <trkpt lat="37.0317660" lon="-2.4234140">
        <ele>322.2</ele>
        <time>2019-10-18T17:53:00Z</time>
      </trkpt>
      <trkpt lat="37.0317210" lon="-2.4233850">
        <ele>321.8</ele>
        <time>2019-10-18T17:53:01Z</time>
      </trkpt>
      <trkpt lat="37.0316730" lon="-2.4233550">
        <ele>321.5</ele>
        <time>2019-10-18T17:53:02Z</time>
      </trkpt>
      <trkpt lat="37.0316230" lon="-2.4233250">
        <ele>321.2</ele>
        <time>2019-10-18T17:53:03Z</time>
      </trkpt>
      <trkpt lat="37.0315700" lon="-2.4232940">
        <ele>320.8</ele>
        <time>2019-10-18T17:53:04Z</time>
      </trkpt>
      <trkpt lat="37.0315170" lon="-2.4232640">
        <ele>320.5</ele>
        <time>2019-10-18T17:53:05Z</time>
      </trkpt>
      <trkpt lat="37.0314630" lon="-2.4232340">
        <ele>320.2</ele>
        <time>2019-10-18T17:53:06Z</time>
      </trkpt>
      <trkpt lat="37.0314090" lon="-2.4232040">
        <ele>319.8</ele>
        <time>2019-10-18T17:53:07Z</time>
      </trkpt>
      <trkpt lat="37.0313540" lon="-2.4231780">
        <ele>319.5</ele>
        <time>2019-10-18T17:53:08Z</time>
      </trkpt>
      <trkpt lat="37.0312980" lon="-2.4231560">
        <ele>319.2</ele>
        <time>2019-10-18T17:53:09Z</time>
      </trkpt>
      <trkpt lat="37.0312410" lon="-2.4231410">
        <ele>318.9</ele>
        <time>2019-10-18T17:53:10Z</time>
      </trkpt>
      <trkpt lat="37.0311840" lon="-2.4231320">
        <ele>318.5</ele>
        <time>2019-10-18T17:53:11Z</time>
      </trkpt>
      <trkpt lat="37.0311260" lon="-2.4231310">
        <ele>318.3</ele>
        <time>2019-10-18T17:53:12Z</time>
      </trkpt>
      <trkpt lat="37.0310690" lon="-2.4231390">
        <ele>318.0</ele>
        <time>2019-10-18T17:53:13Z</time>
      </trkpt>
      <trkpt lat="37.0310130" lon="-2.4231590">
        <ele>317.7</ele>
        <time>2019-10-18T17:53:14Z</time>
      </trkpt>
      <trkpt lat="37.0309600" lon="-2.4231880">
        <ele>317.4</ele>
        <time>2019-10-18T17:53:15Z</time>
      </trkpt>
      <trkpt lat="37.0309100" lon="-2.4232280">
        <ele>317.1</ele>
        <time>2019-10-18T17:53:16Z</time>
      </trkpt>
      <trkpt lat="37.0308660" lon="-2.4232800">
        <ele>316.8</ele>
        <time>2019-10-18T17:53:17Z</time>
      </trkpt>
      <trkpt lat="37.0308280" lon="-2.4233430">
        <ele>316.5</ele>
        <time>2019-10-18T17:53:18Z</time>
      </trkpt>
      <trkpt lat="37.0307980" lon="-2.4234130">
        <ele>316.2</ele>
        <time>2019-10-18T17:53:19Z</time>
      </trkpt>
      <trkpt lat="37.0307720" lon="-2.4234880">
        <ele>316.0</ele>
        <time>2019-10-18T17:53:20Z</time>
      </trkpt>
      <trkpt lat="37.0307500" lon="-2.4235680">
        <ele>315.7</ele>
        <time>2019-10-18T17:53:21Z</time>
      </trkpt>
      <trkpt lat="37.0307320" lon="-2.4236520">
        <ele>315.4</ele>
        <time>2019-10-18T17:53:22Z</time>
      </trkpt>
      <trkpt lat="37.0307160" lon="-2.4237390">
        <ele>315.1</ele>
        <time>2019-10-18T17:53:23Z</time>
      </trkpt>
      <trkpt lat="37.0307020" lon="-2.4238280">
        <ele>314.7</ele>
        <time>2019-10-18T17:53:24Z</time>
      </trkpt>
      <trkpt lat="37.0306880" lon="-2.4239180">
        <ele>314.4</ele>
        <time>2019-10-18T17:53:25Z</time>
      </trkpt>
      <trkpt lat="37.0306730" lon="-2.4240080">
        <ele>314.0</ele>
        <time>2019-10-18T17:53:26Z</time>
      </trkpt>
      <trkpt lat="37.0306580" lon="-2.4240990">
        <ele>313.6</ele>
        <time>2019-10-18T17:53:27Z</time>
      </trkpt>
      <trkpt lat="37.0306420" lon="-2.4241920">
        <ele>313.2</ele>
        <time>2019-10-18T17:53:28Z</time>
      </trkpt>
      <trkpt lat="37.0306260" lon="-2.4242890">
        <ele>312.7</ele>
        <time>2019-10-18T17:53:29Z</time>
      </trkpt>
      <trkpt lat="37.0306100" lon="-2.4243880">
        <ele>312.3</ele>
        <time>2019-10-18T17:53:30Z</time>
      </trkpt>
      <trkpt lat="37.0305940" lon="-2.4244900">
        <ele>311.8</ele>
        <time>2019-10-18T17:53:31Z</time>
      </trkpt>
      <trkpt lat="37.0305770" lon="-2.4245950">
        <ele>311.1</ele>
        <time>2019-10-18T17:53:32Z</time>
      </trkpt>
      <trkpt lat="37.0305590" lon="-2.4247030">
        <ele>310.2</ele>
        <time>2019-10-18T17:53:33Z</time>
      </trkpt>
      <trkpt lat="37.0305420" lon="-2.4248110">
        <ele>309.3</ele>
        <time>2019-10-18T17:53:34Z</time>
      </trkpt>
      <trkpt lat="37.0305250" lon="-2.4249190">
        <ele>308.3</ele>
        <time>2019-10-18T17:53:35Z</time>
      </trkpt>
      <trkpt lat="37.0305080" lon="-2.4250260">
        <ele>307.3</ele>
        <time>2019-10-18T17:53:36Z</time>
      </trkpt>
      <trkpt lat="37.0304910" lon="-2.4251330">
        <ele>306.5</ele>
        <time>2019-10-18T17:53:37Z</time>
      </trkpt>
      <trkpt lat="37.0304740" lon="-2.4252390">
        <ele>305.7</ele>
        <time>2019-10-18T17:53:38Z</time>
      </trkpt>
      <trkpt lat="37.0304570" lon="-2.4253460">
        <ele>304.9</ele>
        <time>2019-10-18T17:53:39Z</time>
      </trkpt>
      <trkpt lat="37.0304390" lon="-2.4254550">
        <ele>304.0</ele>
        <time>2019-10-18T17:53:40Z</time>
      </trkpt>
      <trkpt lat="37.0304190" lon="-2.4255660">
        <ele>303.1</ele>
        <time>2019-10-18T17:53:41Z</time>
      </trkpt>
      <trkpt lat="37.0303960" lon="-2.4256780">
        <ele>302.4</ele>
        <time>2019-10-18T17:53:42Z</time>
      </trkpt>
      <trkpt lat="37.0303690" lon="-2.4257900">
        <ele>301.9</ele>
        <time>2019-10-18T17:53:43Z</time>
      </trkpt>
      <trkpt lat="37.0303390" lon="-2.4259010">
        <ele>301.3</ele>
        <time>2019-10-18T17:53:44Z</time>
      </trkpt>
      <trkpt lat="37.0303030" lon="-2.4260080">
        <ele>301.0</ele>
        <time>2019-10-18T17:53:45Z</time>
      </trkpt>
      <trkpt lat="37.0302620" lon="-2.4261120">
        <ele>300.7</ele>
        <time>2019-10-18T17:53:46Z</time>
      </trkpt>
      <trkpt lat="37.0302140" lon="-2.4262100">
        <ele>300.5</ele>
        <time>2019-10-18T17:53:47Z</time>
      </trkpt>
      <trkpt lat="37.0301620" lon="-2.4263030">
        <ele>300.5</ele>
        <time>2019-10-18T17:53:48Z</time>
      </trkpt>
      <trkpt lat="37.0301060" lon="-2.4263940">
        <ele>300.5</ele>
        <time>2019-10-18T17:53:49Z</time>
      </trkpt>
      <trkpt lat="37.0300460" lon="-2.4264810">
        <ele>300.6</ele>
        <time>2019-10-18T17:53:50Z</time>
      </trkpt>
      <trkpt lat="37.0299810" lon="-2.4265620">
        <ele>300.7</ele>
        <time>2019-10-18T17:53:51Z</time>
      </trkpt>
      <trkpt lat="37.0299110" lon="-2.4266380">
        <ele>300.9</ele>
        <time>2019-10-18T17:53:52Z</time>
      </trkpt>
      <trkpt lat="37.0298380" lon="-2.4267100">
        <ele>301.1</ele>
        <time>2019-10-18T17:53:53Z</time>
      </trkpt>
      <trkpt lat="37.0297630" lon="-2.4267810">
        <ele>301.1</ele>
        <time>2019-10-18T17:53:54Z</time>
      </trkpt>
      <trkpt lat="37.0296870" lon="-2.4268500">
        <ele>301.0</ele>
        <time>2019-10-18T17:53:55Z</time>
      </trkpt>
      <trkpt lat="37.0296110" lon="-2.4269180">
        <ele>301.2</ele>
        <time>2019-10-18T17:53:56Z</time>
      </trkpt>
      <trkpt lat="37.0295370" lon="-2.4269830">
        <ele>301.4</ele>
        <time>2019-10-18T17:53:57Z</time>
      </trkpt>
      <trkpt lat="37.0294660" lon="-2.4270460">
        <ele>301.8</ele>
        <time>2019-10-18T17:53:58Z</time>
      </trkpt>
      <trkpt lat="37.0293970" lon="-2.4271060">
        <ele>302.2</ele>
        <time>2019-10-18T17:53:59Z</time>
      </trkpt>
      <trkpt lat="37.0293310" lon="-2.4271620">
        <ele>302.7</ele>
        <time>2019-10-18T17:54:00Z</time>
      </trkpt>
      <trkpt lat="37.0292700" lon="-2.4272170">
        <ele>303.1</ele>
        <time>2019-10-18T17:54:01Z</time>
      </trkpt>
      <trkpt lat="37.0292110" lon="-2.4272700">
        <ele>303.5</ele>
        <time>2019-10-18T17:54:02Z</time>
      </trkpt>
      <trkpt lat="37.0291550" lon="-2.4273200">
        <ele>303.9</ele>
        <time>2019-10-18T17:54:03Z</time>
      </trkpt>
      <trkpt lat="37.0291020" lon="-2.4273670">
        <ele>304.2</ele>
        <time>2019-10-18T17:54:04Z</time>
      </trkpt>
      <trkpt lat="37.0290500" lon="-2.4274130">
        <ele>304.5</ele>
        <time>2019-10-18T17:54:05Z</time>
      </trkpt>
      <trkpt lat="37.0289990" lon="-2.4274570">
        <ele>304.9</ele>
        <time>2019-10-18T17:54:06Z</time>
      </trkpt>
      <trkpt lat="37.0289490" lon="-2.4274980">
        <ele>305.2</ele>
        <time>2019-10-18T17:54:07Z</time>
      </trkpt>
      <trkpt lat="37.0289010" lon="-2.4275350">
        <ele>305.5</ele>
        <time>2019-10-18T17:54:08Z</time>
      </trkpt>
      <trkpt lat="37.0288550" lon="-2.4275690">
        <ele>305.7</ele>
        <time>2019-10-18T17:54:09Z</time>
      </trkpt>
      <trkpt lat="37.0288090" lon="-2.4276010">
        <ele>306.0</ele>
        <time>2019-10-18T17:54:10Z</time>
      </trkpt>
      <trkpt lat="37.0287640" lon="-2.4276310">
        <ele>306.2</ele>
        <time>2019-10-18T17:54:11Z</time>
      </trkpt>
      <trkpt lat="37.0287180" lon="-2.4276610">
        <ele>306.4</ele>
        <time>2019-10-18T17:54:12Z</time>
      </trkpt>
      <trkpt lat="37.0286720" lon="-2.4276890">
        <ele>306.6</ele>
        <time>2019-10-18T17:54:13Z</time>
      </trkpt>
      <trkpt lat="37.0286260" lon="-2.4277160">
        <ele>306.8</ele>
        <time>2019-10-18T17:54:14Z</time>
      </trkpt>
      <trkpt lat="37.0285800" lon="-2.4277400">
        <ele>307.0</ele>
        <time>2019-10-18T17:54:15Z</time>
      </trkpt>
      <trkpt lat="37.0285340" lon="-2.4277630">
        <ele>307.2</ele>
        <time>2019-10-18T17:54:16Z</time>
      </trkpt>
      <trkpt lat="37.0284890" lon="-2.4277840">
        <ele>307.4</ele>
        <time>2019-10-18T17:54:17Z</time>
      </trkpt>
      <trkpt lat="37.0284450" lon="-2.4278050">
        <ele>307.6</ele>
        <time>2019-10-18T17:54:18Z</time>
      </trkpt>
      <trkpt lat="37.0284000" lon="-2.4278240">
        <ele>307.8</ele>
        <time>2019-10-18T17:54:19Z</time>
      </trkpt>
      <trkpt lat="37.0283550" lon="-2.4278420">
        <ele>308.1</ele>
        <time>2019-10-18T17:54:20Z</time>
      </trkpt>
      <trkpt lat="37.0283090" lon="-2.4278590">
        <ele>308.4</ele>
        <time>2019-10-18T17:54:21Z</time>
      </trkpt>
      <trkpt lat="37.0282640" lon="-2.4278740">
        <ele>308.7</ele>
        <time>2019-10-18T17:54:22Z</time>
      </trkpt>
      <trkpt lat="37.0282190" lon="-2.4278880">
        <ele>309.0</ele>
        <time>2019-10-18T17:54:23Z</time>
      </trkpt>
      <trkpt lat="37.0281740" lon="-2.4279000">
        <ele>309.3</ele>
        <time>2019-10-18T17:54:24Z</time>
      </trkpt>
      <trkpt lat="37.0281300" lon="-2.4279110">
        <ele>309.7</ele>
        <time>2019-10-18T17:54:25Z</time>
      </trkpt>
      <trkpt lat="37.0280860" lon="-2.4279200">
        <ele>310.1</ele>
        <time>2019-10-18T17:54:26Z</time>
      </trkpt>
      <trkpt lat="37.0280430" lon="-2.4279280">
        <ele>310.4</ele>
        <time>2019-10-18T17:54:27Z</time>
      </trkpt>
      <trkpt lat="37.0280000" lon="-2.4279350">
        <ele>310.7</ele>
        <time>2019-10-18T17:54:28Z</time>
      </trkpt>
      <trkpt lat="37.0279570" lon="-2.4279420">
        <ele>311.1</ele>
        <time>2019-10-18T17:54:29Z</time>
      </trkpt>
      <trkpt lat="37.0279130" lon="-2.4279480">
        <ele>311.4</ele>
        <time>2019-10-18T17:54:30Z</time>
      </trkpt>
      <trkpt lat="37.0278690" lon="-2.4279520">
        <ele>311.8</ele>
        <time>2019-10-18T17:54:31Z</time>
      </trkpt>
      <trkpt lat="37.0278240" lon="-2.4279560">
        <ele>312.1</ele>
        <time>2019-10-18T17:54:32Z</time>
      </trkpt>
      <trkpt lat="37.0277810" lon="-2.4279600">
        <ele>312.4</ele>
        <time>2019-10-18T17:54:33Z</time>
      </trkpt>
      <trkpt lat="37.0277390" lon="-2.4279620">
        <ele>312.6</ele>
        <time>2019-10-18T17:54:34Z</time>
      </trkpt>
      <trkpt lat="37.0276980" lon="-2.4279640">
        <ele>312.9</ele>
        <time>2019-10-18T17:54:35Z</time>
      </trkpt>
      <trkpt lat="37.0276560" lon="-2.4279660">
        <ele>313.1</ele>
        <time>2019-10-18T17:54:36Z</time>
      </trkpt>
      <trkpt lat="37.0276130" lon="-2.4279660">
        <ele>313.4</ele>
        <time>2019-10-18T17:54:37Z</time>
      </trkpt>
      <trkpt lat="37.0275690" lon="-2.4279650">
        <ele>313.6</ele>
        <time>2019-10-18T17:54:38Z</time>
      </trkpt>
      <trkpt lat="37.0275250" lon="-2.4279620">
        <ele>313.9</ele>
        <time>2019-10-18T17:54:39Z</time>
      </trkpt>
      <trkpt lat="37.0274810" lon="-2.4279580">
        <ele>314.2</ele>
        <time>2019-10-18T17:54:40Z</time>
      </trkpt>
      <trkpt lat="37.0274370" lon="-2.4279550">
        <ele>314.4</ele>
        <time>2019-10-18T17:54:41Z</time>
      </trkpt>
      <trkpt lat="37.0273930" lon="-2.4279520">
        <ele>314.7</ele>
        <time>2019-10-18T17:54:42Z</time>
      </trkpt>
      <trkpt lat="37.0273470" lon="-2.4279490">
        <ele>314.9</ele>
        <time>2019-10-18T17:54:43Z</time>
      </trkpt>
      <trkpt lat="37.0273000" lon="-2.4279460">
        <ele>315.2</ele>
        <time>2019-10-18T17:54:44Z</time>
      </trkpt>
      <trkpt lat="37.0272520" lon="-2.4279430">
        <ele>315.4</ele>
        <time>2019-10-18T17:54:45Z</time>
      </trkpt>
      <trkpt lat="37.0272050" lon="-2.4279380">
        <ele>315.6</ele>
        <time>2019-10-18T17:54:46Z</time>
      </trkpt>
      <trkpt lat="37.0271590" lon="-2.4279320">
        <ele>315.8</ele>
        <time>2019-10-18T17:54:47Z</time>
      </trkpt>
      <trkpt lat="37.0271130" lon="-2.4279260">
        <ele>316.0</ele>
        <time>2019-10-18T17:54:48Z</time>
      </trkpt>
      <trkpt lat="37.0270670" lon="-2.4279210">
        <ele>316.2</ele>
        <time>2019-10-18T17:54:49Z</time>
      </trkpt>
      <trkpt lat="37.0270210" lon="-2.4279150">
        <ele>316.4</ele>
        <time>2019-10-18T17:54:50Z</time>
      </trkpt>
      <trkpt lat="37.0269740" lon="-2.4279110">
        <ele>316.5</ele>
        <time>2019-10-18T17:54:51Z</time>
      </trkpt>
      <trkpt lat="37.0269280" lon="-2.4279060">
        <ele>316.6</ele>
        <time>2019-10-18T17:54:52Z</time>
      </trkpt>
      <trkpt lat="37.0268810" lon="-2.4279010">
        <ele>316.7</ele>
        <time>2019-10-18T17:54:53Z</time>
      </trkpt>
      <trkpt lat="37.0268340" lon="-2.4278960">
        <ele>316.8</ele>
        <time>2019-10-18T17:54:54Z</time>
      </trkpt>
      <trkpt lat="37.0267870" lon="-2.4278920">
        <ele>316.9</ele>
        <time>2019-10-18T17:54:55Z</time>
      </trkpt>
      <trkpt lat="37.0267400" lon="-2.4278870">
        <ele>317.0</ele>
        <time>2019-10-18T17:54:56Z</time>
      </trkpt>
      <trkpt lat="37.0266920" lon="-2.4278820">
        <ele>317.1</ele>
        <time>2019-10-18T17:54:57Z</time>
      </trkpt>
      <trkpt lat="37.0266450" lon="-2.4278760">
        <ele>317.2</ele>
        <time>2019-10-18T17:54:58Z</time>
      </trkpt>
      <trkpt lat="37.0265990" lon="-2.4278710">
        <ele>317.3</ele>
        <time>2019-10-18T17:54:59Z</time>
      </trkpt>
      <trkpt lat="37.0265520" lon="-2.4278660">
        <ele>317.4</ele>
        <time>2019-10-18T17:55:00Z</time>
      </trkpt>
      <trkpt lat="37.0265050" lon="-2.4278620">
        <ele>317.5</ele>
        <time>2019-10-18T17:55:01Z</time>
      </trkpt>
      <trkpt lat="37.0264580" lon="-2.4278580">
        <ele>317.6</ele>
        <time>2019-10-18T17:55:02Z</time>
      </trkpt>
      <trkpt lat="37.0264100" lon="-2.4278550">
        <ele>317.7</ele>
        <time>2019-10-18T17:55:03Z</time>
      </trkpt>
      <trkpt lat="37.0263610" lon="-2.4278530">
        <ele>317.7</ele>
        <time>2019-10-18T17:55:04Z</time>
      </trkpt>
      <trkpt lat="37.0263100" lon="-2.4278520">
        <ele>317.7</ele>
        <time>2019-10-18T17:55:05Z</time>
      </trkpt>
      <trkpt lat="37.0262590" lon="-2.4278530">
        <ele>317.7</ele>
        <time>2019-10-18T17:55:06Z</time>
      </trkpt>
      <trkpt lat="37.0262070" lon="-2.4278540">
        <ele>317.7</ele>
        <time>2019-10-18T17:55:07Z</time>
      </trkpt>
      <trkpt lat="37.0261550" lon="-2.4278580">
        <ele>317.6</ele>
        <time>2019-10-18T17:55:08Z</time>
      </trkpt>
      <trkpt lat="37.0261020" lon="-2.4278630">
        <ele>317.5</ele>
        <time>2019-10-18T17:55:09Z</time>
      </trkpt>
      <trkpt lat="37.0260490" lon="-2.4278710">
        <ele>317.4</ele>
        <time>2019-10-18T17:55:10Z</time>
      </trkpt>
      <trkpt lat="37.0259960" lon="-2.4278800">
        <ele>317.3</ele>
        <time>2019-10-18T17:55:11Z</time>
      </trkpt>
      <trkpt lat="37.0259430" lon="-2.4278910">
        <ele>317.2</ele>
        <time>2019-10-18T17:55:12Z</time>
      </trkpt>
      <trkpt lat="37.0258890" lon="-2.4279060">
        <ele>317.0</ele>
        <time>2019-10-18T17:55:13Z</time>
      </trkpt>
      <trkpt lat="37.0258350" lon="-2.4279250">
        <ele>316.9</ele>
        <time>2019-10-18T17:55:14Z</time>
      </trkpt>
      <trkpt lat="37.0257820" lon="-2.4279460">
        <ele>316.8</ele>
        <time>2019-10-18T17:55:15Z</time>
      </trkpt>
      <trkpt lat="37.0257300" lon="-2.4279690">
        <ele>316.7</ele>
        <time>2019-10-18T17:55:16Z</time>
      </trkpt>
      <trkpt lat="37.0256770" lon="-2.4279940">
        <ele>316.6</ele>
        <time>2019-10-18T17:55:17Z</time>
      </trkpt>
      <trkpt lat="37.0256260" lon="-2.4280210">
        <ele>316.5</ele>
        <time>2019-10-18T17:55:18Z</time>
      </trkpt>
      <trkpt lat="37.0255750" lon="-2.4280500">
        <ele>316.3</ele>
        <time>2019-10-18T17:55:19Z</time>
      </trkpt>
      <trkpt lat="37.0255250" lon="-2.4280820">
        <ele>316.1</ele>
        <time>2019-10-18T17:55:20Z</time>
      </trkpt>
      <trkpt lat="37.0254750" lon="-2.4281150">
        <ele>315.9</ele>
        <time>2019-10-18T17:55:21Z</time>
      </trkpt>
      <trkpt lat="37.0254280" lon="-2.4281510">
        <ele>315.7</ele>
        <time>2019-10-18T17:55:22Z</time>
      </trkpt>
      <trkpt lat="37.0253810" lon="-2.4281910">
        <ele>315.5</ele>
        <time>2019-10-18T17:55:23Z</time>
      </trkpt>
      <trkpt lat="37.0253350" lon="-2.4282330">
        <ele>315.3</ele>
        <time>2019-10-18T17:55:24Z</time>
      </trkpt>
      <trkpt lat="37.0252900" lon="-2.4282780">
        <ele>315.1</ele>
        <time>2019-10-18T17:55:25Z</time>
      </trkpt>
      <trkpt lat="37.0252450" lon="-2.4283240">
        <ele>314.9</ele>
        <time>2019-10-18T17:55:26Z</time>
      </trkpt>
      <trkpt lat="37.0252000" lon="-2.4283720">
        <ele>314.7</ele>
        <time>2019-10-18T17:55:27Z</time>
      </trkpt>
      <trkpt lat="37.0251560" lon="-2.4284230">
        <ele>314.4</ele>
        <time>2019-10-18T17:55:28Z</time>
      </trkpt>
      <trkpt lat="37.0251130" lon="-2.4284770">
        <ele>314.2</ele>
        <time>2019-10-18T17:55:29Z</time>
      </trkpt>
      <trkpt lat="37.0250710" lon="-2.4285340">
        <ele>313.9</ele>
        <time>2019-10-18T17:55:30Z</time>
      </trkpt>
      <trkpt lat="37.0250290" lon="-2.4285930">
        <ele>313.6</ele>
        <time>2019-10-18T17:55:31Z</time>
      </trkpt>
      <trkpt lat="37.0249890" lon="-2.4286540">
        <ele>313.3</ele>
        <time>2019-10-18T17:55:32Z</time>
      </trkpt>
      <trkpt lat="37.0249520" lon="-2.4287180">
        <ele>313.0</ele>
        <time>2019-10-18T17:55:33Z</time>
      </trkpt>
      <trkpt lat="37.0249180" lon="-2.4287830">
        <ele>312.7</ele>
        <time>2019-10-18T17:55:34Z</time>
      </trkpt>
      <trkpt lat="37.0248870" lon="-2.4288490">
        <ele>312.4</ele>
        <time>2019-10-18T17:55:35Z</time>
      </trkpt>
      <trkpt lat="37.0248580" lon="-2.4289180">
        <ele>312.2</ele>
        <time>2019-10-18T17:55:36Z</time>
      </trkpt>
      <trkpt lat="37.0248310" lon="-2.4289870">
        <ele>312.0</ele>
        <time>2019-10-18T17:55:37Z</time>
      </trkpt>
      <trkpt lat="37.0248060" lon="-2.4290580">
        <ele>311.8</ele>
        <time>2019-10-18T17:55:38Z</time>
      </trkpt>
      <trkpt lat="37.0247810" lon="-2.4291300">
        <ele>311.7</ele>
        <time>2019-10-18T17:55:39Z</time>
      </trkpt>
      <trkpt lat="37.0247570" lon="-2.4292030">
        <ele>311.6</ele>
        <time>2019-10-18T17:55:40Z</time>
      </trkpt>
      <trkpt lat="37.0247350" lon="-2.4292790">
        <ele>311.5</ele>
        <time>2019-10-18T17:55:41Z</time>
      </trkpt>
      <trkpt lat="37.0247140" lon="-2.4293570">
        <ele>311.3</ele>
        <time>2019-10-18T17:55:42Z</time>
      </trkpt>
      <trkpt lat="37.0246930" lon="-2.4294370">
        <ele>310.9</ele>
        <time>2019-10-18T17:55:43Z</time>
      </trkpt>
      <trkpt lat="37.0246710" lon="-2.4295180">
        <ele>310.5</ele>
        <time>2019-10-18T17:55:44Z</time>
      </trkpt>
      <trkpt lat="37.0246490" lon="-2.4296020">
        <ele>310.1</ele>
        <time>2019-10-18T17:55:45Z</time>
      </trkpt>
      <trkpt lat="37.0246270" lon="-2.4296870">
        <ele>309.6</ele>
        <time>2019-10-18T17:55:46Z</time>
      </trkpt>
      <trkpt lat="37.0246050" lon="-2.4297730">
        <ele>309.2</ele>
        <time>2019-10-18T17:55:47Z</time>
      </trkpt>
      <trkpt lat="37.0245830" lon="-2.4298610">
        <ele>308.7</ele>
        <time>2019-10-18T17:55:48Z</time>
      </trkpt>
      <trkpt lat="37.0245600" lon="-2.4299510">
        <ele>308.3</ele>
        <time>2019-10-18T17:55:49Z</time>
      </trkpt>
      <trkpt lat="37.0245370" lon="-2.4300410">
        <ele>307.9</ele>
        <time>2019-10-18T17:55:50Z</time>
      </trkpt>
      <trkpt lat="37.0245130" lon="-2.4301330">
        <ele>307.4</ele>
        <time>2019-10-18T17:55:51Z</time>
      </trkpt>
      <trkpt lat="37.0244890" lon="-2.4302280">
        <ele>306.9</ele>
        <time>2019-10-18T17:55:52Z</time>
      </trkpt>
      <trkpt lat="37.0244650" lon="-2.4303250">
        <ele>306.4</ele>
        <time>2019-10-18T17:55:53Z</time>
      </trkpt>
      <trkpt lat="37.0244410" lon="-2.4304240">
        <ele>305.9</ele>
        <time>2019-10-18T17:55:54Z</time>
      </trkpt>
      <trkpt lat="37.0244170" lon="-2.4305260">
        <ele>305.4</ele>
        <time>2019-10-18T17:55:55Z</time>
      </trkpt>
      <trkpt lat="37.0243910" lon="-2.4306300">
        <ele>304.9</ele>
        <time>2019-10-18T17:55:56Z</time>
      </trkpt>
      <trkpt lat="37.0243650" lon="-2.4307370">
        <ele>304.2</ele>
        <time>2019-10-18T17:55:57Z</time>
      </trkpt>
      <trkpt lat="37.0243390" lon="-2.4308450">
        <ele>303.7</ele>
        <time>2019-10-18T17:55:58Z</time>
      </trkpt>
      <trkpt lat="37.0243130" lon="-2.4309550">
        <ele>303.1</ele>
        <time>2019-10-18T17:55:59Z</time>
      </trkpt>
      <trkpt lat="37.0242870" lon="-2.4310640">
        <ele>302.5</ele>
        <time>2019-10-18T17:56:00Z</time>
      </trkpt>
      <trkpt lat="37.0242590" lon="-2.4311730">
        <ele>301.8</ele>
        <time>2019-10-18T17:56:01Z</time>
      </trkpt>
      <trkpt lat="37.0242320" lon="-2.4312800">
        <ele>301.0</ele>
        <time>2019-10-18T17:56:02Z</time>
      </trkpt>
      <trkpt lat="37.0242040" lon="-2.4313880">
        <ele>300.1</ele>
        <time>2019-10-18T17:56:03Z</time>
      </trkpt>
      <trkpt lat="37.0241760" lon="-2.4314950">
        <ele>299.3</ele>
        <time>2019-10-18T17:56:04Z</time>
      </trkpt>
      <trkpt lat="37.0241480" lon="-2.4316030">
        <ele>298.4</ele>
        <time>2019-10-18T17:56:05Z</time>
      </trkpt>
      <trkpt lat="37.0241210" lon="-2.4317090">
        <ele>297.4</ele>
        <time>2019-10-18T17:56:06Z</time>
      </trkpt>
      <trkpt lat="37.0240920" lon="-2.4318140">
        <ele>296.5</ele>
        <time>2019-10-18T17:56:07Z</time>
      </trkpt>
      <trkpt lat="37.0240610" lon="-2.4319180">
        <ele>295.6</ele>
        <time>2019-10-18T17:56:08Z</time>
      </trkpt>
      <trkpt lat="37.0240240" lon="-2.4320210">
        <ele>294.7</ele>
        <time>2019-10-18T17:56:09Z</time>
      </trkpt>
      <trkpt lat="37.0239820" lon="-2.4321220">
        <ele>294.1</ele>
        <time>2019-10-18T17:56:10Z</time>
      </trkpt>
      <trkpt lat="37.0239330" lon="-2.4322200">
        <ele>293.8</ele>
        <time>2019-10-18T17:56:11Z</time>
      </trkpt>
      <trkpt lat="37.0238760" lon="-2.4323110">
        <ele>293.6</ele>
        <time>2019-10-18T17:56:12Z</time>
      </trkpt>
      <trkpt lat="37.0238120" lon="-2.4323950">
        <ele>293.4</ele>
        <time>2019-10-18T17:56:13Z</time>
      </trkpt>
      <trkpt lat="37.0237390" lon="-2.4324710">
        <ele>292.9</ele>
        <time>2019-10-18T17:56:14Z</time>
      </trkpt>
      <trkpt lat="37.0236610" lon="-2.4325410">
        <ele>292.4</ele>
        <time>2019-10-18T17:56:15Z</time>
      </trkpt>
      <trkpt lat="37.0235780" lon="-2.4326080">
        <ele>291.9</ele>
        <time>2019-10-18T17:56:16Z</time>
      </trkpt>
      <trkpt lat="37.0234920" lon="-2.4326710">
        <ele>291.4</ele>
        <time>2019-10-18T17:56:17Z</time>
      </trkpt>
      <trkpt lat="37.0234040" lon="-2.4327320">
        <ele>291.0</ele>
        <time>2019-10-18T17:56:18Z</time>
      </trkpt>
      <trkpt lat="37.0233170" lon="-2.4327910">
        <ele>290.8</ele>
        <time>2019-10-18T17:56:19Z</time>
      </trkpt>
      <trkpt lat="37.0232320" lon="-2.4328490">
        <ele>290.8</ele>
        <time>2019-10-18T17:56:20Z</time>
      </trkpt>
      <trkpt lat="37.0231480" lon="-2.4329060">
        <ele>290.8</ele>
        <time>2019-10-18T17:56:21Z</time>
      </trkpt>
      <trkpt lat="37.0230640" lon="-2.4329630">
        <ele>290.9</ele>
        <time>2019-10-18T17:56:22Z</time>
      </trkpt>
      <trkpt lat="37.0229820" lon="-2.4330200">
        <ele>291.1</ele>
        <time>2019-10-18T17:56:23Z</time>
      </trkpt>
      <trkpt lat="37.0229000" lon="-2.4330770">
        <ele>291.5</ele>
        <time>2019-10-18T17:56:24Z</time>
      </trkpt>
      <trkpt lat="37.0228190" lon="-2.4331340">
        <ele>291.8</ele>
        <time>2019-10-18T17:56:25Z</time>
      </trkpt>
      <trkpt lat="37.0227400" lon="-2.4331890">
        <ele>292.3</ele>
        <time>2019-10-18T17:56:26Z</time>
      </trkpt>
      <trkpt lat="37.0226630" lon="-2.4332410">
        <ele>292.7</ele>
        <time>2019-10-18T17:56:27Z</time>
      </trkpt>
      <trkpt lat="37.0225870" lon="-2.4332920">
        <ele>293.2</ele>
        <time>2019-10-18T17:56:28Z</time>
      </trkpt>
      <trkpt lat="37.0225130" lon="-2.4333420">
        <ele>293.6</ele>
        <time>2019-10-18T17:56:29Z</time>
      </trkpt>
      <trkpt lat="37.0224400" lon="-2.4333930">
        <ele>293.9</ele>
        <time>2019-10-18T17:56:30Z</time>
      </trkpt>
      <trkpt lat="37.0223690" lon="-2.4334430">
        <ele>294.2</ele>
        <time>2019-10-18T17:56:31Z</time>
      </trkpt>
      <trkpt lat="37.0222980" lon="-2.4334920">
        <ele>294.4</ele>
        <time>2019-10-18T17:56:32Z</time>
      </trkpt>
      <trkpt lat="37.0222280" lon="-2.4335410">
        <ele>294.5</ele>
        <time>2019-10-18T17:56:33Z</time>
      </trkpt>
      <trkpt lat="37.0221590" lon="-2.4335880">
        <ele>294.6</ele>
        <time>2019-10-18T17:56:34Z</time>
      </trkpt>
      <trkpt lat="37.0220920" lon="-2.4336330">
        <ele>294.6</ele>
        <time>2019-10-18T17:56:35Z</time>
      </trkpt>
      <trkpt lat="37.0220280" lon="-2.4336760">
        <ele>294.6</ele>
        <time>2019-10-18T17:56:36Z</time>
      </trkpt>
      <trkpt lat="37.0219670" lon="-2.4337180">
        <ele>294.6</ele>
        <time>2019-10-18T17:56:37Z</time>
      </trkpt>
      <trkpt lat="37.0219090" lon="-2.4337590">
        <ele>294.6</ele>
        <time>2019-10-18T17:56:38Z</time>
      </trkpt>
      <trkpt lat="37.0218530" lon="-2.4338020">
        <ele>294.6</ele>
        <time>2019-10-18T17:56:39Z</time>
      </trkpt>
      <trkpt lat="37.0217980" lon="-2.4338440">
        <ele>294.6</ele>
        <time>2019-10-18T17:56:40Z</time>
      </trkpt>
      <trkpt lat="37.0217440" lon="-2.4338880">
        <ele>294.6</ele>
        <time>2019-10-18T17:56:41Z</time>
      </trkpt>
      <trkpt lat="37.0216930" lon="-2.4339350">
        <ele>294.6</ele>
        <time>2019-10-18T17:56:42Z</time>
      </trkpt>
      <trkpt lat="37.0216450" lon="-2.4339850">
        <ele>294.6</ele>
        <time>2019-10-18T17:56:43Z</time>
      </trkpt>
      <trkpt lat="37.0216010" lon="-2.4340400">
        <ele>294.6</ele>
        <time>2019-10-18T17:56:44Z</time>
      </trkpt>
      <trkpt lat="37.0215630" lon="-2.4340980">
        <ele>294.5</ele>
        <time>2019-10-18T17:56:45Z</time>
      </trkpt>
      <trkpt lat="37.0215270" lon="-2.4341590">
        <ele>294.5</ele>
        <time>2019-10-18T17:56:46Z</time>
      </trkpt>
      <trkpt lat="37.0214940" lon="-2.4342230">
        <ele>294.4</ele>
        <time>2019-10-18T17:56:47Z</time>
      </trkpt>
      <trkpt lat="37.0214630" lon="-2.4342890">
        <ele>294.2</ele>
        <time>2019-10-18T17:56:48Z</time>
      </trkpt>
      <trkpt lat="37.0214340" lon="-2.4343570">
        <ele>294.0</ele>
        <time>2019-10-18T17:56:49Z</time>
      </trkpt>
      <trkpt lat="37.0214040" lon="-2.4344260">
        <ele>293.9</ele>
        <time>2019-10-18T17:56:50Z</time>
      </trkpt>
      <trkpt lat="37.0213750" lon="-2.4344960">
        <ele>293.7</ele>
        <time>2019-10-18T17:56:51Z</time>
      </trkpt>
      <trkpt lat="37.0213450" lon="-2.4345680">
        <ele>293.5</ele>
        <time>2019-10-18T17:56:52Z</time>
      </trkpt>
      <trkpt lat="37.0213140" lon="-2.4346420">
        <ele>293.3</ele>
        <time>2019-10-18T17:56:53Z</time>
      </trkpt>
      <trkpt lat="37.0212820" lon="-2.4347160">
        <ele>293.0</ele>
        <time>2019-10-18T17:56:54Z</time>
      </trkpt>
      <trkpt lat="37.0212500" lon="-2.4347910">
        <ele>292.6</ele>
        <time>2019-10-18T17:56:55Z</time>
      </trkpt>
      <trkpt lat="37.0212180" lon="-2.4348680">
        <ele>292.0</ele>
        <time>2019-10-18T17:56:56Z</time>
      </trkpt>
      <trkpt lat="37.0211870" lon="-2.4349460">
        <ele>291.6</ele>
        <time>2019-10-18T17:56:57Z</time>
      </trkpt>
      <trkpt lat="37.0211550" lon="-2.4350250">
        <ele>291.2</ele>
        <time>2019-10-18T17:56:58Z</time>
      </trkpt>
      <trkpt lat="37.0211230" lon="-2.4351050">
        <ele>290.8</ele>
        <time>2019-10-18T17:56:59Z</time>
      </trkpt>
      <trkpt lat="37.0210900" lon="-2.4351880">
        <ele>290.3</ele>
        <time>2019-10-18T17:57:00Z</time>
      </trkpt>
      <trkpt lat="37.0210560" lon="-2.4352730">
        <ele>289.8</ele>
        <time>2019-10-18T17:57:01Z</time>
      </trkpt>
      <trkpt lat="37.0210210" lon="-2.4353600">
        <ele>289.5</ele>
        <time>2019-10-18T17:57:02Z</time>
      </trkpt>
      <trkpt lat="37.0209880" lon="-2.4354450">
        <ele>289.2</ele>
        <time>2019-10-18T17:57:03Z</time>
      </trkpt>
      <trkpt lat="37.0209540" lon="-2.4355290">
        <ele>288.9</ele>
        <time>2019-10-18T17:57:04Z</time>
      </trkpt>
      <trkpt lat="37.0209200" lon="-2.4356140">
        <ele>288.6</ele>
        <time>2019-10-18T17:57:05Z</time>
      </trkpt>
      <trkpt lat="37.0208850" lon="-2.4356980">
        <ele>288.2</ele>
        <time>2019-10-18T17:57:06Z</time>
      </trkpt>
      <trkpt lat="37.0208500" lon="-2.4357820">
        <ele>288.0</ele>
        <time>2019-10-18T17:57:07Z</time>
      </trkpt>
      <trkpt lat="37.0208150" lon="-2.4358660">
        <ele>287.7</ele>
        <time>2019-10-18T17:57:08Z</time>
      </trkpt>
      <trkpt lat="37.0207800" lon="-2.4359490">
        <ele>287.4</ele>
        <time>2019-10-18T17:57:09Z</time>
      </trkpt>
      <trkpt lat="37.0207460" lon="-2.4360310">
        <ele>287.1</ele>
        <time>2019-10-18T17:57:10Z</time>
      </trkpt>
      <trkpt lat="37.0207130" lon="-2.4361130">
        <ele>286.9</ele>
        <time>2019-10-18T17:57:11Z</time>
      </trkpt>
      <trkpt lat="37.0206800" lon="-2.4361970">
        <ele>286.6</ele>
        <time>2019-10-18T17:57:12Z</time>
      </trkpt>
      <trkpt lat="37.0206480" lon="-2.4362820">
        <ele>286.4</ele>
        <time>2019-10-18T17:57:13Z</time>
      </trkpt>
      <trkpt lat="37.0206170" lon="-2.4363710">
        <ele>286.1</ele>
        <time>2019-10-18T17:57:14Z</time>
      </trkpt>
      <trkpt lat="37.0205890" lon="-2.4364630">
        <ele>285.8</ele>
        <time>2019-10-18T17:57:15Z</time>
      </trkpt>
      <trkpt lat="37.0205630" lon="-2.4365570">
        <ele>285.5</ele>
        <time>2019-10-18T17:57:16Z</time>
      </trkpt>
      <trkpt lat="37.0205400" lon="-2.4366520">
        <ele>285.2</ele>
        <time>2019-10-18T17:57:17Z</time>
      </trkpt>
      <trkpt lat="37.0205190" lon="-2.4367500">
        <ele>284.8</ele>
        <time>2019-10-18T17:57:18Z</time>
      </trkpt>
      <trkpt lat="37.0204990" lon="-2.4368500">
        <ele>284.5</ele>
        <time>2019-10-18T17:57:19Z</time>
      </trkpt>
      <trkpt lat="37.0204800" lon="-2.4369540">
        <ele>284.2</ele>
        <time>2019-10-18T17:57:20Z</time>
      </trkpt>
      <trkpt lat="37.0204610" lon="-2.4370590">
        <ele>283.8</ele>
        <time>2019-10-18T17:57:21Z</time>
      </trkpt>
      <trkpt lat="37.0204430" lon="-2.4371650">
        <ele>283.4</ele>
        <time>2019-10-18T17:57:22Z</time>
      </trkpt>
      <trkpt lat="37.0204250" lon="-2.4372710">
        <ele>283.1</ele>
        <time>2019-10-18T17:57:23Z</time>
      </trkpt>
      <trkpt lat="37.0204080" lon="-2.4373750">
        <ele>282.7</ele>
        <time>2019-10-18T17:57:24Z</time>
      </trkpt>
      <trkpt lat="37.0203920" lon="-2.4374770">
        <ele>282.4</ele>
        <time>2019-10-18T17:57:25Z</time>
      </trkpt>
      <trkpt lat="37.0203760" lon="-2.4375780">
        <ele>282.0</ele>
        <time>2019-10-18T17:57:26Z</time>
      </trkpt>
      <trkpt lat="37.0203610" lon="-2.4376810">
        <ele>281.6</ele>
        <time>2019-10-18T17:57:27Z</time>
      </trkpt>
      <trkpt lat="37.0203450" lon="-2.4377850">
        <ele>281.2</ele>
        <time>2019-10-18T17:57:28Z</time>
      </trkpt>
      <trkpt lat="37.0203300" lon="-2.4378910">
        <ele>280.9</ele>
        <time>2019-10-18T17:57:29Z</time>
      </trkpt>
      <trkpt lat="37.0203140" lon="-2.4379970">
        <ele>280.6</ele>
        <time>2019-10-18T17:57:30Z</time>
      </trkpt>
      <trkpt lat="37.0202990" lon="-2.4381020">
        <ele>280.3</ele>
        <time>2019-10-18T17:57:31Z</time>
      </trkpt>
      <trkpt lat="37.0202850" lon="-2.4382050">
        <ele>280.0</ele>
        <time>2019-10-18T17:57:32Z</time>
      </trkpt>
      <trkpt lat="37.0202690" lon="-2.4383080">
        <ele>279.6</ele>
        <time>2019-10-18T17:57:33Z</time>
      </trkpt>
      <trkpt lat="37.0202540" lon="-2.4384100">
        <ele>279.3</ele>
        <time>2019-10-18T17:57:34Z</time>
      </trkpt>
      <trkpt lat="37.0202380" lon="-2.4385130">
        <ele>279.0</ele>
        <time>2019-10-18T17:57:35Z</time>
      </trkpt>
      <trkpt lat="37.0202220" lon="-2.4386160">
        <ele>278.5</ele>
        <time>2019-10-18T17:57:36Z</time>
      </trkpt>
      <trkpt lat="37.0202060" lon="-2.4387210">
        <ele>278.2</ele>
        <time>2019-10-18T17:57:37Z</time>
      </trkpt>
      <trkpt lat="37.0201900" lon="-2.4388270">
        <ele>278.0</ele>
        <time>2019-10-18T17:57:38Z</time>
      </trkpt>
      <trkpt lat="37.0201740" lon="-2.4389340">
        <ele>277.7</ele>
        <time>2019-10-18T17:57:39Z</time>
      </trkpt>
      <trkpt lat="37.0201590" lon="-2.4390410">
        <ele>277.4</ele>
        <time>2019-10-18T17:57:40Z</time>
      </trkpt>
      <trkpt lat="37.0201430" lon="-2.4391470">
        <ele>276.9</ele>
        <time>2019-10-18T17:57:41Z</time>
      </trkpt>
      <trkpt lat="37.0201260" lon="-2.4392530">
        <ele>276.5</ele>
        <time>2019-10-18T17:57:42Z</time>
      </trkpt>
      <trkpt lat="37.0201100" lon="-2.4393590">
        <ele>276.1</ele>
        <time>2019-10-18T17:57:43Z</time>
      </trkpt>
      <trkpt lat="37.0200940" lon="-2.4394650">
        <ele>275.6</ele>
        <time>2019-10-18T17:57:44Z</time>
      </trkpt>
      <trkpt lat="37.0200780" lon="-2.4395710">
        <ele>274.8</ele>
        <time>2019-10-18T17:57:45Z</time>
      </trkpt>
      <trkpt lat="37.0200610" lon="-2.4396760">
        <ele>274.4</ele>
        <time>2019-10-18T17:57:46Z</time>
      </trkpt>
      <trkpt lat="37.0200450" lon="-2.4397810">
        <ele>274.1</ele>
        <time>2019-10-18T17:57:47Z</time>
      </trkpt>
      <trkpt lat="37.0200280" lon="-2.4398860">
        <ele>273.7</ele>
        <time>2019-10-18T17:57:48Z</time>
      </trkpt>
      <trkpt lat="37.0200090" lon="-2.4399920">
        <ele>273.3</ele>
        <time>2019-10-18T17:57:49Z</time>
      </trkpt>
      <trkpt lat="37.0199880" lon="-2.4400970">
        <ele>272.7</ele>
        <time>2019-10-18T17:57:50Z</time>
      </trkpt>
      <trkpt lat="37.0199640" lon="-2.4402020">
        <ele>272.4</ele>
        <time>2019-10-18T17:57:51Z</time>
      </trkpt>
      <trkpt lat="37.0199380" lon="-2.4403070">
        <ele>272.1</ele>
        <time>2019-10-18T17:57:52Z</time>
      </trkpt>
      <trkpt lat="37.0199070" lon="-2.4404110">
        <ele>271.8</ele>
        <time>2019-10-18T17:57:53Z</time>
      </trkpt>
      <trkpt lat="37.0198730" lon="-2.4405150">
        <ele>271.5</ele>
        <time>2019-10-18T17:57:54Z</time>
      </trkpt>
      <trkpt lat="37.0198330" lon="-2.4406170">
        <ele>271.1</ele>
        <time>2019-10-18T17:57:55Z</time>
      </trkpt>
      <trkpt lat="37.0197900" lon="-2.4407180">
        <ele>270.7</ele>
        <time>2019-10-18T17:57:56Z</time>
      </trkpt>
      <trkpt lat="37.0197440" lon="-2.4408140">
        <ele>270.2</ele>
        <time>2019-10-18T17:57:57Z</time>
      </trkpt>
      <trkpt lat="37.0196950" lon="-2.4409050">
        <ele>269.9</ele>
        <time>2019-10-18T17:57:58Z</time>
      </trkpt>
      <trkpt lat="37.0196430" lon="-2.4409920">
        <ele>269.5</ele>
        <time>2019-10-18T17:57:59Z</time>
      </trkpt>
      <trkpt lat="37.0195900" lon="-2.4410750">
        <ele>268.9</ele>
        <time>2019-10-18T17:58:00Z</time>
      </trkpt>
      <trkpt lat="37.0195340" lon="-2.4411560">
        <ele>268.2</ele>
        <time>2019-10-18T17:58:01Z</time>
      </trkpt>
      <trkpt lat="37.0194750" lon="-2.4412320">
        <ele>267.6</ele>
        <time>2019-10-18T17:58:02Z</time>
      </trkpt>
      <trkpt lat="37.0194150" lon="-2.4413050">
        <ele>267.0</ele>
        <time>2019-10-18T17:58:03Z</time>
      </trkpt>
      <trkpt lat="37.0193530" lon="-2.4413730">
        <ele>266.4</ele>
        <time>2019-10-18T17:58:04Z</time>
      </trkpt>
      <trkpt lat="37.0192890" lon="-2.4414390">
        <ele>265.8</ele>
        <time>2019-10-18T17:58:05Z</time>
      </trkpt>
      <trkpt lat="37.0192240" lon="-2.4415030">
        <ele>265.3</ele>
        <time>2019-10-18T17:58:06Z</time>
      </trkpt>
      <trkpt lat="37.0191590" lon="-2.4415660">
        <ele>264.7</ele>
        <time>2019-10-18T17:58:07Z</time>
      </trkpt>
      <trkpt lat="37.0190920" lon="-2.4416290">
        <ele>264.1</ele>
        <time>2019-10-18T17:58:08Z</time>
      </trkpt>
      <trkpt lat="37.0190250" lon="-2.4416930">
        <ele>263.6</ele>
        <time>2019-10-18T17:58:09Z</time>
      </trkpt>
      <trkpt lat="37.0189570" lon="-2.4417580">
        <ele>263.0</ele>
        <time>2019-10-18T17:58:10Z</time>
      </trkpt>
      <trkpt lat="37.0188890" lon="-2.4418250">
        <ele>262.5</ele>
        <time>2019-10-18T17:58:11Z</time>
      </trkpt>
      <trkpt lat="37.0188240" lon="-2.4418990">
        <ele>261.9</ele>
        <time>2019-10-18T17:58:12Z</time>
      </trkpt>
      <trkpt lat="37.0187670" lon="-2.4419820">
        <ele>261.4</ele>
        <time>2019-10-18T17:58:13Z</time>
      </trkpt>
      <trkpt lat="37.0187180" lon="-2.4420750">
        <ele>260.3</ele>
        <time>2019-10-18T17:58:14Z</time>
      </trkpt>
      <trkpt lat="37.0186810" lon="-2.4421720">
        <ele>259.5</ele>
        <time>2019-10-18T17:58:15Z</time>
      </trkpt>
      <trkpt lat="37.0186590" lon="-2.4422760">
        <ele>259.5</ele>
        <time>2019-10-18T17:58:16Z</time>
      </trkpt>
      <trkpt lat="37.0186490" lon="-2.4423830">
        <ele>260.0</ele>
        <time>2019-10-18T17:58:17Z</time>
      </trkpt>
      <trkpt lat="37.0186500" lon="-2.4424900">
        <ele>260.5</ele>
        <time>2019-10-18T17:58:18Z</time>
      </trkpt>
      <trkpt lat="37.0186540" lon="-2.4425910">
        <ele>261.0</ele>
        <time>2019-10-18T17:58:19Z</time>
      </trkpt>
      <trkpt lat="37.0186580" lon="-2.4426890">
        <ele>261.5</ele>
        <time>2019-10-18T17:58:20Z</time>
      </trkpt>
      <trkpt lat="37.0186620" lon="-2.4427830">
        <ele>262.0</ele>
        <time>2019-10-18T17:58:21Z</time>
      </trkpt>
      <trkpt lat="37.0186650" lon="-2.4428740">
        <ele>262.6</ele>
        <time>2019-10-18T17:58:22Z</time>
      </trkpt>
      <trkpt lat="37.0186680" lon="-2.4429600">
        <ele>263.1</ele>
        <time>2019-10-18T17:58:23Z</time>
      </trkpt>
      <trkpt lat="37.0186720" lon="-2.4430420">
        <ele>263.6</ele>
        <time>2019-10-18T17:58:24Z</time>
      </trkpt>
      <trkpt lat="37.0186760" lon="-2.4431210">
        <ele>264.1</ele>
        <time>2019-10-18T17:58:25Z</time>
      </trkpt>
      <trkpt lat="37.0186800" lon="-2.4431990">
        <ele>264.7</ele>
        <time>2019-10-18T17:58:26Z</time>
      </trkpt>
      <trkpt lat="37.0186840" lon="-2.4432730">
        <ele>265.3</ele>
        <time>2019-10-18T17:58:27Z</time>
      </trkpt>
      <trkpt lat="37.0186870" lon="-2.4433440">
        <ele>265.9</ele>
        <time>2019-10-18T17:58:28Z</time>
      </trkpt>
      <trkpt lat="37.0186910" lon="-2.4434130">
        <ele>266.4</ele>
        <time>2019-10-18T17:58:29Z</time>
      </trkpt>
      <trkpt lat="37.0186940" lon="-2.4434830">
        <ele>267.0</ele>
        <time>2019-10-18T17:58:30Z</time>
      </trkpt>
      <trkpt lat="37.0186970" lon="-2.4435510">
        <ele>267.6</ele>
        <time>2019-10-18T17:58:31Z</time>
      </trkpt>
      <trkpt lat="37.0187000" lon="-2.4436160">
        <ele>268.1</ele>
        <time>2019-10-18T17:58:32Z</time>
      </trkpt>
      <trkpt lat="37.0187030" lon="-2.4436770">
        <ele>269.0</ele>
        <time>2019-10-18T17:58:33Z</time>
      </trkpt>
      <trkpt lat="37.0187100" lon="-2.4437300">
        <ele>269.9</ele>
        <time>2019-10-18T17:58:34Z</time>
      </trkpt>
      <trkpt lat="37.0187230" lon="-2.4437740">
        <ele>270.7</ele>
        <time>2019-10-18T17:58:35Z</time>
      </trkpt>
      <trkpt lat="37.0187430" lon="-2.4438090">
        <ele>271.5</ele>
        <time>2019-10-18T17:58:36Z</time>
      </trkpt>
      <trkpt lat="37.0187690" lon="-2.4438410">
        <ele>272.2</ele>
        <time>2019-10-18T17:58:37Z</time>
      </trkpt>
      <trkpt lat="37.0187980" lon="-2.4438710">
        <ele>273.0</ele>
        <time>2019-10-18T17:58:38Z</time>
      </trkpt>
      <trkpt lat="37.0188250" lon="-2.4439070">
        <ele>275.0</ele>
        <time>2019-10-18T17:58:39Z</time>
      </trkpt>
      <trkpt lat="37.0188510" lon="-2.4439480">
        <ele>275.7</ele>
        <time>2019-10-18T17:58:40Z</time>
      </trkpt>
      <trkpt lat="37.0188700" lon="-2.4439900">
        <ele>276.3</ele>
        <time>2019-10-18T17:58:41Z</time>
      </trkpt>
      <trkpt lat="37.0188850" lon="-2.4440320">
        <ele>276.9</ele>
        <time>2019-10-18T17:58:42Z</time>
      </trkpt>
      <trkpt lat="37.0188910" lon="-2.4440720">
        <ele>277.1</ele>
        <time>2019-10-18T17:58:43Z</time>
      </trkpt>
      <trkpt lat="37.0188920" lon="-2.4441100">
        <ele>277.2</ele>
        <time>2019-10-18T17:58:44Z</time>
      </trkpt>
      <trkpt lat="37.0188840" lon="-2.4441490">
        <ele>277.3</ele>
        <time>2019-10-18T17:58:45Z</time>
      </trkpt>
      <trkpt lat="37.0188740" lon="-2.4441840">
        <ele>277.4</ele>
        <time>2019-10-18T17:58:46Z</time>
      </trkpt>
      <trkpt lat="37.0188610" lon="-2.4442190">
        <ele>277.6</ele>
        <time>2019-10-18T17:58:47Z</time>
      </trkpt>
      <trkpt lat="37.0188470" lon="-2.4442560">
        <ele>277.7</ele>
        <time>2019-10-18T17:58:48Z</time>
      </trkpt>
      <trkpt lat="37.0188290" lon="-2.4442960">
        <ele>278.0</ele>
        <time>2019-10-18T17:58:49Z</time>
      </trkpt>
      <trkpt lat="37.0188100" lon="-2.4443370">
        <ele>278.1</ele>
        <time>2019-10-18T17:58:50Z</time>
      </trkpt>
      <trkpt lat="37.0187920" lon="-2.4443770">
        <ele>278.3</ele>
        <time>2019-10-18T17:58:51Z</time>
      </trkpt>
      <trkpt lat="37.0187790" lon="-2.4444180">
        <ele>278.5</ele>
        <time>2019-10-18T17:58:52Z</time>
      </trkpt>
      <trkpt lat="37.0187690" lon="-2.4444610">
        <ele>278.8</ele>
        <time>2019-10-18T17:58:53Z</time>
      </trkpt>
      <trkpt lat="37.0187620" lon="-2.4445050">
        <ele>279.2</ele>
        <time>2019-10-18T17:58:54Z</time>
      </trkpt>
      <trkpt lat="37.0187560" lon="-2.4445500">
        <ele>279.6</ele>
        <time>2019-10-18T17:58:55Z</time>
      </trkpt>
      <trkpt lat="37.0187500" lon="-2.4445950">
        <ele>280.0</ele>
        <time>2019-10-18T17:58:56Z</time>
      </trkpt>
      <trkpt lat="37.0187470" lon="-2.4446390">
        <ele>280.4</ele>
        <time>2019-10-18T17:58:57Z</time>
      </trkpt>
      <trkpt lat="37.0187500" lon="-2.4446810">
        <ele>280.7</ele>
        <time>2019-10-18T17:58:58Z</time>
      </trkpt>
      <trkpt lat="37.0187520" lon="-2.4447220">
        <ele>281.1</ele>
        <time>2019-10-18T17:58:59Z</time>
      </trkpt>
      <trkpt lat="37.0187510" lon="-2.4447620">
        <ele>281.4</ele>
        <time>2019-10-18T17:59:00Z</time>
      </trkpt>
      <trkpt lat="37.0187490" lon="-2.4448050">
        <ele>281.7</ele>
        <time>2019-10-18T17:59:01Z</time>
      </trkpt>
      <trkpt lat="37.0187490" lon="-2.4448480">
        <ele>282.1</ele>
        <time>2019-10-18T17:59:02Z</time>
      </trkpt>
      <trkpt lat="37.0187540" lon="-2.4448900">
        <ele>282.4</ele>
        <time>2019-10-18T17:59:03Z</time>
      </trkpt>
      <trkpt lat="37.0187590" lon="-2.4449300">
        <ele>282.8</ele>
        <time>2019-10-18T17:59:04Z</time>
      </trkpt>
      <trkpt lat="37.0187660" lon="-2.4449680">
        <ele>283.1</ele>
        <time>2019-10-18T17:59:05Z</time>
      </trkpt>
      <trkpt lat="37.0187730" lon="-2.4450040">
        <ele>283.4</ele>
        <time>2019-10-18T17:59:06Z</time>
      </trkpt>
      <trkpt lat="37.0187830" lon="-2.4450410">
        <ele>283.6</ele>
        <time>2019-10-18T17:59:07Z</time>
      </trkpt>
      <trkpt lat="37.0187970" lon="-2.4450760">
        <ele>283.9</ele>
        <time>2019-10-18T17:59:08Z</time>
      </trkpt>
      <trkpt lat="37.0188180" lon="-2.4451110">
        <ele>284.2</ele>
        <time>2019-10-18T17:59:09Z</time>
      </trkpt>
      <trkpt lat="37.0188440" lon="-2.4451460">
        <ele>284.5</ele>
        <time>2019-10-18T17:59:10Z</time>
      </trkpt>
      <trkpt lat="37.0188710" lon="-2.4451800">
        <ele>284.9</ele>
        <time>2019-10-18T17:59:11Z</time>
      </trkpt>
      <trkpt lat="37.0188980" lon="-2.4452130">
        <ele>285.7</ele>
        <time>2019-10-18T17:59:12Z</time>
      </trkpt>
      <trkpt lat="37.0189190" lon="-2.4452490">
        <ele>286.4</ele>
        <time>2019-10-18T17:59:13Z</time>
      </trkpt>
      <trkpt lat="37.0189380" lon="-2.4452880">
        <ele>287.1</ele>
        <time>2019-10-18T17:59:14Z</time>
      </trkpt>
      <trkpt lat="37.0189510" lon="-2.4453320">
        <ele>288.2</ele>
        <time>2019-10-18T17:59:15Z</time>
      </trkpt>
      <trkpt lat="37.0189600" lon="-2.4453760">
        <ele>287.8</ele>
        <time>2019-10-18T17:59:16Z</time>
      </trkpt>
      <trkpt lat="37.0189630" lon="-2.4454240">
        <ele>287.5</ele>
        <time>2019-10-18T17:59:17Z</time>
      </trkpt>
      <trkpt lat="37.0189610" lon="-2.4454680">
        <ele>287.1</ele>
        <time>2019-10-18T17:59:18Z</time>
      </trkpt>
      <trkpt lat="37.0189520" lon="-2.4455130">
        <ele>286.8</ele>
        <time>2019-10-18T17:59:19Z</time>
      </trkpt>
      <trkpt lat="37.0189380" lon="-2.4455550">
        <ele>286.5</ele>
        <time>2019-10-18T17:59:20Z</time>
      </trkpt>
      <trkpt lat="37.0189160" lon="-2.4455960">
        <ele>286.1</ele>
        <time>2019-10-18T17:59:21Z</time>
      </trkpt>
      <trkpt lat="37.0188900" lon="-2.4456350">
        <ele>285.7</ele>
        <time>2019-10-18T17:59:22Z</time>
      </trkpt>
      <trkpt lat="37.0188600" lon="-2.4456750">
        <ele>285.3</ele>
        <time>2019-10-18T17:59:23Z</time>
      </trkpt>
      <trkpt lat="37.0188350" lon="-2.4457220">
        <ele>284.8</ele>
        <time>2019-10-18T17:59:24Z</time>
      </trkpt>
      <trkpt lat="37.0188170" lon="-2.4457770">
        <ele>283.5</ele>
        <time>2019-10-18T17:59:25Z</time>
      </trkpt>
      <trkpt lat="37.0188040" lon="-2.4458360">
        <ele>283.3</ele>
        <time>2019-10-18T17:59:26Z</time>
      </trkpt>
      <trkpt lat="37.0187910" lon="-2.4458950">
        <ele>283.0</ele>
        <time>2019-10-18T17:59:27Z</time>
      </trkpt>
      <trkpt lat="37.0187750" lon="-2.4459520">
        <ele>282.8</ele>
        <time>2019-10-18T17:59:28Z</time>
      </trkpt>
      <trkpt lat="37.0187550" lon="-2.4460080">
        <ele>282.5</ele>
        <time>2019-10-18T17:59:29Z</time>
      </trkpt>
      <trkpt lat="37.0187300" lon="-2.4460610">
        <ele>282.3</ele>
        <time>2019-10-18T17:59:30Z</time>
      </trkpt>
      <trkpt lat="37.0187030" lon="-2.4461100">
        <ele>282.0</ele>
        <time>2019-10-18T17:59:31Z</time>
      </trkpt>
      <trkpt lat="37.0186730" lon="-2.4461540">
        <ele>281.8</ele>
        <time>2019-10-18T17:59:32Z</time>
      </trkpt>
      <trkpt lat="37.0186400" lon="-2.4461930">
        <ele>281.6</ele>
        <time>2019-10-18T17:59:33Z</time>
      </trkpt>
      <trkpt lat="37.0186050" lon="-2.4462270">
        <ele>281.3</ele>
        <time>2019-10-18T17:59:34Z</time>
      </trkpt>
      <trkpt lat="37.0185690" lon="-2.4462570">
        <ele>281.1</ele>
        <time>2019-10-18T17:59:35Z</time>
      </trkpt>
      <trkpt lat="37.0185300" lon="-2.4462810">
        <ele>280.9</ele>
        <time>2019-10-18T17:59:36Z</time>
      </trkpt>
      <trkpt lat="37.0184880" lon="-2.4463020">
        <ele>280.7</ele>
        <time>2019-10-18T17:59:37Z</time>
      </trkpt>
      <trkpt lat="37.0184450" lon="-2.4463180">
        <ele>280.5</ele>
        <time>2019-10-18T17:59:38Z</time>
      </trkpt>
      <trkpt lat="37.0184000" lon="-2.4463300">
        <ele>280.3</ele>
        <time>2019-10-18T17:59:39Z</time>
      </trkpt>
      <trkpt lat="37.0183550" lon="-2.4463360">
        <ele>280.1</ele>
        <time>2019-10-18T17:59:40Z</time>
      </trkpt>
      <trkpt lat="37.0183100" lon="-2.4463370">
        <ele>279.9</ele>
        <time>2019-10-18T17:59:41Z</time>
      </trkpt>
      <trkpt lat="37.0182670" lon="-2.4463350">
        <ele>279.7</ele>
        <time>2019-10-18T17:59:42Z</time>
      </trkpt>
      <trkpt lat="37.0182240" lon="-2.4463290">
        <ele>279.5</ele>
        <time>2019-10-18T17:59:43Z</time>
      </trkpt>
      <trkpt lat="37.0181800" lon="-2.4463220">
        <ele>279.2</ele>
        <time>2019-10-18T17:59:44Z</time>
      </trkpt>
      <trkpt lat="37.0181350" lon="-2.4463150">
        <ele>279.0</ele>
        <time>2019-10-18T17:59:45Z</time>
      </trkpt>
      <trkpt lat="37.0180890" lon="-2.4463090">
        <ele>278.7</ele>
        <time>2019-10-18T17:59:46Z</time>
      </trkpt>
      <trkpt lat="37.0180430" lon="-2.4463040">
        <ele>278.5</ele>
        <time>2019-10-18T17:59:47Z</time>
      </trkpt>
      <trkpt lat="37.0179980" lon="-2.4462990">
        <ele>278.3</ele>
        <time>2019-10-18T17:59:48Z</time>
      </trkpt>
      <trkpt lat="37.0179530" lon="-2.4462930">
        <ele>278.1</ele>
        <time>2019-10-18T17:59:49Z</time>
      </trkpt>
      <trkpt lat="37.0179090" lon="-2.4462870">
        <ele>277.8</ele>
        <time>2019-10-18T17:59:50Z</time>
      </trkpt>
      <trkpt lat="37.0178640" lon="-2.4462800">
        <ele>277.6</ele>
        <time>2019-10-18T17:59:51Z</time>
      </trkpt>
      <trkpt lat="37.0178190" lon="-2.4462730">
        <ele>277.4</ele>
        <time>2019-10-18T17:59:52Z</time>
      </trkpt>
      <trkpt lat="37.0177740" lon="-2.4462660">
        <ele>277.2</ele>
        <time>2019-10-18T17:59:53Z</time>
      </trkpt>
      <trkpt lat="37.0177290" lon="-2.4462580">
        <ele>277.0</ele>
        <time>2019-10-18T17:59:54Z</time>
      </trkpt>
      <trkpt lat="37.0176850" lon="-2.4462510">
        <ele>276.7</ele>
        <time>2019-10-18T17:59:55Z</time>
      </trkpt>
      <trkpt lat="37.0176420" lon="-2.4462420">
        <ele>276.5</ele>
        <time>2019-10-18T17:59:56Z</time>
      </trkpt>
      <trkpt lat="37.0176000" lon="-2.4462340">
        <ele>276.3</ele>
        <time>2019-10-18T17:59:57Z</time>
      </trkpt>
      <trkpt lat="37.0175580" lon="-2.4462280">
        <ele>276.1</ele>
        <time>2019-10-18T17:59:58Z</time>
      </trkpt>
      <trkpt lat="37.0175160" lon="-2.4462230">
        <ele>275.9</ele>
        <time>2019-10-18T17:59:59Z</time>
      </trkpt>
      <trkpt lat="37.0174740" lon="-2.4462180">
        <ele>275.7</ele>
        <time>2019-10-18T18:00:00Z</time>
      </trkpt>
      <trkpt lat="37.0174310" lon="-2.4462140">
        <ele>275.5</ele>
        <time>2019-10-18T18:00:01Z</time>
      </trkpt>
      <trkpt lat="37.0173880" lon="-2.4462090">
        <ele>275.3</ele>
        <time>2019-10-18T18:00:02Z</time>
      </trkpt>
      <trkpt lat="37.0173460" lon="-2.4462050">
        <ele>275.1</ele>
        <time>2019-10-18T18:00:03Z</time>
      </trkpt>
      <trkpt lat="37.0173040" lon="-2.4462000">
        <ele>274.9</ele>
        <time>2019-10-18T18:00:04Z</time>
      </trkpt>
      <trkpt lat="37.0172630" lon="-2.4461940">
        <ele>274.7</ele>
        <time>2019-10-18T18:00:05Z</time>
      </trkpt>
      <trkpt lat="37.0172230" lon="-2.4461840">
        <ele>274.5</ele>
        <time>2019-10-18T18:00:06Z</time>
      </trkpt>
      <trkpt lat="37.0171820" lon="-2.4461730">
        <ele>274.3</ele>
        <time>2019-10-18T18:00:07Z</time>
      </trkpt>
      <trkpt lat="37.0171410" lon="-2.4461630">
        <ele>274.1</ele>
        <time>2019-10-18T18:00:08Z</time>
      </trkpt>
      <trkpt lat="37.0171010" lon="-2.4461530">
        <ele>273.9</ele>
        <time>2019-10-18T18:00:09Z</time>
      </trkpt>
      <trkpt lat="37.0170630" lon="-2.4461400">
        <ele>273.7</ele>
        <time>2019-10-18T18:00:10Z</time>
      </trkpt>
      <trkpt lat="37.0170270" lon="-2.4461270">
        <ele>273.5</ele>
        <time>2019-10-18T18:00:11Z</time>
      </trkpt>
      <trkpt lat="37.0169930" lon="-2.4461130">
        <ele>273.3</ele>
        <time>2019-10-18T18:00:12Z</time>
      </trkpt>
      <trkpt lat="37.0169590" lon="-2.4460970">
        <ele>273.1</ele>
        <time>2019-10-18T18:00:13Z</time>
      </trkpt>
      <trkpt lat="37.0169260" lon="-2.4460780">
        <ele>272.9</ele>
        <time>2019-10-18T18:00:14Z</time>
      </trkpt>
      <trkpt lat="37.0168910" lon="-2.4460550">
        <ele>272.7</ele>
        <time>2019-10-18T18:00:15Z</time>
      </trkpt>
      <trkpt lat="37.0168560" lon="-2.4460340">
        <ele>272.5</ele>
        <time>2019-10-18T18:00:16Z</time>
      </trkpt>
      <trkpt lat="37.0168190" lon="-2.4460160">
        <ele>272.3</ele>
        <time>2019-10-18T18:00:17Z</time>
      </trkpt>
      <trkpt lat="37.0167800" lon="-2.4460020">
        <ele>272.1</ele>
        <time>2019-10-18T18:00:18Z</time>
      </trkpt>
      <trkpt lat="37.0167420" lon="-2.4459900">
        <ele>271.9</ele>
        <time>2019-10-18T18:00:19Z</time>
      </trkpt>
      <trkpt lat="37.0167010" lon="-2.4459870">
        <ele>271.7</ele>
        <time>2019-10-18T18:00:20Z</time>
      </trkpt>
      <trkpt lat="37.0166600" lon="-2.4459930">
        <ele>271.5</ele>
        <time>2019-10-18T18:00:21Z</time>
      </trkpt>
      <trkpt lat="37.0166200" lon="-2.4460060">
        <ele>271.6</ele>
        <time>2019-10-18T18:00:22Z</time>
      </trkpt>
      <trkpt lat="37.0165810" lon="-2.4460210">
        <ele>271.7</ele>
        <time>2019-10-18T18:00:23Z</time>
      </trkpt>
      <trkpt lat="37.0165440" lon="-2.4460350">
        <ele>271.7</ele>
        <time>2019-10-18T18:00:24Z</time>
      </trkpt>
      <trkpt lat="37.0165080" lon="-2.4460510">
        <ele>271.8</ele>
        <time>2019-10-18T18:00:25Z</time>
      </trkpt>
      <trkpt lat="37.0164750" lon="-2.4460680">
        <ele>271.8</ele>
        <time>2019-10-18T18:00:26Z</time>
      </trkpt>
      <trkpt lat="37.0164430" lon="-2.4460880">
        <ele>271.9</ele>
        <time>2019-10-18T18:00:27Z</time>
      </trkpt>
      <trkpt lat="37.0164120" lon="-2.4461110">
        <ele>271.9</ele>
        <time>2019-10-18T18:00:28Z</time>
      </trkpt>
      <trkpt lat="37.0163830" lon="-2.4461350">
        <ele>271.9</ele>
        <time>2019-10-18T18:00:29Z</time>
      </trkpt>
      <trkpt lat="37.0163550" lon="-2.4461610">
        <ele>271.9</ele>
        <time>2019-10-18T18:00:30Z</time>
      </trkpt>
      <trkpt lat="37.0163270" lon="-2.4461850">
        <ele>271.9</ele>
        <time>2019-10-18T18:00:31Z</time>
      </trkpt>
      <trkpt lat="37.0163000" lon="-2.4462070">
        <ele>271.9</ele>
        <time>2019-10-18T18:00:32Z</time>
      </trkpt>
      <trkpt lat="37.0162730" lon="-2.4462280">
        <ele>271.8</ele>
        <time>2019-10-18T18:00:33Z</time>
      </trkpt>
      <trkpt lat="37.0162490" lon="-2.4462480">
        <ele>271.9</ele>
        <time>2019-10-18T18:00:34Z</time>
      </trkpt>
      <trkpt lat="37.0162280" lon="-2.4462670">
        <ele>271.9</ele>
        <time>2019-10-18T18:00:35Z</time>
      </trkpt>
      <trkpt lat="37.0162100" lon="-2.4462830">
        <ele>272.0</ele>
        <time>2019-10-18T18:00:36Z</time>
      </trkpt>
      <trkpt lat="37.0161970" lon="-2.4462950">
        <ele>272.0</ele>
        <time>2019-10-18T18:00:37Z</time>
      </trkpt>
      <trkpt lat="37.0161850" lon="-2.4463040">
        <ele>272.0</ele>
        <time>2019-10-18T18:00:38Z</time>
      </trkpt>
      <trkpt lat="37.0161750" lon="-2.4463110">
        <ele>272.0</ele>
        <time>2019-10-18T18:00:39Z</time>
      </trkpt>
      <trkpt lat="37.0161660" lon="-2.4463160">
        <ele>272.0</ele>
        <time>2019-10-18T18:00:40Z</time>
      </trkpt>
      <trkpt lat="37.0161620" lon="-2.4463180">
        <ele>272.0</ele>
        <time>2019-10-18T18:00:41Z</time>
      </trkpt>
      <trkpt lat="37.0161600" lon="-2.4463190">
        <ele>272.0</ele>
        <time>2019-10-18T18:00:42Z</time>
      </trkpt>
      <trkpt lat="37.0161610" lon="-2.4463200">
        <ele>272.0</ele>
        <time>2019-10-18T18:00:43Z</time>
      </trkpt>
      <trkpt lat="37.0161620" lon="-2.4463190">
        <ele>272.0</ele>
        <time>2019-10-18T18:00:44Z</time>
      </trkpt>
      <trkpt lat="37.0161650" lon="-2.4463180">
        <ele>272.0</ele>
        <time>2019-10-18T18:00:45Z</time>
      </trkpt>
      <trkpt lat="37.0161680" lon="-2.4463160">
        <ele>272.0</ele>
        <time>2019-10-18T18:00:46Z</time>
      </trkpt>
      <trkpt lat="37.0161700" lon="-2.4463170">
        <ele>272.0</ele>
        <time>2019-10-18T18:00:47Z</time>
      </trkpt>
      <trkpt lat="37.0161710" lon="-2.4463160">
        <ele>272.0</ele>
        <time>2019-10-18T18:00:48Z</time>
      </trkpt>
      <trkpt lat="37.0161720" lon="-2.4463160">
        <ele>272.0</ele>
        <time>2019-10-18T18:00:49Z</time>
      </trkpt>
      <trkpt lat="37.0161710" lon="-2.4463160">
        <ele>272.0</ele>
        <time>2019-10-18T18:00:50Z</time>
      </trkpt>
      <trkpt lat="37.0161700" lon="-2.4463150">
        <ele>272.0</ele>
        <time>2019-10-18T18:00:51Z</time>
      </trkpt>
      <trkpt lat="37.0161690" lon="-2.4463140">
        <ele>272.0</ele>
        <time>2019-10-18T18:00:52Z</time>
      </trkpt>
      <trkpt lat="37.0161690" lon="-2.4463130">
        <ele>272.0</ele>
        <time>2019-10-18T18:00:53Z</time>
      </trkpt>
      <trkpt lat="37.0161710" lon="-2.4463120">
        <ele>272.1</ele>
        <time>2019-10-18T18:00:54Z</time>
      </trkpt>
      <trkpt lat="37.0161750" lon="-2.4463100">
        <ele>272.1</ele>
        <time>2019-10-18T18:00:55Z</time>
      </trkpt>
      <trkpt lat="37.0161790" lon="-2.4463070">
        <ele>272.1</ele>
        <time>2019-10-18T18:00:56Z</time>
      </trkpt>
      <trkpt lat="37.0161840" lon="-2.4463040">
        <ele>272.1</ele>
        <time>2019-10-18T18:00:57Z</time>
      </trkpt>
      <trkpt lat="37.0161870" lon="-2.4463020">
        <ele>272.1</ele>
        <time>2019-10-18T18:00:58Z</time>
      </trkpt>
      <trkpt lat="37.0161880" lon="-2.4463020">
        <ele>272.1</ele>
        <time>2019-10-18T18:00:59Z</time>
      </trkpt>
      <trkpt lat="37.0161860" lon="-2.4463030">
        <ele>272.1</ele>
        <time>2019-10-18T18:01:00Z</time>
      </trkpt>
      <trkpt lat="37.0161870" lon="-2.4463050">
        <ele>272.1</ele>
        <time>2019-10-18T18:01:01Z</time>
      </trkpt>
      <trkpt lat="37.0161880" lon="-2.4463060">
        <ele>272.1</ele>
        <time>2019-10-18T18:01:02Z</time>
      </trkpt>
      <trkpt lat="37.0161900" lon="-2.4463060">
        <ele>272.1</ele>
        <time>2019-10-18T18:01:03Z</time>
      </trkpt>
      <trkpt lat="37.0161920" lon="-2.4463070">
        <ele>272.1</ele>
        <time>2019-10-18T18:01:04Z</time>
      </trkpt>
      <trkpt lat="37.0161920" lon="-2.4463040">
        <ele>272.1</ele>
        <time>2019-10-18T18:01:05Z</time>
      </trkpt>
      <trkpt lat="37.0161920" lon="-2.4463010">
        <ele>272.1</ele>
        <time>2019-10-18T18:01:06Z</time>
      </trkpt>
      <trkpt lat="37.0161910" lon="-2.4462990">
        <ele>272.1</ele>
        <time>2019-10-18T18:01:07Z</time>
      </trkpt>
      <trkpt lat="37.0161910" lon="-2.4463000">
        <ele>272.1</ele>
        <time>2019-10-18T18:01:08Z</time>
      </trkpt>
      <trkpt lat="37.0161910" lon="-2.4463020">
        <ele>272.1</ele>
        <time>2019-10-18T18:01:09Z</time>
      </trkpt>
      <trkpt lat="37.0161930" lon="-2.4463030">
        <ele>272.1</ele>
        <time>2019-10-18T18:01:10Z</time>
      </trkpt>
      <trkpt lat="37.0161950" lon="-2.4463040">
        <ele>272.1</ele>
        <time>2019-10-18T18:01:11Z</time>
      </trkpt>
      <trkpt lat="37.0161980" lon="-2.4463040">
        <ele>272.1</ele>
        <time>2019-10-18T18:01:12Z</time>
      </trkpt>
      <trkpt lat="37.0162000" lon="-2.4463060">
        <ele>272.1</ele>
        <time>2019-10-18T18:01:13Z</time>
      </trkpt>
      <trkpt lat="37.0161990" lon="-2.4463060">
        <ele>272.1</ele>
        <time>2019-10-18T18:01:14Z</time>
      </trkpt>
      <trkpt lat="37.0161970" lon="-2.4463070">
        <ele>272.1</ele>
        <time>2019-10-18T18:01:15Z</time>
      </trkpt>
      <trkpt lat="37.0161950" lon="-2.4463070">
        <ele>272.1</ele>
        <time>2019-10-18T18:01:16Z</time>
      </trkpt>
      <trkpt lat="37.0161940" lon="-2.4463080">
        <ele>272.1</ele>
        <time>2019-10-18T18:01:17Z</time>
      </trkpt>
      <trkpt lat="37.0161930" lon="-2.4463080">
        <ele>272.1</ele>
        <time>2019-10-18T18:01:18Z</time>
      </trkpt>
      <trkpt lat="37.0161910" lon="-2.4463080">
        <ele>272.1</ele>
        <time>2019-10-18T18:01:19Z</time>
      </trkpt>
      <trkpt lat="37.0161900" lon="-2.4463090">
        <ele>272.1</ele>
        <time>2019-10-18T18:01:20Z</time>
      </trkpt>
      <trkpt lat="37.0161870" lon="-2.4463100">
        <ele>272.1</ele>
        <time>2019-10-18T18:01:21Z</time>
      </trkpt>
      <trkpt lat="37.0161850" lon="-2.4463110">
        <ele>272.1</ele>
        <time>2019-10-18T18:01:22Z</time>
      </trkpt>
      <trkpt lat="37.0161820" lon="-2.4463130">
        <ele>272.1</ele>
        <time>2019-10-18T18:01:23Z</time>
      </trkpt>
      <trkpt lat="37.0161800" lon="-2.4463150">
        <ele>272.1</ele>
        <time>2019-10-18T18:01:24Z</time>
      </trkpt>
      <trkpt lat="37.0161780" lon="-2.4463160">
        <ele>272.1</ele>
        <time>2019-10-18T18:01:25Z</time>
      </trkpt>
      <trkpt lat="37.0161780" lon="-2.4463150">
        <ele>272.1</ele>
        <time>2019-10-18T18:01:26Z</time>
      </trkpt>
      <trkpt lat="37.0161800" lon="-2.4463130">
        <ele>272.1</ele>
        <time>2019-10-18T18:01:27Z</time>
      </trkpt>
      <trkpt lat="37.0161850" lon="-2.4463090">
        <ele>272.1</ele>
        <time>2019-10-18T18:01:28Z</time>
      </trkpt>
      <trkpt lat="37.0161850" lon="-2.4463090">
        <ele>272.1</ele>
        <time>2019-10-18T18:01:29Z</time>
      </trkpt>
      <trkpt lat="37.0161860" lon="-2.4463090">
        <ele>272.1</ele>
        <time>2019-10-18T18:01:30Z</time>
      </trkpt>
      <trkpt lat="37.0161860" lon="-2.4463090">
        <ele>272.1</ele>
        <time>2019-10-18T18:01:31Z</time>
      </trkpt>
      <trkpt lat="37.0161860" lon="-2.4463100">
        <ele>272.1</ele>
        <time>2019-10-18T18:01:32Z</time>
      </trkpt>
      <trkpt lat="37.0161860" lon="-2.4463100">
        <ele>272.1</ele>
        <time>2019-10-18T18:01:33Z</time>
      </trkpt>
      <trkpt lat="37.0161850" lon="-2.4463090">
        <ele>272.1</ele>
        <time>2019-10-18T18:01:34Z</time>
      </trkpt>
      <trkpt lat="37.0161840" lon="-2.4463100">
        <ele>272.1</ele>
        <time>2019-10-18T18:01:35Z</time>
      </trkpt>
      <trkpt lat="37.0161820" lon="-2.4463090">
        <ele>272.1</ele>
        <time>2019-10-18T18:01:36Z</time>
      </trkpt>
      <trkpt lat="37.0161820" lon="-2.4463080">
        <ele>272.1</ele>
        <time>2019-10-18T18:01:37Z</time>
      </trkpt>
      <trkpt lat="37.0161810" lon="-2.4463070">
        <ele>272.1</ele>
        <time>2019-10-18T18:01:38Z</time>
      </trkpt>
      <trkpt lat="37.0161810" lon="-2.4463060">
        <ele>272.1</ele>
        <time>2019-10-18T18:01:39Z</time>
      </trkpt>
      <trkpt lat="37.0161800" lon="-2.4463050">
        <ele>272.1</ele>
        <time>2019-10-18T18:01:40Z</time>
      </trkpt>
      <trkpt lat="37.0161790" lon="-2.4463050">
        <ele>272.1</ele>
        <time>2019-10-18T18:01:41Z</time>
      </trkpt>
      <trkpt lat="37.0161780" lon="-2.4463070">
        <ele>272.1</ele>
        <time>2019-10-18T18:01:42Z</time>
      </trkpt>
      <trkpt lat="37.0161800" lon="-2.4463080">
        <ele>272.1</ele>
        <time>2019-10-18T18:01:43Z</time>
      </trkpt>
      <trkpt lat="37.0161820" lon="-2.4463090">
        <ele>272.1</ele>
        <time>2019-10-18T18:01:44Z</time>
      </trkpt>
      <trkpt lat="37.0161840" lon="-2.4463080">
        <ele>272.1</ele>
        <time>2019-10-18T18:01:45Z</time>
      </trkpt>
      <trkpt lat="37.0161860" lon="-2.4463080">
        <ele>272.1</ele>
        <time>2019-10-18T18:01:46Z</time>
      </trkpt>
      <trkpt lat="37.0161860" lon="-2.4463080">
        <ele>272.1</ele>
        <time>2019-10-18T18:01:47Z</time>
      </trkpt>
      <trkpt lat="37.0161870" lon="-2.4463090">
        <ele>272.1</ele>
        <time>2019-10-18T18:01:48Z</time>
      </trkpt>
      <trkpt lat="37.0161870" lon="-2.4463090">
        <ele>272.1</ele>
        <time>2019-10-18T18:01:49Z</time>
      </trkpt>
      <trkpt lat="37.0161870" lon="-2.4463090">
        <ele>272.1</ele>
        <time>2019-10-18T18:01:50Z</time>
      </trkpt>
      <trkpt lat="37.0161860" lon="-2.4463060">
        <ele>272.1</ele>
        <time>2019-10-18T18:01:51Z</time>
      </trkpt>
      <trkpt lat="37.0161860" lon="-2.4463020">
        <ele>272.0</ele>
        <time>2019-10-18T18:01:52Z</time>
      </trkpt>
      <trkpt lat="37.0161880" lon="-2.4462980">
        <ele>272.0</ele>
        <time>2019-10-18T18:01:53Z</time>
      </trkpt>
      <trkpt lat="37.0161920" lon="-2.4462970">
        <ele>272.0</ele>
        <time>2019-10-18T18:01:54Z</time>
      </trkpt>
      <trkpt lat="37.0161950" lon="-2.4462990">
        <ele>272.0</ele>
        <time>2019-10-18T18:01:55Z</time>
      </trkpt>
      <trkpt lat="37.0161960" lon="-2.4463020">
        <ele>272.0</ele>
        <time>2019-10-18T18:01:56Z</time>
      </trkpt>
      <trkpt lat="37.0161970" lon="-2.4463040">
        <ele>272.0</ele>
        <time>2019-10-18T18:01:57Z</time>
      </trkpt>
      <trkpt lat="37.0161970" lon="-2.4463050">
        <ele>272.0</ele>
        <time>2019-10-18T18:01:58Z</time>
      </trkpt>
      <trkpt lat="37.0161970" lon="-2.4463060">
        <ele>272.0</ele>
        <time>2019-10-18T18:01:59Z</time>
      </trkpt>
      <trkpt lat="37.0161960" lon="-2.4463080">
        <ele>272.0</ele>
        <time>2019-10-18T18:02:00Z</time>
      </trkpt>
      <trkpt lat="37.0161950" lon="-2.4463100">
        <ele>272.0</ele>
        <time>2019-10-18T18:02:01Z</time>
      </trkpt>
      <trkpt lat="37.0161930" lon="-2.4463120">
        <ele>272.0</ele>
        <time>2019-10-18T18:02:02Z</time>
      </trkpt>
      <trkpt lat="37.0161900" lon="-2.4463150">
        <ele>272.0</ele>
        <time>2019-10-18T18:02:03Z</time>
      </trkpt>
      <trkpt lat="37.0161890" lon="-2.4463190">
        <ele>272.0</ele>
        <time>2019-10-18T18:02:04Z</time>
      </trkpt>
      <trkpt lat="37.0161870" lon="-2.4463250">
        <ele>272.0</ele>
        <time>2019-10-18T18:02:05Z</time>
      </trkpt>
      <trkpt lat="37.0161850" lon="-2.4463280">
        <ele>272.0</ele>
        <time>2019-10-18T18:02:06Z</time>
      </trkpt>
      <trkpt lat="37.0161840" lon="-2.4463310">
        <ele>272.0</ele>
        <time>2019-10-18T18:02:07Z</time>
      </trkpt>
      <trkpt lat="37.0161830" lon="-2.4463340">
        <ele>272.0</ele>
        <time>2019-10-18T18:02:08Z</time>
      </trkpt>
      <trkpt lat="37.0161820" lon="-2.4463380">
        <ele>272.0</ele>
        <time>2019-10-18T18:02:09Z</time>
      </trkpt>
      <trkpt lat="37.0161810" lon="-2.4463390">
        <ele>272.0</ele>
        <time>2019-10-18T18:02:10Z</time>
      </trkpt>
      <trkpt lat="37.0161800" lon="-2.4463370">
        <ele>272.0</ele>
        <time>2019-10-18T18:02:11Z</time>
      </trkpt>
      <trkpt lat="37.0161790" lon="-2.4463340">
        <ele>272.0</ele>
        <time>2019-10-18T18:02:12Z</time>
      </trkpt>
      <trkpt lat="37.0161790" lon="-2.4463330">
        <ele>272.0</ele>
        <time>2019-10-18T18:02:13Z</time>
      </trkpt>
      <trkpt lat="37.0161790" lon="-2.4463310">
        <ele>272.0</ele>
        <time>2019-10-18T18:02:14Z</time>
      </trkpt>
      <trkpt lat="37.0161870" lon="-2.4463300">
        <ele>272.0</ele>
        <time>2019-10-18T18:02:15Z</time>
      </trkpt>
      <trkpt lat="37.0161870" lon="-2.4463300">
        <ele>272.0</ele>
        <time>2019-10-18T18:02:16Z</time>
      </trkpt>
      <trkpt lat="37.0161930" lon="-2.4463310">
        <ele>272.0</ele>
        <time>2019-10-18T18:02:17Z</time>
      </trkpt>
      <trkpt lat="37.0161950" lon="-2.4463330">
        <ele>272.0</ele>
        <time>2019-10-18T18:02:18Z</time>
      </trkpt>
      <trkpt lat="37.0161970" lon="-2.4463320">
        <ele>272.0</ele>
        <time>2019-10-18T18:02:19Z</time>
      </trkpt>
      <trkpt lat="37.0161980" lon="-2.4463300">
        <ele>272.0</ele>
        <time>2019-10-18T18:02:20Z</time>
      </trkpt>
      <trkpt lat="37.0162010" lon="-2.4463270">
        <ele>272.0</ele>
        <time>2019-10-18T18:02:21Z</time>
      </trkpt>
      <trkpt lat="37.0162030" lon="-2.4463230">
        <ele>272.0</ele>
        <time>2019-10-18T18:02:22Z</time>
      </trkpt>
      <trkpt lat="37.0162060" lon="-2.4463190">
        <ele>272.0</ele>
        <time>2019-10-18T18:02:23Z</time>
      </trkpt>
      <trkpt lat="37.0162090" lon="-2.4463130">
        <ele>272.0</ele>
        <time>2019-10-18T18:02:24Z</time>
      </trkpt>
      <trkpt lat="37.0162110" lon="-2.4463090">
        <ele>272.0</ele>
        <time>2019-10-18T18:02:25Z</time>
      </trkpt>
      <trkpt lat="37.0162120" lon="-2.4463060">
        <ele>272.0</ele>
        <time>2019-10-18T18:02:26Z</time>
      </trkpt>
      <trkpt lat="37.0162140" lon="-2.4463060">
        <ele>272.0</ele>
        <time>2019-10-18T18:02:27Z</time>
      </trkpt>
      <trkpt lat="37.0162150" lon="-2.4463070">
        <ele>272.0</ele>
        <time>2019-10-18T18:02:28Z</time>
      </trkpt>
      <trkpt lat="37.0162150" lon="-2.4463090">
        <ele>272.0</ele>
        <time>2019-10-18T18:02:29Z</time>
      </trkpt>
      <trkpt lat="37.0162150" lon="-2.4463090">
        <ele>272.0</ele>
        <time>2019-10-18T18:02:30Z</time>
      </trkpt>
      <trkpt lat="37.0162150" lon="-2.4463100">
        <ele>272.0</ele>
        <time>2019-10-18T18:02:31Z</time>
      </trkpt>
      <trkpt lat="37.0162210" lon="-2.4463060">
        <ele>272.0</ele>
        <time>2019-10-18T18:02:32Z</time>
      </trkpt>
      <trkpt lat="37.0162290" lon="-2.4463010">
        <ele>272.0</ele>
        <time>2019-10-18T18:02:33Z</time>
      </trkpt>
      <trkpt lat="37.0162360" lon="-2.4462970">
        <ele>272.0</ele>
        <time>2019-10-18T18:02:34Z</time>
      </trkpt>
      <trkpt lat="37.0162400" lon="-2.4462950">
        <ele>272.0</ele>
        <time>2019-10-18T18:02:35Z</time>
      </trkpt>
      <trkpt lat="37.0162430" lon="-2.4462950">
        <ele>272.0</ele>
        <time>2019-10-18T18:02:36Z</time>
      </trkpt>
      <trkpt lat="37.0162470" lon="-2.4462960">
        <ele>272.0</ele>
        <time>2019-10-18T18:02:37Z</time>
      </trkpt>
      <trkpt lat="37.0162470" lon="-2.4462960">
        <ele>272.0</ele>
        <time>2019-10-18T18:02:38Z</time>
      </trkpt>
      <trkpt lat="37.0162500" lon="-2.4462960">
        <ele>272.0</ele>
        <time>2019-10-18T18:02:39Z</time>
      </trkpt>
      <trkpt lat="37.0162520" lon="-2.4462950">
        <ele>272.0</ele>
        <time>2019-10-18T18:02:40Z</time>
      </trkpt>
      <trkpt lat="37.0162540" lon="-2.4462950">
        <ele>272.0</ele>
        <time>2019-10-18T18:02:41Z</time>
      </trkpt>
      <trkpt lat="37.0162550" lon="-2.4462950">
        <ele>272.0</ele>
        <time>2019-10-18T18:02:42Z</time>
      </trkpt>
      <trkpt lat="37.0162550" lon="-2.4462950">
        <ele>272.0</ele>
        <time>2019-10-18T18:02:43Z</time>
      </trkpt>
      <trkpt lat="37.0162530" lon="-2.4462950">
        <ele>272.0</ele>
        <time>2019-10-18T18:02:44Z</time>
      </trkpt>
      <trkpt lat="37.0162530" lon="-2.4462960">
        <ele>272.0</ele>
        <time>2019-10-18T18:02:45Z</time>
      </trkpt>
      <trkpt lat="37.0162540" lon="-2.4462970">
        <ele>272.0</ele>
        <time>2019-10-18T18:02:46Z</time>
      </trkpt>
      <trkpt lat="37.0162550" lon="-2.4462970">
        <ele>272.0</ele>
        <time>2019-10-18T18:02:47Z</time>
      </trkpt>
      <trkpt lat="37.0162550" lon="-2.4462980">
        <ele>272.0</ele>
        <time>2019-10-18T18:02:48Z</time>
      </trkpt>
      <trkpt lat="37.0162540" lon="-2.4462990">
        <ele>272.0</ele>
        <time>2019-10-18T18:02:49Z</time>
      </trkpt>
      <trkpt lat="37.0162520" lon="-2.4462990">
        <ele>272.0</ele>
        <time>2019-10-18T18:02:50Z</time>
      </trkpt>
      <trkpt lat="37.0162520" lon="-2.4462990">
        <ele>272.0</ele>
        <time>2019-10-18T18:02:51Z</time>
      </trkpt>
      <trkpt lat="37.0162520" lon="-2.4462980">
        <ele>272.0</ele>
        <time>2019-10-18T18:02:52Z</time>
      </trkpt>
      <trkpt lat="37.0162500" lon="-2.4463000">
        <ele>272.0</ele>
        <time>2019-10-18T18:02:53Z</time>
      </trkpt>
      <trkpt lat="37.0162410" lon="-2.4463020">
        <ele>272.0</ele>
        <time>2019-10-18T18:02:54Z</time>
      </trkpt>
      <trkpt lat="37.0162310" lon="-2.4463050">
        <ele>272.0</ele>
        <time>2019-10-18T18:02:55Z</time>
      </trkpt>
      <trkpt lat="37.0162200" lon="-2.4463080">
        <ele>272.0</ele>
        <time>2019-10-18T18:02:56Z</time>
      </trkpt>
      <trkpt lat="37.0162150" lon="-2.4463110">
        <ele>272.0</ele>
        <time>2019-10-18T18:02:57Z</time>
      </trkpt>
      <trkpt lat="37.0162130" lon="-2.4463140">
        <ele>272.0</ele>
        <time>2019-10-18T18:02:58Z</time>
      </trkpt>
      <trkpt lat="37.0162140" lon="-2.4463160">
        <ele>272.0</ele>
        <time>2019-10-18T18:02:59Z</time>
      </trkpt>
      <trkpt lat="37.0162150" lon="-2.4463170">
        <ele>272.0</ele>
        <time>2019-10-18T18:03:00Z</time>
      </trkpt>
      <trkpt lat="37.0162160" lon="-2.4463170">
        <ele>272.0</ele>
        <time>2019-10-18T18:03:01Z</time>
      </trkpt>
      <trkpt lat="37.0162170" lon="-2.4463170">
        <ele>272.0</ele>
        <time>2019-10-18T18:03:02Z</time>
      </trkpt>
      <trkpt lat="37.0162180" lon="-2.4463180">
        <ele>272.0</ele>
        <time>2019-10-18T18:03:03Z</time>
      </trkpt>
      <trkpt lat="37.0162180" lon="-2.4463180">
        <ele>272.0</ele>
        <time>2019-10-18T18:03:04Z</time>
      </trkpt>
      <trkpt lat="37.0162180" lon="-2.4463170">
        <ele>272.0</ele>
        <time>2019-10-18T18:03:05Z</time>
      </trkpt>
      <trkpt lat="37.0162170" lon="-2.4463170">
        <ele>272.0</ele>
        <time>2019-10-18T18:03:06Z</time>
      </trkpt>
      <trkpt lat="37.0162170" lon="-2.4463160">
        <ele>272.0</ele>
        <time>2019-10-18T18:03:07Z</time>
      </trkpt>
      <trkpt lat="37.0162160" lon="-2.4463150">
        <ele>272.0</ele>
        <time>2019-10-18T18:03:08Z</time>
      </trkpt>
      <trkpt lat="37.0162150" lon="-2.4463140">
        <ele>272.0</ele>
        <time>2019-10-18T18:03:09Z</time>
      </trkpt>
      <trkpt lat="37.0162140" lon="-2.4463130">
        <ele>272.0</ele>
        <time>2019-10-18T18:03:10Z</time>
      </trkpt>
      <trkpt lat="37.0162130" lon="-2.4463130">
        <ele>272.0</ele>
        <time>2019-10-18T18:03:11Z</time>
      </trkpt>
      <trkpt lat="37.0162120" lon="-2.4463140">
        <ele>272.0</ele>
        <time>2019-10-18T18:03:12Z</time>
      </trkpt>
      <trkpt lat="37.0162120" lon="-2.4463150">
        <ele>272.0</ele>
        <time>2019-10-18T18:03:13Z</time>
      </trkpt>
      <trkpt lat="37.0162120" lon="-2.4463160">
        <ele>272.0</ele>
        <time>2019-10-18T18:03:14Z</time>
      </trkpt>
      <trkpt lat="37.0162130" lon="-2.4463180">
        <ele>272.0</ele>
        <time>2019-10-18T18:03:15Z</time>
      </trkpt>
      <trkpt lat="37.0162150" lon="-2.4463200">
        <ele>272.0</ele>
        <time>2019-10-18T18:03:16Z</time>
      </trkpt>
      <trkpt lat="37.0162170" lon="-2.4463220">
        <ele>272.0</ele>
        <time>2019-10-18T18:03:17Z</time>
      </trkpt>
      <trkpt lat="37.0162190" lon="-2.4463240">
        <ele>272.0</ele>
        <time>2019-10-18T18:03:18Z</time>
      </trkpt>
      <trkpt lat="37.0162210" lon="-2.4463240">
        <ele>272.0</ele>
        <time>2019-10-18T18:03:19Z</time>
      </trkpt>
      <trkpt lat="37.0162220" lon="-2.4463250">
        <ele>272.0</ele>
        <time>2019-10-18T18:03:20Z</time>
      </trkpt>
      <trkpt lat="37.0162230" lon="-2.4463260">
        <ele>272.0</ele>
        <time>2019-10-18T18:03:21Z</time>
      </trkpt>
      <trkpt lat="37.0162240" lon="-2.4463290">
        <ele>272.0</ele>
        <time>2019-10-18T18:03:22Z</time>
      </trkpt>
      <trkpt lat="37.0162230" lon="-2.4463320">
        <ele>272.0</ele>
        <time>2019-10-18T18:03:23Z</time>
      </trkpt>
      <trkpt lat="37.0162220" lon="-2.4463330">
        <ele>272.0</ele>
        <time>2019-10-18T18:03:24Z</time>
      </trkpt>
      <trkpt lat="37.0162210" lon="-2.4463340">
        <ele>272.0</ele>
        <time>2019-10-18T18:03:25Z</time>
      </trkpt>
      <trkpt lat="37.0162200" lon="-2.4463330">
        <ele>272.0</ele>
        <time>2019-10-18T18:03:26Z</time>
      </trkpt>
      <trkpt lat="37.0162190" lon="-2.4463330">
        <ele>272.0</ele>
        <time>2019-10-18T18:03:27Z</time>
      </trkpt>
      <trkpt lat="37.0162190" lon="-2.4463320">
        <ele>272.0</ele>
        <time>2019-10-18T18:03:28Z</time>
      </trkpt>
      <trkpt lat="37.0162180" lon="-2.4463310">
        <ele>272.0</ele>
        <time>2019-10-18T18:03:29Z</time>
      </trkpt>
      <trkpt lat="37.0162180" lon="-2.4463300">
        <ele>272.0</ele>
        <time>2019-10-18T18:03:30Z</time>
      </trkpt>
      <trkpt lat="37.0162170" lon="-2.4463310">
        <ele>272.0</ele>
        <time>2019-10-18T18:03:31Z</time>
      </trkpt>
      <trkpt lat="37.0162160" lon="-2.4463310">
        <ele>272.0</ele>
        <time>2019-10-18T18:03:32Z</time>
      </trkpt>
      <trkpt lat="37.0162150" lon="-2.4463330">
        <ele>272.0</ele>
        <time>2019-10-18T18:03:33Z</time>
      </trkpt>
      <trkpt lat="37.0162150" lon="-2.4463350">
        <ele>272.0</ele>
        <time>2019-10-18T18:03:34Z</time>
      </trkpt>
      <trkpt lat="37.0162160" lon="-2.4463370">
        <ele>272.0</ele>
        <time>2019-10-18T18:03:35Z</time>
      </trkpt>
      <trkpt lat="37.0162160" lon="-2.4463370">
        <ele>272.0</ele>
        <time>2019-10-18T18:03:36Z</time>
      </trkpt>
      <trkpt lat="37.0162170" lon="-2.4463370">
        <ele>272.0</ele>
        <time>2019-10-18T18:03:37Z</time>
      </trkpt>
      <trkpt lat="37.0162180" lon="-2.4463380">
        <ele>272.0</ele>
        <time>2019-10-18T18:03:38Z</time>
      </trkpt>
      <trkpt lat="37.0162200" lon="-2.4463390">
        <ele>272.0</ele>
        <time>2019-10-18T18:03:39Z</time>
      </trkpt>
      <trkpt lat="37.0162210" lon="-2.4463420">
        <ele>272.0</ele>
        <time>2019-10-18T18:03:40Z</time>
      </trkpt>
      <trkpt lat="37.0162210" lon="-2.4463430">
        <ele>272.0</ele>
        <time>2019-10-18T18:03:41Z</time>
      </trkpt>
      <trkpt lat="37.0162190" lon="-2.4463430">
        <ele>272.0</ele>
        <time>2019-10-18T18:03:42Z</time>
      </trkpt>
      <trkpt lat="37.0162180" lon="-2.4463430">
        <ele>272.0</ele>
        <time>2019-10-18T18:03:43Z</time>
      </trkpt>
      <trkpt lat="37.0162170" lon="-2.4463430">
        <ele>272.0</ele>
        <time>2019-10-18T18:03:44Z</time>
      </trkpt>
      <trkpt lat="37.0162160" lon="-2.4463450">
        <ele>272.0</ele>
        <time>2019-10-18T18:03:45Z</time>
      </trkpt>
      <trkpt lat="37.0162170" lon="-2.4463460">
        <ele>272.0</ele>
        <time>2019-10-18T18:03:46Z</time>
      </trkpt>
      <trkpt lat="37.0162170" lon="-2.4463460">
        <ele>272.0</ele>
        <time>2019-10-18T18:03:47Z</time>
      </trkpt>
      <trkpt lat="37.0162180" lon="-2.4463460">
        <ele>272.0</ele>
        <time>2019-10-18T18:03:48Z</time>
      </trkpt>
      <trkpt lat="37.0162200" lon="-2.4463480">
        <ele>272.0</ele>
        <time>2019-10-18T18:03:49Z</time>
      </trkpt>
      <trkpt lat="37.0162200" lon="-2.4463490">
        <ele>272.0</ele>
        <time>2019-10-18T18:03:50Z</time>
      </trkpt>
      <trkpt lat="37.0162200" lon="-2.4463500">
        <ele>272.0</ele>
        <time>2019-10-18T18:03:51Z</time>
      </trkpt>
      <trkpt lat="37.0162210" lon="-2.4463510">
        <ele>272.0</ele>
        <time>2019-10-18T18:03:52Z</time>
      </trkpt>
      <trkpt lat="37.0162200" lon="-2.4463520">
        <ele>272.0</ele>
        <time>2019-10-18T18:03:53Z</time>
      </trkpt>
      <trkpt lat="37.0162200" lon="-2.4463520">
        <ele>272.0</ele>
        <time>2019-10-18T18:03:54Z</time>
      </trkpt>
      <trkpt lat="37.0162180" lon="-2.4463540">
        <ele>272.0</ele>
        <time>2019-10-18T18:03:55Z</time>
      </trkpt>
      <trkpt lat="37.0162160" lon="-2.4463560">
        <ele>272.0</ele>
        <time>2019-10-18T18:03:56Z</time>
      </trkpt>
      <trkpt lat="37.0162100" lon="-2.4463560">
        <ele>272.0</ele>
        <time>2019-10-18T18:03:57Z</time>
      </trkpt>
      <trkpt lat="37.0162100" lon="-2.4463560">
        <ele>272.0</ele>
        <time>2019-10-18T18:03:58Z</time>
      </trkpt>
      <trkpt lat="37.0162070" lon="-2.4463560">
        <ele>272.0</ele>
        <time>2019-10-18T18:03:59Z</time>
      </trkpt>
      <trkpt lat="37.0162110" lon="-2.4463510">
        <ele>272.0</ele>
        <time>2019-10-18T18:04:00Z</time>
      </trkpt>
      <trkpt lat="37.0162190" lon="-2.4463400">
        <ele>272.0</ele>
        <time>2019-10-18T18:04:01Z</time>
      </trkpt>
      <trkpt lat="37.0162270" lon="-2.4463280">
        <ele>272.0</ele>
        <time>2019-10-18T18:04:02Z</time>
      </trkpt>
      <trkpt lat="37.0162270" lon="-2.4463140">
        <ele>272.0</ele>
        <time>2019-10-18T18:04:03Z</time>
      </trkpt>
      <trkpt lat="37.0162230" lon="-2.4463050">
        <ele>272.0</ele>
        <time>2019-10-18T18:04:04Z</time>
      </trkpt>
      <trkpt lat="37.0162170" lon="-2.4462980">
        <ele>272.0</ele>
        <time>2019-10-18T18:04:05Z</time>
      </trkpt>
      <trkpt lat="37.0162140" lon="-2.4462970">
        <ele>272.0</ele>
        <time>2019-10-18T18:04:06Z</time>
      </trkpt>
      <trkpt lat="37.0162110" lon="-2.4462960">
        <ele>272.0</ele>
        <time>2019-10-18T18:04:07Z</time>
      </trkpt>
      <trkpt lat="37.0162120" lon="-2.4462950">
        <ele>272.0</ele>
        <time>2019-10-18T18:04:08Z</time>
      </trkpt>
      <trkpt lat="37.0162080" lon="-2.4462960">
        <ele>272.0</ele>
        <time>2019-10-18T18:04:09Z</time>
      </trkpt>
      <trkpt lat="37.0162030" lon="-2.4462970">
        <ele>272.0</ele>
        <time>2019-10-18T18:04:10Z</time>
      </trkpt>
      <trkpt lat="37.0161940" lon="-2.4462990">
        <ele>272.0</ele>
        <time>2019-10-18T18:04:11Z</time>
      </trkpt>
      <trkpt lat="37.0161920" lon="-2.4462990">
        <ele>272.0</ele>
        <time>2019-10-18T18:04:12Z</time>
      </trkpt>
      <trkpt lat="37.0161930" lon="-2.4462990">
        <ele>272.0</ele>
        <time>2019-10-18T18:04:13Z</time>
      </trkpt>
      <trkpt lat="37.0161970" lon="-2.4462980">
        <ele>272.0</ele>
        <time>2019-10-18T18:04:14Z</time>
      </trkpt>
      <trkpt lat="37.0161980" lon="-2.4462970">
        <ele>272.0</ele>
        <time>2019-10-18T18:04:15Z</time>
      </trkpt>
      <trkpt lat="37.0161980" lon="-2.4462970">
        <ele>272.0</ele>
        <time>2019-10-18T18:04:16Z</time>
      </trkpt>
      <trkpt lat="37.0161960" lon="-2.4462960">
        <ele>272.0</ele>
        <time>2019-10-18T18:04:17Z</time>
      </trkpt>
      <trkpt lat="37.0161960" lon="-2.4462960">
        <ele>272.0</ele>
        <time>2019-10-18T18:04:18Z</time>
      </trkpt>
      <trkpt lat="37.0161980" lon="-2.4462960">
        <ele>272.0</ele>
        <time>2019-10-18T18:04:19Z</time>
      </trkpt>
      <trkpt lat="37.0162010" lon="-2.4462970">
        <ele>272.0</ele>
        <time>2019-10-18T18:04:20Z</time>
      </trkpt>
      <trkpt lat="37.0162040" lon="-2.4462960">
        <ele>272.0</ele>
        <time>2019-10-18T18:04:21Z</time>
      </trkpt>
      <trkpt lat="37.0162040" lon="-2.4462930">
        <ele>272.0</ele>
        <time>2019-10-18T18:04:22Z</time>
      </trkpt>
      <trkpt lat="37.0162020" lon="-2.4462900">
        <ele>272.0</ele>
        <time>2019-10-18T18:04:23Z</time>
      </trkpt>
      <trkpt lat="37.0161960" lon="-2.4462880">
        <ele>272.0</ele>
        <time>2019-10-18T18:04:24Z</time>
      </trkpt>
      <trkpt lat="37.0161940" lon="-2.4462890">
        <ele>272.0</ele>
        <time>2019-10-18T18:04:25Z</time>
      </trkpt>
      <trkpt lat="37.0161930" lon="-2.4462900">
        <ele>272.0</ele>
        <time>2019-10-18T18:04:26Z</time>
      </trkpt>
      <trkpt lat="37.0161960" lon="-2.4462920">
        <ele>272.0</ele>
        <time>2019-10-18T18:04:27Z</time>
      </trkpt>
      <trkpt lat="37.0161960" lon="-2.4462920">
        <ele>272.0</ele>
        <time>2019-10-18T18:04:28Z</time>
      </trkpt>
      <trkpt lat="37.0161960" lon="-2.4462920">
        <ele>272.0</ele>
        <time>2019-10-18T18:04:29Z</time>
      </trkpt>
      <trkpt lat="37.0161970" lon="-2.4462930">
        <ele>272.0</ele>
        <time>2019-10-18T18:04:30Z</time>
      </trkpt>
      <trkpt lat="37.0161980" lon="-2.4462940">
        <ele>272.0</ele>
        <time>2019-10-18T18:04:31Z</time>
      </trkpt>
      <trkpt lat="37.0161990" lon="-2.4462930">
        <ele>272.0</ele>
        <time>2019-10-18T18:04:32Z</time>
      </trkpt>
      <trkpt lat="37.0161990" lon="-2.4462910">
        <ele>272.0</ele>
        <time>2019-10-18T18:04:33Z</time>
      </trkpt>
      <trkpt lat="37.0161990" lon="-2.4462900">
        <ele>272.0</ele>
        <time>2019-10-18T18:04:34Z</time>
      </trkpt>
      <trkpt lat="37.0161990" lon="-2.4462900">
        <ele>272.0</ele>
        <time>2019-10-18T18:04:35Z</time>
      </trkpt>
      <trkpt lat="37.0161990" lon="-2.4462910">
        <ele>272.0</ele>
        <time>2019-10-18T18:04:36Z</time>
      </trkpt>
      <trkpt lat="37.0162000" lon="-2.4462920">
        <ele>272.0</ele>
        <time>2019-10-18T18:04:37Z</time>
      </trkpt>
      <trkpt lat="37.0162010" lon="-2.4462930">
        <ele>272.0</ele>
        <time>2019-10-18T18:04:38Z</time>
      </trkpt>
      <trkpt lat="37.0162010" lon="-2.4462940">
        <ele>272.0</ele>
        <time>2019-10-18T18:04:39Z</time>
      </trkpt>
      <trkpt lat="37.0162000" lon="-2.4462940">
        <ele>272.0</ele>
        <time>2019-10-18T18:04:40Z</time>
      </trkpt>
      <trkpt lat="37.0161990" lon="-2.4462950">
        <ele>272.0</ele>
        <time>2019-10-18T18:04:41Z</time>
      </trkpt>
      <trkpt lat="37.0161970" lon="-2.4462960">
        <ele>272.0</ele>
        <time>2019-10-18T18:04:42Z</time>
      </trkpt>
      <trkpt lat="37.0161960" lon="-2.4462970">
        <ele>272.0</ele>
        <time>2019-10-18T18:04:43Z</time>
      </trkpt>
      <trkpt lat="37.0161960" lon="-2.4462980">
        <ele>272.0</ele>
        <time>2019-10-18T18:04:44Z</time>
      </trkpt>
      <trkpt lat="37.0161960" lon="-2.4462990">
        <ele>272.0</ele>
        <time>2019-10-18T18:04:45Z</time>
      </trkpt>
      <trkpt lat="37.0161960" lon="-2.4463000">
        <ele>272.0</ele>
        <time>2019-10-18T18:04:46Z</time>
      </trkpt>
      <trkpt lat="37.0161960" lon="-2.4463010">
        <ele>272.0</ele>
        <time>2019-10-18T18:04:47Z</time>
      </trkpt>
      <trkpt lat="37.0161970" lon="-2.4463020">
        <ele>272.0</ele>
        <time>2019-10-18T18:04:48Z</time>
      </trkpt>
      <trkpt lat="37.0161970" lon="-2.4463020">
        <ele>272.0</ele>
        <time>2019-10-18T18:04:49Z</time>
      </trkpt>
      <trkpt lat="37.0161970" lon="-2.4463030">
        <ele>272.0</ele>
        <time>2019-10-18T18:04:50Z</time>
      </trkpt>
      <trkpt lat="37.0161980" lon="-2.4463040">
        <ele>272.0</ele>
        <time>2019-10-18T18:04:51Z</time>
      </trkpt>
      <trkpt lat="37.0161980" lon="-2.4463050">
        <ele>272.0</ele>
        <time>2019-10-18T18:04:52Z</time>
      </trkpt>
      <trkpt lat="37.0161970" lon="-2.4463040">
        <ele>272.0</ele>
        <time>2019-10-18T18:04:53Z</time>
      </trkpt>
      <trkpt lat="37.0161940" lon="-2.4463030">
        <ele>272.0</ele>
        <time>2019-10-18T18:04:54Z</time>
      </trkpt>
      <trkpt lat="37.0161930" lon="-2.4463020">
        <ele>272.0</ele>
        <time>2019-10-18T18:04:55Z</time>
      </trkpt>
      <trkpt lat="37.0161890" lon="-2.4463020">
        <ele>272.0</ele>
        <time>2019-10-18T18:04:56Z</time>
      </trkpt>
      <trkpt lat="37.0161870" lon="-2.4463010">
        <ele>272.0</ele>
        <time>2019-10-18T18:04:57Z</time>
      </trkpt>
      <trkpt lat="37.0161840" lon="-2.4463010">
        <ele>272.1</ele>
        <time>2019-10-18T18:04:58Z</time>
      </trkpt>
      <trkpt lat="37.0161820" lon="-2.4463010">
        <ele>272.1</ele>
        <time>2019-10-18T18:04:59Z</time>
      </trkpt>
      <trkpt lat="37.0161810" lon="-2.4463000">
        <ele>272.1</ele>
        <time>2019-10-18T18:05:00Z</time>
      </trkpt>
      <trkpt lat="37.0161790" lon="-2.4463000">
        <ele>272.1</ele>
        <time>2019-10-18T18:05:01Z</time>
      </trkpt>
      <trkpt lat="37.0161790" lon="-2.4463000">
        <ele>272.1</ele>
        <time>2019-10-18T18:05:02Z</time>
      </trkpt>
      <trkpt lat="37.0161780" lon="-2.4463010">
        <ele>272.1</ele>
        <time>2019-10-18T18:05:03Z</time>
      </trkpt>
      <trkpt lat="37.0161780" lon="-2.4463020">
        <ele>272.1</ele>
        <time>2019-10-18T18:05:04Z</time>
      </trkpt>
      <trkpt lat="37.0161780" lon="-2.4463030">
        <ele>272.1</ele>
        <time>2019-10-18T18:05:05Z</time>
      </trkpt>
      <trkpt lat="37.0161780" lon="-2.4463020">
        <ele>272.1</ele>
        <time>2019-10-18T18:05:06Z</time>
      </trkpt>
      <trkpt lat="37.0161790" lon="-2.4463020">
        <ele>272.1</ele>
        <time>2019-10-18T18:05:07Z</time>
      </trkpt>
      <trkpt lat="37.0161800" lon="-2.4463000">
        <ele>272.1</ele>
        <time>2019-10-18T18:05:08Z</time>
      </trkpt>
      <trkpt lat="37.0161800" lon="-2.4462990">
        <ele>272.1</ele>
        <time>2019-10-18T18:05:09Z</time>
      </trkpt>
      <trkpt lat="37.0161800" lon="-2.4462980">
        <ele>272.1</ele>
        <time>2019-10-18T18:05:10Z</time>
      </trkpt>
      <trkpt lat="37.0161800" lon="-2.4462980">
        <ele>272.1</ele>
        <time>2019-10-18T18:05:11Z</time>
      </trkpt>
      <trkpt lat="37.0161810" lon="-2.4462970">
        <ele>272.1</ele>
        <time>2019-10-18T18:05:12Z</time>
      </trkpt>
      <trkpt lat="37.0161830" lon="-2.4462960">
        <ele>272.1</ele>
        <time>2019-10-18T18:05:13Z</time>
      </trkpt>
      <trkpt lat="37.0161850" lon="-2.4462960">
        <ele>272.1</ele>
        <time>2019-10-18T18:05:14Z</time>
      </trkpt>
      <trkpt lat="37.0161870" lon="-2.4462960">
        <ele>272.1</ele>
        <time>2019-10-18T18:05:15Z</time>
      </trkpt>
      <trkpt lat="37.0161890" lon="-2.4462960">
        <ele>272.1</ele>
        <time>2019-10-18T18:05:16Z</time>
      </trkpt>
      <trkpt lat="37.0161910" lon="-2.4462960">
        <ele>272.1</ele>
        <time>2019-10-18T18:05:17Z</time>
      </trkpt>
      <trkpt lat="37.0161930" lon="-2.4462960">
        <ele>272.1</ele>
        <time>2019-10-18T18:05:18Z</time>
      </trkpt>
      <trkpt lat="37.0161940" lon="-2.4462960">
        <ele>272.1</ele>
        <time>2019-10-18T18:05:19Z</time>
      </trkpt>
      <trkpt lat="37.0161940" lon="-2.4462950">
        <ele>272.1</ele>
        <time>2019-10-18T18:05:20Z</time>
      </trkpt>
      <trkpt lat="37.0161950" lon="-2.4462930">
        <ele>272.1</ele>
        <time>2019-10-18T18:05:21Z</time>
      </trkpt>
      <trkpt lat="37.0161960" lon="-2.4462920">
        <ele>272.1</ele>
        <time>2019-10-18T18:05:22Z</time>
      </trkpt>
      <trkpt lat="37.0161960" lon="-2.4462910">
        <ele>272.1</ele>
        <time>2019-10-18T18:05:23Z</time>
      </trkpt>
      <trkpt lat="37.0161930" lon="-2.4462890">
        <ele>272.1</ele>
        <time>2019-10-18T18:05:24Z</time>
      </trkpt>
      <trkpt lat="37.0161900" lon="-2.4462870">
        <ele>272.1</ele>
        <time>2019-10-18T18:05:25Z</time>
      </trkpt>
      <trkpt lat="37.0161880" lon="-2.4462850">
        <ele>272.1</ele>
        <time>2019-10-18T18:05:26Z</time>
      </trkpt>
      <trkpt lat="37.0161870" lon="-2.4462830">
        <ele>272.1</ele>
        <time>2019-10-18T18:05:27Z</time>
      </trkpt>
      <trkpt lat="37.0161870" lon="-2.4462830">
        <ele>272.1</ele>
        <time>2019-10-18T18:05:28Z</time>
      </trkpt>
      <trkpt lat="37.0161860" lon="-2.4462820">
        <ele>272.1</ele>
        <time>2019-10-18T18:05:29Z</time>
      </trkpt>
      <trkpt lat="37.0161870" lon="-2.4462810">
        <ele>272.1</ele>
        <time>2019-10-18T18:05:30Z</time>
      </trkpt>
      <trkpt lat="37.0161890" lon="-2.4462830">
        <ele>272.1</ele>
        <time>2019-10-18T18:05:31Z</time>
      </trkpt>
      <trkpt lat="37.0161910" lon="-2.4462860">
        <ele>272.1</ele>
        <time>2019-10-18T18:05:32Z</time>
      </trkpt>
      <trkpt lat="37.0161920" lon="-2.4462880">
        <ele>272.1</ele>
        <time>2019-10-18T18:05:33Z</time>
      </trkpt>
      <trkpt lat="37.0161920" lon="-2.4462890">
        <ele>272.1</ele>
        <time>2019-10-18T18:05:34Z</time>
      </trkpt>
      <trkpt lat="37.0161900" lon="-2.4462910">
        <ele>272.1</ele>
        <time>2019-10-18T18:05:35Z</time>
      </trkpt>
      <trkpt lat="37.0161890" lon="-2.4462920">
        <ele>272.1</ele>
        <time>2019-10-18T18:05:36Z</time>
      </trkpt>
      <trkpt lat="37.0161870" lon="-2.4462940">
        <ele>272.1</ele>
        <time>2019-10-18T18:05:37Z</time>
      </trkpt>
      <trkpt lat="37.0161830" lon="-2.4462950">
        <ele>272.1</ele>
        <time>2019-10-18T18:05:38Z</time>
      </trkpt>
      <trkpt lat="37.0161790" lon="-2.4462950">
        <ele>272.1</ele>
        <time>2019-10-18T18:05:39Z</time>
      </trkpt>
      <trkpt lat="37.0161750" lon="-2.4462950">
        <ele>272.1</ele>
        <time>2019-10-18T18:05:40Z</time>
      </trkpt>
      <trkpt lat="37.0161750" lon="-2.4462950">
        <ele>272.1</ele>
        <time>2019-10-18T18:05:41Z</time>
      </trkpt>
      <trkpt lat="37.0161740" lon="-2.4462960">
        <ele>272.1</ele>
        <time>2019-10-18T18:05:42Z</time>
      </trkpt>
      <trkpt lat="37.0161750" lon="-2.4462960">
        <ele>272.1</ele>
        <time>2019-10-18T18:05:43Z</time>
      </trkpt>
      <trkpt lat="37.0161730" lon="-2.4462970">
        <ele>272.1</ele>
        <time>2019-10-18T18:05:44Z</time>
      </trkpt>
      <trkpt lat="37.0161740" lon="-2.4462980">
        <ele>272.1</ele>
        <time>2019-10-18T18:05:45Z</time>
      </trkpt>
      <trkpt lat="37.0161730" lon="-2.4462980">
        <ele>272.1</ele>
        <time>2019-10-18T18:05:46Z</time>
      </trkpt>
      <trkpt lat="37.0161720" lon="-2.4463000">
        <ele>272.1</ele>
        <time>2019-10-18T18:05:47Z</time>
      </trkpt>
      <trkpt lat="37.0161720" lon="-2.4463010">
        <ele>272.1</ele>
        <time>2019-10-18T18:05:48Z</time>
      </trkpt>
      <trkpt lat="37.0161720" lon="-2.4463030">
        <ele>272.1</ele>
        <time>2019-10-18T18:05:49Z</time>
      </trkpt>
      <trkpt lat="37.0161730" lon="-2.4463050">
        <ele>272.1</ele>
        <time>2019-10-18T18:05:50Z</time>
      </trkpt>
      <trkpt lat="37.0161740" lon="-2.4463060">
        <ele>272.1</ele>
        <time>2019-10-18T18:05:51Z</time>
      </trkpt>
      <trkpt lat="37.0161750" lon="-2.4463060">
        <ele>272.1</ele>
        <time>2019-10-18T18:05:52Z</time>
      </trkpt>
      <trkpt lat="37.0161740" lon="-2.4463060">
        <ele>272.1</ele>
        <time>2019-10-18T18:05:53Z</time>
      </trkpt>
      <trkpt lat="37.0161720" lon="-2.4463050">
        <ele>272.1</ele>
        <time>2019-10-18T18:05:54Z</time>
      </trkpt>
      <trkpt lat="37.0161680" lon="-2.4463060">
        <ele>272.1</ele>
        <time>2019-10-18T18:05:55Z</time>
      </trkpt>
      <trkpt lat="37.0161610" lon="-2.4463070">
        <ele>272.0</ele>
        <time>2019-10-18T18:05:56Z</time>
      </trkpt>
      <trkpt lat="37.0161540" lon="-2.4463100">
        <ele>272.0</ele>
        <time>2019-10-18T18:05:57Z</time>
      </trkpt>
      <trkpt lat="37.0161460" lon="-2.4463150">
        <ele>272.0</ele>
        <time>2019-10-18T18:05:58Z</time>
      </trkpt>
      <trkpt lat="37.0161390" lon="-2.4463200">
        <ele>272.0</ele>
        <time>2019-10-18T18:05:59Z</time>
      </trkpt>
      <trkpt lat="37.0161330" lon="-2.4463240">
        <ele>272.0</ele>
        <time>2019-10-18T18:06:00Z</time>
      </trkpt>
      <trkpt lat="37.0161270" lon="-2.4463260">
        <ele>272.0</ele>
        <time>2019-10-18T18:06:01Z</time>
      </trkpt>
      <trkpt lat="37.0161240" lon="-2.4463260">
        <ele>272.0</ele>
        <time>2019-10-18T18:06:02Z</time>
      </trkpt>
      <trkpt lat="37.0161230" lon="-2.4463250">
        <ele>272.0</ele>
        <time>2019-10-18T18:06:03Z</time>
      </trkpt>
      <trkpt lat="37.0161250" lon="-2.4463260">
        <ele>272.0</ele>
        <time>2019-10-18T18:06:04Z</time>
      </trkpt>
      <trkpt lat="37.0161260" lon="-2.4463260">
        <ele>272.0</ele>
        <time>2019-10-18T18:06:05Z</time>
      </trkpt>
      <trkpt lat="37.0161260" lon="-2.4463230">
        <ele>272.0</ele>
        <time>2019-10-18T18:06:06Z</time>
      </trkpt>
      <trkpt lat="37.0161270" lon="-2.4463190">
        <ele>272.0</ele>
        <time>2019-10-18T18:06:07Z</time>
      </trkpt>
      <trkpt lat="37.0161290" lon="-2.4463150">
        <ele>272.0</ele>
        <time>2019-10-18T18:06:08Z</time>
      </trkpt>
      <trkpt lat="37.0161340" lon="-2.4463110">
        <ele>272.0</ele>
        <time>2019-10-18T18:06:09Z</time>
      </trkpt>
      <trkpt lat="37.0161370" lon="-2.4463060">
        <ele>272.0</ele>
        <time>2019-10-18T18:06:10Z</time>
      </trkpt>
      <trkpt lat="37.0161400" lon="-2.4463030">
        <ele>272.0</ele>
        <time>2019-10-18T18:06:11Z</time>
      </trkpt>
      <trkpt lat="37.0161410" lon="-2.4463000">
        <ele>272.0</ele>
        <time>2019-10-18T18:06:12Z</time>
      </trkpt>
      <trkpt lat="37.0161420" lon="-2.4462990">
        <ele>272.0</ele>
        <time>2019-10-18T18:06:13Z</time>
      </trkpt>
      <trkpt lat="37.0161450" lon="-2.4462990">
        <ele>272.0</ele>
        <time>2019-10-18T18:06:14Z</time>
      </trkpt>
      <trkpt lat="37.0161480" lon="-2.4463000">
        <ele>272.0</ele>
        <time>2019-10-18T18:06:15Z</time>
      </trkpt>
      <trkpt lat="37.0161500" lon="-2.4463000">
        <ele>272.0</ele>
        <time>2019-10-18T18:06:16Z</time>
      </trkpt>
      <trkpt lat="37.0161510" lon="-2.4462980">
        <ele>272.0</ele>
        <time>2019-10-18T18:06:17Z</time>
      </trkpt>
      <trkpt lat="37.0161510" lon="-2.4462960">
        <ele>272.0</ele>
        <time>2019-10-18T18:06:18Z</time>
      </trkpt>
      <trkpt lat="37.0161520" lon="-2.4462940">
        <ele>272.0</ele>
        <time>2019-10-18T18:06:19Z</time>
      </trkpt>
      <trkpt lat="37.0161530" lon="-2.4462920">
        <ele>272.0</ele>
        <time>2019-10-18T18:06:20Z</time>
      </trkpt>
      <trkpt lat="37.0161550" lon="-2.4462920">
        <ele>272.0</ele>
        <time>2019-10-18T18:06:21Z</time>
      </trkpt>
      <trkpt lat="37.0161590" lon="-2.4462930">
        <ele>272.0</ele>
        <time>2019-10-18T18:06:22Z</time>
      </trkpt>
      <trkpt lat="37.0161620" lon="-2.4462940">
        <ele>272.0</ele>
        <time>2019-10-18T18:06:23Z</time>
      </trkpt>
      <trkpt lat="37.0161650" lon="-2.4462940">
        <ele>271.9</ele>
        <time>2019-10-18T18:06:24Z</time>
      </trkpt>
      <trkpt lat="37.0161670" lon="-2.4462940">
        <ele>271.9</ele>
        <time>2019-10-18T18:06:25Z</time>
      </trkpt>
      <trkpt lat="37.0161690" lon="-2.4462940">
        <ele>271.9</ele>
        <time>2019-10-18T18:06:26Z</time>
      </trkpt>
      <trkpt lat="37.0161700" lon="-2.4462950">
        <ele>271.9</ele>
        <time>2019-10-18T18:06:27Z</time>
      </trkpt>
      <trkpt lat="37.0161710" lon="-2.4462940">
        <ele>271.9</ele>
        <time>2019-10-18T18:06:28Z</time>
      </trkpt>
      <trkpt lat="37.0161700" lon="-2.4462940">
        <ele>271.9</ele>
        <time>2019-10-18T18:06:29Z</time>
      </trkpt>
      <trkpt lat="37.0161710" lon="-2.4462930">
        <ele>271.9</ele>
        <time>2019-10-18T18:06:30Z</time>
      </trkpt>
      <trkpt lat="37.0161720" lon="-2.4462930">
        <ele>271.9</ele>
        <time>2019-10-18T18:06:31Z</time>
      </trkpt>
      <trkpt lat="37.0161720" lon="-2.4462930">
        <ele>271.9</ele>
        <time>2019-10-18T18:06:32Z</time>
      </trkpt>
      <trkpt lat="37.0161720" lon="-2.4462910">
        <ele>271.9</ele>
        <time>2019-10-18T18:06:33Z</time>
      </trkpt>
      <trkpt lat="37.0161720" lon="-2.4462910">
        <ele>271.9</ele>
        <time>2019-10-18T18:06:34Z</time>
      </trkpt>
      <trkpt lat="37.0161720" lon="-2.4462910">
        <ele>271.9</ele>
        <time>2019-10-18T18:06:35Z</time>
      </trkpt>
      <trkpt lat="37.0161740" lon="-2.4462920">
        <ele>271.9</ele>
        <time>2019-10-18T18:06:36Z</time>
      </trkpt>
      <trkpt lat="37.0161760" lon="-2.4462920">
        <ele>271.9</ele>
        <time>2019-10-18T18:06:37Z</time>
      </trkpt>
      <trkpt lat="37.0161790" lon="-2.4462930">
        <ele>271.9</ele>
        <time>2019-10-18T18:06:38Z</time>
      </trkpt>
      <trkpt lat="37.0161830" lon="-2.4462930">
        <ele>271.9</ele>
        <time>2019-10-18T18:06:39Z</time>
      </trkpt>
      <trkpt lat="37.0161860" lon="-2.4462930">
        <ele>271.9</ele>
        <time>2019-10-18T18:06:40Z</time>
      </trkpt>
      <trkpt lat="37.0161880" lon="-2.4462930">
        <ele>271.9</ele>
        <time>2019-10-18T18:06:41Z</time>
      </trkpt>
      <trkpt lat="37.0161900" lon="-2.4462930">
        <ele>271.9</ele>
        <time>2019-10-18T18:06:42Z</time>
      </trkpt>
      <trkpt lat="37.0161920" lon="-2.4462920">
        <ele>271.9</ele>
        <time>2019-10-18T18:06:43Z</time>
      </trkpt>
      <trkpt lat="37.0161940" lon="-2.4462920">
        <ele>271.9</ele>
        <time>2019-10-18T18:06:44Z</time>
      </trkpt>
      <trkpt lat="37.0161960" lon="-2.4462900">
        <ele>271.9</ele>
        <time>2019-10-18T18:06:45Z</time>
      </trkpt>
      <trkpt lat="37.0161970" lon="-2.4462900">
        <ele>271.9</ele>
        <time>2019-10-18T18:06:46Z</time>
      </trkpt>
      <trkpt lat="37.0161970" lon="-2.4462910">
        <ele>271.9</ele>
        <time>2019-10-18T18:06:47Z</time>
      </trkpt>
      <trkpt lat="37.0161980" lon="-2.4462930">
        <ele>271.9</ele>
        <time>2019-10-18T18:06:48Z</time>
      </trkpt>
      <trkpt lat="37.0162010" lon="-2.4462940">
        <ele>271.9</ele>
        <time>2019-10-18T18:06:49Z</time>
      </trkpt>
      <trkpt lat="37.0162030" lon="-2.4462940">
        <ele>271.9</ele>
        <time>2019-10-18T18:06:50Z</time>
      </trkpt>
      <trkpt lat="37.0162040" lon="-2.4462950">
        <ele>271.9</ele>
        <time>2019-10-18T18:06:51Z</time>
      </trkpt>
      <trkpt lat="37.0162050" lon="-2.4462960">
        <ele>271.9</ele>
        <time>2019-10-18T18:06:52Z</time>
      </trkpt>
      <trkpt lat="37.0162060" lon="-2.4462950">
        <ele>271.9</ele>
        <time>2019-10-18T18:06:53Z</time>
      </trkpt>
      <trkpt lat="37.0162070" lon="-2.4462940">
        <ele>271.9</ele>
        <time>2019-10-18T18:06:54Z</time>
      </trkpt>
      <trkpt lat="37.0162090" lon="-2.4462930">
        <ele>271.9</ele>
        <time>2019-10-18T18:06:55Z</time>
      </trkpt>
      <trkpt lat="37.0162110" lon="-2.4462930">
        <ele>271.9</ele>
        <time>2019-10-18T18:06:56Z</time>
      </trkpt>
      <trkpt lat="37.0162120" lon="-2.4462930">
        <ele>271.9</ele>
        <time>2019-10-18T18:06:57Z</time>
      </trkpt>
      <trkpt lat="37.0162140" lon="-2.4462930">
        <ele>271.9</ele>
        <time>2019-10-18T18:06:58Z</time>
      </trkpt>
      <trkpt lat="37.0162130" lon="-2.4462930">
        <ele>271.9</ele>
        <time>2019-10-18T18:06:59Z</time>
      </trkpt>
      <trkpt lat="37.0162130" lon="-2.4462930">
        <ele>271.9</ele>
        <time>2019-10-18T18:07:00Z</time>
      </trkpt>
      <trkpt lat="37.0162120" lon="-2.4462920">
        <ele>271.9</ele>
        <time>2019-10-18T18:07:01Z</time>
      </trkpt>
      <trkpt lat="37.0162100" lon="-2.4462930">
        <ele>271.9</ele>
        <time>2019-10-18T18:07:02Z</time>
      </trkpt>
      <trkpt lat="37.0162100" lon="-2.4462930">
        <ele>271.9</ele>
        <time>2019-10-18T18:07:03Z</time>
      </trkpt>
      <trkpt lat="37.0162080" lon="-2.4462950">
        <ele>271.9</ele>
        <time>2019-10-18T18:07:04Z</time>
      </trkpt>
      <trkpt lat="37.0162070" lon="-2.4462960">
        <ele>271.9</ele>
        <time>2019-10-18T18:07:05Z</time>
      </trkpt>
      <trkpt lat="37.0162040" lon="-2.4462970">
        <ele>271.9</ele>
        <time>2019-10-18T18:07:06Z</time>
      </trkpt>
      <trkpt lat="37.0162020" lon="-2.4462970">
        <ele>271.9</ele>
        <time>2019-10-18T18:07:07Z</time>
      </trkpt>
      <trkpt lat="37.0161990" lon="-2.4462970">
        <ele>271.9</ele>
        <time>2019-10-18T18:07:08Z</time>
      </trkpt>
      <trkpt lat="37.0161970" lon="-2.4462980">
        <ele>271.9</ele>
        <time>2019-10-18T18:07:09Z</time>
      </trkpt>
      <trkpt lat="37.0161930" lon="-2.4462980">
        <ele>271.9</ele>
        <time>2019-10-18T18:07:10Z</time>
      </trkpt>
      <trkpt lat="37.0161900" lon="-2.4462970">
        <ele>271.9</ele>
        <time>2019-10-18T18:07:11Z</time>
      </trkpt>
      <trkpt lat="37.0161900" lon="-2.4462970">
        <ele>271.9</ele>
        <time>2019-10-18T18:07:12Z</time>
      </trkpt>
      <trkpt lat="37.0161880" lon="-2.4462960">
        <ele>271.9</ele>
        <time>2019-10-18T18:07:13Z</time>
      </trkpt>
      <trkpt lat="37.0161880" lon="-2.4462960">
        <ele>271.9</ele>
        <time>2019-10-18T18:07:14Z</time>
      </trkpt>
      <trkpt lat="37.0161860" lon="-2.4462950">
        <ele>271.9</ele>
        <time>2019-10-18T18:07:15Z</time>
      </trkpt>
      <trkpt lat="37.0161850" lon="-2.4462940">
        <ele>271.9</ele>
        <time>2019-10-18T18:07:16Z</time>
      </trkpt>
      <trkpt lat="37.0161830" lon="-2.4462930">
        <ele>271.9</ele>
        <time>2019-10-18T18:07:17Z</time>
      </trkpt>
      <trkpt lat="37.0161820" lon="-2.4462930">
        <ele>271.9</ele>
        <time>2019-10-18T18:07:18Z</time>
      </trkpt>
      <trkpt lat="37.0161820" lon="-2.4462940">
        <ele>271.9</ele>
        <time>2019-10-18T18:07:19Z</time>
      </trkpt>
      <trkpt lat="37.0161830" lon="-2.4462940">
        <ele>271.9</ele>
        <time>2019-10-18T18:07:20Z</time>
      </trkpt>
      <trkpt lat="37.0161840" lon="-2.4462920">
        <ele>271.9</ele>
        <time>2019-10-18T18:07:21Z</time>
      </trkpt>
      <trkpt lat="37.0161870" lon="-2.4462910">
        <ele>271.9</ele>
        <time>2019-10-18T18:07:22Z</time>
      </trkpt>
      <trkpt lat="37.0161880" lon="-2.4462880">
        <ele>271.9</ele>
        <time>2019-10-18T18:07:23Z</time>
      </trkpt>
      <trkpt lat="37.0161870" lon="-2.4462870">
        <ele>271.9</ele>
        <time>2019-10-18T18:07:24Z</time>
      </trkpt>
      <trkpt lat="37.0161870" lon="-2.4462870">
        <ele>271.9</ele>
        <time>2019-10-18T18:07:25Z</time>
      </trkpt>
      <trkpt lat="37.0161870" lon="-2.4462880">
        <ele>271.9</ele>
        <time>2019-10-18T18:07:26Z</time>
      </trkpt>
      <trkpt lat="37.0161880" lon="-2.4462890">
        <ele>271.9</ele>
        <time>2019-10-18T18:07:27Z</time>
      </trkpt>
      <trkpt lat="37.0161880" lon="-2.4462900">
        <ele>271.9</ele>
        <time>2019-10-18T18:07:28Z</time>
      </trkpt>
      <trkpt lat="37.0161880" lon="-2.4462900">
        <ele>271.9</ele>
        <time>2019-10-18T18:07:29Z</time>
      </trkpt>
      <trkpt lat="37.0161860" lon="-2.4462890">
        <ele>271.9</ele>
        <time>2019-10-18T18:07:30Z</time>
      </trkpt>
      <trkpt lat="37.0161850" lon="-2.4462880">
        <ele>271.9</ele>
        <time>2019-10-18T18:07:31Z</time>
      </trkpt>
      <trkpt lat="37.0161840" lon="-2.4462870">
        <ele>271.9</ele>
        <time>2019-10-18T18:07:32Z</time>
      </trkpt>
      <trkpt lat="37.0161850" lon="-2.4462880">
        <ele>271.9</ele>
        <time>2019-10-18T18:07:33Z</time>
      </trkpt>
      <trkpt lat="37.0161860" lon="-2.4462870">
        <ele>271.9</ele>
        <time>2019-10-18T18:07:34Z</time>
      </trkpt>
      <trkpt lat="37.0161870" lon="-2.4462870">
        <ele>271.9</ele>
        <time>2019-10-18T18:07:35Z</time>
      </trkpt>
      <trkpt lat="37.0161880" lon="-2.4462880">
        <ele>271.9</ele>
        <time>2019-10-18T18:07:36Z</time>
      </trkpt>
      <trkpt lat="37.0161880" lon="-2.4462890">
        <ele>271.9</ele>
        <time>2019-10-18T18:07:37Z</time>
      </trkpt>
      <trkpt lat="37.0161870" lon="-2.4462880">
        <ele>271.9</ele>
        <time>2019-10-18T18:07:38Z</time>
      </trkpt>
      <trkpt lat="37.0161860" lon="-2.4462880">
        <ele>271.9</ele>
        <time>2019-10-18T18:07:39Z</time>
      </trkpt>
      <trkpt lat="37.0161840" lon="-2.4462880">
        <ele>271.9</ele>
        <time>2019-10-18T18:07:40Z</time>
      </trkpt>
      <trkpt lat="37.0161810" lon="-2.4462890">
        <ele>271.9</ele>
        <time>2019-10-18T18:07:41Z</time>
      </trkpt>
      <trkpt lat="37.0161780" lon="-2.4462890">
        <ele>271.8</ele>
        <time>2019-10-18T18:07:42Z</time>
      </trkpt>
      <trkpt lat="37.0161750" lon="-2.4462890">
        <ele>271.8</ele>
        <time>2019-10-18T18:07:43Z</time>
      </trkpt>
      <trkpt lat="37.0161720" lon="-2.4462880">
        <ele>271.8</ele>
        <time>2019-10-18T18:07:44Z</time>
      </trkpt>
      <trkpt lat="37.0161700" lon="-2.4462870">
        <ele>271.8</ele>
        <time>2019-10-18T18:07:45Z</time>
      </trkpt>
      <trkpt lat="37.0161680" lon="-2.4462870">
        <ele>271.8</ele>
        <time>2019-10-18T18:07:46Z</time>
      </trkpt>
      <trkpt lat="37.0161670" lon="-2.4462860">
        <ele>271.8</ele>
        <time>2019-10-18T18:07:47Z</time>
      </trkpt>
      <trkpt lat="37.0161650" lon="-2.4462850">
        <ele>271.8</ele>
        <time>2019-10-18T18:07:48Z</time>
      </trkpt>
      <trkpt lat="37.0161630" lon="-2.4462830">
        <ele>271.8</ele>
        <time>2019-10-18T18:07:49Z</time>
      </trkpt>
      <trkpt lat="37.0161630" lon="-2.4462820">
        <ele>271.8</ele>
        <time>2019-10-18T18:07:50Z</time>
      </trkpt>
      <trkpt lat="37.0161650" lon="-2.4462820">
        <ele>271.8</ele>
        <time>2019-10-18T18:07:51Z</time>
      </trkpt>
      <trkpt lat="37.0161670" lon="-2.4462830">
        <ele>271.8</ele>
        <time>2019-10-18T18:07:52Z</time>
      </trkpt>
      <trkpt lat="37.0161670" lon="-2.4462830">
        <ele>271.8</ele>
        <time>2019-10-18T18:07:53Z</time>
      </trkpt>
      <trkpt lat="37.0161670" lon="-2.4462830">
        <ele>271.8</ele>
        <time>2019-10-18T18:07:54Z</time>
      </trkpt>
      <trkpt lat="37.0161670" lon="-2.4462830">
        <ele>271.8</ele>
        <time>2019-10-18T18:07:55Z</time>
      </trkpt>
      <trkpt lat="37.0161670" lon="-2.4462840">
        <ele>271.8</ele>
        <time>2019-10-18T18:07:56Z</time>
      </trkpt>
      <trkpt lat="37.0161680" lon="-2.4462840">
        <ele>271.8</ele>
        <time>2019-10-18T18:07:57Z</time>
      </trkpt>
      <trkpt lat="37.0161690" lon="-2.4462850">
        <ele>271.8</ele>
        <time>2019-10-18T18:07:58Z</time>
      </trkpt>
      <trkpt lat="37.0161710" lon="-2.4462870">
        <ele>271.8</ele>
        <time>2019-10-18T18:07:59Z</time>
      </trkpt>
      <trkpt lat="37.0161720" lon="-2.4462920">
        <ele>271.8</ele>
        <time>2019-10-18T18:08:00Z</time>
      </trkpt>
      <trkpt lat="37.0161720" lon="-2.4462920">
        <ele>271.8</ele>
        <time>2019-10-18T18:08:01Z</time>
      </trkpt>
      <trkpt lat="37.0161720" lon="-2.4462930">
        <ele>271.8</ele>
        <time>2019-10-18T18:08:02Z</time>
      </trkpt>
      <trkpt lat="37.0161730" lon="-2.4462940">
        <ele>271.8</ele>
        <time>2019-10-18T18:08:03Z</time>
      </trkpt>
      <trkpt lat="37.0161740" lon="-2.4462940">
        <ele>271.8</ele>
        <time>2019-10-18T18:08:04Z</time>
      </trkpt>
      <trkpt lat="37.0161760" lon="-2.4462940">
        <ele>271.8</ele>
        <time>2019-10-18T18:08:05Z</time>
      </trkpt>
      <trkpt lat="37.0161780" lon="-2.4462930">
        <ele>271.8</ele>
        <time>2019-10-18T18:08:06Z</time>
      </trkpt>
      <trkpt lat="37.0161800" lon="-2.4462920">
        <ele>271.8</ele>
        <time>2019-10-18T18:08:07Z</time>
      </trkpt>
      <trkpt lat="37.0161810" lon="-2.4462910">
        <ele>271.8</ele>
        <time>2019-10-18T18:08:08Z</time>
      </trkpt>
      <trkpt lat="37.0161810" lon="-2.4462900">
        <ele>271.8</ele>
        <time>2019-10-18T18:08:09Z</time>
      </trkpt>
      <trkpt lat="37.0161820" lon="-2.4462910">
        <ele>271.8</ele>
        <time>2019-10-18T18:08:10Z</time>
      </trkpt>
      <trkpt lat="37.0161820" lon="-2.4462920">
        <ele>271.8</ele>
        <time>2019-10-18T18:08:11Z</time>
      </trkpt>
      <trkpt lat="37.0161820" lon="-2.4462930">
        <ele>271.8</ele>
        <time>2019-10-18T18:08:12Z</time>
      </trkpt>
      <trkpt lat="37.0161810" lon="-2.4462930">
        <ele>271.8</ele>
        <time>2019-10-18T18:08:13Z</time>
      </trkpt>
      <trkpt lat="37.0161810" lon="-2.4462920">
        <ele>271.8</ele>
        <time>2019-10-18T18:08:14Z</time>
      </trkpt>
      <trkpt lat="37.0161810" lon="-2.4462920">
        <ele>271.8</ele>
        <time>2019-10-18T18:08:15Z</time>
      </trkpt>
      <trkpt lat="37.0161810" lon="-2.4462930">
        <ele>271.8</ele>
        <time>2019-10-18T18:08:16Z</time>
      </trkpt>
      <trkpt lat="37.0161810" lon="-2.4462930">
        <ele>271.8</ele>
        <time>2019-10-18T18:08:17Z</time>
      </trkpt>
      <trkpt lat="37.0161810" lon="-2.4462940">
        <ele>271.8</ele>
        <time>2019-10-18T18:08:18Z</time>
      </trkpt>
      <trkpt lat="37.0161800" lon="-2.4462950">
        <ele>271.8</ele>
        <time>2019-10-18T18:08:19Z</time>
      </trkpt>
      <trkpt lat="37.0161800" lon="-2.4462960">
        <ele>271.8</ele>
        <time>2019-10-18T18:08:20Z</time>
      </trkpt>
      <trkpt lat="37.0161790" lon="-2.4462970">
        <ele>271.8</ele>
        <time>2019-10-18T18:08:21Z</time>
      </trkpt>
      <trkpt lat="37.0161790" lon="-2.4462980">
        <ele>271.8</ele>
        <time>2019-10-18T18:08:22Z</time>
      </trkpt>
      <trkpt lat="37.0161790" lon="-2.4462980">
        <ele>271.8</ele>
        <time>2019-10-18T18:08:23Z</time>
      </trkpt>
      <trkpt lat="37.0161800" lon="-2.4462980">
        <ele>271.8</ele>
        <time>2019-10-18T18:08:24Z</time>
      </trkpt>
      <trkpt lat="37.0161820" lon="-2.4462990">
        <ele>271.8</ele>
        <time>2019-10-18T18:08:25Z</time>
      </trkpt>
      <trkpt lat="37.0161850" lon="-2.4462990">
        <ele>271.8</ele>
        <time>2019-10-18T18:08:26Z</time>
      </trkpt>
      <trkpt lat="37.0161890" lon="-2.4462990">
        <ele>271.8</ele>
        <time>2019-10-18T18:08:27Z</time>
      </trkpt>
      <trkpt lat="37.0161940" lon="-2.4463000">
        <ele>271.8</ele>
        <time>2019-10-18T18:08:28Z</time>
      </trkpt>
      <trkpt lat="37.0161970" lon="-2.4463010">
        <ele>271.8</ele>
        <time>2019-10-18T18:08:29Z</time>
      </trkpt>
      <trkpt lat="37.0162010" lon="-2.4463010">
        <ele>271.8</ele>
        <time>2019-10-18T18:08:30Z</time>
      </trkpt>
      <trkpt lat="37.0162020" lon="-2.4463020">
        <ele>271.8</ele>
        <time>2019-10-18T18:08:31Z</time>
      </trkpt>
      <trkpt lat="37.0162020" lon="-2.4463010">
        <ele>271.8</ele>
        <time>2019-10-18T18:08:32Z</time>
      </trkpt>
      <trkpt lat="37.0162000" lon="-2.4463000">
        <ele>271.8</ele>
        <time>2019-10-18T18:08:33Z</time>
      </trkpt>
      <trkpt lat="37.0161980" lon="-2.4463000">
        <ele>271.8</ele>
        <time>2019-10-18T18:08:34Z</time>
      </trkpt>
      <trkpt lat="37.0161950" lon="-2.4462990">
        <ele>271.8</ele>
        <time>2019-10-18T18:08:35Z</time>
      </trkpt>
      <trkpt lat="37.0161950" lon="-2.4462990">
        <ele>271.8</ele>
        <time>2019-10-18T18:08:36Z</time>
      </trkpt>
      <trkpt lat="37.0161960" lon="-2.4462980">
        <ele>271.8</ele>
        <time>2019-10-18T18:08:37Z</time>
      </trkpt>
      <trkpt lat="37.0161990" lon="-2.4462970">
        <ele>271.8</ele>
        <time>2019-10-18T18:08:38Z</time>
      </trkpt>
      <trkpt lat="37.0162030" lon="-2.4462950">
        <ele>271.9</ele>
        <time>2019-10-18T18:08:39Z</time>
      </trkpt>
      <trkpt lat="37.0162040" lon="-2.4462940">
        <ele>271.9</ele>
        <time>2019-10-18T18:08:40Z</time>
      </trkpt>
      <trkpt lat="37.0162030" lon="-2.4462930">
        <ele>271.9</ele>
        <time>2019-10-18T18:08:41Z</time>
      </trkpt>
      <trkpt lat="37.0162030" lon="-2.4462930">
        <ele>271.9</ele>
        <time>2019-10-18T18:08:42Z</time>
      </trkpt>
      <trkpt lat="37.0162040" lon="-2.4462920">
        <ele>271.9</ele>
        <time>2019-10-18T18:08:43Z</time>
      </trkpt>
      <trkpt lat="37.0162060" lon="-2.4462920">
        <ele>271.9</ele>
        <time>2019-10-18T18:08:44Z</time>
      </trkpt>
      <trkpt lat="37.0162080" lon="-2.4462920">
        <ele>271.9</ele>
        <time>2019-10-18T18:08:45Z</time>
      </trkpt>
      <trkpt lat="37.0162090" lon="-2.4462920">
        <ele>271.9</ele>
        <time>2019-10-18T18:08:46Z</time>
      </trkpt>
      <trkpt lat="37.0162110" lon="-2.4462920">
        <ele>271.9</ele>
        <time>2019-10-18T18:08:47Z</time>
      </trkpt>
      <trkpt lat="37.0162120" lon="-2.4462920">
        <ele>271.9</ele>
        <time>2019-10-18T18:08:48Z</time>
      </trkpt>
      <trkpt lat="37.0162140" lon="-2.4462930">
        <ele>271.9</ele>
        <time>2019-10-18T18:08:49Z</time>
      </trkpt>
      <trkpt lat="37.0162140" lon="-2.4462930">
        <ele>271.9</ele>
        <time>2019-10-18T18:08:50Z</time>
      </trkpt>
      <trkpt lat="37.0162130" lon="-2.4462930">
        <ele>271.9</ele>
        <time>2019-10-18T18:08:51Z</time>
      </trkpt>
      <trkpt lat="37.0162130" lon="-2.4462930">
        <ele>271.9</ele>
        <time>2019-10-18T18:08:52Z</time>
      </trkpt>
      <trkpt lat="37.0162150" lon="-2.4462910">
        <ele>271.9</ele>
        <time>2019-10-18T18:08:53Z</time>
      </trkpt>
      <trkpt lat="37.0162180" lon="-2.4462880">
        <ele>271.9</ele>
        <time>2019-10-18T18:08:54Z</time>
      </trkpt>
      <trkpt lat="37.0162190" lon="-2.4462860">
        <ele>271.9</ele>
        <time>2019-10-18T18:08:55Z</time>
      </trkpt>
      <trkpt lat="37.0162190" lon="-2.4462860">
        <ele>271.9</ele>
        <time>2019-10-18T18:08:56Z</time>
      </trkpt>
      <trkpt lat="37.0162180" lon="-2.4462860">
        <ele>271.9</ele>
        <time>2019-10-18T18:08:57Z</time>
      </trkpt>
      <trkpt lat="37.0162160" lon="-2.4462860">
        <ele>271.9</ele>
        <time>2019-10-18T18:08:58Z</time>
      </trkpt>
      <trkpt lat="37.0162140" lon="-2.4462870">
        <ele>271.9</ele>
        <time>2019-10-18T18:08:59Z</time>
      </trkpt>
      <trkpt lat="37.0162140" lon="-2.4462890">
        <ele>271.9</ele>
        <time>2019-10-18T18:09:00Z</time>
      </trkpt>
      <trkpt lat="37.0162140" lon="-2.4462900">
        <ele>271.9</ele>
        <time>2019-10-18T18:09:01Z</time>
      </trkpt>
      <trkpt lat="37.0162130" lon="-2.4462910">
        <ele>271.9</ele>
        <time>2019-10-18T18:09:02Z</time>
      </trkpt>
      <trkpt lat="37.0162130" lon="-2.4462920">
        <ele>271.9</ele>
        <time>2019-10-18T18:09:03Z</time>
      </trkpt>
      <trkpt lat="37.0162130" lon="-2.4462930">
        <ele>271.9</ele>
        <time>2019-10-18T18:09:04Z</time>
      </trkpt>
      <trkpt lat="37.0162130" lon="-2.4462930">
        <ele>271.9</ele>
        <time>2019-10-18T18:09:05Z</time>
      </trkpt>
      <trkpt lat="37.0162130" lon="-2.4462930">
        <ele>271.9</ele>
        <time>2019-10-18T18:09:06Z</time>
      </trkpt>
      <trkpt lat="37.0162120" lon="-2.4462950">
        <ele>271.9</ele>
        <time>2019-10-18T18:09:07Z</time>
      </trkpt>
      <trkpt lat="37.0162110" lon="-2.4462960">
        <ele>271.9</ele>
        <time>2019-10-18T18:09:08Z</time>
      </trkpt>
      <trkpt lat="37.0162100" lon="-2.4462970">
        <ele>271.9</ele>
        <time>2019-10-18T18:09:09Z</time>
      </trkpt>
      <trkpt lat="37.0162100" lon="-2.4462970">
        <ele>271.9</ele>
        <time>2019-10-18T18:09:10Z</time>
      </trkpt>
      <trkpt lat="37.0162110" lon="-2.4462970">
        <ele>271.9</ele>
        <time>2019-10-18T18:09:11Z</time>
      </trkpt>
      <trkpt lat="37.0162120" lon="-2.4462980">
        <ele>271.9</ele>
        <time>2019-10-18T18:09:12Z</time>
      </trkpt>
      <trkpt lat="37.0162120" lon="-2.4462990">
        <ele>271.9</ele>
        <time>2019-10-18T18:09:13Z</time>
      </trkpt>
      <trkpt lat="37.0162110" lon="-2.4462990">
        <ele>271.9</ele>
        <time>2019-10-18T18:09:14Z</time>
      </trkpt>
      <trkpt lat="37.0162090" lon="-2.4463000">
        <ele>271.9</ele>
        <time>2019-10-18T18:09:15Z</time>
      </trkpt>
      <trkpt lat="37.0162080" lon="-2.4463010">
        <ele>271.9</ele>
        <time>2019-10-18T18:09:16Z</time>
      </trkpt>
      <trkpt lat="37.0162040" lon="-2.4463010">
        <ele>271.9</ele>
        <time>2019-10-18T18:09:17Z</time>
      </trkpt>
      <trkpt lat="37.0162020" lon="-2.4463000">
        <ele>271.9</ele>
        <time>2019-10-18T18:09:18Z</time>
      </trkpt>
      <trkpt lat="37.0162000" lon="-2.4462990">
        <ele>271.9</ele>
        <time>2019-10-18T18:09:19Z</time>
      </trkpt>
      <trkpt lat="37.0162000" lon="-2.4463000">
        <ele>271.9</ele>
        <time>2019-10-18T18:09:20Z</time>
      </trkpt>
      <trkpt lat="37.0162010" lon="-2.4462990">
        <ele>271.9</ele>
        <time>2019-10-18T18:09:21Z</time>
      </trkpt>
      <trkpt lat="37.0162010" lon="-2.4463000">
        <ele>271.9</ele>
        <time>2019-10-18T18:09:22Z</time>
      </trkpt>
      <trkpt lat="37.0162020" lon="-2.4463000">
        <ele>271.9</ele>
        <time>2019-10-18T18:09:23Z</time>
      </trkpt>
      <trkpt lat="37.0162010" lon="-2.4462990">
        <ele>271.9</ele>
        <time>2019-10-18T18:09:24Z</time>
      </trkpt>
      <trkpt lat="37.0162010" lon="-2.4462980">
        <ele>271.9</ele>
        <time>2019-10-18T18:09:25Z</time>
      </trkpt>
      <trkpt lat="37.0162010" lon="-2.4462960">
        <ele>271.9</ele>
        <time>2019-10-18T18:09:26Z</time>
      </trkpt>
      <trkpt lat="37.0162010" lon="-2.4462960">
        <ele>271.9</ele>
        <time>2019-10-18T18:09:27Z</time>
      </trkpt>
      <trkpt lat="37.0162010" lon="-2.4462930">
        <ele>271.9</ele>
        <time>2019-10-18T18:09:28Z</time>
      </trkpt>
      <trkpt lat="37.0162010" lon="-2.4462930">
        <ele>271.9</ele>
        <time>2019-10-18T18:09:29Z</time>
      </trkpt>
      <trkpt lat="37.0162000" lon="-2.4462930">
        <ele>271.9</ele>
        <time>2019-10-18T18:09:30Z</time>
      </trkpt>
      <trkpt lat="37.0161990" lon="-2.4462920">
        <ele>271.9</ele>
        <time>2019-10-18T18:09:31Z</time>
      </trkpt>
      <trkpt lat="37.0161990" lon="-2.4462920">
        <ele>271.9</ele>
        <time>2019-10-18T18:09:32Z</time>
      </trkpt>
      <trkpt lat="37.0161980" lon="-2.4462920">
        <ele>271.9</ele>
        <time>2019-10-18T18:09:33Z</time>
      </trkpt>
      <trkpt lat="37.0161980" lon="-2.4462920">
        <ele>271.9</ele>
        <time>2019-10-18T18:09:34Z</time>
      </trkpt>
      <trkpt lat="37.0161980" lon="-2.4462920">
        <ele>271.9</ele>
        <time>2019-10-18T18:09:35Z</time>
      </trkpt>
      <trkpt lat="37.0161960" lon="-2.4462930">
        <ele>271.9</ele>
        <time>2019-10-18T18:09:36Z</time>
      </trkpt>
      <trkpt lat="37.0161960" lon="-2.4462940">
        <ele>271.9</ele>
        <time>2019-10-18T18:09:37Z</time>
      </trkpt>
      <trkpt lat="37.0161950" lon="-2.4462950">
        <ele>271.9</ele>
        <time>2019-10-18T18:09:38Z</time>
      </trkpt>
      <trkpt lat="37.0161950" lon="-2.4462950">
        <ele>271.9</ele>
        <time>2019-10-18T18:09:39Z</time>
      </trkpt>
      <trkpt lat="37.0161940" lon="-2.4462960">
        <ele>271.9</ele>
        <time>2019-10-18T18:09:40Z</time>
      </trkpt>
      <trkpt lat="37.0161940" lon="-2.4462970">
        <ele>271.9</ele>
        <time>2019-10-18T18:09:41Z</time>
      </trkpt>
      <trkpt lat="37.0161930" lon="-2.4462970">
        <ele>271.9</ele>
        <time>2019-10-18T18:09:42Z</time>
      </trkpt>
      <trkpt lat="37.0161920" lon="-2.4462980">
        <ele>271.9</ele>
        <time>2019-10-18T18:09:43Z</time>
      </trkpt>
      <trkpt lat="37.0161910" lon="-2.4462980">
        <ele>271.9</ele>
        <time>2019-10-18T18:09:44Z</time>
      </trkpt>
      <trkpt lat="37.0161880" lon="-2.4462990">
        <ele>271.9</ele>
        <time>2019-10-18T18:09:45Z</time>
      </trkpt>
      <trkpt lat="37.0161820" lon="-2.4463000">
        <ele>271.9</ele>
        <time>2019-10-18T18:09:46Z</time>
      </trkpt>
      <trkpt lat="37.0161700" lon="-2.4463040">
        <ele>271.9</ele>
        <time>2019-10-18T18:09:47Z</time>
      </trkpt>
      <trkpt lat="37.0161700" lon="-2.4463040">
        <ele>271.9</ele>
        <time>2019-10-18T18:09:48Z</time>
      </trkpt>
      <trkpt lat="37.0161630" lon="-2.4462990">
        <ele>271.9</ele>
        <time>2019-10-18T18:09:49Z</time>
      </trkpt>
      <trkpt lat="37.0161630" lon="-2.4462870">
        <ele>271.9</ele>
        <time>2019-10-18T18:09:50Z</time>
      </trkpt>
      <trkpt lat="37.0161630" lon="-2.4462870">
        <ele>271.9</ele>
        <time>2019-10-18T18:09:51Z</time>
      </trkpt>
      <trkpt lat="37.0161690" lon="-2.4462720">
        <ele>271.9</ele>
        <time>2019-10-18T18:09:52Z</time>
      </trkpt>
      <trkpt lat="37.0161840" lon="-2.4462570">
        <ele>271.9</ele>
        <time>2019-10-18T18:09:53Z</time>
      </trkpt>
      <trkpt lat="37.0162050" lon="-2.4462410">
        <ele>271.9</ele>
        <time>2019-10-18T18:09:54Z</time>
      </trkpt>
      <trkpt lat="37.0162290" lon="-2.4462230">
        <ele>271.9</ele>
        <time>2019-10-18T18:09:55Z</time>
      </trkpt>
      <trkpt lat="37.0162490" lon="-2.4462020">
        <ele>271.9</ele>
        <time>2019-10-18T18:09:56Z</time>
      </trkpt>
      <trkpt lat="37.0162680" lon="-2.4461780">
        <ele>271.9</ele>
        <time>2019-10-18T18:09:57Z</time>
      </trkpt>
      <trkpt lat="37.0162840" lon="-2.4461530">
        <ele>271.9</ele>
        <time>2019-10-18T18:09:58Z</time>
      </trkpt>
      <trkpt lat="37.0163020" lon="-2.4461310">
        <ele>271.9</ele>
        <time>2019-10-18T18:09:59Z</time>
      </trkpt>
      <trkpt lat="37.0163410" lon="-2.4460940">
        <ele>271.9</ele>
        <time>2019-10-18T18:10:00Z</time>
      </trkpt>
      <trkpt lat="37.0163410" lon="-2.4460940">
        <ele>271.9</ele>
        <time>2019-10-18T18:10:01Z</time>
      </trkpt>
      <trkpt lat="37.0163600" lon="-2.4460780">
        <ele>271.9</ele>
        <time>2019-10-18T18:10:02Z</time>
      </trkpt>
      <trkpt lat="37.0163800" lon="-2.4460620">
        <ele>271.9</ele>
        <time>2019-10-18T18:10:03Z</time>
      </trkpt>
      <trkpt lat="37.0163970" lon="-2.4460450">
        <ele>271.9</ele>
        <time>2019-10-18T18:10:04Z</time>
      </trkpt>
      <trkpt lat="37.0164100" lon="-2.4460280">
        <ele>271.9</ele>
        <time>2019-10-18T18:10:05Z</time>
      </trkpt>
      <trkpt lat="37.0164180" lon="-2.4460170">
        <ele>271.9</ele>
        <time>2019-10-18T18:10:06Z</time>
      </trkpt>
      <trkpt lat="37.0164220" lon="-2.4460110">
        <ele>271.9</ele>
        <time>2019-10-18T18:10:07Z</time>
      </trkpt>
      <trkpt lat="37.0164230" lon="-2.4460110">
        <ele>271.9</ele>
        <time>2019-10-18T18:10:08Z</time>
      </trkpt>
      <trkpt lat="37.0164210" lon="-2.4460120">
        <ele>271.9</ele>
        <time>2019-10-18T18:10:09Z</time>
      </trkpt>
      <trkpt lat="37.0164200" lon="-2.4460120">
        <ele>271.9</ele>
        <time>2019-10-18T18:10:10Z</time>
      </trkpt>
      <trkpt lat="37.0164190" lon="-2.4460130">
        <ele>271.9</ele>
        <time>2019-10-18T18:10:11Z</time>
      </trkpt>
      <trkpt lat="37.0164190" lon="-2.4460130">
        <ele>271.9</ele>
        <time>2019-10-18T18:10:12Z</time>
      </trkpt>
      <trkpt lat="37.0164180" lon="-2.4460130">
        <ele>271.9</ele>
        <time>2019-10-18T18:10:13Z</time>
      </trkpt>
      <trkpt lat="37.0164170" lon="-2.4460120">
        <ele>271.9</ele>
        <time>2019-10-18T18:10:14Z</time>
      </trkpt>
      <trkpt lat="37.0164170" lon="-2.4460120">
        <ele>271.9</ele>
        <time>2019-10-18T18:10:15Z</time>
      </trkpt>
      <trkpt lat="37.0164160" lon="-2.4460120">
        <ele>271.8</ele>
        <time>2019-10-18T18:10:16Z</time>
      </trkpt>
      <trkpt lat="37.0164160" lon="-2.4460120">
        <ele>271.8</ele>
        <time>2019-10-18T18:10:17Z</time>
      </trkpt>
      <trkpt lat="37.0164150" lon="-2.4460110">
        <ele>271.8</ele>
        <time>2019-10-18T18:10:18Z</time>
      </trkpt>
      <trkpt lat="37.0164150" lon="-2.4460110">
        <ele>271.8</ele>
        <time>2019-10-18T18:10:19Z</time>
      </trkpt>
      <trkpt lat="37.0164150" lon="-2.4460100">
        <ele>271.8</ele>
        <time>2019-10-18T18:10:20Z</time>
      </trkpt>
      <trkpt lat="37.0164140" lon="-2.4460090">
        <ele>271.8</ele>
        <time>2019-10-18T18:10:21Z</time>
      </trkpt>
      <trkpt lat="37.0164130" lon="-2.4460070">
        <ele>271.8</ele>
        <time>2019-10-18T18:10:22Z</time>
      </trkpt>
      <trkpt lat="37.0164130" lon="-2.4460070">
        <ele>271.8</ele>
        <time>2019-10-18T18:10:23Z</time>
      </trkpt>
      <trkpt lat="37.0164130" lon="-2.4460070">
        <ele>271.8</ele>
        <time>2019-10-18T18:10:24Z</time>
      </trkpt>
      <trkpt lat="37.0164130" lon="-2.4460070">
        <ele>271.8</ele>
        <time>2019-10-18T18:10:25Z</time>
      </trkpt>
      <trkpt lat="37.0164130" lon="-2.4460080">
        <ele>271.8</ele>
        <time>2019-10-18T18:10:26Z</time>
      </trkpt>
      <trkpt lat="37.0164120" lon="-2.4460080">
        <ele>271.8</ele>
        <time>2019-10-18T18:10:27Z</time>
      </trkpt>
      <trkpt lat="37.0164110" lon="-2.4460080">
        <ele>271.8</ele>
        <time>2019-10-18T18:10:28Z</time>
      </trkpt>
      <trkpt lat="37.0164100" lon="-2.4460070">
        <ele>271.8</ele>
        <time>2019-10-18T18:10:29Z</time>
      </trkpt>
      <trkpt lat="37.0164100" lon="-2.4460070">
        <ele>271.8</ele>
        <time>2019-10-18T18:10:30Z</time>
      </trkpt>
      <trkpt lat="37.0164090" lon="-2.4460070">
        <ele>271.8</ele>
        <time>2019-10-18T18:10:31Z</time>
      </trkpt>
      <trkpt lat="37.0164090" lon="-2.4460080">
        <ele>271.8</ele>
        <time>2019-10-18T18:10:32Z</time>
      </trkpt>
      <trkpt lat="37.0164090" lon="-2.4460090">
        <ele>271.8</ele>
        <time>2019-10-18T18:10:33Z</time>
      </trkpt>
      <trkpt lat="37.0164100" lon="-2.4460090">
        <ele>271.8</ele>
        <time>2019-10-18T18:10:34Z</time>
      </trkpt>
      <trkpt lat="37.0164100" lon="-2.4460100">
        <ele>271.8</ele>
        <time>2019-10-18T18:10:35Z</time>
      </trkpt>
      <trkpt lat="37.0164090" lon="-2.4460100">
        <ele>271.8</ele>
        <time>2019-10-18T18:10:36Z</time>
      </trkpt>
      <trkpt lat="37.0164090" lon="-2.4460100">
        <ele>271.8</ele>
        <time>2019-10-18T18:10:37Z</time>
      </trkpt>
      <trkpt lat="37.0164090" lon="-2.4460110">
        <ele>271.8</ele>
        <time>2019-10-18T18:10:38Z</time>
      </trkpt>
      <trkpt lat="37.0164090" lon="-2.4460110">
        <ele>271.8</ele>
        <time>2019-10-18T18:10:39Z</time>
      </trkpt>
      <trkpt lat="37.0164080" lon="-2.4460100">
        <ele>271.8</ele>
        <time>2019-10-18T18:10:40Z</time>
      </trkpt>
      <trkpt lat="37.0164080" lon="-2.4460100">
        <ele>271.8</ele>
        <time>2019-10-18T18:10:41Z</time>
      </trkpt>
      <trkpt lat="37.0164070" lon="-2.4460100">
        <ele>271.8</ele>
        <time>2019-10-18T18:10:42Z</time>
      </trkpt>
      <trkpt lat="37.0164060" lon="-2.4460100">
        <ele>271.8</ele>
        <time>2019-10-18T18:10:43Z</time>
      </trkpt>
      <trkpt lat="37.0164050" lon="-2.4460090">
        <ele>271.8</ele>
        <time>2019-10-18T18:10:44Z</time>
      </trkpt>
      <trkpt lat="37.0164060" lon="-2.4460100">
        <ele>271.8</ele>
        <time>2019-10-18T18:10:45Z</time>
      </trkpt>
      <trkpt lat="37.0164070" lon="-2.4460100">
        <ele>271.8</ele>
        <time>2019-10-18T18:10:46Z</time>
      </trkpt>
      <trkpt lat="37.0164190" lon="-2.4459990">
        <ele>271.8</ele>
        <time>2019-10-18T18:10:47Z</time>
      </trkpt>
      <trkpt lat="37.0164190" lon="-2.4459990">
        <ele>271.8</ele>
        <time>2019-10-18T18:10:48Z</time>
      </trkpt>
      <trkpt lat="37.0164300" lon="-2.4459880">
        <ele>271.8</ele>
        <time>2019-10-18T18:10:49Z</time>
      </trkpt>
      <trkpt lat="37.0164440" lon="-2.4459770">
        <ele>271.8</ele>
        <time>2019-10-18T18:10:50Z</time>
      </trkpt>
      <trkpt lat="37.0164620" lon="-2.4459640">
        <ele>271.8</ele>
        <time>2019-10-18T18:10:51Z</time>
      </trkpt>
      <trkpt lat="37.0164850" lon="-2.4459490">
        <ele>271.7</ele>
        <time>2019-10-18T18:10:52Z</time>
      </trkpt>
      <trkpt lat="37.0165110" lon="-2.4459350">
        <ele>271.7</ele>
        <time>2019-10-18T18:10:53Z</time>
      </trkpt>
      <trkpt lat="37.0165410" lon="-2.4459260">
        <ele>271.7</ele>
        <time>2019-10-18T18:10:54Z</time>
      </trkpt>
      <trkpt lat="37.0165730" lon="-2.4459220">
        <ele>271.6</ele>
        <time>2019-10-18T18:10:55Z</time>
      </trkpt>
      <trkpt lat="37.0166070" lon="-2.4459190">
        <ele>271.6</ele>
        <time>2019-10-18T18:10:56Z</time>
      </trkpt>
      <trkpt lat="37.0166410" lon="-2.4459170">
        <ele>271.6</ele>
        <time>2019-10-18T18:10:57Z</time>
      </trkpt>
      <trkpt lat="37.0167110" lon="-2.4459190">
        <ele>271.6</ele>
        <time>2019-10-18T18:10:58Z</time>
      </trkpt>
      <trkpt lat="37.0167110" lon="-2.4459190">
        <ele>271.6</ele>
        <time>2019-10-18T18:10:59Z</time>
      </trkpt>
      <trkpt lat="37.0167470" lon="-2.4459260">
        <ele>271.8</ele>
        <time>2019-10-18T18:11:00Z</time>
      </trkpt>
      <trkpt lat="37.0167810" lon="-2.4459360">
        <ele>272.0</ele>
        <time>2019-10-18T18:11:01Z</time>
      </trkpt>
      <trkpt lat="37.0168160" lon="-2.4459470">
        <ele>272.2</ele>
        <time>2019-10-18T18:11:02Z</time>
      </trkpt>
      <trkpt lat="37.0168500" lon="-2.4459610">
        <ele>272.4</ele>
        <time>2019-10-18T18:11:03Z</time>
      </trkpt>
      <trkpt lat="37.0168840" lon="-2.4459770">
        <ele>272.6</ele>
        <time>2019-10-18T18:11:04Z</time>
      </trkpt>
      <trkpt lat="37.0169170" lon="-2.4459940">
        <ele>272.8</ele>
        <time>2019-10-18T18:11:05Z</time>
      </trkpt>
      <trkpt lat="37.0169510" lon="-2.4460120">
        <ele>273.0</ele>
        <time>2019-10-18T18:11:06Z</time>
      </trkpt>
      <trkpt lat="37.0169850" lon="-2.4460290">
        <ele>273.2</ele>
        <time>2019-10-18T18:11:07Z</time>
      </trkpt>
      <trkpt lat="37.0170220" lon="-2.4460460">
        <ele>273.4</ele>
        <time>2019-10-18T18:11:08Z</time>
      </trkpt>
      <trkpt lat="37.0170980" lon="-2.4460780">
        <ele>273.8</ele>
        <time>2019-10-18T18:11:09Z</time>
      </trkpt>
      <trkpt lat="37.0170980" lon="-2.4460780">
        <ele>273.8</ele>
        <time>2019-10-18T18:11:10Z</time>
      </trkpt>
      <trkpt lat="37.0171370" lon="-2.4460940">
        <ele>274.0</ele>
        <time>2019-10-18T18:11:11Z</time>
      </trkpt>
      <trkpt lat="37.0171770" lon="-2.4461070">
        <ele>274.2</ele>
        <time>2019-10-18T18:11:12Z</time>
      </trkpt>
      <trkpt lat="37.0172180" lon="-2.4461190">
        <ele>274.5</ele>
        <time>2019-10-18T18:11:13Z</time>
      </trkpt>
      <trkpt lat="37.0172580" lon="-2.4461270">
        <ele>274.7</ele>
        <time>2019-10-18T18:11:14Z</time>
      </trkpt>
      <trkpt lat="37.0172970" lon="-2.4461330">
        <ele>274.9</ele>
        <time>2019-10-18T18:11:15Z</time>
      </trkpt>
      <trkpt lat="37.0173360" lon="-2.4461370">
        <ele>275.1</ele>
        <time>2019-10-18T18:11:16Z</time>
      </trkpt>
      <trkpt lat="37.0173760" lon="-2.4461390">
        <ele>275.3</ele>
        <time>2019-10-18T18:11:17Z</time>
      </trkpt>
      <trkpt lat="37.0174150" lon="-2.4461410">
        <ele>275.5</ele>
        <time>2019-10-18T18:11:18Z</time>
      </trkpt>
      <trkpt lat="37.0174560" lon="-2.4461430">
        <ele>275.7</ele>
        <time>2019-10-18T18:11:19Z</time>
      </trkpt>
      <trkpt lat="37.0175390" lon="-2.4461510">
        <ele>276.1</ele>
        <time>2019-10-18T18:11:20Z</time>
      </trkpt>
      <trkpt lat="37.0175390" lon="-2.4461510">
        <ele>276.1</ele>
        <time>2019-10-18T18:11:21Z</time>
      </trkpt>
      <trkpt lat="37.0175810" lon="-2.4461560">
        <ele>276.4</ele>
        <time>2019-10-18T18:11:22Z</time>
      </trkpt>
      <trkpt lat="37.0176250" lon="-2.4461610">
        <ele>276.6</ele>
        <time>2019-10-18T18:11:23Z</time>
      </trkpt>
      <trkpt lat="37.0176700" lon="-2.4461670">
        <ele>276.8</ele>
        <time>2019-10-18T18:11:24Z</time>
      </trkpt>
      <trkpt lat="37.0177160" lon="-2.4461730">
        <ele>277.1</ele>
        <time>2019-10-18T18:11:25Z</time>
      </trkpt>
      <trkpt lat="37.0177630" lon="-2.4461810">
        <ele>277.3</ele>
        <time>2019-10-18T18:11:26Z</time>
      </trkpt>
      <trkpt lat="37.0178580" lon="-2.4461950">
        <ele>277.8</ele>
        <time>2019-10-18T18:11:27Z</time>
      </trkpt>
      <trkpt lat="37.0178580" lon="-2.4461950">
        <ele>277.8</ele>
        <time>2019-10-18T18:11:28Z</time>
      </trkpt>
      <trkpt lat="37.0179070" lon="-2.4462020">
        <ele>278.1</ele>
        <time>2019-10-18T18:11:29Z</time>
      </trkpt>
      <trkpt lat="37.0179580" lon="-2.4462100">
        <ele>278.3</ele>
        <time>2019-10-18T18:11:30Z</time>
      </trkpt>
      <trkpt lat="37.0180090" lon="-2.4462180">
        <ele>278.6</ele>
        <time>2019-10-18T18:11:31Z</time>
      </trkpt>
      <trkpt lat="37.0180600" lon="-2.4462250">
        <ele>278.9</ele>
        <time>2019-10-18T18:11:32Z</time>
      </trkpt>
      <trkpt lat="37.0181090" lon="-2.4462330">
        <ele>279.2</ele>
        <time>2019-10-18T18:11:33Z</time>
      </trkpt>
      <trkpt lat="37.0181590" lon="-2.4462420">
        <ele>279.4</ele>
        <time>2019-10-18T18:11:34Z</time>
      </trkpt>
      <trkpt lat="37.0182100" lon="-2.4462500">
        <ele>279.7</ele>
        <time>2019-10-18T18:11:35Z</time>
      </trkpt>
      <trkpt lat="37.0182600" lon="-2.4462560">
        <ele>280.0</ele>
        <time>2019-10-18T18:11:36Z</time>
      </trkpt>
      <trkpt lat="37.0183110" lon="-2.4462570">
        <ele>280.3</ele>
        <time>2019-10-18T18:11:37Z</time>
      </trkpt>
      <trkpt lat="37.0184120" lon="-2.4462390">
        <ele>280.7</ele>
        <time>2019-10-18T18:11:38Z</time>
      </trkpt>
      <trkpt lat="37.0184120" lon="-2.4462390">
        <ele>280.7</ele>
        <time>2019-10-18T18:11:39Z</time>
      </trkpt>
      <trkpt lat="37.0184620" lon="-2.4462210">
        <ele>281.0</ele>
        <time>2019-10-18T18:11:40Z</time>
      </trkpt>
      <trkpt lat="37.0185090" lon="-2.4461960">
        <ele>281.2</ele>
        <time>2019-10-18T18:11:41Z</time>
      </trkpt>
      <trkpt lat="37.0185530" lon="-2.4461650">
        <ele>281.5</ele>
        <time>2019-10-18T18:11:42Z</time>
      </trkpt>
      <trkpt lat="37.0185940" lon="-2.4461280">
        <ele>281.8</ele>
        <time>2019-10-18T18:11:43Z</time>
      </trkpt>
      <trkpt lat="37.0186280" lon="-2.4460840">
        <ele>282.1</ele>
        <time>2019-10-18T18:11:44Z</time>
      </trkpt>
      <trkpt lat="37.0186600" lon="-2.4460350">
        <ele>282.3</ele>
        <time>2019-10-18T18:11:45Z</time>
      </trkpt>
      <trkpt lat="37.0186860" lon="-2.4459810">
        <ele>282.6</ele>
        <time>2019-10-18T18:11:46Z</time>
      </trkpt>
      <trkpt lat="37.0187080" lon="-2.4459260">
        <ele>282.9</ele>
        <time>2019-10-18T18:11:47Z</time>
      </trkpt>
      <trkpt lat="37.0187250" lon="-2.4458690">
        <ele>283.1</ele>
        <time>2019-10-18T18:11:48Z</time>
      </trkpt>
      <trkpt lat="37.0187290" lon="-2.4457460">
        <ele>283.6</ele>
        <time>2019-10-18T18:11:49Z</time>
      </trkpt>
      <trkpt lat="37.0187090" lon="-2.4456910">
        <ele>283.2</ele>
        <time>2019-10-18T18:11:50Z</time>
      </trkpt>
      <trkpt lat="37.0187090" lon="-2.4456910">
        <ele>283.2</ele>
        <time>2019-10-18T18:11:51Z</time>
      </trkpt>
      <trkpt lat="37.0186760" lon="-2.4456480">
        <ele>281.9</ele>
        <time>2019-10-18T18:11:52Z</time>
      </trkpt>
      <trkpt lat="37.0186410" lon="-2.4456100">
        <ele>280.7</ele>
        <time>2019-10-18T18:11:53Z</time>
      </trkpt>
      <trkpt lat="37.0186070" lon="-2.4455710">
        <ele>279.5</ele>
        <time>2019-10-18T18:11:54Z</time>
      </trkpt>
      <trkpt lat="37.0185800" lon="-2.4455230">
        <ele>278.2</ele>
        <time>2019-10-18T18:11:55Z</time>
      </trkpt>
      <trkpt lat="37.0185520" lon="-2.4454120">
        <ele>277.7</ele>
        <time>2019-10-18T18:11:56Z</time>
      </trkpt>
      <trkpt lat="37.0185520" lon="-2.4454120">
        <ele>277.7</ele>
        <time>2019-10-18T18:11:57Z</time>
      </trkpt>
      <trkpt lat="37.0185550" lon="-2.4453540">
        <ele>277.9</ele>
        <time>2019-10-18T18:11:58Z</time>
      </trkpt>
      <trkpt lat="37.0185720" lon="-2.4453000">
        <ele>278.1</ele>
        <time>2019-10-18T18:11:59Z</time>
      </trkpt>
      <trkpt lat="37.0186280" lon="-2.4452040">
        <ele>278.3</ele>
        <time>2019-10-18T18:12:00Z</time>
      </trkpt>
      <trkpt lat="37.0186280" lon="-2.4452040">
        <ele>278.3</ele>
        <time>2019-10-18T18:12:01Z</time>
      </trkpt>
      <trkpt lat="37.0186530" lon="-2.4451580">
        <ele>278.3</ele>
        <time>2019-10-18T18:12:02Z</time>
      </trkpt>
      <trkpt lat="37.0186870" lon="-2.4450610">
        <ele>278.2</ele>
        <time>2019-10-18T18:12:03Z</time>
      </trkpt>
      <trkpt lat="37.0186930" lon="-2.4450040">
        <ele>278.2</ele>
        <time>2019-10-18T18:12:04Z</time>
      </trkpt>
      <trkpt lat="37.0186930" lon="-2.4450040">
        <ele>278.2</ele>
        <time>2019-10-18T18:12:05Z</time>
      </trkpt>
      <trkpt lat="37.0187020" lon="-2.4448830">
        <ele>278.0</ele>
        <time>2019-10-18T18:12:06Z</time>
      </trkpt>
      <trkpt lat="37.0187080" lon="-2.4448210">
        <ele>277.9</ele>
        <time>2019-10-18T18:12:07Z</time>
      </trkpt>
      <trkpt lat="37.0187140" lon="-2.4447530">
        <ele>277.7</ele>
        <time>2019-10-18T18:12:08Z</time>
      </trkpt>
      <trkpt lat="37.0187180" lon="-2.4446820">
        <ele>277.5</ele>
        <time>2019-10-18T18:12:09Z</time>
      </trkpt>
      <trkpt lat="37.0187180" lon="-2.4446820">
        <ele>277.5</ele>
        <time>2019-10-18T18:12:10Z</time>
      </trkpt>
      <trkpt lat="37.0187000" lon="-2.4445300">
        <ele>276.9</ele>
        <time>2019-10-18T18:12:11Z</time>
      </trkpt>
      <trkpt lat="37.0186640" lon="-2.4444570">
        <ele>276.4</ele>
        <time>2019-10-18T18:12:12Z</time>
      </trkpt>
      <trkpt lat="37.0186200" lon="-2.4443890">
        <ele>275.9</ele>
        <time>2019-10-18T18:12:13Z</time>
      </trkpt>
      <trkpt lat="37.0185780" lon="-2.4443300">
        <ele>275.5</ele>
        <time>2019-10-18T18:12:14Z</time>
      </trkpt>
      <trkpt lat="37.0185430" lon="-2.4442720">
        <ele>275.2</ele>
        <time>2019-10-18T18:12:15Z</time>
      </trkpt>
      <trkpt lat="37.0185430" lon="-2.4442720">
        <ele>275.2</ele>
        <time>2019-10-18T18:12:16Z</time>
      </trkpt>
      <trkpt lat="37.0185100" lon="-2.4442160">
        <ele>274.7</ele>
        <time>2019-10-18T18:12:17Z</time>
      </trkpt>
      <trkpt lat="37.0184580" lon="-2.4441030">
        <ele>271.8</ele>
        <time>2019-10-18T18:12:18Z</time>
      </trkpt>
      <trkpt lat="37.0184580" lon="-2.4441030">
        <ele>271.8</ele>
        <time>2019-10-18T18:12:19Z</time>
      </trkpt>
      <trkpt lat="37.0183960" lon="-2.4440050">
        <ele>270.0</ele>
        <time>2019-10-18T18:12:20Z</time>
      </trkpt>
      <trkpt lat="37.0183960" lon="-2.4440050">
        <ele>270.0</ele>
        <time>2019-10-18T18:12:21Z</time>
      </trkpt>
      <trkpt lat="37.0183530" lon="-2.4439760">
        <ele>269.0</ele>
        <time>2019-10-18T18:12:22Z</time>
      </trkpt>
      <trkpt lat="37.0183030" lon="-2.4439650">
        <ele>268.0</ele>
        <time>2019-10-18T18:12:23Z</time>
      </trkpt>
      <trkpt lat="37.0182500" lon="-2.4439730">
        <ele>266.9</ele>
        <time>2019-10-18T18:12:24Z</time>
      </trkpt>
      <trkpt lat="37.0181660" lon="-2.4440240">
        <ele>266.6</ele>
        <time>2019-10-18T18:12:25Z</time>
      </trkpt>
      <trkpt lat="37.0181660" lon="-2.4440240">
        <ele>266.6</ele>
        <time>2019-10-18T18:12:26Z</time>
      </trkpt>
      <trkpt lat="37.0181430" lon="-2.4440590">
        <ele>266.9</ele>
        <time>2019-10-18T18:12:27Z</time>
      </trkpt>
      <trkpt lat="37.0181290" lon="-2.4440970">
        <ele>267.2</ele>
        <time>2019-10-18T18:12:28Z</time>
      </trkpt>
      <trkpt lat="37.0180960" lon="-2.4441670">
        <ele>267.6</ele>
        <time>2019-10-18T18:12:29Z</time>
      </trkpt>
      <trkpt lat="37.0180960" lon="-2.4441670">
        <ele>267.6</ele>
        <time>2019-10-18T18:12:30Z</time>
      </trkpt>
      <trkpt lat="37.0180570" lon="-2.4442390">
        <ele>268.0</ele>
        <time>2019-10-18T18:12:31Z</time>
      </trkpt>
      <trkpt lat="37.0180330" lon="-2.4442740">
        <ele>268.2</ele>
        <time>2019-10-18T18:12:32Z</time>
      </trkpt>
      <trkpt lat="37.0180330" lon="-2.4442740">
        <ele>268.2</ele>
        <time>2019-10-18T18:12:33Z</time>
      </trkpt>
      <trkpt lat="37.0180060" lon="-2.4443070">
        <ele>268.4</ele>
        <time>2019-10-18T18:12:34Z</time>
      </trkpt>
      <trkpt lat="37.0179770" lon="-2.4443380">
        <ele>268.5</ele>
        <time>2019-10-18T18:12:35Z</time>
      </trkpt>
      <trkpt lat="37.0179130" lon="-2.4443910">
        <ele>268.7</ele>
        <time>2019-10-18T18:12:36Z</time>
      </trkpt>
      <trkpt lat="37.0179130" lon="-2.4443910">
        <ele>268.7</ele>
        <time>2019-10-18T18:12:37Z</time>
      </trkpt>
      <trkpt lat="37.0178790" lon="-2.4444150">
        <ele>268.8</ele>
        <time>2019-10-18T18:12:38Z</time>
      </trkpt>
      <trkpt lat="37.0178450" lon="-2.4444380">
        <ele>268.9</ele>
        <time>2019-10-18T18:12:39Z</time>
      </trkpt>
      <trkpt lat="37.0178100" lon="-2.4444610">
        <ele>268.9</ele>
        <time>2019-10-18T18:12:40Z</time>
      </trkpt>
      <trkpt lat="37.0177760" lon="-2.4444830">
        <ele>268.9</ele>
        <time>2019-10-18T18:12:41Z</time>
      </trkpt>
      <trkpt lat="37.0177410" lon="-2.4445060">
        <ele>268.9</ele>
        <time>2019-10-18T18:12:42Z</time>
      </trkpt>
      <trkpt lat="37.0176720" lon="-2.4445470">
        <ele>269.0</ele>
        <time>2019-10-18T18:12:43Z</time>
      </trkpt>
      <trkpt lat="37.0176720" lon="-2.4445470">
        <ele>269.0</ele>
        <time>2019-10-18T18:12:44Z</time>
      </trkpt>
      <trkpt lat="37.0176030" lon="-2.4445860">
        <ele>269.0</ele>
        <time>2019-10-18T18:12:45Z</time>
      </trkpt>
      <trkpt lat="37.0175670" lon="-2.4446060">
        <ele>269.0</ele>
        <time>2019-10-18T18:12:46Z</time>
      </trkpt>
      <trkpt lat="37.0175310" lon="-2.4446240">
        <ele>269.0</ele>
        <time>2019-10-18T18:12:47Z</time>
      </trkpt>
      <trkpt lat="37.0175310" lon="-2.4446240">
        <ele>269.0</ele>
        <time>2019-10-18T18:12:48Z</time>
      </trkpt>
      <trkpt lat="37.0174940" lon="-2.4446430">
        <ele>269.0</ele>
        <time>2019-10-18T18:12:49Z</time>
      </trkpt>
      <trkpt lat="37.0174570" lon="-2.4446610">
        <ele>269.0</ele>
        <time>2019-10-18T18:12:50Z</time>
      </trkpt>
      <trkpt lat="37.0174200" lon="-2.4446770">
        <ele>269.0</ele>
        <time>2019-10-18T18:12:51Z</time>
      </trkpt>
      <trkpt lat="37.0173820" lon="-2.4446930">
        <ele>269.0</ele>
        <time>2019-10-18T18:12:52Z</time>
      </trkpt>
      <trkpt lat="37.0173440" lon="-2.4447090">
        <ele>269.0</ele>
        <time>2019-10-18T18:12:53Z</time>
      </trkpt>
      <trkpt lat="37.0173060" lon="-2.4447250">
        <ele>269.0</ele>
        <time>2019-10-18T18:12:54Z</time>
      </trkpt>
      <trkpt lat="37.0172700" lon="-2.4447400">
        <ele>269.0</ele>
        <time>2019-10-18T18:12:55Z</time>
      </trkpt>
      <trkpt lat="37.0172350" lon="-2.4447550">
        <ele>269.0</ele>
        <time>2019-10-18T18:12:56Z</time>
      </trkpt>
      <trkpt lat="37.0172000" lon="-2.4447700">
        <ele>269.0</ele>
        <time>2019-10-18T18:12:57Z</time>
      </trkpt>
      <trkpt lat="37.0171270" lon="-2.4447950">
        <ele>269.0</ele>
        <time>2019-10-18T18:12:58Z</time>
      </trkpt>
      <trkpt lat="37.0170890" lon="-2.4448070">
        <ele>269.0</ele>
        <time>2019-10-18T18:12:59Z</time>
      </trkpt>
      <trkpt lat="37.0170890" lon="-2.4448070">
        <ele>269.0</ele>
        <time>2019-10-18T18:13:00Z</time>
      </trkpt>
      <trkpt lat="37.0170490" lon="-2.4448200">
        <ele>269.0</ele>
        <time>2019-10-18T18:13:01Z</time>
      </trkpt>
      <trkpt lat="37.0170090" lon="-2.4448320">
        <ele>269.0</ele>
        <time>2019-10-18T18:13:02Z</time>
      </trkpt>
      <trkpt lat="37.0169680" lon="-2.4448450">
        <ele>269.0</ele>
        <time>2019-10-18T18:13:03Z</time>
      </trkpt>
      <trkpt lat="37.0169260" lon="-2.4448580">
        <ele>269.0</ele>
        <time>2019-10-18T18:13:04Z</time>
      </trkpt>
      <trkpt lat="37.0168410" lon="-2.4448810">
        <ele>269.0</ele>
        <time>2019-10-18T18:13:05Z</time>
      </trkpt>
      <trkpt lat="37.0167970" lon="-2.4448920">
        <ele>269.0</ele>
        <time>2019-10-18T18:13:06Z</time>
      </trkpt>
      <trkpt lat="37.0167520" lon="-2.4449020">
        <ele>269.0</ele>
        <time>2019-10-18T18:13:07Z</time>
      </trkpt>
      <trkpt lat="37.0167070" lon="-2.4449130">
        <ele>269.0</ele>
        <time>2019-10-18T18:13:08Z</time>
      </trkpt>
      <trkpt lat="37.0166610" lon="-2.4449230">
        <ele>269.0</ele>
        <time>2019-10-18T18:13:09Z</time>
      </trkpt>
      <trkpt lat="37.0166140" lon="-2.4449330">
        <ele>269.0</ele>
        <time>2019-10-18T18:13:10Z</time>
      </trkpt>
      <trkpt lat="37.0166140" lon="-2.4449330">
        <ele>269.0</ele>
        <time>2019-10-18T18:13:11Z</time>
      </trkpt>
      <trkpt lat="37.0165160" lon="-2.4449500">
        <ele>269.0</ele>
        <time>2019-10-18T18:13:12Z</time>
      </trkpt>
      <trkpt lat="37.0164660" lon="-2.4449590">
        <ele>269.0</ele>
        <time>2019-10-18T18:13:13Z</time>
      </trkpt>
      <trkpt lat="37.0164160" lon="-2.4449670">
        <ele>269.0</ele>
        <time>2019-10-18T18:13:14Z</time>
      </trkpt>
      <trkpt lat="37.0163660" lon="-2.4449750">
        <ele>269.0</ele>
        <time>2019-10-18T18:13:15Z</time>
      </trkpt>
      <trkpt lat="37.0163160" lon="-2.4449840">
        <ele>268.9</ele>
        <time>2019-10-18T18:13:16Z</time>
      </trkpt>
      <trkpt lat="37.0162660" lon="-2.4449930">
        <ele>268.9</ele>
        <time>2019-10-18T18:13:17Z</time>
      </trkpt>
      <trkpt lat="37.0162160" lon="-2.4450030">
        <ele>268.8</ele>
        <time>2019-10-18T18:13:18Z</time>
      </trkpt>
      <trkpt lat="37.0161650" lon="-2.4450140">
        <ele>268.7</ele>
        <time>2019-10-18T18:13:19Z</time>
      </trkpt>
      <trkpt lat="37.0161140" lon="-2.4450240">
        <ele>268.6</ele>
        <time>2019-10-18T18:13:20Z</time>
      </trkpt>
      <trkpt lat="37.0160640" lon="-2.4450350">
        <ele>268.4</ele>
        <time>2019-10-18T18:13:21Z</time>
      </trkpt>
      <trkpt lat="37.0160640" lon="-2.4450350">
        <ele>268.4</ele>
        <time>2019-10-18T18:13:22Z</time>
      </trkpt>
      <trkpt lat="37.0159640" lon="-2.4450560">
        <ele>268.1</ele>
        <time>2019-10-18T18:13:23Z</time>
      </trkpt>
      <trkpt lat="37.0159140" lon="-2.4450660">
        <ele>268.0</ele>
        <time>2019-10-18T18:13:24Z</time>
      </trkpt>
      <trkpt lat="37.0158640" lon="-2.4450780">
        <ele>267.9</ele>
        <time>2019-10-18T18:13:25Z</time>
      </trkpt>
      <trkpt lat="37.0158130" lon="-2.4450900">
        <ele>267.7</ele>
        <time>2019-10-18T18:13:26Z</time>
      </trkpt>
      <trkpt lat="37.0157630" lon="-2.4451030">
        <ele>267.5</ele>
        <time>2019-10-18T18:13:27Z</time>
      </trkpt>
      <trkpt lat="37.0157110" lon="-2.4451160">
        <ele>267.3</ele>
        <time>2019-10-18T18:13:28Z</time>
      </trkpt>
      <trkpt lat="37.0156600" lon="-2.4451300">
        <ele>267.1</ele>
        <time>2019-10-18T18:13:29Z</time>
      </trkpt>
      <trkpt lat="37.0156100" lon="-2.4451440">
        <ele>266.9</ele>
        <time>2019-10-18T18:13:30Z</time>
      </trkpt>
      <trkpt lat="37.0155600" lon="-2.4451580">
        <ele>266.7</ele>
        <time>2019-10-18T18:13:31Z</time>
      </trkpt>
      <trkpt lat="37.0155110" lon="-2.4451720">
        <ele>266.5</ele>
        <time>2019-10-18T18:13:32Z</time>
      </trkpt>
      <trkpt lat="37.0154620" lon="-2.4451870">
        <ele>266.4</ele>
        <time>2019-10-18T18:13:33Z</time>
      </trkpt>
      <trkpt lat="37.0154120" lon="-2.4452010">
        <ele>266.2</ele>
        <time>2019-10-18T18:13:34Z</time>
      </trkpt>
      <trkpt lat="37.0153620" lon="-2.4452160">
        <ele>266.0</ele>
        <time>2019-10-18T18:13:35Z</time>
      </trkpt>
      <trkpt lat="37.0153100" lon="-2.4452320">
        <ele>265.8</ele>
        <time>2019-10-18T18:13:36Z</time>
      </trkpt>
      <trkpt lat="37.0152580" lon="-2.4452480">
        <ele>265.6</ele>
        <time>2019-10-18T18:13:37Z</time>
      </trkpt>
      <trkpt lat="37.0152050" lon="-2.4452660">
        <ele>265.4</ele>
        <time>2019-10-18T18:13:38Z</time>
      </trkpt>
      <trkpt lat="37.0151510" lon="-2.4452850">
        <ele>265.2</ele>
        <time>2019-10-18T18:13:39Z</time>
      </trkpt>
      <trkpt lat="37.0150940" lon="-2.4453040">
        <ele>265.0</ele>
        <time>2019-10-18T18:13:40Z</time>
      </trkpt>
      <trkpt lat="37.0150940" lon="-2.4453040">
        <ele>265.0</ele>
        <time>2019-10-18T18:13:41Z</time>
      </trkpt>
      <trkpt lat="37.0150380" lon="-2.4453250">
        <ele>264.9</ele>
        <time>2019-10-18T18:13:42Z</time>
      </trkpt>
      <trkpt lat="37.0149800" lon="-2.4453460">
        <ele>264.7</ele>
        <time>2019-10-18T18:13:43Z</time>
      </trkpt>
      <trkpt lat="37.0149220" lon="-2.4453670">
        <ele>264.4</ele>
        <time>2019-10-18T18:13:44Z</time>
      </trkpt>
      <trkpt lat="37.0148040" lon="-2.4454120">
        <ele>263.9</ele>
        <time>2019-10-18T18:13:45Z</time>
      </trkpt>
      <trkpt lat="37.0148040" lon="-2.4454120">
        <ele>263.9</ele>
        <time>2019-10-18T18:13:46Z</time>
      </trkpt>
      <trkpt lat="37.0147450" lon="-2.4454360">
        <ele>263.6</ele>
        <time>2019-10-18T18:13:47Z</time>
      </trkpt>
      <trkpt lat="37.0146870" lon="-2.4454620">
        <ele>263.4</ele>
        <time>2019-10-18T18:13:48Z</time>
      </trkpt>
      <trkpt lat="37.0146280" lon="-2.4454900">
        <ele>263.2</ele>
        <time>2019-10-18T18:13:49Z</time>
      </trkpt>
      <trkpt lat="37.0145690" lon="-2.4455190">
        <ele>262.9</ele>
        <time>2019-10-18T18:13:50Z</time>
      </trkpt>
      <trkpt lat="37.0145100" lon="-2.4455500">
        <ele>262.7</ele>
        <time>2019-10-18T18:13:51Z</time>
      </trkpt>
      <trkpt lat="37.0144510" lon="-2.4455810">
        <ele>262.5</ele>
        <time>2019-10-18T18:13:52Z</time>
      </trkpt>
      <trkpt lat="37.0143910" lon="-2.4456140">
        <ele>262.3</ele>
        <time>2019-10-18T18:13:53Z</time>
      </trkpt>
      <trkpt lat="37.0143310" lon="-2.4456480">
        <ele>262.1</ele>
        <time>2019-10-18T18:13:54Z</time>
      </trkpt>
      <trkpt lat="37.0142710" lon="-2.4456830">
        <ele>262.0</ele>
        <time>2019-10-18T18:13:55Z</time>
      </trkpt>
      <trkpt lat="37.0141520" lon="-2.4457560">
        <ele>261.5</ele>
        <time>2019-10-18T18:13:56Z</time>
      </trkpt>
      <trkpt lat="37.0141520" lon="-2.4457560">
        <ele>261.5</ele>
        <time>2019-10-18T18:13:57Z</time>
      </trkpt>
      <trkpt lat="37.0140930" lon="-2.4457940">
        <ele>261.3</ele>
        <time>2019-10-18T18:13:58Z</time>
      </trkpt>
      <trkpt lat="37.0140340" lon="-2.4458330">
        <ele>260.9</ele>
        <time>2019-10-18T18:13:59Z</time>
      </trkpt>
      <trkpt lat="37.0139150" lon="-2.4459110">
        <ele>260.4</ele>
        <time>2019-10-18T18:14:00Z</time>
      </trkpt>
      <trkpt lat="37.0138560" lon="-2.4459520">
        <ele>260.2</ele>
        <time>2019-10-18T18:14:01Z</time>
      </trkpt>
      <trkpt lat="37.0137980" lon="-2.4459940">
        <ele>260.0</ele>
        <time>2019-10-18T18:14:02Z</time>
      </trkpt>
      <trkpt lat="37.0137420" lon="-2.4460390">
        <ele>259.9</ele>
        <time>2019-10-18T18:14:03Z</time>
      </trkpt>
      <trkpt lat="37.0137420" lon="-2.4460390">
        <ele>259.9</ele>
        <time>2019-10-18T18:14:04Z</time>
      </trkpt>
      <trkpt lat="37.0136850" lon="-2.4460840">
        <ele>259.6</ele>
        <time>2019-10-18T18:14:05Z</time>
      </trkpt>
      <trkpt lat="37.0136290" lon="-2.4461310">
        <ele>259.4</ele>
        <time>2019-10-18T18:14:06Z</time>
      </trkpt>
      <trkpt lat="37.0135160" lon="-2.4462260">
        <ele>258.7</ele>
        <time>2019-10-18T18:14:07Z</time>
      </trkpt>
      <trkpt lat="37.0135160" lon="-2.4462260">
        <ele>258.7</ele>
        <time>2019-10-18T18:14:08Z</time>
      </trkpt>
      <trkpt lat="37.0134600" lon="-2.4462740">
        <ele>258.3</ele>
        <time>2019-10-18T18:14:09Z</time>
      </trkpt>
      <trkpt lat="37.0134050" lon="-2.4463240">
        <ele>258.0</ele>
        <time>2019-10-18T18:14:10Z</time>
      </trkpt>
      <trkpt lat="37.0132950" lon="-2.4464280">
        <ele>257.3</ele>
        <time>2019-10-18T18:14:11Z</time>
      </trkpt>
      <trkpt lat="37.0132950" lon="-2.4464280">
        <ele>257.3</ele>
        <time>2019-10-18T18:14:12Z</time>
      </trkpt>
      <trkpt lat="37.0132400" lon="-2.4464820">
        <ele>256.9</ele>
        <time>2019-10-18T18:14:13Z</time>
      </trkpt>
      <trkpt lat="37.0131290" lon="-2.4465930">
        <ele>256.3</ele>
        <time>2019-10-18T18:14:14Z</time>
      </trkpt>
      <trkpt lat="37.0130740" lon="-2.4466510">
        <ele>256.1</ele>
        <time>2019-10-18T18:14:15Z</time>
      </trkpt>
      <trkpt lat="37.0130740" lon="-2.4466510">
        <ele>256.1</ele>
        <time>2019-10-18T18:14:16Z</time>
      </trkpt>
      <trkpt lat="37.0129670" lon="-2.4467690">
        <ele>255.6</ele>
        <time>2019-10-18T18:14:17Z</time>
      </trkpt>
      <trkpt lat="37.0129140" lon="-2.4468290">
        <ele>255.3</ele>
        <time>2019-10-18T18:14:18Z</time>
      </trkpt>
      <trkpt lat="37.0129140" lon="-2.4468290">
        <ele>255.3</ele>
        <time>2019-10-18T18:14:19Z</time>
      </trkpt>
      <trkpt lat="37.0128090" lon="-2.4469540">
        <ele>254.9</ele>
        <time>2019-10-18T18:14:20Z</time>
      </trkpt>
      <trkpt lat="37.0128090" lon="-2.4469540">
        <ele>254.9</ele>
        <time>2019-10-18T18:14:21Z</time>
      </trkpt>
      <trkpt lat="37.0127570" lon="-2.4470190">
        <ele>254.7</ele>
        <time>2019-10-18T18:14:22Z</time>
      </trkpt>
      <trkpt lat="37.0127040" lon="-2.4470840">
        <ele>254.5</ele>
        <time>2019-10-18T18:14:23Z</time>
      </trkpt>
      <trkpt lat="37.0126530" lon="-2.4471510">
        <ele>254.3</ele>
        <time>2019-10-18T18:14:24Z</time>
      </trkpt>
      <trkpt lat="37.0125510" lon="-2.4472850">
        <ele>254.2</ele>
        <time>2019-10-18T18:14:25Z</time>
      </trkpt>
      <trkpt lat="37.0125510" lon="-2.4472850">
        <ele>254.2</ele>
        <time>2019-10-18T18:14:26Z</time>
      </trkpt>
      <trkpt lat="37.0124530" lon="-2.4474250">
        <ele>254.1</ele>
        <time>2019-10-18T18:14:27Z</time>
      </trkpt>
      <trkpt lat="37.0124530" lon="-2.4474250">
        <ele>254.1</ele>
        <time>2019-10-18T18:14:28Z</time>
      </trkpt>
      <trkpt lat="37.0124040" lon="-2.4474960">
        <ele>254.1</ele>
        <time>2019-10-18T18:14:29Z</time>
      </trkpt>
      <trkpt lat="37.0123540" lon="-2.4475690">
        <ele>254.0</ele>
        <time>2019-10-18T18:14:30Z</time>
      </trkpt>
      <trkpt lat="37.0123040" lon="-2.4476420">
        <ele>253.9</ele>
        <time>2019-10-18T18:14:31Z</time>
      </trkpt>
      <trkpt lat="37.0122550" lon="-2.4477180">
        <ele>253.7</ele>
        <time>2019-10-18T18:14:32Z</time>
      </trkpt>
      <trkpt lat="37.0121610" lon="-2.4478730">
        <ele>253.3</ele>
        <time>2019-10-18T18:14:33Z</time>
      </trkpt>
      <trkpt lat="37.0121140" lon="-2.4479520">
        <ele>253.0</ele>
        <time>2019-10-18T18:14:34Z</time>
      </trkpt>
      <trkpt lat="37.0120670" lon="-2.4480320">
        <ele>252.7</ele>
        <time>2019-10-18T18:14:35Z</time>
      </trkpt>
      <trkpt lat="37.0120200" lon="-2.4481150">
        <ele>252.3</ele>
        <time>2019-10-18T18:14:36Z</time>
      </trkpt>
      <trkpt lat="37.0119730" lon="-2.4481990">
        <ele>251.9</ele>
        <time>2019-10-18T18:14:37Z</time>
      </trkpt>
      <trkpt lat="37.0119730" lon="-2.4481990">
        <ele>251.9</ele>
        <time>2019-10-18T18:14:38Z</time>
      </trkpt>
      <trkpt lat="37.0119270" lon="-2.4482830">
        <ele>251.5</ele>
        <time>2019-10-18T18:14:39Z</time>
      </trkpt>
      <trkpt lat="37.0118810" lon="-2.4483670">
        <ele>251.1</ele>
        <time>2019-10-18T18:14:40Z</time>
      </trkpt>
      <trkpt lat="37.0117880" lon="-2.4485390">
        <ele>250.4</ele>
        <time>2019-10-18T18:14:41Z</time>
      </trkpt>
      <trkpt lat="37.0117880" lon="-2.4485390">
        <ele>250.4</ele>
        <time>2019-10-18T18:14:42Z</time>
      </trkpt>
      <trkpt lat="37.0116910" lon="-2.4487100">
        <ele>249.7</ele>
        <time>2019-10-18T18:14:43Z</time>
      </trkpt>
      <trkpt lat="37.0116410" lon="-2.4487960">
        <ele>249.4</ele>
        <time>2019-10-18T18:14:44Z</time>
      </trkpt>
      <trkpt lat="37.0115920" lon="-2.4488820">
        <ele>249.1</ele>
        <time>2019-10-18T18:14:45Z</time>
      </trkpt>
      <trkpt lat="37.0115430" lon="-2.4489680">
        <ele>248.7</ele>
        <time>2019-10-18T18:14:46Z</time>
      </trkpt>
      <trkpt lat="37.0114950" lon="-2.4490550">
        <ele>248.4</ele>
        <time>2019-10-18T18:14:47Z</time>
      </trkpt>
      <trkpt lat="37.0114460" lon="-2.4491410">
        <ele>248.0</ele>
        <time>2019-10-18T18:14:48Z</time>
      </trkpt>
      <trkpt lat="37.0113980" lon="-2.4492270">
        <ele>247.6</ele>
        <time>2019-10-18T18:14:49Z</time>
      </trkpt>
      <trkpt lat="37.0113980" lon="-2.4492270">
        <ele>247.6</ele>
        <time>2019-10-18T18:14:50Z</time>
      </trkpt>
      <trkpt lat="37.0113000" lon="-2.4494010">
        <ele>246.6</ele>
        <time>2019-10-18T18:14:51Z</time>
      </trkpt>
      <trkpt lat="37.0113000" lon="-2.4494010">
        <ele>246.6</ele>
        <time>2019-10-18T18:14:52Z</time>
      </trkpt>
      <trkpt lat="37.0112520" lon="-2.4494880">
        <ele>246.2</ele>
        <time>2019-10-18T18:14:53Z</time>
      </trkpt>
      <trkpt lat="37.0111550" lon="-2.4496630">
        <ele>245.5</ele>
        <time>2019-10-18T18:14:54Z</time>
      </trkpt>
      <trkpt lat="37.0111060" lon="-2.4497500">
        <ele>245.1</ele>
        <time>2019-10-18T18:14:55Z</time>
      </trkpt>
      <trkpt lat="37.0110570" lon="-2.4498360">
        <ele>244.9</ele>
        <time>2019-10-18T18:14:56Z</time>
      </trkpt>
      <trkpt lat="37.0110570" lon="-2.4498360">
        <ele>244.9</ele>
        <time>2019-10-18T18:14:57Z</time>
      </trkpt>
      <trkpt lat="37.0109600" lon="-2.4500090">
        <ele>244.0</ele>
        <time>2019-10-18T18:14:58Z</time>
      </trkpt>
      <trkpt lat="37.0109120" lon="-2.4500950">
        <ele>243.5</ele>
        <time>2019-10-18T18:14:59Z</time>
      </trkpt>
      <trkpt lat="37.0109120" lon="-2.4500950">
        <ele>243.5</ele>
        <time>2019-10-18T18:15:00Z</time>
      </trkpt>
      <trkpt lat="37.0108630" lon="-2.4501800">
        <ele>243.0</ele>
        <time>2019-10-18T18:15:01Z</time>
      </trkpt>
      <trkpt lat="37.0108140" lon="-2.4502650">
        <ele>242.5</ele>
        <time>2019-10-18T18:15:02Z</time>
      </trkpt>
      <trkpt lat="37.0107660" lon="-2.4503510">
        <ele>242.0</ele>
        <time>2019-10-18T18:15:03Z</time>
      </trkpt>
      <trkpt lat="37.0106720" lon="-2.4505240">
        <ele>241.2</ele>
        <time>2019-10-18T18:15:04Z</time>
      </trkpt>
      <trkpt lat="37.0106250" lon="-2.4506100">
        <ele>240.9</ele>
        <time>2019-10-18T18:15:05Z</time>
      </trkpt>
      <trkpt lat="37.0105780" lon="-2.4506970">
        <ele>240.7</ele>
        <time>2019-10-18T18:15:06Z</time>
      </trkpt>
      <trkpt lat="37.0105310" lon="-2.4507830">
        <ele>240.4</ele>
        <time>2019-10-18T18:15:07Z</time>
      </trkpt>
      <trkpt lat="37.0104830" lon="-2.4508690">
        <ele>240.1</ele>
        <time>2019-10-18T18:15:08Z</time>
      </trkpt>
      <trkpt lat="37.0104830" lon="-2.4508690">
        <ele>240.1</ele>
        <time>2019-10-18T18:15:09Z</time>
      </trkpt>
      <trkpt lat="37.0103860" lon="-2.4510430">
        <ele>239.6</ele>
        <time>2019-10-18T18:15:10Z</time>
      </trkpt>
      <trkpt lat="37.0103370" lon="-2.4511300">
        <ele>239.3</ele>
        <time>2019-10-18T18:15:11Z</time>
      </trkpt>
      <trkpt lat="37.0103370" lon="-2.4511300">
        <ele>239.3</ele>
        <time>2019-10-18T18:15:12Z</time>
      </trkpt>
      <trkpt lat="37.0102880" lon="-2.4512180">
        <ele>239.0</ele>
        <time>2019-10-18T18:15:13Z</time>
      </trkpt>
      <trkpt lat="37.0102380" lon="-2.4513050">
        <ele>238.6</ele>
        <time>2019-10-18T18:15:14Z</time>
      </trkpt>
      <trkpt lat="37.0101880" lon="-2.4513920">
        <ele>238.3</ele>
        <time>2019-10-18T18:15:15Z</time>
      </trkpt>
      <trkpt lat="37.0100900" lon="-2.4515680">
        <ele>237.5</ele>
        <time>2019-10-18T18:15:16Z</time>
      </trkpt>
      <trkpt lat="37.0100430" lon="-2.4516560">
        <ele>237.1</ele>
        <time>2019-10-18T18:15:17Z</time>
      </trkpt>
      <trkpt lat="37.0099950" lon="-2.4517440">
        <ele>236.7</ele>
        <time>2019-10-18T18:15:18Z</time>
      </trkpt>
      <trkpt lat="37.0099470" lon="-2.4518320">
        <ele>236.2</ele>
        <time>2019-10-18T18:15:19Z</time>
      </trkpt>
      <trkpt lat="37.0098990" lon="-2.4519180">
        <ele>235.6</ele>
        <time>2019-10-18T18:15:20Z</time>
      </trkpt>
      <trkpt lat="37.0098510" lon="-2.4520050">
        <ele>235.0</ele>
        <time>2019-10-18T18:15:21Z</time>
      </trkpt>
      <trkpt lat="37.0098030" lon="-2.4520920">
        <ele>234.5</ele>
        <time>2019-10-18T18:15:22Z</time>
      </trkpt>
      <trkpt lat="37.0097540" lon="-2.4521780">
        <ele>234.0</ele>
        <time>2019-10-18T18:15:23Z</time>
      </trkpt>
      <trkpt lat="37.0097050" lon="-2.4522620">
        <ele>233.6</ele>
        <time>2019-10-18T18:15:24Z</time>
      </trkpt>
      <trkpt lat="37.0097050" lon="-2.4522620">
        <ele>233.6</ele>
        <time>2019-10-18T18:15:25Z</time>
      </trkpt>
      <trkpt lat="37.0096060" lon="-2.4524300">
        <ele>232.7</ele>
        <time>2019-10-18T18:15:26Z</time>
      </trkpt>
      <trkpt lat="37.0095560" lon="-2.4525130">
        <ele>232.2</ele>
        <time>2019-10-18T18:15:27Z</time>
      </trkpt>
      <trkpt lat="37.0095560" lon="-2.4525130">
        <ele>232.2</ele>
        <time>2019-10-18T18:15:28Z</time>
      </trkpt>
      <trkpt lat="37.0094580" lon="-2.4526810">
        <ele>231.1</ele>
        <time>2019-10-18T18:15:29Z</time>
      </trkpt>
      <trkpt lat="37.0094080" lon="-2.4527640">
        <ele>230.5</ele>
        <time>2019-10-18T18:15:30Z</time>
      </trkpt>
      <trkpt lat="37.0093580" lon="-2.4528480">
        <ele>230.1</ele>
        <time>2019-10-18T18:15:31Z</time>
      </trkpt>
      <trkpt lat="37.0093070" lon="-2.4529310">
        <ele>229.7</ele>
        <time>2019-10-18T18:15:32Z</time>
      </trkpt>
      <trkpt lat="37.0092550" lon="-2.4530130">
        <ele>229.4</ele>
        <time>2019-10-18T18:15:33Z</time>
      </trkpt>
      <trkpt lat="37.0092020" lon="-2.4530950">
        <ele>229.2</ele>
        <time>2019-10-18T18:15:34Z</time>
      </trkpt>
      <trkpt lat="37.0092020" lon="-2.4530950">
        <ele>229.2</ele>
        <time>2019-10-18T18:15:35Z</time>
      </trkpt>
      <trkpt lat="37.0091490" lon="-2.4531780">
        <ele>229.0</ele>
        <time>2019-10-18T18:15:36Z</time>
      </trkpt>
      <trkpt lat="37.0090410" lon="-2.4533410">
        <ele>228.6</ele>
        <time>2019-10-18T18:15:37Z</time>
      </trkpt>
      <trkpt lat="37.0090410" lon="-2.4533410">
        <ele>228.6</ele>
        <time>2019-10-18T18:15:38Z</time>
      </trkpt>
      <trkpt lat="37.0089240" lon="-2.4535000">
        <ele>228.4</ele>
        <time>2019-10-18T18:15:39Z</time>
      </trkpt>
      <trkpt lat="37.0088620" lon="-2.4535780">
        <ele>228.3</ele>
        <time>2019-10-18T18:15:40Z</time>
      </trkpt>
      <trkpt lat="37.0087980" lon="-2.4536560">
        <ele>228.3</ele>
        <time>2019-10-18T18:15:41Z</time>
      </trkpt>
      <trkpt lat="37.0087320" lon="-2.4537320">
        <ele>228.3</ele>
        <time>2019-10-18T18:15:42Z</time>
      </trkpt>
      <trkpt lat="37.0086650" lon="-2.4538070">
        <ele>228.3</ele>
        <time>2019-10-18T18:15:43Z</time>
      </trkpt>
      <trkpt lat="37.0085970" lon="-2.4538770">
        <ele>228.3</ele>
        <time>2019-10-18T18:15:44Z</time>
      </trkpt>
      <trkpt lat="37.0085300" lon="-2.4539460">
        <ele>228.3</ele>
        <time>2019-10-18T18:15:45Z</time>
      </trkpt>
      <trkpt lat="37.0084640" lon="-2.4540120">
        <ele>228.3</ele>
        <time>2019-10-18T18:15:46Z</time>
      </trkpt>
      <trkpt lat="37.0083970" lon="-2.4540720">
        <ele>228.3</ele>
        <time>2019-10-18T18:15:47Z</time>
      </trkpt>
      <trkpt lat="37.0083280" lon="-2.4541240">
        <ele>228.4</ele>
        <time>2019-10-18T18:15:48Z</time>
      </trkpt>
      <trkpt lat="37.0082580" lon="-2.4541680">
        <ele>228.7</ele>
        <time>2019-10-18T18:15:49Z</time>
      </trkpt>
      <trkpt lat="37.0082580" lon="-2.4541680">
        <ele>228.7</ele>
        <time>2019-10-18T18:15:50Z</time>
      </trkpt>
      <trkpt lat="37.0081150" lon="-2.4542360">
        <ele>228.9</ele>
        <time>2019-10-18T18:15:51Z</time>
      </trkpt>
      <trkpt lat="37.0080440" lon="-2.4542650">
        <ele>228.7</ele>
        <time>2019-10-18T18:15:52Z</time>
      </trkpt>
      <trkpt lat="37.0080440" lon="-2.4542650">
        <ele>228.7</ele>
        <time>2019-10-18T18:15:53Z</time>
      </trkpt>
      <trkpt lat="37.0079730" lon="-2.4542910">
        <ele>228.4</ele>
        <time>2019-10-18T18:15:54Z</time>
      </trkpt>
      <trkpt lat="37.0078370" lon="-2.4543410">
        <ele>227.6</ele>
        <time>2019-10-18T18:15:55Z</time>
      </trkpt>
      <trkpt lat="37.0077700" lon="-2.4543660">
        <ele>227.2</ele>
        <time>2019-10-18T18:15:56Z</time>
      </trkpt>
      <trkpt lat="37.0077700" lon="-2.4543660">
        <ele>227.2</ele>
        <time>2019-10-18T18:15:57Z</time>
      </trkpt>
      <trkpt lat="37.0076390" lon="-2.4544160">
        <ele>226.6</ele>
        <time>2019-10-18T18:15:58Z</time>
      </trkpt>
      <trkpt lat="37.0076390" lon="-2.4544160">
        <ele>226.6</ele>
        <time>2019-10-18T18:15:59Z</time>
      </trkpt>
      <trkpt lat="37.0075740" lon="-2.4544410">
        <ele>226.6</ele>
        <time>2019-10-18T18:16:00Z</time>
      </trkpt>
      <trkpt lat="37.0074470" lon="-2.4544920">
        <ele>227.0</ele>
        <time>2019-10-18T18:16:01Z</time>
      </trkpt>
      <trkpt lat="37.0073830" lon="-2.4545170">
        <ele>227.1</ele>
        <time>2019-10-18T18:16:02Z</time>
      </trkpt>
      <trkpt lat="37.0073210" lon="-2.4545410">
        <ele>227.2</ele>
        <time>2019-10-18T18:16:03Z</time>
      </trkpt>
      <trkpt lat="37.0072580" lon="-2.4545650">
        <ele>227.3</ele>
        <time>2019-10-18T18:16:04Z</time>
      </trkpt>
      <trkpt lat="37.0071970" lon="-2.4545910">
        <ele>227.4</ele>
        <time>2019-10-18T18:16:05Z</time>
      </trkpt>
      <trkpt lat="37.0071370" lon="-2.4546180">
        <ele>227.5</ele>
        <time>2019-10-18T18:16:06Z</time>
      </trkpt>
      <trkpt lat="37.0070790" lon="-2.4546480">
        <ele>227.7</ele>
        <time>2019-10-18T18:16:07Z</time>
      </trkpt>
      <trkpt lat="37.0070210" lon="-2.4546780">
        <ele>227.8</ele>
        <time>2019-10-18T18:16:08Z</time>
      </trkpt>
      <trkpt lat="37.0069630" lon="-2.4547090">
        <ele>228.0</ele>
        <time>2019-10-18T18:16:09Z</time>
      </trkpt>
      <trkpt lat="37.0069060" lon="-2.4547410">
        <ele>228.2</ele>
        <time>2019-10-18T18:16:10Z</time>
      </trkpt>
      <trkpt lat="37.0068500" lon="-2.4547780">
        <ele>228.4</ele>
        <time>2019-10-18T18:16:11Z</time>
      </trkpt>
      <trkpt lat="37.0067980" lon="-2.4548200">
        <ele>228.6</ele>
        <time>2019-10-18T18:16:12Z</time>
      </trkpt>
      <trkpt lat="37.0067480" lon="-2.4548670">
        <ele>228.9</ele>
        <time>2019-10-18T18:16:13Z</time>
      </trkpt>
      <trkpt lat="37.0067000" lon="-2.4549150">
        <ele>229.1</ele>
        <time>2019-10-18T18:16:14Z</time>
      </trkpt>
      <trkpt lat="37.0066550" lon="-2.4549670">
        <ele>229.1</ele>
        <time>2019-10-18T18:16:15Z</time>
      </trkpt>
      <trkpt lat="37.0066120" lon="-2.4550210">
        <ele>229.2</ele>
        <time>2019-10-18T18:16:16Z</time>
      </trkpt>
      <trkpt lat="37.0065730" lon="-2.4550780">
        <ele>229.2</ele>
        <time>2019-10-18T18:16:17Z</time>
      </trkpt>
      <trkpt lat="37.0065370" lon="-2.4551370">
        <ele>229.2</ele>
        <time>2019-10-18T18:16:18Z</time>
      </trkpt>
      <trkpt lat="37.0065030" lon="-2.4552000">
        <ele>229.3</ele>
        <time>2019-10-18T18:16:19Z</time>
      </trkpt>
      <trkpt lat="37.0064720" lon="-2.4552660">
        <ele>229.4</ele>
        <time>2019-10-18T18:16:20Z</time>
      </trkpt>
      <trkpt lat="37.0064420" lon="-2.4553350">
        <ele>229.5</ele>
        <time>2019-10-18T18:16:21Z</time>
      </trkpt>
      <trkpt lat="37.0064170" lon="-2.4554050">
        <ele>229.6</ele>
        <time>2019-10-18T18:16:22Z</time>
      </trkpt>
      <trkpt lat="37.0063950" lon="-2.4554770">
        <ele>229.7</ele>
        <time>2019-10-18T18:16:23Z</time>
      </trkpt>
      <trkpt lat="37.0063750" lon="-2.4555500">
        <ele>229.9</ele>
        <time>2019-10-18T18:16:24Z</time>
      </trkpt>
      <trkpt lat="37.0063570" lon="-2.4556230">
        <ele>230.0</ele>
        <time>2019-10-18T18:16:25Z</time>
      </trkpt>
      <trkpt lat="37.0063390" lon="-2.4556960">
        <ele>230.1</ele>
        <time>2019-10-18T18:16:26Z</time>
      </trkpt>
      <trkpt lat="37.0063190" lon="-2.4557660">
        <ele>230.1</ele>
        <time>2019-10-18T18:16:27Z</time>
      </trkpt>
      <trkpt lat="37.0062980" lon="-2.4558330">
        <ele>230.2</ele>
        <time>2019-10-18T18:16:28Z</time>
      </trkpt>
      <trkpt lat="37.0062980" lon="-2.4558330">
        <ele>230.2</ele>
        <time>2019-10-18T18:16:29Z</time>
      </trkpt>
      <trkpt lat="37.0062730" lon="-2.4558980">
        <ele>230.2</ele>
        <time>2019-10-18T18:16:30Z</time>
      </trkpt>
      <trkpt lat="37.0062170" lon="-2.4560210">
        <ele>230.2</ele>
        <time>2019-10-18T18:16:31Z</time>
      </trkpt>
      <trkpt lat="37.0061860" lon="-2.4560810">
        <ele>230.2</ele>
        <time>2019-10-18T18:16:32Z</time>
      </trkpt>
      <trkpt lat="37.0061520" lon="-2.4561390">
        <ele>230.3</ele>
        <time>2019-10-18T18:16:33Z</time>
      </trkpt>
      <trkpt lat="37.0061520" lon="-2.4561390">
        <ele>230.3</ele>
        <time>2019-10-18T18:16:34Z</time>
      </trkpt>
      <trkpt lat="37.0060770" lon="-2.4562530">
        <ele>230.4</ele>
        <time>2019-10-18T18:16:35Z</time>
      </trkpt>
      <trkpt lat="37.0060360" lon="-2.4563080">
        <ele>230.5</ele>
        <time>2019-10-18T18:16:36Z</time>
      </trkpt>
      <trkpt lat="37.0060360" lon="-2.4563080">
        <ele>230.5</ele>
        <time>2019-10-18T18:16:37Z</time>
      </trkpt>
      <trkpt lat="37.0059490" lon="-2.4564120">
        <ele>231.0</ele>
        <time>2019-10-18T18:16:38Z</time>
      </trkpt>
      <trkpt lat="37.0059040" lon="-2.4564600">
        <ele>231.3</ele>
        <time>2019-10-18T18:16:39Z</time>
      </trkpt>
      <trkpt lat="37.0058570" lon="-2.4565070">
        <ele>231.6</ele>
        <time>2019-10-18T18:16:40Z</time>
      </trkpt>
      <trkpt lat="37.0058090" lon="-2.4565530">
        <ele>232.0</ele>
        <time>2019-10-18T18:16:41Z</time>
      </trkpt>
      <trkpt lat="37.0057610" lon="-2.4565990">
        <ele>232.4</ele>
        <time>2019-10-18T18:16:42Z</time>
      </trkpt>
      <trkpt lat="37.0057130" lon="-2.4566450">
        <ele>232.8</ele>
        <time>2019-10-18T18:16:43Z</time>
      </trkpt>
      <trkpt lat="37.0056650" lon="-2.4566920">
        <ele>233.2</ele>
        <time>2019-10-18T18:16:44Z</time>
      </trkpt>
      <trkpt lat="37.0056170" lon="-2.4567380">
        <ele>233.5</ele>
        <time>2019-10-18T18:16:45Z</time>
      </trkpt>
      <trkpt lat="37.0055680" lon="-2.4567840">
        <ele>233.8</ele>
        <time>2019-10-18T18:16:46Z</time>
      </trkpt>
      <trkpt lat="37.0055190" lon="-2.4568290">
        <ele>234.1</ele>
        <time>2019-10-18T18:16:47Z</time>
      </trkpt>
      <trkpt lat="37.0054700" lon="-2.4568730">
        <ele>234.3</ele>
        <time>2019-10-18T18:16:48Z</time>
      </trkpt>
      <trkpt lat="37.0054210" lon="-2.4569180">
        <ele>234.5</ele>
        <time>2019-10-18T18:16:49Z</time>
      </trkpt>
      <trkpt lat="37.0053720" lon="-2.4569630">
        <ele>234.7</ele>
        <time>2019-10-18T18:16:50Z</time>
      </trkpt>
      <trkpt lat="37.0053230" lon="-2.4570070">
        <ele>234.8</ele>
        <time>2019-10-18T18:16:51Z</time>
      </trkpt>
      <trkpt lat="37.0052750" lon="-2.4570530">
        <ele>235.0</ele>
        <time>2019-10-18T18:16:52Z</time>
      </trkpt>
      <trkpt lat="37.0052280" lon="-2.4570980">
        <ele>235.1</ele>
        <time>2019-10-18T18:16:53Z</time>
      </trkpt>
      <trkpt lat="37.0051800" lon="-2.4571420">
        <ele>235.2</ele>
        <time>2019-10-18T18:16:54Z</time>
      </trkpt>
      <trkpt lat="37.0051320" lon="-2.4571850">
        <ele>235.3</ele>
        <time>2019-10-18T18:16:55Z</time>
      </trkpt>
      <trkpt lat="37.0050840" lon="-2.4572270">
        <ele>235.3</ele>
        <time>2019-10-18T18:16:56Z</time>
      </trkpt>
      <trkpt lat="37.0050350" lon="-2.4572680">
        <ele>235.4</ele>
        <time>2019-10-18T18:16:57Z</time>
      </trkpt>
      <trkpt lat="37.0049850" lon="-2.4573070">
        <ele>235.4</ele>
        <time>2019-10-18T18:16:58Z</time>
      </trkpt>
      <trkpt lat="37.0049330" lon="-2.4573430">
        <ele>235.4</ele>
        <time>2019-10-18T18:16:59Z</time>
      </trkpt>
      <trkpt lat="37.0048810" lon="-2.4573780">
        <ele>235.4</ele>
        <time>2019-10-18T18:17:00Z</time>
      </trkpt>
      <trkpt lat="37.0048310" lon="-2.4574110">
        <ele>235.4</ele>
        <time>2019-10-18T18:17:01Z</time>
      </trkpt>
      <trkpt lat="37.0047800" lon="-2.4574410">
        <ele>235.4</ele>
        <time>2019-10-18T18:17:02Z</time>
      </trkpt>
      <trkpt lat="37.0047280" lon="-2.4574680">
        <ele>235.4</ele>
        <time>2019-10-18T18:17:03Z</time>
      </trkpt>
      <trkpt lat="37.0046760" lon="-2.4574910">
        <ele>235.4</ele>
        <time>2019-10-18T18:17:04Z</time>
      </trkpt>
      <trkpt lat="37.0046220" lon="-2.4575110">
        <ele>235.4</ele>
        <time>2019-10-18T18:17:05Z</time>
      </trkpt>
      <trkpt lat="37.0045660" lon="-2.4575300">
        <ele>235.4</ele>
        <time>2019-10-18T18:17:06Z</time>
      </trkpt>
      <trkpt lat="37.0045110" lon="-2.4575460">
        <ele>235.4</ele>
        <time>2019-10-18T18:17:07Z</time>
      </trkpt>
      <trkpt lat="37.0044540" lon="-2.4575580">
        <ele>235.4</ele>
        <time>2019-10-18T18:17:08Z</time>
      </trkpt>
      <trkpt lat="37.0043980" lon="-2.4575650">
        <ele>235.4</ele>
        <time>2019-10-18T18:17:09Z</time>
      </trkpt>
      <trkpt lat="37.0043390" lon="-2.4575700">
        <ele>235.4</ele>
        <time>2019-10-18T18:17:10Z</time>
      </trkpt>
      <trkpt lat="37.0042790" lon="-2.4575720">
        <ele>235.4</ele>
        <time>2019-10-18T18:17:11Z</time>
      </trkpt>
      <trkpt lat="37.0042180" lon="-2.4575750">
        <ele>235.3</ele>
        <time>2019-10-18T18:17:12Z</time>
      </trkpt>
      <trkpt lat="37.0041560" lon="-2.4575790">
        <ele>235.2</ele>
        <time>2019-10-18T18:17:13Z</time>
      </trkpt>
      <trkpt lat="37.0040940" lon="-2.4575830">
        <ele>235.1</ele>
        <time>2019-10-18T18:17:14Z</time>
      </trkpt>
      <trkpt lat="37.0040310" lon="-2.4575890">
        <ele>234.9</ele>
        <time>2019-10-18T18:17:15Z</time>
      </trkpt>
      <trkpt lat="37.0039680" lon="-2.4575990">
        <ele>234.8</ele>
        <time>2019-10-18T18:17:16Z</time>
      </trkpt>
      <trkpt lat="37.0039080" lon="-2.4576150">
        <ele>234.6</ele>
        <time>2019-10-18T18:17:17Z</time>
      </trkpt>
      <trkpt lat="37.0038470" lon="-2.4576360">
        <ele>234.3</ele>
        <time>2019-10-18T18:17:18Z</time>
      </trkpt>
      <trkpt lat="37.0037870" lon="-2.4576620">
        <ele>234.1</ele>
        <time>2019-10-18T18:17:19Z</time>
      </trkpt>
      <trkpt lat="37.0037280" lon="-2.4576910">
        <ele>233.9</ele>
        <time>2019-10-18T18:17:20Z</time>
      </trkpt>
      <trkpt lat="37.0036700" lon="-2.4577240">
        <ele>233.6</ele>
        <time>2019-10-18T18:17:21Z</time>
      </trkpt>
      <trkpt lat="37.0036120" lon="-2.4577590">
        <ele>233.4</ele>
        <time>2019-10-18T18:17:22Z</time>
      </trkpt>
      <trkpt lat="37.0035550" lon="-2.4577980">
        <ele>233.1</ele>
        <time>2019-10-18T18:17:23Z</time>
      </trkpt>
      <trkpt lat="37.0035000" lon="-2.4578410">
        <ele>232.9</ele>
        <time>2019-10-18T18:17:24Z</time>
      </trkpt>
      <trkpt lat="37.0034450" lon="-2.4578880">
        <ele>232.8</ele>
        <time>2019-10-18T18:17:25Z</time>
      </trkpt>
      <trkpt lat="37.0033920" lon="-2.4579380">
        <ele>232.7</ele>
        <time>2019-10-18T18:17:26Z</time>
      </trkpt>
      <trkpt lat="37.0033400" lon="-2.4579910">
        <ele>232.6</ele>
        <time>2019-10-18T18:17:27Z</time>
      </trkpt>
      <trkpt lat="37.0033400" lon="-2.4579910">
        <ele>232.6</ele>
        <time>2019-10-18T18:17:28Z</time>
      </trkpt>
      <trkpt lat="37.0032340" lon="-2.4580960">
        <ele>232.4</ele>
        <time>2019-10-18T18:17:29Z</time>
      </trkpt>
      <trkpt lat="37.0031790" lon="-2.4581480">
        <ele>232.3</ele>
        <time>2019-10-18T18:17:30Z</time>
      </trkpt>
      <trkpt lat="37.0031250" lon="-2.4582010">
        <ele>232.2</ele>
        <time>2019-10-18T18:17:31Z</time>
      </trkpt>
      <trkpt lat="37.0030720" lon="-2.4582540">
        <ele>232.0</ele>
        <time>2019-10-18T18:17:32Z</time>
      </trkpt>
      <trkpt lat="37.0030210" lon="-2.4583070">
        <ele>231.8</ele>
        <time>2019-10-18T18:17:33Z</time>
      </trkpt>
      <trkpt lat="37.0029710" lon="-2.4583590">
        <ele>231.7</ele>
        <time>2019-10-18T18:17:34Z</time>
      </trkpt>
      <trkpt lat="37.0029220" lon="-2.4584110">
        <ele>231.5</ele>
        <time>2019-10-18T18:17:35Z</time>
      </trkpt>
      <trkpt lat="37.0028740" lon="-2.4584650">
        <ele>231.3</ele>
        <time>2019-10-18T18:17:36Z</time>
      </trkpt>
      <trkpt lat="37.0028280" lon="-2.4585200">
        <ele>231.2</ele>
        <time>2019-10-18T18:17:37Z</time>
      </trkpt>
      <trkpt lat="37.0027830" lon="-2.4585770">
        <ele>231.0</ele>
        <time>2019-10-18T18:17:38Z</time>
      </trkpt>
      <trkpt lat="37.0027400" lon="-2.4586340">
        <ele>230.9</ele>
        <time>2019-10-18T18:17:39Z</time>
      </trkpt>
      <trkpt lat="37.0026990" lon="-2.4586930">
        <ele>230.8</ele>
        <time>2019-10-18T18:17:40Z</time>
      </trkpt>
      <trkpt lat="37.0026590" lon="-2.4587520">
        <ele>230.8</ele>
        <time>2019-10-18T18:17:41Z</time>
      </trkpt>
      <trkpt lat="37.0026210" lon="-2.4588110">
        <ele>230.7</ele>
        <time>2019-10-18T18:17:42Z</time>
      </trkpt>
      <trkpt lat="37.0025830" lon="-2.4588700">
        <ele>230.7</ele>
        <time>2019-10-18T18:17:43Z</time>
      </trkpt>
      <trkpt lat="37.0025470" lon="-2.4589270">
        <ele>230.8</ele>
        <time>2019-10-18T18:17:44Z</time>
      </trkpt>
      <trkpt lat="37.0025100" lon="-2.4589830">
        <ele>231.0</ele>
        <time>2019-10-18T18:17:45Z</time>
      </trkpt>
      <trkpt lat="37.0024750" lon="-2.4590380">
        <ele>231.1</ele>
        <time>2019-10-18T18:17:46Z</time>
      </trkpt>
      <trkpt lat="37.0024400" lon="-2.4590930">
        <ele>231.3</ele>
        <time>2019-10-18T18:17:47Z</time>
      </trkpt>
      <trkpt lat="37.0024060" lon="-2.4591470">
        <ele>231.5</ele>
        <time>2019-10-18T18:17:48Z</time>
      </trkpt>
      <trkpt lat="37.0023720" lon="-2.4592000">
        <ele>231.7</ele>
        <time>2019-10-18T18:17:49Z</time>
      </trkpt>
      <trkpt lat="37.0023400" lon="-2.4592540">
        <ele>232.0</ele>
        <time>2019-10-18T18:17:50Z</time>
      </trkpt>
      <trkpt lat="37.0023090" lon="-2.4593090">
        <ele>232.2</ele>
        <time>2019-10-18T18:17:51Z</time>
      </trkpt>
      <trkpt lat="37.0022780" lon="-2.4593640">
        <ele>232.4</ele>
        <time>2019-10-18T18:17:52Z</time>
      </trkpt>
      <trkpt lat="37.0022490" lon="-2.4594180">
        <ele>232.6</ele>
        <time>2019-10-18T18:17:53Z</time>
      </trkpt>
      <trkpt lat="37.0022190" lon="-2.4594700">
        <ele>232.8</ele>
        <time>2019-10-18T18:17:54Z</time>
      </trkpt>
      <trkpt lat="37.0021900" lon="-2.4595210">
        <ele>232.9</ele>
        <time>2019-10-18T18:17:55Z</time>
      </trkpt>
      <trkpt lat="37.0021610" lon="-2.4595710">
        <ele>233.1</ele>
        <time>2019-10-18T18:17:56Z</time>
      </trkpt>
      <trkpt lat="37.0021320" lon="-2.4596210">
        <ele>233.2</ele>
        <time>2019-10-18T18:17:57Z</time>
      </trkpt>
      <trkpt lat="37.0021020" lon="-2.4596720">
        <ele>233.3</ele>
        <time>2019-10-18T18:17:58Z</time>
      </trkpt>
      <trkpt lat="37.0020710" lon="-2.4597230">
        <ele>233.4</ele>
        <time>2019-10-18T18:17:59Z</time>
      </trkpt>
      <trkpt lat="37.0020400" lon="-2.4597750">
        <ele>233.5</ele>
        <time>2019-10-18T18:18:00Z</time>
      </trkpt>
      <trkpt lat="37.0020090" lon="-2.4598270">
        <ele>233.6</ele>
        <time>2019-10-18T18:18:01Z</time>
      </trkpt>
      <trkpt lat="37.0019790" lon="-2.4598780">
        <ele>233.7</ele>
        <time>2019-10-18T18:18:02Z</time>
      </trkpt>
      <trkpt lat="37.0019500" lon="-2.4599280">
        <ele>233.8</ele>
        <time>2019-10-18T18:18:03Z</time>
      </trkpt>
      <trkpt lat="37.0019210" lon="-2.4599770">
        <ele>233.9</ele>
        <time>2019-10-18T18:18:04Z</time>
      </trkpt>
      <trkpt lat="37.0018920" lon="-2.4600250">
        <ele>234.0</ele>
        <time>2019-10-18T18:18:05Z</time>
      </trkpt>
      <trkpt lat="37.0018630" lon="-2.4600730">
        <ele>234.2</ele>
        <time>2019-10-18T18:18:06Z</time>
      </trkpt>
      <trkpt lat="37.0018330" lon="-2.4601190">
        <ele>234.4</ele>
        <time>2019-10-18T18:18:07Z</time>
      </trkpt>
      <trkpt lat="37.0018030" lon="-2.4601650">
        <ele>234.6</ele>
        <time>2019-10-18T18:18:08Z</time>
      </trkpt>
      <trkpt lat="37.0017730" lon="-2.4602100">
        <ele>234.8</ele>
        <time>2019-10-18T18:18:09Z</time>
      </trkpt>
      <trkpt lat="37.0017420" lon="-2.4602550">
        <ele>235.0</ele>
        <time>2019-10-18T18:18:10Z</time>
      </trkpt>
      <trkpt lat="37.0017100" lon="-2.4602990">
        <ele>234.9</ele>
        <time>2019-10-18T18:18:11Z</time>
      </trkpt>
      <trkpt lat="37.0016780" lon="-2.4603420">
        <ele>234.9</ele>
        <time>2019-10-18T18:18:12Z</time>
      </trkpt>
      <trkpt lat="37.0016450" lon="-2.4603850">
        <ele>234.9</ele>
        <time>2019-10-18T18:18:13Z</time>
      </trkpt>
      <trkpt lat="37.0016110" lon="-2.4604270">
        <ele>234.8</ele>
        <time>2019-10-18T18:18:14Z</time>
      </trkpt>
      <trkpt lat="37.0015750" lon="-2.4604690">
        <ele>234.8</ele>
        <time>2019-10-18T18:18:15Z</time>
      </trkpt>
      <trkpt lat="37.0015390" lon="-2.4605090">
        <ele>234.8</ele>
        <time>2019-10-18T18:18:16Z</time>
      </trkpt>
      <trkpt lat="37.0015000" lon="-2.4605490">
        <ele>234.7</ele>
        <time>2019-10-18T18:18:17Z</time>
      </trkpt>
      <trkpt lat="37.0014610" lon="-2.4605880">
        <ele>234.7</ele>
        <time>2019-10-18T18:18:18Z</time>
      </trkpt>
      <trkpt lat="37.0014210" lon="-2.4606280">
        <ele>234.7</ele>
        <time>2019-10-18T18:18:19Z</time>
      </trkpt>
      <trkpt lat="37.0013800" lon="-2.4606670">
        <ele>234.6</ele>
        <time>2019-10-18T18:18:20Z</time>
      </trkpt>
      <trkpt lat="37.0013370" lon="-2.4607060">
        <ele>234.6</ele>
        <time>2019-10-18T18:18:21Z</time>
      </trkpt>
      <trkpt lat="37.0012940" lon="-2.4607460">
        <ele>234.6</ele>
        <time>2019-10-18T18:18:22Z</time>
      </trkpt>
      <trkpt lat="37.0012940" lon="-2.4607460">
        <ele>234.6</ele>
        <time>2019-10-18T18:18:23Z</time>
      </trkpt>
      <trkpt lat="37.0012050" lon="-2.4608250">
        <ele>234.5</ele>
        <time>2019-10-18T18:18:24Z</time>
      </trkpt>
      <trkpt lat="37.0011590" lon="-2.4608650">
        <ele>234.4</ele>
        <time>2019-10-18T18:18:25Z</time>
      </trkpt>
      <trkpt lat="37.0011120" lon="-2.4609050">
        <ele>234.4</ele>
        <time>2019-10-18T18:18:26Z</time>
      </trkpt>
      <trkpt lat="37.0010650" lon="-2.4609440">
        <ele>234.4</ele>
        <time>2019-10-18T18:18:27Z</time>
      </trkpt>
      <trkpt lat="37.0010170" lon="-2.4609840">
        <ele>234.3</ele>
        <time>2019-10-18T18:18:28Z</time>
      </trkpt>
      <trkpt lat="37.0009690" lon="-2.4610230">
        <ele>234.3</ele>
        <time>2019-10-18T18:18:29Z</time>
      </trkpt>
      <trkpt lat="37.0009200" lon="-2.4610610">
        <ele>234.3</ele>
        <time>2019-10-18T18:18:30Z</time>
      </trkpt>
      <trkpt lat="37.0008700" lon="-2.4610980">
        <ele>234.2</ele>
        <time>2019-10-18T18:18:31Z</time>
      </trkpt>
      <trkpt lat="37.0008200" lon="-2.4611350">
        <ele>234.2</ele>
        <time>2019-10-18T18:18:32Z</time>
      </trkpt>
      <trkpt lat="37.0007710" lon="-2.4611720">
        <ele>234.1</ele>
        <time>2019-10-18T18:18:33Z</time>
      </trkpt>
      <trkpt lat="37.0007210" lon="-2.4612090">
        <ele>234.1</ele>
        <time>2019-10-18T18:18:34Z</time>
      </trkpt>
      <trkpt lat="37.0006710" lon="-2.4612450">
        <ele>234.0</ele>
        <time>2019-10-18T18:18:35Z</time>
      </trkpt>
      <trkpt lat="37.0006200" lon="-2.4612800">
        <ele>233.9</ele>
        <time>2019-10-18T18:18:36Z</time>
      </trkpt>
      <trkpt lat="37.0005690" lon="-2.4613130">
        <ele>233.8</ele>
        <time>2019-10-18T18:18:37Z</time>
      </trkpt>
      <trkpt lat="37.0005180" lon="-2.4613460">
        <ele>233.6</ele>
        <time>2019-10-18T18:18:38Z</time>
      </trkpt>
      <trkpt lat="37.0004670" lon="-2.4613790">
        <ele>233.5</ele>
        <time>2019-10-18T18:18:39Z</time>
      </trkpt>
      <trkpt lat="37.0004150" lon="-2.4614130">
        <ele>233.4</ele>
        <time>2019-10-18T18:18:40Z</time>
      </trkpt>
      <trkpt lat="37.0003640" lon="-2.4614470">
        <ele>233.2</ele>
        <time>2019-10-18T18:18:41Z</time>
      </trkpt>
      <trkpt lat="37.0003120" lon="-2.4614790">
        <ele>233.1</ele>
        <time>2019-10-18T18:18:42Z</time>
      </trkpt>
      <trkpt lat="37.0002600" lon="-2.4615110">
        <ele>233.0</ele>
        <time>2019-10-18T18:18:43Z</time>
      </trkpt>
      <trkpt lat="37.0002070" lon="-2.4615420">
        <ele>232.9</ele>
        <time>2019-10-18T18:18:44Z</time>
      </trkpt>
      <trkpt lat="37.0001550" lon="-2.4615720">
        <ele>232.7</ele>
        <time>2019-10-18T18:18:45Z</time>
      </trkpt>
      <trkpt lat="37.0001020" lon="-2.4616020">
        <ele>232.6</ele>
        <time>2019-10-18T18:18:46Z</time>
      </trkpt>
      <trkpt lat="37.0000490" lon="-2.4616310">
        <ele>232.6</ele>
        <time>2019-10-18T18:18:47Z</time>
      </trkpt>
      <trkpt lat="36.9999960" lon="-2.4616590">
        <ele>232.5</ele>
        <time>2019-10-18T18:18:48Z</time>
      </trkpt>
      <trkpt lat="36.9999420" lon="-2.4616870">
        <ele>232.4</ele>
        <time>2019-10-18T18:18:49Z</time>
      </trkpt>
      <trkpt lat="36.9998880" lon="-2.4617140">
        <ele>232.3</ele>
        <time>2019-10-18T18:18:50Z</time>
      </trkpt>
      <trkpt lat="36.9998330" lon="-2.4617410">
        <ele>232.1</ele>
        <time>2019-10-18T18:18:51Z</time>
      </trkpt>
      <trkpt lat="36.9997780" lon="-2.4617680">
        <ele>231.9</ele>
        <time>2019-10-18T18:18:52Z</time>
      </trkpt>
      <trkpt lat="36.9997230" lon="-2.4617950">
        <ele>231.8</ele>
        <time>2019-10-18T18:18:53Z</time>
      </trkpt>
      <trkpt lat="36.9996680" lon="-2.4618210">
        <ele>231.6</ele>
        <time>2019-10-18T18:18:54Z</time>
      </trkpt>
      <trkpt lat="36.9996120" lon="-2.4618470">
        <ele>231.5</ele>
        <time>2019-10-18T18:18:55Z</time>
      </trkpt>
      <trkpt lat="36.9995560" lon="-2.4618720">
        <ele>231.3</ele>
        <time>2019-10-18T18:18:56Z</time>
      </trkpt>
      <trkpt lat="36.9994990" lon="-2.4618980">
        <ele>231.2</ele>
        <time>2019-10-18T18:18:57Z</time>
      </trkpt>
      <trkpt lat="36.9994420" lon="-2.4619220">
        <ele>231.1</ele>
        <time>2019-10-18T18:18:58Z</time>
      </trkpt>
      <trkpt lat="36.9993840" lon="-2.4619470">
        <ele>231.0</ele>
        <time>2019-10-18T18:18:59Z</time>
      </trkpt>
      <trkpt lat="36.9993260" lon="-2.4619710">
        <ele>230.9</ele>
        <time>2019-10-18T18:19:00Z</time>
      </trkpt>
      <trkpt lat="36.9992670" lon="-2.4619940">
        <ele>230.7</ele>
        <time>2019-10-18T18:19:01Z</time>
      </trkpt>
      <trkpt lat="36.9992080" lon="-2.4620170">
        <ele>230.4</ele>
        <time>2019-10-18T18:19:02Z</time>
      </trkpt>
      <trkpt lat="36.9991480" lon="-2.4620400">
        <ele>230.1</ele>
        <time>2019-10-18T18:19:03Z</time>
      </trkpt>
      <trkpt lat="36.9990870" lon="-2.4620630">
        <ele>229.8</ele>
        <time>2019-10-18T18:19:04Z</time>
      </trkpt>
      <trkpt lat="36.9990250" lon="-2.4620850">
        <ele>229.5</ele>
        <time>2019-10-18T18:19:05Z</time>
      </trkpt>
      <trkpt lat="36.9989620" lon="-2.4621070">
        <ele>229.2</ele>
        <time>2019-10-18T18:19:06Z</time>
      </trkpt>
      <trkpt lat="36.9989000" lon="-2.4621290">
        <ele>228.9</ele>
        <time>2019-10-18T18:19:07Z</time>
      </trkpt>
      <trkpt lat="36.9988360" lon="-2.4621490">
        <ele>228.8</ele>
        <time>2019-10-18T18:19:08Z</time>
      </trkpt>
      <trkpt lat="36.9987720" lon="-2.4621690">
        <ele>228.7</ele>
        <time>2019-10-18T18:19:09Z</time>
      </trkpt>
      <trkpt lat="36.9987070" lon="-2.4621890">
        <ele>228.6</ele>
        <time>2019-10-18T18:19:10Z</time>
      </trkpt>
      <trkpt lat="36.9986420" lon="-2.4622090">
        <ele>228.6</ele>
        <time>2019-10-18T18:19:11Z</time>
      </trkpt>
      <trkpt lat="36.9985760" lon="-2.4622280">
        <ele>228.5</ele>
        <time>2019-10-18T18:19:12Z</time>
      </trkpt>
      <trkpt lat="36.9985110" lon="-2.4622470">
        <ele>228.4</ele>
        <time>2019-10-18T18:19:13Z</time>
      </trkpt>
      <trkpt lat="36.9984460" lon="-2.4622660">
        <ele>228.3</ele>
        <time>2019-10-18T18:19:14Z</time>
      </trkpt>
      <trkpt lat="36.9983800" lon="-2.4622850">
        <ele>228.1</ele>
        <time>2019-10-18T18:19:15Z</time>
      </trkpt>
      <trkpt lat="36.9983140" lon="-2.4623030">
        <ele>227.8</ele>
        <time>2019-10-18T18:19:16Z</time>
      </trkpt>
      <trkpt lat="36.9982480" lon="-2.4623200">
        <ele>227.6</ele>
        <time>2019-10-18T18:19:17Z</time>
      </trkpt>
      <trkpt lat="36.9982480" lon="-2.4623200">
        <ele>227.6</ele>
        <time>2019-10-18T18:19:18Z</time>
      </trkpt>
      <trkpt lat="36.9981160" lon="-2.4623530">
        <ele>226.9</ele>
        <time>2019-10-18T18:19:19Z</time>
      </trkpt>
      <trkpt lat="36.9980510" lon="-2.4623710">
        <ele>226.7</ele>
        <time>2019-10-18T18:19:20Z</time>
      </trkpt>
      <trkpt lat="36.9979850" lon="-2.4623900">
        <ele>226.5</ele>
        <time>2019-10-18T18:19:21Z</time>
      </trkpt>
      <trkpt lat="36.9979180" lon="-2.4624080">
        <ele>226.2</ele>
        <time>2019-10-18T18:19:22Z</time>
      </trkpt>
      <trkpt lat="36.9978500" lon="-2.4624240">
        <ele>226.1</ele>
        <time>2019-10-18T18:19:23Z</time>
      </trkpt>
      <trkpt lat="36.9977800" lon="-2.4624410">
        <ele>225.9</ele>
        <time>2019-10-18T18:19:24Z</time>
      </trkpt>
      <trkpt lat="36.9977100" lon="-2.4624600">
        <ele>225.7</ele>
        <time>2019-10-18T18:19:25Z</time>
      </trkpt>
      <trkpt lat="36.9976400" lon="-2.4624810">
        <ele>225.3</ele>
        <time>2019-10-18T18:19:26Z</time>
      </trkpt>
      <trkpt lat="36.9975690" lon="-2.4625060">
        <ele>225.0</ele>
        <time>2019-10-18T18:19:27Z</time>
      </trkpt>
      <trkpt lat="36.9974980" lon="-2.4625350">
        <ele>224.5</ele>
        <time>2019-10-18T18:19:28Z</time>
      </trkpt>
      <trkpt lat="36.9974280" lon="-2.4625680">
        <ele>223.9</ele>
        <time>2019-10-18T18:19:29Z</time>
      </trkpt>
      <trkpt lat="36.9973580" lon="-2.4626050">
        <ele>223.4</ele>
        <time>2019-10-18T18:19:30Z</time>
      </trkpt>
      <trkpt lat="36.9972880" lon="-2.4626460">
        <ele>223.0</ele>
        <time>2019-10-18T18:19:31Z</time>
      </trkpt>
      <trkpt lat="36.9972180" lon="-2.4626880">
        <ele>222.7</ele>
        <time>2019-10-18T18:19:32Z</time>
      </trkpt>
      <trkpt lat="36.9971470" lon="-2.4627310">
        <ele>222.4</ele>
        <time>2019-10-18T18:19:33Z</time>
      </trkpt>
      <trkpt lat="36.9970750" lon="-2.4627760">
        <ele>222.0</ele>
        <time>2019-10-18T18:19:34Z</time>
      </trkpt>
      <trkpt lat="36.9970020" lon="-2.4628220">
        <ele>221.5</ele>
        <time>2019-10-18T18:19:35Z</time>
      </trkpt>
      <trkpt lat="36.9969280" lon="-2.4628700">
        <ele>221.0</ele>
        <time>2019-10-18T18:19:36Z</time>
      </trkpt>
      <trkpt lat="36.9968520" lon="-2.4629190">
        <ele>220.6</ele>
        <time>2019-10-18T18:19:37Z</time>
      </trkpt>
      <trkpt lat="36.9967760" lon="-2.4629700">
        <ele>220.0</ele>
        <time>2019-10-18T18:19:38Z</time>
      </trkpt>
      <trkpt lat="36.9966970" lon="-2.4630210">
        <ele>219.3</ele>
        <time>2019-10-18T18:19:39Z</time>
      </trkpt>
      <trkpt lat="36.9966180" lon="-2.4630710">
        <ele>218.7</ele>
        <time>2019-10-18T18:19:40Z</time>
      </trkpt>
      <trkpt lat="36.9965370" lon="-2.4631210">
        <ele>218.0</ele>
        <time>2019-10-18T18:19:41Z</time>
      </trkpt>
      <trkpt lat="36.9964560" lon="-2.4631710">
        <ele>217.3</ele>
        <time>2019-10-18T18:19:42Z</time>
      </trkpt>
      <trkpt lat="36.9963730" lon="-2.4632200">
        <ele>216.8</ele>
        <time>2019-10-18T18:19:43Z</time>
      </trkpt>
      <trkpt lat="36.9962900" lon="-2.4632680">
        <ele>216.3</ele>
        <time>2019-10-18T18:19:44Z</time>
      </trkpt>
      <trkpt lat="36.9962060" lon="-2.4633160">
        <ele>215.7</ele>
        <time>2019-10-18T18:19:45Z</time>
      </trkpt>
      <trkpt lat="36.9961210" lon="-2.4633620">
        <ele>215.2</ele>
        <time>2019-10-18T18:19:46Z</time>
      </trkpt>
      <trkpt lat="36.9960350" lon="-2.4634080">
        <ele>214.5</ele>
        <time>2019-10-18T18:19:47Z</time>
      </trkpt>
      <trkpt lat="36.9959470" lon="-2.4634510">
        <ele>213.7</ele>
        <time>2019-10-18T18:19:48Z</time>
      </trkpt>
      <trkpt lat="36.9958570" lon="-2.4634920">
        <ele>212.9</ele>
        <time>2019-10-18T18:19:49Z</time>
      </trkpt>
      <trkpt lat="36.9957660" lon="-2.4635310">
        <ele>212.1</ele>
        <time>2019-10-18T18:19:50Z</time>
      </trkpt>
      <trkpt lat="36.9956750" lon="-2.4635690">
        <ele>211.3</ele>
        <time>2019-10-18T18:19:51Z</time>
      </trkpt>
      <trkpt lat="36.9955840" lon="-2.4636060">
        <ele>210.4</ele>
        <time>2019-10-18T18:19:52Z</time>
      </trkpt>
      <trkpt lat="36.9954920" lon="-2.4636410">
        <ele>209.8</ele>
        <time>2019-10-18T18:19:53Z</time>
      </trkpt>
      <trkpt lat="36.9953980" lon="-2.4636750">
        <ele>209.2</ele>
        <time>2019-10-18T18:19:54Z</time>
      </trkpt>
      <trkpt lat="36.9953030" lon="-2.4637060">
        <ele>208.7</ele>
        <time>2019-10-18T18:19:55Z</time>
      </trkpt>
      <trkpt lat="36.9952080" lon="-2.4637360">
        <ele>208.2</ele>
        <time>2019-10-18T18:19:56Z</time>
      </trkpt>
      <trkpt lat="36.9951130" lon="-2.4637650">
        <ele>207.8</ele>
        <time>2019-10-18T18:19:57Z</time>
      </trkpt>
      <trkpt lat="36.9950180" lon="-2.4637920">
        <ele>207.3</ele>
        <time>2019-10-18T18:19:58Z</time>
      </trkpt>
      <trkpt lat="36.9949220" lon="-2.4638170">
        <ele>206.8</ele>
        <time>2019-10-18T18:19:59Z</time>
      </trkpt>
      <trkpt lat="36.9948250" lon="-2.4638400">
        <ele>206.2</ele>
        <time>2019-10-18T18:20:00Z</time>
      </trkpt>
      <trkpt lat="36.9947270" lon="-2.4638610">
        <ele>205.5</ele>
        <time>2019-10-18T18:20:01Z</time>
      </trkpt>
      <trkpt lat="36.9946290" lon="-2.4638800">
        <ele>204.8</ele>
        <time>2019-10-18T18:20:02Z</time>
      </trkpt>
      <trkpt lat="36.9945300" lon="-2.4638960">
        <ele>204.2</ele>
        <time>2019-10-18T18:20:03Z</time>
      </trkpt>
      <trkpt lat="36.9944310" lon="-2.4639100">
        <ele>203.7</ele>
        <time>2019-10-18T18:20:04Z</time>
      </trkpt>
      <trkpt lat="36.9943320" lon="-2.4639230">
        <ele>203.3</ele>
        <time>2019-10-18T18:20:05Z</time>
      </trkpt>
      <trkpt lat="36.9942340" lon="-2.4639340">
        <ele>202.9</ele>
        <time>2019-10-18T18:20:06Z</time>
      </trkpt>
      <trkpt lat="36.9941360" lon="-2.4639440">
        <ele>202.4</ele>
        <time>2019-10-18T18:20:07Z</time>
      </trkpt>
      <trkpt lat="36.9940370" lon="-2.4639460">
        <ele>202.0</ele>
        <time>2019-10-18T18:20:08Z</time>
      </trkpt>
      <trkpt lat="36.9939370" lon="-2.4639410">
        <ele>201.4</ele>
        <time>2019-10-18T18:20:09Z</time>
      </trkpt>
      <trkpt lat="36.9938360" lon="-2.4639310">
        <ele>200.7</ele>
        <time>2019-10-18T18:20:10Z</time>
      </trkpt>
      <trkpt lat="36.9937350" lon="-2.4639180">
        <ele>199.9</ele>
        <time>2019-10-18T18:20:11Z</time>
      </trkpt>
      <trkpt lat="36.9936360" lon="-2.4638990">
        <ele>199.1</ele>
        <time>2019-10-18T18:20:12Z</time>
      </trkpt>
      <trkpt lat="36.9935390" lon="-2.4638710">
        <ele>198.4</ele>
        <time>2019-10-18T18:20:13Z</time>
      </trkpt>
      <trkpt lat="36.9934440" lon="-2.4638330">
        <ele>197.8</ele>
        <time>2019-10-18T18:20:14Z</time>
      </trkpt>
      <trkpt lat="36.9933520" lon="-2.4637870">
        <ele>197.2</ele>
        <time>2019-10-18T18:20:15Z</time>
      </trkpt>
      <trkpt lat="36.9932640" lon="-2.4637350">
        <ele>196.5</ele>
        <time>2019-10-18T18:20:16Z</time>
      </trkpt>
      <trkpt lat="36.9931800" lon="-2.4636750">
        <ele>195.6</ele>
        <time>2019-10-18T18:20:17Z</time>
      </trkpt>
      <trkpt lat="36.9931010" lon="-2.4636070">
        <ele>194.6</ele>
        <time>2019-10-18T18:20:18Z</time>
      </trkpt>
      <trkpt lat="36.9930250" lon="-2.4635310">
        <ele>194.6</ele>
        <time>2019-10-18T18:20:19Z</time>
      </trkpt>
      <trkpt lat="36.9929510" lon="-2.4634500">
        <ele>194.6</ele>
        <time>2019-10-18T18:20:20Z</time>
      </trkpt>
      <trkpt lat="36.9928790" lon="-2.4633660">
        <ele>194.7</ele>
        <time>2019-10-18T18:20:21Z</time>
      </trkpt>
      <trkpt lat="36.9928080" lon="-2.4632800">
        <ele>194.7</ele>
        <time>2019-10-18T18:20:22Z</time>
      </trkpt>
      <trkpt lat="36.9927350" lon="-2.4631930">
        <ele>194.7</ele>
        <time>2019-10-18T18:20:23Z</time>
      </trkpt>
      <trkpt lat="36.9926620" lon="-2.4631070">
        <ele>194.7</ele>
        <time>2019-10-18T18:20:24Z</time>
      </trkpt>
      <trkpt lat="36.9925900" lon="-2.4630220">
        <ele>194.7</ele>
        <time>2019-10-18T18:20:25Z</time>
      </trkpt>
      <trkpt lat="36.9925180" lon="-2.4629390">
        <ele>194.7</ele>
        <time>2019-10-18T18:20:26Z</time>
      </trkpt>
      <trkpt lat="36.9924450" lon="-2.4628590">
        <ele>194.7</ele>
        <time>2019-10-18T18:20:27Z</time>
      </trkpt>
      <trkpt lat="36.9923670" lon="-2.4627830">
        <ele>194.7</ele>
        <time>2019-10-18T18:20:28Z</time>
      </trkpt>
      <trkpt lat="36.9922860" lon="-2.4627120">
        <ele>194.7</ele>
        <time>2019-10-18T18:20:29Z</time>
      </trkpt>
      <trkpt lat="36.9922000" lon="-2.4626500">
        <ele>194.8</ele>
        <time>2019-10-18T18:20:30Z</time>
      </trkpt>
      <trkpt lat="36.9921120" lon="-2.4625950">
        <ele>194.8</ele>
        <time>2019-10-18T18:20:31Z</time>
      </trkpt>
      <trkpt lat="36.9920190" lon="-2.4625510">
        <ele>194.8</ele>
        <time>2019-10-18T18:20:32Z</time>
      </trkpt>
      <trkpt lat="36.9919240" lon="-2.4625210">
        <ele>194.8</ele>
        <time>2019-10-18T18:20:33Z</time>
      </trkpt>
      <trkpt lat="36.9918250" lon="-2.4625010">
        <ele>194.8</ele>
        <time>2019-10-18T18:20:34Z</time>
      </trkpt>
      <trkpt lat="36.9917230" lon="-2.4624920">
        <ele>194.8</ele>
        <time>2019-10-18T18:20:35Z</time>
      </trkpt>
      <trkpt lat="36.9916220" lon="-2.4624870">
        <ele>194.8</ele>
        <time>2019-10-18T18:20:36Z</time>
      </trkpt>
      <trkpt lat="36.9915200" lon="-2.4624880">
        <ele>194.8</ele>
        <time>2019-10-18T18:20:37Z</time>
      </trkpt>
      <trkpt lat="36.9914170" lon="-2.4624930">
        <ele>194.9</ele>
        <time>2019-10-18T18:20:38Z</time>
      </trkpt>
      <trkpt lat="36.9913140" lon="-2.4625050">
        <ele>194.9</ele>
        <time>2019-10-18T18:20:39Z</time>
      </trkpt>
      <trkpt lat="36.9912090" lon="-2.4625220">
        <ele>194.9</ele>
        <time>2019-10-18T18:20:40Z</time>
      </trkpt>
      <trkpt lat="36.9911050" lon="-2.4625440">
        <ele>194.9</ele>
        <time>2019-10-18T18:20:41Z</time>
      </trkpt>
      <trkpt lat="36.9910010" lon="-2.4625670">
        <ele>194.9</ele>
        <time>2019-10-18T18:20:42Z</time>
      </trkpt>
      <trkpt lat="36.9908970" lon="-2.4625920">
        <ele>194.9</ele>
        <time>2019-10-18T18:20:43Z</time>
      </trkpt>
      <trkpt lat="36.9907980" lon="-2.4626170">
        <ele>194.9</ele>
        <time>2019-10-18T18:20:44Z</time>
      </trkpt>
      <trkpt lat="36.9907980" lon="-2.4626170">
        <ele>194.9</ele>
        <time>2019-10-18T18:20:45Z</time>
      </trkpt>
      <trkpt lat="36.9906090" lon="-2.4626740">
        <ele>195.0</ele>
        <time>2019-10-18T18:20:46Z</time>
      </trkpt>
      <trkpt lat="36.9905180" lon="-2.4627040">
        <ele>195.0</ele>
        <time>2019-10-18T18:20:47Z</time>
      </trkpt>
      <trkpt lat="36.9904280" lon="-2.4627340">
        <ele>195.0</ele>
        <time>2019-10-18T18:20:48Z</time>
      </trkpt>
      <trkpt lat="36.9903420" lon="-2.4627660">
        <ele>195.0</ele>
        <time>2019-10-18T18:20:49Z</time>
      </trkpt>
      <trkpt lat="36.9902610" lon="-2.4628030">
        <ele>195.0</ele>
        <time>2019-10-18T18:20:50Z</time>
      </trkpt>
      <trkpt lat="36.9901910" lon="-2.4628510">
        <ele>195.0</ele>
        <time>2019-10-18T18:20:51Z</time>
      </trkpt>
      <trkpt lat="36.9901250" lon="-2.4629030">
        <ele>195.1</ele>
        <time>2019-10-18T18:20:52Z</time>
      </trkpt>
      <trkpt lat="36.9900640" lon="-2.4629540">
        <ele>195.2</ele>
        <time>2019-10-18T18:20:53Z</time>
      </trkpt>
      <trkpt lat="36.9900040" lon="-2.4630010">
        <ele>195.2</ele>
        <time>2019-10-18T18:20:54Z</time>
      </trkpt>
      <trkpt lat="36.9899460" lon="-2.4630450">
        <ele>195.3</ele>
        <time>2019-10-18T18:20:55Z</time>
      </trkpt>
      <trkpt lat="36.9898880" lon="-2.4630830">
        <ele>195.4</ele>
        <time>2019-10-18T18:20:56Z</time>
      </trkpt>
      <trkpt lat="36.9898280" lon="-2.4631140">
        <ele>195.6</ele>
        <time>2019-10-18T18:20:57Z</time>
      </trkpt>
      <trkpt lat="36.9897690" lon="-2.4631410">
        <ele>195.7</ele>
        <time>2019-10-18T18:20:58Z</time>
      </trkpt>
      <trkpt lat="36.9897110" lon="-2.4631660">
        <ele>195.8</ele>
        <time>2019-10-18T18:20:59Z</time>
      </trkpt>
      <trkpt lat="36.9896520" lon="-2.4631890">
        <ele>195.9</ele>
        <time>2019-10-18T18:21:00Z</time>
      </trkpt>
      <trkpt lat="36.9895950" lon="-2.4632100">
        <ele>196.0</ele>
        <time>2019-10-18T18:21:01Z</time>
      </trkpt>
      <trkpt lat="36.9895370" lon="-2.4632300">
        <ele>196.0</ele>
        <time>2019-10-18T18:21:02Z</time>
      </trkpt>
      <trkpt lat="36.9894810" lon="-2.4632470">
        <ele>196.1</ele>
        <time>2019-10-18T18:21:03Z</time>
      </trkpt>
      <trkpt lat="36.9894240" lon="-2.4632620">
        <ele>196.1</ele>
        <time>2019-10-18T18:21:04Z</time>
      </trkpt>
      <trkpt lat="36.9893690" lon="-2.4632750">
        <ele>196.1</ele>
        <time>2019-10-18T18:21:05Z</time>
      </trkpt>
      <trkpt lat="36.9893140" lon="-2.4632870">
        <ele>196.1</ele>
        <time>2019-10-18T18:21:06Z</time>
      </trkpt>
      <trkpt lat="36.9892580" lon="-2.4632970">
        <ele>196.1</ele>
        <time>2019-10-18T18:21:07Z</time>
      </trkpt>
      <trkpt lat="36.9892020" lon="-2.4633070">
        <ele>196.1</ele>
        <time>2019-10-18T18:21:08Z</time>
      </trkpt>
      <trkpt lat="36.9891460" lon="-2.4633170">
        <ele>196.2</ele>
        <time>2019-10-18T18:21:09Z</time>
      </trkpt>
      <trkpt lat="36.9890900" lon="-2.4633250">
        <ele>196.2</ele>
        <time>2019-10-18T18:21:10Z</time>
      </trkpt>
      <trkpt lat="36.9890330" lon="-2.4633310">
        <ele>196.2</ele>
        <time>2019-10-18T18:21:11Z</time>
      </trkpt>
      <trkpt lat="36.9889760" lon="-2.4633360">
        <ele>196.3</ele>
        <time>2019-10-18T18:21:12Z</time>
      </trkpt>
      <trkpt lat="36.9889190" lon="-2.4633420">
        <ele>196.4</ele>
        <time>2019-10-18T18:21:13Z</time>
      </trkpt>
      <trkpt lat="36.9888620" lon="-2.4633480">
        <ele>196.5</ele>
        <time>2019-10-18T18:21:14Z</time>
      </trkpt>
      <trkpt lat="36.9888030" lon="-2.4633530">
        <ele>196.6</ele>
        <time>2019-10-18T18:21:15Z</time>
      </trkpt>
      <trkpt lat="36.9887470" lon="-2.4633570">
        <ele>196.7</ele>
        <time>2019-10-18T18:21:16Z</time>
      </trkpt>
      <trkpt lat="36.9886900" lon="-2.4633600">
        <ele>196.8</ele>
        <time>2019-10-18T18:21:17Z</time>
      </trkpt>
      <trkpt lat="36.9886340" lon="-2.4633610">
        <ele>196.9</ele>
        <time>2019-10-18T18:21:18Z</time>
      </trkpt>
      <trkpt lat="36.9885770" lon="-2.4633610">
        <ele>197.0</ele>
        <time>2019-10-18T18:21:19Z</time>
      </trkpt>
      <trkpt lat="36.9885200" lon="-2.4633600">
        <ele>197.1</ele>
        <time>2019-10-18T18:21:20Z</time>
      </trkpt>
      <trkpt lat="36.9884630" lon="-2.4633580">
        <ele>197.1</ele>
        <time>2019-10-18T18:21:21Z</time>
      </trkpt>
      <trkpt lat="36.9884070" lon="-2.4633550">
        <ele>197.2</ele>
        <time>2019-10-18T18:21:22Z</time>
      </trkpt>
      <trkpt lat="36.9883500" lon="-2.4633520">
        <ele>197.2</ele>
        <time>2019-10-18T18:21:23Z</time>
      </trkpt>
      <trkpt lat="36.9882930" lon="-2.4633490">
        <ele>197.2</ele>
        <time>2019-10-18T18:21:24Z</time>
      </trkpt>
      <trkpt lat="36.9882370" lon="-2.4633460">
        <ele>197.2</ele>
        <time>2019-10-18T18:21:25Z</time>
      </trkpt>
      <trkpt lat="36.9881810" lon="-2.4633410">
        <ele>197.2</ele>
        <time>2019-10-18T18:21:26Z</time>
      </trkpt>
      <trkpt lat="36.9881250" lon="-2.4633360">
        <ele>197.2</ele>
        <time>2019-10-18T18:21:27Z</time>
      </trkpt>
      <trkpt lat="36.9880690" lon="-2.4633300">
        <ele>197.3</ele>
        <time>2019-10-18T18:21:28Z</time>
      </trkpt>
      <trkpt lat="36.9880140" lon="-2.4633250">
        <ele>197.3</ele>
        <time>2019-10-18T18:21:29Z</time>
      </trkpt>
      <trkpt lat="36.9879580" lon="-2.4633180">
        <ele>197.3</ele>
        <time>2019-10-18T18:21:30Z</time>
      </trkpt>
      <trkpt lat="36.9879010" lon="-2.4633110">
        <ele>197.3</ele>
        <time>2019-10-18T18:21:31Z</time>
      </trkpt>
      <trkpt lat="36.9878450" lon="-2.4633030">
        <ele>197.3</ele>
        <time>2019-10-18T18:21:32Z</time>
      </trkpt>
      <trkpt lat="36.9877890" lon="-2.4632950">
        <ele>197.3</ele>
        <time>2019-10-18T18:21:33Z</time>
      </trkpt>
      <trkpt lat="36.9877330" lon="-2.4632850">
        <ele>197.3</ele>
        <time>2019-10-18T18:21:34Z</time>
      </trkpt>
      <trkpt lat="36.9876760" lon="-2.4632740">
        <ele>197.3</ele>
        <time>2019-10-18T18:21:35Z</time>
      </trkpt>
      <trkpt lat="36.9876190" lon="-2.4632620">
        <ele>197.3</ele>
        <time>2019-10-18T18:21:36Z</time>
      </trkpt>
      <trkpt lat="36.9875610" lon="-2.4632490">
        <ele>197.3</ele>
        <time>2019-10-18T18:21:37Z</time>
      </trkpt>
      <trkpt lat="36.9875010" lon="-2.4632350">
        <ele>197.3</ele>
        <time>2019-10-18T18:21:38Z</time>
      </trkpt>
      <trkpt lat="36.9874410" lon="-2.4632200">
        <ele>197.3</ele>
        <time>2019-10-18T18:21:39Z</time>
      </trkpt>
      <trkpt lat="36.9873800" lon="-2.4632050">
        <ele>197.4</ele>
        <time>2019-10-18T18:21:40Z</time>
      </trkpt>
      <trkpt lat="36.9873190" lon="-2.4631900">
        <ele>197.4</ele>
        <time>2019-10-18T18:21:41Z</time>
      </trkpt>
      <trkpt lat="36.9872590" lon="-2.4631730">
        <ele>197.4</ele>
        <time>2019-10-18T18:21:42Z</time>
      </trkpt>
      <trkpt lat="36.9871990" lon="-2.4631560">
        <ele>197.4</ele>
        <time>2019-10-18T18:21:43Z</time>
      </trkpt>
      <trkpt lat="36.9871390" lon="-2.4631410">
        <ele>197.4</ele>
        <time>2019-10-18T18:21:44Z</time>
      </trkpt>
      <trkpt lat="36.9870800" lon="-2.4631260">
        <ele>197.4</ele>
        <time>2019-10-18T18:21:45Z</time>
      </trkpt>
      <trkpt lat="36.9870220" lon="-2.4631110">
        <ele>197.4</ele>
        <time>2019-10-18T18:21:46Z</time>
      </trkpt>
      <trkpt lat="36.9869640" lon="-2.4630960">
        <ele>197.4</ele>
        <time>2019-10-18T18:21:47Z</time>
      </trkpt>
      <trkpt lat="36.9869050" lon="-2.4630820">
        <ele>197.5</ele>
        <time>2019-10-18T18:21:48Z</time>
      </trkpt>
      <trkpt lat="36.9868460" lon="-2.4630680">
        <ele>197.6</ele>
        <time>2019-10-18T18:21:49Z</time>
      </trkpt>
      <trkpt lat="36.9867880" lon="-2.4630550">
        <ele>197.6</ele>
        <time>2019-10-18T18:21:50Z</time>
      </trkpt>
      <trkpt lat="36.9867300" lon="-2.4630410">
        <ele>197.8</ele>
        <time>2019-10-18T18:21:51Z</time>
      </trkpt>
      <trkpt lat="36.9866720" lon="-2.4630280">
        <ele>197.9</ele>
        <time>2019-10-18T18:21:52Z</time>
      </trkpt>
      <trkpt lat="36.9866140" lon="-2.4630150">
        <ele>198.0</ele>
        <time>2019-10-18T18:21:53Z</time>
      </trkpt>
      <trkpt lat="36.9865550" lon="-2.4630030">
        <ele>198.2</ele>
        <time>2019-10-18T18:21:54Z</time>
      </trkpt>
      <trkpt lat="36.9864970" lon="-2.4629920">
        <ele>198.3</ele>
        <time>2019-10-18T18:21:55Z</time>
      </trkpt>
      <trkpt lat="36.9864380" lon="-2.4629820">
        <ele>198.5</ele>
        <time>2019-10-18T18:21:56Z</time>
      </trkpt>
      <trkpt lat="36.9863790" lon="-2.4629710">
        <ele>198.6</ele>
        <time>2019-10-18T18:21:57Z</time>
      </trkpt>
      <trkpt lat="36.9863200" lon="-2.4629610">
        <ele>198.8</ele>
        <time>2019-10-18T18:21:58Z</time>
      </trkpt>
      <trkpt lat="36.9862610" lon="-2.4629510">
        <ele>198.9</ele>
        <time>2019-10-18T18:21:59Z</time>
      </trkpt>
      <trkpt lat="36.9862020" lon="-2.4629420">
        <ele>199.1</ele>
        <time>2019-10-18T18:22:00Z</time>
      </trkpt>
      <trkpt lat="36.9861420" lon="-2.4629350">
        <ele>199.2</ele>
        <time>2019-10-18T18:22:01Z</time>
      </trkpt>
      <trkpt lat="36.9860830" lon="-2.4629280">
        <ele>199.4</ele>
        <time>2019-10-18T18:22:02Z</time>
      </trkpt>
      <trkpt lat="36.9860220" lon="-2.4629210">
        <ele>199.0</ele>
        <time>2019-10-18T18:22:03Z</time>
      </trkpt>
      <trkpt lat="36.9859620" lon="-2.4629140">
        <ele>198.1</ele>
        <time>2019-10-18T18:22:04Z</time>
      </trkpt>
      <trkpt lat="36.9859000" lon="-2.4629080">
        <ele>197.2</ele>
        <time>2019-10-18T18:22:05Z</time>
      </trkpt>
      <trkpt lat="36.9858390" lon="-2.4629040">
        <ele>196.4</ele>
        <time>2019-10-18T18:22:06Z</time>
      </trkpt>
      <trkpt lat="36.9857780" lon="-2.4629000">
        <ele>195.6</ele>
        <time>2019-10-18T18:22:07Z</time>
      </trkpt>
      <trkpt lat="36.9857160" lon="-2.4628980">
        <ele>194.8</ele>
        <time>2019-10-18T18:22:08Z</time>
      </trkpt>
      <trkpt lat="36.9856540" lon="-2.4628960">
        <ele>194.0</ele>
        <time>2019-10-18T18:22:09Z</time>
      </trkpt>
      <trkpt lat="36.9855920" lon="-2.4628950">
        <ele>193.2</ele>
        <time>2019-10-18T18:22:10Z</time>
      </trkpt>
      <trkpt lat="36.9855300" lon="-2.4628950">
        <ele>192.5</ele>
        <time>2019-10-18T18:22:11Z</time>
      </trkpt>
      <trkpt lat="36.9854680" lon="-2.4628960">
        <ele>192.1</ele>
        <time>2019-10-18T18:22:12Z</time>
      </trkpt>
      <trkpt lat="36.9854060" lon="-2.4628980">
        <ele>191.9</ele>
        <time>2019-10-18T18:22:13Z</time>
      </trkpt>
      <trkpt lat="36.9853430" lon="-2.4629010">
        <ele>191.7</ele>
        <time>2019-10-18T18:22:14Z</time>
      </trkpt>
      <trkpt lat="36.9852800" lon="-2.4629040">
        <ele>191.6</ele>
        <time>2019-10-18T18:22:15Z</time>
      </trkpt>
      <trkpt lat="36.9852170" lon="-2.4629090">
        <ele>191.6</ele>
        <time>2019-10-18T18:22:16Z</time>
      </trkpt>
      <trkpt lat="36.9851530" lon="-2.4629140">
        <ele>191.6</ele>
        <time>2019-10-18T18:22:17Z</time>
      </trkpt>
      <trkpt lat="36.9850890" lon="-2.4629190">
        <ele>191.8</ele>
        <time>2019-10-18T18:22:18Z</time>
      </trkpt>
      <trkpt lat="36.9850260" lon="-2.4629250">
        <ele>192.0</ele>
        <time>2019-10-18T18:22:19Z</time>
      </trkpt>
      <trkpt lat="36.9849630" lon="-2.4629320">
        <ele>192.4</ele>
        <time>2019-10-18T18:22:20Z</time>
      </trkpt>
      <trkpt lat="36.9849000" lon="-2.4629420">
        <ele>192.7</ele>
        <time>2019-10-18T18:22:21Z</time>
      </trkpt>
      <trkpt lat="36.9848370" lon="-2.4629530">
        <ele>193.1</ele>
        <time>2019-10-18T18:22:22Z</time>
      </trkpt>
      <trkpt lat="36.9847750" lon="-2.4629640">
        <ele>193.5</ele>
        <time>2019-10-18T18:22:23Z</time>
      </trkpt>
      <trkpt lat="36.9847120" lon="-2.4629750">
        <ele>193.9</ele>
        <time>2019-10-18T18:22:24Z</time>
      </trkpt>
      <trkpt lat="36.9846500" lon="-2.4629860">
        <ele>194.6</ele>
        <time>2019-10-18T18:22:25Z</time>
      </trkpt>
      <trkpt lat="36.9845880" lon="-2.4629990">
        <ele>195.4</ele>
        <time>2019-10-18T18:22:26Z</time>
      </trkpt>
      <trkpt lat="36.9845260" lon="-2.4630120">
        <ele>196.3</ele>
        <time>2019-10-18T18:22:27Z</time>
      </trkpt>
      <trkpt lat="36.9844650" lon="-2.4630260">
        <ele>197.1</ele>
        <time>2019-10-18T18:22:28Z</time>
      </trkpt>
      <trkpt lat="36.9844030" lon="-2.4630410">
        <ele>197.8</ele>
        <time>2019-10-18T18:22:29Z</time>
      </trkpt>
      <trkpt lat="36.9843410" lon="-2.4630570">
        <ele>198.6</ele>
        <time>2019-10-18T18:22:30Z</time>
      </trkpt>
      <trkpt lat="36.9842790" lon="-2.4630730">
        <ele>199.3</ele>
        <time>2019-10-18T18:22:31Z</time>
      </trkpt>
      <trkpt lat="36.9842170" lon="-2.4630910">
        <ele>199.9</ele>
        <time>2019-10-18T18:22:32Z</time>
      </trkpt>
      <trkpt lat="36.9841540" lon="-2.4631080">
        <ele>200.4</ele>
        <time>2019-10-18T18:22:33Z</time>
      </trkpt>
      <trkpt lat="36.9840900" lon="-2.4631250">
        <ele>201.1</ele>
        <time>2019-10-18T18:22:34Z</time>
      </trkpt>
      <trkpt lat="36.9840270" lon="-2.4631430">
        <ele>201.6</ele>
        <time>2019-10-18T18:22:35Z</time>
      </trkpt>
      <trkpt lat="36.9839640" lon="-2.4631620">
        <ele>202.2</ele>
        <time>2019-10-18T18:22:36Z</time>
      </trkpt>
      <trkpt lat="36.9839010" lon="-2.4631820">
        <ele>202.8</ele>
        <time>2019-10-18T18:22:37Z</time>
      </trkpt>
      <trkpt lat="36.9838380" lon="-2.4632030">
        <ele>203.3</ele>
        <time>2019-10-18T18:22:38Z</time>
      </trkpt>
      <trkpt lat="36.9837750" lon="-2.4632250">
        <ele>203.8</ele>
        <time>2019-10-18T18:22:39Z</time>
      </trkpt>
      <trkpt lat="36.9837110" lon="-2.4632490">
        <ele>204.2</ele>
        <time>2019-10-18T18:22:40Z</time>
      </trkpt>
      <trkpt lat="36.9836480" lon="-2.4632750">
        <ele>204.8</ele>
        <time>2019-10-18T18:22:41Z</time>
      </trkpt>
      <trkpt lat="36.9835840" lon="-2.4633040">
        <ele>205.5</ele>
        <time>2019-10-18T18:22:42Z</time>
      </trkpt>
      <trkpt lat="36.9835180" lon="-2.4633330">
        <ele>206.1</ele>
        <time>2019-10-18T18:22:43Z</time>
      </trkpt>
      <trkpt lat="36.9834510" lon="-2.4633640">
        <ele>206.8</ele>
        <time>2019-10-18T18:22:44Z</time>
      </trkpt>
      <trkpt lat="36.9833840" lon="-2.4633940">
        <ele>207.7</ele>
        <time>2019-10-18T18:22:45Z</time>
      </trkpt>
      <trkpt lat="36.9833160" lon="-2.4634240">
        <ele>208.5</ele>
        <time>2019-10-18T18:22:46Z</time>
      </trkpt>
      <trkpt lat="36.9832470" lon="-2.4634520">
        <ele>209.0</ele>
        <time>2019-10-18T18:22:47Z</time>
      </trkpt>
      <trkpt lat="36.9831770" lon="-2.4634790">
        <ele>209.7</ele>
        <time>2019-10-18T18:22:48Z</time>
      </trkpt>
      <trkpt lat="36.9831070" lon="-2.4635060">
        <ele>210.2</ele>
        <time>2019-10-18T18:22:49Z</time>
      </trkpt>
      <trkpt lat="36.9830360" lon="-2.4635340">
        <ele>210.8</ele>
        <time>2019-10-18T18:22:50Z</time>
      </trkpt>
      <trkpt lat="36.9829650" lon="-2.4635630">
        <ele>211.3</ele>
        <time>2019-10-18T18:22:51Z</time>
      </trkpt>
      <trkpt lat="36.9828940" lon="-2.4635910">
        <ele>211.8</ele>
        <time>2019-10-18T18:22:52Z</time>
      </trkpt>
      <trkpt lat="36.9828240" lon="-2.4636190">
        <ele>212.2</ele>
        <time>2019-10-18T18:22:53Z</time>
      </trkpt>
      <trkpt lat="36.9827540" lon="-2.4636480">
        <ele>212.6</ele>
        <time>2019-10-18T18:22:54Z</time>
      </trkpt>
      <trkpt lat="36.9826840" lon="-2.4636770">
        <ele>212.9</ele>
        <time>2019-10-18T18:22:55Z</time>
      </trkpt>
      <trkpt lat="36.9826150" lon="-2.4637060">
        <ele>213.2</ele>
        <time>2019-10-18T18:22:56Z</time>
      </trkpt>
      <trkpt lat="36.9825450" lon="-2.4637330">
        <ele>213.3</ele>
        <time>2019-10-18T18:22:57Z</time>
      </trkpt>
      <trkpt lat="36.9824750" lon="-2.4637580">
        <ele>213.4</ele>
        <time>2019-10-18T18:22:58Z</time>
      </trkpt>
      <trkpt lat="36.9824030" lon="-2.4637830">
        <ele>213.4</ele>
        <time>2019-10-18T18:22:59Z</time>
      </trkpt>
      <trkpt lat="36.9823310" lon="-2.4638080">
        <ele>213.2</ele>
        <time>2019-10-18T18:23:00Z</time>
      </trkpt>
      <trkpt lat="36.9822580" lon="-2.4638330">
        <ele>212.9</ele>
        <time>2019-10-18T18:23:01Z</time>
      </trkpt>
      <trkpt lat="36.9821840" lon="-2.4638580">
        <ele>212.4</ele>
        <time>2019-10-18T18:23:02Z</time>
      </trkpt>
      <trkpt lat="36.9821110" lon="-2.4638840">
        <ele>211.6</ele>
        <time>2019-10-18T18:23:03Z</time>
      </trkpt>
      <trkpt lat="36.9820370" lon="-2.4639090">
        <ele>210.8</ele>
        <time>2019-10-18T18:23:04Z</time>
      </trkpt>
      <trkpt lat="36.9819610" lon="-2.4639320">
        <ele>209.4</ele>
        <time>2019-10-18T18:23:05Z</time>
      </trkpt>
      <trkpt lat="36.9818850" lon="-2.4639540">
        <ele>208.2</ele>
        <time>2019-10-18T18:23:06Z</time>
      </trkpt>
      <trkpt lat="36.9818090" lon="-2.4639770">
        <ele>207.1</ele>
        <time>2019-10-18T18:23:07Z</time>
      </trkpt>
      <trkpt lat="36.9817320" lon="-2.4639990">
        <ele>205.7</ele>
        <time>2019-10-18T18:23:08Z</time>
      </trkpt>
      <trkpt lat="36.9816550" lon="-2.4640220">
        <ele>203.9</ele>
        <time>2019-10-18T18:23:09Z</time>
      </trkpt>
      <trkpt lat="36.9815760" lon="-2.4640430">
        <ele>202.6</ele>
        <time>2019-10-18T18:23:10Z</time>
      </trkpt>
      <trkpt lat="36.9814970" lon="-2.4640640">
        <ele>201.6</ele>
        <time>2019-10-18T18:23:11Z</time>
      </trkpt>
      <trkpt lat="36.9814150" lon="-2.4640830">
        <ele>200.7</ele>
        <time>2019-10-18T18:23:12Z</time>
      </trkpt>
      <trkpt lat="36.9813330" lon="-2.4641030">
        <ele>199.5</ele>
        <time>2019-10-18T18:23:13Z</time>
      </trkpt>
      <trkpt lat="36.9812510" lon="-2.4641220">
        <ele>198.8</ele>
        <time>2019-10-18T18:23:14Z</time>
      </trkpt>
      <trkpt lat="36.9811680" lon="-2.4641400">
        <ele>198.3</ele>
        <time>2019-10-18T18:23:15Z</time>
      </trkpt>
      <trkpt lat="36.9810860" lon="-2.4641570">
        <ele>198.0</ele>
        <time>2019-10-18T18:23:16Z</time>
      </trkpt>
      <trkpt lat="36.9810030" lon="-2.4641740">
        <ele>197.7</ele>
        <time>2019-10-18T18:23:17Z</time>
      </trkpt>
      <trkpt lat="36.9809200" lon="-2.4641910">
        <ele>197.4</ele>
        <time>2019-10-18T18:23:18Z</time>
      </trkpt>
      <trkpt lat="36.9808370" lon="-2.4642080">
        <ele>197.0</ele>
        <time>2019-10-18T18:23:19Z</time>
      </trkpt>
      <trkpt lat="36.9807540" lon="-2.4642230">
        <ele>196.6</ele>
        <time>2019-10-18T18:23:20Z</time>
      </trkpt>
      <trkpt lat="36.9806700" lon="-2.4642390">
        <ele>196.2</ele>
        <time>2019-10-18T18:23:21Z</time>
      </trkpt>
      <trkpt lat="36.9805840" lon="-2.4642530">
        <ele>195.6</ele>
        <time>2019-10-18T18:23:22Z</time>
      </trkpt>
      <trkpt lat="36.9804980" lon="-2.4642670">
        <ele>195.1</ele>
        <time>2019-10-18T18:23:23Z</time>
      </trkpt>
      <trkpt lat="36.9804100" lon="-2.4642780">
        <ele>194.5</ele>
        <time>2019-10-18T18:23:24Z</time>
      </trkpt>
      <trkpt lat="36.9803220" lon="-2.4642870">
        <ele>194.0</ele>
        <time>2019-10-18T18:23:25Z</time>
      </trkpt>
      <trkpt lat="36.9802340" lon="-2.4642950">
        <ele>193.5</ele>
        <time>2019-10-18T18:23:26Z</time>
      </trkpt>
      <trkpt lat="36.9801460" lon="-2.4643030">
        <ele>193.0</ele>
        <time>2019-10-18T18:23:27Z</time>
      </trkpt>
      <trkpt lat="36.9800580" lon="-2.4643110">
        <ele>192.6</ele>
        <time>2019-10-18T18:23:28Z</time>
      </trkpt>
      <trkpt lat="36.9799700" lon="-2.4643180">
        <ele>192.3</ele>
        <time>2019-10-18T18:23:29Z</time>
      </trkpt>
      <trkpt lat="36.9798830" lon="-2.4643260">
        <ele>192.0</ele>
        <time>2019-10-18T18:23:30Z</time>
      </trkpt>
      <trkpt lat="36.9797970" lon="-2.4643340">
        <ele>191.7</ele>
        <time>2019-10-18T18:23:31Z</time>
      </trkpt>
      <trkpt lat="36.9797110" lon="-2.4643420">
        <ele>191.5</ele>
        <time>2019-10-18T18:23:32Z</time>
      </trkpt>
      <trkpt lat="36.9796250" lon="-2.4643500">
        <ele>191.3</ele>
        <time>2019-10-18T18:23:33Z</time>
      </trkpt>
      <trkpt lat="36.9795380" lon="-2.4643570">
        <ele>191.1</ele>
        <time>2019-10-18T18:23:34Z</time>
      </trkpt>
      <trkpt lat="36.9794530" lon="-2.4643620">
        <ele>190.8</ele>
        <time>2019-10-18T18:23:35Z</time>
      </trkpt>
      <trkpt lat="36.9793680" lon="-2.4643670">
        <ele>190.6</ele>
        <time>2019-10-18T18:23:36Z</time>
      </trkpt>
      <trkpt lat="36.9792850" lon="-2.4643720">
        <ele>190.3</ele>
        <time>2019-10-18T18:23:37Z</time>
      </trkpt>
      <trkpt lat="36.9792020" lon="-2.4643770">
        <ele>190.0</ele>
        <time>2019-10-18T18:23:38Z</time>
      </trkpt>
      <trkpt lat="36.9791190" lon="-2.4643810">
        <ele>189.7</ele>
        <time>2019-10-18T18:23:39Z</time>
      </trkpt>
      <trkpt lat="36.9790380" lon="-2.4643850">
        <ele>189.4</ele>
        <time>2019-10-18T18:23:40Z</time>
      </trkpt>
      <trkpt lat="36.9789570" lon="-2.4643890">
        <ele>189.1</ele>
        <time>2019-10-18T18:23:41Z</time>
      </trkpt>
      <trkpt lat="36.9788770" lon="-2.4643930">
        <ele>188.7</ele>
        <time>2019-10-18T18:23:42Z</time>
      </trkpt>
      <trkpt lat="36.9787990" lon="-2.4643970">
        <ele>188.4</ele>
        <time>2019-10-18T18:23:43Z</time>
      </trkpt>
      <trkpt lat="36.9787210" lon="-2.4644020">
        <ele>188.1</ele>
        <time>2019-10-18T18:23:44Z</time>
      </trkpt>
      <trkpt lat="36.9786430" lon="-2.4644050">
        <ele>187.8</ele>
        <time>2019-10-18T18:23:45Z</time>
      </trkpt>
      <trkpt lat="36.9785650" lon="-2.4644090">
        <ele>187.4</ele>
        <time>2019-10-18T18:23:46Z</time>
      </trkpt>
      <trkpt lat="36.9784890" lon="-2.4644120">
        <ele>187.1</ele>
        <time>2019-10-18T18:23:47Z</time>
      </trkpt>
      <trkpt lat="36.9784120" lon="-2.4644160">
        <ele>186.8</ele>
        <time>2019-10-18T18:23:48Z</time>
      </trkpt>
      <trkpt lat="36.9783360" lon="-2.4644200">
        <ele>186.5</ele>
        <time>2019-10-18T18:23:49Z</time>
      </trkpt>
      <trkpt lat="36.9782590" lon="-2.4644230">
        <ele>186.2</ele>
        <time>2019-10-18T18:23:50Z</time>
      </trkpt>
      <trkpt lat="36.9781820" lon="-2.4644280">
        <ele>185.9</ele>
        <time>2019-10-18T18:23:51Z</time>
      </trkpt>
      <trkpt lat="36.9781050" lon="-2.4644320">
        <ele>185.6</ele>
        <time>2019-10-18T18:23:52Z</time>
      </trkpt>
      <trkpt lat="36.9780290" lon="-2.4644380">
        <ele>185.3</ele>
        <time>2019-10-18T18:23:53Z</time>
      </trkpt>
      <trkpt lat="36.9779540" lon="-2.4644420">
        <ele>185.1</ele>
        <time>2019-10-18T18:23:54Z</time>
      </trkpt>
      <trkpt lat="36.9778790" lon="-2.4644460">
        <ele>184.9</ele>
        <time>2019-10-18T18:23:55Z</time>
      </trkpt>
      <trkpt lat="36.9778050" lon="-2.4644490">
        <ele>184.7</ele>
        <time>2019-10-18T18:23:56Z</time>
      </trkpt>
      <trkpt lat="36.9777310" lon="-2.4644510">
        <ele>184.7</ele>
        <time>2019-10-18T18:23:57Z</time>
      </trkpt>
      <trkpt lat="36.9777310" lon="-2.4644510">
        <ele>184.7</ele>
        <time>2019-10-18T18:23:58Z</time>
      </trkpt>
      <trkpt lat="36.9775820" lon="-2.4644550">
        <ele>184.5</ele>
        <time>2019-10-18T18:23:59Z</time>
      </trkpt>
      <trkpt lat="36.9775060" lon="-2.4644590">
        <ele>184.3</ele>
        <time>2019-10-18T18:24:00Z</time>
      </trkpt>
      <trkpt lat="36.9774300" lon="-2.4644630">
        <ele>184.1</ele>
        <time>2019-10-18T18:24:01Z</time>
      </trkpt>
      <trkpt lat="36.9773540" lon="-2.4644680">
        <ele>183.8</ele>
        <time>2019-10-18T18:24:02Z</time>
      </trkpt>
      <trkpt lat="36.9772770" lon="-2.4644720">
        <ele>183.5</ele>
        <time>2019-10-18T18:24:03Z</time>
      </trkpt>
      <trkpt lat="36.9772000" lon="-2.4644760">
        <ele>183.2</ele>
        <time>2019-10-18T18:24:04Z</time>
      </trkpt>
      <trkpt lat="36.9771210" lon="-2.4644800">
        <ele>182.9</ele>
        <time>2019-10-18T18:24:05Z</time>
      </trkpt>
      <trkpt lat="36.9770410" lon="-2.4644840">
        <ele>182.7</ele>
        <time>2019-10-18T18:24:06Z</time>
      </trkpt>
      <trkpt lat="36.9769600" lon="-2.4644880">
        <ele>182.4</ele>
        <time>2019-10-18T18:24:07Z</time>
      </trkpt>
      <trkpt lat="36.9768790" lon="-2.4644920">
        <ele>182.2</ele>
        <time>2019-10-18T18:24:08Z</time>
      </trkpt>
      <trkpt lat="36.9767970" lon="-2.4644970">
        <ele>181.9</ele>
        <time>2019-10-18T18:24:09Z</time>
      </trkpt>
      <trkpt lat="36.9767160" lon="-2.4645010">
        <ele>181.7</ele>
        <time>2019-10-18T18:24:10Z</time>
      </trkpt>
      <trkpt lat="36.9766350" lon="-2.4645050">
        <ele>181.5</ele>
        <time>2019-10-18T18:24:11Z</time>
      </trkpt>
      <trkpt lat="36.9765540" lon="-2.4645080">
        <ele>181.2</ele>
        <time>2019-10-18T18:24:12Z</time>
      </trkpt>
      <trkpt lat="36.9764710" lon="-2.4645120">
        <ele>181.0</ele>
        <time>2019-10-18T18:24:13Z</time>
      </trkpt>
      <trkpt lat="36.9763890" lon="-2.4645160">
        <ele>180.8</ele>
        <time>2019-10-18T18:24:14Z</time>
      </trkpt>
      <trkpt lat="36.9763060" lon="-2.4645200">
        <ele>180.6</ele>
        <time>2019-10-18T18:24:15Z</time>
      </trkpt>
      <trkpt lat="36.9762230" lon="-2.4645250">
        <ele>180.3</ele>
        <time>2019-10-18T18:24:16Z</time>
      </trkpt>
      <trkpt lat="36.9761400" lon="-2.4645280">
        <ele>180.1</ele>
        <time>2019-10-18T18:24:17Z</time>
      </trkpt>
      <trkpt lat="36.9760570" lon="-2.4645310">
        <ele>179.9</ele>
        <time>2019-10-18T18:24:18Z</time>
      </trkpt>
      <trkpt lat="36.9759740" lon="-2.4645330">
        <ele>179.7</ele>
        <time>2019-10-18T18:24:19Z</time>
      </trkpt>
      <trkpt lat="36.9758900" lon="-2.4645360">
        <ele>179.5</ele>
        <time>2019-10-18T18:24:20Z</time>
      </trkpt>
      <trkpt lat="36.9758060" lon="-2.4645390">
        <ele>179.2</ele>
        <time>2019-10-18T18:24:21Z</time>
      </trkpt>
      <trkpt lat="36.9757220" lon="-2.4645420">
        <ele>179.0</ele>
        <time>2019-10-18T18:24:22Z</time>
      </trkpt>
      <trkpt lat="36.9756370" lon="-2.4645460">
        <ele>178.7</ele>
        <time>2019-10-18T18:24:23Z</time>
      </trkpt>
      <trkpt lat="36.9755520" lon="-2.4645490">
        <ele>178.5</ele>
        <time>2019-10-18T18:24:24Z</time>
      </trkpt>
      <trkpt lat="36.9754670" lon="-2.4645510">
        <ele>178.1</ele>
        <time>2019-10-18T18:24:25Z</time>
      </trkpt>
      <trkpt lat="36.9753820" lon="-2.4645540">
        <ele>177.8</ele>
        <time>2019-10-18T18:24:26Z</time>
      </trkpt>
      <trkpt lat="36.9752960" lon="-2.4645560">
        <ele>177.5</ele>
        <time>2019-10-18T18:24:27Z</time>
      </trkpt>
      <trkpt lat="36.9752090" lon="-2.4645590">
        <ele>177.2</ele>
        <time>2019-10-18T18:24:28Z</time>
      </trkpt>
      <trkpt lat="36.9751230" lon="-2.4645630">
        <ele>176.9</ele>
        <time>2019-10-18T18:24:29Z</time>
      </trkpt>
      <trkpt lat="36.9750360" lon="-2.4645680">
        <ele>176.6</ele>
        <time>2019-10-18T18:24:30Z</time>
      </trkpt>
      <trkpt lat="36.9749490" lon="-2.4645730">
        <ele>176.3</ele>
        <time>2019-10-18T18:24:31Z</time>
      </trkpt>
      <trkpt lat="36.9748620" lon="-2.4645770">
        <ele>175.9</ele>
        <time>2019-10-18T18:24:32Z</time>
      </trkpt>
      <trkpt lat="36.9747740" lon="-2.4645810">
        <ele>175.2</ele>
        <time>2019-10-18T18:24:33Z</time>
      </trkpt>
      <trkpt lat="36.9746860" lon="-2.4645830">
        <ele>174.7</ele>
        <time>2019-10-18T18:24:34Z</time>
      </trkpt>
      <trkpt lat="36.9745980" lon="-2.4645860">
        <ele>173.8</ele>
        <time>2019-10-18T18:24:35Z</time>
      </trkpt>
      <trkpt lat="36.9745080" lon="-2.4645890">
        <ele>173.1</ele>
        <time>2019-10-18T18:24:36Z</time>
      </trkpt>
      <trkpt lat="36.9744190" lon="-2.4645920">
        <ele>172.5</ele>
        <time>2019-10-18T18:24:37Z</time>
      </trkpt>
      <trkpt lat="36.9743310" lon="-2.4645950">
        <ele>171.8</ele>
        <time>2019-10-18T18:24:38Z</time>
      </trkpt>
      <trkpt lat="36.9742430" lon="-2.4645980">
        <ele>171.2</ele>
        <time>2019-10-18T18:24:39Z</time>
      </trkpt>
      <trkpt lat="36.9741540" lon="-2.4646020">
        <ele>170.3</ele>
        <time>2019-10-18T18:24:40Z</time>
      </trkpt>
      <trkpt lat="36.9740660" lon="-2.4646070">
        <ele>169.5</ele>
        <time>2019-10-18T18:24:41Z</time>
      </trkpt>
      <trkpt lat="36.9739780" lon="-2.4646130">
        <ele>168.6</ele>
        <time>2019-10-18T18:24:42Z</time>
      </trkpt>
      <trkpt lat="36.9738910" lon="-2.4646170">
        <ele>167.9</ele>
        <time>2019-10-18T18:24:43Z</time>
      </trkpt>
      <trkpt lat="36.9738040" lon="-2.4646210">
        <ele>167.4</ele>
        <time>2019-10-18T18:24:44Z</time>
      </trkpt>
      <trkpt lat="36.9737180" lon="-2.4646250">
        <ele>166.8</ele>
        <time>2019-10-18T18:24:45Z</time>
      </trkpt>
      <trkpt lat="36.9736300" lon="-2.4646280">
        <ele>166.5</ele>
        <time>2019-10-18T18:24:46Z</time>
      </trkpt>
      <trkpt lat="36.9735430" lon="-2.4646300">
        <ele>166.4</ele>
        <time>2019-10-18T18:24:47Z</time>
      </trkpt>
      <trkpt lat="36.9734560" lon="-2.4646330">
        <ele>166.3</ele>
        <time>2019-10-18T18:24:48Z</time>
      </trkpt>
      <trkpt lat="36.9733690" lon="-2.4646370">
        <ele>166.2</ele>
        <time>2019-10-18T18:24:49Z</time>
      </trkpt>
      <trkpt lat="36.9732800" lon="-2.4646420">
        <ele>166.1</ele>
        <time>2019-10-18T18:24:50Z</time>
      </trkpt>
      <trkpt lat="36.9731910" lon="-2.4646480">
        <ele>166.1</ele>
        <time>2019-10-18T18:24:51Z</time>
      </trkpt>
      <trkpt lat="36.9731020" lon="-2.4646530">
        <ele>166.2</ele>
        <time>2019-10-18T18:24:52Z</time>
      </trkpt>
      <trkpt lat="36.9730140" lon="-2.4646570">
        <ele>166.1</ele>
        <time>2019-10-18T18:24:53Z</time>
      </trkpt>
      <trkpt lat="36.9729260" lon="-2.4646590">
        <ele>165.9</ele>
        <time>2019-10-18T18:24:54Z</time>
      </trkpt>
      <trkpt lat="36.9728390" lon="-2.4646600">
        <ele>165.8</ele>
        <time>2019-10-18T18:24:55Z</time>
      </trkpt>
      <trkpt lat="36.9727520" lon="-2.4646630">
        <ele>165.6</ele>
        <time>2019-10-18T18:24:56Z</time>
      </trkpt>
      <trkpt lat="36.9726650" lon="-2.4646670">
        <ele>165.4</ele>
        <time>2019-10-18T18:24:57Z</time>
      </trkpt>
      <trkpt lat="36.9725780" lon="-2.4646720">
        <ele>165.3</ele>
        <time>2019-10-18T18:24:58Z</time>
      </trkpt>
      <trkpt lat="36.9724920" lon="-2.4646780">
        <ele>165.1</ele>
        <time>2019-10-18T18:24:59Z</time>
      </trkpt>
      <trkpt lat="36.9724060" lon="-2.4646850">
        <ele>164.9</ele>
        <time>2019-10-18T18:25:00Z</time>
      </trkpt>
      <trkpt lat="36.9723200" lon="-2.4646900">
        <ele>164.6</ele>
        <time>2019-10-18T18:25:01Z</time>
      </trkpt>
      <trkpt lat="36.9722340" lon="-2.4646930">
        <ele>164.5</ele>
        <time>2019-10-18T18:25:02Z</time>
      </trkpt>
      <trkpt lat="36.9721480" lon="-2.4646960">
        <ele>164.4</ele>
        <time>2019-10-18T18:25:03Z</time>
      </trkpt>
      <trkpt lat="36.9720630" lon="-2.4646990">
        <ele>164.2</ele>
        <time>2019-10-18T18:25:04Z</time>
      </trkpt>
      <trkpt lat="36.9719790" lon="-2.4647010">
        <ele>164.0</ele>
        <time>2019-10-18T18:25:05Z</time>
      </trkpt>
      <trkpt lat="36.9718960" lon="-2.4647030">
        <ele>164.1</ele>
        <time>2019-10-18T18:25:06Z</time>
      </trkpt>
      <trkpt lat="36.9718130" lon="-2.4647060">
        <ele>164.1</ele>
        <time>2019-10-18T18:25:07Z</time>
      </trkpt>
      <trkpt lat="36.9717320" lon="-2.4647100">
        <ele>164.1</ele>
        <time>2019-10-18T18:25:08Z</time>
      </trkpt>
      <trkpt lat="36.9717320" lon="-2.4647100">
        <ele>164.1</ele>
        <time>2019-10-18T18:25:09Z</time>
      </trkpt>
      <trkpt lat="36.9715690" lon="-2.4647170">
        <ele>164.3</ele>
        <time>2019-10-18T18:25:10Z</time>
      </trkpt>
      <trkpt lat="36.9714870" lon="-2.4647210">
        <ele>164.5</ele>
        <time>2019-10-18T18:25:11Z</time>
      </trkpt>
      <trkpt lat="36.9714060" lon="-2.4647250">
        <ele>164.5</ele>
        <time>2019-10-18T18:25:12Z</time>
      </trkpt>
      <trkpt lat="36.9713250" lon="-2.4647290">
        <ele>164.5</ele>
        <time>2019-10-18T18:25:13Z</time>
      </trkpt>
      <trkpt lat="36.9712430" lon="-2.4647310">
        <ele>164.5</ele>
        <time>2019-10-18T18:25:14Z</time>
      </trkpt>
      <trkpt lat="36.9711620" lon="-2.4647320">
        <ele>164.5</ele>
        <time>2019-10-18T18:25:15Z</time>
      </trkpt>
      <trkpt lat="36.9710810" lon="-2.4647340">
        <ele>164.5</ele>
        <time>2019-10-18T18:25:16Z</time>
      </trkpt>
      <trkpt lat="36.9710000" lon="-2.4647360">
        <ele>164.4</ele>
        <time>2019-10-18T18:25:17Z</time>
      </trkpt>
      <trkpt lat="36.9709190" lon="-2.4647400">
        <ele>164.4</ele>
        <time>2019-10-18T18:25:18Z</time>
      </trkpt>
      <trkpt lat="36.9708380" lon="-2.4647430">
        <ele>164.3</ele>
        <time>2019-10-18T18:25:19Z</time>
      </trkpt>
      <trkpt lat="36.9707580" lon="-2.4647470">
        <ele>164.2</ele>
        <time>2019-10-18T18:25:20Z</time>
      </trkpt>
      <trkpt lat="36.9706770" lon="-2.4647500">
        <ele>164.2</ele>
        <time>2019-10-18T18:25:21Z</time>
      </trkpt>
      <trkpt lat="36.9706770" lon="-2.4647500">
        <ele>164.2</ele>
        <time>2019-10-18T18:25:22Z</time>
      </trkpt>
      <trkpt lat="36.9705180" lon="-2.4647560">
        <ele>164.2</ele>
        <time>2019-10-18T18:25:23Z</time>
      </trkpt>
      <trkpt lat="36.9704400" lon="-2.4647600">
        <ele>164.1</ele>
        <time>2019-10-18T18:25:24Z</time>
      </trkpt>
      <trkpt lat="36.9703640" lon="-2.4647640">
        <ele>164.0</ele>
        <time>2019-10-18T18:25:25Z</time>
      </trkpt>
      <trkpt lat="36.9702870" lon="-2.4647660">
        <ele>164.0</ele>
        <time>2019-10-18T18:25:26Z</time>
      </trkpt>
      <trkpt lat="36.9702110" lon="-2.4647680">
        <ele>163.9</ele>
        <time>2019-10-18T18:25:27Z</time>
      </trkpt>
      <trkpt lat="36.9701370" lon="-2.4647700">
        <ele>163.8</ele>
        <time>2019-10-18T18:25:28Z</time>
      </trkpt>
      <trkpt lat="36.9700630" lon="-2.4647750">
        <ele>163.7</ele>
        <time>2019-10-18T18:25:29Z</time>
      </trkpt>
      <trkpt lat="36.9699890" lon="-2.4647780">
        <ele>163.7</ele>
        <time>2019-10-18T18:25:30Z</time>
      </trkpt>
      <trkpt lat="36.9699140" lon="-2.4647820">
        <ele>163.6</ele>
        <time>2019-10-18T18:25:31Z</time>
      </trkpt>
      <trkpt lat="36.9698380" lon="-2.4647850">
        <ele>163.5</ele>
        <time>2019-10-18T18:25:32Z</time>
      </trkpt>
      <trkpt lat="36.9697610" lon="-2.4647890">
        <ele>163.4</ele>
        <time>2019-10-18T18:25:33Z</time>
      </trkpt>
      <trkpt lat="36.9696860" lon="-2.4647920">
        <ele>163.3</ele>
        <time>2019-10-18T18:25:34Z</time>
      </trkpt>
      <trkpt lat="36.9696100" lon="-2.4647970">
        <ele>163.1</ele>
        <time>2019-10-18T18:25:35Z</time>
      </trkpt>
      <trkpt lat="36.9695340" lon="-2.4648020">
        <ele>162.9</ele>
        <time>2019-10-18T18:25:36Z</time>
      </trkpt>
      <trkpt lat="36.9694580" lon="-2.4648070">
        <ele>162.7</ele>
        <time>2019-10-18T18:25:37Z</time>
      </trkpt>
      <trkpt lat="36.9693830" lon="-2.4648110">
        <ele>162.5</ele>
        <time>2019-10-18T18:25:38Z</time>
      </trkpt>
      <trkpt lat="36.9693080" lon="-2.4648140">
        <ele>162.3</ele>
        <time>2019-10-18T18:25:39Z</time>
      </trkpt>
      <trkpt lat="36.9692330" lon="-2.4648180">
        <ele>162.2</ele>
        <time>2019-10-18T18:25:40Z</time>
      </trkpt>
      <trkpt lat="36.9691580" lon="-2.4648220">
        <ele>162.1</ele>
        <time>2019-10-18T18:25:41Z</time>
      </trkpt>
      <trkpt lat="36.9690840" lon="-2.4648260">
        <ele>162.0</ele>
        <time>2019-10-18T18:25:42Z</time>
      </trkpt>
      <trkpt lat="36.9690100" lon="-2.4648290">
        <ele>161.9</ele>
        <time>2019-10-18T18:25:43Z</time>
      </trkpt>
      <trkpt lat="36.9689360" lon="-2.4648320">
        <ele>161.6</ele>
        <time>2019-10-18T18:25:44Z</time>
      </trkpt>
      <trkpt lat="36.9688620" lon="-2.4648350">
        <ele>161.4</ele>
        <time>2019-10-18T18:25:45Z</time>
      </trkpt>
      <trkpt lat="36.9687880" lon="-2.4648380">
        <ele>161.2</ele>
        <time>2019-10-18T18:25:46Z</time>
      </trkpt>
      <trkpt lat="36.9687130" lon="-2.4648410">
        <ele>161.0</ele>
        <time>2019-10-18T18:25:47Z</time>
      </trkpt>
      <trkpt lat="36.9686370" lon="-2.4648450">
        <ele>160.6</ele>
        <time>2019-10-18T18:25:48Z</time>
      </trkpt>
      <trkpt lat="36.9685630" lon="-2.4648500">
        <ele>160.2</ele>
        <time>2019-10-18T18:25:49Z</time>
      </trkpt>
      <trkpt lat="36.9684880" lon="-2.4648540">
        <ele>159.8</ele>
        <time>2019-10-18T18:25:50Z</time>
      </trkpt>
      <trkpt lat="36.9684140" lon="-2.4648590">
        <ele>159.5</ele>
        <time>2019-10-18T18:25:51Z</time>
      </trkpt>
      <trkpt lat="36.9683410" lon="-2.4648630">
        <ele>159.2</ele>
        <time>2019-10-18T18:25:52Z</time>
      </trkpt>
      <trkpt lat="36.9682670" lon="-2.4648670">
        <ele>158.9</ele>
        <time>2019-10-18T18:25:53Z</time>
      </trkpt>
      <trkpt lat="36.9681920" lon="-2.4648700">
        <ele>158.8</ele>
        <time>2019-10-18T18:25:54Z</time>
      </trkpt>
      <trkpt lat="36.9681170" lon="-2.4648730">
        <ele>158.6</ele>
        <time>2019-10-18T18:25:55Z</time>
      </trkpt>
      <trkpt lat="36.9680440" lon="-2.4648760">
        <ele>158.5</ele>
        <time>2019-10-18T18:25:56Z</time>
      </trkpt>
      <trkpt lat="36.9679700" lon="-2.4648790">
        <ele>158.3</ele>
        <time>2019-10-18T18:25:57Z</time>
      </trkpt>
      <trkpt lat="36.9678970" lon="-2.4648820">
        <ele>158.1</ele>
        <time>2019-10-18T18:25:58Z</time>
      </trkpt>
      <trkpt lat="36.9678230" lon="-2.4648860">
        <ele>157.7</ele>
        <time>2019-10-18T18:25:59Z</time>
      </trkpt>
      <trkpt lat="36.9677490" lon="-2.4648900">
        <ele>157.3</ele>
        <time>2019-10-18T18:26:00Z</time>
      </trkpt>
      <trkpt lat="36.9676760" lon="-2.4648940">
        <ele>156.9</ele>
        <time>2019-10-18T18:26:01Z</time>
      </trkpt>
      <trkpt lat="36.9676020" lon="-2.4648980">
        <ele>156.5</ele>
        <time>2019-10-18T18:26:02Z</time>
      </trkpt>
      <trkpt lat="36.9675270" lon="-2.4649020">
        <ele>156.1</ele>
        <time>2019-10-18T18:26:03Z</time>
      </trkpt>
      <trkpt lat="36.9674530" lon="-2.4649060">
        <ele>156.0</ele>
        <time>2019-10-18T18:26:04Z</time>
      </trkpt>
      <trkpt lat="36.9673790" lon="-2.4649090">
        <ele>155.8</ele>
        <time>2019-10-18T18:26:05Z</time>
      </trkpt>
      <trkpt lat="36.9673060" lon="-2.4649130">
        <ele>155.8</ele>
        <time>2019-10-18T18:26:06Z</time>
      </trkpt>
      <trkpt lat="36.9672320" lon="-2.4649170">
        <ele>155.8</ele>
        <time>2019-10-18T18:26:07Z</time>
      </trkpt>
      <trkpt lat="36.9671590" lon="-2.4649210">
        <ele>155.9</ele>
        <time>2019-10-18T18:26:08Z</time>
      </trkpt>
      <trkpt lat="36.9670850" lon="-2.4649240">
        <ele>156.1</ele>
        <time>2019-10-18T18:26:09Z</time>
      </trkpt>
      <trkpt lat="36.9670120" lon="-2.4649280">
        <ele>156.2</ele>
        <time>2019-10-18T18:26:10Z</time>
      </trkpt>
      <trkpt lat="36.9669380" lon="-2.4649340">
        <ele>156.3</ele>
        <time>2019-10-18T18:26:11Z</time>
      </trkpt>
      <trkpt lat="36.9668650" lon="-2.4649410">
        <ele>156.3</ele>
        <time>2019-10-18T18:26:12Z</time>
      </trkpt>
      <trkpt lat="36.9668650" lon="-2.4649410">
        <ele>156.3</ele>
        <time>2019-10-18T18:26:13Z</time>
      </trkpt>
      <trkpt lat="36.9667190" lon="-2.4649600">
        <ele>156.6</ele>
        <time>2019-10-18T18:26:14Z</time>
      </trkpt>
      <trkpt lat="36.9667190" lon="-2.4649600">
        <ele>156.6</ele>
        <time>2019-10-18T18:26:15Z</time>
      </trkpt>
      <trkpt lat="36.9665760" lon="-2.4649840">
        <ele>156.8</ele>
        <time>2019-10-18T18:26:16Z</time>
      </trkpt>
      <trkpt lat="36.9665050" lon="-2.4649980">
        <ele>156.8</ele>
        <time>2019-10-18T18:26:17Z</time>
      </trkpt>
      <trkpt lat="36.9664340" lon="-2.4650130">
        <ele>156.8</ele>
        <time>2019-10-18T18:26:18Z</time>
      </trkpt>
      <trkpt lat="36.9663630" lon="-2.4650280">
        <ele>156.8</ele>
        <time>2019-10-18T18:26:19Z</time>
      </trkpt>
      <trkpt lat="36.9662930" lon="-2.4650450">
        <ele>156.7</ele>
        <time>2019-10-18T18:26:20Z</time>
      </trkpt>
      <trkpt lat="36.9662230" lon="-2.4650630">
        <ele>156.5</ele>
        <time>2019-10-18T18:26:21Z</time>
      </trkpt>
      <trkpt lat="36.9661530" lon="-2.4650810">
        <ele>156.4</ele>
        <time>2019-10-18T18:26:22Z</time>
      </trkpt>
      <trkpt lat="36.9660830" lon="-2.4651000">
        <ele>156.2</ele>
        <time>2019-10-18T18:26:23Z</time>
      </trkpt>
      <trkpt lat="36.9660120" lon="-2.4651180">
        <ele>156.1</ele>
        <time>2019-10-18T18:26:24Z</time>
      </trkpt>
      <trkpt lat="36.9659420" lon="-2.4651370">
        <ele>156.1</ele>
        <time>2019-10-18T18:26:25Z</time>
      </trkpt>
      <trkpt lat="36.9658730" lon="-2.4651570">
        <ele>156.3</ele>
        <time>2019-10-18T18:26:26Z</time>
      </trkpt>
      <trkpt lat="36.9658030" lon="-2.4651780">
        <ele>156.7</ele>
        <time>2019-10-18T18:26:27Z</time>
      </trkpt>
      <trkpt lat="36.9657340" lon="-2.4651990">
        <ele>157.4</ele>
        <time>2019-10-18T18:26:28Z</time>
      </trkpt>
      <trkpt lat="36.9656640" lon="-2.4652200">
        <ele>158.0</ele>
        <time>2019-10-18T18:26:29Z</time>
      </trkpt>
      <trkpt lat="36.9655940" lon="-2.4652410">
        <ele>158.7</ele>
        <time>2019-10-18T18:26:30Z</time>
      </trkpt>
      <trkpt lat="36.9655230" lon="-2.4652610">
        <ele>159.3</ele>
        <time>2019-10-18T18:26:31Z</time>
      </trkpt>
      <trkpt lat="36.9654530" lon="-2.4652810">
        <ele>160.0</ele>
        <time>2019-10-18T18:26:32Z</time>
      </trkpt>
      <trkpt lat="36.9653830" lon="-2.4653020">
        <ele>160.6</ele>
        <time>2019-10-18T18:26:33Z</time>
      </trkpt>
      <trkpt lat="36.9653130" lon="-2.4653220">
        <ele>163.2</ele>
        <time>2019-10-18T18:26:34Z</time>
      </trkpt>
      <trkpt lat="36.9652430" lon="-2.4653430">
        <ele>164.3</ele>
        <time>2019-10-18T18:26:35Z</time>
      </trkpt>
      <trkpt lat="36.9651740" lon="-2.4653630">
        <ele>165.5</ele>
        <time>2019-10-18T18:26:36Z</time>
      </trkpt>
      <trkpt lat="36.9651740" lon="-2.4653630">
        <ele>165.5</ele>
        <time>2019-10-18T18:26:37Z</time>
      </trkpt>
      <trkpt lat="36.9650340" lon="-2.4654020">
        <ele>167.6</ele>
        <time>2019-10-18T18:26:38Z</time>
      </trkpt>
      <trkpt lat="36.9649640" lon="-2.4654200">
        <ele>168.6</ele>
        <time>2019-10-18T18:26:39Z</time>
      </trkpt>
      <trkpt lat="36.9648950" lon="-2.4654380">
        <ele>169.6</ele>
        <time>2019-10-18T18:26:40Z</time>
      </trkpt>
      <trkpt lat="36.9648270" lon="-2.4654570">
        <ele>170.5</ele>
        <time>2019-10-18T18:26:41Z</time>
      </trkpt>
      <trkpt lat="36.9647600" lon="-2.4654770">
        <ele>171.5</ele>
        <time>2019-10-18T18:26:42Z</time>
      </trkpt>
      <trkpt lat="36.9646920" lon="-2.4654970">
        <ele>172.7</ele>
        <time>2019-10-18T18:26:43Z</time>
      </trkpt>
      <trkpt lat="36.9646230" lon="-2.4655160">
        <ele>173.8</ele>
        <time>2019-10-18T18:26:44Z</time>
      </trkpt>
      <trkpt lat="36.9645540" lon="-2.4655350">
        <ele>174.9</ele>
        <time>2019-10-18T18:26:45Z</time>
      </trkpt>
      <trkpt lat="36.9644860" lon="-2.4655540">
        <ele>176.0</ele>
        <time>2019-10-18T18:26:46Z</time>
      </trkpt>
      <trkpt lat="36.9644190" lon="-2.4655730">
        <ele>177.0</ele>
        <time>2019-10-18T18:26:47Z</time>
      </trkpt>
      <trkpt lat="36.9643530" lon="-2.4655910">
        <ele>178.0</ele>
        <time>2019-10-18T18:26:48Z</time>
      </trkpt>
      <trkpt lat="36.9642870" lon="-2.4656090">
        <ele>179.2</ele>
        <time>2019-10-18T18:26:49Z</time>
      </trkpt>
      <trkpt lat="36.9642200" lon="-2.4656250">
        <ele>180.6</ele>
        <time>2019-10-18T18:26:50Z</time>
      </trkpt>
      <trkpt lat="36.9641540" lon="-2.4656410">
        <ele>182.2</ele>
        <time>2019-10-18T18:26:51Z</time>
      </trkpt>
      <trkpt lat="36.9640870" lon="-2.4656570">
        <ele>181.7</ele>
        <time>2019-10-18T18:26:52Z</time>
      </trkpt>
      <trkpt lat="36.9640200" lon="-2.4656740">
        <ele>181.2</ele>
        <time>2019-10-18T18:26:53Z</time>
      </trkpt>
      <trkpt lat="36.9639530" lon="-2.4656910">
        <ele>180.9</ele>
        <time>2019-10-18T18:26:54Z</time>
      </trkpt>
      <trkpt lat="36.9638860" lon="-2.4657080">
        <ele>180.6</ele>
        <time>2019-10-18T18:26:55Z</time>
      </trkpt>
      <trkpt lat="36.9638200" lon="-2.4657260">
        <ele>180.4</ele>
        <time>2019-10-18T18:26:56Z</time>
      </trkpt>
      <trkpt lat="36.9637550" lon="-2.4657430">
        <ele>180.2</ele>
        <time>2019-10-18T18:26:57Z</time>
      </trkpt>
      <trkpt lat="36.9636900" lon="-2.4657590">
        <ele>179.7</ele>
        <time>2019-10-18T18:26:58Z</time>
      </trkpt>
      <trkpt lat="36.9636270" lon="-2.4657750">
        <ele>179.1</ele>
        <time>2019-10-18T18:26:59Z</time>
      </trkpt>
      <trkpt lat="36.9635660" lon="-2.4657890">
        <ele>178.3</ele>
        <time>2019-10-18T18:27:00Z</time>
      </trkpt>
      <trkpt lat="36.9635080" lon="-2.4657990">
        <ele>177.6</ele>
        <time>2019-10-18T18:27:01Z</time>
      </trkpt>
      <trkpt lat="36.9634520" lon="-2.4658070">
        <ele>176.9</ele>
        <time>2019-10-18T18:27:02Z</time>
      </trkpt>
      <trkpt lat="36.9633960" lon="-2.4658150">
        <ele>176.3</ele>
        <time>2019-10-18T18:27:03Z</time>
      </trkpt>
      <trkpt lat="36.9633410" lon="-2.4658210">
        <ele>176.0</ele>
        <time>2019-10-18T18:27:04Z</time>
      </trkpt>
      <trkpt lat="36.9632840" lon="-2.4658250">
        <ele>175.7</ele>
        <time>2019-10-18T18:27:05Z</time>
      </trkpt>
      <trkpt lat="36.9632260" lon="-2.4658270">
        <ele>175.6</ele>
        <time>2019-10-18T18:27:06Z</time>
      </trkpt>
      <trkpt lat="36.9631670" lon="-2.4658270">
        <ele>175.5</ele>
        <time>2019-10-18T18:27:07Z</time>
      </trkpt>
      <trkpt lat="36.9631080" lon="-2.4658270">
        <ele>175.5</ele>
        <time>2019-10-18T18:27:08Z</time>
      </trkpt>
      <trkpt lat="36.9630490" lon="-2.4658250">
        <ele>175.5</ele>
        <time>2019-10-18T18:27:09Z</time>
      </trkpt>
      <trkpt lat="36.9629920" lon="-2.4658230">
        <ele>175.6</ele>
        <time>2019-10-18T18:27:10Z</time>
      </trkpt>
      <trkpt lat="36.9629370" lon="-2.4658190">
        <ele>175.8</ele>
        <time>2019-10-18T18:27:11Z</time>
      </trkpt>
      <trkpt lat="36.9628830" lon="-2.4658150">
        <ele>175.9</ele>
        <time>2019-10-18T18:27:12Z</time>
      </trkpt>
      <trkpt lat="36.9628320" lon="-2.4658090">
        <ele>175.9</ele>
        <time>2019-10-18T18:27:13Z</time>
      </trkpt>
      <trkpt lat="36.9627820" lon="-2.4658010">
        <ele>175.9</ele>
        <time>2019-10-18T18:27:14Z</time>
      </trkpt>
      <trkpt lat="36.9627340" lon="-2.4657930">
        <ele>175.8</ele>
        <time>2019-10-18T18:27:15Z</time>
      </trkpt>
      <trkpt lat="36.9626870" lon="-2.4657820">
        <ele>175.7</ele>
        <time>2019-10-18T18:27:16Z</time>
      </trkpt>
      <trkpt lat="36.9626400" lon="-2.4657710">
        <ele>175.6</ele>
        <time>2019-10-18T18:27:17Z</time>
      </trkpt>
      <trkpt lat="36.9625940" lon="-2.4657600">
        <ele>175.4</ele>
        <time>2019-10-18T18:27:18Z</time>
      </trkpt>
      <trkpt lat="36.9625480" lon="-2.4657510">
        <ele>175.4</ele>
        <time>2019-10-18T18:27:19Z</time>
      </trkpt>
      <trkpt lat="36.9625040" lon="-2.4657410">
        <ele>175.3</ele>
        <time>2019-10-18T18:27:20Z</time>
      </trkpt>
      <trkpt lat="36.9624610" lon="-2.4657290">
        <ele>175.4</ele>
        <time>2019-10-18T18:27:21Z</time>
      </trkpt>
      <trkpt lat="36.9624200" lon="-2.4657160">
        <ele>175.4</ele>
        <time>2019-10-18T18:27:22Z</time>
      </trkpt>
      <trkpt lat="36.9623820" lon="-2.4657010">
        <ele>175.5</ele>
        <time>2019-10-18T18:27:23Z</time>
      </trkpt>
      <trkpt lat="36.9623450" lon="-2.4656860">
        <ele>175.7</ele>
        <time>2019-10-18T18:27:24Z</time>
      </trkpt>
      <trkpt lat="36.9623090" lon="-2.4656690">
        <ele>175.8</ele>
        <time>2019-10-18T18:27:25Z</time>
      </trkpt>
      <trkpt lat="36.9622730" lon="-2.4656520">
        <ele>175.9</ele>
        <time>2019-10-18T18:27:26Z</time>
      </trkpt>
      <trkpt lat="36.9622370" lon="-2.4656330">
        <ele>176.0</ele>
        <time>2019-10-18T18:27:27Z</time>
      </trkpt>
      <trkpt lat="36.9622010" lon="-2.4656140">
        <ele>176.0</ele>
        <time>2019-10-18T18:27:28Z</time>
      </trkpt>
      <trkpt lat="36.9621650" lon="-2.4655940">
        <ele>176.1</ele>
        <time>2019-10-18T18:27:29Z</time>
      </trkpt>
      <trkpt lat="36.9621300" lon="-2.4655740">
        <ele>176.1</ele>
        <time>2019-10-18T18:27:30Z</time>
      </trkpt>
      <trkpt lat="36.9620950" lon="-2.4655530">
        <ele>176.0</ele>
        <time>2019-10-18T18:27:31Z</time>
      </trkpt>
      <trkpt lat="36.9620610" lon="-2.4655310">
        <ele>175.9</ele>
        <time>2019-10-18T18:27:32Z</time>
      </trkpt>
      <trkpt lat="36.9620270" lon="-2.4655070">
        <ele>175.8</ele>
        <time>2019-10-18T18:27:33Z</time>
      </trkpt>
      <trkpt lat="36.9619930" lon="-2.4654810">
        <ele>175.6</ele>
        <time>2019-10-18T18:27:34Z</time>
      </trkpt>
      <trkpt lat="36.9619590" lon="-2.4654550">
        <ele>175.5</ele>
        <time>2019-10-18T18:27:35Z</time>
      </trkpt>
      <trkpt lat="36.9619250" lon="-2.4654280">
        <ele>175.3</ele>
        <time>2019-10-18T18:27:36Z</time>
      </trkpt>
      <trkpt lat="36.9618890" lon="-2.4654000">
        <ele>175.1</ele>
        <time>2019-10-18T18:27:37Z</time>
      </trkpt>
      <trkpt lat="36.9618540" lon="-2.4653710">
        <ele>175.0</ele>
        <time>2019-10-18T18:27:38Z</time>
      </trkpt>
      <trkpt lat="36.9618180" lon="-2.4653410">
        <ele>174.9</ele>
        <time>2019-10-18T18:27:39Z</time>
      </trkpt>
      <trkpt lat="36.9617820" lon="-2.4653090">
        <ele>174.8</ele>
        <time>2019-10-18T18:27:40Z</time>
      </trkpt>
      <trkpt lat="36.9617470" lon="-2.4652770">
        <ele>174.7</ele>
        <time>2019-10-18T18:27:41Z</time>
      </trkpt>
      <trkpt lat="36.9617110" lon="-2.4652440">
        <ele>174.6</ele>
        <time>2019-10-18T18:27:42Z</time>
      </trkpt>
      <trkpt lat="36.9616750" lon="-2.4652080">
        <ele>174.4</ele>
        <time>2019-10-18T18:27:43Z</time>
      </trkpt>
      <trkpt lat="36.9616390" lon="-2.4651690">
        <ele>174.2</ele>
        <time>2019-10-18T18:27:44Z</time>
      </trkpt>
      <trkpt lat="36.9616040" lon="-2.4651290">
        <ele>174.0</ele>
        <time>2019-10-18T18:27:45Z</time>
      </trkpt>
      <trkpt lat="36.9615690" lon="-2.4650870">
        <ele>173.6</ele>
        <time>2019-10-18T18:27:46Z</time>
      </trkpt>
      <trkpt lat="36.9615350" lon="-2.4650450">
        <ele>173.2</ele>
        <time>2019-10-18T18:27:47Z</time>
      </trkpt>
      <trkpt lat="36.9615000" lon="-2.4650010">
        <ele>172.8</ele>
        <time>2019-10-18T18:27:48Z</time>
      </trkpt>
      <trkpt lat="36.9614620" lon="-2.4649580">
        <ele>172.2</ele>
        <time>2019-10-18T18:27:49Z</time>
      </trkpt>
      <trkpt lat="36.9614190" lon="-2.4649170">
        <ele>171.7</ele>
        <time>2019-10-18T18:27:50Z</time>
      </trkpt>
      <trkpt lat="36.9613700" lon="-2.4648840">
        <ele>170.9</ele>
        <time>2019-10-18T18:27:51Z</time>
      </trkpt>
      <trkpt lat="36.9613170" lon="-2.4648620">
        <ele>170.1</ele>
        <time>2019-10-18T18:27:52Z</time>
      </trkpt>
      <trkpt lat="36.9612640" lon="-2.4648560">
        <ele>169.3</ele>
        <time>2019-10-18T18:27:53Z</time>
      </trkpt>
      <trkpt lat="36.9612200" lon="-2.4648750">
        <ele>168.8</ele>
        <time>2019-10-18T18:27:54Z</time>
      </trkpt>
      <trkpt lat="36.9611900" lon="-2.4649140">
        <ele>167.8</ele>
        <time>2019-10-18T18:27:55Z</time>
      </trkpt>
      <trkpt lat="36.9611760" lon="-2.4649650">
        <ele>167.2</ele>
        <time>2019-10-18T18:27:56Z</time>
      </trkpt>
      <trkpt lat="36.9611710" lon="-2.4650170">
        <ele>166.6</ele>
        <time>2019-10-18T18:27:57Z</time>
      </trkpt>
      <trkpt lat="36.9611660" lon="-2.4650680">
        <ele>166.2</ele>
        <time>2019-10-18T18:27:58Z</time>
      </trkpt>
      <trkpt lat="36.9611570" lon="-2.4651200">
        <ele>165.6</ele>
        <time>2019-10-18T18:27:59Z</time>
      </trkpt>
      <trkpt lat="36.9611430" lon="-2.4651730">
        <ele>165.0</ele>
        <time>2019-10-18T18:28:00Z</time>
      </trkpt>
      <trkpt lat="36.9611270" lon="-2.4652290">
        <ele>164.2</ele>
        <time>2019-10-18T18:28:01Z</time>
      </trkpt>
      <trkpt lat="36.9611130" lon="-2.4652900">
        <ele>163.7</ele>
        <time>2019-10-18T18:28:02Z</time>
      </trkpt>
      <trkpt lat="36.9611040" lon="-2.4653550">
        <ele>163.2</ele>
        <time>2019-10-18T18:28:03Z</time>
      </trkpt>
      <trkpt lat="36.9611020" lon="-2.4654230">
        <ele>162.6</ele>
        <time>2019-10-18T18:28:04Z</time>
      </trkpt>
      <trkpt lat="36.9611050" lon="-2.4654950">
        <ele>162.2</ele>
        <time>2019-10-18T18:28:05Z</time>
      </trkpt>
      <trkpt lat="36.9611120" lon="-2.4655660">
        <ele>161.9</ele>
        <time>2019-10-18T18:28:06Z</time>
      </trkpt>
      <trkpt lat="36.9611210" lon="-2.4656390">
        <ele>161.6</ele>
        <time>2019-10-18T18:28:07Z</time>
      </trkpt>
      <trkpt lat="36.9611290" lon="-2.4657120">
        <ele>161.1</ele>
        <time>2019-10-18T18:28:08Z</time>
      </trkpt>
      <trkpt lat="36.9611370" lon="-2.4657900">
        <ele>160.6</ele>
        <time>2019-10-18T18:28:09Z</time>
      </trkpt>
      <trkpt lat="36.9611460" lon="-2.4658690">
        <ele>160.1</ele>
        <time>2019-10-18T18:28:10Z</time>
      </trkpt>
      <trkpt lat="36.9611570" lon="-2.4659500">
        <ele>159.6</ele>
        <time>2019-10-18T18:28:11Z</time>
      </trkpt>
      <trkpt lat="36.9611690" lon="-2.4660340">
        <ele>159.0</ele>
        <time>2019-10-18T18:28:12Z</time>
      </trkpt>
      <trkpt lat="36.9611830" lon="-2.4661230">
        <ele>158.3</ele>
        <time>2019-10-18T18:28:13Z</time>
      </trkpt>
      <trkpt lat="36.9612000" lon="-2.4662110">
        <ele>157.3</ele>
        <time>2019-10-18T18:28:14Z</time>
      </trkpt>
      <trkpt lat="36.9612260" lon="-2.4662900">
        <ele>157.0</ele>
        <time>2019-10-18T18:28:15Z</time>
      </trkpt>
      <trkpt lat="36.9612620" lon="-2.4663500">
        <ele>156.7</ele>
        <time>2019-10-18T18:28:16Z</time>
      </trkpt>
      <trkpt lat="36.9613060" lon="-2.4664030">
        <ele>156.5</ele>
        <time>2019-10-18T18:28:17Z</time>
      </trkpt>
      <trkpt lat="36.9613480" lon="-2.4664540">
        <ele>156.2</ele>
        <time>2019-10-18T18:28:18Z</time>
      </trkpt>
      <trkpt lat="36.9613830" lon="-2.4665170">
        <ele>155.9</ele>
        <time>2019-10-18T18:28:19Z</time>
      </trkpt>
      <trkpt lat="36.9614050" lon="-2.4665850">
        <ele>155.7</ele>
        <time>2019-10-18T18:28:20Z</time>
      </trkpt>
      <trkpt lat="36.9614100" lon="-2.4666560">
        <ele>155.5</ele>
        <time>2019-10-18T18:28:21Z</time>
      </trkpt>
      <trkpt lat="36.9613970" lon="-2.4667240">
        <ele>155.3</ele>
        <time>2019-10-18T18:28:22Z</time>
      </trkpt>
      <trkpt lat="36.9613710" lon="-2.4667860">
        <ele>155.1</ele>
        <time>2019-10-18T18:28:23Z</time>
      </trkpt>
      <trkpt lat="36.9613350" lon="-2.4668410">
        <ele>154.9</ele>
        <time>2019-10-18T18:28:24Z</time>
      </trkpt>
      <trkpt lat="36.9612920" lon="-2.4668920">
        <ele>154.8</ele>
        <time>2019-10-18T18:28:25Z</time>
      </trkpt>
      <trkpt lat="36.9612470" lon="-2.4669410">
        <ele>154.8</ele>
        <time>2019-10-18T18:28:26Z</time>
      </trkpt>
      <trkpt lat="36.9612010" lon="-2.4669880">
        <ele>154.8</ele>
        <time>2019-10-18T18:28:27Z</time>
      </trkpt>
      <trkpt lat="36.9611540" lon="-2.4670320">
        <ele>154.8</ele>
        <time>2019-10-18T18:28:28Z</time>
      </trkpt>
      <trkpt lat="36.9611070" lon="-2.4670770">
        <ele>154.8</ele>
        <time>2019-10-18T18:28:29Z</time>
      </trkpt>
      <trkpt lat="36.9610590" lon="-2.4671230">
        <ele>154.8</ele>
        <time>2019-10-18T18:28:30Z</time>
      </trkpt>
      <trkpt lat="36.9610090" lon="-2.4671740">
        <ele>154.8</ele>
        <time>2019-10-18T18:28:31Z</time>
      </trkpt>
      <trkpt lat="36.9609560" lon="-2.4672220">
        <ele>154.6</ele>
        <time>2019-10-18T18:28:32Z</time>
      </trkpt>
      <trkpt lat="36.9609000" lon="-2.4672650">
        <ele>154.5</ele>
        <time>2019-10-18T18:28:33Z</time>
      </trkpt>
      <trkpt lat="36.9608410" lon="-2.4673020">
        <ele>154.3</ele>
        <time>2019-10-18T18:28:34Z</time>
      </trkpt>
      <trkpt lat="36.9607800" lon="-2.4673320">
        <ele>154.3</ele>
        <time>2019-10-18T18:28:35Z</time>
      </trkpt>
      <trkpt lat="36.9607150" lon="-2.4673550">
        <ele>154.2</ele>
        <time>2019-10-18T18:28:36Z</time>
      </trkpt>
      <trkpt lat="36.9606500" lon="-2.4673690">
        <ele>154.2</ele>
        <time>2019-10-18T18:28:37Z</time>
      </trkpt>
      <trkpt lat="36.9605870" lon="-2.4673760">
        <ele>154.3</ele>
        <time>2019-10-18T18:28:38Z</time>
      </trkpt>
      <trkpt lat="36.9605250" lon="-2.4673740">
        <ele>154.3</ele>
        <time>2019-10-18T18:28:39Z</time>
      </trkpt>
      <trkpt lat="36.9604630" lon="-2.4673650">
        <ele>154.4</ele>
        <time>2019-10-18T18:28:40Z</time>
      </trkpt>
      <trkpt lat="36.9604030" lon="-2.4673500">
        <ele>154.5</ele>
        <time>2019-10-18T18:28:41Z</time>
      </trkpt>
      <trkpt lat="36.9603430" lon="-2.4673310">
        <ele>154.7</ele>
        <time>2019-10-18T18:28:42Z</time>
      </trkpt>
      <trkpt lat="36.9602840" lon="-2.4673080">
        <ele>155.0</ele>
        <time>2019-10-18T18:28:43Z</time>
      </trkpt>
      <trkpt lat="36.9602250" lon="-2.4672850">
        <ele>155.1</ele>
        <time>2019-10-18T18:28:44Z</time>
      </trkpt>
      <trkpt lat="36.9601650" lon="-2.4672640">
        <ele>155.3</ele>
        <time>2019-10-18T18:28:45Z</time>
      </trkpt>
      <trkpt lat="36.9601040" lon="-2.4672480">
        <ele>155.5</ele>
        <time>2019-10-18T18:28:46Z</time>
      </trkpt>
      <trkpt lat="36.9600420" lon="-2.4672400">
        <ele>155.6</ele>
        <time>2019-10-18T18:28:47Z</time>
      </trkpt>
      <trkpt lat="36.9599790" lon="-2.4672420">
        <ele>155.7</ele>
        <time>2019-10-18T18:28:48Z</time>
      </trkpt>
      <trkpt lat="36.9599170" lon="-2.4672520">
        <ele>155.8</ele>
        <time>2019-10-18T18:28:49Z</time>
      </trkpt>
      <trkpt lat="36.9598580" lon="-2.4672700">
        <ele>156.0</ele>
        <time>2019-10-18T18:28:50Z</time>
      </trkpt>
      <trkpt lat="36.9598020" lon="-2.4672940">
        <ele>156.1</ele>
        <time>2019-10-18T18:28:51Z</time>
      </trkpt>
      <trkpt lat="36.9597450" lon="-2.4673190">
        <ele>156.1</ele>
        <time>2019-10-18T18:28:52Z</time>
      </trkpt>
      <trkpt lat="36.9596880" lon="-2.4673440">
        <ele>156.2</ele>
        <time>2019-10-18T18:28:53Z</time>
      </trkpt>
      <trkpt lat="36.9596300" lon="-2.4673700">
        <ele>156.2</ele>
        <time>2019-10-18T18:28:54Z</time>
      </trkpt>
      <trkpt lat="36.9595710" lon="-2.4673960">
        <ele>156.3</ele>
        <time>2019-10-18T18:28:55Z</time>
      </trkpt>
      <trkpt lat="36.9595120" lon="-2.4674220">
        <ele>156.4</ele>
        <time>2019-10-18T18:28:56Z</time>
      </trkpt>
      <trkpt lat="36.9594520" lon="-2.4674480">
        <ele>156.5</ele>
        <time>2019-10-18T18:28:57Z</time>
      </trkpt>
      <trkpt lat="36.9593910" lon="-2.4674720">
        <ele>156.6</ele>
        <time>2019-10-18T18:28:58Z</time>
      </trkpt>
      <trkpt lat="36.9593290" lon="-2.4674950">
        <ele>156.8</ele>
        <time>2019-10-18T18:28:59Z</time>
      </trkpt>
      <trkpt lat="36.9592670" lon="-2.4675170">
        <ele>157.0</ele>
        <time>2019-10-18T18:29:00Z</time>
      </trkpt>
      <trkpt lat="36.9592070" lon="-2.4675400">
        <ele>157.0</ele>
        <time>2019-10-18T18:29:01Z</time>
      </trkpt>
      <trkpt lat="36.9591470" lon="-2.4675640">
        <ele>157.0</ele>
        <time>2019-10-18T18:29:02Z</time>
      </trkpt>
      <trkpt lat="36.9590880" lon="-2.4675890">
        <ele>156.9</ele>
        <time>2019-10-18T18:29:03Z</time>
      </trkpt>
      <trkpt lat="36.9590300" lon="-2.4676160">
        <ele>156.8</ele>
        <time>2019-10-18T18:29:04Z</time>
      </trkpt>
      <trkpt lat="36.9589700" lon="-2.4676400">
        <ele>156.7</ele>
        <time>2019-10-18T18:29:05Z</time>
      </trkpt>
      <trkpt lat="36.9589100" lon="-2.4676640">
        <ele>156.6</ele>
        <time>2019-10-18T18:29:06Z</time>
      </trkpt>
      <trkpt lat="36.9588490" lon="-2.4676890">
        <ele>156.4</ele>
        <time>2019-10-18T18:29:07Z</time>
      </trkpt>
      <trkpt lat="36.9587870" lon="-2.4677170">
        <ele>156.2</ele>
        <time>2019-10-18T18:29:08Z</time>
      </trkpt>
      <trkpt lat="36.9587240" lon="-2.4677450">
        <ele>156.1</ele>
        <time>2019-10-18T18:29:09Z</time>
      </trkpt>
      <trkpt lat="36.9586610" lon="-2.4677730">
        <ele>156.0</ele>
        <time>2019-10-18T18:29:10Z</time>
      </trkpt>
      <trkpt lat="36.9585980" lon="-2.4677980">
        <ele>156.0</ele>
        <time>2019-10-18T18:29:11Z</time>
      </trkpt>
      <trkpt lat="36.9585340" lon="-2.4678240">
        <ele>155.9</ele>
        <time>2019-10-18T18:29:12Z</time>
      </trkpt>
      <trkpt lat="36.9584710" lon="-2.4678490">
        <ele>155.9</ele>
        <time>2019-10-18T18:29:13Z</time>
      </trkpt>
      <trkpt lat="36.9584080" lon="-2.4678760">
        <ele>155.9</ele>
        <time>2019-10-18T18:29:14Z</time>
      </trkpt>
      <trkpt lat="36.9583450" lon="-2.4679030">
        <ele>155.9</ele>
        <time>2019-10-18T18:29:15Z</time>
      </trkpt>
      <trkpt lat="36.9582840" lon="-2.4679300">
        <ele>155.9</ele>
        <time>2019-10-18T18:29:16Z</time>
      </trkpt>
      <trkpt lat="36.9582220" lon="-2.4679580">
        <ele>155.8</ele>
        <time>2019-10-18T18:29:17Z</time>
      </trkpt>
      <trkpt lat="36.9581600" lon="-2.4679850">
        <ele>155.7</ele>
        <time>2019-10-18T18:29:18Z</time>
      </trkpt>
      <trkpt lat="36.9580980" lon="-2.4680110">
        <ele>155.7</ele>
        <time>2019-10-18T18:29:19Z</time>
      </trkpt>
      <trkpt lat="36.9580360" lon="-2.4680380">
        <ele>155.5</ele>
        <time>2019-10-18T18:29:20Z</time>
      </trkpt>
      <trkpt lat="36.9579730" lon="-2.4680650">
        <ele>155.3</ele>
        <time>2019-10-18T18:29:21Z</time>
      </trkpt>
      <trkpt lat="36.9579110" lon="-2.4680920">
        <ele>155.1</ele>
        <time>2019-10-18T18:29:22Z</time>
      </trkpt>
      <trkpt lat="36.9578490" lon="-2.4681200">
        <ele>154.9</ele>
        <time>2019-10-18T18:29:23Z</time>
      </trkpt>
      <trkpt lat="36.9577860" lon="-2.4681480">
        <ele>154.6</ele>
        <time>2019-10-18T18:29:24Z</time>
      </trkpt>
      <trkpt lat="36.9577230" lon="-2.4681760">
        <ele>154.4</ele>
        <time>2019-10-18T18:29:25Z</time>
      </trkpt>
      <trkpt lat="36.9576610" lon="-2.4682040">
        <ele>154.1</ele>
        <time>2019-10-18T18:29:26Z</time>
      </trkpt>
      <trkpt lat="36.9575980" lon="-2.4682310">
        <ele>153.8</ele>
        <time>2019-10-18T18:29:27Z</time>
      </trkpt>
      <trkpt lat="36.9575340" lon="-2.4682590">
        <ele>153.5</ele>
        <time>2019-10-18T18:29:28Z</time>
      </trkpt>
      <trkpt lat="36.9574680" lon="-2.4682860">
        <ele>153.2</ele>
        <time>2019-10-18T18:29:29Z</time>
      </trkpt>
      <trkpt lat="36.9574020" lon="-2.4683140">
        <ele>152.9</ele>
        <time>2019-10-18T18:29:30Z</time>
      </trkpt>
      <trkpt lat="36.9573360" lon="-2.4683420">
        <ele>152.5</ele>
        <time>2019-10-18T18:29:31Z</time>
      </trkpt>
      <trkpt lat="36.9572690" lon="-2.4683690">
        <ele>151.8</ele>
        <time>2019-10-18T18:29:32Z</time>
      </trkpt>
      <trkpt lat="36.9572020" lon="-2.4683960">
        <ele>151.8</ele>
        <time>2019-10-18T18:29:33Z</time>
      </trkpt>
      <trkpt lat="36.9571350" lon="-2.4684250">
        <ele>151.8</ele>
        <time>2019-10-18T18:29:34Z</time>
      </trkpt>
      <trkpt lat="36.9570690" lon="-2.4684530">
        <ele>151.8</ele>
        <time>2019-10-18T18:29:35Z</time>
      </trkpt>
      <trkpt lat="36.9570030" lon="-2.4684820">
        <ele>151.7</ele>
        <time>2019-10-18T18:29:36Z</time>
      </trkpt>
      <trkpt lat="36.9569390" lon="-2.4685090">
        <ele>151.7</ele>
        <time>2019-10-18T18:29:37Z</time>
      </trkpt>
      <trkpt lat="36.9568740" lon="-2.4685350">
        <ele>151.7</ele>
        <time>2019-10-18T18:29:38Z</time>
      </trkpt>
      <trkpt lat="36.9568100" lon="-2.4685600">
        <ele>151.9</ele>
        <time>2019-10-18T18:29:39Z</time>
      </trkpt>
      <trkpt lat="36.9567450" lon="-2.4685850">
        <ele>152.0</ele>
        <time>2019-10-18T18:29:40Z</time>
      </trkpt>
      <trkpt lat="36.9566800" lon="-2.4686100">
        <ele>152.1</ele>
        <time>2019-10-18T18:29:41Z</time>
      </trkpt>
      <trkpt lat="36.9566140" lon="-2.4686350">
        <ele>152.3</ele>
        <time>2019-10-18T18:29:42Z</time>
      </trkpt>
      <trkpt lat="36.9565480" lon="-2.4686570">
        <ele>152.4</ele>
        <time>2019-10-18T18:29:43Z</time>
      </trkpt>
      <trkpt lat="36.9564820" lon="-2.4686780">
        <ele>152.5</ele>
        <time>2019-10-18T18:29:44Z</time>
      </trkpt>
      <trkpt lat="36.9564160" lon="-2.4686980">
        <ele>152.6</ele>
        <time>2019-10-18T18:29:45Z</time>
      </trkpt>
      <trkpt lat="36.9563490" lon="-2.4687180">
        <ele>152.6</ele>
        <time>2019-10-18T18:29:46Z</time>
      </trkpt>
      <trkpt lat="36.9562820" lon="-2.4687370">
        <ele>152.6</ele>
        <time>2019-10-18T18:29:47Z</time>
      </trkpt>
      <trkpt lat="36.9562130" lon="-2.4687550">
        <ele>152.6</ele>
        <time>2019-10-18T18:29:48Z</time>
      </trkpt>
      <trkpt lat="36.9561440" lon="-2.4687730">
        <ele>152.5</ele>
        <time>2019-10-18T18:29:49Z</time>
      </trkpt>
      <trkpt lat="36.9560740" lon="-2.4687920">
        <ele>152.5</ele>
        <time>2019-10-18T18:29:50Z</time>
      </trkpt>
      <trkpt lat="36.9560040" lon="-2.4688130">
        <ele>152.4</ele>
        <time>2019-10-18T18:29:51Z</time>
      </trkpt>
      <trkpt lat="36.9559330" lon="-2.4688340">
        <ele>152.4</ele>
        <time>2019-10-18T18:29:52Z</time>
      </trkpt>
      <trkpt lat="36.9558630" lon="-2.4688540">
        <ele>152.3</ele>
        <time>2019-10-18T18:29:53Z</time>
      </trkpt>
      <trkpt lat="36.9557920" lon="-2.4688730">
        <ele>152.1</ele>
        <time>2019-10-18T18:29:54Z</time>
      </trkpt>
      <trkpt lat="36.9557210" lon="-2.4688910">
        <ele>151.9</ele>
        <time>2019-10-18T18:29:55Z</time>
      </trkpt>
      <trkpt lat="36.9556500" lon="-2.4689080">
        <ele>151.6</ele>
        <time>2019-10-18T18:29:56Z</time>
      </trkpt>
      <trkpt lat="36.9555790" lon="-2.4689250">
        <ele>151.2</ele>
        <time>2019-10-18T18:29:57Z</time>
      </trkpt>
      <trkpt lat="36.9555080" lon="-2.4689420">
        <ele>150.7</ele>
        <time>2019-10-18T18:29:58Z</time>
      </trkpt>
      <trkpt lat="36.9554370" lon="-2.4689600">
        <ele>150.3</ele>
        <time>2019-10-18T18:29:59Z</time>
      </trkpt>
      <trkpt lat="36.9553660" lon="-2.4689770">
        <ele>149.9</ele>
        <time>2019-10-18T18:30:00Z</time>
      </trkpt>
      <trkpt lat="36.9552960" lon="-2.4689950">
        <ele>149.5</ele>
        <time>2019-10-18T18:30:01Z</time>
      </trkpt>
      <trkpt lat="36.9552250" lon="-2.4690130">
        <ele>149.1</ele>
        <time>2019-10-18T18:30:02Z</time>
      </trkpt>
      <trkpt lat="36.9551540" lon="-2.4690320">
        <ele>148.9</ele>
        <time>2019-10-18T18:30:03Z</time>
      </trkpt>
      <trkpt lat="36.9550830" lon="-2.4690510">
        <ele>148.7</ele>
        <time>2019-10-18T18:30:04Z</time>
      </trkpt>
      <trkpt lat="36.9550130" lon="-2.4690690">
        <ele>148.8</ele>
        <time>2019-10-18T18:30:05Z</time>
      </trkpt>
      <trkpt lat="36.9549420" lon="-2.4690880">
        <ele>148.8</ele>
        <time>2019-10-18T18:30:06Z</time>
      </trkpt>
      <trkpt lat="36.9548720" lon="-2.4691070">
        <ele>148.9</ele>
        <time>2019-10-18T18:30:07Z</time>
      </trkpt>
      <trkpt lat="36.9548010" lon="-2.4691260">
        <ele>148.9</ele>
        <time>2019-10-18T18:30:08Z</time>
      </trkpt>
      <trkpt lat="36.9547300" lon="-2.4691450">
        <ele>149.0</ele>
        <time>2019-10-18T18:30:09Z</time>
      </trkpt>
      <trkpt lat="36.9546590" lon="-2.4691640">
        <ele>149.1</ele>
        <time>2019-10-18T18:30:10Z</time>
      </trkpt>
      <trkpt lat="36.9545880" lon="-2.4691820">
        <ele>149.1</ele>
        <time>2019-10-18T18:30:11Z</time>
      </trkpt>
      <trkpt lat="36.9545170" lon="-2.4692010">
        <ele>149.1</ele>
        <time>2019-10-18T18:30:12Z</time>
      </trkpt>
      <trkpt lat="36.9544450" lon="-2.4692200">
        <ele>149.1</ele>
        <time>2019-10-18T18:30:13Z</time>
      </trkpt>
      <trkpt lat="36.9543740" lon="-2.4692390">
        <ele>149.0</ele>
        <time>2019-10-18T18:30:14Z</time>
      </trkpt>
      <trkpt lat="36.9543020" lon="-2.4692580">
        <ele>148.8</ele>
        <time>2019-10-18T18:30:15Z</time>
      </trkpt>
      <trkpt lat="36.9542300" lon="-2.4692760">
        <ele>148.7</ele>
        <time>2019-10-18T18:30:16Z</time>
      </trkpt>
      <trkpt lat="36.9541580" lon="-2.4692950">
        <ele>148.5</ele>
        <time>2019-10-18T18:30:17Z</time>
      </trkpt>
      <trkpt lat="36.9540870" lon="-2.4693130">
        <ele>148.4</ele>
        <time>2019-10-18T18:30:18Z</time>
      </trkpt>
      <trkpt lat="36.9540150" lon="-2.4693310">
        <ele>148.1</ele>
        <time>2019-10-18T18:30:19Z</time>
      </trkpt>
      <trkpt lat="36.9539440" lon="-2.4693480">
        <ele>147.8</ele>
        <time>2019-10-18T18:30:20Z</time>
      </trkpt>
      <trkpt lat="36.9538740" lon="-2.4693650">
        <ele>147.5</ele>
        <time>2019-10-18T18:30:21Z</time>
      </trkpt>
      <trkpt lat="36.9538040" lon="-2.4693830">
        <ele>147.2</ele>
        <time>2019-10-18T18:30:22Z</time>
      </trkpt>
      <trkpt lat="36.9537360" lon="-2.4694020">
        <ele>146.8</ele>
        <time>2019-10-18T18:30:23Z</time>
      </trkpt>
      <trkpt lat="36.9536670" lon="-2.4694220">
        <ele>146.6</ele>
        <time>2019-10-18T18:30:24Z</time>
      </trkpt>
      <trkpt lat="36.9535970" lon="-2.4694420">
        <ele>146.6</ele>
        <time>2019-10-18T18:30:25Z</time>
      </trkpt>
      <trkpt lat="36.9535260" lon="-2.4694610">
        <ele>146.7</ele>
        <time>2019-10-18T18:30:26Z</time>
      </trkpt>
      <trkpt lat="36.9534550" lon="-2.4694800">
        <ele>146.8</ele>
        <time>2019-10-18T18:30:27Z</time>
      </trkpt>
      <trkpt lat="36.9533830" lon="-2.4694980">
        <ele>147.0</ele>
        <time>2019-10-18T18:30:28Z</time>
      </trkpt>
      <trkpt lat="36.9533110" lon="-2.4695170">
        <ele>147.0</ele>
        <time>2019-10-18T18:30:29Z</time>
      </trkpt>
      <trkpt lat="36.9532390" lon="-2.4695360">
        <ele>147.1</ele>
        <time>2019-10-18T18:30:30Z</time>
      </trkpt>
      <trkpt lat="36.9531670" lon="-2.4695540">
        <ele>147.1</ele>
        <time>2019-10-18T18:30:31Z</time>
      </trkpt>
      <trkpt lat="36.9530940" lon="-2.4695730">
        <ele>147.0</ele>
        <time>2019-10-18T18:30:32Z</time>
      </trkpt>
      <trkpt lat="36.9530210" lon="-2.4695920">
        <ele>146.8</ele>
        <time>2019-10-18T18:30:33Z</time>
      </trkpt>
      <trkpt lat="36.9529470" lon="-2.4696120">
        <ele>146.4</ele>
        <time>2019-10-18T18:30:34Z</time>
      </trkpt>
      <trkpt lat="36.9528730" lon="-2.4696310">
        <ele>146.1</ele>
        <time>2019-10-18T18:30:35Z</time>
      </trkpt>
      <trkpt lat="36.9527990" lon="-2.4696500">
        <ele>145.7</ele>
        <time>2019-10-18T18:30:36Z</time>
      </trkpt>
      <trkpt lat="36.9527260" lon="-2.4696700">
        <ele>145.4</ele>
        <time>2019-10-18T18:30:37Z</time>
      </trkpt>
      <trkpt lat="36.9526540" lon="-2.4696900">
        <ele>145.2</ele>
        <time>2019-10-18T18:30:38Z</time>
      </trkpt>
      <trkpt lat="36.9525820" lon="-2.4697100">
        <ele>145.0</ele>
        <time>2019-10-18T18:30:39Z</time>
      </trkpt>
      <trkpt lat="36.9525090" lon="-2.4697290">
        <ele>144.8</ele>
        <time>2019-10-18T18:30:40Z</time>
      </trkpt>
      <trkpt lat="36.9524360" lon="-2.4697470">
        <ele>144.8</ele>
        <time>2019-10-18T18:30:41Z</time>
      </trkpt>
      <trkpt lat="36.9523640" lon="-2.4697640">
        <ele>144.8</ele>
        <time>2019-10-18T18:30:42Z</time>
      </trkpt>
      <trkpt lat="36.9522930" lon="-2.4697800">
        <ele>144.7</ele>
        <time>2019-10-18T18:30:43Z</time>
      </trkpt>
      <trkpt lat="36.9522220" lon="-2.4697970">
        <ele>144.7</ele>
        <time>2019-10-18T18:30:44Z</time>
      </trkpt>
      <trkpt lat="36.9521520" lon="-2.4698140">
        <ele>144.6</ele>
        <time>2019-10-18T18:30:45Z</time>
      </trkpt>
      <trkpt lat="36.9520810" lon="-2.4698330">
        <ele>144.5</ele>
        <time>2019-10-18T18:30:46Z</time>
      </trkpt>
      <trkpt lat="36.9520100" lon="-2.4698550">
        <ele>144.3</ele>
        <time>2019-10-18T18:30:47Z</time>
      </trkpt>
      <trkpt lat="36.9519390" lon="-2.4698790">
        <ele>144.1</ele>
        <time>2019-10-18T18:30:48Z</time>
      </trkpt>
      <trkpt lat="36.9518690" lon="-2.4698990">
        <ele>143.9</ele>
        <time>2019-10-18T18:30:49Z</time>
      </trkpt>
      <trkpt lat="36.9517990" lon="-2.4699170">
        <ele>143.8</ele>
        <time>2019-10-18T18:30:50Z</time>
      </trkpt>
      <trkpt lat="36.9517290" lon="-2.4699360">
        <ele>143.7</ele>
        <time>2019-10-18T18:30:51Z</time>
      </trkpt>
      <trkpt lat="36.9516600" lon="-2.4699550">
        <ele>143.7</ele>
        <time>2019-10-18T18:30:52Z</time>
      </trkpt>
      <trkpt lat="36.9515910" lon="-2.4699750">
        <ele>143.6</ele>
        <time>2019-10-18T18:30:53Z</time>
      </trkpt>
      <trkpt lat="36.9515220" lon="-2.4699940">
        <ele>143.6</ele>
        <time>2019-10-18T18:30:54Z</time>
      </trkpt>
      <trkpt lat="36.9514530" lon="-2.4700140">
        <ele>143.6</ele>
        <time>2019-10-18T18:30:55Z</time>
      </trkpt>
      <trkpt lat="36.9513850" lon="-2.4700340">
        <ele>143.6</ele>
        <time>2019-10-18T18:30:56Z</time>
      </trkpt>
      <trkpt lat="36.9513850" lon="-2.4700340">
        <ele>143.6</ele>
        <time>2019-10-18T18:30:57Z</time>
      </trkpt>
      <trkpt lat="36.9512480" lon="-2.4700710">
        <ele>143.6</ele>
        <time>2019-10-18T18:30:58Z</time>
      </trkpt>
      <trkpt lat="36.9511800" lon="-2.4700890">
        <ele>143.6</ele>
        <time>2019-10-18T18:30:59Z</time>
      </trkpt>
      <trkpt lat="36.9511130" lon="-2.4701070">
        <ele>143.5</ele>
        <time>2019-10-18T18:31:00Z</time>
      </trkpt>
      <trkpt lat="36.9510470" lon="-2.4701250">
        <ele>143.5</ele>
        <time>2019-10-18T18:31:01Z</time>
      </trkpt>
      <trkpt lat="36.9509810" lon="-2.4701430">
        <ele>143.5</ele>
        <time>2019-10-18T18:31:02Z</time>
      </trkpt>
      <trkpt lat="36.9509160" lon="-2.4701600">
        <ele>143.5</ele>
        <time>2019-10-18T18:31:03Z</time>
      </trkpt>
      <trkpt lat="36.9508520" lon="-2.4701760">
        <ele>143.5</ele>
        <time>2019-10-18T18:31:04Z</time>
      </trkpt>
      <trkpt lat="36.9507880" lon="-2.4701920">
        <ele>143.5</ele>
        <time>2019-10-18T18:31:05Z</time>
      </trkpt>
      <trkpt lat="36.9507250" lon="-2.4702080">
        <ele>143.5</ele>
        <time>2019-10-18T18:31:06Z</time>
      </trkpt>
      <trkpt lat="36.9506630" lon="-2.4702240">
        <ele>143.5</ele>
        <time>2019-10-18T18:31:07Z</time>
      </trkpt>
      <trkpt lat="36.9506020" lon="-2.4702410">
        <ele>143.4</ele>
        <time>2019-10-18T18:31:08Z</time>
      </trkpt>
      <trkpt lat="36.9505430" lon="-2.4702580">
        <ele>143.4</ele>
        <time>2019-10-18T18:31:09Z</time>
      </trkpt>
      <trkpt lat="36.9504850" lon="-2.4702750">
        <ele>143.4</ele>
        <time>2019-10-18T18:31:10Z</time>
      </trkpt>
      <trkpt lat="36.9504270" lon="-2.4702920">
        <ele>143.4</ele>
        <time>2019-10-18T18:31:11Z</time>
      </trkpt>
      <trkpt lat="36.9503680" lon="-2.4703060">
        <ele>143.4</ele>
        <time>2019-10-18T18:31:12Z</time>
      </trkpt>
      <trkpt lat="36.9503080" lon="-2.4703180">
        <ele>143.4</ele>
        <time>2019-10-18T18:31:13Z</time>
      </trkpt>
      <trkpt lat="36.9502480" lon="-2.4703260">
        <ele>143.4</ele>
        <time>2019-10-18T18:31:14Z</time>
      </trkpt>
      <trkpt lat="36.9501880" lon="-2.4703310">
        <ele>143.4</ele>
        <time>2019-10-18T18:31:15Z</time>
      </trkpt>
      <trkpt lat="36.9501270" lon="-2.4703330">
        <ele>143.4</ele>
        <time>2019-10-18T18:31:16Z</time>
      </trkpt>
      <trkpt lat="36.9500660" lon="-2.4703270">
        <ele>143.3</ele>
        <time>2019-10-18T18:31:17Z</time>
      </trkpt>
      <trkpt lat="36.9500070" lon="-2.4703140">
        <ele>143.3</ele>
        <time>2019-10-18T18:31:18Z</time>
      </trkpt>
      <trkpt lat="36.9499470" lon="-2.4702960">
        <ele>143.3</ele>
        <time>2019-10-18T18:31:19Z</time>
      </trkpt>
      <trkpt lat="36.9498890" lon="-2.4702780">
        <ele>143.3</ele>
        <time>2019-10-18T18:31:20Z</time>
      </trkpt>
      <trkpt lat="36.9498310" lon="-2.4702590">
        <ele>143.3</ele>
        <time>2019-10-18T18:31:21Z</time>
      </trkpt>
      <trkpt lat="36.9497740" lon="-2.4702380">
        <ele>143.3</ele>
        <time>2019-10-18T18:31:22Z</time>
      </trkpt>
      <trkpt lat="36.9497180" lon="-2.4702160">
        <ele>143.3</ele>
        <time>2019-10-18T18:31:23Z</time>
      </trkpt>
      <trkpt lat="36.9496620" lon="-2.4701930">
        <ele>143.3</ele>
        <time>2019-10-18T18:31:24Z</time>
      </trkpt>
      <trkpt lat="36.9496060" lon="-2.4701690">
        <ele>143.3</ele>
        <time>2019-10-18T18:31:25Z</time>
      </trkpt>
      <trkpt lat="36.9495490" lon="-2.4701430">
        <ele>143.3</ele>
        <time>2019-10-18T18:31:26Z</time>
      </trkpt>
      <trkpt lat="36.9494910" lon="-2.4701160">
        <ele>143.2</ele>
        <time>2019-10-18T18:31:27Z</time>
      </trkpt>
      <trkpt lat="36.9494330" lon="-2.4700900">
        <ele>143.2</ele>
        <time>2019-10-18T18:31:28Z</time>
      </trkpt>
      <trkpt lat="36.9493740" lon="-2.4700630">
        <ele>143.1</ele>
        <time>2019-10-18T18:31:29Z</time>
      </trkpt>
      <trkpt lat="36.9493160" lon="-2.4700360">
        <ele>143.0</ele>
        <time>2019-10-18T18:31:30Z</time>
      </trkpt>
      <trkpt lat="36.9492560" lon="-2.4700080">
        <ele>142.9</ele>
        <time>2019-10-18T18:31:31Z</time>
      </trkpt>
      <trkpt lat="36.9491970" lon="-2.4699800">
        <ele>142.8</ele>
        <time>2019-10-18T18:31:32Z</time>
      </trkpt>
      <trkpt lat="36.9491380" lon="-2.4699520">
        <ele>142.6</ele>
        <time>2019-10-18T18:31:33Z</time>
      </trkpt>
      <trkpt lat="36.9490790" lon="-2.4699240">
        <ele>142.5</ele>
        <time>2019-10-18T18:31:34Z</time>
      </trkpt>
      <trkpt lat="36.9490210" lon="-2.4698950">
        <ele>142.4</ele>
        <time>2019-10-18T18:31:35Z</time>
      </trkpt>
      <trkpt lat="36.9489630" lon="-2.4698670">
        <ele>142.2</ele>
        <time>2019-10-18T18:31:36Z</time>
      </trkpt>
      <trkpt lat="36.9489040" lon="-2.4698400">
        <ele>142.1</ele>
        <time>2019-10-18T18:31:37Z</time>
      </trkpt>
      <trkpt lat="36.9488440" lon="-2.4698130">
        <ele>141.9</ele>
        <time>2019-10-18T18:31:38Z</time>
      </trkpt>
      <trkpt lat="36.9487830" lon="-2.4697860">
        <ele>141.8</ele>
        <time>2019-10-18T18:31:39Z</time>
      </trkpt>
      <trkpt lat="36.9487220" lon="-2.4697590">
        <ele>141.6</ele>
        <time>2019-10-18T18:31:40Z</time>
      </trkpt>
      <trkpt lat="36.9486620" lon="-2.4697320">
        <ele>141.3</ele>
        <time>2019-10-18T18:31:41Z</time>
      </trkpt>
      <trkpt lat="36.9486000" lon="-2.4697040">
        <ele>141.1</ele>
        <time>2019-10-18T18:31:42Z</time>
      </trkpt>
      <trkpt lat="36.9485380" lon="-2.4696760">
        <ele>141.0</ele>
        <time>2019-10-18T18:31:43Z</time>
      </trkpt>
      <trkpt lat="36.9484750" lon="-2.4696460">
        <ele>140.9</ele>
        <time>2019-10-18T18:31:44Z</time>
      </trkpt>
      <trkpt lat="36.9484120" lon="-2.4696160">
        <ele>140.8</ele>
        <time>2019-10-18T18:31:45Z</time>
      </trkpt>
      <trkpt lat="36.9483470" lon="-2.4695850">
        <ele>140.7</ele>
        <time>2019-10-18T18:31:46Z</time>
      </trkpt>
      <trkpt lat="36.9482830" lon="-2.4695550">
        <ele>140.6</ele>
        <time>2019-10-18T18:31:47Z</time>
      </trkpt>
      <trkpt lat="36.9482190" lon="-2.4695250">
        <ele>140.4</ele>
        <time>2019-10-18T18:31:48Z</time>
      </trkpt>
      <trkpt lat="36.9481560" lon="-2.4694960">
        <ele>140.3</ele>
        <time>2019-10-18T18:31:49Z</time>
      </trkpt>
      <trkpt lat="36.9480940" lon="-2.4694640">
        <ele>140.1</ele>
        <time>2019-10-18T18:31:50Z</time>
      </trkpt>
      <trkpt lat="36.9480320" lon="-2.4694300">
        <ele>139.9</ele>
        <time>2019-10-18T18:31:51Z</time>
      </trkpt>
      <trkpt lat="36.9479720" lon="-2.4693930">
        <ele>139.8</ele>
        <time>2019-10-18T18:31:52Z</time>
      </trkpt>
      <trkpt lat="36.9479130" lon="-2.4693530">
        <ele>139.5</ele>
        <time>2019-10-18T18:31:53Z</time>
      </trkpt>
      <trkpt lat="36.9478560" lon="-2.4693090">
        <ele>139.2</ele>
        <time>2019-10-18T18:31:54Z</time>
      </trkpt>
      <trkpt lat="36.9478020" lon="-2.4692600">
        <ele>139.0</ele>
        <time>2019-10-18T18:31:55Z</time>
      </trkpt>
      <trkpt lat="36.9477520" lon="-2.4692040">
        <ele>138.8</ele>
        <time>2019-10-18T18:31:56Z</time>
      </trkpt>
      <trkpt lat="36.9477070" lon="-2.4691420">
        <ele>138.7</ele>
        <time>2019-10-18T18:31:57Z</time>
      </trkpt>
      <trkpt lat="36.9476650" lon="-2.4690770">
        <ele>138.6</ele>
        <time>2019-10-18T18:31:58Z</time>
      </trkpt>
      <trkpt lat="36.9476250" lon="-2.4690100">
        <ele>138.5</ele>
        <time>2019-10-18T18:31:59Z</time>
      </trkpt>
      <trkpt lat="36.9475850" lon="-2.4689420">
        <ele>138.5</ele>
        <time>2019-10-18T18:32:00Z</time>
      </trkpt>
      <trkpt lat="36.9475440" lon="-2.4688730">
        <ele>138.4</ele>
        <time>2019-10-18T18:32:01Z</time>
      </trkpt>
      <trkpt lat="36.9475060" lon="-2.4688020">
        <ele>138.3</ele>
        <time>2019-10-18T18:32:02Z</time>
      </trkpt>
      <trkpt lat="36.9474700" lon="-2.4687310">
        <ele>138.1</ele>
        <time>2019-10-18T18:32:03Z</time>
      </trkpt>
      <trkpt lat="36.9474370" lon="-2.4686590">
        <ele>138.0</ele>
        <time>2019-10-18T18:32:04Z</time>
      </trkpt>
      <trkpt lat="36.9474040" lon="-2.4685890">
        <ele>137.9</ele>
        <time>2019-10-18T18:32:05Z</time>
      </trkpt>
      <trkpt lat="36.9473740" lon="-2.4685190">
        <ele>137.8</ele>
        <time>2019-10-18T18:32:06Z</time>
      </trkpt>
      <trkpt lat="36.9473430" lon="-2.4684510">
        <ele>137.7</ele>
        <time>2019-10-18T18:32:07Z</time>
      </trkpt>
      <trkpt lat="36.9473130" lon="-2.4683820">
        <ele>137.6</ele>
        <time>2019-10-18T18:32:08Z</time>
      </trkpt>
      <trkpt lat="36.9472820" lon="-2.4683140">
        <ele>137.5</ele>
        <time>2019-10-18T18:32:09Z</time>
      </trkpt>
      <trkpt lat="36.9472540" lon="-2.4682430">
        <ele>137.4</ele>
        <time>2019-10-18T18:32:10Z</time>
      </trkpt>
      <trkpt lat="36.9472260" lon="-2.4681720">
        <ele>137.3</ele>
        <time>2019-10-18T18:32:11Z</time>
      </trkpt>
      <trkpt lat="36.9471980" lon="-2.4681000">
        <ele>137.2</ele>
        <time>2019-10-18T18:32:12Z</time>
      </trkpt>
      <trkpt lat="36.9471690" lon="-2.4680280">
        <ele>137.1</ele>
        <time>2019-10-18T18:32:13Z</time>
      </trkpt>
      <trkpt lat="36.9471400" lon="-2.4679570">
        <ele>136.9</ele>
        <time>2019-10-18T18:32:14Z</time>
      </trkpt>
      <trkpt lat="36.9471100" lon="-2.4678860">
        <ele>136.7</ele>
        <time>2019-10-18T18:32:15Z</time>
      </trkpt>
      <trkpt lat="36.9470790" lon="-2.4678150">
        <ele>136.6</ele>
        <time>2019-10-18T18:32:16Z</time>
      </trkpt>
      <trkpt lat="36.9470490" lon="-2.4677450">
        <ele>136.4</ele>
        <time>2019-10-18T18:32:17Z</time>
      </trkpt>
      <trkpt lat="36.9470200" lon="-2.4676770">
        <ele>136.4</ele>
        <time>2019-10-18T18:32:18Z</time>
      </trkpt>
      <trkpt lat="36.9469920" lon="-2.4676110">
        <ele>136.3</ele>
        <time>2019-10-18T18:32:19Z</time>
      </trkpt>
      <trkpt lat="36.9469650" lon="-2.4675480">
        <ele>136.2</ele>
        <time>2019-10-18T18:32:20Z</time>
      </trkpt>
      <trkpt lat="36.9469390" lon="-2.4674870">
        <ele>136.2</ele>
        <time>2019-10-18T18:32:21Z</time>
      </trkpt>
      <trkpt lat="36.9469130" lon="-2.4674280">
        <ele>136.0</ele>
        <time>2019-10-18T18:32:22Z</time>
      </trkpt>
      <trkpt lat="36.9468890" lon="-2.4673720">
        <ele>135.9</ele>
        <time>2019-10-18T18:32:23Z</time>
      </trkpt>
      <trkpt lat="36.9468680" lon="-2.4673170">
        <ele>135.8</ele>
        <time>2019-10-18T18:32:24Z</time>
      </trkpt>
      <trkpt lat="36.9468490" lon="-2.4672640">
        <ele>135.7</ele>
        <time>2019-10-18T18:32:25Z</time>
      </trkpt>
      <trkpt lat="36.9468330" lon="-2.4672170">
        <ele>135.6</ele>
        <time>2019-10-18T18:32:26Z</time>
      </trkpt>
      <trkpt lat="36.9468170" lon="-2.4671750">
        <ele>135.6</ele>
        <time>2019-10-18T18:32:27Z</time>
      </trkpt>
      <trkpt lat="36.9468000" lon="-2.4671370">
        <ele>135.6</ele>
        <time>2019-10-18T18:32:28Z</time>
      </trkpt>
      <trkpt lat="36.9467850" lon="-2.4671010">
        <ele>135.5</ele>
        <time>2019-10-18T18:32:29Z</time>
      </trkpt>
      <trkpt lat="36.9467710" lon="-2.4670640">
        <ele>135.5</ele>
        <time>2019-10-18T18:32:30Z</time>
      </trkpt>
      <trkpt lat="36.9467580" lon="-2.4670280">
        <ele>135.5</ele>
        <time>2019-10-18T18:32:31Z</time>
      </trkpt>
      <trkpt lat="36.9467430" lon="-2.4669910">
        <ele>135.5</ele>
        <time>2019-10-18T18:32:32Z</time>
      </trkpt>
      <trkpt lat="36.9467270" lon="-2.4669540">
        <ele>135.5</ele>
        <time>2019-10-18T18:32:33Z</time>
      </trkpt>
      <trkpt lat="36.9467110" lon="-2.4669180">
        <ele>135.5</ele>
        <time>2019-10-18T18:32:34Z</time>
      </trkpt>
      <trkpt lat="36.9466950" lon="-2.4668820">
        <ele>135.5</ele>
        <time>2019-10-18T18:32:35Z</time>
      </trkpt>
      <trkpt lat="36.9466780" lon="-2.4668430">
        <ele>135.5</ele>
        <time>2019-10-18T18:32:36Z</time>
      </trkpt>
      <trkpt lat="36.9466580" lon="-2.4668000">
        <ele>135.5</ele>
        <time>2019-10-18T18:32:37Z</time>
      </trkpt>
      <trkpt lat="36.9466350" lon="-2.4667520">
        <ele>135.5</ele>
        <time>2019-10-18T18:32:38Z</time>
      </trkpt>
      <trkpt lat="36.9466090" lon="-2.4666990">
        <ele>135.5</ele>
        <time>2019-10-18T18:32:39Z</time>
      </trkpt>
      <trkpt lat="36.9465790" lon="-2.4666430">
        <ele>135.5</ele>
        <time>2019-10-18T18:32:40Z</time>
      </trkpt>
      <trkpt lat="36.9465460" lon="-2.4665820">
        <ele>135.5</ele>
        <time>2019-10-18T18:32:41Z</time>
      </trkpt>
      <trkpt lat="36.9465130" lon="-2.4665170">
        <ele>135.5</ele>
        <time>2019-10-18T18:32:42Z</time>
      </trkpt>
      <trkpt lat="36.9464820" lon="-2.4664490">
        <ele>135.6</ele>
        <time>2019-10-18T18:32:43Z</time>
      </trkpt>
      <trkpt lat="36.9464510" lon="-2.4663820">
        <ele>135.6</ele>
        <time>2019-10-18T18:32:44Z</time>
      </trkpt>
      <trkpt lat="36.9464210" lon="-2.4663170">
        <ele>135.6</ele>
        <time>2019-10-18T18:32:45Z</time>
      </trkpt>
      <trkpt lat="36.9463910" lon="-2.4662530">
        <ele>135.6</ele>
        <time>2019-10-18T18:32:46Z</time>
      </trkpt>
      <trkpt lat="36.9463620" lon="-2.4661890">
        <ele>135.7</ele>
        <time>2019-10-18T18:32:47Z</time>
      </trkpt>
      <trkpt lat="36.9463330" lon="-2.4661240">
        <ele>136.1</ele>
        <time>2019-10-18T18:32:48Z</time>
      </trkpt>
      <trkpt lat="36.9463040" lon="-2.4660600">
        <ele>136.2</ele>
        <time>2019-10-18T18:32:49Z</time>
      </trkpt>
      <trkpt lat="36.9462750" lon="-2.4659950">
        <ele>136.3</ele>
        <time>2019-10-18T18:32:50Z</time>
      </trkpt>
      <trkpt lat="36.9462460" lon="-2.4659310">
        <ele>136.4</ele>
        <time>2019-10-18T18:32:51Z</time>
      </trkpt>
      <trkpt lat="36.9462180" lon="-2.4658670">
        <ele>136.5</ele>
        <time>2019-10-18T18:32:52Z</time>
      </trkpt>
      <trkpt lat="36.9461900" lon="-2.4658040">
        <ele>136.6</ele>
        <time>2019-10-18T18:32:53Z</time>
      </trkpt>
      <trkpt lat="36.9461620" lon="-2.4657410">
        <ele>136.7</ele>
        <time>2019-10-18T18:32:54Z</time>
      </trkpt>
      <trkpt lat="36.9461340" lon="-2.4656780">
        <ele>136.8</ele>
        <time>2019-10-18T18:32:55Z</time>
      </trkpt>
      <trkpt lat="36.9461070" lon="-2.4656160">
        <ele>136.9</ele>
        <time>2019-10-18T18:32:56Z</time>
      </trkpt>
      <trkpt lat="36.9460800" lon="-2.4655560">
        <ele>137.0</ele>
        <time>2019-10-18T18:32:57Z</time>
      </trkpt>
      <trkpt lat="36.9460550" lon="-2.4654970">
        <ele>137.0</ele>
        <time>2019-10-18T18:32:58Z</time>
      </trkpt>
      <trkpt lat="36.9460300" lon="-2.4654390">
        <ele>137.1</ele>
        <time>2019-10-18T18:32:59Z</time>
      </trkpt>
      <trkpt lat="36.9460050" lon="-2.4653810">
        <ele>137.3</ele>
        <time>2019-10-18T18:33:00Z</time>
      </trkpt>
      <trkpt lat="36.9459780" lon="-2.4653210">
        <ele>137.4</ele>
        <time>2019-10-18T18:33:01Z</time>
      </trkpt>
      <trkpt lat="36.9459500" lon="-2.4652590">
        <ele>137.5</ele>
        <time>2019-10-18T18:33:02Z</time>
      </trkpt>
      <trkpt lat="36.9459220" lon="-2.4651960">
        <ele>137.7</ele>
        <time>2019-10-18T18:33:03Z</time>
      </trkpt>
      <trkpt lat="36.9458930" lon="-2.4651300">
        <ele>137.8</ele>
        <time>2019-10-18T18:33:04Z</time>
      </trkpt>
      <trkpt lat="36.9458630" lon="-2.4650620">
        <ele>138.0</ele>
        <time>2019-10-18T18:33:05Z</time>
      </trkpt>
      <trkpt lat="36.9458330" lon="-2.4649930">
        <ele>138.1</ele>
        <time>2019-10-18T18:33:06Z</time>
      </trkpt>
      <trkpt lat="36.9458020" lon="-2.4649210">
        <ele>137.0</ele>
        <time>2019-10-18T18:33:07Z</time>
      </trkpt>
      <trkpt lat="36.9457710" lon="-2.4648490">
        <ele>136.3</ele>
        <time>2019-10-18T18:33:08Z</time>
      </trkpt>
      <trkpt lat="36.9457380" lon="-2.4647750">
        <ele>135.7</ele>
        <time>2019-10-18T18:33:09Z</time>
      </trkpt>
      <trkpt lat="36.9457050" lon="-2.4647010">
        <ele>135.2</ele>
        <time>2019-10-18T18:33:10Z</time>
      </trkpt>
      <trkpt lat="36.9456720" lon="-2.4646240">
        <ele>135.0</ele>
        <time>2019-10-18T18:33:11Z</time>
      </trkpt>
      <trkpt lat="36.9456380" lon="-2.4645460">
        <ele>134.9</ele>
        <time>2019-10-18T18:33:12Z</time>
      </trkpt>
      <trkpt lat="36.9456030" lon="-2.4644680">
        <ele>134.8</ele>
        <time>2019-10-18T18:33:13Z</time>
      </trkpt>
      <trkpt lat="36.9455680" lon="-2.4643900">
        <ele>134.8</ele>
        <time>2019-10-18T18:33:14Z</time>
      </trkpt>
      <trkpt lat="36.9455330" lon="-2.4643130">
        <ele>134.7</ele>
        <time>2019-10-18T18:33:15Z</time>
      </trkpt>
      <trkpt lat="36.9454990" lon="-2.4642360">
        <ele>134.6</ele>
        <time>2019-10-18T18:33:16Z</time>
      </trkpt>
      <trkpt lat="36.9454640" lon="-2.4641600">
        <ele>134.5</ele>
        <time>2019-10-18T18:33:17Z</time>
      </trkpt>
      <trkpt lat="36.9454290" lon="-2.4640840">
        <ele>134.5</ele>
        <time>2019-10-18T18:33:18Z</time>
      </trkpt>
      <trkpt lat="36.9453960" lon="-2.4640080">
        <ele>134.4</ele>
        <time>2019-10-18T18:33:19Z</time>
      </trkpt>
      <trkpt lat="36.9453630" lon="-2.4639340">
        <ele>134.4</ele>
        <time>2019-10-18T18:33:20Z</time>
      </trkpt>
      <trkpt lat="36.9453300" lon="-2.4638620">
        <ele>134.3</ele>
        <time>2019-10-18T18:33:21Z</time>
      </trkpt>
      <trkpt lat="36.9452960" lon="-2.4637920">
        <ele>134.2</ele>
        <time>2019-10-18T18:33:22Z</time>
      </trkpt>
      <trkpt lat="36.9452610" lon="-2.4637250">
        <ele>134.2</ele>
        <time>2019-10-18T18:33:23Z</time>
      </trkpt>
      <trkpt lat="36.9452220" lon="-2.4636640">
        <ele>134.2</ele>
        <time>2019-10-18T18:33:24Z</time>
      </trkpt>
      <trkpt lat="36.9451820" lon="-2.4636060">
        <ele>134.2</ele>
        <time>2019-10-18T18:33:25Z</time>
      </trkpt>
      <trkpt lat="36.9451410" lon="-2.4635520">
        <ele>134.3</ele>
        <time>2019-10-18T18:33:26Z</time>
      </trkpt>
      <trkpt lat="36.9451030" lon="-2.4634970">
        <ele>134.4</ele>
        <time>2019-10-18T18:33:27Z</time>
      </trkpt>
      <trkpt lat="36.9450670" lon="-2.4634400">
        <ele>134.3</ele>
        <time>2019-10-18T18:33:28Z</time>
      </trkpt>
      <trkpt lat="36.9450350" lon="-2.4633790">
        <ele>134.2</ele>
        <time>2019-10-18T18:33:29Z</time>
      </trkpt>
      <trkpt lat="36.9450060" lon="-2.4633160">
        <ele>134.1</ele>
        <time>2019-10-18T18:33:30Z</time>
      </trkpt>
      <trkpt lat="36.9449780" lon="-2.4632520">
        <ele>134.0</ele>
        <time>2019-10-18T18:33:31Z</time>
      </trkpt>
      <trkpt lat="36.9449470" lon="-2.4631910">
        <ele>133.7</ele>
        <time>2019-10-18T18:33:32Z</time>
      </trkpt>
      <trkpt lat="36.9449080" lon="-2.4631360">
        <ele>133.5</ele>
        <time>2019-10-18T18:33:33Z</time>
      </trkpt>
      <trkpt lat="36.9448580" lon="-2.4630980">
        <ele>133.3</ele>
        <time>2019-10-18T18:33:34Z</time>
      </trkpt>
      <trkpt lat="36.9447990" lon="-2.4630760">
        <ele>133.2</ele>
        <time>2019-10-18T18:33:35Z</time>
      </trkpt>
      <trkpt lat="36.9447370" lon="-2.4630650">
        <ele>133.1</ele>
        <time>2019-10-18T18:33:36Z</time>
      </trkpt>
      <trkpt lat="36.9446740" lon="-2.4630560">
        <ele>133.0</ele>
        <time>2019-10-18T18:33:37Z</time>
      </trkpt>
      <trkpt lat="36.9446110" lon="-2.4630500">
        <ele>132.9</ele>
        <time>2019-10-18T18:33:38Z</time>
      </trkpt>
      <trkpt lat="36.9445470" lon="-2.4630460">
        <ele>132.9</ele>
        <time>2019-10-18T18:33:39Z</time>
      </trkpt>
      <trkpt lat="36.9444820" lon="-2.4630440">
        <ele>132.7</ele>
        <time>2019-10-18T18:33:40Z</time>
      </trkpt>
      <trkpt lat="36.9444180" lon="-2.4630410">
        <ele>132.7</ele>
        <time>2019-10-18T18:33:41Z</time>
      </trkpt>
      <trkpt lat="36.9443520" lon="-2.4630380">
        <ele>132.7</ele>
        <time>2019-10-18T18:33:42Z</time>
      </trkpt>
      <trkpt lat="36.9442870" lon="-2.4630340">
        <ele>132.6</ele>
        <time>2019-10-18T18:33:43Z</time>
      </trkpt>
      <trkpt lat="36.9442230" lon="-2.4630310">
        <ele>132.6</ele>
        <time>2019-10-18T18:33:44Z</time>
      </trkpt>
      <trkpt lat="36.9441600" lon="-2.4630270">
        <ele>132.2</ele>
        <time>2019-10-18T18:33:45Z</time>
      </trkpt>
      <trkpt lat="36.9440980" lon="-2.4630190">
        <ele>131.9</ele>
        <time>2019-10-18T18:33:46Z</time>
      </trkpt>
      <trkpt lat="36.9440380" lon="-2.4630050">
        <ele>131.5</ele>
        <time>2019-10-18T18:33:47Z</time>
      </trkpt>
      <trkpt lat="36.9439810" lon="-2.4629840">
        <ele>131.2</ele>
        <time>2019-10-18T18:33:48Z</time>
      </trkpt>
      <trkpt lat="36.9439250" lon="-2.4629540">
        <ele>130.9</ele>
        <time>2019-10-18T18:33:49Z</time>
      </trkpt>
      <trkpt lat="36.9438700" lon="-2.4629160">
        <ele>130.7</ele>
        <time>2019-10-18T18:33:50Z</time>
      </trkpt>
      <trkpt lat="36.9438170" lon="-2.4628740">
        <ele>130.5</ele>
        <time>2019-10-18T18:33:51Z</time>
      </trkpt>
      <trkpt lat="36.9437660" lon="-2.4628310">
        <ele>130.5</ele>
        <time>2019-10-18T18:33:52Z</time>
      </trkpt>
      <trkpt lat="36.9437150" lon="-2.4627890">
        <ele>130.5</ele>
        <time>2019-10-18T18:33:53Z</time>
      </trkpt>
      <trkpt lat="36.9436650" lon="-2.4627480">
        <ele>130.7</ele>
        <time>2019-10-18T18:33:54Z</time>
      </trkpt>
      <trkpt lat="36.9436160" lon="-2.4627090">
        <ele>131.0</ele>
        <time>2019-10-18T18:33:55Z</time>
      </trkpt>
      <trkpt lat="36.9435690" lon="-2.4626720">
        <ele>131.4</ele>
        <time>2019-10-18T18:33:56Z</time>
      </trkpt>
      <trkpt lat="36.9435240" lon="-2.4626360">
        <ele>131.8</ele>
        <time>2019-10-18T18:33:57Z</time>
      </trkpt>
      <trkpt lat="36.9434770" lon="-2.4626030">
        <ele>132.3</ele>
        <time>2019-10-18T18:33:58Z</time>
      </trkpt>
      <trkpt lat="36.9434280" lon="-2.4625710">
        <ele>132.4</ele>
        <time>2019-10-18T18:33:59Z</time>
      </trkpt>
      <trkpt lat="36.9433810" lon="-2.4625410">
        <ele>132.4</ele>
        <time>2019-10-18T18:34:00Z</time>
      </trkpt>
      <trkpt lat="36.9433350" lon="-2.4625080">
        <ele>132.4</ele>
        <time>2019-10-18T18:34:01Z</time>
      </trkpt>
      <trkpt lat="36.9432890" lon="-2.4624720">
        <ele>132.2</ele>
        <time>2019-10-18T18:34:02Z</time>
      </trkpt>
      <trkpt lat="36.9432450" lon="-2.4624330">
        <ele>132.1</ele>
        <time>2019-10-18T18:34:03Z</time>
      </trkpt>
      <trkpt lat="36.9432010" lon="-2.4623900">
        <ele>131.8</ele>
        <time>2019-10-18T18:34:04Z</time>
      </trkpt>
      <trkpt lat="36.9431600" lon="-2.4623430">
        <ele>131.6</ele>
        <time>2019-10-18T18:34:05Z</time>
      </trkpt>
      <trkpt lat="36.9431180" lon="-2.4622970">
        <ele>131.3</ele>
        <time>2019-10-18T18:34:06Z</time>
      </trkpt>
      <trkpt lat="36.9430740" lon="-2.4622520">
        <ele>131.0</ele>
        <time>2019-10-18T18:34:07Z</time>
      </trkpt>
      <trkpt lat="36.9430270" lon="-2.4622090">
        <ele>130.8</ele>
        <time>2019-10-18T18:34:08Z</time>
      </trkpt>
      <trkpt lat="36.9429770" lon="-2.4621660">
        <ele>130.2</ele>
        <time>2019-10-18T18:34:09Z</time>
      </trkpt>
      <trkpt lat="36.9429260" lon="-2.4621230">
        <ele>129.8</ele>
        <time>2019-10-18T18:34:10Z</time>
      </trkpt>
      <trkpt lat="36.9428740" lon="-2.4620790">
        <ele>129.4</ele>
        <time>2019-10-18T18:34:11Z</time>
      </trkpt>
      <trkpt lat="36.9428230" lon="-2.4620340">
        <ele>129.0</ele>
        <time>2019-10-18T18:34:12Z</time>
      </trkpt>
      <trkpt lat="36.9427700" lon="-2.4619870">
        <ele>128.6</ele>
        <time>2019-10-18T18:34:13Z</time>
      </trkpt>
      <trkpt lat="36.9427160" lon="-2.4619400">
        <ele>128.1</ele>
        <time>2019-10-18T18:34:14Z</time>
      </trkpt>
      <trkpt lat="36.9426620" lon="-2.4618940">
        <ele>127.6</ele>
        <time>2019-10-18T18:34:15Z</time>
      </trkpt>
      <trkpt lat="36.9426070" lon="-2.4618480">
        <ele>127.1</ele>
        <time>2019-10-18T18:34:16Z</time>
      </trkpt>
      <trkpt lat="36.9425520" lon="-2.4618030">
        <ele>126.6</ele>
        <time>2019-10-18T18:34:17Z</time>
      </trkpt>
      <trkpt lat="36.9424990" lon="-2.4617580">
        <ele>126.2</ele>
        <time>2019-10-18T18:34:18Z</time>
      </trkpt>
      <trkpt lat="36.9424460" lon="-2.4617130">
        <ele>125.9</ele>
        <time>2019-10-18T18:34:19Z</time>
      </trkpt>
      <trkpt lat="36.9423940" lon="-2.4616700">
        <ele>125.5</ele>
        <time>2019-10-18T18:34:20Z</time>
      </trkpt>
      <trkpt lat="36.9423440" lon="-2.4616290">
        <ele>125.1</ele>
        <time>2019-10-18T18:34:21Z</time>
      </trkpt>
      <trkpt lat="36.9422980" lon="-2.4615920">
        <ele>124.8</ele>
        <time>2019-10-18T18:34:22Z</time>
      </trkpt>
      <trkpt lat="36.9422540" lon="-2.4615590">
        <ele>124.7</ele>
        <time>2019-10-18T18:34:23Z</time>
      </trkpt>
      <trkpt lat="36.9422150" lon="-2.4615280">
        <ele>124.5</ele>
        <time>2019-10-18T18:34:24Z</time>
      </trkpt>
      <trkpt lat="36.9421820" lon="-2.4615030">
        <ele>124.3</ele>
        <time>2019-10-18T18:34:25Z</time>
      </trkpt>
      <trkpt lat="36.9421560" lon="-2.4614820">
        <ele>124.4</ele>
        <time>2019-10-18T18:34:26Z</time>
      </trkpt>
      <trkpt lat="36.9421410" lon="-2.4614660">
        <ele>124.5</ele>
        <time>2019-10-18T18:34:27Z</time>
      </trkpt>
      <trkpt lat="36.9421330" lon="-2.4614550">
        <ele>124.5</ele>
        <time>2019-10-18T18:34:28Z</time>
      </trkpt>
      <trkpt lat="36.9421330" lon="-2.4614500">
        <ele>124.5</ele>
        <time>2019-10-18T18:34:29Z</time>
      </trkpt>
      <trkpt lat="36.9421430" lon="-2.4614520">
        <ele>124.5</ele>
        <time>2019-10-18T18:34:30Z</time>
      </trkpt>
      <trkpt lat="36.9421590" lon="-2.4614560">
        <ele>124.6</ele>
        <time>2019-10-18T18:34:31Z</time>
      </trkpt>
      <trkpt lat="36.9421780" lon="-2.4614570">
        <ele>124.6</ele>
        <time>2019-10-18T18:34:32Z</time>
      </trkpt>
      <trkpt lat="36.9421900" lon="-2.4614500">
        <ele>124.7</ele>
        <time>2019-10-18T18:34:33Z</time>
      </trkpt>
      <trkpt lat="36.9421990" lon="-2.4614400">
        <ele>124.7</ele>
        <time>2019-10-18T18:34:34Z</time>
      </trkpt>
      <trkpt lat="36.9422050" lon="-2.4614330">
        <ele>124.7</ele>
        <time>2019-10-18T18:34:35Z</time>
      </trkpt>
      <trkpt lat="36.9422090" lon="-2.4614300">
        <ele>124.8</ele>
        <time>2019-10-18T18:34:36Z</time>
      </trkpt>
      <trkpt lat="36.9422120" lon="-2.4614280">
        <ele>124.8</ele>
        <time>2019-10-18T18:34:37Z</time>
      </trkpt>
      <trkpt lat="36.9422130" lon="-2.4614280">
        <ele>124.8</ele>
        <time>2019-10-18T18:34:38Z</time>
      </trkpt>
      <trkpt lat="36.9422130" lon="-2.4614280">
        <ele>124.8</ele>
        <time>2019-10-18T18:34:39Z</time>
      </trkpt>
      <trkpt lat="36.9422140" lon="-2.4614280">
        <ele>124.8</ele>
        <time>2019-10-18T18:34:40Z</time>
      </trkpt>
      <trkpt lat="36.9422140" lon="-2.4614270">
        <ele>124.8</ele>
        <time>2019-10-18T18:34:41Z</time>
      </trkpt>
      <trkpt lat="36.9422140" lon="-2.4614270">
        <ele>124.8</ele>
        <time>2019-10-18T18:34:42Z</time>
      </trkpt>
      <trkpt lat="36.9422150" lon="-2.4614260">
        <ele>124.8</ele>
        <time>2019-10-18T18:34:43Z</time>
      </trkpt>
      <trkpt lat="36.9422160" lon="-2.4614250">
        <ele>124.8</ele>
        <time>2019-10-18T18:34:44Z</time>
      </trkpt>
      <trkpt lat="36.9422180" lon="-2.4614230">
        <ele>124.8</ele>
        <time>2019-10-18T18:34:45Z</time>
      </trkpt>
      <trkpt lat="36.9422180" lon="-2.4614220">
        <ele>124.8</ele>
        <time>2019-10-18T18:34:46Z</time>
      </trkpt>
      <trkpt lat="36.9422160" lon="-2.4614230">
        <ele>124.8</ele>
        <time>2019-10-18T18:34:47Z</time>
      </trkpt>
      <trkpt lat="36.9422150" lon="-2.4614250">
        <ele>124.8</ele>
        <time>2019-10-18T18:34:48Z</time>
      </trkpt>
      <trkpt lat="36.9422150" lon="-2.4614270">
        <ele>124.8</ele>
        <time>2019-10-18T18:34:49Z</time>
      </trkpt>
      <trkpt lat="36.9422160" lon="-2.4614300">
        <ele>124.8</ele>
        <time>2019-10-18T18:34:50Z</time>
      </trkpt>
      <trkpt lat="36.9422150" lon="-2.4614330">
        <ele>124.8</ele>
        <time>2019-10-18T18:34:51Z</time>
      </trkpt>
      <trkpt lat="36.9422120" lon="-2.4614350">
        <ele>124.8</ele>
        <time>2019-10-18T18:34:52Z</time>
      </trkpt>
      <trkpt lat="36.9422100" lon="-2.4614370">
        <ele>124.8</ele>
        <time>2019-10-18T18:34:53Z</time>
      </trkpt>
      <trkpt lat="36.9422090" lon="-2.4614390">
        <ele>124.8</ele>
        <time>2019-10-18T18:34:54Z</time>
      </trkpt>
      <trkpt lat="36.9422080" lon="-2.4614390">
        <ele>124.8</ele>
        <time>2019-10-18T18:34:55Z</time>
      </trkpt>
      <trkpt lat="36.9422090" lon="-2.4614390">
        <ele>124.8</ele>
        <time>2019-10-18T18:34:56Z</time>
      </trkpt>
      <trkpt lat="36.9422090" lon="-2.4614400">
        <ele>124.9</ele>
        <time>2019-10-18T18:34:57Z</time>
      </trkpt>
      <trkpt lat="36.9422090" lon="-2.4614400">
        <ele>124.9</ele>
        <time>2019-10-18T18:34:58Z</time>
      </trkpt>
      <trkpt lat="36.9422090" lon="-2.4614400">
        <ele>124.9</ele>
        <time>2019-10-18T18:34:59Z</time>
      </trkpt>
      <trkpt lat="36.9422100" lon="-2.4614410">
        <ele>124.9</ele>
        <time>2019-10-18T18:35:00Z</time>
      </trkpt>
      <trkpt lat="36.9422110" lon="-2.4614410">
        <ele>124.9</ele>
        <time>2019-10-18T18:35:01Z</time>
      </trkpt>
      <trkpt lat="36.9422110" lon="-2.4614410">
        <ele>124.9</ele>
        <time>2019-10-18T18:35:02Z</time>
      </trkpt>
      <trkpt lat="36.9422110" lon="-2.4614410">
        <ele>124.9</ele>
        <time>2019-10-18T18:35:03Z</time>
      </trkpt>
      <trkpt lat="36.9422090" lon="-2.4614410">
        <ele>124.9</ele>
        <time>2019-10-18T18:35:04Z</time>
      </trkpt>
      <trkpt lat="36.9422080" lon="-2.4614400">
        <ele>124.9</ele>
        <time>2019-10-18T18:35:05Z</time>
      </trkpt>
      <trkpt lat="36.9422080" lon="-2.4614400">
        <ele>124.9</ele>
        <time>2019-10-18T18:35:06Z</time>
      </trkpt>
      <trkpt lat="36.9422080" lon="-2.4614410">
        <ele>124.9</ele>
        <time>2019-10-18T18:35:07Z</time>
      </trkpt>
      <trkpt lat="36.9422080" lon="-2.4614420">
        <ele>124.9</ele>
        <time>2019-10-18T18:35:08Z</time>
      </trkpt>
      <trkpt lat="36.9422080" lon="-2.4614430">
        <ele>124.9</ele>
        <time>2019-10-18T18:35:09Z</time>
      </trkpt>
      <trkpt lat="36.9422090" lon="-2.4614440">
        <ele>124.9</ele>
        <time>2019-10-18T18:35:10Z</time>
      </trkpt>
      <trkpt lat="36.9422090" lon="-2.4614440">
        <ele>124.9</ele>
        <time>2019-10-18T18:35:11Z</time>
      </trkpt>
      <trkpt lat="36.9422100" lon="-2.4614440">
        <ele>124.9</ele>
        <time>2019-10-18T18:35:12Z</time>
      </trkpt>
      <trkpt lat="36.9422100" lon="-2.4614440">
        <ele>124.9</ele>
        <time>2019-10-18T18:35:13Z</time>
      </trkpt>
      <trkpt lat="36.9422100" lon="-2.4614450">
        <ele>124.9</ele>
        <time>2019-10-18T18:35:14Z</time>
      </trkpt>
      <trkpt lat="36.9422110" lon="-2.4614450">
        <ele>124.9</ele>
        <time>2019-10-18T18:35:15Z</time>
      </trkpt>
      <trkpt lat="36.9422110" lon="-2.4614460">
        <ele>124.9</ele>
        <time>2019-10-18T18:35:16Z</time>
      </trkpt>
      <trkpt lat="36.9422120" lon="-2.4614460">
        <ele>124.9</ele>
        <time>2019-10-18T18:35:17Z</time>
      </trkpt>
      <trkpt lat="36.9422120" lon="-2.4614470">
        <ele>124.9</ele>
        <time>2019-10-18T18:35:18Z</time>
      </trkpt>
      <trkpt lat="36.9422130" lon="-2.4614470">
        <ele>124.9</ele>
        <time>2019-10-18T18:35:19Z</time>
      </trkpt>
      <trkpt lat="36.9422130" lon="-2.4614480">
        <ele>124.9</ele>
        <time>2019-10-18T18:35:20Z</time>
      </trkpt>
      <trkpt lat="36.9422130" lon="-2.4614480">
        <ele>124.9</ele>
        <time>2019-10-18T18:35:21Z</time>
      </trkpt>
      <trkpt lat="36.9422130" lon="-2.4614480">
        <ele>124.9</ele>
        <time>2019-10-18T18:35:22Z</time>
      </trkpt>
      <trkpt lat="36.9422130" lon="-2.4614490">
        <ele>124.9</ele>
        <time>2019-10-18T18:35:23Z</time>
      </trkpt>
      <trkpt lat="36.9422130" lon="-2.4614510">
        <ele>124.9</ele>
        <time>2019-10-18T18:35:24Z</time>
      </trkpt>
      <trkpt lat="36.9422130" lon="-2.4614510">
        <ele>124.9</ele>
        <time>2019-10-18T18:35:25Z</time>
      </trkpt>
      <trkpt lat="36.9422130" lon="-2.4614510">
        <ele>124.9</ele>
        <time>2019-10-18T18:35:26Z</time>
      </trkpt>
      <trkpt lat="36.9422140" lon="-2.4614540">
        <ele>124.9</ele>
        <time>2019-10-18T18:35:27Z</time>
      </trkpt>
      <trkpt lat="36.9422140" lon="-2.4614550">
        <ele>124.9</ele>
        <time>2019-10-18T18:35:28Z</time>
      </trkpt>
      <trkpt lat="36.9422130" lon="-2.4614560">
        <ele>124.9</ele>
        <time>2019-10-18T18:35:29Z</time>
      </trkpt>
      <trkpt lat="36.9422130" lon="-2.4614550">
        <ele>124.9</ele>
        <time>2019-10-18T18:35:30Z</time>
      </trkpt>
      <trkpt lat="36.9422130" lon="-2.4614540">
        <ele>124.9</ele>
        <time>2019-10-18T18:35:31Z</time>
      </trkpt>
      <trkpt lat="36.9422120" lon="-2.4614530">
        <ele>124.9</ele>
        <time>2019-10-18T18:35:32Z</time>
      </trkpt>
      <trkpt lat="36.9422110" lon="-2.4614520">
        <ele>124.9</ele>
        <time>2019-10-18T18:35:33Z</time>
      </trkpt>
      <trkpt lat="36.9422100" lon="-2.4614510">
        <ele>124.9</ele>
        <time>2019-10-18T18:35:34Z</time>
      </trkpt>
      <trkpt lat="36.9422100" lon="-2.4614500">
        <ele>124.9</ele>
        <time>2019-10-18T18:35:35Z</time>
      </trkpt>
      <trkpt lat="36.9422090" lon="-2.4614490">
        <ele>124.9</ele>
        <time>2019-10-18T18:35:36Z</time>
      </trkpt>
      <trkpt lat="36.9422080" lon="-2.4614470">
        <ele>124.9</ele>
        <time>2019-10-18T18:35:37Z</time>
      </trkpt>
      <trkpt lat="36.9422070" lon="-2.4614460">
        <ele>125.0</ele>
        <time>2019-10-18T18:35:38Z</time>
      </trkpt>
      <trkpt lat="36.9422060" lon="-2.4614460">
        <ele>125.0</ele>
        <time>2019-10-18T18:35:39Z</time>
      </trkpt>
      <trkpt lat="36.9422040" lon="-2.4614510">
        <ele>125.0</ele>
        <time>2019-10-18T18:35:40Z</time>
      </trkpt>
      <trkpt lat="36.9422040" lon="-2.4614650">
        <ele>125.0</ele>
        <time>2019-10-18T18:35:41Z</time>
      </trkpt>
      <trkpt lat="36.9422070" lon="-2.4614830">
        <ele>125.1</ele>
        <time>2019-10-18T18:35:42Z</time>
      </trkpt>
      <trkpt lat="36.9422170" lon="-2.4615020">
        <ele>125.2</ele>
        <time>2019-10-18T18:35:43Z</time>
      </trkpt>
      <trkpt lat="36.9422360" lon="-2.4615190">
        <ele>125.3</ele>
        <time>2019-10-18T18:35:44Z</time>
      </trkpt>
      <trkpt lat="36.9422630" lon="-2.4615350">
        <ele>125.4</ele>
        <time>2019-10-18T18:35:45Z</time>
      </trkpt>
      <trkpt lat="36.9422960" lon="-2.4615550">
        <ele>125.6</ele>
        <time>2019-10-18T18:35:46Z</time>
      </trkpt>
      <trkpt lat="36.9423320" lon="-2.4615810">
        <ele>125.8</ele>
        <time>2019-10-18T18:35:47Z</time>
      </trkpt>
      <trkpt lat="36.9423690" lon="-2.4616110">
        <ele>126.0</ele>
        <time>2019-10-18T18:35:48Z</time>
      </trkpt>
      <trkpt lat="36.9424080" lon="-2.4616430">
        <ele>126.2</ele>
        <time>2019-10-18T18:35:49Z</time>
      </trkpt>
      <trkpt lat="36.9424490" lon="-2.4616770">
        <ele>126.4</ele>
        <time>2019-10-18T18:35:50Z</time>
      </trkpt>
      <trkpt lat="36.9424910" lon="-2.4617110">
        <ele>126.7</ele>
        <time>2019-10-18T18:35:51Z</time>
      </trkpt>
      <trkpt lat="36.9425320" lon="-2.4617460">
        <ele>126.9</ele>
        <time>2019-10-18T18:35:52Z</time>
      </trkpt>
      <trkpt lat="36.9425720" lon="-2.4617810">
        <ele>127.2</ele>
        <time>2019-10-18T18:35:53Z</time>
      </trkpt>
      <trkpt lat="36.9426120" lon="-2.4618150">
        <ele>127.5</ele>
        <time>2019-10-18T18:35:54Z</time>
      </trkpt>
      <trkpt lat="36.9426520" lon="-2.4618490">
        <ele>127.8</ele>
        <time>2019-10-18T18:35:55Z</time>
      </trkpt>
      <trkpt lat="36.9426900" lon="-2.4618830">
        <ele>128.1</ele>
        <time>2019-10-18T18:35:56Z</time>
      </trkpt>
      <trkpt lat="36.9427280" lon="-2.4619160">
        <ele>128.4</ele>
        <time>2019-10-18T18:35:57Z</time>
      </trkpt>
      <trkpt lat="36.9427660" lon="-2.4619480">
        <ele>128.7</ele>
        <time>2019-10-18T18:35:58Z</time>
      </trkpt>
      <trkpt lat="36.9428030" lon="-2.4619780">
        <ele>128.9</ele>
        <time>2019-10-18T18:35:59Z</time>
      </trkpt>
      <trkpt lat="36.9428390" lon="-2.4620070">
        <ele>129.1</ele>
        <time>2019-10-18T18:36:00Z</time>
      </trkpt>
      <trkpt lat="36.9428720" lon="-2.4620350">
        <ele>129.3</ele>
        <time>2019-10-18T18:36:01Z</time>
      </trkpt>
      <trkpt lat="36.9429040" lon="-2.4620620">
        <ele>129.5</ele>
        <time>2019-10-18T18:36:02Z</time>
      </trkpt>
      <trkpt lat="36.9429330" lon="-2.4620870">
        <ele>129.8</ele>
        <time>2019-10-18T18:36:03Z</time>
      </trkpt>
      <trkpt lat="36.9429600" lon="-2.4621090">
        <ele>129.7</ele>
        <time>2019-10-18T18:36:04Z</time>
      </trkpt>
      <trkpt lat="36.9429850" lon="-2.4621260">
        <ele>129.7</ele>
        <time>2019-10-18T18:36:05Z</time>
      </trkpt>
      <trkpt lat="36.9430080" lon="-2.4621350">
        <ele>129.7</ele>
        <time>2019-10-18T18:36:06Z</time>
      </trkpt>
      <trkpt lat="36.9430300" lon="-2.4621330">
        <ele>129.7</ele>
        <time>2019-10-18T18:36:07Z</time>
      </trkpt>
      <trkpt lat="36.9430450" lon="-2.4621210">
        <ele>129.7</ele>
        <time>2019-10-18T18:36:08Z</time>
      </trkpt>
      <trkpt lat="36.9430490" lon="-2.4621060">
        <ele>129.7</ele>
        <time>2019-10-18T18:36:09Z</time>
      </trkpt>
      <trkpt lat="36.9430420" lon="-2.4620900">
        <ele>129.7</ele>
        <time>2019-10-18T18:36:10Z</time>
      </trkpt>
      <trkpt lat="36.9430250" lon="-2.4620780">
        <ele>129.7</ele>
        <time>2019-10-18T18:36:11Z</time>
      </trkpt>
      <trkpt lat="36.9430020" lon="-2.4620670">
        <ele>129.7</ele>
        <time>2019-10-18T18:36:12Z</time>
      </trkpt>
      <trkpt lat="36.9429760" lon="-2.4620580">
        <ele>129.7</ele>
        <time>2019-10-18T18:36:13Z</time>
      </trkpt>
      <trkpt lat="36.9429460" lon="-2.4620430">
        <ele>129.7</ele>
        <time>2019-10-18T18:36:14Z</time>
      </trkpt>
      <trkpt lat="36.9429130" lon="-2.4620190">
        <ele>130.3</ele>
        <time>2019-10-18T18:36:15Z</time>
      </trkpt>
      <trkpt lat="36.9428760" lon="-2.4619870">
        <ele>130.2</ele>
        <time>2019-10-18T18:36:16Z</time>
      </trkpt>
      <trkpt lat="36.9428350" lon="-2.4619500">
        <ele>130.1</ele>
        <time>2019-10-18T18:36:17Z</time>
      </trkpt>
      <trkpt lat="36.9427900" lon="-2.4619110">
        <ele>130.0</ele>
        <time>2019-10-18T18:36:18Z</time>
      </trkpt>
      <trkpt lat="36.9427430" lon="-2.4618700">
        <ele>129.8</ele>
        <time>2019-10-18T18:36:19Z</time>
      </trkpt>
      <trkpt lat="36.9426910" lon="-2.4618270">
        <ele>129.7</ele>
        <time>2019-10-18T18:36:20Z</time>
      </trkpt>
      <trkpt lat="36.9426370" lon="-2.4617810">
        <ele>129.6</ele>
        <time>2019-10-18T18:36:21Z</time>
      </trkpt>
      <trkpt lat="36.9425790" lon="-2.4617330">
        <ele>129.3</ele>
        <time>2019-10-18T18:36:22Z</time>
      </trkpt>
      <trkpt lat="36.9425190" lon="-2.4616810">
        <ele>129.0</ele>
        <time>2019-10-18T18:36:23Z</time>
      </trkpt>
      <trkpt lat="36.9424570" lon="-2.4616290">
        <ele>128.8</ele>
        <time>2019-10-18T18:36:24Z</time>
      </trkpt>
      <trkpt lat="36.9423930" lon="-2.4615740">
        <ele>128.5</ele>
        <time>2019-10-18T18:36:25Z</time>
      </trkpt>
      <trkpt lat="36.9423290" lon="-2.4615180">
        <ele>128.2</ele>
        <time>2019-10-18T18:36:26Z</time>
      </trkpt>
      <trkpt lat="36.9422640" lon="-2.4614610">
        <ele>127.8</ele>
        <time>2019-10-18T18:36:27Z</time>
      </trkpt>
      <trkpt lat="36.9422000" lon="-2.4614050">
        <ele>127.4</ele>
        <time>2019-10-18T18:36:28Z</time>
      </trkpt>
      <trkpt lat="36.9421340" lon="-2.4613500">
        <ele>126.8</ele>
        <time>2019-10-18T18:36:29Z</time>
      </trkpt>
      <trkpt lat="36.9420690" lon="-2.4612960">
        <ele>126.3</ele>
        <time>2019-10-18T18:36:30Z</time>
      </trkpt>
      <trkpt lat="36.9420050" lon="-2.4612430">
        <ele>125.7</ele>
        <time>2019-10-18T18:36:31Z</time>
      </trkpt>
      <trkpt lat="36.9419430" lon="-2.4611910">
        <ele>125.3</ele>
        <time>2019-10-18T18:36:32Z</time>
      </trkpt>
      <trkpt lat="36.9418830" lon="-2.4611410">
        <ele>124.9</ele>
        <time>2019-10-18T18:36:33Z</time>
      </trkpt>
      <trkpt lat="36.9418260" lon="-2.4610940">
        <ele>124.4</ele>
        <time>2019-10-18T18:36:34Z</time>
      </trkpt>
      <trkpt lat="36.9417690" lon="-2.4610480">
        <ele>124.0</ele>
        <time>2019-10-18T18:36:35Z</time>
      </trkpt>
      <trkpt lat="36.9417140" lon="-2.4610040">
        <ele>123.6</ele>
        <time>2019-10-18T18:36:36Z</time>
      </trkpt>
      <trkpt lat="36.9416590" lon="-2.4609610">
        <ele>123.3</ele>
        <time>2019-10-18T18:36:37Z</time>
      </trkpt>
      <trkpt lat="36.9416050" lon="-2.4609160">
        <ele>122.9</ele>
        <time>2019-10-18T18:36:38Z</time>
      </trkpt>
      <trkpt lat="36.9415530" lon="-2.4608710">
        <ele>122.5</ele>
        <time>2019-10-18T18:36:39Z</time>
      </trkpt>
      <trkpt lat="36.9415010" lon="-2.4608240">
        <ele>122.3</ele>
        <time>2019-10-18T18:36:40Z</time>
      </trkpt>
      <trkpt lat="36.9414480" lon="-2.4607780">
        <ele>122.0</ele>
        <time>2019-10-18T18:36:41Z</time>
      </trkpt>
      <trkpt lat="36.9413940" lon="-2.4607320">
        <ele>121.8</ele>
        <time>2019-10-18T18:36:42Z</time>
      </trkpt>
      <trkpt lat="36.9413390" lon="-2.4606860">
        <ele>121.7</ele>
        <time>2019-10-18T18:36:43Z</time>
      </trkpt>
      <trkpt lat="36.9412840" lon="-2.4606390">
        <ele>121.5</ele>
        <time>2019-10-18T18:36:44Z</time>
      </trkpt>
      <trkpt lat="36.9412290" lon="-2.4605930">
        <ele>121.3</ele>
        <time>2019-10-18T18:36:45Z</time>
      </trkpt>
      <trkpt lat="36.9411750" lon="-2.4605460">
        <ele>121.2</ele>
        <time>2019-10-18T18:36:46Z</time>
      </trkpt>
      <trkpt lat="36.9411200" lon="-2.4605000">
        <ele>121.1</ele>
        <time>2019-10-18T18:36:47Z</time>
      </trkpt>
      <trkpt lat="36.9410650" lon="-2.4604550">
        <ele>121.0</ele>
        <time>2019-10-18T18:36:48Z</time>
      </trkpt>
      <trkpt lat="36.9410110" lon="-2.4604100">
        <ele>120.9</ele>
        <time>2019-10-18T18:36:49Z</time>
      </trkpt>
      <trkpt lat="36.9409560" lon="-2.4603650">
        <ele>120.8</ele>
        <time>2019-10-18T18:36:50Z</time>
      </trkpt>
      <trkpt lat="36.9409010" lon="-2.4603190">
        <ele>120.8</ele>
        <time>2019-10-18T18:36:51Z</time>
      </trkpt>
      <trkpt lat="36.9408460" lon="-2.4602720">
        <ele>120.7</ele>
        <time>2019-10-18T18:36:52Z</time>
      </trkpt>
      <trkpt lat="36.9407910" lon="-2.4602250">
        <ele>120.7</ele>
        <time>2019-10-18T18:36:53Z</time>
      </trkpt>
      <trkpt lat="36.9407360" lon="-2.4601770">
        <ele>120.7</ele>
        <time>2019-10-18T18:36:54Z</time>
      </trkpt>
      <trkpt lat="36.9406810" lon="-2.4601300">
        <ele>120.7</ele>
        <time>2019-10-18T18:36:55Z</time>
      </trkpt>
      <trkpt lat="36.9406250" lon="-2.4600830">
        <ele>120.7</ele>
        <time>2019-10-18T18:36:56Z</time>
      </trkpt>
      <trkpt lat="36.9405710" lon="-2.4600350">
        <ele>120.7</ele>
        <time>2019-10-18T18:36:57Z</time>
      </trkpt>
      <trkpt lat="36.9405160" lon="-2.4599870">
        <ele>120.7</ele>
        <time>2019-10-18T18:36:58Z</time>
      </trkpt>
      <trkpt lat="36.9404620" lon="-2.4599390">
        <ele>120.7</ele>
        <time>2019-10-18T18:36:59Z</time>
      </trkpt>
      <trkpt lat="36.9404070" lon="-2.4598910">
        <ele>120.7</ele>
        <time>2019-10-18T18:37:00Z</time>
      </trkpt>
      <trkpt lat="36.9403530" lon="-2.4598440">
        <ele>120.7</ele>
        <time>2019-10-18T18:37:01Z</time>
      </trkpt>
      <trkpt lat="36.9402960" lon="-2.4597960">
        <ele>120.7</ele>
        <time>2019-10-18T18:37:02Z</time>
      </trkpt>
      <trkpt lat="36.9402410" lon="-2.4597490">
        <ele>120.7</ele>
        <time>2019-10-18T18:37:03Z</time>
      </trkpt>
      <trkpt lat="36.9401860" lon="-2.4597000">
        <ele>120.7</ele>
        <time>2019-10-18T18:37:04Z</time>
      </trkpt>
      <trkpt lat="36.9401320" lon="-2.4596500">
        <ele>120.7</ele>
        <time>2019-10-18T18:37:05Z</time>
      </trkpt>
      <trkpt lat="36.9400770" lon="-2.4596000">
        <ele>120.7</ele>
        <time>2019-10-18T18:37:06Z</time>
      </trkpt>
      <trkpt lat="36.9400260" lon="-2.4595480">
        <ele>120.7</ele>
        <time>2019-10-18T18:37:07Z</time>
      </trkpt>
      <trkpt lat="36.9399760" lon="-2.4594960">
        <ele>120.7</ele>
        <time>2019-10-18T18:37:08Z</time>
      </trkpt>
      <trkpt lat="36.9399250" lon="-2.4594450">
        <ele>120.7</ele>
        <time>2019-10-18T18:37:09Z</time>
      </trkpt>
      <trkpt lat="36.9398700" lon="-2.4593950">
        <ele>120.7</ele>
        <time>2019-10-18T18:37:10Z</time>
      </trkpt>
      <trkpt lat="36.9398150" lon="-2.4593450">
        <ele>120.7</ele>
        <time>2019-10-18T18:37:11Z</time>
      </trkpt>
      <trkpt lat="36.9397600" lon="-2.4592950">
        <ele>120.7</ele>
        <time>2019-10-18T18:37:12Z</time>
      </trkpt>
      <trkpt lat="36.9397040" lon="-2.4592460">
        <ele>120.7</ele>
        <time>2019-10-18T18:37:13Z</time>
      </trkpt>
      <trkpt lat="36.9396480" lon="-2.4591970">
        <ele>120.7</ele>
        <time>2019-10-18T18:37:14Z</time>
      </trkpt>
      <trkpt lat="36.9395900" lon="-2.4591480">
        <ele>120.7</ele>
        <time>2019-10-18T18:37:15Z</time>
      </trkpt>
      <trkpt lat="36.9395310" lon="-2.4590990">
        <ele>120.7</ele>
        <time>2019-10-18T18:37:16Z</time>
      </trkpt>
      <trkpt lat="36.9394730" lon="-2.4590490">
        <ele>120.7</ele>
        <time>2019-10-18T18:37:17Z</time>
      </trkpt>
      <trkpt lat="36.9394160" lon="-2.4590000">
        <ele>120.7</ele>
        <time>2019-10-18T18:37:18Z</time>
      </trkpt>
      <trkpt lat="36.9393610" lon="-2.4589510">
        <ele>120.6</ele>
        <time>2019-10-18T18:37:19Z</time>
      </trkpt>
      <trkpt lat="36.9393080" lon="-2.4589000">
        <ele>120.6</ele>
        <time>2019-10-18T18:37:20Z</time>
      </trkpt>
      <trkpt lat="36.9392540" lon="-2.4588470">
        <ele>120.6</ele>
        <time>2019-10-18T18:37:21Z</time>
      </trkpt>
      <trkpt lat="36.9392050" lon="-2.4587870">
        <ele>120.6</ele>
        <time>2019-10-18T18:37:22Z</time>
      </trkpt>
      <trkpt lat="36.9391600" lon="-2.4587200">
        <ele>120.6</ele>
        <time>2019-10-18T18:37:23Z</time>
      </trkpt>
      <trkpt lat="36.9391220" lon="-2.4586490">
        <ele>120.6</ele>
        <time>2019-10-18T18:37:24Z</time>
      </trkpt>
      <trkpt lat="36.9390880" lon="-2.4585760">
        <ele>120.6</ele>
        <time>2019-10-18T18:37:25Z</time>
      </trkpt>
      <trkpt lat="36.9390560" lon="-2.4585030">
        <ele>120.5</ele>
        <time>2019-10-18T18:37:26Z</time>
      </trkpt>
      <trkpt lat="36.9390280" lon="-2.4584300">
        <ele>120.5</ele>
        <time>2019-10-18T18:37:27Z</time>
      </trkpt>
      <trkpt lat="36.9390020" lon="-2.4583550">
        <ele>120.4</ele>
        <time>2019-10-18T18:37:28Z</time>
      </trkpt>
      <trkpt lat="36.9389760" lon="-2.4582790">
        <ele>120.3</ele>
        <time>2019-10-18T18:37:29Z</time>
      </trkpt>
      <trkpt lat="36.9389490" lon="-2.4582040">
        <ele>120.2</ele>
        <time>2019-10-18T18:37:30Z</time>
      </trkpt>
      <trkpt lat="36.9389200" lon="-2.4581290">
        <ele>120.1</ele>
        <time>2019-10-18T18:37:31Z</time>
      </trkpt>
      <trkpt lat="36.9388880" lon="-2.4580550">
        <ele>120.0</ele>
        <time>2019-10-18T18:37:32Z</time>
      </trkpt>
      <trkpt lat="36.9388540" lon="-2.4579830">
        <ele>119.9</ele>
        <time>2019-10-18T18:37:33Z</time>
      </trkpt>
      <trkpt lat="36.9388150" lon="-2.4579140">
        <ele>119.8</ele>
        <time>2019-10-18T18:37:34Z</time>
      </trkpt>
      <trkpt lat="36.9387720" lon="-2.4578490">
        <ele>119.8</ele>
        <time>2019-10-18T18:37:35Z</time>
      </trkpt>
      <trkpt lat="36.9387260" lon="-2.4577890">
        <ele>119.7</ele>
        <time>2019-10-18T18:37:36Z</time>
      </trkpt>
      <trkpt lat="36.9386770" lon="-2.4577310">
        <ele>119.7</ele>
        <time>2019-10-18T18:37:37Z</time>
      </trkpt>
      <trkpt lat="36.9386290" lon="-2.4576750">
        <ele>119.7</ele>
        <time>2019-10-18T18:37:38Z</time>
      </trkpt>
      <trkpt lat="36.9385800" lon="-2.4576220">
        <ele>119.6</ele>
        <time>2019-10-18T18:37:39Z</time>
      </trkpt>
      <trkpt lat="36.9385310" lon="-2.4575690">
        <ele>119.6</ele>
        <time>2019-10-18T18:37:40Z</time>
      </trkpt>
      <trkpt lat="36.9384830" lon="-2.4575170">
        <ele>119.6</ele>
        <time>2019-10-18T18:37:41Z</time>
      </trkpt>
      <trkpt lat="36.9384350" lon="-2.4574650">
        <ele>119.6</ele>
        <time>2019-10-18T18:37:42Z</time>
      </trkpt>
      <trkpt lat="36.9383860" lon="-2.4574140">
        <ele>119.6</ele>
        <time>2019-10-18T18:37:43Z</time>
      </trkpt>
      <trkpt lat="36.9383390" lon="-2.4573650">
        <ele>119.6</ele>
        <time>2019-10-18T18:37:44Z</time>
      </trkpt>
      <trkpt lat="36.9382930" lon="-2.4573160">
        <ele>119.6</ele>
        <time>2019-10-18T18:37:45Z</time>
      </trkpt>
      <trkpt lat="36.9382490" lon="-2.4572660">
        <ele>119.6</ele>
        <time>2019-10-18T18:37:46Z</time>
      </trkpt>
      <trkpt lat="36.9382060" lon="-2.4572140">
        <ele>119.6</ele>
        <time>2019-10-18T18:37:47Z</time>
      </trkpt>
      <trkpt lat="36.9381660" lon="-2.4571610">
        <ele>119.6</ele>
        <time>2019-10-18T18:37:48Z</time>
      </trkpt>
      <trkpt lat="36.9381300" lon="-2.4571050">
        <ele>119.6</ele>
        <time>2019-10-18T18:37:49Z</time>
      </trkpt>
      <trkpt lat="36.9380970" lon="-2.4570480">
        <ele>119.6</ele>
        <time>2019-10-18T18:37:50Z</time>
      </trkpt>
      <trkpt lat="36.9380670" lon="-2.4569890">
        <ele>119.6</ele>
        <time>2019-10-18T18:37:51Z</time>
      </trkpt>
      <trkpt lat="36.9380390" lon="-2.4569290">
        <ele>119.6</ele>
        <time>2019-10-18T18:37:52Z</time>
      </trkpt>
      <trkpt lat="36.9380130" lon="-2.4568670">
        <ele>119.6</ele>
        <time>2019-10-18T18:37:53Z</time>
      </trkpt>
      <trkpt lat="36.9379890" lon="-2.4568040">
        <ele>119.6</ele>
        <time>2019-10-18T18:37:54Z</time>
      </trkpt>
      <trkpt lat="36.9379680" lon="-2.4567400">
        <ele>119.6</ele>
        <time>2019-10-18T18:37:55Z</time>
      </trkpt>
      <trkpt lat="36.9379500" lon="-2.4566740">
        <ele>119.6</ele>
        <time>2019-10-18T18:37:56Z</time>
      </trkpt>
      <trkpt lat="36.9379360" lon="-2.4566050">
        <ele>119.6</ele>
        <time>2019-10-18T18:37:57Z</time>
      </trkpt>
      <trkpt lat="36.9379240" lon="-2.4565360">
        <ele>119.5</ele>
        <time>2019-10-18T18:37:58Z</time>
      </trkpt>
      <trkpt lat="36.9379140" lon="-2.4564650">
        <ele>119.5</ele>
        <time>2019-10-18T18:37:59Z</time>
      </trkpt>
      <trkpt lat="36.9379080" lon="-2.4563940">
        <ele>119.5</ele>
        <time>2019-10-18T18:38:00Z</time>
      </trkpt>
      <trkpt lat="36.9379060" lon="-2.4563220">
        <ele>119.5</ele>
        <time>2019-10-18T18:38:01Z</time>
      </trkpt>
      <trkpt lat="36.9379070" lon="-2.4562490">
        <ele>119.4</ele>
        <time>2019-10-18T18:38:02Z</time>
      </trkpt>
      <trkpt lat="36.9379120" lon="-2.4561750">
        <ele>119.4</ele>
        <time>2019-10-18T18:38:03Z</time>
      </trkpt>
      <trkpt lat="36.9379180" lon="-2.4561010">
        <ele>119.3</ele>
        <time>2019-10-18T18:38:04Z</time>
      </trkpt>
      <trkpt lat="36.9379230" lon="-2.4560260">
        <ele>119.3</ele>
        <time>2019-10-18T18:38:05Z</time>
      </trkpt>
      <trkpt lat="36.9379280" lon="-2.4559510">
        <ele>119.2</ele>
        <time>2019-10-18T18:38:06Z</time>
      </trkpt>
      <trkpt lat="36.9379330" lon="-2.4558750">
        <ele>119.1</ele>
        <time>2019-10-18T18:38:07Z</time>
      </trkpt>
      <trkpt lat="36.9379380" lon="-2.4557990">
        <ele>119.0</ele>
        <time>2019-10-18T18:38:08Z</time>
      </trkpt>
      <trkpt lat="36.9379430" lon="-2.4557220">
        <ele>119.0</ele>
        <time>2019-10-18T18:38:09Z</time>
      </trkpt>
      <trkpt lat="36.9379490" lon="-2.4556440">
        <ele>118.9</ele>
        <time>2019-10-18T18:38:10Z</time>
      </trkpt>
      <trkpt lat="36.9379560" lon="-2.4555650">
        <ele>118.8</ele>
        <time>2019-10-18T18:38:11Z</time>
      </trkpt>
      <trkpt lat="36.9379640" lon="-2.4554860">
        <ele>118.8</ele>
        <time>2019-10-18T18:38:12Z</time>
      </trkpt>
      <trkpt lat="36.9379710" lon="-2.4554070">
        <ele>118.8</ele>
        <time>2019-10-18T18:38:13Z</time>
      </trkpt>
      <trkpt lat="36.9379800" lon="-2.4553270">
        <ele>118.7</ele>
        <time>2019-10-18T18:38:14Z</time>
      </trkpt>
      <trkpt lat="36.9379890" lon="-2.4552460">
        <ele>118.7</ele>
        <time>2019-10-18T18:38:15Z</time>
      </trkpt>
      <trkpt lat="36.9379970" lon="-2.4551650">
        <ele>118.7</ele>
        <time>2019-10-18T18:38:16Z</time>
      </trkpt>
      <trkpt lat="36.9380050" lon="-2.4550830">
        <ele>118.7</ele>
        <time>2019-10-18T18:38:17Z</time>
      </trkpt>
      <trkpt lat="36.9380130" lon="-2.4550010">
        <ele>118.7</ele>
        <time>2019-10-18T18:38:18Z</time>
      </trkpt>
      <trkpt lat="36.9380190" lon="-2.4549180">
        <ele>118.7</ele>
        <time>2019-10-18T18:38:19Z</time>
      </trkpt>
      <trkpt lat="36.9380250" lon="-2.4548360">
        <ele>118.7</ele>
        <time>2019-10-18T18:38:20Z</time>
      </trkpt>
      <trkpt lat="36.9380310" lon="-2.4547540">
        <ele>118.7</ele>
        <time>2019-10-18T18:38:21Z</time>
      </trkpt>
      <trkpt lat="36.9380380" lon="-2.4546720">
        <ele>118.7</ele>
        <time>2019-10-18T18:38:22Z</time>
      </trkpt>
      <trkpt lat="36.9380450" lon="-2.4545910">
        <ele>118.7</ele>
        <time>2019-10-18T18:38:23Z</time>
      </trkpt>
      <trkpt lat="36.9380530" lon="-2.4545100">
        <ele>118.7</ele>
        <time>2019-10-18T18:38:24Z</time>
      </trkpt>
      <trkpt lat="36.9380580" lon="-2.4544280">
        <ele>118.8</ele>
        <time>2019-10-18T18:38:25Z</time>
      </trkpt>
      <trkpt lat="36.9380630" lon="-2.4543470">
        <ele>118.8</ele>
        <time>2019-10-18T18:38:26Z</time>
      </trkpt>
      <trkpt lat="36.9380660" lon="-2.4542670">
        <ele>118.9</ele>
        <time>2019-10-18T18:38:27Z</time>
      </trkpt>
      <trkpt lat="36.9380690" lon="-2.4541880">
        <ele>118.9</ele>
        <time>2019-10-18T18:38:28Z</time>
      </trkpt>
      <trkpt lat="36.9380710" lon="-2.4541090">
        <ele>119.0</ele>
        <time>2019-10-18T18:38:29Z</time>
      </trkpt>
      <trkpt lat="36.9380720" lon="-2.4540300">
        <ele>119.1</ele>
        <time>2019-10-18T18:38:30Z</time>
      </trkpt>
      <trkpt lat="36.9380710" lon="-2.4539520">
        <ele>119.2</ele>
        <time>2019-10-18T18:38:31Z</time>
      </trkpt>
      <trkpt lat="36.9380700" lon="-2.4538740">
        <ele>119.3</ele>
        <time>2019-10-18T18:38:32Z</time>
      </trkpt>
      <trkpt lat="36.9380670" lon="-2.4537970">
        <ele>119.3</ele>
        <time>2019-10-18T18:38:33Z</time>
      </trkpt>
      <trkpt lat="36.9380640" lon="-2.4537200">
        <ele>119.4</ele>
        <time>2019-10-18T18:38:34Z</time>
      </trkpt>
      <trkpt lat="36.9380600" lon="-2.4536440">
        <ele>119.5</ele>
        <time>2019-10-18T18:38:35Z</time>
      </trkpt>
      <trkpt lat="36.9380550" lon="-2.4535680">
        <ele>119.5</ele>
        <time>2019-10-18T18:38:36Z</time>
      </trkpt>
      <trkpt lat="36.9380490" lon="-2.4534930">
        <ele>119.6</ele>
        <time>2019-10-18T18:38:37Z</time>
      </trkpt>
      <trkpt lat="36.9380430" lon="-2.4534170">
        <ele>119.6</ele>
        <time>2019-10-18T18:38:38Z</time>
      </trkpt>
      <trkpt lat="36.9380370" lon="-2.4533410">
        <ele>119.6</ele>
        <time>2019-10-18T18:38:39Z</time>
      </trkpt>
      <trkpt lat="36.9380320" lon="-2.4532660">
        <ele>119.6</ele>
        <time>2019-10-18T18:38:40Z</time>
      </trkpt>
      <trkpt lat="36.9380270" lon="-2.4531900">
        <ele>119.7</ele>
        <time>2019-10-18T18:38:41Z</time>
      </trkpt>
      <trkpt lat="36.9380210" lon="-2.4531140">
        <ele>119.7</ele>
        <time>2019-10-18T18:38:42Z</time>
      </trkpt>
      <trkpt lat="36.9380160" lon="-2.4530380">
        <ele>119.7</ele>
        <time>2019-10-18T18:38:43Z</time>
      </trkpt>
      <trkpt lat="36.9380100" lon="-2.4529630">
        <ele>119.7</ele>
        <time>2019-10-18T18:38:44Z</time>
      </trkpt>
      <trkpt lat="36.9380040" lon="-2.4528880">
        <ele>119.7</ele>
        <time>2019-10-18T18:38:45Z</time>
      </trkpt>
      <trkpt lat="36.9379970" lon="-2.4528120">
        <ele>119.6</ele>
        <time>2019-10-18T18:38:46Z</time>
      </trkpt>
      <trkpt lat="36.9379880" lon="-2.4527350">
        <ele>119.6</ele>
        <time>2019-10-18T18:38:47Z</time>
      </trkpt>
      <trkpt lat="36.9379760" lon="-2.4526600">
        <ele>119.6</ele>
        <time>2019-10-18T18:38:48Z</time>
      </trkpt>
      <trkpt lat="36.9379610" lon="-2.4525850">
        <ele>119.5</ele>
        <time>2019-10-18T18:38:49Z</time>
      </trkpt>
      <trkpt lat="36.9379440" lon="-2.4525110">
        <ele>119.5</ele>
        <time>2019-10-18T18:38:50Z</time>
      </trkpt>
      <trkpt lat="36.9379240" lon="-2.4524390">
        <ele>119.4</ele>
        <time>2019-10-18T18:38:51Z</time>
      </trkpt>
      <trkpt lat="36.9379010" lon="-2.4523690">
        <ele>119.3</ele>
        <time>2019-10-18T18:38:52Z</time>
      </trkpt>
      <trkpt lat="36.9378740" lon="-2.4523010">
        <ele>119.3</ele>
        <time>2019-10-18T18:38:53Z</time>
      </trkpt>
      <trkpt lat="36.9378450" lon="-2.4522360">
        <ele>119.2</ele>
        <time>2019-10-18T18:38:54Z</time>
      </trkpt>
      <trkpt lat="36.9378130" lon="-2.4521720">
        <ele>119.1</ele>
        <time>2019-10-18T18:38:55Z</time>
      </trkpt>
      <trkpt lat="36.9377790" lon="-2.4521120">
        <ele>119.1</ele>
        <time>2019-10-18T18:38:56Z</time>
      </trkpt>
      <trkpt lat="36.9377420" lon="-2.4520540">
        <ele>119.0</ele>
        <time>2019-10-18T18:38:57Z</time>
      </trkpt>
      <trkpt lat="36.9377030" lon="-2.4520010">
        <ele>118.9</ele>
        <time>2019-10-18T18:38:58Z</time>
      </trkpt>
      <trkpt lat="36.9376610" lon="-2.4519500">
        <ele>118.9</ele>
        <time>2019-10-18T18:38:59Z</time>
      </trkpt>
      <trkpt lat="36.9376170" lon="-2.4519020">
        <ele>118.9</ele>
        <time>2019-10-18T18:39:00Z</time>
      </trkpt>
      <trkpt lat="36.9375720" lon="-2.4518550">
        <ele>118.8</ele>
        <time>2019-10-18T18:39:01Z</time>
      </trkpt>
      <trkpt lat="36.9375250" lon="-2.4518120">
        <ele>118.8</ele>
        <time>2019-10-18T18:39:02Z</time>
      </trkpt>
      <trkpt lat="36.9374750" lon="-2.4517720">
        <ele>118.8</ele>
        <time>2019-10-18T18:39:03Z</time>
      </trkpt>
      <trkpt lat="36.9374250" lon="-2.4517350">
        <ele>118.8</ele>
        <time>2019-10-18T18:39:04Z</time>
      </trkpt>
      <trkpt lat="36.9373730" lon="-2.4517010">
        <ele>118.8</ele>
        <time>2019-10-18T18:39:05Z</time>
      </trkpt>
      <trkpt lat="36.9373190" lon="-2.4516690">
        <ele>118.8</ele>
        <time>2019-10-18T18:39:06Z</time>
      </trkpt>
      <trkpt lat="36.9372640" lon="-2.4516410">
        <ele>118.8</ele>
        <time>2019-10-18T18:39:07Z</time>
      </trkpt>
      <trkpt lat="36.9372070" lon="-2.4516190">
        <ele>118.8</ele>
        <time>2019-10-18T18:39:08Z</time>
      </trkpt>
      <trkpt lat="36.9371500" lon="-2.4516020">
        <ele>118.8</ele>
        <time>2019-10-18T18:39:09Z</time>
      </trkpt>
      <trkpt lat="36.9370910" lon="-2.4515880">
        <ele>118.8</ele>
        <time>2019-10-18T18:39:10Z</time>
      </trkpt>
      <trkpt lat="36.9370320" lon="-2.4515770">
        <ele>118.8</ele>
        <time>2019-10-18T18:39:11Z</time>
      </trkpt>
      <trkpt lat="36.9369710" lon="-2.4515680">
        <ele>118.9</ele>
        <time>2019-10-18T18:39:12Z</time>
      </trkpt>
      <trkpt lat="36.9369090" lon="-2.4515620">
        <ele>119.1</ele>
        <time>2019-10-18T18:39:13Z</time>
      </trkpt>
      <trkpt lat="36.9368440" lon="-2.4515590">
        <ele>119.2</ele>
        <time>2019-10-18T18:39:14Z</time>
      </trkpt>
      <trkpt lat="36.9367770" lon="-2.4515590">
        <ele>119.4</ele>
        <time>2019-10-18T18:39:15Z</time>
      </trkpt>
      <trkpt lat="36.9367090" lon="-2.4515600">
        <ele>119.5</ele>
        <time>2019-10-18T18:39:16Z</time>
      </trkpt>
      <trkpt lat="36.9366390" lon="-2.4515610">
        <ele>119.6</ele>
        <time>2019-10-18T18:39:17Z</time>
      </trkpt>
      <trkpt lat="36.9365700" lon="-2.4515610">
        <ele>119.7</ele>
        <time>2019-10-18T18:39:18Z</time>
      </trkpt>
      <trkpt lat="36.9365020" lon="-2.4515600">
        <ele>119.7</ele>
        <time>2019-10-18T18:39:19Z</time>
      </trkpt>
      <trkpt lat="36.9364350" lon="-2.4515560">
        <ele>119.7</ele>
        <time>2019-10-18T18:39:20Z</time>
      </trkpt>
      <trkpt lat="36.9363710" lon="-2.4515500">
        <ele>119.7</ele>
        <time>2019-10-18T18:39:21Z</time>
      </trkpt>
      <trkpt lat="36.9363090" lon="-2.4515440">
        <ele>119.7</ele>
        <time>2019-10-18T18:39:22Z</time>
      </trkpt>
      <trkpt lat="36.9362490" lon="-2.4515360">
        <ele>119.6</ele>
        <time>2019-10-18T18:39:23Z</time>
      </trkpt>
      <trkpt lat="36.9361910" lon="-2.4515270">
        <ele>119.6</ele>
        <time>2019-10-18T18:39:24Z</time>
      </trkpt>
      <trkpt lat="36.9361350" lon="-2.4515160">
        <ele>119.5</ele>
        <time>2019-10-18T18:39:25Z</time>
      </trkpt>
      <trkpt lat="36.9360810" lon="-2.4515010">
        <ele>119.4</ele>
        <time>2019-10-18T18:39:26Z</time>
      </trkpt>
      <trkpt lat="36.9360290" lon="-2.4514820">
        <ele>119.3</ele>
        <time>2019-10-18T18:39:27Z</time>
      </trkpt>
      <trkpt lat="36.9359800" lon="-2.4514590">
        <ele>119.2</ele>
        <time>2019-10-18T18:39:28Z</time>
      </trkpt>
      <trkpt lat="36.9359320" lon="-2.4514330">
        <ele>119.1</ele>
        <time>2019-10-18T18:39:29Z</time>
      </trkpt>
      <trkpt lat="36.9358850" lon="-2.4514040">
        <ele>118.9</ele>
        <time>2019-10-18T18:39:30Z</time>
      </trkpt>
      <trkpt lat="36.9358380" lon="-2.4513730">
        <ele>118.8</ele>
        <time>2019-10-18T18:39:31Z</time>
      </trkpt>
      <trkpt lat="36.9357900" lon="-2.4513400">
        <ele>118.7</ele>
        <time>2019-10-18T18:39:32Z</time>
      </trkpt>
      <trkpt lat="36.9357390" lon="-2.4513040">
        <ele>118.7</ele>
        <time>2019-10-18T18:39:33Z</time>
      </trkpt>
      <trkpt lat="36.9356870" lon="-2.4512660">
        <ele>118.6</ele>
        <time>2019-10-18T18:39:34Z</time>
      </trkpt>
      <trkpt lat="36.9356330" lon="-2.4512270">
        <ele>118.6</ele>
        <time>2019-10-18T18:39:35Z</time>
      </trkpt>
      <trkpt lat="36.9355800" lon="-2.4511880">
        <ele>118.6</ele>
        <time>2019-10-18T18:39:36Z</time>
      </trkpt>
      <trkpt lat="36.9355260" lon="-2.4511500">
        <ele>118.6</ele>
        <time>2019-10-18T18:39:37Z</time>
      </trkpt>
      <trkpt lat="36.9354710" lon="-2.4511100">
        <ele>118.6</ele>
        <time>2019-10-18T18:39:38Z</time>
      </trkpt>
      <trkpt lat="36.9354170" lon="-2.4510710">
        <ele>118.6</ele>
        <time>2019-10-18T18:39:39Z</time>
      </trkpt>
      <trkpt lat="36.9353620" lon="-2.4510310">
        <ele>118.5</ele>
        <time>2019-10-18T18:39:40Z</time>
      </trkpt>
      <trkpt lat="36.9353070" lon="-2.4509920">
        <ele>118.5</ele>
        <time>2019-10-18T18:39:41Z</time>
      </trkpt>
      <trkpt lat="36.9352500" lon="-2.4509520">
        <ele>118.4</ele>
        <time>2019-10-18T18:39:42Z</time>
      </trkpt>
      <trkpt lat="36.9351930" lon="-2.4509120">
        <ele>118.3</ele>
        <time>2019-10-18T18:39:43Z</time>
      </trkpt>
      <trkpt lat="36.9351350" lon="-2.4508720">
        <ele>118.2</ele>
        <time>2019-10-18T18:39:44Z</time>
      </trkpt>
      <trkpt lat="36.9350770" lon="-2.4508300">
        <ele>118.0</ele>
        <time>2019-10-18T18:39:45Z</time>
      </trkpt>
      <trkpt lat="36.9350180" lon="-2.4507880">
        <ele>117.9</ele>
        <time>2019-10-18T18:39:46Z</time>
      </trkpt>
      <trkpt lat="36.9349590" lon="-2.4507460">
        <ele>117.7</ele>
        <time>2019-10-18T18:39:47Z</time>
      </trkpt>
      <trkpt lat="36.9349000" lon="-2.4507030">
        <ele>117.6</ele>
        <time>2019-10-18T18:39:48Z</time>
      </trkpt>
      <trkpt lat="36.9348410" lon="-2.4506610">
        <ele>117.5</ele>
        <time>2019-10-18T18:39:49Z</time>
      </trkpt>
      <trkpt lat="36.9347800" lon="-2.4506180">
        <ele>117.4</ele>
        <time>2019-10-18T18:39:50Z</time>
      </trkpt>
      <trkpt lat="36.9347190" lon="-2.4505750">
        <ele>117.3</ele>
        <time>2019-10-18T18:39:51Z</time>
      </trkpt>
      <trkpt lat="36.9346580" lon="-2.4505330">
        <ele>117.2</ele>
        <time>2019-10-18T18:39:52Z</time>
      </trkpt>
      <trkpt lat="36.9345970" lon="-2.4504900">
        <ele>117.0</ele>
        <time>2019-10-18T18:39:53Z</time>
      </trkpt>
      <trkpt lat="36.9345370" lon="-2.4504470">
        <ele>116.8</ele>
        <time>2019-10-18T18:39:54Z</time>
      </trkpt>
      <trkpt lat="36.9344760" lon="-2.4504030">
        <ele>116.7</ele>
        <time>2019-10-18T18:39:55Z</time>
      </trkpt>
      <trkpt lat="36.9344160" lon="-2.4503590">
        <ele>116.6</ele>
        <time>2019-10-18T18:39:56Z</time>
      </trkpt>
      <trkpt lat="36.9343550" lon="-2.4503150">
        <ele>116.5</ele>
        <time>2019-10-18T18:39:57Z</time>
      </trkpt>
      <trkpt lat="36.9342930" lon="-2.4502710">
        <ele>116.4</ele>
        <time>2019-10-18T18:39:58Z</time>
      </trkpt>
      <trkpt lat="36.9342320" lon="-2.4502270">
        <ele>116.4</ele>
        <time>2019-10-18T18:39:59Z</time>
      </trkpt>
      <trkpt lat="36.9341690" lon="-2.4501830">
        <ele>116.4</ele>
        <time>2019-10-18T18:40:00Z</time>
      </trkpt>
      <trkpt lat="36.9341060" lon="-2.4501390">
        <ele>116.3</ele>
        <time>2019-10-18T18:40:01Z</time>
      </trkpt>
      <trkpt lat="36.9340430" lon="-2.4500950">
        <ele>116.2</ele>
        <time>2019-10-18T18:40:02Z</time>
      </trkpt>
      <trkpt lat="36.9339800" lon="-2.4500510">
        <ele>116.1</ele>
        <time>2019-10-18T18:40:03Z</time>
      </trkpt>
      <trkpt lat="36.9339170" lon="-2.4500070">
        <ele>115.9</ele>
        <time>2019-10-18T18:40:04Z</time>
      </trkpt>
      <trkpt lat="36.9338530" lon="-2.4499630">
        <ele>115.7</ele>
        <time>2019-10-18T18:40:05Z</time>
      </trkpt>
      <trkpt lat="36.9337900" lon="-2.4499180">
        <ele>115.6</ele>
        <time>2019-10-18T18:40:06Z</time>
      </trkpt>
      <trkpt lat="36.9337260" lon="-2.4498720">
        <ele>115.5</ele>
        <time>2019-10-18T18:40:07Z</time>
      </trkpt>
      <trkpt lat="36.9336640" lon="-2.4498270">
        <ele>115.4</ele>
        <time>2019-10-18T18:40:08Z</time>
      </trkpt>
      <trkpt lat="36.9336010" lon="-2.4497820">
        <ele>115.4</ele>
        <time>2019-10-18T18:40:09Z</time>
      </trkpt>
      <trkpt lat="36.9335390" lon="-2.4497370">
        <ele>115.3</ele>
        <time>2019-10-18T18:40:10Z</time>
      </trkpt>
      <trkpt lat="36.9334760" lon="-2.4496930">
        <ele>115.3</ele>
        <time>2019-10-18T18:40:11Z</time>
      </trkpt>
      <trkpt lat="36.9334120" lon="-2.4496500">
        <ele>115.3</ele>
        <time>2019-10-18T18:40:12Z</time>
      </trkpt>
      <trkpt lat="36.9333490" lon="-2.4496070">
        <ele>115.3</ele>
        <time>2019-10-18T18:40:13Z</time>
      </trkpt>
      <trkpt lat="36.9332850" lon="-2.4495630">
        <ele>115.1</ele>
        <time>2019-10-18T18:40:14Z</time>
      </trkpt>
      <trkpt lat="36.9332220" lon="-2.4495180">
        <ele>114.8</ele>
        <time>2019-10-18T18:40:15Z</time>
      </trkpt>
      <trkpt lat="36.9331590" lon="-2.4494720">
        <ele>114.6</ele>
        <time>2019-10-18T18:40:16Z</time>
      </trkpt>
      <trkpt lat="36.9330950" lon="-2.4494260">
        <ele>114.4</ele>
        <time>2019-10-18T18:40:17Z</time>
      </trkpt>
      <trkpt lat="36.9330310" lon="-2.4493800">
        <ele>114.3</ele>
        <time>2019-10-18T18:40:18Z</time>
      </trkpt>
      <trkpt lat="36.9329670" lon="-2.4493350">
        <ele>114.2</ele>
        <time>2019-10-18T18:40:19Z</time>
      </trkpt>
      <trkpt lat="36.9329020" lon="-2.4492900">
        <ele>114.1</ele>
        <time>2019-10-18T18:40:20Z</time>
      </trkpt>
      <trkpt lat="36.9328380" lon="-2.4492450">
        <ele>113.8</ele>
        <time>2019-10-18T18:40:21Z</time>
      </trkpt>
      <trkpt lat="36.9327730" lon="-2.4492000">
        <ele>113.5</ele>
        <time>2019-10-18T18:40:22Z</time>
      </trkpt>
      <trkpt lat="36.9327070" lon="-2.4491550">
        <ele>113.2</ele>
        <time>2019-10-18T18:40:23Z</time>
      </trkpt>
      <trkpt lat="36.9326410" lon="-2.4491100">
        <ele>112.9</ele>
        <time>2019-10-18T18:40:24Z</time>
      </trkpt>
      <trkpt lat="36.9325750" lon="-2.4490640">
        <ele>112.7</ele>
        <time>2019-10-18T18:40:25Z</time>
      </trkpt>
      <trkpt lat="36.9325100" lon="-2.4490180">
        <ele>112.5</ele>
        <time>2019-10-18T18:40:26Z</time>
      </trkpt>
      <trkpt lat="36.9324450" lon="-2.4489740">
        <ele>112.5</ele>
        <time>2019-10-18T18:40:27Z</time>
      </trkpt>
      <trkpt lat="36.9323790" lon="-2.4489310">
        <ele>112.4</ele>
        <time>2019-10-18T18:40:28Z</time>
      </trkpt>
      <trkpt lat="36.9323110" lon="-2.4488880">
        <ele>112.4</ele>
        <time>2019-10-18T18:40:29Z</time>
      </trkpt>
      <trkpt lat="36.9322420" lon="-2.4488470">
        <ele>112.4</ele>
        <time>2019-10-18T18:40:30Z</time>
      </trkpt>
      <trkpt lat="36.9321730" lon="-2.4488050">
        <ele>112.4</ele>
        <time>2019-10-18T18:40:31Z</time>
      </trkpt>
      <trkpt lat="36.9321050" lon="-2.4487650">
        <ele>112.4</ele>
        <time>2019-10-18T18:40:32Z</time>
      </trkpt>
      <trkpt lat="36.9320360" lon="-2.4487240">
        <ele>112.5</ele>
        <time>2019-10-18T18:40:33Z</time>
      </trkpt>
      <trkpt lat="36.9319670" lon="-2.4486840">
        <ele>112.5</ele>
        <time>2019-10-18T18:40:34Z</time>
      </trkpt>
      <trkpt lat="36.9318970" lon="-2.4486440">
        <ele>112.5</ele>
        <time>2019-10-18T18:40:35Z</time>
      </trkpt>
      <trkpt lat="36.9318280" lon="-2.4486050">
        <ele>112.5</ele>
        <time>2019-10-18T18:40:36Z</time>
      </trkpt>
      <trkpt lat="36.9317600" lon="-2.4485650">
        <ele>112.5</ele>
        <time>2019-10-18T18:40:37Z</time>
      </trkpt>
      <trkpt lat="36.9316910" lon="-2.4485260">
        <ele>112.5</ele>
        <time>2019-10-18T18:40:38Z</time>
      </trkpt>
      <trkpt lat="36.9316220" lon="-2.4484860">
        <ele>112.5</ele>
        <time>2019-10-18T18:40:39Z</time>
      </trkpt>
      <trkpt lat="36.9315520" lon="-2.4484460">
        <ele>112.5</ele>
        <time>2019-10-18T18:40:40Z</time>
      </trkpt>
      <trkpt lat="36.9314810" lon="-2.4484050">
        <ele>112.4</ele>
        <time>2019-10-18T18:40:41Z</time>
      </trkpt>
      <trkpt lat="36.9314110" lon="-2.4483650">
        <ele>112.3</ele>
        <time>2019-10-18T18:40:42Z</time>
      </trkpt>
      <trkpt lat="36.9313390" lon="-2.4483260">
        <ele>112.1</ele>
        <time>2019-10-18T18:40:43Z</time>
      </trkpt>
      <trkpt lat="36.9312680" lon="-2.4482870">
        <ele>111.9</ele>
        <time>2019-10-18T18:40:44Z</time>
      </trkpt>
      <trkpt lat="36.9311960" lon="-2.4482500">
        <ele>111.7</ele>
        <time>2019-10-18T18:40:45Z</time>
      </trkpt>
      <trkpt lat="36.9311230" lon="-2.4482120">
        <ele>111.5</ele>
        <time>2019-10-18T18:40:46Z</time>
      </trkpt>
      <trkpt lat="36.9310490" lon="-2.4481750">
        <ele>111.3</ele>
        <time>2019-10-18T18:40:47Z</time>
      </trkpt>
      <trkpt lat="36.9309740" lon="-2.4481390">
        <ele>111.1</ele>
        <time>2019-10-18T18:40:48Z</time>
      </trkpt>
      <trkpt lat="36.9308990" lon="-2.4481030">
        <ele>110.9</ele>
        <time>2019-10-18T18:40:49Z</time>
      </trkpt>
      <trkpt lat="36.9308240" lon="-2.4480680">
        <ele>110.7</ele>
        <time>2019-10-18T18:40:50Z</time>
      </trkpt>
      <trkpt lat="36.9307490" lon="-2.4480350">
        <ele>110.6</ele>
        <time>2019-10-18T18:40:51Z</time>
      </trkpt>
      <trkpt lat="36.9306740" lon="-2.4480010">
        <ele>110.4</ele>
        <time>2019-10-18T18:40:52Z</time>
      </trkpt>
      <trkpt lat="36.9305990" lon="-2.4479680">
        <ele>110.2</ele>
        <time>2019-10-18T18:40:53Z</time>
      </trkpt>
      <trkpt lat="36.9305240" lon="-2.4479360">
        <ele>110.0</ele>
        <time>2019-10-18T18:40:54Z</time>
      </trkpt>
      <trkpt lat="36.9304500" lon="-2.4479050">
        <ele>109.8</ele>
        <time>2019-10-18T18:40:55Z</time>
      </trkpt>
      <trkpt lat="36.9303760" lon="-2.4478740">
        <ele>109.7</ele>
        <time>2019-10-18T18:40:56Z</time>
      </trkpt>
      <trkpt lat="36.9303020" lon="-2.4478430">
        <ele>109.6</ele>
        <time>2019-10-18T18:40:57Z</time>
      </trkpt>
      <trkpt lat="36.9302290" lon="-2.4478130">
        <ele>109.6</ele>
        <time>2019-10-18T18:40:58Z</time>
      </trkpt>
      <trkpt lat="36.9301550" lon="-2.4477830">
        <ele>109.6</ele>
        <time>2019-10-18T18:40:59Z</time>
      </trkpt>
      <trkpt lat="36.9300820" lon="-2.4477530">
        <ele>109.6</ele>
        <time>2019-10-18T18:41:00Z</time>
      </trkpt>
      <trkpt lat="36.9300080" lon="-2.4477230">
        <ele>109.6</ele>
        <time>2019-10-18T18:41:01Z</time>
      </trkpt>
      <trkpt lat="36.9299350" lon="-2.4476930">
        <ele>109.6</ele>
        <time>2019-10-18T18:41:02Z</time>
      </trkpt>
      <trkpt lat="36.9298610" lon="-2.4476630">
        <ele>109.7</ele>
        <time>2019-10-18T18:41:03Z</time>
      </trkpt>
      <trkpt lat="36.9297890" lon="-2.4476350">
        <ele>109.7</ele>
        <time>2019-10-18T18:41:04Z</time>
      </trkpt>
      <trkpt lat="36.9297170" lon="-2.4476060">
        <ele>109.7</ele>
        <time>2019-10-18T18:41:05Z</time>
      </trkpt>
      <trkpt lat="36.9296450" lon="-2.4475770">
        <ele>109.7</ele>
        <time>2019-10-18T18:41:06Z</time>
      </trkpt>
      <trkpt lat="36.9295720" lon="-2.4475470">
        <ele>109.7</ele>
        <time>2019-10-18T18:41:07Z</time>
      </trkpt>
      <trkpt lat="36.9295000" lon="-2.4475160">
        <ele>109.7</ele>
        <time>2019-10-18T18:41:08Z</time>
      </trkpt>
      <trkpt lat="36.9294280" lon="-2.4474840">
        <ele>109.7</ele>
        <time>2019-10-18T18:41:09Z</time>
      </trkpt>
      <trkpt lat="36.9293560" lon="-2.4474530">
        <ele>109.7</ele>
        <time>2019-10-18T18:41:10Z</time>
      </trkpt>
      <trkpt lat="36.9292860" lon="-2.4474230">
        <ele>109.7</ele>
        <time>2019-10-18T18:41:11Z</time>
      </trkpt>
      <trkpt lat="36.9292150" lon="-2.4473940">
        <ele>109.7</ele>
        <time>2019-10-18T18:41:12Z</time>
      </trkpt>
      <trkpt lat="36.9291460" lon="-2.4473660">
        <ele>109.7</ele>
        <time>2019-10-18T18:41:13Z</time>
      </trkpt>
      <trkpt lat="36.9290770" lon="-2.4473380">
        <ele>109.6</ele>
        <time>2019-10-18T18:41:14Z</time>
      </trkpt>
      <trkpt lat="36.9290080" lon="-2.4473090">
        <ele>109.4</ele>
        <time>2019-10-18T18:41:15Z</time>
      </trkpt>
      <trkpt lat="36.9289400" lon="-2.4472800">
        <ele>109.2</ele>
        <time>2019-10-18T18:41:16Z</time>
      </trkpt>
      <trkpt lat="36.9288730" lon="-2.4472510">
        <ele>109.0</ele>
        <time>2019-10-18T18:41:17Z</time>
      </trkpt>
      <trkpt lat="36.9288070" lon="-2.4472220">
        <ele>108.9</ele>
        <time>2019-10-18T18:41:18Z</time>
      </trkpt>
      <trkpt lat="36.9287400" lon="-2.4471940">
        <ele>108.8</ele>
        <time>2019-10-18T18:41:19Z</time>
      </trkpt>
      <trkpt lat="36.9286730" lon="-2.4471650">
        <ele>108.8</ele>
        <time>2019-10-18T18:41:20Z</time>
      </trkpt>
      <trkpt lat="36.9286070" lon="-2.4471370">
        <ele>108.8</ele>
        <time>2019-10-18T18:41:21Z</time>
      </trkpt>
      <trkpt lat="36.9285400" lon="-2.4471090">
        <ele>108.8</ele>
        <time>2019-10-18T18:41:22Z</time>
      </trkpt>
      <trkpt lat="36.9284730" lon="-2.4470820">
        <ele>108.8</ele>
        <time>2019-10-18T18:41:23Z</time>
      </trkpt>
      <trkpt lat="36.9284070" lon="-2.4470540">
        <ele>108.8</ele>
        <time>2019-10-18T18:41:24Z</time>
      </trkpt>
      <trkpt lat="36.9283410" lon="-2.4470270">
        <ele>108.8</ele>
        <time>2019-10-18T18:41:25Z</time>
      </trkpt>
      <trkpt lat="36.9282750" lon="-2.4470000">
        <ele>108.8</ele>
        <time>2019-10-18T18:41:26Z</time>
      </trkpt>
      <trkpt lat="36.9282100" lon="-2.4469730">
        <ele>108.8</ele>
        <time>2019-10-18T18:41:27Z</time>
      </trkpt>
      <trkpt lat="36.9281440" lon="-2.4469450">
        <ele>108.8</ele>
        <time>2019-10-18T18:41:28Z</time>
      </trkpt>
      <trkpt lat="36.9280780" lon="-2.4469170">
        <ele>108.7</ele>
        <time>2019-10-18T18:41:29Z</time>
      </trkpt>
      <trkpt lat="36.9280130" lon="-2.4468910">
        <ele>108.6</ele>
        <time>2019-10-18T18:41:30Z</time>
      </trkpt>
      <trkpt lat="36.9279460" lon="-2.4468650">
        <ele>108.4</ele>
        <time>2019-10-18T18:41:31Z</time>
      </trkpt>
      <trkpt lat="36.9278800" lon="-2.4468390">
        <ele>108.2</ele>
        <time>2019-10-18T18:41:32Z</time>
      </trkpt>
      <trkpt lat="36.9278130" lon="-2.4468140">
        <ele>108.0</ele>
        <time>2019-10-18T18:41:33Z</time>
      </trkpt>
      <trkpt lat="36.9277440" lon="-2.4467910">
        <ele>107.9</ele>
        <time>2019-10-18T18:41:34Z</time>
      </trkpt>
      <trkpt lat="36.9276750" lon="-2.4467690">
        <ele>107.9</ele>
        <time>2019-10-18T18:41:35Z</time>
      </trkpt>
      <trkpt lat="36.9276040" lon="-2.4467490">
        <ele>107.9</ele>
        <time>2019-10-18T18:41:36Z</time>
      </trkpt>
      <trkpt lat="36.9275320" lon="-2.4467320">
        <ele>107.9</ele>
        <time>2019-10-18T18:41:37Z</time>
      </trkpt>
      <trkpt lat="36.9274600" lon="-2.4467180">
        <ele>107.9</ele>
        <time>2019-10-18T18:41:38Z</time>
      </trkpt>
      <trkpt lat="36.9273870" lon="-2.4467080">
        <ele>108.1</ele>
        <time>2019-10-18T18:41:39Z</time>
      </trkpt>
      <trkpt lat="36.9273150" lon="-2.4467040">
        <ele>108.4</ele>
        <time>2019-10-18T18:41:40Z</time>
      </trkpt>
      <trkpt lat="36.9272420" lon="-2.4467060">
        <ele>108.7</ele>
        <time>2019-10-18T18:41:41Z</time>
      </trkpt>
      <trkpt lat="36.9271710" lon="-2.4467130">
        <ele>109.0</ele>
        <time>2019-10-18T18:41:42Z</time>
      </trkpt>
      <trkpt lat="36.9271000" lon="-2.4467240">
        <ele>109.3</ele>
        <time>2019-10-18T18:41:43Z</time>
      </trkpt>
      <trkpt lat="36.9270300" lon="-2.4467370">
        <ele>109.5</ele>
        <time>2019-10-18T18:41:44Z</time>
      </trkpt>
      <trkpt lat="36.9269630" lon="-2.4467510">
        <ele>109.8</ele>
        <time>2019-10-18T18:41:45Z</time>
      </trkpt>
      <trkpt lat="36.9269010" lon="-2.4467660">
        <ele>110.0</ele>
        <time>2019-10-18T18:41:46Z</time>
      </trkpt>
      <trkpt lat="36.9268440" lon="-2.4467800">
        <ele>110.2</ele>
        <time>2019-10-18T18:41:47Z</time>
      </trkpt>
      <trkpt lat="36.9267940" lon="-2.4467950">
        <ele>110.3</ele>
        <time>2019-10-18T18:41:48Z</time>
      </trkpt>
      <trkpt lat="36.9267520" lon="-2.4468090">
        <ele>110.5</ele>
        <time>2019-10-18T18:41:49Z</time>
      </trkpt>
      <trkpt lat="36.9267160" lon="-2.4468190">
        <ele>110.6</ele>
        <time>2019-10-18T18:41:50Z</time>
      </trkpt>
      <trkpt lat="36.9266880" lon="-2.4468200">
        <ele>110.7</ele>
        <time>2019-10-18T18:41:51Z</time>
      </trkpt>
      <trkpt lat="36.9266700" lon="-2.4468100">
        <ele>110.7</ele>
        <time>2019-10-18T18:41:52Z</time>
      </trkpt>
      <trkpt lat="36.9266620" lon="-2.4467940">
        <ele>110.8</ele>
        <time>2019-10-18T18:41:53Z</time>
      </trkpt>
      <trkpt lat="36.9266660" lon="-2.4467770">
        <ele>110.8</ele>
        <time>2019-10-18T18:41:54Z</time>
      </trkpt>
      <trkpt lat="36.9266860" lon="-2.4467650">
        <ele>110.8</ele>
        <time>2019-10-18T18:41:55Z</time>
      </trkpt>
      <trkpt lat="36.9267170" lon="-2.4467560">
        <ele>110.9</ele>
        <time>2019-10-18T18:41:56Z</time>
      </trkpt>
      <trkpt lat="36.9267570" lon="-2.4467480">
        <ele>110.8</ele>
        <time>2019-10-18T18:41:57Z</time>
      </trkpt>
      <trkpt lat="36.9267970" lon="-2.4467370">
        <ele>110.7</ele>
        <time>2019-10-18T18:41:58Z</time>
      </trkpt>
      <trkpt lat="36.9268400" lon="-2.4467250">
        <ele>110.6</ele>
        <time>2019-10-18T18:41:59Z</time>
      </trkpt>
      <trkpt lat="36.9268850" lon="-2.4467130">
        <ele>110.4</ele>
        <time>2019-10-18T18:42:00Z</time>
      </trkpt>
      <trkpt lat="36.9269330" lon="-2.4467000">
        <ele>110.2</ele>
        <time>2019-10-18T18:42:01Z</time>
      </trkpt>
      <trkpt lat="36.9269820" lon="-2.4466880">
        <ele>110.0</ele>
        <time>2019-10-18T18:42:02Z</time>
      </trkpt>
      <trkpt lat="36.9270320" lon="-2.4466760">
        <ele>109.8</ele>
        <time>2019-10-18T18:42:03Z</time>
      </trkpt>
      <trkpt lat="36.9270820" lon="-2.4466640">
        <ele>109.6</ele>
        <time>2019-10-18T18:42:04Z</time>
      </trkpt>
      <trkpt lat="36.9271280" lon="-2.4466510">
        <ele>109.4</ele>
        <time>2019-10-18T18:42:05Z</time>
      </trkpt>
      <trkpt lat="36.9271710" lon="-2.4466380">
        <ele>109.2</ele>
        <time>2019-10-18T18:42:06Z</time>
      </trkpt>
      <trkpt lat="36.9272090" lon="-2.4466270">
        <ele>109.0</ele>
        <time>2019-10-18T18:42:07Z</time>
      </trkpt>
      <trkpt lat="36.9272410" lon="-2.4466160">
        <ele>108.9</ele>
        <time>2019-10-18T18:42:08Z</time>
      </trkpt>
      <trkpt lat="36.9272650" lon="-2.4466020">
        <ele>108.7</ele>
        <time>2019-10-18T18:42:09Z</time>
      </trkpt>
      <trkpt lat="36.9272790" lon="-2.4465830">
        <ele>108.6</ele>
        <time>2019-10-18T18:42:10Z</time>
      </trkpt>
      <trkpt lat="36.9272820" lon="-2.4465610">
        <ele>109.0</ele>
        <time>2019-10-18T18:42:11Z</time>
      </trkpt>
      <trkpt lat="36.9272720" lon="-2.4465400">
        <ele>109.2</ele>
        <time>2019-10-18T18:42:12Z</time>
      </trkpt>
      <trkpt lat="36.9272530" lon="-2.4465260">
        <ele>109.4</ele>
        <time>2019-10-18T18:42:13Z</time>
      </trkpt>
      <trkpt lat="36.9272280" lon="-2.4465200">
        <ele>109.6</ele>
        <time>2019-10-18T18:42:14Z</time>
      </trkpt>
      <trkpt lat="36.9272000" lon="-2.4465210">
        <ele>109.8</ele>
        <time>2019-10-18T18:42:15Z</time>
      </trkpt>
      <trkpt lat="36.9271690" lon="-2.4465240">
        <ele>110.1</ele>
        <time>2019-10-18T18:42:16Z</time>
      </trkpt>
      <trkpt lat="36.9271350" lon="-2.4465270">
        <ele>110.3</ele>
        <time>2019-10-18T18:42:17Z</time>
      </trkpt>
      <trkpt lat="36.9270990" lon="-2.4465280">
        <ele>110.6</ele>
        <time>2019-10-18T18:42:18Z</time>
      </trkpt>
      <trkpt lat="36.9270610" lon="-2.4465270">
        <ele>110.9</ele>
        <time>2019-10-18T18:42:19Z</time>
      </trkpt>
      <trkpt lat="36.9270230" lon="-2.4465260">
        <ele>111.2</ele>
        <time>2019-10-18T18:42:20Z</time>
      </trkpt>
      <trkpt lat="36.9269850" lon="-2.4465240">
        <ele>111.5</ele>
        <time>2019-10-18T18:42:21Z</time>
      </trkpt>
      <trkpt lat="36.9269480" lon="-2.4465200">
        <ele>111.8</ele>
        <time>2019-10-18T18:42:22Z</time>
      </trkpt>
      <trkpt lat="36.9269110" lon="-2.4465130">
        <ele>112.2</ele>
        <time>2019-10-18T18:42:23Z</time>
      </trkpt>
      <trkpt lat="36.9268750" lon="-2.4465050">
        <ele>112.5</ele>
        <time>2019-10-18T18:42:24Z</time>
      </trkpt>
      <trkpt lat="36.9268410" lon="-2.4464960">
        <ele>112.7</ele>
        <time>2019-10-18T18:42:25Z</time>
      </trkpt>
      <trkpt lat="36.9268070" lon="-2.4464880">
        <ele>113.1</ele>
        <time>2019-10-18T18:42:26Z</time>
      </trkpt>
      <trkpt lat="36.9267730" lon="-2.4464800">
        <ele>113.4</ele>
        <time>2019-10-18T18:42:27Z</time>
      </trkpt>
      <trkpt lat="36.9267410" lon="-2.4464730">
        <ele>113.7</ele>
        <time>2019-10-18T18:42:28Z</time>
      </trkpt>
      <trkpt lat="36.9267090" lon="-2.4464640">
        <ele>114.0</ele>
        <time>2019-10-18T18:42:29Z</time>
      </trkpt>
      <trkpt lat="36.9266770" lon="-2.4464550">
        <ele>114.3</ele>
        <time>2019-10-18T18:42:30Z</time>
      </trkpt>
      <trkpt lat="36.9266470" lon="-2.4464450">
        <ele>114.6</ele>
        <time>2019-10-18T18:42:31Z</time>
      </trkpt>
      <trkpt lat="36.9266160" lon="-2.4464370">
        <ele>114.9</ele>
        <time>2019-10-18T18:42:32Z</time>
      </trkpt>
      <trkpt lat="36.9265860" lon="-2.4464300">
        <ele>115.2</ele>
        <time>2019-10-18T18:42:33Z</time>
      </trkpt>
      <trkpt lat="36.9265550" lon="-2.4464240">
        <ele>115.5</ele>
        <time>2019-10-18T18:42:34Z</time>
      </trkpt>
      <trkpt lat="36.9265250" lon="-2.4464160">
        <ele>115.7</ele>
        <time>2019-10-18T18:42:35Z</time>
      </trkpt>
      <trkpt lat="36.9264950" lon="-2.4464070">
        <ele>116.0</ele>
        <time>2019-10-18T18:42:36Z</time>
      </trkpt>
      <trkpt lat="36.9264650" lon="-2.4463990">
        <ele>116.2</ele>
        <time>2019-10-18T18:42:37Z</time>
      </trkpt>
      <trkpt lat="36.9264360" lon="-2.4463900">
        <ele>116.6</ele>
        <time>2019-10-18T18:42:38Z</time>
      </trkpt>
      <trkpt lat="36.9264080" lon="-2.4463810">
        <ele>117.2</ele>
        <time>2019-10-18T18:42:39Z</time>
      </trkpt>
      <trkpt lat="36.9263800" lon="-2.4463710">
        <ele>117.8</ele>
        <time>2019-10-18T18:42:40Z</time>
      </trkpt>
      <trkpt lat="36.9263530" lon="-2.4463620">
        <ele>118.3</ele>
        <time>2019-10-18T18:42:41Z</time>
      </trkpt>
      <trkpt lat="36.9263270" lon="-2.4463520">
        <ele>118.9</ele>
        <time>2019-10-18T18:42:42Z</time>
      </trkpt>
      <trkpt lat="36.9263060" lon="-2.4463390">
        <ele>119.4</ele>
        <time>2019-10-18T18:42:43Z</time>
      </trkpt>
      <trkpt lat="36.9262850" lon="-2.4463240">
        <ele>119.9</ele>
        <time>2019-10-18T18:42:44Z</time>
      </trkpt>
      <trkpt lat="36.9262650" lon="-2.4463060">
        <ele>120.4</ele>
        <time>2019-10-18T18:42:45Z</time>
      </trkpt>
      <trkpt lat="36.9262460" lon="-2.4462880">
        <ele>120.8</ele>
        <time>2019-10-18T18:42:46Z</time>
      </trkpt>
      <trkpt lat="36.9262350" lon="-2.4462650">
        <ele>121.1</ele>
        <time>2019-10-18T18:42:47Z</time>
      </trkpt>
      <trkpt lat="36.9262260" lon="-2.4462380">
        <ele>121.4</ele>
        <time>2019-10-18T18:42:48Z</time>
      </trkpt>
      <trkpt lat="36.9262200" lon="-2.4462070">
        <ele>121.6</ele>
        <time>2019-10-18T18:42:49Z</time>
      </trkpt>
      <trkpt lat="36.9262080" lon="-2.4461750">
        <ele>121.9</ele>
        <time>2019-10-18T18:42:50Z</time>
      </trkpt>
      <trkpt lat="36.9262000" lon="-2.4461430">
        <ele>122.0</ele>
        <time>2019-10-18T18:42:51Z</time>
      </trkpt>
      <trkpt lat="36.9261930" lon="-2.4461110">
        <ele>122.0</ele>
        <time>2019-10-18T18:42:52Z</time>
      </trkpt>
      <trkpt lat="36.9261900" lon="-2.4460800">
        <ele>122.1</ele>
        <time>2019-10-18T18:42:53Z</time>
      </trkpt>
      <trkpt lat="36.9261880" lon="-2.4460500">
        <ele>122.2</ele>
        <time>2019-10-18T18:42:54Z</time>
      </trkpt>
      <trkpt lat="36.9261880" lon="-2.4460210">
        <ele>122.2</ele>
        <time>2019-10-18T18:42:55Z</time>
      </trkpt>
      <trkpt lat="36.9261900" lon="-2.4459910">
        <ele>122.3</ele>
        <time>2019-10-18T18:42:56Z</time>
      </trkpt>
      <trkpt lat="36.9261920" lon="-2.4459600">
        <ele>122.4</ele>
        <time>2019-10-18T18:42:57Z</time>
      </trkpt>
      <trkpt lat="36.9261930" lon="-2.4459300">
        <ele>122.4</ele>
        <time>2019-10-18T18:42:58Z</time>
      </trkpt>
      <trkpt lat="36.9261930" lon="-2.4458990">
        <ele>122.5</ele>
        <time>2019-10-18T18:42:59Z</time>
      </trkpt>
      <trkpt lat="36.9261930" lon="-2.4458680">
        <ele>122.6</ele>
        <time>2019-10-18T18:43:00Z</time>
      </trkpt>
      <trkpt lat="36.9261930" lon="-2.4458380">
        <ele>122.6</ele>
        <time>2019-10-18T18:43:01Z</time>
      </trkpt>
      <trkpt lat="36.9261950" lon="-2.4458080">
        <ele>122.6</ele>
        <time>2019-10-18T18:43:02Z</time>
      </trkpt>
      <trkpt lat="36.9261980" lon="-2.4457800">
        <ele>122.7</ele>
        <time>2019-10-18T18:43:03Z</time>
      </trkpt>
      <trkpt lat="36.9262020" lon="-2.4457510">
        <ele>122.7</ele>
        <time>2019-10-18T18:43:04Z</time>
      </trkpt>
      <trkpt lat="36.9262060" lon="-2.4457230">
        <ele>122.8</ele>
        <time>2019-10-18T18:43:05Z</time>
      </trkpt>
      <trkpt lat="36.9262120" lon="-2.4456960">
        <ele>122.8</ele>
        <time>2019-10-18T18:43:06Z</time>
      </trkpt>
      <trkpt lat="36.9262190" lon="-2.4456700">
        <ele>122.8</ele>
        <time>2019-10-18T18:43:07Z</time>
      </trkpt>
      <trkpt lat="36.9262280" lon="-2.4456430">
        <ele>122.9</ele>
        <time>2019-10-18T18:43:08Z</time>
      </trkpt>
      <trkpt lat="36.9262360" lon="-2.4456150">
        <ele>122.9</ele>
        <time>2019-10-18T18:43:09Z</time>
      </trkpt>
      <trkpt lat="36.9262450" lon="-2.4455860">
        <ele>122.9</ele>
        <time>2019-10-18T18:43:10Z</time>
      </trkpt>
      <trkpt lat="36.9262540" lon="-2.4455570">
        <ele>123.0</ele>
        <time>2019-10-18T18:43:11Z</time>
      </trkpt>
      <trkpt lat="36.9262640" lon="-2.4455280">
        <ele>123.0</ele>
        <time>2019-10-18T18:43:12Z</time>
      </trkpt>
      <trkpt lat="36.9262740" lon="-2.4454990">
        <ele>123.1</ele>
        <time>2019-10-18T18:43:13Z</time>
      </trkpt>
      <trkpt lat="36.9262830" lon="-2.4454710">
        <ele>123.1</ele>
        <time>2019-10-18T18:43:14Z</time>
      </trkpt>
      <trkpt lat="36.9262930" lon="-2.4454430">
        <ele>123.2</ele>
        <time>2019-10-18T18:43:15Z</time>
      </trkpt>
      <trkpt lat="36.9263020" lon="-2.4454150">
        <ele>123.2</ele>
        <time>2019-10-18T18:43:16Z</time>
      </trkpt>
      <trkpt lat="36.9263120" lon="-2.4453880">
        <ele>123.2</ele>
        <time>2019-10-18T18:43:17Z</time>
      </trkpt>
      <trkpt lat="36.9263200" lon="-2.4453610">
        <ele>123.3</ele>
        <time>2019-10-18T18:43:18Z</time>
      </trkpt>
      <trkpt lat="36.9263290" lon="-2.4453330">
        <ele>123.4</ele>
        <time>2019-10-18T18:43:19Z</time>
      </trkpt>
      <trkpt lat="36.9263390" lon="-2.4453060">
        <ele>123.4</ele>
        <time>2019-10-18T18:43:20Z</time>
      </trkpt>
      <trkpt lat="36.9263500" lon="-2.4452800">
        <ele>123.5</ele>
        <time>2019-10-18T18:43:21Z</time>
      </trkpt>
      <trkpt lat="36.9263610" lon="-2.4452530">
        <ele>123.5</ele>
        <time>2019-10-18T18:43:22Z</time>
      </trkpt>
      <trkpt lat="36.9263700" lon="-2.4452240">
        <ele>123.6</ele>
        <time>2019-10-18T18:43:23Z</time>
      </trkpt>
      <trkpt lat="36.9263760" lon="-2.4451950">
        <ele>123.6</ele>
        <time>2019-10-18T18:43:24Z</time>
      </trkpt>
      <trkpt lat="36.9263820" lon="-2.4451640">
        <ele>123.7</ele>
        <time>2019-10-18T18:43:25Z</time>
      </trkpt>
      <trkpt lat="36.9263860" lon="-2.4451340">
        <ele>123.8</ele>
        <time>2019-10-18T18:43:26Z</time>
      </trkpt>
      <trkpt lat="36.9263860" lon="-2.4451040">
        <ele>123.8</ele>
        <time>2019-10-18T18:43:27Z</time>
      </trkpt>
      <trkpt lat="36.9263830" lon="-2.4450750">
        <ele>123.8</ele>
        <time>2019-10-18T18:43:28Z</time>
      </trkpt>
      <trkpt lat="36.9263790" lon="-2.4450450">
        <ele>123.8</ele>
        <time>2019-10-18T18:43:29Z</time>
      </trkpt>
      <trkpt lat="36.9263740" lon="-2.4450150">
        <ele>123.8</ele>
        <time>2019-10-18T18:43:30Z</time>
      </trkpt>
      <trkpt lat="36.9263670" lon="-2.4449860">
        <ele>123.8</ele>
        <time>2019-10-18T18:43:31Z</time>
      </trkpt>
      <trkpt lat="36.9263560" lon="-2.4449580">
        <ele>123.8</ele>
        <time>2019-10-18T18:43:32Z</time>
      </trkpt>
      <trkpt lat="36.9263450" lon="-2.4449320">
        <ele>123.7</ele>
        <time>2019-10-18T18:43:33Z</time>
      </trkpt>
      <trkpt lat="36.9263320" lon="-2.4449080">
        <ele>123.7</ele>
        <time>2019-10-18T18:43:34Z</time>
      </trkpt>
      <trkpt lat="36.9263220" lon="-2.4448840">
        <ele>123.7</ele>
        <time>2019-10-18T18:43:35Z</time>
      </trkpt>
      <trkpt lat="36.9263110" lon="-2.4448620">
        <ele>123.6</ele>
        <time>2019-10-18T18:43:36Z</time>
      </trkpt>
      <trkpt lat="36.9263020" lon="-2.4448400">
        <ele>123.5</ele>
        <time>2019-10-18T18:43:37Z</time>
      </trkpt>
      <trkpt lat="36.9262930" lon="-2.4448180">
        <ele>123.4</ele>
        <time>2019-10-18T18:43:38Z</time>
      </trkpt>
      <trkpt lat="36.9262850" lon="-2.4447960">
        <ele>123.3</ele>
        <time>2019-10-18T18:43:39Z</time>
      </trkpt>
      <trkpt lat="36.9262770" lon="-2.4447730">
        <ele>123.2</ele>
        <time>2019-10-18T18:43:40Z</time>
      </trkpt>
      <trkpt lat="36.9262670" lon="-2.4447510">
        <ele>123.0</ele>
        <time>2019-10-18T18:43:41Z</time>
      </trkpt>
      <trkpt lat="36.9262550" lon="-2.4447300">
        <ele>122.9</ele>
        <time>2019-10-18T18:43:42Z</time>
      </trkpt>
      <trkpt lat="36.9262420" lon="-2.4447100">
        <ele>122.8</ele>
        <time>2019-10-18T18:43:43Z</time>
      </trkpt>
      <trkpt lat="36.9262300" lon="-2.4446920">
        <ele>122.6</ele>
        <time>2019-10-18T18:43:44Z</time>
      </trkpt>
      <trkpt lat="36.9262180" lon="-2.4446770">
        <ele>122.3</ele>
        <time>2019-10-18T18:43:45Z</time>
      </trkpt>
      <trkpt lat="36.9262060" lon="-2.4446620">
        <ele>122.2</ele>
        <time>2019-10-18T18:43:46Z</time>
      </trkpt>
      <trkpt lat="36.9261960" lon="-2.4446460">
        <ele>122.1</ele>
        <time>2019-10-18T18:43:47Z</time>
      </trkpt>
      <trkpt lat="36.9261840" lon="-2.4446270">
        <ele>122.0</ele>
        <time>2019-10-18T18:43:48Z</time>
      </trkpt>
      <trkpt lat="36.9261710" lon="-2.4446060">
        <ele>122.0</ele>
        <time>2019-10-18T18:43:49Z</time>
      </trkpt>
      <trkpt lat="36.9261570" lon="-2.4445810">
        <ele>121.9</ele>
        <time>2019-10-18T18:43:50Z</time>
      </trkpt>
      <trkpt lat="36.9261420" lon="-2.4445540">
        <ele>121.8</ele>
        <time>2019-10-18T18:43:51Z</time>
      </trkpt>
      <trkpt lat="36.9261230" lon="-2.4445240">
        <ele>121.8</ele>
        <time>2019-10-18T18:43:52Z</time>
      </trkpt>
      <trkpt lat="36.9261000" lon="-2.4444930">
        <ele>121.7</ele>
        <time>2019-10-18T18:43:53Z</time>
      </trkpt>
      <trkpt lat="36.9260750" lon="-2.4444600">
        <ele>121.6</ele>
        <time>2019-10-18T18:43:54Z</time>
      </trkpt>
      <trkpt lat="36.9260490" lon="-2.4444260">
        <ele>121.5</ele>
        <time>2019-10-18T18:43:55Z</time>
      </trkpt>
      <trkpt lat="36.9260220" lon="-2.4443900">
        <ele>121.3</ele>
        <time>2019-10-18T18:43:56Z</time>
      </trkpt>
      <trkpt lat="36.9259950" lon="-2.4443560">
        <ele>121.2</ele>
        <time>2019-10-18T18:43:57Z</time>
      </trkpt>
      <trkpt lat="36.9259680" lon="-2.4443220">
        <ele>121.1</ele>
        <time>2019-10-18T18:43:58Z</time>
      </trkpt>
      <trkpt lat="36.9259400" lon="-2.4442890">
        <ele>121.0</ele>
        <time>2019-10-18T18:43:59Z</time>
      </trkpt>
      <trkpt lat="36.9259110" lon="-2.4442530">
        <ele>121.0</ele>
        <time>2019-10-18T18:44:00Z</time>
      </trkpt>
      <trkpt lat="36.9258800" lon="-2.4442150">
        <ele>120.9</ele>
        <time>2019-10-18T18:44:01Z</time>
      </trkpt>
      <trkpt lat="36.9258480" lon="-2.4441740">
        <ele>120.8</ele>
        <time>2019-10-18T18:44:02Z</time>
      </trkpt>
      <trkpt lat="36.9258140" lon="-2.4441300">
        <ele>120.8</ele>
        <time>2019-10-18T18:44:03Z</time>
      </trkpt>
      <trkpt lat="36.9257780" lon="-2.4440870">
        <ele>120.7</ele>
        <time>2019-10-18T18:44:04Z</time>
      </trkpt>
      <trkpt lat="36.9257400" lon="-2.4440440">
        <ele>120.7</ele>
        <time>2019-10-18T18:44:05Z</time>
      </trkpt>
      <trkpt lat="36.9257020" lon="-2.4440030">
        <ele>120.7</ele>
        <time>2019-10-18T18:44:06Z</time>
      </trkpt>
      <trkpt lat="36.9256650" lon="-2.4439650">
        <ele>120.8</ele>
        <time>2019-10-18T18:44:07Z</time>
      </trkpt>
      <trkpt lat="36.9256270" lon="-2.4439290">
        <ele>120.8</ele>
        <time>2019-10-18T18:44:08Z</time>
      </trkpt>
      <trkpt lat="36.9255890" lon="-2.4438980">
        <ele>120.9</ele>
        <time>2019-10-18T18:44:09Z</time>
      </trkpt>
      <trkpt lat="36.9255510" lon="-2.4438730">
        <ele>121.0</ele>
        <time>2019-10-18T18:44:10Z</time>
      </trkpt>
      <trkpt lat="36.9255140" lon="-2.4438540">
        <ele>121.1</ele>
        <time>2019-10-18T18:44:11Z</time>
      </trkpt>
      <trkpt lat="36.9254810" lon="-2.4438430">
        <ele>121.2</ele>
        <time>2019-10-18T18:44:12Z</time>
      </trkpt>
      <trkpt lat="36.9254510" lon="-2.4438360">
        <ele>121.3</ele>
        <time>2019-10-18T18:44:13Z</time>
      </trkpt>
      <trkpt lat="36.9254210" lon="-2.4438340">
        <ele>121.3</ele>
        <time>2019-10-18T18:44:14Z</time>
      </trkpt>
      <trkpt lat="36.9253900" lon="-2.4438340">
        <ele>121.4</ele>
        <time>2019-10-18T18:44:15Z</time>
      </trkpt>
      <trkpt lat="36.9253580" lon="-2.4438370">
        <ele>121.5</ele>
        <time>2019-10-18T18:44:16Z</time>
      </trkpt>
      <trkpt lat="36.9253240" lon="-2.4438390">
        <ele>121.6</ele>
        <time>2019-10-18T18:44:17Z</time>
      </trkpt>
      <trkpt lat="36.9252900" lon="-2.4438390">
        <ele>121.8</ele>
        <time>2019-10-18T18:44:18Z</time>
      </trkpt>
      <trkpt lat="36.9252570" lon="-2.4438380">
        <ele>121.8</ele>
        <time>2019-10-18T18:44:19Z</time>
      </trkpt>
      <trkpt lat="36.9252250" lon="-2.4438340">
        <ele>121.9</ele>
        <time>2019-10-18T18:44:20Z</time>
      </trkpt>
      <trkpt lat="36.9251920" lon="-2.4438280">
        <ele>122.0</ele>
        <time>2019-10-18T18:44:21Z</time>
      </trkpt>
      <trkpt lat="36.9251580" lon="-2.4438200">
        <ele>122.0</ele>
        <time>2019-10-18T18:44:22Z</time>
      </trkpt>
      <trkpt lat="36.9251220" lon="-2.4438090">
        <ele>122.1</ele>
        <time>2019-10-18T18:44:23Z</time>
      </trkpt>
      <trkpt lat="36.9250840" lon="-2.4437980">
        <ele>122.1</ele>
        <time>2019-10-18T18:44:24Z</time>
      </trkpt>
      <trkpt lat="36.9250470" lon="-2.4437840">
        <ele>122.2</ele>
        <time>2019-10-18T18:44:25Z</time>
      </trkpt>
      <trkpt lat="36.9250080" lon="-2.4437700">
        <ele>122.2</ele>
        <time>2019-10-18T18:44:26Z</time>
      </trkpt>
      <trkpt lat="36.9249690" lon="-2.4437520">
        <ele>122.3</ele>
        <time>2019-10-18T18:44:27Z</time>
      </trkpt>
      <trkpt lat="36.9249290" lon="-2.4437330">
        <ele>122.3</ele>
        <time>2019-10-18T18:44:28Z</time>
      </trkpt>
      <trkpt lat="36.9248880" lon="-2.4437110">
        <ele>122.4</ele>
        <time>2019-10-18T18:44:29Z</time>
      </trkpt>
      <trkpt lat="36.9248450" lon="-2.4436890">
        <ele>122.4</ele>
        <time>2019-10-18T18:44:30Z</time>
      </trkpt>
      <trkpt lat="36.9248010" lon="-2.4436660">
        <ele>122.4</ele>
        <time>2019-10-18T18:44:31Z</time>
      </trkpt>
      <trkpt lat="36.9247560" lon="-2.4436440">
        <ele>122.4</ele>
        <time>2019-10-18T18:44:32Z</time>
      </trkpt>
      <trkpt lat="36.9247100" lon="-2.4436230">
        <ele>122.4</ele>
        <time>2019-10-18T18:44:33Z</time>
      </trkpt>
      <trkpt lat="36.9246640" lon="-2.4436020">
        <ele>122.5</ele>
        <time>2019-10-18T18:44:34Z</time>
      </trkpt>
      <trkpt lat="36.9246160" lon="-2.4435810">
        <ele>122.5</ele>
        <time>2019-10-18T18:44:35Z</time>
      </trkpt>
      <trkpt lat="36.9245680" lon="-2.4435610">
        <ele>122.5</ele>
        <time>2019-10-18T18:44:36Z</time>
      </trkpt>
      <trkpt lat="36.9245200" lon="-2.4435400">
        <ele>122.5</ele>
        <time>2019-10-18T18:44:37Z</time>
      </trkpt>
      <trkpt lat="36.9244720" lon="-2.4435200">
        <ele>122.5</ele>
        <time>2019-10-18T18:44:38Z</time>
      </trkpt>
      <trkpt lat="36.9244240" lon="-2.4434990">
        <ele>122.5</ele>
        <time>2019-10-18T18:44:39Z</time>
      </trkpt>
      <trkpt lat="36.9243770" lon="-2.4434790">
        <ele>122.5</ele>
        <time>2019-10-18T18:44:40Z</time>
      </trkpt>
      <trkpt lat="36.9243300" lon="-2.4434600">
        <ele>122.4</ele>
        <time>2019-10-18T18:44:41Z</time>
      </trkpt>
      <trkpt lat="36.9242820" lon="-2.4434420">
        <ele>122.4</ele>
        <time>2019-10-18T18:44:42Z</time>
      </trkpt>
      <trkpt lat="36.9242350" lon="-2.4434240">
        <ele>122.3</ele>
        <time>2019-10-18T18:44:43Z</time>
      </trkpt>
      <trkpt lat="36.9241870" lon="-2.4434070">
        <ele>122.2</ele>
        <time>2019-10-18T18:44:44Z</time>
      </trkpt>
      <trkpt lat="36.9241410" lon="-2.4433880">
        <ele>122.1</ele>
        <time>2019-10-18T18:44:45Z</time>
      </trkpt>
      <trkpt lat="36.9240940" lon="-2.4433680">
        <ele>122.0</ele>
        <time>2019-10-18T18:44:46Z</time>
      </trkpt>
      <trkpt lat="36.9240480" lon="-2.4433470">
        <ele>121.9</ele>
        <time>2019-10-18T18:44:47Z</time>
      </trkpt>
      <trkpt lat="36.9240000" lon="-2.4433250">
        <ele>121.8</ele>
        <time>2019-10-18T18:44:48Z</time>
      </trkpt>
      <trkpt lat="36.9239540" lon="-2.4433020">
        <ele>121.6</ele>
        <time>2019-10-18T18:44:49Z</time>
      </trkpt>
      <trkpt lat="36.9239110" lon="-2.4432800">
        <ele>121.5</ele>
        <time>2019-10-18T18:44:50Z</time>
      </trkpt>
      <trkpt lat="36.9238710" lon="-2.4432590">
        <ele>121.4</ele>
        <time>2019-10-18T18:44:51Z</time>
      </trkpt>
      <trkpt lat="36.9238310" lon="-2.4432410">
        <ele>121.2</ele>
        <time>2019-10-18T18:44:52Z</time>
      </trkpt>
      <trkpt lat="36.9237910" lon="-2.4432240">
        <ele>121.1</ele>
        <time>2019-10-18T18:44:53Z</time>
      </trkpt>
      <trkpt lat="36.9237510" lon="-2.4432090">
        <ele>120.9</ele>
        <time>2019-10-18T18:44:54Z</time>
      </trkpt>
      <trkpt lat="36.9237130" lon="-2.4431940">
        <ele>120.8</ele>
        <time>2019-10-18T18:44:55Z</time>
      </trkpt>
      <trkpt lat="36.9236790" lon="-2.4431790">
        <ele>120.7</ele>
        <time>2019-10-18T18:44:56Z</time>
      </trkpt>
      <trkpt lat="36.9236470" lon="-2.4431660">
        <ele>120.5</ele>
        <time>2019-10-18T18:44:57Z</time>
      </trkpt>
      <trkpt lat="36.9236180" lon="-2.4431550">
        <ele>120.4</ele>
        <time>2019-10-18T18:44:58Z</time>
      </trkpt>
      <trkpt lat="36.9235930" lon="-2.4431460">
        <ele>120.3</ele>
        <time>2019-10-18T18:44:59Z</time>
      </trkpt>
      <trkpt lat="36.9235720" lon="-2.4431360">
        <ele>120.2</ele>
        <time>2019-10-18T18:45:00Z</time>
      </trkpt>
      <trkpt lat="36.9235540" lon="-2.4431250">
        <ele>120.2</ele>
        <time>2019-10-18T18:45:01Z</time>
      </trkpt>
      <trkpt lat="36.9235350" lon="-2.4431100">
        <ele>120.1</ele>
        <time>2019-10-18T18:45:02Z</time>
      </trkpt>
      <trkpt lat="36.9235140" lon="-2.4430910">
        <ele>120.0</ele>
        <time>2019-10-18T18:45:03Z</time>
      </trkpt>
      <trkpt lat="36.9234920" lon="-2.4430660">
        <ele>119.9</ele>
        <time>2019-10-18T18:45:04Z</time>
      </trkpt>
      <trkpt lat="36.9234680" lon="-2.4430360">
        <ele>119.6</ele>
        <time>2019-10-18T18:45:05Z</time>
      </trkpt>
      <trkpt lat="36.9234420" lon="-2.4430010">
        <ele>119.7</ele>
        <time>2019-10-18T18:45:06Z</time>
      </trkpt>
      <trkpt lat="36.9234130" lon="-2.4429630">
        <ele>119.7</ele>
        <time>2019-10-18T18:45:07Z</time>
      </trkpt>
      <trkpt lat="36.9233800" lon="-2.4429240">
        <ele>119.7</ele>
        <time>2019-10-18T18:45:08Z</time>
      </trkpt>
      <trkpt lat="36.9233430" lon="-2.4428860">
        <ele>119.7</ele>
        <time>2019-10-18T18:45:09Z</time>
      </trkpt>
      <trkpt lat="36.9233060" lon="-2.4428480">
        <ele>119.7</ele>
        <time>2019-10-18T18:45:10Z</time>
      </trkpt>
      <trkpt lat="36.9232670" lon="-2.4428110">
        <ele>119.7</ele>
        <time>2019-10-18T18:45:11Z</time>
      </trkpt>
      <trkpt lat="36.9232290" lon="-2.4427750">
        <ele>119.7</ele>
        <time>2019-10-18T18:45:12Z</time>
      </trkpt>
      <trkpt lat="36.9231910" lon="-2.4427400">
        <ele>119.8</ele>
        <time>2019-10-18T18:45:13Z</time>
      </trkpt>
      <trkpt lat="36.9231550" lon="-2.4427050">
        <ele>119.8</ele>
        <time>2019-10-18T18:45:14Z</time>
      </trkpt>
      <trkpt lat="36.9231200" lon="-2.4426720">
        <ele>119.9</ele>
        <time>2019-10-18T18:45:15Z</time>
      </trkpt>
      <trkpt lat="36.9230870" lon="-2.4426400">
        <ele>119.9</ele>
        <time>2019-10-18T18:45:16Z</time>
      </trkpt>
      <trkpt lat="36.9230550" lon="-2.4426100">
        <ele>120.0</ele>
        <time>2019-10-18T18:45:17Z</time>
      </trkpt>
      <trkpt lat="36.9230230" lon="-2.4425800">
        <ele>120.1</ele>
        <time>2019-10-18T18:45:18Z</time>
      </trkpt>
      <trkpt lat="36.9229930" lon="-2.4425490">
        <ele>120.1</ele>
        <time>2019-10-18T18:45:19Z</time>
      </trkpt>
      <trkpt lat="36.9229640" lon="-2.4425170">
        <ele>120.2</ele>
        <time>2019-10-18T18:45:20Z</time>
      </trkpt>
      <trkpt lat="36.9229350" lon="-2.4424850">
        <ele>120.3</ele>
        <time>2019-10-18T18:45:21Z</time>
      </trkpt>
      <trkpt lat="36.9229060" lon="-2.4424530">
        <ele>120.4</ele>
        <time>2019-10-18T18:45:22Z</time>
      </trkpt>
      <trkpt lat="36.9228790" lon="-2.4424200">
        <ele>120.5</ele>
        <time>2019-10-18T18:45:23Z</time>
      </trkpt>
      <trkpt lat="36.9228520" lon="-2.4423860">
        <ele>120.5</ele>
        <time>2019-10-18T18:45:24Z</time>
      </trkpt>
      <trkpt lat="36.9228240" lon="-2.4423490">
        <ele>120.6</ele>
        <time>2019-10-18T18:45:25Z</time>
      </trkpt>
      <trkpt lat="36.9227980" lon="-2.4423100">
        <ele>120.7</ele>
        <time>2019-10-18T18:45:26Z</time>
      </trkpt>
      <trkpt lat="36.9227740" lon="-2.4422700">
        <ele>120.7</ele>
        <time>2019-10-18T18:45:27Z</time>
      </trkpt>
      <trkpt lat="36.9227520" lon="-2.4422280">
        <ele>120.7</ele>
        <time>2019-10-18T18:45:28Z</time>
      </trkpt>
      <trkpt lat="36.9227320" lon="-2.4421860">
        <ele>120.8</ele>
        <time>2019-10-18T18:45:29Z</time>
      </trkpt>
      <trkpt lat="36.9227120" lon="-2.4421430">
        <ele>120.8</ele>
        <time>2019-10-18T18:45:30Z</time>
      </trkpt>
      <trkpt lat="36.9226910" lon="-2.4420990">
        <ele>120.8</ele>
        <time>2019-10-18T18:45:31Z</time>
      </trkpt>
      <trkpt lat="36.9226690" lon="-2.4420540">
        <ele>120.8</ele>
        <time>2019-10-18T18:45:32Z</time>
      </trkpt>
      <trkpt lat="36.9226460" lon="-2.4420080">
        <ele>120.8</ele>
        <time>2019-10-18T18:45:33Z</time>
      </trkpt>
      <trkpt lat="36.9226230" lon="-2.4419590">
        <ele>120.9</ele>
        <time>2019-10-18T18:45:34Z</time>
      </trkpt>
      <trkpt lat="36.9225990" lon="-2.4419080">
        <ele>120.9</ele>
        <time>2019-10-18T18:45:35Z</time>
      </trkpt>
      <trkpt lat="36.9225760" lon="-2.4418540">
        <ele>120.9</ele>
        <time>2019-10-18T18:45:36Z</time>
      </trkpt>
      <trkpt lat="36.9225510" lon="-2.4417980">
        <ele>120.9</ele>
        <time>2019-10-18T18:45:37Z</time>
      </trkpt>
      <trkpt lat="36.9225260" lon="-2.4417390">
        <ele>120.9</ele>
        <time>2019-10-18T18:45:38Z</time>
      </trkpt>
      <trkpt lat="36.9225010" lon="-2.4416770">
        <ele>120.9</ele>
        <time>2019-10-18T18:45:39Z</time>
      </trkpt>
      <trkpt lat="36.9224760" lon="-2.4416130">
        <ele>120.9</ele>
        <time>2019-10-18T18:45:40Z</time>
      </trkpt>
      <trkpt lat="36.9224510" lon="-2.4415470">
        <ele>120.9</ele>
        <time>2019-10-18T18:45:41Z</time>
      </trkpt>
      <trkpt lat="36.9224260" lon="-2.4414780">
        <ele>120.9</ele>
        <time>2019-10-18T18:45:42Z</time>
      </trkpt>
      <trkpt lat="36.9224000" lon="-2.4414100">
        <ele>120.9</ele>
        <time>2019-10-18T18:45:43Z</time>
      </trkpt>
      <trkpt lat="36.9223720" lon="-2.4413440">
        <ele>121.0</ele>
        <time>2019-10-18T18:45:44Z</time>
      </trkpt>
      <trkpt lat="36.9223400" lon="-2.4412820">
        <ele>121.0</ele>
        <time>2019-10-18T18:45:45Z</time>
      </trkpt>
      <trkpt lat="36.9223010" lon="-2.4412250">
        <ele>121.0</ele>
        <time>2019-10-18T18:45:46Z</time>
      </trkpt>
      <trkpt lat="36.9222590" lon="-2.4411730">
        <ele>121.0</ele>
        <time>2019-10-18T18:45:47Z</time>
      </trkpt>
      <trkpt lat="36.9222150" lon="-2.4411230">
        <ele>121.0</ele>
        <time>2019-10-18T18:45:48Z</time>
      </trkpt>
      <trkpt lat="36.9221730" lon="-2.4410780">
        <ele>120.9</ele>
        <time>2019-10-18T18:45:49Z</time>
      </trkpt>
      <trkpt lat="36.9221330" lon="-2.4410350">
        <ele>120.9</ele>
        <time>2019-10-18T18:45:50Z</time>
      </trkpt>
      <trkpt lat="36.9220940" lon="-2.4409970">
        <ele>120.9</ele>
        <time>2019-10-18T18:45:51Z</time>
      </trkpt>
      <trkpt lat="36.9220560" lon="-2.4409600">
        <ele>120.8</ele>
        <time>2019-10-18T18:45:52Z</time>
      </trkpt>
      <trkpt lat="36.9220200" lon="-2.4409220">
        <ele>120.7</ele>
        <time>2019-10-18T18:45:53Z</time>
      </trkpt>
      <trkpt lat="36.9219870" lon="-2.4408840">
        <ele>120.5</ele>
        <time>2019-10-18T18:45:54Z</time>
      </trkpt>
      <trkpt lat="36.9219590" lon="-2.4408420">
        <ele>120.4</ele>
        <time>2019-10-18T18:45:55Z</time>
      </trkpt>
      <trkpt lat="36.9219360" lon="-2.4407980">
        <ele>120.2</ele>
        <time>2019-10-18T18:45:56Z</time>
      </trkpt>
      <trkpt lat="36.9219160" lon="-2.4407500">
        <ele>120.0</ele>
        <time>2019-10-18T18:45:57Z</time>
      </trkpt>
      <trkpt lat="36.9219000" lon="-2.4406990">
        <ele>119.8</ele>
        <time>2019-10-18T18:45:58Z</time>
      </trkpt>
      <trkpt lat="36.9218870" lon="-2.4406450">
        <ele>119.6</ele>
        <time>2019-10-18T18:45:59Z</time>
      </trkpt>
      <trkpt lat="36.9218780" lon="-2.4405890">
        <ele>119.3</ele>
        <time>2019-10-18T18:46:00Z</time>
      </trkpt>
      <trkpt lat="36.9218740" lon="-2.4405310">
        <ele>119.1</ele>
        <time>2019-10-18T18:46:01Z</time>
      </trkpt>
      <trkpt lat="36.9218730" lon="-2.4404700">
        <ele>118.8</ele>
        <time>2019-10-18T18:46:02Z</time>
      </trkpt>
      <trkpt lat="36.9218760" lon="-2.4404050">
        <ele>118.5</ele>
        <time>2019-10-18T18:46:03Z</time>
      </trkpt>
      <trkpt lat="36.9218810" lon="-2.4403380">
        <ele>118.3</ele>
        <time>2019-10-18T18:46:04Z</time>
      </trkpt>
      <trkpt lat="36.9218890" lon="-2.4402680">
        <ele>118.0</ele>
        <time>2019-10-18T18:46:05Z</time>
      </trkpt>
      <trkpt lat="36.9218980" lon="-2.4401970">
        <ele>117.7</ele>
        <time>2019-10-18T18:46:06Z</time>
      </trkpt>
      <trkpt lat="36.9219070" lon="-2.4401230">
        <ele>117.5</ele>
        <time>2019-10-18T18:46:07Z</time>
      </trkpt>
      <trkpt lat="36.9219160" lon="-2.4400470">
        <ele>117.3</ele>
        <time>2019-10-18T18:46:08Z</time>
      </trkpt>
      <trkpt lat="36.9219250" lon="-2.4399690">
        <ele>117.2</ele>
        <time>2019-10-18T18:46:09Z</time>
      </trkpt>
      <trkpt lat="36.9219350" lon="-2.4398890">
        <ele>117.1</ele>
        <time>2019-10-18T18:46:10Z</time>
      </trkpt>
      <trkpt lat="36.9219460" lon="-2.4398080">
        <ele>117.0</ele>
        <time>2019-10-18T18:46:11Z</time>
      </trkpt>
      <trkpt lat="36.9219560" lon="-2.4397250">
        <ele>117.0</ele>
        <time>2019-10-18T18:46:12Z</time>
      </trkpt>
      <trkpt lat="36.9219670" lon="-2.4396400">
        <ele>117.0</ele>
        <time>2019-10-18T18:46:13Z</time>
      </trkpt>
      <trkpt lat="36.9219780" lon="-2.4395530">
        <ele>117.0</ele>
        <time>2019-10-18T18:46:14Z</time>
      </trkpt>
      <trkpt lat="36.9219900" lon="-2.4394620">
        <ele>117.0</ele>
        <time>2019-10-18T18:46:15Z</time>
      </trkpt>
      <trkpt lat="36.9220030" lon="-2.4393680">
        <ele>117.0</ele>
        <time>2019-10-18T18:46:16Z</time>
      </trkpt>
      <trkpt lat="36.9220160" lon="-2.4392720">
        <ele>117.0</ele>
        <time>2019-10-18T18:46:17Z</time>
      </trkpt>
      <trkpt lat="36.9220280" lon="-2.4391750">
        <ele>117.0</ele>
        <time>2019-10-18T18:46:18Z</time>
      </trkpt>
      <trkpt lat="36.9220430" lon="-2.4390770">
        <ele>117.0</ele>
        <time>2019-10-18T18:46:19Z</time>
      </trkpt>
      <trkpt lat="36.9220580" lon="-2.4389800">
        <ele>117.0</ele>
        <time>2019-10-18T18:46:20Z</time>
      </trkpt>
      <trkpt lat="36.9220700" lon="-2.4388820">
        <ele>117.1</ele>
        <time>2019-10-18T18:46:21Z</time>
      </trkpt>
      <trkpt lat="36.9220750" lon="-2.4387870">
        <ele>117.3</ele>
        <time>2019-10-18T18:46:22Z</time>
      </trkpt>
      <trkpt lat="36.9220720" lon="-2.4386980">
        <ele>117.4</ele>
        <time>2019-10-18T18:46:23Z</time>
      </trkpt>
      <trkpt lat="36.9220720" lon="-2.4386250">
        <ele>117.6</ele>
        <time>2019-10-18T18:46:24Z</time>
      </trkpt>
      <trkpt lat="36.9220740" lon="-2.4385650">
        <ele>117.7</ele>
        <time>2019-10-18T18:46:25Z</time>
      </trkpt>
      <trkpt lat="36.9220810" lon="-2.4385190">
        <ele>117.9</ele>
        <time>2019-10-18T18:46:26Z</time>
      </trkpt>
      <trkpt lat="36.9220910" lon="-2.4384740">
        <ele>118.0</ele>
        <time>2019-10-18T18:46:27Z</time>
      </trkpt>
      <trkpt lat="36.9221070" lon="-2.4384320">
        <ele>118.0</ele>
        <time>2019-10-18T18:46:28Z</time>
      </trkpt>
      <trkpt lat="36.9221290" lon="-2.4383950">
        <ele>118.1</ele>
        <time>2019-10-18T18:46:29Z</time>
      </trkpt>
      <trkpt lat="36.9221540" lon="-2.4383620">
        <ele>118.2</ele>
        <time>2019-10-18T18:46:30Z</time>
      </trkpt>
      <trkpt lat="36.9221870" lon="-2.4383340">
        <ele>118.3</ele>
        <time>2019-10-18T18:46:31Z</time>
      </trkpt>
      <trkpt lat="36.9222220" lon="-2.4383070">
        <ele>118.5</ele>
        <time>2019-10-18T18:46:32Z</time>
      </trkpt>
      <trkpt lat="36.9222580" lon="-2.4382790">
        <ele>118.6</ele>
        <time>2019-10-18T18:46:33Z</time>
      </trkpt>
      <trkpt lat="36.9222900" lon="-2.4382500">
        <ele>118.7</ele>
        <time>2019-10-18T18:46:34Z</time>
      </trkpt>
      <trkpt lat="36.9223210" lon="-2.4382190">
        <ele>118.8</ele>
        <time>2019-10-18T18:46:35Z</time>
      </trkpt>
      <trkpt lat="36.9223520" lon="-2.4381880">
        <ele>118.9</ele>
        <time>2019-10-18T18:46:36Z</time>
      </trkpt>
      <trkpt lat="36.9223820" lon="-2.4381550">
        <ele>119.0</ele>
        <time>2019-10-18T18:46:37Z</time>
      </trkpt>
      <trkpt lat="36.9224120" lon="-2.4381220">
        <ele>119.1</ele>
        <time>2019-10-18T18:46:38Z</time>
      </trkpt>
      <trkpt lat="36.9224390" lon="-2.4380900">
        <ele>119.2</ele>
        <time>2019-10-18T18:46:39Z</time>
      </trkpt>
      <trkpt lat="36.9224640" lon="-2.4380590">
        <ele>119.3</ele>
        <time>2019-10-18T18:46:40Z</time>
      </trkpt>
      <trkpt lat="36.9224880" lon="-2.4380300">
        <ele>119.4</ele>
        <time>2019-10-18T18:46:41Z</time>
      </trkpt>
      <trkpt lat="36.9225100" lon="-2.4380010">
        <ele>119.5</ele>
        <time>2019-10-18T18:46:42Z</time>
      </trkpt>
      <trkpt lat="36.9225340" lon="-2.4379730">
        <ele>119.5</ele>
        <time>2019-10-18T18:46:43Z</time>
      </trkpt>
      <trkpt lat="36.9225580" lon="-2.4379450">
        <ele>119.6</ele>
        <time>2019-10-18T18:46:44Z</time>
      </trkpt>
      <trkpt lat="36.9225840" lon="-2.4379150">
        <ele>119.6</ele>
        <time>2019-10-18T18:46:45Z</time>
      </trkpt>
      <trkpt lat="36.9226090" lon="-2.4378830">
        <ele>119.7</ele>
        <time>2019-10-18T18:46:46Z</time>
      </trkpt>
      <trkpt lat="36.9226340" lon="-2.4378490">
        <ele>119.7</ele>
        <time>2019-10-18T18:46:47Z</time>
      </trkpt>
      <trkpt lat="36.9226590" lon="-2.4378120">
        <ele>119.7</ele>
        <time>2019-10-18T18:46:48Z</time>
      </trkpt>
      <trkpt lat="36.9226840" lon="-2.4377740">
        <ele>119.7</ele>
        <time>2019-10-18T18:46:49Z</time>
      </trkpt>
      <trkpt lat="36.9227120" lon="-2.4377360">
        <ele>119.7</ele>
        <time>2019-10-18T18:46:50Z</time>
      </trkpt>
      <trkpt lat="36.9227400" lon="-2.4377000">
        <ele>119.7</ele>
        <time>2019-10-18T18:46:51Z</time>
      </trkpt>
      <trkpt lat="36.9227710" lon="-2.4376670">
        <ele>119.8</ele>
        <time>2019-10-18T18:46:52Z</time>
      </trkpt>
      <trkpt lat="36.9228020" lon="-2.4376350">
        <ele>119.8</ele>
        <time>2019-10-18T18:46:53Z</time>
      </trkpt>
      <trkpt lat="36.9228350" lon="-2.4376040">
        <ele>119.9</ele>
        <time>2019-10-18T18:46:54Z</time>
      </trkpt>
      <trkpt lat="36.9228670" lon="-2.4375730">
        <ele>120.0</ele>
        <time>2019-10-18T18:46:55Z</time>
      </trkpt>
      <trkpt lat="36.9228990" lon="-2.4375410">
        <ele>120.1</ele>
        <time>2019-10-18T18:46:56Z</time>
      </trkpt>
      <trkpt lat="36.9229310" lon="-2.4375100">
        <ele>120.2</ele>
        <time>2019-10-18T18:46:57Z</time>
      </trkpt>
      <trkpt lat="36.9229620" lon="-2.4374790">
        <ele>120.3</ele>
        <time>2019-10-18T18:46:58Z</time>
      </trkpt>
      <trkpt lat="36.9229930" lon="-2.4374480">
        <ele>120.4</ele>
        <time>2019-10-18T18:46:59Z</time>
      </trkpt>
      <trkpt lat="36.9230230" lon="-2.4374180">
        <ele>120.5</ele>
        <time>2019-10-18T18:47:00Z</time>
      </trkpt>
      <trkpt lat="36.9230530" lon="-2.4373900">
        <ele>120.5</ele>
        <time>2019-10-18T18:47:01Z</time>
      </trkpt>
      <trkpt lat="36.9230820" lon="-2.4373630">
        <ele>120.6</ele>
        <time>2019-10-18T18:47:02Z</time>
      </trkpt>
      <trkpt lat="36.9231100" lon="-2.4373360">
        <ele>120.6</ele>
        <time>2019-10-18T18:47:03Z</time>
      </trkpt>
      <trkpt lat="36.9231370" lon="-2.4373070">
        <ele>120.6</ele>
        <time>2019-10-18T18:47:04Z</time>
      </trkpt>
      <trkpt lat="36.9231660" lon="-2.4372780">
        <ele>120.7</ele>
        <time>2019-10-18T18:47:05Z</time>
      </trkpt>
      <trkpt lat="36.9231970" lon="-2.4372490">
        <ele>120.7</ele>
        <time>2019-10-18T18:47:06Z</time>
      </trkpt>
      <trkpt lat="36.9232290" lon="-2.4372190">
        <ele>120.8</ele>
        <time>2019-10-18T18:47:07Z</time>
      </trkpt>
      <trkpt lat="36.9232600" lon="-2.4371880">
        <ele>120.9</ele>
        <time>2019-10-18T18:47:08Z</time>
      </trkpt>
      <trkpt lat="36.9232910" lon="-2.4371580">
        <ele>121.0</ele>
        <time>2019-10-18T18:47:09Z</time>
      </trkpt>
      <trkpt lat="36.9233220" lon="-2.4371270">
        <ele>121.2</ele>
        <time>2019-10-18T18:47:10Z</time>
      </trkpt>
      <trkpt lat="36.9233520" lon="-2.4370950">
        <ele>121.2</ele>
        <time>2019-10-18T18:47:11Z</time>
      </trkpt>
      <trkpt lat="36.9233820" lon="-2.4370620">
        <ele>121.3</ele>
        <time>2019-10-18T18:47:12Z</time>
      </trkpt>
      <trkpt lat="36.9234110" lon="-2.4370290">
        <ele>121.3</ele>
        <time>2019-10-18T18:47:13Z</time>
      </trkpt>
      <trkpt lat="36.9234410" lon="-2.4369970">
        <ele>121.3</ele>
        <time>2019-10-18T18:47:14Z</time>
      </trkpt>
      <trkpt lat="36.9234710" lon="-2.4369640">
        <ele>121.3</ele>
        <time>2019-10-18T18:47:15Z</time>
      </trkpt>
      <trkpt lat="36.9235020" lon="-2.4369330">
        <ele>121.2</ele>
        <time>2019-10-18T18:47:16Z</time>
      </trkpt>
      <trkpt lat="36.9235330" lon="-2.4369010">
        <ele>121.1</ele>
        <time>2019-10-18T18:47:17Z</time>
      </trkpt>
      <trkpt lat="36.9235630" lon="-2.4368700">
        <ele>121.0</ele>
        <time>2019-10-18T18:47:18Z</time>
      </trkpt>
      <trkpt lat="36.9235930" lon="-2.4368370">
        <ele>120.9</ele>
        <time>2019-10-18T18:47:19Z</time>
      </trkpt>
      <trkpt lat="36.9236230" lon="-2.4368050">
        <ele>120.7</ele>
        <time>2019-10-18T18:47:20Z</time>
      </trkpt>
      <trkpt lat="36.9236520" lon="-2.4367730">
        <ele>120.7</ele>
        <time>2019-10-18T18:47:21Z</time>
      </trkpt>
      <trkpt lat="36.9236820" lon="-2.4367410">
        <ele>120.7</ele>
        <time>2019-10-18T18:47:22Z</time>
      </trkpt>
      <trkpt lat="36.9237120" lon="-2.4367080">
        <ele>120.7</ele>
        <time>2019-10-18T18:47:23Z</time>
      </trkpt>
      <trkpt lat="36.9237420" lon="-2.4366750">
        <ele>120.7</ele>
        <time>2019-10-18T18:47:24Z</time>
      </trkpt>
      <trkpt lat="36.9237710" lon="-2.4366420">
        <ele>120.8</ele>
        <time>2019-10-18T18:47:25Z</time>
      </trkpt>
      <trkpt lat="36.9238000" lon="-2.4366080">
        <ele>120.9</ele>
        <time>2019-10-18T18:47:26Z</time>
      </trkpt>
      <trkpt lat="36.9238290" lon="-2.4365760">
        <ele>121.0</ele>
        <time>2019-10-18T18:47:27Z</time>
      </trkpt>
      <trkpt lat="36.9238570" lon="-2.4365450">
        <ele>121.1</ele>
        <time>2019-10-18T18:47:28Z</time>
      </trkpt>
      <trkpt lat="36.9238850" lon="-2.4365140">
        <ele>121.1</ele>
        <time>2019-10-18T18:47:29Z</time>
      </trkpt>
      <trkpt lat="36.9239120" lon="-2.4364820">
        <ele>121.2</ele>
        <time>2019-10-18T18:47:30Z</time>
      </trkpt>
      <trkpt lat="36.9239380" lon="-2.4364510">
        <ele>121.3</ele>
        <time>2019-10-18T18:47:31Z</time>
      </trkpt>
      <trkpt lat="36.9239650" lon="-2.4364200">
        <ele>121.3</ele>
        <time>2019-10-18T18:47:32Z</time>
      </trkpt>
      <trkpt lat="36.9239930" lon="-2.4363910">
        <ele>121.4</ele>
        <time>2019-10-18T18:47:33Z</time>
      </trkpt>
      <trkpt lat="36.9240210" lon="-2.4363630">
        <ele>121.4</ele>
        <time>2019-10-18T18:47:34Z</time>
      </trkpt>
      <trkpt lat="36.9240490" lon="-2.4363350">
        <ele>121.4</ele>
        <time>2019-10-18T18:47:35Z</time>
      </trkpt>
      <trkpt lat="36.9240770" lon="-2.4363060">
        <ele>121.4</ele>
        <time>2019-10-18T18:47:36Z</time>
      </trkpt>
      <trkpt lat="36.9241050" lon="-2.4362750">
        <ele>121.4</ele>
        <time>2019-10-18T18:47:37Z</time>
      </trkpt>
      <trkpt lat="36.9241320" lon="-2.4362440">
        <ele>121.4</ele>
        <time>2019-10-18T18:47:38Z</time>
      </trkpt>
      <trkpt lat="36.9241600" lon="-2.4362130">
        <ele>121.5</ele>
        <time>2019-10-18T18:47:39Z</time>
      </trkpt>
      <trkpt lat="36.9241890" lon="-2.4361820">
        <ele>121.6</ele>
        <time>2019-10-18T18:47:40Z</time>
      </trkpt>
      <trkpt lat="36.9242170" lon="-2.4361510">
        <ele>121.6</ele>
        <time>2019-10-18T18:47:41Z</time>
      </trkpt>
      <trkpt lat="36.9242440" lon="-2.4361190">
        <ele>121.7</ele>
        <time>2019-10-18T18:47:42Z</time>
      </trkpt>
      <trkpt lat="36.9242720" lon="-2.4360870">
        <ele>121.8</ele>
        <time>2019-10-18T18:47:43Z</time>
      </trkpt>
      <trkpt lat="36.9243000" lon="-2.4360560">
        <ele>121.9</ele>
        <time>2019-10-18T18:47:44Z</time>
      </trkpt>
      <trkpt lat="36.9243270" lon="-2.4360250">
        <ele>122.0</ele>
        <time>2019-10-18T18:47:45Z</time>
      </trkpt>
      <trkpt lat="36.9243530" lon="-2.4359930">
        <ele>122.1</ele>
        <time>2019-10-18T18:47:46Z</time>
      </trkpt>
      <trkpt lat="36.9243760" lon="-2.4359570">
        <ele>122.2</ele>
        <time>2019-10-18T18:47:47Z</time>
      </trkpt>
      <trkpt lat="36.9243990" lon="-2.4359190">
        <ele>122.2</ele>
        <time>2019-10-18T18:47:48Z</time>
      </trkpt>
      <trkpt lat="36.9244200" lon="-2.4358770">
        <ele>122.2</ele>
        <time>2019-10-18T18:47:49Z</time>
      </trkpt>
      <trkpt lat="36.9244380" lon="-2.4358310">
        <ele>122.3</ele>
        <time>2019-10-18T18:47:50Z</time>
      </trkpt>
      <trkpt lat="36.9244510" lon="-2.4357810">
        <ele>122.3</ele>
        <time>2019-10-18T18:47:51Z</time>
      </trkpt>
      <trkpt lat="36.9244540" lon="-2.4357300">
        <ele>122.3</ele>
        <time>2019-10-18T18:47:52Z</time>
      </trkpt>
      <trkpt lat="36.9244510" lon="-2.4356790">
        <ele>122.3</ele>
        <time>2019-10-18T18:47:53Z</time>
      </trkpt>
      <trkpt lat="36.9244420" lon="-2.4356280">
        <ele>122.3</ele>
        <time>2019-10-18T18:47:54Z</time>
      </trkpt>
      <trkpt lat="36.9244320" lon="-2.4355780">
        <ele>122.3</ele>
        <time>2019-10-18T18:47:55Z</time>
      </trkpt>
      <trkpt lat="36.9244210" lon="-2.4355290">
        <ele>122.4</ele>
        <time>2019-10-18T18:47:56Z</time>
      </trkpt>
      <trkpt lat="36.9244100" lon="-2.4354800">
        <ele>122.7</ele>
        <time>2019-10-18T18:47:57Z</time>
      </trkpt>
      <trkpt lat="36.9243980" lon="-2.4354320">
        <ele>123.0</ele>
        <time>2019-10-18T18:47:58Z</time>
      </trkpt>
      <trkpt lat="36.9243850" lon="-2.4353840">
        <ele>123.2</ele>
        <time>2019-10-18T18:47:59Z</time>
      </trkpt>
      <trkpt lat="36.9243730" lon="-2.4353360">
        <ele>123.4</ele>
        <time>2019-10-18T18:48:00Z</time>
      </trkpt>
      <trkpt lat="36.9243610" lon="-2.4352890">
        <ele>123.5</ele>
        <time>2019-10-18T18:48:01Z</time>
      </trkpt>
      <trkpt lat="36.9243500" lon="-2.4352450">
        <ele>123.6</ele>
        <time>2019-10-18T18:48:02Z</time>
      </trkpt>
      <trkpt lat="36.9243380" lon="-2.4352030">
        <ele>123.7</ele>
        <time>2019-10-18T18:48:03Z</time>
      </trkpt>
      <trkpt lat="36.9243280" lon="-2.4351600">
        <ele>123.9</ele>
        <time>2019-10-18T18:48:04Z</time>
      </trkpt>
      <trkpt lat="36.9243200" lon="-2.4351170">
        <ele>124.0</ele>
        <time>2019-10-18T18:48:05Z</time>
      </trkpt>
      <trkpt lat="36.9243130" lon="-2.4350720">
        <ele>124.1</ele>
        <time>2019-10-18T18:48:06Z</time>
      </trkpt>
      <trkpt lat="36.9243060" lon="-2.4350280">
        <ele>124.2</ele>
        <time>2019-10-18T18:48:07Z</time>
      </trkpt>
      <trkpt lat="36.9242990" lon="-2.4349780">
        <ele>124.4</ele>
        <time>2019-10-18T18:48:08Z</time>
      </trkpt>
      <trkpt lat="36.9242910" lon="-2.4349250">
        <ele>124.6</ele>
        <time>2019-10-18T18:48:09Z</time>
      </trkpt>
      <trkpt lat="36.9242850" lon="-2.4348700">
        <ele>124.8</ele>
        <time>2019-10-18T18:48:10Z</time>
      </trkpt>
      <trkpt lat="36.9242790" lon="-2.4348160">
        <ele>125.0</ele>
        <time>2019-10-18T18:48:11Z</time>
      </trkpt>
      <trkpt lat="36.9242740" lon="-2.4347640">
        <ele>125.2</ele>
        <time>2019-10-18T18:48:12Z</time>
      </trkpt>
      <trkpt lat="36.9242680" lon="-2.4347140">
        <ele>125.3</ele>
        <time>2019-10-18T18:48:13Z</time>
      </trkpt>
      <trkpt lat="36.9242610" lon="-2.4346680">
        <ele>125.4</ele>
        <time>2019-10-18T18:48:14Z</time>
      </trkpt>
      <trkpt lat="36.9242530" lon="-2.4346230">
        <ele>125.5</ele>
        <time>2019-10-18T18:48:15Z</time>
      </trkpt>
      <trkpt lat="36.9242430" lon="-2.4345780">
        <ele>125.6</ele>
        <time>2019-10-18T18:48:16Z</time>
      </trkpt>
      <trkpt lat="36.9242330" lon="-2.4345330">
        <ele>125.7</ele>
        <time>2019-10-18T18:48:17Z</time>
      </trkpt>
      <trkpt lat="36.9242200" lon="-2.4344860">
        <ele>125.8</ele>
        <time>2019-10-18T18:48:18Z</time>
      </trkpt>
      <trkpt lat="36.9242060" lon="-2.4344400">
        <ele>125.9</ele>
        <time>2019-10-18T18:48:19Z</time>
      </trkpt>
      <trkpt lat="36.9241910" lon="-2.4343960">
        <ele>125.9</ele>
        <time>2019-10-18T18:48:20Z</time>
      </trkpt>
      <trkpt lat="36.9241750" lon="-2.4343550">
        <ele>126.0</ele>
        <time>2019-10-18T18:48:21Z</time>
      </trkpt>
      <trkpt lat="36.9241570" lon="-2.4343150">
        <ele>126.1</ele>
        <time>2019-10-18T18:48:22Z</time>
      </trkpt>
      <trkpt lat="36.9241360" lon="-2.4342780">
        <ele>126.2</ele>
        <time>2019-10-18T18:48:23Z</time>
      </trkpt>
      <trkpt lat="36.9241130" lon="-2.4342420">
        <ele>126.3</ele>
        <time>2019-10-18T18:48:24Z</time>
      </trkpt>
      <trkpt lat="36.9240910" lon="-2.4342090">
        <ele>126.4</ele>
        <time>2019-10-18T18:48:25Z</time>
      </trkpt>
      <trkpt lat="36.9240690" lon="-2.4341770">
        <ele>126.5</ele>
        <time>2019-10-18T18:48:26Z</time>
      </trkpt>
      <trkpt lat="36.9240490" lon="-2.4341460">
        <ele>126.6</ele>
        <time>2019-10-18T18:48:27Z</time>
      </trkpt>
      <trkpt lat="36.9240290" lon="-2.4341170">
        <ele>126.7</ele>
        <time>2019-10-18T18:48:28Z</time>
      </trkpt>
      <trkpt lat="36.9240090" lon="-2.4340900">
        <ele>126.8</ele>
        <time>2019-10-18T18:48:29Z</time>
      </trkpt>
      <trkpt lat="36.9239920" lon="-2.4340640">
        <ele>126.8</ele>
        <time>2019-10-18T18:48:30Z</time>
      </trkpt>
      <trkpt lat="36.9239780" lon="-2.4340340">
        <ele>126.9</ele>
        <time>2019-10-18T18:48:31Z</time>
      </trkpt>
      <trkpt lat="36.9239670" lon="-2.4339980">
        <ele>127.0</ele>
        <time>2019-10-18T18:48:32Z</time>
      </trkpt>
      <trkpt lat="36.9239610" lon="-2.4339550">
        <ele>127.1</ele>
        <time>2019-10-18T18:48:33Z</time>
      </trkpt>
      <trkpt lat="36.9239580" lon="-2.4339050">
        <ele>127.3</ele>
        <time>2019-10-18T18:48:34Z</time>
      </trkpt>
      <trkpt lat="36.9239590" lon="-2.4338520">
        <ele>127.5</ele>
        <time>2019-10-18T18:48:35Z</time>
      </trkpt>
      <trkpt lat="36.9239630" lon="-2.4338030">
        <ele>127.6</ele>
        <time>2019-10-18T18:48:36Z</time>
      </trkpt>
      <trkpt lat="36.9239710" lon="-2.4337590">
        <ele>127.7</ele>
        <time>2019-10-18T18:48:37Z</time>
      </trkpt>
      <trkpt lat="36.9239810" lon="-2.4337210">
        <ele>127.8</ele>
        <time>2019-10-18T18:48:38Z</time>
      </trkpt>
      <trkpt lat="36.9239910" lon="-2.4336840">
        <ele>128.0</ele>
        <time>2019-10-18T18:48:39Z</time>
      </trkpt>
      <trkpt lat="36.9240010" lon="-2.4336470">
        <ele>128.2</ele>
        <time>2019-10-18T18:48:40Z</time>
      </trkpt>
      <trkpt lat="36.9240110" lon="-2.4336120">
        <ele>128.3</ele>
        <time>2019-10-18T18:48:41Z</time>
      </trkpt>
      <trkpt lat="36.9240230" lon="-2.4335750">
        <ele>128.4</ele>
        <time>2019-10-18T18:48:42Z</time>
      </trkpt>
      <trkpt lat="36.9240370" lon="-2.4335360">
        <ele>128.5</ele>
        <time>2019-10-18T18:48:43Z</time>
      </trkpt>
      <trkpt lat="36.9240520" lon="-2.4334960">
        <ele>128.7</ele>
        <time>2019-10-18T18:48:44Z</time>
      </trkpt>
      <trkpt lat="36.9240670" lon="-2.4334550">
        <ele>128.8</ele>
        <time>2019-10-18T18:48:45Z</time>
      </trkpt>
      <trkpt lat="36.9240810" lon="-2.4334140">
        <ele>128.9</ele>
        <time>2019-10-18T18:48:46Z</time>
      </trkpt>
      <trkpt lat="36.9240960" lon="-2.4333740">
        <ele>129.0</ele>
        <time>2019-10-18T18:48:47Z</time>
      </trkpt>
      <trkpt lat="36.9241120" lon="-2.4333350">
        <ele>129.1</ele>
        <time>2019-10-18T18:48:48Z</time>
      </trkpt>
      <trkpt lat="36.9241280" lon="-2.4332960">
        <ele>129.2</ele>
        <time>2019-10-18T18:48:49Z</time>
      </trkpt>
      <trkpt lat="36.9241430" lon="-2.4332570">
        <ele>129.4</ele>
        <time>2019-10-18T18:48:50Z</time>
      </trkpt>
      <trkpt lat="36.9241570" lon="-2.4332190">
        <ele>129.7</ele>
        <time>2019-10-18T18:48:51Z</time>
      </trkpt>
      <trkpt lat="36.9241700" lon="-2.4331800">
        <ele>129.9</ele>
        <time>2019-10-18T18:48:52Z</time>
      </trkpt>
      <trkpt lat="36.9241830" lon="-2.4331420">
        <ele>130.1</ele>
        <time>2019-10-18T18:48:53Z</time>
      </trkpt>
      <trkpt lat="36.9241960" lon="-2.4331040">
        <ele>130.3</ele>
        <time>2019-10-18T18:48:54Z</time>
      </trkpt>
      <trkpt lat="36.9242080" lon="-2.4330680">
        <ele>130.4</ele>
        <time>2019-10-18T18:48:55Z</time>
      </trkpt>
      <trkpt lat="36.9242210" lon="-2.4330310">
        <ele>130.6</ele>
        <time>2019-10-18T18:48:56Z</time>
      </trkpt>
      <trkpt lat="36.9242350" lon="-2.4329950">
        <ele>130.7</ele>
        <time>2019-10-18T18:48:57Z</time>
      </trkpt>
      <trkpt lat="36.9242480" lon="-2.4329580">
        <ele>130.8</ele>
        <time>2019-10-18T18:48:58Z</time>
      </trkpt>
      <trkpt lat="36.9242610" lon="-2.4329220">
        <ele>130.9</ele>
        <time>2019-10-18T18:48:59Z</time>
      </trkpt>
      <trkpt lat="36.9242750" lon="-2.4328860">
        <ele>131.0</ele>
        <time>2019-10-18T18:49:00Z</time>
      </trkpt>
      <trkpt lat="36.9242920" lon="-2.4328530">
        <ele>131.1</ele>
        <time>2019-10-18T18:49:01Z</time>
      </trkpt>
      <trkpt lat="36.9243090" lon="-2.4328200">
        <ele>131.3</ele>
        <time>2019-10-18T18:49:02Z</time>
      </trkpt>
      <trkpt lat="36.9243260" lon="-2.4327860">
        <ele>131.4</ele>
        <time>2019-10-18T18:49:03Z</time>
      </trkpt>
      <trkpt lat="36.9243450" lon="-2.4327530">
        <ele>131.6</ele>
        <time>2019-10-18T18:49:04Z</time>
      </trkpt>
      <trkpt lat="36.9243640" lon="-2.4327190">
        <ele>131.9</ele>
        <time>2019-10-18T18:49:05Z</time>
      </trkpt>
      <trkpt lat="36.9243830" lon="-2.4326860">
        <ele>132.1</ele>
        <time>2019-10-18T18:49:06Z</time>
      </trkpt>
      <trkpt lat="36.9244010" lon="-2.4326530">
        <ele>132.3</ele>
        <time>2019-10-18T18:49:07Z</time>
      </trkpt>
      <trkpt lat="36.9244190" lon="-2.4326220">
        <ele>132.5</ele>
        <time>2019-10-18T18:49:08Z</time>
      </trkpt>
      <trkpt lat="36.9244370" lon="-2.4325920">
        <ele>132.7</ele>
        <time>2019-10-18T18:49:09Z</time>
      </trkpt>
      <trkpt lat="36.9244540" lon="-2.4325640">
        <ele>132.9</ele>
        <time>2019-10-18T18:49:10Z</time>
      </trkpt>
      <trkpt lat="36.9244710" lon="-2.4325370">
        <ele>133.0</ele>
        <time>2019-10-18T18:49:11Z</time>
      </trkpt>
      <trkpt lat="36.9244890" lon="-2.4325090">
        <ele>133.2</ele>
        <time>2019-10-18T18:49:12Z</time>
      </trkpt>
      <trkpt lat="36.9245070" lon="-2.4324820">
        <ele>133.4</ele>
        <time>2019-10-18T18:49:13Z</time>
      </trkpt>
      <trkpt lat="36.9245250" lon="-2.4324560">
        <ele>133.7</ele>
        <time>2019-10-18T18:49:14Z</time>
      </trkpt>
      <trkpt lat="36.9245440" lon="-2.4324300">
        <ele>133.9</ele>
        <time>2019-10-18T18:49:15Z</time>
      </trkpt>
      <trkpt lat="36.9245620" lon="-2.4324020">
        <ele>134.1</ele>
        <time>2019-10-18T18:49:16Z</time>
      </trkpt>
      <trkpt lat="36.9245790" lon="-2.4323720">
        <ele>134.4</ele>
        <time>2019-10-18T18:49:17Z</time>
      </trkpt>
      <trkpt lat="36.9245960" lon="-2.4323410">
        <ele>134.6</ele>
        <time>2019-10-18T18:49:18Z</time>
      </trkpt>
      <trkpt lat="36.9246130" lon="-2.4323090">
        <ele>134.9</ele>
        <time>2019-10-18T18:49:19Z</time>
      </trkpt>
      <trkpt lat="36.9246300" lon="-2.4322780">
        <ele>135.1</ele>
        <time>2019-10-18T18:49:20Z</time>
      </trkpt>
      <trkpt lat="36.9246480" lon="-2.4322460">
        <ele>135.3</ele>
        <time>2019-10-18T18:49:21Z</time>
      </trkpt>
      <trkpt lat="36.9246640" lon="-2.4322130">
        <ele>135.6</ele>
        <time>2019-10-18T18:49:22Z</time>
      </trkpt>
      <trkpt lat="36.9246800" lon="-2.4321790">
        <ele>135.8</ele>
        <time>2019-10-18T18:49:23Z</time>
      </trkpt>
      <trkpt lat="36.9246950" lon="-2.4321450">
        <ele>136.1</ele>
        <time>2019-10-18T18:49:24Z</time>
      </trkpt>
      <trkpt lat="36.9247110" lon="-2.4321130">
        <ele>136.3</ele>
        <time>2019-10-18T18:49:25Z</time>
      </trkpt>
      <trkpt lat="36.9247270" lon="-2.4320810">
        <ele>136.6</ele>
        <time>2019-10-18T18:49:26Z</time>
      </trkpt>
      <trkpt lat="36.9247450" lon="-2.4320500">
        <ele>136.8</ele>
        <time>2019-10-18T18:49:27Z</time>
      </trkpt>
      <trkpt lat="36.9247640" lon="-2.4320190">
        <ele>137.1</ele>
        <time>2019-10-18T18:49:28Z</time>
      </trkpt>
      <trkpt lat="36.9247810" lon="-2.4319880">
        <ele>137.3</ele>
        <time>2019-10-18T18:49:29Z</time>
      </trkpt>
      <trkpt lat="36.9247980" lon="-2.4319570">
        <ele>137.5</ele>
        <time>2019-10-18T18:49:30Z</time>
      </trkpt>
      <trkpt lat="36.9248130" lon="-2.4319260">
        <ele>137.6</ele>
        <time>2019-10-18T18:49:31Z</time>
      </trkpt>
      <trkpt lat="36.9248270" lon="-2.4318940">
        <ele>137.8</ele>
        <time>2019-10-18T18:49:32Z</time>
      </trkpt>
      <trkpt lat="36.9248400" lon="-2.4318620">
        <ele>138.0</ele>
        <time>2019-10-18T18:49:33Z</time>
      </trkpt>
      <trkpt lat="36.9248530" lon="-2.4318280">
        <ele>138.1</ele>
        <time>2019-10-18T18:49:34Z</time>
      </trkpt>
      <trkpt lat="36.9248670" lon="-2.4317920">
        <ele>138.3</ele>
        <time>2019-10-18T18:49:35Z</time>
      </trkpt>
      <trkpt lat="36.9248810" lon="-2.4317560">
        <ele>138.6</ele>
        <time>2019-10-18T18:49:36Z</time>
      </trkpt>
      <trkpt lat="36.9248940" lon="-2.4317190">
        <ele>138.8</ele>
        <time>2019-10-18T18:49:37Z</time>
      </trkpt>
      <trkpt lat="36.9249080" lon="-2.4316830">
        <ele>139.0</ele>
        <time>2019-10-18T18:49:38Z</time>
      </trkpt>
      <trkpt lat="36.9249220" lon="-2.4316470">
        <ele>139.3</ele>
        <time>2019-10-18T18:49:39Z</time>
      </trkpt>
      <trkpt lat="36.9249360" lon="-2.4316120">
        <ele>139.5</ele>
        <time>2019-10-18T18:49:40Z</time>
      </trkpt>
      <trkpt lat="36.9249480" lon="-2.4315770">
        <ele>139.6</ele>
        <time>2019-10-18T18:49:41Z</time>
      </trkpt>
      <trkpt lat="36.9249600" lon="-2.4315430">
        <ele>139.7</ele>
        <time>2019-10-18T18:49:42Z</time>
      </trkpt>
      <trkpt lat="36.9249710" lon="-2.4315110">
        <ele>139.9</ele>
        <time>2019-10-18T18:49:43Z</time>
      </trkpt>
      <trkpt lat="36.9249820" lon="-2.4314790">
        <ele>140.0</ele>
        <time>2019-10-18T18:49:44Z</time>
      </trkpt>
      <trkpt lat="36.9249940" lon="-2.4314470">
        <ele>140.1</ele>
        <time>2019-10-18T18:49:45Z</time>
      </trkpt>
      <trkpt lat="36.9250050" lon="-2.4314140">
        <ele>140.3</ele>
        <time>2019-10-18T18:49:46Z</time>
      </trkpt>
      <trkpt lat="36.9250160" lon="-2.4313810">
        <ele>140.4</ele>
        <time>2019-10-18T18:49:47Z</time>
      </trkpt>
      <trkpt lat="36.9250270" lon="-2.4313460">
        <ele>140.6</ele>
        <time>2019-10-18T18:49:48Z</time>
      </trkpt>
      <trkpt lat="36.9250380" lon="-2.4313120">
        <ele>140.8</ele>
        <time>2019-10-18T18:49:49Z</time>
      </trkpt>
      <trkpt lat="36.9250490" lon="-2.4312770">
        <ele>141.1</ele>
        <time>2019-10-18T18:49:50Z</time>
      </trkpt>
      <trkpt lat="36.9250610" lon="-2.4312420">
        <ele>141.3</ele>
        <time>2019-10-18T18:49:51Z</time>
      </trkpt>
      <trkpt lat="36.9250720" lon="-2.4312070">
        <ele>141.5</ele>
        <time>2019-10-18T18:49:52Z</time>
      </trkpt>
      <trkpt lat="36.9250830" lon="-2.4311710">
        <ele>141.7</ele>
        <time>2019-10-18T18:49:53Z</time>
      </trkpt>
      <trkpt lat="36.9250950" lon="-2.4311350">
        <ele>141.9</ele>
        <time>2019-10-18T18:49:54Z</time>
      </trkpt>
      <trkpt lat="36.9251060" lon="-2.4310990">
        <ele>142.1</ele>
        <time>2019-10-18T18:49:55Z</time>
      </trkpt>
      <trkpt lat="36.9251170" lon="-2.4310650">
        <ele>142.3</ele>
        <time>2019-10-18T18:49:56Z</time>
      </trkpt>
      <trkpt lat="36.9251290" lon="-2.4310310">
        <ele>142.5</ele>
        <time>2019-10-18T18:49:57Z</time>
      </trkpt>
      <trkpt lat="36.9251400" lon="-2.4309970">
        <ele>142.7</ele>
        <time>2019-10-18T18:49:58Z</time>
      </trkpt>
      <trkpt lat="36.9251520" lon="-2.4309620">
        <ele>142.9</ele>
        <time>2019-10-18T18:49:59Z</time>
      </trkpt>
      <trkpt lat="36.9251640" lon="-2.4309260">
        <ele>143.1</ele>
        <time>2019-10-18T18:50:00Z</time>
      </trkpt>
      <trkpt lat="36.9251780" lon="-2.4308900">
        <ele>143.4</ele>
        <time>2019-10-18T18:50:01Z</time>
      </trkpt>
      <trkpt lat="36.9251920" lon="-2.4308510">
        <ele>143.5</ele>
        <time>2019-10-18T18:50:02Z</time>
      </trkpt>
      <trkpt lat="36.9252050" lon="-2.4308130">
        <ele>143.7</ele>
        <time>2019-10-18T18:50:03Z</time>
      </trkpt>
      <trkpt lat="36.9252160" lon="-2.4307740">
        <ele>143.9</ele>
        <time>2019-10-18T18:50:04Z</time>
      </trkpt>
      <trkpt lat="36.9252260" lon="-2.4307350">
        <ele>144.0</ele>
        <time>2019-10-18T18:50:05Z</time>
      </trkpt>
      <trkpt lat="36.9252380" lon="-2.4306970">
        <ele>144.2</ele>
        <time>2019-10-18T18:50:06Z</time>
      </trkpt>
      <trkpt lat="36.9252500" lon="-2.4306590">
        <ele>144.3</ele>
        <time>2019-10-18T18:50:07Z</time>
      </trkpt>
      <trkpt lat="36.9252630" lon="-2.4306200">
        <ele>144.4</ele>
        <time>2019-10-18T18:50:08Z</time>
      </trkpt>
      <trkpt lat="36.9252750" lon="-2.4305810">
        <ele>144.6</ele>
        <time>2019-10-18T18:50:09Z</time>
      </trkpt>
      <trkpt lat="36.9252870" lon="-2.4305420">
        <ele>144.7</ele>
        <time>2019-10-18T18:50:10Z</time>
      </trkpt>
      <trkpt lat="36.9252980" lon="-2.4305040">
        <ele>144.8</ele>
        <time>2019-10-18T18:50:11Z</time>
      </trkpt>
      <trkpt lat="36.9253080" lon="-2.4304660">
        <ele>145.0</ele>
        <time>2019-10-18T18:50:12Z</time>
      </trkpt>
      <trkpt lat="36.9253190" lon="-2.4304290">
        <ele>145.1</ele>
        <time>2019-10-18T18:50:13Z</time>
      </trkpt>
      <trkpt lat="36.9253300" lon="-2.4303910">
        <ele>145.2</ele>
        <time>2019-10-18T18:50:14Z</time>
      </trkpt>
      <trkpt lat="36.9253430" lon="-2.4303540">
        <ele>145.3</ele>
        <time>2019-10-18T18:50:15Z</time>
      </trkpt>
      <trkpt lat="36.9253560" lon="-2.4303160">
        <ele>145.5</ele>
        <time>2019-10-18T18:50:16Z</time>
      </trkpt>
      <trkpt lat="36.9253660" lon="-2.4302790">
        <ele>145.6</ele>
        <time>2019-10-18T18:50:17Z</time>
      </trkpt>
      <trkpt lat="36.9253750" lon="-2.4302410">
        <ele>145.7</ele>
        <time>2019-10-18T18:50:18Z</time>
      </trkpt>
      <trkpt lat="36.9253830" lon="-2.4302030">
        <ele>145.8</ele>
        <time>2019-10-18T18:50:19Z</time>
      </trkpt>
      <trkpt lat="36.9253920" lon="-2.4301650">
        <ele>145.9</ele>
        <time>2019-10-18T18:50:20Z</time>
      </trkpt>
      <trkpt lat="36.9254030" lon="-2.4301250">
        <ele>146.1</ele>
        <time>2019-10-18T18:50:21Z</time>
      </trkpt>
      <trkpt lat="36.9254140" lon="-2.4300860">
        <ele>146.2</ele>
        <time>2019-10-18T18:50:22Z</time>
      </trkpt>
      <trkpt lat="36.9254240" lon="-2.4300470">
        <ele>146.3</ele>
        <time>2019-10-18T18:50:23Z</time>
      </trkpt>
      <trkpt lat="36.9254340" lon="-2.4300090">
        <ele>146.4</ele>
        <time>2019-10-18T18:50:24Z</time>
      </trkpt>
      <trkpt lat="36.9254440" lon="-2.4299700">
        <ele>146.6</ele>
        <time>2019-10-18T18:50:25Z</time>
      </trkpt>
      <trkpt lat="36.9254550" lon="-2.4299310">
        <ele>146.7</ele>
        <time>2019-10-18T18:50:26Z</time>
      </trkpt>
      <trkpt lat="36.9254640" lon="-2.4298930">
        <ele>146.8</ele>
        <time>2019-10-18T18:50:27Z</time>
      </trkpt>
      <trkpt lat="36.9254710" lon="-2.4298560">
        <ele>146.9</ele>
        <time>2019-10-18T18:50:28Z</time>
      </trkpt>
      <trkpt lat="36.9254810" lon="-2.4298190">
        <ele>147.1</ele>
        <time>2019-10-18T18:50:29Z</time>
      </trkpt>
      <trkpt lat="36.9254930" lon="-2.4297830">
        <ele>147.2</ele>
        <time>2019-10-18T18:50:30Z</time>
      </trkpt>
      <trkpt lat="36.9255070" lon="-2.4297450">
        <ele>147.3</ele>
        <time>2019-10-18T18:50:31Z</time>
      </trkpt>
      <trkpt lat="36.9255210" lon="-2.4297080">
        <ele>147.5</ele>
        <time>2019-10-18T18:50:32Z</time>
      </trkpt>
      <trkpt lat="36.9255330" lon="-2.4296690">
        <ele>147.6</ele>
        <time>2019-10-18T18:50:33Z</time>
      </trkpt>
      <trkpt lat="36.9255440" lon="-2.4296310">
        <ele>147.7</ele>
        <time>2019-10-18T18:50:34Z</time>
      </trkpt>
      <trkpt lat="36.9255560" lon="-2.4295930">
        <ele>147.8</ele>
        <time>2019-10-18T18:50:35Z</time>
      </trkpt>
      <trkpt lat="36.9255700" lon="-2.4295550">
        <ele>148.0</ele>
        <time>2019-10-18T18:50:36Z</time>
      </trkpt>
      <trkpt lat="36.9255860" lon="-2.4295180">
        <ele>148.1</ele>
        <time>2019-10-18T18:50:37Z</time>
      </trkpt>
      <trkpt lat="36.9256020" lon="-2.4294810">
        <ele>148.2</ele>
        <time>2019-10-18T18:50:38Z</time>
      </trkpt>
      <trkpt lat="36.9256170" lon="-2.4294430">
        <ele>148.3</ele>
        <time>2019-10-18T18:50:39Z</time>
      </trkpt>
      <trkpt lat="36.9256320" lon="-2.4294060">
        <ele>148.5</ele>
        <time>2019-10-18T18:50:40Z</time>
      </trkpt>
      <trkpt lat="36.9256460" lon="-2.4293670">
        <ele>148.6</ele>
        <time>2019-10-18T18:50:41Z</time>
      </trkpt>
      <trkpt lat="36.9256600" lon="-2.4293280">
        <ele>148.7</ele>
        <time>2019-10-18T18:50:42Z</time>
      </trkpt>
      <trkpt lat="36.9256740" lon="-2.4292880">
        <ele>148.9</ele>
        <time>2019-10-18T18:50:43Z</time>
      </trkpt>
      <trkpt lat="36.9256870" lon="-2.4292500">
        <ele>149.0</ele>
        <time>2019-10-18T18:50:44Z</time>
      </trkpt>
      <trkpt lat="36.9257020" lon="-2.4292120">
        <ele>149.1</ele>
        <time>2019-10-18T18:50:45Z</time>
      </trkpt>
      <trkpt lat="36.9257160" lon="-2.4291750">
        <ele>149.2</ele>
        <time>2019-10-18T18:50:46Z</time>
      </trkpt>
      <trkpt lat="36.9257290" lon="-2.4291380">
        <ele>149.3</ele>
        <time>2019-10-18T18:50:47Z</time>
      </trkpt>
      <trkpt lat="36.9257430" lon="-2.4291000">
        <ele>149.4</ele>
        <time>2019-10-18T18:50:48Z</time>
      </trkpt>
      <trkpt lat="36.9257570" lon="-2.4290620">
        <ele>149.5</ele>
        <time>2019-10-18T18:50:49Z</time>
      </trkpt>
      <trkpt lat="36.9257710" lon="-2.4290240">
        <ele>149.6</ele>
        <time>2019-10-18T18:50:50Z</time>
      </trkpt>
      <trkpt lat="36.9257850" lon="-2.4289860">
        <ele>149.7</ele>
        <time>2019-10-18T18:50:51Z</time>
      </trkpt>
      <trkpt lat="36.9257980" lon="-2.4289480">
        <ele>149.9</ele>
        <time>2019-10-18T18:50:52Z</time>
      </trkpt>
      <trkpt lat="36.9258110" lon="-2.4289110">
        <ele>150.0</ele>
        <time>2019-10-18T18:50:53Z</time>
      </trkpt>
      <trkpt lat="36.9258230" lon="-2.4288760">
        <ele>150.1</ele>
        <time>2019-10-18T18:50:54Z</time>
      </trkpt>
      <trkpt lat="36.9258350" lon="-2.4288440">
        <ele>150.2</ele>
        <time>2019-10-18T18:50:55Z</time>
      </trkpt>
      <trkpt lat="36.9258450" lon="-2.4288160">
        <ele>150.2</ele>
        <time>2019-10-18T18:50:56Z</time>
      </trkpt>
      <trkpt lat="36.9258550" lon="-2.4287890">
        <ele>150.3</ele>
        <time>2019-10-18T18:50:57Z</time>
      </trkpt>
      <trkpt lat="36.9258650" lon="-2.4287600">
        <ele>150.4</ele>
        <time>2019-10-18T18:50:58Z</time>
      </trkpt>
      <trkpt lat="36.9258770" lon="-2.4287300">
        <ele>150.5</ele>
        <time>2019-10-18T18:50:59Z</time>
      </trkpt>
      <trkpt lat="36.9258910" lon="-2.4286970">
        <ele>150.6</ele>
        <time>2019-10-18T18:51:00Z</time>
      </trkpt>
      <trkpt lat="36.9259060" lon="-2.4286640">
        <ele>150.7</ele>
        <time>2019-10-18T18:51:01Z</time>
      </trkpt>
      <trkpt lat="36.9259190" lon="-2.4286300">
        <ele>150.8</ele>
        <time>2019-10-18T18:51:02Z</time>
      </trkpt>
      <trkpt lat="36.9259320" lon="-2.4285960">
        <ele>150.9</ele>
        <time>2019-10-18T18:51:03Z</time>
      </trkpt>
      <trkpt lat="36.9259460" lon="-2.4285620">
        <ele>151.0</ele>
        <time>2019-10-18T18:51:04Z</time>
      </trkpt>
      <trkpt lat="36.9259600" lon="-2.4285280">
        <ele>151.1</ele>
        <time>2019-10-18T18:51:05Z</time>
      </trkpt>
      <trkpt lat="36.9259730" lon="-2.4284920">
        <ele>151.2</ele>
        <time>2019-10-18T18:51:06Z</time>
      </trkpt>
      <trkpt lat="36.9259850" lon="-2.4284560">
        <ele>151.4</ele>
        <time>2019-10-18T18:51:07Z</time>
      </trkpt>
      <trkpt lat="36.9259960" lon="-2.4284210">
        <ele>151.5</ele>
        <time>2019-10-18T18:51:08Z</time>
      </trkpt>
      <trkpt lat="36.9260070" lon="-2.4283860">
        <ele>151.6</ele>
        <time>2019-10-18T18:51:09Z</time>
      </trkpt>
      <trkpt lat="36.9260200" lon="-2.4283520">
        <ele>151.7</ele>
        <time>2019-10-18T18:51:10Z</time>
      </trkpt>
      <trkpt lat="36.9260330" lon="-2.4283180">
        <ele>151.8</ele>
        <time>2019-10-18T18:51:11Z</time>
      </trkpt>
      <trkpt lat="36.9260470" lon="-2.4282840">
        <ele>152.0</ele>
        <time>2019-10-18T18:51:12Z</time>
      </trkpt>
      <trkpt lat="36.9260600" lon="-2.4282500">
        <ele>152.1</ele>
        <time>2019-10-18T18:51:13Z</time>
      </trkpt>
      <trkpt lat="36.9260730" lon="-2.4282150">
        <ele>152.2</ele>
        <time>2019-10-18T18:51:14Z</time>
      </trkpt>
      <trkpt lat="36.9260870" lon="-2.4281810">
        <ele>152.3</ele>
        <time>2019-10-18T18:51:15Z</time>
      </trkpt>
      <trkpt lat="36.9261020" lon="-2.4281460">
        <ele>152.4</ele>
        <time>2019-10-18T18:51:16Z</time>
      </trkpt>
      <trkpt lat="36.9261200" lon="-2.4281110">
        <ele>152.5</ele>
        <time>2019-10-18T18:51:17Z</time>
      </trkpt>
      <trkpt lat="36.9261360" lon="-2.4280760">
        <ele>152.6</ele>
        <time>2019-10-18T18:51:18Z</time>
      </trkpt>
      <trkpt lat="36.9261530" lon="-2.4280410">
        <ele>152.7</ele>
        <time>2019-10-18T18:51:19Z</time>
      </trkpt>
      <trkpt lat="36.9261690" lon="-2.4280060">
        <ele>152.9</ele>
        <time>2019-10-18T18:51:20Z</time>
      </trkpt>
      <trkpt lat="36.9261850" lon="-2.4279700">
        <ele>153.0</ele>
        <time>2019-10-18T18:51:21Z</time>
      </trkpt>
      <trkpt lat="36.9262000" lon="-2.4279330">
        <ele>153.1</ele>
        <time>2019-10-18T18:51:22Z</time>
      </trkpt>
      <trkpt lat="36.9262160" lon="-2.4278960">
        <ele>153.2</ele>
        <time>2019-10-18T18:51:23Z</time>
      </trkpt>
      <trkpt lat="36.9262300" lon="-2.4278590">
        <ele>153.3</ele>
        <time>2019-10-18T18:51:24Z</time>
      </trkpt>
      <trkpt lat="36.9262450" lon="-2.4278220">
        <ele>153.4</ele>
        <time>2019-10-18T18:51:25Z</time>
      </trkpt>
      <trkpt lat="36.9262590" lon="-2.4277850">
        <ele>153.6</ele>
        <time>2019-10-18T18:51:26Z</time>
      </trkpt>
      <trkpt lat="36.9262740" lon="-2.4277470">
        <ele>153.7</ele>
        <time>2019-10-18T18:51:27Z</time>
      </trkpt>
      <trkpt lat="36.9262890" lon="-2.4277090">
        <ele>153.8</ele>
        <time>2019-10-18T18:51:28Z</time>
      </trkpt>
      <trkpt lat="36.9263020" lon="-2.4276720">
        <ele>153.9</ele>
        <time>2019-10-18T18:51:29Z</time>
      </trkpt>
      <trkpt lat="36.9263160" lon="-2.4276360">
        <ele>154.0</ele>
        <time>2019-10-18T18:51:30Z</time>
      </trkpt>
      <trkpt lat="36.9263300" lon="-2.4276010">
        <ele>154.1</ele>
        <time>2019-10-18T18:51:31Z</time>
      </trkpt>
      <trkpt lat="36.9263450" lon="-2.4275690">
        <ele>154.2</ele>
        <time>2019-10-18T18:51:32Z</time>
      </trkpt>
      <trkpt lat="36.9263620" lon="-2.4275390">
        <ele>154.3</ele>
        <time>2019-10-18T18:51:33Z</time>
      </trkpt>
      <trkpt lat="36.9263810" lon="-2.4275110">
        <ele>154.4</ele>
        <time>2019-10-18T18:51:34Z</time>
      </trkpt>
      <trkpt lat="36.9264040" lon="-2.4274850">
        <ele>154.5</ele>
        <time>2019-10-18T18:51:35Z</time>
      </trkpt>
      <trkpt lat="36.9264290" lon="-2.4274610">
        <ele>154.5</ele>
        <time>2019-10-18T18:51:36Z</time>
      </trkpt>
      <trkpt lat="36.9264540" lon="-2.4274370">
        <ele>154.6</ele>
        <time>2019-10-18T18:51:37Z</time>
      </trkpt>
      <trkpt lat="36.9264800" lon="-2.4274140">
        <ele>154.7</ele>
        <time>2019-10-18T18:51:38Z</time>
      </trkpt>
      <trkpt lat="36.9265060" lon="-2.4273920">
        <ele>154.8</ele>
        <time>2019-10-18T18:51:39Z</time>
      </trkpt>
      <trkpt lat="36.9265320" lon="-2.4273690">
        <ele>154.9</ele>
        <time>2019-10-18T18:51:40Z</time>
      </trkpt>
      <trkpt lat="36.9265580" lon="-2.4273470">
        <ele>155.0</ele>
        <time>2019-10-18T18:51:41Z</time>
      </trkpt>
      <trkpt lat="36.9265850" lon="-2.4273250">
        <ele>155.1</ele>
        <time>2019-10-18T18:51:42Z</time>
      </trkpt>
      <trkpt lat="36.9266120" lon="-2.4273050">
        <ele>155.2</ele>
        <time>2019-10-18T18:51:43Z</time>
      </trkpt>
      <trkpt lat="36.9266390" lon="-2.4272860">
        <ele>155.3</ele>
        <time>2019-10-18T18:51:44Z</time>
      </trkpt>
      <trkpt lat="36.9266680" lon="-2.4272660">
        <ele>155.4</ele>
        <time>2019-10-18T18:51:45Z</time>
      </trkpt>
      <trkpt lat="36.9266950" lon="-2.4272450">
        <ele>155.5</ele>
        <time>2019-10-18T18:51:46Z</time>
      </trkpt>
      <trkpt lat="36.9267230" lon="-2.4272240">
        <ele>155.6</ele>
        <time>2019-10-18T18:51:47Z</time>
      </trkpt>
      <trkpt lat="36.9267500" lon="-2.4272030">
        <ele>155.7</ele>
        <time>2019-10-18T18:51:48Z</time>
      </trkpt>
      <trkpt lat="36.9267780" lon="-2.4271830">
        <ele>155.8</ele>
        <time>2019-10-18T18:51:49Z</time>
      </trkpt>
      <trkpt lat="36.9268050" lon="-2.4271620">
        <ele>155.9</ele>
        <time>2019-10-18T18:51:50Z</time>
      </trkpt>
      <trkpt lat="36.9268330" lon="-2.4271410">
        <ele>156.0</ele>
        <time>2019-10-18T18:51:51Z</time>
      </trkpt>
      <trkpt lat="36.9268610" lon="-2.4271190">
        <ele>156.1</ele>
        <time>2019-10-18T18:51:52Z</time>
      </trkpt>
      <trkpt lat="36.9268910" lon="-2.4270970">
        <ele>156.2</ele>
        <time>2019-10-18T18:51:53Z</time>
      </trkpt>
      <trkpt lat="36.9269210" lon="-2.4270760">
        <ele>156.3</ele>
        <time>2019-10-18T18:51:54Z</time>
      </trkpt>
      <trkpt lat="36.9269510" lon="-2.4270550">
        <ele>156.4</ele>
        <time>2019-10-18T18:51:55Z</time>
      </trkpt>
      <trkpt lat="36.9269800" lon="-2.4270330">
        <ele>156.6</ele>
        <time>2019-10-18T18:51:56Z</time>
      </trkpt>
      <trkpt lat="36.9270100" lon="-2.4270120">
        <ele>156.7</ele>
        <time>2019-10-18T18:51:57Z</time>
      </trkpt>
      <trkpt lat="36.9270400" lon="-2.4269920">
        <ele>156.8</ele>
        <time>2019-10-18T18:51:58Z</time>
      </trkpt>
      <trkpt lat="36.9270700" lon="-2.4269720">
        <ele>156.9</ele>
        <time>2019-10-18T18:51:59Z</time>
      </trkpt>
      <trkpt lat="36.9271020" lon="-2.4269510">
        <ele>157.0</ele>
        <time>2019-10-18T18:52:00Z</time>
      </trkpt>
      <trkpt lat="36.9271320" lon="-2.4269280">
        <ele>157.2</ele>
        <time>2019-10-18T18:52:01Z</time>
      </trkpt>
      <trkpt lat="36.9271620" lon="-2.4269050">
        <ele>157.3</ele>
        <time>2019-10-18T18:52:02Z</time>
      </trkpt>
      <trkpt lat="36.9271910" lon="-2.4268810">
        <ele>157.4</ele>
        <time>2019-10-18T18:52:03Z</time>
      </trkpt>
      <trkpt lat="36.9272200" lon="-2.4268590">
        <ele>157.5</ele>
        <time>2019-10-18T18:52:04Z</time>
      </trkpt>
      <trkpt lat="36.9272490" lon="-2.4268360">
        <ele>157.6</ele>
        <time>2019-10-18T18:52:05Z</time>
      </trkpt>
      <trkpt lat="36.9272770" lon="-2.4268130">
        <ele>157.7</ele>
        <time>2019-10-18T18:52:06Z</time>
      </trkpt>
      <trkpt lat="36.9273050" lon="-2.4267900">
        <ele>157.8</ele>
        <time>2019-10-18T18:52:07Z</time>
      </trkpt>
      <trkpt lat="36.9273320" lon="-2.4267670">
        <ele>158.0</ele>
        <time>2019-10-18T18:52:08Z</time>
      </trkpt>
      <trkpt lat="36.9273600" lon="-2.4267450">
        <ele>158.1</ele>
        <time>2019-10-18T18:52:09Z</time>
      </trkpt>
      <trkpt lat="36.9273890" lon="-2.4267240">
        <ele>158.2</ele>
        <time>2019-10-18T18:52:10Z</time>
      </trkpt>
      <trkpt lat="36.9274190" lon="-2.4267040">
        <ele>158.3</ele>
        <time>2019-10-18T18:52:11Z</time>
      </trkpt>
      <trkpt lat="36.9274500" lon="-2.4266850">
        <ele>158.4</ele>
        <time>2019-10-18T18:52:12Z</time>
      </trkpt>
      <trkpt lat="36.9274820" lon="-2.4266660">
        <ele>158.5</ele>
        <time>2019-10-18T18:52:13Z</time>
      </trkpt>
      <trkpt lat="36.9275130" lon="-2.4266490">
        <ele>158.6</ele>
        <time>2019-10-18T18:52:14Z</time>
      </trkpt>
      <trkpt lat="36.9275450" lon="-2.4266320">
        <ele>158.7</ele>
        <time>2019-10-18T18:52:15Z</time>
      </trkpt>
      <trkpt lat="36.9275770" lon="-2.4266160">
        <ele>158.9</ele>
        <time>2019-10-18T18:52:16Z</time>
      </trkpt>
      <trkpt lat="36.9276090" lon="-2.4266000">
        <ele>159.0</ele>
        <time>2019-10-18T18:52:17Z</time>
      </trkpt>
      <trkpt lat="36.9276420" lon="-2.4265840">
        <ele>159.1</ele>
        <time>2019-10-18T18:52:18Z</time>
      </trkpt>
      <trkpt lat="36.9276730" lon="-2.4265670">
        <ele>159.2</ele>
        <time>2019-10-18T18:52:19Z</time>
      </trkpt>
      <trkpt lat="36.9277050" lon="-2.4265510">
        <ele>159.4</ele>
        <time>2019-10-18T18:52:20Z</time>
      </trkpt>
      <trkpt lat="36.9277370" lon="-2.4265360">
        <ele>159.5</ele>
        <time>2019-10-18T18:52:21Z</time>
      </trkpt>
      <trkpt lat="36.9277700" lon="-2.4265220">
        <ele>159.6</ele>
        <time>2019-10-18T18:52:22Z</time>
      </trkpt>
      <trkpt lat="36.9278020" lon="-2.4265060">
        <ele>159.7</ele>
        <time>2019-10-18T18:52:23Z</time>
      </trkpt>
      <trkpt lat="36.9278350" lon="-2.4264900">
        <ele>159.8</ele>
        <time>2019-10-18T18:52:24Z</time>
      </trkpt>
      <trkpt lat="36.9278680" lon="-2.4264740">
        <ele>160.0</ele>
        <time>2019-10-18T18:52:25Z</time>
      </trkpt>
      <trkpt lat="36.9279010" lon="-2.4264580">
        <ele>160.1</ele>
        <time>2019-10-18T18:52:26Z</time>
      </trkpt>
      <trkpt lat="36.9279340" lon="-2.4264410">
        <ele>160.2</ele>
        <time>2019-10-18T18:52:27Z</time>
      </trkpt>
      <trkpt lat="36.9279650" lon="-2.4264240">
        <ele>160.3</ele>
        <time>2019-10-18T18:52:28Z</time>
      </trkpt>
      <trkpt lat="36.9279950" lon="-2.4264060">
        <ele>160.4</ele>
        <time>2019-10-18T18:52:29Z</time>
      </trkpt>
      <trkpt lat="36.9280260" lon="-2.4263920">
        <ele>160.5</ele>
        <time>2019-10-18T18:52:30Z</time>
      </trkpt>
      <trkpt lat="36.9280560" lon="-2.4263800">
        <ele>160.6</ele>
        <time>2019-10-18T18:52:31Z</time>
      </trkpt>
      <trkpt lat="36.9280880" lon="-2.4263670">
        <ele>160.7</ele>
        <time>2019-10-18T18:52:32Z</time>
      </trkpt>
      <trkpt lat="36.9281200" lon="-2.4263520">
        <ele>160.8</ele>
        <time>2019-10-18T18:52:33Z</time>
      </trkpt>
      <trkpt lat="36.9281530" lon="-2.4263360">
        <ele>161.0</ele>
        <time>2019-10-18T18:52:34Z</time>
      </trkpt>
      <trkpt lat="36.9281840" lon="-2.4263180">
        <ele>161.1</ele>
        <time>2019-10-18T18:52:35Z</time>
      </trkpt>
      <trkpt lat="36.9282160" lon="-2.4263000">
        <ele>161.2</ele>
        <time>2019-10-18T18:52:36Z</time>
      </trkpt>
      <trkpt lat="36.9282480" lon="-2.4262850">
        <ele>161.3</ele>
        <time>2019-10-18T18:52:37Z</time>
      </trkpt>
      <trkpt lat="36.9282810" lon="-2.4262700">
        <ele>161.4</ele>
        <time>2019-10-18T18:52:38Z</time>
      </trkpt>
      <trkpt lat="36.9283130" lon="-2.4262560">
        <ele>161.5</ele>
        <time>2019-10-18T18:52:39Z</time>
      </trkpt>
      <trkpt lat="36.9283440" lon="-2.4262410">
        <ele>161.6</ele>
        <time>2019-10-18T18:52:40Z</time>
      </trkpt>
      <trkpt lat="36.9283750" lon="-2.4262270">
        <ele>161.8</ele>
        <time>2019-10-18T18:52:41Z</time>
      </trkpt>
      <trkpt lat="36.9284070" lon="-2.4262120">
        <ele>161.9</ele>
        <time>2019-10-18T18:52:42Z</time>
      </trkpt>
      <trkpt lat="36.9284380" lon="-2.4261980">
        <ele>162.0</ele>
        <time>2019-10-18T18:52:43Z</time>
      </trkpt>
      <trkpt lat="36.9284700" lon="-2.4261840">
        <ele>162.2</ele>
        <time>2019-10-18T18:52:44Z</time>
      </trkpt>
      <trkpt lat="36.9285000" lon="-2.4261690">
        <ele>162.3</ele>
        <time>2019-10-18T18:52:45Z</time>
      </trkpt>
      <trkpt lat="36.9285290" lon="-2.4261540">
        <ele>162.4</ele>
        <time>2019-10-18T18:52:46Z</time>
      </trkpt>
      <trkpt lat="36.9285600" lon="-2.4261380">
        <ele>162.6</ele>
        <time>2019-10-18T18:52:47Z</time>
      </trkpt>
      <trkpt lat="36.9285910" lon="-2.4261240">
        <ele>162.7</ele>
        <time>2019-10-18T18:52:48Z</time>
      </trkpt>
      <trkpt lat="36.9286220" lon="-2.4261090">
        <ele>162.8</ele>
        <time>2019-10-18T18:52:49Z</time>
      </trkpt>
      <trkpt lat="36.9286520" lon="-2.4260940">
        <ele>162.9</ele>
        <time>2019-10-18T18:52:50Z</time>
      </trkpt>
      <trkpt lat="36.9286830" lon="-2.4260790">
        <ele>163.0</ele>
        <time>2019-10-18T18:52:51Z</time>
      </trkpt>
      <trkpt lat="36.9287130" lon="-2.4260650">
        <ele>163.2</ele>
        <time>2019-10-18T18:52:52Z</time>
      </trkpt>
      <trkpt lat="36.9287440" lon="-2.4260510">
        <ele>163.3</ele>
        <time>2019-10-18T18:52:53Z</time>
      </trkpt>
      <trkpt lat="36.9287740" lon="-2.4260380">
        <ele>163.4</ele>
        <time>2019-10-18T18:52:54Z</time>
      </trkpt>
      <trkpt lat="36.9288050" lon="-2.4260250">
        <ele>163.5</ele>
        <time>2019-10-18T18:52:55Z</time>
      </trkpt>
      <trkpt lat="36.9288360" lon="-2.4260140">
        <ele>163.7</ele>
        <time>2019-10-18T18:52:56Z</time>
      </trkpt>
      <trkpt lat="36.9288680" lon="-2.4260020">
        <ele>163.8</ele>
        <time>2019-10-18T18:52:57Z</time>
      </trkpt>
      <trkpt lat="36.9288990" lon="-2.4259900">
        <ele>163.9</ele>
        <time>2019-10-18T18:52:58Z</time>
      </trkpt>
      <trkpt lat="36.9289300" lon="-2.4259750">
        <ele>164.0</ele>
        <time>2019-10-18T18:52:59Z</time>
      </trkpt>
      <trkpt lat="36.9289580" lon="-2.4259580">
        <ele>164.1</ele>
        <time>2019-10-18T18:53:00Z</time>
      </trkpt>
      <trkpt lat="36.9289860" lon="-2.4259420">
        <ele>164.2</ele>
        <time>2019-10-18T18:53:01Z</time>
      </trkpt>
      <trkpt lat="36.9290150" lon="-2.4259280">
        <ele>164.4</ele>
        <time>2019-10-18T18:53:02Z</time>
      </trkpt>
      <trkpt lat="36.9290430" lon="-2.4259130">
        <ele>164.5</ele>
        <time>2019-10-18T18:53:03Z</time>
      </trkpt>
      <trkpt lat="36.9290730" lon="-2.4258990">
        <ele>164.6</ele>
        <time>2019-10-18T18:53:04Z</time>
      </trkpt>
      <trkpt lat="36.9291020" lon="-2.4258850">
        <ele>164.7</ele>
        <time>2019-10-18T18:53:05Z</time>
      </trkpt>
      <trkpt lat="36.9291310" lon="-2.4258720">
        <ele>164.8</ele>
        <time>2019-10-18T18:53:06Z</time>
      </trkpt>
      <trkpt lat="36.9291600" lon="-2.4258580">
        <ele>165.0</ele>
        <time>2019-10-18T18:53:07Z</time>
      </trkpt>
      <trkpt lat="36.9291890" lon="-2.4258440">
        <ele>165.1</ele>
        <time>2019-10-18T18:53:08Z</time>
      </trkpt>
      <trkpt lat="36.9292190" lon="-2.4258300">
        <ele>165.2</ele>
        <time>2019-10-18T18:53:09Z</time>
      </trkpt>
      <trkpt lat="36.9292510" lon="-2.4258160">
        <ele>165.4</ele>
        <time>2019-10-18T18:53:10Z</time>
      </trkpt>
      <trkpt lat="36.9292840" lon="-2.4258030">
        <ele>165.5</ele>
        <time>2019-10-18T18:53:11Z</time>
      </trkpt>
      <trkpt lat="36.9293160" lon="-2.4257890">
        <ele>165.7</ele>
        <time>2019-10-18T18:53:12Z</time>
      </trkpt>
      <trkpt lat="36.9293470" lon="-2.4257750">
        <ele>165.8</ele>
        <time>2019-10-18T18:53:13Z</time>
      </trkpt>
      <trkpt lat="36.9293780" lon="-2.4257610">
        <ele>165.9</ele>
        <time>2019-10-18T18:53:14Z</time>
      </trkpt>
      <trkpt lat="36.9294080" lon="-2.4257470">
        <ele>166.0</ele>
        <time>2019-10-18T18:53:15Z</time>
      </trkpt>
      <trkpt lat="36.9294390" lon="-2.4257330">
        <ele>166.2</ele>
        <time>2019-10-18T18:53:16Z</time>
      </trkpt>
      <trkpt lat="36.9294700" lon="-2.4257190">
        <ele>166.3</ele>
        <time>2019-10-18T18:53:17Z</time>
      </trkpt>
      <trkpt lat="36.9295010" lon="-2.4257050">
        <ele>166.4</ele>
        <time>2019-10-18T18:53:18Z</time>
      </trkpt>
      <trkpt lat="36.9295320" lon="-2.4256920">
        <ele>166.5</ele>
        <time>2019-10-18T18:53:19Z</time>
      </trkpt>
      <trkpt lat="36.9295640" lon="-2.4256780">
        <ele>166.6</ele>
        <time>2019-10-18T18:53:20Z</time>
      </trkpt>
      <trkpt lat="36.9295960" lon="-2.4256650">
        <ele>166.8</ele>
        <time>2019-10-18T18:53:21Z</time>
      </trkpt>
      <trkpt lat="36.9296280" lon="-2.4256530">
        <ele>166.9</ele>
        <time>2019-10-18T18:53:22Z</time>
      </trkpt>
      <trkpt lat="36.9296610" lon="-2.4256420">
        <ele>167.0</ele>
        <time>2019-10-18T18:53:23Z</time>
      </trkpt>
      <trkpt lat="36.9296940" lon="-2.4256290">
        <ele>167.2</ele>
        <time>2019-10-18T18:53:24Z</time>
      </trkpt>
      <trkpt lat="36.9297260" lon="-2.4256130">
        <ele>167.3</ele>
        <time>2019-10-18T18:53:25Z</time>
      </trkpt>
      <trkpt lat="36.9297580" lon="-2.4255950">
        <ele>167.4</ele>
        <time>2019-10-18T18:53:26Z</time>
      </trkpt>
      <trkpt lat="36.9297900" lon="-2.4255770">
        <ele>167.6</ele>
        <time>2019-10-18T18:53:27Z</time>
      </trkpt>
      <trkpt lat="36.9298220" lon="-2.4255600">
        <ele>167.7</ele>
        <time>2019-10-18T18:53:28Z</time>
      </trkpt>
      <trkpt lat="36.9298540" lon="-2.4255430">
        <ele>167.8</ele>
        <time>2019-10-18T18:53:29Z</time>
      </trkpt>
      <trkpt lat="36.9298880" lon="-2.4255260">
        <ele>168.0</ele>
        <time>2019-10-18T18:53:30Z</time>
      </trkpt>
      <trkpt lat="36.9299220" lon="-2.4255100">
        <ele>168.1</ele>
        <time>2019-10-18T18:53:31Z</time>
      </trkpt>
      <trkpt lat="36.9299550" lon="-2.4254930">
        <ele>168.3</ele>
        <time>2019-10-18T18:53:32Z</time>
      </trkpt>
      <trkpt lat="36.9299870" lon="-2.4254760">
        <ele>168.4</ele>
        <time>2019-10-18T18:53:33Z</time>
      </trkpt>
      <trkpt lat="36.9300190" lon="-2.4254590">
        <ele>168.4</ele>
        <time>2019-10-18T18:53:34Z</time>
      </trkpt>
      <trkpt lat="36.9300510" lon="-2.4254430">
        <ele>168.4</ele>
        <time>2019-10-18T18:53:35Z</time>
      </trkpt>
      <trkpt lat="36.9300830" lon="-2.4254280">
        <ele>168.4</ele>
        <time>2019-10-18T18:53:36Z</time>
      </trkpt>
      <trkpt lat="36.9301170" lon="-2.4254130">
        <ele>168.4</ele>
        <time>2019-10-18T18:53:37Z</time>
      </trkpt>
      <trkpt lat="36.9301500" lon="-2.4253980">
        <ele>168.4</ele>
        <time>2019-10-18T18:53:38Z</time>
      </trkpt>
      <trkpt lat="36.9301840" lon="-2.4253830">
        <ele>168.4</ele>
        <time>2019-10-18T18:53:39Z</time>
      </trkpt>
      <trkpt lat="36.9302180" lon="-2.4253690">
        <ele>168.4</ele>
        <time>2019-10-18T18:53:40Z</time>
      </trkpt>
      <trkpt lat="36.9302540" lon="-2.4253560">
        <ele>168.4</ele>
        <time>2019-10-18T18:53:41Z</time>
      </trkpt>
      <trkpt lat="36.9302900" lon="-2.4253420">
        <ele>168.4</ele>
        <time>2019-10-18T18:53:42Z</time>
      </trkpt>
      <trkpt lat="36.9303250" lon="-2.4253280">
        <ele>168.4</ele>
        <time>2019-10-18T18:53:43Z</time>
      </trkpt>
      <trkpt lat="36.9303600" lon="-2.4253130">
        <ele>168.5</ele>
        <time>2019-10-18T18:53:44Z</time>
      </trkpt>
      <trkpt lat="36.9303940" lon="-2.4252980">
        <ele>168.5</ele>
        <time>2019-10-18T18:53:45Z</time>
      </trkpt>
      <trkpt lat="36.9304280" lon="-2.4252840">
        <ele>168.6</ele>
        <time>2019-10-18T18:53:46Z</time>
      </trkpt>
      <trkpt lat="36.9304620" lon="-2.4252690">
        <ele>168.6</ele>
        <time>2019-10-18T18:53:47Z</time>
      </trkpt>
      <trkpt lat="36.9304960" lon="-2.4252540">
        <ele>168.7</ele>
        <time>2019-10-18T18:53:48Z</time>
      </trkpt>
      <trkpt lat="36.9305300" lon="-2.4252380">
        <ele>168.8</ele>
        <time>2019-10-18T18:53:49Z</time>
      </trkpt>
      <trkpt lat="36.9305640" lon="-2.4252220">
        <ele>168.9</ele>
        <time>2019-10-18T18:53:50Z</time>
      </trkpt>
      <trkpt lat="36.9305970" lon="-2.4252070">
        <ele>169.0</ele>
        <time>2019-10-18T18:53:51Z</time>
      </trkpt>
      <trkpt lat="36.9306300" lon="-2.4251930">
        <ele>169.1</ele>
        <time>2019-10-18T18:53:52Z</time>
      </trkpt>
      <trkpt lat="36.9306630" lon="-2.4251780">
        <ele>169.2</ele>
        <time>2019-10-18T18:53:53Z</time>
      </trkpt>
      <trkpt lat="36.9306950" lon="-2.4251610">
        <ele>169.3</ele>
        <time>2019-10-18T18:53:54Z</time>
      </trkpt>
      <trkpt lat="36.9307260" lon="-2.4251440">
        <ele>169.3</ele>
        <time>2019-10-18T18:53:55Z</time>
      </trkpt>
      <trkpt lat="36.9307590" lon="-2.4251280">
        <ele>169.4</ele>
        <time>2019-10-18T18:53:56Z</time>
      </trkpt>
      <trkpt lat="36.9307900" lon="-2.4251110">
        <ele>169.5</ele>
        <time>2019-10-18T18:53:57Z</time>
      </trkpt>
      <trkpt lat="36.9308220" lon="-2.4250940">
        <ele>169.6</ele>
        <time>2019-10-18T18:53:58Z</time>
      </trkpt>
      <trkpt lat="36.9308520" lon="-2.4250750">
        <ele>169.7</ele>
        <time>2019-10-18T18:53:59Z</time>
      </trkpt>
      <trkpt lat="36.9308830" lon="-2.4250590">
        <ele>169.8</ele>
        <time>2019-10-18T18:54:00Z</time>
      </trkpt>
      <trkpt lat="36.9309150" lon="-2.4250430">
        <ele>170.0</ele>
        <time>2019-10-18T18:54:01Z</time>
      </trkpt>
      <trkpt lat="36.9309470" lon="-2.4250280">
        <ele>170.1</ele>
        <time>2019-10-18T18:54:02Z</time>
      </trkpt>
      <trkpt lat="36.9309780" lon="-2.4250120">
        <ele>170.2</ele>
        <time>2019-10-18T18:54:03Z</time>
      </trkpt>
      <trkpt lat="36.9310100" lon="-2.4249970">
        <ele>170.3</ele>
        <time>2019-10-18T18:54:04Z</time>
      </trkpt>
      <trkpt lat="36.9310420" lon="-2.4249840">
        <ele>170.4</ele>
        <time>2019-10-18T18:54:05Z</time>
      </trkpt>
      <trkpt lat="36.9310740" lon="-2.4249720">
        <ele>170.5</ele>
        <time>2019-10-18T18:54:06Z</time>
      </trkpt>
      <trkpt lat="36.9311070" lon="-2.4249590">
        <ele>170.7</ele>
        <time>2019-10-18T18:54:07Z</time>
      </trkpt>
      <trkpt lat="36.9311390" lon="-2.4249440">
        <ele>170.8</ele>
        <time>2019-10-18T18:54:08Z</time>
      </trkpt>
      <trkpt lat="36.9311700" lon="-2.4249290">
        <ele>170.9</ele>
        <time>2019-10-18T18:54:09Z</time>
      </trkpt>
      <trkpt lat="36.9312000" lon="-2.4249130">
        <ele>171.1</ele>
        <time>2019-10-18T18:54:10Z</time>
      </trkpt>
      <trkpt lat="36.9312310" lon="-2.4248990">
        <ele>171.2</ele>
        <time>2019-10-18T18:54:11Z</time>
      </trkpt>
      <trkpt lat="36.9312620" lon="-2.4248860">
        <ele>171.3</ele>
        <time>2019-10-18T18:54:12Z</time>
      </trkpt>
      <trkpt lat="36.9312930" lon="-2.4248730">
        <ele>171.5</ele>
        <time>2019-10-18T18:54:13Z</time>
      </trkpt>
      <trkpt lat="36.9313250" lon="-2.4248600">
        <ele>171.6</ele>
        <time>2019-10-18T18:54:14Z</time>
      </trkpt>
      <trkpt lat="36.9313570" lon="-2.4248460">
        <ele>171.8</ele>
        <time>2019-10-18T18:54:15Z</time>
      </trkpt>
      <trkpt lat="36.9313880" lon="-2.4248330">
        <ele>172.0</ele>
        <time>2019-10-18T18:54:16Z</time>
      </trkpt>
      <trkpt lat="36.9314200" lon="-2.4248210">
        <ele>172.2</ele>
        <time>2019-10-18T18:54:17Z</time>
      </trkpt>
      <trkpt lat="36.9314500" lon="-2.4248080">
        <ele>172.3</ele>
        <time>2019-10-18T18:54:18Z</time>
      </trkpt>
      <trkpt lat="36.9314810" lon="-2.4247950">
        <ele>172.5</ele>
        <time>2019-10-18T18:54:19Z</time>
      </trkpt>
      <trkpt lat="36.9315110" lon="-2.4247820">
        <ele>172.7</ele>
        <time>2019-10-18T18:54:20Z</time>
      </trkpt>
      <trkpt lat="36.9315400" lon="-2.4247680">
        <ele>172.9</ele>
        <time>2019-10-18T18:54:21Z</time>
      </trkpt>
      <trkpt lat="36.9315680" lon="-2.4247550">
        <ele>173.1</ele>
        <time>2019-10-18T18:54:22Z</time>
      </trkpt>
      <trkpt lat="36.9315960" lon="-2.4247430">
        <ele>173.3</ele>
        <time>2019-10-18T18:54:23Z</time>
      </trkpt>
      <trkpt lat="36.9316240" lon="-2.4247330">
        <ele>173.5</ele>
        <time>2019-10-18T18:54:24Z</time>
      </trkpt>
      <trkpt lat="36.9316520" lon="-2.4247240">
        <ele>173.6</ele>
        <time>2019-10-18T18:54:25Z</time>
      </trkpt>
      <trkpt lat="36.9316800" lon="-2.4247140">
        <ele>173.8</ele>
        <time>2019-10-18T18:54:26Z</time>
      </trkpt>
      <trkpt lat="36.9317090" lon="-2.4247010">
        <ele>174.0</ele>
        <time>2019-10-18T18:54:27Z</time>
      </trkpt>
      <trkpt lat="36.9317380" lon="-2.4246860">
        <ele>174.2</ele>
        <time>2019-10-18T18:54:28Z</time>
      </trkpt>
      <trkpt lat="36.9317660" lon="-2.4246710">
        <ele>174.4</ele>
        <time>2019-10-18T18:54:29Z</time>
      </trkpt>
      <trkpt lat="36.9317960" lon="-2.4246580">
        <ele>174.6</ele>
        <time>2019-10-18T18:54:30Z</time>
      </trkpt>
      <trkpt lat="36.9318250" lon="-2.4246460">
        <ele>174.7</ele>
        <time>2019-10-18T18:54:31Z</time>
      </trkpt>
      <trkpt lat="36.9318540" lon="-2.4246330">
        <ele>174.9</ele>
        <time>2019-10-18T18:54:32Z</time>
      </trkpt>
      <trkpt lat="36.9318820" lon="-2.4246210">
        <ele>175.0</ele>
        <time>2019-10-18T18:54:33Z</time>
      </trkpt>
      <trkpt lat="36.9319080" lon="-2.4246100">
        <ele>175.1</ele>
        <time>2019-10-18T18:54:34Z</time>
      </trkpt>
      <trkpt lat="36.9319330" lon="-2.4245980">
        <ele>175.2</ele>
        <time>2019-10-18T18:54:35Z</time>
      </trkpt>
      <trkpt lat="36.9319580" lon="-2.4245860">
        <ele>175.3</ele>
        <time>2019-10-18T18:54:36Z</time>
      </trkpt>
      <trkpt lat="36.9319830" lon="-2.4245750">
        <ele>175.4</ele>
        <time>2019-10-18T18:54:37Z</time>
      </trkpt>
      <trkpt lat="36.9320090" lon="-2.4245650">
        <ele>175.5</ele>
        <time>2019-10-18T18:54:38Z</time>
      </trkpt>
      <trkpt lat="36.9320340" lon="-2.4245550">
        <ele>175.7</ele>
        <time>2019-10-18T18:54:39Z</time>
      </trkpt>
      <trkpt lat="36.9320600" lon="-2.4245440">
        <ele>175.8</ele>
        <time>2019-10-18T18:54:40Z</time>
      </trkpt>
      <trkpt lat="36.9320860" lon="-2.4245320">
        <ele>176.0</ele>
        <time>2019-10-18T18:54:41Z</time>
      </trkpt>
      <trkpt lat="36.9321120" lon="-2.4245210">
        <ele>176.2</ele>
        <time>2019-10-18T18:54:42Z</time>
      </trkpt>
      <trkpt lat="36.9321390" lon="-2.4245090">
        <ele>176.4</ele>
        <time>2019-10-18T18:54:43Z</time>
      </trkpt>
      <trkpt lat="36.9321650" lon="-2.4244960">
        <ele>176.6</ele>
        <time>2019-10-18T18:54:44Z</time>
      </trkpt>
      <trkpt lat="36.9321910" lon="-2.4244830">
        <ele>176.8</ele>
        <time>2019-10-18T18:54:45Z</time>
      </trkpt>
      <trkpt lat="36.9322160" lon="-2.4244730">
        <ele>177.0</ele>
        <time>2019-10-18T18:54:46Z</time>
      </trkpt>
      <trkpt lat="36.9322430" lon="-2.4244630">
        <ele>177.3</ele>
        <time>2019-10-18T18:54:47Z</time>
      </trkpt>
      <trkpt lat="36.9322700" lon="-2.4244520">
        <ele>177.5</ele>
        <time>2019-10-18T18:54:48Z</time>
      </trkpt>
      <trkpt lat="36.9322960" lon="-2.4244410">
        <ele>177.7</ele>
        <time>2019-10-18T18:54:49Z</time>
      </trkpt>
      <trkpt lat="36.9323230" lon="-2.4244290">
        <ele>177.9</ele>
        <time>2019-10-18T18:54:50Z</time>
      </trkpt>
      <trkpt lat="36.9323500" lon="-2.4244160">
        <ele>178.1</ele>
        <time>2019-10-18T18:54:51Z</time>
      </trkpt>
      <trkpt lat="36.9323760" lon="-2.4244010">
        <ele>178.3</ele>
        <time>2019-10-18T18:54:52Z</time>
      </trkpt>
      <trkpt lat="36.9324020" lon="-2.4243880">
        <ele>178.5</ele>
        <time>2019-10-18T18:54:53Z</time>
      </trkpt>
      <trkpt lat="36.9324290" lon="-2.4243750">
        <ele>178.7</ele>
        <time>2019-10-18T18:54:54Z</time>
      </trkpt>
      <trkpt lat="36.9324560" lon="-2.4243610">
        <ele>178.8</ele>
        <time>2019-10-18T18:54:55Z</time>
      </trkpt>
      <trkpt lat="36.9324830" lon="-2.4243470">
        <ele>178.9</ele>
        <time>2019-10-18T18:54:56Z</time>
      </trkpt>
      <trkpt lat="36.9325080" lon="-2.4243310">
        <ele>179.0</ele>
        <time>2019-10-18T18:54:57Z</time>
      </trkpt>
      <trkpt lat="36.9325330" lon="-2.4243160">
        <ele>179.1</ele>
        <time>2019-10-18T18:54:58Z</time>
      </trkpt>
      <trkpt lat="36.9325590" lon="-2.4243010">
        <ele>179.2</ele>
        <time>2019-10-18T18:54:59Z</time>
      </trkpt>
      <trkpt lat="36.9325850" lon="-2.4242850">
        <ele>179.3</ele>
        <time>2019-10-18T18:55:00Z</time>
      </trkpt>
      <trkpt lat="36.9326120" lon="-2.4242690">
        <ele>179.4</ele>
        <time>2019-10-18T18:55:01Z</time>
      </trkpt>
      <trkpt lat="36.9326380" lon="-2.4242520">
        <ele>179.5</ele>
        <time>2019-10-18T18:55:02Z</time>
      </trkpt>
      <trkpt lat="36.9326630" lon="-2.4242360">
        <ele>179.5</ele>
        <time>2019-10-18T18:55:03Z</time>
      </trkpt>
      <trkpt lat="36.9326890" lon="-2.4242220">
        <ele>179.6</ele>
        <time>2019-10-18T18:55:04Z</time>
      </trkpt>
      <trkpt lat="36.9327140" lon="-2.4242080">
        <ele>179.7</ele>
        <time>2019-10-18T18:55:05Z</time>
      </trkpt>
      <trkpt lat="36.9327390" lon="-2.4241940">
        <ele>179.8</ele>
        <time>2019-10-18T18:55:06Z</time>
      </trkpt>
      <trkpt lat="36.9327640" lon="-2.4241780">
        <ele>179.9</ele>
        <time>2019-10-18T18:55:07Z</time>
      </trkpt>
      <trkpt lat="36.9327890" lon="-2.4241630">
        <ele>180.1</ele>
        <time>2019-10-18T18:55:08Z</time>
      </trkpt>
      <trkpt lat="36.9328130" lon="-2.4241500">
        <ele>180.2</ele>
        <time>2019-10-18T18:55:09Z</time>
      </trkpt>
      <trkpt lat="36.9328380" lon="-2.4241380">
        <ele>180.3</ele>
        <time>2019-10-18T18:55:10Z</time>
      </trkpt>
      <trkpt lat="36.9328630" lon="-2.4241260">
        <ele>180.4</ele>
        <time>2019-10-18T18:55:11Z</time>
      </trkpt>
      <trkpt lat="36.9328880" lon="-2.4241110">
        <ele>180.5</ele>
        <time>2019-10-18T18:55:12Z</time>
      </trkpt>
      <trkpt lat="36.9329110" lon="-2.4240930">
        <ele>180.6</ele>
        <time>2019-10-18T18:55:13Z</time>
      </trkpt>
      <trkpt lat="36.9329340" lon="-2.4240730">
        <ele>180.7</ele>
        <time>2019-10-18T18:55:14Z</time>
      </trkpt>
      <trkpt lat="36.9329570" lon="-2.4240540">
        <ele>180.9</ele>
        <time>2019-10-18T18:55:15Z</time>
      </trkpt>
      <trkpt lat="36.9329810" lon="-2.4240350">
        <ele>181.0</ele>
        <time>2019-10-18T18:55:16Z</time>
      </trkpt>
      <trkpt lat="36.9330050" lon="-2.4240170">
        <ele>181.1</ele>
        <time>2019-10-18T18:55:17Z</time>
      </trkpt>
      <trkpt lat="36.9330290" lon="-2.4240000">
        <ele>181.2</ele>
        <time>2019-10-18T18:55:18Z</time>
      </trkpt>
      <trkpt lat="36.9330530" lon="-2.4239820">
        <ele>181.3</ele>
        <time>2019-10-18T18:55:19Z</time>
      </trkpt>
      <trkpt lat="36.9330770" lon="-2.4239630">
        <ele>181.5</ele>
        <time>2019-10-18T18:55:20Z</time>
      </trkpt>
      <trkpt lat="36.9331020" lon="-2.4239430">
        <ele>181.6</ele>
        <time>2019-10-18T18:55:21Z</time>
      </trkpt>
      <trkpt lat="36.9331260" lon="-2.4239240">
        <ele>181.7</ele>
        <time>2019-10-18T18:55:22Z</time>
      </trkpt>
      <trkpt lat="36.9331510" lon="-2.4239060">
        <ele>181.8</ele>
        <time>2019-10-18T18:55:23Z</time>
      </trkpt>
      <trkpt lat="36.9331770" lon="-2.4238880">
        <ele>181.9</ele>
        <time>2019-10-18T18:55:24Z</time>
      </trkpt>
      <trkpt lat="36.9332030" lon="-2.4238710">
        <ele>182.0</ele>
        <time>2019-10-18T18:55:25Z</time>
      </trkpt>
      <trkpt lat="36.9332300" lon="-2.4238530">
        <ele>182.1</ele>
        <time>2019-10-18T18:55:26Z</time>
      </trkpt>
      <trkpt lat="36.9332570" lon="-2.4238350">
        <ele>182.1</ele>
        <time>2019-10-18T18:55:27Z</time>
      </trkpt>
      <trkpt lat="36.9332840" lon="-2.4238170">
        <ele>182.2</ele>
        <time>2019-10-18T18:55:28Z</time>
      </trkpt>
      <trkpt lat="36.9333110" lon="-2.4237990">
        <ele>182.3</ele>
        <time>2019-10-18T18:55:29Z</time>
      </trkpt>
      <trkpt lat="36.9333380" lon="-2.4237810">
        <ele>182.3</ele>
        <time>2019-10-18T18:55:30Z</time>
      </trkpt>
      <trkpt lat="36.9333650" lon="-2.4237640">
        <ele>182.4</ele>
        <time>2019-10-18T18:55:31Z</time>
      </trkpt>
      <trkpt lat="36.9333920" lon="-2.4237480">
        <ele>182.4</ele>
        <time>2019-10-18T18:55:32Z</time>
      </trkpt>
      <trkpt lat="36.9334190" lon="-2.4237310">
        <ele>182.5</ele>
        <time>2019-10-18T18:55:33Z</time>
      </trkpt>
      <trkpt lat="36.9334460" lon="-2.4237140">
        <ele>182.7</ele>
        <time>2019-10-18T18:55:34Z</time>
      </trkpt>
      <trkpt lat="36.9334730" lon="-2.4236970">
        <ele>182.8</ele>
        <time>2019-10-18T18:55:35Z</time>
      </trkpt>
      <trkpt lat="36.9334980" lon="-2.4236790">
        <ele>183.0</ele>
        <time>2019-10-18T18:55:36Z</time>
      </trkpt>
      <trkpt lat="36.9335240" lon="-2.4236630">
        <ele>183.2</ele>
        <time>2019-10-18T18:55:37Z</time>
      </trkpt>
      <trkpt lat="36.9335500" lon="-2.4236460">
        <ele>183.4</ele>
        <time>2019-10-18T18:55:38Z</time>
      </trkpt>
      <trkpt lat="36.9335740" lon="-2.4236310">
        <ele>183.6</ele>
        <time>2019-10-18T18:55:39Z</time>
      </trkpt>
      <trkpt lat="36.9335990" lon="-2.4236150">
        <ele>183.9</ele>
        <time>2019-10-18T18:55:40Z</time>
      </trkpt>
      <trkpt lat="36.9336240" lon="-2.4235970">
        <ele>184.1</ele>
        <time>2019-10-18T18:55:41Z</time>
      </trkpt>
      <trkpt lat="36.9336480" lon="-2.4235780">
        <ele>184.3</ele>
        <time>2019-10-18T18:55:42Z</time>
      </trkpt>
      <trkpt lat="36.9336730" lon="-2.4235590">
        <ele>184.5</ele>
        <time>2019-10-18T18:55:43Z</time>
      </trkpt>
      <trkpt lat="36.9336980" lon="-2.4235400">
        <ele>184.7</ele>
        <time>2019-10-18T18:55:44Z</time>
      </trkpt>
      <trkpt lat="36.9337230" lon="-2.4235210">
        <ele>184.9</ele>
        <time>2019-10-18T18:55:45Z</time>
      </trkpt>
      <trkpt lat="36.9337480" lon="-2.4235020">
        <ele>185.0</ele>
        <time>2019-10-18T18:55:46Z</time>
      </trkpt>
      <trkpt lat="36.9337730" lon="-2.4234850">
        <ele>185.1</ele>
        <time>2019-10-18T18:55:47Z</time>
      </trkpt>
      <trkpt lat="36.9338000" lon="-2.4234680">
        <ele>185.2</ele>
        <time>2019-10-18T18:55:48Z</time>
      </trkpt>
      <trkpt lat="36.9338270" lon="-2.4234520">
        <ele>185.3</ele>
        <time>2019-10-18T18:55:49Z</time>
      </trkpt>
      <trkpt lat="36.9338530" lon="-2.4234340">
        <ele>185.4</ele>
        <time>2019-10-18T18:55:50Z</time>
      </trkpt>
      <trkpt lat="36.9338780" lon="-2.4234130">
        <ele>185.5</ele>
        <time>2019-10-18T18:55:51Z</time>
      </trkpt>
      <trkpt lat="36.9339040" lon="-2.4233930">
        <ele>185.6</ele>
        <time>2019-10-18T18:55:52Z</time>
      </trkpt>
      <trkpt lat="36.9339300" lon="-2.4233750">
        <ele>185.7</ele>
        <time>2019-10-18T18:55:53Z</time>
      </trkpt>
      <trkpt lat="36.9339560" lon="-2.4233590">
        <ele>185.8</ele>
        <time>2019-10-18T18:55:54Z</time>
      </trkpt>
      <trkpt lat="36.9339830" lon="-2.4233430">
        <ele>185.9</ele>
        <time>2019-10-18T18:55:55Z</time>
      </trkpt>
      <trkpt lat="36.9340090" lon="-2.4233280">
        <ele>186.0</ele>
        <time>2019-10-18T18:55:56Z</time>
      </trkpt>
      <trkpt lat="36.9340350" lon="-2.4233120">
        <ele>186.1</ele>
        <time>2019-10-18T18:55:57Z</time>
      </trkpt>
      <trkpt lat="36.9340610" lon="-2.4232970">
        <ele>186.1</ele>
        <time>2019-10-18T18:55:58Z</time>
      </trkpt>
      <trkpt lat="36.9340860" lon="-2.4232810">
        <ele>186.2</ele>
        <time>2019-10-18T18:55:59Z</time>
      </trkpt>
      <trkpt lat="36.9341110" lon="-2.4232650">
        <ele>186.3</ele>
        <time>2019-10-18T18:56:00Z</time>
      </trkpt>
      <trkpt lat="36.9341360" lon="-2.4232490">
        <ele>186.3</ele>
        <time>2019-10-18T18:56:01Z</time>
      </trkpt>
      <trkpt lat="36.9341610" lon="-2.4232330">
        <ele>186.4</ele>
        <time>2019-10-18T18:56:02Z</time>
      </trkpt>
      <trkpt lat="36.9341850" lon="-2.4232170">
        <ele>186.5</ele>
        <time>2019-10-18T18:56:03Z</time>
      </trkpt>
      <trkpt lat="36.9342090" lon="-2.4232010">
        <ele>186.6</ele>
        <time>2019-10-18T18:56:04Z</time>
      </trkpt>
      <trkpt lat="36.9342320" lon="-2.4231850">
        <ele>186.6</ele>
        <time>2019-10-18T18:56:05Z</time>
      </trkpt>
      <trkpt lat="36.9342560" lon="-2.4231670">
        <ele>186.7</ele>
        <time>2019-10-18T18:56:06Z</time>
      </trkpt>
      <trkpt lat="36.9342800" lon="-2.4231490">
        <ele>186.8</ele>
        <time>2019-10-18T18:56:07Z</time>
      </trkpt>
      <trkpt lat="36.9343040" lon="-2.4231330">
        <ele>187.0</ele>
        <time>2019-10-18T18:56:08Z</time>
      </trkpt>
      <trkpt lat="36.9343270" lon="-2.4231170">
        <ele>187.1</ele>
        <time>2019-10-18T18:56:09Z</time>
      </trkpt>
      <trkpt lat="36.9343510" lon="-2.4231000">
        <ele>187.2</ele>
        <time>2019-10-18T18:56:10Z</time>
      </trkpt>
      <trkpt lat="36.9343760" lon="-2.4230810">
        <ele>187.3</ele>
        <time>2019-10-18T18:56:11Z</time>
      </trkpt>
      <trkpt lat="36.9344020" lon="-2.4230610">
        <ele>187.4</ele>
        <time>2019-10-18T18:56:12Z</time>
      </trkpt>
      <trkpt lat="36.9344270" lon="-2.4230420">
        <ele>187.5</ele>
        <time>2019-10-18T18:56:13Z</time>
      </trkpt>
      <trkpt lat="36.9344510" lon="-2.4230240">
        <ele>187.6</ele>
        <time>2019-10-18T18:56:14Z</time>
      </trkpt>
      <trkpt lat="36.9344770" lon="-2.4230060">
        <ele>187.7</ele>
        <time>2019-10-18T18:56:15Z</time>
      </trkpt>
      <trkpt lat="36.9345020" lon="-2.4229870">
        <ele>187.9</ele>
        <time>2019-10-18T18:56:16Z</time>
      </trkpt>
      <trkpt lat="36.9345260" lon="-2.4229690">
        <ele>187.9</ele>
        <time>2019-10-18T18:56:17Z</time>
      </trkpt>
      <trkpt lat="36.9345510" lon="-2.4229500">
        <ele>188.0</ele>
        <time>2019-10-18T18:56:18Z</time>
      </trkpt>
      <trkpt lat="36.9345750" lon="-2.4229300">
        <ele>188.1</ele>
        <time>2019-10-18T18:56:19Z</time>
      </trkpt>
      <trkpt lat="36.9345980" lon="-2.4229100">
        <ele>188.2</ele>
        <time>2019-10-18T18:56:20Z</time>
      </trkpt>
      <trkpt lat="36.9346210" lon="-2.4228900">
        <ele>188.3</ele>
        <time>2019-10-18T18:56:21Z</time>
      </trkpt>
      <trkpt lat="36.9346440" lon="-2.4228710">
        <ele>188.4</ele>
        <time>2019-10-18T18:56:22Z</time>
      </trkpt>
      <trkpt lat="36.9346690" lon="-2.4228530">
        <ele>188.5</ele>
        <time>2019-10-18T18:56:23Z</time>
      </trkpt>
      <trkpt lat="36.9346940" lon="-2.4228360">
        <ele>188.6</ele>
        <time>2019-10-18T18:56:24Z</time>
      </trkpt>
      <trkpt lat="36.9347190" lon="-2.4228180">
        <ele>188.7</ele>
        <time>2019-10-18T18:56:25Z</time>
      </trkpt>
      <trkpt lat="36.9347440" lon="-2.4228010">
        <ele>188.9</ele>
        <time>2019-10-18T18:56:26Z</time>
      </trkpt>
      <trkpt lat="36.9347680" lon="-2.4227840">
        <ele>189.3</ele>
        <time>2019-10-18T18:56:27Z</time>
      </trkpt>
      <trkpt lat="36.9347930" lon="-2.4227670">
        <ele>189.4</ele>
        <time>2019-10-18T18:56:28Z</time>
      </trkpt>
      <trkpt lat="36.9348170" lon="-2.4227510">
        <ele>189.5</ele>
        <time>2019-10-18T18:56:29Z</time>
      </trkpt>
      <trkpt lat="36.9348410" lon="-2.4227360">
        <ele>189.6</ele>
        <time>2019-10-18T18:56:30Z</time>
      </trkpt>
      <trkpt lat="36.9348640" lon="-2.4227200">
        <ele>189.7</ele>
        <time>2019-10-18T18:56:31Z</time>
      </trkpt>
      <trkpt lat="36.9348860" lon="-2.4227040">
        <ele>189.7</ele>
        <time>2019-10-18T18:56:32Z</time>
      </trkpt>
      <trkpt lat="36.9349080" lon="-2.4226880">
        <ele>189.8</ele>
        <time>2019-10-18T18:56:33Z</time>
      </trkpt>
      <trkpt lat="36.9349320" lon="-2.4226700">
        <ele>189.8</ele>
        <time>2019-10-18T18:56:34Z</time>
      </trkpt>
      <trkpt lat="36.9349550" lon="-2.4226540">
        <ele>189.9</ele>
        <time>2019-10-18T18:56:35Z</time>
      </trkpt>
      <trkpt lat="36.9349800" lon="-2.4226370">
        <ele>190.0</ele>
        <time>2019-10-18T18:56:36Z</time>
      </trkpt>
      <trkpt lat="36.9350040" lon="-2.4226230">
        <ele>190.0</ele>
        <time>2019-10-18T18:56:37Z</time>
      </trkpt>
      <trkpt lat="36.9350280" lon="-2.4226060">
        <ele>190.1</ele>
        <time>2019-10-18T18:56:38Z</time>
      </trkpt>
      <trkpt lat="36.9350510" lon="-2.4225880">
        <ele>190.1</ele>
        <time>2019-10-18T18:56:39Z</time>
      </trkpt>
      <trkpt lat="36.9350740" lon="-2.4225700">
        <ele>190.3</ele>
        <time>2019-10-18T18:56:40Z</time>
      </trkpt>
      <trkpt lat="36.9350980" lon="-2.4225530">
        <ele>190.4</ele>
        <time>2019-10-18T18:56:41Z</time>
      </trkpt>
      <trkpt lat="36.9351230" lon="-2.4225370">
        <ele>190.5</ele>
        <time>2019-10-18T18:56:42Z</time>
      </trkpt>
      <trkpt lat="36.9351480" lon="-2.4225220">
        <ele>190.5</ele>
        <time>2019-10-18T18:56:43Z</time>
      </trkpt>
      <trkpt lat="36.9351730" lon="-2.4225070">
        <ele>190.6</ele>
        <time>2019-10-18T18:56:44Z</time>
      </trkpt>
      <trkpt lat="36.9351970" lon="-2.4224940">
        <ele>190.7</ele>
        <time>2019-10-18T18:56:45Z</time>
      </trkpt>
      <trkpt lat="36.9352210" lon="-2.4224810">
        <ele>190.8</ele>
        <time>2019-10-18T18:56:46Z</time>
      </trkpt>
      <trkpt lat="36.9352440" lon="-2.4224660">
        <ele>190.8</ele>
        <time>2019-10-18T18:56:47Z</time>
      </trkpt>
      <trkpt lat="36.9352660" lon="-2.4224500">
        <ele>190.9</ele>
        <time>2019-10-18T18:56:48Z</time>
      </trkpt>
      <trkpt lat="36.9352900" lon="-2.4224340">
        <ele>191.0</ele>
        <time>2019-10-18T18:56:49Z</time>
      </trkpt>
      <trkpt lat="36.9353140" lon="-2.4224180">
        <ele>191.0</ele>
        <time>2019-10-18T18:56:50Z</time>
      </trkpt>
      <trkpt lat="36.9353390" lon="-2.4224020">
        <ele>191.1</ele>
        <time>2019-10-18T18:56:51Z</time>
      </trkpt>
      <trkpt lat="36.9353650" lon="-2.4223840">
        <ele>191.2</ele>
        <time>2019-10-18T18:56:52Z</time>
      </trkpt>
      <trkpt lat="36.9353900" lon="-2.4223670">
        <ele>191.3</ele>
        <time>2019-10-18T18:56:53Z</time>
      </trkpt>
      <trkpt lat="36.9354150" lon="-2.4223490">
        <ele>191.4</ele>
        <time>2019-10-18T18:56:54Z</time>
      </trkpt>
      <trkpt lat="36.9354400" lon="-2.4223320">
        <ele>191.5</ele>
        <time>2019-10-18T18:56:55Z</time>
      </trkpt>
      <trkpt lat="36.9354660" lon="-2.4223160">
        <ele>191.6</ele>
        <time>2019-10-18T18:56:56Z</time>
      </trkpt>
      <trkpt lat="36.9354930" lon="-2.4222990">
        <ele>191.6</ele>
        <time>2019-10-18T18:56:57Z</time>
      </trkpt>
      <trkpt lat="36.9355190" lon="-2.4222830">
        <ele>191.7</ele>
        <time>2019-10-18T18:56:58Z</time>
      </trkpt>
      <trkpt lat="36.9355440" lon="-2.4222650">
        <ele>191.8</ele>
        <time>2019-10-18T18:56:59Z</time>
      </trkpt>
      <trkpt lat="36.9355700" lon="-2.4222460">
        <ele>191.8</ele>
        <time>2019-10-18T18:57:00Z</time>
      </trkpt>
      <trkpt lat="36.9355950" lon="-2.4222270">
        <ele>191.9</ele>
        <time>2019-10-18T18:57:01Z</time>
      </trkpt>
      <trkpt lat="36.9356220" lon="-2.4222090">
        <ele>192.0</ele>
        <time>2019-10-18T18:57:02Z</time>
      </trkpt>
      <trkpt lat="36.9356480" lon="-2.4221920">
        <ele>192.0</ele>
        <time>2019-10-18T18:57:03Z</time>
      </trkpt>
      <trkpt lat="36.9356760" lon="-2.4221750">
        <ele>192.2</ele>
        <time>2019-10-18T18:57:04Z</time>
      </trkpt>
      <trkpt lat="36.9357030" lon="-2.4221590">
        <ele>192.3</ele>
        <time>2019-10-18T18:57:05Z</time>
      </trkpt>
      <trkpt lat="36.9357290" lon="-2.4221430">
        <ele>192.4</ele>
        <time>2019-10-18T18:57:06Z</time>
      </trkpt>
      <trkpt lat="36.9357550" lon="-2.4221260">
        <ele>192.4</ele>
        <time>2019-10-18T18:57:07Z</time>
      </trkpt>
      <trkpt lat="36.9357800" lon="-2.4221080">
        <ele>192.5</ele>
        <time>2019-10-18T18:57:08Z</time>
      </trkpt>
      <trkpt lat="36.9358060" lon="-2.4220900">
        <ele>192.5</ele>
        <time>2019-10-18T18:57:09Z</time>
      </trkpt>
      <trkpt lat="36.9358320" lon="-2.4220730">
        <ele>192.6</ele>
        <time>2019-10-18T18:57:10Z</time>
      </trkpt>
      <trkpt lat="36.9358580" lon="-2.4220550">
        <ele>192.6</ele>
        <time>2019-10-18T18:57:11Z</time>
      </trkpt>
      <trkpt lat="36.9358840" lon="-2.4220380">
        <ele>192.7</ele>
        <time>2019-10-18T18:57:12Z</time>
      </trkpt>
      <trkpt lat="36.9359110" lon="-2.4220210">
        <ele>192.7</ele>
        <time>2019-10-18T18:57:13Z</time>
      </trkpt>
      <trkpt lat="36.9359370" lon="-2.4220040">
        <ele>192.8</ele>
        <time>2019-10-18T18:57:14Z</time>
      </trkpt>
      <trkpt lat="36.9359630" lon="-2.4219870">
        <ele>192.9</ele>
        <time>2019-10-18T18:57:15Z</time>
      </trkpt>
      <trkpt lat="36.9359880" lon="-2.4219710">
        <ele>192.9</ele>
        <time>2019-10-18T18:57:16Z</time>
      </trkpt>
      <trkpt lat="36.9360130" lon="-2.4219560">
        <ele>193.0</ele>
        <time>2019-10-18T18:57:17Z</time>
      </trkpt>
      <trkpt lat="36.9360400" lon="-2.4219410">
        <ele>193.1</ele>
        <time>2019-10-18T18:57:18Z</time>
      </trkpt>
      <trkpt lat="36.9360650" lon="-2.4219250">
        <ele>193.1</ele>
        <time>2019-10-18T18:57:19Z</time>
      </trkpt>
      <trkpt lat="36.9360910" lon="-2.4219100">
        <ele>193.2</ele>
        <time>2019-10-18T18:57:20Z</time>
      </trkpt>
      <trkpt lat="36.9361160" lon="-2.4218940">
        <ele>193.3</ele>
        <time>2019-10-18T18:57:21Z</time>
      </trkpt>
      <trkpt lat="36.9361410" lon="-2.4218790">
        <ele>193.4</ele>
        <time>2019-10-18T18:57:22Z</time>
      </trkpt>
      <trkpt lat="36.9361660" lon="-2.4218620">
        <ele>193.4</ele>
        <time>2019-10-18T18:57:23Z</time>
      </trkpt>
      <trkpt lat="36.9361920" lon="-2.4218450">
        <ele>193.5</ele>
        <time>2019-10-18T18:57:24Z</time>
      </trkpt>
      <trkpt lat="36.9362180" lon="-2.4218270">
        <ele>193.6</ele>
        <time>2019-10-18T18:57:25Z</time>
      </trkpt>
      <trkpt lat="36.9362450" lon="-2.4218090">
        <ele>193.6</ele>
        <time>2019-10-18T18:57:26Z</time>
      </trkpt>
      <trkpt lat="36.9362710" lon="-2.4217900">
        <ele>193.7</ele>
        <time>2019-10-18T18:57:27Z</time>
      </trkpt>
      <trkpt lat="36.9362980" lon="-2.4217710">
        <ele>193.7</ele>
        <time>2019-10-18T18:57:28Z</time>
      </trkpt>
      <trkpt lat="36.9363240" lon="-2.4217530">
        <ele>193.7</ele>
        <time>2019-10-18T18:57:29Z</time>
      </trkpt>
      <trkpt lat="36.9363500" lon="-2.4217350">
        <ele>193.8</ele>
        <time>2019-10-18T18:57:30Z</time>
      </trkpt>
      <trkpt lat="36.9363760" lon="-2.4217180">
        <ele>193.8</ele>
        <time>2019-10-18T18:57:31Z</time>
      </trkpt>
      <trkpt lat="36.9364020" lon="-2.4217010">
        <ele>193.8</ele>
        <time>2019-10-18T18:57:32Z</time>
      </trkpt>
      <trkpt lat="36.9364290" lon="-2.4216830">
        <ele>193.9</ele>
        <time>2019-10-18T18:57:33Z</time>
      </trkpt>
      <trkpt lat="36.9364560" lon="-2.4216660">
        <ele>193.9</ele>
        <time>2019-10-18T18:57:34Z</time>
      </trkpt>
      <trkpt lat="36.9364820" lon="-2.4216480">
        <ele>193.9</ele>
        <time>2019-10-18T18:57:35Z</time>
      </trkpt>
      <trkpt lat="36.9365100" lon="-2.4216310">
        <ele>194.0</ele>
        <time>2019-10-18T18:57:36Z</time>
      </trkpt>
      <trkpt lat="36.9365380" lon="-2.4216130">
        <ele>194.0</ele>
        <time>2019-10-18T18:57:37Z</time>
      </trkpt>
      <trkpt lat="36.9365650" lon="-2.4215950">
        <ele>194.1</ele>
        <time>2019-10-18T18:57:38Z</time>
      </trkpt>
      <trkpt lat="36.9365920" lon="-2.4215770">
        <ele>194.2</ele>
        <time>2019-10-18T18:57:39Z</time>
      </trkpt>
      <trkpt lat="36.9366200" lon="-2.4215600">
        <ele>194.2</ele>
        <time>2019-10-18T18:57:40Z</time>
      </trkpt>
      <trkpt lat="36.9366470" lon="-2.4215420">
        <ele>194.3</ele>
        <time>2019-10-18T18:57:41Z</time>
      </trkpt>
      <trkpt lat="36.9366740" lon="-2.4215230">
        <ele>194.4</ele>
        <time>2019-10-18T18:57:42Z</time>
      </trkpt>
      <trkpt lat="36.9366990" lon="-2.4215040">
        <ele>194.5</ele>
        <time>2019-10-18T18:57:43Z</time>
      </trkpt>
      <trkpt lat="36.9367240" lon="-2.4214840">
        <ele>194.6</ele>
        <time>2019-10-18T18:57:44Z</time>
      </trkpt>
      <trkpt lat="36.9367500" lon="-2.4214650">
        <ele>194.6</ele>
        <time>2019-10-18T18:57:45Z</time>
      </trkpt>
      <trkpt lat="36.9367760" lon="-2.4214450">
        <ele>194.7</ele>
        <time>2019-10-18T18:57:46Z</time>
      </trkpt>
      <trkpt lat="36.9368020" lon="-2.4214250">
        <ele>194.8</ele>
        <time>2019-10-18T18:57:47Z</time>
      </trkpt>
      <trkpt lat="36.9368270" lon="-2.4214040">
        <ele>194.9</ele>
        <time>2019-10-18T18:57:48Z</time>
      </trkpt>
      <trkpt lat="36.9368540" lon="-2.4213830">
        <ele>195.0</ele>
        <time>2019-10-18T18:57:49Z</time>
      </trkpt>
      <trkpt lat="36.9368800" lon="-2.4213620">
        <ele>195.0</ele>
        <time>2019-10-18T18:57:50Z</time>
      </trkpt>
      <trkpt lat="36.9369070" lon="-2.4213420">
        <ele>195.1</ele>
        <time>2019-10-18T18:57:51Z</time>
      </trkpt>
      <trkpt lat="36.9369330" lon="-2.4213200">
        <ele>195.2</ele>
        <time>2019-10-18T18:57:52Z</time>
      </trkpt>
      <trkpt lat="36.9369590" lon="-2.4212960">
        <ele>195.2</ele>
        <time>2019-10-18T18:57:53Z</time>
      </trkpt>
      <trkpt lat="36.9369850" lon="-2.4212710">
        <ele>195.3</ele>
        <time>2019-10-18T18:57:54Z</time>
      </trkpt>
      <trkpt lat="36.9370110" lon="-2.4212460">
        <ele>195.4</ele>
        <time>2019-10-18T18:57:55Z</time>
      </trkpt>
      <trkpt lat="36.9370370" lon="-2.4212210">
        <ele>195.6</ele>
        <time>2019-10-18T18:57:56Z</time>
      </trkpt>
      <trkpt lat="36.9370630" lon="-2.4211960">
        <ele>195.7</ele>
        <time>2019-10-18T18:57:57Z</time>
      </trkpt>
      <trkpt lat="36.9370900" lon="-2.4211700">
        <ele>195.8</ele>
        <time>2019-10-18T18:57:58Z</time>
      </trkpt>
      <trkpt lat="36.9371180" lon="-2.4211440">
        <ele>195.9</ele>
        <time>2019-10-18T18:57:59Z</time>
      </trkpt>
      <trkpt lat="36.9371450" lon="-2.4211160">
        <ele>196.1</ele>
        <time>2019-10-18T18:58:00Z</time>
      </trkpt>
      <trkpt lat="36.9371740" lon="-2.4210870">
        <ele>196.2</ele>
        <time>2019-10-18T18:58:01Z</time>
      </trkpt>
      <trkpt lat="36.9372020" lon="-2.4210570">
        <ele>196.3</ele>
        <time>2019-10-18T18:58:02Z</time>
      </trkpt>
      <trkpt lat="36.9372300" lon="-2.4210280">
        <ele>196.4</ele>
        <time>2019-10-18T18:58:03Z</time>
      </trkpt>
      <trkpt lat="36.9372590" lon="-2.4209990">
        <ele>196.6</ele>
        <time>2019-10-18T18:58:04Z</time>
      </trkpt>
      <trkpt lat="36.9372870" lon="-2.4209710">
        <ele>196.7</ele>
        <time>2019-10-18T18:58:05Z</time>
      </trkpt>
      <trkpt lat="36.9373140" lon="-2.4209410">
        <ele>196.8</ele>
        <time>2019-10-18T18:58:06Z</time>
      </trkpt>
      <trkpt lat="36.9373400" lon="-2.4209110">
        <ele>196.9</ele>
        <time>2019-10-18T18:58:07Z</time>
      </trkpt>
      <trkpt lat="36.9373660" lon="-2.4208810">
        <ele>197.0</ele>
        <time>2019-10-18T18:58:08Z</time>
      </trkpt>
      <trkpt lat="36.9373910" lon="-2.4208500">
        <ele>197.2</ele>
        <time>2019-10-18T18:58:09Z</time>
      </trkpt>
      <trkpt lat="36.9374160" lon="-2.4208200">
        <ele>197.3</ele>
        <time>2019-10-18T18:58:10Z</time>
      </trkpt>
      <trkpt lat="36.9374410" lon="-2.4207890">
        <ele>197.4</ele>
        <time>2019-10-18T18:58:11Z</time>
      </trkpt>
      <trkpt lat="36.9374670" lon="-2.4207590">
        <ele>197.5</ele>
        <time>2019-10-18T18:58:12Z</time>
      </trkpt>
      <trkpt lat="36.9374920" lon="-2.4207290">
        <ele>197.7</ele>
        <time>2019-10-18T18:58:13Z</time>
      </trkpt>
      <trkpt lat="36.9375170" lon="-2.4207000">
        <ele>197.9</ele>
        <time>2019-10-18T18:58:14Z</time>
      </trkpt>
      <trkpt lat="36.9375400" lon="-2.4206690">
        <ele>198.1</ele>
        <time>2019-10-18T18:58:15Z</time>
      </trkpt>
      <trkpt lat="36.9375630" lon="-2.4206380">
        <ele>198.2</ele>
        <time>2019-10-18T18:58:16Z</time>
      </trkpt>
      <trkpt lat="36.9375860" lon="-2.4206060">
        <ele>198.3</ele>
        <time>2019-10-18T18:58:17Z</time>
      </trkpt>
      <trkpt lat="36.9376080" lon="-2.4205740">
        <ele>198.4</ele>
        <time>2019-10-18T18:58:18Z</time>
      </trkpt>
      <trkpt lat="36.9376310" lon="-2.4205440">
        <ele>198.5</ele>
        <time>2019-10-18T18:58:19Z</time>
      </trkpt>
      <trkpt lat="36.9376540" lon="-2.4205150">
        <ele>198.6</ele>
        <time>2019-10-18T18:58:20Z</time>
      </trkpt>
      <trkpt lat="36.9376760" lon="-2.4204860">
        <ele>198.7</ele>
        <time>2019-10-18T18:58:21Z</time>
      </trkpt>
      <trkpt lat="36.9376990" lon="-2.4204590">
        <ele>198.8</ele>
        <time>2019-10-18T18:58:22Z</time>
      </trkpt>
      <trkpt lat="36.9377220" lon="-2.4204330">
        <ele>199.0</ele>
        <time>2019-10-18T18:58:23Z</time>
      </trkpt>
      <trkpt lat="36.9377450" lon="-2.4204080">
        <ele>199.1</ele>
        <time>2019-10-18T18:58:24Z</time>
      </trkpt>
      <trkpt lat="36.9377670" lon="-2.4203830">
        <ele>199.2</ele>
        <time>2019-10-18T18:58:25Z</time>
      </trkpt>
      <trkpt lat="36.9377870" lon="-2.4203580">
        <ele>199.3</ele>
        <time>2019-10-18T18:58:26Z</time>
      </trkpt>
      <trkpt lat="36.9378080" lon="-2.4203350">
        <ele>199.4</ele>
        <time>2019-10-18T18:58:27Z</time>
      </trkpt>
      <trkpt lat="36.9378300" lon="-2.4203130">
        <ele>199.6</ele>
        <time>2019-10-18T18:58:28Z</time>
      </trkpt>
      <trkpt lat="36.9378510" lon="-2.4202920">
        <ele>199.7</ele>
        <time>2019-10-18T18:58:29Z</time>
      </trkpt>
      <trkpt lat="36.9378720" lon="-2.4202690">
        <ele>199.8</ele>
        <time>2019-10-18T18:58:30Z</time>
      </trkpt>
      <trkpt lat="36.9378930" lon="-2.4202460">
        <ele>199.9</ele>
        <time>2019-10-18T18:58:31Z</time>
      </trkpt>
      <trkpt lat="36.9379150" lon="-2.4202230">
        <ele>200.0</ele>
        <time>2019-10-18T18:58:32Z</time>
      </trkpt>
      <trkpt lat="36.9379370" lon="-2.4202010">
        <ele>200.1</ele>
        <time>2019-10-18T18:58:33Z</time>
      </trkpt>
      <trkpt lat="36.9379580" lon="-2.4201790">
        <ele>200.3</ele>
        <time>2019-10-18T18:58:34Z</time>
      </trkpt>
      <trkpt lat="36.9379780" lon="-2.4201570">
        <ele>200.4</ele>
        <time>2019-10-18T18:58:35Z</time>
      </trkpt>
      <trkpt lat="36.9379990" lon="-2.4201340">
        <ele>200.5</ele>
        <time>2019-10-18T18:58:36Z</time>
      </trkpt>
      <trkpt lat="36.9380190" lon="-2.4201110">
        <ele>200.6</ele>
        <time>2019-10-18T18:58:37Z</time>
      </trkpt>
      <trkpt lat="36.9380400" lon="-2.4200880">
        <ele>200.8</ele>
        <time>2019-10-18T18:58:38Z</time>
      </trkpt>
      <trkpt lat="36.9380610" lon="-2.4200650">
        <ele>201.0</ele>
        <time>2019-10-18T18:58:39Z</time>
      </trkpt>
      <trkpt lat="36.9380820" lon="-2.4200420">
        <ele>201.1</ele>
        <time>2019-10-18T18:58:40Z</time>
      </trkpt>
      <trkpt lat="36.9381020" lon="-2.4200190">
        <ele>201.2</ele>
        <time>2019-10-18T18:58:41Z</time>
      </trkpt>
      <trkpt lat="36.9381220" lon="-2.4199960">
        <ele>201.3</ele>
        <time>2019-10-18T18:58:42Z</time>
      </trkpt>
      <trkpt lat="36.9381420" lon="-2.4199740">
        <ele>201.4</ele>
        <time>2019-10-18T18:58:43Z</time>
      </trkpt>
      <trkpt lat="36.9381630" lon="-2.4199530">
        <ele>201.5</ele>
        <time>2019-10-18T18:58:44Z</time>
      </trkpt>
      <trkpt lat="36.9381840" lon="-2.4199340">
        <ele>201.6</ele>
        <time>2019-10-18T18:58:45Z</time>
      </trkpt>
      <trkpt lat="36.9382050" lon="-2.4199150">
        <ele>201.6</ele>
        <time>2019-10-18T18:58:46Z</time>
      </trkpt>
      <trkpt lat="36.9382270" lon="-2.4198940">
        <ele>201.7</ele>
        <time>2019-10-18T18:58:47Z</time>
      </trkpt>
      <trkpt lat="36.9382470" lon="-2.4198700">
        <ele>201.8</ele>
        <time>2019-10-18T18:58:48Z</time>
      </trkpt>
      <trkpt lat="36.9382670" lon="-2.4198460">
        <ele>201.9</ele>
        <time>2019-10-18T18:58:49Z</time>
      </trkpt>
      <trkpt lat="36.9382860" lon="-2.4198220">
        <ele>201.9</ele>
        <time>2019-10-18T18:58:50Z</time>
      </trkpt>
      <trkpt lat="36.9383060" lon="-2.4197990">
        <ele>202.0</ele>
        <time>2019-10-18T18:58:51Z</time>
      </trkpt>
      <trkpt lat="36.9383270" lon="-2.4197760">
        <ele>202.1</ele>
        <time>2019-10-18T18:58:52Z</time>
      </trkpt>
      <trkpt lat="36.9383490" lon="-2.4197520">
        <ele>202.2</ele>
        <time>2019-10-18T18:58:53Z</time>
      </trkpt>
      <trkpt lat="36.9383690" lon="-2.4197270">
        <ele>202.2</ele>
        <time>2019-10-18T18:58:54Z</time>
      </trkpt>
      <trkpt lat="36.9383880" lon="-2.4197030">
        <ele>202.3</ele>
        <time>2019-10-18T18:58:55Z</time>
      </trkpt>
      <trkpt lat="36.9384070" lon="-2.4196790">
        <ele>202.4</ele>
        <time>2019-10-18T18:58:56Z</time>
      </trkpt>
      <trkpt lat="36.9384270" lon="-2.4196570">
        <ele>202.4</ele>
        <time>2019-10-18T18:58:57Z</time>
      </trkpt>
      <trkpt lat="36.9384480" lon="-2.4196340">
        <ele>202.5</ele>
        <time>2019-10-18T18:58:58Z</time>
      </trkpt>
      <trkpt lat="36.9384690" lon="-2.4196120">
        <ele>202.6</ele>
        <time>2019-10-18T18:58:59Z</time>
      </trkpt>
      <trkpt lat="36.9384910" lon="-2.4195880">
        <ele>202.7</ele>
        <time>2019-10-18T18:59:00Z</time>
      </trkpt>
      <trkpt lat="36.9385130" lon="-2.4195630">
        <ele>202.8</ele>
        <time>2019-10-18T18:59:01Z</time>
      </trkpt>
      <trkpt lat="36.9385350" lon="-2.4195390">
        <ele>202.9</ele>
        <time>2019-10-18T18:59:02Z</time>
      </trkpt>
      <trkpt lat="36.9385570" lon="-2.4195140">
        <ele>203.0</ele>
        <time>2019-10-18T18:59:03Z</time>
      </trkpt>
      <trkpt lat="36.9385790" lon="-2.4194900">
        <ele>203.1</ele>
        <time>2019-10-18T18:59:04Z</time>
      </trkpt>
      <trkpt lat="36.9386000" lon="-2.4194650">
        <ele>203.2</ele>
        <time>2019-10-18T18:59:05Z</time>
      </trkpt>
      <trkpt lat="36.9386220" lon="-2.4194410">
        <ele>203.4</ele>
        <time>2019-10-18T18:59:06Z</time>
      </trkpt>
      <trkpt lat="36.9386440" lon="-2.4194180">
        <ele>203.5</ele>
        <time>2019-10-18T18:59:07Z</time>
      </trkpt>
      <trkpt lat="36.9386650" lon="-2.4193940">
        <ele>203.6</ele>
        <time>2019-10-18T18:59:08Z</time>
      </trkpt>
      <trkpt lat="36.9386870" lon="-2.4193700">
        <ele>203.7</ele>
        <time>2019-10-18T18:59:09Z</time>
      </trkpt>
      <trkpt lat="36.9387080" lon="-2.4193450">
        <ele>203.8</ele>
        <time>2019-10-18T18:59:10Z</time>
      </trkpt>
      <trkpt lat="36.9387290" lon="-2.4193220">
        <ele>203.8</ele>
        <time>2019-10-18T18:59:11Z</time>
      </trkpt>
      <trkpt lat="36.9387500" lon="-2.4192980">
        <ele>203.9</ele>
        <time>2019-10-18T18:59:12Z</time>
      </trkpt>
      <trkpt lat="36.9387700" lon="-2.4192750">
        <ele>204.0</ele>
        <time>2019-10-18T18:59:13Z</time>
      </trkpt>
      <trkpt lat="36.9387900" lon="-2.4192510">
        <ele>204.1</ele>
        <time>2019-10-18T18:59:14Z</time>
      </trkpt>
      <trkpt lat="36.9388090" lon="-2.4192260">
        <ele>204.1</ele>
        <time>2019-10-18T18:59:15Z</time>
      </trkpt>
      <trkpt lat="36.9388290" lon="-2.4192000">
        <ele>204.2</ele>
        <time>2019-10-18T18:59:16Z</time>
      </trkpt>
      <trkpt lat="36.9388510" lon="-2.4191760">
        <ele>204.3</ele>
        <time>2019-10-18T18:59:17Z</time>
      </trkpt>
      <trkpt lat="36.9388720" lon="-2.4191520">
        <ele>204.3</ele>
        <time>2019-10-18T18:59:18Z</time>
      </trkpt>
      <trkpt lat="36.9388930" lon="-2.4191290">
        <ele>204.4</ele>
        <time>2019-10-18T18:59:19Z</time>
      </trkpt>
      <trkpt lat="36.9389140" lon="-2.4191060">
        <ele>204.5</ele>
        <time>2019-10-18T18:59:20Z</time>
      </trkpt>
      <trkpt lat="36.9389350" lon="-2.4190820">
        <ele>204.6</ele>
        <time>2019-10-18T18:59:21Z</time>
      </trkpt>
      <trkpt lat="36.9389560" lon="-2.4190580">
        <ele>204.6</ele>
        <time>2019-10-18T18:59:22Z</time>
      </trkpt>
      <trkpt lat="36.9389770" lon="-2.4190340">
        <ele>204.7</ele>
        <time>2019-10-18T18:59:23Z</time>
      </trkpt>
      <trkpt lat="36.9389970" lon="-2.4190100">
        <ele>204.8</ele>
        <time>2019-10-18T18:59:24Z</time>
      </trkpt>
      <trkpt lat="36.9390170" lon="-2.4189860">
        <ele>204.8</ele>
        <time>2019-10-18T18:59:25Z</time>
      </trkpt>
      <trkpt lat="36.9390360" lon="-2.4189640">
        <ele>204.9</ele>
        <time>2019-10-18T18:59:26Z</time>
      </trkpt>
      <trkpt lat="36.9390560" lon="-2.4189400">
        <ele>205.0</ele>
        <time>2019-10-18T18:59:27Z</time>
      </trkpt>
      <trkpt lat="36.9390760" lon="-2.4189160">
        <ele>205.0</ele>
        <time>2019-10-18T18:59:28Z</time>
      </trkpt>
      <trkpt lat="36.9390950" lon="-2.4188900">
        <ele>205.1</ele>
        <time>2019-10-18T18:59:29Z</time>
      </trkpt>
      <trkpt lat="36.9391130" lon="-2.4188660">
        <ele>205.2</ele>
        <time>2019-10-18T18:59:30Z</time>
      </trkpt>
      <trkpt lat="36.9391340" lon="-2.4188430">
        <ele>205.3</ele>
        <time>2019-10-18T18:59:31Z</time>
      </trkpt>
      <trkpt lat="36.9391560" lon="-2.4188200">
        <ele>205.4</ele>
        <time>2019-10-18T18:59:32Z</time>
      </trkpt>
      <trkpt lat="36.9391780" lon="-2.4187970">
        <ele>205.8</ele>
        <time>2019-10-18T18:59:33Z</time>
      </trkpt>
      <trkpt lat="36.9391990" lon="-2.4187750">
        <ele>206.0</ele>
        <time>2019-10-18T18:59:34Z</time>
      </trkpt>
      <trkpt lat="36.9392200" lon="-2.4187510">
        <ele>206.1</ele>
        <time>2019-10-18T18:59:35Z</time>
      </trkpt>
      <trkpt lat="36.9392410" lon="-2.4187280">
        <ele>206.3</ele>
        <time>2019-10-18T18:59:36Z</time>
      </trkpt>
      <trkpt lat="36.9392630" lon="-2.4187040">
        <ele>206.4</ele>
        <time>2019-10-18T18:59:37Z</time>
      </trkpt>
      <trkpt lat="36.9392840" lon="-2.4186810">
        <ele>206.5</ele>
        <time>2019-10-18T18:59:38Z</time>
      </trkpt>
      <trkpt lat="36.9393040" lon="-2.4186570">
        <ele>206.7</ele>
        <time>2019-10-18T18:59:39Z</time>
      </trkpt>
      <trkpt lat="36.9393240" lon="-2.4186340">
        <ele>206.8</ele>
        <time>2019-10-18T18:59:40Z</time>
      </trkpt>
      <trkpt lat="36.9393460" lon="-2.4186120">
        <ele>207.0</ele>
        <time>2019-10-18T18:59:41Z</time>
      </trkpt>
      <trkpt lat="36.9393670" lon="-2.4185890">
        <ele>207.1</ele>
        <time>2019-10-18T18:59:42Z</time>
      </trkpt>
      <trkpt lat="36.9393880" lon="-2.4185670">
        <ele>207.2</ele>
        <time>2019-10-18T18:59:43Z</time>
      </trkpt>
      <trkpt lat="36.9394090" lon="-2.4185440">
        <ele>207.4</ele>
        <time>2019-10-18T18:59:44Z</time>
      </trkpt>
      <trkpt lat="36.9394300" lon="-2.4185210">
        <ele>207.6</ele>
        <time>2019-10-18T18:59:45Z</time>
      </trkpt>
      <trkpt lat="36.9394510" lon="-2.4184980">
        <ele>207.7</ele>
        <time>2019-10-18T18:59:46Z</time>
      </trkpt>
      <trkpt lat="36.9394720" lon="-2.4184750">
        <ele>207.9</ele>
        <time>2019-10-18T18:59:47Z</time>
      </trkpt>
      <trkpt lat="36.9394920" lon="-2.4184500">
        <ele>208.1</ele>
        <time>2019-10-18T18:59:48Z</time>
      </trkpt>
      <trkpt lat="36.9395110" lon="-2.4184260">
        <ele>208.2</ele>
        <time>2019-10-18T18:59:49Z</time>
      </trkpt>
      <trkpt lat="36.9395310" lon="-2.4184030">
        <ele>208.4</ele>
        <time>2019-10-18T18:59:50Z</time>
      </trkpt>
      <trkpt lat="36.9395510" lon="-2.4183800">
        <ele>208.6</ele>
        <time>2019-10-18T18:59:51Z</time>
      </trkpt>
      <trkpt lat="36.9395720" lon="-2.4183580">
        <ele>208.7</ele>
        <time>2019-10-18T18:59:52Z</time>
      </trkpt>
      <trkpt lat="36.9395930" lon="-2.4183360">
        <ele>208.9</ele>
        <time>2019-10-18T18:59:53Z</time>
      </trkpt>
      <trkpt lat="36.9396150" lon="-2.4183150">
        <ele>209.1</ele>
        <time>2019-10-18T18:59:54Z</time>
      </trkpt>
      <trkpt lat="36.9396370" lon="-2.4182940">
        <ele>209.3</ele>
        <time>2019-10-18T18:59:55Z</time>
      </trkpt>
      <trkpt lat="36.9396590" lon="-2.4182730">
        <ele>209.4</ele>
        <time>2019-10-18T18:59:56Z</time>
      </trkpt>
      <trkpt lat="36.9396800" lon="-2.4182520">
        <ele>209.6</ele>
        <time>2019-10-18T18:59:57Z</time>
      </trkpt>
      <trkpt lat="36.9397010" lon="-2.4182300">
        <ele>209.8</ele>
        <time>2019-10-18T18:59:58Z</time>
      </trkpt>
      <trkpt lat="36.9397210" lon="-2.4182080">
        <ele>210.0</ele>
        <time>2019-10-18T18:59:59Z</time>
      </trkpt>
      <trkpt lat="36.9397400" lon="-2.4181850">
        <ele>210.2</ele>
        <time>2019-10-18T19:00:00Z</time>
      </trkpt>
      <trkpt lat="36.9397590" lon="-2.4181630">
        <ele>210.3</ele>
        <time>2019-10-18T19:00:01Z</time>
      </trkpt>
      <trkpt lat="36.9397800" lon="-2.4181400">
        <ele>210.5</ele>
        <time>2019-10-18T19:00:02Z</time>
      </trkpt>
      <trkpt lat="36.9398000" lon="-2.4181180">
        <ele>210.7</ele>
        <time>2019-10-18T19:00:03Z</time>
      </trkpt>
      <trkpt lat="36.9398210" lon="-2.4180970">
        <ele>210.8</ele>
        <time>2019-10-18T19:00:04Z</time>
      </trkpt>
      <trkpt lat="36.9398420" lon="-2.4180760">
        <ele>211.0</ele>
        <time>2019-10-18T19:00:05Z</time>
      </trkpt>
      <trkpt lat="36.9398640" lon="-2.4180540">
        <ele>211.1</ele>
        <time>2019-10-18T19:00:06Z</time>
      </trkpt>
      <trkpt lat="36.9398850" lon="-2.4180310">
        <ele>211.3</ele>
        <time>2019-10-18T19:00:07Z</time>
      </trkpt>
      <trkpt lat="36.9399050" lon="-2.4180100">
        <ele>211.4</ele>
        <time>2019-10-18T19:00:08Z</time>
      </trkpt>
      <trkpt lat="36.9399250" lon="-2.4179890">
        <ele>211.6</ele>
        <time>2019-10-18T19:00:09Z</time>
      </trkpt>
      <trkpt lat="36.9399440" lon="-2.4179690">
        <ele>211.7</ele>
        <time>2019-10-18T19:00:10Z</time>
      </trkpt>
      <trkpt lat="36.9399630" lon="-2.4179470">
        <ele>211.9</ele>
        <time>2019-10-18T19:00:11Z</time>
      </trkpt>
      <trkpt lat="36.9399840" lon="-2.4179230">
        <ele>212.1</ele>
        <time>2019-10-18T19:00:12Z</time>
      </trkpt>
      <trkpt lat="36.9400050" lon="-2.4179010">
        <ele>212.3</ele>
        <time>2019-10-18T19:00:13Z</time>
      </trkpt>
      <trkpt lat="36.9400250" lon="-2.4178810">
        <ele>212.4</ele>
        <time>2019-10-18T19:00:14Z</time>
      </trkpt>
      <trkpt lat="36.9400440" lon="-2.4178630">
        <ele>212.6</ele>
        <time>2019-10-18T19:00:15Z</time>
      </trkpt>
      <trkpt lat="36.9400630" lon="-2.4178440">
        <ele>212.8</ele>
        <time>2019-10-18T19:00:16Z</time>
      </trkpt>
      <trkpt lat="36.9400810" lon="-2.4178240">
        <ele>213.0</ele>
        <time>2019-10-18T19:00:17Z</time>
      </trkpt>
      <trkpt lat="36.9400980" lon="-2.4178030">
        <ele>213.1</ele>
        <time>2019-10-18T19:00:18Z</time>
      </trkpt>
      <trkpt lat="36.9401150" lon="-2.4177820">
        <ele>213.3</ele>
        <time>2019-10-18T19:00:19Z</time>
      </trkpt>
      <trkpt lat="36.9401330" lon="-2.4177610">
        <ele>213.5</ele>
        <time>2019-10-18T19:00:20Z</time>
      </trkpt>
      <trkpt lat="36.9401520" lon="-2.4177380">
        <ele>213.6</ele>
        <time>2019-10-18T19:00:21Z</time>
      </trkpt>
      <trkpt lat="36.9401710" lon="-2.4177160">
        <ele>213.8</ele>
        <time>2019-10-18T19:00:22Z</time>
      </trkpt>
      <trkpt lat="36.9401900" lon="-2.4176940">
        <ele>214.0</ele>
        <time>2019-10-18T19:00:23Z</time>
      </trkpt>
      <trkpt lat="36.9402100" lon="-2.4176740">
        <ele>214.2</ele>
        <time>2019-10-18T19:00:24Z</time>
      </trkpt>
      <trkpt lat="36.9402310" lon="-2.4176550">
        <ele>214.4</ele>
        <time>2019-10-18T19:00:25Z</time>
      </trkpt>
      <trkpt lat="36.9402500" lon="-2.4176370">
        <ele>214.5</ele>
        <time>2019-10-18T19:00:26Z</time>
      </trkpt>
      <trkpt lat="36.9402690" lon="-2.4176190">
        <ele>214.7</ele>
        <time>2019-10-18T19:00:27Z</time>
      </trkpt>
      <trkpt lat="36.9402870" lon="-2.4175990">
        <ele>214.9</ele>
        <time>2019-10-18T19:00:28Z</time>
      </trkpt>
      <trkpt lat="36.9403050" lon="-2.4175790">
        <ele>215.0</ele>
        <time>2019-10-18T19:00:29Z</time>
      </trkpt>
      <trkpt lat="36.9403240" lon="-2.4175580">
        <ele>215.2</ele>
        <time>2019-10-18T19:00:30Z</time>
      </trkpt>
      <trkpt lat="36.9403420" lon="-2.4175370">
        <ele>215.5</ele>
        <time>2019-10-18T19:00:31Z</time>
      </trkpt>
      <trkpt lat="36.9403600" lon="-2.4175150">
        <ele>215.8</ele>
        <time>2019-10-18T19:00:32Z</time>
      </trkpt>
      <trkpt lat="36.9403790" lon="-2.4174940">
        <ele>216.1</ele>
        <time>2019-10-18T19:00:33Z</time>
      </trkpt>
      <trkpt lat="36.9403990" lon="-2.4174720">
        <ele>216.5</ele>
        <time>2019-10-18T19:00:34Z</time>
      </trkpt>
      <trkpt lat="36.9404180" lon="-2.4174500">
        <ele>216.8</ele>
        <time>2019-10-18T19:00:35Z</time>
      </trkpt>
      <trkpt lat="36.9404180" lon="-2.4174500">
        <ele>216.8</ele>
        <time>2019-10-18T19:00:36Z</time>
      </trkpt>
      <trkpt lat="36.9404410" lon="-2.4174260">
        <ele>217.1</ele>
        <time>2019-10-18T19:00:37Z</time>
      </trkpt>
      <trkpt lat="36.9404630" lon="-2.4174020">
        <ele>217.4</ele>
        <time>2019-10-18T19:00:38Z</time>
      </trkpt>
      <trkpt lat="36.9404850" lon="-2.4173800">
        <ele>217.7</ele>
        <time>2019-10-18T19:00:39Z</time>
      </trkpt>
      <trkpt lat="36.9405050" lon="-2.4173640">
        <ele>218.0</ele>
        <time>2019-10-18T19:00:40Z</time>
      </trkpt>
      <trkpt lat="36.9405260" lon="-2.4173500">
        <ele>218.3</ele>
        <time>2019-10-18T19:00:41Z</time>
      </trkpt>
      <trkpt lat="36.9405480" lon="-2.4173350">
        <ele>218.6</ele>
        <time>2019-10-18T19:00:42Z</time>
      </trkpt>
      <trkpt lat="36.9405700" lon="-2.4173210">
        <ele>218.9</ele>
        <time>2019-10-18T19:00:43Z</time>
      </trkpt>
      <trkpt lat="36.9405920" lon="-2.4173070">
        <ele>219.2</ele>
        <time>2019-10-18T19:00:44Z</time>
      </trkpt>
      <trkpt lat="36.9406140" lon="-2.4172940">
        <ele>220.1</ele>
        <time>2019-10-18T19:00:45Z</time>
      </trkpt>
      <trkpt lat="36.9406340" lon="-2.4172810">
        <ele>220.2</ele>
        <time>2019-10-18T19:00:46Z</time>
      </trkpt>
      <trkpt lat="36.9406530" lon="-2.4172710">
        <ele>220.2</ele>
        <time>2019-10-18T19:00:47Z</time>
      </trkpt>
      <trkpt lat="36.9406700" lon="-2.4172630">
        <ele>220.3</ele>
        <time>2019-10-18T19:00:48Z</time>
      </trkpt>
      <trkpt lat="36.9406850" lon="-2.4172570">
        <ele>220.3</ele>
        <time>2019-10-18T19:00:49Z</time>
      </trkpt>
      <trkpt lat="36.9406990" lon="-2.4172510">
        <ele>220.3</ele>
        <time>2019-10-18T19:00:50Z</time>
      </trkpt>
      <trkpt lat="36.9407120" lon="-2.4172510">
        <ele>220.4</ele>
        <time>2019-10-18T19:00:51Z</time>
      </trkpt>
      <trkpt lat="36.9407250" lon="-2.4172560">
        <ele>220.4</ele>
        <time>2019-10-18T19:00:52Z</time>
      </trkpt>
      <trkpt lat="36.9407380" lon="-2.4172670">
        <ele>220.4</ele>
        <time>2019-10-18T19:00:53Z</time>
      </trkpt>
      <trkpt lat="36.9407500" lon="-2.4172810">
        <ele>220.5</ele>
        <time>2019-10-18T19:00:54Z</time>
      </trkpt>
      <trkpt lat="36.9407620" lon="-2.4172970">
        <ele>220.5</ele>
        <time>2019-10-18T19:00:55Z</time>
      </trkpt>
      <trkpt lat="36.9407750" lon="-2.4173100">
        <ele>220.6</ele>
        <time>2019-10-18T19:00:56Z</time>
      </trkpt>
      <trkpt lat="36.9407890" lon="-2.4173180">
        <ele>220.6</ele>
        <time>2019-10-18T19:00:57Z</time>
      </trkpt>
      <trkpt lat="36.9408020" lon="-2.4173230">
        <ele>220.6</ele>
        <time>2019-10-18T19:00:58Z</time>
      </trkpt>
      <trkpt lat="36.9408150" lon="-2.4173250">
        <ele>220.7</ele>
        <time>2019-10-18T19:00:59Z</time>
      </trkpt>
      <trkpt lat="36.9408240" lon="-2.4173230">
        <ele>220.7</ele>
        <time>2019-10-18T19:01:00Z</time>
      </trkpt>
      <trkpt lat="36.9408320" lon="-2.4173200">
        <ele>220.7</ele>
        <time>2019-10-18T19:01:01Z</time>
      </trkpt>
      <trkpt lat="36.9408350" lon="-2.4173180">
        <ele>220.7</ele>
        <time>2019-10-18T19:01:02Z</time>
      </trkpt>
      <trkpt lat="36.9408360" lon="-2.4173190">
        <ele>220.7</ele>
        <time>2019-10-18T19:01:03Z</time>
      </trkpt>
      <trkpt lat="36.9408360" lon="-2.4173190">
        <ele>220.7</ele>
        <time>2019-10-18T19:01:04Z</time>
      </trkpt>
      <trkpt lat="36.9408360" lon="-2.4173190">
        <ele>220.7</ele>
        <time>2019-10-18T19:01:05Z</time>
      </trkpt>
      <trkpt lat="36.9408350" lon="-2.4173190">
        <ele>220.7</ele>
        <time>2019-10-18T19:01:06Z</time>
      </trkpt>
      <trkpt lat="36.9408350" lon="-2.4173180">
        <ele>220.7</ele>
        <time>2019-10-18T19:01:07Z</time>
      </trkpt>
      <trkpt lat="36.9408340" lon="-2.4173180">
        <ele>220.7</ele>
        <time>2019-10-18T19:01:08Z</time>
      </trkpt>
      <trkpt lat="36.9408340" lon="-2.4173190">
        <ele>220.7</ele>
        <time>2019-10-18T19:01:09Z</time>
      </trkpt>
      <trkpt lat="36.9408330" lon="-2.4173190">
        <ele>220.7</ele>
        <time>2019-10-18T19:01:10Z</time>
      </trkpt>
      <trkpt lat="36.9408330" lon="-2.4173200">
        <ele>220.7</ele>
        <time>2019-10-18T19:01:11Z</time>
      </trkpt>
      <trkpt lat="36.9408320" lon="-2.4173200">
        <ele>220.7</ele>
        <time>2019-10-18T19:01:12Z</time>
      </trkpt>
      <trkpt lat="36.9408320" lon="-2.4173200">
        <ele>220.7</ele>
        <time>2019-10-18T19:01:13Z</time>
      </trkpt>
      <trkpt lat="36.9408330" lon="-2.4173200">
        <ele>220.7</ele>
        <time>2019-10-18T19:01:14Z</time>
      </trkpt>
      <trkpt lat="36.9408340" lon="-2.4173190">
        <ele>220.7</ele>
        <time>2019-10-18T19:01:15Z</time>
      </trkpt>
      <trkpt lat="36.9408350" lon="-2.4173180">
        <ele>220.7</ele>
        <time>2019-10-18T19:01:16Z</time>
      </trkpt>
      <trkpt lat="36.9408370" lon="-2.4173160">
        <ele>220.7</ele>
        <time>2019-10-18T19:01:17Z</time>
      </trkpt>
      <trkpt lat="36.9408400" lon="-2.4173150">
        <ele>220.7</ele>
        <time>2019-10-18T19:01:18Z</time>
      </trkpt>
      <trkpt lat="36.9408490" lon="-2.4173130">
        <ele>220.7</ele>
        <time>2019-10-18T19:01:19Z</time>
      </trkpt>
      <trkpt lat="36.9408610" lon="-2.4173120">
        <ele>220.8</ele>
        <time>2019-10-18T19:01:20Z</time>
      </trkpt>
      <trkpt lat="36.9408750" lon="-2.4173110">
        <ele>220.8</ele>
        <time>2019-10-18T19:01:21Z</time>
      </trkpt>
      <trkpt lat="36.9408890" lon="-2.4173100">
        <ele>220.8</ele>
        <time>2019-10-18T19:01:22Z</time>
      </trkpt>
      <trkpt lat="36.9409020" lon="-2.4173060">
        <ele>220.8</ele>
        <time>2019-10-18T19:01:23Z</time>
      </trkpt>
      <trkpt lat="36.9409170" lon="-2.4172990">
        <ele>220.9</ele>
        <time>2019-10-18T19:01:24Z</time>
      </trkpt>
      <trkpt lat="36.9409320" lon="-2.4172910">
        <ele>220.9</ele>
        <time>2019-10-18T19:01:25Z</time>
      </trkpt>
      <trkpt lat="36.9409470" lon="-2.4172840">
        <ele>220.9</ele>
        <time>2019-10-18T19:01:26Z</time>
      </trkpt>
      <trkpt lat="36.9409640" lon="-2.4172770">
        <ele>221.0</ele>
        <time>2019-10-18T19:01:27Z</time>
      </trkpt>
      <trkpt lat="36.9409800" lon="-2.4172700">
        <ele>221.0</ele>
        <time>2019-10-18T19:01:28Z</time>
      </trkpt>
      <trkpt lat="36.9409960" lon="-2.4172630">
        <ele>221.0</ele>
        <time>2019-10-18T19:01:29Z</time>
      </trkpt>
      <trkpt lat="36.9410120" lon="-2.4172550">
        <ele>221.1</ele>
        <time>2019-10-18T19:01:30Z</time>
      </trkpt>
      <trkpt lat="36.9410280" lon="-2.4172450">
        <ele>221.1</ele>
        <time>2019-10-18T19:01:31Z</time>
      </trkpt>
      <trkpt lat="36.9410430" lon="-2.4172330">
        <ele>221.1</ele>
        <time>2019-10-18T19:01:32Z</time>
      </trkpt>
      <trkpt lat="36.9410580" lon="-2.4172210">
        <ele>221.2</ele>
        <time>2019-10-18T19:01:33Z</time>
      </trkpt>
      <trkpt lat="36.9410750" lon="-2.4172080">
        <ele>221.2</ele>
        <time>2019-10-18T19:01:34Z</time>
      </trkpt>
      <trkpt lat="36.9410920" lon="-2.4171960">
        <ele>221.2</ele>
        <time>2019-10-18T19:01:35Z</time>
      </trkpt>
      <trkpt lat="36.9411100" lon="-2.4171850">
        <ele>221.3</ele>
        <time>2019-10-18T19:01:36Z</time>
      </trkpt>
      <trkpt lat="36.9411290" lon="-2.4171730">
        <ele>221.3</ele>
        <time>2019-10-18T19:01:37Z</time>
      </trkpt>
      <trkpt lat="36.9411470" lon="-2.4171610">
        <ele>221.3</ele>
        <time>2019-10-18T19:01:38Z</time>
      </trkpt>
      <trkpt lat="36.9411650" lon="-2.4171480">
        <ele>221.4</ele>
        <time>2019-10-18T19:01:39Z</time>
      </trkpt>
      <trkpt lat="36.9411840" lon="-2.4171360">
        <ele>221.4</ele>
        <time>2019-10-18T19:01:40Z</time>
      </trkpt>
      <trkpt lat="36.9412040" lon="-2.4171250">
        <ele>221.5</ele>
        <time>2019-10-18T19:01:41Z</time>
      </trkpt>
      <trkpt lat="36.9412250" lon="-2.4171150">
        <ele>221.5</ele>
        <time>2019-10-18T19:01:42Z</time>
      </trkpt>
      <trkpt lat="36.9412460" lon="-2.4171050">
        <ele>221.5</ele>
        <time>2019-10-18T19:01:43Z</time>
      </trkpt>
      <trkpt lat="36.9412670" lon="-2.4170970">
        <ele>221.6</ele>
        <time>2019-10-18T19:01:44Z</time>
      </trkpt>
      <trkpt lat="36.9412890" lon="-2.4170900">
        <ele>221.6</ele>
        <time>2019-10-18T19:01:45Z</time>
      </trkpt>
      <trkpt lat="36.9413110" lon="-2.4170850">
        <ele>221.7</ele>
        <time>2019-10-18T19:01:46Z</time>
      </trkpt>
      <trkpt lat="36.9413350" lon="-2.4170800">
        <ele>221.7</ele>
        <time>2019-10-18T19:01:47Z</time>
      </trkpt>
      <trkpt lat="36.9413580" lon="-2.4170760">
        <ele>221.7</ele>
        <time>2019-10-18T19:01:48Z</time>
      </trkpt>
      <trkpt lat="36.9413810" lon="-2.4170690">
        <ele>221.8</ele>
        <time>2019-10-18T19:01:49Z</time>
      </trkpt>
      <trkpt lat="36.9414040" lon="-2.4170610">
        <ele>221.8</ele>
        <time>2019-10-18T19:01:50Z</time>
      </trkpt>
      <trkpt lat="36.9414290" lon="-2.4170530">
        <ele>221.8</ele>
        <time>2019-10-18T19:01:51Z</time>
      </trkpt>
      <trkpt lat="36.9414520" lon="-2.4170450">
        <ele>221.9</ele>
        <time>2019-10-18T19:01:52Z</time>
      </trkpt>
      <trkpt lat="36.9414710" lon="-2.4170400">
        <ele>221.9</ele>
        <time>2019-10-18T19:01:53Z</time>
      </trkpt>
      <trkpt lat="36.9414850" lon="-2.4170380">
        <ele>221.9</ele>
        <time>2019-10-18T19:01:54Z</time>
      </trkpt>
      <trkpt lat="36.9414960" lon="-2.4170380">
        <ele>222.0</ele>
        <time>2019-10-18T19:01:55Z</time>
      </trkpt>
      <trkpt lat="36.9415080" lon="-2.4170370">
        <ele>222.0</ele>
        <time>2019-10-18T19:01:56Z</time>
      </trkpt>
      <trkpt lat="36.9415200" lon="-2.4170320">
        <ele>222.0</ele>
        <time>2019-10-18T19:01:57Z</time>
      </trkpt>
      <trkpt lat="36.9415280" lon="-2.4170250">
        <ele>222.0</ele>
        <time>2019-10-18T19:01:58Z</time>
      </trkpt>
      <trkpt lat="36.9415310" lon="-2.4170200">
        <ele>222.0</ele>
        <time>2019-10-18T19:01:59Z</time>
      </trkpt>
      <trkpt lat="36.9415300" lon="-2.4170170">
        <ele>222.0</ele>
        <time>2019-10-18T19:02:00Z</time>
      </trkpt>
      <trkpt lat="36.9415290" lon="-2.4170160">
        <ele>222.0</ele>
        <time>2019-10-18T19:02:01Z</time>
      </trkpt>
      <trkpt lat="36.9415290" lon="-2.4170160">
        <ele>222.0</ele>
        <time>2019-10-18T19:02:02Z</time>
      </trkpt>
      <trkpt lat="36.9415300" lon="-2.4170150">
        <ele>222.0</ele>
        <time>2019-10-18T19:02:03Z</time>
      </trkpt>
      <trkpt lat="36.9415310" lon="-2.4170140">
        <ele>222.0</ele>
        <time>2019-10-18T19:02:04Z</time>
      </trkpt>
      <trkpt lat="36.9415320" lon="-2.4170120">
        <ele>222.0</ele>
        <time>2019-10-18T19:02:05Z</time>
      </trkpt>
      <trkpt lat="36.9415330" lon="-2.4170090">
        <ele>222.0</ele>
        <time>2019-10-18T19:02:06Z</time>
      </trkpt>
      <trkpt lat="36.9415340" lon="-2.4170050">
        <ele>222.0</ele>
        <time>2019-10-18T19:02:07Z</time>
      </trkpt>
      <trkpt lat="36.9415350" lon="-2.4170010">
        <ele>222.0</ele>
        <time>2019-10-18T19:02:08Z</time>
      </trkpt>
      <trkpt lat="36.9415360" lon="-2.4169970">
        <ele>222.0</ele>
        <time>2019-10-18T19:02:09Z</time>
      </trkpt>
      <trkpt lat="36.9415370" lon="-2.4169930">
        <ele>222.1</ele>
        <time>2019-10-18T19:02:10Z</time>
      </trkpt>
      <trkpt lat="36.9415380" lon="-2.4169890">
        <ele>222.1</ele>
        <time>2019-10-18T19:02:11Z</time>
      </trkpt>
      <trkpt lat="36.9415380" lon="-2.4169830">
        <ele>222.1</ele>
        <time>2019-10-18T19:02:12Z</time>
      </trkpt>
      <trkpt lat="36.9415380" lon="-2.4169740">
        <ele>222.1</ele>
        <time>2019-10-18T19:02:13Z</time>
      </trkpt>
      <trkpt lat="36.9415360" lon="-2.4169630">
        <ele>222.1</ele>
        <time>2019-10-18T19:02:14Z</time>
      </trkpt>
      <trkpt lat="36.9415350" lon="-2.4169550">
        <ele>222.1</ele>
        <time>2019-10-18T19:02:15Z</time>
      </trkpt>
      <trkpt lat="36.9415350" lon="-2.4169520">
        <ele>222.1</ele>
        <time>2019-10-18T19:02:16Z</time>
      </trkpt>
      <trkpt lat="36.9415360" lon="-2.4169510">
        <ele>222.1</ele>
        <time>2019-10-18T19:02:17Z</time>
      </trkpt>
      <trkpt lat="36.9415360" lon="-2.4169480">
        <ele>222.1</ele>
        <time>2019-10-18T19:02:18Z</time>
      </trkpt>
      <trkpt lat="36.9415360" lon="-2.4169450">
        <ele>222.1</ele>
        <time>2019-10-18T19:02:19Z</time>
      </trkpt>
      <trkpt lat="36.9415370" lon="-2.4169400">
        <ele>222.1</ele>
        <time>2019-10-18T19:02:20Z</time>
      </trkpt>
      <trkpt lat="36.9415370" lon="-2.4169360">
        <ele>222.1</ele>
        <time>2019-10-18T19:02:21Z</time>
      </trkpt>
      <trkpt lat="36.9415370" lon="-2.4169300">
        <ele>222.1</ele>
        <time>2019-10-18T19:02:22Z</time>
      </trkpt>
      <trkpt lat="36.9415330" lon="-2.4169240">
        <ele>222.1</ele>
        <time>2019-10-18T19:02:23Z</time>
      </trkpt>
      <trkpt lat="36.9415280" lon="-2.4169170">
        <ele>222.2</ele>
        <time>2019-10-18T19:02:24Z</time>
      </trkpt>
      <trkpt lat="36.9415200" lon="-2.4169080">
        <ele>222.2</ele>
        <time>2019-10-18T19:02:25Z</time>
      </trkpt>
      <trkpt lat="36.9415100" lon="-2.4169010">
        <ele>222.2</ele>
        <time>2019-10-18T19:02:26Z</time>
      </trkpt>
      <trkpt lat="36.9414970" lon="-2.4168960">
        <ele>222.2</ele>
        <time>2019-10-18T19:02:27Z</time>
      </trkpt>
      <trkpt lat="36.9414840" lon="-2.4168920">
        <ele>222.2</ele>
        <time>2019-10-18T19:02:28Z</time>
      </trkpt>
      <trkpt lat="36.9414690" lon="-2.4168880">
        <ele>222.2</ele>
        <time>2019-10-18T19:02:29Z</time>
      </trkpt>
      <trkpt lat="36.9414530" lon="-2.4168800">
        <ele>222.2</ele>
        <time>2019-10-18T19:02:30Z</time>
      </trkpt>
      <trkpt lat="36.9414380" lon="-2.4168680">
        <ele>222.2</ele>
        <time>2019-10-18T19:02:31Z</time>
      </trkpt>
      <trkpt lat="36.9414240" lon="-2.4168570">
        <ele>222.2</ele>
        <time>2019-10-18T19:02:32Z</time>
      </trkpt>
      <trkpt lat="36.9414100" lon="-2.4168450">
        <ele>222.3</ele>
        <time>2019-10-18T19:02:33Z</time>
      </trkpt>
      <trkpt lat="36.9413950" lon="-2.4168350">
        <ele>222.3</ele>
        <time>2019-10-18T19:02:34Z</time>
      </trkpt>
      <trkpt lat="36.9413770" lon="-2.4168260">
        <ele>222.3</ele>
        <time>2019-10-18T19:02:35Z</time>
      </trkpt>
      <trkpt lat="36.9413580" lon="-2.4168180">
        <ele>222.3</ele>
        <time>2019-10-18T19:02:36Z</time>
      </trkpt>
      <trkpt lat="36.9413370" lon="-2.4168110">
        <ele>222.3</ele>
        <time>2019-10-18T19:02:37Z</time>
      </trkpt>
      <trkpt lat="36.9413150" lon="-2.4168040">
        <ele>222.3</ele>
        <time>2019-10-18T19:02:38Z</time>
      </trkpt>
      <trkpt lat="36.9412920" lon="-2.4167960">
        <ele>222.3</ele>
        <time>2019-10-18T19:02:39Z</time>
      </trkpt>
      <trkpt lat="36.9412690" lon="-2.4167910">
        <ele>222.3</ele>
        <time>2019-10-18T19:02:40Z</time>
      </trkpt>
      <trkpt lat="36.9412430" lon="-2.4167870">
        <ele>222.3</ele>
        <time>2019-10-18T19:02:41Z</time>
      </trkpt>
      <trkpt lat="36.9412180" lon="-2.4167860">
        <ele>222.3</ele>
        <time>2019-10-18T19:02:42Z</time>
      </trkpt>
      <trkpt lat="36.9411920" lon="-2.4167840">
        <ele>222.3</ele>
        <time>2019-10-18T19:02:43Z</time>
      </trkpt>
      <trkpt lat="36.9411660" lon="-2.4167820">
        <ele>222.3</ele>
        <time>2019-10-18T19:02:44Z</time>
      </trkpt>
      <trkpt lat="36.9411390" lon="-2.4167790">
        <ele>222.3</ele>
        <time>2019-10-18T19:02:45Z</time>
      </trkpt>
      <trkpt lat="36.9411130" lon="-2.4167700">
        <ele>222.3</ele>
        <time>2019-10-18T19:02:46Z</time>
      </trkpt>
      <trkpt lat="36.9410880" lon="-2.4167540">
        <ele>222.3</ele>
        <time>2019-10-18T19:02:47Z</time>
      </trkpt>
      <trkpt lat="36.9410680" lon="-2.4167310">
        <ele>222.3</ele>
        <time>2019-10-18T19:02:48Z</time>
      </trkpt>
      <trkpt lat="36.9410530" lon="-2.4167050">
        <ele>222.3</ele>
        <time>2019-10-18T19:02:49Z</time>
      </trkpt>
      <trkpt lat="36.9410430" lon="-2.4166760">
        <ele>222.3</ele>
        <time>2019-10-18T19:02:50Z</time>
      </trkpt>
      <trkpt lat="36.9410370" lon="-2.4166450">
        <ele>222.2</ele>
        <time>2019-10-18T19:02:51Z</time>
      </trkpt>
      <trkpt lat="36.9410340" lon="-2.4166130">
        <ele>222.2</ele>
        <time>2019-10-18T19:02:52Z</time>
      </trkpt>
      <trkpt lat="36.9410320" lon="-2.4165820">
        <ele>222.2</ele>
        <time>2019-10-18T19:02:53Z</time>
      </trkpt>
      <trkpt lat="36.9410300" lon="-2.4165510">
        <ele>222.2</ele>
        <time>2019-10-18T19:02:54Z</time>
      </trkpt>
      <trkpt lat="36.9410260" lon="-2.4165200">
        <ele>222.2</ele>
        <time>2019-10-18T19:02:55Z</time>
      </trkpt>
      <trkpt lat="36.9410190" lon="-2.4164900">
        <ele>222.2</ele>
        <time>2019-10-18T19:02:56Z</time>
      </trkpt>
      <trkpt lat="36.9410100" lon="-2.4164580">
        <ele>222.2</ele>
        <time>2019-10-18T19:02:57Z</time>
      </trkpt>
      <trkpt lat="36.9410010" lon="-2.4164250">
        <ele>222.2</ele>
        <time>2019-10-18T19:02:58Z</time>
      </trkpt>
      <trkpt lat="36.9409940" lon="-2.4163900">
        <ele>222.1</ele>
        <time>2019-10-18T19:02:59Z</time>
      </trkpt>
      <trkpt lat="36.9409890" lon="-2.4163550">
        <ele>222.1</ele>
        <time>2019-10-18T19:03:00Z</time>
      </trkpt>
      <trkpt lat="36.9409840" lon="-2.4163190">
        <ele>222.1</ele>
        <time>2019-10-18T19:03:01Z</time>
      </trkpt>
      <trkpt lat="36.9409800" lon="-2.4162840">
        <ele>222.1</ele>
        <time>2019-10-18T19:03:02Z</time>
      </trkpt>
      <trkpt lat="36.9409770" lon="-2.4162490">
        <ele>222.1</ele>
        <time>2019-10-18T19:03:03Z</time>
      </trkpt>
      <trkpt lat="36.9409740" lon="-2.4162170">
        <ele>222.1</ele>
        <time>2019-10-18T19:03:04Z</time>
      </trkpt>
      <trkpt lat="36.9409720" lon="-2.4161900">
        <ele>222.1</ele>
        <time>2019-10-18T19:03:05Z</time>
      </trkpt>
      <trkpt lat="36.9409720" lon="-2.4161720">
        <ele>222.1</ele>
        <time>2019-10-18T19:03:06Z</time>
      </trkpt>
      <trkpt lat="36.9409710" lon="-2.4161600">
        <ele>222.1</ele>
        <time>2019-10-18T19:03:07Z</time>
      </trkpt>
      <trkpt lat="36.9409700" lon="-2.4161520">
        <ele>222.1</ele>
        <time>2019-10-18T19:03:08Z</time>
      </trkpt>
      <trkpt lat="36.9409680" lon="-2.4161470">
        <ele>222.1</ele>
        <time>2019-10-18T19:03:09Z</time>
      </trkpt>
      <trkpt lat="36.9409670" lon="-2.4161440">
        <ele>222.1</ele>
        <time>2019-10-18T19:03:10Z</time>
      </trkpt>
      <trkpt lat="36.9409660" lon="-2.4161400">
        <ele>222.1</ele>
        <time>2019-10-18T19:03:11Z</time>
      </trkpt>
      <trkpt lat="36.9409660" lon="-2.4161360">
        <ele>222.1</ele>
        <time>2019-10-18T19:03:12Z</time>
      </trkpt>
      <trkpt lat="36.9409670" lon="-2.4161290">
        <ele>222.0</ele>
        <time>2019-10-18T19:03:13Z</time>
      </trkpt>
      <trkpt lat="36.9409690" lon="-2.4161210">
        <ele>222.0</ele>
        <time>2019-10-18T19:03:14Z</time>
      </trkpt>
      <trkpt lat="36.9409700" lon="-2.4161130">
        <ele>222.0</ele>
        <time>2019-10-18T19:03:15Z</time>
      </trkpt>
      <trkpt lat="36.9409700" lon="-2.4161070">
        <ele>222.0</ele>
        <time>2019-10-18T19:03:16Z</time>
      </trkpt>
      <trkpt lat="36.9409700" lon="-2.4161010">
        <ele>222.0</ele>
        <time>2019-10-18T19:03:17Z</time>
      </trkpt>
      <trkpt lat="36.9409690" lon="-2.4160940">
        <ele>222.0</ele>
        <time>2019-10-18T19:03:18Z</time>
      </trkpt>
      <trkpt lat="36.9409690" lon="-2.4160810">
        <ele>222.0</ele>
        <time>2019-10-18T19:03:19Z</time>
      </trkpt>
      <trkpt lat="36.9409690" lon="-2.4160640">
        <ele>222.0</ele>
        <time>2019-10-18T19:03:20Z</time>
      </trkpt>
      <trkpt lat="36.9409700" lon="-2.4160430">
        <ele>222.0</ele>
        <time>2019-10-18T19:03:21Z</time>
      </trkpt>
      <trkpt lat="36.9409720" lon="-2.4160200">
        <ele>222.0</ele>
        <time>2019-10-18T19:03:22Z</time>
      </trkpt>
      <trkpt lat="36.9409770" lon="-2.4159980">
        <ele>222.0</ele>
        <time>2019-10-18T19:03:23Z</time>
      </trkpt>
      <trkpt lat="36.9409840" lon="-2.4159750">
        <ele>222.0</ele>
        <time>2019-10-18T19:03:24Z</time>
      </trkpt>
      <trkpt lat="36.9409930" lon="-2.4159500">
        <ele>222.0</ele>
        <time>2019-10-18T19:03:25Z</time>
      </trkpt>
      <trkpt lat="36.9410010" lon="-2.4159250">
        <ele>222.0</ele>
        <time>2019-10-18T19:03:26Z</time>
      </trkpt>
      <trkpt lat="36.9410110" lon="-2.4159030">
        <ele>221.9</ele>
        <time>2019-10-18T19:03:27Z</time>
      </trkpt>
      <trkpt lat="36.9410220" lon="-2.4158850">
        <ele>221.9</ele>
        <time>2019-10-18T19:03:28Z</time>
      </trkpt>
      <trkpt lat="36.9410300" lon="-2.4158730">
        <ele>221.9</ele>
        <time>2019-10-18T19:03:29Z</time>
      </trkpt>
      <trkpt lat="36.9410340" lon="-2.4158670">
        <ele>221.9</ele>
        <time>2019-10-18T19:03:30Z</time>
      </trkpt>
      <trkpt lat="36.9410340" lon="-2.4158630">
        <ele>221.9</ele>
        <time>2019-10-18T19:03:31Z</time>
      </trkpt>
      <trkpt lat="36.9410340" lon="-2.4158600">
        <ele>221.9</ele>
        <time>2019-10-18T19:03:32Z</time>
      </trkpt>
      <trkpt lat="36.9410360" lon="-2.4158560">
        <ele>221.9</ele>
        <time>2019-10-18T19:03:33Z</time>
      </trkpt>
      <trkpt lat="36.9410380" lon="-2.4158500">
        <ele>221.9</ele>
        <time>2019-10-18T19:03:34Z</time>
      </trkpt>
      <trkpt lat="36.9410400" lon="-2.4158370">
        <ele>221.9</ele>
        <time>2019-10-18T19:03:35Z</time>
      </trkpt>
      <trkpt lat="36.9410430" lon="-2.4158190">
        <ele>221.9</ele>
        <time>2019-10-18T19:03:36Z</time>
      </trkpt>
      <trkpt lat="36.9410470" lon="-2.4158000">
        <ele>221.9</ele>
        <time>2019-10-18T19:03:37Z</time>
      </trkpt>
      <trkpt lat="36.9410520" lon="-2.4157800">
        <ele>221.9</ele>
        <time>2019-10-18T19:03:38Z</time>
      </trkpt>
      <trkpt lat="36.9410580" lon="-2.4157610">
        <ele>221.9</ele>
        <time>2019-10-18T19:03:39Z</time>
      </trkpt>
      <trkpt lat="36.9410660" lon="-2.4157450">
        <ele>221.9</ele>
        <time>2019-10-18T19:03:40Z</time>
      </trkpt>
      <trkpt lat="36.9410720" lon="-2.4157320">
        <ele>221.9</ele>
        <time>2019-10-18T19:03:41Z</time>
      </trkpt>
      <trkpt lat="36.9410750" lon="-2.4157230">
        <ele>221.9</ele>
        <time>2019-10-18T19:03:42Z</time>
      </trkpt>
      <trkpt lat="36.9410770" lon="-2.4157190">
        <ele>221.9</ele>
        <time>2019-10-18T19:03:43Z</time>
      </trkpt>
      <trkpt lat="36.9410780" lon="-2.4157180">
        <ele>221.9</ele>
        <time>2019-10-18T19:03:44Z</time>
      </trkpt>
      <trkpt lat="36.9410790" lon="-2.4157160">
        <ele>221.9</ele>
        <time>2019-10-18T19:03:45Z</time>
      </trkpt>
      <trkpt lat="36.9410800" lon="-2.4157140">
        <ele>221.9</ele>
        <time>2019-10-18T19:03:46Z</time>
      </trkpt>
      <trkpt lat="36.9410820" lon="-2.4157100">
        <ele>221.9</ele>
        <time>2019-10-18T19:03:47Z</time>
      </trkpt>
      <trkpt lat="36.9410840" lon="-2.4157060">
        <ele>221.9</ele>
        <time>2019-10-18T19:03:48Z</time>
      </trkpt>
      <trkpt lat="36.9410850" lon="-2.4157020">
        <ele>221.9</ele>
        <time>2019-10-18T19:03:49Z</time>
      </trkpt>
      <trkpt lat="36.9410870" lon="-2.4156990">
        <ele>221.9</ele>
        <time>2019-10-18T19:03:50Z</time>
      </trkpt>
      <trkpt lat="36.9410900" lon="-2.4156970">
        <ele>221.9</ele>
        <time>2019-10-18T19:03:51Z</time>
      </trkpt>
      <trkpt lat="36.9410940" lon="-2.4156950">
        <ele>221.9</ele>
        <time>2019-10-18T19:03:52Z</time>
      </trkpt>
      <trkpt lat="36.9410980" lon="-2.4156920">
        <ele>221.9</ele>
        <time>2019-10-18T19:03:53Z</time>
      </trkpt>
      <trkpt lat="36.9411000" lon="-2.4156880">
        <ele>221.9</ele>
        <time>2019-10-18T19:03:54Z</time>
      </trkpt>
      <trkpt lat="36.9411020" lon="-2.4156830">
        <ele>221.9</ele>
        <time>2019-10-18T19:03:55Z</time>
      </trkpt>
      <trkpt lat="36.9411040" lon="-2.4156790">
        <ele>221.9</ele>
        <time>2019-10-18T19:03:56Z</time>
      </trkpt>
      <trkpt lat="36.9411050" lon="-2.4156750">
        <ele>221.9</ele>
        <time>2019-10-18T19:03:57Z</time>
      </trkpt>
      <trkpt lat="36.9411070" lon="-2.4156710">
        <ele>221.9</ele>
        <time>2019-10-18T19:03:58Z</time>
      </trkpt>
      <trkpt lat="36.9411090" lon="-2.4156680">
        <ele>221.8</ele>
        <time>2019-10-18T19:03:59Z</time>
      </trkpt>
      <trkpt lat="36.9411110" lon="-2.4156640">
        <ele>221.8</ele>
        <time>2019-10-18T19:04:00Z</time>
      </trkpt>
      <trkpt lat="36.9411130" lon="-2.4156570">
        <ele>221.8</ele>
        <time>2019-10-18T19:04:01Z</time>
      </trkpt>
      <trkpt lat="36.9411150" lon="-2.4156480">
        <ele>221.8</ele>
        <time>2019-10-18T19:04:02Z</time>
      </trkpt>
      <trkpt lat="36.9411160" lon="-2.4156360">
        <ele>221.8</ele>
        <time>2019-10-18T19:04:03Z</time>
      </trkpt>
      <trkpt lat="36.9411140" lon="-2.4156220">
        <ele>221.8</ele>
        <time>2019-10-18T19:04:04Z</time>
      </trkpt>
      <trkpt lat="36.9411120" lon="-2.4156110">
        <ele>221.8</ele>
        <time>2019-10-18T19:04:05Z</time>
      </trkpt>
      <trkpt lat="36.9411090" lon="-2.4156050">
        <ele>221.8</ele>
        <time>2019-10-18T19:04:06Z</time>
      </trkpt>
      <trkpt lat="36.9411080" lon="-2.4156040">
        <ele>221.8</ele>
        <time>2019-10-18T19:04:07Z</time>
      </trkpt>
      <trkpt lat="36.9411080" lon="-2.4156040">
        <ele>221.8</ele>
        <time>2019-10-18T19:04:08Z</time>
      </trkpt>
      <trkpt lat="36.9411090" lon="-2.4156050">
        <ele>221.8</ele>
        <time>2019-10-18T19:04:09Z</time>
      </trkpt>
      <trkpt lat="36.9411090" lon="-2.4156050">
        <ele>221.8</ele>
        <time>2019-10-18T19:04:10Z</time>
      </trkpt>
      <trkpt lat="36.9411080" lon="-2.4156040">
        <ele>221.8</ele>
        <time>2019-10-18T19:04:11Z</time>
      </trkpt>
      <trkpt lat="36.9411080" lon="-2.4156030">
        <ele>221.8</ele>
        <time>2019-10-18T19:04:12Z</time>
      </trkpt>
      <trkpt lat="36.9411070" lon="-2.4156030">
        <ele>221.8</ele>
        <time>2019-10-18T19:04:13Z</time>
      </trkpt>
      <trkpt lat="36.9411060" lon="-2.4156020">
        <ele>221.8</ele>
        <time>2019-10-18T19:04:14Z</time>
      </trkpt>
      <trkpt lat="36.9411040" lon="-2.4156010">
        <ele>221.8</ele>
        <time>2019-10-18T19:04:15Z</time>
      </trkpt>
      <trkpt lat="36.9411030" lon="-2.4156000">
        <ele>221.8</ele>
        <time>2019-10-18T19:04:16Z</time>
      </trkpt>
      <trkpt lat="36.9411030" lon="-2.4155950">
        <ele>221.8</ele>
        <time>2019-10-18T19:04:17Z</time>
      </trkpt>
      <trkpt lat="36.9411030" lon="-2.4155830">
        <ele>221.8</ele>
        <time>2019-10-18T19:04:18Z</time>
      </trkpt>
      <trkpt lat="36.9411050" lon="-2.4155660">
        <ele>221.8</ele>
        <time>2019-10-18T19:04:19Z</time>
      </trkpt>
      <trkpt lat="36.9411080" lon="-2.4155450">
        <ele>221.9</ele>
        <time>2019-10-18T19:04:20Z</time>
      </trkpt>
      <trkpt lat="36.9411110" lon="-2.4155220">
        <ele>221.9</ele>
        <time>2019-10-18T19:04:21Z</time>
      </trkpt>
      <trkpt lat="36.9411150" lon="-2.4154960">
        <ele>221.9</ele>
        <time>2019-10-18T19:04:22Z</time>
      </trkpt>
      <trkpt lat="36.9411210" lon="-2.4154690">
        <ele>221.9</ele>
        <time>2019-10-18T19:04:23Z</time>
      </trkpt>
      <trkpt lat="36.9411280" lon="-2.4154430">
        <ele>221.9</ele>
        <time>2019-10-18T19:04:24Z</time>
      </trkpt>
      <trkpt lat="36.9411350" lon="-2.4154170">
        <ele>221.9</ele>
        <time>2019-10-18T19:04:25Z</time>
      </trkpt>
      <trkpt lat="36.9411440" lon="-2.4153920">
        <ele>221.9</ele>
        <time>2019-10-18T19:04:26Z</time>
      </trkpt>
      <trkpt lat="36.9411530" lon="-2.4153690">
        <ele>221.9</ele>
        <time>2019-10-18T19:04:27Z</time>
      </trkpt>
      <trkpt lat="36.9411630" lon="-2.4153480">
        <ele>221.9</ele>
        <time>2019-10-18T19:04:28Z</time>
      </trkpt>
      <trkpt lat="36.9411740" lon="-2.4153310">
        <ele>221.9</ele>
        <time>2019-10-18T19:04:29Z</time>
      </trkpt>
      <trkpt lat="36.9411860" lon="-2.4153180">
        <ele>222.0</ele>
        <time>2019-10-18T19:04:30Z</time>
      </trkpt>
      <trkpt lat="36.9411960" lon="-2.4153080">
        <ele>222.0</ele>
        <time>2019-10-18T19:04:31Z</time>
      </trkpt>
      <trkpt lat="36.9412060" lon="-2.4153000">
        <ele>222.0</ele>
        <time>2019-10-18T19:04:32Z</time>
      </trkpt>
      <trkpt lat="36.9412150" lon="-2.4152940">
        <ele>222.0</ele>
        <time>2019-10-18T19:04:33Z</time>
      </trkpt>
      <trkpt lat="36.9412220" lon="-2.4152900">
        <ele>222.0</ele>
        <time>2019-10-18T19:04:34Z</time>
      </trkpt>
      <trkpt lat="36.9412240" lon="-2.4152880">
        <ele>222.0</ele>
        <time>2019-10-18T19:04:35Z</time>
      </trkpt>
      <trkpt lat="36.9412240" lon="-2.4152860">
        <ele>222.0</ele>
        <time>2019-10-18T19:04:36Z</time>
      </trkpt>
      <trkpt lat="36.9412220" lon="-2.4152860">
        <ele>222.0</ele>
        <time>2019-10-18T19:04:37Z</time>
      </trkpt>
      <trkpt lat="36.9412230" lon="-2.4152860">
        <ele>222.0</ele>
        <time>2019-10-18T19:04:38Z</time>
      </trkpt>
      <trkpt lat="36.9412230" lon="-2.4152860">
        <ele>222.0</ele>
        <time>2019-10-18T19:04:39Z</time>
      </trkpt>
      <trkpt lat="36.9412230" lon="-2.4152850">
        <ele>222.0</ele>
        <time>2019-10-18T19:04:40Z</time>
      </trkpt>
      <trkpt lat="36.9412230" lon="-2.4152850">
        <ele>222.0</ele>
        <time>2019-10-18T19:04:41Z</time>
      </trkpt>
      <trkpt lat="36.9412240" lon="-2.4152850">
        <ele>222.0</ele>
        <time>2019-10-18T19:04:42Z</time>
      </trkpt>
      <trkpt lat="36.9412250" lon="-2.4152860">
        <ele>222.0</ele>
        <time>2019-10-18T19:04:43Z</time>
      </trkpt>
      <trkpt lat="36.9412250" lon="-2.4152860">
        <ele>222.0</ele>
        <time>2019-10-18T19:04:44Z</time>
      </trkpt>
      <trkpt lat="36.9412260" lon="-2.4152870">
        <ele>222.0</ele>
        <time>2019-10-18T19:04:45Z</time>
      </trkpt>
      <trkpt lat="36.9412270" lon="-2.4152870">
        <ele>222.0</ele>
        <time>2019-10-18T19:04:46Z</time>
      </trkpt>
      <trkpt lat="36.9412270" lon="-2.4152880">
        <ele>222.0</ele>
        <time>2019-10-18T19:04:47Z</time>
      </trkpt>
      <trkpt lat="36.9412280" lon="-2.4152890">
        <ele>222.0</ele>
        <time>2019-10-18T19:04:48Z</time>
      </trkpt>
      <trkpt lat="36.9412290" lon="-2.4152890">
        <ele>222.0</ele>
        <time>2019-10-18T19:04:49Z</time>
      </trkpt>
      <trkpt lat="36.9412300" lon="-2.4152900">
        <ele>222.0</ele>
        <time>2019-10-18T19:04:50Z</time>
      </trkpt>
      <trkpt lat="36.9412310" lon="-2.4152900">
        <ele>222.0</ele>
        <time>2019-10-18T19:04:51Z</time>
      </trkpt>
      <trkpt lat="36.9412310" lon="-2.4152910">
        <ele>222.0</ele>
        <time>2019-10-18T19:04:52Z</time>
      </trkpt>
      <trkpt lat="36.9412320" lon="-2.4152900">
        <ele>222.0</ele>
        <time>2019-10-18T19:04:53Z</time>
      </trkpt>
      <trkpt lat="36.9412340" lon="-2.4152900">
        <ele>222.0</ele>
        <time>2019-10-18T19:04:54Z</time>
      </trkpt>
      <trkpt lat="36.9412350" lon="-2.4152900">
        <ele>222.0</ele>
        <time>2019-10-18T19:04:55Z</time>
      </trkpt>
      <trkpt lat="36.9412370" lon="-2.4152890">
        <ele>222.1</ele>
        <time>2019-10-18T19:04:56Z</time>
      </trkpt>
      <trkpt lat="36.9412390" lon="-2.4152870">
        <ele>222.1</ele>
        <time>2019-10-18T19:04:57Z</time>
      </trkpt>
      <trkpt lat="36.9412400" lon="-2.4152860">
        <ele>222.1</ele>
        <time>2019-10-18T19:04:58Z</time>
      </trkpt>
      <trkpt lat="36.9412390" lon="-2.4152860">
        <ele>222.1</ele>
        <time>2019-10-18T19:04:59Z</time>
      </trkpt>
      <trkpt lat="36.9412390" lon="-2.4152840">
        <ele>222.1</ele>
        <time>2019-10-18T19:05:00Z</time>
      </trkpt>
      <trkpt lat="36.9412410" lon="-2.4152820">
        <ele>222.1</ele>
        <time>2019-10-18T19:05:01Z</time>
      </trkpt>
      <trkpt lat="36.9412430" lon="-2.4152790">
        <ele>222.1</ele>
        <time>2019-10-18T19:05:02Z</time>
      </trkpt>
      <trkpt lat="36.9412450" lon="-2.4152760">
        <ele>222.1</ele>
        <time>2019-10-18T19:05:03Z</time>
      </trkpt>
      <trkpt lat="36.9412470" lon="-2.4152730">
        <ele>222.1</ele>
        <time>2019-10-18T19:05:04Z</time>
      </trkpt>
      <trkpt lat="36.9412470" lon="-2.4152690">
        <ele>222.1</ele>
        <time>2019-10-18T19:05:05Z</time>
      </trkpt>
      <trkpt lat="36.9412500" lon="-2.4152670">
        <ele>222.1</ele>
        <time>2019-10-18T19:05:06Z</time>
      </trkpt>
      <trkpt lat="36.9412540" lon="-2.4152640">
        <ele>222.1</ele>
        <time>2019-10-18T19:05:07Z</time>
      </trkpt>
      <trkpt lat="36.9412580" lon="-2.4152620">
        <ele>222.1</ele>
        <time>2019-10-18T19:05:08Z</time>
      </trkpt>
      <trkpt lat="36.9412600" lon="-2.4152590">
        <ele>222.1</ele>
        <time>2019-10-18T19:05:09Z</time>
      </trkpt>
      <trkpt lat="36.9412600" lon="-2.4152550">
        <ele>222.1</ele>
        <time>2019-10-18T19:05:10Z</time>
      </trkpt>
      <trkpt lat="36.9412590" lon="-2.4152500">
        <ele>222.1</ele>
        <time>2019-10-18T19:05:11Z</time>
      </trkpt>
      <trkpt lat="36.9412570" lon="-2.4152450">
        <ele>222.1</ele>
        <time>2019-10-18T19:05:12Z</time>
      </trkpt>
      <trkpt lat="36.9412550" lon="-2.4152400">
        <ele>222.1</ele>
        <time>2019-10-18T19:05:13Z</time>
      </trkpt>
      <trkpt lat="36.9412540" lon="-2.4152370">
        <ele>222.1</ele>
        <time>2019-10-18T19:05:14Z</time>
      </trkpt>
      <trkpt lat="36.9412540" lon="-2.4152360">
        <ele>222.1</ele>
        <time>2019-10-18T19:05:15Z</time>
      </trkpt>
      <trkpt lat="36.9412530" lon="-2.4152350">
        <ele>222.1</ele>
        <time>2019-10-18T19:05:16Z</time>
      </trkpt>
      <trkpt lat="36.9412510" lon="-2.4152340">
        <ele>222.1</ele>
        <time>2019-10-18T19:05:17Z</time>
      </trkpt>
      <trkpt lat="36.9412510" lon="-2.4152330">
        <ele>222.1</ele>
        <time>2019-10-18T19:05:18Z</time>
      </trkpt>
      <trkpt lat="36.9412490" lon="-2.4152320">
        <ele>222.1</ele>
        <time>2019-10-18T19:05:19Z</time>
      </trkpt>
      <trkpt lat="36.9412480" lon="-2.4152320">
        <ele>222.1</ele>
        <time>2019-10-18T19:05:20Z</time>
      </trkpt>
      <trkpt lat="36.9412460" lon="-2.4152300">
        <ele>222.1</ele>
        <time>2019-10-18T19:05:21Z</time>
      </trkpt>
      <trkpt lat="36.9412450" lon="-2.4152290">
        <ele>222.1</ele>
        <time>2019-10-18T19:05:22Z</time>
      </trkpt>
      <trkpt lat="36.9412430" lon="-2.4152280">
        <ele>222.1</ele>
        <time>2019-10-18T19:05:23Z</time>
      </trkpt>
      <trkpt lat="36.9412430" lon="-2.4152270">
        <ele>222.1</ele>
        <time>2019-10-18T19:05:24Z</time>
      </trkpt>
      <trkpt lat="36.9412420" lon="-2.4152270">
        <ele>222.1</ele>
        <time>2019-10-18T19:05:25Z</time>
      </trkpt>
      <trkpt lat="36.9412420" lon="-2.4152260">
        <ele>222.1</ele>
        <time>2019-10-18T19:05:26Z</time>
      </trkpt>
      <trkpt lat="36.9412410" lon="-2.4152250">
        <ele>222.2</ele>
        <time>2019-10-18T19:05:27Z</time>
      </trkpt>
      <trkpt lat="36.9412400" lon="-2.4152240">
        <ele>222.2</ele>
        <time>2019-10-18T19:05:28Z</time>
      </trkpt>
      <trkpt lat="36.9412410" lon="-2.4152240">
        <ele>222.2</ele>
        <time>2019-10-18T19:05:29Z</time>
      </trkpt>
      <trkpt lat="36.9412400" lon="-2.4152240">
        <ele>222.2</ele>
        <time>2019-10-18T19:05:30Z</time>
      </trkpt>
      <trkpt lat="36.9412390" lon="-2.4152220">
        <ele>222.2</ele>
        <time>2019-10-18T19:05:31Z</time>
      </trkpt>
      <trkpt lat="36.9412380" lon="-2.4152200">
        <ele>222.2</ele>
        <time>2019-10-18T19:05:32Z</time>
      </trkpt>
      <trkpt lat="36.9412370" lon="-2.4152180">
        <ele>222.2</ele>
        <time>2019-10-18T19:05:33Z</time>
      </trkpt>
      <trkpt lat="36.9412370" lon="-2.4152160">
        <ele>222.2</ele>
        <time>2019-10-18T19:05:34Z</time>
      </trkpt>
      <trkpt lat="36.9412360" lon="-2.4152140">
        <ele>222.2</ele>
        <time>2019-10-18T19:05:35Z</time>
      </trkpt>
      <trkpt lat="36.9412350" lon="-2.4152130">
        <ele>222.2</ele>
        <time>2019-10-18T19:05:36Z</time>
      </trkpt>
      <trkpt lat="36.9412340" lon="-2.4152120">
        <ele>222.2</ele>
        <time>2019-10-18T19:05:37Z</time>
      </trkpt>
      <trkpt lat="36.9412340" lon="-2.4152110">
        <ele>222.2</ele>
        <time>2019-10-18T19:05:38Z</time>
      </trkpt>
      <trkpt lat="36.9412350" lon="-2.4152110">
        <ele>222.2</ele>
        <time>2019-10-18T19:05:39Z</time>
      </trkpt>
      <trkpt lat="36.9412370" lon="-2.4152110">
        <ele>222.2</ele>
        <time>2019-10-18T19:05:40Z</time>
      </trkpt>
      <trkpt lat="36.9412390" lon="-2.4152120">
        <ele>222.2</ele>
        <time>2019-10-18T19:05:41Z</time>
      </trkpt>
      <trkpt lat="36.9412400" lon="-2.4152120">
        <ele>222.2</ele>
        <time>2019-10-18T19:05:42Z</time>
      </trkpt>
      <trkpt lat="36.9412410" lon="-2.4152110">
        <ele>222.2</ele>
        <time>2019-10-18T19:05:43Z</time>
      </trkpt>
      <trkpt lat="36.9412420" lon="-2.4152110">
        <ele>222.2</ele>
        <time>2019-10-18T19:05:44Z</time>
      </trkpt>
      <trkpt lat="36.9412430" lon="-2.4152100">
        <ele>222.2</ele>
        <time>2019-10-18T19:05:45Z</time>
      </trkpt>
      <trkpt lat="36.9412430" lon="-2.4152080">
        <ele>222.2</ele>
        <time>2019-10-18T19:05:46Z</time>
      </trkpt>
      <trkpt lat="36.9412430" lon="-2.4152060">
        <ele>222.2</ele>
        <time>2019-10-18T19:05:47Z</time>
      </trkpt>
      <trkpt lat="36.9412420" lon="-2.4152040">
        <ele>222.2</ele>
        <time>2019-10-18T19:05:48Z</time>
      </trkpt>
      <trkpt lat="36.9412410" lon="-2.4152000">
        <ele>222.2</ele>
        <time>2019-10-18T19:05:49Z</time>
      </trkpt>
      <trkpt lat="36.9412390" lon="-2.4151950">
        <ele>222.2</ele>
        <time>2019-10-18T19:05:50Z</time>
      </trkpt>
      <trkpt lat="36.9412370" lon="-2.4151890">
        <ele>222.3</ele>
        <time>2019-10-18T19:05:51Z</time>
      </trkpt>
      <trkpt lat="36.9412360" lon="-2.4151840">
        <ele>222.3</ele>
        <time>2019-10-18T19:05:52Z</time>
      </trkpt>
      <trkpt lat="36.9412340" lon="-2.4151780">
        <ele>222.3</ele>
        <time>2019-10-18T19:05:53Z</time>
      </trkpt>
      <trkpt lat="36.9412340" lon="-2.4151720">
        <ele>222.3</ele>
        <time>2019-10-18T19:05:54Z</time>
      </trkpt>
      <trkpt lat="36.9412340" lon="-2.4151660">
        <ele>222.3</ele>
        <time>2019-10-18T19:05:55Z</time>
      </trkpt>
      <trkpt lat="36.9412350" lon="-2.4151600">
        <ele>222.3</ele>
        <time>2019-10-18T19:05:56Z</time>
      </trkpt>
      <trkpt lat="36.9412360" lon="-2.4151520">
        <ele>222.3</ele>
        <time>2019-10-18T19:05:57Z</time>
      </trkpt>
      <trkpt lat="36.9412370" lon="-2.4151430">
        <ele>222.4</ele>
        <time>2019-10-18T19:05:58Z</time>
      </trkpt>
      <trkpt lat="36.9412380" lon="-2.4151310">
        <ele>222.4</ele>
        <time>2019-10-18T19:05:59Z</time>
      </trkpt>
      <trkpt lat="36.9412390" lon="-2.4151190">
        <ele>222.4</ele>
        <time>2019-10-18T19:06:00Z</time>
      </trkpt>
      <trkpt lat="36.9412410" lon="-2.4151060">
        <ele>222.4</ele>
        <time>2019-10-18T19:06:01Z</time>
      </trkpt>
      <trkpt lat="36.9412430" lon="-2.4150960">
        <ele>222.5</ele>
        <time>2019-10-18T19:06:02Z</time>
      </trkpt>
      <trkpt lat="36.9412450" lon="-2.4150870">
        <ele>222.5</ele>
        <time>2019-10-18T19:06:03Z</time>
      </trkpt>
      <trkpt lat="36.9412470" lon="-2.4150780">
        <ele>222.5</ele>
        <time>2019-10-18T19:06:04Z</time>
      </trkpt>
      <trkpt lat="36.9412490" lon="-2.4150690">
        <ele>222.5</ele>
        <time>2019-10-18T19:06:05Z</time>
      </trkpt>
      <trkpt lat="36.9412500" lon="-2.4150590">
        <ele>222.5</ele>
        <time>2019-10-18T19:06:06Z</time>
      </trkpt>
      <trkpt lat="36.9412480" lon="-2.4150480">
        <ele>222.6</ele>
        <time>2019-10-18T19:06:07Z</time>
      </trkpt>
      <trkpt lat="36.9412460" lon="-2.4150360">
        <ele>222.6</ele>
        <time>2019-10-18T19:06:08Z</time>
      </trkpt>
      <trkpt lat="36.9412440" lon="-2.4150220">
        <ele>222.6</ele>
        <time>2019-10-18T19:06:09Z</time>
      </trkpt>
      <trkpt lat="36.9412430" lon="-2.4150070">
        <ele>222.7</ele>
        <time>2019-10-18T19:06:10Z</time>
      </trkpt>
      <trkpt lat="36.9412440" lon="-2.4149920">
        <ele>222.7</ele>
        <time>2019-10-18T19:06:11Z</time>
      </trkpt>
      <trkpt lat="36.9412440" lon="-2.4149800">
        <ele>222.7</ele>
        <time>2019-10-18T19:06:12Z</time>
      </trkpt>
      <trkpt lat="36.9412450" lon="-2.4149710">
        <ele>222.7</ele>
        <time>2019-10-18T19:06:13Z</time>
      </trkpt>
      <trkpt lat="36.9412450" lon="-2.4149650">
        <ele>222.8</ele>
        <time>2019-10-18T19:06:14Z</time>
      </trkpt>
      <trkpt lat="36.9412450" lon="-2.4149600">
        <ele>222.8</ele>
        <time>2019-10-18T19:06:15Z</time>
      </trkpt>
      <trkpt lat="36.9412460" lon="-2.4149550">
        <ele>222.8</ele>
        <time>2019-10-18T19:06:16Z</time>
      </trkpt>
      <trkpt lat="36.9412460" lon="-2.4149490">
        <ele>222.8</ele>
        <time>2019-10-18T19:06:17Z</time>
      </trkpt>
      <trkpt lat="36.9412460" lon="-2.4149420">
        <ele>222.8</ele>
        <time>2019-10-18T19:06:18Z</time>
      </trkpt>
      <trkpt lat="36.9412460" lon="-2.4149350">
        <ele>222.8</ele>
        <time>2019-10-18T19:06:19Z</time>
      </trkpt>
      <trkpt lat="36.9412450" lon="-2.4149260">
        <ele>222.8</ele>
        <time>2019-10-18T19:06:20Z</time>
      </trkpt>
      <trkpt lat="36.9412460" lon="-2.4149140">
        <ele>222.9</ele>
        <time>2019-10-18T19:06:21Z</time>
      </trkpt>
      <trkpt lat="36.9412480" lon="-2.4148990">
        <ele>222.9</ele>
        <time>2019-10-18T19:06:22Z</time>
      </trkpt>
      <trkpt lat="36.9412500" lon="-2.4148830">
        <ele>222.9</ele>
        <time>2019-10-18T19:06:23Z</time>
      </trkpt>
      <trkpt lat="36.9412530" lon="-2.4148660">
        <ele>222.9</ele>
        <time>2019-10-18T19:06:24Z</time>
      </trkpt>
      <trkpt lat="36.9412550" lon="-2.4148490">
        <ele>223.0</ele>
        <time>2019-10-18T19:06:25Z</time>
      </trkpt>
      <trkpt lat="36.9412580" lon="-2.4148310">
        <ele>223.0</ele>
        <time>2019-10-18T19:06:26Z</time>
      </trkpt>
      <trkpt lat="36.9412600" lon="-2.4148140">
        <ele>223.0</ele>
        <time>2019-10-18T19:06:27Z</time>
      </trkpt>
      <trkpt lat="36.9412600" lon="-2.4147970">
        <ele>223.1</ele>
        <time>2019-10-18T19:06:28Z</time>
      </trkpt>
      <trkpt lat="36.9412590" lon="-2.4147840">
        <ele>223.1</ele>
        <time>2019-10-18T19:06:29Z</time>
      </trkpt>
      <trkpt lat="36.9412570" lon="-2.4147740">
        <ele>223.1</ele>
        <time>2019-10-18T19:06:30Z</time>
      </trkpt>
      <trkpt lat="36.9412570" lon="-2.4147680">
        <ele>223.1</ele>
        <time>2019-10-18T19:06:31Z</time>
      </trkpt>
      <trkpt lat="36.9412570" lon="-2.4147630">
        <ele>223.1</ele>
        <time>2019-10-18T19:06:32Z</time>
      </trkpt>
      <trkpt lat="36.9412550" lon="-2.4147570">
        <ele>223.2</ele>
        <time>2019-10-18T19:06:33Z</time>
      </trkpt>
      <trkpt lat="36.9412550" lon="-2.4147510">
        <ele>223.2</ele>
        <time>2019-10-18T19:06:34Z</time>
      </trkpt>
      <trkpt lat="36.9412550" lon="-2.4147430">
        <ele>223.1</ele>
        <time>2019-10-18T19:06:35Z</time>
      </trkpt>
      <trkpt lat="36.9412540" lon="-2.4147330">
        <ele>223.1</ele>
        <time>2019-10-18T19:06:36Z</time>
      </trkpt>
      <trkpt lat="36.9412530" lon="-2.4147210">
        <ele>223.1</ele>
        <time>2019-10-18T19:06:37Z</time>
      </trkpt>
      <trkpt lat="36.9412490" lon="-2.4147060">
        <ele>223.1</ele>
        <time>2019-10-18T19:06:38Z</time>
      </trkpt>
      <trkpt lat="36.9412430" lon="-2.4146890">
        <ele>223.1</ele>
        <time>2019-10-18T19:06:39Z</time>
      </trkpt>
      <trkpt lat="36.9412370" lon="-2.4146690">
        <ele>223.1</ele>
        <time>2019-10-18T19:06:40Z</time>
      </trkpt>
      <trkpt lat="36.9412310" lon="-2.4146450">
        <ele>223.0</ele>
        <time>2019-10-18T19:06:41Z</time>
      </trkpt>
      <trkpt lat="36.9412280" lon="-2.4146190">
        <ele>223.0</ele>
        <time>2019-10-18T19:06:42Z</time>
      </trkpt>
      <trkpt lat="36.9412250" lon="-2.4145900">
        <ele>223.0</ele>
        <time>2019-10-18T19:06:43Z</time>
      </trkpt>
      <trkpt lat="36.9412220" lon="-2.4145620">
        <ele>222.9</ele>
        <time>2019-10-18T19:06:44Z</time>
      </trkpt>
      <trkpt lat="36.9412170" lon="-2.4145330">
        <ele>222.9</ele>
        <time>2019-10-18T19:06:45Z</time>
      </trkpt>
      <trkpt lat="36.9412100" lon="-2.4145050">
        <ele>222.9</ele>
        <time>2019-10-18T19:06:46Z</time>
      </trkpt>
      <trkpt lat="36.9412040" lon="-2.4144770">
        <ele>222.8</ele>
        <time>2019-10-18T19:06:47Z</time>
      </trkpt>
      <trkpt lat="36.9411970" lon="-2.4144480">
        <ele>222.8</ele>
        <time>2019-10-18T19:06:48Z</time>
      </trkpt>
      <trkpt lat="36.9411920" lon="-2.4144180">
        <ele>222.8</ele>
        <time>2019-10-18T19:06:49Z</time>
      </trkpt>
      <trkpt lat="36.9411890" lon="-2.4143870">
        <ele>222.7</ele>
        <time>2019-10-18T19:06:50Z</time>
      </trkpt>
      <trkpt lat="36.9411890" lon="-2.4143540">
        <ele>222.7</ele>
        <time>2019-10-18T19:06:51Z</time>
      </trkpt>
      <trkpt lat="36.9411920" lon="-2.4143200">
        <ele>222.7</ele>
        <time>2019-10-18T19:06:52Z</time>
      </trkpt>
      <trkpt lat="36.9411980" lon="-2.4142850">
        <ele>222.6</ele>
        <time>2019-10-18T19:06:53Z</time>
      </trkpt>
      <trkpt lat="36.9412040" lon="-2.4142500">
        <ele>222.6</ele>
        <time>2019-10-18T19:06:54Z</time>
      </trkpt>
      <trkpt lat="36.9412110" lon="-2.4142160">
        <ele>222.6</ele>
        <time>2019-10-18T19:06:55Z</time>
      </trkpt>
      <trkpt lat="36.9412170" lon="-2.4141840">
        <ele>222.7</ele>
        <time>2019-10-18T19:06:56Z</time>
      </trkpt>
      <trkpt lat="36.9412230" lon="-2.4141540">
        <ele>222.7</ele>
        <time>2019-10-18T19:06:57Z</time>
      </trkpt>
      <trkpt lat="36.9412270" lon="-2.4141250">
        <ele>222.7</ele>
        <time>2019-10-18T19:06:58Z</time>
      </trkpt>
      <trkpt lat="36.9412320" lon="-2.4140970">
        <ele>222.7</ele>
        <time>2019-10-18T19:06:59Z</time>
      </trkpt>
      <trkpt lat="36.9412360" lon="-2.4140690">
        <ele>222.7</ele>
        <time>2019-10-18T19:07:00Z</time>
      </trkpt>
      <trkpt lat="36.9412430" lon="-2.4140410">
        <ele>222.7</ele>
        <time>2019-10-18T19:07:01Z</time>
      </trkpt>
      <trkpt lat="36.9412500" lon="-2.4140130">
        <ele>222.9</ele>
        <time>2019-10-18T19:07:02Z</time>
      </trkpt>
      <trkpt lat="36.9412580" lon="-2.4139870">
        <ele>223.1</ele>
        <time>2019-10-18T19:07:03Z</time>
      </trkpt>
      <trkpt lat="36.9412690" lon="-2.4139650">
        <ele>223.1</ele>
        <time>2019-10-18T19:07:04Z</time>
      </trkpt>
      <trkpt lat="36.9412830" lon="-2.4139500">
        <ele>223.2</ele>
        <time>2019-10-18T19:07:05Z</time>
      </trkpt>
      <trkpt lat="36.9413000" lon="-2.4139360">
        <ele>223.3</ele>
        <time>2019-10-18T19:07:06Z</time>
      </trkpt>
      <trkpt lat="36.9413150" lon="-2.4139210">
        <ele>223.3</ele>
        <time>2019-10-18T19:07:07Z</time>
      </trkpt>
      <trkpt lat="36.9413230" lon="-2.4139050">
        <ele>223.5</ele>
        <time>2019-10-18T19:07:08Z</time>
      </trkpt>
      <trkpt lat="36.9413270" lon="-2.4138960">
        <ele>223.6</ele>
        <time>2019-10-18T19:07:09Z</time>
      </trkpt>
      <trkpt lat="36.9413300" lon="-2.4138910">
        <ele>223.6</ele>
        <time>2019-10-18T19:07:10Z</time>
      </trkpt>
      <trkpt lat="36.9413360" lon="-2.4138870">
        <ele>223.6</ele>
        <time>2019-10-18T19:07:11Z</time>
      </trkpt>
      <trkpt lat="36.9413380" lon="-2.4138780">
        <ele>223.6</ele>
        <time>2019-10-18T19:07:12Z</time>
      </trkpt>
      <trkpt lat="36.9413360" lon="-2.4138680">
        <ele>223.6</ele>
        <time>2019-10-18T19:07:13Z</time>
      </trkpt>
      <trkpt lat="36.9413310" lon="-2.4138580">
        <ele>223.8</ele>
        <time>2019-10-18T19:07:14Z</time>
      </trkpt>
      <trkpt lat="36.9413270" lon="-2.4138520">
        <ele>223.8</ele>
        <time>2019-10-18T19:07:15Z</time>
      </trkpt>
      <trkpt lat="36.9413230" lon="-2.4138460">
        <ele>223.8</ele>
        <time>2019-10-18T19:07:16Z</time>
      </trkpt>
      <trkpt lat="36.9413190" lon="-2.4138410">
        <ele>223.8</ele>
        <time>2019-10-18T19:07:17Z</time>
      </trkpt>
      <trkpt lat="36.9413150" lon="-2.4138360">
        <ele>223.7</ele>
        <time>2019-10-18T19:07:18Z</time>
      </trkpt>
      <trkpt lat="36.9413100" lon="-2.4138310">
        <ele>223.7</ele>
        <time>2019-10-18T19:07:19Z</time>
      </trkpt>
      <trkpt lat="36.9413060" lon="-2.4138250">
        <ele>223.7</ele>
        <time>2019-10-18T19:07:20Z</time>
      </trkpt>
      <trkpt lat="36.9413020" lon="-2.4138170">
        <ele>223.7</ele>
        <time>2019-10-18T19:07:21Z</time>
      </trkpt>
      <trkpt lat="36.9413000" lon="-2.4138110">
        <ele>223.9</ele>
        <time>2019-10-18T19:07:22Z</time>
      </trkpt>
      <trkpt lat="36.9412990" lon="-2.4138070">
        <ele>223.9</ele>
        <time>2019-10-18T19:07:23Z</time>
      </trkpt>
      <trkpt lat="36.9413000" lon="-2.4138060">
        <ele>223.9</ele>
        <time>2019-10-18T19:07:24Z</time>
      </trkpt>
      <trkpt lat="36.9413010" lon="-2.4138060">
        <ele>223.9</ele>
        <time>2019-10-18T19:07:25Z</time>
      </trkpt>
      <trkpt lat="36.9413000" lon="-2.4138050">
        <ele>223.9</ele>
        <time>2019-10-18T19:07:26Z</time>
      </trkpt>
      <trkpt lat="36.9412990" lon="-2.4138030">
        <ele>223.9</ele>
        <time>2019-10-18T19:07:27Z</time>
      </trkpt>
      <trkpt lat="36.9412990" lon="-2.4138000">
        <ele>223.9</ele>
        <time>2019-10-18T19:07:28Z</time>
      </trkpt>
      <trkpt lat="36.9412980" lon="-2.4137980">
        <ele>223.9</ele>
        <time>2019-10-18T19:07:29Z</time>
      </trkpt>
      <trkpt lat="36.9412980" lon="-2.4137950">
        <ele>223.9</ele>
        <time>2019-10-18T19:07:30Z</time>
      </trkpt>
      <trkpt lat="36.9412970" lon="-2.4137910">
        <ele>223.9</ele>
        <time>2019-10-18T19:07:31Z</time>
      </trkpt>
      <trkpt lat="36.9412950" lon="-2.4137870">
        <ele>223.9</ele>
        <time>2019-10-18T19:07:32Z</time>
      </trkpt>
      <trkpt lat="36.9412930" lon="-2.4137830">
        <ele>223.9</ele>
        <time>2019-10-18T19:07:33Z</time>
      </trkpt>
      <trkpt lat="36.9412900" lon="-2.4137810">
        <ele>223.9</ele>
        <time>2019-10-18T19:07:34Z</time>
      </trkpt>
      <trkpt lat="36.9412870" lon="-2.4137800">
        <ele>223.9</ele>
        <time>2019-10-18T19:07:35Z</time>
      </trkpt>
      <trkpt lat="36.9412840" lon="-2.4137790">
        <ele>223.9</ele>
        <time>2019-10-18T19:07:36Z</time>
      </trkpt>
      <trkpt lat="36.9412800" lon="-2.4137780">
        <ele>223.8</ele>
        <time>2019-10-18T19:07:37Z</time>
      </trkpt>
      <trkpt lat="36.9412760" lon="-2.4137760">
        <ele>223.8</ele>
        <time>2019-10-18T19:07:38Z</time>
      </trkpt>
      <trkpt lat="36.9412700" lon="-2.4137720">
        <ele>223.9</ele>
        <time>2019-10-18T19:07:39Z</time>
      </trkpt>
      <trkpt lat="36.9412640" lon="-2.4137660">
        <ele>223.9</ele>
        <time>2019-10-18T19:07:40Z</time>
      </trkpt>
      <trkpt lat="36.9412590" lon="-2.4137600">
        <ele>223.9</ele>
        <time>2019-10-18T19:07:41Z</time>
      </trkpt>
      <trkpt lat="36.9412540" lon="-2.4137500">
        <ele>223.9</ele>
        <time>2019-10-18T19:07:42Z</time>
      </trkpt>
      <trkpt lat="36.9412500" lon="-2.4137410">
        <ele>223.9</ele>
        <time>2019-10-18T19:07:43Z</time>
      </trkpt>
      <trkpt lat="36.9412460" lon="-2.4137310">
        <ele>223.8</ele>
        <time>2019-10-18T19:07:44Z</time>
      </trkpt>
      <trkpt lat="36.9412420" lon="-2.4137210">
        <ele>224.1</ele>
        <time>2019-10-18T19:07:45Z</time>
      </trkpt>
      <trkpt lat="36.9412380" lon="-2.4137120">
        <ele>224.1</ele>
        <time>2019-10-18T19:07:46Z</time>
      </trkpt>
      <trkpt lat="36.9412350" lon="-2.4137030">
        <ele>224.1</ele>
        <time>2019-10-18T19:07:47Z</time>
      </trkpt>
      <trkpt lat="36.9412330" lon="-2.4136950">
        <ele>224.1</ele>
        <time>2019-10-18T19:07:48Z</time>
      </trkpt>
      <trkpt lat="36.9412320" lon="-2.4136860">
        <ele>224.3</ele>
        <time>2019-10-18T19:07:49Z</time>
      </trkpt>
      <trkpt lat="36.9412310" lon="-2.4136770">
        <ele>224.3</ele>
        <time>2019-10-18T19:07:50Z</time>
      </trkpt>
      <trkpt lat="36.9412320" lon="-2.4136680">
        <ele>224.3</ele>
        <time>2019-10-18T19:07:51Z</time>
      </trkpt>
      <trkpt lat="36.9412330" lon="-2.4136620">
        <ele>224.3</ele>
        <time>2019-10-18T19:07:52Z</time>
      </trkpt>
      <trkpt lat="36.9412350" lon="-2.4136590">
        <ele>224.3</ele>
        <time>2019-10-18T19:07:53Z</time>
      </trkpt>
      <trkpt lat="36.9412350" lon="-2.4136580">
        <ele>224.3</ele>
        <time>2019-10-18T19:07:54Z</time>
      </trkpt>
      <trkpt lat="36.9412340" lon="-2.4136560">
        <ele>224.3</ele>
        <time>2019-10-18T19:07:55Z</time>
      </trkpt>
      <trkpt lat="36.9412330" lon="-2.4136540">
        <ele>224.3</ele>
        <time>2019-10-18T19:07:56Z</time>
      </trkpt>
      <trkpt lat="36.9412320" lon="-2.4136530">
        <ele>224.3</ele>
        <time>2019-10-18T19:07:57Z</time>
      </trkpt>
      <trkpt lat="36.9412320" lon="-2.4136520">
        <ele>224.3</ele>
        <time>2019-10-18T19:07:58Z</time>
      </trkpt>
      <trkpt lat="36.9412320" lon="-2.4136520">
        <ele>224.3</ele>
        <time>2019-10-18T19:07:59Z</time>
      </trkpt>
      <trkpt lat="36.9412320" lon="-2.4136520">
        <ele>224.3</ele>
        <time>2019-10-18T19:08:00Z</time>
      </trkpt>
      <trkpt lat="36.9412320" lon="-2.4136530">
        <ele>224.3</ele>
        <time>2019-10-18T19:08:01Z</time>
      </trkpt>
      <trkpt lat="36.9412320" lon="-2.4136530">
        <ele>224.3</ele>
        <time>2019-10-18T19:08:02Z</time>
      </trkpt>
      <trkpt lat="36.9412320" lon="-2.4136540">
        <ele>224.3</ele>
        <time>2019-10-18T19:08:03Z</time>
      </trkpt>
      <trkpt lat="36.9412330" lon="-2.4136540">
        <ele>224.3</ele>
        <time>2019-10-18T19:08:04Z</time>
      </trkpt>
      <trkpt lat="36.9412330" lon="-2.4136540">
        <ele>224.3</ele>
        <time>2019-10-18T19:08:05Z</time>
      </trkpt>
      <trkpt lat="36.9412330" lon="-2.4136540">
        <ele>224.3</ele>
        <time>2019-10-18T19:08:06Z</time>
      </trkpt>
      <trkpt lat="36.9412340" lon="-2.4136540">
        <ele>224.3</ele>
        <time>2019-10-18T19:08:07Z</time>
      </trkpt>
      <trkpt lat="36.9412350" lon="-2.4136540">
        <ele>224.3</ele>
        <time>2019-10-18T19:08:08Z</time>
      </trkpt>
      <trkpt lat="36.9412360" lon="-2.4136540">
        <ele>224.3</ele>
        <time>2019-10-18T19:08:09Z</time>
      </trkpt>
      <trkpt lat="36.9412360" lon="-2.4136550">
        <ele>224.3</ele>
        <time>2019-10-18T19:08:10Z</time>
      </trkpt>
      <trkpt lat="36.9412370" lon="-2.4136550">
        <ele>224.3</ele>
        <time>2019-10-18T19:08:11Z</time>
      </trkpt>
      <trkpt lat="36.9412390" lon="-2.4136550">
        <ele>224.3</ele>
        <time>2019-10-18T19:08:12Z</time>
      </trkpt>
      <trkpt lat="36.9412400" lon="-2.4136520">
        <ele>224.3</ele>
        <time>2019-10-18T19:08:13Z</time>
      </trkpt>
      <trkpt lat="36.9412420" lon="-2.4136450">
        <ele>224.3</ele>
        <time>2019-10-18T19:08:14Z</time>
      </trkpt>
      <trkpt lat="36.9412440" lon="-2.4136340">
        <ele>224.5</ele>
        <time>2019-10-18T19:08:15Z</time>
      </trkpt>
      <trkpt lat="36.9412460" lon="-2.4136210">
        <ele>224.5</ele>
        <time>2019-10-18T19:08:16Z</time>
      </trkpt>
      <trkpt lat="36.9412480" lon="-2.4136040">
        <ele>224.5</ele>
        <time>2019-10-18T19:08:17Z</time>
      </trkpt>
      <trkpt lat="36.9412510" lon="-2.4135880">
        <ele>224.8</ele>
        <time>2019-10-18T19:08:18Z</time>
      </trkpt>
      <trkpt lat="36.9412540" lon="-2.4135720">
        <ele>224.8</ele>
        <time>2019-10-18T19:08:19Z</time>
      </trkpt>
      <trkpt lat="36.9412560" lon="-2.4135560">
        <ele>225.1</ele>
        <time>2019-10-18T19:08:20Z</time>
      </trkpt>
      <trkpt lat="36.9412580" lon="-2.4135410">
        <ele>225.1</ele>
        <time>2019-10-18T19:08:21Z</time>
      </trkpt>
      <trkpt lat="36.9412580" lon="-2.4135260">
        <ele>225.1</ele>
        <time>2019-10-18T19:08:22Z</time>
      </trkpt>
      <trkpt lat="36.9412590" lon="-2.4135120">
        <ele>225.4</ele>
        <time>2019-10-18T19:08:23Z</time>
      </trkpt>
      <trkpt lat="36.9412600" lon="-2.4135020">
        <ele>225.4</ele>
        <time>2019-10-18T19:08:24Z</time>
      </trkpt>
      <trkpt lat="36.9412610" lon="-2.4134950">
        <ele>225.4</ele>
        <time>2019-10-18T19:08:25Z</time>
      </trkpt>
      <trkpt lat="36.9412630" lon="-2.4134890">
        <ele>225.4</ele>
        <time>2019-10-18T19:08:26Z</time>
      </trkpt>
      <trkpt lat="36.9412650" lon="-2.4134820">
        <ele>225.4</ele>
        <time>2019-10-18T19:08:27Z</time>
      </trkpt>
      <trkpt lat="36.9412670" lon="-2.4134750">
        <ele>225.4</ele>
        <time>2019-10-18T19:08:28Z</time>
      </trkpt>
      <trkpt lat="36.9412690" lon="-2.4134660">
        <ele>225.8</ele>
        <time>2019-10-18T19:08:29Z</time>
      </trkpt>
      <trkpt lat="36.9412680" lon="-2.4134560">
        <ele>225.8</ele>
        <time>2019-10-18T19:08:30Z</time>
      </trkpt>
      <trkpt lat="36.9412680" lon="-2.4134430">
        <ele>225.8</ele>
        <time>2019-10-18T19:08:31Z</time>
      </trkpt>
      <trkpt lat="36.9412660" lon="-2.4134300">
        <ele>226.1</ele>
        <time>2019-10-18T19:08:32Z</time>
      </trkpt>
      <trkpt lat="36.9412660" lon="-2.4134180">
        <ele>226.1</ele>
        <time>2019-10-18T19:08:33Z</time>
      </trkpt>
      <trkpt lat="36.9412660" lon="-2.4134050">
        <ele>226.1</ele>
        <time>2019-10-18T19:08:34Z</time>
      </trkpt>
      <trkpt lat="36.9412660" lon="-2.4133930">
        <ele>226.1</ele>
        <time>2019-10-18T19:08:35Z</time>
      </trkpt>
      <trkpt lat="36.9412650" lon="-2.4133810">
        <ele>226.6</ele>
        <time>2019-10-18T19:08:36Z</time>
      </trkpt>
      <trkpt lat="36.9412650" lon="-2.4133690">
        <ele>226.6</ele>
        <time>2019-10-18T19:08:37Z</time>
      </trkpt>
      <trkpt lat="36.9412660" lon="-2.4133600">
        <ele>226.6</ele>
        <time>2019-10-18T19:08:38Z</time>
      </trkpt>
      <trkpt lat="36.9412700" lon="-2.4133500">
        <ele>226.6</ele>
        <time>2019-10-18T19:08:39Z</time>
      </trkpt>
      <trkpt lat="36.9412730" lon="-2.4133440">
        <ele>227.0</ele>
        <time>2019-10-18T19:08:40Z</time>
      </trkpt>
      <trkpt lat="36.9412770" lon="-2.4133390">
        <ele>227.0</ele>
        <time>2019-10-18T19:08:41Z</time>
      </trkpt>
      <trkpt lat="36.9412780" lon="-2.4133360">
        <ele>227.0</ele>
        <time>2019-10-18T19:08:42Z</time>
      </trkpt>
      <trkpt lat="36.9412800" lon="-2.4133330">
        <ele>227.0</ele>
        <time>2019-10-18T19:08:43Z</time>
      </trkpt>
      <trkpt lat="36.9412810" lon="-2.4133290">
        <ele>227.0</ele>
        <time>2019-10-18T19:08:44Z</time>
      </trkpt>
      <trkpt lat="36.9412860" lon="-2.4133230">
        <ele>226.8</ele>
        <time>2019-10-18T19:08:45Z</time>
      </trkpt>
      <trkpt lat="36.9412930" lon="-2.4133160">
        <ele>226.8</ele>
        <time>2019-10-18T19:08:46Z</time>
      </trkpt>
      <trkpt lat="36.9412990" lon="-2.4133070">
        <ele>226.8</ele>
        <time>2019-10-18T19:08:47Z</time>
      </trkpt>
      <trkpt lat="36.9413010" lon="-2.4132950">
        <ele>227.2</ele>
        <time>2019-10-18T19:08:48Z</time>
      </trkpt>
      <trkpt lat="36.9413020" lon="-2.4132820">
        <ele>227.2</ele>
        <time>2019-10-18T19:08:49Z</time>
      </trkpt>
      <trkpt lat="36.9413010" lon="-2.4132680">
        <ele>227.2</ele>
        <time>2019-10-18T19:08:50Z</time>
      </trkpt>
      <trkpt lat="36.9413020" lon="-2.4132550">
        <ele>227.6</ele>
        <time>2019-10-18T19:08:51Z</time>
      </trkpt>
      <trkpt lat="36.9413040" lon="-2.4132430">
        <ele>227.6</ele>
        <time>2019-10-18T19:08:52Z</time>
      </trkpt>
      <trkpt lat="36.9413070" lon="-2.4132320">
        <ele>227.6</ele>
        <time>2019-10-18T19:08:53Z</time>
      </trkpt>
      <trkpt lat="36.9413110" lon="-2.4132210">
        <ele>227.6</ele>
        <time>2019-10-18T19:08:54Z</time>
      </trkpt>
      <trkpt lat="36.9413150" lon="-2.4132100">
        <ele>228.0</ele>
        <time>2019-10-18T19:08:55Z</time>
      </trkpt>
      <trkpt lat="36.9413190" lon="-2.4132000">
        <ele>227.8</ele>
        <time>2019-10-18T19:08:56Z</time>
      </trkpt>
      <trkpt lat="36.9413240" lon="-2.4131890">
        <ele>227.8</ele>
        <time>2019-10-18T19:08:57Z</time>
      </trkpt>
      <trkpt lat="36.9413290" lon="-2.4131790">
        <ele>227.8</ele>
        <time>2019-10-18T19:08:58Z</time>
      </trkpt>
      <trkpt lat="36.9413350" lon="-2.4131660">
        <ele>228.2</ele>
        <time>2019-10-18T19:08:59Z</time>
      </trkpt>
      <trkpt lat="36.9413410" lon="-2.4131540">
        <ele>228.2</ele>
        <time>2019-10-18T19:09:00Z</time>
      </trkpt>
      <trkpt lat="36.9413460" lon="-2.4131400">
        <ele>228.2</ele>
        <time>2019-10-18T19:09:01Z</time>
      </trkpt>
      <trkpt lat="36.9413510" lon="-2.4131270">
        <ele>228.6</ele>
        <time>2019-10-18T19:09:02Z</time>
      </trkpt>
      <trkpt lat="36.9413550" lon="-2.4131140">
        <ele>228.5</ele>
        <time>2019-10-18T19:09:03Z</time>
      </trkpt>
      <trkpt lat="36.9413600" lon="-2.4131020">
        <ele>228.5</ele>
        <time>2019-10-18T19:09:04Z</time>
      </trkpt>
      <trkpt lat="36.9413640" lon="-2.4130890">
        <ele>228.5</ele>
        <time>2019-10-18T19:09:05Z</time>
      </trkpt>
      <trkpt lat="36.9413690" lon="-2.4130760">
        <ele>228.9</ele>
        <time>2019-10-18T19:09:06Z</time>
      </trkpt>
      <trkpt lat="36.9413730" lon="-2.4130640">
        <ele>228.9</ele>
        <time>2019-10-18T19:09:07Z</time>
      </trkpt>
      <trkpt lat="36.9413770" lon="-2.4130520">
        <ele>228.9</ele>
        <time>2019-10-18T19:09:08Z</time>
      </trkpt>
      <trkpt lat="36.9413810" lon="-2.4130400">
        <ele>229.4</ele>
        <time>2019-10-18T19:09:09Z</time>
      </trkpt>
      <trkpt lat="36.9413850" lon="-2.4130280">
        <ele>229.4</ele>
        <time>2019-10-18T19:09:10Z</time>
      </trkpt>
      <trkpt lat="36.9413890" lon="-2.4130160">
        <ele>229.2</ele>
        <time>2019-10-18T19:09:11Z</time>
      </trkpt>
      <trkpt lat="36.9413930" lon="-2.4130050">
        <ele>229.2</ele>
        <time>2019-10-18T19:09:12Z</time>
      </trkpt>
      <trkpt lat="36.9413960" lon="-2.4129950">
        <ele>229.7</ele>
        <time>2019-10-18T19:09:13Z</time>
      </trkpt>
      <trkpt lat="36.9414000" lon="-2.4129870">
        <ele>229.7</ele>
        <time>2019-10-18T19:09:14Z</time>
      </trkpt>
      <trkpt lat="36.9414030" lon="-2.4129780">
        <ele>229.7</ele>
        <time>2019-10-18T19:09:15Z</time>
      </trkpt>
      <trkpt lat="36.9414070" lon="-2.4129700">
        <ele>229.7</ele>
        <time>2019-10-18T19:09:16Z</time>
      </trkpt>
      <trkpt lat="36.9414110" lon="-2.4129590">
        <ele>229.7</ele>
        <time>2019-10-18T19:09:17Z</time>
      </trkpt>
      <trkpt lat="36.9414150" lon="-2.4129460">
        <ele>230.2</ele>
        <time>2019-10-18T19:09:18Z</time>
      </trkpt>
      <trkpt lat="36.9414190" lon="-2.4129320">
        <ele>230.2</ele>
        <time>2019-10-18T19:09:19Z</time>
      </trkpt>
      <trkpt lat="36.9414220" lon="-2.4129170">
        <ele>230.0</ele>
        <time>2019-10-18T19:09:20Z</time>
      </trkpt>
      <trkpt lat="36.9414260" lon="-2.4129030">
        <ele>230.5</ele>
        <time>2019-10-18T19:09:21Z</time>
      </trkpt>
      <trkpt lat="36.9414290" lon="-2.4128870">
        <ele>230.5</ele>
        <time>2019-10-18T19:09:22Z</time>
      </trkpt>
      <trkpt lat="36.9414320" lon="-2.4128710">
        <ele>230.9</ele>
        <time>2019-10-18T19:09:23Z</time>
      </trkpt>
      <trkpt lat="36.9414340" lon="-2.4128560">
        <ele>230.9</ele>
        <time>2019-10-18T19:09:24Z</time>
      </trkpt>
      <trkpt lat="36.9414370" lon="-2.4128420">
        <ele>230.9</ele>
        <time>2019-10-18T19:09:25Z</time>
      </trkpt>
      <trkpt lat="36.9414400" lon="-2.4128280">
        <ele>231.3</ele>
        <time>2019-10-18T19:09:26Z</time>
      </trkpt>
      <trkpt lat="36.9414430" lon="-2.4128150">
        <ele>231.3</ele>
        <time>2019-10-18T19:09:27Z</time>
      </trkpt>
      <trkpt lat="36.9414460" lon="-2.4128030">
        <ele>231.3</ele>
        <time>2019-10-18T19:09:28Z</time>
      </trkpt>
      <trkpt lat="36.9414490" lon="-2.4127900">
        <ele>231.3</ele>
        <time>2019-10-18T19:09:29Z</time>
      </trkpt>
      <trkpt lat="36.9414520" lon="-2.4127770">
        <ele>231.8</ele>
        <time>2019-10-18T19:09:30Z</time>
      </trkpt>
      <trkpt lat="36.9414540" lon="-2.4127630">
        <ele>231.8</ele>
        <time>2019-10-18T19:09:31Z</time>
      </trkpt>
      <trkpt lat="36.9414550" lon="-2.4127470">
        <ele>231.6</ele>
        <time>2019-10-18T19:09:32Z</time>
      </trkpt>
      <trkpt lat="36.9414570" lon="-2.4127320">
        <ele>232.0</ele>
        <time>2019-10-18T19:09:33Z</time>
      </trkpt>
      <trkpt lat="36.9414590" lon="-2.4127180">
        <ele>232.0</ele>
        <time>2019-10-18T19:09:34Z</time>
      </trkpt>
      <trkpt lat="36.9414630" lon="-2.4127060">
        <ele>232.0</ele>
        <time>2019-10-18T19:09:35Z</time>
      </trkpt>
      <trkpt lat="36.9414660" lon="-2.4126940">
        <ele>232.3</ele>
        <time>2019-10-18T19:09:36Z</time>
      </trkpt>
      <trkpt lat="36.9414700" lon="-2.4126840">
        <ele>232.3</ele>
        <time>2019-10-18T19:09:37Z</time>
      </trkpt>
      <trkpt lat="36.9414750" lon="-2.4126750">
        <ele>232.3</ele>
        <time>2019-10-18T19:09:38Z</time>
      </trkpt>
      <trkpt lat="36.9414810" lon="-2.4126660">
        <ele>232.3</ele>
        <time>2019-10-18T19:09:39Z</time>
      </trkpt>
      <trkpt lat="36.9414880" lon="-2.4126570">
        <ele>232.7</ele>
        <time>2019-10-18T19:09:40Z</time>
      </trkpt>
      <trkpt lat="36.9414950" lon="-2.4126480">
        <ele>232.5</ele>
        <time>2019-10-18T19:09:41Z</time>
      </trkpt>
      <trkpt lat="36.9415010" lon="-2.4126380">
        <ele>232.5</ele>
        <time>2019-10-18T19:09:42Z</time>
      </trkpt>
      <trkpt lat="36.9415080" lon="-2.4126270">
        <ele>232.5</ele>
        <time>2019-10-18T19:09:43Z</time>
      </trkpt>
      <trkpt lat="36.9415150" lon="-2.4126180">
        <ele>232.5</ele>
        <time>2019-10-18T19:09:44Z</time>
      </trkpt>
      <trkpt lat="36.9415220" lon="-2.4126090">
        <ele>232.8</ele>
        <time>2019-10-18T19:09:45Z</time>
      </trkpt>
      <trkpt lat="36.9415300" lon="-2.4126000">
        <ele>232.5</ele>
        <time>2019-10-18T19:09:46Z</time>
      </trkpt>
      <trkpt lat="36.9415380" lon="-2.4125900">
        <ele>232.5</ele>
        <time>2019-10-18T19:09:47Z</time>
      </trkpt>
      <trkpt lat="36.9415450" lon="-2.4125800">
        <ele>232.5</ele>
        <time>2019-10-18T19:09:48Z</time>
      </trkpt>
      <trkpt lat="36.9415510" lon="-2.4125690">
        <ele>232.9</ele>
        <time>2019-10-18T19:09:49Z</time>
      </trkpt>
      <trkpt lat="36.9415580" lon="-2.4125570">
        <ele>232.5</ele>
        <time>2019-10-18T19:09:50Z</time>
      </trkpt>
      <trkpt lat="36.9415640" lon="-2.4125460">
        <ele>232.5</ele>
        <time>2019-10-18T19:09:51Z</time>
      </trkpt>
      <trkpt lat="36.9415680" lon="-2.4125340">
        <ele>232.5</ele>
        <time>2019-10-18T19:09:52Z</time>
      </trkpt>
      <trkpt lat="36.9415690" lon="-2.4125220">
        <ele>232.8</ele>
        <time>2019-10-18T19:09:53Z</time>
      </trkpt>
      <trkpt lat="36.9415690" lon="-2.4125100">
        <ele>232.8</ele>
        <time>2019-10-18T19:09:54Z</time>
      </trkpt>
      <trkpt lat="36.9415690" lon="-2.4124990">
        <ele>232.8</ele>
        <time>2019-10-18T19:09:55Z</time>
      </trkpt>
      <trkpt lat="36.9415690" lon="-2.4124890">
        <ele>232.8</ele>
        <time>2019-10-18T19:09:56Z</time>
      </trkpt>
      <trkpt lat="36.9415680" lon="-2.4124790">
        <ele>233.1</ele>
        <time>2019-10-18T19:09:57Z</time>
      </trkpt>
      <trkpt lat="36.9415670" lon="-2.4124670">
        <ele>233.1</ele>
        <time>2019-10-18T19:09:58Z</time>
      </trkpt>
      <trkpt lat="36.9415660" lon="-2.4124550">
        <ele>233.1</ele>
        <time>2019-10-18T19:09:59Z</time>
      </trkpt>
      <trkpt lat="36.9415650" lon="-2.4124410">
        <ele>233.4</ele>
        <time>2019-10-18T19:10:00Z</time>
      </trkpt>
      <trkpt lat="36.9415640" lon="-2.4124280">
        <ele>233.4</ele>
        <time>2019-10-18T19:10:01Z</time>
      </trkpt>
      <trkpt lat="36.9415630" lon="-2.4124140">
        <ele>233.4</ele>
        <time>2019-10-18T19:10:02Z</time>
      </trkpt>
      <trkpt lat="36.9415620" lon="-2.4124000">
        <ele>233.7</ele>
        <time>2019-10-18T19:10:03Z</time>
      </trkpt>
      <trkpt lat="36.9415610" lon="-2.4123860">
        <ele>233.7</ele>
        <time>2019-10-18T19:10:04Z</time>
      </trkpt>
      <trkpt lat="36.9415580" lon="-2.4123710">
        <ele>233.7</ele>
        <time>2019-10-18T19:10:05Z</time>
      </trkpt>
      <trkpt lat="36.9415550" lon="-2.4123560">
        <ele>234.3</ele>
        <time>2019-10-18T19:10:06Z</time>
      </trkpt>
      <trkpt lat="36.9415510" lon="-2.4123420">
        <ele>234.3</ele>
        <time>2019-10-18T19:10:07Z</time>
      </trkpt>
      <trkpt lat="36.9415480" lon="-2.4123280">
        <ele>234.3</ele>
        <time>2019-10-18T19:10:08Z</time>
      </trkpt>
      <trkpt lat="36.9415450" lon="-2.4123150">
        <ele>234.3</ele>
        <time>2019-10-18T19:10:09Z</time>
      </trkpt>
      <trkpt lat="36.9415420" lon="-2.4123020">
        <ele>234.6</ele>
        <time>2019-10-18T19:10:10Z</time>
      </trkpt>
      <trkpt lat="36.9415400" lon="-2.4122880">
        <ele>234.6</ele>
        <time>2019-10-18T19:10:11Z</time>
      </trkpt>
      <trkpt lat="36.9415380" lon="-2.4122730">
        <ele>234.6</ele>
        <time>2019-10-18T19:10:12Z</time>
      </trkpt>
      <trkpt lat="36.9415350" lon="-2.4122580">
        <ele>234.9</ele>
        <time>2019-10-18T19:10:13Z</time>
      </trkpt>
      <trkpt lat="36.9415330" lon="-2.4122430">
        <ele>234.9</ele>
        <time>2019-10-18T19:10:14Z</time>
      </trkpt>
      <trkpt lat="36.9415300" lon="-2.4122280">
        <ele>235.2</ele>
        <time>2019-10-18T19:10:15Z</time>
      </trkpt>
      <trkpt lat="36.9415280" lon="-2.4122140">
        <ele>235.2</ele>
        <time>2019-10-18T19:10:16Z</time>
      </trkpt>
      <trkpt lat="36.9415270" lon="-2.4122000">
        <ele>235.2</ele>
        <time>2019-10-18T19:10:17Z</time>
      </trkpt>
      <trkpt lat="36.9415250" lon="-2.4121850">
        <ele>235.5</ele>
        <time>2019-10-18T19:10:18Z</time>
      </trkpt>
      <trkpt lat="36.9415240" lon="-2.4121700">
        <ele>235.5</ele>
        <time>2019-10-18T19:10:19Z</time>
      </trkpt>
      <trkpt lat="36.9415240" lon="-2.4121560">
        <ele>235.5</ele>
        <time>2019-10-18T19:10:20Z</time>
      </trkpt>
      <trkpt lat="36.9415250" lon="-2.4121430">
        <ele>235.5</ele>
        <time>2019-10-18T19:10:21Z</time>
      </trkpt>
      <trkpt lat="36.9415270" lon="-2.4121280">
        <ele>235.8</ele>
        <time>2019-10-18T19:10:22Z</time>
      </trkpt>
      <trkpt lat="36.9415280" lon="-2.4121130">
        <ele>235.8</ele>
        <time>2019-10-18T19:10:23Z</time>
      </trkpt>
      <trkpt lat="36.9415300" lon="-2.4120980">
        <ele>236.0</ele>
        <time>2019-10-18T19:10:24Z</time>
      </trkpt>
      <trkpt lat="36.9415310" lon="-2.4120830">
        <ele>236.0</ele>
        <time>2019-10-18T19:10:25Z</time>
      </trkpt>
      <trkpt lat="36.9415320" lon="-2.4120690">
        <ele>236.0</ele>
        <time>2019-10-18T19:10:26Z</time>
      </trkpt>
      <trkpt lat="36.9415320" lon="-2.4120550">
        <ele>236.2</ele>
        <time>2019-10-18T19:10:27Z</time>
      </trkpt>
      <trkpt lat="36.9415300" lon="-2.4120410">
        <ele>236.2</ele>
        <time>2019-10-18T19:10:28Z</time>
      </trkpt>
      <trkpt lat="36.9415280" lon="-2.4120260">
        <ele>236.2</ele>
        <time>2019-10-18T19:10:29Z</time>
      </trkpt>
      <trkpt lat="36.9415260" lon="-2.4120130">
        <ele>236.4</ele>
        <time>2019-10-18T19:10:30Z</time>
      </trkpt>
      <trkpt lat="36.9415240" lon="-2.4119990">
        <ele>236.4</ele>
        <time>2019-10-18T19:10:31Z</time>
      </trkpt>
      <trkpt lat="36.9415210" lon="-2.4119860">
        <ele>236.9</ele>
        <time>2019-10-18T19:10:32Z</time>
      </trkpt>
      <trkpt lat="36.9415190" lon="-2.4119710">
        <ele>237.1</ele>
        <time>2019-10-18T19:10:33Z</time>
      </trkpt>
      <trkpt lat="36.9415170" lon="-2.4119560">
        <ele>237.1</ele>
        <time>2019-10-18T19:10:34Z</time>
      </trkpt>
      <trkpt lat="36.9415160" lon="-2.4119420">
        <ele>237.1</ele>
        <time>2019-10-18T19:10:35Z</time>
      </trkpt>
      <trkpt lat="36.9415140" lon="-2.4119280">
        <ele>237.2</ele>
        <time>2019-10-18T19:10:36Z</time>
      </trkpt>
      <trkpt lat="36.9415120" lon="-2.4119140">
        <ele>237.2</ele>
        <time>2019-10-18T19:10:37Z</time>
      </trkpt>
      <trkpt lat="36.9415100" lon="-2.4119000">
        <ele>237.2</ele>
        <time>2019-10-18T19:10:38Z</time>
      </trkpt>
      <trkpt lat="36.9415070" lon="-2.4118880">
        <ele>237.2</ele>
        <time>2019-10-18T19:10:39Z</time>
      </trkpt>
      <trkpt lat="36.9415060" lon="-2.4118800">
        <ele>237.4</ele>
        <time>2019-10-18T19:10:40Z</time>
      </trkpt>
      <trkpt lat="36.9415050" lon="-2.4118760">
        <ele>237.4</ele>
        <time>2019-10-18T19:10:41Z</time>
      </trkpt>
      <trkpt lat="36.9415050" lon="-2.4118770">
        <ele>237.4</ele>
        <time>2019-10-18T19:10:42Z</time>
      </trkpt>
      <trkpt lat="36.9415050" lon="-2.4118780">
        <ele>237.4</ele>
        <time>2019-10-18T19:10:43Z</time>
      </trkpt>
      <trkpt lat="36.9415050" lon="-2.4118760">
        <ele>237.4</ele>
        <time>2019-10-18T19:10:44Z</time>
      </trkpt>
      <trkpt lat="36.9415060" lon="-2.4118710">
        <ele>237.4</ele>
        <time>2019-10-18T19:10:45Z</time>
      </trkpt>
      <trkpt lat="36.9415070" lon="-2.4118640">
        <ele>237.4</ele>
        <time>2019-10-18T19:10:46Z</time>
      </trkpt>
      <trkpt lat="36.9415100" lon="-2.4118580">
        <ele>237.4</ele>
        <time>2019-10-18T19:10:47Z</time>
      </trkpt>
      <trkpt lat="36.9415130" lon="-2.4118540">
        <ele>237.4</ele>
        <time>2019-10-18T19:10:48Z</time>
      </trkpt>
      <trkpt lat="36.9415180" lon="-2.4118520">
        <ele>237.4</ele>
        <time>2019-10-18T19:10:49Z</time>
      </trkpt>
      <trkpt lat="36.9415250" lon="-2.4118500">
        <ele>236.8</ele>
        <time>2019-10-18T19:10:50Z</time>
      </trkpt>
      <trkpt lat="36.9415330" lon="-2.4118470">
        <ele>236.8</ele>
        <time>2019-10-18T19:10:51Z</time>
      </trkpt>
      <trkpt lat="36.9415420" lon="-2.4118430">
        <ele>236.8</ele>
        <time>2019-10-18T19:10:52Z</time>
      </trkpt>
      <trkpt lat="36.9415500" lon="-2.4118370">
        <ele>236.9</ele>
        <time>2019-10-18T19:10:53Z</time>
      </trkpt>
      <trkpt lat="36.9415570" lon="-2.4118300">
        <ele>236.9</ele>
        <time>2019-10-18T19:10:54Z</time>
      </trkpt>
      <trkpt lat="36.9415620" lon="-2.4118220">
        <ele>236.3</ele>
        <time>2019-10-18T19:10:55Z</time>
      </trkpt>
      <trkpt lat="36.9415640" lon="-2.4118170">
        <ele>236.3</ele>
        <time>2019-10-18T19:10:56Z</time>
      </trkpt>
      <trkpt lat="36.9415650" lon="-2.4118140">
        <ele>236.3</ele>
        <time>2019-10-18T19:10:57Z</time>
      </trkpt>
      <trkpt lat="36.9415650" lon="-2.4118140">
        <ele>236.3</ele>
        <time>2019-10-18T19:10:58Z</time>
      </trkpt>
      <trkpt lat="36.9415640" lon="-2.4118140">
        <ele>236.3</ele>
        <time>2019-10-18T19:10:59Z</time>
      </trkpt>
      <trkpt lat="36.9415640" lon="-2.4118150">
        <ele>236.3</ele>
        <time>2019-10-18T19:11:00Z</time>
      </trkpt>
      <trkpt lat="36.9415640" lon="-2.4118150">
        <ele>236.3</ele>
        <time>2019-10-18T19:11:01Z</time>
      </trkpt>
      <trkpt lat="36.9415640" lon="-2.4118150">
        <ele>236.3</ele>
        <time>2019-10-18T19:11:02Z</time>
      </trkpt>
      <trkpt lat="36.9415640" lon="-2.4118150">
        <ele>236.3</ele>
        <time>2019-10-18T19:11:03Z</time>
      </trkpt>
      <trkpt lat="36.9415640" lon="-2.4118150">
        <ele>236.3</ele>
        <time>2019-10-18T19:11:04Z</time>
      </trkpt>
      <trkpt lat="36.9415650" lon="-2.4118150">
        <ele>236.3</ele>
        <time>2019-10-18T19:11:05Z</time>
      </trkpt>
      <trkpt lat="36.9415660" lon="-2.4118160">
        <ele>236.3</ele>
        <time>2019-10-18T19:11:06Z</time>
      </trkpt>
      <trkpt lat="36.9415680" lon="-2.4118160">
        <ele>236.3</ele>
        <time>2019-10-18T19:11:07Z</time>
      </trkpt>
      <trkpt lat="36.9415680" lon="-2.4118160">
        <ele>236.3</ele>
        <time>2019-10-18T19:11:08Z</time>
      </trkpt>
      <trkpt lat="36.9415690" lon="-2.4118160">
        <ele>236.3</ele>
        <time>2019-10-18T19:11:09Z</time>
      </trkpt>
      <trkpt lat="36.9415700" lon="-2.4118160">
        <ele>236.3</ele>
        <time>2019-10-18T19:11:10Z</time>
      </trkpt>
      <trkpt lat="36.9415700" lon="-2.4118160">
        <ele>236.3</ele>
        <time>2019-10-18T19:11:11Z</time>
      </trkpt>
      <trkpt lat="36.9415700" lon="-2.4118160">
        <ele>236.3</ele>
        <time>2019-10-18T19:11:12Z</time>
      </trkpt>
      <trkpt lat="36.9415700" lon="-2.4118160">
        <ele>236.3</ele>
        <time>2019-10-18T19:11:13Z</time>
      </trkpt>
      <trkpt lat="36.9415700" lon="-2.4118150">
        <ele>236.3</ele>
        <time>2019-10-18T19:11:14Z</time>
      </trkpt>
      <trkpt lat="36.9415700" lon="-2.4118150">
        <ele>236.3</ele>
        <time>2019-10-18T19:11:15Z</time>
      </trkpt>
      <trkpt lat="36.9415700" lon="-2.4118150">
        <ele>236.3</ele>
        <time>2019-10-18T19:11:16Z</time>
      </trkpt>
      <trkpt lat="36.9415710" lon="-2.4118150">
        <ele>236.3</ele>
        <time>2019-10-18T19:11:17Z</time>
      </trkpt>
      <trkpt lat="36.9415710" lon="-2.4118150">
        <ele>236.3</ele>
        <time>2019-10-18T19:11:18Z</time>
      </trkpt>
      <trkpt lat="36.9415710" lon="-2.4118150">
        <ele>236.3</ele>
        <time>2019-10-18T19:11:19Z</time>
      </trkpt>
      <trkpt lat="36.9415710" lon="-2.4118150">
        <ele>236.3</ele>
        <time>2019-10-18T19:11:20Z</time>
      </trkpt>
      <trkpt lat="36.9415710" lon="-2.4118150">
        <ele>236.3</ele>
        <time>2019-10-18T19:11:21Z</time>
      </trkpt>
      <trkpt lat="36.9415710" lon="-2.4118150">
        <ele>236.3</ele>
        <time>2019-10-18T19:11:22Z</time>
      </trkpt>
      <trkpt lat="36.9415710" lon="-2.4118150">
        <ele>236.3</ele>
        <time>2019-10-18T19:11:23Z</time>
      </trkpt>
      <trkpt lat="36.9415720" lon="-2.4118160">
        <ele>236.3</ele>
        <time>2019-10-18T19:11:24Z</time>
      </trkpt>
      <trkpt lat="36.9415720" lon="-2.4118160">
        <ele>236.3</ele>
        <time>2019-10-18T19:11:25Z</time>
      </trkpt>
      <trkpt lat="36.9415720" lon="-2.4118160">
        <ele>236.3</ele>
        <time>2019-10-18T19:11:26Z</time>
      </trkpt>
      <trkpt lat="36.9415720" lon="-2.4118150">
        <ele>236.3</ele>
        <time>2019-10-18T19:11:27Z</time>
      </trkpt>
      <trkpt lat="36.9415720" lon="-2.4118150">
        <ele>236.3</ele>
        <time>2019-10-18T19:11:28Z</time>
      </trkpt>
      <trkpt lat="36.9415720" lon="-2.4118140">
        <ele>236.3</ele>
        <time>2019-10-18T19:11:29Z</time>
      </trkpt>
      <trkpt lat="36.9415720" lon="-2.4118130">
        <ele>236.3</ele>
        <time>2019-10-18T19:11:30Z</time>
      </trkpt>
      <trkpt lat="36.9415720" lon="-2.4118130">
        <ele>236.3</ele>
        <time>2019-10-18T19:11:31Z</time>
      </trkpt>
      <trkpt lat="36.9415720" lon="-2.4118140">
        <ele>236.3</ele>
        <time>2019-10-18T19:11:32Z</time>
      </trkpt>
      <trkpt lat="36.9415740" lon="-2.4118140">
        <ele>236.3</ele>
        <time>2019-10-18T19:11:33Z</time>
      </trkpt>
      <trkpt lat="36.9415760" lon="-2.4118140">
        <ele>236.3</ele>
        <time>2019-10-18T19:11:34Z</time>
      </trkpt>
      <trkpt lat="36.9415770" lon="-2.4118130">
        <ele>236.3</ele>
        <time>2019-10-18T19:11:35Z</time>
      </trkpt>
      <trkpt lat="36.9415780" lon="-2.4118110">
        <ele>236.3</ele>
        <time>2019-10-18T19:11:36Z</time>
      </trkpt>
      <trkpt lat="36.9415800" lon="-2.4118070">
        <ele>236.3</ele>
        <time>2019-10-18T19:11:37Z</time>
      </trkpt>
      <trkpt lat="36.9415830" lon="-2.4118010">
        <ele>236.3</ele>
        <time>2019-10-18T19:11:38Z</time>
      </trkpt>
      <trkpt lat="36.9415870" lon="-2.4117930">
        <ele>236.4</ele>
        <time>2019-10-18T19:11:39Z</time>
      </trkpt>
      <trkpt lat="36.9415910" lon="-2.4117860">
        <ele>236.4</ele>
        <time>2019-10-18T19:11:40Z</time>
      </trkpt>
      <trkpt lat="36.9415940" lon="-2.4117760">
        <ele>235.7</ele>
        <time>2019-10-18T19:11:41Z</time>
      </trkpt>
      <trkpt lat="36.9415980" lon="-2.4117660">
        <ele>235.7</ele>
        <time>2019-10-18T19:11:42Z</time>
      </trkpt>
      <trkpt lat="36.9416030" lon="-2.4117520">
        <ele>235.9</ele>
        <time>2019-10-18T19:11:43Z</time>
      </trkpt>
      <trkpt lat="36.9416090" lon="-2.4117390">
        <ele>235.9</ele>
        <time>2019-10-18T19:11:44Z</time>
      </trkpt>
      <trkpt lat="36.9416150" lon="-2.4117270">
        <ele>235.9</ele>
        <time>2019-10-18T19:11:45Z</time>
      </trkpt>
      <trkpt lat="36.9416230" lon="-2.4117140">
        <ele>235.9</ele>
        <time>2019-10-18T19:11:46Z</time>
      </trkpt>
      <trkpt lat="36.9416320" lon="-2.4117010">
        <ele>235.5</ele>
        <time>2019-10-18T19:11:47Z</time>
      </trkpt>
      <trkpt lat="36.9416390" lon="-2.4116850">
        <ele>235.5</ele>
        <time>2019-10-18T19:11:48Z</time>
      </trkpt>
      <trkpt lat="36.9416420" lon="-2.4116680">
        <ele>235.7</ele>
        <time>2019-10-18T19:11:49Z</time>
      </trkpt>
      <trkpt lat="36.9416430" lon="-2.4116490">
        <ele>235.7</ele>
        <time>2019-10-18T19:11:50Z</time>
      </trkpt>
      <trkpt lat="36.9416440" lon="-2.4116300">
        <ele>235.7</ele>
        <time>2019-10-18T19:11:51Z</time>
      </trkpt>
      <trkpt lat="36.9416450" lon="-2.4116100">
        <ele>235.9</ele>
        <time>2019-10-18T19:11:52Z</time>
      </trkpt>
      <trkpt lat="36.9416460" lon="-2.4115910">
        <ele>235.9</ele>
        <time>2019-10-18T19:11:53Z</time>
      </trkpt>
      <trkpt lat="36.9416480" lon="-2.4115700">
        <ele>236.1</ele>
        <time>2019-10-18T19:11:54Z</time>
      </trkpt>
      <trkpt lat="36.9416510" lon="-2.4115500">
        <ele>236.1</ele>
        <time>2019-10-18T19:11:55Z</time>
      </trkpt>
      <trkpt lat="36.9416550" lon="-2.4115300">
        <ele>236.3</ele>
        <time>2019-10-18T19:11:56Z</time>
      </trkpt>
      <trkpt lat="36.9416580" lon="-2.4115100">
        <ele>236.3</ele>
        <time>2019-10-18T19:11:57Z</time>
      </trkpt>
      <trkpt lat="36.9416610" lon="-2.4114890">
        <ele>235.8</ele>
        <time>2019-10-18T19:11:58Z</time>
      </trkpt>
      <trkpt lat="36.9416620" lon="-2.4114680">
        <ele>235.8</ele>
        <time>2019-10-18T19:11:59Z</time>
      </trkpt>
      <trkpt lat="36.9416640" lon="-2.4114470">
        <ele>236.0</ele>
        <time>2019-10-18T19:12:00Z</time>
      </trkpt>
      <trkpt lat="36.9416660" lon="-2.4114250">
        <ele>236.0</ele>
        <time>2019-10-18T19:12:01Z</time>
      </trkpt>
      <trkpt lat="36.9416680" lon="-2.4114040">
        <ele>236.1</ele>
        <time>2019-10-18T19:12:02Z</time>
      </trkpt>
      <trkpt lat="36.9416680" lon="-2.4113840">
        <ele>236.1</ele>
        <time>2019-10-18T19:12:03Z</time>
      </trkpt>
      <trkpt lat="36.9416660" lon="-2.4113640">
        <ele>236.3</ele>
        <time>2019-10-18T19:12:04Z</time>
      </trkpt>
      <trkpt lat="36.9416650" lon="-2.4113450">
        <ele>236.3</ele>
        <time>2019-10-18T19:12:05Z</time>
      </trkpt>
      <trkpt lat="36.9416650" lon="-2.4113250">
        <ele>236.5</ele>
        <time>2019-10-18T19:12:06Z</time>
      </trkpt>
      <trkpt lat="36.9416640" lon="-2.4113040">
        <ele>236.5</ele>
        <time>2019-10-18T19:12:07Z</time>
      </trkpt>
      <trkpt lat="36.9416620" lon="-2.4112850">
        <ele>236.5</ele>
        <time>2019-10-18T19:12:08Z</time>
      </trkpt>
      <trkpt lat="36.9416570" lon="-2.4112660">
        <ele>237.5</ele>
        <time>2019-10-18T19:12:09Z</time>
      </trkpt>
      <trkpt lat="36.9416530" lon="-2.4112490">
        <ele>237.5</ele>
        <time>2019-10-18T19:12:10Z</time>
      </trkpt>
      <trkpt lat="36.9416480" lon="-2.4112310">
        <ele>237.7</ele>
        <time>2019-10-18T19:12:11Z</time>
      </trkpt>
      <trkpt lat="36.9416430" lon="-2.4112130">
        <ele>237.7</ele>
        <time>2019-10-18T19:12:12Z</time>
      </trkpt>
      <trkpt lat="36.9416380" lon="-2.4111930">
        <ele>237.9</ele>
        <time>2019-10-18T19:12:13Z</time>
      </trkpt>
      <trkpt lat="36.9416330" lon="-2.4111750">
        <ele>237.9</ele>
        <time>2019-10-18T19:12:14Z</time>
      </trkpt>
      <trkpt lat="36.9416280" lon="-2.4111570">
        <ele>237.9</ele>
        <time>2019-10-18T19:12:15Z</time>
      </trkpt>
      <trkpt lat="36.9416240" lon="-2.4111420">
        <ele>239.0</ele>
        <time>2019-10-18T19:12:16Z</time>
      </trkpt>
      <trkpt lat="36.9416200" lon="-2.4111270">
        <ele>239.0</ele>
        <time>2019-10-18T19:12:17Z</time>
      </trkpt>
      <trkpt lat="36.9416180" lon="-2.4111140">
        <ele>239.0</ele>
        <time>2019-10-18T19:12:18Z</time>
      </trkpt>
      <trkpt lat="36.9416160" lon="-2.4111040">
        <ele>239.2</ele>
        <time>2019-10-18T19:12:19Z</time>
      </trkpt>
      <trkpt lat="36.9416160" lon="-2.4110980">
        <ele>239.2</ele>
        <time>2019-10-18T19:12:20Z</time>
      </trkpt>
      <trkpt lat="36.9416150" lon="-2.4110960">
        <ele>239.2</ele>
        <time>2019-10-18T19:12:21Z</time>
      </trkpt>
      <trkpt lat="36.9416150" lon="-2.4110950">
        <ele>239.2</ele>
        <time>2019-10-18T19:12:22Z</time>
      </trkpt>
      <trkpt lat="36.9416140" lon="-2.4110950">
        <ele>239.2</ele>
        <time>2019-10-18T19:12:23Z</time>
      </trkpt>
      <trkpt lat="36.9416140" lon="-2.4110950">
        <ele>239.2</ele>
        <time>2019-10-18T19:12:24Z</time>
      </trkpt>
      <trkpt lat="36.9416140" lon="-2.4110950">
        <ele>239.2</ele>
        <time>2019-10-18T19:12:25Z</time>
      </trkpt>
      <trkpt lat="36.9416150" lon="-2.4110970">
        <ele>239.2</ele>
        <time>2019-10-18T19:12:26Z</time>
      </trkpt>
      <trkpt lat="36.9416160" lon="-2.4110990">
        <ele>239.2</ele>
        <time>2019-10-18T19:12:27Z</time>
      </trkpt>
      <trkpt lat="36.9416160" lon="-2.4111000">
        <ele>239.2</ele>
        <time>2019-10-18T19:12:28Z</time>
      </trkpt>
      <trkpt lat="36.9416150" lon="-2.4110990">
        <ele>239.2</ele>
        <time>2019-10-18T19:12:29Z</time>
      </trkpt>
      <trkpt lat="36.9416140" lon="-2.4110990">
        <ele>239.2</ele>
        <time>2019-10-18T19:12:30Z</time>
      </trkpt>
      <trkpt lat="36.9416140" lon="-2.4110990">
        <ele>239.2</ele>
        <time>2019-10-18T19:12:31Z</time>
      </trkpt>
      <trkpt lat="36.9416140" lon="-2.4110990">
        <ele>239.2</ele>
        <time>2019-10-18T19:12:32Z</time>
      </trkpt>
      <trkpt lat="36.9416140" lon="-2.4110970">
        <ele>239.2</ele>
        <time>2019-10-18T19:12:33Z</time>
      </trkpt>
      <trkpt lat="36.9416150" lon="-2.4110960">
        <ele>239.2</ele>
        <time>2019-10-18T19:12:34Z</time>
      </trkpt>
      <trkpt lat="36.9416160" lon="-2.4110930">
        <ele>239.2</ele>
        <time>2019-10-18T19:12:35Z</time>
      </trkpt>
      <trkpt lat="36.9416160" lon="-2.4110920">
        <ele>239.2</ele>
        <time>2019-10-18T19:12:36Z</time>
      </trkpt>
      <trkpt lat="36.9416150" lon="-2.4110910">
        <ele>239.2</ele>
        <time>2019-10-18T19:12:37Z</time>
      </trkpt>
      <trkpt lat="36.9416150" lon="-2.4110900">
        <ele>239.2</ele>
        <time>2019-10-18T19:12:38Z</time>
      </trkpt>
      <trkpt lat="36.9416140" lon="-2.4110890">
        <ele>239.2</ele>
        <time>2019-10-18T19:12:39Z</time>
      </trkpt>
      <trkpt lat="36.9416140" lon="-2.4110890">
        <ele>239.2</ele>
        <time>2019-10-18T19:12:40Z</time>
      </trkpt>
      <trkpt lat="36.9416140" lon="-2.4110890">
        <ele>239.2</ele>
        <time>2019-10-18T19:12:41Z</time>
      </trkpt>
      <trkpt lat="36.9416140" lon="-2.4110900">
        <ele>239.2</ele>
        <time>2019-10-18T19:12:42Z</time>
      </trkpt>
      <trkpt lat="36.9416150" lon="-2.4110900">
        <ele>239.2</ele>
        <time>2019-10-18T19:12:43Z</time>
      </trkpt>
      <trkpt lat="36.9416140" lon="-2.4110900">
        <ele>239.2</ele>
        <time>2019-10-18T19:12:44Z</time>
      </trkpt>
      <trkpt lat="36.9416140" lon="-2.4110900">
        <ele>239.2</ele>
        <time>2019-10-18T19:12:45Z</time>
      </trkpt>
      <trkpt lat="36.9416130" lon="-2.4110900">
        <ele>239.2</ele>
        <time>2019-10-18T19:12:46Z</time>
      </trkpt>
      <trkpt lat="36.9416130" lon="-2.4110900">
        <ele>239.2</ele>
        <time>2019-10-18T19:12:47Z</time>
      </trkpt>
      <trkpt lat="36.9416130" lon="-2.4110890">
        <ele>239.2</ele>
        <time>2019-10-18T19:12:48Z</time>
      </trkpt>
      <trkpt lat="36.9416130" lon="-2.4110880">
        <ele>239.2</ele>
        <time>2019-10-18T19:12:49Z</time>
      </trkpt>
      <trkpt lat="36.9416130" lon="-2.4110880">
        <ele>239.2</ele>
        <time>2019-10-18T19:12:50Z</time>
      </trkpt>
      <trkpt lat="36.9416130" lon="-2.4110880">
        <ele>239.2</ele>
        <time>2019-10-18T19:12:51Z</time>
      </trkpt>
      <trkpt lat="36.9416130" lon="-2.4110880">
        <ele>239.2</ele>
        <time>2019-10-18T19:12:52Z</time>
      </trkpt>
      <trkpt lat="36.9416130" lon="-2.4110880">
        <ele>239.2</ele>
        <time>2019-10-18T19:12:53Z</time>
      </trkpt>
      <trkpt lat="36.9416120" lon="-2.4110880">
        <ele>239.2</ele>
        <time>2019-10-18T19:12:54Z</time>
      </trkpt>
      <trkpt lat="36.9416120" lon="-2.4110880">
        <ele>239.2</ele>
        <time>2019-10-18T19:12:55Z</time>
      </trkpt>
      <trkpt lat="36.9416120" lon="-2.4110880">
        <ele>239.2</ele>
        <time>2019-10-18T19:12:56Z</time>
      </trkpt>
      <trkpt lat="36.9416110" lon="-2.4110880">
        <ele>239.2</ele>
        <time>2019-10-18T19:12:57Z</time>
      </trkpt>
      <trkpt lat="36.9416110" lon="-2.4110880">
        <ele>239.2</ele>
        <time>2019-10-18T19:12:58Z</time>
      </trkpt>
      <trkpt lat="36.9416110" lon="-2.4110880">
        <ele>239.2</ele>
        <time>2019-10-18T19:12:59Z</time>
      </trkpt>
      <trkpt lat="36.9416110" lon="-2.4110880">
        <ele>239.2</ele>
        <time>2019-10-18T19:13:00Z</time>
      </trkpt>
      <trkpt lat="36.9416110" lon="-2.4110880">
        <ele>239.2</ele>
        <time>2019-10-18T19:13:01Z</time>
      </trkpt>
      <trkpt lat="36.9416110" lon="-2.4110880">
        <ele>239.2</ele>
        <time>2019-10-18T19:13:02Z</time>
      </trkpt>
      <trkpt lat="36.9416120" lon="-2.4110880">
        <ele>239.2</ele>
        <time>2019-10-18T19:13:03Z</time>
      </trkpt>
      <trkpt lat="36.9416120" lon="-2.4110880">
        <ele>239.2</ele>
        <time>2019-10-18T19:13:04Z</time>
      </trkpt>
      <trkpt lat="36.9416120" lon="-2.4110890">
        <ele>239.2</ele>
        <time>2019-10-18T19:13:05Z</time>
      </trkpt>
      <trkpt lat="36.9416120" lon="-2.4110890">
        <ele>239.2</ele>
        <time>2019-10-18T19:13:06Z</time>
      </trkpt>
      <trkpt lat="36.9416110" lon="-2.4110900">
        <ele>239.2</ele>
        <time>2019-10-18T19:13:07Z</time>
      </trkpt>
      <trkpt lat="36.9416110" lon="-2.4110900">
        <ele>239.2</ele>
        <time>2019-10-18T19:13:08Z</time>
      </trkpt>
      <trkpt lat="36.9416110" lon="-2.4110900">
        <ele>239.2</ele>
        <time>2019-10-18T19:13:09Z</time>
      </trkpt>
      <trkpt lat="36.9416100" lon="-2.4110910">
        <ele>239.2</ele>
        <time>2019-10-18T19:13:10Z</time>
      </trkpt>
      <trkpt lat="36.9416100" lon="-2.4110910">
        <ele>239.2</ele>
        <time>2019-10-18T19:13:11Z</time>
      </trkpt>
      <trkpt lat="36.9416100" lon="-2.4110920">
        <ele>239.2</ele>
        <time>2019-10-18T19:13:12Z</time>
      </trkpt>
      <trkpt lat="36.9416090" lon="-2.4110920">
        <ele>239.2</ele>
        <time>2019-10-18T19:13:13Z</time>
      </trkpt>
      <trkpt lat="36.9416090" lon="-2.4110910">
        <ele>239.2</ele>
        <time>2019-10-18T19:13:14Z</time>
      </trkpt>
      <trkpt lat="36.9416090" lon="-2.4110910">
        <ele>239.2</ele>
        <time>2019-10-18T19:13:15Z</time>
      </trkpt>
      <trkpt lat="36.9416090" lon="-2.4110900">
        <ele>239.2</ele>
        <time>2019-10-18T19:13:16Z</time>
      </trkpt>
      <trkpt lat="36.9416090" lon="-2.4110890">
        <ele>239.2</ele>
        <time>2019-10-18T19:13:17Z</time>
      </trkpt>
      <trkpt lat="36.9416090" lon="-2.4110880">
        <ele>239.2</ele>
        <time>2019-10-18T19:13:18Z</time>
      </trkpt>
      <trkpt lat="36.9416090" lon="-2.4110880">
        <ele>239.2</ele>
        <time>2019-10-18T19:13:19Z</time>
      </trkpt>
      <trkpt lat="36.9416100" lon="-2.4110890">
        <ele>239.2</ele>
        <time>2019-10-18T19:13:20Z</time>
      </trkpt>
      <trkpt lat="36.9416110" lon="-2.4110900">
        <ele>239.2</ele>
        <time>2019-10-18T19:13:21Z</time>
      </trkpt>
      <trkpt lat="36.9416110" lon="-2.4110900">
        <ele>239.2</ele>
        <time>2019-10-18T19:13:22Z</time>
      </trkpt>
      <trkpt lat="36.9416110" lon="-2.4110900">
        <ele>239.2</ele>
        <time>2019-10-18T19:13:23Z</time>
      </trkpt>
      <trkpt lat="36.9416110" lon="-2.4110900">
        <ele>239.2</ele>
        <time>2019-10-18T19:13:24Z</time>
      </trkpt>
      <trkpt lat="36.9416110" lon="-2.4110900">
        <ele>239.2</ele>
        <time>2019-10-18T19:13:25Z</time>
      </trkpt>
      <trkpt lat="36.9416110" lon="-2.4110900">
        <ele>239.2</ele>
        <time>2019-10-18T19:13:26Z</time>
      </trkpt>
      <trkpt lat="36.9416110" lon="-2.4110910">
        <ele>239.2</ele>
        <time>2019-10-18T19:13:27Z</time>
      </trkpt>
      <trkpt lat="36.9416110" lon="-2.4110910">
        <ele>239.2</ele>
        <time>2019-10-18T19:13:28Z</time>
      </trkpt>
      <trkpt lat="36.9416110" lon="-2.4110910">
        <ele>239.2</ele>
        <time>2019-10-18T19:13:29Z</time>
      </trkpt>
      <trkpt lat="36.9416110" lon="-2.4110900">
        <ele>239.2</ele>
        <time>2019-10-18T19:13:30Z</time>
      </trkpt>
      <trkpt lat="36.9416110" lon="-2.4110890">
        <ele>239.2</ele>
        <time>2019-10-18T19:13:31Z</time>
      </trkpt>
      <trkpt lat="36.9416110" lon="-2.4110880">
        <ele>239.2</ele>
        <time>2019-10-18T19:13:32Z</time>
      </trkpt>
      <trkpt lat="36.9416120" lon="-2.4110870">
        <ele>239.2</ele>
        <time>2019-10-18T19:13:33Z</time>
      </trkpt>
      <trkpt lat="36.9416120" lon="-2.4110860">
        <ele>239.2</ele>
        <time>2019-10-18T19:13:34Z</time>
      </trkpt>
      <trkpt lat="36.9416120" lon="-2.4110860">
        <ele>239.2</ele>
        <time>2019-10-18T19:13:35Z</time>
      </trkpt>
      <trkpt lat="36.9416130" lon="-2.4110850">
        <ele>239.2</ele>
        <time>2019-10-18T19:13:36Z</time>
      </trkpt>
      <trkpt lat="36.9416130" lon="-2.4110840">
        <ele>239.2</ele>
        <time>2019-10-18T19:13:37Z</time>
      </trkpt>
      <trkpt lat="36.9416130" lon="-2.4110830">
        <ele>239.2</ele>
        <time>2019-10-18T19:13:38Z</time>
      </trkpt>
      <trkpt lat="36.9416140" lon="-2.4110820">
        <ele>239.2</ele>
        <time>2019-10-18T19:13:39Z</time>
      </trkpt>
      <trkpt lat="36.9416140" lon="-2.4110820">
        <ele>239.2</ele>
        <time>2019-10-18T19:13:40Z</time>
      </trkpt>
      <trkpt lat="36.9416140" lon="-2.4110810">
        <ele>239.2</ele>
        <time>2019-10-18T19:13:41Z</time>
      </trkpt>
      <trkpt lat="36.9416140" lon="-2.4110810">
        <ele>239.3</ele>
        <time>2019-10-18T19:13:42Z</time>
      </trkpt>
      <trkpt lat="36.9416140" lon="-2.4110800">
        <ele>239.3</ele>
        <time>2019-10-18T19:13:43Z</time>
      </trkpt>
      <trkpt lat="36.9416140" lon="-2.4110800">
        <ele>239.3</ele>
        <time>2019-10-18T19:13:44Z</time>
      </trkpt>
      <trkpt lat="36.9416140" lon="-2.4110800">
        <ele>239.3</ele>
        <time>2019-10-18T19:13:45Z</time>
      </trkpt>
      <trkpt lat="36.9416140" lon="-2.4110800">
        <ele>239.3</ele>
        <time>2019-10-18T19:13:46Z</time>
      </trkpt>
      <trkpt lat="36.9416140" lon="-2.4110800">
        <ele>239.3</ele>
        <time>2019-10-18T19:13:47Z</time>
      </trkpt>
      <trkpt lat="36.9416140" lon="-2.4110800">
        <ele>239.4</ele>
        <time>2019-10-18T19:13:48Z</time>
      </trkpt>
      <trkpt lat="36.9416150" lon="-2.4110810">
        <ele>239.4</ele>
        <time>2019-10-18T19:13:49Z</time>
      </trkpt>
      <trkpt lat="36.9416150" lon="-2.4110810">
        <ele>239.4</ele>
        <time>2019-10-18T19:13:50Z</time>
      </trkpt>
      <trkpt lat="36.9416150" lon="-2.4110810">
        <ele>239.4</ele>
        <time>2019-10-18T19:13:51Z</time>
      </trkpt>
      <trkpt lat="36.9416150" lon="-2.4110820">
        <ele>239.4</ele>
        <time>2019-10-18T19:13:52Z</time>
      </trkpt>
      <trkpt lat="36.9416140" lon="-2.4110820">
        <ele>239.4</ele>
        <time>2019-10-18T19:13:53Z</time>
      </trkpt>
      <trkpt lat="36.9416150" lon="-2.4110840">
        <ele>239.4</ele>
        <time>2019-10-18T19:13:54Z</time>
      </trkpt>
      <trkpt lat="36.9416150" lon="-2.4110850">
        <ele>239.5</ele>
        <time>2019-10-18T19:13:55Z</time>
      </trkpt>
      <trkpt lat="36.9416150" lon="-2.4110860">
        <ele>239.5</ele>
        <time>2019-10-18T19:13:56Z</time>
      </trkpt>
      <trkpt lat="36.9416150" lon="-2.4110870">
        <ele>239.5</ele>
        <time>2019-10-18T19:13:57Z</time>
      </trkpt>
      <trkpt lat="36.9416160" lon="-2.4110870">
        <ele>239.5</ele>
        <time>2019-10-18T19:13:58Z</time>
      </trkpt>
      <trkpt lat="36.9416160" lon="-2.4110860">
        <ele>239.5</ele>
        <time>2019-10-18T19:13:59Z</time>
      </trkpt>
      <trkpt lat="36.9416170" lon="-2.4110820">
        <ele>239.5</ele>
        <time>2019-10-18T19:14:00Z</time>
      </trkpt>
      <trkpt lat="36.9416170" lon="-2.4110790">
        <ele>239.5</ele>
        <time>2019-10-18T19:14:01Z</time>
      </trkpt>
      <trkpt lat="36.9416170" lon="-2.4110780">
        <ele>239.6</ele>
        <time>2019-10-18T19:14:02Z</time>
      </trkpt>
      <trkpt lat="36.9416190" lon="-2.4110760">
        <ele>239.6</ele>
        <time>2019-10-18T19:14:03Z</time>
      </trkpt>
      <trkpt lat="36.9416230" lon="-2.4110710">
        <ele>239.6</ele>
        <time>2019-10-18T19:14:04Z</time>
      </trkpt>
      <trkpt lat="36.9416280" lon="-2.4110650">
        <ele>238.8</ele>
        <time>2019-10-18T19:14:05Z</time>
      </trkpt>
      <trkpt lat="36.9416330" lon="-2.4110600">
        <ele>238.8</ele>
        <time>2019-10-18T19:14:06Z</time>
      </trkpt>
      <trkpt lat="36.9416380" lon="-2.4110540">
        <ele>238.9</ele>
        <time>2019-10-18T19:14:07Z</time>
      </trkpt>
      <trkpt lat="36.9416420" lon="-2.4110490">
        <ele>238.9</ele>
        <time>2019-10-18T19:14:08Z</time>
      </trkpt>
      <trkpt lat="36.9416460" lon="-2.4110410">
        <ele>238.9</ele>
        <time>2019-10-18T19:14:09Z</time>
      </trkpt>
      <trkpt lat="36.9416500" lon="-2.4110330">
        <ele>238.9</ele>
        <time>2019-10-18T19:14:10Z</time>
      </trkpt>
      <trkpt lat="36.9416530" lon="-2.4110260">
        <ele>239.1</ele>
        <time>2019-10-18T19:14:11Z</time>
      </trkpt>
      <trkpt lat="36.9416560" lon="-2.4110180">
        <ele>239.1</ele>
        <time>2019-10-18T19:14:12Z</time>
      </trkpt>
      <trkpt lat="36.9416590" lon="-2.4110110">
        <ele>239.2</ele>
        <time>2019-10-18T19:14:13Z</time>
      </trkpt>
      <trkpt lat="36.9416630" lon="-2.4110030">
        <ele>238.4</ele>
        <time>2019-10-18T19:14:14Z</time>
      </trkpt>
      <trkpt lat="36.9416670" lon="-2.4109960">
        <ele>238.4</ele>
        <time>2019-10-18T19:14:15Z</time>
      </trkpt>
      <trkpt lat="36.9416720" lon="-2.4109870">
        <ele>238.4</ele>
        <time>2019-10-18T19:14:16Z</time>
      </trkpt>
      <trkpt lat="36.9416760" lon="-2.4109770">
        <ele>238.6</ele>
        <time>2019-10-18T19:14:17Z</time>
      </trkpt>
      <trkpt lat="36.9416800" lon="-2.4109700">
        <ele>238.6</ele>
        <time>2019-10-18T19:14:18Z</time>
      </trkpt>
      <trkpt lat="36.9416830" lon="-2.4109640">
        <ele>238.6</ele>
        <time>2019-10-18T19:14:19Z</time>
      </trkpt>
      <trkpt lat="36.9416860" lon="-2.4109600">
        <ele>238.6</ele>
        <time>2019-10-18T19:14:20Z</time>
      </trkpt>
      <trkpt lat="36.9416890" lon="-2.4109560">
        <ele>238.6</ele>
        <time>2019-10-18T19:14:21Z</time>
      </trkpt>
      <trkpt lat="36.9416910" lon="-2.4109550">
        <ele>238.7</ele>
        <time>2019-10-18T19:14:22Z</time>
      </trkpt>
      <trkpt lat="36.9416910" lon="-2.4109540">
        <ele>238.7</ele>
        <time>2019-10-18T19:14:23Z</time>
      </trkpt>
      <trkpt lat="36.9416910" lon="-2.4109520">
        <ele>238.7</ele>
        <time>2019-10-18T19:14:24Z</time>
      </trkpt>
      <trkpt lat="36.9416930" lon="-2.4109480">
        <ele>238.7</ele>
        <time>2019-10-18T19:14:25Z</time>
      </trkpt>
      <trkpt lat="36.9416960" lon="-2.4109420">
        <ele>238.0</ele>
        <time>2019-10-18T19:14:26Z</time>
      </trkpt>
      <trkpt lat="36.9417000" lon="-2.4109330">
        <ele>238.2</ele>
        <time>2019-10-18T19:14:27Z</time>
      </trkpt>
      <trkpt lat="36.9417050" lon="-2.4109200">
        <ele>238.2</ele>
        <time>2019-10-18T19:14:28Z</time>
      </trkpt>
      <trkpt lat="36.9417100" lon="-2.4109060">
        <ele>238.2</ele>
        <time>2019-10-18T19:14:29Z</time>
      </trkpt>
      <trkpt lat="36.9417170" lon="-2.4108890">
        <ele>238.3</ele>
        <time>2019-10-18T19:14:30Z</time>
      </trkpt>
      <trkpt lat="36.9417250" lon="-2.4108730">
        <ele>238.3</ele>
        <time>2019-10-18T19:14:31Z</time>
      </trkpt>
      <trkpt lat="36.9417350" lon="-2.4108580">
        <ele>237.8</ele>
        <time>2019-10-18T19:14:32Z</time>
      </trkpt>
      <trkpt lat="36.9417450" lon="-2.4108440">
        <ele>238.0</ele>
        <time>2019-10-18T19:14:33Z</time>
      </trkpt>
      <trkpt lat="36.9417540" lon="-2.4108300">
        <ele>238.0</ele>
        <time>2019-10-18T19:14:34Z</time>
      </trkpt>
      <trkpt lat="36.9417630" lon="-2.4108140">
        <ele>238.0</ele>
        <time>2019-10-18T19:14:35Z</time>
      </trkpt>
      <trkpt lat="36.9417720" lon="-2.4107980">
        <ele>237.6</ele>
        <time>2019-10-18T19:14:36Z</time>
      </trkpt>
      <trkpt lat="36.9417810" lon="-2.4107840">
        <ele>237.6</ele>
        <time>2019-10-18T19:14:37Z</time>
      </trkpt>
      <trkpt lat="36.9417890" lon="-2.4107700">
        <ele>237.7</ele>
        <time>2019-10-18T19:14:38Z</time>
      </trkpt>
      <trkpt lat="36.9417970" lon="-2.4107550">
        <ele>237.8</ele>
        <time>2019-10-18T19:14:39Z</time>
      </trkpt>
      <trkpt lat="36.9418050" lon="-2.4107390">
        <ele>237.5</ele>
        <time>2019-10-18T19:14:40Z</time>
      </trkpt>
      <trkpt lat="36.9418130" lon="-2.4107240">
        <ele>237.6</ele>
        <time>2019-10-18T19:14:41Z</time>
      </trkpt>
      <trkpt lat="36.9418200" lon="-2.4107090">
        <ele>237.6</ele>
        <time>2019-10-18T19:14:42Z</time>
      </trkpt>
      <trkpt lat="36.9418260" lon="-2.4106940">
        <ele>237.6</ele>
        <time>2019-10-18T19:14:43Z</time>
      </trkpt>
      <trkpt lat="36.9418320" lon="-2.4106790">
        <ele>237.5</ele>
        <time>2019-10-18T19:14:44Z</time>
      </trkpt>
      <trkpt lat="36.9418370" lon="-2.4106620">
        <ele>237.5</ele>
        <time>2019-10-18T19:14:45Z</time>
      </trkpt>
      <trkpt lat="36.9418410" lon="-2.4106460">
        <ele>237.5</ele>
        <time>2019-10-18T19:14:46Z</time>
      </trkpt>
      <trkpt lat="36.9418460" lon="-2.4106330">
        <ele>237.6</ele>
        <time>2019-10-18T19:14:47Z</time>
      </trkpt>
      <trkpt lat="36.9418490" lon="-2.4106260">
        <ele>237.6</ele>
        <time>2019-10-18T19:14:48Z</time>
      </trkpt>
      <trkpt lat="36.9418510" lon="-2.4106240">
        <ele>237.6</ele>
        <time>2019-10-18T19:14:49Z</time>
      </trkpt>
      <trkpt lat="36.9418530" lon="-2.4106200">
        <ele>237.7</ele>
        <time>2019-10-18T19:14:50Z</time>
      </trkpt>
      <trkpt lat="36.9418550" lon="-2.4106130">
        <ele>237.7</ele>
        <time>2019-10-18T19:14:51Z</time>
      </trkpt>
      <trkpt lat="36.9418590" lon="-2.4106040">
        <ele>237.7</ele>
        <time>2019-10-18T19:14:52Z</time>
      </trkpt>
      <trkpt lat="36.9418630" lon="-2.4105960">
        <ele>237.8</ele>
        <time>2019-10-18T19:14:53Z</time>
      </trkpt>
      <trkpt lat="36.9418660" lon="-2.4105870">
        <ele>237.8</ele>
        <time>2019-10-18T19:14:54Z</time>
      </trkpt>
      <trkpt lat="36.9418670" lon="-2.4105790">
        <ele>237.7</ele>
        <time>2019-10-18T19:14:55Z</time>
      </trkpt>
      <trkpt lat="36.9418690" lon="-2.4105700">
        <ele>237.7</ele>
        <time>2019-10-18T19:14:56Z</time>
      </trkpt>
      <trkpt lat="36.9418700" lon="-2.4105620">
        <ele>237.8</ele>
        <time>2019-10-18T19:14:57Z</time>
      </trkpt>
      <trkpt lat="36.9418710" lon="-2.4105540">
        <ele>237.9</ele>
        <time>2019-10-18T19:14:58Z</time>
      </trkpt>
      <trkpt lat="36.9418710" lon="-2.4105450">
        <ele>237.9</ele>
        <time>2019-10-18T19:14:59Z</time>
      </trkpt>
      <trkpt lat="36.9418720" lon="-2.4105360">
        <ele>237.9</ele>
        <time>2019-10-18T19:15:00Z</time>
      </trkpt>
      <trkpt lat="36.9418720" lon="-2.4105280">
        <ele>237.9</ele>
        <time>2019-10-18T19:15:01Z</time>
      </trkpt>
      <trkpt lat="36.9418730" lon="-2.4105200">
        <ele>237.9</ele>
        <time>2019-10-18T19:15:02Z</time>
      </trkpt>
      <trkpt lat="36.9418740" lon="-2.4105110">
        <ele>238.1</ele>
        <time>2019-10-18T19:15:03Z</time>
      </trkpt>
      <trkpt lat="36.9418770" lon="-2.4105030">
        <ele>238.1</ele>
        <time>2019-10-18T19:15:04Z</time>
      </trkpt>
      <trkpt lat="36.9418800" lon="-2.4104950">
        <ele>238.1</ele>
        <time>2019-10-18T19:15:05Z</time>
      </trkpt>
      <trkpt lat="36.9418830" lon="-2.4104890">
        <ele>238.1</ele>
        <time>2019-10-18T19:15:06Z</time>
      </trkpt>
      <trkpt lat="36.9418850" lon="-2.4104850">
        <ele>238.1</ele>
        <time>2019-10-18T19:15:07Z</time>
      </trkpt>
      <trkpt lat="36.9418850" lon="-2.4104830">
        <ele>238.2</ele>
        <time>2019-10-18T19:15:08Z</time>
      </trkpt>
      <trkpt lat="36.9418860" lon="-2.4104760">
        <ele>238.2</ele>
        <time>2019-10-18T19:15:09Z</time>
      </trkpt>
      <trkpt lat="36.9418880" lon="-2.4104640">
        <ele>238.4</ele>
        <time>2019-10-18T19:15:10Z</time>
      </trkpt>
      <trkpt lat="36.9418880" lon="-2.4104460">
        <ele>238.4</ele>
        <time>2019-10-18T19:15:11Z</time>
      </trkpt>
      <trkpt lat="36.9418880" lon="-2.4104280">
        <ele>238.4</ele>
        <time>2019-10-18T19:15:12Z</time>
      </trkpt>
      <trkpt lat="36.9418880" lon="-2.4104090">
        <ele>238.6</ele>
        <time>2019-10-18T19:15:13Z</time>
      </trkpt>
      <trkpt lat="36.9418880" lon="-2.4103910">
        <ele>238.6</ele>
        <time>2019-10-18T19:15:14Z</time>
      </trkpt>
      <trkpt lat="36.9418890" lon="-2.4103710">
        <ele>238.9</ele>
        <time>2019-10-18T19:15:15Z</time>
      </trkpt>
      <trkpt lat="36.9418900" lon="-2.4103500">
        <ele>238.9</ele>
        <time>2019-10-18T19:15:16Z</time>
      </trkpt>
      <trkpt lat="36.9418920" lon="-2.4103290">
        <ele>239.1</ele>
        <time>2019-10-18T19:15:17Z</time>
      </trkpt>
      <trkpt lat="36.9418960" lon="-2.4103080">
        <ele>239.1</ele>
        <time>2019-10-18T19:15:18Z</time>
      </trkpt>
      <trkpt lat="36.9419010" lon="-2.4102870">
        <ele>239.4</ele>
        <time>2019-10-18T19:15:19Z</time>
      </trkpt>
      <trkpt lat="36.9419070" lon="-2.4102650">
        <ele>239.4</ele>
        <time>2019-10-18T19:15:20Z</time>
      </trkpt>
      <trkpt lat="36.9419150" lon="-2.4102420">
        <ele>239.6</ele>
        <time>2019-10-18T19:15:21Z</time>
      </trkpt>
      <trkpt lat="36.9419230" lon="-2.4102190">
        <ele>239.6</ele>
        <time>2019-10-18T19:15:22Z</time>
      </trkpt>
      <trkpt lat="36.9419310" lon="-2.4101970">
        <ele>239.8</ele>
        <time>2019-10-18T19:15:23Z</time>
      </trkpt>
      <trkpt lat="36.9419400" lon="-2.4101770">
        <ele>239.9</ele>
        <time>2019-10-18T19:15:24Z</time>
      </trkpt>
      <trkpt lat="36.9419500" lon="-2.4101590">
        <ele>240.1</ele>
        <time>2019-10-18T19:15:25Z</time>
      </trkpt>
      <trkpt lat="36.9419600" lon="-2.4101430">
        <ele>240.1</ele>
        <time>2019-10-18T19:15:26Z</time>
      </trkpt>
      <trkpt lat="36.9419730" lon="-2.4101290">
        <ele>240.1</ele>
        <time>2019-10-18T19:15:27Z</time>
      </trkpt>
      <trkpt lat="36.9419880" lon="-2.4101180">
        <ele>240.3</ele>
        <time>2019-10-18T19:15:28Z</time>
      </trkpt>
      <trkpt lat="36.9420040" lon="-2.4101070">
        <ele>240.4</ele>
        <time>2019-10-18T19:15:29Z</time>
      </trkpt>
      <trkpt lat="36.9420200" lon="-2.4100940">
        <ele>240.4</ele>
        <time>2019-10-18T19:15:30Z</time>
      </trkpt>
      <trkpt lat="36.9420360" lon="-2.4100820">
        <ele>240.5</ele>
        <time>2019-10-18T19:15:31Z</time>
      </trkpt>
      <trkpt lat="36.9420530" lon="-2.4100710">
        <ele>240.6</ele>
        <time>2019-10-18T19:15:32Z</time>
      </trkpt>
      <trkpt lat="36.9420690" lon="-2.4100600">
        <ele>240.6</ele>
        <time>2019-10-18T19:15:33Z</time>
      </trkpt>
      <trkpt lat="36.9420840" lon="-2.4100490">
        <ele>240.6</ele>
        <time>2019-10-18T19:15:34Z</time>
      </trkpt>
      <trkpt lat="36.9420990" lon="-2.4100370">
        <ele>240.8</ele>
        <time>2019-10-18T19:15:35Z</time>
      </trkpt>
      <trkpt lat="36.9421150" lon="-2.4100270">
        <ele>240.9</ele>
        <time>2019-10-18T19:15:36Z</time>
      </trkpt>
      <trkpt lat="36.9421320" lon="-2.4100160">
        <ele>240.9</ele>
        <time>2019-10-18T19:15:37Z</time>
      </trkpt>
      <trkpt lat="36.9421490" lon="-2.4100060">
        <ele>241.0</ele>
        <time>2019-10-18T19:15:38Z</time>
      </trkpt>
      <trkpt lat="36.9421670" lon="-2.4099950">
        <ele>241.2</ele>
        <time>2019-10-18T19:15:39Z</time>
      </trkpt>
      <trkpt lat="36.9421860" lon="-2.4099830">
        <ele>241.3</ele>
        <time>2019-10-18T19:15:40Z</time>
      </trkpt>
      <trkpt lat="36.9422040" lon="-2.4099690">
        <ele>241.3</ele>
        <time>2019-10-18T19:15:41Z</time>
      </trkpt>
      <trkpt lat="36.9422220" lon="-2.4099560">
        <ele>241.4</ele>
        <time>2019-10-18T19:15:42Z</time>
      </trkpt>
      <trkpt lat="36.9422370" lon="-2.4099450">
        <ele>241.6</ele>
        <time>2019-10-18T19:15:43Z</time>
      </trkpt>
      <trkpt lat="36.9422510" lon="-2.4099340">
        <ele>241.8</ele>
        <time>2019-10-18T19:15:44Z</time>
      </trkpt>
      <trkpt lat="36.9422630" lon="-2.4099230">
        <ele>241.8</ele>
        <time>2019-10-18T19:15:45Z</time>
      </trkpt>
      <trkpt lat="36.9422760" lon="-2.4099130">
        <ele>241.8</ele>
        <time>2019-10-18T19:15:46Z</time>
      </trkpt>
      <trkpt lat="36.9422890" lon="-2.4099040">
        <ele>242.1</ele>
        <time>2019-10-18T19:15:47Z</time>
      </trkpt>
      <trkpt lat="36.9423040" lon="-2.4098940">
        <ele>242.1</ele>
        <time>2019-10-18T19:15:48Z</time>
      </trkpt>
      <trkpt lat="36.9423190" lon="-2.4098830">
        <ele>242.3</ele>
        <time>2019-10-18T19:15:49Z</time>
      </trkpt>
      <trkpt lat="36.9423340" lon="-2.4098720">
        <ele>242.3</ele>
        <time>2019-10-18T19:15:50Z</time>
      </trkpt>
      <trkpt lat="36.9423500" lon="-2.4098610">
        <ele>242.8</ele>
        <time>2019-10-18T19:15:51Z</time>
      </trkpt>
      <trkpt lat="36.9423650" lon="-2.4098500">
        <ele>242.8</ele>
        <time>2019-10-18T19:15:52Z</time>
      </trkpt>
      <trkpt lat="36.9423790" lon="-2.4098410">
        <ele>242.8</ele>
        <time>2019-10-18T19:15:53Z</time>
      </trkpt>
      <trkpt lat="36.9423930" lon="-2.4098310">
        <ele>243.0</ele>
        <time>2019-10-18T19:15:54Z</time>
      </trkpt>
      <trkpt lat="36.9424070" lon="-2.4098220">
        <ele>243.3</ele>
        <time>2019-10-18T19:15:55Z</time>
      </trkpt>
      <trkpt lat="36.9424210" lon="-2.4098140">
        <ele>243.6</ele>
        <time>2019-10-18T19:15:56Z</time>
      </trkpt>
      <trkpt lat="36.9424360" lon="-2.4098050">
        <ele>243.6</ele>
        <time>2019-10-18T19:15:57Z</time>
      </trkpt>
      <trkpt lat="36.9424500" lon="-2.4097950">
        <ele>243.9</ele>
        <time>2019-10-18T19:15:58Z</time>
      </trkpt>
      <trkpt lat="36.9424630" lon="-2.4097830">
        <ele>243.9</ele>
        <time>2019-10-18T19:15:59Z</time>
      </trkpt>
      <trkpt lat="36.9424760" lon="-2.4097710">
        <ele>244.1</ele>
        <time>2019-10-18T19:16:00Z</time>
      </trkpt>
      <trkpt lat="36.9424890" lon="-2.4097580">
        <ele>244.5</ele>
        <time>2019-10-18T19:16:01Z</time>
      </trkpt>
      <trkpt lat="36.9425000" lon="-2.4097460">
        <ele>244.5</ele>
        <time>2019-10-18T19:16:02Z</time>
      </trkpt>
      <trkpt lat="36.9425090" lon="-2.4097320">
        <ele>244.7</ele>
        <time>2019-10-18T19:16:03Z</time>
      </trkpt>
      <trkpt lat="36.9425160" lon="-2.4097180">
        <ele>244.7</ele>
        <time>2019-10-18T19:16:04Z</time>
      </trkpt>
      <trkpt lat="36.9425230" lon="-2.4097040">
        <ele>245.0</ele>
        <time>2019-10-18T19:16:05Z</time>
      </trkpt>
      <trkpt lat="36.9425320" lon="-2.4096880">
        <ele>245.2</ele>
        <time>2019-10-18T19:16:06Z</time>
      </trkpt>
      <trkpt lat="36.9425410" lon="-2.4096720">
        <ele>245.2</ele>
        <time>2019-10-18T19:16:07Z</time>
      </trkpt>
      <trkpt lat="36.9425490" lon="-2.4096550">
        <ele>245.2</ele>
        <time>2019-10-18T19:16:08Z</time>
      </trkpt>
      <trkpt lat="36.9425580" lon="-2.4096380">
        <ele>245.6</ele>
        <time>2019-10-18T19:16:09Z</time>
      </trkpt>
      <trkpt lat="36.9425670" lon="-2.4096220">
        <ele>245.6</ele>
        <time>2019-10-18T19:16:10Z</time>
      </trkpt>
      <trkpt lat="36.9425780" lon="-2.4096050">
        <ele>245.8</ele>
        <time>2019-10-18T19:16:11Z</time>
      </trkpt>
      <trkpt lat="36.9425860" lon="-2.4095890">
        <ele>245.8</ele>
        <time>2019-10-18T19:16:12Z</time>
      </trkpt>
      <trkpt lat="36.9425930" lon="-2.4095730">
        <ele>246.0</ele>
        <time>2019-10-18T19:16:13Z</time>
      </trkpt>
      <trkpt lat="36.9426010" lon="-2.4095580">
        <ele>246.2</ele>
        <time>2019-10-18T19:16:14Z</time>
      </trkpt>
      <trkpt lat="36.9426100" lon="-2.4095430">
        <ele>246.2</ele>
        <time>2019-10-18T19:16:15Z</time>
      </trkpt>
      <trkpt lat="36.9426200" lon="-2.4095270">
        <ele>246.2</ele>
        <time>2019-10-18T19:16:16Z</time>
      </trkpt>
      <trkpt lat="36.9426300" lon="-2.4095110">
        <ele>246.5</ele>
        <time>2019-10-18T19:16:17Z</time>
      </trkpt>
      <trkpt lat="36.9426400" lon="-2.4094960">
        <ele>246.5</ele>
        <time>2019-10-18T19:16:18Z</time>
      </trkpt>
      <trkpt lat="36.9426510" lon="-2.4094820">
        <ele>246.7</ele>
        <time>2019-10-18T19:16:19Z</time>
      </trkpt>
      <trkpt lat="36.9426630" lon="-2.4094700">
        <ele>246.9</ele>
        <time>2019-10-18T19:16:20Z</time>
      </trkpt>
      <trkpt lat="36.9426770" lon="-2.4094600">
        <ele>246.9</ele>
        <time>2019-10-18T19:16:21Z</time>
      </trkpt>
      <trkpt lat="36.9426910" lon="-2.4094520">
        <ele>247.1</ele>
        <time>2019-10-18T19:16:22Z</time>
      </trkpt>
      <trkpt lat="36.9427070" lon="-2.4094460">
        <ele>247.1</ele>
        <time>2019-10-18T19:16:23Z</time>
      </trkpt>
      <trkpt lat="36.9427220" lon="-2.4094400">
        <ele>247.1</ele>
        <time>2019-10-18T19:16:24Z</time>
      </trkpt>
      <trkpt lat="36.9427380" lon="-2.4094330">
        <ele>247.5</ele>
        <time>2019-10-18T19:16:25Z</time>
      </trkpt>
      <trkpt lat="36.9427530" lon="-2.4094240">
        <ele>247.5</ele>
        <time>2019-10-18T19:16:26Z</time>
      </trkpt>
      <trkpt lat="36.9427670" lon="-2.4094130">
        <ele>247.7</ele>
        <time>2019-10-18T19:16:27Z</time>
      </trkpt>
      <trkpt lat="36.9427810" lon="-2.4094020">
        <ele>247.7</ele>
        <time>2019-10-18T19:16:28Z</time>
      </trkpt>
      <trkpt lat="36.9427940" lon="-2.4093920">
        <ele>248.2</ele>
        <time>2019-10-18T19:16:29Z</time>
      </trkpt>
      <trkpt lat="36.9428080" lon="-2.4093830">
        <ele>248.2</ele>
        <time>2019-10-18T19:16:30Z</time>
      </trkpt>
      <trkpt lat="36.9428220" lon="-2.4093740">
        <ele>248.2</ele>
        <time>2019-10-18T19:16:31Z</time>
      </trkpt>
      <trkpt lat="36.9428380" lon="-2.4093640">
        <ele>248.4</ele>
        <time>2019-10-18T19:16:32Z</time>
      </trkpt>
      <trkpt lat="36.9428530" lon="-2.4093520">
        <ele>248.6</ele>
        <time>2019-10-18T19:16:33Z</time>
      </trkpt>
      <trkpt lat="36.9428680" lon="-2.4093400">
        <ele>248.9</ele>
        <time>2019-10-18T19:16:34Z</time>
      </trkpt>
      <trkpt lat="36.9428820" lon="-2.4093270">
        <ele>248.9</ele>
        <time>2019-10-18T19:16:35Z</time>
      </trkpt>
      <trkpt lat="36.9428960" lon="-2.4093150">
        <ele>249.2</ele>
        <time>2019-10-18T19:16:36Z</time>
      </trkpt>
      <trkpt lat="36.9429100" lon="-2.4093020">
        <ele>249.3</ele>
        <time>2019-10-18T19:16:37Z</time>
      </trkpt>
      <trkpt lat="36.9429240" lon="-2.4092880">
        <ele>249.3</ele>
        <time>2019-10-18T19:16:38Z</time>
      </trkpt>
      <trkpt lat="36.9429380" lon="-2.4092750">
        <ele>249.6</ele>
        <time>2019-10-18T19:16:39Z</time>
      </trkpt>
      <trkpt lat="36.9429520" lon="-2.4092610">
        <ele>249.8</ele>
        <time>2019-10-18T19:16:40Z</time>
      </trkpt>
      <trkpt lat="36.9429660" lon="-2.4092460">
        <ele>250.1</ele>
        <time>2019-10-18T19:16:41Z</time>
      </trkpt>
      <trkpt lat="36.9429810" lon="-2.4092310">
        <ele>250.1</ele>
        <time>2019-10-18T19:16:42Z</time>
      </trkpt>
      <trkpt lat="36.9429950" lon="-2.4092160">
        <ele>250.2</ele>
        <time>2019-10-18T19:16:43Z</time>
      </trkpt>
      <trkpt lat="36.9430080" lon="-2.4092010">
        <ele>250.6</ele>
        <time>2019-10-18T19:16:44Z</time>
      </trkpt>
      <trkpt lat="36.9430210" lon="-2.4091860">
        <ele>250.6</ele>
        <time>2019-10-18T19:16:45Z</time>
      </trkpt>
      <trkpt lat="36.9430340" lon="-2.4091710">
        <ele>251.2</ele>
        <time>2019-10-18T19:16:46Z</time>
      </trkpt>
      <trkpt lat="36.9430470" lon="-2.4091560">
        <ele>251.2</ele>
        <time>2019-10-18T19:16:47Z</time>
      </trkpt>
      <trkpt lat="36.9430590" lon="-2.4091410">
        <ele>251.2</ele>
        <time>2019-10-18T19:16:48Z</time>
      </trkpt>
      <trkpt lat="36.9430720" lon="-2.4091240">
        <ele>251.7</ele>
        <time>2019-10-18T19:16:49Z</time>
      </trkpt>
      <trkpt lat="36.9430840" lon="-2.4091070">
        <ele>251.7</ele>
        <time>2019-10-18T19:16:50Z</time>
      </trkpt>
      <trkpt lat="36.9430960" lon="-2.4090900">
        <ele>251.9</ele>
        <time>2019-10-18T19:16:51Z</time>
      </trkpt>
      <trkpt lat="36.9431080" lon="-2.4090740">
        <ele>252.3</ele>
        <time>2019-10-18T19:16:52Z</time>
      </trkpt>
      <trkpt lat="36.9431180" lon="-2.4090610">
        <ele>252.3</ele>
        <time>2019-10-18T19:16:53Z</time>
      </trkpt>
      <trkpt lat="36.9431280" lon="-2.4090500">
        <ele>252.6</ele>
        <time>2019-10-18T19:16:54Z</time>
      </trkpt>
      <trkpt lat="36.9431390" lon="-2.4090380">
        <ele>252.9</ele>
        <time>2019-10-18T19:16:55Z</time>
      </trkpt>
      <trkpt lat="36.9431510" lon="-2.4090200">
        <ele>252.9</ele>
        <time>2019-10-18T19:16:56Z</time>
      </trkpt>
      <trkpt lat="36.9431620" lon="-2.4090010">
        <ele>253.2</ele>
        <time>2019-10-18T19:16:57Z</time>
      </trkpt>
      <trkpt lat="36.9431710" lon="-2.4089820">
        <ele>253.5</ele>
        <time>2019-10-18T19:16:58Z</time>
      </trkpt>
      <trkpt lat="36.9431800" lon="-2.4089640">
        <ele>253.8</ele>
        <time>2019-10-18T19:16:59Z</time>
      </trkpt>
      <trkpt lat="36.9431880" lon="-2.4089480">
        <ele>253.8</ele>
        <time>2019-10-18T19:17:00Z</time>
      </trkpt>
      <trkpt lat="36.9431970" lon="-2.4089330">
        <ele>253.8</ele>
        <time>2019-10-18T19:17:01Z</time>
      </trkpt>
      <trkpt lat="36.9432070" lon="-2.4089180">
        <ele>254.4</ele>
        <time>2019-10-18T19:17:02Z</time>
      </trkpt>
      <trkpt lat="36.9432170" lon="-2.4089020">
        <ele>254.4</ele>
        <time>2019-10-18T19:17:03Z</time>
      </trkpt>
      <trkpt lat="36.9432290" lon="-2.4088840">
        <ele>254.4</ele>
        <time>2019-10-18T19:17:04Z</time>
      </trkpt>
      <trkpt lat="36.9432400" lon="-2.4088650">
        <ele>255.0</ele>
        <time>2019-10-18T19:17:05Z</time>
      </trkpt>
      <trkpt lat="36.9432510" lon="-2.4088460">
        <ele>255.0</ele>
        <time>2019-10-18T19:17:06Z</time>
      </trkpt>
      <trkpt lat="36.9432610" lon="-2.4088280">
        <ele>255.2</ele>
        <time>2019-10-18T19:17:07Z</time>
      </trkpt>
      <trkpt lat="36.9432720" lon="-2.4088090">
        <ele>255.2</ele>
        <time>2019-10-18T19:17:08Z</time>
      </trkpt>
      <trkpt lat="36.9432820" lon="-2.4087910">
        <ele>255.7</ele>
        <time>2019-10-18T19:17:09Z</time>
      </trkpt>
      <trkpt lat="36.9432930" lon="-2.4087740">
        <ele>255.7</ele>
        <time>2019-10-18T19:17:10Z</time>
      </trkpt>
      <trkpt lat="36.9433060" lon="-2.4087560">
        <ele>255.7</ele>
        <time>2019-10-18T19:17:11Z</time>
      </trkpt>
      <trkpt lat="36.9433190" lon="-2.4087380">
        <ele>256.1</ele>
        <time>2019-10-18T19:17:12Z</time>
      </trkpt>
      <trkpt lat="36.9433330" lon="-2.4087190">
        <ele>256.1</ele>
        <time>2019-10-18T19:17:13Z</time>
      </trkpt>
      <trkpt lat="36.9433460" lon="-2.4087010">
        <ele>256.6</ele>
        <time>2019-10-18T19:17:14Z</time>
      </trkpt>
      <trkpt lat="36.9433600" lon="-2.4086850">
        <ele>256.6</ele>
        <time>2019-10-18T19:17:15Z</time>
      </trkpt>
      <trkpt lat="36.9433740" lon="-2.4086710">
        <ele>256.6</ele>
        <time>2019-10-18T19:17:16Z</time>
      </trkpt>
      <trkpt lat="36.9433870" lon="-2.4086570">
        <ele>257.1</ele>
        <time>2019-10-18T19:17:17Z</time>
      </trkpt>
      <trkpt lat="36.9434020" lon="-2.4086430">
        <ele>257.1</ele>
        <time>2019-10-18T19:17:18Z</time>
      </trkpt>
      <trkpt lat="36.9434190" lon="-2.4086300">
        <ele>257.4</ele>
        <time>2019-10-18T19:17:19Z</time>
      </trkpt>
      <trkpt lat="36.9434360" lon="-2.4086190">
        <ele>257.6</ele>
        <time>2019-10-18T19:17:20Z</time>
      </trkpt>
      <trkpt lat="36.9434550" lon="-2.4086060">
        <ele>257.9</ele>
        <time>2019-10-18T19:17:21Z</time>
      </trkpt>
      <trkpt lat="36.9434750" lon="-2.4085930">
        <ele>257.9</ele>
        <time>2019-10-18T19:17:22Z</time>
      </trkpt>
      <trkpt lat="36.9434950" lon="-2.4085790">
        <ele>258.5</ele>
        <time>2019-10-18T19:17:23Z</time>
      </trkpt>
      <trkpt lat="36.9435140" lon="-2.4085650">
        <ele>258.8</ele>
        <time>2019-10-18T19:17:24Z</time>
      </trkpt>
      <trkpt lat="36.9435340" lon="-2.4085520">
        <ele>258.8</ele>
        <time>2019-10-18T19:17:25Z</time>
      </trkpt>
      <trkpt lat="36.9435550" lon="-2.4085390">
        <ele>259.1</ele>
        <time>2019-10-18T19:17:26Z</time>
      </trkpt>
      <trkpt lat="36.9435760" lon="-2.4085280">
        <ele>259.3</ele>
        <time>2019-10-18T19:17:27Z</time>
      </trkpt>
      <trkpt lat="36.9436000" lon="-2.4085190">
        <ele>259.6</ele>
        <time>2019-10-18T19:17:28Z</time>
      </trkpt>
      <trkpt lat="36.9436240" lon="-2.4085120">
        <ele>259.9</ele>
        <time>2019-10-18T19:17:29Z</time>
      </trkpt>
      <trkpt lat="36.9436490" lon="-2.4085060">
        <ele>259.9</ele>
        <time>2019-10-18T19:17:30Z</time>
      </trkpt>
      <trkpt lat="36.9436730" lon="-2.4085020">
        <ele>260.1</ele>
        <time>2019-10-18T19:17:31Z</time>
      </trkpt>
      <trkpt lat="36.9436960" lon="-2.4084990">
        <ele>260.3</ele>
        <time>2019-10-18T19:17:32Z</time>
      </trkpt>
      <trkpt lat="36.9437190" lon="-2.4084970">
        <ele>260.5</ele>
        <time>2019-10-18T19:17:33Z</time>
      </trkpt>
      <trkpt lat="36.9437410" lon="-2.4084950">
        <ele>260.5</ele>
        <time>2019-10-18T19:17:34Z</time>
      </trkpt>
      <trkpt lat="36.9437620" lon="-2.4084910">
        <ele>260.9</ele>
        <time>2019-10-18T19:17:35Z</time>
      </trkpt>
      <trkpt lat="36.9437830" lon="-2.4084850">
        <ele>260.9</ele>
        <time>2019-10-18T19:17:36Z</time>
      </trkpt>
      <trkpt lat="36.9438030" lon="-2.4084750">
        <ele>261.1</ele>
        <time>2019-10-18T19:17:37Z</time>
      </trkpt>
      <trkpt lat="36.9438220" lon="-2.4084620">
        <ele>261.4</ele>
        <time>2019-10-18T19:17:38Z</time>
      </trkpt>
      <trkpt lat="36.9438410" lon="-2.4084480">
        <ele>261.5</ele>
        <time>2019-10-18T19:17:39Z</time>
      </trkpt>
      <trkpt lat="36.9438590" lon="-2.4084340">
        <ele>261.7</ele>
        <time>2019-10-18T19:17:40Z</time>
      </trkpt>
      <trkpt lat="36.9438780" lon="-2.4084180">
        <ele>261.7</ele>
        <time>2019-10-18T19:17:41Z</time>
      </trkpt>
      <trkpt lat="36.9438970" lon="-2.4084030">
        <ele>262.0</ele>
        <time>2019-10-18T19:17:42Z</time>
      </trkpt>
      <trkpt lat="36.9439150" lon="-2.4083870">
        <ele>262.0</ele>
        <time>2019-10-18T19:17:43Z</time>
      </trkpt>
      <trkpt lat="36.9439340" lon="-2.4083720">
        <ele>262.2</ele>
        <time>2019-10-18T19:17:44Z</time>
      </trkpt>
      <trkpt lat="36.9439530" lon="-2.4083570">
        <ele>262.3</ele>
        <time>2019-10-18T19:17:45Z</time>
      </trkpt>
      <trkpt lat="36.9439730" lon="-2.4083440">
        <ele>262.4</ele>
        <time>2019-10-18T19:17:46Z</time>
      </trkpt>
      <trkpt lat="36.9439940" lon="-2.4083300">
        <ele>262.5</ele>
        <time>2019-10-18T19:17:47Z</time>
      </trkpt>
      <trkpt lat="36.9440150" lon="-2.4083170">
        <ele>262.5</ele>
        <time>2019-10-18T19:17:48Z</time>
      </trkpt>
      <trkpt lat="36.9440370" lon="-2.4083040">
        <ele>262.6</ele>
        <time>2019-10-18T19:17:49Z</time>
      </trkpt>
      <trkpt lat="36.9440590" lon="-2.4082920">
        <ele>262.6</ele>
        <time>2019-10-18T19:17:50Z</time>
      </trkpt>
      <trkpt lat="36.9440800" lon="-2.4082810">
        <ele>262.7</ele>
        <time>2019-10-18T19:17:51Z</time>
      </trkpt>
      <trkpt lat="36.9441020" lon="-2.4082700">
        <ele>262.7</ele>
        <time>2019-10-18T19:17:52Z</time>
      </trkpt>
      <trkpt lat="36.9441250" lon="-2.4082600">
        <ele>262.7</ele>
        <time>2019-10-18T19:17:53Z</time>
      </trkpt>
      <trkpt lat="36.9441480" lon="-2.4082490">
        <ele>262.7</ele>
        <time>2019-10-18T19:17:54Z</time>
      </trkpt>
      <trkpt lat="36.9441710" lon="-2.4082380">
        <ele>262.7</ele>
        <time>2019-10-18T19:17:55Z</time>
      </trkpt>
      <trkpt lat="36.9441930" lon="-2.4082280">
        <ele>262.8</ele>
        <time>2019-10-18T19:17:56Z</time>
      </trkpt>
      <trkpt lat="36.9442150" lon="-2.4082200">
        <ele>262.8</ele>
        <time>2019-10-18T19:17:57Z</time>
      </trkpt>
      <trkpt lat="36.9442370" lon="-2.4082120">
        <ele>262.8</ele>
        <time>2019-10-18T19:17:58Z</time>
      </trkpt>
      <trkpt lat="36.9442580" lon="-2.4082040">
        <ele>262.8</ele>
        <time>2019-10-18T19:17:59Z</time>
      </trkpt>
      <trkpt lat="36.9442800" lon="-2.4081960">
        <ele>262.8</ele>
        <time>2019-10-18T19:18:00Z</time>
      </trkpt>
      <trkpt lat="36.9443020" lon="-2.4081890">
        <ele>262.8</ele>
        <time>2019-10-18T19:18:01Z</time>
      </trkpt>
      <trkpt lat="36.9443240" lon="-2.4081810">
        <ele>262.8</ele>
        <time>2019-10-18T19:18:02Z</time>
      </trkpt>
      <trkpt lat="36.9443460" lon="-2.4081720">
        <ele>262.9</ele>
        <time>2019-10-18T19:18:03Z</time>
      </trkpt>
      <trkpt lat="36.9443670" lon="-2.4081630">
        <ele>262.9</ele>
        <time>2019-10-18T19:18:04Z</time>
      </trkpt>
      <trkpt lat="36.9443880" lon="-2.4081540">
        <ele>262.9</ele>
        <time>2019-10-18T19:18:05Z</time>
      </trkpt>
      <trkpt lat="36.9444080" lon="-2.4081440">
        <ele>263.0</ele>
        <time>2019-10-18T19:18:06Z</time>
      </trkpt>
      <trkpt lat="36.9444280" lon="-2.4081330">
        <ele>263.0</ele>
        <time>2019-10-18T19:18:07Z</time>
      </trkpt>
      <trkpt lat="36.9444470" lon="-2.4081210">
        <ele>263.1</ele>
        <time>2019-10-18T19:18:08Z</time>
      </trkpt>
      <trkpt lat="36.9444680" lon="-2.4081070">
        <ele>263.1</ele>
        <time>2019-10-18T19:18:09Z</time>
      </trkpt>
      <trkpt lat="36.9444890" lon="-2.4080930">
        <ele>263.2</ele>
        <time>2019-10-18T19:18:10Z</time>
      </trkpt>
      <trkpt lat="36.9445100" lon="-2.4080790">
        <ele>263.2</ele>
        <time>2019-10-18T19:18:11Z</time>
      </trkpt>
      <trkpt lat="36.9445280" lon="-2.4080670">
        <ele>263.2</ele>
        <time>2019-10-18T19:18:12Z</time>
      </trkpt>
      <trkpt lat="36.9445470" lon="-2.4080550">
        <ele>263.3</ele>
        <time>2019-10-18T19:18:13Z</time>
      </trkpt>
      <trkpt lat="36.9445660" lon="-2.4080430">
        <ele>263.3</ele>
        <time>2019-10-18T19:18:14Z</time>
      </trkpt>
      <trkpt lat="36.9445850" lon="-2.4080310">
        <ele>263.4</ele>
        <time>2019-10-18T19:18:15Z</time>
      </trkpt>
      <trkpt lat="36.9446030" lon="-2.4080190">
        <ele>263.4</ele>
        <time>2019-10-18T19:18:16Z</time>
      </trkpt>
      <trkpt lat="36.9446210" lon="-2.4080070">
        <ele>263.5</ele>
        <time>2019-10-18T19:18:17Z</time>
      </trkpt>
      <trkpt lat="36.9446390" lon="-2.4079920">
        <ele>263.5</ele>
        <time>2019-10-18T19:18:18Z</time>
      </trkpt>
      <trkpt lat="36.9446590" lon="-2.4079750">
        <ele>263.6</ele>
        <time>2019-10-18T19:18:19Z</time>
      </trkpt>
      <trkpt lat="36.9446780" lon="-2.4079580">
        <ele>263.6</ele>
        <time>2019-10-18T19:18:20Z</time>
      </trkpt>
      <trkpt lat="36.9446960" lon="-2.4079420">
        <ele>263.7</ele>
        <time>2019-10-18T19:18:21Z</time>
      </trkpt>
      <trkpt lat="36.9447140" lon="-2.4079270">
        <ele>263.8</ele>
        <time>2019-10-18T19:18:22Z</time>
      </trkpt>
      <trkpt lat="36.9447330" lon="-2.4079130">
        <ele>263.8</ele>
        <time>2019-10-18T19:18:23Z</time>
      </trkpt>
      <trkpt lat="36.9447550" lon="-2.4078980">
        <ele>264.0</ele>
        <time>2019-10-18T19:18:24Z</time>
      </trkpt>
      <trkpt lat="36.9447760" lon="-2.4078820">
        <ele>264.0</ele>
        <time>2019-10-18T19:18:25Z</time>
      </trkpt>
      <trkpt lat="36.9447970" lon="-2.4078670">
        <ele>264.1</ele>
        <time>2019-10-18T19:18:26Z</time>
      </trkpt>
      <trkpt lat="36.9448160" lon="-2.4078530">
        <ele>264.2</ele>
        <time>2019-10-18T19:18:27Z</time>
      </trkpt>
      <trkpt lat="36.9448320" lon="-2.4078390">
        <ele>264.2</ele>
        <time>2019-10-18T19:18:28Z</time>
      </trkpt>
      <trkpt lat="36.9448450" lon="-2.4078260">
        <ele>264.2</ele>
        <time>2019-10-18T19:18:29Z</time>
      </trkpt>
      <trkpt lat="36.9448540" lon="-2.4078190">
        <ele>264.4</ele>
        <time>2019-10-18T19:18:30Z</time>
      </trkpt>
      <trkpt lat="36.9448590" lon="-2.4078150">
        <ele>264.4</ele>
        <time>2019-10-18T19:18:31Z</time>
      </trkpt>
      <trkpt lat="36.9448620" lon="-2.4078150">
        <ele>264.4</ele>
        <time>2019-10-18T19:18:32Z</time>
      </trkpt>
      <trkpt lat="36.9448630" lon="-2.4078130">
        <ele>264.4</ele>
        <time>2019-10-18T19:18:33Z</time>
      </trkpt>
      <trkpt lat="36.9448640" lon="-2.4078130">
        <ele>264.4</ele>
        <time>2019-10-18T19:18:34Z</time>
      </trkpt>
      <trkpt lat="36.9448640" lon="-2.4078130">
        <ele>264.4</ele>
        <time>2019-10-18T19:18:35Z</time>
      </trkpt>
      <trkpt lat="36.9448640" lon="-2.4078130">
        <ele>264.4</ele>
        <time>2019-10-18T19:18:36Z</time>
      </trkpt>
      <trkpt lat="36.9448640" lon="-2.4078130">
        <ele>264.4</ele>
        <time>2019-10-18T19:18:37Z</time>
      </trkpt>
      <trkpt lat="36.9448640" lon="-2.4078130">
        <ele>264.4</ele>
        <time>2019-10-18T19:18:38Z</time>
      </trkpt>
      <trkpt lat="36.9448640" lon="-2.4078130">
        <ele>264.4</ele>
        <time>2019-10-18T19:18:39Z</time>
      </trkpt>
      <trkpt lat="36.9448650" lon="-2.4078130">
        <ele>264.4</ele>
        <time>2019-10-18T19:18:40Z</time>
      </trkpt>
      <trkpt lat="36.9448650" lon="-2.4078130">
        <ele>264.4</ele>
        <time>2019-10-18T19:18:41Z</time>
      </trkpt>
      <trkpt lat="36.9448650" lon="-2.4078130">
        <ele>264.4</ele>
        <time>2019-10-18T19:18:42Z</time>
      </trkpt>
      <trkpt lat="36.9448650" lon="-2.4078130">
        <ele>264.4</ele>
        <time>2019-10-18T19:18:43Z</time>
      </trkpt>
      <trkpt lat="36.9448650" lon="-2.4078130">
        <ele>264.4</ele>
        <time>2019-10-18T19:18:44Z</time>
      </trkpt>
      <trkpt lat="36.9448650" lon="-2.4078140">
        <ele>264.4</ele>
        <time>2019-10-18T19:18:45Z</time>
      </trkpt>
      <trkpt lat="36.9448650" lon="-2.4078140">
        <ele>264.4</ele>
        <time>2019-10-18T19:18:46Z</time>
      </trkpt>
      <trkpt lat="36.9448650" lon="-2.4078140">
        <ele>264.4</ele>
        <time>2019-10-18T19:18:47Z</time>
      </trkpt>
      <trkpt lat="36.9448650" lon="-2.4078140">
        <ele>264.4</ele>
        <time>2019-10-18T19:18:48Z</time>
      </trkpt>
      <trkpt lat="36.9448650" lon="-2.4078140">
        <ele>264.4</ele>
        <time>2019-10-18T19:18:49Z</time>
      </trkpt>
      <trkpt lat="36.9448640" lon="-2.4078140">
        <ele>264.4</ele>
        <time>2019-10-18T19:18:50Z</time>
      </trkpt>
      <trkpt lat="36.9448640" lon="-2.4078150">
        <ele>264.4</ele>
        <time>2019-10-18T19:18:51Z</time>
      </trkpt>
      <trkpt lat="36.9448630" lon="-2.4078150">
        <ele>264.4</ele>
        <time>2019-10-18T19:18:52Z</time>
      </trkpt>
      <trkpt lat="36.9448620" lon="-2.4078160">
        <ele>264.4</ele>
        <time>2019-10-18T19:18:53Z</time>
      </trkpt>
      <trkpt lat="36.9448620" lon="-2.4078170">
        <ele>264.4</ele>
        <time>2019-10-18T19:18:54Z</time>
      </trkpt>
      <trkpt lat="36.9448620" lon="-2.4078170">
        <ele>264.4</ele>
        <time>2019-10-18T19:18:55Z</time>
      </trkpt>
      <trkpt lat="36.9448620" lon="-2.4078170">
        <ele>264.4</ele>
        <time>2019-10-18T19:18:56Z</time>
      </trkpt>
      <trkpt lat="36.9448620" lon="-2.4078170">
        <ele>264.4</ele>
        <time>2019-10-18T19:18:57Z</time>
      </trkpt>
      <trkpt lat="36.9448630" lon="-2.4078170">
        <ele>264.4</ele>
        <time>2019-10-18T19:18:58Z</time>
      </trkpt>
      <trkpt lat="36.9448640" lon="-2.4078170">
        <ele>264.4</ele>
        <time>2019-10-18T19:18:59Z</time>
      </trkpt>
      <trkpt lat="36.9448650" lon="-2.4078170">
        <ele>264.4</ele>
        <time>2019-10-18T19:19:00Z</time>
      </trkpt>
      <trkpt lat="36.9448650" lon="-2.4078170">
        <ele>264.4</ele>
        <time>2019-10-18T19:19:01Z</time>
      </trkpt>
      <trkpt lat="36.9448660" lon="-2.4078160">
        <ele>264.4</ele>
        <time>2019-10-18T19:19:02Z</time>
      </trkpt>
      <trkpt lat="36.9448670" lon="-2.4078140">
        <ele>264.4</ele>
        <time>2019-10-18T19:19:03Z</time>
      </trkpt>
      <trkpt lat="36.9448690" lon="-2.4078080">
        <ele>264.4</ele>
        <time>2019-10-18T19:19:04Z</time>
      </trkpt>
      <trkpt lat="36.9448720" lon="-2.4078000">
        <ele>264.4</ele>
        <time>2019-10-18T19:19:05Z</time>
      </trkpt>
      <trkpt lat="36.9448770" lon="-2.4077900">
        <ele>264.4</ele>
        <time>2019-10-18T19:19:06Z</time>
      </trkpt>
      <trkpt lat="36.9448830" lon="-2.4077770">
        <ele>264.4</ele>
        <time>2019-10-18T19:19:07Z</time>
      </trkpt>
      <trkpt lat="36.9448920" lon="-2.4077630">
        <ele>264.5</ele>
        <time>2019-10-18T19:19:08Z</time>
      </trkpt>
      <trkpt lat="36.9449030" lon="-2.4077490">
        <ele>264.5</ele>
        <time>2019-10-18T19:19:09Z</time>
      </trkpt>
      <trkpt lat="36.9449150" lon="-2.4077380">
        <ele>264.5</ele>
        <time>2019-10-18T19:19:10Z</time>
      </trkpt>
      <trkpt lat="36.9449280" lon="-2.4077280">
        <ele>264.7</ele>
        <time>2019-10-18T19:19:11Z</time>
      </trkpt>
      <trkpt lat="36.9449430" lon="-2.4077170">
        <ele>264.7</ele>
        <time>2019-10-18T19:19:12Z</time>
      </trkpt>
      <trkpt lat="36.9449580" lon="-2.4077060">
        <ele>264.9</ele>
        <time>2019-10-18T19:19:13Z</time>
      </trkpt>
      <trkpt lat="36.9449750" lon="-2.4076930">
        <ele>264.9</ele>
        <time>2019-10-18T19:19:14Z</time>
      </trkpt>
      <trkpt lat="36.9449920" lon="-2.4076800">
        <ele>265.1</ele>
        <time>2019-10-18T19:19:15Z</time>
      </trkpt>
      <trkpt lat="36.9450090" lon="-2.4076660">
        <ele>265.1</ele>
        <time>2019-10-18T19:19:16Z</time>
      </trkpt>
      <trkpt lat="36.9450230" lon="-2.4076510">
        <ele>265.3</ele>
        <time>2019-10-18T19:19:17Z</time>
      </trkpt>
      <trkpt lat="36.9450370" lon="-2.4076370">
        <ele>265.3</ele>
        <time>2019-10-18T19:19:18Z</time>
      </trkpt>
      <trkpt lat="36.9450520" lon="-2.4076230">
        <ele>265.4</ele>
        <time>2019-10-18T19:19:19Z</time>
      </trkpt>
      <trkpt lat="36.9450680" lon="-2.4076090">
        <ele>265.6</ele>
        <time>2019-10-18T19:19:20Z</time>
      </trkpt>
      <trkpt lat="36.9450850" lon="-2.4075950">
        <ele>265.6</ele>
        <time>2019-10-18T19:19:21Z</time>
      </trkpt>
      <trkpt lat="36.9451020" lon="-2.4075820">
        <ele>265.9</ele>
        <time>2019-10-18T19:19:22Z</time>
      </trkpt>
      <trkpt lat="36.9451190" lon="-2.4075710">
        <ele>265.9</ele>
        <time>2019-10-18T19:19:23Z</time>
      </trkpt>
      <trkpt lat="36.9451350" lon="-2.4075590">
        <ele>266.1</ele>
        <time>2019-10-18T19:19:24Z</time>
      </trkpt>
      <trkpt lat="36.9451480" lon="-2.4075440">
        <ele>266.2</ele>
        <time>2019-10-18T19:19:25Z</time>
      </trkpt>
      <trkpt lat="36.9451610" lon="-2.4075290">
        <ele>266.4</ele>
        <time>2019-10-18T19:19:26Z</time>
      </trkpt>
      <trkpt lat="36.9451760" lon="-2.4075130">
        <ele>266.4</ele>
        <time>2019-10-18T19:19:27Z</time>
      </trkpt>
      <trkpt lat="36.9451930" lon="-2.4074970">
        <ele>266.4</ele>
        <time>2019-10-18T19:19:28Z</time>
      </trkpt>
      <trkpt lat="36.9452110" lon="-2.4074840">
        <ele>266.7</ele>
        <time>2019-10-18T19:19:29Z</time>
      </trkpt>
      <trkpt lat="36.9452270" lon="-2.4074710">
        <ele>266.7</ele>
        <time>2019-10-18T19:19:30Z</time>
      </trkpt>
      <trkpt lat="36.9452430" lon="-2.4074570">
        <ele>267.0</ele>
        <time>2019-10-18T19:19:31Z</time>
      </trkpt>
      <trkpt lat="36.9452590" lon="-2.4074410">
        <ele>267.0</ele>
        <time>2019-10-18T19:19:32Z</time>
      </trkpt>
      <trkpt lat="36.9452770" lon="-2.4074230">
        <ele>267.2</ele>
        <time>2019-10-18T19:19:33Z</time>
      </trkpt>
      <trkpt lat="36.9452950" lon="-2.4074050">
        <ele>267.2</ele>
        <time>2019-10-18T19:19:34Z</time>
      </trkpt>
      <trkpt lat="36.9453120" lon="-2.4073900">
        <ele>267.5</ele>
        <time>2019-10-18T19:19:35Z</time>
      </trkpt>
      <trkpt lat="36.9453280" lon="-2.4073760">
        <ele>267.5</ele>
        <time>2019-10-18T19:19:36Z</time>
      </trkpt>
      <trkpt lat="36.9453440" lon="-2.4073620">
        <ele>267.7</ele>
        <time>2019-10-18T19:19:37Z</time>
      </trkpt>
      <trkpt lat="36.9453600" lon="-2.4073470">
        <ele>267.7</ele>
        <time>2019-10-18T19:19:38Z</time>
      </trkpt>
      <trkpt lat="36.9453760" lon="-2.4073310">
        <ele>268.0</ele>
        <time>2019-10-18T19:19:39Z</time>
      </trkpt>
      <trkpt lat="36.9453930" lon="-2.4073140">
        <ele>268.0</ele>
        <time>2019-10-18T19:19:40Z</time>
      </trkpt>
      <trkpt lat="36.9454100" lon="-2.4072980">
        <ele>268.2</ele>
        <time>2019-10-18T19:19:41Z</time>
      </trkpt>
      <trkpt lat="36.9454250" lon="-2.4072820">
        <ele>268.3</ele>
        <time>2019-10-18T19:19:42Z</time>
      </trkpt>
      <trkpt lat="36.9454380" lon="-2.4072680">
        <ele>268.5</ele>
        <time>2019-10-18T19:19:43Z</time>
      </trkpt>
      <trkpt lat="36.9454520" lon="-2.4072550">
        <ele>268.5</ele>
        <time>2019-10-18T19:19:44Z</time>
      </trkpt>
      <trkpt lat="36.9454680" lon="-2.4072410">
        <ele>268.8</ele>
        <time>2019-10-18T19:19:45Z</time>
      </trkpt>
      <trkpt lat="36.9454870" lon="-2.4072260">
        <ele>268.8</ele>
        <time>2019-10-18T19:19:46Z</time>
      </trkpt>
      <trkpt lat="36.9455070" lon="-2.4072100">
        <ele>269.1</ele>
        <time>2019-10-18T19:19:47Z</time>
      </trkpt>
      <trkpt lat="36.9455260" lon="-2.4071950">
        <ele>269.1</ele>
        <time>2019-10-18T19:19:48Z</time>
      </trkpt>
      <trkpt lat="36.9455430" lon="-2.4071800">
        <ele>269.4</ele>
        <time>2019-10-18T19:19:49Z</time>
      </trkpt>
      <trkpt lat="36.9455600" lon="-2.4071650">
        <ele>269.4</ele>
        <time>2019-10-18T19:19:50Z</time>
      </trkpt>
      <trkpt lat="36.9455780" lon="-2.4071500">
        <ele>269.7</ele>
        <time>2019-10-18T19:19:51Z</time>
      </trkpt>
      <trkpt lat="36.9455980" lon="-2.4071330">
        <ele>269.7</ele>
        <time>2019-10-18T19:19:52Z</time>
      </trkpt>
      <trkpt lat="36.9456180" lon="-2.4071150">
        <ele>270.0</ele>
        <time>2019-10-18T19:19:53Z</time>
      </trkpt>
      <trkpt lat="36.9456360" lon="-2.4070980">
        <ele>270.0</ele>
        <time>2019-10-18T19:19:54Z</time>
      </trkpt>
      <trkpt lat="36.9456530" lon="-2.4070820">
        <ele>270.2</ele>
        <time>2019-10-18T19:19:55Z</time>
      </trkpt>
      <trkpt lat="36.9456680" lon="-2.4070670">
        <ele>270.3</ele>
        <time>2019-10-18T19:19:56Z</time>
      </trkpt>
      <trkpt lat="36.9456840" lon="-2.4070490">
        <ele>270.5</ele>
        <time>2019-10-18T19:19:57Z</time>
      </trkpt>
      <trkpt lat="36.9457000" lon="-2.4070310">
        <ele>270.6</ele>
        <time>2019-10-18T19:19:58Z</time>
      </trkpt>
      <trkpt lat="36.9457170" lon="-2.4070140">
        <ele>270.8</ele>
        <time>2019-10-18T19:19:59Z</time>
      </trkpt>
      <trkpt lat="36.9457330" lon="-2.4069970">
        <ele>270.8</ele>
        <time>2019-10-18T19:20:00Z</time>
      </trkpt>
      <trkpt lat="36.9457510" lon="-2.4069780">
        <ele>271.2</ele>
        <time>2019-10-18T19:20:01Z</time>
      </trkpt>
      <trkpt lat="36.9457700" lon="-2.4069600">
        <ele>271.2</ele>
        <time>2019-10-18T19:20:02Z</time>
      </trkpt>
      <trkpt lat="36.9457870" lon="-2.4069430">
        <ele>271.5</ele>
        <time>2019-10-18T19:20:03Z</time>
      </trkpt>
      <trkpt lat="36.9458020" lon="-2.4069260">
        <ele>271.5</ele>
        <time>2019-10-18T19:20:04Z</time>
      </trkpt>
      <trkpt lat="36.9458170" lon="-2.4069100">
        <ele>271.8</ele>
        <time>2019-10-18T19:20:05Z</time>
      </trkpt>
      <trkpt lat="36.9458340" lon="-2.4068920">
        <ele>271.8</ele>
        <time>2019-10-18T19:20:06Z</time>
      </trkpt>
      <trkpt lat="36.9458520" lon="-2.4068730">
        <ele>272.0</ele>
        <time>2019-10-18T19:20:07Z</time>
      </trkpt>
      <trkpt lat="36.9458700" lon="-2.4068550">
        <ele>272.1</ele>
        <time>2019-10-18T19:20:08Z</time>
      </trkpt>
      <trkpt lat="36.9458870" lon="-2.4068360">
        <ele>272.3</ele>
        <time>2019-10-18T19:20:09Z</time>
      </trkpt>
      <trkpt lat="36.9459030" lon="-2.4068190">
        <ele>272.3</ele>
        <time>2019-10-18T19:20:10Z</time>
      </trkpt>
      <trkpt lat="36.9459200" lon="-2.4068010">
        <ele>272.5</ele>
        <time>2019-10-18T19:20:11Z</time>
      </trkpt>
      <trkpt lat="36.9459370" lon="-2.4067820">
        <ele>272.5</ele>
        <time>2019-10-18T19:20:12Z</time>
      </trkpt>
      <trkpt lat="36.9459560" lon="-2.4067620">
        <ele>272.7</ele>
        <time>2019-10-18T19:20:13Z</time>
      </trkpt>
      <trkpt lat="36.9459740" lon="-2.4067420">
        <ele>272.7</ele>
        <time>2019-10-18T19:20:14Z</time>
      </trkpt>
      <trkpt lat="36.9459900" lon="-2.4067230">
        <ele>272.9</ele>
        <time>2019-10-18T19:20:15Z</time>
      </trkpt>
      <trkpt lat="36.9460050" lon="-2.4067050">
        <ele>272.9</ele>
        <time>2019-10-18T19:20:16Z</time>
      </trkpt>
      <trkpt lat="36.9460200" lon="-2.4066880">
        <ele>273.0</ele>
        <time>2019-10-18T19:20:17Z</time>
      </trkpt>
      <trkpt lat="36.9460350" lon="-2.4066720">
        <ele>273.0</ele>
        <time>2019-10-18T19:20:18Z</time>
      </trkpt>
      <trkpt lat="36.9460510" lon="-2.4066570">
        <ele>273.2</ele>
        <time>2019-10-18T19:20:19Z</time>
      </trkpt>
      <trkpt lat="36.9460680" lon="-2.4066410">
        <ele>273.2</ele>
        <time>2019-10-18T19:20:20Z</time>
      </trkpt>
      <trkpt lat="36.9460830" lon="-2.4066260">
        <ele>273.2</ele>
        <time>2019-10-18T19:20:21Z</time>
      </trkpt>
      <trkpt lat="36.9460970" lon="-2.4066130">
        <ele>273.4</ele>
        <time>2019-10-18T19:20:22Z</time>
      </trkpt>
      <trkpt lat="36.9461100" lon="-2.4066010">
        <ele>273.4</ele>
        <time>2019-10-18T19:20:23Z</time>
      </trkpt>
      <trkpt lat="36.9461240" lon="-2.4065880">
        <ele>273.6</ele>
        <time>2019-10-18T19:20:24Z</time>
      </trkpt>
      <trkpt lat="36.9461390" lon="-2.4065720">
        <ele>273.6</ele>
        <time>2019-10-18T19:20:25Z</time>
      </trkpt>
      <trkpt lat="36.9461540" lon="-2.4065560">
        <ele>273.8</ele>
        <time>2019-10-18T19:20:26Z</time>
      </trkpt>
      <trkpt lat="36.9461700" lon="-2.4065400">
        <ele>273.8</ele>
        <time>2019-10-18T19:20:27Z</time>
      </trkpt>
      <trkpt lat="36.9461860" lon="-2.4065250">
        <ele>273.8</ele>
        <time>2019-10-18T19:20:28Z</time>
      </trkpt>
      <trkpt lat="36.9462020" lon="-2.4065090">
        <ele>274.0</ele>
        <time>2019-10-18T19:20:29Z</time>
      </trkpt>
      <trkpt lat="36.9462190" lon="-2.4064920">
        <ele>274.0</ele>
        <time>2019-10-18T19:20:30Z</time>
      </trkpt>
      <trkpt lat="36.9462370" lon="-2.4064740">
        <ele>274.2</ele>
        <time>2019-10-18T19:20:31Z</time>
      </trkpt>
      <trkpt lat="36.9462540" lon="-2.4064540">
        <ele>274.2</ele>
        <time>2019-10-18T19:20:32Z</time>
      </trkpt>
      <trkpt lat="36.9462710" lon="-2.4064370">
        <ele>274.4</ele>
        <time>2019-10-18T19:20:33Z</time>
      </trkpt>
      <trkpt lat="36.9462880" lon="-2.4064220">
        <ele>274.4</ele>
        <time>2019-10-18T19:20:34Z</time>
      </trkpt>
      <trkpt lat="36.9463040" lon="-2.4064090">
        <ele>274.6</ele>
        <time>2019-10-18T19:20:35Z</time>
      </trkpt>
      <trkpt lat="36.9463200" lon="-2.4063950">
        <ele>274.6</ele>
        <time>2019-10-18T19:20:36Z</time>
      </trkpt>
      <trkpt lat="36.9463370" lon="-2.4063800">
        <ele>274.8</ele>
        <time>2019-10-18T19:20:37Z</time>
      </trkpt>
      <trkpt lat="36.9463560" lon="-2.4063640">
        <ele>274.8</ele>
        <time>2019-10-18T19:20:38Z</time>
      </trkpt>
      <trkpt lat="36.9463750" lon="-2.4063490">
        <ele>275.0</ele>
        <time>2019-10-18T19:20:39Z</time>
      </trkpt>
      <trkpt lat="36.9463930" lon="-2.4063350">
        <ele>275.0</ele>
        <time>2019-10-18T19:20:40Z</time>
      </trkpt>
      <trkpt lat="36.9464100" lon="-2.4063190">
        <ele>275.2</ele>
        <time>2019-10-18T19:20:41Z</time>
      </trkpt>
      <trkpt lat="36.9464250" lon="-2.4063040">
        <ele>275.2</ele>
        <time>2019-10-18T19:20:42Z</time>
      </trkpt>
      <trkpt lat="36.9464410" lon="-2.4062870">
        <ele>275.4</ele>
        <time>2019-10-18T19:20:43Z</time>
      </trkpt>
      <trkpt lat="36.9464570" lon="-2.4062720">
        <ele>275.4</ele>
        <time>2019-10-18T19:20:44Z</time>
      </trkpt>
      <trkpt lat="36.9464750" lon="-2.4062580">
        <ele>275.6</ele>
        <time>2019-10-18T19:20:45Z</time>
      </trkpt>
      <trkpt lat="36.9464910" lon="-2.4062430">
        <ele>275.6</ele>
        <time>2019-10-18T19:20:46Z</time>
      </trkpt>
      <trkpt lat="36.9465060" lon="-2.4062290">
        <ele>275.9</ele>
        <time>2019-10-18T19:20:47Z</time>
      </trkpt>
      <trkpt lat="36.9465200" lon="-2.4062160">
        <ele>275.8</ele>
        <time>2019-10-18T19:20:48Z</time>
      </trkpt>
      <trkpt lat="36.9465360" lon="-2.4062030">
        <ele>276.1</ele>
        <time>2019-10-18T19:20:49Z</time>
      </trkpt>
      <trkpt lat="36.9465550" lon="-2.4061910">
        <ele>276.1</ele>
        <time>2019-10-18T19:20:50Z</time>
      </trkpt>
      <trkpt lat="36.9465750" lon="-2.4061790">
        <ele>276.4</ele>
        <time>2019-10-18T19:20:51Z</time>
      </trkpt>
      <trkpt lat="36.9465950" lon="-2.4061660">
        <ele>276.3</ele>
        <time>2019-10-18T19:20:52Z</time>
      </trkpt>
      <trkpt lat="36.9466130" lon="-2.4061540">
        <ele>276.6</ele>
        <time>2019-10-18T19:20:53Z</time>
      </trkpt>
      <trkpt lat="36.9466290" lon="-2.4061450">
        <ele>276.6</ele>
        <time>2019-10-18T19:20:54Z</time>
      </trkpt>
      <trkpt lat="36.9466440" lon="-2.4061360">
        <ele>276.9</ele>
        <time>2019-10-18T19:20:55Z</time>
      </trkpt>
      <trkpt lat="36.9466590" lon="-2.4061260">
        <ele>276.9</ele>
        <time>2019-10-18T19:20:56Z</time>
      </trkpt>
      <trkpt lat="36.9466770" lon="-2.4061150">
        <ele>277.2</ele>
        <time>2019-10-18T19:20:57Z</time>
      </trkpt>
      <trkpt lat="36.9466970" lon="-2.4061030">
        <ele>277.2</ele>
        <time>2019-10-18T19:20:58Z</time>
      </trkpt>
      <trkpt lat="36.9467160" lon="-2.4060900">
        <ele>277.5</ele>
        <time>2019-10-18T19:20:59Z</time>
      </trkpt>
      <trkpt lat="36.9467320" lon="-2.4060770">
        <ele>277.5</ele>
        <time>2019-10-18T19:21:00Z</time>
      </trkpt>
      <trkpt lat="36.9467460" lon="-2.4060640">
        <ele>277.9</ele>
        <time>2019-10-18T19:21:01Z</time>
      </trkpt>
      <trkpt lat="36.9467610" lon="-2.4060500">
        <ele>277.9</ele>
        <time>2019-10-18T19:21:02Z</time>
      </trkpt>
      <trkpt lat="36.9467770" lon="-2.4060340">
        <ele>278.2</ele>
        <time>2019-10-18T19:21:03Z</time>
      </trkpt>
      <trkpt lat="36.9467970" lon="-2.4060160">
        <ele>278.2</ele>
        <time>2019-10-18T19:21:04Z</time>
      </trkpt>
      <trkpt lat="36.9468190" lon="-2.4059970">
        <ele>278.6</ele>
        <time>2019-10-18T19:21:05Z</time>
      </trkpt>
      <trkpt lat="36.9468410" lon="-2.4059800">
        <ele>278.9</ele>
        <time>2019-10-18T19:21:06Z</time>
      </trkpt>
      <trkpt lat="36.9468620" lon="-2.4059640">
        <ele>278.9</ele>
        <time>2019-10-18T19:21:07Z</time>
      </trkpt>
      <trkpt lat="36.9468820" lon="-2.4059480">
        <ele>279.3</ele>
        <time>2019-10-18T19:21:08Z</time>
      </trkpt>
      <trkpt lat="36.9469020" lon="-2.4059300">
        <ele>279.3</ele>
        <time>2019-10-18T19:21:09Z</time>
      </trkpt>
      <trkpt lat="36.9469220" lon="-2.4059110">
        <ele>279.6</ele>
        <time>2019-10-18T19:21:10Z</time>
      </trkpt>
      <trkpt lat="36.9469410" lon="-2.4058930">
        <ele>279.6</ele>
        <time>2019-10-18T19:21:11Z</time>
      </trkpt>
      <trkpt lat="36.9469590" lon="-2.4058760">
        <ele>279.9</ele>
        <time>2019-10-18T19:21:12Z</time>
      </trkpt>
      <trkpt lat="36.9469780" lon="-2.4058590">
        <ele>280.3</ele>
        <time>2019-10-18T19:21:13Z</time>
      </trkpt>
      <trkpt lat="36.9469980" lon="-2.4058420">
        <ele>280.3</ele>
        <time>2019-10-18T19:21:14Z</time>
      </trkpt>
      <trkpt lat="36.9470180" lon="-2.4058260">
        <ele>280.5</ele>
        <time>2019-10-18T19:21:15Z</time>
      </trkpt>
      <trkpt lat="36.9470380" lon="-2.4058110">
        <ele>280.5</ele>
        <time>2019-10-18T19:21:16Z</time>
      </trkpt>
      <trkpt lat="36.9470560" lon="-2.4057980">
        <ele>280.8</ele>
        <time>2019-10-18T19:21:17Z</time>
      </trkpt>
      <trkpt lat="36.9470730" lon="-2.4057850">
        <ele>280.8</ele>
        <time>2019-10-18T19:21:18Z</time>
      </trkpt>
      <trkpt lat="36.9470920" lon="-2.4057740">
        <ele>281.1</ele>
        <time>2019-10-18T19:21:19Z</time>
      </trkpt>
      <trkpt lat="36.9471140" lon="-2.4057630">
        <ele>281.4</ele>
        <time>2019-10-18T19:21:20Z</time>
      </trkpt>
      <trkpt lat="36.9471370" lon="-2.4057510">
        <ele>281.4</ele>
        <time>2019-10-18T19:21:21Z</time>
      </trkpt>
      <trkpt lat="36.9471610" lon="-2.4057370">
        <ele>281.7</ele>
        <time>2019-10-18T19:21:22Z</time>
      </trkpt>
      <trkpt lat="36.9471820" lon="-2.4057240">
        <ele>281.7</ele>
        <time>2019-10-18T19:21:23Z</time>
      </trkpt>
      <trkpt lat="36.9472020" lon="-2.4057120">
        <ele>282.0</ele>
        <time>2019-10-18T19:21:24Z</time>
      </trkpt>
      <trkpt lat="36.9472200" lon="-2.4057010">
        <ele>282.2</ele>
        <time>2019-10-18T19:21:25Z</time>
      </trkpt>
      <trkpt lat="36.9472390" lon="-2.4056880">
        <ele>282.2</ele>
        <time>2019-10-18T19:21:26Z</time>
      </trkpt>
      <trkpt lat="36.9472580" lon="-2.4056720">
        <ele>282.5</ele>
        <time>2019-10-18T19:21:27Z</time>
      </trkpt>
      <trkpt lat="36.9472770" lon="-2.4056540">
        <ele>282.5</ele>
        <time>2019-10-18T19:21:28Z</time>
      </trkpt>
      <trkpt lat="36.9472950" lon="-2.4056330">
        <ele>282.7</ele>
        <time>2019-10-18T19:21:29Z</time>
      </trkpt>
      <trkpt lat="36.9473130" lon="-2.4056120">
        <ele>282.7</ele>
        <time>2019-10-18T19:21:30Z</time>
      </trkpt>
      <trkpt lat="36.9473310" lon="-2.4055940">
        <ele>282.9</ele>
        <time>2019-10-18T19:21:31Z</time>
      </trkpt>
      <trkpt lat="36.9473490" lon="-2.4055790">
        <ele>282.9</ele>
        <time>2019-10-18T19:21:32Z</time>
      </trkpt>
      <trkpt lat="36.9473670" lon="-2.4055650">
        <ele>283.1</ele>
        <time>2019-10-18T19:21:33Z</time>
      </trkpt>
      <trkpt lat="36.9473850" lon="-2.4055500">
        <ele>283.1</ele>
        <time>2019-10-18T19:21:34Z</time>
      </trkpt>
      <trkpt lat="36.9474040" lon="-2.4055350">
        <ele>283.3</ele>
        <time>2019-10-18T19:21:35Z</time>
      </trkpt>
      <trkpt lat="36.9474230" lon="-2.4055190">
        <ele>283.5</ele>
        <time>2019-10-18T19:21:36Z</time>
      </trkpt>
      <trkpt lat="36.9474410" lon="-2.4055030">
        <ele>283.5</ele>
        <time>2019-10-18T19:21:37Z</time>
      </trkpt>
      <trkpt lat="36.9474590" lon="-2.4054890">
        <ele>283.6</ele>
        <time>2019-10-18T19:21:38Z</time>
      </trkpt>
      <trkpt lat="36.9474770" lon="-2.4054770">
        <ele>283.6</ele>
        <time>2019-10-18T19:21:39Z</time>
      </trkpt>
      <trkpt lat="36.9474940" lon="-2.4054650">
        <ele>283.8</ele>
        <time>2019-10-18T19:21:40Z</time>
      </trkpt>
      <trkpt lat="36.9475120" lon="-2.4054530">
        <ele>283.8</ele>
        <time>2019-10-18T19:21:41Z</time>
      </trkpt>
      <trkpt lat="36.9475300" lon="-2.4054400">
        <ele>283.9</ele>
        <time>2019-10-18T19:21:42Z</time>
      </trkpt>
      <trkpt lat="36.9475480" lon="-2.4054270">
        <ele>283.9</ele>
        <time>2019-10-18T19:21:43Z</time>
      </trkpt>
      <trkpt lat="36.9475670" lon="-2.4054140">
        <ele>284.0</ele>
        <time>2019-10-18T19:21:44Z</time>
      </trkpt>
      <trkpt lat="36.9475850" lon="-2.4054000">
        <ele>284.0</ele>
        <time>2019-10-18T19:21:45Z</time>
      </trkpt>
      <trkpt lat="36.9476030" lon="-2.4053860">
        <ele>284.1</ele>
        <time>2019-10-18T19:21:46Z</time>
      </trkpt>
      <trkpt lat="36.9476190" lon="-2.4053720">
        <ele>284.1</ele>
        <time>2019-10-18T19:21:47Z</time>
      </trkpt>
      <trkpt lat="36.9476350" lon="-2.4053610">
        <ele>284.2</ele>
        <time>2019-10-18T19:21:48Z</time>
      </trkpt>
      <trkpt lat="36.9476510" lon="-2.4053510">
        <ele>284.2</ele>
        <time>2019-10-18T19:21:49Z</time>
      </trkpt>
      <trkpt lat="36.9476670" lon="-2.4053400">
        <ele>284.4</ele>
        <time>2019-10-18T19:21:50Z</time>
      </trkpt>
      <trkpt lat="36.9476840" lon="-2.4053270">
        <ele>284.4</ele>
        <time>2019-10-18T19:21:51Z</time>
      </trkpt>
      <trkpt lat="36.9477020" lon="-2.4053120">
        <ele>284.4</ele>
        <time>2019-10-18T19:21:52Z</time>
      </trkpt>
      <trkpt lat="36.9477200" lon="-2.4052950">
        <ele>284.4</ele>
        <time>2019-10-18T19:21:53Z</time>
      </trkpt>
      <trkpt lat="36.9477380" lon="-2.4052770">
        <ele>284.6</ele>
        <time>2019-10-18T19:21:54Z</time>
      </trkpt>
      <trkpt lat="36.9477550" lon="-2.4052580">
        <ele>284.5</ele>
        <time>2019-10-18T19:21:55Z</time>
      </trkpt>
      <trkpt lat="36.9477730" lon="-2.4052410">
        <ele>284.7</ele>
        <time>2019-10-18T19:21:56Z</time>
      </trkpt>
      <trkpt lat="36.9477900" lon="-2.4052250">
        <ele>284.7</ele>
        <time>2019-10-18T19:21:57Z</time>
      </trkpt>
      <trkpt lat="36.9478070" lon="-2.4052110">
        <ele>284.8</ele>
        <time>2019-10-18T19:21:58Z</time>
      </trkpt>
      <trkpt lat="36.9478220" lon="-2.4051970">
        <ele>284.8</ele>
        <time>2019-10-18T19:21:59Z</time>
      </trkpt>
      <trkpt lat="36.9478370" lon="-2.4051830">
        <ele>284.9</ele>
        <time>2019-10-18T19:22:00Z</time>
      </trkpt>
      <trkpt lat="36.9478540" lon="-2.4051690">
        <ele>284.9</ele>
        <time>2019-10-18T19:22:01Z</time>
      </trkpt>
      <trkpt lat="36.9478730" lon="-2.4051520">
        <ele>285.0</ele>
        <time>2019-10-18T19:22:02Z</time>
      </trkpt>
      <trkpt lat="36.9478970" lon="-2.4051310">
        <ele>285.0</ele>
        <time>2019-10-18T19:22:03Z</time>
      </trkpt>
      <trkpt lat="36.9479230" lon="-2.4051080">
        <ele>285.1</ele>
        <time>2019-10-18T19:22:04Z</time>
      </trkpt>
      <trkpt lat="36.9479490" lon="-2.4050890">
        <ele>285.3</ele>
        <time>2019-10-18T19:22:05Z</time>
      </trkpt>
      <trkpt lat="36.9479740" lon="-2.4050740">
        <ele>285.4</ele>
        <time>2019-10-18T19:22:06Z</time>
      </trkpt>
      <trkpt lat="36.9479970" lon="-2.4050620">
        <ele>285.4</ele>
        <time>2019-10-18T19:22:07Z</time>
      </trkpt>
      <trkpt lat="36.9480190" lon="-2.4050490">
        <ele>285.5</ele>
        <time>2019-10-18T19:22:08Z</time>
      </trkpt>
      <trkpt lat="36.9480390" lon="-2.4050360">
        <ele>285.5</ele>
        <time>2019-10-18T19:22:09Z</time>
      </trkpt>
      <trkpt lat="36.9480570" lon="-2.4050210">
        <ele>285.6</ele>
        <time>2019-10-18T19:22:10Z</time>
      </trkpt>
      <trkpt lat="36.9480710" lon="-2.4050050">
        <ele>285.6</ele>
        <time>2019-10-18T19:22:11Z</time>
      </trkpt>
      <trkpt lat="36.9480840" lon="-2.4049880">
        <ele>285.7</ele>
        <time>2019-10-18T19:22:12Z</time>
      </trkpt>
      <trkpt lat="36.9480980" lon="-2.4049710">
        <ele>285.7</ele>
        <time>2019-10-18T19:22:13Z</time>
      </trkpt>
      <trkpt lat="36.9481130" lon="-2.4049550">
        <ele>285.8</ele>
        <time>2019-10-18T19:22:14Z</time>
      </trkpt>
      <trkpt lat="36.9481300" lon="-2.4049400">
        <ele>285.8</ele>
        <time>2019-10-18T19:22:15Z</time>
      </trkpt>
      <trkpt lat="36.9481460" lon="-2.4049250">
        <ele>285.9</ele>
        <time>2019-10-18T19:22:16Z</time>
      </trkpt>
      <trkpt lat="36.9481620" lon="-2.4049110">
        <ele>285.9</ele>
        <time>2019-10-18T19:22:17Z</time>
      </trkpt>
      <trkpt lat="36.9481780" lon="-2.4048970">
        <ele>286.0</ele>
        <time>2019-10-18T19:22:18Z</time>
      </trkpt>
      <trkpt lat="36.9481940" lon="-2.4048830">
        <ele>285.9</ele>
        <time>2019-10-18T19:22:19Z</time>
      </trkpt>
      <trkpt lat="36.9482100" lon="-2.4048690">
        <ele>285.9</ele>
        <time>2019-10-18T19:22:20Z</time>
      </trkpt>
      <trkpt lat="36.9482260" lon="-2.4048550">
        <ele>286.0</ele>
        <time>2019-10-18T19:22:21Z</time>
      </trkpt>
      <trkpt lat="36.9482410" lon="-2.4048420">
        <ele>286.0</ele>
        <time>2019-10-18T19:22:22Z</time>
      </trkpt>
      <trkpt lat="36.9482580" lon="-2.4048280">
        <ele>286.1</ele>
        <time>2019-10-18T19:22:23Z</time>
      </trkpt>
      <trkpt lat="36.9482750" lon="-2.4048130">
        <ele>286.1</ele>
        <time>2019-10-18T19:22:24Z</time>
      </trkpt>
      <trkpt lat="36.9482930" lon="-2.4048000">
        <ele>286.1</ele>
        <time>2019-10-18T19:22:25Z</time>
      </trkpt>
      <trkpt lat="36.9483110" lon="-2.4047870">
        <ele>286.1</ele>
        <time>2019-10-18T19:22:26Z</time>
      </trkpt>
      <trkpt lat="36.9483300" lon="-2.4047750">
        <ele>286.3</ele>
        <time>2019-10-18T19:22:27Z</time>
      </trkpt>
      <trkpt lat="36.9483480" lon="-2.4047620">
        <ele>286.3</ele>
        <time>2019-10-18T19:22:28Z</time>
      </trkpt>
      <trkpt lat="36.9483650" lon="-2.4047490">
        <ele>286.4</ele>
        <time>2019-10-18T19:22:29Z</time>
      </trkpt>
      <trkpt lat="36.9483820" lon="-2.4047350">
        <ele>286.4</ele>
        <time>2019-10-18T19:22:30Z</time>
      </trkpt>
      <trkpt lat="36.9484000" lon="-2.4047210">
        <ele>286.5</ele>
        <time>2019-10-18T19:22:31Z</time>
      </trkpt>
      <trkpt lat="36.9484190" lon="-2.4047060">
        <ele>286.6</ele>
        <time>2019-10-18T19:22:32Z</time>
      </trkpt>
      <trkpt lat="36.9484370" lon="-2.4046910">
        <ele>286.6</ele>
        <time>2019-10-18T19:22:33Z</time>
      </trkpt>
      <trkpt lat="36.9484560" lon="-2.4046760">
        <ele>286.8</ele>
        <time>2019-10-18T19:22:34Z</time>
      </trkpt>
      <trkpt lat="36.9484740" lon="-2.4046620">
        <ele>286.7</ele>
        <time>2019-10-18T19:22:35Z</time>
      </trkpt>
      <trkpt lat="36.9484920" lon="-2.4046470">
        <ele>286.9</ele>
        <time>2019-10-18T19:22:36Z</time>
      </trkpt>
      <trkpt lat="36.9485100" lon="-2.4046330">
        <ele>286.9</ele>
        <time>2019-10-18T19:22:37Z</time>
      </trkpt>
      <trkpt lat="36.9485280" lon="-2.4046170">
        <ele>287.0</ele>
        <time>2019-10-18T19:22:38Z</time>
      </trkpt>
      <trkpt lat="36.9485480" lon="-2.4046020">
        <ele>287.0</ele>
        <time>2019-10-18T19:22:39Z</time>
      </trkpt>
      <trkpt lat="36.9485670" lon="-2.4045880">
        <ele>287.2</ele>
        <time>2019-10-18T19:22:40Z</time>
      </trkpt>
      <trkpt lat="36.9485850" lon="-2.4045730">
        <ele>287.2</ele>
        <time>2019-10-18T19:22:41Z</time>
      </trkpt>
      <trkpt lat="36.9486020" lon="-2.4045590">
        <ele>287.4</ele>
        <time>2019-10-18T19:22:42Z</time>
      </trkpt>
      <trkpt lat="36.9486190" lon="-2.4045450">
        <ele>287.4</ele>
        <time>2019-10-18T19:22:43Z</time>
      </trkpt>
      <trkpt lat="36.9486350" lon="-2.4045320">
        <ele>287.6</ele>
        <time>2019-10-18T19:22:44Z</time>
      </trkpt>
      <trkpt lat="36.9486520" lon="-2.4045190">
        <ele>287.6</ele>
        <time>2019-10-18T19:22:45Z</time>
      </trkpt>
      <trkpt lat="36.9486700" lon="-2.4045050">
        <ele>287.8</ele>
        <time>2019-10-18T19:22:46Z</time>
      </trkpt>
      <trkpt lat="36.9486890" lon="-2.4044910">
        <ele>287.9</ele>
        <time>2019-10-18T19:22:47Z</time>
      </trkpt>
      <trkpt lat="36.9487070" lon="-2.4044770">
        <ele>288.2</ele>
        <time>2019-10-18T19:22:48Z</time>
      </trkpt>
      <trkpt lat="36.9487250" lon="-2.4044620">
        <ele>288.2</ele>
        <time>2019-10-18T19:22:49Z</time>
      </trkpt>
      <trkpt lat="36.9487420" lon="-2.4044470">
        <ele>288.5</ele>
        <time>2019-10-18T19:22:50Z</time>
      </trkpt>
      <trkpt lat="36.9487600" lon="-2.4044320">
        <ele>288.5</ele>
        <time>2019-10-18T19:22:51Z</time>
      </trkpt>
      <trkpt lat="36.9487780" lon="-2.4044180">
        <ele>288.7</ele>
        <time>2019-10-18T19:22:52Z</time>
      </trkpt>
      <trkpt lat="36.9487960" lon="-2.4044040">
        <ele>289.1</ele>
        <time>2019-10-18T19:22:53Z</time>
      </trkpt>
      <trkpt lat="36.9488150" lon="-2.4043910">
        <ele>289.1</ele>
        <time>2019-10-18T19:22:54Z</time>
      </trkpt>
      <trkpt lat="36.9488330" lon="-2.4043780">
        <ele>289.3</ele>
        <time>2019-10-18T19:22:55Z</time>
      </trkpt>
      <trkpt lat="36.9488500" lon="-2.4043640">
        <ele>289.4</ele>
        <time>2019-10-18T19:22:56Z</time>
      </trkpt>
      <trkpt lat="36.9488660" lon="-2.4043510">
        <ele>289.6</ele>
        <time>2019-10-18T19:22:57Z</time>
      </trkpt>
      <trkpt lat="36.9488820" lon="-2.4043380">
        <ele>289.6</ele>
        <time>2019-10-18T19:22:58Z</time>
      </trkpt>
      <trkpt lat="36.9488970" lon="-2.4043250">
        <ele>289.7</ele>
        <time>2019-10-18T19:22:59Z</time>
      </trkpt>
      <trkpt lat="36.9489130" lon="-2.4043120">
        <ele>289.9</ele>
        <time>2019-10-18T19:23:00Z</time>
      </trkpt>
      <trkpt lat="36.9489300" lon="-2.4042990">
        <ele>289.9</ele>
        <time>2019-10-18T19:23:01Z</time>
      </trkpt>
      <trkpt lat="36.9489460" lon="-2.4042860">
        <ele>290.3</ele>
        <time>2019-10-18T19:23:02Z</time>
      </trkpt>
      <trkpt lat="36.9489630" lon="-2.4042730">
        <ele>290.3</ele>
        <time>2019-10-18T19:23:03Z</time>
      </trkpt>
      <trkpt lat="36.9489790" lon="-2.4042620">
        <ele>290.5</ele>
        <time>2019-10-18T19:23:04Z</time>
      </trkpt>
      <trkpt lat="36.9489960" lon="-2.4042500">
        <ele>290.5</ele>
        <time>2019-10-18T19:23:05Z</time>
      </trkpt>
      <trkpt lat="36.9490140" lon="-2.4042380">
        <ele>290.9</ele>
        <time>2019-10-18T19:23:06Z</time>
      </trkpt>
      <trkpt lat="36.9490330" lon="-2.4042240">
        <ele>290.9</ele>
        <time>2019-10-18T19:23:07Z</time>
      </trkpt>
      <trkpt lat="36.9490510" lon="-2.4042100">
        <ele>291.2</ele>
        <time>2019-10-18T19:23:08Z</time>
      </trkpt>
      <trkpt lat="36.9490690" lon="-2.4041950">
        <ele>291.7</ele>
        <time>2019-10-18T19:23:09Z</time>
      </trkpt>
      <trkpt lat="36.9490870" lon="-2.4041820">
        <ele>291.7</ele>
        <time>2019-10-18T19:23:10Z</time>
      </trkpt>
      <trkpt lat="36.9491050" lon="-2.4041700">
        <ele>292.0</ele>
        <time>2019-10-18T19:23:11Z</time>
      </trkpt>
      <trkpt lat="36.9491230" lon="-2.4041590">
        <ele>292.2</ele>
        <time>2019-10-18T19:23:12Z</time>
      </trkpt>
      <trkpt lat="36.9491410" lon="-2.4041450">
        <ele>292.5</ele>
        <time>2019-10-18T19:23:13Z</time>
      </trkpt>
      <trkpt lat="36.9491560" lon="-2.4041320">
        <ele>292.5</ele>
        <time>2019-10-18T19:23:14Z</time>
      </trkpt>
      <trkpt lat="36.9491710" lon="-2.4041200">
        <ele>292.5</ele>
        <time>2019-10-18T19:23:15Z</time>
      </trkpt>
      <trkpt lat="36.9491860" lon="-2.4041090">
        <ele>293.0</ele>
        <time>2019-10-18T19:23:16Z</time>
      </trkpt>
      <trkpt lat="36.9492010" lon="-2.4040990">
        <ele>293.0</ele>
        <time>2019-10-18T19:23:17Z</time>
      </trkpt>
      <trkpt lat="36.9492170" lon="-2.4040900">
        <ele>293.4</ele>
        <time>2019-10-18T19:23:18Z</time>
      </trkpt>
      <trkpt lat="36.9492320" lon="-2.4040830">
        <ele>293.4</ele>
        <time>2019-10-18T19:23:19Z</time>
      </trkpt>
      <trkpt lat="36.9492480" lon="-2.4040750">
        <ele>293.8</ele>
        <time>2019-10-18T19:23:20Z</time>
      </trkpt>
      <trkpt lat="36.9492630" lon="-2.4040680">
        <ele>294.0</ele>
        <time>2019-10-18T19:23:21Z</time>
      </trkpt>
      <trkpt lat="36.9492780" lon="-2.4040620">
        <ele>294.3</ele>
        <time>2019-10-18T19:23:22Z</time>
      </trkpt>
      <trkpt lat="36.9492930" lon="-2.4040550">
        <ele>294.3</ele>
        <time>2019-10-18T19:23:23Z</time>
      </trkpt>
      <trkpt lat="36.9493080" lon="-2.4040460">
        <ele>294.3</ele>
        <time>2019-10-18T19:23:24Z</time>
      </trkpt>
      <trkpt lat="36.9493230" lon="-2.4040380">
        <ele>294.6</ele>
        <time>2019-10-18T19:23:25Z</time>
      </trkpt>
      <trkpt lat="36.9493380" lon="-2.4040290">
        <ele>294.9</ele>
        <time>2019-10-18T19:23:26Z</time>
      </trkpt>
      <trkpt lat="36.9493530" lon="-2.4040210">
        <ele>295.2</ele>
        <time>2019-10-18T19:23:27Z</time>
      </trkpt>
      <trkpt lat="36.9493690" lon="-2.4040110">
        <ele>295.2</ele>
        <time>2019-10-18T19:23:28Z</time>
      </trkpt>
      <trkpt lat="36.9493840" lon="-2.4040010">
        <ele>295.5</ele>
        <time>2019-10-18T19:23:29Z</time>
      </trkpt>
      <trkpt lat="36.9493990" lon="-2.4039910">
        <ele>295.5</ele>
        <time>2019-10-18T19:23:30Z</time>
      </trkpt>
      <trkpt lat="36.9494130" lon="-2.4039810">
        <ele>296.1</ele>
        <time>2019-10-18T19:23:31Z</time>
      </trkpt>
      <trkpt lat="36.9494260" lon="-2.4039680">
        <ele>296.1</ele>
        <time>2019-10-18T19:23:32Z</time>
      </trkpt>
      <trkpt lat="36.9494390" lon="-2.4039560">
        <ele>296.1</ele>
        <time>2019-10-18T19:23:33Z</time>
      </trkpt>
      <trkpt lat="36.9494500" lon="-2.4039430">
        <ele>296.7</ele>
        <time>2019-10-18T19:23:34Z</time>
      </trkpt>
      <trkpt lat="36.9494620" lon="-2.4039300">
        <ele>296.7</ele>
        <time>2019-10-18T19:23:35Z</time>
      </trkpt>
      <trkpt lat="36.9494750" lon="-2.4039160">
        <ele>296.7</ele>
        <time>2019-10-18T19:23:36Z</time>
      </trkpt>
      <trkpt lat="36.9494880" lon="-2.4039020">
        <ele>297.3</ele>
        <time>2019-10-18T19:23:37Z</time>
      </trkpt>
      <trkpt lat="36.9495000" lon="-2.4038880">
        <ele>297.3</ele>
        <time>2019-10-18T19:23:38Z</time>
      </trkpt>
      <trkpt lat="36.9495120" lon="-2.4038740">
        <ele>297.3</ele>
        <time>2019-10-18T19:23:39Z</time>
      </trkpt>
      <trkpt lat="36.9495230" lon="-2.4038610">
        <ele>297.5</ele>
        <time>2019-10-18T19:23:40Z</time>
      </trkpt>
      <trkpt lat="36.9495360" lon="-2.4038500">
        <ele>297.8</ele>
        <time>2019-10-18T19:23:41Z</time>
      </trkpt>
      <trkpt lat="36.9495520" lon="-2.4038390">
        <ele>298.0</ele>
        <time>2019-10-18T19:23:42Z</time>
      </trkpt>
      <trkpt lat="36.9495700" lon="-2.4038290">
        <ele>298.0</ele>
        <time>2019-10-18T19:23:43Z</time>
      </trkpt>
      <trkpt lat="36.9495870" lon="-2.4038190">
        <ele>298.1</ele>
        <time>2019-10-18T19:23:44Z</time>
      </trkpt>
      <trkpt lat="36.9496050" lon="-2.4038090">
        <ele>298.4</ele>
        <time>2019-10-18T19:23:45Z</time>
      </trkpt>
      <trkpt lat="36.9496250" lon="-2.4038000">
        <ele>298.5</ele>
        <time>2019-10-18T19:23:46Z</time>
      </trkpt>
      <trkpt lat="36.9496450" lon="-2.4037920">
        <ele>298.5</ele>
        <time>2019-10-18T19:23:47Z</time>
      </trkpt>
      <trkpt lat="36.9496670" lon="-2.4037840">
        <ele>298.5</ele>
        <time>2019-10-18T19:23:48Z</time>
      </trkpt>
      <trkpt lat="36.9496880" lon="-2.4037780">
        <ele>298.6</ele>
        <time>2019-10-18T19:23:49Z</time>
      </trkpt>
      <trkpt lat="36.9497090" lon="-2.4037720">
        <ele>298.8</ele>
        <time>2019-10-18T19:23:50Z</time>
      </trkpt>
      <trkpt lat="36.9497290" lon="-2.4037650">
        <ele>298.9</ele>
        <time>2019-10-18T19:23:51Z</time>
      </trkpt>
      <trkpt lat="36.9497480" lon="-2.4037560">
        <ele>298.9</ele>
        <time>2019-10-18T19:23:52Z</time>
      </trkpt>
      <trkpt lat="36.9497670" lon="-2.4037450">
        <ele>299.0</ele>
        <time>2019-10-18T19:23:53Z</time>
      </trkpt>
      <trkpt lat="36.9497860" lon="-2.4037340">
        <ele>299.0</ele>
        <time>2019-10-18T19:23:54Z</time>
      </trkpt>
      <trkpt lat="36.9498050" lon="-2.4037210">
        <ele>299.3</ele>
        <time>2019-10-18T19:23:55Z</time>
      </trkpt>
      <trkpt lat="36.9498250" lon="-2.4037070">
        <ele>299.4</ele>
        <time>2019-10-18T19:23:56Z</time>
      </trkpt>
      <trkpt lat="36.9498430" lon="-2.4036920">
        <ele>299.4</ele>
        <time>2019-10-18T19:23:57Z</time>
      </trkpt>
      <trkpt lat="36.9498600" lon="-2.4036780">
        <ele>299.7</ele>
        <time>2019-10-18T19:23:58Z</time>
      </trkpt>
      <trkpt lat="36.9498770" lon="-2.4036630">
        <ele>299.7</ele>
        <time>2019-10-18T19:23:59Z</time>
      </trkpt>
      <trkpt lat="36.9498930" lon="-2.4036480">
        <ele>299.8</ele>
        <time>2019-10-18T19:24:00Z</time>
      </trkpt>
      <trkpt lat="36.9499090" lon="-2.4036330">
        <ele>300.1</ele>
        <time>2019-10-18T19:24:01Z</time>
      </trkpt>
      <trkpt lat="36.9499240" lon="-2.4036170">
        <ele>300.1</ele>
        <time>2019-10-18T19:24:02Z</time>
      </trkpt>
      <trkpt lat="36.9499370" lon="-2.4035980">
        <ele>300.5</ele>
        <time>2019-10-18T19:24:03Z</time>
      </trkpt>
      <trkpt lat="36.9499480" lon="-2.4035790">
        <ele>300.5</ele>
        <time>2019-10-18T19:24:04Z</time>
      </trkpt>
      <trkpt lat="36.9499590" lon="-2.4035620">
        <ele>300.5</ele>
        <time>2019-10-18T19:24:05Z</time>
      </trkpt>
      <trkpt lat="36.9499670" lon="-2.4035440">
        <ele>300.8</ele>
        <time>2019-10-18T19:24:06Z</time>
      </trkpt>
      <trkpt lat="36.9499740" lon="-2.4035260">
        <ele>300.8</ele>
        <time>2019-10-18T19:24:07Z</time>
      </trkpt>
      <trkpt lat="36.9499780" lon="-2.4035060">
        <ele>301.1</ele>
        <time>2019-10-18T19:24:08Z</time>
      </trkpt>
      <trkpt lat="36.9499820" lon="-2.4034850">
        <ele>301.1</ele>
        <time>2019-10-18T19:24:09Z</time>
      </trkpt>
      <trkpt lat="36.9499850" lon="-2.4034630">
        <ele>301.4</ele>
        <time>2019-10-18T19:24:10Z</time>
      </trkpt>
      <trkpt lat="36.9499900" lon="-2.4034420">
        <ele>301.4</ele>
        <time>2019-10-18T19:24:11Z</time>
      </trkpt>
      <trkpt lat="36.9499960" lon="-2.4034220">
        <ele>301.8</ele>
        <time>2019-10-18T19:24:12Z</time>
      </trkpt>
      <trkpt lat="36.9500020" lon="-2.4034040">
        <ele>301.8</ele>
        <time>2019-10-18T19:24:13Z</time>
      </trkpt>
      <trkpt lat="36.9500040" lon="-2.4033960">
        <ele>301.8</ele>
        <time>2019-10-18T19:24:14Z</time>
      </trkpt>
      <trkpt lat="36.9500040" lon="-2.4033940">
        <ele>301.8</ele>
        <time>2019-10-18T19:24:15Z</time>
      </trkpt>
      <trkpt lat="36.9500030" lon="-2.4033960">
        <ele>301.8</ele>
        <time>2019-10-18T19:24:16Z</time>
      </trkpt>
      <trkpt lat="36.9500030" lon="-2.4033960">
        <ele>301.8</ele>
        <time>2019-10-18T19:24:17Z</time>
      </trkpt>
      <trkpt lat="36.9500040" lon="-2.4033960">
        <ele>301.8</ele>
        <time>2019-10-18T19:24:18Z</time>
      </trkpt>
      <trkpt lat="36.9500060" lon="-2.4033960">
        <ele>301.8</ele>
        <time>2019-10-18T19:24:19Z</time>
      </trkpt>
      <trkpt lat="36.9500070" lon="-2.4033960">
        <ele>301.8</ele>
        <time>2019-10-18T19:24:20Z</time>
      </trkpt>
      <trkpt lat="36.9500070" lon="-2.4033960">
        <ele>301.8</ele>
        <time>2019-10-18T19:24:21Z</time>
      </trkpt>
      <trkpt lat="36.9500060" lon="-2.4033980">
        <ele>301.8</ele>
        <time>2019-10-18T19:24:22Z</time>
      </trkpt>
      <trkpt lat="36.9500040" lon="-2.4033990">
        <ele>301.8</ele>
        <time>2019-10-18T19:24:23Z</time>
      </trkpt>
      <trkpt lat="36.9500040" lon="-2.4033990">
        <ele>301.8</ele>
        <time>2019-10-18T19:24:24Z</time>
      </trkpt>
      <trkpt lat="36.9500080" lon="-2.4033960">
        <ele>301.8</ele>
        <time>2019-10-18T19:24:25Z</time>
      </trkpt>
      <trkpt lat="36.9500140" lon="-2.4033920">
        <ele>301.8</ele>
        <time>2019-10-18T19:24:26Z</time>
      </trkpt>
      <trkpt lat="36.9500190" lon="-2.4033890">
        <ele>301.8</ele>
        <time>2019-10-18T19:24:27Z</time>
      </trkpt>
      <trkpt lat="36.9500230" lon="-2.4033890">
        <ele>301.8</ele>
        <time>2019-10-18T19:24:28Z</time>
      </trkpt>
      <trkpt lat="36.9500250" lon="-2.4033890">
        <ele>301.8</ele>
        <time>2019-10-18T19:24:29Z</time>
      </trkpt>
      <trkpt lat="36.9500260" lon="-2.4033900">
        <ele>301.8</ele>
        <time>2019-10-18T19:24:30Z</time>
      </trkpt>
      <trkpt lat="36.9500270" lon="-2.4033900">
        <ele>301.8</ele>
        <time>2019-10-18T19:24:31Z</time>
      </trkpt>
      <trkpt lat="36.9500280" lon="-2.4033900">
        <ele>301.8</ele>
        <time>2019-10-18T19:24:32Z</time>
      </trkpt>
      <trkpt lat="36.9500280" lon="-2.4033900">
        <ele>301.8</ele>
        <time>2019-10-18T19:24:33Z</time>
      </trkpt>
      <trkpt lat="36.9500280" lon="-2.4033910">
        <ele>301.8</ele>
        <time>2019-10-18T19:24:34Z</time>
      </trkpt>
      <trkpt lat="36.9500280" lon="-2.4033900">
        <ele>301.8</ele>
        <time>2019-10-18T19:24:35Z</time>
      </trkpt>
      <trkpt lat="36.9500280" lon="-2.4033900">
        <ele>301.8</ele>
        <time>2019-10-18T19:24:36Z</time>
      </trkpt>
      <trkpt lat="36.9500290" lon="-2.4033900">
        <ele>301.9</ele>
        <time>2019-10-18T19:24:37Z</time>
      </trkpt>
      <trkpt lat="36.9500300" lon="-2.4033900">
        <ele>301.9</ele>
        <time>2019-10-18T19:24:38Z</time>
      </trkpt>
      <trkpt lat="36.9500300" lon="-2.4033890">
        <ele>301.9</ele>
        <time>2019-10-18T19:24:39Z</time>
      </trkpt>
      <trkpt lat="36.9500300" lon="-2.4033890">
        <ele>301.9</ele>
        <time>2019-10-18T19:24:40Z</time>
      </trkpt>
      <trkpt lat="36.9500300" lon="-2.4033880">
        <ele>302.3</ele>
        <time>2019-10-18T19:24:41Z</time>
      </trkpt>
      <trkpt lat="36.9500300" lon="-2.4033870">
        <ele>302.3</ele>
        <time>2019-10-18T19:24:42Z</time>
      </trkpt>
      <trkpt lat="36.9500300" lon="-2.4033870">
        <ele>302.3</ele>
        <time>2019-10-18T19:24:43Z</time>
      </trkpt>
      <trkpt lat="36.9500300" lon="-2.4033870">
        <ele>302.3</ele>
        <time>2019-10-18T19:24:44Z</time>
      </trkpt>
      <trkpt lat="36.9500310" lon="-2.4033870">
        <ele>302.3</ele>
        <time>2019-10-18T19:24:45Z</time>
      </trkpt>
      <trkpt lat="36.9500310" lon="-2.4033870">
        <ele>302.3</ele>
        <time>2019-10-18T19:24:46Z</time>
      </trkpt>
      <trkpt lat="36.9500310" lon="-2.4033860">
        <ele>302.3</ele>
        <time>2019-10-18T19:24:47Z</time>
      </trkpt>
      <trkpt lat="36.9500320" lon="-2.4033860">
        <ele>302.3</ele>
        <time>2019-10-18T19:24:48Z</time>
      </trkpt>
      <trkpt lat="36.9500330" lon="-2.4033880">
        <ele>302.3</ele>
        <time>2019-10-18T19:24:49Z</time>
      </trkpt>
      <trkpt lat="36.9500330" lon="-2.4033900">
        <ele>301.9</ele>
        <time>2019-10-18T19:24:50Z</time>
      </trkpt>
      <trkpt lat="36.9500330" lon="-2.4033910">
        <ele>301.9</ele>
        <time>2019-10-18T19:24:51Z</time>
      </trkpt>
      <trkpt lat="36.9500320" lon="-2.4033910">
        <ele>301.9</ele>
        <time>2019-10-18T19:24:52Z</time>
      </trkpt>
      <trkpt lat="36.9500320" lon="-2.4033920">
        <ele>301.9</ele>
        <time>2019-10-18T19:24:53Z</time>
      </trkpt>
      <trkpt lat="36.9500310" lon="-2.4033930">
        <ele>301.9</ele>
        <time>2019-10-18T19:24:54Z</time>
      </trkpt>
      <trkpt lat="36.9500310" lon="-2.4033920">
        <ele>301.9</ele>
        <time>2019-10-18T19:24:55Z</time>
      </trkpt>
      <trkpt lat="36.9500330" lon="-2.4033900">
        <ele>301.9</ele>
        <time>2019-10-18T19:24:56Z</time>
      </trkpt>
      <trkpt lat="36.9500350" lon="-2.4033840">
        <ele>302.3</ele>
        <time>2019-10-18T19:24:57Z</time>
      </trkpt>
      <trkpt lat="36.9500380" lon="-2.4033770">
        <ele>302.3</ele>
        <time>2019-10-18T19:24:58Z</time>
      </trkpt>
      <trkpt lat="36.9500390" lon="-2.4033690">
        <ele>302.3</ele>
        <time>2019-10-18T19:24:59Z</time>
      </trkpt>
      <trkpt lat="36.9500400" lon="-2.4033620">
        <ele>302.3</ele>
        <time>2019-10-18T19:25:00Z</time>
      </trkpt>
      <trkpt lat="36.9500400" lon="-2.4033580">
        <ele>302.3</ele>
        <time>2019-10-18T19:25:01Z</time>
      </trkpt>
      <trkpt lat="36.9500390" lon="-2.4033530">
        <ele>302.3</ele>
        <time>2019-10-18T19:25:02Z</time>
      </trkpt>
      <trkpt lat="36.9500360" lon="-2.4033500">
        <ele>302.3</ele>
        <time>2019-10-18T19:25:03Z</time>
      </trkpt>
      <trkpt lat="36.9500330" lon="-2.4033460">
        <ele>302.3</ele>
        <time>2019-10-18T19:25:04Z</time>
      </trkpt>
      <trkpt lat="36.9500320" lon="-2.4033450">
        <ele>302.6</ele>
        <time>2019-10-18T19:25:05Z</time>
      </trkpt>
      <trkpt lat="36.9500320" lon="-2.4033430">
        <ele>302.6</ele>
        <time>2019-10-18T19:25:06Z</time>
      </trkpt>
      <trkpt lat="36.9500310" lon="-2.4033380">
        <ele>302.6</ele>
        <time>2019-10-18T19:25:07Z</time>
      </trkpt>
      <trkpt lat="36.9500300" lon="-2.4033300">
        <ele>302.6</ele>
        <time>2019-10-18T19:25:08Z</time>
      </trkpt>
      <trkpt lat="36.9500300" lon="-2.4033180">
        <ele>302.6</ele>
        <time>2019-10-18T19:25:09Z</time>
      </trkpt>
      <trkpt lat="36.9500310" lon="-2.4033070">
        <ele>302.6</ele>
        <time>2019-10-18T19:25:10Z</time>
      </trkpt>
      <trkpt lat="36.9500340" lon="-2.4032980">
        <ele>303.0</ele>
        <time>2019-10-18T19:25:11Z</time>
      </trkpt>
      <trkpt lat="36.9500410" lon="-2.4032890">
        <ele>303.0</ele>
        <time>2019-10-18T19:25:12Z</time>
      </trkpt>
      <trkpt lat="36.9500480" lon="-2.4032790">
        <ele>303.0</ele>
        <time>2019-10-18T19:25:13Z</time>
      </trkpt>
      <trkpt lat="36.9500570" lon="-2.4032660">
        <ele>303.0</ele>
        <time>2019-10-18T19:25:14Z</time>
      </trkpt>
      <trkpt lat="36.9500620" lon="-2.4032510">
        <ele>303.4</ele>
        <time>2019-10-18T19:25:15Z</time>
      </trkpt>
      <trkpt lat="36.9500640" lon="-2.4032340">
        <ele>303.6</ele>
        <time>2019-10-18T19:25:16Z</time>
      </trkpt>
      <trkpt lat="36.9500650" lon="-2.4032180">
        <ele>303.6</ele>
        <time>2019-10-18T19:25:17Z</time>
      </trkpt>
      <trkpt lat="36.9500670" lon="-2.4032020">
        <ele>304.0</ele>
        <time>2019-10-18T19:25:18Z</time>
      </trkpt>
      <trkpt lat="36.9500720" lon="-2.4031890">
        <ele>304.0</ele>
        <time>2019-10-18T19:25:19Z</time>
      </trkpt>
      <trkpt lat="36.9500780" lon="-2.4031760">
        <ele>304.0</ele>
        <time>2019-10-18T19:25:20Z</time>
      </trkpt>
      <trkpt lat="36.9500840" lon="-2.4031650">
        <ele>304.4</ele>
        <time>2019-10-18T19:25:21Z</time>
      </trkpt>
      <trkpt lat="36.9500910" lon="-2.4031530">
        <ele>304.4</ele>
        <time>2019-10-18T19:25:22Z</time>
      </trkpt>
      <trkpt lat="36.9500980" lon="-2.4031410">
        <ele>304.6</ele>
        <time>2019-10-18T19:25:23Z</time>
      </trkpt>
      <trkpt lat="36.9501030" lon="-2.4031340">
        <ele>304.6</ele>
        <time>2019-10-18T19:25:24Z</time>
      </trkpt>
      <trkpt lat="36.9501090" lon="-2.4031280">
        <ele>305.0</ele>
        <time>2019-10-18T19:25:25Z</time>
      </trkpt>
      <trkpt lat="36.9501120" lon="-2.4031260">
        <ele>305.0</ele>
        <time>2019-10-18T19:25:26Z</time>
      </trkpt>
      <trkpt lat="36.9501150" lon="-2.4031230">
        <ele>305.0</ele>
        <time>2019-10-18T19:25:27Z</time>
      </trkpt>
      <trkpt lat="36.9501150" lon="-2.4031210">
        <ele>305.0</ele>
        <time>2019-10-18T19:25:28Z</time>
      </trkpt>
      <trkpt lat="36.9501150" lon="-2.4031210">
        <ele>305.0</ele>
        <time>2019-10-18T19:25:29Z</time>
      </trkpt>
      <trkpt lat="36.9501150" lon="-2.4031200">
        <ele>305.0</ele>
        <time>2019-10-18T19:25:30Z</time>
      </trkpt>
      <trkpt lat="36.9501160" lon="-2.4031200">
        <ele>305.0</ele>
        <time>2019-10-18T19:25:31Z</time>
      </trkpt>
      <trkpt lat="36.9501160" lon="-2.4031200">
        <ele>305.0</ele>
        <time>2019-10-18T19:25:32Z</time>
      </trkpt>
      <trkpt lat="36.9501170" lon="-2.4031200">
        <ele>305.0</ele>
        <time>2019-10-18T19:25:33Z</time>
      </trkpt>
      <trkpt lat="36.9501170" lon="-2.4031200">
        <ele>305.0</ele>
        <time>2019-10-18T19:25:34Z</time>
      </trkpt>
      <trkpt lat="36.9501180" lon="-2.4031200">
        <ele>305.0</ele>
        <time>2019-10-18T19:25:35Z</time>
      </trkpt>
      <trkpt lat="36.9501180" lon="-2.4031200">
        <ele>305.0</ele>
        <time>2019-10-18T19:25:36Z</time>
      </trkpt>
      <trkpt lat="36.9501190" lon="-2.4031200">
        <ele>305.0</ele>
        <time>2019-10-18T19:25:37Z</time>
      </trkpt>
      <trkpt lat="36.9501190" lon="-2.4031200">
        <ele>305.0</ele>
        <time>2019-10-18T19:25:38Z</time>
      </trkpt>
      <trkpt lat="36.9501190" lon="-2.4031200">
        <ele>305.0</ele>
        <time>2019-10-18T19:25:39Z</time>
      </trkpt>
      <trkpt lat="36.9501200" lon="-2.4031200">
        <ele>305.0</ele>
        <time>2019-10-18T19:25:40Z</time>
      </trkpt>
      <trkpt lat="36.9501210" lon="-2.4031190">
        <ele>305.0</ele>
        <time>2019-10-18T19:25:41Z</time>
      </trkpt>
      <trkpt lat="36.9501220" lon="-2.4031180">
        <ele>305.0</ele>
        <time>2019-10-18T19:25:42Z</time>
      </trkpt>
      <trkpt lat="36.9501240" lon="-2.4031160">
        <ele>305.0</ele>
        <time>2019-10-18T19:25:43Z</time>
      </trkpt>
      <trkpt lat="36.9501250" lon="-2.4031160">
        <ele>305.0</ele>
        <time>2019-10-18T19:25:44Z</time>
      </trkpt>
      <trkpt lat="36.9501250" lon="-2.4031150">
        <ele>305.0</ele>
        <time>2019-10-18T19:25:45Z</time>
      </trkpt>
      <trkpt lat="36.9501240" lon="-2.4031160">
        <ele>305.0</ele>
        <time>2019-10-18T19:25:46Z</time>
      </trkpt>
      <trkpt lat="36.9501240" lon="-2.4031170">
        <ele>305.0</ele>
        <time>2019-10-18T19:25:47Z</time>
      </trkpt>
      <trkpt lat="36.9501250" lon="-2.4031180">
        <ele>305.0</ele>
        <time>2019-10-18T19:25:48Z</time>
      </trkpt>
      <trkpt lat="36.9501250" lon="-2.4031190">
        <ele>305.0</ele>
        <time>2019-10-18T19:25:49Z</time>
      </trkpt>
      <trkpt lat="36.9501250" lon="-2.4031200">
        <ele>305.0</ele>
        <time>2019-10-18T19:25:50Z</time>
      </trkpt>
      <trkpt lat="36.9501250" lon="-2.4031210">
        <ele>305.0</ele>
        <time>2019-10-18T19:25:51Z</time>
      </trkpt>
      <trkpt lat="36.9501260" lon="-2.4031220">
        <ele>305.0</ele>
        <time>2019-10-18T19:25:52Z</time>
      </trkpt>
      <trkpt lat="36.9501270" lon="-2.4031230">
        <ele>305.0</ele>
        <time>2019-10-18T19:25:53Z</time>
      </trkpt>
      <trkpt lat="36.9501280" lon="-2.4031240">
        <ele>305.0</ele>
        <time>2019-10-18T19:25:54Z</time>
      </trkpt>
      <trkpt lat="36.9501280" lon="-2.4031250">
        <ele>305.0</ele>
        <time>2019-10-18T19:25:55Z</time>
      </trkpt>
      <trkpt lat="36.9501280" lon="-2.4031260">
        <ele>305.0</ele>
        <time>2019-10-18T19:25:56Z</time>
      </trkpt>
      <trkpt lat="36.9501280" lon="-2.4031260">
        <ele>305.0</ele>
        <time>2019-10-18T19:25:57Z</time>
      </trkpt>
      <trkpt lat="36.9501290" lon="-2.4031260">
        <ele>305.0</ele>
        <time>2019-10-18T19:25:58Z</time>
      </trkpt>
      <trkpt lat="36.9501290" lon="-2.4031250">
        <ele>305.0</ele>
        <time>2019-10-18T19:25:59Z</time>
      </trkpt>
      <trkpt lat="36.9501290" lon="-2.4031250">
        <ele>305.0</ele>
        <time>2019-10-18T19:26:00Z</time>
      </trkpt>
      <trkpt lat="36.9501300" lon="-2.4031240">
        <ele>305.0</ele>
        <time>2019-10-18T19:26:01Z</time>
      </trkpt>
      <trkpt lat="36.9501300" lon="-2.4031230">
        <ele>305.0</ele>
        <time>2019-10-18T19:26:02Z</time>
      </trkpt>
      <trkpt lat="36.9501300" lon="-2.4031230">
        <ele>305.0</ele>
        <time>2019-10-18T19:26:03Z</time>
      </trkpt>
      <trkpt lat="36.9501300" lon="-2.4031230">
        <ele>305.0</ele>
        <time>2019-10-18T19:26:04Z</time>
      </trkpt>
      <trkpt lat="36.9501300" lon="-2.4031220">
        <ele>305.0</ele>
        <time>2019-10-18T19:26:05Z</time>
      </trkpt>
      <trkpt lat="36.9501310" lon="-2.4031220">
        <ele>305.0</ele>
        <time>2019-10-18T19:26:06Z</time>
      </trkpt>
      <trkpt lat="36.9501300" lon="-2.4031210">
        <ele>305.0</ele>
        <time>2019-10-18T19:26:07Z</time>
      </trkpt>
      <trkpt lat="36.9501310" lon="-2.4031210">
        <ele>305.0</ele>
        <time>2019-10-18T19:26:08Z</time>
      </trkpt>
      <trkpt lat="36.9501310" lon="-2.4031200">
        <ele>305.0</ele>
        <time>2019-10-18T19:26:09Z</time>
      </trkpt>
      <trkpt lat="36.9501320" lon="-2.4031200">
        <ele>305.3</ele>
        <time>2019-10-18T19:26:10Z</time>
      </trkpt>
      <trkpt lat="36.9501320" lon="-2.4031180">
        <ele>305.3</ele>
        <time>2019-10-18T19:26:11Z</time>
      </trkpt>
      <trkpt lat="36.9501340" lon="-2.4031160">
        <ele>305.3</ele>
        <time>2019-10-18T19:26:12Z</time>
      </trkpt>
      <trkpt lat="36.9501340" lon="-2.4031150">
        <ele>305.3</ele>
        <time>2019-10-18T19:26:13Z</time>
      </trkpt>
      <trkpt lat="36.9501330" lon="-2.4031130">
        <ele>305.3</ele>
        <time>2019-10-18T19:26:14Z</time>
      </trkpt>
      <trkpt lat="36.9501310" lon="-2.4031100">
        <ele>305.0</ele>
        <time>2019-10-18T19:26:15Z</time>
      </trkpt>
      <trkpt lat="36.9501280" lon="-2.4031040">
        <ele>305.0</ele>
        <time>2019-10-18T19:26:16Z</time>
      </trkpt>
      <trkpt lat="36.9501260" lon="-2.4030960">
        <ele>305.0</ele>
        <time>2019-10-18T19:26:17Z</time>
      </trkpt>
      <trkpt lat="36.9501250" lon="-2.4030890">
        <ele>305.0</ele>
        <time>2019-10-18T19:26:18Z</time>
      </trkpt>
      <trkpt lat="36.9501250" lon="-2.4030840">
        <ele>305.3</ele>
        <time>2019-10-18T19:26:19Z</time>
      </trkpt>
      <trkpt lat="36.9501270" lon="-2.4030820">
        <ele>305.3</ele>
        <time>2019-10-18T19:26:20Z</time>
      </trkpt>
      <trkpt lat="36.9501280" lon="-2.4030810">
        <ele>305.3</ele>
        <time>2019-10-18T19:26:21Z</time>
      </trkpt>
      <trkpt lat="36.9501300" lon="-2.4030810">
        <ele>305.3</ele>
        <time>2019-10-18T19:26:22Z</time>
      </trkpt>
      <trkpt lat="36.9501340" lon="-2.4030770">
        <ele>305.6</ele>
        <time>2019-10-18T19:26:23Z</time>
      </trkpt>
      <trkpt lat="36.9501400" lon="-2.4030730">
        <ele>305.6</ele>
        <time>2019-10-18T19:26:24Z</time>
      </trkpt>
      <trkpt lat="36.9501450" lon="-2.4030670">
        <ele>305.6</ele>
        <time>2019-10-18T19:26:25Z</time>
      </trkpt>
      <trkpt lat="36.9501500" lon="-2.4030610">
        <ele>305.6</ele>
        <time>2019-10-18T19:26:26Z</time>
      </trkpt>
      <trkpt lat="36.9501560" lon="-2.4030550">
        <ele>305.6</ele>
        <time>2019-10-18T19:26:27Z</time>
      </trkpt>
      <trkpt lat="36.9501610" lon="-2.4030480">
        <ele>305.6</ele>
        <time>2019-10-18T19:26:28Z</time>
      </trkpt>
      <trkpt lat="36.9501660" lon="-2.4030400">
        <ele>305.9</ele>
        <time>2019-10-18T19:26:29Z</time>
      </trkpt>
      <trkpt lat="36.9501700" lon="-2.4030320">
        <ele>306.2</ele>
        <time>2019-10-18T19:26:30Z</time>
      </trkpt>
      <trkpt lat="36.9501750" lon="-2.4030240">
        <ele>306.2</ele>
        <time>2019-10-18T19:26:31Z</time>
      </trkpt>
      <trkpt lat="36.9501810" lon="-2.4030170">
        <ele>306.2</ele>
        <time>2019-10-18T19:26:32Z</time>
      </trkpt>
      <trkpt lat="36.9501870" lon="-2.4030100">
        <ele>306.2</ele>
        <time>2019-10-18T19:26:33Z</time>
      </trkpt>
      <trkpt lat="36.9501940" lon="-2.4030050">
        <ele>306.2</ele>
        <time>2019-10-18T19:26:34Z</time>
      </trkpt>
      <trkpt lat="36.9502000" lon="-2.4029980">
        <ele>306.5</ele>
        <time>2019-10-18T19:26:35Z</time>
      </trkpt>
      <trkpt lat="36.9502050" lon="-2.4029920">
        <ele>306.9</ele>
        <time>2019-10-18T19:26:36Z</time>
      </trkpt>
      <trkpt lat="36.9502080" lon="-2.4029840">
        <ele>306.9</ele>
        <time>2019-10-18T19:26:37Z</time>
      </trkpt>
      <trkpt lat="36.9502110" lon="-2.4029780">
        <ele>306.9</ele>
        <time>2019-10-18T19:26:38Z</time>
      </trkpt>
      <trkpt lat="36.9502160" lon="-2.4029710">
        <ele>306.9</ele>
        <time>2019-10-18T19:26:39Z</time>
      </trkpt>
      <trkpt lat="36.9502220" lon="-2.4029650">
        <ele>306.9</ele>
        <time>2019-10-18T19:26:40Z</time>
      </trkpt>
      <trkpt lat="36.9502280" lon="-2.4029590">
        <ele>306.9</ele>
        <time>2019-10-18T19:26:41Z</time>
      </trkpt>
      <trkpt lat="36.9502340" lon="-2.4029530">
        <ele>307.3</ele>
        <time>2019-10-18T19:26:42Z</time>
      </trkpt>
      <trkpt lat="36.9502390" lon="-2.4029480">
        <ele>307.7</ele>
        <time>2019-10-18T19:26:43Z</time>
      </trkpt>
      <trkpt lat="36.9502440" lon="-2.4029440">
        <ele>307.7</ele>
        <time>2019-10-18T19:26:44Z</time>
      </trkpt>
      <trkpt lat="36.9502490" lon="-2.4029390">
        <ele>307.7</ele>
        <time>2019-10-18T19:26:45Z</time>
      </trkpt>
      <trkpt lat="36.9502550" lon="-2.4029350">
        <ele>307.7</ele>
        <time>2019-10-18T19:26:46Z</time>
      </trkpt>
      <trkpt lat="36.9502600" lon="-2.4029300">
        <ele>307.7</ele>
        <time>2019-10-18T19:26:47Z</time>
      </trkpt>
      <trkpt lat="36.9502660" lon="-2.4029260">
        <ele>307.7</ele>
        <time>2019-10-18T19:26:48Z</time>
      </trkpt>
      <trkpt lat="36.9502710" lon="-2.4029220">
        <ele>308.2</ele>
        <time>2019-10-18T19:26:49Z</time>
      </trkpt>
      <trkpt lat="36.9502760" lon="-2.4029170">
        <ele>308.2</ele>
        <time>2019-10-18T19:26:50Z</time>
      </trkpt>
      <trkpt lat="36.9502810" lon="-2.4029130">
        <ele>308.6</ele>
        <time>2019-10-18T19:26:51Z</time>
      </trkpt>
      <trkpt lat="36.9502840" lon="-2.4029100">
        <ele>308.6</ele>
        <time>2019-10-18T19:26:52Z</time>
      </trkpt>
      <trkpt lat="36.9502860" lon="-2.4029080">
        <ele>308.6</ele>
        <time>2019-10-18T19:26:53Z</time>
      </trkpt>
      <trkpt lat="36.9502870" lon="-2.4029080">
        <ele>308.6</ele>
        <time>2019-10-18T19:26:54Z</time>
      </trkpt>
      <trkpt lat="36.9502870" lon="-2.4029080">
        <ele>308.6</ele>
        <time>2019-10-18T19:26:55Z</time>
      </trkpt>
      <trkpt lat="36.9502870" lon="-2.4029070">
        <ele>308.6</ele>
        <time>2019-10-18T19:26:56Z</time>
      </trkpt>
      <trkpt lat="36.9502870" lon="-2.4029070">
        <ele>308.6</ele>
        <time>2019-10-18T19:26:57Z</time>
      </trkpt>
      <trkpt lat="36.9502870" lon="-2.4029070">
        <ele>308.6</ele>
        <time>2019-10-18T19:26:58Z</time>
      </trkpt>
      <trkpt lat="36.9502880" lon="-2.4029070">
        <ele>308.6</ele>
        <time>2019-10-18T19:26:59Z</time>
      </trkpt>
      <trkpt lat="36.9502900" lon="-2.4029050">
        <ele>308.6</ele>
        <time>2019-10-18T19:27:00Z</time>
      </trkpt>
      <trkpt lat="36.9502920" lon="-2.4029030">
        <ele>308.6</ele>
        <time>2019-10-18T19:27:01Z</time>
      </trkpt>
      <trkpt lat="36.9502960" lon="-2.4029000">
        <ele>308.6</ele>
        <time>2019-10-18T19:27:02Z</time>
      </trkpt>
      <trkpt lat="36.9502990" lon="-2.4028970">
        <ele>308.6</ele>
        <time>2019-10-18T19:27:03Z</time>
      </trkpt>
      <trkpt lat="36.9503030" lon="-2.4028940">
        <ele>308.6</ele>
        <time>2019-10-18T19:27:04Z</time>
      </trkpt>
      <trkpt lat="36.9503070" lon="-2.4028900">
        <ele>309.1</ele>
        <time>2019-10-18T19:27:05Z</time>
      </trkpt>
      <trkpt lat="36.9503120" lon="-2.4028860">
        <ele>309.1</ele>
        <time>2019-10-18T19:27:06Z</time>
      </trkpt>
      <trkpt lat="36.9503180" lon="-2.4028810">
        <ele>309.1</ele>
        <time>2019-10-18T19:27:07Z</time>
      </trkpt>
      <trkpt lat="36.9503230" lon="-2.4028760">
        <ele>309.1</ele>
        <time>2019-10-18T19:27:08Z</time>
      </trkpt>
      <trkpt lat="36.9503290" lon="-2.4028710">
        <ele>309.6</ele>
        <time>2019-10-18T19:27:09Z</time>
      </trkpt>
      <trkpt lat="36.9503350" lon="-2.4028660">
        <ele>309.6</ele>
        <time>2019-10-18T19:27:10Z</time>
      </trkpt>
      <trkpt lat="36.9503420" lon="-2.4028600">
        <ele>310.1</ele>
        <time>2019-10-18T19:27:11Z</time>
      </trkpt>
      <trkpt lat="36.9503480" lon="-2.4028540">
        <ele>310.1</ele>
        <time>2019-10-18T19:27:12Z</time>
      </trkpt>
      <trkpt lat="36.9503530" lon="-2.4028480">
        <ele>310.1</ele>
        <time>2019-10-18T19:27:13Z</time>
      </trkpt>
      <trkpt lat="36.9503570" lon="-2.4028440">
        <ele>310.1</ele>
        <time>2019-10-18T19:27:14Z</time>
      </trkpt>
      <trkpt lat="36.9503610" lon="-2.4028400">
        <ele>310.1</ele>
        <time>2019-10-18T19:27:15Z</time>
      </trkpt>
      <trkpt lat="36.9503650" lon="-2.4028370">
        <ele>310.1</ele>
        <time>2019-10-18T19:27:16Z</time>
      </trkpt>
      <trkpt lat="36.9503700" lon="-2.4028320">
        <ele>310.1</ele>
        <time>2019-10-18T19:27:17Z</time>
      </trkpt>
      <trkpt lat="36.9503750" lon="-2.4028270">
        <ele>311.1</ele>
        <time>2019-10-18T19:27:18Z</time>
      </trkpt>
      <trkpt lat="36.9503800" lon="-2.4028210">
        <ele>311.1</ele>
        <time>2019-10-18T19:27:19Z</time>
      </trkpt>
      <trkpt lat="36.9503840" lon="-2.4028170">
        <ele>311.1</ele>
        <time>2019-10-18T19:27:20Z</time>
      </trkpt>
      <trkpt lat="36.9503890" lon="-2.4028130">
        <ele>311.1</ele>
        <time>2019-10-18T19:27:21Z</time>
      </trkpt>
      <trkpt lat="36.9503940" lon="-2.4028090">
        <ele>311.1</ele>
        <time>2019-10-18T19:27:22Z</time>
      </trkpt>
      <trkpt lat="36.9503990" lon="-2.4028030">
        <ele>311.1</ele>
        <time>2019-10-18T19:27:23Z</time>
      </trkpt>
      <trkpt lat="36.9504040" lon="-2.4027970">
        <ele>311.1</ele>
        <time>2019-10-18T19:27:24Z</time>
      </trkpt>
      <trkpt lat="36.9504080" lon="-2.4027910">
        <ele>311.4</ele>
        <time>2019-10-18T19:27:25Z</time>
      </trkpt>
      <trkpt lat="36.9504120" lon="-2.4027850">
        <ele>312.0</ele>
        <time>2019-10-18T19:27:26Z</time>
      </trkpt>
      <trkpt lat="36.9504160" lon="-2.4027780">
        <ele>312.0</ele>
        <time>2019-10-18T19:27:27Z</time>
      </trkpt>
      <trkpt lat="36.9504180" lon="-2.4027710">
        <ele>312.0</ele>
        <time>2019-10-18T19:27:28Z</time>
      </trkpt>
      <trkpt lat="36.9504210" lon="-2.4027630">
        <ele>312.0</ele>
        <time>2019-10-18T19:27:29Z</time>
      </trkpt>
      <trkpt lat="36.9504240" lon="-2.4027560">
        <ele>312.0</ele>
        <time>2019-10-18T19:27:30Z</time>
      </trkpt>
      <trkpt lat="36.9504270" lon="-2.4027490">
        <ele>312.0</ele>
        <time>2019-10-18T19:27:31Z</time>
      </trkpt>
      <trkpt lat="36.9504300" lon="-2.4027430">
        <ele>312.6</ele>
        <time>2019-10-18T19:27:32Z</time>
      </trkpt>
      <trkpt lat="36.9504330" lon="-2.4027370">
        <ele>312.6</ele>
        <time>2019-10-18T19:27:33Z</time>
      </trkpt>
      <trkpt lat="36.9504370" lon="-2.4027330">
        <ele>312.6</ele>
        <time>2019-10-18T19:27:34Z</time>
      </trkpt>
      <trkpt lat="36.9504400" lon="-2.4027280">
        <ele>312.6</ele>
        <time>2019-10-18T19:27:35Z</time>
      </trkpt>
      <trkpt lat="36.9504440" lon="-2.4027250">
        <ele>312.6</ele>
        <time>2019-10-18T19:27:36Z</time>
      </trkpt>
      <trkpt lat="36.9504450" lon="-2.4027230">
        <ele>312.6</ele>
        <time>2019-10-18T19:27:37Z</time>
      </trkpt>
      <trkpt lat="36.9504460" lon="-2.4027210">
        <ele>312.6</ele>
        <time>2019-10-18T19:27:38Z</time>
      </trkpt>
      <trkpt lat="36.9504470" lon="-2.4027180">
        <ele>312.6</ele>
        <time>2019-10-18T19:27:39Z</time>
      </trkpt>
      <trkpt lat="36.9504490" lon="-2.4027150">
        <ele>312.6</ele>
        <time>2019-10-18T19:27:40Z</time>
      </trkpt>
      <trkpt lat="36.9504530" lon="-2.4027130">
        <ele>312.6</ele>
        <time>2019-10-18T19:27:41Z</time>
      </trkpt>
      <trkpt lat="36.9504600" lon="-2.4027110">
        <ele>312.7</ele>
        <time>2019-10-18T19:27:42Z</time>
      </trkpt>
      <trkpt lat="36.9504690" lon="-2.4027100">
        <ele>312.7</ele>
        <time>2019-10-18T19:27:43Z</time>
      </trkpt>
      <trkpt lat="36.9504800" lon="-2.4027100">
        <ele>312.7</ele>
        <time>2019-10-18T19:27:44Z</time>
      </trkpt>
      <trkpt lat="36.9504920" lon="-2.4027130">
        <ele>312.7</ele>
        <time>2019-10-18T19:27:45Z</time>
      </trkpt>
      <trkpt lat="36.9505070" lon="-2.4027150">
        <ele>312.8</ele>
        <time>2019-10-18T19:27:46Z</time>
      </trkpt>
      <trkpt lat="36.9505230" lon="-2.4027160">
        <ele>312.8</ele>
        <time>2019-10-18T19:27:47Z</time>
      </trkpt>
      <trkpt lat="36.9505400" lon="-2.4027150">
        <ele>312.9</ele>
        <time>2019-10-18T19:27:48Z</time>
      </trkpt>
      <trkpt lat="36.9505580" lon="-2.4027150">
        <ele>312.9</ele>
        <time>2019-10-18T19:27:49Z</time>
      </trkpt>
      <trkpt lat="36.9505760" lon="-2.4027140">
        <ele>312.9</ele>
        <time>2019-10-18T19:27:50Z</time>
      </trkpt>
      <trkpt lat="36.9505940" lon="-2.4027120">
        <ele>313.0</ele>
        <time>2019-10-18T19:27:51Z</time>
      </trkpt>
      <trkpt lat="36.9506120" lon="-2.4027110">
        <ele>313.0</ele>
        <time>2019-10-18T19:27:52Z</time>
      </trkpt>
      <trkpt lat="36.9506310" lon="-2.4027120">
        <ele>313.0</ele>
        <time>2019-10-18T19:27:53Z</time>
      </trkpt>
      <trkpt lat="36.9506510" lon="-2.4027130">
        <ele>313.0</ele>
        <time>2019-10-18T19:27:54Z</time>
      </trkpt>
      <trkpt lat="36.9506700" lon="-2.4027130">
        <ele>313.0</ele>
        <time>2019-10-18T19:27:55Z</time>
      </trkpt>
      <trkpt lat="36.9506880" lon="-2.4027130">
        <ele>313.1</ele>
        <time>2019-10-18T19:27:56Z</time>
      </trkpt>
      <trkpt lat="36.9507070" lon="-2.4027150">
        <ele>313.1</ele>
        <time>2019-10-18T19:27:57Z</time>
      </trkpt>
      <trkpt lat="36.9507250" lon="-2.4027160">
        <ele>313.1</ele>
        <time>2019-10-18T19:27:58Z</time>
      </trkpt>
      <trkpt lat="36.9507440" lon="-2.4027180">
        <ele>313.1</ele>
        <time>2019-10-18T19:27:59Z</time>
      </trkpt>
      <trkpt lat="36.9507640" lon="-2.4027190">
        <ele>313.1</ele>
        <time>2019-10-18T19:28:00Z</time>
      </trkpt>
      <trkpt lat="36.9507840" lon="-2.4027210">
        <ele>313.1</ele>
        <time>2019-10-18T19:28:01Z</time>
      </trkpt>
      <trkpt lat="36.9508050" lon="-2.4027250">
        <ele>313.1</ele>
        <time>2019-10-18T19:28:02Z</time>
      </trkpt>
      <trkpt lat="36.9508250" lon="-2.4027300">
        <ele>313.2</ele>
        <time>2019-10-18T19:28:03Z</time>
      </trkpt>
      <trkpt lat="36.9508460" lon="-2.4027370">
        <ele>313.2</ele>
        <time>2019-10-18T19:28:04Z</time>
      </trkpt>
      <trkpt lat="36.9508660" lon="-2.4027430">
        <ele>313.2</ele>
        <time>2019-10-18T19:28:05Z</time>
      </trkpt>
      <trkpt lat="36.9508860" lon="-2.4027500">
        <ele>313.2</ele>
        <time>2019-10-18T19:28:06Z</time>
      </trkpt>
      <trkpt lat="36.9509060" lon="-2.4027550">
        <ele>313.2</ele>
        <time>2019-10-18T19:28:07Z</time>
      </trkpt>
      <trkpt lat="36.9509260" lon="-2.4027590">
        <ele>313.2</ele>
        <time>2019-10-18T19:28:08Z</time>
      </trkpt>
      <trkpt lat="36.9509460" lon="-2.4027610">
        <ele>313.2</ele>
        <time>2019-10-18T19:28:09Z</time>
      </trkpt>
      <trkpt lat="36.9509660" lon="-2.4027620">
        <ele>313.1</ele>
        <time>2019-10-18T19:28:10Z</time>
      </trkpt>
      <trkpt lat="36.9509860" lon="-2.4027610">
        <ele>313.1</ele>
        <time>2019-10-18T19:28:11Z</time>
      </trkpt>
      <trkpt lat="36.9510070" lon="-2.4027600">
        <ele>313.1</ele>
        <time>2019-10-18T19:28:12Z</time>
      </trkpt>
      <trkpt lat="36.9510280" lon="-2.4027570">
        <ele>313.1</ele>
        <time>2019-10-18T19:28:13Z</time>
      </trkpt>
      <trkpt lat="36.9510500" lon="-2.4027540">
        <ele>313.1</ele>
        <time>2019-10-18T19:28:14Z</time>
      </trkpt>
      <trkpt lat="36.9510750" lon="-2.4027510">
        <ele>313.0</ele>
        <time>2019-10-18T19:28:15Z</time>
      </trkpt>
      <trkpt lat="36.9510990" lon="-2.4027480">
        <ele>313.0</ele>
        <time>2019-10-18T19:28:16Z</time>
      </trkpt>
      <trkpt lat="36.9511230" lon="-2.4027470">
        <ele>313.0</ele>
        <time>2019-10-18T19:28:17Z</time>
      </trkpt>
      <trkpt lat="36.9511460" lon="-2.4027470">
        <ele>313.0</ele>
        <time>2019-10-18T19:28:18Z</time>
      </trkpt>
      <trkpt lat="36.9511670" lon="-2.4027460">
        <ele>312.9</ele>
        <time>2019-10-18T19:28:19Z</time>
      </trkpt>
      <trkpt lat="36.9511880" lon="-2.4027440">
        <ele>312.9</ele>
        <time>2019-10-18T19:28:20Z</time>
      </trkpt>
      <trkpt lat="36.9512100" lon="-2.4027410">
        <ele>312.8</ele>
        <time>2019-10-18T19:28:21Z</time>
      </trkpt>
      <trkpt lat="36.9512330" lon="-2.4027390">
        <ele>312.8</ele>
        <time>2019-10-18T19:28:22Z</time>
      </trkpt>
      <trkpt lat="36.9512560" lon="-2.4027350">
        <ele>312.7</ele>
        <time>2019-10-18T19:28:23Z</time>
      </trkpt>
      <trkpt lat="36.9512790" lon="-2.4027320">
        <ele>312.6</ele>
        <time>2019-10-18T19:28:24Z</time>
      </trkpt>
      <trkpt lat="36.9513030" lon="-2.4027280">
        <ele>312.6</ele>
        <time>2019-10-18T19:28:25Z</time>
      </trkpt>
      <trkpt lat="36.9513270" lon="-2.4027230">
        <ele>312.5</ele>
        <time>2019-10-18T19:28:26Z</time>
      </trkpt>
      <trkpt lat="36.9513500" lon="-2.4027180">
        <ele>312.4</ele>
        <time>2019-10-18T19:28:27Z</time>
      </trkpt>
      <trkpt lat="36.9513750" lon="-2.4027150">
        <ele>312.3</ele>
        <time>2019-10-18T19:28:28Z</time>
      </trkpt>
      <trkpt lat="36.9514010" lon="-2.4027120">
        <ele>312.2</ele>
        <time>2019-10-18T19:28:29Z</time>
      </trkpt>
      <trkpt lat="36.9514260" lon="-2.4027100">
        <ele>312.1</ele>
        <time>2019-10-18T19:28:30Z</time>
      </trkpt>
      <trkpt lat="36.9514490" lon="-2.4027080">
        <ele>312.0</ele>
        <time>2019-10-18T19:28:31Z</time>
      </trkpt>
      <trkpt lat="36.9514690" lon="-2.4027050">
        <ele>311.9</ele>
        <time>2019-10-18T19:28:32Z</time>
      </trkpt>
      <trkpt lat="36.9514890" lon="-2.4027020">
        <ele>311.8</ele>
        <time>2019-10-18T19:28:33Z</time>
      </trkpt>
      <trkpt lat="36.9515090" lon="-2.4026960">
        <ele>311.7</ele>
        <time>2019-10-18T19:28:34Z</time>
      </trkpt>
      <trkpt lat="36.9515280" lon="-2.4026910">
        <ele>311.8</ele>
        <time>2019-10-18T19:28:35Z</time>
      </trkpt>
      <trkpt lat="36.9515470" lon="-2.4026870">
        <ele>311.9</ele>
        <time>2019-10-18T19:28:36Z</time>
      </trkpt>
      <trkpt lat="36.9515660" lon="-2.4026850">
        <ele>311.9</ele>
        <time>2019-10-18T19:28:37Z</time>
      </trkpt>
      <trkpt lat="36.9515830" lon="-2.4026860">
        <ele>312.0</ele>
        <time>2019-10-18T19:28:38Z</time>
      </trkpt>
      <trkpt lat="36.9515990" lon="-2.4026880">
        <ele>312.1</ele>
        <time>2019-10-18T19:28:39Z</time>
      </trkpt>
      <trkpt lat="36.9516150" lon="-2.4026890">
        <ele>312.1</ele>
        <time>2019-10-18T19:28:40Z</time>
      </trkpt>
      <trkpt lat="36.9516300" lon="-2.4026900">
        <ele>312.2</ele>
        <time>2019-10-18T19:28:41Z</time>
      </trkpt>
      <trkpt lat="36.9516440" lon="-2.4026930">
        <ele>312.2</ele>
        <time>2019-10-18T19:28:42Z</time>
      </trkpt>
      <trkpt lat="36.9516570" lon="-2.4026990">
        <ele>312.2</ele>
        <time>2019-10-18T19:28:43Z</time>
      </trkpt>
      <trkpt lat="36.9516690" lon="-2.4027080">
        <ele>312.2</ele>
        <time>2019-10-18T19:28:44Z</time>
      </trkpt>
      <trkpt lat="36.9516800" lon="-2.4027180">
        <ele>312.2</ele>
        <time>2019-10-18T19:28:45Z</time>
      </trkpt>
      <trkpt lat="36.9516920" lon="-2.4027280">
        <ele>312.2</ele>
        <time>2019-10-18T19:28:46Z</time>
      </trkpt>
      <trkpt lat="36.9517030" lon="-2.4027400">
        <ele>312.2</ele>
        <time>2019-10-18T19:28:47Z</time>
      </trkpt>
      <trkpt lat="36.9517130" lon="-2.4027530">
        <ele>312.2</ele>
        <time>2019-10-18T19:28:48Z</time>
      </trkpt>
      <trkpt lat="36.9517230" lon="-2.4027700">
        <ele>312.2</ele>
        <time>2019-10-18T19:28:49Z</time>
      </trkpt>
      <trkpt lat="36.9517320" lon="-2.4027880">
        <ele>312.2</ele>
        <time>2019-10-18T19:28:50Z</time>
      </trkpt>
      <trkpt lat="36.9517400" lon="-2.4028060">
        <ele>312.2</ele>
        <time>2019-10-18T19:28:51Z</time>
      </trkpt>
      <trkpt lat="36.9517480" lon="-2.4028240">
        <ele>312.2</ele>
        <time>2019-10-18T19:28:52Z</time>
      </trkpt>
      <trkpt lat="36.9517540" lon="-2.4028420">
        <ele>312.2</ele>
        <time>2019-10-18T19:28:53Z</time>
      </trkpt>
      <trkpt lat="36.9517590" lon="-2.4028550">
        <ele>312.2</ele>
        <time>2019-10-18T19:28:54Z</time>
      </trkpt>
      <trkpt lat="36.9517620" lon="-2.4028600">
        <ele>312.2</ele>
        <time>2019-10-18T19:28:55Z</time>
      </trkpt>
      <trkpt lat="36.9517630" lon="-2.4028610">
        <ele>312.2</ele>
        <time>2019-10-18T19:28:56Z</time>
      </trkpt>
      <trkpt lat="36.9517630" lon="-2.4028590">
        <ele>312.2</ele>
        <time>2019-10-18T19:28:57Z</time>
      </trkpt>
      <trkpt lat="36.9517630" lon="-2.4028590">
        <ele>312.2</ele>
        <time>2019-10-18T19:28:58Z</time>
      </trkpt>
      <trkpt lat="36.9517630" lon="-2.4028600">
        <ele>312.2</ele>
        <time>2019-10-18T19:28:59Z</time>
      </trkpt>
      <trkpt lat="36.9517630" lon="-2.4028600">
        <ele>312.2</ele>
        <time>2019-10-18T19:29:00Z</time>
      </trkpt>
      <trkpt lat="36.9517630" lon="-2.4028610">
        <ele>312.2</ele>
        <time>2019-10-18T19:29:01Z</time>
      </trkpt>
      <trkpt lat="36.9517630" lon="-2.4028620">
        <ele>312.2</ele>
        <time>2019-10-18T19:29:02Z</time>
      </trkpt>
      <trkpt lat="36.9517630" lon="-2.4028620">
        <ele>312.2</ele>
        <time>2019-10-18T19:29:03Z</time>
      </trkpt>
      <trkpt lat="36.9517640" lon="-2.4028630">
        <ele>312.2</ele>
        <time>2019-10-18T19:29:04Z</time>
      </trkpt>
      <trkpt lat="36.9517640" lon="-2.4028630">
        <ele>312.2</ele>
        <time>2019-10-18T19:29:05Z</time>
      </trkpt>
      <trkpt lat="36.9517640" lon="-2.4028640">
        <ele>312.2</ele>
        <time>2019-10-18T19:29:06Z</time>
      </trkpt>
      <trkpt lat="36.9517640" lon="-2.4028640">
        <ele>312.2</ele>
        <time>2019-10-18T19:29:07Z</time>
      </trkpt>
      <trkpt lat="36.9517640" lon="-2.4028650">
        <ele>312.2</ele>
        <time>2019-10-18T19:29:08Z</time>
      </trkpt>
      <trkpt lat="36.9517640" lon="-2.4028650">
        <ele>312.2</ele>
        <time>2019-10-18T19:29:09Z</time>
      </trkpt>
      <trkpt lat="36.9517640" lon="-2.4028650">
        <ele>312.2</ele>
        <time>2019-10-18T19:29:10Z</time>
      </trkpt>
      <trkpt lat="36.9517630" lon="-2.4028660">
        <ele>312.2</ele>
        <time>2019-10-18T19:29:11Z</time>
      </trkpt>
      <trkpt lat="36.9517630" lon="-2.4028660">
        <ele>312.2</ele>
        <time>2019-10-18T19:29:12Z</time>
      </trkpt>
      <trkpt lat="36.9517630" lon="-2.4028660">
        <ele>312.2</ele>
        <time>2019-10-18T19:29:13Z</time>
      </trkpt>
      <trkpt lat="36.9517630" lon="-2.4028660">
        <ele>312.2</ele>
        <time>2019-10-18T19:29:14Z</time>
      </trkpt>
      <trkpt lat="36.9517630" lon="-2.4028660">
        <ele>312.2</ele>
        <time>2019-10-18T19:29:15Z</time>
      </trkpt>
      <trkpt lat="36.9517640" lon="-2.4028670">
        <ele>312.2</ele>
        <time>2019-10-18T19:29:16Z</time>
      </trkpt>
      <trkpt lat="36.9517640" lon="-2.4028670">
        <ele>312.2</ele>
        <time>2019-10-18T19:29:17Z</time>
      </trkpt>
      <trkpt lat="36.9517640" lon="-2.4028680">
        <ele>312.2</ele>
        <time>2019-10-18T19:29:18Z</time>
      </trkpt>
      <trkpt lat="36.9517640" lon="-2.4028690">
        <ele>312.2</ele>
        <time>2019-10-18T19:29:19Z</time>
      </trkpt>
      <trkpt lat="36.9517640" lon="-2.4028690">
        <ele>312.2</ele>
        <time>2019-10-18T19:29:20Z</time>
      </trkpt>
      <trkpt lat="36.9517640" lon="-2.4028700">
        <ele>312.2</ele>
        <time>2019-10-18T19:29:21Z</time>
      </trkpt>
      <trkpt lat="36.9517640" lon="-2.4028700">
        <ele>312.2</ele>
        <time>2019-10-18T19:29:22Z</time>
      </trkpt>
      <trkpt lat="36.9517640" lon="-2.4028710">
        <ele>312.2</ele>
        <time>2019-10-18T19:29:23Z</time>
      </trkpt>
      <trkpt lat="36.9517640" lon="-2.4028710">
        <ele>312.2</ele>
        <time>2019-10-18T19:29:24Z</time>
      </trkpt>
      <trkpt lat="36.9517640" lon="-2.4028710">
        <ele>312.2</ele>
        <time>2019-10-18T19:29:25Z</time>
      </trkpt>
      <trkpt lat="36.9517640" lon="-2.4028710">
        <ele>312.2</ele>
        <time>2019-10-18T19:29:26Z</time>
      </trkpt>
      <trkpt lat="36.9517640" lon="-2.4028710">
        <ele>312.2</ele>
        <time>2019-10-18T19:29:27Z</time>
      </trkpt>
      <trkpt lat="36.9517630" lon="-2.4028710">
        <ele>312.2</ele>
        <time>2019-10-18T19:29:28Z</time>
      </trkpt>
      <trkpt lat="36.9517630" lon="-2.4028710">
        <ele>312.2</ele>
        <time>2019-10-18T19:29:29Z</time>
      </trkpt>
      <trkpt lat="36.9517630" lon="-2.4028710">
        <ele>312.2</ele>
        <time>2019-10-18T19:29:30Z</time>
      </trkpt>
      <trkpt lat="36.9517630" lon="-2.4028710">
        <ele>312.2</ele>
        <time>2019-10-18T19:29:31Z</time>
      </trkpt>
      <trkpt lat="36.9517640" lon="-2.4028720">
        <ele>312.2</ele>
        <time>2019-10-18T19:29:32Z</time>
      </trkpt>
      <trkpt lat="36.9517640" lon="-2.4028720">
        <ele>312.2</ele>
        <time>2019-10-18T19:29:33Z</time>
      </trkpt>
      <trkpt lat="36.9517640" lon="-2.4028730">
        <ele>312.2</ele>
        <time>2019-10-18T19:29:34Z</time>
      </trkpt>
      <trkpt lat="36.9517650" lon="-2.4028730">
        <ele>312.2</ele>
        <time>2019-10-18T19:29:35Z</time>
      </trkpt>
      <trkpt lat="36.9517650" lon="-2.4028730">
        <ele>312.2</ele>
        <time>2019-10-18T19:29:36Z</time>
      </trkpt>
      <trkpt lat="36.9517660" lon="-2.4028730">
        <ele>312.2</ele>
        <time>2019-10-18T19:29:37Z</time>
      </trkpt>
      <trkpt lat="36.9517650" lon="-2.4028730">
        <ele>312.2</ele>
        <time>2019-10-18T19:29:38Z</time>
      </trkpt>
      <trkpt lat="36.9517650" lon="-2.4028730">
        <ele>312.2</ele>
        <time>2019-10-18T19:29:39Z</time>
      </trkpt>
      <trkpt lat="36.9517640" lon="-2.4028740">
        <ele>312.2</ele>
        <time>2019-10-18T19:29:40Z</time>
      </trkpt>
      <trkpt lat="36.9517640" lon="-2.4028750">
        <ele>312.2</ele>
        <time>2019-10-18T19:29:41Z</time>
      </trkpt>
      <trkpt lat="36.9517620" lon="-2.4028760">
        <ele>312.2</ele>
        <time>2019-10-18T19:29:42Z</time>
      </trkpt>
      <trkpt lat="36.9517620" lon="-2.4028770">
        <ele>312.2</ele>
        <time>2019-10-18T19:29:43Z</time>
      </trkpt>
      <trkpt lat="36.9517620" lon="-2.4028770">
        <ele>312.2</ele>
        <time>2019-10-18T19:29:44Z</time>
      </trkpt>
      <trkpt lat="36.9517640" lon="-2.4028770">
        <ele>312.2</ele>
        <time>2019-10-18T19:29:45Z</time>
      </trkpt>
      <trkpt lat="36.9517640" lon="-2.4028790">
        <ele>312.2</ele>
        <time>2019-10-18T19:29:46Z</time>
      </trkpt>
      <trkpt lat="36.9517630" lon="-2.4028800">
        <ele>312.2</ele>
        <time>2019-10-18T19:29:47Z</time>
      </trkpt>
      <trkpt lat="36.9517620" lon="-2.4028790">
        <ele>312.2</ele>
        <time>2019-10-18T19:29:48Z</time>
      </trkpt>
      <trkpt lat="36.9517620" lon="-2.4028760">
        <ele>312.2</ele>
        <time>2019-10-18T19:29:49Z</time>
      </trkpt>
      <trkpt lat="36.9517610" lon="-2.4028740">
        <ele>312.2</ele>
        <time>2019-10-18T19:29:50Z</time>
      </trkpt>
      <trkpt lat="36.9517600" lon="-2.4028730">
        <ele>312.2</ele>
        <time>2019-10-18T19:29:51Z</time>
      </trkpt>
      <trkpt lat="36.9517580" lon="-2.4028720">
        <ele>312.2</ele>
        <time>2019-10-18T19:29:52Z</time>
      </trkpt>
      <trkpt lat="36.9517570" lon="-2.4028690">
        <ele>312.2</ele>
        <time>2019-10-18T19:29:53Z</time>
      </trkpt>
      <trkpt lat="36.9517570" lon="-2.4028670">
        <ele>312.2</ele>
        <time>2019-10-18T19:29:54Z</time>
      </trkpt>
      <trkpt lat="36.9517560" lon="-2.4028670">
        <ele>312.2</ele>
        <time>2019-10-18T19:29:55Z</time>
      </trkpt>
      <trkpt lat="36.9517530" lon="-2.4028660">
        <ele>312.2</ele>
        <time>2019-10-18T19:29:56Z</time>
      </trkpt>
      <trkpt lat="36.9517510" lon="-2.4028620">
        <ele>312.2</ele>
        <time>2019-10-18T19:29:57Z</time>
      </trkpt>
      <trkpt lat="36.9517490" lon="-2.4028560">
        <ele>312.2</ele>
        <time>2019-10-18T19:29:58Z</time>
      </trkpt>
      <trkpt lat="36.9517490" lon="-2.4028500">
        <ele>312.2</ele>
        <time>2019-10-18T19:29:59Z</time>
      </trkpt>
      <trkpt lat="36.9517480" lon="-2.4028430">
        <ele>312.2</ele>
        <time>2019-10-18T19:30:00Z</time>
      </trkpt>
      <trkpt lat="36.9517460" lon="-2.4028360">
        <ele>312.2</ele>
        <time>2019-10-18T19:30:01Z</time>
      </trkpt>
      <trkpt lat="36.9517430" lon="-2.4028290">
        <ele>312.2</ele>
        <time>2019-10-18T19:30:02Z</time>
      </trkpt>
      <trkpt lat="36.9517390" lon="-2.4028210">
        <ele>312.2</ele>
        <time>2019-10-18T19:30:03Z</time>
      </trkpt>
      <trkpt lat="36.9517340" lon="-2.4028110">
        <ele>312.2</ele>
        <time>2019-10-18T19:30:04Z</time>
      </trkpt>
      <trkpt lat="36.9517260" lon="-2.4027990">
        <ele>312.2</ele>
        <time>2019-10-18T19:30:05Z</time>
      </trkpt>
      <trkpt lat="36.9517170" lon="-2.4027850">
        <ele>312.2</ele>
        <time>2019-10-18T19:30:06Z</time>
      </trkpt>
      <trkpt lat="36.9517080" lon="-2.4027700">
        <ele>312.2</ele>
        <time>2019-10-18T19:30:07Z</time>
      </trkpt>
      <trkpt lat="36.9516980" lon="-2.4027530">
        <ele>312.2</ele>
        <time>2019-10-18T19:30:08Z</time>
      </trkpt>
      <trkpt lat="36.9516890" lon="-2.4027360">
        <ele>312.2</ele>
        <time>2019-10-18T19:30:09Z</time>
      </trkpt>
      <trkpt lat="36.9516810" lon="-2.4027190">
        <ele>312.2</ele>
        <time>2019-10-18T19:30:10Z</time>
      </trkpt>
      <trkpt lat="36.9516730" lon="-2.4027020">
        <ele>312.2</ele>
        <time>2019-10-18T19:30:11Z</time>
      </trkpt>
      <trkpt lat="36.9516670" lon="-2.4026840">
        <ele>312.2</ele>
        <time>2019-10-18T19:30:12Z</time>
      </trkpt>
      <trkpt lat="36.9516620" lon="-2.4026650">
        <ele>312.3</ele>
        <time>2019-10-18T19:30:13Z</time>
      </trkpt>
      <trkpt lat="36.9516580" lon="-2.4026450">
        <ele>312.3</ele>
        <time>2019-10-18T19:30:14Z</time>
      </trkpt>
      <trkpt lat="36.9516550" lon="-2.4026250">
        <ele>312.3</ele>
        <time>2019-10-18T19:30:15Z</time>
      </trkpt>
      <trkpt lat="36.9516550" lon="-2.4026060">
        <ele>312.8</ele>
        <time>2019-10-18T19:30:16Z</time>
      </trkpt>
      <trkpt lat="36.9516560" lon="-2.4025880">
        <ele>312.8</ele>
        <time>2019-10-18T19:30:17Z</time>
      </trkpt>
      <trkpt lat="36.9516600" lon="-2.4025700">
        <ele>313.3</ele>
        <time>2019-10-18T19:30:18Z</time>
      </trkpt>
      <trkpt lat="36.9516650" lon="-2.4025520">
        <ele>313.3</ele>
        <time>2019-10-18T19:30:19Z</time>
      </trkpt>
      <trkpt lat="36.9516710" lon="-2.4025350">
        <ele>313.4</ele>
        <time>2019-10-18T19:30:20Z</time>
      </trkpt>
      <trkpt lat="36.9516770" lon="-2.4025180">
        <ele>313.8</ele>
        <time>2019-10-18T19:30:21Z</time>
      </trkpt>
      <trkpt lat="36.9516840" lon="-2.4025030">
        <ele>314.0</ele>
        <time>2019-10-18T19:30:22Z</time>
      </trkpt>
      <trkpt lat="36.9516900" lon="-2.4024890">
        <ele>314.1</ele>
        <time>2019-10-18T19:30:23Z</time>
      </trkpt>
      <trkpt lat="36.9516950" lon="-2.4024770">
        <ele>314.2</ele>
        <time>2019-10-18T19:30:24Z</time>
      </trkpt>
      <trkpt lat="36.9517000" lon="-2.4024670">
        <ele>314.3</ele>
        <time>2019-10-18T19:30:25Z</time>
      </trkpt>
      <trkpt lat="36.9517060" lon="-2.4024600">
        <ele>314.4</ele>
        <time>2019-10-18T19:30:26Z</time>
      </trkpt>
      <trkpt lat="36.9517130" lon="-2.4024520">
        <ele>314.5</ele>
        <time>2019-10-18T19:30:27Z</time>
      </trkpt>
      <trkpt lat="36.9517190" lon="-2.4024420">
        <ele>314.6</ele>
        <time>2019-10-18T19:30:28Z</time>
      </trkpt>
      <trkpt lat="36.9517250" lon="-2.4024280">
        <ele>314.8</ele>
        <time>2019-10-18T19:30:29Z</time>
      </trkpt>
      <trkpt lat="36.9517300" lon="-2.4024130">
        <ele>314.9</ele>
        <time>2019-10-18T19:30:30Z</time>
      </trkpt>
      <trkpt lat="36.9517350" lon="-2.4023970">
        <ele>315.1</ele>
        <time>2019-10-18T19:30:31Z</time>
      </trkpt>
      <trkpt lat="36.9517410" lon="-2.4023810">
        <ele>315.2</ele>
        <time>2019-10-18T19:30:32Z</time>
      </trkpt>
      <trkpt lat="36.9517470" lon="-2.4023650">
        <ele>315.4</ele>
        <time>2019-10-18T19:30:33Z</time>
      </trkpt>
      <trkpt lat="36.9517540" lon="-2.4023490">
        <ele>315.5</ele>
        <time>2019-10-18T19:30:34Z</time>
      </trkpt>
      <trkpt lat="36.9517610" lon="-2.4023330">
        <ele>315.7</ele>
        <time>2019-10-18T19:30:35Z</time>
      </trkpt>
      <trkpt lat="36.9517690" lon="-2.4023170">
        <ele>315.8</ele>
        <time>2019-10-18T19:30:36Z</time>
      </trkpt>
      <trkpt lat="36.9517770" lon="-2.4023010">
        <ele>316.0</ele>
        <time>2019-10-18T19:30:37Z</time>
      </trkpt>
      <trkpt lat="36.9517860" lon="-2.4022850">
        <ele>316.1</ele>
        <time>2019-10-18T19:30:38Z</time>
      </trkpt>
      <trkpt lat="36.9517940" lon="-2.4022680">
        <ele>316.2</ele>
        <time>2019-10-18T19:30:39Z</time>
      </trkpt>
      <trkpt lat="36.9518020" lon="-2.4022520">
        <ele>316.3</ele>
        <time>2019-10-18T19:30:40Z</time>
      </trkpt>
      <trkpt lat="36.9518100" lon="-2.4022360">
        <ele>316.4</ele>
        <time>2019-10-18T19:30:41Z</time>
      </trkpt>
      <trkpt lat="36.9518190" lon="-2.4022200">
        <ele>316.5</ele>
        <time>2019-10-18T19:30:42Z</time>
      </trkpt>
      <trkpt lat="36.9518280" lon="-2.4022040">
        <ele>316.6</ele>
        <time>2019-10-18T19:30:43Z</time>
      </trkpt>
      <trkpt lat="36.9518370" lon="-2.4021870">
        <ele>316.7</ele>
        <time>2019-10-18T19:30:44Z</time>
      </trkpt>
      <trkpt lat="36.9518450" lon="-2.4021720">
        <ele>316.8</ele>
        <time>2019-10-18T19:30:45Z</time>
      </trkpt>
      <trkpt lat="36.9518530" lon="-2.4021570">
        <ele>316.9</ele>
        <time>2019-10-18T19:30:46Z</time>
      </trkpt>
      <trkpt lat="36.9518610" lon="-2.4021420">
        <ele>317.0</ele>
        <time>2019-10-18T19:30:47Z</time>
      </trkpt>
      <trkpt lat="36.9518690" lon="-2.4021280">
        <ele>317.1</ele>
        <time>2019-10-18T19:30:48Z</time>
      </trkpt>
      <trkpt lat="36.9518780" lon="-2.4021140">
        <ele>317.2</ele>
        <time>2019-10-18T19:30:49Z</time>
      </trkpt>
      <trkpt lat="36.9518870" lon="-2.4020990">
        <ele>317.3</ele>
        <time>2019-10-18T19:30:50Z</time>
      </trkpt>
      <trkpt lat="36.9518960" lon="-2.4020850">
        <ele>317.4</ele>
        <time>2019-10-18T19:30:51Z</time>
      </trkpt>
      <trkpt lat="36.9519040" lon="-2.4020700">
        <ele>317.4</ele>
        <time>2019-10-18T19:30:52Z</time>
      </trkpt>
      <trkpt lat="36.9519100" lon="-2.4020540">
        <ele>317.5</ele>
        <time>2019-10-18T19:30:53Z</time>
      </trkpt>
      <trkpt lat="36.9519140" lon="-2.4020380">
        <ele>317.6</ele>
        <time>2019-10-18T19:30:54Z</time>
      </trkpt>
      <trkpt lat="36.9519180" lon="-2.4020220">
        <ele>317.7</ele>
        <time>2019-10-18T19:30:55Z</time>
      </trkpt>
      <trkpt lat="36.9519230" lon="-2.4020090">
        <ele>317.8</ele>
        <time>2019-10-18T19:30:56Z</time>
      </trkpt>
      <trkpt lat="36.9519290" lon="-2.4019960">
        <ele>317.9</ele>
        <time>2019-10-18T19:30:57Z</time>
      </trkpt>
      <trkpt lat="36.9519350" lon="-2.4019810">
        <ele>318.0</ele>
        <time>2019-10-18T19:30:58Z</time>
      </trkpt>
      <trkpt lat="36.9519410" lon="-2.4019650">
        <ele>318.1</ele>
        <time>2019-10-18T19:30:59Z</time>
      </trkpt>
      <trkpt lat="36.9519460" lon="-2.4019510">
        <ele>318.2</ele>
        <time>2019-10-18T19:31:00Z</time>
      </trkpt>
      <trkpt lat="36.9519530" lon="-2.4019380">
        <ele>318.3</ele>
        <time>2019-10-18T19:31:01Z</time>
      </trkpt>
      <trkpt lat="36.9519610" lon="-2.4019280">
        <ele>318.4</ele>
        <time>2019-10-18T19:31:02Z</time>
      </trkpt>
      <trkpt lat="36.9519700" lon="-2.4019180">
        <ele>318.5</ele>
        <time>2019-10-18T19:31:03Z</time>
      </trkpt>
      <trkpt lat="36.9519790" lon="-2.4019070">
        <ele>318.6</ele>
        <time>2019-10-18T19:31:04Z</time>
      </trkpt>
      <trkpt lat="36.9519870" lon="-2.4018920">
        <ele>318.7</ele>
        <time>2019-10-18T19:31:05Z</time>
      </trkpt>
      <trkpt lat="36.9519940" lon="-2.4018760">
        <ele>318.9</ele>
        <time>2019-10-18T19:31:06Z</time>
      </trkpt>
      <trkpt lat="36.9520010" lon="-2.4018600">
        <ele>319.0</ele>
        <time>2019-10-18T19:31:07Z</time>
      </trkpt>
      <trkpt lat="36.9520070" lon="-2.4018450">
        <ele>319.1</ele>
        <time>2019-10-18T19:31:08Z</time>
      </trkpt>
      <trkpt lat="36.9520130" lon="-2.4018300">
        <ele>319.2</ele>
        <time>2019-10-18T19:31:09Z</time>
      </trkpt>
      <trkpt lat="36.9520190" lon="-2.4018150">
        <ele>319.3</ele>
        <time>2019-10-18T19:31:10Z</time>
      </trkpt>
      <trkpt lat="36.9520260" lon="-2.4017990">
        <ele>319.4</ele>
        <time>2019-10-18T19:31:11Z</time>
      </trkpt>
      <trkpt lat="36.9520320" lon="-2.4017830">
        <ele>319.6</ele>
        <time>2019-10-18T19:31:12Z</time>
      </trkpt>
      <trkpt lat="36.9520380" lon="-2.4017660">
        <ele>319.7</ele>
        <time>2019-10-18T19:31:13Z</time>
      </trkpt>
      <trkpt lat="36.9520450" lon="-2.4017480">
        <ele>319.8</ele>
        <time>2019-10-18T19:31:14Z</time>
      </trkpt>
      <trkpt lat="36.9520520" lon="-2.4017320">
        <ele>319.9</ele>
        <time>2019-10-18T19:31:15Z</time>
      </trkpt>
      <trkpt lat="36.9520600" lon="-2.4017170">
        <ele>320.1</ele>
        <time>2019-10-18T19:31:16Z</time>
      </trkpt>
      <trkpt lat="36.9520680" lon="-2.4017030">
        <ele>320.2</ele>
        <time>2019-10-18T19:31:17Z</time>
      </trkpt>
      <trkpt lat="36.9520760" lon="-2.4016880">
        <ele>320.3</ele>
        <time>2019-10-18T19:31:18Z</time>
      </trkpt>
      <trkpt lat="36.9520840" lon="-2.4016740">
        <ele>320.4</ele>
        <time>2019-10-18T19:31:19Z</time>
      </trkpt>
      <trkpt lat="36.9520920" lon="-2.4016590">
        <ele>320.5</ele>
        <time>2019-10-18T19:31:20Z</time>
      </trkpt>
      <trkpt lat="36.9521000" lon="-2.4016440">
        <ele>320.6</ele>
        <time>2019-10-18T19:31:21Z</time>
      </trkpt>
      <trkpt lat="36.9521070" lon="-2.4016270">
        <ele>320.7</ele>
        <time>2019-10-18T19:31:22Z</time>
      </trkpt>
      <trkpt lat="36.9521130" lon="-2.4016090">
        <ele>320.8</ele>
        <time>2019-10-18T19:31:23Z</time>
      </trkpt>
      <trkpt lat="36.9521200" lon="-2.4015900">
        <ele>320.9</ele>
        <time>2019-10-18T19:31:24Z</time>
      </trkpt>
      <trkpt lat="36.9521270" lon="-2.4015710">
        <ele>321.0</ele>
        <time>2019-10-18T19:31:25Z</time>
      </trkpt>
      <trkpt lat="36.9521340" lon="-2.4015540">
        <ele>321.1</ele>
        <time>2019-10-18T19:31:26Z</time>
      </trkpt>
      <trkpt lat="36.9521410" lon="-2.4015380">
        <ele>321.2</ele>
        <time>2019-10-18T19:31:27Z</time>
      </trkpt>
      <trkpt lat="36.9521460" lon="-2.4015220">
        <ele>321.3</ele>
        <time>2019-10-18T19:31:28Z</time>
      </trkpt>
      <trkpt lat="36.9521490" lon="-2.4015050">
        <ele>321.4</ele>
        <time>2019-10-18T19:31:29Z</time>
      </trkpt>
      <trkpt lat="36.9521490" lon="-2.4014890">
        <ele>321.5</ele>
        <time>2019-10-18T19:31:30Z</time>
      </trkpt>
      <trkpt lat="36.9521520" lon="-2.4014730">
        <ele>321.5</ele>
        <time>2019-10-18T19:31:31Z</time>
      </trkpt>
      <trkpt lat="36.9521580" lon="-2.4014590">
        <ele>321.6</ele>
        <time>2019-10-18T19:31:32Z</time>
      </trkpt>
      <trkpt lat="36.9521660" lon="-2.4014460">
        <ele>321.7</ele>
        <time>2019-10-18T19:31:33Z</time>
      </trkpt>
      <trkpt lat="36.9521730" lon="-2.4014300">
        <ele>321.8</ele>
        <time>2019-10-18T19:31:34Z</time>
      </trkpt>
      <trkpt lat="36.9521790" lon="-2.4014140">
        <ele>321.9</ele>
        <time>2019-10-18T19:31:35Z</time>
      </trkpt>
      <trkpt lat="36.9521830" lon="-2.4013970">
        <ele>322.0</ele>
        <time>2019-10-18T19:31:36Z</time>
      </trkpt>
      <trkpt lat="36.9521870" lon="-2.4013810">
        <ele>322.1</ele>
        <time>2019-10-18T19:31:37Z</time>
      </trkpt>
      <trkpt lat="36.9521910" lon="-2.4013650">
        <ele>322.3</ele>
        <time>2019-10-18T19:31:38Z</time>
      </trkpt>
      <trkpt lat="36.9521960" lon="-2.4013500">
        <ele>322.4</ele>
        <time>2019-10-18T19:31:39Z</time>
      </trkpt>
      <trkpt lat="36.9522000" lon="-2.4013340">
        <ele>322.5</ele>
        <time>2019-10-18T19:31:40Z</time>
      </trkpt>
      <trkpt lat="36.9522050" lon="-2.4013180">
        <ele>322.6</ele>
        <time>2019-10-18T19:31:41Z</time>
      </trkpt>
      <trkpt lat="36.9522100" lon="-2.4013010">
        <ele>322.7</ele>
        <time>2019-10-18T19:31:42Z</time>
      </trkpt>
      <trkpt lat="36.9522150" lon="-2.4012830">
        <ele>322.8</ele>
        <time>2019-10-18T19:31:43Z</time>
      </trkpt>
      <trkpt lat="36.9522210" lon="-2.4012650">
        <ele>322.9</ele>
        <time>2019-10-18T19:31:44Z</time>
      </trkpt>
      <trkpt lat="36.9522260" lon="-2.4012460">
        <ele>323.0</ele>
        <time>2019-10-18T19:31:45Z</time>
      </trkpt>
      <trkpt lat="36.9522310" lon="-2.4012280">
        <ele>323.1</ele>
        <time>2019-10-18T19:31:46Z</time>
      </trkpt>
      <trkpt lat="36.9522360" lon="-2.4012100">
        <ele>323.1</ele>
        <time>2019-10-18T19:31:47Z</time>
      </trkpt>
      <trkpt lat="36.9522410" lon="-2.4011940">
        <ele>323.2</ele>
        <time>2019-10-18T19:31:48Z</time>
      </trkpt>
      <trkpt lat="36.9522470" lon="-2.4011790">
        <ele>323.3</ele>
        <time>2019-10-18T19:31:49Z</time>
      </trkpt>
      <trkpt lat="36.9522540" lon="-2.4011630">
        <ele>323.4</ele>
        <time>2019-10-18T19:31:50Z</time>
      </trkpt>
      <trkpt lat="36.9522600" lon="-2.4011470">
        <ele>323.4</ele>
        <time>2019-10-18T19:31:51Z</time>
      </trkpt>
      <trkpt lat="36.9522670" lon="-2.4011330">
        <ele>323.5</ele>
        <time>2019-10-18T19:31:52Z</time>
      </trkpt>
      <trkpt lat="36.9522730" lon="-2.4011180">
        <ele>323.6</ele>
        <time>2019-10-18T19:31:53Z</time>
      </trkpt>
      <trkpt lat="36.9522810" lon="-2.4011030">
        <ele>323.7</ele>
        <time>2019-10-18T19:31:54Z</time>
      </trkpt>
      <trkpt lat="36.9522880" lon="-2.4010870">
        <ele>323.7</ele>
        <time>2019-10-18T19:31:55Z</time>
      </trkpt>
      <trkpt lat="36.9522960" lon="-2.4010690">
        <ele>323.8</ele>
        <time>2019-10-18T19:31:56Z</time>
      </trkpt>
      <trkpt lat="36.9523020" lon="-2.4010500">
        <ele>323.9</ele>
        <time>2019-10-18T19:31:57Z</time>
      </trkpt>
      <trkpt lat="36.9523090" lon="-2.4010310">
        <ele>324.0</ele>
        <time>2019-10-18T19:31:58Z</time>
      </trkpt>
      <trkpt lat="36.9523150" lon="-2.4010120">
        <ele>324.1</ele>
        <time>2019-10-18T19:31:59Z</time>
      </trkpt>
      <trkpt lat="36.9523200" lon="-2.4009920">
        <ele>324.2</ele>
        <time>2019-10-18T19:32:00Z</time>
      </trkpt>
      <trkpt lat="36.9523250" lon="-2.4009730">
        <ele>324.3</ele>
        <time>2019-10-18T19:32:01Z</time>
      </trkpt>
      <trkpt lat="36.9523290" lon="-2.4009520">
        <ele>324.4</ele>
        <time>2019-10-18T19:32:02Z</time>
      </trkpt>
      <trkpt lat="36.9523330" lon="-2.4009320">
        <ele>324.5</ele>
        <time>2019-10-18T19:32:03Z</time>
      </trkpt>
      <trkpt lat="36.9523370" lon="-2.4009150">
        <ele>324.6</ele>
        <time>2019-10-18T19:32:04Z</time>
      </trkpt>
      <trkpt lat="36.9523430" lon="-2.4009000">
        <ele>324.6</ele>
        <time>2019-10-18T19:32:05Z</time>
      </trkpt>
      <trkpt lat="36.9523490" lon="-2.4008870">
        <ele>324.7</ele>
        <time>2019-10-18T19:32:06Z</time>
      </trkpt>
      <trkpt lat="36.9523550" lon="-2.4008730">
        <ele>324.8</ele>
        <time>2019-10-18T19:32:07Z</time>
      </trkpt>
      <trkpt lat="36.9523610" lon="-2.4008570">
        <ele>324.9</ele>
        <time>2019-10-18T19:32:08Z</time>
      </trkpt>
      <trkpt lat="36.9523670" lon="-2.4008400">
        <ele>325.0</ele>
        <time>2019-10-18T19:32:09Z</time>
      </trkpt>
      <trkpt lat="36.9523740" lon="-2.4008230">
        <ele>325.1</ele>
        <time>2019-10-18T19:32:10Z</time>
      </trkpt>
      <trkpt lat="36.9523810" lon="-2.4008050">
        <ele>325.3</ele>
        <time>2019-10-18T19:32:11Z</time>
      </trkpt>
      <trkpt lat="36.9523870" lon="-2.4007870">
        <ele>325.4</ele>
        <time>2019-10-18T19:32:12Z</time>
      </trkpt>
      <trkpt lat="36.9523930" lon="-2.4007680">
        <ele>325.5</ele>
        <time>2019-10-18T19:32:13Z</time>
      </trkpt>
      <trkpt lat="36.9523970" lon="-2.4007510">
        <ele>325.6</ele>
        <time>2019-10-18T19:32:14Z</time>
      </trkpt>
      <trkpt lat="36.9524020" lon="-2.4007340">
        <ele>325.7</ele>
        <time>2019-10-18T19:32:15Z</time>
      </trkpt>
      <trkpt lat="36.9524070" lon="-2.4007190">
        <ele>325.8</ele>
        <time>2019-10-18T19:32:16Z</time>
      </trkpt>
      <trkpt lat="36.9524130" lon="-2.4007050">
        <ele>325.8</ele>
        <time>2019-10-18T19:32:17Z</time>
      </trkpt>
      <trkpt lat="36.9524190" lon="-2.4006910">
        <ele>325.9</ele>
        <time>2019-10-18T19:32:18Z</time>
      </trkpt>
      <trkpt lat="36.9524260" lon="-2.4006760">
        <ele>326.0</ele>
        <time>2019-10-18T19:32:19Z</time>
      </trkpt>
      <trkpt lat="36.9524310" lon="-2.4006600">
        <ele>326.1</ele>
        <time>2019-10-18T19:32:20Z</time>
      </trkpt>
      <trkpt lat="36.9524360" lon="-2.4006430">
        <ele>326.1</ele>
        <time>2019-10-18T19:32:21Z</time>
      </trkpt>
      <trkpt lat="36.9524410" lon="-2.4006250">
        <ele>326.2</ele>
        <time>2019-10-18T19:32:22Z</time>
      </trkpt>
      <trkpt lat="36.9524470" lon="-2.4006070">
        <ele>326.3</ele>
        <time>2019-10-18T19:32:23Z</time>
      </trkpt>
      <trkpt lat="36.9524510" lon="-2.4005880">
        <ele>326.4</ele>
        <time>2019-10-18T19:32:24Z</time>
      </trkpt>
      <trkpt lat="36.9524560" lon="-2.4005690">
        <ele>326.5</ele>
        <time>2019-10-18T19:32:25Z</time>
      </trkpt>
      <trkpt lat="36.9524590" lon="-2.4005500">
        <ele>326.6</ele>
        <time>2019-10-18T19:32:26Z</time>
      </trkpt>
      <trkpt lat="36.9524610" lon="-2.4005300">
        <ele>326.7</ele>
        <time>2019-10-18T19:32:27Z</time>
      </trkpt>
      <trkpt lat="36.9524630" lon="-2.4005110">
        <ele>326.8</ele>
        <time>2019-10-18T19:32:28Z</time>
      </trkpt>
      <trkpt lat="36.9524640" lon="-2.4004930">
        <ele>326.8</ele>
        <time>2019-10-18T19:32:29Z</time>
      </trkpt>
      <trkpt lat="36.9524650" lon="-2.4004740">
        <ele>326.9</ele>
        <time>2019-10-18T19:32:30Z</time>
      </trkpt>
      <trkpt lat="36.9524650" lon="-2.4004550">
        <ele>327.0</ele>
        <time>2019-10-18T19:32:31Z</time>
      </trkpt>
      <trkpt lat="36.9524660" lon="-2.4004360">
        <ele>327.2</ele>
        <time>2019-10-18T19:32:32Z</time>
      </trkpt>
      <trkpt lat="36.9524680" lon="-2.4004160">
        <ele>327.3</ele>
        <time>2019-10-18T19:32:33Z</time>
      </trkpt>
      <trkpt lat="36.9524690" lon="-2.4003970">
        <ele>327.5</ele>
        <time>2019-10-18T19:32:34Z</time>
      </trkpt>
      <trkpt lat="36.9524720" lon="-2.4003780">
        <ele>327.7</ele>
        <time>2019-10-18T19:32:35Z</time>
      </trkpt>
      <trkpt lat="36.9524760" lon="-2.4003610">
        <ele>327.8</ele>
        <time>2019-10-18T19:32:36Z</time>
      </trkpt>
      <trkpt lat="36.9524820" lon="-2.4003430">
        <ele>328.0</ele>
        <time>2019-10-18T19:32:37Z</time>
      </trkpt>
      <trkpt lat="36.9524860" lon="-2.4003250">
        <ele>328.2</ele>
        <time>2019-10-18T19:32:38Z</time>
      </trkpt>
      <trkpt lat="36.9524880" lon="-2.4003060">
        <ele>328.4</ele>
        <time>2019-10-18T19:32:39Z</time>
      </trkpt>
      <trkpt lat="36.9524890" lon="-2.4002880">
        <ele>328.5</ele>
        <time>2019-10-18T19:32:40Z</time>
      </trkpt>
      <trkpt lat="36.9524890" lon="-2.4002700">
        <ele>328.7</ele>
        <time>2019-10-18T19:32:41Z</time>
      </trkpt>
      <trkpt lat="36.9524900" lon="-2.4002520">
        <ele>328.9</ele>
        <time>2019-10-18T19:32:42Z</time>
      </trkpt>
      <trkpt lat="36.9524890" lon="-2.4002340">
        <ele>329.0</ele>
        <time>2019-10-18T19:32:43Z</time>
      </trkpt>
      <trkpt lat="36.9524900" lon="-2.4002170">
        <ele>329.1</ele>
        <time>2019-10-18T19:32:44Z</time>
      </trkpt>
      <trkpt lat="36.9524920" lon="-2.4001990">
        <ele>329.2</ele>
        <time>2019-10-18T19:32:45Z</time>
      </trkpt>
      <trkpt lat="36.9524960" lon="-2.4001840">
        <ele>329.3</ele>
        <time>2019-10-18T19:32:46Z</time>
      </trkpt>
      <trkpt lat="36.9525020" lon="-2.4001690">
        <ele>329.5</ele>
        <time>2019-10-18T19:32:47Z</time>
      </trkpt>
      <trkpt lat="36.9525090" lon="-2.4001550">
        <ele>329.6</ele>
        <time>2019-10-18T19:32:48Z</time>
      </trkpt>
      <trkpt lat="36.9525160" lon="-2.4001420">
        <ele>329.7</ele>
        <time>2019-10-18T19:32:49Z</time>
      </trkpt>
      <trkpt lat="36.9525230" lon="-2.4001280">
        <ele>329.8</ele>
        <time>2019-10-18T19:32:50Z</time>
      </trkpt>
      <trkpt lat="36.9525280" lon="-2.4001110">
        <ele>329.9</ele>
        <time>2019-10-18T19:32:51Z</time>
      </trkpt>
      <trkpt lat="36.9525320" lon="-2.4000930">
        <ele>330.1</ele>
        <time>2019-10-18T19:32:52Z</time>
      </trkpt>
      <trkpt lat="36.9525360" lon="-2.4000750">
        <ele>330.2</ele>
        <time>2019-10-18T19:32:53Z</time>
      </trkpt>
      <trkpt lat="36.9525410" lon="-2.4000560">
        <ele>330.4</ele>
        <time>2019-10-18T19:32:54Z</time>
      </trkpt>
      <trkpt lat="36.9525460" lon="-2.4000370">
        <ele>330.6</ele>
        <time>2019-10-18T19:32:55Z</time>
      </trkpt>
      <trkpt lat="36.9525490" lon="-2.4000180">
        <ele>330.8</ele>
        <time>2019-10-18T19:32:56Z</time>
      </trkpt>
      <trkpt lat="36.9525530" lon="-2.3999990">
        <ele>331.0</ele>
        <time>2019-10-18T19:32:57Z</time>
      </trkpt>
      <trkpt lat="36.9525570" lon="-2.3999800">
        <ele>331.2</ele>
        <time>2019-10-18T19:32:58Z</time>
      </trkpt>
      <trkpt lat="36.9525620" lon="-2.3999610">
        <ele>331.4</ele>
        <time>2019-10-18T19:32:59Z</time>
      </trkpt>
      <trkpt lat="36.9525670" lon="-2.3999420">
        <ele>331.6</ele>
        <time>2019-10-18T19:33:00Z</time>
      </trkpt>
      <trkpt lat="36.9525730" lon="-2.3999230">
        <ele>331.8</ele>
        <time>2019-10-18T19:33:01Z</time>
      </trkpt>
      <trkpt lat="36.9525790" lon="-2.3999030">
        <ele>332.0</ele>
        <time>2019-10-18T19:33:02Z</time>
      </trkpt>
      <trkpt lat="36.9525860" lon="-2.3998840">
        <ele>332.2</ele>
        <time>2019-10-18T19:33:03Z</time>
      </trkpt>
      <trkpt lat="36.9525940" lon="-2.3998670">
        <ele>332.4</ele>
        <time>2019-10-18T19:33:04Z</time>
      </trkpt>
      <trkpt lat="36.9526030" lon="-2.3998520">
        <ele>332.5</ele>
        <time>2019-10-18T19:33:05Z</time>
      </trkpt>
      <trkpt lat="36.9526140" lon="-2.3998380">
        <ele>332.6</ele>
        <time>2019-10-18T19:33:06Z</time>
      </trkpt>
      <trkpt lat="36.9526260" lon="-2.3998250">
        <ele>332.8</ele>
        <time>2019-10-18T19:33:07Z</time>
      </trkpt>
      <trkpt lat="36.9526410" lon="-2.3998140">
        <ele>332.9</ele>
        <time>2019-10-18T19:33:08Z</time>
      </trkpt>
      <trkpt lat="36.9526560" lon="-2.3998040">
        <ele>333.0</ele>
        <time>2019-10-18T19:33:09Z</time>
      </trkpt>
      <trkpt lat="36.9526720" lon="-2.3997960">
        <ele>333.1</ele>
        <time>2019-10-18T19:33:10Z</time>
      </trkpt>
      <trkpt lat="36.9526870" lon="-2.3997880">
        <ele>333.3</ele>
        <time>2019-10-18T19:33:11Z</time>
      </trkpt>
      <trkpt lat="36.9527020" lon="-2.3997800">
        <ele>333.4</ele>
        <time>2019-10-18T19:33:12Z</time>
      </trkpt>
      <trkpt lat="36.9527170" lon="-2.3997700">
        <ele>333.5</ele>
        <time>2019-10-18T19:33:13Z</time>
      </trkpt>
      <trkpt lat="36.9527310" lon="-2.3997600">
        <ele>333.6</ele>
        <time>2019-10-18T19:33:14Z</time>
      </trkpt>
      <trkpt lat="36.9527460" lon="-2.3997510">
        <ele>333.7</ele>
        <time>2019-10-18T19:33:15Z</time>
      </trkpt>
      <trkpt lat="36.9527610" lon="-2.3997440">
        <ele>333.9</ele>
        <time>2019-10-18T19:33:16Z</time>
      </trkpt>
      <trkpt lat="36.9527750" lon="-2.3997390">
        <ele>334.0</ele>
        <time>2019-10-18T19:33:17Z</time>
      </trkpt>
      <trkpt lat="36.9527880" lon="-2.3997360">
        <ele>334.1</ele>
        <time>2019-10-18T19:33:18Z</time>
      </trkpt>
      <trkpt lat="36.9528000" lon="-2.3997330">
        <ele>334.2</ele>
        <time>2019-10-18T19:33:19Z</time>
      </trkpt>
      <trkpt lat="36.9528110" lon="-2.3997310">
        <ele>334.3</ele>
        <time>2019-10-18T19:33:20Z</time>
      </trkpt>
      <trkpt lat="36.9528240" lon="-2.3997250">
        <ele>334.4</ele>
        <time>2019-10-18T19:33:21Z</time>
      </trkpt>
      <trkpt lat="36.9528360" lon="-2.3997170">
        <ele>334.5</ele>
        <time>2019-10-18T19:33:22Z</time>
      </trkpt>
      <trkpt lat="36.9528480" lon="-2.3997080">
        <ele>334.6</ele>
        <time>2019-10-18T19:33:23Z</time>
      </trkpt>
      <trkpt lat="36.9528600" lon="-2.3996980">
        <ele>334.7</ele>
        <time>2019-10-18T19:33:24Z</time>
      </trkpt>
      <trkpt lat="36.9528720" lon="-2.3996900">
        <ele>334.8</ele>
        <time>2019-10-18T19:33:25Z</time>
      </trkpt>
      <trkpt lat="36.9528850" lon="-2.3996830">
        <ele>334.9</ele>
        <time>2019-10-18T19:33:26Z</time>
      </trkpt>
      <trkpt lat="36.9528990" lon="-2.3996770">
        <ele>335.0</ele>
        <time>2019-10-18T19:33:27Z</time>
      </trkpt>
      <trkpt lat="36.9529130" lon="-2.3996700">
        <ele>335.2</ele>
        <time>2019-10-18T19:33:28Z</time>
      </trkpt>
      <trkpt lat="36.9529260" lon="-2.3996610">
        <ele>335.4</ele>
        <time>2019-10-18T19:33:29Z</time>
      </trkpt>
      <trkpt lat="36.9529380" lon="-2.3996520">
        <ele>335.5</ele>
        <time>2019-10-18T19:33:30Z</time>
      </trkpt>
      <trkpt lat="36.9529490" lon="-2.3996420">
        <ele>335.6</ele>
        <time>2019-10-18T19:33:31Z</time>
      </trkpt>
      <trkpt lat="36.9529590" lon="-2.3996320">
        <ele>335.8</ele>
        <time>2019-10-18T19:33:32Z</time>
      </trkpt>
      <trkpt lat="36.9529680" lon="-2.3996230">
        <ele>335.9</ele>
        <time>2019-10-18T19:33:33Z</time>
      </trkpt>
      <trkpt lat="36.9529800" lon="-2.3996160">
        <ele>336.0</ele>
        <time>2019-10-18T19:33:34Z</time>
      </trkpt>
      <trkpt lat="36.9529930" lon="-2.3996110">
        <ele>336.2</ele>
        <time>2019-10-18T19:33:35Z</time>
      </trkpt>
      <trkpt lat="36.9530090" lon="-2.3996030">
        <ele>336.3</ele>
        <time>2019-10-18T19:33:36Z</time>
      </trkpt>
      <trkpt lat="36.9530230" lon="-2.3995930">
        <ele>336.4</ele>
        <time>2019-10-18T19:33:37Z</time>
      </trkpt>
      <trkpt lat="36.9530360" lon="-2.3995830">
        <ele>336.6</ele>
        <time>2019-10-18T19:33:38Z</time>
      </trkpt>
      <trkpt lat="36.9530490" lon="-2.3995730">
        <ele>336.7</ele>
        <time>2019-10-18T19:33:39Z</time>
      </trkpt>
      <trkpt lat="36.9530620" lon="-2.3995640">
        <ele>336.7</ele>
        <time>2019-10-18T19:33:40Z</time>
      </trkpt>
      <trkpt lat="36.9530750" lon="-2.3995570">
        <ele>336.8</ele>
        <time>2019-10-18T19:33:41Z</time>
      </trkpt>
      <trkpt lat="36.9530880" lon="-2.3995510">
        <ele>337.0</ele>
        <time>2019-10-18T19:33:42Z</time>
      </trkpt>
      <trkpt lat="36.9531000" lon="-2.3995450">
        <ele>337.0</ele>
        <time>2019-10-18T19:33:43Z</time>
      </trkpt>
      <trkpt lat="36.9531120" lon="-2.3995360">
        <ele>337.1</ele>
        <time>2019-10-18T19:33:44Z</time>
      </trkpt>
      <trkpt lat="36.9531240" lon="-2.3995260">
        <ele>337.2</ele>
        <time>2019-10-18T19:33:45Z</time>
      </trkpt>
      <trkpt lat="36.9531360" lon="-2.3995170">
        <ele>337.3</ele>
        <time>2019-10-18T19:33:46Z</time>
      </trkpt>
      <trkpt lat="36.9531480" lon="-2.3995070">
        <ele>337.3</ele>
        <time>2019-10-18T19:33:47Z</time>
      </trkpt>
      <trkpt lat="36.9531610" lon="-2.3994950">
        <ele>337.4</ele>
        <time>2019-10-18T19:33:48Z</time>
      </trkpt>
      <trkpt lat="36.9531740" lon="-2.3994820">
        <ele>337.5</ele>
        <time>2019-10-18T19:33:49Z</time>
      </trkpt>
      <trkpt lat="36.9531850" lon="-2.3994690">
        <ele>337.6</ele>
        <time>2019-10-18T19:33:50Z</time>
      </trkpt>
      <trkpt lat="36.9531960" lon="-2.3994560">
        <ele>337.7</ele>
        <time>2019-10-18T19:33:51Z</time>
      </trkpt>
      <trkpt lat="36.9532070" lon="-2.3994430">
        <ele>337.8</ele>
        <time>2019-10-18T19:33:52Z</time>
      </trkpt>
      <trkpt lat="36.9532180" lon="-2.3994300">
        <ele>337.9</ele>
        <time>2019-10-18T19:33:53Z</time>
      </trkpt>
      <trkpt lat="36.9532310" lon="-2.3994180">
        <ele>338.0</ele>
        <time>2019-10-18T19:33:54Z</time>
      </trkpt>
      <trkpt lat="36.9532430" lon="-2.3994080">
        <ele>338.1</ele>
        <time>2019-10-18T19:33:55Z</time>
      </trkpt>
      <trkpt lat="36.9532560" lon="-2.3993980">
        <ele>338.1</ele>
        <time>2019-10-18T19:33:56Z</time>
      </trkpt>
      <trkpt lat="36.9532690" lon="-2.3993870">
        <ele>338.2</ele>
        <time>2019-10-18T19:33:57Z</time>
      </trkpt>
      <trkpt lat="36.9532810" lon="-2.3993750">
        <ele>338.3</ele>
        <time>2019-10-18T19:33:58Z</time>
      </trkpt>
      <trkpt lat="36.9532920" lon="-2.3993640">
        <ele>338.3</ele>
        <time>2019-10-18T19:33:59Z</time>
      </trkpt>
      <trkpt lat="36.9533040" lon="-2.3993550">
        <ele>338.4</ele>
        <time>2019-10-18T19:34:00Z</time>
      </trkpt>
      <trkpt lat="36.9533170" lon="-2.3993450">
        <ele>338.4</ele>
        <time>2019-10-18T19:34:01Z</time>
      </trkpt>
      <trkpt lat="36.9533290" lon="-2.3993350">
        <ele>338.5</ele>
        <time>2019-10-18T19:34:02Z</time>
      </trkpt>
      <trkpt lat="36.9533410" lon="-2.3993240">
        <ele>338.6</ele>
        <time>2019-10-18T19:34:03Z</time>
      </trkpt>
      <trkpt lat="36.9533530" lon="-2.3993130">
        <ele>338.6</ele>
        <time>2019-10-18T19:34:04Z</time>
      </trkpt>
      <trkpt lat="36.9533650" lon="-2.3993020">
        <ele>338.6</ele>
        <time>2019-10-18T19:34:05Z</time>
      </trkpt>
      <trkpt lat="36.9533780" lon="-2.3992900">
        <ele>338.7</ele>
        <time>2019-10-18T19:34:06Z</time>
      </trkpt>
      <trkpt lat="36.9533920" lon="-2.3992790">
        <ele>338.7</ele>
        <time>2019-10-18T19:34:07Z</time>
      </trkpt>
      <trkpt lat="36.9534060" lon="-2.3992690">
        <ele>338.7</ele>
        <time>2019-10-18T19:34:08Z</time>
      </trkpt>
      <trkpt lat="36.9534200" lon="-2.3992570">
        <ele>338.8</ele>
        <time>2019-10-18T19:34:09Z</time>
      </trkpt>
      <trkpt lat="36.9534340" lon="-2.3992440">
        <ele>338.8</ele>
        <time>2019-10-18T19:34:10Z</time>
      </trkpt>
      <trkpt lat="36.9534470" lon="-2.3992300">
        <ele>338.8</ele>
        <time>2019-10-18T19:34:11Z</time>
      </trkpt>
      <trkpt lat="36.9534600" lon="-2.3992140">
        <ele>338.9</ele>
        <time>2019-10-18T19:34:12Z</time>
      </trkpt>
      <trkpt lat="36.9534720" lon="-2.3991990">
        <ele>338.9</ele>
        <time>2019-10-18T19:34:13Z</time>
      </trkpt>
      <trkpt lat="36.9534840" lon="-2.3991840">
        <ele>338.9</ele>
        <time>2019-10-18T19:34:14Z</time>
      </trkpt>
      <trkpt lat="36.9534960" lon="-2.3991720">
        <ele>339.0</ele>
        <time>2019-10-18T19:34:15Z</time>
      </trkpt>
      <trkpt lat="36.9535100" lon="-2.3991600">
        <ele>339.0</ele>
        <time>2019-10-18T19:34:16Z</time>
      </trkpt>
      <trkpt lat="36.9535240" lon="-2.3991490">
        <ele>339.0</ele>
        <time>2019-10-18T19:34:17Z</time>
      </trkpt>
      <trkpt lat="36.9535390" lon="-2.3991390">
        <ele>339.1</ele>
        <time>2019-10-18T19:34:18Z</time>
      </trkpt>
      <trkpt lat="36.9535540" lon="-2.3991290">
        <ele>339.1</ele>
        <time>2019-10-18T19:34:19Z</time>
      </trkpt>
      <trkpt lat="36.9535680" lon="-2.3991180">
        <ele>339.2</ele>
        <time>2019-10-18T19:34:20Z</time>
      </trkpt>
      <trkpt lat="36.9535810" lon="-2.3991060">
        <ele>339.2</ele>
        <time>2019-10-18T19:34:21Z</time>
      </trkpt>
      <trkpt lat="36.9535930" lon="-2.3990930">
        <ele>339.3</ele>
        <time>2019-10-18T19:34:22Z</time>
      </trkpt>
      <trkpt lat="36.9536060" lon="-2.3990800">
        <ele>339.3</ele>
        <time>2019-10-18T19:34:23Z</time>
      </trkpt>
      <trkpt lat="36.9536180" lon="-2.3990690">
        <ele>339.4</ele>
        <time>2019-10-18T19:34:24Z</time>
      </trkpt>
      <trkpt lat="36.9536300" lon="-2.3990580">
        <ele>339.4</ele>
        <time>2019-10-18T19:34:25Z</time>
      </trkpt>
      <trkpt lat="36.9536420" lon="-2.3990480">
        <ele>339.5</ele>
        <time>2019-10-18T19:34:26Z</time>
      </trkpt>
      <trkpt lat="36.9536540" lon="-2.3990380">
        <ele>339.5</ele>
        <time>2019-10-18T19:34:27Z</time>
      </trkpt>
      <trkpt lat="36.9536670" lon="-2.3990320">
        <ele>339.6</ele>
        <time>2019-10-18T19:34:28Z</time>
      </trkpt>
      <trkpt lat="36.9536820" lon="-2.3990260">
        <ele>339.6</ele>
        <time>2019-10-18T19:34:29Z</time>
      </trkpt>
      <trkpt lat="36.9536980" lon="-2.3990220">
        <ele>339.6</ele>
        <time>2019-10-18T19:34:30Z</time>
      </trkpt>
      <trkpt lat="36.9537160" lon="-2.3990190">
        <ele>339.6</ele>
        <time>2019-10-18T19:34:31Z</time>
      </trkpt>
      <trkpt lat="36.9537340" lon="-2.3990190">
        <ele>339.7</ele>
        <time>2019-10-18T19:34:32Z</time>
      </trkpt>
      <trkpt lat="36.9537520" lon="-2.3990190">
        <ele>339.7</ele>
        <time>2019-10-18T19:34:33Z</time>
      </trkpt>
      <trkpt lat="36.9537700" lon="-2.3990210">
        <ele>339.8</ele>
        <time>2019-10-18T19:34:34Z</time>
      </trkpt>
      <trkpt lat="36.9537890" lon="-2.3990240">
        <ele>339.8</ele>
        <time>2019-10-18T19:34:35Z</time>
      </trkpt>
      <trkpt lat="36.9538070" lon="-2.3990270">
        <ele>339.9</ele>
        <time>2019-10-18T19:34:36Z</time>
      </trkpt>
      <trkpt lat="36.9538250" lon="-2.3990310">
        <ele>340.0</ele>
        <time>2019-10-18T19:34:37Z</time>
      </trkpt>
      <trkpt lat="36.9538420" lon="-2.3990340">
        <ele>340.0</ele>
        <time>2019-10-18T19:34:38Z</time>
      </trkpt>
      <trkpt lat="36.9538580" lon="-2.3990380">
        <ele>340.1</ele>
        <time>2019-10-18T19:34:39Z</time>
      </trkpt>
      <trkpt lat="36.9538750" lon="-2.3990380">
        <ele>340.1</ele>
        <time>2019-10-18T19:34:40Z</time>
      </trkpt>
      <trkpt lat="36.9538910" lon="-2.3990380">
        <ele>340.2</ele>
        <time>2019-10-18T19:34:41Z</time>
      </trkpt>
      <trkpt lat="36.9539070" lon="-2.3990380">
        <ele>340.2</ele>
        <time>2019-10-18T19:34:42Z</time>
      </trkpt>
      <trkpt lat="36.9539220" lon="-2.3990390">
        <ele>340.3</ele>
        <time>2019-10-18T19:34:43Z</time>
      </trkpt>
      <trkpt lat="36.9539370" lon="-2.3990410">
        <ele>340.3</ele>
        <time>2019-10-18T19:34:44Z</time>
      </trkpt>
      <trkpt lat="36.9539530" lon="-2.3990420">
        <ele>340.4</ele>
        <time>2019-10-18T19:34:45Z</time>
      </trkpt>
      <trkpt lat="36.9539700" lon="-2.3990410">
        <ele>340.5</ele>
        <time>2019-10-18T19:34:46Z</time>
      </trkpt>
      <trkpt lat="36.9539850" lon="-2.3990390">
        <ele>340.6</ele>
        <time>2019-10-18T19:34:47Z</time>
      </trkpt>
      <trkpt lat="36.9540000" lon="-2.3990350">
        <ele>340.7</ele>
        <time>2019-10-18T19:34:48Z</time>
      </trkpt>
      <trkpt lat="36.9540160" lon="-2.3990320">
        <ele>340.8</ele>
        <time>2019-10-18T19:34:49Z</time>
      </trkpt>
      <trkpt lat="36.9540310" lon="-2.3990270">
        <ele>340.9</ele>
        <time>2019-10-18T19:34:50Z</time>
      </trkpt>
      <trkpt lat="36.9540450" lon="-2.3990200">
        <ele>341.0</ele>
        <time>2019-10-18T19:34:51Z</time>
      </trkpt>
      <trkpt lat="36.9540590" lon="-2.3990100">
        <ele>341.1</ele>
        <time>2019-10-18T19:34:52Z</time>
      </trkpt>
      <trkpt lat="36.9540720" lon="-2.3989990">
        <ele>341.2</ele>
        <time>2019-10-18T19:34:53Z</time>
      </trkpt>
      <trkpt lat="36.9540860" lon="-2.3989880">
        <ele>341.3</ele>
        <time>2019-10-18T19:34:54Z</time>
      </trkpt>
      <trkpt lat="36.9541000" lon="-2.3989790">
        <ele>341.4</ele>
        <time>2019-10-18T19:34:55Z</time>
      </trkpt>
      <trkpt lat="36.9541150" lon="-2.3989710">
        <ele>341.5</ele>
        <time>2019-10-18T19:34:56Z</time>
      </trkpt>
      <trkpt lat="36.9541310" lon="-2.3989630">
        <ele>341.6</ele>
        <time>2019-10-18T19:34:57Z</time>
      </trkpt>
      <trkpt lat="36.9541500" lon="-2.3989570">
        <ele>341.7</ele>
        <time>2019-10-18T19:34:58Z</time>
      </trkpt>
      <trkpt lat="36.9541710" lon="-2.3989510">
        <ele>341.9</ele>
        <time>2019-10-18T19:34:59Z</time>
      </trkpt>
      <trkpt lat="36.9541930" lon="-2.3989460">
        <ele>342.0</ele>
        <time>2019-10-18T19:35:00Z</time>
      </trkpt>
      <trkpt lat="36.9542170" lon="-2.3989410">
        <ele>342.1</ele>
        <time>2019-10-18T19:35:01Z</time>
      </trkpt>
      <trkpt lat="36.9542420" lon="-2.3989340">
        <ele>342.3</ele>
        <time>2019-10-18T19:35:02Z</time>
      </trkpt>
      <trkpt lat="36.9542700" lon="-2.3989260">
        <ele>342.6</ele>
        <time>2019-10-18T19:35:03Z</time>
      </trkpt>
      <trkpt lat="36.9543000" lon="-2.3989150">
        <ele>342.8</ele>
        <time>2019-10-18T19:35:04Z</time>
      </trkpt>
      <trkpt lat="36.9543300" lon="-2.3989040">
        <ele>343.0</ele>
        <time>2019-10-18T19:35:05Z</time>
      </trkpt>
      <trkpt lat="36.9543610" lon="-2.3988930">
        <ele>343.3</ele>
        <time>2019-10-18T19:35:06Z</time>
      </trkpt>
      <trkpt lat="36.9543910" lon="-2.3988850">
        <ele>343.6</ele>
        <time>2019-10-18T19:35:07Z</time>
      </trkpt>
      <trkpt lat="36.9544210" lon="-2.3988760">
        <ele>343.9</ele>
        <time>2019-10-18T19:35:08Z</time>
      </trkpt>
      <trkpt lat="36.9544500" lon="-2.3988660">
        <ele>344.2</ele>
        <time>2019-10-18T19:35:09Z</time>
      </trkpt>
      <trkpt lat="36.9544780" lon="-2.3988530">
        <ele>344.5</ele>
        <time>2019-10-18T19:35:10Z</time>
      </trkpt>
      <trkpt lat="36.9545020" lon="-2.3988380">
        <ele>344.9</ele>
        <time>2019-10-18T19:35:11Z</time>
      </trkpt>
      <trkpt lat="36.9545230" lon="-2.3988190">
        <ele>345.2</ele>
        <time>2019-10-18T19:35:12Z</time>
      </trkpt>
      <trkpt lat="36.9545420" lon="-2.3988000">
        <ele>345.6</ele>
        <time>2019-10-18T19:35:13Z</time>
      </trkpt>
      <trkpt lat="36.9545580" lon="-2.3987800">
        <ele>345.9</ele>
        <time>2019-10-18T19:35:14Z</time>
      </trkpt>
      <trkpt lat="36.9545710" lon="-2.3987610">
        <ele>346.2</ele>
        <time>2019-10-18T19:35:15Z</time>
      </trkpt>
      <trkpt lat="36.9545830" lon="-2.3987410">
        <ele>346.5</ele>
        <time>2019-10-18T19:35:16Z</time>
      </trkpt>
      <trkpt lat="36.9545910" lon="-2.3987200">
        <ele>347.0</ele>
        <time>2019-10-18T19:35:17Z</time>
      </trkpt>
      <trkpt lat="36.9545960" lon="-2.3986960">
        <ele>347.4</ele>
        <time>2019-10-18T19:35:18Z</time>
      </trkpt>
      <trkpt lat="36.9545990" lon="-2.3986700">
        <ele>347.9</ele>
        <time>2019-10-18T19:35:19Z</time>
      </trkpt>
      <trkpt lat="36.9545990" lon="-2.3986420">
        <ele>348.5</ele>
        <time>2019-10-18T19:35:20Z</time>
      </trkpt>
      <trkpt lat="36.9545970" lon="-2.3986140">
        <ele>349.1</ele>
        <time>2019-10-18T19:35:21Z</time>
      </trkpt>
      <trkpt lat="36.9545920" lon="-2.3985860">
        <ele>349.7</ele>
        <time>2019-10-18T19:35:22Z</time>
      </trkpt>
      <trkpt lat="36.9545860" lon="-2.3985610">
        <ele>350.3</ele>
        <time>2019-10-18T19:35:23Z</time>
      </trkpt>
      <trkpt lat="36.9545780" lon="-2.3985390">
        <ele>350.8</ele>
        <time>2019-10-18T19:35:24Z</time>
      </trkpt>
      <trkpt lat="36.9545700" lon="-2.3985210">
        <ele>351.2</ele>
        <time>2019-10-18T19:35:25Z</time>
      </trkpt>
      <trkpt lat="36.9545630" lon="-2.3985040">
        <ele>351.6</ele>
        <time>2019-10-18T19:35:26Z</time>
      </trkpt>
      <trkpt lat="36.9545560" lon="-2.3984890">
        <ele>351.9</ele>
        <time>2019-10-18T19:35:27Z</time>
      </trkpt>
      <trkpt lat="36.9545480" lon="-2.3984750">
        <ele>352.2</ele>
        <time>2019-10-18T19:35:28Z</time>
      </trkpt>
      <trkpt lat="36.9545390" lon="-2.3984610">
        <ele>352.6</ele>
        <time>2019-10-18T19:35:29Z</time>
      </trkpt>
      <trkpt lat="36.9545310" lon="-2.3984470">
        <ele>352.9</ele>
        <time>2019-10-18T19:35:30Z</time>
      </trkpt>
      <trkpt lat="36.9545240" lon="-2.3984330">
        <ele>353.3</ele>
        <time>2019-10-18T19:35:31Z</time>
      </trkpt>
      <trkpt lat="36.9545190" lon="-2.3984210">
        <ele>354.0</ele>
        <time>2019-10-18T19:35:32Z</time>
      </trkpt>
      <trkpt lat="36.9545150" lon="-2.3984060">
        <ele>354.2</ele>
        <time>2019-10-18T19:35:33Z</time>
      </trkpt>
      <trkpt lat="36.9545110" lon="-2.3983900">
        <ele>354.3</ele>
        <time>2019-10-18T19:35:34Z</time>
      </trkpt>
      <trkpt lat="36.9545050" lon="-2.3983750">
        <ele>354.5</ele>
        <time>2019-10-18T19:35:35Z</time>
      </trkpt>
      <trkpt lat="36.9545010" lon="-2.3983610">
        <ele>354.7</ele>
        <time>2019-10-18T19:35:36Z</time>
      </trkpt>
      <trkpt lat="36.9544980" lon="-2.3983480">
        <ele>354.8</ele>
        <time>2019-10-18T19:35:37Z</time>
      </trkpt>
      <trkpt lat="36.9544960" lon="-2.3983330">
        <ele>355.0</ele>
        <time>2019-10-18T19:35:38Z</time>
      </trkpt>
      <trkpt lat="36.9544940" lon="-2.3983180">
        <ele>355.1</ele>
        <time>2019-10-18T19:35:39Z</time>
      </trkpt>
      <trkpt lat="36.9544910" lon="-2.3983030">
        <ele>355.3</ele>
        <time>2019-10-18T19:35:40Z</time>
      </trkpt>
      <trkpt lat="36.9544890" lon="-2.3982880">
        <ele>355.4</ele>
        <time>2019-10-18T19:35:41Z</time>
      </trkpt>
      <trkpt lat="36.9544870" lon="-2.3982730">
        <ele>355.6</ele>
        <time>2019-10-18T19:35:42Z</time>
      </trkpt>
      <trkpt lat="36.9544870" lon="-2.3982580">
        <ele>355.7</ele>
        <time>2019-10-18T19:35:43Z</time>
      </trkpt>
      <trkpt lat="36.9544880" lon="-2.3982430">
        <ele>355.9</ele>
        <time>2019-10-18T19:35:44Z</time>
      </trkpt>
      <trkpt lat="36.9544910" lon="-2.3982280">
        <ele>356.1</ele>
        <time>2019-10-18T19:35:45Z</time>
      </trkpt>
      <trkpt lat="36.9544920" lon="-2.3982140">
        <ele>356.3</ele>
        <time>2019-10-18T19:35:46Z</time>
      </trkpt>
      <trkpt lat="36.9544910" lon="-2.3982040">
        <ele>356.4</ele>
        <time>2019-10-18T19:35:47Z</time>
      </trkpt>
      <trkpt lat="36.9544910" lon="-2.3981970">
        <ele>356.5</ele>
        <time>2019-10-18T19:35:48Z</time>
      </trkpt>
      <trkpt lat="36.9544930" lon="-2.3981940">
        <ele>356.6</ele>
        <time>2019-10-18T19:35:49Z</time>
      </trkpt>
      <trkpt lat="36.9544960" lon="-2.3981920">
        <ele>356.7</ele>
        <time>2019-10-18T19:35:50Z</time>
      </trkpt>
      <trkpt lat="36.9544990" lon="-2.3981900">
        <ele>356.7</ele>
        <time>2019-10-18T19:35:51Z</time>
      </trkpt>
      <trkpt lat="36.9545020" lon="-2.3981890">
        <ele>356.8</ele>
        <time>2019-10-18T19:35:52Z</time>
      </trkpt>
      <trkpt lat="36.9545060" lon="-2.3981870">
        <ele>356.8</ele>
        <time>2019-10-18T19:35:53Z</time>
      </trkpt>
      <trkpt lat="36.9545120" lon="-2.3981830">
        <ele>357.0</ele>
        <time>2019-10-18T19:35:54Z</time>
      </trkpt>
      <trkpt lat="36.9545190" lon="-2.3981790">
        <ele>357.1</ele>
        <time>2019-10-18T19:35:55Z</time>
      </trkpt>
      <trkpt lat="36.9545290" lon="-2.3981750">
        <ele>357.3</ele>
        <time>2019-10-18T19:35:56Z</time>
      </trkpt>
      <trkpt lat="36.9545380" lon="-2.3981700">
        <ele>357.5</ele>
        <time>2019-10-18T19:35:57Z</time>
      </trkpt>
      <trkpt lat="36.9545470" lon="-2.3981630">
        <ele>357.7</ele>
        <time>2019-10-18T19:35:58Z</time>
      </trkpt>
      <trkpt lat="36.9545550" lon="-2.3981550">
        <ele>357.9</ele>
        <time>2019-10-18T19:35:59Z</time>
      </trkpt>
      <trkpt lat="36.9545630" lon="-2.3981470">
        <ele>358.1</ele>
        <time>2019-10-18T19:36:00Z</time>
      </trkpt>
      <trkpt lat="36.9545730" lon="-2.3981410">
        <ele>358.3</ele>
        <time>2019-10-18T19:36:01Z</time>
      </trkpt>
      <trkpt lat="36.9545850" lon="-2.3981380">
        <ele>358.5</ele>
        <time>2019-10-18T19:36:02Z</time>
      </trkpt>
      <trkpt lat="36.9545970" lon="-2.3981400">
        <ele>358.7</ele>
        <time>2019-10-18T19:36:03Z</time>
      </trkpt>
      <trkpt lat="36.9546090" lon="-2.3981450">
        <ele>358.9</ele>
        <time>2019-10-18T19:36:04Z</time>
      </trkpt>
      <trkpt lat="36.9546220" lon="-2.3981490">
        <ele>359.1</ele>
        <time>2019-10-18T19:36:05Z</time>
      </trkpt>
      <trkpt lat="36.9546350" lon="-2.3981530">
        <ele>359.3</ele>
        <time>2019-10-18T19:36:06Z</time>
      </trkpt>
      <trkpt lat="36.9546470" lon="-2.3981560">
        <ele>359.4</ele>
        <time>2019-10-18T19:36:07Z</time>
      </trkpt>
      <trkpt lat="36.9546600" lon="-2.3981600">
        <ele>359.6</ele>
        <time>2019-10-18T19:36:08Z</time>
      </trkpt>
      <trkpt lat="36.9546730" lon="-2.3981630">
        <ele>359.8</ele>
        <time>2019-10-18T19:36:09Z</time>
      </trkpt>
      <trkpt lat="36.9546860" lon="-2.3981660">
        <ele>360.0</ele>
        <time>2019-10-18T19:36:10Z</time>
      </trkpt>
      <trkpt lat="36.9546980" lon="-2.3981710">
        <ele>360.1</ele>
        <time>2019-10-18T19:36:11Z</time>
      </trkpt>
      <trkpt lat="36.9547100" lon="-2.3981770">
        <ele>360.3</ele>
        <time>2019-10-18T19:36:12Z</time>
      </trkpt>
      <trkpt lat="36.9547200" lon="-2.3981850">
        <ele>360.4</ele>
        <time>2019-10-18T19:36:13Z</time>
      </trkpt>
      <trkpt lat="36.9547310" lon="-2.3981940">
        <ele>360.6</ele>
        <time>2019-10-18T19:36:14Z</time>
      </trkpt>
      <trkpt lat="36.9547410" lon="-2.3982020">
        <ele>360.8</ele>
        <time>2019-10-18T19:36:15Z</time>
      </trkpt>
      <trkpt lat="36.9547510" lon="-2.3982090">
        <ele>361.0</ele>
        <time>2019-10-18T19:36:16Z</time>
      </trkpt>
      <trkpt lat="36.9547610" lon="-2.3982170">
        <ele>361.2</ele>
        <time>2019-10-18T19:36:17Z</time>
      </trkpt>
      <trkpt lat="36.9547710" lon="-2.3982260">
        <ele>361.4</ele>
        <time>2019-10-18T19:36:18Z</time>
      </trkpt>
      <trkpt lat="36.9547820" lon="-2.3982350">
        <ele>361.6</ele>
        <time>2019-10-18T19:36:19Z</time>
      </trkpt>
      <trkpt lat="36.9547950" lon="-2.3982440">
        <ele>361.8</ele>
        <time>2019-10-18T19:36:20Z</time>
      </trkpt>
      <trkpt lat="36.9548070" lon="-2.3982530">
        <ele>361.9</ele>
        <time>2019-10-18T19:36:21Z</time>
      </trkpt>
      <trkpt lat="36.9548200" lon="-2.3982620">
        <ele>362.1</ele>
        <time>2019-10-18T19:36:22Z</time>
      </trkpt>
      <trkpt lat="36.9548320" lon="-2.3982710">
        <ele>362.2</ele>
        <time>2019-10-18T19:36:23Z</time>
      </trkpt>
      <trkpt lat="36.9548430" lon="-2.3982790">
        <ele>362.4</ele>
        <time>2019-10-18T19:36:24Z</time>
      </trkpt>
      <trkpt lat="36.9548540" lon="-2.3982870">
        <ele>362.5</ele>
        <time>2019-10-18T19:36:25Z</time>
      </trkpt>
      <trkpt lat="36.9548660" lon="-2.3982960">
        <ele>362.7</ele>
        <time>2019-10-18T19:36:26Z</time>
      </trkpt>
      <trkpt lat="36.9548780" lon="-2.3983040">
        <ele>362.8</ele>
        <time>2019-10-18T19:36:27Z</time>
      </trkpt>
      <trkpt lat="36.9548900" lon="-2.3983130">
        <ele>363.0</ele>
        <time>2019-10-18T19:36:28Z</time>
      </trkpt>
      <trkpt lat="36.9549010" lon="-2.3983230">
        <ele>363.2</ele>
        <time>2019-10-18T19:36:29Z</time>
      </trkpt>
      <trkpt lat="36.9549130" lon="-2.3983320">
        <ele>363.4</ele>
        <time>2019-10-18T19:36:30Z</time>
      </trkpt>
      <trkpt lat="36.9549260" lon="-2.3983390">
        <ele>363.6</ele>
        <time>2019-10-18T19:36:31Z</time>
      </trkpt>
      <trkpt lat="36.9549400" lon="-2.3983450">
        <ele>363.9</ele>
        <time>2019-10-18T19:36:32Z</time>
      </trkpt>
      <trkpt lat="36.9549530" lon="-2.3983510">
        <ele>364.2</ele>
        <time>2019-10-18T19:36:33Z</time>
      </trkpt>
      <trkpt lat="36.9549670" lon="-2.3983560">
        <ele>364.3</ele>
        <time>2019-10-18T19:36:34Z</time>
      </trkpt>
      <trkpt lat="36.9549810" lon="-2.3983600">
        <ele>364.3</ele>
        <time>2019-10-18T19:36:35Z</time>
      </trkpt>
      <trkpt lat="36.9549940" lon="-2.3983650">
        <ele>364.3</ele>
        <time>2019-10-18T19:36:36Z</time>
      </trkpt>
      <trkpt lat="36.9550080" lon="-2.3983720">
        <ele>364.4</ele>
        <time>2019-10-18T19:36:37Z</time>
      </trkpt>
      <trkpt lat="36.9550210" lon="-2.3983770">
        <ele>364.4</ele>
        <time>2019-10-18T19:36:38Z</time>
      </trkpt>
      <trkpt lat="36.9550330" lon="-2.3983810">
        <ele>364.4</ele>
        <time>2019-10-18T19:36:39Z</time>
      </trkpt>
      <trkpt lat="36.9550460" lon="-2.3983850">
        <ele>364.5</ele>
        <time>2019-10-18T19:36:40Z</time>
      </trkpt>
      <trkpt lat="36.9550590" lon="-2.3983900">
        <ele>364.5</ele>
        <time>2019-10-18T19:36:41Z</time>
      </trkpt>
      <trkpt lat="36.9550730" lon="-2.3983960">
        <ele>364.6</ele>
        <time>2019-10-18T19:36:42Z</time>
      </trkpt>
      <trkpt lat="36.9550880" lon="-2.3984020">
        <ele>364.6</ele>
        <time>2019-10-18T19:36:43Z</time>
      </trkpt>
      <trkpt lat="36.9551040" lon="-2.3984090">
        <ele>364.7</ele>
        <time>2019-10-18T19:36:44Z</time>
      </trkpt>
      <trkpt lat="36.9551200" lon="-2.3984160">
        <ele>364.8</ele>
        <time>2019-10-18T19:36:45Z</time>
      </trkpt>
      <trkpt lat="36.9551360" lon="-2.3984240">
        <ele>364.8</ele>
        <time>2019-10-18T19:36:46Z</time>
      </trkpt>
      <trkpt lat="36.9551510" lon="-2.3984290">
        <ele>364.9</ele>
        <time>2019-10-18T19:36:47Z</time>
      </trkpt>
      <trkpt lat="36.9551670" lon="-2.3984340">
        <ele>365.0</ele>
        <time>2019-10-18T19:36:48Z</time>
      </trkpt>
      <trkpt lat="36.9551810" lon="-2.3984380">
        <ele>365.0</ele>
        <time>2019-10-18T19:36:49Z</time>
      </trkpt>
      <trkpt lat="36.9551950" lon="-2.3984420">
        <ele>365.1</ele>
        <time>2019-10-18T19:36:50Z</time>
      </trkpt>
      <trkpt lat="36.9552090" lon="-2.3984440">
        <ele>365.1</ele>
        <time>2019-10-18T19:36:51Z</time>
      </trkpt>
      <trkpt lat="36.9552240" lon="-2.3984440">
        <ele>365.2</ele>
        <time>2019-10-18T19:36:52Z</time>
      </trkpt>
      <trkpt lat="36.9552390" lon="-2.3984410">
        <ele>365.3</ele>
        <time>2019-10-18T19:36:53Z</time>
      </trkpt>
      <trkpt lat="36.9552530" lon="-2.3984410">
        <ele>365.3</ele>
        <time>2019-10-18T19:36:54Z</time>
      </trkpt>
      <trkpt lat="36.9552690" lon="-2.3984420">
        <ele>365.4</ele>
        <time>2019-10-18T19:36:55Z</time>
      </trkpt>
      <trkpt lat="36.9552840" lon="-2.3984450">
        <ele>365.5</ele>
        <time>2019-10-18T19:36:56Z</time>
      </trkpt>
      <trkpt lat="36.9552990" lon="-2.3984490">
        <ele>365.5</ele>
        <time>2019-10-18T19:36:57Z</time>
      </trkpt>
      <trkpt lat="36.9553130" lon="-2.3984520">
        <ele>365.6</ele>
        <time>2019-10-18T19:36:58Z</time>
      </trkpt>
      <trkpt lat="36.9553270" lon="-2.3984580">
        <ele>365.7</ele>
        <time>2019-10-18T19:36:59Z</time>
      </trkpt>
      <trkpt lat="36.9553410" lon="-2.3984620">
        <ele>365.7</ele>
        <time>2019-10-18T19:37:00Z</time>
      </trkpt>
      <trkpt lat="36.9553540" lon="-2.3984660">
        <ele>365.8</ele>
        <time>2019-10-18T19:37:01Z</time>
      </trkpt>
      <trkpt lat="36.9553680" lon="-2.3984690">
        <ele>365.8</ele>
        <time>2019-10-18T19:37:02Z</time>
      </trkpt>
      <trkpt lat="36.9553820" lon="-2.3984700">
        <ele>365.9</ele>
        <time>2019-10-18T19:37:03Z</time>
      </trkpt>
      <trkpt lat="36.9553960" lon="-2.3984710">
        <ele>365.9</ele>
        <time>2019-10-18T19:37:04Z</time>
      </trkpt>
      <trkpt lat="36.9554090" lon="-2.3984740">
        <ele>366.0</ele>
        <time>2019-10-18T19:37:05Z</time>
      </trkpt>
      <trkpt lat="36.9554230" lon="-2.3984800">
        <ele>366.0</ele>
        <time>2019-10-18T19:37:06Z</time>
      </trkpt>
      <trkpt lat="36.9554370" lon="-2.3984870">
        <ele>366.1</ele>
        <time>2019-10-18T19:37:07Z</time>
      </trkpt>
      <trkpt lat="36.9554510" lon="-2.3984920">
        <ele>366.1</ele>
        <time>2019-10-18T19:37:08Z</time>
      </trkpt>
      <trkpt lat="36.9554640" lon="-2.3984980">
        <ele>366.2</ele>
        <time>2019-10-18T19:37:09Z</time>
      </trkpt>
      <trkpt lat="36.9554770" lon="-2.3985050">
        <ele>366.2</ele>
        <time>2019-10-18T19:37:10Z</time>
      </trkpt>
      <trkpt lat="36.9554900" lon="-2.3985100">
        <ele>366.3</ele>
        <time>2019-10-18T19:37:11Z</time>
      </trkpt>
      <trkpt lat="36.9555030" lon="-2.3985150">
        <ele>366.4</ele>
        <time>2019-10-18T19:37:12Z</time>
      </trkpt>
      <trkpt lat="36.9555160" lon="-2.3985200">
        <ele>366.4</ele>
        <time>2019-10-18T19:37:13Z</time>
      </trkpt>
      <trkpt lat="36.9555290" lon="-2.3985270">
        <ele>366.5</ele>
        <time>2019-10-18T19:37:14Z</time>
      </trkpt>
      <trkpt lat="36.9555420" lon="-2.3985330">
        <ele>366.6</ele>
        <time>2019-10-18T19:37:15Z</time>
      </trkpt>
      <trkpt lat="36.9555550" lon="-2.3985380">
        <ele>366.7</ele>
        <time>2019-10-18T19:37:16Z</time>
      </trkpt>
      <trkpt lat="36.9555690" lon="-2.3985430">
        <ele>366.8</ele>
        <time>2019-10-18T19:37:17Z</time>
      </trkpt>
      <trkpt lat="36.9555850" lon="-2.3985470">
        <ele>366.9</ele>
        <time>2019-10-18T19:37:18Z</time>
      </trkpt>
      <trkpt lat="36.9556010" lon="-2.3985490">
        <ele>367.0</ele>
        <time>2019-10-18T19:37:19Z</time>
      </trkpt>
      <trkpt lat="36.9556150" lon="-2.3985500">
        <ele>367.1</ele>
        <time>2019-10-18T19:37:20Z</time>
      </trkpt>
      <trkpt lat="36.9556290" lon="-2.3985510">
        <ele>367.2</ele>
        <time>2019-10-18T19:37:21Z</time>
      </trkpt>
      <trkpt lat="36.9556430" lon="-2.3985510">
        <ele>367.3</ele>
        <time>2019-10-18T19:37:22Z</time>
      </trkpt>
      <trkpt lat="36.9556570" lon="-2.3985520">
        <ele>367.3</ele>
        <time>2019-10-18T19:37:23Z</time>
      </trkpt>
      <trkpt lat="36.9556710" lon="-2.3985520">
        <ele>367.4</ele>
        <time>2019-10-18T19:37:24Z</time>
      </trkpt>
      <trkpt lat="36.9556840" lon="-2.3985510">
        <ele>367.5</ele>
        <time>2019-10-18T19:37:25Z</time>
      </trkpt>
      <trkpt lat="36.9556970" lon="-2.3985490">
        <ele>367.6</ele>
        <time>2019-10-18T19:37:26Z</time>
      </trkpt>
      <trkpt lat="36.9557100" lon="-2.3985470">
        <ele>367.7</ele>
        <time>2019-10-18T19:37:27Z</time>
      </trkpt>
      <trkpt lat="36.9557240" lon="-2.3985450">
        <ele>367.8</ele>
        <time>2019-10-18T19:37:28Z</time>
      </trkpt>
      <trkpt lat="36.9557370" lon="-2.3985430">
        <ele>367.9</ele>
        <time>2019-10-18T19:37:29Z</time>
      </trkpt>
      <trkpt lat="36.9557510" lon="-2.3985410">
        <ele>368.1</ele>
        <time>2019-10-18T19:37:30Z</time>
      </trkpt>
      <trkpt lat="36.9557640" lon="-2.3985390">
        <ele>368.2</ele>
        <time>2019-10-18T19:37:31Z</time>
      </trkpt>
      <trkpt lat="36.9557780" lon="-2.3985370">
        <ele>368.3</ele>
        <time>2019-10-18T19:37:32Z</time>
      </trkpt>
      <trkpt lat="36.9557930" lon="-2.3985360">
        <ele>368.4</ele>
        <time>2019-10-18T19:37:33Z</time>
      </trkpt>
      <trkpt lat="36.9558080" lon="-2.3985340">
        <ele>368.5</ele>
        <time>2019-10-18T19:37:34Z</time>
      </trkpt>
      <trkpt lat="36.9558230" lon="-2.3985310">
        <ele>368.6</ele>
        <time>2019-10-18T19:37:35Z</time>
      </trkpt>
      <trkpt lat="36.9558380" lon="-2.3985270">
        <ele>368.7</ele>
        <time>2019-10-18T19:37:36Z</time>
      </trkpt>
      <trkpt lat="36.9558530" lon="-2.3985230">
        <ele>368.8</ele>
        <time>2019-10-18T19:37:37Z</time>
      </trkpt>
      <trkpt lat="36.9558680" lon="-2.3985210">
        <ele>368.9</ele>
        <time>2019-10-18T19:37:38Z</time>
      </trkpt>
      <trkpt lat="36.9558840" lon="-2.3985210">
        <ele>369.0</ele>
        <time>2019-10-18T19:37:39Z</time>
      </trkpt>
      <trkpt lat="36.9558990" lon="-2.3985250">
        <ele>369.1</ele>
        <time>2019-10-18T19:37:40Z</time>
      </trkpt>
      <trkpt lat="36.9559140" lon="-2.3985320">
        <ele>369.1</ele>
        <time>2019-10-18T19:37:41Z</time>
      </trkpt>
      <trkpt lat="36.9559290" lon="-2.3985410">
        <ele>369.3</ele>
        <time>2019-10-18T19:37:42Z</time>
      </trkpt>
      <trkpt lat="36.9559440" lon="-2.3985510">
        <ele>369.4</ele>
        <time>2019-10-18T19:37:43Z</time>
      </trkpt>
      <trkpt lat="36.9559590" lon="-2.3985610">
        <ele>369.5</ele>
        <time>2019-10-18T19:37:44Z</time>
      </trkpt>
      <trkpt lat="36.9559740" lon="-2.3985720">
        <ele>369.6</ele>
        <time>2019-10-18T19:37:45Z</time>
      </trkpt>
      <trkpt lat="36.9559890" lon="-2.3985830">
        <ele>369.8</ele>
        <time>2019-10-18T19:37:46Z</time>
      </trkpt>
      <trkpt lat="36.9560040" lon="-2.3985920">
        <ele>369.9</ele>
        <time>2019-10-18T19:37:47Z</time>
      </trkpt>
      <trkpt lat="36.9560170" lon="-2.3986020">
        <ele>370.0</ele>
        <time>2019-10-18T19:37:48Z</time>
      </trkpt>
      <trkpt lat="36.9560310" lon="-2.3986110">
        <ele>370.1</ele>
        <time>2019-10-18T19:37:49Z</time>
      </trkpt>
      <trkpt lat="36.9560430" lon="-2.3986200">
        <ele>370.3</ele>
        <time>2019-10-18T19:37:50Z</time>
      </trkpt>
      <trkpt lat="36.9560550" lon="-2.3986270">
        <ele>370.4</ele>
        <time>2019-10-18T19:37:51Z</time>
      </trkpt>
      <trkpt lat="36.9560680" lon="-2.3986330">
        <ele>370.5</ele>
        <time>2019-10-18T19:37:52Z</time>
      </trkpt>
      <trkpt lat="36.9560810" lon="-2.3986370">
        <ele>370.6</ele>
        <time>2019-10-18T19:37:53Z</time>
      </trkpt>
      <trkpt lat="36.9560930" lon="-2.3986370">
        <ele>370.7</ele>
        <time>2019-10-18T19:37:54Z</time>
      </trkpt>
      <trkpt lat="36.9561040" lon="-2.3986340">
        <ele>370.8</ele>
        <time>2019-10-18T19:37:55Z</time>
      </trkpt>
      <trkpt lat="36.9561150" lon="-2.3986260">
        <ele>370.9</ele>
        <time>2019-10-18T19:37:56Z</time>
      </trkpt>
      <trkpt lat="36.9561230" lon="-2.3986150">
        <ele>370.9</ele>
        <time>2019-10-18T19:37:57Z</time>
      </trkpt>
      <trkpt lat="36.9561240" lon="-2.3986010">
        <ele>371.0</ele>
        <time>2019-10-18T19:37:58Z</time>
      </trkpt>
      <trkpt lat="36.9561190" lon="-2.3985860">
        <ele>371.1</ele>
        <time>2019-10-18T19:37:59Z</time>
      </trkpt>
      <trkpt lat="36.9561090" lon="-2.3985710">
        <ele>371.2</ele>
        <time>2019-10-18T19:38:00Z</time>
      </trkpt>
      <trkpt lat="36.9560970" lon="-2.3985580">
        <ele>371.3</ele>
        <time>2019-10-18T19:38:01Z</time>
      </trkpt>
      <trkpt lat="36.9560830" lon="-2.3985480">
        <ele>371.5</ele>
        <time>2019-10-18T19:38:02Z</time>
      </trkpt>
      <trkpt lat="36.9560690" lon="-2.3985380">
        <ele>371.6</ele>
        <time>2019-10-18T19:38:03Z</time>
      </trkpt>
      <trkpt lat="36.9560540" lon="-2.3985280">
        <ele>371.8</ele>
        <time>2019-10-18T19:38:04Z</time>
      </trkpt>
      <trkpt lat="36.9560390" lon="-2.3985190">
        <ele>371.9</ele>
        <time>2019-10-18T19:38:05Z</time>
      </trkpt>
      <trkpt lat="36.9560250" lon="-2.3985090">
        <ele>372.1</ele>
        <time>2019-10-18T19:38:06Z</time>
      </trkpt>
      <trkpt lat="36.9560110" lon="-2.3984980">
        <ele>372.2</ele>
        <time>2019-10-18T19:38:07Z</time>
      </trkpt>
      <trkpt lat="36.9559970" lon="-2.3984850">
        <ele>372.4</ele>
        <time>2019-10-18T19:38:08Z</time>
      </trkpt>
      <trkpt lat="36.9559860" lon="-2.3984700">
        <ele>372.5</ele>
        <time>2019-10-18T19:38:09Z</time>
      </trkpt>
      <trkpt lat="36.9559770" lon="-2.3984530">
        <ele>372.6</ele>
        <time>2019-10-18T19:38:10Z</time>
      </trkpt>
      <trkpt lat="36.9559690" lon="-2.3984350">
        <ele>372.7</ele>
        <time>2019-10-18T19:38:11Z</time>
      </trkpt>
      <trkpt lat="36.9559620" lon="-2.3984170">
        <ele>372.9</ele>
        <time>2019-10-18T19:38:12Z</time>
      </trkpt>
      <trkpt lat="36.9559560" lon="-2.3984020">
        <ele>373.0</ele>
        <time>2019-10-18T19:38:13Z</time>
      </trkpt>
      <trkpt lat="36.9559500" lon="-2.3983870">
        <ele>373.1</ele>
        <time>2019-10-18T19:38:14Z</time>
      </trkpt>
      <trkpt lat="36.9559460" lon="-2.3983720">
        <ele>373.2</ele>
        <time>2019-10-18T19:38:15Z</time>
      </trkpt>
      <trkpt lat="36.9559400" lon="-2.3983550">
        <ele>373.3</ele>
        <time>2019-10-18T19:38:16Z</time>
      </trkpt>
      <trkpt lat="36.9559340" lon="-2.3983390">
        <ele>373.4</ele>
        <time>2019-10-18T19:38:17Z</time>
      </trkpt>
      <trkpt lat="36.9559300" lon="-2.3983230">
        <ele>373.5</ele>
        <time>2019-10-18T19:38:18Z</time>
      </trkpt>
      <trkpt lat="36.9559270" lon="-2.3983070">
        <ele>373.6</ele>
        <time>2019-10-18T19:38:19Z</time>
      </trkpt>
      <trkpt lat="36.9559260" lon="-2.3982920">
        <ele>373.7</ele>
        <time>2019-10-18T19:38:20Z</time>
      </trkpt>
      <trkpt lat="36.9559260" lon="-2.3982800">
        <ele>373.7</ele>
        <time>2019-10-18T19:38:21Z</time>
      </trkpt>
      <trkpt lat="36.9559260" lon="-2.3982730">
        <ele>373.8</ele>
        <time>2019-10-18T19:38:22Z</time>
      </trkpt>
      <trkpt lat="36.9559270" lon="-2.3982700">
        <ele>373.8</ele>
        <time>2019-10-18T19:38:23Z</time>
      </trkpt>
      <trkpt lat="36.9559280" lon="-2.3982690">
        <ele>373.8</ele>
        <time>2019-10-18T19:38:24Z</time>
      </trkpt>
      <trkpt lat="36.9559280" lon="-2.3982680">
        <ele>373.8</ele>
        <time>2019-10-18T19:38:25Z</time>
      </trkpt>
      <trkpt lat="36.9559280" lon="-2.3982680">
        <ele>373.8</ele>
        <time>2019-10-18T19:38:26Z</time>
      </trkpt>
      <trkpt lat="36.9559270" lon="-2.3982680">
        <ele>373.8</ele>
        <time>2019-10-18T19:38:27Z</time>
      </trkpt>
      <trkpt lat="36.9559270" lon="-2.3982680">
        <ele>373.8</ele>
        <time>2019-10-18T19:38:28Z</time>
      </trkpt>
      <trkpt lat="36.9559270" lon="-2.3982680">
        <ele>373.8</ele>
        <time>2019-10-18T19:38:29Z</time>
      </trkpt>
      <trkpt lat="36.9559270" lon="-2.3982690">
        <ele>373.8</ele>
        <time>2019-10-18T19:38:30Z</time>
      </trkpt>
      <trkpt lat="36.9559270" lon="-2.3982690">
        <ele>373.8</ele>
        <time>2019-10-18T19:38:31Z</time>
      </trkpt>
      <trkpt lat="36.9559260" lon="-2.3982690">
        <ele>373.8</ele>
        <time>2019-10-18T19:38:32Z</time>
      </trkpt>
      <trkpt lat="36.9559260" lon="-2.3982690">
        <ele>373.8</ele>
        <time>2019-10-18T19:38:33Z</time>
      </trkpt>
      <trkpt lat="36.9559260" lon="-2.3982690">
        <ele>373.8</ele>
        <time>2019-10-18T19:38:34Z</time>
      </trkpt>
      <trkpt lat="36.9559260" lon="-2.3982690">
        <ele>373.8</ele>
        <time>2019-10-18T19:38:35Z</time>
      </trkpt>
      <trkpt lat="36.9559260" lon="-2.3982680">
        <ele>373.8</ele>
        <time>2019-10-18T19:38:36Z</time>
      </trkpt>
      <trkpt lat="36.9559270" lon="-2.3982650">
        <ele>373.8</ele>
        <time>2019-10-18T19:38:37Z</time>
      </trkpt>
      <trkpt lat="36.9559290" lon="-2.3982610">
        <ele>373.9</ele>
        <time>2019-10-18T19:38:38Z</time>
      </trkpt>
      <trkpt lat="36.9559340" lon="-2.3982580">
        <ele>373.9</ele>
        <time>2019-10-18T19:38:39Z</time>
      </trkpt>
      <trkpt lat="36.9559420" lon="-2.3982590">
        <ele>374.0</ele>
        <time>2019-10-18T19:38:40Z</time>
      </trkpt>
      <trkpt lat="36.9559520" lon="-2.3982620">
        <ele>374.0</ele>
        <time>2019-10-18T19:38:41Z</time>
      </trkpt>
      <trkpt lat="36.9559630" lon="-2.3982670">
        <ele>374.1</ele>
        <time>2019-10-18T19:38:42Z</time>
      </trkpt>
      <trkpt lat="36.9559720" lon="-2.3982730">
        <ele>374.2</ele>
        <time>2019-10-18T19:38:43Z</time>
      </trkpt>
      <trkpt lat="36.9559800" lon="-2.3982800">
        <ele>374.2</ele>
        <time>2019-10-18T19:38:44Z</time>
      </trkpt>
      <trkpt lat="36.9559880" lon="-2.3982870">
        <ele>374.3</ele>
        <time>2019-10-18T19:38:45Z</time>
      </trkpt>
      <trkpt lat="36.9559960" lon="-2.3982980">
        <ele>374.4</ele>
        <time>2019-10-18T19:38:46Z</time>
      </trkpt>
      <trkpt lat="36.9560030" lon="-2.3983090">
        <ele>374.4</ele>
        <time>2019-10-18T19:38:47Z</time>
      </trkpt>
      <trkpt lat="36.9560090" lon="-2.3983220">
        <ele>374.5</ele>
        <time>2019-10-18T19:38:48Z</time>
      </trkpt>
      <trkpt lat="36.9560150" lon="-2.3983330">
        <ele>374.6</ele>
        <time>2019-10-18T19:38:49Z</time>
      </trkpt>
      <trkpt lat="36.9560200" lon="-2.3983450">
        <ele>374.7</ele>
        <time>2019-10-18T19:38:50Z</time>
      </trkpt>
      <trkpt lat="36.9560250" lon="-2.3983560">
        <ele>374.7</ele>
        <time>2019-10-18T19:38:51Z</time>
      </trkpt>
      <trkpt lat="36.9560300" lon="-2.3983670">
        <ele>374.8</ele>
        <time>2019-10-18T19:38:52Z</time>
      </trkpt>
      <trkpt lat="36.9560370" lon="-2.3983760">
        <ele>374.8</ele>
        <time>2019-10-18T19:38:53Z</time>
      </trkpt>
      <trkpt lat="36.9560450" lon="-2.3983820">
        <ele>374.9</ele>
        <time>2019-10-18T19:38:54Z</time>
      </trkpt>
      <trkpt lat="36.9560530" lon="-2.3983860">
        <ele>375.0</ele>
        <time>2019-10-18T19:38:55Z</time>
      </trkpt>
      <trkpt lat="36.9560610" lon="-2.3983890">
        <ele>375.0</ele>
        <time>2019-10-18T19:38:56Z</time>
      </trkpt>
      <trkpt lat="36.9560690" lon="-2.3983910">
        <ele>375.1</ele>
        <time>2019-10-18T19:38:57Z</time>
      </trkpt>
      <trkpt lat="36.9560770" lon="-2.3983910">
        <ele>375.2</ele>
        <time>2019-10-18T19:38:58Z</time>
      </trkpt>
      <trkpt lat="36.9560850" lon="-2.3983910">
        <ele>375.2</ele>
        <time>2019-10-18T19:38:59Z</time>
      </trkpt>
      <trkpt lat="36.9560900" lon="-2.3983910">
        <ele>375.3</ele>
        <time>2019-10-18T19:39:00Z</time>
      </trkpt>
      <trkpt lat="36.9560930" lon="-2.3983920">
        <ele>375.3</ele>
        <time>2019-10-18T19:39:01Z</time>
      </trkpt>
      <trkpt lat="36.9560930" lon="-2.3983930">
        <ele>375.3</ele>
        <time>2019-10-18T19:39:02Z</time>
      </trkpt>
      <trkpt lat="36.9560920" lon="-2.3983950">
        <ele>375.3</ele>
        <time>2019-10-18T19:39:03Z</time>
      </trkpt>
      <trkpt lat="36.9560920" lon="-2.3983970">
        <ele>375.3</ele>
        <time>2019-10-18T19:39:04Z</time>
      </trkpt>
      <trkpt lat="36.9560920" lon="-2.3983970">
        <ele>375.3</ele>
        <time>2019-10-18T19:39:05Z</time>
      </trkpt>
      <trkpt lat="36.9560920" lon="-2.3983970">
        <ele>375.3</ele>
        <time>2019-10-18T19:39:06Z</time>
      </trkpt>
      <trkpt lat="36.9560920" lon="-2.3983950">
        <ele>375.4</ele>
        <time>2019-10-18T19:39:07Z</time>
      </trkpt>
      <trkpt lat="36.9560930" lon="-2.3983940">
        <ele>375.4</ele>
        <time>2019-10-18T19:39:08Z</time>
      </trkpt>
      <trkpt lat="36.9560930" lon="-2.3983930">
        <ele>375.4</ele>
        <time>2019-10-18T19:39:09Z</time>
      </trkpt>
      <trkpt lat="36.9560930" lon="-2.3983950">
        <ele>375.4</ele>
        <time>2019-10-18T19:39:10Z</time>
      </trkpt>
      <trkpt lat="36.9560930" lon="-2.3983960">
        <ele>375.4</ele>
        <time>2019-10-18T19:39:11Z</time>
      </trkpt>
      <trkpt lat="36.9560920" lon="-2.3983980">
        <ele>375.4</ele>
        <time>2019-10-18T19:39:12Z</time>
      </trkpt>
      <trkpt lat="36.9560930" lon="-2.3984000">
        <ele>375.4</ele>
        <time>2019-10-18T19:39:13Z</time>
      </trkpt>
      <trkpt lat="36.9560930" lon="-2.3984010">
        <ele>375.4</ele>
        <time>2019-10-18T19:39:14Z</time>
      </trkpt>
      <trkpt lat="36.9560940" lon="-2.3984030">
        <ele>375.5</ele>
        <time>2019-10-18T19:39:15Z</time>
      </trkpt>
      <trkpt lat="36.9560950" lon="-2.3984040">
        <ele>375.5</ele>
        <time>2019-10-18T19:39:16Z</time>
      </trkpt>
      <trkpt lat="36.9560960" lon="-2.3984060">
        <ele>375.5</ele>
        <time>2019-10-18T19:39:17Z</time>
      </trkpt>
      <trkpt lat="36.9560960" lon="-2.3984080">
        <ele>375.5</ele>
        <time>2019-10-18T19:39:18Z</time>
      </trkpt>
      <trkpt lat="36.9560960" lon="-2.3984110">
        <ele>375.5</ele>
        <time>2019-10-18T19:39:19Z</time>
      </trkpt>
      <trkpt lat="36.9560960" lon="-2.3984130">
        <ele>375.5</ele>
        <time>2019-10-18T19:39:20Z</time>
      </trkpt>
      <trkpt lat="36.9560960" lon="-2.3984140">
        <ele>375.5</ele>
        <time>2019-10-18T19:39:21Z</time>
      </trkpt>
      <trkpt lat="36.9560960" lon="-2.3984160">
        <ele>375.5</ele>
        <time>2019-10-18T19:39:22Z</time>
      </trkpt>
      <trkpt lat="36.9560960" lon="-2.3984170">
        <ele>375.5</ele>
        <time>2019-10-18T19:39:23Z</time>
      </trkpt>
      <trkpt lat="36.9560960" lon="-2.3984190">
        <ele>375.6</ele>
        <time>2019-10-18T19:39:24Z</time>
      </trkpt>
      <trkpt lat="36.9560960" lon="-2.3984200">
        <ele>375.6</ele>
        <time>2019-10-18T19:39:25Z</time>
      </trkpt>
      <trkpt lat="36.9560950" lon="-2.3984210">
        <ele>375.6</ele>
        <time>2019-10-18T19:39:26Z</time>
      </trkpt>
      <trkpt lat="36.9560950" lon="-2.3984220">
        <ele>375.6</ele>
        <time>2019-10-18T19:39:27Z</time>
      </trkpt>
      <trkpt lat="36.9560940" lon="-2.3984200">
        <ele>375.6</ele>
        <time>2019-10-18T19:39:28Z</time>
      </trkpt>
      <trkpt lat="36.9560930" lon="-2.3984180">
        <ele>375.6</ele>
        <time>2019-10-18T19:39:29Z</time>
      </trkpt>
      <trkpt lat="36.9560920" lon="-2.3984160">
        <ele>375.6</ele>
        <time>2019-10-18T19:39:30Z</time>
      </trkpt>
      <trkpt lat="36.9560920" lon="-2.3984140">
        <ele>375.6</ele>
        <time>2019-10-18T19:39:31Z</time>
      </trkpt>
      <trkpt lat="36.9560910" lon="-2.3984110">
        <ele>375.6</ele>
        <time>2019-10-18T19:39:32Z</time>
      </trkpt>
      <trkpt lat="36.9560910" lon="-2.3984090">
        <ele>375.7</ele>
        <time>2019-10-18T19:39:33Z</time>
      </trkpt>
      <trkpt lat="36.9560910" lon="-2.3984080">
        <ele>375.7</ele>
        <time>2019-10-18T19:39:34Z</time>
      </trkpt>
      <trkpt lat="36.9560900" lon="-2.3984070">
        <ele>375.7</ele>
        <time>2019-10-18T19:39:35Z</time>
      </trkpt>
      <trkpt lat="36.9560890" lon="-2.3984070">
        <ele>375.7</ele>
        <time>2019-10-18T19:39:36Z</time>
      </trkpt>
      <trkpt lat="36.9560890" lon="-2.3984070">
        <ele>375.7</ele>
        <time>2019-10-18T19:39:37Z</time>
      </trkpt>
      <trkpt lat="36.9560890" lon="-2.3984070">
        <ele>375.7</ele>
        <time>2019-10-18T19:39:38Z</time>
      </trkpt>
      <trkpt lat="36.9560890" lon="-2.3984070">
        <ele>375.7</ele>
        <time>2019-10-18T19:39:39Z</time>
      </trkpt>
      <trkpt lat="36.9560880" lon="-2.3984090">
        <ele>375.7</ele>
        <time>2019-10-18T19:39:40Z</time>
      </trkpt>
      <trkpt lat="36.9560870" lon="-2.3984110">
        <ele>375.7</ele>
        <time>2019-10-18T19:39:41Z</time>
      </trkpt>
      <trkpt lat="36.9560870" lon="-2.3984120">
        <ele>375.7</ele>
        <time>2019-10-18T19:39:42Z</time>
      </trkpt>
      <trkpt lat="36.9560860" lon="-2.3984130">
        <ele>375.7</ele>
        <time>2019-10-18T19:39:43Z</time>
      </trkpt>
      <trkpt lat="36.9560850" lon="-2.3984150">
        <ele>375.7</ele>
        <time>2019-10-18T19:39:44Z</time>
      </trkpt>
      <trkpt lat="36.9560840" lon="-2.3984160">
        <ele>375.7</ele>
        <time>2019-10-18T19:39:45Z</time>
      </trkpt>
      <trkpt lat="36.9560830" lon="-2.3984180">
        <ele>375.8</ele>
        <time>2019-10-18T19:39:46Z</time>
      </trkpt>
      <trkpt lat="36.9560830" lon="-2.3984200">
        <ele>375.8</ele>
        <time>2019-10-18T19:39:47Z</time>
      </trkpt>
      <trkpt lat="36.9560830" lon="-2.3984210">
        <ele>375.8</ele>
        <time>2019-10-18T19:39:48Z</time>
      </trkpt>
      <trkpt lat="36.9560820" lon="-2.3984210">
        <ele>375.8</ele>
        <time>2019-10-18T19:39:49Z</time>
      </trkpt>
      <trkpt lat="36.9560820" lon="-2.3984210">
        <ele>375.8</ele>
        <time>2019-10-18T19:39:50Z</time>
      </trkpt>
      <trkpt lat="36.9560820" lon="-2.3984200">
        <ele>375.8</ele>
        <time>2019-10-18T19:39:51Z</time>
      </trkpt>
      <trkpt lat="36.9560830" lon="-2.3984180">
        <ele>375.8</ele>
        <time>2019-10-18T19:39:52Z</time>
      </trkpt>
      <trkpt lat="36.9560840" lon="-2.3984150">
        <ele>375.8</ele>
        <time>2019-10-18T19:39:53Z</time>
      </trkpt>
      <trkpt lat="36.9560850" lon="-2.3984110">
        <ele>375.9</ele>
        <time>2019-10-18T19:39:54Z</time>
      </trkpt>
      <trkpt lat="36.9560870" lon="-2.3984070">
        <ele>375.9</ele>
        <time>2019-10-18T19:39:55Z</time>
      </trkpt>
      <trkpt lat="36.9560880" lon="-2.3984030">
        <ele>375.9</ele>
        <time>2019-10-18T19:39:56Z</time>
      </trkpt>
      <trkpt lat="36.9560900" lon="-2.3983960">
        <ele>375.9</ele>
        <time>2019-10-18T19:39:57Z</time>
      </trkpt>
      <trkpt lat="36.9560920" lon="-2.3983890">
        <ele>376.0</ele>
        <time>2019-10-18T19:39:58Z</time>
      </trkpt>
      <trkpt lat="36.9560950" lon="-2.3983820">
        <ele>376.0</ele>
        <time>2019-10-18T19:39:59Z</time>
      </trkpt>
      <trkpt lat="36.9560970" lon="-2.3983750">
        <ele>376.1</ele>
        <time>2019-10-18T19:40:00Z</time>
      </trkpt>
      <trkpt lat="36.9560990" lon="-2.3983690">
        <ele>376.1</ele>
        <time>2019-10-18T19:40:01Z</time>
      </trkpt>
      <trkpt lat="36.9561010" lon="-2.3983630">
        <ele>376.2</ele>
        <time>2019-10-18T19:40:02Z</time>
      </trkpt>
      <trkpt lat="36.9561030" lon="-2.3983590">
        <ele>376.2</ele>
        <time>2019-10-18T19:40:03Z</time>
      </trkpt>
      <trkpt lat="36.9561040" lon="-2.3983570">
        <ele>376.2</ele>
        <time>2019-10-18T19:40:04Z</time>
      </trkpt>
      <trkpt lat="36.9561040" lon="-2.3983570">
        <ele>376.2</ele>
        <time>2019-10-18T19:40:05Z</time>
      </trkpt>
      <trkpt lat="36.9561040" lon="-2.3983570">
        <ele>376.2</ele>
        <time>2019-10-18T19:40:06Z</time>
      </trkpt>
      <trkpt lat="36.9561050" lon="-2.3983580">
        <ele>376.2</ele>
        <time>2019-10-18T19:40:07Z</time>
      </trkpt>
      <trkpt lat="36.9561050" lon="-2.3983590">
        <ele>376.2</ele>
        <time>2019-10-18T19:40:08Z</time>
      </trkpt>
      <trkpt lat="36.9561040" lon="-2.3983600">
        <ele>376.2</ele>
        <time>2019-10-18T19:40:09Z</time>
      </trkpt>
      <trkpt lat="36.9561040" lon="-2.3983620">
        <ele>376.2</ele>
        <time>2019-10-18T19:40:10Z</time>
      </trkpt>
      <trkpt lat="36.9561030" lon="-2.3983660">
        <ele>376.3</ele>
        <time>2019-10-18T19:40:11Z</time>
      </trkpt>
      <trkpt lat="36.9561010" lon="-2.3983730">
        <ele>376.3</ele>
        <time>2019-10-18T19:40:12Z</time>
      </trkpt>
      <trkpt lat="36.9560980" lon="-2.3983800">
        <ele>376.4</ele>
        <time>2019-10-18T19:40:13Z</time>
      </trkpt>
      <trkpt lat="36.9560960" lon="-2.3983850">
        <ele>376.4</ele>
        <time>2019-10-18T19:40:14Z</time>
      </trkpt>
      <trkpt lat="36.9560950" lon="-2.3983880">
        <ele>376.4</ele>
        <time>2019-10-18T19:40:15Z</time>
      </trkpt>
      <trkpt lat="36.9560940" lon="-2.3983910">
        <ele>376.5</ele>
        <time>2019-10-18T19:40:16Z</time>
      </trkpt>
      <trkpt lat="36.9560930" lon="-2.3983930">
        <ele>376.5</ele>
        <time>2019-10-18T19:40:17Z</time>
      </trkpt>
      <trkpt lat="36.9560930" lon="-2.3983950">
        <ele>376.5</ele>
        <time>2019-10-18T19:40:18Z</time>
      </trkpt>
      <trkpt lat="36.9560930" lon="-2.3983960">
        <ele>376.5</ele>
        <time>2019-10-18T19:40:19Z</time>
      </trkpt>
      <trkpt lat="36.9560930" lon="-2.3983950">
        <ele>376.5</ele>
        <time>2019-10-18T19:40:20Z</time>
      </trkpt>
      <trkpt lat="36.9560940" lon="-2.3983950">
        <ele>376.5</ele>
        <time>2019-10-18T19:40:21Z</time>
      </trkpt>
      <trkpt lat="36.9560940" lon="-2.3983930">
        <ele>376.5</ele>
        <time>2019-10-18T19:40:22Z</time>
      </trkpt>
      <trkpt lat="36.9560940" lon="-2.3983930">
        <ele>376.5</ele>
        <time>2019-10-18T19:40:23Z</time>
      </trkpt>
      <trkpt lat="36.9560940" lon="-2.3983920">
        <ele>376.5</ele>
        <time>2019-10-18T19:40:24Z</time>
      </trkpt>
      <trkpt lat="36.9560940" lon="-2.3983920">
        <ele>376.5</ele>
        <time>2019-10-18T19:40:25Z</time>
      </trkpt>
      <trkpt lat="36.9560940" lon="-2.3983930">
        <ele>376.6</ele>
        <time>2019-10-18T19:40:26Z</time>
      </trkpt>
      <trkpt lat="36.9560940" lon="-2.3983930">
        <ele>376.6</ele>
        <time>2019-10-18T19:40:27Z</time>
      </trkpt>
      <trkpt lat="36.9560930" lon="-2.3983930">
        <ele>376.6</ele>
        <time>2019-10-18T19:40:28Z</time>
      </trkpt>
      <trkpt lat="36.9560930" lon="-2.3983940">
        <ele>376.6</ele>
        <time>2019-10-18T19:40:29Z</time>
      </trkpt>
      <trkpt lat="36.9560940" lon="-2.3983940">
        <ele>376.6</ele>
        <time>2019-10-18T19:40:30Z</time>
      </trkpt>
      <trkpt lat="36.9560940" lon="-2.3983940">
        <ele>376.6</ele>
        <time>2019-10-18T19:40:31Z</time>
      </trkpt>
      <trkpt lat="36.9560950" lon="-2.3983950">
        <ele>376.6</ele>
        <time>2019-10-18T19:40:32Z</time>
      </trkpt>
      <trkpt lat="36.9560950" lon="-2.3983970">
        <ele>376.6</ele>
        <time>2019-10-18T19:40:33Z</time>
      </trkpt>
      <trkpt lat="36.9560950" lon="-2.3983980">
        <ele>376.6</ele>
        <time>2019-10-18T19:40:34Z</time>
      </trkpt>
      <trkpt lat="36.9560960" lon="-2.3984000">
        <ele>376.6</ele>
        <time>2019-10-18T19:40:35Z</time>
      </trkpt>
      <trkpt lat="36.9560950" lon="-2.3984030">
        <ele>376.7</ele>
        <time>2019-10-18T19:40:36Z</time>
      </trkpt>
      <trkpt lat="36.9560940" lon="-2.3984060">
        <ele>376.7</ele>
        <time>2019-10-18T19:40:37Z</time>
      </trkpt>
      <trkpt lat="36.9560920" lon="-2.3984090">
        <ele>376.7</ele>
        <time>2019-10-18T19:40:38Z</time>
      </trkpt>
      <trkpt lat="36.9560900" lon="-2.3984130">
        <ele>376.8</ele>
        <time>2019-10-18T19:40:39Z</time>
      </trkpt>
      <trkpt lat="36.9560880" lon="-2.3984200">
        <ele>376.8</ele>
        <time>2019-10-18T19:40:40Z</time>
      </trkpt>
      <trkpt lat="36.9560850" lon="-2.3984270">
        <ele>376.9</ele>
        <time>2019-10-18T19:40:41Z</time>
      </trkpt>
      <trkpt lat="36.9560830" lon="-2.3984340">
        <ele>377.0</ele>
        <time>2019-10-18T19:40:42Z</time>
      </trkpt>
      <trkpt lat="36.9560810" lon="-2.3984400">
        <ele>377.0</ele>
        <time>2019-10-18T19:40:43Z</time>
      </trkpt>
      <trkpt lat="36.9560780" lon="-2.3984470">
        <ele>377.1</ele>
        <time>2019-10-18T19:40:44Z</time>
      </trkpt>
      <trkpt lat="36.9560760" lon="-2.3984520">
        <ele>377.1</ele>
        <time>2019-10-18T19:40:45Z</time>
      </trkpt>
      <trkpt lat="36.9560750" lon="-2.3984560">
        <ele>377.2</ele>
        <time>2019-10-18T19:40:46Z</time>
      </trkpt>
      <trkpt lat="36.9560750" lon="-2.3984590">
        <ele>377.2</ele>
        <time>2019-10-18T19:40:47Z</time>
      </trkpt>
      <trkpt lat="36.9560740" lon="-2.3984610">
        <ele>377.2</ele>
        <time>2019-10-18T19:40:48Z</time>
      </trkpt>
      <trkpt lat="36.9560740" lon="-2.3984610">
        <ele>377.2</ele>
        <time>2019-10-18T19:40:49Z</time>
      </trkpt>
      <trkpt lat="36.9560740" lon="-2.3984600">
        <ele>377.2</ele>
        <time>2019-10-18T19:40:50Z</time>
      </trkpt>
      <trkpt lat="36.9560740" lon="-2.3984580">
        <ele>377.2</ele>
        <time>2019-10-18T19:40:51Z</time>
      </trkpt>
      <trkpt lat="36.9560740" lon="-2.3984570">
        <ele>377.2</ele>
        <time>2019-10-18T19:40:52Z</time>
      </trkpt>
      <trkpt lat="36.9560740" lon="-2.3984560">
        <ele>377.2</ele>
        <time>2019-10-18T19:40:53Z</time>
      </trkpt>
      <trkpt lat="36.9560730" lon="-2.3984560">
        <ele>377.3</ele>
        <time>2019-10-18T19:40:54Z</time>
      </trkpt>
      <trkpt lat="36.9560730" lon="-2.3984570">
        <ele>377.3</ele>
        <time>2019-10-18T19:40:55Z</time>
      </trkpt>
      <trkpt lat="36.9560720" lon="-2.3984580">
        <ele>377.3</ele>
        <time>2019-10-18T19:40:56Z</time>
      </trkpt>
      <trkpt lat="36.9560720" lon="-2.3984590">
        <ele>377.3</ele>
        <time>2019-10-18T19:40:57Z</time>
      </trkpt>
      <trkpt lat="36.9560710" lon="-2.3984600">
        <ele>377.3</ele>
        <time>2019-10-18T19:40:58Z</time>
      </trkpt>
      <trkpt lat="36.9560710" lon="-2.3984610">
        <ele>377.3</ele>
        <time>2019-10-18T19:40:59Z</time>
      </trkpt>
      <trkpt lat="36.9560710" lon="-2.3984600">
        <ele>377.3</ele>
        <time>2019-10-18T19:41:00Z</time>
      </trkpt>
      <trkpt lat="36.9560710" lon="-2.3984590">
        <ele>377.3</ele>
        <time>2019-10-18T19:41:01Z</time>
      </trkpt>
      <trkpt lat="36.9560720" lon="-2.3984580">
        <ele>377.3</ele>
        <time>2019-10-18T19:41:02Z</time>
      </trkpt>
      <trkpt lat="36.9560720" lon="-2.3984570">
        <ele>377.3</ele>
        <time>2019-10-18T19:41:03Z</time>
      </trkpt>
      <trkpt lat="36.9560720" lon="-2.3984560">
        <ele>377.3</ele>
        <time>2019-10-18T19:41:04Z</time>
      </trkpt>
      <trkpt lat="36.9560730" lon="-2.3984540">
        <ele>377.4</ele>
        <time>2019-10-18T19:41:05Z</time>
      </trkpt>
      <trkpt lat="36.9560730" lon="-2.3984530">
        <ele>377.4</ele>
        <time>2019-10-18T19:41:06Z</time>
      </trkpt>
      <trkpt lat="36.9560720" lon="-2.3984540">
        <ele>377.4</ele>
        <time>2019-10-18T19:41:07Z</time>
      </trkpt>
      <trkpt lat="36.9560710" lon="-2.3984560">
        <ele>377.4</ele>
        <time>2019-10-18T19:41:08Z</time>
      </trkpt>
      <trkpt lat="36.9560700" lon="-2.3984560">
        <ele>377.4</ele>
        <time>2019-10-18T19:41:09Z</time>
      </trkpt>
      <trkpt lat="36.9560710" lon="-2.3984540">
        <ele>377.4</ele>
        <time>2019-10-18T19:41:10Z</time>
      </trkpt>
      <trkpt lat="36.9560720" lon="-2.3984510">
        <ele>377.5</ele>
        <time>2019-10-18T19:41:11Z</time>
      </trkpt>
      <trkpt lat="36.9560730" lon="-2.3984480">
        <ele>377.5</ele>
        <time>2019-10-18T19:41:12Z</time>
      </trkpt>
      <trkpt lat="36.9560750" lon="-2.3984460">
        <ele>377.5</ele>
        <time>2019-10-18T19:41:13Z</time>
      </trkpt>
      <trkpt lat="36.9560760" lon="-2.3984440">
        <ele>377.5</ele>
        <time>2019-10-18T19:41:14Z</time>
      </trkpt>
      <trkpt lat="36.9560760" lon="-2.3984430">
        <ele>377.5</ele>
        <time>2019-10-18T19:41:15Z</time>
      </trkpt>
      <trkpt lat="36.9560760" lon="-2.3984420">
        <ele>377.5</ele>
        <time>2019-10-18T19:41:16Z</time>
      </trkpt>
      <trkpt lat="36.9560760" lon="-2.3984410">
        <ele>377.6</ele>
        <time>2019-10-18T19:41:17Z</time>
      </trkpt>
      <trkpt lat="36.9560760" lon="-2.3984410">
        <ele>377.6</ele>
        <time>2019-10-18T19:41:18Z</time>
      </trkpt>
      <trkpt lat="36.9560760" lon="-2.3984400">
        <ele>377.6</ele>
        <time>2019-10-18T19:41:19Z</time>
      </trkpt>
      <trkpt lat="36.9560770" lon="-2.3984400">
        <ele>377.6</ele>
        <time>2019-10-18T19:41:20Z</time>
      </trkpt>
      <trkpt lat="36.9560770" lon="-2.3984390">
        <ele>377.6</ele>
        <time>2019-10-18T19:41:21Z</time>
      </trkpt>
      <trkpt lat="36.9560770" lon="-2.3984400">
        <ele>377.6</ele>
        <time>2019-10-18T19:41:22Z</time>
      </trkpt>
      <trkpt lat="36.9560760" lon="-2.3984410">
        <ele>377.6</ele>
        <time>2019-10-18T19:41:23Z</time>
      </trkpt>
      <trkpt lat="36.9560760" lon="-2.3984420">
        <ele>377.6</ele>
        <time>2019-10-18T19:41:24Z</time>
      </trkpt>
      <trkpt lat="36.9560760" lon="-2.3984430">
        <ele>377.6</ele>
        <time>2019-10-18T19:41:25Z</time>
      </trkpt>
      <trkpt lat="36.9560760" lon="-2.3984440">
        <ele>377.6</ele>
        <time>2019-10-18T19:41:26Z</time>
      </trkpt>
      <trkpt lat="36.9560760" lon="-2.3984450">
        <ele>377.6</ele>
        <time>2019-10-18T19:41:27Z</time>
      </trkpt>
      <trkpt lat="36.9560750" lon="-2.3984460">
        <ele>377.6</ele>
        <time>2019-10-18T19:41:28Z</time>
      </trkpt>
      <trkpt lat="36.9560750" lon="-2.3984470">
        <ele>377.7</ele>
        <time>2019-10-18T19:41:29Z</time>
      </trkpt>
      <trkpt lat="36.9560740" lon="-2.3984480">
        <ele>377.7</ele>
        <time>2019-10-18T19:41:30Z</time>
      </trkpt>
      <trkpt lat="36.9560740" lon="-2.3984490">
        <ele>377.7</ele>
        <time>2019-10-18T19:41:31Z</time>
      </trkpt>
      <trkpt lat="36.9560730" lon="-2.3984500">
        <ele>377.7</ele>
        <time>2019-10-18T19:41:32Z</time>
      </trkpt>
      <trkpt lat="36.9560720" lon="-2.3984500">
        <ele>377.7</ele>
        <time>2019-10-18T19:41:33Z</time>
      </trkpt>
      <trkpt lat="36.9560710" lon="-2.3984510">
        <ele>377.7</ele>
        <time>2019-10-18T19:41:34Z</time>
      </trkpt>
      <trkpt lat="36.9560710" lon="-2.3984500">
        <ele>377.7</ele>
        <time>2019-10-18T19:41:35Z</time>
      </trkpt>
      <trkpt lat="36.9560710" lon="-2.3984500">
        <ele>377.7</ele>
        <time>2019-10-18T19:41:36Z</time>
      </trkpt>
      <trkpt lat="36.9560710" lon="-2.3984490">
        <ele>377.7</ele>
        <time>2019-10-18T19:41:37Z</time>
      </trkpt>
      <trkpt lat="36.9560710" lon="-2.3984480">
        <ele>377.7</ele>
        <time>2019-10-18T19:41:38Z</time>
      </trkpt>
      <trkpt lat="36.9560700" lon="-2.3984470">
        <ele>377.7</ele>
        <time>2019-10-18T19:41:39Z</time>
      </trkpt>
      <trkpt lat="36.9560700" lon="-2.3984460">
        <ele>377.8</ele>
        <time>2019-10-18T19:41:40Z</time>
      </trkpt>
      <trkpt lat="36.9560700" lon="-2.3984450">
        <ele>377.8</ele>
        <time>2019-10-18T19:41:41Z</time>
      </trkpt>
      <trkpt lat="36.9560700" lon="-2.3984450">
        <ele>377.8</ele>
        <time>2019-10-18T19:41:42Z</time>
      </trkpt>
      <trkpt lat="36.9560700" lon="-2.3984440">
        <ele>377.8</ele>
        <time>2019-10-18T19:41:43Z</time>
      </trkpt>
      <trkpt lat="36.9560700" lon="-2.3984430">
        <ele>377.8</ele>
        <time>2019-10-18T19:41:44Z</time>
      </trkpt>
      <trkpt lat="36.9560700" lon="-2.3984420">
        <ele>377.8</ele>
        <time>2019-10-18T19:41:45Z</time>
      </trkpt>
      <trkpt lat="36.9560710" lon="-2.3984410">
        <ele>377.8</ele>
        <time>2019-10-18T19:41:46Z</time>
      </trkpt>
      <trkpt lat="36.9560710" lon="-2.3984390">
        <ele>377.8</ele>
        <time>2019-10-18T19:41:47Z</time>
      </trkpt>
      <trkpt lat="36.9560730" lon="-2.3984380">
        <ele>377.8</ele>
        <time>2019-10-18T19:41:48Z</time>
      </trkpt>
      <trkpt lat="36.9560740" lon="-2.3984370">
        <ele>377.8</ele>
        <time>2019-10-18T19:41:49Z</time>
      </trkpt>
      <trkpt lat="36.9560760" lon="-2.3984360">
        <ele>377.9</ele>
        <time>2019-10-18T19:41:50Z</time>
      </trkpt>
      <trkpt lat="36.9560780" lon="-2.3984350">
        <ele>377.9</ele>
        <time>2019-10-18T19:41:51Z</time>
      </trkpt>
      <trkpt lat="36.9560790" lon="-2.3984330">
        <ele>377.9</ele>
        <time>2019-10-18T19:41:52Z</time>
      </trkpt>
      <trkpt lat="36.9560800" lon="-2.3984310">
        <ele>377.9</ele>
        <time>2019-10-18T19:41:53Z</time>
      </trkpt>
      <trkpt lat="36.9560810" lon="-2.3984300">
        <ele>377.9</ele>
        <time>2019-10-18T19:41:54Z</time>
      </trkpt>
      <trkpt lat="36.9560820" lon="-2.3984280">
        <ele>378.0</ele>
        <time>2019-10-18T19:41:55Z</time>
      </trkpt>
      <trkpt lat="36.9560830" lon="-2.3984270">
        <ele>378.0</ele>
        <time>2019-10-18T19:41:56Z</time>
      </trkpt>
      <trkpt lat="36.9560830" lon="-2.3984260">
        <ele>378.0</ele>
        <time>2019-10-18T19:41:57Z</time>
      </trkpt>
      <trkpt lat="36.9560840" lon="-2.3984240">
        <ele>378.0</ele>
        <time>2019-10-18T19:41:58Z</time>
      </trkpt>
      <trkpt lat="36.9560850" lon="-2.3984230">
        <ele>378.0</ele>
        <time>2019-10-18T19:41:59Z</time>
      </trkpt>
      <trkpt lat="36.9560860" lon="-2.3984230">
        <ele>378.0</ele>
        <time>2019-10-18T19:42:00Z</time>
      </trkpt>
      <trkpt lat="36.9560860" lon="-2.3984230">
        <ele>378.0</ele>
        <time>2019-10-18T19:42:01Z</time>
      </trkpt>
      <trkpt lat="36.9560870" lon="-2.3984220">
        <ele>378.0</ele>
        <time>2019-10-18T19:42:02Z</time>
      </trkpt>
      <trkpt lat="36.9560870" lon="-2.3984210">
        <ele>378.0</ele>
        <time>2019-10-18T19:42:03Z</time>
      </trkpt>
      <trkpt lat="36.9560880" lon="-2.3984200">
        <ele>378.1</ele>
        <time>2019-10-18T19:42:04Z</time>
      </trkpt>
      <trkpt lat="36.9560880" lon="-2.3984210">
        <ele>378.1</ele>
        <time>2019-10-18T19:42:05Z</time>
      </trkpt>
      <trkpt lat="36.9560870" lon="-2.3984220">
        <ele>378.1</ele>
        <time>2019-10-18T19:42:06Z</time>
      </trkpt>
      <trkpt lat="36.9560870" lon="-2.3984230">
        <ele>378.1</ele>
        <time>2019-10-18T19:42:07Z</time>
      </trkpt>
      <trkpt lat="36.9560860" lon="-2.3984240">
        <ele>378.1</ele>
        <time>2019-10-18T19:42:08Z</time>
      </trkpt>
      <trkpt lat="36.9560860" lon="-2.3984240">
        <ele>378.1</ele>
        <time>2019-10-18T19:42:09Z</time>
      </trkpt>
      <trkpt lat="36.9560860" lon="-2.3984240">
        <ele>378.1</ele>
        <time>2019-10-18T19:42:10Z</time>
      </trkpt>
      <trkpt lat="36.9560870" lon="-2.3984220">
        <ele>378.1</ele>
        <time>2019-10-18T19:42:11Z</time>
      </trkpt>
      <trkpt lat="36.9560880" lon="-2.3984190">
        <ele>378.2</ele>
        <time>2019-10-18T19:42:12Z</time>
      </trkpt>
      <trkpt lat="36.9560890" lon="-2.3984170">
        <ele>378.2</ele>
        <time>2019-10-18T19:42:13Z</time>
      </trkpt>
      <trkpt lat="36.9560900" lon="-2.3984140">
        <ele>378.2</ele>
        <time>2019-10-18T19:42:14Z</time>
      </trkpt>
      <trkpt lat="36.9560900" lon="-2.3984130">
        <ele>378.2</ele>
        <time>2019-10-18T19:42:15Z</time>
      </trkpt>
      <trkpt lat="36.9560910" lon="-2.3984120">
        <ele>378.2</ele>
        <time>2019-10-18T19:42:16Z</time>
      </trkpt>
      <trkpt lat="36.9560920" lon="-2.3984110">
        <ele>378.2</ele>
        <time>2019-10-18T19:42:17Z</time>
      </trkpt>
      <trkpt lat="36.9560920" lon="-2.3984110">
        <ele>378.2</ele>
        <time>2019-10-18T19:42:18Z</time>
      </trkpt>
      <trkpt lat="36.9560930" lon="-2.3984110">
        <ele>378.2</ele>
        <time>2019-10-18T19:42:19Z</time>
      </trkpt>
      <trkpt lat="36.9560930" lon="-2.3984110">
        <ele>378.2</ele>
        <time>2019-10-18T19:42:20Z</time>
      </trkpt>
      <trkpt lat="36.9560930" lon="-2.3984080">
        <ele>378.3</ele>
        <time>2019-10-18T19:42:21Z</time>
      </trkpt>
      <trkpt lat="36.9560940" lon="-2.3984050">
        <ele>378.3</ele>
        <time>2019-10-18T19:42:22Z</time>
      </trkpt>
      <trkpt lat="36.9560950" lon="-2.3984010">
        <ele>378.3</ele>
        <time>2019-10-18T19:42:23Z</time>
      </trkpt>
      <trkpt lat="36.9560960" lon="-2.3983970">
        <ele>378.4</ele>
        <time>2019-10-18T19:42:24Z</time>
      </trkpt>
      <trkpt lat="36.9560970" lon="-2.3983950">
        <ele>378.4</ele>
        <time>2019-10-18T19:42:25Z</time>
      </trkpt>
      <trkpt lat="36.9560970" lon="-2.3983950">
        <ele>378.4</ele>
        <time>2019-10-18T19:42:26Z</time>
      </trkpt>
      <trkpt lat="36.9560970" lon="-2.3983940">
        <ele>378.4</ele>
        <time>2019-10-18T19:42:27Z</time>
      </trkpt>
      <trkpt lat="36.9560960" lon="-2.3983930">
        <ele>378.4</ele>
        <time>2019-10-18T19:42:28Z</time>
      </trkpt>
      <trkpt lat="36.9560960" lon="-2.3983910">
        <ele>378.4</ele>
        <time>2019-10-18T19:42:29Z</time>
      </trkpt>
      <trkpt lat="36.9560950" lon="-2.3983900">
        <ele>378.5</ele>
        <time>2019-10-18T19:42:30Z</time>
      </trkpt>
      <trkpt lat="36.9560950" lon="-2.3983890">
        <ele>378.5</ele>
        <time>2019-10-18T19:42:31Z</time>
      </trkpt>
      <trkpt lat="36.9560950" lon="-2.3983880">
        <ele>378.5</ele>
        <time>2019-10-18T19:42:32Z</time>
      </trkpt>
      <trkpt lat="36.9560960" lon="-2.3983880">
        <ele>378.5</ele>
        <time>2019-10-18T19:42:33Z</time>
      </trkpt>
      <trkpt lat="36.9560960" lon="-2.3983890">
        <ele>378.5</ele>
        <time>2019-10-18T19:42:34Z</time>
      </trkpt>
      <trkpt lat="36.9560960" lon="-2.3983900">
        <ele>378.5</ele>
        <time>2019-10-18T19:42:35Z</time>
      </trkpt>
      <trkpt lat="36.9560960" lon="-2.3983900">
        <ele>378.5</ele>
        <time>2019-10-18T19:42:36Z</time>
      </trkpt>
      <trkpt lat="36.9560960" lon="-2.3983900">
        <ele>378.5</ele>
        <time>2019-10-18T19:42:37Z</time>
      </trkpt>
      <trkpt lat="36.9560960" lon="-2.3983890">
        <ele>378.5</ele>
        <time>2019-10-18T19:42:38Z</time>
      </trkpt>
      <trkpt lat="36.9560960" lon="-2.3983890">
        <ele>378.5</ele>
        <time>2019-10-18T19:42:39Z</time>
      </trkpt>
      <trkpt lat="36.9560970" lon="-2.3983880">
        <ele>378.5</ele>
        <time>2019-10-18T19:42:40Z</time>
      </trkpt>
      <trkpt lat="36.9560970" lon="-2.3983860">
        <ele>378.5</ele>
        <time>2019-10-18T19:42:41Z</time>
      </trkpt>
      <trkpt lat="36.9560970" lon="-2.3983850">
        <ele>378.6</ele>
        <time>2019-10-18T19:42:42Z</time>
      </trkpt>
      <trkpt lat="36.9560970" lon="-2.3983850">
        <ele>378.6</ele>
        <time>2019-10-18T19:42:43Z</time>
      </trkpt>
      <trkpt lat="36.9560970" lon="-2.3983840">
        <ele>378.6</ele>
        <time>2019-10-18T19:42:44Z</time>
      </trkpt>
      <trkpt lat="36.9560970" lon="-2.3983860">
        <ele>378.6</ele>
        <time>2019-10-18T19:42:45Z</time>
      </trkpt>
      <trkpt lat="36.9560970" lon="-2.3983880">
        <ele>378.6</ele>
        <time>2019-10-18T19:42:46Z</time>
      </trkpt>
      <trkpt lat="36.9560970" lon="-2.3983900">
        <ele>378.6</ele>
        <time>2019-10-18T19:42:47Z</time>
      </trkpt>
      <trkpt lat="36.9560990" lon="-2.3983920">
        <ele>378.6</ele>
        <time>2019-10-18T19:42:48Z</time>
      </trkpt>
      <trkpt lat="36.9561030" lon="-2.3983930">
        <ele>378.7</ele>
        <time>2019-10-18T19:42:49Z</time>
      </trkpt>
      <trkpt lat="36.9561100" lon="-2.3983950">
        <ele>378.8</ele>
        <time>2019-10-18T19:42:50Z</time>
      </trkpt>
      <trkpt lat="36.9561180" lon="-2.3983970">
        <ele>378.9</ele>
        <time>2019-10-18T19:42:51Z</time>
      </trkpt>
      <trkpt lat="36.9561270" lon="-2.3983980">
        <ele>379.0</ele>
        <time>2019-10-18T19:42:52Z</time>
      </trkpt>
      <trkpt lat="36.9561360" lon="-2.3983980">
        <ele>379.1</ele>
        <time>2019-10-18T19:42:53Z</time>
      </trkpt>
      <trkpt lat="36.9561430" lon="-2.3983970">
        <ele>379.1</ele>
        <time>2019-10-18T19:42:54Z</time>
      </trkpt>
      <trkpt lat="36.9561510" lon="-2.3983970">
        <ele>379.2</ele>
        <time>2019-10-18T19:42:55Z</time>
      </trkpt>
      <trkpt lat="36.9561590" lon="-2.3983970">
        <ele>379.3</ele>
        <time>2019-10-18T19:42:56Z</time>
      </trkpt>
      <trkpt lat="36.9561680" lon="-2.3983970">
        <ele>379.4</ele>
        <time>2019-10-18T19:42:57Z</time>
      </trkpt>
      <trkpt lat="36.9561760" lon="-2.3983960">
        <ele>379.5</ele>
        <time>2019-10-18T19:42:58Z</time>
      </trkpt>
      <trkpt lat="36.9561840" lon="-2.3983950">
        <ele>379.6</ele>
        <time>2019-10-18T19:42:59Z</time>
      </trkpt>
      <trkpt lat="36.9561900" lon="-2.3983960">
        <ele>379.6</ele>
        <time>2019-10-18T19:43:00Z</time>
      </trkpt>
      <trkpt lat="36.9561990" lon="-2.3983960">
        <ele>379.7</ele>
        <time>2019-10-18T19:43:01Z</time>
      </trkpt>
      <trkpt lat="36.9562060" lon="-2.3983980">
        <ele>379.8</ele>
        <time>2019-10-18T19:43:02Z</time>
      </trkpt>
      <trkpt lat="36.9562120" lon="-2.3984010">
        <ele>379.9</ele>
        <time>2019-10-18T19:43:03Z</time>
      </trkpt>
      <trkpt lat="36.9562170" lon="-2.3984040">
        <ele>379.9</ele>
        <time>2019-10-18T19:43:04Z</time>
      </trkpt>
      <trkpt lat="36.9562220" lon="-2.3984070">
        <ele>380.0</ele>
        <time>2019-10-18T19:43:05Z</time>
      </trkpt>
      <trkpt lat="36.9562290" lon="-2.3984100">
        <ele>380.0</ele>
        <time>2019-10-18T19:43:06Z</time>
      </trkpt>
      <trkpt lat="36.9562360" lon="-2.3984120">
        <ele>380.1</ele>
        <time>2019-10-18T19:43:07Z</time>
      </trkpt>
      <trkpt lat="36.9562440" lon="-2.3984140">
        <ele>380.2</ele>
        <time>2019-10-18T19:43:08Z</time>
      </trkpt>
      <trkpt lat="36.9562520" lon="-2.3984150">
        <ele>380.3</ele>
        <time>2019-10-18T19:43:09Z</time>
      </trkpt>
      <trkpt lat="36.9562600" lon="-2.3984170">
        <ele>380.3</ele>
        <time>2019-10-18T19:43:10Z</time>
      </trkpt>
      <trkpt lat="36.9562680" lon="-2.3984180">
        <ele>380.4</ele>
        <time>2019-10-18T19:43:11Z</time>
      </trkpt>
      <trkpt lat="36.9562740" lon="-2.3984210">
        <ele>380.5</ele>
        <time>2019-10-18T19:43:12Z</time>
      </trkpt>
      <trkpt lat="36.9562820" lon="-2.3984240">
        <ele>380.6</ele>
        <time>2019-10-18T19:43:13Z</time>
      </trkpt>
      <trkpt lat="36.9562910" lon="-2.3984250">
        <ele>380.6</ele>
        <time>2019-10-18T19:43:14Z</time>
      </trkpt>
      <trkpt lat="36.9563010" lon="-2.3984260">
        <ele>380.7</ele>
        <time>2019-10-18T19:43:15Z</time>
      </trkpt>
      <trkpt lat="36.9563110" lon="-2.3984260">
        <ele>380.8</ele>
        <time>2019-10-18T19:43:16Z</time>
      </trkpt>
      <trkpt lat="36.9563200" lon="-2.3984270">
        <ele>380.9</ele>
        <time>2019-10-18T19:43:17Z</time>
      </trkpt>
      <trkpt lat="36.9563290" lon="-2.3984290">
        <ele>381.0</ele>
        <time>2019-10-18T19:43:18Z</time>
      </trkpt>
      <trkpt lat="36.9563380" lon="-2.3984320">
        <ele>381.1</ele>
        <time>2019-10-18T19:43:19Z</time>
      </trkpt>
      <trkpt lat="36.9563480" lon="-2.3984360">
        <ele>381.2</ele>
        <time>2019-10-18T19:43:20Z</time>
      </trkpt>
      <trkpt lat="36.9563570" lon="-2.3984390">
        <ele>381.3</ele>
        <time>2019-10-18T19:43:21Z</time>
      </trkpt>
      <trkpt lat="36.9563660" lon="-2.3984440">
        <ele>381.4</ele>
        <time>2019-10-18T19:43:22Z</time>
      </trkpt>
      <trkpt lat="36.9563750" lon="-2.3984480">
        <ele>381.5</ele>
        <time>2019-10-18T19:43:23Z</time>
      </trkpt>
      <trkpt lat="36.9563840" lon="-2.3984510">
        <ele>381.6</ele>
        <time>2019-10-18T19:43:24Z</time>
      </trkpt>
      <trkpt lat="36.9563930" lon="-2.3984530">
        <ele>381.7</ele>
        <time>2019-10-18T19:43:25Z</time>
      </trkpt>
      <trkpt lat="36.9564010" lon="-2.3984550">
        <ele>381.7</ele>
        <time>2019-10-18T19:43:26Z</time>
      </trkpt>
      <trkpt lat="36.9564080" lon="-2.3984570">
        <ele>381.8</ele>
        <time>2019-10-18T19:43:27Z</time>
      </trkpt>
      <trkpt lat="36.9564160" lon="-2.3984570">
        <ele>381.9</ele>
        <time>2019-10-18T19:43:28Z</time>
      </trkpt>
      <trkpt lat="36.9564240" lon="-2.3984570">
        <ele>382.0</ele>
        <time>2019-10-18T19:43:29Z</time>
      </trkpt>
      <trkpt lat="36.9564310" lon="-2.3984550">
        <ele>382.0</ele>
        <time>2019-10-18T19:43:30Z</time>
      </trkpt>
      <trkpt lat="36.9564380" lon="-2.3984540">
        <ele>382.1</ele>
        <time>2019-10-18T19:43:31Z</time>
      </trkpt>
      <trkpt lat="36.9564440" lon="-2.3984520">
        <ele>382.1</ele>
        <time>2019-10-18T19:43:32Z</time>
      </trkpt>
      <trkpt lat="36.9564500" lon="-2.3984510">
        <ele>382.2</ele>
        <time>2019-10-18T19:43:33Z</time>
      </trkpt>
      <trkpt lat="36.9564570" lon="-2.3984480">
        <ele>382.3</ele>
        <time>2019-10-18T19:43:34Z</time>
      </trkpt>
      <trkpt lat="36.9564640" lon="-2.3984440">
        <ele>382.3</ele>
        <time>2019-10-18T19:43:35Z</time>
      </trkpt>
      <trkpt lat="36.9564690" lon="-2.3984420">
        <ele>382.4</ele>
        <time>2019-10-18T19:43:36Z</time>
      </trkpt>
      <trkpt lat="36.9564710" lon="-2.3984410">
        <ele>382.4</ele>
        <time>2019-10-18T19:43:37Z</time>
      </trkpt>
      <trkpt lat="36.9564720" lon="-2.3984410">
        <ele>382.4</ele>
        <time>2019-10-18T19:43:38Z</time>
      </trkpt>
      <trkpt lat="36.9564730" lon="-2.3984410">
        <ele>382.4</ele>
        <time>2019-10-18T19:43:39Z</time>
      </trkpt>
      <trkpt lat="36.9564750" lon="-2.3984390">
        <ele>382.4</ele>
        <time>2019-10-18T19:43:40Z</time>
      </trkpt>
      <trkpt lat="36.9564800" lon="-2.3984340">
        <ele>382.5</ele>
        <time>2019-10-18T19:43:41Z</time>
      </trkpt>
      <trkpt lat="36.9564850" lon="-2.3984270">
        <ele>382.8</ele>
        <time>2019-10-18T19:43:42Z</time>
      </trkpt>
      <trkpt lat="36.9564890" lon="-2.3984210">
        <ele>382.9</ele>
        <time>2019-10-18T19:43:43Z</time>
      </trkpt>
      <trkpt lat="36.9564930" lon="-2.3984140">
        <ele>383.1</ele>
        <time>2019-10-18T19:43:44Z</time>
      </trkpt>
      <trkpt lat="36.9564970" lon="-2.3984090">
        <ele>383.2</ele>
        <time>2019-10-18T19:43:45Z</time>
      </trkpt>
      <trkpt lat="36.9565000" lon="-2.3984030">
        <ele>383.3</ele>
        <time>2019-10-18T19:43:46Z</time>
      </trkpt>
      <trkpt lat="36.9565030" lon="-2.3983990">
        <ele>383.4</ele>
        <time>2019-10-18T19:43:47Z</time>
      </trkpt>
      <trkpt lat="36.9565060" lon="-2.3983950">
        <ele>383.5</ele>
        <time>2019-10-18T19:43:48Z</time>
      </trkpt>
      <trkpt lat="36.9565090" lon="-2.3983940">
        <ele>383.6</ele>
        <time>2019-10-18T19:43:49Z</time>
      </trkpt>
      <trkpt lat="36.9565110" lon="-2.3983950">
        <ele>383.6</ele>
        <time>2019-10-18T19:43:50Z</time>
      </trkpt>
      <trkpt lat="36.9565130" lon="-2.3983960">
        <ele>383.7</ele>
        <time>2019-10-18T19:43:51Z</time>
      </trkpt>
      <trkpt lat="36.9565140" lon="-2.3983960">
        <ele>383.7</ele>
        <time>2019-10-18T19:43:52Z</time>
      </trkpt>
      <trkpt lat="36.9565150" lon="-2.3983940">
        <ele>383.7</ele>
        <time>2019-10-18T19:43:53Z</time>
      </trkpt>
      <trkpt lat="36.9565170" lon="-2.3983930">
        <ele>383.8</ele>
        <time>2019-10-18T19:43:54Z</time>
      </trkpt>
      <trkpt lat="36.9565170" lon="-2.3983910">
        <ele>383.8</ele>
        <time>2019-10-18T19:43:55Z</time>
      </trkpt>
      <trkpt lat="36.9565170" lon="-2.3983910">
        <ele>383.8</ele>
        <time>2019-10-18T19:43:56Z</time>
      </trkpt>
      <trkpt lat="36.9565160" lon="-2.3983900">
        <ele>383.9</ele>
        <time>2019-10-18T19:43:57Z</time>
      </trkpt>
      <trkpt lat="36.9565160" lon="-2.3983890">
        <ele>383.9</ele>
        <time>2019-10-18T19:43:58Z</time>
      </trkpt>
      <trkpt lat="36.9565160" lon="-2.3983890">
        <ele>383.9</ele>
        <time>2019-10-18T19:43:59Z</time>
      </trkpt>
      <trkpt lat="36.9565170" lon="-2.3983890">
        <ele>383.9</ele>
        <time>2019-10-18T19:44:00Z</time>
      </trkpt>
      <trkpt lat="36.9565170" lon="-2.3983900">
        <ele>383.9</ele>
        <time>2019-10-18T19:44:01Z</time>
      </trkpt>
      <trkpt lat="36.9565190" lon="-2.3983910">
        <ele>384.0</ele>
        <time>2019-10-18T19:44:02Z</time>
      </trkpt>
      <trkpt lat="36.9565200" lon="-2.3983930">
        <ele>384.0</ele>
        <time>2019-10-18T19:44:03Z</time>
      </trkpt>
      <trkpt lat="36.9565200" lon="-2.3983950">
        <ele>384.0</ele>
        <time>2019-10-18T19:44:04Z</time>
      </trkpt>
      <trkpt lat="36.9565200" lon="-2.3983970">
        <ele>384.1</ele>
        <time>2019-10-18T19:44:05Z</time>
      </trkpt>
      <trkpt lat="36.9565210" lon="-2.3983990">
        <ele>384.1</ele>
        <time>2019-10-18T19:44:06Z</time>
      </trkpt>
      <trkpt lat="36.9565220" lon="-2.3984000">
        <ele>384.1</ele>
        <time>2019-10-18T19:44:07Z</time>
      </trkpt>
      <trkpt lat="36.9565230" lon="-2.3984000">
        <ele>384.2</ele>
        <time>2019-10-18T19:44:08Z</time>
      </trkpt>
      <trkpt lat="36.9565250" lon="-2.3983990">
        <ele>384.2</ele>
        <time>2019-10-18T19:44:09Z</time>
      </trkpt>
      <trkpt lat="36.9565280" lon="-2.3983930">
        <ele>384.3</ele>
        <time>2019-10-18T19:44:10Z</time>
      </trkpt>
      <trkpt lat="36.9565320" lon="-2.3983840">
        <ele>384.5</ele>
        <time>2019-10-18T19:44:11Z</time>
      </trkpt>
      <trkpt lat="36.9565330" lon="-2.3983710">
        <ele>384.7</ele>
        <time>2019-10-18T19:44:12Z</time>
      </trkpt>
      <trkpt lat="36.9565320" lon="-2.3983590">
        <ele>384.9</ele>
        <time>2019-10-18T19:44:13Z</time>
      </trkpt>
      <trkpt lat="36.9565320" lon="-2.3983460">
        <ele>385.1</ele>
        <time>2019-10-18T19:44:14Z</time>
      </trkpt>
      <trkpt lat="36.9565320" lon="-2.3983320">
        <ele>385.4</ele>
        <time>2019-10-18T19:44:15Z</time>
      </trkpt>
      <trkpt lat="36.9565320" lon="-2.3983190">
        <ele>385.6</ele>
        <time>2019-10-18T19:44:16Z</time>
      </trkpt>
      <trkpt lat="36.9565330" lon="-2.3983070">
        <ele>385.8</ele>
        <time>2019-10-18T19:44:17Z</time>
      </trkpt>
      <trkpt lat="36.9565350" lon="-2.3982970">
        <ele>385.9</ele>
        <time>2019-10-18T19:44:18Z</time>
      </trkpt>
      <trkpt lat="36.9565380" lon="-2.3982870">
        <ele>386.1</ele>
        <time>2019-10-18T19:44:19Z</time>
      </trkpt>
      <trkpt lat="36.9565430" lon="-2.3982770">
        <ele>386.3</ele>
        <time>2019-10-18T19:44:20Z</time>
      </trkpt>
      <trkpt lat="36.9565470" lon="-2.3982670">
        <ele>386.5</ele>
        <time>2019-10-18T19:44:21Z</time>
      </trkpt>
      <trkpt lat="36.9565510" lon="-2.3982580">
        <ele>386.7</ele>
        <time>2019-10-18T19:44:22Z</time>
      </trkpt>
      <trkpt lat="36.9565560" lon="-2.3982500">
        <ele>386.9</ele>
        <time>2019-10-18T19:44:23Z</time>
      </trkpt>
      <trkpt lat="36.9565600" lon="-2.3982420">
        <ele>387.1</ele>
        <time>2019-10-18T19:44:24Z</time>
      </trkpt>
      <trkpt lat="36.9565650" lon="-2.3982330">
        <ele>387.3</ele>
        <time>2019-10-18T19:44:25Z</time>
      </trkpt>
      <trkpt lat="36.9565690" lon="-2.3982240">
        <ele>387.5</ele>
        <time>2019-10-18T19:44:26Z</time>
      </trkpt>
      <trkpt lat="36.9565740" lon="-2.3982160">
        <ele>387.7</ele>
        <time>2019-10-18T19:44:27Z</time>
      </trkpt>
      <trkpt lat="36.9565800" lon="-2.3982080">
        <ele>388.0</ele>
        <time>2019-10-18T19:44:28Z</time>
      </trkpt>
      <trkpt lat="36.9565870" lon="-2.3981990">
        <ele>388.2</ele>
        <time>2019-10-18T19:44:29Z</time>
      </trkpt>
      <trkpt lat="36.9565920" lon="-2.3981900">
        <ele>388.4</ele>
        <time>2019-10-18T19:44:30Z</time>
      </trkpt>
      <trkpt lat="36.9565980" lon="-2.3981790">
        <ele>388.7</ele>
        <time>2019-10-18T19:44:31Z</time>
      </trkpt>
      <trkpt lat="36.9566020" lon="-2.3981700">
        <ele>388.9</ele>
        <time>2019-10-18T19:44:32Z</time>
      </trkpt>
      <trkpt lat="36.9566070" lon="-2.3981630">
        <ele>389.1</ele>
        <time>2019-10-18T19:44:33Z</time>
      </trkpt>
      <trkpt lat="36.9566110" lon="-2.3981580">
        <ele>389.3</ele>
        <time>2019-10-18T19:44:34Z</time>
      </trkpt>
      <trkpt lat="36.9566140" lon="-2.3981550">
        <ele>389.4</ele>
        <time>2019-10-18T19:44:35Z</time>
      </trkpt>
      <trkpt lat="36.9566150" lon="-2.3981530">
        <ele>389.4</ele>
        <time>2019-10-18T19:44:36Z</time>
      </trkpt>
      <trkpt lat="36.9566150" lon="-2.3981510">
        <ele>389.5</ele>
        <time>2019-10-18T19:44:37Z</time>
      </trkpt>
      <trkpt lat="36.9566150" lon="-2.3981510">
        <ele>389.5</ele>
        <time>2019-10-18T19:44:38Z</time>
      </trkpt>
      <trkpt lat="36.9566150" lon="-2.3981500">
        <ele>389.5</ele>
        <time>2019-10-18T19:44:39Z</time>
      </trkpt>
      <trkpt lat="36.9566150" lon="-2.3981500">
        <ele>389.5</ele>
        <time>2019-10-18T19:44:40Z</time>
      </trkpt>
      <trkpt lat="36.9566160" lon="-2.3981480">
        <ele>389.5</ele>
        <time>2019-10-18T19:44:41Z</time>
      </trkpt>
      <trkpt lat="36.9566190" lon="-2.3981450">
        <ele>389.6</ele>
        <time>2019-10-18T19:44:42Z</time>
      </trkpt>
      <trkpt lat="36.9566240" lon="-2.3981420">
        <ele>389.8</ele>
        <time>2019-10-18T19:44:43Z</time>
      </trkpt>
      <trkpt lat="36.9566340" lon="-2.3981390">
        <ele>390.1</ele>
        <time>2019-10-18T19:44:44Z</time>
      </trkpt>
      <trkpt lat="36.9566470" lon="-2.3981360">
        <ele>390.4</ele>
        <time>2019-10-18T19:44:45Z</time>
      </trkpt>
      <trkpt lat="36.9566610" lon="-2.3981310">
        <ele>390.8</ele>
        <time>2019-10-18T19:44:46Z</time>
      </trkpt>
      <trkpt lat="36.9566720" lon="-2.3981230">
        <ele>391.1</ele>
        <time>2019-10-18T19:44:47Z</time>
      </trkpt>
      <trkpt lat="36.9566830" lon="-2.3981110">
        <ele>391.5</ele>
        <time>2019-10-18T19:44:48Z</time>
      </trkpt>
      <trkpt lat="36.9566940" lon="-2.3981020">
        <ele>391.8</ele>
        <time>2019-10-18T19:44:49Z</time>
      </trkpt>
      <trkpt lat="36.9567060" lon="-2.3980930">
        <ele>392.2</ele>
        <time>2019-10-18T19:44:50Z</time>
      </trkpt>
      <trkpt lat="36.9567190" lon="-2.3980830">
        <ele>392.6</ele>
        <time>2019-10-18T19:44:51Z</time>
      </trkpt>
      <trkpt lat="36.9567300" lon="-2.3980710">
        <ele>393.0</ele>
        <time>2019-10-18T19:44:52Z</time>
      </trkpt>
      <trkpt lat="36.9567400" lon="-2.3980570">
        <ele>393.3</ele>
        <time>2019-10-18T19:44:53Z</time>
      </trkpt>
      <trkpt lat="36.9567490" lon="-2.3980450">
        <ele>393.7</ele>
        <time>2019-10-18T19:44:54Z</time>
      </trkpt>
      <trkpt lat="36.9567600" lon="-2.3980330">
        <ele>394.0</ele>
        <time>2019-10-18T19:44:55Z</time>
      </trkpt>
      <trkpt lat="36.9567710" lon="-2.3980230">
        <ele>394.3</ele>
        <time>2019-10-18T19:44:56Z</time>
      </trkpt>
      <trkpt lat="36.9567820" lon="-2.3980130">
        <ele>394.7</ele>
        <time>2019-10-18T19:44:57Z</time>
      </trkpt>
      <trkpt lat="36.9567920" lon="-2.3980020">
        <ele>395.0</ele>
        <time>2019-10-18T19:44:58Z</time>
      </trkpt>
      <trkpt lat="36.9568020" lon="-2.3979920">
        <ele>395.3</ele>
        <time>2019-10-18T19:44:59Z</time>
      </trkpt>
      <trkpt lat="36.9568130" lon="-2.3979840">
        <ele>395.6</ele>
        <time>2019-10-18T19:45:00Z</time>
      </trkpt>
      <trkpt lat="36.9568250" lon="-2.3979750">
        <ele>395.9</ele>
        <time>2019-10-18T19:45:01Z</time>
      </trkpt>
      <trkpt lat="36.9568370" lon="-2.3979660">
        <ele>396.2</ele>
        <time>2019-10-18T19:45:02Z</time>
      </trkpt>
      <trkpt lat="36.9568480" lon="-2.3979550">
        <ele>396.5</ele>
        <time>2019-10-18T19:45:03Z</time>
      </trkpt>
      <trkpt lat="36.9568580" lon="-2.3979430">
        <ele>396.7</ele>
        <time>2019-10-18T19:45:04Z</time>
      </trkpt>
      <trkpt lat="36.9568680" lon="-2.3979320">
        <ele>396.9</ele>
        <time>2019-10-18T19:45:05Z</time>
      </trkpt>
      <trkpt lat="36.9568780" lon="-2.3979220">
        <ele>397.1</ele>
        <time>2019-10-18T19:45:06Z</time>
      </trkpt>
      <trkpt lat="36.9568870" lon="-2.3979120">
        <ele>397.3</ele>
        <time>2019-10-18T19:45:07Z</time>
      </trkpt>
      <trkpt lat="36.9568970" lon="-2.3979020">
        <ele>397.5</ele>
        <time>2019-10-18T19:45:08Z</time>
      </trkpt>
      <trkpt lat="36.9569080" lon="-2.3978930">
        <ele>397.8</ele>
        <time>2019-10-18T19:45:09Z</time>
      </trkpt>
      <trkpt lat="36.9569170" lon="-2.3978850">
        <ele>398.0</ele>
        <time>2019-10-18T19:45:10Z</time>
      </trkpt>
      <trkpt lat="36.9569240" lon="-2.3978790">
        <ele>398.1</ele>
        <time>2019-10-18T19:45:11Z</time>
      </trkpt>
      <trkpt lat="36.9569270" lon="-2.3978770">
        <ele>398.1</ele>
        <time>2019-10-18T19:45:12Z</time>
      </trkpt>
      <trkpt lat="36.9569290" lon="-2.3978780">
        <ele>398.2</ele>
        <time>2019-10-18T19:45:13Z</time>
      </trkpt>
      <trkpt lat="36.9569300" lon="-2.3978780">
        <ele>398.2</ele>
        <time>2019-10-18T19:45:14Z</time>
      </trkpt>
      <trkpt lat="36.9569330" lon="-2.3978770">
        <ele>398.3</ele>
        <time>2019-10-18T19:45:15Z</time>
      </trkpt>
      <trkpt lat="36.9569360" lon="-2.3978770">
        <ele>398.3</ele>
        <time>2019-10-18T19:45:16Z</time>
      </trkpt>
      <trkpt lat="36.9569390" lon="-2.3978750">
        <ele>398.4</ele>
        <time>2019-10-18T19:45:17Z</time>
      </trkpt>
      <trkpt lat="36.9569440" lon="-2.3978720">
        <ele>398.5</ele>
        <time>2019-10-18T19:45:18Z</time>
      </trkpt>
      <trkpt lat="36.9569510" lon="-2.3978690">
        <ele>398.7</ele>
        <time>2019-10-18T19:45:19Z</time>
      </trkpt>
      <trkpt lat="36.9569620" lon="-2.3978650">
        <ele>398.9</ele>
        <time>2019-10-18T19:45:20Z</time>
      </trkpt>
      <trkpt lat="36.9569750" lon="-2.3978610">
        <ele>399.2</ele>
        <time>2019-10-18T19:45:21Z</time>
      </trkpt>
      <trkpt lat="36.9569910" lon="-2.3978580">
        <ele>399.6</ele>
        <time>2019-10-18T19:45:22Z</time>
      </trkpt>
      <trkpt lat="36.9570070" lon="-2.3978560">
        <ele>399.9</ele>
        <time>2019-10-18T19:45:23Z</time>
      </trkpt>
      <trkpt lat="36.9570230" lon="-2.3978540">
        <ele>400.2</ele>
        <time>2019-10-18T19:45:24Z</time>
      </trkpt>
      <trkpt lat="36.9570380" lon="-2.3978510">
        <ele>400.5</ele>
        <time>2019-10-18T19:45:25Z</time>
      </trkpt>
      <trkpt lat="36.9570540" lon="-2.3978480">
        <ele>400.8</ele>
        <time>2019-10-18T19:45:26Z</time>
      </trkpt>
      <trkpt lat="36.9570700" lon="-2.3978450">
        <ele>401.1</ele>
        <time>2019-10-18T19:45:27Z</time>
      </trkpt>
      <trkpt lat="36.9570860" lon="-2.3978440">
        <ele>401.4</ele>
        <time>2019-10-18T19:45:28Z</time>
      </trkpt>
      <trkpt lat="36.9571030" lon="-2.3978430">
        <ele>401.7</ele>
        <time>2019-10-18T19:45:29Z</time>
      </trkpt>
      <trkpt lat="36.9571180" lon="-2.3978430">
        <ele>402.0</ele>
        <time>2019-10-18T19:45:30Z</time>
      </trkpt>
      <trkpt lat="36.9571330" lon="-2.3978410">
        <ele>402.3</ele>
        <time>2019-10-18T19:45:31Z</time>
      </trkpt>
      <trkpt lat="36.9571470" lon="-2.3978400">
        <ele>402.5</ele>
        <time>2019-10-18T19:45:32Z</time>
      </trkpt>
      <trkpt lat="36.9571620" lon="-2.3978390">
        <ele>402.8</ele>
        <time>2019-10-18T19:45:33Z</time>
      </trkpt>
      <trkpt lat="36.9571770" lon="-2.3978370">
        <ele>403.1</ele>
        <time>2019-10-18T19:45:34Z</time>
      </trkpt>
      <trkpt lat="36.9571900" lon="-2.3978330">
        <ele>403.3</ele>
        <time>2019-10-18T19:45:35Z</time>
      </trkpt>
      <trkpt lat="36.9572040" lon="-2.3978300">
        <ele>403.6</ele>
        <time>2019-10-18T19:45:36Z</time>
      </trkpt>
      <trkpt lat="36.9572170" lon="-2.3978280">
        <ele>403.8</ele>
        <time>2019-10-18T19:45:37Z</time>
      </trkpt>
      <trkpt lat="36.9572320" lon="-2.3978250">
        <ele>404.1</ele>
        <time>2019-10-18T19:45:38Z</time>
      </trkpt>
      <trkpt lat="36.9572470" lon="-2.3978210">
        <ele>404.3</ele>
        <time>2019-10-18T19:45:39Z</time>
      </trkpt>
      <trkpt lat="36.9572620" lon="-2.3978170">
        <ele>404.6</ele>
        <time>2019-10-18T19:45:40Z</time>
      </trkpt>
      <trkpt lat="36.9572770" lon="-2.3978130">
        <ele>404.9</ele>
        <time>2019-10-18T19:45:41Z</time>
      </trkpt>
      <trkpt lat="36.9572920" lon="-2.3978100">
        <ele>405.1</ele>
        <time>2019-10-18T19:45:42Z</time>
      </trkpt>
      <trkpt lat="36.9573080" lon="-2.3978070">
        <ele>405.4</ele>
        <time>2019-10-18T19:45:43Z</time>
      </trkpt>
      <trkpt lat="36.9573230" lon="-2.3978050">
        <ele>405.7</ele>
        <time>2019-10-18T19:45:44Z</time>
      </trkpt>
      <trkpt lat="36.9573390" lon="-2.3978020">
        <ele>405.9</ele>
        <time>2019-10-18T19:45:45Z</time>
      </trkpt>
      <trkpt lat="36.9573540" lon="-2.3977980">
        <ele>406.2</ele>
        <time>2019-10-18T19:45:46Z</time>
      </trkpt>
      <trkpt lat="36.9573680" lon="-2.3977930">
        <ele>406.4</ele>
        <time>2019-10-18T19:45:47Z</time>
      </trkpt>
      <trkpt lat="36.9573810" lon="-2.3977870">
        <ele>406.6</ele>
        <time>2019-10-18T19:45:48Z</time>
      </trkpt>
      <trkpt lat="36.9573930" lon="-2.3977810">
        <ele>406.9</ele>
        <time>2019-10-18T19:45:49Z</time>
      </trkpt>
      <trkpt lat="36.9574050" lon="-2.3977750">
        <ele>407.1</ele>
        <time>2019-10-18T19:45:50Z</time>
      </trkpt>
      <trkpt lat="36.9574170" lon="-2.3977680">
        <ele>407.3</ele>
        <time>2019-10-18T19:45:51Z</time>
      </trkpt>
      <trkpt lat="36.9574290" lon="-2.3977610">
        <ele>407.5</ele>
        <time>2019-10-18T19:45:52Z</time>
      </trkpt>
      <trkpt lat="36.9574410" lon="-2.3977560">
        <ele>407.7</ele>
        <time>2019-10-18T19:45:53Z</time>
      </trkpt>
      <trkpt lat="36.9574540" lon="-2.3977520">
        <ele>407.9</ele>
        <time>2019-10-18T19:45:54Z</time>
      </trkpt>
      <trkpt lat="36.9574680" lon="-2.3977510">
        <ele>408.1</ele>
        <time>2019-10-18T19:45:55Z</time>
      </trkpt>
      <trkpt lat="36.9574840" lon="-2.3977500">
        <ele>408.4</ele>
        <time>2019-10-18T19:45:56Z</time>
      </trkpt>
      <trkpt lat="36.9574990" lon="-2.3977520">
        <ele>408.6</ele>
        <time>2019-10-18T19:45:57Z</time>
      </trkpt>
      <trkpt lat="36.9575150" lon="-2.3977550">
        <ele>408.9</ele>
        <time>2019-10-18T19:45:58Z</time>
      </trkpt>
      <trkpt lat="36.9575310" lon="-2.3977570">
        <ele>409.1</ele>
        <time>2019-10-18T19:45:59Z</time>
      </trkpt>
      <trkpt lat="36.9575460" lon="-2.3977580">
        <ele>409.4</ele>
        <time>2019-10-18T19:46:00Z</time>
      </trkpt>
      <trkpt lat="36.9575620" lon="-2.3977580">
        <ele>409.6</ele>
        <time>2019-10-18T19:46:01Z</time>
      </trkpt>
      <trkpt lat="36.9575780" lon="-2.3977570">
        <ele>409.9</ele>
        <time>2019-10-18T19:46:02Z</time>
      </trkpt>
      <trkpt lat="36.9575930" lon="-2.3977560">
        <ele>410.1</ele>
        <time>2019-10-18T19:46:03Z</time>
      </trkpt>
      <trkpt lat="36.9576070" lon="-2.3977560">
        <ele>410.3</ele>
        <time>2019-10-18T19:46:04Z</time>
      </trkpt>
      <trkpt lat="36.9576220" lon="-2.3977560">
        <ele>410.6</ele>
        <time>2019-10-18T19:46:05Z</time>
      </trkpt>
      <trkpt lat="36.9576360" lon="-2.3977550">
        <ele>410.8</ele>
        <time>2019-10-18T19:46:06Z</time>
      </trkpt>
      <trkpt lat="36.9576490" lon="-2.3977550">
        <ele>411.0</ele>
        <time>2019-10-18T19:46:07Z</time>
      </trkpt>
      <trkpt lat="36.9576630" lon="-2.3977560">
        <ele>411.2</ele>
        <time>2019-10-18T19:46:08Z</time>
      </trkpt>
      <trkpt lat="36.9576760" lon="-2.3977580">
        <ele>411.4</ele>
        <time>2019-10-18T19:46:09Z</time>
      </trkpt>
      <trkpt lat="36.9576900" lon="-2.3977600">
        <ele>411.6</ele>
        <time>2019-10-18T19:46:10Z</time>
      </trkpt>
      <trkpt lat="36.9577020" lon="-2.3977610">
        <ele>411.8</ele>
        <time>2019-10-18T19:46:11Z</time>
      </trkpt>
      <trkpt lat="36.9577150" lon="-2.3977620">
        <ele>412.0</ele>
        <time>2019-10-18T19:46:12Z</time>
      </trkpt>
      <trkpt lat="36.9577270" lon="-2.3977620">
        <ele>412.2</ele>
        <time>2019-10-18T19:46:13Z</time>
      </trkpt>
      <trkpt lat="36.9577400" lon="-2.3977600">
        <ele>412.4</ele>
        <time>2019-10-18T19:46:14Z</time>
      </trkpt>
      <trkpt lat="36.9577540" lon="-2.3977560">
        <ele>412.7</ele>
        <time>2019-10-18T19:46:15Z</time>
      </trkpt>
      <trkpt lat="36.9577670" lon="-2.3977520">
        <ele>412.9</ele>
        <time>2019-10-18T19:46:16Z</time>
      </trkpt>
      <trkpt lat="36.9577810" lon="-2.3977490">
        <ele>413.1</ele>
        <time>2019-10-18T19:46:17Z</time>
      </trkpt>
      <trkpt lat="36.9577950" lon="-2.3977460">
        <ele>413.3</ele>
        <time>2019-10-18T19:46:18Z</time>
      </trkpt>
      <trkpt lat="36.9578090" lon="-2.3977430">
        <ele>413.5</ele>
        <time>2019-10-18T19:46:19Z</time>
      </trkpt>
      <trkpt lat="36.9578220" lon="-2.3977400">
        <ele>413.8</ele>
        <time>2019-10-18T19:46:20Z</time>
      </trkpt>
      <trkpt lat="36.9578360" lon="-2.3977360">
        <ele>414.0</ele>
        <time>2019-10-18T19:46:21Z</time>
      </trkpt>
      <trkpt lat="36.9578490" lon="-2.3977310">
        <ele>414.2</ele>
        <time>2019-10-18T19:46:22Z</time>
      </trkpt>
      <trkpt lat="36.9578630" lon="-2.3977250">
        <ele>414.5</ele>
        <time>2019-10-18T19:46:23Z</time>
      </trkpt>
      <trkpt lat="36.9578760" lon="-2.3977200">
        <ele>414.7</ele>
        <time>2019-10-18T19:46:24Z</time>
      </trkpt>
      <trkpt lat="36.9578900" lon="-2.3977170">
        <ele>414.9</ele>
        <time>2019-10-18T19:46:25Z</time>
      </trkpt>
      <trkpt lat="36.9579050" lon="-2.3977150">
        <ele>415.2</ele>
        <time>2019-10-18T19:46:26Z</time>
      </trkpt>
      <trkpt lat="36.9579200" lon="-2.3977120">
        <ele>415.4</ele>
        <time>2019-10-18T19:46:27Z</time>
      </trkpt>
      <trkpt lat="36.9579340" lon="-2.3977100">
        <ele>415.7</ele>
        <time>2019-10-18T19:46:28Z</time>
      </trkpt>
      <trkpt lat="36.9579490" lon="-2.3977070">
        <ele>415.9</ele>
        <time>2019-10-18T19:46:29Z</time>
      </trkpt>
      <trkpt lat="36.9579620" lon="-2.3977040">
        <ele>416.2</ele>
        <time>2019-10-18T19:46:30Z</time>
      </trkpt>
      <trkpt lat="36.9579760" lon="-2.3977010">
        <ele>416.4</ele>
        <time>2019-10-18T19:46:31Z</time>
      </trkpt>
      <trkpt lat="36.9579900" lon="-2.3976960">
        <ele>416.7</ele>
        <time>2019-10-18T19:46:32Z</time>
      </trkpt>
      <trkpt lat="36.9580050" lon="-2.3976920">
        <ele>417.0</ele>
        <time>2019-10-18T19:46:33Z</time>
      </trkpt>
      <trkpt lat="36.9580200" lon="-2.3976870">
        <ele>417.3</ele>
        <time>2019-10-18T19:46:34Z</time>
      </trkpt>
      <trkpt lat="36.9580350" lon="-2.3976820">
        <ele>417.5</ele>
        <time>2019-10-18T19:46:35Z</time>
      </trkpt>
      <trkpt lat="36.9580490" lon="-2.3976760">
        <ele>417.8</ele>
        <time>2019-10-18T19:46:36Z</time>
      </trkpt>
      <trkpt lat="36.9580640" lon="-2.3976710">
        <ele>418.1</ele>
        <time>2019-10-18T19:46:37Z</time>
      </trkpt>
      <trkpt lat="36.9580760" lon="-2.3976640">
        <ele>418.4</ele>
        <time>2019-10-18T19:46:38Z</time>
      </trkpt>
      <trkpt lat="36.9580870" lon="-2.3976570">
        <ele>418.6</ele>
        <time>2019-10-18T19:46:39Z</time>
      </trkpt>
      <trkpt lat="36.9580990" lon="-2.3976490">
        <ele>418.9</ele>
        <time>2019-10-18T19:46:40Z</time>
      </trkpt>
      <trkpt lat="36.9581100" lon="-2.3976400">
        <ele>419.1</ele>
        <time>2019-10-18T19:46:41Z</time>
      </trkpt>
      <trkpt lat="36.9581220" lon="-2.3976320">
        <ele>419.4</ele>
        <time>2019-10-18T19:46:42Z</time>
      </trkpt>
      <trkpt lat="36.9581330" lon="-2.3976250">
        <ele>419.6</ele>
        <time>2019-10-18T19:46:43Z</time>
      </trkpt>
      <trkpt lat="36.9581470" lon="-2.3976170">
        <ele>419.9</ele>
        <time>2019-10-18T19:46:44Z</time>
      </trkpt>
      <trkpt lat="36.9581620" lon="-2.3976080">
        <ele>420.2</ele>
        <time>2019-10-18T19:46:45Z</time>
      </trkpt>
      <trkpt lat="36.9581750" lon="-2.3976000">
        <ele>420.5</ele>
        <time>2019-10-18T19:46:46Z</time>
      </trkpt>
      <trkpt lat="36.9581860" lon="-2.3975920">
        <ele>420.8</ele>
        <time>2019-10-18T19:46:47Z</time>
      </trkpt>
      <trkpt lat="36.9581960" lon="-2.3975840">
        <ele>421.0</ele>
        <time>2019-10-18T19:46:48Z</time>
      </trkpt>
      <trkpt lat="36.9582050" lon="-2.3975760">
        <ele>421.2</ele>
        <time>2019-10-18T19:46:49Z</time>
      </trkpt>
      <trkpt lat="36.9582170" lon="-2.3975670">
        <ele>421.5</ele>
        <time>2019-10-18T19:46:50Z</time>
      </trkpt>
      <trkpt lat="36.9582290" lon="-2.3975580">
        <ele>421.8</ele>
        <time>2019-10-18T19:46:51Z</time>
      </trkpt>
      <trkpt lat="36.9582410" lon="-2.3975480">
        <ele>422.1</ele>
        <time>2019-10-18T19:46:52Z</time>
      </trkpt>
      <trkpt lat="36.9582520" lon="-2.3975380">
        <ele>422.3</ele>
        <time>2019-10-18T19:46:53Z</time>
      </trkpt>
      <trkpt lat="36.9582640" lon="-2.3975300">
        <ele>422.6</ele>
        <time>2019-10-18T19:46:54Z</time>
      </trkpt>
      <trkpt lat="36.9582760" lon="-2.3975210">
        <ele>422.9</ele>
        <time>2019-10-18T19:46:55Z</time>
      </trkpt>
      <trkpt lat="36.9582890" lon="-2.3975150">
        <ele>423.2</ele>
        <time>2019-10-18T19:46:56Z</time>
      </trkpt>
      <trkpt lat="36.9583050" lon="-2.3975080">
        <ele>423.5</ele>
        <time>2019-10-18T19:46:57Z</time>
      </trkpt>
      <trkpt lat="36.9583210" lon="-2.3975000">
        <ele>423.8</ele>
        <time>2019-10-18T19:46:58Z</time>
      </trkpt>
      <trkpt lat="36.9583380" lon="-2.3974890">
        <ele>424.2</ele>
        <time>2019-10-18T19:46:59Z</time>
      </trkpt>
      <trkpt lat="36.9583530" lon="-2.3974790">
        <ele>424.5</ele>
        <time>2019-10-18T19:47:00Z</time>
      </trkpt>
      <trkpt lat="36.9583710" lon="-2.3974710">
        <ele>424.9</ele>
        <time>2019-10-18T19:47:01Z</time>
      </trkpt>
      <trkpt lat="36.9583880" lon="-2.3974640">
        <ele>425.3</ele>
        <time>2019-10-18T19:47:02Z</time>
      </trkpt>
      <trkpt lat="36.9584070" lon="-2.3974560">
        <ele>425.7</ele>
        <time>2019-10-18T19:47:03Z</time>
      </trkpt>
      <trkpt lat="36.9584230" lon="-2.3974500">
        <ele>426.0</ele>
        <time>2019-10-18T19:47:04Z</time>
      </trkpt>
      <trkpt lat="36.9584390" lon="-2.3974450">
        <ele>426.3</ele>
        <time>2019-10-18T19:47:05Z</time>
      </trkpt>
      <trkpt lat="36.9584540" lon="-2.3974420">
        <ele>426.6</ele>
        <time>2019-10-18T19:47:06Z</time>
      </trkpt>
      <trkpt lat="36.9584690" lon="-2.3974390">
        <ele>426.9</ele>
        <time>2019-10-18T19:47:07Z</time>
      </trkpt>
      <trkpt lat="36.9584820" lon="-2.3974330">
        <ele>427.2</ele>
        <time>2019-10-18T19:47:08Z</time>
      </trkpt>
      <trkpt lat="36.9584940" lon="-2.3974290">
        <ele>427.5</ele>
        <time>2019-10-18T19:47:09Z</time>
      </trkpt>
      <trkpt lat="36.9585070" lon="-2.3974280">
        <ele>427.7</ele>
        <time>2019-10-18T19:47:10Z</time>
      </trkpt>
      <trkpt lat="36.9585210" lon="-2.3974270">
        <ele>428.0</ele>
        <time>2019-10-18T19:47:11Z</time>
      </trkpt>
      <trkpt lat="36.9585340" lon="-2.3974270">
        <ele>428.3</ele>
        <time>2019-10-18T19:47:12Z</time>
      </trkpt>
      <trkpt lat="36.9585470" lon="-2.3974270">
        <ele>428.5</ele>
        <time>2019-10-18T19:47:13Z</time>
      </trkpt>
      <trkpt lat="36.9585610" lon="-2.3974270">
        <ele>428.8</ele>
        <time>2019-10-18T19:47:14Z</time>
      </trkpt>
      <trkpt lat="36.9585740" lon="-2.3974280">
        <ele>429.1</ele>
        <time>2019-10-18T19:47:15Z</time>
      </trkpt>
      <trkpt lat="36.9585870" lon="-2.3974280">
        <ele>429.3</ele>
        <time>2019-10-18T19:47:16Z</time>
      </trkpt>
      <trkpt lat="36.9586000" lon="-2.3974260">
        <ele>429.6</ele>
        <time>2019-10-18T19:47:17Z</time>
      </trkpt>
      <trkpt lat="36.9586140" lon="-2.3974240">
        <ele>429.8</ele>
        <time>2019-10-18T19:47:18Z</time>
      </trkpt>
      <trkpt lat="36.9586290" lon="-2.3974230">
        <ele>430.1</ele>
        <time>2019-10-18T19:47:19Z</time>
      </trkpt>
      <trkpt lat="36.9586430" lon="-2.3974220">
        <ele>430.4</ele>
        <time>2019-10-18T19:47:20Z</time>
      </trkpt>
      <trkpt lat="36.9586560" lon="-2.3974200">
        <ele>430.6</ele>
        <time>2019-10-18T19:47:21Z</time>
      </trkpt>
      <trkpt lat="36.9586690" lon="-2.3974180">
        <ele>430.9</ele>
        <time>2019-10-18T19:47:22Z</time>
      </trkpt>
      <trkpt lat="36.9586800" lon="-2.3974130">
        <ele>431.1</ele>
        <time>2019-10-18T19:47:23Z</time>
      </trkpt>
      <trkpt lat="36.9586910" lon="-2.3974060">
        <ele>431.3</ele>
        <time>2019-10-18T19:47:24Z</time>
      </trkpt>
      <trkpt lat="36.9587010" lon="-2.3973990">
        <ele>431.5</ele>
        <time>2019-10-18T19:47:25Z</time>
      </trkpt>
      <trkpt lat="36.9587120" lon="-2.3973930">
        <ele>431.6</ele>
        <time>2019-10-18T19:47:26Z</time>
      </trkpt>
      <trkpt lat="36.9587240" lon="-2.3973870">
        <ele>431.8</ele>
        <time>2019-10-18T19:47:27Z</time>
      </trkpt>
      <trkpt lat="36.9587340" lon="-2.3973830">
        <ele>431.9</ele>
        <time>2019-10-18T19:47:28Z</time>
      </trkpt>
      <trkpt lat="36.9587450" lon="-2.3973790">
        <ele>432.0</ele>
        <time>2019-10-18T19:47:29Z</time>
      </trkpt>
      <trkpt lat="36.9587560" lon="-2.3973760">
        <ele>432.2</ele>
        <time>2019-10-18T19:47:30Z</time>
      </trkpt>
      <trkpt lat="36.9587670" lon="-2.3973740">
        <ele>432.3</ele>
        <time>2019-10-18T19:47:31Z</time>
      </trkpt>
      <trkpt lat="36.9587780" lon="-2.3973720">
        <ele>432.4</ele>
        <time>2019-10-18T19:47:32Z</time>
      </trkpt>
      <trkpt lat="36.9587900" lon="-2.3973710">
        <ele>432.6</ele>
        <time>2019-10-18T19:47:33Z</time>
      </trkpt>
      <trkpt lat="36.9588030" lon="-2.3973690">
        <ele>432.7</ele>
        <time>2019-10-18T19:47:34Z</time>
      </trkpt>
      <trkpt lat="36.9588140" lon="-2.3973650">
        <ele>432.9</ele>
        <time>2019-10-18T19:47:35Z</time>
      </trkpt>
      <trkpt lat="36.9588250" lon="-2.3973590">
        <ele>433.0</ele>
        <time>2019-10-18T19:47:36Z</time>
      </trkpt>
      <trkpt lat="36.9588360" lon="-2.3973520">
        <ele>433.2</ele>
        <time>2019-10-18T19:47:37Z</time>
      </trkpt>
      <trkpt lat="36.9588460" lon="-2.3973440">
        <ele>433.3</ele>
        <time>2019-10-18T19:47:38Z</time>
      </trkpt>
      <trkpt lat="36.9588570" lon="-2.3973390">
        <ele>433.4</ele>
        <time>2019-10-18T19:47:39Z</time>
      </trkpt>
      <trkpt lat="36.9588700" lon="-2.3973340">
        <ele>433.6</ele>
        <time>2019-10-18T19:47:40Z</time>
      </trkpt>
      <trkpt lat="36.9588830" lon="-2.3973300">
        <ele>433.8</ele>
        <time>2019-10-18T19:47:41Z</time>
      </trkpt>
      <trkpt lat="36.9588970" lon="-2.3973240">
        <ele>433.9</ele>
        <time>2019-10-18T19:47:42Z</time>
      </trkpt>
      <trkpt lat="36.9589110" lon="-2.3973180">
        <ele>434.1</ele>
        <time>2019-10-18T19:47:43Z</time>
      </trkpt>
      <trkpt lat="36.9589240" lon="-2.3973090">
        <ele>434.2</ele>
        <time>2019-10-18T19:47:44Z</time>
      </trkpt>
      <trkpt lat="36.9589360" lon="-2.3973010">
        <ele>434.4</ele>
        <time>2019-10-18T19:47:45Z</time>
      </trkpt>
      <trkpt lat="36.9589470" lon="-2.3972930">
        <ele>434.5</ele>
        <time>2019-10-18T19:47:46Z</time>
      </trkpt>
      <trkpt lat="36.9589570" lon="-2.3972870">
        <ele>434.6</ele>
        <time>2019-10-18T19:47:47Z</time>
      </trkpt>
      <trkpt lat="36.9589680" lon="-2.3972810">
        <ele>434.8</ele>
        <time>2019-10-18T19:47:48Z</time>
      </trkpt>
      <trkpt lat="36.9589800" lon="-2.3972760">
        <ele>434.9</ele>
        <time>2019-10-18T19:47:49Z</time>
      </trkpt>
      <trkpt lat="36.9589920" lon="-2.3972720">
        <ele>435.0</ele>
        <time>2019-10-18T19:47:50Z</time>
      </trkpt>
      <trkpt lat="36.9590050" lon="-2.3972690">
        <ele>435.2</ele>
        <time>2019-10-18T19:47:51Z</time>
      </trkpt>
      <trkpt lat="36.9590190" lon="-2.3972690">
        <ele>435.3</ele>
        <time>2019-10-18T19:47:52Z</time>
      </trkpt>
      <trkpt lat="36.9590340" lon="-2.3972700">
        <ele>435.5</ele>
        <time>2019-10-18T19:47:53Z</time>
      </trkpt>
      <trkpt lat="36.9590480" lon="-2.3972710">
        <ele>435.6</ele>
        <time>2019-10-18T19:47:54Z</time>
      </trkpt>
      <trkpt lat="36.9590630" lon="-2.3972710">
        <ele>435.8</ele>
        <time>2019-10-18T19:47:55Z</time>
      </trkpt>
      <trkpt lat="36.9590760" lon="-2.3972690">
        <ele>435.9</ele>
        <time>2019-10-18T19:47:56Z</time>
      </trkpt>
      <trkpt lat="36.9590900" lon="-2.3972670">
        <ele>436.1</ele>
        <time>2019-10-18T19:47:57Z</time>
      </trkpt>
      <trkpt lat="36.9591040" lon="-2.3972660">
        <ele>436.3</ele>
        <time>2019-10-18T19:47:58Z</time>
      </trkpt>
      <trkpt lat="36.9591170" lon="-2.3972640">
        <ele>436.4</ele>
        <time>2019-10-18T19:47:59Z</time>
      </trkpt>
      <trkpt lat="36.9591300" lon="-2.3972640">
        <ele>436.6</ele>
        <time>2019-10-18T19:48:00Z</time>
      </trkpt>
      <trkpt lat="36.9591440" lon="-2.3972640">
        <ele>436.8</ele>
        <time>2019-10-18T19:48:01Z</time>
      </trkpt>
      <trkpt lat="36.9591580" lon="-2.3972650">
        <ele>437.0</ele>
        <time>2019-10-18T19:48:02Z</time>
      </trkpt>
      <trkpt lat="36.9591720" lon="-2.3972680">
        <ele>437.2</ele>
        <time>2019-10-18T19:48:03Z</time>
      </trkpt>
      <trkpt lat="36.9591860" lon="-2.3972710">
        <ele>437.4</ele>
        <time>2019-10-18T19:48:04Z</time>
      </trkpt>
      <trkpt lat="36.9592000" lon="-2.3972740">
        <ele>437.6</ele>
        <time>2019-10-18T19:48:05Z</time>
      </trkpt>
      <trkpt lat="36.9592130" lon="-2.3972770">
        <ele>437.7</ele>
        <time>2019-10-18T19:48:06Z</time>
      </trkpt>
      <trkpt lat="36.9592270" lon="-2.3972790">
        <ele>437.9</ele>
        <time>2019-10-18T19:48:07Z</time>
      </trkpt>
      <trkpt lat="36.9592390" lon="-2.3972820">
        <ele>438.1</ele>
        <time>2019-10-18T19:48:08Z</time>
      </trkpt>
      <trkpt lat="36.9592520" lon="-2.3972870">
        <ele>438.2</ele>
        <time>2019-10-18T19:48:09Z</time>
      </trkpt>
      <trkpt lat="36.9592650" lon="-2.3972910">
        <ele>438.4</ele>
        <time>2019-10-18T19:48:10Z</time>
      </trkpt>
      <trkpt lat="36.9592780" lon="-2.3972960">
        <ele>438.6</ele>
        <time>2019-10-18T19:48:11Z</time>
      </trkpt>
      <trkpt lat="36.9592910" lon="-2.3973020">
        <ele>438.7</ele>
        <time>2019-10-18T19:48:12Z</time>
      </trkpt>
      <trkpt lat="36.9593020" lon="-2.3973080">
        <ele>438.9</ele>
        <time>2019-10-18T19:48:13Z</time>
      </trkpt>
      <trkpt lat="36.9593140" lon="-2.3973140">
        <ele>439.1</ele>
        <time>2019-10-18T19:48:14Z</time>
      </trkpt>
      <trkpt lat="36.9593260" lon="-2.3973180">
        <ele>439.3</ele>
        <time>2019-10-18T19:48:15Z</time>
      </trkpt>
      <trkpt lat="36.9593380" lon="-2.3973220">
        <ele>439.4</ele>
        <time>2019-10-18T19:48:16Z</time>
      </trkpt>
      <trkpt lat="36.9593500" lon="-2.3973270">
        <ele>439.6</ele>
        <time>2019-10-18T19:48:17Z</time>
      </trkpt>
      <trkpt lat="36.9593620" lon="-2.3973320">
        <ele>439.8</ele>
        <time>2019-10-18T19:48:18Z</time>
      </trkpt>
      <trkpt lat="36.9593720" lon="-2.3973360">
        <ele>440.3</ele>
        <time>2019-10-18T19:48:19Z</time>
      </trkpt>
      <trkpt lat="36.9593820" lon="-2.3973410">
        <ele>440.3</ele>
        <time>2019-10-18T19:48:20Z</time>
      </trkpt>
      <trkpt lat="36.9593940" lon="-2.3973450">
        <ele>440.4</ele>
        <time>2019-10-18T19:48:21Z</time>
      </trkpt>
      <trkpt lat="36.9594060" lon="-2.3973500">
        <ele>440.5</ele>
        <time>2019-10-18T19:48:22Z</time>
      </trkpt>
      <trkpt lat="36.9594180" lon="-2.3973530">
        <ele>440.6</ele>
        <time>2019-10-18T19:48:23Z</time>
      </trkpt>
      <trkpt lat="36.9594290" lon="-2.3973550">
        <ele>440.7</ele>
        <time>2019-10-18T19:48:24Z</time>
      </trkpt>
      <trkpt lat="36.9594400" lon="-2.3973550">
        <ele>440.8</ele>
        <time>2019-10-18T19:48:25Z</time>
      </trkpt>
      <trkpt lat="36.9594520" lon="-2.3973530">
        <ele>440.9</ele>
        <time>2019-10-18T19:48:26Z</time>
      </trkpt>
      <trkpt lat="36.9594650" lon="-2.3973500">
        <ele>441.0</ele>
        <time>2019-10-18T19:48:27Z</time>
      </trkpt>
      <trkpt lat="36.9594790" lon="-2.3973480">
        <ele>441.1</ele>
        <time>2019-10-18T19:48:28Z</time>
      </trkpt>
      <trkpt lat="36.9594930" lon="-2.3973460">
        <ele>441.2</ele>
        <time>2019-10-18T19:48:29Z</time>
      </trkpt>
      <trkpt lat="36.9595060" lon="-2.3973450">
        <ele>441.3</ele>
        <time>2019-10-18T19:48:30Z</time>
      </trkpt>
      <trkpt lat="36.9595190" lon="-2.3973440">
        <ele>441.4</ele>
        <time>2019-10-18T19:48:31Z</time>
      </trkpt>
      <trkpt lat="36.9595340" lon="-2.3973430">
        <ele>441.5</ele>
        <time>2019-10-18T19:48:32Z</time>
      </trkpt>
      <trkpt lat="36.9595480" lon="-2.3973440">
        <ele>441.6</ele>
        <time>2019-10-18T19:48:33Z</time>
      </trkpt>
      <trkpt lat="36.9595620" lon="-2.3973440">
        <ele>441.7</ele>
        <time>2019-10-18T19:48:34Z</time>
      </trkpt>
      <trkpt lat="36.9595760" lon="-2.3973420">
        <ele>441.8</ele>
        <time>2019-10-18T19:48:35Z</time>
      </trkpt>
      <trkpt lat="36.9595880" lon="-2.3973380">
        <ele>441.9</ele>
        <time>2019-10-18T19:48:36Z</time>
      </trkpt>
      <trkpt lat="36.9596010" lon="-2.3973330">
        <ele>442.0</ele>
        <time>2019-10-18T19:48:37Z</time>
      </trkpt>
      <trkpt lat="36.9596130" lon="-2.3973280">
        <ele>442.2</ele>
        <time>2019-10-18T19:48:38Z</time>
      </trkpt>
      <trkpt lat="36.9596230" lon="-2.3973200">
        <ele>442.3</ele>
        <time>2019-10-18T19:48:39Z</time>
      </trkpt>
      <trkpt lat="36.9596310" lon="-2.3973110">
        <ele>442.3</ele>
        <time>2019-10-18T19:48:40Z</time>
      </trkpt>
      <trkpt lat="36.9596400" lon="-2.3973030">
        <ele>442.4</ele>
        <time>2019-10-18T19:48:41Z</time>
      </trkpt>
      <trkpt lat="36.9596500" lon="-2.3972960">
        <ele>442.5</ele>
        <time>2019-10-18T19:48:42Z</time>
      </trkpt>
      <trkpt lat="36.9596570" lon="-2.3972860">
        <ele>442.6</ele>
        <time>2019-10-18T19:48:43Z</time>
      </trkpt>
      <trkpt lat="36.9596630" lon="-2.3972750">
        <ele>442.7</ele>
        <time>2019-10-18T19:48:44Z</time>
      </trkpt>
      <trkpt lat="36.9596690" lon="-2.3972610">
        <ele>442.8</ele>
        <time>2019-10-18T19:48:45Z</time>
      </trkpt>
      <trkpt lat="36.9596750" lon="-2.3972470">
        <ele>442.9</ele>
        <time>2019-10-18T19:48:46Z</time>
      </trkpt>
      <trkpt lat="36.9596810" lon="-2.3972320">
        <ele>443.0</ele>
        <time>2019-10-18T19:48:47Z</time>
      </trkpt>
      <trkpt lat="36.9596870" lon="-2.3972170">
        <ele>443.2</ele>
        <time>2019-10-18T19:48:48Z</time>
      </trkpt>
      <trkpt lat="36.9596930" lon="-2.3972010">
        <ele>443.3</ele>
        <time>2019-10-18T19:48:49Z</time>
      </trkpt>
      <trkpt lat="36.9596980" lon="-2.3971850">
        <ele>443.4</ele>
        <time>2019-10-18T19:48:50Z</time>
      </trkpt>
      <trkpt lat="36.9597040" lon="-2.3971680">
        <ele>443.5</ele>
        <time>2019-10-18T19:48:51Z</time>
      </trkpt>
      <trkpt lat="36.9597120" lon="-2.3971510">
        <ele>443.6</ele>
        <time>2019-10-18T19:48:52Z</time>
      </trkpt>
      <trkpt lat="36.9597200" lon="-2.3971320">
        <ele>443.8</ele>
        <time>2019-10-18T19:48:53Z</time>
      </trkpt>
      <trkpt lat="36.9597260" lon="-2.3971120">
        <ele>443.9</ele>
        <time>2019-10-18T19:48:54Z</time>
      </trkpt>
      <trkpt lat="36.9597310" lon="-2.3970930">
        <ele>444.0</ele>
        <time>2019-10-18T19:48:55Z</time>
      </trkpt>
      <trkpt lat="36.9597360" lon="-2.3970730">
        <ele>444.1</ele>
        <time>2019-10-18T19:48:56Z</time>
      </trkpt>
      <trkpt lat="36.9597410" lon="-2.3970550">
        <ele>444.2</ele>
        <time>2019-10-18T19:48:57Z</time>
      </trkpt>
      <trkpt lat="36.9597440" lon="-2.3970360">
        <ele>444.3</ele>
        <time>2019-10-18T19:48:58Z</time>
      </trkpt>
      <trkpt lat="36.9597440" lon="-2.3970160">
        <ele>444.4</ele>
        <time>2019-10-18T19:48:59Z</time>
      </trkpt>
      <trkpt lat="36.9597430" lon="-2.3969970">
        <ele>444.5</ele>
        <time>2019-10-18T19:49:00Z</time>
      </trkpt>
      <trkpt lat="36.9597420" lon="-2.3969800">
        <ele>444.6</ele>
        <time>2019-10-18T19:49:01Z</time>
      </trkpt>
      <trkpt lat="36.9597400" lon="-2.3969620">
        <ele>444.7</ele>
        <time>2019-10-18T19:49:02Z</time>
      </trkpt>
      <trkpt lat="36.9597370" lon="-2.3969440">
        <ele>444.8</ele>
        <time>2019-10-18T19:49:03Z</time>
      </trkpt>
      <trkpt lat="36.9597300" lon="-2.3969270">
        <ele>445.0</ele>
        <time>2019-10-18T19:49:04Z</time>
      </trkpt>
      <trkpt lat="36.9597210" lon="-2.3969110">
        <ele>445.1</ele>
        <time>2019-10-18T19:49:05Z</time>
      </trkpt>
      <trkpt lat="36.9597110" lon="-2.3968950">
        <ele>445.2</ele>
        <time>2019-10-18T19:49:06Z</time>
      </trkpt>
      <trkpt lat="36.9597010" lon="-2.3968790">
        <ele>445.3</ele>
        <time>2019-10-18T19:49:07Z</time>
      </trkpt>
      <trkpt lat="36.9596890" lon="-2.3968660">
        <ele>445.4</ele>
        <time>2019-10-18T19:49:08Z</time>
      </trkpt>
      <trkpt lat="36.9596760" lon="-2.3968560">
        <ele>445.5</ele>
        <time>2019-10-18T19:49:09Z</time>
      </trkpt>
      <trkpt lat="36.9596630" lon="-2.3968480">
        <ele>445.6</ele>
        <time>2019-10-18T19:49:10Z</time>
      </trkpt>
      <trkpt lat="36.9596490" lon="-2.3968410">
        <ele>445.8</ele>
        <time>2019-10-18T19:49:11Z</time>
      </trkpt>
      <trkpt lat="36.9596350" lon="-2.3968350">
        <ele>445.9</ele>
        <time>2019-10-18T19:49:12Z</time>
      </trkpt>
      <trkpt lat="36.9596220" lon="-2.3968310">
        <ele>446.1</ele>
        <time>2019-10-18T19:49:13Z</time>
      </trkpt>
      <trkpt lat="36.9596100" lon="-2.3968250">
        <ele>446.2</ele>
        <time>2019-10-18T19:49:14Z</time>
      </trkpt>
      <trkpt lat="36.9595980" lon="-2.3968160">
        <ele>446.4</ele>
        <time>2019-10-18T19:49:15Z</time>
      </trkpt>
      <trkpt lat="36.9595820" lon="-2.3968060">
        <ele>446.6</ele>
        <time>2019-10-18T19:49:16Z</time>
      </trkpt>
      <trkpt lat="36.9595670" lon="-2.3967940">
        <ele>446.8</ele>
        <time>2019-10-18T19:49:17Z</time>
      </trkpt>
      <trkpt lat="36.9595520" lon="-2.3967800">
        <ele>447.0</ele>
        <time>2019-10-18T19:49:18Z</time>
      </trkpt>
      <trkpt lat="36.9595390" lon="-2.3967650">
        <ele>447.3</ele>
        <time>2019-10-18T19:49:19Z</time>
      </trkpt>
      <trkpt lat="36.9595270" lon="-2.3967480">
        <ele>447.5</ele>
        <time>2019-10-18T19:49:20Z</time>
      </trkpt>
      <trkpt lat="36.9595150" lon="-2.3967310">
        <ele>447.6</ele>
        <time>2019-10-18T19:49:21Z</time>
      </trkpt>
      <trkpt lat="36.9595040" lon="-2.3967120">
        <ele>447.8</ele>
        <time>2019-10-18T19:49:22Z</time>
      </trkpt>
      <trkpt lat="36.9594930" lon="-2.3966920">
        <ele>448.0</ele>
        <time>2019-10-18T19:49:23Z</time>
      </trkpt>
      <trkpt lat="36.9594830" lon="-2.3966730">
        <ele>448.2</ele>
        <time>2019-10-18T19:49:24Z</time>
      </trkpt>
      <trkpt lat="36.9594720" lon="-2.3966540">
        <ele>448.4</ele>
        <time>2019-10-18T19:49:25Z</time>
      </trkpt>
      <trkpt lat="36.9594600" lon="-2.3966360">
        <ele>448.6</ele>
        <time>2019-10-18T19:49:26Z</time>
      </trkpt>
      <trkpt lat="36.9594470" lon="-2.3966200">
        <ele>448.8</ele>
        <time>2019-10-18T19:49:27Z</time>
      </trkpt>
      <trkpt lat="36.9594330" lon="-2.3966060">
        <ele>449.0</ele>
        <time>2019-10-18T19:49:28Z</time>
      </trkpt>
      <trkpt lat="36.9594180" lon="-2.3965930">
        <ele>449.3</ele>
        <time>2019-10-18T19:49:29Z</time>
      </trkpt>
      <trkpt lat="36.9594030" lon="-2.3965820">
        <ele>449.6</ele>
        <time>2019-10-18T19:49:30Z</time>
      </trkpt>
      <trkpt lat="36.9593860" lon="-2.3965730">
        <ele>450.0</ele>
        <time>2019-10-18T19:49:31Z</time>
      </trkpt>
      <trkpt lat="36.9593690" lon="-2.3965650">
        <ele>450.3</ele>
        <time>2019-10-18T19:49:32Z</time>
      </trkpt>
      <trkpt lat="36.9593520" lon="-2.3965560">
        <ele>450.7</ele>
        <time>2019-10-18T19:49:33Z</time>
      </trkpt>
      <trkpt lat="36.9593350" lon="-2.3965470">
        <ele>451.1</ele>
        <time>2019-10-18T19:49:34Z</time>
      </trkpt>
      <trkpt lat="36.9593180" lon="-2.3965380">
        <ele>451.5</ele>
        <time>2019-10-18T19:49:35Z</time>
      </trkpt>
      <trkpt lat="36.9593020" lon="-2.3965270">
        <ele>451.9</ele>
        <time>2019-10-18T19:49:36Z</time>
      </trkpt>
      <trkpt lat="36.9592880" lon="-2.3965130">
        <ele>452.3</ele>
        <time>2019-10-18T19:49:37Z</time>
      </trkpt>
      <trkpt lat="36.9592740" lon="-2.3964990">
        <ele>452.8</ele>
        <time>2019-10-18T19:49:38Z</time>
      </trkpt>
      <trkpt lat="36.9592600" lon="-2.3964840">
        <ele>453.2</ele>
        <time>2019-10-18T19:49:39Z</time>
      </trkpt>
      <trkpt lat="36.9592470" lon="-2.3964700">
        <ele>453.6</ele>
        <time>2019-10-18T19:49:40Z</time>
      </trkpt>
      <trkpt lat="36.9592360" lon="-2.3964550">
        <ele>454.0</ele>
        <time>2019-10-18T19:49:41Z</time>
      </trkpt>
      <trkpt lat="36.9592260" lon="-2.3964380">
        <ele>454.4</ele>
        <time>2019-10-18T19:49:42Z</time>
      </trkpt>
      <trkpt lat="36.9592170" lon="-2.3964190">
        <ele>454.8</ele>
        <time>2019-10-18T19:49:43Z</time>
      </trkpt>
      <trkpt lat="36.9592060" lon="-2.3964000">
        <ele>455.1</ele>
        <time>2019-10-18T19:49:44Z</time>
      </trkpt>
      <trkpt lat="36.9591970" lon="-2.3963810">
        <ele>455.4</ele>
        <time>2019-10-18T19:49:45Z</time>
      </trkpt>
      <trkpt lat="36.9591880" lon="-2.3963620">
        <ele>455.7</ele>
        <time>2019-10-18T19:49:46Z</time>
      </trkpt>
      <trkpt lat="36.9591810" lon="-2.3963450">
        <ele>456.0</ele>
        <time>2019-10-18T19:49:47Z</time>
      </trkpt>
      <trkpt lat="36.9591780" lon="-2.3963270">
        <ele>456.2</ele>
        <time>2019-10-18T19:49:48Z</time>
      </trkpt>
      <trkpt lat="36.9591760" lon="-2.3963100">
        <ele>456.5</ele>
        <time>2019-10-18T19:49:49Z</time>
      </trkpt>
      <trkpt lat="36.9591770" lon="-2.3962920">
        <ele>456.7</ele>
        <time>2019-10-18T19:49:50Z</time>
      </trkpt>
      <trkpt lat="36.9591800" lon="-2.3962750">
        <ele>456.9</ele>
        <time>2019-10-18T19:49:51Z</time>
      </trkpt>
      <trkpt lat="36.9591860" lon="-2.3962610">
        <ele>457.1</ele>
        <time>2019-10-18T19:49:52Z</time>
      </trkpt>
      <trkpt lat="36.9591960" lon="-2.3962510">
        <ele>457.3</ele>
        <time>2019-10-18T19:49:53Z</time>
      </trkpt>
      <trkpt lat="36.9592090" lon="-2.3962470">
        <ele>457.5</ele>
        <time>2019-10-18T19:49:54Z</time>
      </trkpt>
      <trkpt lat="36.9592250" lon="-2.3962440">
        <ele>457.8</ele>
        <time>2019-10-18T19:49:55Z</time>
      </trkpt>
      <trkpt lat="36.9592400" lon="-2.3962430">
        <ele>458.0</ele>
        <time>2019-10-18T19:49:56Z</time>
      </trkpt>
      <trkpt lat="36.9592560" lon="-2.3962440">
        <ele>458.2</ele>
        <time>2019-10-18T19:49:57Z</time>
      </trkpt>
      <trkpt lat="36.9592700" lon="-2.3962460">
        <ele>458.4</ele>
        <time>2019-10-18T19:49:58Z</time>
      </trkpt>
      <trkpt lat="36.9592850" lon="-2.3962480">
        <ele>458.7</ele>
        <time>2019-10-18T19:49:59Z</time>
      </trkpt>
      <trkpt lat="36.9593000" lon="-2.3962510">
        <ele>458.8</ele>
        <time>2019-10-18T19:50:00Z</time>
      </trkpt>
      <trkpt lat="36.9593150" lon="-2.3962540">
        <ele>459.0</ele>
        <time>2019-10-18T19:50:01Z</time>
      </trkpt>
      <trkpt lat="36.9593290" lon="-2.3962570">
        <ele>459.1</ele>
        <time>2019-10-18T19:50:02Z</time>
      </trkpt>
      <trkpt lat="36.9593430" lon="-2.3962610">
        <ele>459.3</ele>
        <time>2019-10-18T19:50:03Z</time>
      </trkpt>
      <trkpt lat="36.9593570" lon="-2.3962640">
        <ele>459.4</ele>
        <time>2019-10-18T19:50:04Z</time>
      </trkpt>
      <trkpt lat="36.9593710" lon="-2.3962670">
        <ele>459.6</ele>
        <time>2019-10-18T19:50:05Z</time>
      </trkpt>
      <trkpt lat="36.9593840" lon="-2.3962680">
        <ele>459.7</ele>
        <time>2019-10-18T19:50:06Z</time>
      </trkpt>
      <trkpt lat="36.9593980" lon="-2.3962710">
        <ele>459.8</ele>
        <time>2019-10-18T19:50:07Z</time>
      </trkpt>
      <trkpt lat="36.9594110" lon="-2.3962730">
        <ele>459.9</ele>
        <time>2019-10-18T19:50:08Z</time>
      </trkpt>
      <trkpt lat="36.9594240" lon="-2.3962750">
        <ele>460.0</ele>
        <time>2019-10-18T19:50:09Z</time>
      </trkpt>
      <trkpt lat="36.9594370" lon="-2.3962750">
        <ele>460.1</ele>
        <time>2019-10-18T19:50:10Z</time>
      </trkpt>
      <trkpt lat="36.9594500" lon="-2.3962750">
        <ele>460.3</ele>
        <time>2019-10-18T19:50:11Z</time>
      </trkpt>
      <trkpt lat="36.9594630" lon="-2.3962750">
        <ele>460.4</ele>
        <time>2019-10-18T19:50:12Z</time>
      </trkpt>
      <trkpt lat="36.9594760" lon="-2.3962760">
        <ele>460.4</ele>
        <time>2019-10-18T19:50:13Z</time>
      </trkpt>
      <trkpt lat="36.9594900" lon="-2.3962790">
        <ele>460.6</ele>
        <time>2019-10-18T19:50:14Z</time>
      </trkpt>
      <trkpt lat="36.9595040" lon="-2.3962820">
        <ele>460.7</ele>
        <time>2019-10-18T19:50:15Z</time>
      </trkpt>
      <trkpt lat="36.9595180" lon="-2.3962830">
        <ele>460.8</ele>
        <time>2019-10-18T19:50:16Z</time>
      </trkpt>
      <trkpt lat="36.9595330" lon="-2.3962810">
        <ele>460.9</ele>
        <time>2019-10-18T19:50:17Z</time>
      </trkpt>
      <trkpt lat="36.9595460" lon="-2.3962780">
        <ele>461.0</ele>
        <time>2019-10-18T19:50:18Z</time>
      </trkpt>
      <trkpt lat="36.9595590" lon="-2.3962760">
        <ele>461.0</ele>
        <time>2019-10-18T19:50:19Z</time>
      </trkpt>
      <trkpt lat="36.9595730" lon="-2.3962760">
        <ele>461.1</ele>
        <time>2019-10-18T19:50:20Z</time>
      </trkpt>
      <trkpt lat="36.9595860" lon="-2.3962780">
        <ele>461.2</ele>
        <time>2019-10-18T19:50:21Z</time>
      </trkpt>
      <trkpt lat="36.9596000" lon="-2.3962810">
        <ele>461.3</ele>
        <time>2019-10-18T19:50:22Z</time>
      </trkpt>
      <trkpt lat="36.9596130" lon="-2.3962840">
        <ele>461.4</ele>
        <time>2019-10-18T19:50:23Z</time>
      </trkpt>
      <trkpt lat="36.9596270" lon="-2.3962870">
        <ele>461.4</ele>
        <time>2019-10-18T19:50:24Z</time>
      </trkpt>
      <trkpt lat="36.9596410" lon="-2.3962900">
        <ele>461.5</ele>
        <time>2019-10-18T19:50:25Z</time>
      </trkpt>
      <trkpt lat="36.9596550" lon="-2.3962890">
        <ele>461.6</ele>
        <time>2019-10-18T19:50:26Z</time>
      </trkpt>
      <trkpt lat="36.9596700" lon="-2.3962850">
        <ele>461.7</ele>
        <time>2019-10-18T19:50:27Z</time>
      </trkpt>
      <trkpt lat="36.9596840" lon="-2.3962790">
        <ele>461.8</ele>
        <time>2019-10-18T19:50:28Z</time>
      </trkpt>
      <trkpt lat="36.9596980" lon="-2.3962740">
        <ele>461.9</ele>
        <time>2019-10-18T19:50:29Z</time>
      </trkpt>
      <trkpt lat="36.9597110" lon="-2.3962670">
        <ele>461.9</ele>
        <time>2019-10-18T19:50:30Z</time>
      </trkpt>
      <trkpt lat="36.9597240" lon="-2.3962580">
        <ele>462.0</ele>
        <time>2019-10-18T19:50:31Z</time>
      </trkpt>
      <trkpt lat="36.9597360" lon="-2.3962470">
        <ele>462.1</ele>
        <time>2019-10-18T19:50:32Z</time>
      </trkpt>
      <trkpt lat="36.9597480" lon="-2.3962340">
        <ele>462.2</ele>
        <time>2019-10-18T19:50:33Z</time>
      </trkpt>
      <trkpt lat="36.9597590" lon="-2.3962220">
        <ele>462.3</ele>
        <time>2019-10-18T19:50:34Z</time>
      </trkpt>
      <trkpt lat="36.9597700" lon="-2.3962090">
        <ele>462.4</ele>
        <time>2019-10-18T19:50:35Z</time>
      </trkpt>
      <trkpt lat="36.9597800" lon="-2.3961940">
        <ele>462.5</ele>
        <time>2019-10-18T19:50:36Z</time>
      </trkpt>
      <trkpt lat="36.9597880" lon="-2.3961770">
        <ele>462.6</ele>
        <time>2019-10-18T19:50:37Z</time>
      </trkpt>
      <trkpt lat="36.9597950" lon="-2.3961600">
        <ele>462.7</ele>
        <time>2019-10-18T19:50:38Z</time>
      </trkpt>
      <trkpt lat="36.9598010" lon="-2.3961420">
        <ele>462.8</ele>
        <time>2019-10-18T19:50:39Z</time>
      </trkpt>
      <trkpt lat="36.9598080" lon="-2.3961250">
        <ele>462.9</ele>
        <time>2019-10-18T19:50:40Z</time>
      </trkpt>
      <trkpt lat="36.9598140" lon="-2.3961070">
        <ele>463.0</ele>
        <time>2019-10-18T19:50:41Z</time>
      </trkpt>
      <trkpt lat="36.9598190" lon="-2.3960880">
        <ele>463.1</ele>
        <time>2019-10-18T19:50:42Z</time>
      </trkpt>
      <trkpt lat="36.9598250" lon="-2.3960720">
        <ele>463.2</ele>
        <time>2019-10-18T19:50:43Z</time>
      </trkpt>
      <trkpt lat="36.9598320" lon="-2.3960560">
        <ele>463.4</ele>
        <time>2019-10-18T19:50:44Z</time>
      </trkpt>
      <trkpt lat="36.9598400" lon="-2.3960420">
        <ele>463.4</ele>
        <time>2019-10-18T19:50:45Z</time>
      </trkpt>
      <trkpt lat="36.9598480" lon="-2.3960290">
        <ele>463.5</ele>
        <time>2019-10-18T19:50:46Z</time>
      </trkpt>
      <trkpt lat="36.9598570" lon="-2.3960190">
        <ele>463.6</ele>
        <time>2019-10-18T19:50:47Z</time>
      </trkpt>
      <trkpt lat="36.9598680" lon="-2.3960110">
        <ele>463.6</ele>
        <time>2019-10-18T19:50:48Z</time>
      </trkpt>
      <trkpt lat="36.9598800" lon="-2.3960040">
        <ele>463.7</ele>
        <time>2019-10-18T19:50:49Z</time>
      </trkpt>
      <trkpt lat="36.9598930" lon="-2.3959980">
        <ele>463.8</ele>
        <time>2019-10-18T19:50:50Z</time>
      </trkpt>
      <trkpt lat="36.9599060" lon="-2.3959920">
        <ele>463.8</ele>
        <time>2019-10-18T19:50:51Z</time>
      </trkpt>
      <trkpt lat="36.9599190" lon="-2.3959870">
        <ele>463.9</ele>
        <time>2019-10-18T19:50:52Z</time>
      </trkpt>
      <trkpt lat="36.9599330" lon="-2.3959820">
        <ele>464.0</ele>
        <time>2019-10-18T19:50:53Z</time>
      </trkpt>
      <trkpt lat="36.9599490" lon="-2.3959780">
        <ele>464.0</ele>
        <time>2019-10-18T19:50:54Z</time>
      </trkpt>
      <trkpt lat="36.9599650" lon="-2.3959770">
        <ele>464.1</ele>
        <time>2019-10-18T19:50:55Z</time>
      </trkpt>
      <trkpt lat="36.9599810" lon="-2.3959790">
        <ele>464.2</ele>
        <time>2019-10-18T19:50:56Z</time>
      </trkpt>
      <trkpt lat="36.9599940" lon="-2.3959850">
        <ele>464.3</ele>
        <time>2019-10-18T19:50:57Z</time>
      </trkpt>
      <trkpt lat="36.9600050" lon="-2.3959940">
        <ele>464.3</ele>
        <time>2019-10-18T19:50:58Z</time>
      </trkpt>
      <trkpt lat="36.9600160" lon="-2.3960060">
        <ele>464.4</ele>
        <time>2019-10-18T19:50:59Z</time>
      </trkpt>
      <trkpt lat="36.9600260" lon="-2.3960180">
        <ele>464.7</ele>
        <time>2019-10-18T19:51:00Z</time>
      </trkpt>
      <trkpt lat="36.9600360" lon="-2.3960300">
        <ele>464.9</ele>
        <time>2019-10-18T19:51:01Z</time>
      </trkpt>
      <trkpt lat="36.9600460" lon="-2.3960420">
        <ele>465.0</ele>
        <time>2019-10-18T19:51:02Z</time>
      </trkpt>
      <trkpt lat="36.9600550" lon="-2.3960560">
        <ele>465.2</ele>
        <time>2019-10-18T19:51:03Z</time>
      </trkpt>
      <trkpt lat="36.9600630" lon="-2.3960720">
        <ele>465.4</ele>
        <time>2019-10-18T19:51:04Z</time>
      </trkpt>
      <trkpt lat="36.9600680" lon="-2.3960920">
        <ele>465.6</ele>
        <time>2019-10-18T19:51:05Z</time>
      </trkpt>
      <trkpt lat="36.9600730" lon="-2.3961120">
        <ele>465.8</ele>
        <time>2019-10-18T19:51:06Z</time>
      </trkpt>
      <trkpt lat="36.9600770" lon="-2.3961330">
        <ele>466.1</ele>
        <time>2019-10-18T19:51:07Z</time>
      </trkpt>
      <trkpt lat="36.9600810" lon="-2.3961540">
        <ele>466.3</ele>
        <time>2019-10-18T19:51:08Z</time>
      </trkpt>
      <trkpt lat="36.9600850" lon="-2.3961740">
        <ele>466.5</ele>
        <time>2019-10-18T19:51:09Z</time>
      </trkpt>
      <trkpt lat="36.9600910" lon="-2.3961940">
        <ele>466.7</ele>
        <time>2019-10-18T19:51:10Z</time>
      </trkpt>
      <trkpt lat="36.9600970" lon="-2.3962140">
        <ele>467.0</ele>
        <time>2019-10-18T19:51:11Z</time>
      </trkpt>
      <trkpt lat="36.9601060" lon="-2.3962320">
        <ele>467.2</ele>
        <time>2019-10-18T19:51:12Z</time>
      </trkpt>
      <trkpt lat="36.9601170" lon="-2.3962490">
        <ele>467.4</ele>
        <time>2019-10-18T19:51:13Z</time>
      </trkpt>
      <trkpt lat="36.9601310" lon="-2.3962640">
        <ele>467.7</ele>
        <time>2019-10-18T19:51:14Z</time>
      </trkpt>
      <trkpt lat="36.9601450" lon="-2.3962760">
        <ele>468.0</ele>
        <time>2019-10-18T19:51:15Z</time>
      </trkpt>
      <trkpt lat="36.9601610" lon="-2.3962860">
        <ele>468.2</ele>
        <time>2019-10-18T19:51:16Z</time>
      </trkpt>
      <trkpt lat="36.9601770" lon="-2.3962930">
        <ele>468.4</ele>
        <time>2019-10-18T19:51:17Z</time>
      </trkpt>
      <trkpt lat="36.9601930" lon="-2.3962980">
        <ele>468.6</ele>
        <time>2019-10-18T19:51:18Z</time>
      </trkpt>
      <trkpt lat="36.9602090" lon="-2.3963020">
        <ele>468.8</ele>
        <time>2019-10-18T19:51:19Z</time>
      </trkpt>
      <trkpt lat="36.9602250" lon="-2.3963040">
        <ele>469.0</ele>
        <time>2019-10-18T19:51:20Z</time>
      </trkpt>
      <trkpt lat="36.9602410" lon="-2.3963050">
        <ele>469.2</ele>
        <time>2019-10-18T19:51:21Z</time>
      </trkpt>
      <trkpt lat="36.9602570" lon="-2.3963050">
        <ele>469.4</ele>
        <time>2019-10-18T19:51:22Z</time>
      </trkpt>
      <trkpt lat="36.9602740" lon="-2.3963050">
        <ele>469.6</ele>
        <time>2019-10-18T19:51:23Z</time>
      </trkpt>
      <trkpt lat="36.9602900" lon="-2.3963080">
        <ele>469.7</ele>
        <time>2019-10-18T19:51:24Z</time>
      </trkpt>
      <trkpt lat="36.9603040" lon="-2.3963120">
        <ele>469.9</ele>
        <time>2019-10-18T19:51:25Z</time>
      </trkpt>
      <trkpt lat="36.9603180" lon="-2.3963180">
        <ele>470.1</ele>
        <time>2019-10-18T19:51:26Z</time>
      </trkpt>
      <trkpt lat="36.9603320" lon="-2.3963240">
        <ele>470.2</ele>
        <time>2019-10-18T19:51:27Z</time>
      </trkpt>
      <trkpt lat="36.9603460" lon="-2.3963280">
        <ele>470.4</ele>
        <time>2019-10-18T19:51:28Z</time>
      </trkpt>
      <trkpt lat="36.9603600" lon="-2.3963300">
        <ele>470.6</ele>
        <time>2019-10-18T19:51:29Z</time>
      </trkpt>
      <trkpt lat="36.9603720" lon="-2.3963320">
        <ele>470.7</ele>
        <time>2019-10-18T19:51:30Z</time>
      </trkpt>
      <trkpt lat="36.9603850" lon="-2.3963350">
        <ele>470.8</ele>
        <time>2019-10-18T19:51:31Z</time>
      </trkpt>
      <trkpt lat="36.9603980" lon="-2.3963370">
        <ele>471.0</ele>
        <time>2019-10-18T19:51:32Z</time>
      </trkpt>
      <trkpt lat="36.9604120" lon="-2.3963400">
        <ele>471.2</ele>
        <time>2019-10-18T19:51:33Z</time>
      </trkpt>
      <trkpt lat="36.9604260" lon="-2.3963430">
        <ele>471.4</ele>
        <time>2019-10-18T19:51:34Z</time>
      </trkpt>
      <trkpt lat="36.9604410" lon="-2.3963460">
        <ele>471.7</ele>
        <time>2019-10-18T19:51:35Z</time>
      </trkpt>
      <trkpt lat="36.9604550" lon="-2.3963510">
        <ele>471.8</ele>
        <time>2019-10-18T19:51:36Z</time>
      </trkpt>
      <trkpt lat="36.9604690" lon="-2.3963570">
        <ele>472.0</ele>
        <time>2019-10-18T19:51:37Z</time>
      </trkpt>
      <trkpt lat="36.9604820" lon="-2.3963660">
        <ele>472.2</ele>
        <time>2019-10-18T19:51:38Z</time>
      </trkpt>
      <trkpt lat="36.9604950" lon="-2.3963750">
        <ele>472.4</ele>
        <time>2019-10-18T19:51:39Z</time>
      </trkpt>
      <trkpt lat="36.9605080" lon="-2.3963840">
        <ele>472.6</ele>
        <time>2019-10-18T19:51:40Z</time>
      </trkpt>
      <trkpt lat="36.9605210" lon="-2.3963930">
        <ele>472.8</ele>
        <time>2019-10-18T19:51:41Z</time>
      </trkpt>
      <trkpt lat="36.9605340" lon="-2.3964010">
        <ele>473.0</ele>
        <time>2019-10-18T19:51:42Z</time>
      </trkpt>
      <trkpt lat="36.9605460" lon="-2.3964100">
        <ele>473.2</ele>
        <time>2019-10-18T19:51:43Z</time>
      </trkpt>
      <trkpt lat="36.9605570" lon="-2.3964220">
        <ele>473.4</ele>
        <time>2019-10-18T19:51:44Z</time>
      </trkpt>
      <trkpt lat="36.9605690" lon="-2.3964330">
        <ele>473.6</ele>
        <time>2019-10-18T19:51:45Z</time>
      </trkpt>
      <trkpt lat="36.9605810" lon="-2.3964420">
        <ele>473.8</ele>
        <time>2019-10-18T19:51:46Z</time>
      </trkpt>
      <trkpt lat="36.9605930" lon="-2.3964480">
        <ele>474.0</ele>
        <time>2019-10-18T19:51:47Z</time>
      </trkpt>
      <trkpt lat="36.9606050" lon="-2.3964550">
        <ele>474.2</ele>
        <time>2019-10-18T19:51:48Z</time>
      </trkpt>
      <trkpt lat="36.9606150" lon="-2.3964630">
        <ele>474.4</ele>
        <time>2019-10-18T19:51:49Z</time>
      </trkpt>
      <trkpt lat="36.9606260" lon="-2.3964720">
        <ele>474.6</ele>
        <time>2019-10-18T19:51:50Z</time>
      </trkpt>
      <trkpt lat="36.9606360" lon="-2.3964780">
        <ele>474.8</ele>
        <time>2019-10-18T19:51:51Z</time>
      </trkpt>
      <trkpt lat="36.9606470" lon="-2.3964810">
        <ele>474.9</ele>
        <time>2019-10-18T19:51:52Z</time>
      </trkpt>
      <trkpt lat="36.9606560" lon="-2.3964820">
        <ele>475.8</ele>
        <time>2019-10-18T19:51:53Z</time>
      </trkpt>
      <trkpt lat="36.9606650" lon="-2.3964840">
        <ele>476.0</ele>
        <time>2019-10-18T19:51:54Z</time>
      </trkpt>
      <trkpt lat="36.9606730" lon="-2.3964850">
        <ele>476.2</ele>
        <time>2019-10-18T19:51:55Z</time>
      </trkpt>
      <trkpt lat="36.9606810" lon="-2.3964880">
        <ele>476.4</ele>
        <time>2019-10-18T19:51:56Z</time>
      </trkpt>
      <trkpt lat="36.9606900" lon="-2.3964890">
        <ele>476.6</ele>
        <time>2019-10-18T19:51:57Z</time>
      </trkpt>
      <trkpt lat="36.9606980" lon="-2.3964900">
        <ele>476.8</ele>
        <time>2019-10-18T19:51:58Z</time>
      </trkpt>
      <trkpt lat="36.9607070" lon="-2.3964900">
        <ele>477.0</ele>
        <time>2019-10-18T19:51:59Z</time>
      </trkpt>
      <trkpt lat="36.9607140" lon="-2.3964910">
        <ele>477.2</ele>
        <time>2019-10-18T19:52:00Z</time>
      </trkpt>
      <trkpt lat="36.9607230" lon="-2.3964900">
        <ele>477.4</ele>
        <time>2019-10-18T19:52:01Z</time>
      </trkpt>
      <trkpt lat="36.9607300" lon="-2.3964900">
        <ele>477.5</ele>
        <time>2019-10-18T19:52:02Z</time>
      </trkpt>
      <trkpt lat="36.9607390" lon="-2.3964900">
        <ele>477.7</ele>
        <time>2019-10-18T19:52:03Z</time>
      </trkpt>
      <trkpt lat="36.9607470" lon="-2.3964890">
        <ele>477.9</ele>
        <time>2019-10-18T19:52:04Z</time>
      </trkpt>
      <trkpt lat="36.9607570" lon="-2.3964890">
        <ele>478.2</ele>
        <time>2019-10-18T19:52:05Z</time>
      </trkpt>
      <trkpt lat="36.9607680" lon="-2.3964880">
        <ele>478.4</ele>
        <time>2019-10-18T19:52:06Z</time>
      </trkpt>
      <trkpt lat="36.9607820" lon="-2.3964850">
        <ele>478.7</ele>
        <time>2019-10-18T19:52:07Z</time>
      </trkpt>
      <trkpt lat="36.9607970" lon="-2.3964810">
        <ele>479.1</ele>
        <time>2019-10-18T19:52:08Z</time>
      </trkpt>
      <trkpt lat="36.9608110" lon="-2.3964780">
        <ele>479.4</ele>
        <time>2019-10-18T19:52:09Z</time>
      </trkpt>
      <trkpt lat="36.9608250" lon="-2.3964780">
        <ele>479.8</ele>
        <time>2019-10-18T19:52:10Z</time>
      </trkpt>
      <trkpt lat="36.9608400" lon="-2.3964840">
        <ele>480.1</ele>
        <time>2019-10-18T19:52:11Z</time>
      </trkpt>
      <trkpt lat="36.9608550" lon="-2.3964910">
        <ele>481.1</ele>
        <time>2019-10-18T19:52:12Z</time>
      </trkpt>
      <trkpt lat="36.9608700" lon="-2.3965010">
        <ele>480.9</ele>
        <time>2019-10-18T19:52:13Z</time>
      </trkpt>
      <trkpt lat="36.9608830" lon="-2.3965110">
        <ele>480.8</ele>
        <time>2019-10-18T19:52:14Z</time>
      </trkpt>
      <trkpt lat="36.9608920" lon="-2.3965260">
        <ele>480.7</ele>
        <time>2019-10-18T19:52:15Z</time>
      </trkpt>
      <trkpt lat="36.9608990" lon="-2.3965430">
        <ele>480.5</ele>
        <time>2019-10-18T19:52:16Z</time>
      </trkpt>
      <trkpt lat="36.9609030" lon="-2.3965600">
        <ele>480.5</ele>
        <time>2019-10-18T19:52:17Z</time>
      </trkpt>
      <trkpt lat="36.9609100" lon="-2.3965770">
        <ele>480.3</ele>
        <time>2019-10-18T19:52:18Z</time>
      </trkpt>
      <trkpt lat="36.9609160" lon="-2.3965940">
        <ele>480.2</ele>
        <time>2019-10-18T19:52:19Z</time>
      </trkpt>
      <trkpt lat="36.9609220" lon="-2.3966110">
        <ele>480.1</ele>
        <time>2019-10-18T19:52:20Z</time>
      </trkpt>
      <trkpt lat="36.9609280" lon="-2.3966290">
        <ele>480.0</ele>
        <time>2019-10-18T19:52:21Z</time>
      </trkpt>
      <trkpt lat="36.9609330" lon="-2.3966480">
        <ele>479.9</ele>
        <time>2019-10-18T19:52:22Z</time>
      </trkpt>
      <trkpt lat="36.9609380" lon="-2.3966660">
        <ele>479.8</ele>
        <time>2019-10-18T19:52:23Z</time>
      </trkpt>
      <trkpt lat="36.9609420" lon="-2.3966840">
        <ele>479.7</ele>
        <time>2019-10-18T19:52:24Z</time>
      </trkpt>
      <trkpt lat="36.9609460" lon="-2.3967020">
        <ele>479.6</ele>
        <time>2019-10-18T19:52:25Z</time>
      </trkpt>
      <trkpt lat="36.9609500" lon="-2.3967180">
        <ele>479.5</ele>
        <time>2019-10-18T19:52:26Z</time>
      </trkpt>
      <trkpt lat="36.9609530" lon="-2.3967350">
        <ele>479.5</ele>
        <time>2019-10-18T19:52:27Z</time>
      </trkpt>
      <trkpt lat="36.9609560" lon="-2.3967510">
        <ele>479.4</ele>
        <time>2019-10-18T19:52:28Z</time>
      </trkpt>
      <trkpt lat="36.9609590" lon="-2.3967680">
        <ele>479.2</ele>
        <time>2019-10-18T19:52:29Z</time>
      </trkpt>
      <trkpt lat="36.9609600" lon="-2.3967840">
        <ele>479.1</ele>
        <time>2019-10-18T19:52:30Z</time>
      </trkpt>
      <trkpt lat="36.9609610" lon="-2.3968000">
        <ele>479.0</ele>
        <time>2019-10-18T19:52:31Z</time>
      </trkpt>
      <trkpt lat="36.9609630" lon="-2.3968150">
        <ele>478.9</ele>
        <time>2019-10-18T19:52:32Z</time>
      </trkpt>
      <trkpt lat="36.9609660" lon="-2.3968280">
        <ele>478.9</ele>
        <time>2019-10-18T19:52:33Z</time>
      </trkpt>
      <trkpt lat="36.9609700" lon="-2.3968410">
        <ele>478.8</ele>
        <time>2019-10-18T19:52:34Z</time>
      </trkpt>
      <trkpt lat="36.9609730" lon="-2.3968530">
        <ele>478.7</ele>
        <time>2019-10-18T19:52:35Z</time>
      </trkpt>
      <trkpt lat="36.9609770" lon="-2.3968640">
        <ele>478.6</ele>
        <time>2019-10-18T19:52:36Z</time>
      </trkpt>
      <trkpt lat="36.9609820" lon="-2.3968710">
        <ele>478.5</ele>
        <time>2019-10-18T19:52:37Z</time>
      </trkpt>
      <trkpt lat="36.9609870" lon="-2.3968760">
        <ele>478.5</ele>
        <time>2019-10-18T19:52:38Z</time>
      </trkpt>
      <trkpt lat="36.9609930" lon="-2.3968790">
        <ele>478.4</ele>
        <time>2019-10-18T19:52:39Z</time>
      </trkpt>
      <trkpt lat="36.9609970" lon="-2.3968810">
        <ele>478.4</ele>
        <time>2019-10-18T19:52:40Z</time>
      </trkpt>
      <trkpt lat="36.9610010" lon="-2.3968820">
        <ele>478.4</ele>
        <time>2019-10-18T19:52:41Z</time>
      </trkpt>
      <trkpt lat="36.9610050" lon="-2.3968820">
        <ele>478.3</ele>
        <time>2019-10-18T19:52:42Z</time>
      </trkpt>
      <trkpt lat="36.9610080" lon="-2.3968830">
        <ele>478.3</ele>
        <time>2019-10-18T19:52:43Z</time>
      </trkpt>
      <trkpt lat="36.9610130" lon="-2.3968830">
        <ele>478.3</ele>
        <time>2019-10-18T19:52:44Z</time>
      </trkpt>
      <trkpt lat="36.9610160" lon="-2.3968840">
        <ele>478.3</ele>
        <time>2019-10-18T19:52:45Z</time>
      </trkpt>
      <trkpt lat="36.9610190" lon="-2.3968830">
        <ele>478.2</ele>
        <time>2019-10-18T19:52:46Z</time>
      </trkpt>
      <trkpt lat="36.9610230" lon="-2.3968830">
        <ele>478.2</ele>
        <time>2019-10-18T19:52:47Z</time>
      </trkpt>
      <trkpt lat="36.9610270" lon="-2.3968830">
        <ele>478.2</ele>
        <time>2019-10-18T19:52:48Z</time>
      </trkpt>
      <trkpt lat="36.9610320" lon="-2.3968830">
        <ele>478.1</ele>
        <time>2019-10-18T19:52:49Z</time>
      </trkpt>
      <trkpt lat="36.9610380" lon="-2.3968830">
        <ele>478.1</ele>
        <time>2019-10-18T19:52:50Z</time>
      </trkpt>
      <trkpt lat="36.9610430" lon="-2.3968830">
        <ele>478.0</ele>
        <time>2019-10-18T19:52:51Z</time>
      </trkpt>
    </trkseg>
  </trk>
</gpx>
